<?xml version="1.0" encoding="UTF-8"?>
<gpx version="1.1" creator="https://www.youtrack.es" xsi:schemaLocation="http://www.topografix.com/GPX/1/1 http://www.topografix.com/GPX/1/1/gpx.xsd http://www.garmin.com/xmlschemas/GpxExtensions/v3 http://www.garmin.com/xmlschemas/GpxExtensionsv3.xsd http://www.garmin.com/xmlschemas/TrackPointExtension/v1 http://www.garmin.com/xmlschemas/TrackPointExtensionv1.xsd" xmlns:gpxtpx="http://www.garmin.com/xmlschemas/TrackPointExtension/v1" xmlns:gpxx="http://www.garmin.com/xmlschemas/GpxExtensions/v3" xmlns:xsi="http://www.w3.org/2001/XMLSchema-instance">
  <metadata>
    <link href="https://www.youtrack.es">
      <text>YouTrack.es</text>
    </link>
    <time>2026-05-08T21:00:50Z</time>
  </metadata>
  <trk>
    <src>https://www.youtrack.es</src>
    <link href="https://www.youtrack.es/ruta/34727-formigal">
      <text>YouTrack.es</text>
    </link>
    <trkseg>
      <trkpt lat="41.049" lon="-0.12673">
        <time>2022-07-29T07:06:30Z</time>
      </trkpt>
      <trkpt lat="41.04896" lon="-0.12695">
        <time>2022-07-29T07:06:30Z</time>
      </trkpt>
      <trkpt lat="41.04896" lon="-0.12699">
        <time>2022-07-29T07:06:31Z</time>
      </trkpt>
      <trkpt lat="41.04899" lon="-0.12707">
        <time>2022-07-29T07:06:32Z</time>
      </trkpt>
      <trkpt lat="41.0491" lon="-0.12687">
        <time>2022-07-29T07:06:33Z</time>
      </trkpt>
      <trkpt lat="41.0491" lon="-0.12686">
        <time>2022-07-29T07:06:34Z</time>
      </trkpt>
      <trkpt lat="41.04911" lon="-0.12686">
        <time>2022-07-29T07:06:35Z</time>
      </trkpt>
      <trkpt lat="41.04913" lon="-0.12682">
        <time>2022-07-29T07:06:36Z</time>
      </trkpt>
      <trkpt lat="41.04913" lon="-0.12677">
        <time>2022-07-29T07:06:37Z</time>
      </trkpt>
      <trkpt lat="41.04913" lon="-0.12671">
        <time>2022-07-29T07:06:38Z</time>
      </trkpt>
      <trkpt lat="41.0491" lon="-0.12661">
        <time>2022-07-29T07:06:39Z</time>
      </trkpt>
      <trkpt lat="41.0491" lon="-0.12653">
        <time>2022-07-29T07:06:40Z</time>
      </trkpt>
      <trkpt lat="41.04909" lon="-0.12646">
        <time>2022-07-29T07:06:41Z</time>
      </trkpt>
      <trkpt lat="41.04908" lon="-0.12639">
        <time>2022-07-29T07:06:42Z</time>
      </trkpt>
      <trkpt lat="41.04908" lon="-0.12632">
        <time>2022-07-29T07:06:43Z</time>
      </trkpt>
      <trkpt lat="41.04906" lon="-0.12628">
        <time>2022-07-29T07:06:44Z</time>
      </trkpt>
      <trkpt lat="41.04906" lon="-0.12625">
        <time>2022-07-29T07:06:45Z</time>
      </trkpt>
      <trkpt lat="41.04907" lon="-0.12622">
        <time>2022-07-29T07:06:46Z</time>
      </trkpt>
      <trkpt lat="41.04905" lon="-0.12619">
        <time>2022-07-29T07:06:47Z</time>
      </trkpt>
      <trkpt lat="41.04903" lon="-0.12616">
        <time>2022-07-29T07:06:48Z</time>
      </trkpt>
      <trkpt lat="41.04899" lon="-0.12614">
        <time>2022-07-29T07:06:49Z</time>
      </trkpt>
      <trkpt lat="41.04893" lon="-0.12614">
        <time>2022-07-29T07:06:50Z</time>
      </trkpt>
      <trkpt lat="41.04888" lon="-0.12612">
        <time>2022-07-29T07:06:51Z</time>
      </trkpt>
      <trkpt lat="41.04885" lon="-0.12608">
        <time>2022-07-29T07:06:52Z</time>
      </trkpt>
      <trkpt lat="41.04884" lon="-0.12604">
        <time>2022-07-29T07:06:53Z</time>
      </trkpt>
      <trkpt lat="41.04887" lon="-0.126">
        <time>2022-07-29T07:06:54Z</time>
      </trkpt>
      <trkpt lat="41.04889" lon="-0.12598">
        <time>2022-07-29T07:06:55Z</time>
      </trkpt>
      <trkpt lat="41.04892" lon="-0.126">
        <time>2022-07-29T07:06:56Z</time>
      </trkpt>
      <trkpt lat="41.04895" lon="-0.12602">
        <time>2022-07-29T07:06:57Z</time>
      </trkpt>
      <trkpt lat="41.04899" lon="-0.12604">
        <time>2022-07-29T07:06:58Z</time>
      </trkpt>
      <trkpt lat="41.04901" lon="-0.12606">
        <time>2022-07-29T07:06:59Z</time>
      </trkpt>
      <trkpt lat="41.04904" lon="-0.12606">
        <time>2022-07-29T07:07:00Z</time>
      </trkpt>
      <trkpt lat="41.04906" lon="-0.12606">
        <time>2022-07-29T07:07:01Z</time>
      </trkpt>
      <trkpt lat="41.0491" lon="-0.12607">
        <time>2022-07-29T07:07:16Z</time>
      </trkpt>
      <trkpt lat="41.04914" lon="-0.12607">
        <time>2022-07-29T07:07:17Z</time>
      </trkpt>
      <trkpt lat="41.04921" lon="-0.12609">
        <time>2022-07-29T07:07:18Z</time>
      </trkpt>
      <trkpt lat="41.04929" lon="-0.1261">
        <time>2022-07-29T07:07:19Z</time>
      </trkpt>
      <trkpt lat="41.04941" lon="-0.12612">
        <time>2022-07-29T07:07:20Z</time>
      </trkpt>
      <trkpt lat="41.04951" lon="-0.12615">
        <time>2022-07-29T07:07:21Z</time>
      </trkpt>
      <trkpt lat="41.04961" lon="-0.12618">
        <time>2022-07-29T07:07:22Z</time>
      </trkpt>
      <trkpt lat="41.04972" lon="-0.12622">
        <time>2022-07-29T07:07:23Z</time>
      </trkpt>
      <trkpt lat="41.04982" lon="-0.12626">
        <time>2022-07-29T07:07:24Z</time>
      </trkpt>
      <trkpt lat="41.04991" lon="-0.1263">
        <time>2022-07-29T07:07:25Z</time>
      </trkpt>
      <trkpt lat="41.05001" lon="-0.12633">
        <time>2022-07-29T07:07:26Z</time>
      </trkpt>
      <trkpt lat="41.0501" lon="-0.12637">
        <time>2022-07-29T07:07:27Z</time>
      </trkpt>
      <trkpt lat="41.0502" lon="-0.1264">
        <time>2022-07-29T07:07:28Z</time>
      </trkpt>
      <trkpt lat="41.05029" lon="-0.12644">
        <time>2022-07-29T07:07:29Z</time>
      </trkpt>
      <trkpt lat="41.05038" lon="-0.12648">
        <time>2022-07-29T07:07:30Z</time>
      </trkpt>
      <trkpt lat="41.05047" lon="-0.12652">
        <time>2022-07-29T07:07:31Z</time>
      </trkpt>
      <trkpt lat="41.05056" lon="-0.12655">
        <time>2022-07-29T07:07:32Z</time>
      </trkpt>
      <trkpt lat="41.05065" lon="-0.12659">
        <time>2022-07-29T07:07:33Z</time>
      </trkpt>
      <trkpt lat="41.05074" lon="-0.12663">
        <time>2022-07-29T07:07:34Z</time>
      </trkpt>
      <trkpt lat="41.05084" lon="-0.12666">
        <time>2022-07-29T07:07:35Z</time>
      </trkpt>
      <trkpt lat="41.05093" lon="-0.12669">
        <time>2022-07-29T07:07:36Z</time>
      </trkpt>
      <trkpt lat="41.05101" lon="-0.12672">
        <time>2022-07-29T07:07:37Z</time>
      </trkpt>
      <trkpt lat="41.05109" lon="-0.12676">
        <time>2022-07-29T07:07:38Z</time>
      </trkpt>
      <trkpt lat="41.05116" lon="-0.12678">
        <time>2022-07-29T07:07:39Z</time>
      </trkpt>
      <trkpt lat="41.05122" lon="-0.12681">
        <time>2022-07-29T07:07:40Z</time>
      </trkpt>
      <trkpt lat="41.05128" lon="-0.12683">
        <time>2022-07-29T07:07:41Z</time>
      </trkpt>
      <trkpt lat="41.05135" lon="-0.12685">
        <time>2022-07-29T07:07:42Z</time>
      </trkpt>
      <trkpt lat="41.05141" lon="-0.12688">
        <time>2022-07-29T07:07:43Z</time>
      </trkpt>
      <trkpt lat="41.05147" lon="-0.12692">
        <time>2022-07-29T07:07:44Z</time>
      </trkpt>
      <trkpt lat="41.05154" lon="-0.12694">
        <time>2022-07-29T07:07:45Z</time>
      </trkpt>
      <trkpt lat="41.05161" lon="-0.12695">
        <time>2022-07-29T07:07:46Z</time>
      </trkpt>
      <trkpt lat="41.05167" lon="-0.12695">
        <time>2022-07-29T07:07:47Z</time>
      </trkpt>
      <trkpt lat="41.05176" lon="-0.12691">
        <time>2022-07-29T07:07:48Z</time>
      </trkpt>
      <trkpt lat="41.05184" lon="-0.12687">
        <time>2022-07-29T07:07:49Z</time>
      </trkpt>
      <trkpt lat="41.05193" lon="-0.12683">
        <time>2022-07-29T07:07:50Z</time>
      </trkpt>
      <trkpt lat="41.05202" lon="-0.12677">
        <time>2022-07-29T07:07:51Z</time>
      </trkpt>
      <trkpt lat="41.05213" lon="-0.12671">
        <time>2022-07-29T07:07:52Z</time>
      </trkpt>
      <trkpt lat="41.05225" lon="-0.12665">
        <time>2022-07-29T07:07:53Z</time>
      </trkpt>
      <trkpt lat="41.05237" lon="-0.12659">
        <time>2022-07-29T07:07:54Z</time>
      </trkpt>
      <trkpt lat="41.05248" lon="-0.12653">
        <time>2022-07-29T07:07:55Z</time>
      </trkpt>
      <trkpt lat="41.0526" lon="-0.12647">
        <time>2022-07-29T07:07:56Z</time>
      </trkpt>
      <trkpt lat="41.05271" lon="-0.12642">
        <time>2022-07-29T07:07:57Z</time>
      </trkpt>
      <trkpt lat="41.05282" lon="-0.12636">
        <time>2022-07-29T07:07:58Z</time>
      </trkpt>
      <trkpt lat="41.05293" lon="-0.12629">
        <time>2022-07-29T07:07:59Z</time>
      </trkpt>
      <trkpt lat="41.05304" lon="-0.12624">
        <time>2022-07-29T07:08:00Z</time>
      </trkpt>
      <trkpt lat="41.05314" lon="-0.12617">
        <time>2022-07-29T07:08:01Z</time>
      </trkpt>
      <trkpt lat="41.05322" lon="-0.12612">
        <time>2022-07-29T07:08:02Z</time>
      </trkpt>
      <trkpt lat="41.05331" lon="-0.12608">
        <time>2022-07-29T07:08:03Z</time>
      </trkpt>
      <trkpt lat="41.05337" lon="-0.12604">
        <time>2022-07-29T07:08:04Z</time>
      </trkpt>
      <trkpt lat="41.05345" lon="-0.126">
        <time>2022-07-29T07:08:05Z</time>
      </trkpt>
      <trkpt lat="41.05352" lon="-0.12597">
        <time>2022-07-29T07:08:06Z</time>
      </trkpt>
      <trkpt lat="41.05358" lon="-0.12593">
        <time>2022-07-29T07:08:07Z</time>
      </trkpt>
      <trkpt lat="41.05364" lon="-0.1259">
        <time>2022-07-29T07:08:08Z</time>
      </trkpt>
      <trkpt lat="41.0537" lon="-0.12587">
        <time>2022-07-29T07:08:09Z</time>
      </trkpt>
      <trkpt lat="41.05375" lon="-0.12584">
        <time>2022-07-29T07:08:10Z</time>
      </trkpt>
      <trkpt lat="41.05381" lon="-0.1258">
        <time>2022-07-29T07:08:11Z</time>
      </trkpt>
      <trkpt lat="41.05386" lon="-0.12579">
        <time>2022-07-29T07:08:12Z</time>
      </trkpt>
      <trkpt lat="41.05392" lon="-0.1258">
        <time>2022-07-29T07:08:13Z</time>
      </trkpt>
      <trkpt lat="41.05397" lon="-0.12585">
        <time>2022-07-29T07:08:14Z</time>
      </trkpt>
      <trkpt lat="41.05401" lon="-0.12592">
        <time>2022-07-29T07:08:15Z</time>
      </trkpt>
      <trkpt lat="41.05407" lon="-0.12598">
        <time>2022-07-29T07:08:16Z</time>
      </trkpt>
      <trkpt lat="41.05414" lon="-0.12604">
        <time>2022-07-29T07:08:17Z</time>
      </trkpt>
      <trkpt lat="41.05422" lon="-0.1261">
        <time>2022-07-29T07:08:18Z</time>
      </trkpt>
      <trkpt lat="41.05431" lon="-0.12616">
        <time>2022-07-29T07:08:19Z</time>
      </trkpt>
      <trkpt lat="41.0544" lon="-0.12622">
        <time>2022-07-29T07:08:20Z</time>
      </trkpt>
      <trkpt lat="41.05449" lon="-0.12629">
        <time>2022-07-29T07:08:21Z</time>
      </trkpt>
      <trkpt lat="41.0546" lon="-0.12636">
        <time>2022-07-29T07:08:22Z</time>
      </trkpt>
      <trkpt lat="41.05469" lon="-0.12644">
        <time>2022-07-29T07:08:23Z</time>
      </trkpt>
      <trkpt lat="41.05478" lon="-0.12653">
        <time>2022-07-29T07:08:24Z</time>
      </trkpt>
      <trkpt lat="41.05487" lon="-0.12663">
        <time>2022-07-29T07:08:25Z</time>
      </trkpt>
      <trkpt lat="41.05496" lon="-0.12674">
        <time>2022-07-29T07:08:26Z</time>
      </trkpt>
      <trkpt lat="41.05504" lon="-0.12686">
        <time>2022-07-29T07:08:27Z</time>
      </trkpt>
      <trkpt lat="41.05511" lon="-0.127">
        <time>2022-07-29T07:08:28Z</time>
      </trkpt>
      <trkpt lat="41.05518" lon="-0.12714">
        <time>2022-07-29T07:08:29Z</time>
      </trkpt>
      <trkpt lat="41.05525" lon="-0.12728">
        <time>2022-07-29T07:08:30Z</time>
      </trkpt>
      <trkpt lat="41.05532" lon="-0.12743">
        <time>2022-07-29T07:08:31Z</time>
      </trkpt>
      <trkpt lat="41.05539" lon="-0.12758">
        <time>2022-07-29T07:08:32Z</time>
      </trkpt>
      <trkpt lat="41.05545" lon="-0.12773">
        <time>2022-07-29T07:08:33Z</time>
      </trkpt>
      <trkpt lat="41.05551" lon="-0.12788">
        <time>2022-07-29T07:08:34Z</time>
      </trkpt>
      <trkpt lat="41.05556" lon="-0.12804">
        <time>2022-07-29T07:08:35Z</time>
      </trkpt>
      <trkpt lat="41.05561" lon="-0.12818">
        <time>2022-07-29T07:08:36Z</time>
      </trkpt>
      <trkpt lat="41.05566" lon="-0.12833">
        <time>2022-07-29T07:08:37Z</time>
      </trkpt>
      <trkpt lat="41.05571" lon="-0.12848">
        <time>2022-07-29T07:08:38Z</time>
      </trkpt>
      <trkpt lat="41.05576" lon="-0.12863">
        <time>2022-07-29T07:08:39Z</time>
      </trkpt>
      <trkpt lat="41.05579" lon="-0.12878">
        <time>2022-07-29T07:08:40Z</time>
      </trkpt>
      <trkpt lat="41.05583" lon="-0.12893">
        <time>2022-07-29T07:08:41Z</time>
      </trkpt>
      <trkpt lat="41.05583" lon="-0.1291">
        <time>2022-07-29T07:08:42Z</time>
      </trkpt>
      <trkpt lat="41.05581" lon="-0.12927">
        <time>2022-07-29T07:08:43Z</time>
      </trkpt>
      <trkpt lat="41.05577" lon="-0.12945">
        <time>2022-07-29T07:08:44Z</time>
      </trkpt>
      <trkpt lat="41.05573" lon="-0.12963">
        <time>2022-07-29T07:08:45Z</time>
      </trkpt>
      <trkpt lat="41.05569" lon="-0.12981">
        <time>2022-07-29T07:08:46Z</time>
      </trkpt>
      <trkpt lat="41.05564" lon="-0.13001">
        <time>2022-07-29T07:08:47Z</time>
      </trkpt>
      <trkpt lat="41.0556" lon="-0.13022">
        <time>2022-07-29T07:08:48Z</time>
      </trkpt>
      <trkpt lat="41.05555" lon="-0.13041">
        <time>2022-07-29T07:08:49Z</time>
      </trkpt>
      <trkpt lat="41.05551" lon="-0.1306">
        <time>2022-07-29T07:08:50Z</time>
      </trkpt>
      <trkpt lat="41.05546" lon="-0.13079">
        <time>2022-07-29T07:08:51Z</time>
      </trkpt>
      <trkpt lat="41.05542" lon="-0.13096">
        <time>2022-07-29T07:08:52Z</time>
      </trkpt>
      <trkpt lat="41.05538" lon="-0.13114">
        <time>2022-07-29T07:08:53Z</time>
      </trkpt>
      <trkpt lat="41.05534" lon="-0.13131">
        <time>2022-07-29T07:08:54Z</time>
      </trkpt>
      <trkpt lat="41.0553" lon="-0.13147">
        <time>2022-07-29T07:08:55Z</time>
      </trkpt>
      <trkpt lat="41.05525" lon="-0.13164">
        <time>2022-07-29T07:08:56Z</time>
      </trkpt>
      <trkpt lat="41.05521" lon="-0.13181">
        <time>2022-07-29T07:08:57Z</time>
      </trkpt>
      <trkpt lat="41.05517" lon="-0.13197">
        <time>2022-07-29T07:08:58Z</time>
      </trkpt>
      <trkpt lat="41.05514" lon="-0.13214">
        <time>2022-07-29T07:08:59Z</time>
      </trkpt>
      <trkpt lat="41.05512" lon="-0.13231">
        <time>2022-07-29T07:09:00Z</time>
      </trkpt>
      <trkpt lat="41.05509" lon="-0.13249">
        <time>2022-07-29T07:09:01Z</time>
      </trkpt>
      <trkpt lat="41.05508" lon="-0.13268">
        <time>2022-07-29T07:09:02Z</time>
      </trkpt>
      <trkpt lat="41.05505" lon="-0.13286">
        <time>2022-07-29T07:09:03Z</time>
      </trkpt>
      <trkpt lat="41.05502" lon="-0.13304">
        <time>2022-07-29T07:09:04Z</time>
      </trkpt>
      <trkpt lat="41.05499" lon="-0.13322">
        <time>2022-07-29T07:09:05Z</time>
      </trkpt>
      <trkpt lat="41.05495" lon="-0.13339">
        <time>2022-07-29T07:09:06Z</time>
      </trkpt>
      <trkpt lat="41.05492" lon="-0.13357">
        <time>2022-07-29T07:09:07Z</time>
      </trkpt>
      <trkpt lat="41.05488" lon="-0.13373">
        <time>2022-07-29T07:09:08Z</time>
      </trkpt>
      <trkpt lat="41.05484" lon="-0.1339">
        <time>2022-07-29T07:09:09Z</time>
      </trkpt>
      <trkpt lat="41.05481" lon="-0.13406">
        <time>2022-07-29T07:09:10Z</time>
      </trkpt>
      <trkpt lat="41.05477" lon="-0.13422">
        <time>2022-07-29T07:09:11Z</time>
      </trkpt>
      <trkpt lat="41.05474" lon="-0.13436">
        <time>2022-07-29T07:09:12Z</time>
      </trkpt>
      <trkpt lat="41.05471" lon="-0.13451">
        <time>2022-07-29T07:09:13Z</time>
      </trkpt>
      <trkpt lat="41.05468" lon="-0.13467">
        <time>2022-07-29T07:09:14Z</time>
      </trkpt>
      <trkpt lat="41.05465" lon="-0.13481">
        <time>2022-07-29T07:09:15Z</time>
      </trkpt>
      <trkpt lat="41.0546" lon="-0.13494">
        <time>2022-07-29T07:09:16Z</time>
      </trkpt>
      <trkpt lat="41.05456" lon="-0.13507">
        <time>2022-07-29T07:09:17Z</time>
      </trkpt>
      <trkpt lat="41.05449" lon="-0.13517">
        <time>2022-07-29T07:09:18Z</time>
      </trkpt>
      <trkpt lat="41.05441" lon="-0.13528">
        <time>2022-07-29T07:09:19Z</time>
      </trkpt>
      <trkpt lat="41.05433" lon="-0.13539">
        <time>2022-07-29T07:09:20Z</time>
      </trkpt>
      <trkpt lat="41.05425" lon="-0.1355">
        <time>2022-07-29T07:09:21Z</time>
      </trkpt>
      <trkpt lat="41.05416" lon="-0.13562">
        <time>2022-07-29T07:09:22Z</time>
      </trkpt>
      <trkpt lat="41.05407" lon="-0.13573">
        <time>2022-07-29T07:09:23Z</time>
      </trkpt>
      <trkpt lat="41.05398" lon="-0.13586">
        <time>2022-07-29T07:09:24Z</time>
      </trkpt>
      <trkpt lat="41.05389" lon="-0.136">
        <time>2022-07-29T07:09:25Z</time>
      </trkpt>
      <trkpt lat="41.05382" lon="-0.13613">
        <time>2022-07-29T07:09:26Z</time>
      </trkpt>
      <trkpt lat="41.05374" lon="-0.13627">
        <time>2022-07-29T07:09:27Z</time>
      </trkpt>
      <trkpt lat="41.05368" lon="-0.13642">
        <time>2022-07-29T07:09:28Z</time>
      </trkpt>
      <trkpt lat="41.05361" lon="-0.13655">
        <time>2022-07-29T07:09:29Z</time>
      </trkpt>
      <trkpt lat="41.05355" lon="-0.13667">
        <time>2022-07-29T07:09:30Z</time>
      </trkpt>
      <trkpt lat="41.05349" lon="-0.13678">
        <time>2022-07-29T07:09:31Z</time>
      </trkpt>
      <trkpt lat="41.05341" lon="-0.13689">
        <time>2022-07-29T07:09:32Z</time>
      </trkpt>
      <trkpt lat="41.05332" lon="-0.13698">
        <time>2022-07-29T07:09:33Z</time>
      </trkpt>
      <trkpt lat="41.05324" lon="-0.13706">
        <time>2022-07-29T07:09:34Z</time>
      </trkpt>
      <trkpt lat="41.05317" lon="-0.13714">
        <time>2022-07-29T07:09:35Z</time>
      </trkpt>
      <trkpt lat="41.05308" lon="-0.1372">
        <time>2022-07-29T07:09:36Z</time>
      </trkpt>
      <trkpt lat="41.053" lon="-0.13727">
        <time>2022-07-29T07:09:37Z</time>
      </trkpt>
      <trkpt lat="41.05293" lon="-0.13734">
        <time>2022-07-29T07:09:38Z</time>
      </trkpt>
      <trkpt lat="41.05284" lon="-0.13739">
        <time>2022-07-29T07:09:39Z</time>
      </trkpt>
      <trkpt lat="41.05275" lon="-0.13744">
        <time>2022-07-29T07:09:40Z</time>
      </trkpt>
      <trkpt lat="41.05266" lon="-0.13746">
        <time>2022-07-29T07:09:41Z</time>
      </trkpt>
      <trkpt lat="41.05258" lon="-0.13746">
        <time>2022-07-29T07:09:42Z</time>
      </trkpt>
      <trkpt lat="41.0525" lon="-0.13747">
        <time>2022-07-29T07:09:43Z</time>
      </trkpt>
      <trkpt lat="41.05244" lon="-0.13748">
        <time>2022-07-29T07:09:44Z</time>
      </trkpt>
      <trkpt lat="41.05238" lon="-0.13747">
        <time>2022-07-29T07:09:45Z</time>
      </trkpt>
      <trkpt lat="41.05234" lon="-0.13748">
        <time>2022-07-29T07:09:46Z</time>
      </trkpt>
      <trkpt lat="41.0523" lon="-0.13748">
        <time>2022-07-29T07:09:47Z</time>
      </trkpt>
      <trkpt lat="41.05226" lon="-0.13749">
        <time>2022-07-29T07:09:48Z</time>
      </trkpt>
      <trkpt lat="41.05221" lon="-0.1375">
        <time>2022-07-29T07:09:49Z</time>
      </trkpt>
      <trkpt lat="41.05217" lon="-0.13754">
        <time>2022-07-29T07:09:50Z</time>
      </trkpt>
      <trkpt lat="41.05214" lon="-0.13759">
        <time>2022-07-29T07:09:51Z</time>
      </trkpt>
      <trkpt lat="41.05212" lon="-0.13764">
        <time>2022-07-29T07:09:52Z</time>
      </trkpt>
      <trkpt lat="41.0521" lon="-0.1377">
        <time>2022-07-29T07:09:53Z</time>
      </trkpt>
      <trkpt lat="41.05209" lon="-0.13778">
        <time>2022-07-29T07:09:54Z</time>
      </trkpt>
      <trkpt lat="41.05209" lon="-0.13787">
        <time>2022-07-29T07:09:55Z</time>
      </trkpt>
      <trkpt lat="41.05209" lon="-0.13797">
        <time>2022-07-29T07:09:56Z</time>
      </trkpt>
      <trkpt lat="41.05208" lon="-0.13806">
        <time>2022-07-29T07:09:57Z</time>
      </trkpt>
      <trkpt lat="41.05208" lon="-0.13814">
        <time>2022-07-29T07:09:58Z</time>
      </trkpt>
      <trkpt lat="41.05208" lon="-0.13822">
        <time>2022-07-29T07:09:59Z</time>
      </trkpt>
      <trkpt lat="41.05208" lon="-0.13831">
        <time>2022-07-29T07:10:00Z</time>
      </trkpt>
      <trkpt lat="41.05207" lon="-0.13839">
        <time>2022-07-29T07:10:01Z</time>
      </trkpt>
      <trkpt lat="41.05206" lon="-0.13848">
        <time>2022-07-29T07:10:02Z</time>
      </trkpt>
      <trkpt lat="41.05206" lon="-0.13856">
        <time>2022-07-29T07:10:03Z</time>
      </trkpt>
      <trkpt lat="41.05206" lon="-0.13866">
        <time>2022-07-29T07:10:04Z</time>
      </trkpt>
      <trkpt lat="41.05205" lon="-0.13876">
        <time>2022-07-29T07:10:05Z</time>
      </trkpt>
      <trkpt lat="41.05204" lon="-0.13887">
        <time>2022-07-29T07:10:06Z</time>
      </trkpt>
      <trkpt lat="41.05204" lon="-0.13899">
        <time>2022-07-29T07:10:07Z</time>
      </trkpt>
      <trkpt lat="41.05203" lon="-0.13911">
        <time>2022-07-29T07:10:08Z</time>
      </trkpt>
      <trkpt lat="41.05202" lon="-0.13924">
        <time>2022-07-29T07:10:09Z</time>
      </trkpt>
      <trkpt lat="41.05201" lon="-0.13937">
        <time>2022-07-29T07:10:10Z</time>
      </trkpt>
      <trkpt lat="41.05201" lon="-0.13951">
        <time>2022-07-29T07:10:11Z</time>
      </trkpt>
      <trkpt lat="41.05201" lon="-0.13963">
        <time>2022-07-29T07:10:12Z</time>
      </trkpt>
      <trkpt lat="41.052" lon="-0.13976">
        <time>2022-07-29T07:10:13Z</time>
      </trkpt>
      <trkpt lat="41.052" lon="-0.13988">
        <time>2022-07-29T07:10:14Z</time>
      </trkpt>
      <trkpt lat="41.05199" lon="-0.14001">
        <time>2022-07-29T07:10:15Z</time>
      </trkpt>
      <trkpt lat="41.05198" lon="-0.14013">
        <time>2022-07-29T07:10:16Z</time>
      </trkpt>
      <trkpt lat="41.05198" lon="-0.14026">
        <time>2022-07-29T07:10:17Z</time>
      </trkpt>
      <trkpt lat="41.05196" lon="-0.14038">
        <time>2022-07-29T07:10:18Z</time>
      </trkpt>
      <trkpt lat="41.05196" lon="-0.14049">
        <time>2022-07-29T07:10:19Z</time>
      </trkpt>
      <trkpt lat="41.05195" lon="-0.1406">
        <time>2022-07-29T07:10:20Z</time>
      </trkpt>
      <trkpt lat="41.05194" lon="-0.14071">
        <time>2022-07-29T07:10:21Z</time>
      </trkpt>
      <trkpt lat="41.05194" lon="-0.14082">
        <time>2022-07-29T07:10:22Z</time>
      </trkpt>
      <trkpt lat="41.05192" lon="-0.14094">
        <time>2022-07-29T07:10:23Z</time>
      </trkpt>
      <trkpt lat="41.05192" lon="-0.14105">
        <time>2022-07-29T07:10:24Z</time>
      </trkpt>
      <trkpt lat="41.05191" lon="-0.14118">
        <time>2022-07-29T07:10:25Z</time>
      </trkpt>
      <trkpt lat="41.05191" lon="-0.1413">
        <time>2022-07-29T07:10:26Z</time>
      </trkpt>
      <trkpt lat="41.0519" lon="-0.1414">
        <time>2022-07-29T07:10:27Z</time>
      </trkpt>
      <trkpt lat="41.05189" lon="-0.1415">
        <time>2022-07-29T07:10:28Z</time>
      </trkpt>
      <trkpt lat="41.05188" lon="-0.14159">
        <time>2022-07-29T07:10:29Z</time>
      </trkpt>
      <trkpt lat="41.05188" lon="-0.14166">
        <time>2022-07-29T07:10:30Z</time>
      </trkpt>
      <trkpt lat="41.05188" lon="-0.14174">
        <time>2022-07-29T07:10:31Z</time>
      </trkpt>
      <trkpt lat="41.05188" lon="-0.14182">
        <time>2022-07-29T07:10:32Z</time>
      </trkpt>
      <trkpt lat="41.05188" lon="-0.1419">
        <time>2022-07-29T07:10:33Z</time>
      </trkpt>
      <trkpt lat="41.0519" lon="-0.14199">
        <time>2022-07-29T07:10:34Z</time>
      </trkpt>
      <trkpt lat="41.05193" lon="-0.14207">
        <time>2022-07-29T07:10:35Z</time>
      </trkpt>
      <trkpt lat="41.05193" lon="-0.14217">
        <time>2022-07-29T07:10:36Z</time>
      </trkpt>
      <trkpt lat="41.05191" lon="-0.14226">
        <time>2022-07-29T07:10:37Z</time>
      </trkpt>
      <trkpt lat="41.05188" lon="-0.14234">
        <time>2022-07-29T07:10:38Z</time>
      </trkpt>
      <trkpt lat="41.05186" lon="-0.14242">
        <time>2022-07-29T07:10:39Z</time>
      </trkpt>
      <trkpt lat="41.05185" lon="-0.14251">
        <time>2022-07-29T07:10:40Z</time>
      </trkpt>
      <trkpt lat="41.05184" lon="-0.1426">
        <time>2022-07-29T07:10:41Z</time>
      </trkpt>
      <trkpt lat="41.05184" lon="-0.1427">
        <time>2022-07-29T07:10:42Z</time>
      </trkpt>
      <trkpt lat="41.05184" lon="-0.1428">
        <time>2022-07-29T07:10:43Z</time>
      </trkpt>
      <trkpt lat="41.05185" lon="-0.1429">
        <time>2022-07-29T07:10:44Z</time>
      </trkpt>
      <trkpt lat="41.05185" lon="-0.14301">
        <time>2022-07-29T07:10:45Z</time>
      </trkpt>
      <trkpt lat="41.05187" lon="-0.14312">
        <time>2022-07-29T07:10:46Z</time>
      </trkpt>
      <trkpt lat="41.05188" lon="-0.14323">
        <time>2022-07-29T07:10:47Z</time>
      </trkpt>
      <trkpt lat="41.05189" lon="-0.14335">
        <time>2022-07-29T07:10:48Z</time>
      </trkpt>
      <trkpt lat="41.05191" lon="-0.14347">
        <time>2022-07-29T07:10:49Z</time>
      </trkpt>
      <trkpt lat="41.05192" lon="-0.14359">
        <time>2022-07-29T07:10:50Z</time>
      </trkpt>
      <trkpt lat="41.05194" lon="-0.14371">
        <time>2022-07-29T07:10:51Z</time>
      </trkpt>
      <trkpt lat="41.05196" lon="-0.14382">
        <time>2022-07-29T07:10:52Z</time>
      </trkpt>
      <trkpt lat="41.05198" lon="-0.14394">
        <time>2022-07-29T07:10:53Z</time>
      </trkpt>
      <trkpt lat="41.05199" lon="-0.14406">
        <time>2022-07-29T07:10:54Z</time>
      </trkpt>
      <trkpt lat="41.052" lon="-0.14418">
        <time>2022-07-29T07:10:55Z</time>
      </trkpt>
      <trkpt lat="41.05202" lon="-0.14431">
        <time>2022-07-29T07:10:56Z</time>
      </trkpt>
      <trkpt lat="41.05204" lon="-0.14442">
        <time>2022-07-29T07:10:57Z</time>
      </trkpt>
      <trkpt lat="41.05205" lon="-0.14453">
        <time>2022-07-29T07:10:58Z</time>
      </trkpt>
      <trkpt lat="41.05206" lon="-0.14463">
        <time>2022-07-29T07:10:59Z</time>
      </trkpt>
      <trkpt lat="41.05207" lon="-0.14474">
        <time>2022-07-29T07:11:00Z</time>
      </trkpt>
      <trkpt lat="41.05208" lon="-0.14484">
        <time>2022-07-29T07:11:01Z</time>
      </trkpt>
      <trkpt lat="41.05209" lon="-0.14494">
        <time>2022-07-29T07:11:02Z</time>
      </trkpt>
      <trkpt lat="41.05211" lon="-0.14505">
        <time>2022-07-29T07:11:03Z</time>
      </trkpt>
      <trkpt lat="41.05212" lon="-0.14515">
        <time>2022-07-29T07:11:04Z</time>
      </trkpt>
      <trkpt lat="41.05214" lon="-0.14526">
        <time>2022-07-29T07:11:05Z</time>
      </trkpt>
      <trkpt lat="41.05215" lon="-0.14538">
        <time>2022-07-29T07:11:06Z</time>
      </trkpt>
      <trkpt lat="41.05217" lon="-0.14549">
        <time>2022-07-29T07:11:07Z</time>
      </trkpt>
      <trkpt lat="41.05219" lon="-0.1456">
        <time>2022-07-29T07:11:08Z</time>
      </trkpt>
      <trkpt lat="41.05221" lon="-0.14572">
        <time>2022-07-29T07:11:09Z</time>
      </trkpt>
      <trkpt lat="41.05223" lon="-0.14585">
        <time>2022-07-29T07:11:10Z</time>
      </trkpt>
      <trkpt lat="41.05224" lon="-0.14597">
        <time>2022-07-29T07:11:11Z</time>
      </trkpt>
      <trkpt lat="41.05226" lon="-0.14609">
        <time>2022-07-29T07:11:12Z</time>
      </trkpt>
      <trkpt lat="41.05227" lon="-0.1462">
        <time>2022-07-29T07:11:13Z</time>
      </trkpt>
      <trkpt lat="41.05228" lon="-0.14631">
        <time>2022-07-29T07:11:14Z</time>
      </trkpt>
      <trkpt lat="41.05229" lon="-0.1464">
        <time>2022-07-29T07:11:15Z</time>
      </trkpt>
      <trkpt lat="41.0523" lon="-0.14649">
        <time>2022-07-29T07:11:16Z</time>
      </trkpt>
      <trkpt lat="41.05231" lon="-0.14658">
        <time>2022-07-29T07:11:17Z</time>
      </trkpt>
      <trkpt lat="41.05233" lon="-0.14668">
        <time>2022-07-29T07:11:18Z</time>
      </trkpt>
      <trkpt lat="41.05235" lon="-0.14677">
        <time>2022-07-29T07:11:19Z</time>
      </trkpt>
      <trkpt lat="41.05237" lon="-0.14688">
        <time>2022-07-29T07:11:20Z</time>
      </trkpt>
      <trkpt lat="41.05238" lon="-0.14699">
        <time>2022-07-29T07:11:21Z</time>
      </trkpt>
      <trkpt lat="41.0524" lon="-0.1471">
        <time>2022-07-29T07:11:22Z</time>
      </trkpt>
      <trkpt lat="41.05241" lon="-0.1472">
        <time>2022-07-29T07:11:23Z</time>
      </trkpt>
      <trkpt lat="41.05242" lon="-0.1473">
        <time>2022-07-29T07:11:24Z</time>
      </trkpt>
      <trkpt lat="41.05243" lon="-0.1474">
        <time>2022-07-29T07:11:25Z</time>
      </trkpt>
      <trkpt lat="41.05245" lon="-0.14749">
        <time>2022-07-29T07:11:26Z</time>
      </trkpt>
      <trkpt lat="41.05246" lon="-0.14759">
        <time>2022-07-29T07:11:27Z</time>
      </trkpt>
      <trkpt lat="41.05248" lon="-0.14769">
        <time>2022-07-29T07:11:28Z</time>
      </trkpt>
      <trkpt lat="41.05249" lon="-0.14779">
        <time>2022-07-29T07:11:29Z</time>
      </trkpt>
      <trkpt lat="41.05251" lon="-0.14789">
        <time>2022-07-29T07:11:30Z</time>
      </trkpt>
      <trkpt lat="41.05252" lon="-0.14799">
        <time>2022-07-29T07:11:31Z</time>
      </trkpt>
      <trkpt lat="41.05253" lon="-0.14811">
        <time>2022-07-29T07:11:32Z</time>
      </trkpt>
      <trkpt lat="41.05255" lon="-0.14825">
        <time>2022-07-29T07:11:33Z</time>
      </trkpt>
      <trkpt lat="41.05257" lon="-0.1484">
        <time>2022-07-29T07:11:34Z</time>
      </trkpt>
      <trkpt lat="41.05259" lon="-0.14857">
        <time>2022-07-29T07:11:35Z</time>
      </trkpt>
      <trkpt lat="41.05261" lon="-0.14875">
        <time>2022-07-29T07:11:36Z</time>
      </trkpt>
      <trkpt lat="41.05263" lon="-0.14892">
        <time>2022-07-29T07:11:37Z</time>
      </trkpt>
      <trkpt lat="41.05265" lon="-0.14909">
        <time>2022-07-29T07:11:38Z</time>
      </trkpt>
      <trkpt lat="41.05267" lon="-0.14925">
        <time>2022-07-29T07:11:39Z</time>
      </trkpt>
      <trkpt lat="41.0527" lon="-0.14943">
        <time>2022-07-29T07:11:40Z</time>
      </trkpt>
      <trkpt lat="41.05272" lon="-0.1496">
        <time>2022-07-29T07:11:41Z</time>
      </trkpt>
      <trkpt lat="41.05275" lon="-0.14977">
        <time>2022-07-29T07:11:42Z</time>
      </trkpt>
      <trkpt lat="41.05277" lon="-0.14995">
        <time>2022-07-29T07:11:43Z</time>
      </trkpt>
      <trkpt lat="41.05278" lon="-0.15014">
        <time>2022-07-29T07:11:44Z</time>
      </trkpt>
      <trkpt lat="41.05278" lon="-0.15033">
        <time>2022-07-29T07:11:45Z</time>
      </trkpt>
      <trkpt lat="41.05278" lon="-0.15053">
        <time>2022-07-29T07:11:46Z</time>
      </trkpt>
      <trkpt lat="41.05276" lon="-0.15073">
        <time>2022-07-29T07:11:47Z</time>
      </trkpt>
      <trkpt lat="41.05273" lon="-0.15092">
        <time>2022-07-29T07:11:48Z</time>
      </trkpt>
      <trkpt lat="41.0527" lon="-0.15111">
        <time>2022-07-29T07:11:49Z</time>
      </trkpt>
      <trkpt lat="41.05268" lon="-0.15129">
        <time>2022-07-29T07:11:50Z</time>
      </trkpt>
      <trkpt lat="41.05265" lon="-0.15147">
        <time>2022-07-29T07:11:51Z</time>
      </trkpt>
      <trkpt lat="41.05262" lon="-0.15164">
        <time>2022-07-29T07:11:52Z</time>
      </trkpt>
      <trkpt lat="41.05258" lon="-0.1518">
        <time>2022-07-29T07:11:53Z</time>
      </trkpt>
      <trkpt lat="41.05256" lon="-0.15195">
        <time>2022-07-29T07:11:54Z</time>
      </trkpt>
      <trkpt lat="41.05253" lon="-0.15209">
        <time>2022-07-29T07:11:55Z</time>
      </trkpt>
      <trkpt lat="41.05251" lon="-0.15222">
        <time>2022-07-29T07:11:56Z</time>
      </trkpt>
      <trkpt lat="41.05249" lon="-0.15234">
        <time>2022-07-29T07:11:57Z</time>
      </trkpt>
      <trkpt lat="41.05248" lon="-0.15245">
        <time>2022-07-29T07:11:58Z</time>
      </trkpt>
      <trkpt lat="41.05247" lon="-0.15254">
        <time>2022-07-29T07:11:59Z</time>
      </trkpt>
      <trkpt lat="41.05246" lon="-0.15261">
        <time>2022-07-29T07:12:00Z</time>
      </trkpt>
      <trkpt lat="41.05245" lon="-0.15266">
        <time>2022-07-29T07:12:01Z</time>
      </trkpt>
      <trkpt lat="41.05244" lon="-0.1527">
        <time>2022-07-29T07:12:02Z</time>
      </trkpt>
      <trkpt lat="41.05244" lon="-0.15274">
        <time>2022-07-29T07:12:03Z</time>
      </trkpt>
      <trkpt lat="41.05244" lon="-0.15278">
        <time>2022-07-29T07:12:04Z</time>
      </trkpt>
      <trkpt lat="41.05243" lon="-0.1528">
        <time>2022-07-29T07:12:05Z</time>
      </trkpt>
      <trkpt lat="41.05243" lon="-0.15282">
        <time>2022-07-29T07:12:09Z</time>
      </trkpt>
      <trkpt lat="41.05242" lon="-0.15285">
        <time>2022-07-29T07:12:10Z</time>
      </trkpt>
      <trkpt lat="41.05241" lon="-0.15288">
        <time>2022-07-29T07:12:11Z</time>
      </trkpt>
      <trkpt lat="41.0524" lon="-0.15294">
        <time>2022-07-29T07:12:12Z</time>
      </trkpt>
      <trkpt lat="41.05239" lon="-0.153">
        <time>2022-07-29T07:12:13Z</time>
      </trkpt>
      <trkpt lat="41.05238" lon="-0.15305">
        <time>2022-07-29T07:12:14Z</time>
      </trkpt>
      <trkpt lat="41.05239" lon="-0.15309">
        <time>2022-07-29T07:12:15Z</time>
      </trkpt>
      <trkpt lat="41.05239" lon="-0.15311">
        <time>2022-07-29T07:12:16Z</time>
      </trkpt>
      <trkpt lat="41.0524" lon="-0.15313">
        <time>2022-07-29T07:12:19Z</time>
      </trkpt>
      <trkpt lat="41.0524" lon="-0.15315">
        <time>2022-07-29T07:12:20Z</time>
      </trkpt>
      <trkpt lat="41.0524" lon="-0.15321">
        <time>2022-07-29T07:12:21Z</time>
      </trkpt>
      <trkpt lat="41.0524" lon="-0.15331">
        <time>2022-07-29T07:12:22Z</time>
      </trkpt>
      <trkpt lat="41.05239" lon="-0.15341">
        <time>2022-07-29T07:12:23Z</time>
      </trkpt>
      <trkpt lat="41.05236" lon="-0.1535">
        <time>2022-07-29T07:12:24Z</time>
      </trkpt>
      <trkpt lat="41.05231" lon="-0.15359">
        <time>2022-07-29T07:12:25Z</time>
      </trkpt>
      <trkpt lat="41.05227" lon="-0.15368">
        <time>2022-07-29T07:12:26Z</time>
      </trkpt>
      <trkpt lat="41.05223" lon="-0.15378">
        <time>2022-07-29T07:12:27Z</time>
      </trkpt>
      <trkpt lat="41.0522" lon="-0.15388">
        <time>2022-07-29T07:12:28Z</time>
      </trkpt>
      <trkpt lat="41.05218" lon="-0.15399">
        <time>2022-07-29T07:12:29Z</time>
      </trkpt>
      <trkpt lat="41.05216" lon="-0.15409">
        <time>2022-07-29T07:12:30Z</time>
      </trkpt>
      <trkpt lat="41.05213" lon="-0.15421">
        <time>2022-07-29T07:12:31Z</time>
      </trkpt>
      <trkpt lat="41.05211" lon="-0.15433">
        <time>2022-07-29T07:12:32Z</time>
      </trkpt>
      <trkpt lat="41.05209" lon="-0.15447">
        <time>2022-07-29T07:12:33Z</time>
      </trkpt>
      <trkpt lat="41.05206" lon="-0.1546">
        <time>2022-07-29T07:12:34Z</time>
      </trkpt>
      <trkpt lat="41.05204" lon="-0.15474">
        <time>2022-07-29T07:12:35Z</time>
      </trkpt>
      <trkpt lat="41.05202" lon="-0.15487">
        <time>2022-07-29T07:12:36Z</time>
      </trkpt>
      <trkpt lat="41.05199" lon="-0.15501">
        <time>2022-07-29T07:12:37Z</time>
      </trkpt>
      <trkpt lat="41.05197" lon="-0.15514">
        <time>2022-07-29T07:12:38Z</time>
      </trkpt>
      <trkpt lat="41.05194" lon="-0.15528">
        <time>2022-07-29T07:12:39Z</time>
      </trkpt>
      <trkpt lat="41.05191" lon="-0.15542">
        <time>2022-07-29T07:12:40Z</time>
      </trkpt>
      <trkpt lat="41.0519" lon="-0.15557">
        <time>2022-07-29T07:12:41Z</time>
      </trkpt>
      <trkpt lat="41.05186" lon="-0.15571">
        <time>2022-07-29T07:12:42Z</time>
      </trkpt>
      <trkpt lat="41.05184" lon="-0.15585">
        <time>2022-07-29T07:12:43Z</time>
      </trkpt>
      <trkpt lat="41.05181" lon="-0.15601">
        <time>2022-07-29T07:12:44Z</time>
      </trkpt>
      <trkpt lat="41.05178" lon="-0.15616">
        <time>2022-07-29T07:12:45Z</time>
      </trkpt>
      <trkpt lat="41.05176" lon="-0.15632">
        <time>2022-07-29T07:12:46Z</time>
      </trkpt>
      <trkpt lat="41.05173" lon="-0.15647">
        <time>2022-07-29T07:12:47Z</time>
      </trkpt>
      <trkpt lat="41.0517" lon="-0.15663">
        <time>2022-07-29T07:12:48Z</time>
      </trkpt>
      <trkpt lat="41.05168" lon="-0.15678">
        <time>2022-07-29T07:12:49Z</time>
      </trkpt>
      <trkpt lat="41.05165" lon="-0.15694">
        <time>2022-07-29T07:12:50Z</time>
      </trkpt>
      <trkpt lat="41.05162" lon="-0.15709">
        <time>2022-07-29T07:12:51Z</time>
      </trkpt>
      <trkpt lat="41.05159" lon="-0.15723">
        <time>2022-07-29T07:12:52Z</time>
      </trkpt>
      <trkpt lat="41.05157" lon="-0.15736">
        <time>2022-07-29T07:12:53Z</time>
      </trkpt>
      <trkpt lat="41.05154" lon="-0.15749">
        <time>2022-07-29T07:12:54Z</time>
      </trkpt>
      <trkpt lat="41.05153" lon="-0.1576">
        <time>2022-07-29T07:12:55Z</time>
      </trkpt>
      <trkpt lat="41.05153" lon="-0.1577">
        <time>2022-07-29T07:12:56Z</time>
      </trkpt>
      <trkpt lat="41.05154" lon="-0.15782">
        <time>2022-07-29T07:12:57Z</time>
      </trkpt>
      <trkpt lat="41.05157" lon="-0.15792">
        <time>2022-07-29T07:12:58Z</time>
      </trkpt>
      <trkpt lat="41.05159" lon="-0.15803">
        <time>2022-07-29T07:12:59Z</time>
      </trkpt>
      <trkpt lat="41.05158" lon="-0.15814">
        <time>2022-07-29T07:13:00Z</time>
      </trkpt>
      <trkpt lat="41.05156" lon="-0.15826">
        <time>2022-07-29T07:13:01Z</time>
      </trkpt>
      <trkpt lat="41.0515" lon="-0.15837">
        <time>2022-07-29T07:13:02Z</time>
      </trkpt>
      <trkpt lat="41.05142" lon="-0.15848">
        <time>2022-07-29T07:13:03Z</time>
      </trkpt>
      <trkpt lat="41.05136" lon="-0.15862">
        <time>2022-07-29T07:13:04Z</time>
      </trkpt>
      <trkpt lat="41.05132" lon="-0.15878">
        <time>2022-07-29T07:13:05Z</time>
      </trkpt>
      <trkpt lat="41.05128" lon="-0.15896">
        <time>2022-07-29T07:13:06Z</time>
      </trkpt>
      <trkpt lat="41.05125" lon="-0.15913">
        <time>2022-07-29T07:13:07Z</time>
      </trkpt>
      <trkpt lat="41.05122" lon="-0.15931">
        <time>2022-07-29T07:13:08Z</time>
      </trkpt>
      <trkpt lat="41.05119" lon="-0.15948">
        <time>2022-07-29T07:13:09Z</time>
      </trkpt>
      <trkpt lat="41.05116" lon="-0.15964">
        <time>2022-07-29T07:13:10Z</time>
      </trkpt>
      <trkpt lat="41.05113" lon="-0.15979">
        <time>2022-07-29T07:13:11Z</time>
      </trkpt>
      <trkpt lat="41.0511" lon="-0.15994">
        <time>2022-07-29T07:13:12Z</time>
      </trkpt>
      <trkpt lat="41.05108" lon="-0.16008">
        <time>2022-07-29T07:13:13Z</time>
      </trkpt>
      <trkpt lat="41.05105" lon="-0.16022">
        <time>2022-07-29T07:13:14Z</time>
      </trkpt>
      <trkpt lat="41.05103" lon="-0.16035">
        <time>2022-07-29T07:13:15Z</time>
      </trkpt>
      <trkpt lat="41.05101" lon="-0.16048">
        <time>2022-07-29T07:13:16Z</time>
      </trkpt>
      <trkpt lat="41.05099" lon="-0.16061">
        <time>2022-07-29T07:13:17Z</time>
      </trkpt>
      <trkpt lat="41.05097" lon="-0.16074">
        <time>2022-07-29T07:13:18Z</time>
      </trkpt>
      <trkpt lat="41.05094" lon="-0.16088">
        <time>2022-07-29T07:13:19Z</time>
      </trkpt>
      <trkpt lat="41.05091" lon="-0.16102">
        <time>2022-07-29T07:13:20Z</time>
      </trkpt>
      <trkpt lat="41.05089" lon="-0.16118">
        <time>2022-07-29T07:13:21Z</time>
      </trkpt>
      <trkpt lat="41.05088" lon="-0.16134">
        <time>2022-07-29T07:13:22Z</time>
      </trkpt>
      <trkpt lat="41.05087" lon="-0.16151">
        <time>2022-07-29T07:13:23Z</time>
      </trkpt>
      <trkpt lat="41.05087" lon="-0.16167">
        <time>2022-07-29T07:13:24Z</time>
      </trkpt>
      <trkpt lat="41.05088" lon="-0.16185">
        <time>2022-07-29T07:13:25Z</time>
      </trkpt>
      <trkpt lat="41.05089" lon="-0.16204">
        <time>2022-07-29T07:13:26Z</time>
      </trkpt>
      <trkpt lat="41.05091" lon="-0.16222">
        <time>2022-07-29T07:13:27Z</time>
      </trkpt>
      <trkpt lat="41.05094" lon="-0.1624">
        <time>2022-07-29T07:13:28Z</time>
      </trkpt>
      <trkpt lat="41.05097" lon="-0.16257">
        <time>2022-07-29T07:13:29Z</time>
      </trkpt>
      <trkpt lat="41.051" lon="-0.16274">
        <time>2022-07-29T07:13:30Z</time>
      </trkpt>
      <trkpt lat="41.05104" lon="-0.16289">
        <time>2022-07-29T07:13:31Z</time>
      </trkpt>
      <trkpt lat="41.05107" lon="-0.16304">
        <time>2022-07-29T07:13:32Z</time>
      </trkpt>
      <trkpt lat="41.0511" lon="-0.16319">
        <time>2022-07-29T07:13:33Z</time>
      </trkpt>
      <trkpt lat="41.05113" lon="-0.16333">
        <time>2022-07-29T07:13:34Z</time>
      </trkpt>
      <trkpt lat="41.05115" lon="-0.16348">
        <time>2022-07-29T07:13:35Z</time>
      </trkpt>
      <trkpt lat="41.05117" lon="-0.16364">
        <time>2022-07-29T07:13:36Z</time>
      </trkpt>
      <trkpt lat="41.05119" lon="-0.16378">
        <time>2022-07-29T07:13:37Z</time>
      </trkpt>
      <trkpt lat="41.0512" lon="-0.16392">
        <time>2022-07-29T07:13:38Z</time>
      </trkpt>
      <trkpt lat="41.0512" lon="-0.16404">
        <time>2022-07-29T07:13:39Z</time>
      </trkpt>
      <trkpt lat="41.0512" lon="-0.16416">
        <time>2022-07-29T07:13:40Z</time>
      </trkpt>
      <trkpt lat="41.0512" lon="-0.16428">
        <time>2022-07-29T07:13:41Z</time>
      </trkpt>
      <trkpt lat="41.05122" lon="-0.16439">
        <time>2022-07-29T07:13:42Z</time>
      </trkpt>
      <trkpt lat="41.05125" lon="-0.16449">
        <time>2022-07-29T07:13:43Z</time>
      </trkpt>
      <trkpt lat="41.0513" lon="-0.1646">
        <time>2022-07-29T07:13:44Z</time>
      </trkpt>
      <trkpt lat="41.05137" lon="-0.16472">
        <time>2022-07-29T07:13:45Z</time>
      </trkpt>
      <trkpt lat="41.05145" lon="-0.16483">
        <time>2022-07-29T07:13:46Z</time>
      </trkpt>
      <trkpt lat="41.05152" lon="-0.16495">
        <time>2022-07-29T07:13:47Z</time>
      </trkpt>
      <trkpt lat="41.05156" lon="-0.1651">
        <time>2022-07-29T07:13:48Z</time>
      </trkpt>
      <trkpt lat="41.05158" lon="-0.16525">
        <time>2022-07-29T07:13:49Z</time>
      </trkpt>
      <trkpt lat="41.05158" lon="-0.1654">
        <time>2022-07-29T07:13:50Z</time>
      </trkpt>
      <trkpt lat="41.05155" lon="-0.16555">
        <time>2022-07-29T07:13:51Z</time>
      </trkpt>
      <trkpt lat="41.05149" lon="-0.1657">
        <time>2022-07-29T07:13:52Z</time>
      </trkpt>
      <trkpt lat="41.05141" lon="-0.16582">
        <time>2022-07-29T07:13:53Z</time>
      </trkpt>
      <trkpt lat="41.05131" lon="-0.1659">
        <time>2022-07-29T07:13:54Z</time>
      </trkpt>
      <trkpt lat="41.05119" lon="-0.16595">
        <time>2022-07-29T07:13:55Z</time>
      </trkpt>
      <trkpt lat="41.05107" lon="-0.16597">
        <time>2022-07-29T07:13:56Z</time>
      </trkpt>
      <trkpt lat="41.05095" lon="-0.16596">
        <time>2022-07-29T07:13:57Z</time>
      </trkpt>
      <trkpt lat="41.05083" lon="-0.16596">
        <time>2022-07-29T07:13:58Z</time>
      </trkpt>
      <trkpt lat="41.05071" lon="-0.16599">
        <time>2022-07-29T07:13:59Z</time>
      </trkpt>
      <trkpt lat="41.0506" lon="-0.16607">
        <time>2022-07-29T07:14:00Z</time>
      </trkpt>
      <trkpt lat="41.05049" lon="-0.16619">
        <time>2022-07-29T07:14:01Z</time>
      </trkpt>
      <trkpt lat="41.05037" lon="-0.16633">
        <time>2022-07-29T07:14:02Z</time>
      </trkpt>
      <trkpt lat="41.05027" lon="-0.1665">
        <time>2022-07-29T07:14:03Z</time>
      </trkpt>
      <trkpt lat="41.05017" lon="-0.16667">
        <time>2022-07-29T07:14:04Z</time>
      </trkpt>
      <trkpt lat="41.05007" lon="-0.16686">
        <time>2022-07-29T07:14:05Z</time>
      </trkpt>
      <trkpt lat="41.04997" lon="-0.16708">
        <time>2022-07-29T07:14:06Z</time>
      </trkpt>
      <trkpt lat="41.04988" lon="-0.16732">
        <time>2022-07-29T07:14:07Z</time>
      </trkpt>
      <trkpt lat="41.0498" lon="-0.16756">
        <time>2022-07-29T07:14:08Z</time>
      </trkpt>
      <trkpt lat="41.04974" lon="-0.16781">
        <time>2022-07-29T07:14:09Z</time>
      </trkpt>
      <trkpt lat="41.04967" lon="-0.16806">
        <time>2022-07-29T07:14:10Z</time>
      </trkpt>
      <trkpt lat="41.04961" lon="-0.16833">
        <time>2022-07-29T07:14:11Z</time>
      </trkpt>
      <trkpt lat="41.04955" lon="-0.16859">
        <time>2022-07-29T07:14:12Z</time>
      </trkpt>
      <trkpt lat="41.0495" lon="-0.16885">
        <time>2022-07-29T07:14:13Z</time>
      </trkpt>
      <trkpt lat="41.04945" lon="-0.16911">
        <time>2022-07-29T07:14:14Z</time>
      </trkpt>
      <trkpt lat="41.04941" lon="-0.16937">
        <time>2022-07-29T07:14:15Z</time>
      </trkpt>
      <trkpt lat="41.04938" lon="-0.16961">
        <time>2022-07-29T07:14:16Z</time>
      </trkpt>
      <trkpt lat="41.04936" lon="-0.16986">
        <time>2022-07-29T07:14:17Z</time>
      </trkpt>
      <trkpt lat="41.04935" lon="-0.17009">
        <time>2022-07-29T07:14:18Z</time>
      </trkpt>
      <trkpt lat="41.04935" lon="-0.17033">
        <time>2022-07-29T07:14:19Z</time>
      </trkpt>
      <trkpt lat="41.04937" lon="-0.17057">
        <time>2022-07-29T07:14:20Z</time>
      </trkpt>
      <trkpt lat="41.04939" lon="-0.17081">
        <time>2022-07-29T07:14:21Z</time>
      </trkpt>
      <trkpt lat="41.04942" lon="-0.17104">
        <time>2022-07-29T07:14:22Z</time>
      </trkpt>
      <trkpt lat="41.04946" lon="-0.17126">
        <time>2022-07-29T07:14:23Z</time>
      </trkpt>
      <trkpt lat="41.04952" lon="-0.17147">
        <time>2022-07-29T07:14:24Z</time>
      </trkpt>
      <trkpt lat="41.04958" lon="-0.17166">
        <time>2022-07-29T07:14:25Z</time>
      </trkpt>
      <trkpt lat="41.04965" lon="-0.17184">
        <time>2022-07-29T07:14:26Z</time>
      </trkpt>
      <trkpt lat="41.04973" lon="-0.17201">
        <time>2022-07-29T07:14:27Z</time>
      </trkpt>
      <trkpt lat="41.0498" lon="-0.17217">
        <time>2022-07-29T07:14:28Z</time>
      </trkpt>
      <trkpt lat="41.04988" lon="-0.17233">
        <time>2022-07-29T07:14:29Z</time>
      </trkpt>
      <trkpt lat="41.04997" lon="-0.17248">
        <time>2022-07-29T07:14:30Z</time>
      </trkpt>
      <trkpt lat="41.05006" lon="-0.17263">
        <time>2022-07-29T07:14:31Z</time>
      </trkpt>
      <trkpt lat="41.05015" lon="-0.17278">
        <time>2022-07-29T07:14:32Z</time>
      </trkpt>
      <trkpt lat="41.05023" lon="-0.17293">
        <time>2022-07-29T07:14:33Z</time>
      </trkpt>
      <trkpt lat="41.05032" lon="-0.17307">
        <time>2022-07-29T07:14:34Z</time>
      </trkpt>
      <trkpt lat="41.05041" lon="-0.17321">
        <time>2022-07-29T07:14:35Z</time>
      </trkpt>
      <trkpt lat="41.05049" lon="-0.17334">
        <time>2022-07-29T07:14:36Z</time>
      </trkpt>
      <trkpt lat="41.05058" lon="-0.17348">
        <time>2022-07-29T07:14:37Z</time>
      </trkpt>
      <trkpt lat="41.05066" lon="-0.17361">
        <time>2022-07-29T07:14:38Z</time>
      </trkpt>
      <trkpt lat="41.05073" lon="-0.17375">
        <time>2022-07-29T07:14:39Z</time>
      </trkpt>
      <trkpt lat="41.05081" lon="-0.17388">
        <time>2022-07-29T07:14:40Z</time>
      </trkpt>
      <trkpt lat="41.05089" lon="-0.17401">
        <time>2022-07-29T07:14:41Z</time>
      </trkpt>
      <trkpt lat="41.05095" lon="-0.17413">
        <time>2022-07-29T07:14:42Z</time>
      </trkpt>
      <trkpt lat="41.05101" lon="-0.17426">
        <time>2022-07-29T07:14:43Z</time>
      </trkpt>
      <trkpt lat="41.05107" lon="-0.17439">
        <time>2022-07-29T07:14:44Z</time>
      </trkpt>
      <trkpt lat="41.05114" lon="-0.17452">
        <time>2022-07-29T07:14:45Z</time>
      </trkpt>
      <trkpt lat="41.05121" lon="-0.17467">
        <time>2022-07-29T07:14:46Z</time>
      </trkpt>
      <trkpt lat="41.05127" lon="-0.17481">
        <time>2022-07-29T07:14:47Z</time>
      </trkpt>
      <trkpt lat="41.05134" lon="-0.17497">
        <time>2022-07-29T07:14:48Z</time>
      </trkpt>
      <trkpt lat="41.05141" lon="-0.17513">
        <time>2022-07-29T07:14:49Z</time>
      </trkpt>
      <trkpt lat="41.05149" lon="-0.1753">
        <time>2022-07-29T07:14:50Z</time>
      </trkpt>
      <trkpt lat="41.05157" lon="-0.17548">
        <time>2022-07-29T07:14:51Z</time>
      </trkpt>
      <trkpt lat="41.05165" lon="-0.17565">
        <time>2022-07-29T07:14:52Z</time>
      </trkpt>
      <trkpt lat="41.05173" lon="-0.17584">
        <time>2022-07-29T07:14:53Z</time>
      </trkpt>
      <trkpt lat="41.05181" lon="-0.17604">
        <time>2022-07-29T07:14:54Z</time>
      </trkpt>
      <trkpt lat="41.0519" lon="-0.17624">
        <time>2022-07-29T07:14:55Z</time>
      </trkpt>
      <trkpt lat="41.05198" lon="-0.17643">
        <time>2022-07-29T07:14:56Z</time>
      </trkpt>
      <trkpt lat="41.05206" lon="-0.17662">
        <time>2022-07-29T07:14:57Z</time>
      </trkpt>
      <trkpt lat="41.05214" lon="-0.1768">
        <time>2022-07-29T07:14:58Z</time>
      </trkpt>
      <trkpt lat="41.0522" lon="-0.17696">
        <time>2022-07-29T07:14:59Z</time>
      </trkpt>
      <trkpt lat="41.05226" lon="-0.17711">
        <time>2022-07-29T07:15:00Z</time>
      </trkpt>
      <trkpt lat="41.05233" lon="-0.17727">
        <time>2022-07-29T07:15:01Z</time>
      </trkpt>
      <trkpt lat="41.0524" lon="-0.17745">
        <time>2022-07-29T07:15:02Z</time>
      </trkpt>
      <trkpt lat="41.05247" lon="-0.17763">
        <time>2022-07-29T07:15:03Z</time>
      </trkpt>
      <trkpt lat="41.05254" lon="-0.17783">
        <time>2022-07-29T07:15:04Z</time>
      </trkpt>
      <trkpt lat="41.05262" lon="-0.17803">
        <time>2022-07-29T07:15:05Z</time>
      </trkpt>
      <trkpt lat="41.0527" lon="-0.17825">
        <time>2022-07-29T07:15:06Z</time>
      </trkpt>
      <trkpt lat="41.05277" lon="-0.17849">
        <time>2022-07-29T07:15:07Z</time>
      </trkpt>
      <trkpt lat="41.05285" lon="-0.17875">
        <time>2022-07-29T07:15:08Z</time>
      </trkpt>
      <trkpt lat="41.05292" lon="-0.17903">
        <time>2022-07-29T07:15:09Z</time>
      </trkpt>
      <trkpt lat="41.053" lon="-0.17931">
        <time>2022-07-29T07:15:10Z</time>
      </trkpt>
      <trkpt lat="41.05308" lon="-0.1796">
        <time>2022-07-29T07:15:11Z</time>
      </trkpt>
      <trkpt lat="41.05317" lon="-0.17989">
        <time>2022-07-29T07:15:12Z</time>
      </trkpt>
      <trkpt lat="41.05326" lon="-0.18019">
        <time>2022-07-29T07:15:13Z</time>
      </trkpt>
      <trkpt lat="41.05336" lon="-0.18049">
        <time>2022-07-29T07:15:14Z</time>
      </trkpt>
      <trkpt lat="41.05347" lon="-0.1808">
        <time>2022-07-29T07:15:15Z</time>
      </trkpt>
      <trkpt lat="41.05356" lon="-0.1811">
        <time>2022-07-29T07:15:16Z</time>
      </trkpt>
      <trkpt lat="41.05366" lon="-0.18141">
        <time>2022-07-29T07:15:17Z</time>
      </trkpt>
      <trkpt lat="41.05376" lon="-0.18174">
        <time>2022-07-29T07:15:18Z</time>
      </trkpt>
      <trkpt lat="41.05386" lon="-0.18206">
        <time>2022-07-29T07:15:19Z</time>
      </trkpt>
      <trkpt lat="41.05396" lon="-0.18239">
        <time>2022-07-29T07:15:20Z</time>
      </trkpt>
      <trkpt lat="41.05405" lon="-0.18271">
        <time>2022-07-29T07:15:21Z</time>
      </trkpt>
      <trkpt lat="41.05415" lon="-0.18304">
        <time>2022-07-29T07:15:22Z</time>
      </trkpt>
      <trkpt lat="41.05425" lon="-0.18337">
        <time>2022-07-29T07:15:23Z</time>
      </trkpt>
      <trkpt lat="41.05435" lon="-0.18369">
        <time>2022-07-29T07:15:24Z</time>
      </trkpt>
      <trkpt lat="41.05444" lon="-0.18402">
        <time>2022-07-29T07:15:25Z</time>
      </trkpt>
      <trkpt lat="41.05454" lon="-0.18434">
        <time>2022-07-29T07:15:26Z</time>
      </trkpt>
      <trkpt lat="41.05463" lon="-0.18466">
        <time>2022-07-29T07:15:27Z</time>
      </trkpt>
      <trkpt lat="41.05472" lon="-0.18498">
        <time>2022-07-29T07:15:28Z</time>
      </trkpt>
      <trkpt lat="41.05479" lon="-0.1853">
        <time>2022-07-29T07:15:29Z</time>
      </trkpt>
      <trkpt lat="41.05486" lon="-0.18562">
        <time>2022-07-29T07:15:30Z</time>
      </trkpt>
      <trkpt lat="41.05491" lon="-0.18595">
        <time>2022-07-29T07:15:31Z</time>
      </trkpt>
      <trkpt lat="41.05494" lon="-0.18628">
        <time>2022-07-29T07:15:32Z</time>
      </trkpt>
      <trkpt lat="41.05497" lon="-0.1866">
        <time>2022-07-29T07:15:33Z</time>
      </trkpt>
      <trkpt lat="41.05499" lon="-0.18692">
        <time>2022-07-29T07:15:34Z</time>
      </trkpt>
      <trkpt lat="41.05502" lon="-0.18723">
        <time>2022-07-29T07:15:35Z</time>
      </trkpt>
      <trkpt lat="41.05505" lon="-0.18755">
        <time>2022-07-29T07:15:36Z</time>
      </trkpt>
      <trkpt lat="41.05509" lon="-0.18786">
        <time>2022-07-29T07:15:37Z</time>
      </trkpt>
      <trkpt lat="41.05515" lon="-0.18816">
        <time>2022-07-29T07:15:38Z</time>
      </trkpt>
      <trkpt lat="41.05522" lon="-0.18847">
        <time>2022-07-29T07:15:39Z</time>
      </trkpt>
      <trkpt lat="41.05529" lon="-0.18876">
        <time>2022-07-29T07:15:40Z</time>
      </trkpt>
      <trkpt lat="41.05539" lon="-0.18905">
        <time>2022-07-29T07:15:41Z</time>
      </trkpt>
      <trkpt lat="41.05549" lon="-0.18934">
        <time>2022-07-29T07:15:42Z</time>
      </trkpt>
      <trkpt lat="41.0556" lon="-0.18962">
        <time>2022-07-29T07:15:43Z</time>
      </trkpt>
      <trkpt lat="41.05572" lon="-0.1899">
        <time>2022-07-29T07:15:44Z</time>
      </trkpt>
      <trkpt lat="41.05583" lon="-0.19019">
        <time>2022-07-29T07:15:45Z</time>
      </trkpt>
      <trkpt lat="41.05595" lon="-0.19047">
        <time>2022-07-29T07:15:46Z</time>
      </trkpt>
      <trkpt lat="41.05606" lon="-0.19076">
        <time>2022-07-29T07:15:47Z</time>
      </trkpt>
      <trkpt lat="41.05618" lon="-0.19105">
        <time>2022-07-29T07:15:48Z</time>
      </trkpt>
      <trkpt lat="41.0563" lon="-0.19133">
        <time>2022-07-29T07:15:49Z</time>
      </trkpt>
      <trkpt lat="41.05643" lon="-0.19162">
        <time>2022-07-29T07:15:50Z</time>
      </trkpt>
      <trkpt lat="41.05655" lon="-0.1919">
        <time>2022-07-29T07:15:51Z</time>
      </trkpt>
      <trkpt lat="41.05667" lon="-0.19218">
        <time>2022-07-29T07:15:52Z</time>
      </trkpt>
      <trkpt lat="41.05681" lon="-0.19246">
        <time>2022-07-29T07:15:53Z</time>
      </trkpt>
      <trkpt lat="41.05694" lon="-0.19273">
        <time>2022-07-29T07:15:54Z</time>
      </trkpt>
      <trkpt lat="41.05709" lon="-0.193">
        <time>2022-07-29T07:15:55Z</time>
      </trkpt>
      <trkpt lat="41.05724" lon="-0.19326">
        <time>2022-07-29T07:15:56Z</time>
      </trkpt>
      <trkpt lat="41.05739" lon="-0.19352">
        <time>2022-07-29T07:15:57Z</time>
      </trkpt>
      <trkpt lat="41.05755" lon="-0.19378">
        <time>2022-07-29T07:15:58Z</time>
      </trkpt>
      <trkpt lat="41.0577" lon="-0.19404">
        <time>2022-07-29T07:15:59Z</time>
      </trkpt>
      <trkpt lat="41.05785" lon="-0.1943">
        <time>2022-07-29T07:16:00Z</time>
      </trkpt>
      <trkpt lat="41.058" lon="-0.19455">
        <time>2022-07-29T07:16:01Z</time>
      </trkpt>
      <trkpt lat="41.05815" lon="-0.1948">
        <time>2022-07-29T07:16:02Z</time>
      </trkpt>
      <trkpt lat="41.05829" lon="-0.19506">
        <time>2022-07-29T07:16:03Z</time>
      </trkpt>
      <trkpt lat="41.05842" lon="-0.19533">
        <time>2022-07-29T07:16:04Z</time>
      </trkpt>
      <trkpt lat="41.05854" lon="-0.1956">
        <time>2022-07-29T07:16:05Z</time>
      </trkpt>
      <trkpt lat="41.05866" lon="-0.19588">
        <time>2022-07-29T07:16:06Z</time>
      </trkpt>
      <trkpt lat="41.05876" lon="-0.19617">
        <time>2022-07-29T07:16:07Z</time>
      </trkpt>
      <trkpt lat="41.05887" lon="-0.19645">
        <time>2022-07-29T07:16:08Z</time>
      </trkpt>
      <trkpt lat="41.05898" lon="-0.19674">
        <time>2022-07-29T07:16:09Z</time>
      </trkpt>
      <trkpt lat="41.05909" lon="-0.19704">
        <time>2022-07-29T07:16:10Z</time>
      </trkpt>
      <trkpt lat="41.0592" lon="-0.19733">
        <time>2022-07-29T07:16:11Z</time>
      </trkpt>
      <trkpt lat="41.05931" lon="-0.19763">
        <time>2022-07-29T07:16:12Z</time>
      </trkpt>
      <trkpt lat="41.05943" lon="-0.19793">
        <time>2022-07-29T07:16:13Z</time>
      </trkpt>
      <trkpt lat="41.05954" lon="-0.19822">
        <time>2022-07-29T07:16:14Z</time>
      </trkpt>
      <trkpt lat="41.05966" lon="-0.19852">
        <time>2022-07-29T07:16:15Z</time>
      </trkpt>
      <trkpt lat="41.05977" lon="-0.19881">
        <time>2022-07-29T07:16:16Z</time>
      </trkpt>
      <trkpt lat="41.05988" lon="-0.1991">
        <time>2022-07-29T07:16:17Z</time>
      </trkpt>
      <trkpt lat="41.05999" lon="-0.1994">
        <time>2022-07-29T07:16:18Z</time>
      </trkpt>
      <trkpt lat="41.06011" lon="-0.19969">
        <time>2022-07-29T07:16:19Z</time>
      </trkpt>
      <trkpt lat="41.06022" lon="-0.19999">
        <time>2022-07-29T07:16:20Z</time>
      </trkpt>
      <trkpt lat="41.06033" lon="-0.20029">
        <time>2022-07-29T07:16:21Z</time>
      </trkpt>
      <trkpt lat="41.06045" lon="-0.20058">
        <time>2022-07-29T07:16:22Z</time>
      </trkpt>
      <trkpt lat="41.06056" lon="-0.20087">
        <time>2022-07-29T07:16:23Z</time>
      </trkpt>
      <trkpt lat="41.06068" lon="-0.20117">
        <time>2022-07-29T07:16:24Z</time>
      </trkpt>
      <trkpt lat="41.0608" lon="-0.20145">
        <time>2022-07-29T07:16:25Z</time>
      </trkpt>
      <trkpt lat="41.06091" lon="-0.20175">
        <time>2022-07-29T07:16:26Z</time>
      </trkpt>
      <trkpt lat="41.06103" lon="-0.20204">
        <time>2022-07-29T07:16:27Z</time>
      </trkpt>
      <trkpt lat="41.06115" lon="-0.20234">
        <time>2022-07-29T07:16:28Z</time>
      </trkpt>
      <trkpt lat="41.06127" lon="-0.20264">
        <time>2022-07-29T07:16:29Z</time>
      </trkpt>
      <trkpt lat="41.06139" lon="-0.20294">
        <time>2022-07-29T07:16:30Z</time>
      </trkpt>
      <trkpt lat="41.06152" lon="-0.20324">
        <time>2022-07-29T07:16:31Z</time>
      </trkpt>
      <trkpt lat="41.06164" lon="-0.20354">
        <time>2022-07-29T07:16:32Z</time>
      </trkpt>
      <trkpt lat="41.06176" lon="-0.20384">
        <time>2022-07-29T07:16:33Z</time>
      </trkpt>
      <trkpt lat="41.06188" lon="-0.20413">
        <time>2022-07-29T07:16:34Z</time>
      </trkpt>
      <trkpt lat="41.062" lon="-0.20443">
        <time>2022-07-29T07:16:35Z</time>
      </trkpt>
      <trkpt lat="41.06212" lon="-0.20472">
        <time>2022-07-29T07:16:36Z</time>
      </trkpt>
      <trkpt lat="41.06225" lon="-0.20501">
        <time>2022-07-29T07:16:37Z</time>
      </trkpt>
      <trkpt lat="41.06237" lon="-0.2053">
        <time>2022-07-29T07:16:38Z</time>
      </trkpt>
      <trkpt lat="41.06249" lon="-0.20559">
        <time>2022-07-29T07:16:39Z</time>
      </trkpt>
      <trkpt lat="41.06262" lon="-0.20588">
        <time>2022-07-29T07:16:40Z</time>
      </trkpt>
      <trkpt lat="41.06274" lon="-0.20618">
        <time>2022-07-29T07:16:41Z</time>
      </trkpt>
      <trkpt lat="41.06286" lon="-0.20646">
        <time>2022-07-29T07:16:42Z</time>
      </trkpt>
      <trkpt lat="41.06298" lon="-0.20675">
        <time>2022-07-29T07:16:43Z</time>
      </trkpt>
      <trkpt lat="41.0631" lon="-0.20704">
        <time>2022-07-29T07:16:44Z</time>
      </trkpt>
      <trkpt lat="41.06322" lon="-0.20733">
        <time>2022-07-29T07:16:45Z</time>
      </trkpt>
      <trkpt lat="41.06334" lon="-0.20763">
        <time>2022-07-29T07:16:46Z</time>
      </trkpt>
      <trkpt lat="41.06346" lon="-0.20791">
        <time>2022-07-29T07:16:47Z</time>
      </trkpt>
      <trkpt lat="41.06358" lon="-0.2082">
        <time>2022-07-29T07:16:48Z</time>
      </trkpt>
      <trkpt lat="41.0637" lon="-0.20848">
        <time>2022-07-29T07:16:49Z</time>
      </trkpt>
      <trkpt lat="41.06382" lon="-0.20877">
        <time>2022-07-29T07:16:50Z</time>
      </trkpt>
      <trkpt lat="41.06394" lon="-0.20905">
        <time>2022-07-29T07:16:51Z</time>
      </trkpt>
      <trkpt lat="41.06406" lon="-0.20934">
        <time>2022-07-29T07:16:52Z</time>
      </trkpt>
      <trkpt lat="41.06418" lon="-0.20963">
        <time>2022-07-29T07:16:53Z</time>
      </trkpt>
      <trkpt lat="41.06429" lon="-0.20992">
        <time>2022-07-29T07:16:54Z</time>
      </trkpt>
      <trkpt lat="41.06441" lon="-0.21022">
        <time>2022-07-29T07:16:55Z</time>
      </trkpt>
      <trkpt lat="41.06453" lon="-0.21053">
        <time>2022-07-29T07:16:56Z</time>
      </trkpt>
      <trkpt lat="41.06464" lon="-0.21083">
        <time>2022-07-29T07:16:57Z</time>
      </trkpt>
      <trkpt lat="41.06475" lon="-0.21114">
        <time>2022-07-29T07:16:58Z</time>
      </trkpt>
      <trkpt lat="41.06486" lon="-0.21144">
        <time>2022-07-29T07:16:59Z</time>
      </trkpt>
      <trkpt lat="41.06496" lon="-0.21175">
        <time>2022-07-29T07:17:00Z</time>
      </trkpt>
      <trkpt lat="41.06507" lon="-0.21206">
        <time>2022-07-29T07:17:01Z</time>
      </trkpt>
      <trkpt lat="41.06518" lon="-0.21236">
        <time>2022-07-29T07:17:02Z</time>
      </trkpt>
      <trkpt lat="41.06529" lon="-0.21267">
        <time>2022-07-29T07:17:03Z</time>
      </trkpt>
      <trkpt lat="41.0654" lon="-0.21297">
        <time>2022-07-29T07:17:04Z</time>
      </trkpt>
      <trkpt lat="41.06551" lon="-0.21327">
        <time>2022-07-29T07:17:05Z</time>
      </trkpt>
      <trkpt lat="41.06561" lon="-0.21358">
        <time>2022-07-29T07:17:06Z</time>
      </trkpt>
      <trkpt lat="41.06572" lon="-0.21387">
        <time>2022-07-29T07:17:07Z</time>
      </trkpt>
      <trkpt lat="41.06583" lon="-0.21417">
        <time>2022-07-29T07:17:08Z</time>
      </trkpt>
      <trkpt lat="41.06593" lon="-0.21447">
        <time>2022-07-29T07:17:09Z</time>
      </trkpt>
      <trkpt lat="41.06604" lon="-0.21477">
        <time>2022-07-29T07:17:10Z</time>
      </trkpt>
      <trkpt lat="41.06614" lon="-0.21507">
        <time>2022-07-29T07:17:11Z</time>
      </trkpt>
      <trkpt lat="41.06624" lon="-0.21537">
        <time>2022-07-29T07:17:12Z</time>
      </trkpt>
      <trkpt lat="41.06635" lon="-0.21567">
        <time>2022-07-29T07:17:13Z</time>
      </trkpt>
      <trkpt lat="41.06645" lon="-0.21597">
        <time>2022-07-29T07:17:14Z</time>
      </trkpt>
      <trkpt lat="41.06655" lon="-0.21627">
        <time>2022-07-29T07:17:15Z</time>
      </trkpt>
      <trkpt lat="41.06666" lon="-0.21657">
        <time>2022-07-29T07:17:16Z</time>
      </trkpt>
      <trkpt lat="41.06676" lon="-0.21686">
        <time>2022-07-29T07:17:17Z</time>
      </trkpt>
      <trkpt lat="41.06687" lon="-0.21716">
        <time>2022-07-29T07:17:18Z</time>
      </trkpt>
      <trkpt lat="41.06697" lon="-0.21746">
        <time>2022-07-29T07:17:19Z</time>
      </trkpt>
      <trkpt lat="41.06708" lon="-0.21775">
        <time>2022-07-29T07:17:20Z</time>
      </trkpt>
      <trkpt lat="41.06718" lon="-0.21806">
        <time>2022-07-29T07:17:21Z</time>
      </trkpt>
      <trkpt lat="41.06729" lon="-0.21835">
        <time>2022-07-29T07:17:22Z</time>
      </trkpt>
      <trkpt lat="41.06739" lon="-0.21865">
        <time>2022-07-29T07:17:23Z</time>
      </trkpt>
      <trkpt lat="41.0675" lon="-0.21895">
        <time>2022-07-29T07:17:24Z</time>
      </trkpt>
      <trkpt lat="41.0676" lon="-0.21925">
        <time>2022-07-29T07:17:25Z</time>
      </trkpt>
      <trkpt lat="41.06771" lon="-0.21955">
        <time>2022-07-29T07:17:26Z</time>
      </trkpt>
      <trkpt lat="41.06781" lon="-0.21985">
        <time>2022-07-29T07:17:27Z</time>
      </trkpt>
      <trkpt lat="41.06792" lon="-0.22015">
        <time>2022-07-29T07:17:28Z</time>
      </trkpt>
      <trkpt lat="41.06803" lon="-0.22046">
        <time>2022-07-29T07:17:29Z</time>
      </trkpt>
      <trkpt lat="41.06814" lon="-0.22077">
        <time>2022-07-29T07:17:30Z</time>
      </trkpt>
      <trkpt lat="41.06825" lon="-0.22108">
        <time>2022-07-29T07:17:31Z</time>
      </trkpt>
      <trkpt lat="41.06837" lon="-0.22138">
        <time>2022-07-29T07:17:32Z</time>
      </trkpt>
      <trkpt lat="41.06848" lon="-0.22168">
        <time>2022-07-29T07:17:33Z</time>
      </trkpt>
      <trkpt lat="41.06859" lon="-0.22198">
        <time>2022-07-29T07:17:34Z</time>
      </trkpt>
      <trkpt lat="41.06869" lon="-0.22227">
        <time>2022-07-29T07:17:35Z</time>
      </trkpt>
      <trkpt lat="41.06879" lon="-0.22256">
        <time>2022-07-29T07:17:36Z</time>
      </trkpt>
      <trkpt lat="41.0689" lon="-0.22284">
        <time>2022-07-29T07:17:37Z</time>
      </trkpt>
      <trkpt lat="41.06901" lon="-0.22312">
        <time>2022-07-29T07:17:38Z</time>
      </trkpt>
      <trkpt lat="41.06912" lon="-0.22339">
        <time>2022-07-29T07:17:39Z</time>
      </trkpt>
      <trkpt lat="41.06925" lon="-0.22366">
        <time>2022-07-29T07:17:40Z</time>
      </trkpt>
      <trkpt lat="41.06938" lon="-0.22392">
        <time>2022-07-29T07:17:41Z</time>
      </trkpt>
      <trkpt lat="41.06952" lon="-0.22418">
        <time>2022-07-29T07:17:42Z</time>
      </trkpt>
      <trkpt lat="41.06966" lon="-0.22444">
        <time>2022-07-29T07:17:43Z</time>
      </trkpt>
      <trkpt lat="41.0698" lon="-0.22471">
        <time>2022-07-29T07:17:44Z</time>
      </trkpt>
      <trkpt lat="41.06994" lon="-0.22497">
        <time>2022-07-29T07:17:45Z</time>
      </trkpt>
      <trkpt lat="41.07009" lon="-0.22523">
        <time>2022-07-29T07:17:46Z</time>
      </trkpt>
      <trkpt lat="41.07023" lon="-0.22551">
        <time>2022-07-29T07:17:47Z</time>
      </trkpt>
      <trkpt lat="41.07039" lon="-0.22579">
        <time>2022-07-29T07:17:48Z</time>
      </trkpt>
      <trkpt lat="41.07054" lon="-0.22608">
        <time>2022-07-29T07:17:49Z</time>
      </trkpt>
      <trkpt lat="41.07071" lon="-0.22637">
        <time>2022-07-29T07:17:50Z</time>
      </trkpt>
      <trkpt lat="41.07087" lon="-0.22667">
        <time>2022-07-29T07:17:51Z</time>
      </trkpt>
      <trkpt lat="41.07103" lon="-0.22697">
        <time>2022-07-29T07:17:52Z</time>
      </trkpt>
      <trkpt lat="41.07119" lon="-0.22726">
        <time>2022-07-29T07:17:53Z</time>
      </trkpt>
      <trkpt lat="41.07135" lon="-0.22755">
        <time>2022-07-29T07:17:54Z</time>
      </trkpt>
      <trkpt lat="41.07151" lon="-0.22784">
        <time>2022-07-29T07:17:55Z</time>
      </trkpt>
      <trkpt lat="41.07166" lon="-0.22812">
        <time>2022-07-29T07:17:56Z</time>
      </trkpt>
      <trkpt lat="41.0718" lon="-0.22839">
        <time>2022-07-29T07:17:57Z</time>
      </trkpt>
      <trkpt lat="41.07194" lon="-0.22865">
        <time>2022-07-29T07:17:58Z</time>
      </trkpt>
      <trkpt lat="41.07208" lon="-0.2289">
        <time>2022-07-29T07:17:59Z</time>
      </trkpt>
      <trkpt lat="41.07221" lon="-0.22915">
        <time>2022-07-29T07:18:00Z</time>
      </trkpt>
      <trkpt lat="41.07234" lon="-0.22939">
        <time>2022-07-29T07:18:01Z</time>
      </trkpt>
      <trkpt lat="41.07247" lon="-0.22963">
        <time>2022-07-29T07:18:02Z</time>
      </trkpt>
      <trkpt lat="41.0726" lon="-0.22988">
        <time>2022-07-29T07:18:03Z</time>
      </trkpt>
      <trkpt lat="41.07273" lon="-0.23013">
        <time>2022-07-29T07:18:04Z</time>
      </trkpt>
      <trkpt lat="41.07287" lon="-0.23038">
        <time>2022-07-29T07:18:05Z</time>
      </trkpt>
      <trkpt lat="41.073" lon="-0.23064">
        <time>2022-07-29T07:18:06Z</time>
      </trkpt>
      <trkpt lat="41.07314" lon="-0.23089">
        <time>2022-07-29T07:18:07Z</time>
      </trkpt>
      <trkpt lat="41.07327" lon="-0.23114">
        <time>2022-07-29T07:18:08Z</time>
      </trkpt>
      <trkpt lat="41.07341" lon="-0.2314">
        <time>2022-07-29T07:18:09Z</time>
      </trkpt>
      <trkpt lat="41.07355" lon="-0.23166">
        <time>2022-07-29T07:18:10Z</time>
      </trkpt>
      <trkpt lat="41.07368" lon="-0.23191">
        <time>2022-07-29T07:18:11Z</time>
      </trkpt>
      <trkpt lat="41.07381" lon="-0.23217">
        <time>2022-07-29T07:18:12Z</time>
      </trkpt>
      <trkpt lat="41.07394" lon="-0.23241">
        <time>2022-07-29T07:18:13Z</time>
      </trkpt>
      <trkpt lat="41.07407" lon="-0.23267">
        <time>2022-07-29T07:18:14Z</time>
      </trkpt>
      <trkpt lat="41.0742" lon="-0.23293">
        <time>2022-07-29T07:18:15Z</time>
      </trkpt>
      <trkpt lat="41.07434" lon="-0.2332">
        <time>2022-07-29T07:18:16Z</time>
      </trkpt>
      <trkpt lat="41.07448" lon="-0.23347">
        <time>2022-07-29T07:18:17Z</time>
      </trkpt>
      <trkpt lat="41.07463" lon="-0.23376">
        <time>2022-07-29T07:18:18Z</time>
      </trkpt>
      <trkpt lat="41.07478" lon="-0.23407">
        <time>2022-07-29T07:18:19Z</time>
      </trkpt>
      <trkpt lat="41.07493" lon="-0.2344">
        <time>2022-07-29T07:18:20Z</time>
      </trkpt>
      <trkpt lat="41.07509" lon="-0.23474">
        <time>2022-07-29T07:18:21Z</time>
      </trkpt>
      <trkpt lat="41.07526" lon="-0.23508">
        <time>2022-07-29T07:18:22Z</time>
      </trkpt>
      <trkpt lat="41.07543" lon="-0.23542">
        <time>2022-07-29T07:18:23Z</time>
      </trkpt>
      <trkpt lat="41.07561" lon="-0.23576">
        <time>2022-07-29T07:18:24Z</time>
      </trkpt>
      <trkpt lat="41.07578" lon="-0.23611">
        <time>2022-07-29T07:18:25Z</time>
      </trkpt>
      <trkpt lat="41.07596" lon="-0.23645">
        <time>2022-07-29T07:18:26Z</time>
      </trkpt>
      <trkpt lat="41.07614" lon="-0.23678">
        <time>2022-07-29T07:18:27Z</time>
      </trkpt>
      <trkpt lat="41.07632" lon="-0.23711">
        <time>2022-07-29T07:18:28Z</time>
      </trkpt>
      <trkpt lat="41.07649" lon="-0.23744">
        <time>2022-07-29T07:18:29Z</time>
      </trkpt>
      <trkpt lat="41.07666" lon="-0.23777">
        <time>2022-07-29T07:18:30Z</time>
      </trkpt>
      <trkpt lat="41.07683" lon="-0.23809">
        <time>2022-07-29T07:18:31Z</time>
      </trkpt>
      <trkpt lat="41.07699" lon="-0.2384">
        <time>2022-07-29T07:18:32Z</time>
      </trkpt>
      <trkpt lat="41.07716" lon="-0.23871">
        <time>2022-07-29T07:18:33Z</time>
      </trkpt>
      <trkpt lat="41.07732" lon="-0.23902">
        <time>2022-07-29T07:18:34Z</time>
      </trkpt>
      <trkpt lat="41.07749" lon="-0.23932">
        <time>2022-07-29T07:18:35Z</time>
      </trkpt>
      <trkpt lat="41.07766" lon="-0.23961">
        <time>2022-07-29T07:18:36Z</time>
      </trkpt>
      <trkpt lat="41.07783" lon="-0.2399">
        <time>2022-07-29T07:18:37Z</time>
      </trkpt>
      <trkpt lat="41.07801" lon="-0.24018">
        <time>2022-07-29T07:18:38Z</time>
      </trkpt>
      <trkpt lat="41.07818" lon="-0.24046">
        <time>2022-07-29T07:18:39Z</time>
      </trkpt>
      <trkpt lat="41.07836" lon="-0.24073">
        <time>2022-07-29T07:18:40Z</time>
      </trkpt>
      <trkpt lat="41.07853" lon="-0.24101">
        <time>2022-07-29T07:18:41Z</time>
      </trkpt>
      <trkpt lat="41.07871" lon="-0.2413">
        <time>2022-07-29T07:18:42Z</time>
      </trkpt>
      <trkpt lat="41.07888" lon="-0.24158">
        <time>2022-07-29T07:18:43Z</time>
      </trkpt>
      <trkpt lat="41.07905" lon="-0.24187">
        <time>2022-07-29T07:18:44Z</time>
      </trkpt>
      <trkpt lat="41.07923" lon="-0.24215">
        <time>2022-07-29T07:18:45Z</time>
      </trkpt>
      <trkpt lat="41.07941" lon="-0.24243">
        <time>2022-07-29T07:18:46Z</time>
      </trkpt>
      <trkpt lat="41.07958" lon="-0.24272">
        <time>2022-07-29T07:18:47Z</time>
      </trkpt>
      <trkpt lat="41.07976" lon="-0.243">
        <time>2022-07-29T07:18:48Z</time>
      </trkpt>
      <trkpt lat="41.07993" lon="-0.24329">
        <time>2022-07-29T07:18:49Z</time>
      </trkpt>
      <trkpt lat="41.08011" lon="-0.24358">
        <time>2022-07-29T07:18:50Z</time>
      </trkpt>
      <trkpt lat="41.08027" lon="-0.24387">
        <time>2022-07-29T07:18:51Z</time>
      </trkpt>
      <trkpt lat="41.08043" lon="-0.24418">
        <time>2022-07-29T07:18:52Z</time>
      </trkpt>
      <trkpt lat="41.08057" lon="-0.24449">
        <time>2022-07-29T07:18:53Z</time>
      </trkpt>
      <trkpt lat="41.08069" lon="-0.24482">
        <time>2022-07-29T07:18:54Z</time>
      </trkpt>
      <trkpt lat="41.08079" lon="-0.24516">
        <time>2022-07-29T07:18:55Z</time>
      </trkpt>
      <trkpt lat="41.08088" lon="-0.2455">
        <time>2022-07-29T07:18:56Z</time>
      </trkpt>
      <trkpt lat="41.08097" lon="-0.24584">
        <time>2022-07-29T07:18:57Z</time>
      </trkpt>
      <trkpt lat="41.08104" lon="-0.24617">
        <time>2022-07-29T07:18:58Z</time>
      </trkpt>
      <trkpt lat="41.08112" lon="-0.24652">
        <time>2022-07-29T07:18:59Z</time>
      </trkpt>
      <trkpt lat="41.08119" lon="-0.24686">
        <time>2022-07-29T07:19:00Z</time>
      </trkpt>
      <trkpt lat="41.08126" lon="-0.24719">
        <time>2022-07-29T07:19:01Z</time>
      </trkpt>
      <trkpt lat="41.08133" lon="-0.24751">
        <time>2022-07-29T07:19:02Z</time>
      </trkpt>
      <trkpt lat="41.08139" lon="-0.24783">
        <time>2022-07-29T07:19:03Z</time>
      </trkpt>
      <trkpt lat="41.08146" lon="-0.24814">
        <time>2022-07-29T07:19:04Z</time>
      </trkpt>
      <trkpt lat="41.08152" lon="-0.24844">
        <time>2022-07-29T07:19:05Z</time>
      </trkpt>
      <trkpt lat="41.08158" lon="-0.24874">
        <time>2022-07-29T07:19:06Z</time>
      </trkpt>
      <trkpt lat="41.08164" lon="-0.24903">
        <time>2022-07-29T07:19:07Z</time>
      </trkpt>
      <trkpt lat="41.08168" lon="-0.24933">
        <time>2022-07-29T07:19:08Z</time>
      </trkpt>
      <trkpt lat="41.08172" lon="-0.24961">
        <time>2022-07-29T07:19:09Z</time>
      </trkpt>
      <trkpt lat="41.08174" lon="-0.24989">
        <time>2022-07-29T07:19:10Z</time>
      </trkpt>
      <trkpt lat="41.08176" lon="-0.25018">
        <time>2022-07-29T07:19:11Z</time>
      </trkpt>
      <trkpt lat="41.08178" lon="-0.25046">
        <time>2022-07-29T07:19:12Z</time>
      </trkpt>
      <trkpt lat="41.0818" lon="-0.25074">
        <time>2022-07-29T07:19:13Z</time>
      </trkpt>
      <trkpt lat="41.08182" lon="-0.25102">
        <time>2022-07-29T07:19:14Z</time>
      </trkpt>
      <trkpt lat="41.08185" lon="-0.25129">
        <time>2022-07-29T07:19:15Z</time>
      </trkpt>
      <trkpt lat="41.08188" lon="-0.25157">
        <time>2022-07-29T07:19:16Z</time>
      </trkpt>
      <trkpt lat="41.08192" lon="-0.25184">
        <time>2022-07-29T07:19:17Z</time>
      </trkpt>
      <trkpt lat="41.08197" lon="-0.25212">
        <time>2022-07-29T07:19:18Z</time>
      </trkpt>
      <trkpt lat="41.08205" lon="-0.25239">
        <time>2022-07-29T07:19:19Z</time>
      </trkpt>
      <trkpt lat="41.08213" lon="-0.25266">
        <time>2022-07-29T07:19:20Z</time>
      </trkpt>
      <trkpt lat="41.08221" lon="-0.25293">
        <time>2022-07-29T07:19:21Z</time>
      </trkpt>
      <trkpt lat="41.08231" lon="-0.2532">
        <time>2022-07-29T07:19:22Z</time>
      </trkpt>
      <trkpt lat="41.08242" lon="-0.25345">
        <time>2022-07-29T07:19:23Z</time>
      </trkpt>
      <trkpt lat="41.08254" lon="-0.25369">
        <time>2022-07-29T07:19:24Z</time>
      </trkpt>
      <trkpt lat="41.08266" lon="-0.25392">
        <time>2022-07-29T07:19:25Z</time>
      </trkpt>
      <trkpt lat="41.08279" lon="-0.25414">
        <time>2022-07-29T07:19:26Z</time>
      </trkpt>
      <trkpt lat="41.08292" lon="-0.25436">
        <time>2022-07-29T07:19:27Z</time>
      </trkpt>
      <trkpt lat="41.08306" lon="-0.25458">
        <time>2022-07-29T07:19:28Z</time>
      </trkpt>
      <trkpt lat="41.08319" lon="-0.25479">
        <time>2022-07-29T07:19:29Z</time>
      </trkpt>
      <trkpt lat="41.08331" lon="-0.25501">
        <time>2022-07-29T07:19:30Z</time>
      </trkpt>
      <trkpt lat="41.08344" lon="-0.25523">
        <time>2022-07-29T07:19:31Z</time>
      </trkpt>
      <trkpt lat="41.08357" lon="-0.25546">
        <time>2022-07-29T07:19:32Z</time>
      </trkpt>
      <trkpt lat="41.0837" lon="-0.2557">
        <time>2022-07-29T07:19:33Z</time>
      </trkpt>
      <trkpt lat="41.08381" lon="-0.25594">
        <time>2022-07-29T07:19:34Z</time>
      </trkpt>
      <trkpt lat="41.08392" lon="-0.2562">
        <time>2022-07-29T07:19:35Z</time>
      </trkpt>
      <trkpt lat="41.08401" lon="-0.25646">
        <time>2022-07-29T07:19:36Z</time>
      </trkpt>
      <trkpt lat="41.08409" lon="-0.25674">
        <time>2022-07-29T07:19:37Z</time>
      </trkpt>
      <trkpt lat="41.08416" lon="-0.25701">
        <time>2022-07-29T07:19:38Z</time>
      </trkpt>
      <trkpt lat="41.08422" lon="-0.25729">
        <time>2022-07-29T07:19:39Z</time>
      </trkpt>
      <trkpt lat="41.08428" lon="-0.25758">
        <time>2022-07-29T07:19:40Z</time>
      </trkpt>
      <trkpt lat="41.08432" lon="-0.25786">
        <time>2022-07-29T07:19:41Z</time>
      </trkpt>
      <trkpt lat="41.08436" lon="-0.25813">
        <time>2022-07-29T07:19:42Z</time>
      </trkpt>
      <trkpt lat="41.08441" lon="-0.2584">
        <time>2022-07-29T07:19:43Z</time>
      </trkpt>
      <trkpt lat="41.08445" lon="-0.25866">
        <time>2022-07-29T07:19:44Z</time>
      </trkpt>
      <trkpt lat="41.0845" lon="-0.25893">
        <time>2022-07-29T07:19:45Z</time>
      </trkpt>
      <trkpt lat="41.08454" lon="-0.2592">
        <time>2022-07-29T07:19:46Z</time>
      </trkpt>
      <trkpt lat="41.08459" lon="-0.25947">
        <time>2022-07-29T07:19:47Z</time>
      </trkpt>
      <trkpt lat="41.08463" lon="-0.25975">
        <time>2022-07-29T07:19:48Z</time>
      </trkpt>
      <trkpt lat="41.08468" lon="-0.26002">
        <time>2022-07-29T07:19:49Z</time>
      </trkpt>
      <trkpt lat="41.08473" lon="-0.2603">
        <time>2022-07-29T07:19:50Z</time>
      </trkpt>
      <trkpt lat="41.08478" lon="-0.26058">
        <time>2022-07-29T07:19:51Z</time>
      </trkpt>
      <trkpt lat="41.08482" lon="-0.26087">
        <time>2022-07-29T07:19:52Z</time>
      </trkpt>
      <trkpt lat="41.08487" lon="-0.26116">
        <time>2022-07-29T07:19:53Z</time>
      </trkpt>
      <trkpt lat="41.08493" lon="-0.26146">
        <time>2022-07-29T07:19:54Z</time>
      </trkpt>
      <trkpt lat="41.085" lon="-0.26174">
        <time>2022-07-29T07:19:55Z</time>
      </trkpt>
      <trkpt lat="41.08507" lon="-0.26203">
        <time>2022-07-29T07:19:56Z</time>
      </trkpt>
      <trkpt lat="41.08516" lon="-0.26231">
        <time>2022-07-29T07:19:57Z</time>
      </trkpt>
      <trkpt lat="41.08526" lon="-0.26257">
        <time>2022-07-29T07:19:58Z</time>
      </trkpt>
      <trkpt lat="41.08537" lon="-0.26283">
        <time>2022-07-29T07:19:59Z</time>
      </trkpt>
      <trkpt lat="41.08548" lon="-0.26307">
        <time>2022-07-29T07:20:00Z</time>
      </trkpt>
      <trkpt lat="41.08559" lon="-0.26331">
        <time>2022-07-29T07:20:01Z</time>
      </trkpt>
      <trkpt lat="41.08571" lon="-0.26354">
        <time>2022-07-29T07:20:02Z</time>
      </trkpt>
      <trkpt lat="41.08582" lon="-0.26377">
        <time>2022-07-29T07:20:03Z</time>
      </trkpt>
      <trkpt lat="41.08593" lon="-0.26399">
        <time>2022-07-29T07:20:04Z</time>
      </trkpt>
      <trkpt lat="41.08604" lon="-0.2642">
        <time>2022-07-29T07:20:05Z</time>
      </trkpt>
      <trkpt lat="41.08615" lon="-0.26442">
        <time>2022-07-29T07:20:06Z</time>
      </trkpt>
      <trkpt lat="41.08626" lon="-0.26463">
        <time>2022-07-29T07:20:07Z</time>
      </trkpt>
      <trkpt lat="41.08636" lon="-0.26486">
        <time>2022-07-29T07:20:08Z</time>
      </trkpt>
      <trkpt lat="41.08645" lon="-0.26508">
        <time>2022-07-29T07:20:09Z</time>
      </trkpt>
      <trkpt lat="41.08654" lon="-0.26531">
        <time>2022-07-29T07:20:10Z</time>
      </trkpt>
      <trkpt lat="41.08662" lon="-0.26554">
        <time>2022-07-29T07:20:11Z</time>
      </trkpt>
      <trkpt lat="41.0867" lon="-0.26578">
        <time>2022-07-29T07:20:12Z</time>
      </trkpt>
      <trkpt lat="41.08676" lon="-0.26603">
        <time>2022-07-29T07:20:13Z</time>
      </trkpt>
      <trkpt lat="41.08682" lon="-0.26628">
        <time>2022-07-29T07:20:14Z</time>
      </trkpt>
      <trkpt lat="41.08687" lon="-0.26653">
        <time>2022-07-29T07:20:15Z</time>
      </trkpt>
      <trkpt lat="41.08691" lon="-0.26679">
        <time>2022-07-29T07:20:16Z</time>
      </trkpt>
      <trkpt lat="41.08695" lon="-0.26705">
        <time>2022-07-29T07:20:17Z</time>
      </trkpt>
      <trkpt lat="41.08698" lon="-0.26731">
        <time>2022-07-29T07:20:18Z</time>
      </trkpt>
      <trkpt lat="41.08702" lon="-0.26757">
        <time>2022-07-29T07:20:19Z</time>
      </trkpt>
      <trkpt lat="41.08705" lon="-0.26784">
        <time>2022-07-29T07:20:20Z</time>
      </trkpt>
      <trkpt lat="41.08708" lon="-0.26811">
        <time>2022-07-29T07:20:21Z</time>
      </trkpt>
      <trkpt lat="41.08711" lon="-0.26838">
        <time>2022-07-29T07:20:22Z</time>
      </trkpt>
      <trkpt lat="41.08715" lon="-0.26865">
        <time>2022-07-29T07:20:23Z</time>
      </trkpt>
      <trkpt lat="41.0872" lon="-0.26891">
        <time>2022-07-29T07:20:24Z</time>
      </trkpt>
      <trkpt lat="41.08726" lon="-0.26917">
        <time>2022-07-29T07:20:25Z</time>
      </trkpt>
      <trkpt lat="41.08733" lon="-0.26942">
        <time>2022-07-29T07:20:26Z</time>
      </trkpt>
      <trkpt lat="41.0874" lon="-0.26967">
        <time>2022-07-29T07:20:27Z</time>
      </trkpt>
      <trkpt lat="41.0875" lon="-0.26991">
        <time>2022-07-29T07:20:28Z</time>
      </trkpt>
      <trkpt lat="41.08759" lon="-0.27015">
        <time>2022-07-29T07:20:29Z</time>
      </trkpt>
      <trkpt lat="41.08769" lon="-0.2704">
        <time>2022-07-29T07:20:30Z</time>
      </trkpt>
      <trkpt lat="41.0878" lon="-0.27067">
        <time>2022-07-29T07:20:31Z</time>
      </trkpt>
      <trkpt lat="41.08791" lon="-0.27095">
        <time>2022-07-29T07:20:32Z</time>
      </trkpt>
      <trkpt lat="41.08803" lon="-0.27125">
        <time>2022-07-29T07:20:33Z</time>
      </trkpt>
      <trkpt lat="41.08816" lon="-0.27158">
        <time>2022-07-29T07:20:34Z</time>
      </trkpt>
      <trkpt lat="41.0883" lon="-0.27192">
        <time>2022-07-29T07:20:35Z</time>
      </trkpt>
      <trkpt lat="41.08843" lon="-0.27229">
        <time>2022-07-29T07:20:36Z</time>
      </trkpt>
      <trkpt lat="41.08855" lon="-0.27268">
        <time>2022-07-29T07:20:37Z</time>
      </trkpt>
      <trkpt lat="41.08866" lon="-0.27308">
        <time>2022-07-29T07:20:38Z</time>
      </trkpt>
      <trkpt lat="41.08874" lon="-0.27349">
        <time>2022-07-29T07:20:39Z</time>
      </trkpt>
      <trkpt lat="41.08881" lon="-0.27389">
        <time>2022-07-29T07:20:40Z</time>
      </trkpt>
      <trkpt lat="41.08888" lon="-0.27427">
        <time>2022-07-29T07:20:41Z</time>
      </trkpt>
      <trkpt lat="41.08895" lon="-0.27464">
        <time>2022-07-29T07:20:42Z</time>
      </trkpt>
      <trkpt lat="41.08901" lon="-0.275">
        <time>2022-07-29T07:20:43Z</time>
      </trkpt>
      <trkpt lat="41.08907" lon="-0.27534">
        <time>2022-07-29T07:20:44Z</time>
      </trkpt>
      <trkpt lat="41.08911" lon="-0.27565">
        <time>2022-07-29T07:20:45Z</time>
      </trkpt>
      <trkpt lat="41.08916" lon="-0.27594">
        <time>2022-07-29T07:20:46Z</time>
      </trkpt>
      <trkpt lat="41.08919" lon="-0.27621">
        <time>2022-07-29T07:20:47Z</time>
      </trkpt>
      <trkpt lat="41.08923" lon="-0.27648">
        <time>2022-07-29T07:20:48Z</time>
      </trkpt>
      <trkpt lat="41.08926" lon="-0.27674">
        <time>2022-07-29T07:20:49Z</time>
      </trkpt>
      <trkpt lat="41.08932" lon="-0.27701">
        <time>2022-07-29T07:20:50Z</time>
      </trkpt>
      <trkpt lat="41.08938" lon="-0.27729">
        <time>2022-07-29T07:20:51Z</time>
      </trkpt>
      <trkpt lat="41.08946" lon="-0.27758">
        <time>2022-07-29T07:20:52Z</time>
      </trkpt>
      <trkpt lat="41.08955" lon="-0.27789">
        <time>2022-07-29T07:20:53Z</time>
      </trkpt>
      <trkpt lat="41.08966" lon="-0.27822">
        <time>2022-07-29T07:20:54Z</time>
      </trkpt>
      <trkpt lat="41.08978" lon="-0.27855">
        <time>2022-07-29T07:20:55Z</time>
      </trkpt>
      <trkpt lat="41.08992" lon="-0.27887">
        <time>2022-07-29T07:20:56Z</time>
      </trkpt>
      <trkpt lat="41.09006" lon="-0.27921">
        <time>2022-07-29T07:20:57Z</time>
      </trkpt>
      <trkpt lat="41.0902" lon="-0.27956">
        <time>2022-07-29T07:20:58Z</time>
      </trkpt>
      <trkpt lat="41.09035" lon="-0.27991">
        <time>2022-07-29T07:20:59Z</time>
      </trkpt>
      <trkpt lat="41.09051" lon="-0.28027">
        <time>2022-07-29T07:21:00Z</time>
      </trkpt>
      <trkpt lat="41.09066" lon="-0.28064">
        <time>2022-07-29T07:21:01Z</time>
      </trkpt>
      <trkpt lat="41.09081" lon="-0.28102">
        <time>2022-07-29T07:21:02Z</time>
      </trkpt>
      <trkpt lat="41.09095" lon="-0.28139">
        <time>2022-07-29T07:21:03Z</time>
      </trkpt>
      <trkpt lat="41.0911" lon="-0.28177">
        <time>2022-07-29T07:21:04Z</time>
      </trkpt>
      <trkpt lat="41.09125" lon="-0.28214">
        <time>2022-07-29T07:21:05Z</time>
      </trkpt>
      <trkpt lat="41.09141" lon="-0.28252">
        <time>2022-07-29T07:21:06Z</time>
      </trkpt>
      <trkpt lat="41.09156" lon="-0.28291">
        <time>2022-07-29T07:21:07Z</time>
      </trkpt>
      <trkpt lat="41.09171" lon="-0.28329">
        <time>2022-07-29T07:21:08Z</time>
      </trkpt>
      <trkpt lat="41.09186" lon="-0.28367">
        <time>2022-07-29T07:21:09Z</time>
      </trkpt>
      <trkpt lat="41.09201" lon="-0.28404">
        <time>2022-07-29T07:21:10Z</time>
      </trkpt>
      <trkpt lat="41.09216" lon="-0.28442">
        <time>2022-07-29T07:21:11Z</time>
      </trkpt>
      <trkpt lat="41.0923" lon="-0.28479">
        <time>2022-07-29T07:21:12Z</time>
      </trkpt>
      <trkpt lat="41.09245" lon="-0.28515">
        <time>2022-07-29T07:21:13Z</time>
      </trkpt>
      <trkpt lat="41.09259" lon="-0.28553">
        <time>2022-07-29T07:21:14Z</time>
      </trkpt>
      <trkpt lat="41.09273" lon="-0.2859">
        <time>2022-07-29T07:21:15Z</time>
      </trkpt>
      <trkpt lat="41.09287" lon="-0.28626">
        <time>2022-07-29T07:21:16Z</time>
      </trkpt>
      <trkpt lat="41.09301" lon="-0.28663">
        <time>2022-07-29T07:21:17Z</time>
      </trkpt>
      <trkpt lat="41.09316" lon="-0.28699">
        <time>2022-07-29T07:21:18Z</time>
      </trkpt>
      <trkpt lat="41.0933" lon="-0.28736">
        <time>2022-07-29T07:21:19Z</time>
      </trkpt>
      <trkpt lat="41.09343" lon="-0.28771">
        <time>2022-07-29T07:21:20Z</time>
      </trkpt>
      <trkpt lat="41.09357" lon="-0.28807">
        <time>2022-07-29T07:21:21Z</time>
      </trkpt>
      <trkpt lat="41.09371" lon="-0.28843">
        <time>2022-07-29T07:21:22Z</time>
      </trkpt>
      <trkpt lat="41.09384" lon="-0.28877">
        <time>2022-07-29T07:21:23Z</time>
      </trkpt>
      <trkpt lat="41.09396" lon="-0.2891">
        <time>2022-07-29T07:21:24Z</time>
      </trkpt>
      <trkpt lat="41.09408" lon="-0.28941">
        <time>2022-07-29T07:21:25Z</time>
      </trkpt>
      <trkpt lat="41.09419" lon="-0.2897">
        <time>2022-07-29T07:21:26Z</time>
      </trkpt>
      <trkpt lat="41.09431" lon="-0.29">
        <time>2022-07-29T07:21:27Z</time>
      </trkpt>
      <trkpt lat="41.09443" lon="-0.29029">
        <time>2022-07-29T07:21:28Z</time>
      </trkpt>
      <trkpt lat="41.09454" lon="-0.29058">
        <time>2022-07-29T07:21:29Z</time>
      </trkpt>
      <trkpt lat="41.09465" lon="-0.29087">
        <time>2022-07-29T07:21:30Z</time>
      </trkpt>
      <trkpt lat="41.09477" lon="-0.29117">
        <time>2022-07-29T07:21:31Z</time>
      </trkpt>
      <trkpt lat="41.09488" lon="-0.29147">
        <time>2022-07-29T07:21:32Z</time>
      </trkpt>
      <trkpt lat="41.095" lon="-0.29176">
        <time>2022-07-29T07:21:33Z</time>
      </trkpt>
      <trkpt lat="41.09512" lon="-0.29206">
        <time>2022-07-29T07:21:34Z</time>
      </trkpt>
      <trkpt lat="41.09524" lon="-0.29235">
        <time>2022-07-29T07:21:35Z</time>
      </trkpt>
      <trkpt lat="41.09535" lon="-0.29265">
        <time>2022-07-29T07:21:36Z</time>
      </trkpt>
      <trkpt lat="41.09547" lon="-0.29293">
        <time>2022-07-29T07:21:37Z</time>
      </trkpt>
      <trkpt lat="41.09558" lon="-0.29322">
        <time>2022-07-29T07:21:38Z</time>
      </trkpt>
      <trkpt lat="41.09569" lon="-0.29351">
        <time>2022-07-29T07:21:39Z</time>
      </trkpt>
      <trkpt lat="41.0958" lon="-0.2938">
        <time>2022-07-29T07:21:40Z</time>
      </trkpt>
      <trkpt lat="41.09592" lon="-0.29408">
        <time>2022-07-29T07:21:41Z</time>
      </trkpt>
      <trkpt lat="41.09604" lon="-0.29437">
        <time>2022-07-29T07:21:42Z</time>
      </trkpt>
      <trkpt lat="41.09615" lon="-0.29466">
        <time>2022-07-29T07:21:43Z</time>
      </trkpt>
      <trkpt lat="41.09626" lon="-0.29495">
        <time>2022-07-29T07:21:44Z</time>
      </trkpt>
      <trkpt lat="41.09637" lon="-0.29525">
        <time>2022-07-29T07:21:45Z</time>
      </trkpt>
      <trkpt lat="41.09647" lon="-0.29555">
        <time>2022-07-29T07:21:46Z</time>
      </trkpt>
      <trkpt lat="41.09657" lon="-0.29586">
        <time>2022-07-29T07:21:47Z</time>
      </trkpt>
      <trkpt lat="41.09667" lon="-0.29619">
        <time>2022-07-29T07:21:48Z</time>
      </trkpt>
      <trkpt lat="41.09676" lon="-0.29654">
        <time>2022-07-29T07:21:49Z</time>
      </trkpt>
      <trkpt lat="41.09687" lon="-0.2969">
        <time>2022-07-29T07:21:50Z</time>
      </trkpt>
      <trkpt lat="41.09698" lon="-0.29727">
        <time>2022-07-29T07:21:51Z</time>
      </trkpt>
      <trkpt lat="41.09711" lon="-0.29764">
        <time>2022-07-29T07:21:52Z</time>
      </trkpt>
      <trkpt lat="41.09723" lon="-0.29802">
        <time>2022-07-29T07:21:53Z</time>
      </trkpt>
      <trkpt lat="41.09735" lon="-0.2984">
        <time>2022-07-29T07:21:54Z</time>
      </trkpt>
      <trkpt lat="41.09747" lon="-0.29878">
        <time>2022-07-29T07:21:55Z</time>
      </trkpt>
      <trkpt lat="41.09758" lon="-0.29916">
        <time>2022-07-29T07:21:56Z</time>
      </trkpt>
      <trkpt lat="41.09769" lon="-0.29953">
        <time>2022-07-29T07:21:57Z</time>
      </trkpt>
      <trkpt lat="41.0978" lon="-0.2999">
        <time>2022-07-29T07:21:58Z</time>
      </trkpt>
      <trkpt lat="41.09791" lon="-0.30027">
        <time>2022-07-29T07:21:59Z</time>
      </trkpt>
      <trkpt lat="41.09802" lon="-0.30064">
        <time>2022-07-29T07:22:00Z</time>
      </trkpt>
      <trkpt lat="41.09813" lon="-0.301">
        <time>2022-07-29T07:22:01Z</time>
      </trkpt>
      <trkpt lat="41.09824" lon="-0.30136">
        <time>2022-07-29T07:22:02Z</time>
      </trkpt>
      <trkpt lat="41.09834" lon="-0.30171">
        <time>2022-07-29T07:22:03Z</time>
      </trkpt>
      <trkpt lat="41.09845" lon="-0.30207">
        <time>2022-07-29T07:22:04Z</time>
      </trkpt>
      <trkpt lat="41.09855" lon="-0.30241">
        <time>2022-07-29T07:22:05Z</time>
      </trkpt>
      <trkpt lat="41.09866" lon="-0.30276">
        <time>2022-07-29T07:22:06Z</time>
      </trkpt>
      <trkpt lat="41.09877" lon="-0.30311">
        <time>2022-07-29T07:22:07Z</time>
      </trkpt>
      <trkpt lat="41.09887" lon="-0.30345">
        <time>2022-07-29T07:22:08Z</time>
      </trkpt>
      <trkpt lat="41.09898" lon="-0.3038">
        <time>2022-07-29T07:22:09Z</time>
      </trkpt>
      <trkpt lat="41.09908" lon="-0.30413">
        <time>2022-07-29T07:22:10Z</time>
      </trkpt>
      <trkpt lat="41.09918" lon="-0.30447">
        <time>2022-07-29T07:22:11Z</time>
      </trkpt>
      <trkpt lat="41.09929" lon="-0.30481">
        <time>2022-07-29T07:22:12Z</time>
      </trkpt>
      <trkpt lat="41.09939" lon="-0.30515">
        <time>2022-07-29T07:22:13Z</time>
      </trkpt>
      <trkpt lat="41.09949" lon="-0.30549">
        <time>2022-07-29T07:22:14Z</time>
      </trkpt>
      <trkpt lat="41.0996" lon="-0.30584">
        <time>2022-07-29T07:22:15Z</time>
      </trkpt>
      <trkpt lat="41.0997" lon="-0.30618">
        <time>2022-07-29T07:22:16Z</time>
      </trkpt>
      <trkpt lat="41.0998" lon="-0.30652">
        <time>2022-07-29T07:22:17Z</time>
      </trkpt>
      <trkpt lat="41.09991" lon="-0.30687">
        <time>2022-07-29T07:22:18Z</time>
      </trkpt>
      <trkpt lat="41.10001" lon="-0.30722">
        <time>2022-07-29T07:22:19Z</time>
      </trkpt>
      <trkpt lat="41.10011" lon="-0.30756">
        <time>2022-07-29T07:22:20Z</time>
      </trkpt>
      <trkpt lat="41.10022" lon="-0.30791">
        <time>2022-07-29T07:22:21Z</time>
      </trkpt>
      <trkpt lat="41.10032" lon="-0.30826">
        <time>2022-07-29T07:22:22Z</time>
      </trkpt>
      <trkpt lat="41.10043" lon="-0.30861">
        <time>2022-07-29T07:22:23Z</time>
      </trkpt>
      <trkpt lat="41.10054" lon="-0.30896">
        <time>2022-07-29T07:22:24Z</time>
      </trkpt>
      <trkpt lat="41.10064" lon="-0.3093">
        <time>2022-07-29T07:22:25Z</time>
      </trkpt>
      <trkpt lat="41.10075" lon="-0.30965">
        <time>2022-07-29T07:22:26Z</time>
      </trkpt>
      <trkpt lat="41.10085" lon="-0.31">
        <time>2022-07-29T07:22:27Z</time>
      </trkpt>
      <trkpt lat="41.10096" lon="-0.31036">
        <time>2022-07-29T07:22:28Z</time>
      </trkpt>
      <trkpt lat="41.10106" lon="-0.3107">
        <time>2022-07-29T07:22:29Z</time>
      </trkpt>
      <trkpt lat="41.10117" lon="-0.31105">
        <time>2022-07-29T07:22:30Z</time>
      </trkpt>
      <trkpt lat="41.10127" lon="-0.3114">
        <time>2022-07-29T07:22:31Z</time>
      </trkpt>
      <trkpt lat="41.10137" lon="-0.31175">
        <time>2022-07-29T07:22:32Z</time>
      </trkpt>
      <trkpt lat="41.10147" lon="-0.31209">
        <time>2022-07-29T07:22:33Z</time>
      </trkpt>
      <trkpt lat="41.10157" lon="-0.31243">
        <time>2022-07-29T07:22:34Z</time>
      </trkpt>
      <trkpt lat="41.10167" lon="-0.31277">
        <time>2022-07-29T07:22:35Z</time>
      </trkpt>
      <trkpt lat="41.10177" lon="-0.3131">
        <time>2022-07-29T07:22:36Z</time>
      </trkpt>
      <trkpt lat="41.10187" lon="-0.31344">
        <time>2022-07-29T07:22:37Z</time>
      </trkpt>
      <trkpt lat="41.10197" lon="-0.31377">
        <time>2022-07-29T07:22:38Z</time>
      </trkpt>
      <trkpt lat="41.10208" lon="-0.31411">
        <time>2022-07-29T07:22:39Z</time>
      </trkpt>
      <trkpt lat="41.1022" lon="-0.31443">
        <time>2022-07-29T07:22:40Z</time>
      </trkpt>
      <trkpt lat="41.10232" lon="-0.31474">
        <time>2022-07-29T07:22:41Z</time>
      </trkpt>
      <trkpt lat="41.10247" lon="-0.31505">
        <time>2022-07-29T07:22:42Z</time>
      </trkpt>
      <trkpt lat="41.10262" lon="-0.31535">
        <time>2022-07-29T07:22:43Z</time>
      </trkpt>
      <trkpt lat="41.10278" lon="-0.31565">
        <time>2022-07-29T07:22:44Z</time>
      </trkpt>
      <trkpt lat="41.10296" lon="-0.31593">
        <time>2022-07-29T07:22:45Z</time>
      </trkpt>
      <trkpt lat="41.10313" lon="-0.31622">
        <time>2022-07-29T07:22:46Z</time>
      </trkpt>
      <trkpt lat="41.10331" lon="-0.3165">
        <time>2022-07-29T07:22:47Z</time>
      </trkpt>
      <trkpt lat="41.10348" lon="-0.31678">
        <time>2022-07-29T07:22:48Z</time>
      </trkpt>
      <trkpt lat="41.10365" lon="-0.31708">
        <time>2022-07-29T07:22:49Z</time>
      </trkpt>
      <trkpt lat="41.10383" lon="-0.31737">
        <time>2022-07-29T07:22:50Z</time>
      </trkpt>
      <trkpt lat="41.10401" lon="-0.31766">
        <time>2022-07-29T07:22:51Z</time>
      </trkpt>
      <trkpt lat="41.10419" lon="-0.31795">
        <time>2022-07-29T07:22:52Z</time>
      </trkpt>
      <trkpt lat="41.10437" lon="-0.31823">
        <time>2022-07-29T07:22:53Z</time>
      </trkpt>
      <trkpt lat="41.10455" lon="-0.31852">
        <time>2022-07-29T07:22:54Z</time>
      </trkpt>
      <trkpt lat="41.10474" lon="-0.31881">
        <time>2022-07-29T07:22:55Z</time>
      </trkpt>
      <trkpt lat="41.10492" lon="-0.3191">
        <time>2022-07-29T07:22:56Z</time>
      </trkpt>
      <trkpt lat="41.10511" lon="-0.31939">
        <time>2022-07-29T07:22:57Z</time>
      </trkpt>
      <trkpt lat="41.10529" lon="-0.31968">
        <time>2022-07-29T07:22:58Z</time>
      </trkpt>
      <trkpt lat="41.10548" lon="-0.31996">
        <time>2022-07-29T07:22:59Z</time>
      </trkpt>
      <trkpt lat="41.10566" lon="-0.32025">
        <time>2022-07-29T07:23:00Z</time>
      </trkpt>
      <trkpt lat="41.10585" lon="-0.32054">
        <time>2022-07-29T07:23:01Z</time>
      </trkpt>
      <trkpt lat="41.10603" lon="-0.32083">
        <time>2022-07-29T07:23:02Z</time>
      </trkpt>
      <trkpt lat="41.10622" lon="-0.32112">
        <time>2022-07-29T07:23:03Z</time>
      </trkpt>
      <trkpt lat="41.1064" lon="-0.3214">
        <time>2022-07-29T07:23:04Z</time>
      </trkpt>
      <trkpt lat="41.10658" lon="-0.32169">
        <time>2022-07-29T07:23:05Z</time>
      </trkpt>
      <trkpt lat="41.10676" lon="-0.32198">
        <time>2022-07-29T07:23:06Z</time>
      </trkpt>
      <trkpt lat="41.10694" lon="-0.32227">
        <time>2022-07-29T07:23:07Z</time>
      </trkpt>
      <trkpt lat="41.10712" lon="-0.32255">
        <time>2022-07-29T07:23:08Z</time>
      </trkpt>
      <trkpt lat="41.1073" lon="-0.32284">
        <time>2022-07-29T07:23:09Z</time>
      </trkpt>
      <trkpt lat="41.10748" lon="-0.32313">
        <time>2022-07-29T07:23:10Z</time>
      </trkpt>
      <trkpt lat="41.10766" lon="-0.32342">
        <time>2022-07-29T07:23:11Z</time>
      </trkpt>
      <trkpt lat="41.10785" lon="-0.32371">
        <time>2022-07-29T07:23:12Z</time>
      </trkpt>
      <trkpt lat="41.10804" lon="-0.324">
        <time>2022-07-29T07:23:13Z</time>
      </trkpt>
      <trkpt lat="41.10822" lon="-0.32429">
        <time>2022-07-29T07:23:14Z</time>
      </trkpt>
      <trkpt lat="41.10841" lon="-0.32458">
        <time>2022-07-29T07:23:15Z</time>
      </trkpt>
      <trkpt lat="41.10859" lon="-0.32487">
        <time>2022-07-29T07:23:16Z</time>
      </trkpt>
      <trkpt lat="41.10878" lon="-0.32517">
        <time>2022-07-29T07:23:17Z</time>
      </trkpt>
      <trkpt lat="41.10897" lon="-0.32546">
        <time>2022-07-29T07:23:18Z</time>
      </trkpt>
      <trkpt lat="41.10915" lon="-0.32575">
        <time>2022-07-29T07:23:19Z</time>
      </trkpt>
      <trkpt lat="41.10934" lon="-0.32605">
        <time>2022-07-29T07:23:20Z</time>
      </trkpt>
      <trkpt lat="41.10953" lon="-0.32634">
        <time>2022-07-29T07:23:21Z</time>
      </trkpt>
      <trkpt lat="41.10971" lon="-0.32664">
        <time>2022-07-29T07:23:22Z</time>
      </trkpt>
      <trkpt lat="41.1099" lon="-0.32694">
        <time>2022-07-29T07:23:23Z</time>
      </trkpt>
      <trkpt lat="41.11009" lon="-0.32723">
        <time>2022-07-29T07:23:24Z</time>
      </trkpt>
      <trkpt lat="41.11028" lon="-0.32752">
        <time>2022-07-29T07:23:25Z</time>
      </trkpt>
      <trkpt lat="41.11047" lon="-0.32782">
        <time>2022-07-29T07:23:26Z</time>
      </trkpt>
      <trkpt lat="41.11066" lon="-0.32811">
        <time>2022-07-29T07:23:27Z</time>
      </trkpt>
      <trkpt lat="41.11085" lon="-0.32841">
        <time>2022-07-29T07:23:28Z</time>
      </trkpt>
      <trkpt lat="41.11104" lon="-0.3287">
        <time>2022-07-29T07:23:29Z</time>
      </trkpt>
      <trkpt lat="41.11123" lon="-0.329">
        <time>2022-07-29T07:23:30Z</time>
      </trkpt>
      <trkpt lat="41.11142" lon="-0.32929">
        <time>2022-07-29T07:23:31Z</time>
      </trkpt>
      <trkpt lat="41.11161" lon="-0.32959">
        <time>2022-07-29T07:23:32Z</time>
      </trkpt>
      <trkpt lat="41.11179" lon="-0.32988">
        <time>2022-07-29T07:23:33Z</time>
      </trkpt>
      <trkpt lat="41.11198" lon="-0.33017">
        <time>2022-07-29T07:23:34Z</time>
      </trkpt>
      <trkpt lat="41.11216" lon="-0.33047">
        <time>2022-07-29T07:23:35Z</time>
      </trkpt>
      <trkpt lat="41.11235" lon="-0.33076">
        <time>2022-07-29T07:23:36Z</time>
      </trkpt>
      <trkpt lat="41.11254" lon="-0.33104">
        <time>2022-07-29T07:23:37Z</time>
      </trkpt>
      <trkpt lat="41.11272" lon="-0.33133">
        <time>2022-07-29T07:23:38Z</time>
      </trkpt>
      <trkpt lat="41.1129" lon="-0.33162">
        <time>2022-07-29T07:23:39Z</time>
      </trkpt>
      <trkpt lat="41.11308" lon="-0.33191">
        <time>2022-07-29T07:23:40Z</time>
      </trkpt>
      <trkpt lat="41.11326" lon="-0.3322">
        <time>2022-07-29T07:23:41Z</time>
      </trkpt>
      <trkpt lat="41.11344" lon="-0.33249">
        <time>2022-07-29T07:23:42Z</time>
      </trkpt>
      <trkpt lat="41.11362" lon="-0.33278">
        <time>2022-07-29T07:23:43Z</time>
      </trkpt>
      <trkpt lat="41.11379" lon="-0.33308">
        <time>2022-07-29T07:23:44Z</time>
      </trkpt>
      <trkpt lat="41.11395" lon="-0.3334">
        <time>2022-07-29T07:23:45Z</time>
      </trkpt>
      <trkpt lat="41.11411" lon="-0.33372">
        <time>2022-07-29T07:23:46Z</time>
      </trkpt>
      <trkpt lat="41.11425" lon="-0.33404">
        <time>2022-07-29T07:23:47Z</time>
      </trkpt>
      <trkpt lat="41.1144" lon="-0.33437">
        <time>2022-07-29T07:23:48Z</time>
      </trkpt>
      <trkpt lat="41.11454" lon="-0.3347">
        <time>2022-07-29T07:23:49Z</time>
      </trkpt>
      <trkpt lat="41.11468" lon="-0.33503">
        <time>2022-07-29T07:23:50Z</time>
      </trkpt>
      <trkpt lat="41.11483" lon="-0.33536">
        <time>2022-07-29T07:23:51Z</time>
      </trkpt>
      <trkpt lat="41.11498" lon="-0.33569">
        <time>2022-07-29T07:23:52Z</time>
      </trkpt>
      <trkpt lat="41.11512" lon="-0.33601">
        <time>2022-07-29T07:23:53Z</time>
      </trkpt>
      <trkpt lat="41.11527" lon="-0.33633">
        <time>2022-07-29T07:23:54Z</time>
      </trkpt>
      <trkpt lat="41.11542" lon="-0.33665">
        <time>2022-07-29T07:23:55Z</time>
      </trkpt>
      <trkpt lat="41.11556" lon="-0.33697">
        <time>2022-07-29T07:23:56Z</time>
      </trkpt>
      <trkpt lat="41.11571" lon="-0.33728">
        <time>2022-07-29T07:23:57Z</time>
      </trkpt>
      <trkpt lat="41.11586" lon="-0.33759">
        <time>2022-07-29T07:23:58Z</time>
      </trkpt>
      <trkpt lat="41.11601" lon="-0.33789">
        <time>2022-07-29T07:23:59Z</time>
      </trkpt>
      <trkpt lat="41.11617" lon="-0.33818">
        <time>2022-07-29T07:24:00Z</time>
      </trkpt>
      <trkpt lat="41.11635" lon="-0.33845">
        <time>2022-07-29T07:24:01Z</time>
      </trkpt>
      <trkpt lat="41.11654" lon="-0.3387">
        <time>2022-07-29T07:24:02Z</time>
      </trkpt>
      <trkpt lat="41.11674" lon="-0.33894">
        <time>2022-07-29T07:24:03Z</time>
      </trkpt>
      <trkpt lat="41.11695" lon="-0.33916">
        <time>2022-07-29T07:24:04Z</time>
      </trkpt>
      <trkpt lat="41.11718" lon="-0.33938">
        <time>2022-07-29T07:24:05Z</time>
      </trkpt>
      <trkpt lat="41.1174" lon="-0.33959">
        <time>2022-07-29T07:24:06Z</time>
      </trkpt>
      <trkpt lat="41.11763" lon="-0.3398">
        <time>2022-07-29T07:24:07Z</time>
      </trkpt>
      <trkpt lat="41.11787" lon="-0.34001">
        <time>2022-07-29T07:24:08Z</time>
      </trkpt>
      <trkpt lat="41.1181" lon="-0.34023">
        <time>2022-07-29T07:24:09Z</time>
      </trkpt>
      <trkpt lat="41.11833" lon="-0.34044">
        <time>2022-07-29T07:24:10Z</time>
      </trkpt>
      <trkpt lat="41.11856" lon="-0.34065">
        <time>2022-07-29T07:24:11Z</time>
      </trkpt>
      <trkpt lat="41.11879" lon="-0.34087">
        <time>2022-07-29T07:24:12Z</time>
      </trkpt>
      <trkpt lat="41.11902" lon="-0.34108">
        <time>2022-07-29T07:24:13Z</time>
      </trkpt>
      <trkpt lat="41.11924" lon="-0.34129">
        <time>2022-07-29T07:24:14Z</time>
      </trkpt>
      <trkpt lat="41.11947" lon="-0.3415">
        <time>2022-07-29T07:24:15Z</time>
      </trkpt>
      <trkpt lat="41.1197" lon="-0.34171">
        <time>2022-07-29T07:24:16Z</time>
      </trkpt>
      <trkpt lat="41.11992" lon="-0.34192">
        <time>2022-07-29T07:24:17Z</time>
      </trkpt>
      <trkpt lat="41.12015" lon="-0.34213">
        <time>2022-07-29T07:24:18Z</time>
      </trkpt>
      <trkpt lat="41.12038" lon="-0.34234">
        <time>2022-07-29T07:24:19Z</time>
      </trkpt>
      <trkpt lat="41.1206" lon="-0.34254">
        <time>2022-07-29T07:24:20Z</time>
      </trkpt>
      <trkpt lat="41.12083" lon="-0.34275">
        <time>2022-07-29T07:24:21Z</time>
      </trkpt>
      <trkpt lat="41.12105" lon="-0.34296">
        <time>2022-07-29T07:24:22Z</time>
      </trkpt>
      <trkpt lat="41.12128" lon="-0.34316">
        <time>2022-07-29T07:24:23Z</time>
      </trkpt>
      <trkpt lat="41.12149" lon="-0.34337">
        <time>2022-07-29T07:24:24Z</time>
      </trkpt>
      <trkpt lat="41.12171" lon="-0.34357">
        <time>2022-07-29T07:24:25Z</time>
      </trkpt>
      <trkpt lat="41.12193" lon="-0.34377">
        <time>2022-07-29T07:24:26Z</time>
      </trkpt>
      <trkpt lat="41.12215" lon="-0.34397">
        <time>2022-07-29T07:24:27Z</time>
      </trkpt>
      <trkpt lat="41.12237" lon="-0.34417">
        <time>2022-07-29T07:24:28Z</time>
      </trkpt>
      <trkpt lat="41.12259" lon="-0.34438">
        <time>2022-07-29T07:24:29Z</time>
      </trkpt>
      <trkpt lat="41.1228" lon="-0.34459">
        <time>2022-07-29T07:24:30Z</time>
      </trkpt>
      <trkpt lat="41.12301" lon="-0.34481">
        <time>2022-07-29T07:24:31Z</time>
      </trkpt>
      <trkpt lat="41.12322" lon="-0.34504">
        <time>2022-07-29T07:24:32Z</time>
      </trkpt>
      <trkpt lat="41.12341" lon="-0.34528">
        <time>2022-07-29T07:24:33Z</time>
      </trkpt>
      <trkpt lat="41.12359" lon="-0.34554">
        <time>2022-07-29T07:24:34Z</time>
      </trkpt>
      <trkpt lat="41.12377" lon="-0.34581">
        <time>2022-07-29T07:24:35Z</time>
      </trkpt>
      <trkpt lat="41.12393" lon="-0.3461">
        <time>2022-07-29T07:24:36Z</time>
      </trkpt>
      <trkpt lat="41.12408" lon="-0.34639">
        <time>2022-07-29T07:24:37Z</time>
      </trkpt>
      <trkpt lat="41.12424" lon="-0.34669">
        <time>2022-07-29T07:24:38Z</time>
      </trkpt>
      <trkpt lat="41.1244" lon="-0.34699">
        <time>2022-07-29T07:24:39Z</time>
      </trkpt>
      <trkpt lat="41.12456" lon="-0.34728">
        <time>2022-07-29T07:24:40Z</time>
      </trkpt>
      <trkpt lat="41.12472" lon="-0.34758">
        <time>2022-07-29T07:24:41Z</time>
      </trkpt>
      <trkpt lat="41.12487" lon="-0.34788">
        <time>2022-07-29T07:24:42Z</time>
      </trkpt>
      <trkpt lat="41.12503" lon="-0.34818">
        <time>2022-07-29T07:24:43Z</time>
      </trkpt>
      <trkpt lat="41.12519" lon="-0.34847">
        <time>2022-07-29T07:24:44Z</time>
      </trkpt>
      <trkpt lat="41.12534" lon="-0.34877">
        <time>2022-07-29T07:24:45Z</time>
      </trkpt>
      <trkpt lat="41.1255" lon="-0.34906">
        <time>2022-07-29T07:24:46Z</time>
      </trkpt>
      <trkpt lat="41.12565" lon="-0.34935">
        <time>2022-07-29T07:24:47Z</time>
      </trkpt>
      <trkpt lat="41.1258" lon="-0.34964">
        <time>2022-07-29T07:24:48Z</time>
      </trkpt>
      <trkpt lat="41.12595" lon="-0.34993">
        <time>2022-07-29T07:24:49Z</time>
      </trkpt>
      <trkpt lat="41.12611" lon="-0.35021">
        <time>2022-07-29T07:24:50Z</time>
      </trkpt>
      <trkpt lat="41.12626" lon="-0.3505">
        <time>2022-07-29T07:24:51Z</time>
      </trkpt>
      <trkpt lat="41.12641" lon="-0.3508">
        <time>2022-07-29T07:24:52Z</time>
      </trkpt>
      <trkpt lat="41.12657" lon="-0.35109">
        <time>2022-07-29T07:24:53Z</time>
      </trkpt>
      <trkpt lat="41.12674" lon="-0.3514">
        <time>2022-07-29T07:24:54Z</time>
      </trkpt>
      <trkpt lat="41.1269" lon="-0.3517">
        <time>2022-07-29T07:24:55Z</time>
      </trkpt>
      <trkpt lat="41.12706" lon="-0.35201">
        <time>2022-07-29T07:24:56Z</time>
      </trkpt>
      <trkpt lat="41.12722" lon="-0.35232">
        <time>2022-07-29T07:24:57Z</time>
      </trkpt>
      <trkpt lat="41.12738" lon="-0.35262">
        <time>2022-07-29T07:24:58Z</time>
      </trkpt>
      <trkpt lat="41.12754" lon="-0.35293">
        <time>2022-07-29T07:24:59Z</time>
      </trkpt>
      <trkpt lat="41.1277" lon="-0.35323">
        <time>2022-07-29T07:25:00Z</time>
      </trkpt>
      <trkpt lat="41.12786" lon="-0.35354">
        <time>2022-07-29T07:25:01Z</time>
      </trkpt>
      <trkpt lat="41.12802" lon="-0.35384">
        <time>2022-07-29T07:25:02Z</time>
      </trkpt>
      <trkpt lat="41.12818" lon="-0.35414">
        <time>2022-07-29T07:25:03Z</time>
      </trkpt>
      <trkpt lat="41.12834" lon="-0.35444">
        <time>2022-07-29T07:25:04Z</time>
      </trkpt>
      <trkpt lat="41.1285" lon="-0.35474">
        <time>2022-07-29T07:25:05Z</time>
      </trkpt>
      <trkpt lat="41.12866" lon="-0.35504">
        <time>2022-07-29T07:25:06Z</time>
      </trkpt>
      <trkpt lat="41.12882" lon="-0.35534">
        <time>2022-07-29T07:25:07Z</time>
      </trkpt>
      <trkpt lat="41.12898" lon="-0.35564">
        <time>2022-07-29T07:25:08Z</time>
      </trkpt>
      <trkpt lat="41.12914" lon="-0.35594">
        <time>2022-07-29T07:25:09Z</time>
      </trkpt>
      <trkpt lat="41.1293" lon="-0.35624">
        <time>2022-07-29T07:25:10Z</time>
      </trkpt>
      <trkpt lat="41.12946" lon="-0.35654">
        <time>2022-07-29T07:25:11Z</time>
      </trkpt>
      <trkpt lat="41.12961" lon="-0.35684">
        <time>2022-07-29T07:25:12Z</time>
      </trkpt>
      <trkpt lat="41.12977" lon="-0.35714">
        <time>2022-07-29T07:25:13Z</time>
      </trkpt>
      <trkpt lat="41.12993" lon="-0.35744">
        <time>2022-07-29T07:25:14Z</time>
      </trkpt>
      <trkpt lat="41.13009" lon="-0.35774">
        <time>2022-07-29T07:25:15Z</time>
      </trkpt>
      <trkpt lat="41.13025" lon="-0.35805">
        <time>2022-07-29T07:25:16Z</time>
      </trkpt>
      <trkpt lat="41.13042" lon="-0.35835">
        <time>2022-07-29T07:25:17Z</time>
      </trkpt>
      <trkpt lat="41.13058" lon="-0.35865">
        <time>2022-07-29T07:25:18Z</time>
      </trkpt>
      <trkpt lat="41.13074" lon="-0.35896">
        <time>2022-07-29T07:25:19Z</time>
      </trkpt>
      <trkpt lat="41.1309" lon="-0.35926">
        <time>2022-07-29T07:25:20Z</time>
      </trkpt>
      <trkpt lat="41.13106" lon="-0.35956">
        <time>2022-07-29T07:25:21Z</time>
      </trkpt>
      <trkpt lat="41.13122" lon="-0.35986">
        <time>2022-07-29T07:25:22Z</time>
      </trkpt>
      <trkpt lat="41.13138" lon="-0.36016">
        <time>2022-07-29T07:25:23Z</time>
      </trkpt>
      <trkpt lat="41.13153" lon="-0.36046">
        <time>2022-07-29T07:25:24Z</time>
      </trkpt>
      <trkpt lat="41.13169" lon="-0.36076">
        <time>2022-07-29T07:25:25Z</time>
      </trkpt>
      <trkpt lat="41.13184" lon="-0.36106">
        <time>2022-07-29T07:25:26Z</time>
      </trkpt>
      <trkpt lat="41.13199" lon="-0.36135">
        <time>2022-07-29T07:25:27Z</time>
      </trkpt>
      <trkpt lat="41.13215" lon="-0.36164">
        <time>2022-07-29T07:25:28Z</time>
      </trkpt>
      <trkpt lat="41.1323" lon="-0.36194">
        <time>2022-07-29T07:25:29Z</time>
      </trkpt>
      <trkpt lat="41.13246" lon="-0.36225">
        <time>2022-07-29T07:25:30Z</time>
      </trkpt>
      <trkpt lat="41.13261" lon="-0.36255">
        <time>2022-07-29T07:25:31Z</time>
      </trkpt>
      <trkpt lat="41.13276" lon="-0.36286">
        <time>2022-07-29T07:25:32Z</time>
      </trkpt>
      <trkpt lat="41.13291" lon="-0.36317">
        <time>2022-07-29T07:25:33Z</time>
      </trkpt>
      <trkpt lat="41.13307" lon="-0.36347">
        <time>2022-07-29T07:25:34Z</time>
      </trkpt>
      <trkpt lat="41.13324" lon="-0.36376">
        <time>2022-07-29T07:25:35Z</time>
      </trkpt>
      <trkpt lat="41.13342" lon="-0.36405">
        <time>2022-07-29T07:25:36Z</time>
      </trkpt>
      <trkpt lat="41.13361" lon="-0.36432">
        <time>2022-07-29T07:25:37Z</time>
      </trkpt>
      <trkpt lat="41.13382" lon="-0.36456">
        <time>2022-07-29T07:25:38Z</time>
      </trkpt>
      <trkpt lat="41.13403" lon="-0.3648">
        <time>2022-07-29T07:25:39Z</time>
      </trkpt>
      <trkpt lat="41.13424" lon="-0.36504">
        <time>2022-07-29T07:25:40Z</time>
      </trkpt>
      <trkpt lat="41.13446" lon="-0.36527">
        <time>2022-07-29T07:25:41Z</time>
      </trkpt>
      <trkpt lat="41.13467" lon="-0.36549">
        <time>2022-07-29T07:25:42Z</time>
      </trkpt>
      <trkpt lat="41.13488" lon="-0.36572">
        <time>2022-07-29T07:25:43Z</time>
      </trkpt>
      <trkpt lat="41.13509" lon="-0.36595">
        <time>2022-07-29T07:25:44Z</time>
      </trkpt>
      <trkpt lat="41.1353" lon="-0.36618">
        <time>2022-07-29T07:25:45Z</time>
      </trkpt>
      <trkpt lat="41.1355" lon="-0.36643">
        <time>2022-07-29T07:25:46Z</time>
      </trkpt>
      <trkpt lat="41.13568" lon="-0.36669">
        <time>2022-07-29T07:25:47Z</time>
      </trkpt>
      <trkpt lat="41.13586" lon="-0.36696">
        <time>2022-07-29T07:25:48Z</time>
      </trkpt>
      <trkpt lat="41.13602" lon="-0.36725">
        <time>2022-07-29T07:25:49Z</time>
      </trkpt>
      <trkpt lat="41.13617" lon="-0.36756">
        <time>2022-07-29T07:25:50Z</time>
      </trkpt>
      <trkpt lat="41.1363" lon="-0.36788">
        <time>2022-07-29T07:25:51Z</time>
      </trkpt>
      <trkpt lat="41.13643" lon="-0.36819">
        <time>2022-07-29T07:25:52Z</time>
      </trkpt>
      <trkpt lat="41.13655" lon="-0.36852">
        <time>2022-07-29T07:25:53Z</time>
      </trkpt>
      <trkpt lat="41.13667" lon="-0.36884">
        <time>2022-07-29T07:25:54Z</time>
      </trkpt>
      <trkpt lat="41.13679" lon="-0.36918">
        <time>2022-07-29T07:25:55Z</time>
      </trkpt>
      <trkpt lat="41.1369" lon="-0.36951">
        <time>2022-07-29T07:25:56Z</time>
      </trkpt>
      <trkpt lat="41.13702" lon="-0.36984">
        <time>2022-07-29T07:25:57Z</time>
      </trkpt>
      <trkpt lat="41.13714" lon="-0.37017">
        <time>2022-07-29T07:25:58Z</time>
      </trkpt>
      <trkpt lat="41.13725" lon="-0.37049">
        <time>2022-07-29T07:25:59Z</time>
      </trkpt>
      <trkpt lat="41.13737" lon="-0.37082">
        <time>2022-07-29T07:26:00Z</time>
      </trkpt>
      <trkpt lat="41.13748" lon="-0.37115">
        <time>2022-07-29T07:26:01Z</time>
      </trkpt>
      <trkpt lat="41.1376" lon="-0.37146">
        <time>2022-07-29T07:26:02Z</time>
      </trkpt>
      <trkpt lat="41.13772" lon="-0.37178">
        <time>2022-07-29T07:26:03Z</time>
      </trkpt>
      <trkpt lat="41.13783" lon="-0.37211">
        <time>2022-07-29T07:26:04Z</time>
      </trkpt>
      <trkpt lat="41.13795" lon="-0.37243">
        <time>2022-07-29T07:26:05Z</time>
      </trkpt>
      <trkpt lat="41.13807" lon="-0.37274">
        <time>2022-07-29T07:26:06Z</time>
      </trkpt>
      <trkpt lat="41.13819" lon="-0.37305">
        <time>2022-07-29T07:26:07Z</time>
      </trkpt>
      <trkpt lat="41.13833" lon="-0.37335">
        <time>2022-07-29T07:26:08Z</time>
      </trkpt>
      <trkpt lat="41.13847" lon="-0.37366">
        <time>2022-07-29T07:26:09Z</time>
      </trkpt>
      <trkpt lat="41.13862" lon="-0.37395">
        <time>2022-07-29T07:26:10Z</time>
      </trkpt>
      <trkpt lat="41.13879" lon="-0.37425">
        <time>2022-07-29T07:26:11Z</time>
      </trkpt>
      <trkpt lat="41.13896" lon="-0.37453">
        <time>2022-07-29T07:26:12Z</time>
      </trkpt>
      <trkpt lat="41.13915" lon="-0.37481">
        <time>2022-07-29T07:26:13Z</time>
      </trkpt>
      <trkpt lat="41.13935" lon="-0.37508">
        <time>2022-07-29T07:26:14Z</time>
      </trkpt>
      <trkpt lat="41.13955" lon="-0.37535">
        <time>2022-07-29T07:26:15Z</time>
      </trkpt>
      <trkpt lat="41.13976" lon="-0.3756">
        <time>2022-07-29T07:26:16Z</time>
      </trkpt>
      <trkpt lat="41.13998" lon="-0.37584">
        <time>2022-07-29T07:26:17Z</time>
      </trkpt>
      <trkpt lat="41.14019" lon="-0.37608">
        <time>2022-07-29T07:26:18Z</time>
      </trkpt>
      <trkpt lat="41.14042" lon="-0.3763">
        <time>2022-07-29T07:26:19Z</time>
      </trkpt>
      <trkpt lat="41.14064" lon="-0.37653">
        <time>2022-07-29T07:26:20Z</time>
      </trkpt>
      <trkpt lat="41.14085" lon="-0.37675">
        <time>2022-07-29T07:26:21Z</time>
      </trkpt>
      <trkpt lat="41.14107" lon="-0.37698">
        <time>2022-07-29T07:26:22Z</time>
      </trkpt>
      <trkpt lat="41.14129" lon="-0.3772">
        <time>2022-07-29T07:26:23Z</time>
      </trkpt>
      <trkpt lat="41.1415" lon="-0.37743">
        <time>2022-07-29T07:26:24Z</time>
      </trkpt>
      <trkpt lat="41.14172" lon="-0.37766">
        <time>2022-07-29T07:26:25Z</time>
      </trkpt>
      <trkpt lat="41.14193" lon="-0.37789">
        <time>2022-07-29T07:26:26Z</time>
      </trkpt>
      <trkpt lat="41.14214" lon="-0.37812">
        <time>2022-07-29T07:26:27Z</time>
      </trkpt>
      <trkpt lat="41.14234" lon="-0.37836">
        <time>2022-07-29T07:26:28Z</time>
      </trkpt>
      <trkpt lat="41.14252" lon="-0.37862">
        <time>2022-07-29T07:26:29Z</time>
      </trkpt>
      <trkpt lat="41.1427" lon="-0.3789">
        <time>2022-07-29T07:26:30Z</time>
      </trkpt>
      <trkpt lat="41.14286" lon="-0.37919">
        <time>2022-07-29T07:26:31Z</time>
      </trkpt>
      <trkpt lat="41.14301" lon="-0.37949">
        <time>2022-07-29T07:26:32Z</time>
      </trkpt>
      <trkpt lat="41.14314" lon="-0.3798">
        <time>2022-07-29T07:26:33Z</time>
      </trkpt>
      <trkpt lat="41.14327" lon="-0.38013">
        <time>2022-07-29T07:26:34Z</time>
      </trkpt>
      <trkpt lat="41.14338" lon="-0.38046">
        <time>2022-07-29T07:26:35Z</time>
      </trkpt>
      <trkpt lat="41.14348" lon="-0.3808">
        <time>2022-07-29T07:26:36Z</time>
      </trkpt>
      <trkpt lat="41.14358" lon="-0.38114">
        <time>2022-07-29T07:26:37Z</time>
      </trkpt>
      <trkpt lat="41.14369" lon="-0.38148">
        <time>2022-07-29T07:26:38Z</time>
      </trkpt>
      <trkpt lat="41.14379" lon="-0.38182">
        <time>2022-07-29T07:26:39Z</time>
      </trkpt>
      <trkpt lat="41.1439" lon="-0.38217">
        <time>2022-07-29T07:26:40Z</time>
      </trkpt>
      <trkpt lat="41.14401" lon="-0.38251">
        <time>2022-07-29T07:26:41Z</time>
      </trkpt>
      <trkpt lat="41.14411" lon="-0.38287">
        <time>2022-07-29T07:26:42Z</time>
      </trkpt>
      <trkpt lat="41.14421" lon="-0.38321">
        <time>2022-07-29T07:26:43Z</time>
      </trkpt>
      <trkpt lat="41.14432" lon="-0.38356">
        <time>2022-07-29T07:26:44Z</time>
      </trkpt>
      <trkpt lat="41.14442" lon="-0.38391">
        <time>2022-07-29T07:26:45Z</time>
      </trkpt>
      <trkpt lat="41.14452" lon="-0.38426">
        <time>2022-07-29T07:26:46Z</time>
      </trkpt>
      <trkpt lat="41.14463" lon="-0.3846">
        <time>2022-07-29T07:26:47Z</time>
      </trkpt>
      <trkpt lat="41.14473" lon="-0.38495">
        <time>2022-07-29T07:26:48Z</time>
      </trkpt>
      <trkpt lat="41.14483" lon="-0.3853">
        <time>2022-07-29T07:26:49Z</time>
      </trkpt>
      <trkpt lat="41.14492" lon="-0.38565">
        <time>2022-07-29T07:26:50Z</time>
      </trkpt>
      <trkpt lat="41.14502" lon="-0.38599">
        <time>2022-07-29T07:26:51Z</time>
      </trkpt>
      <trkpt lat="41.14512" lon="-0.38634">
        <time>2022-07-29T07:26:52Z</time>
      </trkpt>
      <trkpt lat="41.14522" lon="-0.38668">
        <time>2022-07-29T07:26:53Z</time>
      </trkpt>
      <trkpt lat="41.14532" lon="-0.38702">
        <time>2022-07-29T07:26:54Z</time>
      </trkpt>
      <trkpt lat="41.14542" lon="-0.38737">
        <time>2022-07-29T07:26:55Z</time>
      </trkpt>
      <trkpt lat="41.14552" lon="-0.38771">
        <time>2022-07-29T07:26:56Z</time>
      </trkpt>
      <trkpt lat="41.14563" lon="-0.38805">
        <time>2022-07-29T07:26:57Z</time>
      </trkpt>
      <trkpt lat="41.14573" lon="-0.38839">
        <time>2022-07-29T07:26:58Z</time>
      </trkpt>
      <trkpt lat="41.14583" lon="-0.38872">
        <time>2022-07-29T07:26:59Z</time>
      </trkpt>
      <trkpt lat="41.14593" lon="-0.38907">
        <time>2022-07-29T07:27:00Z</time>
      </trkpt>
      <trkpt lat="41.14603" lon="-0.3894">
        <time>2022-07-29T07:27:01Z</time>
      </trkpt>
      <trkpt lat="41.14614" lon="-0.38974">
        <time>2022-07-29T07:27:02Z</time>
      </trkpt>
      <trkpt lat="41.14624" lon="-0.39008">
        <time>2022-07-29T07:27:03Z</time>
      </trkpt>
      <trkpt lat="41.14634" lon="-0.39041">
        <time>2022-07-29T07:27:04Z</time>
      </trkpt>
      <trkpt lat="41.14646" lon="-0.39074">
        <time>2022-07-29T07:27:05Z</time>
      </trkpt>
      <trkpt lat="41.14659" lon="-0.39107">
        <time>2022-07-29T07:27:06Z</time>
      </trkpt>
      <trkpt lat="41.14673" lon="-0.39137">
        <time>2022-07-29T07:27:07Z</time>
      </trkpt>
      <trkpt lat="41.14689" lon="-0.39167">
        <time>2022-07-29T07:27:08Z</time>
      </trkpt>
      <trkpt lat="41.14705" lon="-0.39195">
        <time>2022-07-29T07:27:09Z</time>
      </trkpt>
      <trkpt lat="41.14723" lon="-0.39222">
        <time>2022-07-29T07:27:10Z</time>
      </trkpt>
      <trkpt lat="41.1474" lon="-0.39249">
        <time>2022-07-29T07:27:11Z</time>
      </trkpt>
      <trkpt lat="41.14757" lon="-0.39277">
        <time>2022-07-29T07:27:12Z</time>
      </trkpt>
      <trkpt lat="41.14774" lon="-0.39305">
        <time>2022-07-29T07:27:13Z</time>
      </trkpt>
      <trkpt lat="41.14789" lon="-0.39334">
        <time>2022-07-29T07:27:14Z</time>
      </trkpt>
      <trkpt lat="41.14802" lon="-0.39365">
        <time>2022-07-29T07:27:15Z</time>
      </trkpt>
      <trkpt lat="41.14813" lon="-0.39397">
        <time>2022-07-29T07:27:16Z</time>
      </trkpt>
      <trkpt lat="41.14823" lon="-0.3943">
        <time>2022-07-29T07:27:17Z</time>
      </trkpt>
      <trkpt lat="41.14833" lon="-0.39463">
        <time>2022-07-29T07:27:18Z</time>
      </trkpt>
      <trkpt lat="41.14842" lon="-0.39497">
        <time>2022-07-29T07:27:19Z</time>
      </trkpt>
      <trkpt lat="41.14852" lon="-0.3953">
        <time>2022-07-29T07:27:20Z</time>
      </trkpt>
      <trkpt lat="41.14861" lon="-0.39564">
        <time>2022-07-29T07:27:21Z</time>
      </trkpt>
      <trkpt lat="41.1487" lon="-0.39597">
        <time>2022-07-29T07:27:22Z</time>
      </trkpt>
      <trkpt lat="41.1488" lon="-0.39631">
        <time>2022-07-29T07:27:23Z</time>
      </trkpt>
      <trkpt lat="41.1489" lon="-0.39664">
        <time>2022-07-29T07:27:24Z</time>
      </trkpt>
      <trkpt lat="41.14899" lon="-0.39697">
        <time>2022-07-29T07:27:25Z</time>
      </trkpt>
      <trkpt lat="41.14908" lon="-0.3973">
        <time>2022-07-29T07:27:26Z</time>
      </trkpt>
      <trkpt lat="41.14917" lon="-0.39762">
        <time>2022-07-29T07:27:27Z</time>
      </trkpt>
      <trkpt lat="41.14926" lon="-0.39795">
        <time>2022-07-29T07:27:28Z</time>
      </trkpt>
      <trkpt lat="41.14934" lon="-0.39826">
        <time>2022-07-29T07:27:29Z</time>
      </trkpt>
      <trkpt lat="41.14942" lon="-0.39857">
        <time>2022-07-29T07:27:30Z</time>
      </trkpt>
      <trkpt lat="41.1495" lon="-0.39888">
        <time>2022-07-29T07:27:31Z</time>
      </trkpt>
      <trkpt lat="41.14956" lon="-0.3992">
        <time>2022-07-29T07:27:32Z</time>
      </trkpt>
      <trkpt lat="41.14961" lon="-0.39952">
        <time>2022-07-29T07:27:33Z</time>
      </trkpt>
      <trkpt lat="41.14966" lon="-0.39984">
        <time>2022-07-29T07:27:34Z</time>
      </trkpt>
      <trkpt lat="41.14971" lon="-0.40017">
        <time>2022-07-29T07:27:35Z</time>
      </trkpt>
      <trkpt lat="41.14976" lon="-0.40049">
        <time>2022-07-29T07:27:36Z</time>
      </trkpt>
      <trkpt lat="41.14982" lon="-0.40082">
        <time>2022-07-29T07:27:37Z</time>
      </trkpt>
      <trkpt lat="41.14988" lon="-0.40114">
        <time>2022-07-29T07:27:38Z</time>
      </trkpt>
      <trkpt lat="41.14995" lon="-0.40146">
        <time>2022-07-29T07:27:39Z</time>
      </trkpt>
      <trkpt lat="41.15004" lon="-0.40178">
        <time>2022-07-29T07:27:40Z</time>
      </trkpt>
      <trkpt lat="41.15013" lon="-0.4021">
        <time>2022-07-29T07:27:41Z</time>
      </trkpt>
      <trkpt lat="41.15022" lon="-0.40241">
        <time>2022-07-29T07:27:42Z</time>
      </trkpt>
      <trkpt lat="41.15032" lon="-0.40272">
        <time>2022-07-29T07:27:43Z</time>
      </trkpt>
      <trkpt lat="41.15042" lon="-0.40303">
        <time>2022-07-29T07:27:44Z</time>
      </trkpt>
      <trkpt lat="41.15052" lon="-0.40334">
        <time>2022-07-29T07:27:45Z</time>
      </trkpt>
      <trkpt lat="41.15062" lon="-0.40365">
        <time>2022-07-29T07:27:46Z</time>
      </trkpt>
      <trkpt lat="41.15072" lon="-0.40396">
        <time>2022-07-29T07:27:47Z</time>
      </trkpt>
      <trkpt lat="41.15083" lon="-0.40427">
        <time>2022-07-29T07:27:48Z</time>
      </trkpt>
      <trkpt lat="41.15093" lon="-0.40459">
        <time>2022-07-29T07:27:49Z</time>
      </trkpt>
      <trkpt lat="41.15105" lon="-0.40491">
        <time>2022-07-29T07:27:50Z</time>
      </trkpt>
      <trkpt lat="41.15116" lon="-0.40523">
        <time>2022-07-29T07:27:51Z</time>
      </trkpt>
      <trkpt lat="41.15129" lon="-0.40555">
        <time>2022-07-29T07:27:52Z</time>
      </trkpt>
      <trkpt lat="41.15142" lon="-0.40586">
        <time>2022-07-29T07:27:53Z</time>
      </trkpt>
      <trkpt lat="41.15156" lon="-0.40617">
        <time>2022-07-29T07:27:54Z</time>
      </trkpt>
      <trkpt lat="41.1517" lon="-0.40647">
        <time>2022-07-29T07:27:55Z</time>
      </trkpt>
      <trkpt lat="41.15186" lon="-0.40677">
        <time>2022-07-29T07:27:56Z</time>
      </trkpt>
      <trkpt lat="41.15202" lon="-0.40706">
        <time>2022-07-29T07:27:57Z</time>
      </trkpt>
      <trkpt lat="41.15218" lon="-0.40734">
        <time>2022-07-29T07:27:58Z</time>
      </trkpt>
      <trkpt lat="41.15235" lon="-0.40762">
        <time>2022-07-29T07:27:59Z</time>
      </trkpt>
      <trkpt lat="41.15252" lon="-0.4079">
        <time>2022-07-29T07:28:00Z</time>
      </trkpt>
      <trkpt lat="41.15269" lon="-0.40817">
        <time>2022-07-29T07:28:01Z</time>
      </trkpt>
      <trkpt lat="41.15286" lon="-0.40844">
        <time>2022-07-29T07:28:02Z</time>
      </trkpt>
      <trkpt lat="41.15303" lon="-0.40871">
        <time>2022-07-29T07:28:03Z</time>
      </trkpt>
      <trkpt lat="41.1532" lon="-0.40898">
        <time>2022-07-29T07:28:04Z</time>
      </trkpt>
      <trkpt lat="41.15337" lon="-0.40925">
        <time>2022-07-29T07:28:05Z</time>
      </trkpt>
      <trkpt lat="41.15353" lon="-0.40951">
        <time>2022-07-29T07:28:06Z</time>
      </trkpt>
      <trkpt lat="41.1537" lon="-0.40976">
        <time>2022-07-29T07:28:07Z</time>
      </trkpt>
      <trkpt lat="41.15386" lon="-0.41001">
        <time>2022-07-29T07:28:08Z</time>
      </trkpt>
      <trkpt lat="41.15401" lon="-0.41027">
        <time>2022-07-29T07:28:09Z</time>
      </trkpt>
      <trkpt lat="41.15417" lon="-0.41053">
        <time>2022-07-29T07:28:10Z</time>
      </trkpt>
      <trkpt lat="41.15431" lon="-0.41079">
        <time>2022-07-29T07:28:11Z</time>
      </trkpt>
      <trkpt lat="41.15446" lon="-0.41106">
        <time>2022-07-29T07:28:12Z</time>
      </trkpt>
      <trkpt lat="41.15458" lon="-0.41135">
        <time>2022-07-29T07:28:13Z</time>
      </trkpt>
      <trkpt lat="41.15471" lon="-0.41165">
        <time>2022-07-29T07:28:14Z</time>
      </trkpt>
      <trkpt lat="41.15482" lon="-0.41195">
        <time>2022-07-29T07:28:15Z</time>
      </trkpt>
      <trkpt lat="41.15492" lon="-0.41227">
        <time>2022-07-29T07:28:16Z</time>
      </trkpt>
      <trkpt lat="41.155" lon="-0.4126">
        <time>2022-07-29T07:28:17Z</time>
      </trkpt>
      <trkpt lat="41.15507" lon="-0.41295">
        <time>2022-07-29T07:28:18Z</time>
      </trkpt>
      <trkpt lat="41.15513" lon="-0.41329">
        <time>2022-07-29T07:28:19Z</time>
      </trkpt>
      <trkpt lat="41.15519" lon="-0.41364">
        <time>2022-07-29T07:28:20Z</time>
      </trkpt>
      <trkpt lat="41.15525" lon="-0.414">
        <time>2022-07-29T07:28:21Z</time>
      </trkpt>
      <trkpt lat="41.1553" lon="-0.41436">
        <time>2022-07-29T07:28:22Z</time>
      </trkpt>
      <trkpt lat="41.15536" lon="-0.41471">
        <time>2022-07-29T07:28:23Z</time>
      </trkpt>
      <trkpt lat="41.15541" lon="-0.41508">
        <time>2022-07-29T07:28:24Z</time>
      </trkpt>
      <trkpt lat="41.15547" lon="-0.41544">
        <time>2022-07-29T07:28:25Z</time>
      </trkpt>
      <trkpt lat="41.15553" lon="-0.41581">
        <time>2022-07-29T07:28:26Z</time>
      </trkpt>
      <trkpt lat="41.1556" lon="-0.41616">
        <time>2022-07-29T07:28:27Z</time>
      </trkpt>
      <trkpt lat="41.15569" lon="-0.41651">
        <time>2022-07-29T07:28:28Z</time>
      </trkpt>
      <trkpt lat="41.15579" lon="-0.41686">
        <time>2022-07-29T07:28:29Z</time>
      </trkpt>
      <trkpt lat="41.1559" lon="-0.41718">
        <time>2022-07-29T07:28:30Z</time>
      </trkpt>
      <trkpt lat="41.15603" lon="-0.4175">
        <time>2022-07-29T07:28:31Z</time>
      </trkpt>
      <trkpt lat="41.15618" lon="-0.41781">
        <time>2022-07-29T07:28:32Z</time>
      </trkpt>
      <trkpt lat="41.15634" lon="-0.41809">
        <time>2022-07-29T07:28:33Z</time>
      </trkpt>
      <trkpt lat="41.15651" lon="-0.41837">
        <time>2022-07-29T07:28:34Z</time>
      </trkpt>
      <trkpt lat="41.1567" lon="-0.41862">
        <time>2022-07-29T07:28:35Z</time>
      </trkpt>
      <trkpt lat="41.15691" lon="-0.41886">
        <time>2022-07-29T07:28:36Z</time>
      </trkpt>
      <trkpt lat="41.15711" lon="-0.41909">
        <time>2022-07-29T07:28:37Z</time>
      </trkpt>
      <trkpt lat="41.15732" lon="-0.41932">
        <time>2022-07-29T07:28:38Z</time>
      </trkpt>
      <trkpt lat="41.15754" lon="-0.41954">
        <time>2022-07-29T07:28:39Z</time>
      </trkpt>
      <trkpt lat="41.15776" lon="-0.41977">
        <time>2022-07-29T07:28:40Z</time>
      </trkpt>
      <trkpt lat="41.15797" lon="-0.42">
        <time>2022-07-29T07:28:41Z</time>
      </trkpt>
      <trkpt lat="41.15819" lon="-0.42023">
        <time>2022-07-29T07:28:42Z</time>
      </trkpt>
      <trkpt lat="41.15841" lon="-0.42047">
        <time>2022-07-29T07:28:43Z</time>
      </trkpt>
      <trkpt lat="41.15863" lon="-0.4207">
        <time>2022-07-29T07:28:44Z</time>
      </trkpt>
      <trkpt lat="41.15885" lon="-0.42094">
        <time>2022-07-29T07:28:45Z</time>
      </trkpt>
      <trkpt lat="41.15907" lon="-0.42117">
        <time>2022-07-29T07:28:46Z</time>
      </trkpt>
      <trkpt lat="41.15929" lon="-0.42141">
        <time>2022-07-29T07:28:47Z</time>
      </trkpt>
      <trkpt lat="41.15951" lon="-0.42165">
        <time>2022-07-29T07:28:48Z</time>
      </trkpt>
      <trkpt lat="41.15973" lon="-0.42189">
        <time>2022-07-29T07:28:49Z</time>
      </trkpt>
      <trkpt lat="41.15996" lon="-0.42212">
        <time>2022-07-29T07:28:50Z</time>
      </trkpt>
      <trkpt lat="41.16018" lon="-0.42236">
        <time>2022-07-29T07:28:51Z</time>
      </trkpt>
      <trkpt lat="41.16041" lon="-0.4226">
        <time>2022-07-29T07:28:52Z</time>
      </trkpt>
      <trkpt lat="41.16063" lon="-0.42283">
        <time>2022-07-29T07:28:53Z</time>
      </trkpt>
      <trkpt lat="41.16085" lon="-0.42307">
        <time>2022-07-29T07:28:54Z</time>
      </trkpt>
      <trkpt lat="41.16107" lon="-0.4233">
        <time>2022-07-29T07:28:55Z</time>
      </trkpt>
      <trkpt lat="41.16129" lon="-0.42354">
        <time>2022-07-29T07:28:56Z</time>
      </trkpt>
      <trkpt lat="41.16151" lon="-0.42378">
        <time>2022-07-29T07:28:57Z</time>
      </trkpt>
      <trkpt lat="41.16173" lon="-0.42401">
        <time>2022-07-29T07:28:58Z</time>
      </trkpt>
      <trkpt lat="41.16195" lon="-0.42424">
        <time>2022-07-29T07:28:59Z</time>
      </trkpt>
      <trkpt lat="41.16217" lon="-0.42448">
        <time>2022-07-29T07:29:00Z</time>
      </trkpt>
      <trkpt lat="41.16239" lon="-0.42471">
        <time>2022-07-29T07:29:01Z</time>
      </trkpt>
      <trkpt lat="41.16261" lon="-0.42494">
        <time>2022-07-29T07:29:02Z</time>
      </trkpt>
      <trkpt lat="41.16282" lon="-0.42517">
        <time>2022-07-29T07:29:03Z</time>
      </trkpt>
      <trkpt lat="41.16303" lon="-0.4254">
        <time>2022-07-29T07:29:04Z</time>
      </trkpt>
      <trkpt lat="41.16325" lon="-0.42563">
        <time>2022-07-29T07:29:05Z</time>
      </trkpt>
      <trkpt lat="41.16347" lon="-0.42585">
        <time>2022-07-29T07:29:06Z</time>
      </trkpt>
      <trkpt lat="41.16368" lon="-0.42608">
        <time>2022-07-29T07:29:07Z</time>
      </trkpt>
      <trkpt lat="41.16389" lon="-0.4263">
        <time>2022-07-29T07:29:08Z</time>
      </trkpt>
      <trkpt lat="41.16411" lon="-0.42653">
        <time>2022-07-29T07:29:09Z</time>
      </trkpt>
      <trkpt lat="41.16432" lon="-0.42676">
        <time>2022-07-29T07:29:10Z</time>
      </trkpt>
      <trkpt lat="41.16452" lon="-0.42699">
        <time>2022-07-29T07:29:11Z</time>
      </trkpt>
      <trkpt lat="41.16472" lon="-0.42724">
        <time>2022-07-29T07:29:12Z</time>
      </trkpt>
      <trkpt lat="41.1649" lon="-0.42749">
        <time>2022-07-29T07:29:13Z</time>
      </trkpt>
      <trkpt lat="41.16508" lon="-0.42777">
        <time>2022-07-29T07:29:14Z</time>
      </trkpt>
      <trkpt lat="41.16524" lon="-0.42805">
        <time>2022-07-29T07:29:15Z</time>
      </trkpt>
      <trkpt lat="41.1654" lon="-0.42834">
        <time>2022-07-29T07:29:16Z</time>
      </trkpt>
      <trkpt lat="41.16555" lon="-0.42864">
        <time>2022-07-29T07:29:17Z</time>
      </trkpt>
      <trkpt lat="41.1657" lon="-0.42894">
        <time>2022-07-29T07:29:18Z</time>
      </trkpt>
      <trkpt lat="41.16586" lon="-0.42924">
        <time>2022-07-29T07:29:19Z</time>
      </trkpt>
      <trkpt lat="41.166" lon="-0.42955">
        <time>2022-07-29T07:29:20Z</time>
      </trkpt>
      <trkpt lat="41.16615" lon="-0.42985">
        <time>2022-07-29T07:29:21Z</time>
      </trkpt>
      <trkpt lat="41.1663" lon="-0.43016">
        <time>2022-07-29T07:29:22Z</time>
      </trkpt>
      <trkpt lat="41.16645" lon="-0.43046">
        <time>2022-07-29T07:29:23Z</time>
      </trkpt>
      <trkpt lat="41.1666" lon="-0.43076">
        <time>2022-07-29T07:29:24Z</time>
      </trkpt>
      <trkpt lat="41.16675" lon="-0.43106">
        <time>2022-07-29T07:29:25Z</time>
      </trkpt>
      <trkpt lat="41.1669" lon="-0.43136">
        <time>2022-07-29T07:29:26Z</time>
      </trkpt>
      <trkpt lat="41.16705" lon="-0.43165">
        <time>2022-07-29T07:29:27Z</time>
      </trkpt>
      <trkpt lat="41.16719" lon="-0.43193">
        <time>2022-07-29T07:29:28Z</time>
      </trkpt>
      <trkpt lat="41.16733" lon="-0.43221">
        <time>2022-07-29T07:29:29Z</time>
      </trkpt>
      <trkpt lat="41.16746" lon="-0.4325">
        <time>2022-07-29T07:29:30Z</time>
      </trkpt>
      <trkpt lat="41.16759" lon="-0.43279">
        <time>2022-07-29T07:29:31Z</time>
      </trkpt>
      <trkpt lat="41.1677" lon="-0.4331">
        <time>2022-07-29T07:29:32Z</time>
      </trkpt>
      <trkpt lat="41.1678" lon="-0.43341">
        <time>2022-07-29T07:29:33Z</time>
      </trkpt>
      <trkpt lat="41.1679" lon="-0.43372">
        <time>2022-07-29T07:29:34Z</time>
      </trkpt>
      <trkpt lat="41.16798" lon="-0.43405">
        <time>2022-07-29T07:29:35Z</time>
      </trkpt>
      <trkpt lat="41.16806" lon="-0.43438">
        <time>2022-07-29T07:29:36Z</time>
      </trkpt>
      <trkpt lat="41.16813" lon="-0.43471">
        <time>2022-07-29T07:29:37Z</time>
      </trkpt>
      <trkpt lat="41.1682" lon="-0.43504">
        <time>2022-07-29T07:29:38Z</time>
      </trkpt>
      <trkpt lat="41.16828" lon="-0.43537">
        <time>2022-07-29T07:29:39Z</time>
      </trkpt>
      <trkpt lat="41.16834" lon="-0.43569">
        <time>2022-07-29T07:29:40Z</time>
      </trkpt>
      <trkpt lat="41.16841" lon="-0.436">
        <time>2022-07-29T07:29:41Z</time>
      </trkpt>
      <trkpt lat="41.16848" lon="-0.4363">
        <time>2022-07-29T07:29:42Z</time>
      </trkpt>
      <trkpt lat="41.16854" lon="-0.4366">
        <time>2022-07-29T07:29:43Z</time>
      </trkpt>
      <trkpt lat="41.16861" lon="-0.43689">
        <time>2022-07-29T07:29:44Z</time>
      </trkpt>
      <trkpt lat="41.16867" lon="-0.43718">
        <time>2022-07-29T07:29:45Z</time>
      </trkpt>
      <trkpt lat="41.16873" lon="-0.43747">
        <time>2022-07-29T07:29:46Z</time>
      </trkpt>
      <trkpt lat="41.1688" lon="-0.43776">
        <time>2022-07-29T07:29:47Z</time>
      </trkpt>
      <trkpt lat="41.16887" lon="-0.43805">
        <time>2022-07-29T07:29:48Z</time>
      </trkpt>
      <trkpt lat="41.16895" lon="-0.43833">
        <time>2022-07-29T07:29:49Z</time>
      </trkpt>
      <trkpt lat="41.16902" lon="-0.4386">
        <time>2022-07-29T07:29:50Z</time>
      </trkpt>
      <trkpt lat="41.16911" lon="-0.43886">
        <time>2022-07-29T07:29:51Z</time>
      </trkpt>
      <trkpt lat="41.16919" lon="-0.4391">
        <time>2022-07-29T07:29:52Z</time>
      </trkpt>
      <trkpt lat="41.16928" lon="-0.43934">
        <time>2022-07-29T07:29:53Z</time>
      </trkpt>
      <trkpt lat="41.16936" lon="-0.43958">
        <time>2022-07-29T07:29:54Z</time>
      </trkpt>
      <trkpt lat="41.16944" lon="-0.43981">
        <time>2022-07-29T07:29:55Z</time>
      </trkpt>
      <trkpt lat="41.16952" lon="-0.44003">
        <time>2022-07-29T07:29:56Z</time>
      </trkpt>
      <trkpt lat="41.1696" lon="-0.44025">
        <time>2022-07-29T07:29:57Z</time>
      </trkpt>
      <trkpt lat="41.16969" lon="-0.44046">
        <time>2022-07-29T07:29:58Z</time>
      </trkpt>
      <trkpt lat="41.16977" lon="-0.44065">
        <time>2022-07-29T07:29:59Z</time>
      </trkpt>
      <trkpt lat="41.16984" lon="-0.44085">
        <time>2022-07-29T07:30:00Z</time>
      </trkpt>
      <trkpt lat="41.16992" lon="-0.44103">
        <time>2022-07-29T07:30:01Z</time>
      </trkpt>
      <trkpt lat="41.16999" lon="-0.4412">
        <time>2022-07-29T07:30:02Z</time>
      </trkpt>
      <trkpt lat="41.17006" lon="-0.44138">
        <time>2022-07-29T07:30:03Z</time>
      </trkpt>
      <trkpt lat="41.17012" lon="-0.44155">
        <time>2022-07-29T07:30:04Z</time>
      </trkpt>
      <trkpt lat="41.17019" lon="-0.44171">
        <time>2022-07-29T07:30:05Z</time>
      </trkpt>
      <trkpt lat="41.17026" lon="-0.44187">
        <time>2022-07-29T07:30:06Z</time>
      </trkpt>
      <trkpt lat="41.17034" lon="-0.44203">
        <time>2022-07-29T07:30:07Z</time>
      </trkpt>
      <trkpt lat="41.17041" lon="-0.44219">
        <time>2022-07-29T07:30:08Z</time>
      </trkpt>
      <trkpt lat="41.17048" lon="-0.44235">
        <time>2022-07-29T07:30:09Z</time>
      </trkpt>
      <trkpt lat="41.17056" lon="-0.44251">
        <time>2022-07-29T07:30:10Z</time>
      </trkpt>
      <trkpt lat="41.17064" lon="-0.44267">
        <time>2022-07-29T07:30:11Z</time>
      </trkpt>
      <trkpt lat="41.17073" lon="-0.44283">
        <time>2022-07-29T07:30:12Z</time>
      </trkpt>
      <trkpt lat="41.17081" lon="-0.44299">
        <time>2022-07-29T07:30:13Z</time>
      </trkpt>
      <trkpt lat="41.1709" lon="-0.44315">
        <time>2022-07-29T07:30:14Z</time>
      </trkpt>
      <trkpt lat="41.17099" lon="-0.44331">
        <time>2022-07-29T07:30:15Z</time>
      </trkpt>
      <trkpt lat="41.17107" lon="-0.44346">
        <time>2022-07-29T07:30:16Z</time>
      </trkpt>
      <trkpt lat="41.17116" lon="-0.44362">
        <time>2022-07-29T07:30:17Z</time>
      </trkpt>
      <trkpt lat="41.17124" lon="-0.44377">
        <time>2022-07-29T07:30:18Z</time>
      </trkpt>
      <trkpt lat="41.17132" lon="-0.44393">
        <time>2022-07-29T07:30:19Z</time>
      </trkpt>
      <trkpt lat="41.1714" lon="-0.44408">
        <time>2022-07-29T07:30:20Z</time>
      </trkpt>
      <trkpt lat="41.17148" lon="-0.44423">
        <time>2022-07-29T07:30:21Z</time>
      </trkpt>
      <trkpt lat="41.17156" lon="-0.44438">
        <time>2022-07-29T07:30:22Z</time>
      </trkpt>
      <trkpt lat="41.17164" lon="-0.44453">
        <time>2022-07-29T07:30:23Z</time>
      </trkpt>
      <trkpt lat="41.17171" lon="-0.44467">
        <time>2022-07-29T07:30:24Z</time>
      </trkpt>
      <trkpt lat="41.17179" lon="-0.44482">
        <time>2022-07-29T07:30:25Z</time>
      </trkpt>
      <trkpt lat="41.17187" lon="-0.44496">
        <time>2022-07-29T07:30:26Z</time>
      </trkpt>
      <trkpt lat="41.17194" lon="-0.4451">
        <time>2022-07-29T07:30:27Z</time>
      </trkpt>
      <trkpt lat="41.17201" lon="-0.44523">
        <time>2022-07-29T07:30:28Z</time>
      </trkpt>
      <trkpt lat="41.17208" lon="-0.44537">
        <time>2022-07-29T07:30:29Z</time>
      </trkpt>
      <trkpt lat="41.17215" lon="-0.4455">
        <time>2022-07-29T07:30:30Z</time>
      </trkpt>
      <trkpt lat="41.17222" lon="-0.44563">
        <time>2022-07-29T07:30:31Z</time>
      </trkpt>
      <trkpt lat="41.17229" lon="-0.44576">
        <time>2022-07-29T07:30:32Z</time>
      </trkpt>
      <trkpt lat="41.17236" lon="-0.44588">
        <time>2022-07-29T07:30:33Z</time>
      </trkpt>
      <trkpt lat="41.17243" lon="-0.44602">
        <time>2022-07-29T07:30:34Z</time>
      </trkpt>
      <trkpt lat="41.1725" lon="-0.44615">
        <time>2022-07-29T07:30:35Z</time>
      </trkpt>
      <trkpt lat="41.17256" lon="-0.4463">
        <time>2022-07-29T07:30:36Z</time>
      </trkpt>
      <trkpt lat="41.17262" lon="-0.44645">
        <time>2022-07-29T07:30:37Z</time>
      </trkpt>
      <trkpt lat="41.17268" lon="-0.4466">
        <time>2022-07-29T07:30:38Z</time>
      </trkpt>
      <trkpt lat="41.17273" lon="-0.44676">
        <time>2022-07-29T07:30:39Z</time>
      </trkpt>
      <trkpt lat="41.17277" lon="-0.44692">
        <time>2022-07-29T07:30:40Z</time>
      </trkpt>
      <trkpt lat="41.17282" lon="-0.44708">
        <time>2022-07-29T07:30:41Z</time>
      </trkpt>
      <trkpt lat="41.17286" lon="-0.44724">
        <time>2022-07-29T07:30:42Z</time>
      </trkpt>
      <trkpt lat="41.17291" lon="-0.44741">
        <time>2022-07-29T07:30:43Z</time>
      </trkpt>
      <trkpt lat="41.17295" lon="-0.44756">
        <time>2022-07-29T07:30:44Z</time>
      </trkpt>
      <trkpt lat="41.17299" lon="-0.44772">
        <time>2022-07-29T07:30:45Z</time>
      </trkpt>
      <trkpt lat="41.17303" lon="-0.44787">
        <time>2022-07-29T07:30:46Z</time>
      </trkpt>
      <trkpt lat="41.17307" lon="-0.44801">
        <time>2022-07-29T07:30:47Z</time>
      </trkpt>
      <trkpt lat="41.17311" lon="-0.44816">
        <time>2022-07-29T07:30:48Z</time>
      </trkpt>
      <trkpt lat="41.17315" lon="-0.4483">
        <time>2022-07-29T07:30:49Z</time>
      </trkpt>
      <trkpt lat="41.17319" lon="-0.44844">
        <time>2022-07-29T07:30:50Z</time>
      </trkpt>
      <trkpt lat="41.17323" lon="-0.44857">
        <time>2022-07-29T07:30:51Z</time>
      </trkpt>
      <trkpt lat="41.17327" lon="-0.4487">
        <time>2022-07-29T07:30:52Z</time>
      </trkpt>
      <trkpt lat="41.17331" lon="-0.44883">
        <time>2022-07-29T07:30:53Z</time>
      </trkpt>
      <trkpt lat="41.17334" lon="-0.44896">
        <time>2022-07-29T07:30:54Z</time>
      </trkpt>
      <trkpt lat="41.17337" lon="-0.44909">
        <time>2022-07-29T07:30:55Z</time>
      </trkpt>
      <trkpt lat="41.17339" lon="-0.44922">
        <time>2022-07-29T07:30:56Z</time>
      </trkpt>
      <trkpt lat="41.1734" lon="-0.44935">
        <time>2022-07-29T07:30:57Z</time>
      </trkpt>
      <trkpt lat="41.1734" lon="-0.44949">
        <time>2022-07-29T07:30:58Z</time>
      </trkpt>
      <trkpt lat="41.17337" lon="-0.44961">
        <time>2022-07-29T07:30:59Z</time>
      </trkpt>
      <trkpt lat="41.17333" lon="-0.44974">
        <time>2022-07-29T07:31:00Z</time>
      </trkpt>
      <trkpt lat="41.17327" lon="-0.44985">
        <time>2022-07-29T07:31:01Z</time>
      </trkpt>
      <trkpt lat="41.1732" lon="-0.44994">
        <time>2022-07-29T07:31:02Z</time>
      </trkpt>
      <trkpt lat="41.17313" lon="-0.45002">
        <time>2022-07-29T07:31:03Z</time>
      </trkpt>
      <trkpt lat="41.17306" lon="-0.4501">
        <time>2022-07-29T07:31:04Z</time>
      </trkpt>
      <trkpt lat="41.17298" lon="-0.45017">
        <time>2022-07-29T07:31:05Z</time>
      </trkpt>
      <trkpt lat="41.17291" lon="-0.45022">
        <time>2022-07-29T07:31:06Z</time>
      </trkpt>
      <trkpt lat="41.17285" lon="-0.45028">
        <time>2022-07-29T07:31:07Z</time>
      </trkpt>
      <trkpt lat="41.1728" lon="-0.45034">
        <time>2022-07-29T07:31:08Z</time>
      </trkpt>
      <trkpt lat="41.17276" lon="-0.4504">
        <time>2022-07-29T07:31:09Z</time>
      </trkpt>
      <trkpt lat="41.17273" lon="-0.45047">
        <time>2022-07-29T07:31:10Z</time>
      </trkpt>
      <trkpt lat="41.17274" lon="-0.45056">
        <time>2022-07-29T07:31:11Z</time>
      </trkpt>
      <trkpt lat="41.17276" lon="-0.45064">
        <time>2022-07-29T07:31:12Z</time>
      </trkpt>
      <trkpt lat="41.1728" lon="-0.45074">
        <time>2022-07-29T07:31:13Z</time>
      </trkpt>
      <trkpt lat="41.17286" lon="-0.45084">
        <time>2022-07-29T07:31:14Z</time>
      </trkpt>
      <trkpt lat="41.17292" lon="-0.45095">
        <time>2022-07-29T07:31:15Z</time>
      </trkpt>
      <trkpt lat="41.17299" lon="-0.45105">
        <time>2022-07-29T07:31:16Z</time>
      </trkpt>
      <trkpt lat="41.17306" lon="-0.45114">
        <time>2022-07-29T07:31:17Z</time>
      </trkpt>
      <trkpt lat="41.17314" lon="-0.45124">
        <time>2022-07-29T07:31:18Z</time>
      </trkpt>
      <trkpt lat="41.17321" lon="-0.45133">
        <time>2022-07-29T07:31:19Z</time>
      </trkpt>
      <trkpt lat="41.17329" lon="-0.45142">
        <time>2022-07-29T07:31:20Z</time>
      </trkpt>
      <trkpt lat="41.17336" lon="-0.45151">
        <time>2022-07-29T07:31:21Z</time>
      </trkpt>
      <trkpt lat="41.17344" lon="-0.4516">
        <time>2022-07-29T07:31:22Z</time>
      </trkpt>
      <trkpt lat="41.17352" lon="-0.45169">
        <time>2022-07-29T07:31:23Z</time>
      </trkpt>
      <trkpt lat="41.17359" lon="-0.45178">
        <time>2022-07-29T07:31:24Z</time>
      </trkpt>
      <trkpt lat="41.17368" lon="-0.45188">
        <time>2022-07-29T07:31:25Z</time>
      </trkpt>
      <trkpt lat="41.17376" lon="-0.45198">
        <time>2022-07-29T07:31:26Z</time>
      </trkpt>
      <trkpt lat="41.17384" lon="-0.45207">
        <time>2022-07-29T07:31:27Z</time>
      </trkpt>
      <trkpt lat="41.17391" lon="-0.45217">
        <time>2022-07-29T07:31:28Z</time>
      </trkpt>
      <trkpt lat="41.17399" lon="-0.45226">
        <time>2022-07-29T07:31:29Z</time>
      </trkpt>
      <trkpt lat="41.17406" lon="-0.45235">
        <time>2022-07-29T07:31:30Z</time>
      </trkpt>
      <trkpt lat="41.17413" lon="-0.45243">
        <time>2022-07-29T07:31:31Z</time>
      </trkpt>
      <trkpt lat="41.1742" lon="-0.45252">
        <time>2022-07-29T07:31:32Z</time>
      </trkpt>
      <trkpt lat="41.17427" lon="-0.45259">
        <time>2022-07-29T07:31:33Z</time>
      </trkpt>
      <trkpt lat="41.17434" lon="-0.45267">
        <time>2022-07-29T07:31:34Z</time>
      </trkpt>
      <trkpt lat="41.1744" lon="-0.45275">
        <time>2022-07-29T07:31:35Z</time>
      </trkpt>
      <trkpt lat="41.17448" lon="-0.45284">
        <time>2022-07-29T07:31:36Z</time>
      </trkpt>
      <trkpt lat="41.17455" lon="-0.45293">
        <time>2022-07-29T07:31:37Z</time>
      </trkpt>
      <trkpt lat="41.17463" lon="-0.45303">
        <time>2022-07-29T07:31:38Z</time>
      </trkpt>
      <trkpt lat="41.17472" lon="-0.45313">
        <time>2022-07-29T07:31:39Z</time>
      </trkpt>
      <trkpt lat="41.17481" lon="-0.45323">
        <time>2022-07-29T07:31:40Z</time>
      </trkpt>
      <trkpt lat="41.1749" lon="-0.45333">
        <time>2022-07-29T07:31:41Z</time>
      </trkpt>
      <trkpt lat="41.17499" lon="-0.45345">
        <time>2022-07-29T07:31:42Z</time>
      </trkpt>
      <trkpt lat="41.17509" lon="-0.45356">
        <time>2022-07-29T07:31:43Z</time>
      </trkpt>
      <trkpt lat="41.17518" lon="-0.45367">
        <time>2022-07-29T07:31:44Z</time>
      </trkpt>
      <trkpt lat="41.17527" lon="-0.45378">
        <time>2022-07-29T07:31:45Z</time>
      </trkpt>
      <trkpt lat="41.17536" lon="-0.4539">
        <time>2022-07-29T07:31:46Z</time>
      </trkpt>
      <trkpt lat="41.17545" lon="-0.454">
        <time>2022-07-29T07:31:47Z</time>
      </trkpt>
      <trkpt lat="41.17555" lon="-0.4541">
        <time>2022-07-29T07:31:48Z</time>
      </trkpt>
      <trkpt lat="41.17565" lon="-0.45418">
        <time>2022-07-29T07:31:49Z</time>
      </trkpt>
      <trkpt lat="41.17577" lon="-0.45426">
        <time>2022-07-29T07:31:50Z</time>
      </trkpt>
      <trkpt lat="41.17589" lon="-0.45432">
        <time>2022-07-29T07:31:51Z</time>
      </trkpt>
      <trkpt lat="41.17601" lon="-0.45434">
        <time>2022-07-29T07:31:52Z</time>
      </trkpt>
      <trkpt lat="41.17613" lon="-0.45435">
        <time>2022-07-29T07:31:53Z</time>
      </trkpt>
      <trkpt lat="41.17625" lon="-0.45433">
        <time>2022-07-29T07:31:54Z</time>
      </trkpt>
      <trkpt lat="41.17636" lon="-0.4543">
        <time>2022-07-29T07:31:55Z</time>
      </trkpt>
      <trkpt lat="41.17646" lon="-0.45425">
        <time>2022-07-29T07:31:56Z</time>
      </trkpt>
      <trkpt lat="41.17656" lon="-0.45419">
        <time>2022-07-29T07:31:57Z</time>
      </trkpt>
      <trkpt lat="41.17666" lon="-0.45412">
        <time>2022-07-29T07:31:58Z</time>
      </trkpt>
      <trkpt lat="41.17676" lon="-0.45403">
        <time>2022-07-29T07:31:59Z</time>
      </trkpt>
      <trkpt lat="41.17685" lon="-0.45395">
        <time>2022-07-29T07:32:00Z</time>
      </trkpt>
      <trkpt lat="41.17693" lon="-0.45387">
        <time>2022-07-29T07:32:01Z</time>
      </trkpt>
      <trkpt lat="41.17701" lon="-0.4538">
        <time>2022-07-29T07:32:02Z</time>
      </trkpt>
      <trkpt lat="41.17708" lon="-0.45375">
        <time>2022-07-29T07:32:03Z</time>
      </trkpt>
      <trkpt lat="41.17715" lon="-0.4537">
        <time>2022-07-29T07:32:04Z</time>
      </trkpt>
      <trkpt lat="41.17722" lon="-0.45366">
        <time>2022-07-29T07:32:05Z</time>
      </trkpt>
      <trkpt lat="41.1773" lon="-0.45362">
        <time>2022-07-29T07:32:06Z</time>
      </trkpt>
      <trkpt lat="41.17738" lon="-0.45358">
        <time>2022-07-29T07:32:07Z</time>
      </trkpt>
      <trkpt lat="41.17747" lon="-0.45355">
        <time>2022-07-29T07:32:08Z</time>
      </trkpt>
      <trkpt lat="41.17757" lon="-0.45351">
        <time>2022-07-29T07:32:09Z</time>
      </trkpt>
      <trkpt lat="41.17768" lon="-0.45347">
        <time>2022-07-29T07:32:10Z</time>
      </trkpt>
      <trkpt lat="41.17778" lon="-0.45343">
        <time>2022-07-29T07:32:11Z</time>
      </trkpt>
      <trkpt lat="41.17789" lon="-0.4534">
        <time>2022-07-29T07:32:12Z</time>
      </trkpt>
      <trkpt lat="41.17801" lon="-0.45337">
        <time>2022-07-29T07:32:13Z</time>
      </trkpt>
      <trkpt lat="41.17814" lon="-0.45336">
        <time>2022-07-29T07:32:14Z</time>
      </trkpt>
      <trkpt lat="41.17826" lon="-0.45337">
        <time>2022-07-29T07:32:15Z</time>
      </trkpt>
      <trkpt lat="41.17838" lon="-0.45341">
        <time>2022-07-29T07:32:16Z</time>
      </trkpt>
      <trkpt lat="41.17851" lon="-0.45349">
        <time>2022-07-29T07:32:17Z</time>
      </trkpt>
      <trkpt lat="41.17864" lon="-0.45361">
        <time>2022-07-29T07:32:18Z</time>
      </trkpt>
      <trkpt lat="41.17875" lon="-0.45376">
        <time>2022-07-29T07:32:19Z</time>
      </trkpt>
      <trkpt lat="41.17886" lon="-0.4539">
        <time>2022-07-29T07:32:20Z</time>
      </trkpt>
      <trkpt lat="41.17898" lon="-0.45406">
        <time>2022-07-29T07:32:21Z</time>
      </trkpt>
      <trkpt lat="41.17911" lon="-0.45422">
        <time>2022-07-29T07:32:22Z</time>
      </trkpt>
      <trkpt lat="41.17924" lon="-0.45439">
        <time>2022-07-29T07:32:23Z</time>
      </trkpt>
      <trkpt lat="41.17937" lon="-0.45457">
        <time>2022-07-29T07:32:24Z</time>
      </trkpt>
      <trkpt lat="41.17951" lon="-0.45475">
        <time>2022-07-29T07:32:25Z</time>
      </trkpt>
      <trkpt lat="41.17966" lon="-0.45493">
        <time>2022-07-29T07:32:26Z</time>
      </trkpt>
      <trkpt lat="41.17981" lon="-0.45512">
        <time>2022-07-29T07:32:27Z</time>
      </trkpt>
      <trkpt lat="41.17996" lon="-0.45531">
        <time>2022-07-29T07:32:28Z</time>
      </trkpt>
      <trkpt lat="41.18013" lon="-0.4555">
        <time>2022-07-29T07:32:29Z</time>
      </trkpt>
      <trkpt lat="41.18029" lon="-0.45568">
        <time>2022-07-29T07:32:30Z</time>
      </trkpt>
      <trkpt lat="41.18046" lon="-0.45586">
        <time>2022-07-29T07:32:31Z</time>
      </trkpt>
      <trkpt lat="41.18064" lon="-0.45603">
        <time>2022-07-29T07:32:32Z</time>
      </trkpt>
      <trkpt lat="41.18082" lon="-0.45621">
        <time>2022-07-29T07:32:33Z</time>
      </trkpt>
      <trkpt lat="41.18101" lon="-0.45638">
        <time>2022-07-29T07:32:34Z</time>
      </trkpt>
      <trkpt lat="41.1812" lon="-0.45653">
        <time>2022-07-29T07:32:35Z</time>
      </trkpt>
      <trkpt lat="41.18139" lon="-0.45668">
        <time>2022-07-29T07:32:36Z</time>
      </trkpt>
      <trkpt lat="41.18159" lon="-0.45681">
        <time>2022-07-29T07:32:37Z</time>
      </trkpt>
      <trkpt lat="41.18178" lon="-0.45693">
        <time>2022-07-29T07:32:38Z</time>
      </trkpt>
      <trkpt lat="41.18198" lon="-0.45705">
        <time>2022-07-29T07:32:39Z</time>
      </trkpt>
      <trkpt lat="41.18218" lon="-0.45716">
        <time>2022-07-29T07:32:40Z</time>
      </trkpt>
      <trkpt lat="41.18239" lon="-0.45727">
        <time>2022-07-29T07:32:41Z</time>
      </trkpt>
      <trkpt lat="41.18259" lon="-0.45738">
        <time>2022-07-29T07:32:42Z</time>
      </trkpt>
      <trkpt lat="41.1828" lon="-0.45748">
        <time>2022-07-29T07:32:43Z</time>
      </trkpt>
      <trkpt lat="41.18301" lon="-0.45758">
        <time>2022-07-29T07:32:44Z</time>
      </trkpt>
      <trkpt lat="41.18322" lon="-0.45768">
        <time>2022-07-29T07:32:45Z</time>
      </trkpt>
      <trkpt lat="41.18343" lon="-0.45777">
        <time>2022-07-29T07:32:46Z</time>
      </trkpt>
      <trkpt lat="41.18364" lon="-0.45787">
        <time>2022-07-29T07:32:47Z</time>
      </trkpt>
      <trkpt lat="41.18386" lon="-0.45797">
        <time>2022-07-29T07:32:48Z</time>
      </trkpt>
      <trkpt lat="41.18408" lon="-0.45807">
        <time>2022-07-29T07:32:49Z</time>
      </trkpt>
      <trkpt lat="41.1843" lon="-0.45818">
        <time>2022-07-29T07:32:50Z</time>
      </trkpt>
      <trkpt lat="41.18453" lon="-0.45828">
        <time>2022-07-29T07:32:51Z</time>
      </trkpt>
      <trkpt lat="41.18476" lon="-0.45838">
        <time>2022-07-29T07:32:52Z</time>
      </trkpt>
      <trkpt lat="41.18499" lon="-0.45848">
        <time>2022-07-29T07:32:53Z</time>
      </trkpt>
      <trkpt lat="41.18521" lon="-0.45858">
        <time>2022-07-29T07:32:54Z</time>
      </trkpt>
      <trkpt lat="41.18544" lon="-0.45869">
        <time>2022-07-29T07:32:55Z</time>
      </trkpt>
      <trkpt lat="41.18567" lon="-0.45879">
        <time>2022-07-29T07:32:56Z</time>
      </trkpt>
      <trkpt lat="41.18591" lon="-0.4589">
        <time>2022-07-29T07:32:57Z</time>
      </trkpt>
      <trkpt lat="41.18614" lon="-0.459">
        <time>2022-07-29T07:32:58Z</time>
      </trkpt>
      <trkpt lat="41.18639" lon="-0.4591">
        <time>2022-07-29T07:32:59Z</time>
      </trkpt>
      <trkpt lat="41.18664" lon="-0.4592">
        <time>2022-07-29T07:33:00Z</time>
      </trkpt>
      <trkpt lat="41.1869" lon="-0.4593">
        <time>2022-07-29T07:33:01Z</time>
      </trkpt>
      <trkpt lat="41.18718" lon="-0.4594">
        <time>2022-07-29T07:33:02Z</time>
      </trkpt>
      <trkpt lat="41.18746" lon="-0.4595">
        <time>2022-07-29T07:33:03Z</time>
      </trkpt>
      <trkpt lat="41.18776" lon="-0.4596">
        <time>2022-07-29T07:33:04Z</time>
      </trkpt>
      <trkpt lat="41.18806" lon="-0.45969">
        <time>2022-07-29T07:33:05Z</time>
      </trkpt>
      <trkpt lat="41.18837" lon="-0.45978">
        <time>2022-07-29T07:33:06Z</time>
      </trkpt>
      <trkpt lat="41.18868" lon="-0.45987">
        <time>2022-07-29T07:33:07Z</time>
      </trkpt>
      <trkpt lat="41.18899" lon="-0.45995">
        <time>2022-07-29T07:33:08Z</time>
      </trkpt>
      <trkpt lat="41.1893" lon="-0.46004">
        <time>2022-07-29T07:33:09Z</time>
      </trkpt>
      <trkpt lat="41.18961" lon="-0.46013">
        <time>2022-07-29T07:33:10Z</time>
      </trkpt>
      <trkpt lat="41.18992" lon="-0.46023">
        <time>2022-07-29T07:33:11Z</time>
      </trkpt>
      <trkpt lat="41.19022" lon="-0.46032">
        <time>2022-07-29T07:33:12Z</time>
      </trkpt>
      <trkpt lat="41.19052" lon="-0.46041">
        <time>2022-07-29T07:33:13Z</time>
      </trkpt>
      <trkpt lat="41.19083" lon="-0.46051">
        <time>2022-07-29T07:33:14Z</time>
      </trkpt>
      <trkpt lat="41.19113" lon="-0.4606">
        <time>2022-07-29T07:33:15Z</time>
      </trkpt>
      <trkpt lat="41.19144" lon="-0.46069">
        <time>2022-07-29T07:33:16Z</time>
      </trkpt>
      <trkpt lat="41.19173" lon="-0.46078">
        <time>2022-07-29T07:33:17Z</time>
      </trkpt>
      <trkpt lat="41.19203" lon="-0.46087">
        <time>2022-07-29T07:33:18Z</time>
      </trkpt>
      <trkpt lat="41.19233" lon="-0.46095">
        <time>2022-07-29T07:33:19Z</time>
      </trkpt>
      <trkpt lat="41.19262" lon="-0.46104">
        <time>2022-07-29T07:33:20Z</time>
      </trkpt>
      <trkpt lat="41.19291" lon="-0.46113">
        <time>2022-07-29T07:33:21Z</time>
      </trkpt>
      <trkpt lat="41.19321" lon="-0.46122">
        <time>2022-07-29T07:33:22Z</time>
      </trkpt>
      <trkpt lat="41.1935" lon="-0.4613">
        <time>2022-07-29T07:33:23Z</time>
      </trkpt>
      <trkpt lat="41.19379" lon="-0.46139">
        <time>2022-07-29T07:33:24Z</time>
      </trkpt>
      <trkpt lat="41.19407" lon="-0.46148">
        <time>2022-07-29T07:33:25Z</time>
      </trkpt>
      <trkpt lat="41.19436" lon="-0.46157">
        <time>2022-07-29T07:33:26Z</time>
      </trkpt>
      <trkpt lat="41.19465" lon="-0.46165">
        <time>2022-07-29T07:33:27Z</time>
      </trkpt>
      <trkpt lat="41.19493" lon="-0.46174">
        <time>2022-07-29T07:33:28Z</time>
      </trkpt>
      <trkpt lat="41.19522" lon="-0.46182">
        <time>2022-07-29T07:33:29Z</time>
      </trkpt>
      <trkpt lat="41.19551" lon="-0.46191">
        <time>2022-07-29T07:33:30Z</time>
      </trkpt>
      <trkpt lat="41.19579" lon="-0.462">
        <time>2022-07-29T07:33:31Z</time>
      </trkpt>
      <trkpt lat="41.19608" lon="-0.46209">
        <time>2022-07-29T07:33:32Z</time>
      </trkpt>
      <trkpt lat="41.19637" lon="-0.46218">
        <time>2022-07-29T07:33:33Z</time>
      </trkpt>
      <trkpt lat="41.19665" lon="-0.46226">
        <time>2022-07-29T07:33:34Z</time>
      </trkpt>
      <trkpt lat="41.19694" lon="-0.46235">
        <time>2022-07-29T07:33:35Z</time>
      </trkpt>
      <trkpt lat="41.19722" lon="-0.46244">
        <time>2022-07-29T07:33:36Z</time>
      </trkpt>
      <trkpt lat="41.19751" lon="-0.46252">
        <time>2022-07-29T07:33:37Z</time>
      </trkpt>
      <trkpt lat="41.1978" lon="-0.46261">
        <time>2022-07-29T07:33:38Z</time>
      </trkpt>
      <trkpt lat="41.19809" lon="-0.46269">
        <time>2022-07-29T07:33:39Z</time>
      </trkpt>
      <trkpt lat="41.19837" lon="-0.46278">
        <time>2022-07-29T07:33:40Z</time>
      </trkpt>
      <trkpt lat="41.19866" lon="-0.46287">
        <time>2022-07-29T07:33:41Z</time>
      </trkpt>
      <trkpt lat="41.19894" lon="-0.46296">
        <time>2022-07-29T07:33:42Z</time>
      </trkpt>
      <trkpt lat="41.19923" lon="-0.46305">
        <time>2022-07-29T07:33:43Z</time>
      </trkpt>
      <trkpt lat="41.19952" lon="-0.46314">
        <time>2022-07-29T07:33:44Z</time>
      </trkpt>
      <trkpt lat="41.19981" lon="-0.46322">
        <time>2022-07-29T07:33:45Z</time>
      </trkpt>
      <trkpt lat="41.2001" lon="-0.4633">
        <time>2022-07-29T07:33:46Z</time>
      </trkpt>
      <trkpt lat="41.20038" lon="-0.46339">
        <time>2022-07-29T07:33:47Z</time>
      </trkpt>
      <trkpt lat="41.20067" lon="-0.46348">
        <time>2022-07-29T07:33:48Z</time>
      </trkpt>
      <trkpt lat="41.20095" lon="-0.46356">
        <time>2022-07-29T07:33:49Z</time>
      </trkpt>
      <trkpt lat="41.20124" lon="-0.46365">
        <time>2022-07-29T07:33:50Z</time>
      </trkpt>
      <trkpt lat="41.20153" lon="-0.46373">
        <time>2022-07-29T07:33:51Z</time>
      </trkpt>
      <trkpt lat="41.20181" lon="-0.46382">
        <time>2022-07-29T07:33:52Z</time>
      </trkpt>
      <trkpt lat="41.2021" lon="-0.46391">
        <time>2022-07-29T07:33:53Z</time>
      </trkpt>
      <trkpt lat="41.20238" lon="-0.464">
        <time>2022-07-29T07:33:54Z</time>
      </trkpt>
      <trkpt lat="41.20267" lon="-0.46409">
        <time>2022-07-29T07:33:55Z</time>
      </trkpt>
      <trkpt lat="41.20296" lon="-0.46418">
        <time>2022-07-29T07:33:56Z</time>
      </trkpt>
      <trkpt lat="41.20324" lon="-0.46426">
        <time>2022-07-29T07:33:57Z</time>
      </trkpt>
      <trkpt lat="41.20353" lon="-0.46435">
        <time>2022-07-29T07:33:58Z</time>
      </trkpt>
      <trkpt lat="41.20381" lon="-0.46444">
        <time>2022-07-29T07:33:59Z</time>
      </trkpt>
      <trkpt lat="41.20409" lon="-0.46452">
        <time>2022-07-29T07:34:00Z</time>
      </trkpt>
      <trkpt lat="41.20439" lon="-0.46461">
        <time>2022-07-29T07:34:01Z</time>
      </trkpt>
      <trkpt lat="41.20469" lon="-0.4647">
        <time>2022-07-29T07:34:02Z</time>
      </trkpt>
      <trkpt lat="41.205" lon="-0.4648">
        <time>2022-07-29T07:34:03Z</time>
      </trkpt>
      <trkpt lat="41.20531" lon="-0.4649">
        <time>2022-07-29T07:34:04Z</time>
      </trkpt>
      <trkpt lat="41.20563" lon="-0.46501">
        <time>2022-07-29T07:34:05Z</time>
      </trkpt>
      <trkpt lat="41.20595" lon="-0.46512">
        <time>2022-07-29T07:34:06Z</time>
      </trkpt>
      <trkpt lat="41.20628" lon="-0.46524">
        <time>2022-07-29T07:34:07Z</time>
      </trkpt>
      <trkpt lat="41.2066" lon="-0.46535">
        <time>2022-07-29T07:34:08Z</time>
      </trkpt>
      <trkpt lat="41.20691" lon="-0.46546">
        <time>2022-07-29T07:34:09Z</time>
      </trkpt>
      <trkpt lat="41.20721" lon="-0.46557">
        <time>2022-07-29T07:34:10Z</time>
      </trkpt>
      <trkpt lat="41.20749" lon="-0.46567">
        <time>2022-07-29T07:34:11Z</time>
      </trkpt>
      <trkpt lat="41.20776" lon="-0.46577">
        <time>2022-07-29T07:34:12Z</time>
      </trkpt>
      <trkpt lat="41.20802" lon="-0.46586">
        <time>2022-07-29T07:34:13Z</time>
      </trkpt>
      <trkpt lat="41.20827" lon="-0.46595">
        <time>2022-07-29T07:34:14Z</time>
      </trkpt>
      <trkpt lat="41.20851" lon="-0.46604">
        <time>2022-07-29T07:34:15Z</time>
      </trkpt>
      <trkpt lat="41.20874" lon="-0.46612">
        <time>2022-07-29T07:34:16Z</time>
      </trkpt>
      <trkpt lat="41.20897" lon="-0.46621">
        <time>2022-07-29T07:34:17Z</time>
      </trkpt>
      <trkpt lat="41.20919" lon="-0.46629">
        <time>2022-07-29T07:34:18Z</time>
      </trkpt>
      <trkpt lat="41.2094" lon="-0.46636">
        <time>2022-07-29T07:34:19Z</time>
      </trkpt>
      <trkpt lat="41.2096" lon="-0.46643">
        <time>2022-07-29T07:34:20Z</time>
      </trkpt>
      <trkpt lat="41.20979" lon="-0.46651">
        <time>2022-07-29T07:34:21Z</time>
      </trkpt>
      <trkpt lat="41.20999" lon="-0.46657">
        <time>2022-07-29T07:34:22Z</time>
      </trkpt>
      <trkpt lat="41.21017" lon="-0.46665">
        <time>2022-07-29T07:34:23Z</time>
      </trkpt>
      <trkpt lat="41.21035" lon="-0.46671">
        <time>2022-07-29T07:34:24Z</time>
      </trkpt>
      <trkpt lat="41.21052" lon="-0.46677">
        <time>2022-07-29T07:34:25Z</time>
      </trkpt>
      <trkpt lat="41.21069" lon="-0.46684">
        <time>2022-07-29T07:34:26Z</time>
      </trkpt>
      <trkpt lat="41.21087" lon="-0.46691">
        <time>2022-07-29T07:34:27Z</time>
      </trkpt>
      <trkpt lat="41.21103" lon="-0.46697">
        <time>2022-07-29T07:34:28Z</time>
      </trkpt>
      <trkpt lat="41.2112" lon="-0.46703">
        <time>2022-07-29T07:34:29Z</time>
      </trkpt>
      <trkpt lat="41.21137" lon="-0.46709">
        <time>2022-07-29T07:34:30Z</time>
      </trkpt>
      <trkpt lat="41.21154" lon="-0.46715">
        <time>2022-07-29T07:34:31Z</time>
      </trkpt>
      <trkpt lat="41.21172" lon="-0.46723">
        <time>2022-07-29T07:34:32Z</time>
      </trkpt>
      <trkpt lat="41.2119" lon="-0.4673">
        <time>2022-07-29T07:34:33Z</time>
      </trkpt>
      <trkpt lat="41.2121" lon="-0.46737">
        <time>2022-07-29T07:34:34Z</time>
      </trkpt>
      <trkpt lat="41.21229" lon="-0.46744">
        <time>2022-07-29T07:34:35Z</time>
      </trkpt>
      <trkpt lat="41.2125" lon="-0.46751">
        <time>2022-07-29T07:34:36Z</time>
      </trkpt>
      <trkpt lat="41.2127" lon="-0.46758">
        <time>2022-07-29T07:34:37Z</time>
      </trkpt>
      <trkpt lat="41.2129" lon="-0.46765">
        <time>2022-07-29T07:34:38Z</time>
      </trkpt>
      <trkpt lat="41.21311" lon="-0.46773">
        <time>2022-07-29T07:34:39Z</time>
      </trkpt>
      <trkpt lat="41.21331" lon="-0.4678">
        <time>2022-07-29T07:34:40Z</time>
      </trkpt>
      <trkpt lat="41.21352" lon="-0.46787">
        <time>2022-07-29T07:34:41Z</time>
      </trkpt>
      <trkpt lat="41.21374" lon="-0.46795">
        <time>2022-07-29T07:34:42Z</time>
      </trkpt>
      <trkpt lat="41.21396" lon="-0.46802">
        <time>2022-07-29T07:34:43Z</time>
      </trkpt>
      <trkpt lat="41.21418" lon="-0.46809">
        <time>2022-07-29T07:34:44Z</time>
      </trkpt>
      <trkpt lat="41.2144" lon="-0.46815">
        <time>2022-07-29T07:34:45Z</time>
      </trkpt>
      <trkpt lat="41.21462" lon="-0.46822">
        <time>2022-07-29T07:34:46Z</time>
      </trkpt>
      <trkpt lat="41.21484" lon="-0.46829">
        <time>2022-07-29T07:34:47Z</time>
      </trkpt>
      <trkpt lat="41.21506" lon="-0.46836">
        <time>2022-07-29T07:34:48Z</time>
      </trkpt>
      <trkpt lat="41.21529" lon="-0.46843">
        <time>2022-07-29T07:34:49Z</time>
      </trkpt>
      <trkpt lat="41.21552" lon="-0.46849">
        <time>2022-07-29T07:34:50Z</time>
      </trkpt>
      <trkpt lat="41.21575" lon="-0.46856">
        <time>2022-07-29T07:34:51Z</time>
      </trkpt>
      <trkpt lat="41.21598" lon="-0.46864">
        <time>2022-07-29T07:34:52Z</time>
      </trkpt>
      <trkpt lat="41.21621" lon="-0.46871">
        <time>2022-07-29T07:34:53Z</time>
      </trkpt>
      <trkpt lat="41.21644" lon="-0.46879">
        <time>2022-07-29T07:34:54Z</time>
      </trkpt>
      <trkpt lat="41.21668" lon="-0.46887">
        <time>2022-07-29T07:34:55Z</time>
      </trkpt>
      <trkpt lat="41.21692" lon="-0.46894">
        <time>2022-07-29T07:34:56Z</time>
      </trkpt>
      <trkpt lat="41.21716" lon="-0.46901">
        <time>2022-07-29T07:34:57Z</time>
      </trkpt>
      <trkpt lat="41.21741" lon="-0.46909">
        <time>2022-07-29T07:34:58Z</time>
      </trkpt>
      <trkpt lat="41.21765" lon="-0.46916">
        <time>2022-07-29T07:34:59Z</time>
      </trkpt>
      <trkpt lat="41.2179" lon="-0.46922">
        <time>2022-07-29T07:35:00Z</time>
      </trkpt>
      <trkpt lat="41.21814" lon="-0.4693">
        <time>2022-07-29T07:35:01Z</time>
      </trkpt>
      <trkpt lat="41.21839" lon="-0.46938">
        <time>2022-07-29T07:35:02Z</time>
      </trkpt>
      <trkpt lat="41.21864" lon="-0.46945">
        <time>2022-07-29T07:35:03Z</time>
      </trkpt>
      <trkpt lat="41.21889" lon="-0.46952">
        <time>2022-07-29T07:35:04Z</time>
      </trkpt>
      <trkpt lat="41.21915" lon="-0.4696">
        <time>2022-07-29T07:35:05Z</time>
      </trkpt>
      <trkpt lat="41.2194" lon="-0.46967">
        <time>2022-07-29T07:35:06Z</time>
      </trkpt>
      <trkpt lat="41.21966" lon="-0.46975">
        <time>2022-07-29T07:35:07Z</time>
      </trkpt>
      <trkpt lat="41.21991" lon="-0.46983">
        <time>2022-07-29T07:35:08Z</time>
      </trkpt>
      <trkpt lat="41.22017" lon="-0.46991">
        <time>2022-07-29T07:35:09Z</time>
      </trkpt>
      <trkpt lat="41.22043" lon="-0.46999">
        <time>2022-07-29T07:35:10Z</time>
      </trkpt>
      <trkpt lat="41.22068" lon="-0.47007">
        <time>2022-07-29T07:35:11Z</time>
      </trkpt>
      <trkpt lat="41.22094" lon="-0.47015">
        <time>2022-07-29T07:35:12Z</time>
      </trkpt>
      <trkpt lat="41.2212" lon="-0.47022">
        <time>2022-07-29T07:35:13Z</time>
      </trkpt>
      <trkpt lat="41.22146" lon="-0.4703">
        <time>2022-07-29T07:35:14Z</time>
      </trkpt>
      <trkpt lat="41.22172" lon="-0.47038">
        <time>2022-07-29T07:35:15Z</time>
      </trkpt>
      <trkpt lat="41.22198" lon="-0.47046">
        <time>2022-07-29T07:35:16Z</time>
      </trkpt>
      <trkpt lat="41.22224" lon="-0.47054">
        <time>2022-07-29T07:35:17Z</time>
      </trkpt>
      <trkpt lat="41.22249" lon="-0.47062">
        <time>2022-07-29T07:35:18Z</time>
      </trkpt>
      <trkpt lat="41.22275" lon="-0.47069">
        <time>2022-07-29T07:35:19Z</time>
      </trkpt>
      <trkpt lat="41.22301" lon="-0.47078">
        <time>2022-07-29T07:35:20Z</time>
      </trkpt>
      <trkpt lat="41.22327" lon="-0.47086">
        <time>2022-07-29T07:35:21Z</time>
      </trkpt>
      <trkpt lat="41.22353" lon="-0.47094">
        <time>2022-07-29T07:35:22Z</time>
      </trkpt>
      <trkpt lat="41.22379" lon="-0.47101">
        <time>2022-07-29T07:35:23Z</time>
      </trkpt>
      <trkpt lat="41.22404" lon="-0.47109">
        <time>2022-07-29T07:35:24Z</time>
      </trkpt>
      <trkpt lat="41.2243" lon="-0.47117">
        <time>2022-07-29T07:35:25Z</time>
      </trkpt>
      <trkpt lat="41.22456" lon="-0.47125">
        <time>2022-07-29T07:35:26Z</time>
      </trkpt>
      <trkpt lat="41.22482" lon="-0.47132">
        <time>2022-07-29T07:35:27Z</time>
      </trkpt>
      <trkpt lat="41.22508" lon="-0.4714">
        <time>2022-07-29T07:35:28Z</time>
      </trkpt>
      <trkpt lat="41.22534" lon="-0.47148">
        <time>2022-07-29T07:35:29Z</time>
      </trkpt>
      <trkpt lat="41.22559" lon="-0.47156">
        <time>2022-07-29T07:35:30Z</time>
      </trkpt>
      <trkpt lat="41.22585" lon="-0.47164">
        <time>2022-07-29T07:35:31Z</time>
      </trkpt>
      <trkpt lat="41.22611" lon="-0.47172">
        <time>2022-07-29T07:35:32Z</time>
      </trkpt>
      <trkpt lat="41.22637" lon="-0.4718">
        <time>2022-07-29T07:35:33Z</time>
      </trkpt>
      <trkpt lat="41.22663" lon="-0.47187">
        <time>2022-07-29T07:35:34Z</time>
      </trkpt>
      <trkpt lat="41.22689" lon="-0.47195">
        <time>2022-07-29T07:35:35Z</time>
      </trkpt>
      <trkpt lat="41.22715" lon="-0.47203">
        <time>2022-07-29T07:35:36Z</time>
      </trkpt>
      <trkpt lat="41.2274" lon="-0.47211">
        <time>2022-07-29T07:35:37Z</time>
      </trkpt>
      <trkpt lat="41.22766" lon="-0.47219">
        <time>2022-07-29T07:35:38Z</time>
      </trkpt>
      <trkpt lat="41.22792" lon="-0.47227">
        <time>2022-07-29T07:35:39Z</time>
      </trkpt>
      <trkpt lat="41.22819" lon="-0.47235">
        <time>2022-07-29T07:35:40Z</time>
      </trkpt>
      <trkpt lat="41.22845" lon="-0.47242">
        <time>2022-07-29T07:35:41Z</time>
      </trkpt>
      <trkpt lat="41.22871" lon="-0.4725">
        <time>2022-07-29T07:35:42Z</time>
      </trkpt>
      <trkpt lat="41.22897" lon="-0.47259">
        <time>2022-07-29T07:35:43Z</time>
      </trkpt>
      <trkpt lat="41.22923" lon="-0.47266">
        <time>2022-07-29T07:35:44Z</time>
      </trkpt>
      <trkpt lat="41.22949" lon="-0.47275">
        <time>2022-07-29T07:35:45Z</time>
      </trkpt>
      <trkpt lat="41.22975" lon="-0.47283">
        <time>2022-07-29T07:35:46Z</time>
      </trkpt>
      <trkpt lat="41.23002" lon="-0.47291">
        <time>2022-07-29T07:35:47Z</time>
      </trkpt>
      <trkpt lat="41.23029" lon="-0.47299">
        <time>2022-07-29T07:35:48Z</time>
      </trkpt>
      <trkpt lat="41.23056" lon="-0.47307">
        <time>2022-07-29T07:35:49Z</time>
      </trkpt>
      <trkpt lat="41.23084" lon="-0.47315">
        <time>2022-07-29T07:35:50Z</time>
      </trkpt>
      <trkpt lat="41.23111" lon="-0.47324">
        <time>2022-07-29T07:35:51Z</time>
      </trkpt>
      <trkpt lat="41.23139" lon="-0.47332">
        <time>2022-07-29T07:35:52Z</time>
      </trkpt>
      <trkpt lat="41.23166" lon="-0.47341">
        <time>2022-07-29T07:35:53Z</time>
      </trkpt>
      <trkpt lat="41.23193" lon="-0.47349">
        <time>2022-07-29T07:35:54Z</time>
      </trkpt>
      <trkpt lat="41.2322" lon="-0.47358">
        <time>2022-07-29T07:35:55Z</time>
      </trkpt>
      <trkpt lat="41.23247" lon="-0.47366">
        <time>2022-07-29T07:35:56Z</time>
      </trkpt>
      <trkpt lat="41.23274" lon="-0.47374">
        <time>2022-07-29T07:35:57Z</time>
      </trkpt>
      <trkpt lat="41.23301" lon="-0.47382">
        <time>2022-07-29T07:35:58Z</time>
      </trkpt>
      <trkpt lat="41.23327" lon="-0.4739">
        <time>2022-07-29T07:35:59Z</time>
      </trkpt>
      <trkpt lat="41.23354" lon="-0.47398">
        <time>2022-07-29T07:36:00Z</time>
      </trkpt>
      <trkpt lat="41.23381" lon="-0.47406">
        <time>2022-07-29T07:36:01Z</time>
      </trkpt>
      <trkpt lat="41.23407" lon="-0.47414">
        <time>2022-07-29T07:36:02Z</time>
      </trkpt>
      <trkpt lat="41.23434" lon="-0.47422">
        <time>2022-07-29T07:36:03Z</time>
      </trkpt>
      <trkpt lat="41.23461" lon="-0.47431">
        <time>2022-07-29T07:36:04Z</time>
      </trkpt>
      <trkpt lat="41.23488" lon="-0.47438">
        <time>2022-07-29T07:36:05Z</time>
      </trkpt>
      <trkpt lat="41.23515" lon="-0.47446">
        <time>2022-07-29T07:36:06Z</time>
      </trkpt>
      <trkpt lat="41.23542" lon="-0.47454">
        <time>2022-07-29T07:36:07Z</time>
      </trkpt>
      <trkpt lat="41.23569" lon="-0.47463">
        <time>2022-07-29T07:36:08Z</time>
      </trkpt>
      <trkpt lat="41.23597" lon="-0.47471">
        <time>2022-07-29T07:36:09Z</time>
      </trkpt>
      <trkpt lat="41.23624" lon="-0.47479">
        <time>2022-07-29T07:36:10Z</time>
      </trkpt>
      <trkpt lat="41.23652" lon="-0.47488">
        <time>2022-07-29T07:36:11Z</time>
      </trkpt>
      <trkpt lat="41.23679" lon="-0.47496">
        <time>2022-07-29T07:36:12Z</time>
      </trkpt>
      <trkpt lat="41.23706" lon="-0.47505">
        <time>2022-07-29T07:36:13Z</time>
      </trkpt>
      <trkpt lat="41.23734" lon="-0.47513">
        <time>2022-07-29T07:36:14Z</time>
      </trkpt>
      <trkpt lat="41.23762" lon="-0.47522">
        <time>2022-07-29T07:36:15Z</time>
      </trkpt>
      <trkpt lat="41.2379" lon="-0.4753">
        <time>2022-07-29T07:36:16Z</time>
      </trkpt>
      <trkpt lat="41.23818" lon="-0.47538">
        <time>2022-07-29T07:36:17Z</time>
      </trkpt>
      <trkpt lat="41.23845" lon="-0.47547">
        <time>2022-07-29T07:36:18Z</time>
      </trkpt>
      <trkpt lat="41.23873" lon="-0.47556">
        <time>2022-07-29T07:36:19Z</time>
      </trkpt>
      <trkpt lat="41.239" lon="-0.47565">
        <time>2022-07-29T07:36:20Z</time>
      </trkpt>
      <trkpt lat="41.23927" lon="-0.47573">
        <time>2022-07-29T07:36:21Z</time>
      </trkpt>
      <trkpt lat="41.23954" lon="-0.4758">
        <time>2022-07-29T07:36:22Z</time>
      </trkpt>
      <trkpt lat="41.23982" lon="-0.47589">
        <time>2022-07-29T07:36:23Z</time>
      </trkpt>
      <trkpt lat="41.24009" lon="-0.47597">
        <time>2022-07-29T07:36:24Z</time>
      </trkpt>
      <trkpt lat="41.24036" lon="-0.47605">
        <time>2022-07-29T07:36:25Z</time>
      </trkpt>
      <trkpt lat="41.24064" lon="-0.47613">
        <time>2022-07-29T07:36:26Z</time>
      </trkpt>
      <trkpt lat="41.24091" lon="-0.4762">
        <time>2022-07-29T07:36:27Z</time>
      </trkpt>
      <trkpt lat="41.24118" lon="-0.47628">
        <time>2022-07-29T07:36:28Z</time>
      </trkpt>
      <trkpt lat="41.24145" lon="-0.47636">
        <time>2022-07-29T07:36:29Z</time>
      </trkpt>
      <trkpt lat="41.24172" lon="-0.47645">
        <time>2022-07-29T07:36:30Z</time>
      </trkpt>
      <trkpt lat="41.24199" lon="-0.47653">
        <time>2022-07-29T07:36:31Z</time>
      </trkpt>
      <trkpt lat="41.24226" lon="-0.47661">
        <time>2022-07-29T07:36:32Z</time>
      </trkpt>
      <trkpt lat="41.24253" lon="-0.47669">
        <time>2022-07-29T07:36:33Z</time>
      </trkpt>
      <trkpt lat="41.24281" lon="-0.47677">
        <time>2022-07-29T07:36:34Z</time>
      </trkpt>
      <trkpt lat="41.24308" lon="-0.47685">
        <time>2022-07-29T07:36:35Z</time>
      </trkpt>
      <trkpt lat="41.24335" lon="-0.47693">
        <time>2022-07-29T07:36:36Z</time>
      </trkpt>
      <trkpt lat="41.24362" lon="-0.47701">
        <time>2022-07-29T07:36:37Z</time>
      </trkpt>
      <trkpt lat="41.24389" lon="-0.47708">
        <time>2022-07-29T07:36:38Z</time>
      </trkpt>
      <trkpt lat="41.24416" lon="-0.47716">
        <time>2022-07-29T07:36:39Z</time>
      </trkpt>
      <trkpt lat="41.24443" lon="-0.47725">
        <time>2022-07-29T07:36:40Z</time>
      </trkpt>
      <trkpt lat="41.2447" lon="-0.47733">
        <time>2022-07-29T07:36:41Z</time>
      </trkpt>
      <trkpt lat="41.24497" lon="-0.47741">
        <time>2022-07-29T07:36:42Z</time>
      </trkpt>
      <trkpt lat="41.24524" lon="-0.47749">
        <time>2022-07-29T07:36:43Z</time>
      </trkpt>
      <trkpt lat="41.24551" lon="-0.47757">
        <time>2022-07-29T07:36:44Z</time>
      </trkpt>
      <trkpt lat="41.24578" lon="-0.47765">
        <time>2022-07-29T07:36:45Z</time>
      </trkpt>
      <trkpt lat="41.24606" lon="-0.47772">
        <time>2022-07-29T07:36:46Z</time>
      </trkpt>
      <trkpt lat="41.24633" lon="-0.4778">
        <time>2022-07-29T07:36:47Z</time>
      </trkpt>
      <trkpt lat="41.24661" lon="-0.47788">
        <time>2022-07-29T07:36:48Z</time>
      </trkpt>
      <trkpt lat="41.24688" lon="-0.47796">
        <time>2022-07-29T07:36:49Z</time>
      </trkpt>
      <trkpt lat="41.24716" lon="-0.47804">
        <time>2022-07-29T07:36:50Z</time>
      </trkpt>
      <trkpt lat="41.24743" lon="-0.47812">
        <time>2022-07-29T07:36:51Z</time>
      </trkpt>
      <trkpt lat="41.24771" lon="-0.47821">
        <time>2022-07-29T07:36:52Z</time>
      </trkpt>
      <trkpt lat="41.24799" lon="-0.47829">
        <time>2022-07-29T07:36:53Z</time>
      </trkpt>
      <trkpt lat="41.24827" lon="-0.47837">
        <time>2022-07-29T07:36:54Z</time>
      </trkpt>
      <trkpt lat="41.24855" lon="-0.47845">
        <time>2022-07-29T07:36:55Z</time>
      </trkpt>
      <trkpt lat="41.24883" lon="-0.47854">
        <time>2022-07-29T07:36:56Z</time>
      </trkpt>
      <trkpt lat="41.24911" lon="-0.47862">
        <time>2022-07-29T07:36:57Z</time>
      </trkpt>
      <trkpt lat="41.24939" lon="-0.4787">
        <time>2022-07-29T07:36:58Z</time>
      </trkpt>
      <trkpt lat="41.24966" lon="-0.47878">
        <time>2022-07-29T07:36:59Z</time>
      </trkpt>
      <trkpt lat="41.24994" lon="-0.47886">
        <time>2022-07-29T07:37:00Z</time>
      </trkpt>
      <trkpt lat="41.25021" lon="-0.47894">
        <time>2022-07-29T07:37:01Z</time>
      </trkpt>
      <trkpt lat="41.25049" lon="-0.47902">
        <time>2022-07-29T07:37:02Z</time>
      </trkpt>
      <trkpt lat="41.25077" lon="-0.47909">
        <time>2022-07-29T07:37:03Z</time>
      </trkpt>
      <trkpt lat="41.25105" lon="-0.47917">
        <time>2022-07-29T07:37:04Z</time>
      </trkpt>
      <trkpt lat="41.25133" lon="-0.47925">
        <time>2022-07-29T07:37:05Z</time>
      </trkpt>
      <trkpt lat="41.25161" lon="-0.47933">
        <time>2022-07-29T07:37:06Z</time>
      </trkpt>
      <trkpt lat="41.25189" lon="-0.47941">
        <time>2022-07-29T07:37:07Z</time>
      </trkpt>
      <trkpt lat="41.25216" lon="-0.4795">
        <time>2022-07-29T07:37:08Z</time>
      </trkpt>
      <trkpt lat="41.25244" lon="-0.47958">
        <time>2022-07-29T07:37:09Z</time>
      </trkpt>
      <trkpt lat="41.25272" lon="-0.47966">
        <time>2022-07-29T07:37:10Z</time>
      </trkpt>
      <trkpt lat="41.253" lon="-0.47973">
        <time>2022-07-29T07:37:11Z</time>
      </trkpt>
      <trkpt lat="41.25328" lon="-0.47981">
        <time>2022-07-29T07:37:12Z</time>
      </trkpt>
      <trkpt lat="41.25356" lon="-0.47989">
        <time>2022-07-29T07:37:13Z</time>
      </trkpt>
      <trkpt lat="41.25384" lon="-0.47998">
        <time>2022-07-29T07:37:14Z</time>
      </trkpt>
      <trkpt lat="41.25412" lon="-0.48006">
        <time>2022-07-29T07:37:15Z</time>
      </trkpt>
      <trkpt lat="41.2544" lon="-0.48014">
        <time>2022-07-29T07:37:16Z</time>
      </trkpt>
      <trkpt lat="41.25468" lon="-0.48022">
        <time>2022-07-29T07:37:17Z</time>
      </trkpt>
      <trkpt lat="41.25496" lon="-0.4803">
        <time>2022-07-29T07:37:18Z</time>
      </trkpt>
      <trkpt lat="41.25524" lon="-0.48039">
        <time>2022-07-29T07:37:19Z</time>
      </trkpt>
      <trkpt lat="41.25552" lon="-0.48047">
        <time>2022-07-29T07:37:20Z</time>
      </trkpt>
      <trkpt lat="41.2558" lon="-0.48055">
        <time>2022-07-29T07:37:21Z</time>
      </trkpt>
      <trkpt lat="41.25607" lon="-0.48063">
        <time>2022-07-29T07:37:22Z</time>
      </trkpt>
      <trkpt lat="41.25634" lon="-0.48071">
        <time>2022-07-29T07:37:23Z</time>
      </trkpt>
      <trkpt lat="41.25662" lon="-0.48079">
        <time>2022-07-29T07:37:24Z</time>
      </trkpt>
      <trkpt lat="41.25689" lon="-0.48087">
        <time>2022-07-29T07:37:25Z</time>
      </trkpt>
      <trkpt lat="41.25716" lon="-0.48095">
        <time>2022-07-29T07:37:26Z</time>
      </trkpt>
      <trkpt lat="41.25743" lon="-0.48103">
        <time>2022-07-29T07:37:27Z</time>
      </trkpt>
      <trkpt lat="41.25769" lon="-0.48111">
        <time>2022-07-29T07:37:28Z</time>
      </trkpt>
      <trkpt lat="41.25796" lon="-0.48118">
        <time>2022-07-29T07:37:29Z</time>
      </trkpt>
      <trkpt lat="41.25822" lon="-0.48126">
        <time>2022-07-29T07:37:30Z</time>
      </trkpt>
      <trkpt lat="41.25848" lon="-0.48133">
        <time>2022-07-29T07:37:31Z</time>
      </trkpt>
      <trkpt lat="41.25875" lon="-0.48141">
        <time>2022-07-29T07:37:32Z</time>
      </trkpt>
      <trkpt lat="41.25901" lon="-0.4815">
        <time>2022-07-29T07:37:33Z</time>
      </trkpt>
      <trkpt lat="41.25927" lon="-0.4816">
        <time>2022-07-29T07:37:34Z</time>
      </trkpt>
      <trkpt lat="41.25954" lon="-0.48171">
        <time>2022-07-29T07:37:35Z</time>
      </trkpt>
      <trkpt lat="41.2598" lon="-0.48183">
        <time>2022-07-29T07:37:36Z</time>
      </trkpt>
      <trkpt lat="41.26007" lon="-0.48197">
        <time>2022-07-29T07:37:37Z</time>
      </trkpt>
      <trkpt lat="41.26033" lon="-0.48212">
        <time>2022-07-29T07:37:38Z</time>
      </trkpt>
      <trkpt lat="41.26059" lon="-0.48227">
        <time>2022-07-29T07:37:39Z</time>
      </trkpt>
      <trkpt lat="41.26084" lon="-0.48243">
        <time>2022-07-29T07:37:40Z</time>
      </trkpt>
      <trkpt lat="41.2611" lon="-0.48258">
        <time>2022-07-29T07:37:41Z</time>
      </trkpt>
      <trkpt lat="41.26135" lon="-0.48273">
        <time>2022-07-29T07:37:42Z</time>
      </trkpt>
      <trkpt lat="41.2616" lon="-0.48288">
        <time>2022-07-29T07:37:43Z</time>
      </trkpt>
      <trkpt lat="41.26184" lon="-0.48303">
        <time>2022-07-29T07:37:44Z</time>
      </trkpt>
      <trkpt lat="41.26209" lon="-0.48317">
        <time>2022-07-29T07:37:45Z</time>
      </trkpt>
      <trkpt lat="41.26234" lon="-0.4833">
        <time>2022-07-29T07:37:46Z</time>
      </trkpt>
      <trkpt lat="41.26259" lon="-0.48343">
        <time>2022-07-29T07:37:47Z</time>
      </trkpt>
      <trkpt lat="41.26284" lon="-0.48354">
        <time>2022-07-29T07:37:48Z</time>
      </trkpt>
      <trkpt lat="41.2631" lon="-0.48364">
        <time>2022-07-29T07:37:49Z</time>
      </trkpt>
      <trkpt lat="41.26337" lon="-0.48373">
        <time>2022-07-29T07:37:50Z</time>
      </trkpt>
      <trkpt lat="41.26363" lon="-0.48378">
        <time>2022-07-29T07:37:51Z</time>
      </trkpt>
      <trkpt lat="41.2639" lon="-0.48382">
        <time>2022-07-29T07:37:52Z</time>
      </trkpt>
      <trkpt lat="41.26418" lon="-0.48385">
        <time>2022-07-29T07:37:53Z</time>
      </trkpt>
      <trkpt lat="41.26446" lon="-0.48387">
        <time>2022-07-29T07:37:54Z</time>
      </trkpt>
      <trkpt lat="41.26474" lon="-0.48389">
        <time>2022-07-29T07:37:55Z</time>
      </trkpt>
      <trkpt lat="41.26502" lon="-0.48391">
        <time>2022-07-29T07:37:56Z</time>
      </trkpt>
      <trkpt lat="41.26531" lon="-0.48394">
        <time>2022-07-29T07:37:57Z</time>
      </trkpt>
      <trkpt lat="41.2656" lon="-0.48396">
        <time>2022-07-29T07:37:58Z</time>
      </trkpt>
      <trkpt lat="41.26588" lon="-0.48398">
        <time>2022-07-29T07:37:59Z</time>
      </trkpt>
      <trkpt lat="41.26618" lon="-0.484">
        <time>2022-07-29T07:38:00Z</time>
      </trkpt>
      <trkpt lat="41.26646" lon="-0.48403">
        <time>2022-07-29T07:38:01Z</time>
      </trkpt>
      <trkpt lat="41.26675" lon="-0.48405">
        <time>2022-07-29T07:38:02Z</time>
      </trkpt>
      <trkpt lat="41.26704" lon="-0.48407">
        <time>2022-07-29T07:38:03Z</time>
      </trkpt>
      <trkpt lat="41.26733" lon="-0.48409">
        <time>2022-07-29T07:38:04Z</time>
      </trkpt>
      <trkpt lat="41.26761" lon="-0.48411">
        <time>2022-07-29T07:38:05Z</time>
      </trkpt>
      <trkpt lat="41.26789" lon="-0.48413">
        <time>2022-07-29T07:38:06Z</time>
      </trkpt>
      <trkpt lat="41.26817" lon="-0.48415">
        <time>2022-07-29T07:38:07Z</time>
      </trkpt>
      <trkpt lat="41.26844" lon="-0.48418">
        <time>2022-07-29T07:38:08Z</time>
      </trkpt>
      <trkpt lat="41.26871" lon="-0.4842">
        <time>2022-07-29T07:38:09Z</time>
      </trkpt>
      <trkpt lat="41.26898" lon="-0.48422">
        <time>2022-07-29T07:38:10Z</time>
      </trkpt>
      <trkpt lat="41.26924" lon="-0.48424">
        <time>2022-07-29T07:38:11Z</time>
      </trkpt>
      <trkpt lat="41.2695" lon="-0.48426">
        <time>2022-07-29T07:38:12Z</time>
      </trkpt>
      <trkpt lat="41.26977" lon="-0.48428">
        <time>2022-07-29T07:38:13Z</time>
      </trkpt>
      <trkpt lat="41.27004" lon="-0.4843">
        <time>2022-07-29T07:38:14Z</time>
      </trkpt>
      <trkpt lat="41.2703" lon="-0.48432">
        <time>2022-07-29T07:38:15Z</time>
      </trkpt>
      <trkpt lat="41.27057" lon="-0.48434">
        <time>2022-07-29T07:38:16Z</time>
      </trkpt>
      <trkpt lat="41.27084" lon="-0.48437">
        <time>2022-07-29T07:38:17Z</time>
      </trkpt>
      <trkpt lat="41.27112" lon="-0.48439">
        <time>2022-07-29T07:38:18Z</time>
      </trkpt>
      <trkpt lat="41.27139" lon="-0.48441">
        <time>2022-07-29T07:38:19Z</time>
      </trkpt>
      <trkpt lat="41.27166" lon="-0.48444">
        <time>2022-07-29T07:38:20Z</time>
      </trkpt>
      <trkpt lat="41.27193" lon="-0.48446">
        <time>2022-07-29T07:38:21Z</time>
      </trkpt>
      <trkpt lat="41.27219" lon="-0.48448">
        <time>2022-07-29T07:38:22Z</time>
      </trkpt>
      <trkpt lat="41.27245" lon="-0.48451">
        <time>2022-07-29T07:38:23Z</time>
      </trkpt>
      <trkpt lat="41.27271" lon="-0.48457">
        <time>2022-07-29T07:38:24Z</time>
      </trkpt>
      <trkpt lat="41.27297" lon="-0.48465">
        <time>2022-07-29T07:38:25Z</time>
      </trkpt>
      <trkpt lat="41.27322" lon="-0.48475">
        <time>2022-07-29T07:38:26Z</time>
      </trkpt>
      <trkpt lat="41.27347" lon="-0.48486">
        <time>2022-07-29T07:38:27Z</time>
      </trkpt>
      <trkpt lat="41.27373" lon="-0.48497">
        <time>2022-07-29T07:38:28Z</time>
      </trkpt>
      <trkpt lat="41.27399" lon="-0.4851">
        <time>2022-07-29T07:38:29Z</time>
      </trkpt>
      <trkpt lat="41.27424" lon="-0.48522">
        <time>2022-07-29T07:38:30Z</time>
      </trkpt>
      <trkpt lat="41.27451" lon="-0.48534">
        <time>2022-07-29T07:38:31Z</time>
      </trkpt>
      <trkpt lat="41.27477" lon="-0.48547">
        <time>2022-07-29T07:38:32Z</time>
      </trkpt>
      <trkpt lat="41.27503" lon="-0.4856">
        <time>2022-07-29T07:38:33Z</time>
      </trkpt>
      <trkpt lat="41.27531" lon="-0.48572">
        <time>2022-07-29T07:38:34Z</time>
      </trkpt>
      <trkpt lat="41.27558" lon="-0.48584">
        <time>2022-07-29T07:38:35Z</time>
      </trkpt>
      <trkpt lat="41.27585" lon="-0.48597">
        <time>2022-07-29T07:38:36Z</time>
      </trkpt>
      <trkpt lat="41.27612" lon="-0.48609">
        <time>2022-07-29T07:38:37Z</time>
      </trkpt>
      <trkpt lat="41.27639" lon="-0.48621">
        <time>2022-07-29T07:38:38Z</time>
      </trkpt>
      <trkpt lat="41.27666" lon="-0.48632">
        <time>2022-07-29T07:38:39Z</time>
      </trkpt>
      <trkpt lat="41.27694" lon="-0.48643">
        <time>2022-07-29T07:38:40Z</time>
      </trkpt>
      <trkpt lat="41.27721" lon="-0.48654">
        <time>2022-07-29T07:38:41Z</time>
      </trkpt>
      <trkpt lat="41.27747" lon="-0.48665">
        <time>2022-07-29T07:38:42Z</time>
      </trkpt>
      <trkpt lat="41.27774" lon="-0.48676">
        <time>2022-07-29T07:38:43Z</time>
      </trkpt>
      <trkpt lat="41.278" lon="-0.48686">
        <time>2022-07-29T07:38:44Z</time>
      </trkpt>
      <trkpt lat="41.27826" lon="-0.48696">
        <time>2022-07-29T07:38:45Z</time>
      </trkpt>
      <trkpt lat="41.27851" lon="-0.48707">
        <time>2022-07-29T07:38:46Z</time>
      </trkpt>
      <trkpt lat="41.27877" lon="-0.48717">
        <time>2022-07-29T07:38:47Z</time>
      </trkpt>
      <trkpt lat="41.27902" lon="-0.48727">
        <time>2022-07-29T07:38:48Z</time>
      </trkpt>
      <trkpt lat="41.27927" lon="-0.48737">
        <time>2022-07-29T07:38:49Z</time>
      </trkpt>
      <trkpt lat="41.27953" lon="-0.48747">
        <time>2022-07-29T07:38:50Z</time>
      </trkpt>
      <trkpt lat="41.27979" lon="-0.48757">
        <time>2022-07-29T07:38:51Z</time>
      </trkpt>
      <trkpt lat="41.28004" lon="-0.48767">
        <time>2022-07-29T07:38:52Z</time>
      </trkpt>
      <trkpt lat="41.2803" lon="-0.48777">
        <time>2022-07-29T07:38:53Z</time>
      </trkpt>
      <trkpt lat="41.28056" lon="-0.48787">
        <time>2022-07-29T07:38:54Z</time>
      </trkpt>
      <trkpt lat="41.28082" lon="-0.48797">
        <time>2022-07-29T07:38:55Z</time>
      </trkpt>
      <trkpt lat="41.28109" lon="-0.48807">
        <time>2022-07-29T07:38:56Z</time>
      </trkpt>
      <trkpt lat="41.28136" lon="-0.48817">
        <time>2022-07-29T07:38:57Z</time>
      </trkpt>
      <trkpt lat="41.28162" lon="-0.48827">
        <time>2022-07-29T07:38:58Z</time>
      </trkpt>
      <trkpt lat="41.28189" lon="-0.48837">
        <time>2022-07-29T07:38:59Z</time>
      </trkpt>
      <trkpt lat="41.28215" lon="-0.48848">
        <time>2022-07-29T07:39:00Z</time>
      </trkpt>
      <trkpt lat="41.28241" lon="-0.48858">
        <time>2022-07-29T07:39:01Z</time>
      </trkpt>
      <trkpt lat="41.28268" lon="-0.48869">
        <time>2022-07-29T07:39:02Z</time>
      </trkpt>
      <trkpt lat="41.28293" lon="-0.4888">
        <time>2022-07-29T07:39:03Z</time>
      </trkpt>
      <trkpt lat="41.28319" lon="-0.4889">
        <time>2022-07-29T07:39:04Z</time>
      </trkpt>
      <trkpt lat="41.28345" lon="-0.48901">
        <time>2022-07-29T07:39:05Z</time>
      </trkpt>
      <trkpt lat="41.28369" lon="-0.48913">
        <time>2022-07-29T07:39:06Z</time>
      </trkpt>
      <trkpt lat="41.28394" lon="-0.48925">
        <time>2022-07-29T07:39:07Z</time>
      </trkpt>
      <trkpt lat="41.28418" lon="-0.48939">
        <time>2022-07-29T07:39:08Z</time>
      </trkpt>
      <trkpt lat="41.28442" lon="-0.48954">
        <time>2022-07-29T07:39:09Z</time>
      </trkpt>
      <trkpt lat="41.28464" lon="-0.48972">
        <time>2022-07-29T07:39:10Z</time>
      </trkpt>
      <trkpt lat="41.28486" lon="-0.48992">
        <time>2022-07-29T07:39:11Z</time>
      </trkpt>
      <trkpt lat="41.28507" lon="-0.49012">
        <time>2022-07-29T07:39:12Z</time>
      </trkpt>
      <trkpt lat="41.28528" lon="-0.49033">
        <time>2022-07-29T07:39:13Z</time>
      </trkpt>
      <trkpt lat="41.2855" lon="-0.49054">
        <time>2022-07-29T07:39:14Z</time>
      </trkpt>
      <trkpt lat="41.28571" lon="-0.49075">
        <time>2022-07-29T07:39:15Z</time>
      </trkpt>
      <trkpt lat="41.28592" lon="-0.49097">
        <time>2022-07-29T07:39:16Z</time>
      </trkpt>
      <trkpt lat="41.28613" lon="-0.49117">
        <time>2022-07-29T07:39:17Z</time>
      </trkpt>
      <trkpt lat="41.28633" lon="-0.49136">
        <time>2022-07-29T07:39:18Z</time>
      </trkpt>
      <trkpt lat="41.28653" lon="-0.49156">
        <time>2022-07-29T07:39:19Z</time>
      </trkpt>
      <trkpt lat="41.28672" lon="-0.49174">
        <time>2022-07-29T07:39:20Z</time>
      </trkpt>
      <trkpt lat="41.2869" lon="-0.49191">
        <time>2022-07-29T07:39:21Z</time>
      </trkpt>
      <trkpt lat="41.28709" lon="-0.49207">
        <time>2022-07-29T07:39:22Z</time>
      </trkpt>
      <trkpt lat="41.28726" lon="-0.49222">
        <time>2022-07-29T07:39:23Z</time>
      </trkpt>
      <trkpt lat="41.28744" lon="-0.49237">
        <time>2022-07-29T07:39:24Z</time>
      </trkpt>
      <trkpt lat="41.2876" lon="-0.49249">
        <time>2022-07-29T07:39:25Z</time>
      </trkpt>
      <trkpt lat="41.28777" lon="-0.49259">
        <time>2022-07-29T07:39:26Z</time>
      </trkpt>
      <trkpt lat="41.28793" lon="-0.49269">
        <time>2022-07-29T07:39:27Z</time>
      </trkpt>
      <trkpt lat="41.28809" lon="-0.49277">
        <time>2022-07-29T07:39:28Z</time>
      </trkpt>
      <trkpt lat="41.28825" lon="-0.49285">
        <time>2022-07-29T07:39:29Z</time>
      </trkpt>
      <trkpt lat="41.28841" lon="-0.49293">
        <time>2022-07-29T07:39:30Z</time>
      </trkpt>
      <trkpt lat="41.28857" lon="-0.49301">
        <time>2022-07-29T07:39:31Z</time>
      </trkpt>
      <trkpt lat="41.28873" lon="-0.49309">
        <time>2022-07-29T07:39:32Z</time>
      </trkpt>
      <trkpt lat="41.28888" lon="-0.49316">
        <time>2022-07-29T07:39:33Z</time>
      </trkpt>
      <trkpt lat="41.28903" lon="-0.49322">
        <time>2022-07-29T07:39:34Z</time>
      </trkpt>
      <trkpt lat="41.28917" lon="-0.49329">
        <time>2022-07-29T07:39:35Z</time>
      </trkpt>
      <trkpt lat="41.28931" lon="-0.49335">
        <time>2022-07-29T07:39:36Z</time>
      </trkpt>
      <trkpt lat="41.28944" lon="-0.49341">
        <time>2022-07-29T07:39:37Z</time>
      </trkpt>
      <trkpt lat="41.28957" lon="-0.49348">
        <time>2022-07-29T07:39:38Z</time>
      </trkpt>
      <trkpt lat="41.2897" lon="-0.49355">
        <time>2022-07-29T07:39:39Z</time>
      </trkpt>
      <trkpt lat="41.28983" lon="-0.49361">
        <time>2022-07-29T07:39:40Z</time>
      </trkpt>
      <trkpt lat="41.28996" lon="-0.49367">
        <time>2022-07-29T07:39:41Z</time>
      </trkpt>
      <trkpt lat="41.29008" lon="-0.49373">
        <time>2022-07-29T07:39:42Z</time>
      </trkpt>
      <trkpt lat="41.29019" lon="-0.49378">
        <time>2022-07-29T07:39:43Z</time>
      </trkpt>
      <trkpt lat="41.29031" lon="-0.49384">
        <time>2022-07-29T07:39:44Z</time>
      </trkpt>
      <trkpt lat="41.29042" lon="-0.49389">
        <time>2022-07-29T07:39:45Z</time>
      </trkpt>
      <trkpt lat="41.29053" lon="-0.49394">
        <time>2022-07-29T07:39:46Z</time>
      </trkpt>
      <trkpt lat="41.29062" lon="-0.49399">
        <time>2022-07-29T07:39:47Z</time>
      </trkpt>
      <trkpt lat="41.29073" lon="-0.49403">
        <time>2022-07-29T07:39:48Z</time>
      </trkpt>
      <trkpt lat="41.29082" lon="-0.49408">
        <time>2022-07-29T07:39:49Z</time>
      </trkpt>
      <trkpt lat="41.29089" lon="-0.49416">
        <time>2022-07-29T07:39:50Z</time>
      </trkpt>
      <trkpt lat="41.29093" lon="-0.49428">
        <time>2022-07-29T07:39:51Z</time>
      </trkpt>
      <trkpt lat="41.29096" lon="-0.49439">
        <time>2022-07-29T07:39:52Z</time>
      </trkpt>
      <trkpt lat="41.291" lon="-0.49449">
        <time>2022-07-29T07:39:53Z</time>
      </trkpt>
      <trkpt lat="41.29107" lon="-0.49458">
        <time>2022-07-29T07:39:54Z</time>
      </trkpt>
      <trkpt lat="41.29116" lon="-0.49461">
        <time>2022-07-29T07:39:55Z</time>
      </trkpt>
      <trkpt lat="41.29125" lon="-0.4946">
        <time>2022-07-29T07:39:56Z</time>
      </trkpt>
      <trkpt lat="41.29134" lon="-0.49454">
        <time>2022-07-29T07:39:57Z</time>
      </trkpt>
      <trkpt lat="41.29143" lon="-0.49447">
        <time>2022-07-29T07:39:58Z</time>
      </trkpt>
      <trkpt lat="41.29152" lon="-0.49441">
        <time>2022-07-29T07:39:59Z</time>
      </trkpt>
      <trkpt lat="41.29163" lon="-0.49439">
        <time>2022-07-29T07:40:00Z</time>
      </trkpt>
      <trkpt lat="41.29173" lon="-0.49441">
        <time>2022-07-29T07:40:01Z</time>
      </trkpt>
      <trkpt lat="41.29184" lon="-0.49447">
        <time>2022-07-29T07:40:02Z</time>
      </trkpt>
      <trkpt lat="41.29195" lon="-0.49458">
        <time>2022-07-29T07:40:03Z</time>
      </trkpt>
      <trkpt lat="41.29203" lon="-0.49474">
        <time>2022-07-29T07:40:04Z</time>
      </trkpt>
      <trkpt lat="41.2921" lon="-0.4949">
        <time>2022-07-29T07:40:05Z</time>
      </trkpt>
      <trkpt lat="41.29217" lon="-0.49505">
        <time>2022-07-29T07:40:06Z</time>
      </trkpt>
      <trkpt lat="41.29225" lon="-0.49518">
        <time>2022-07-29T07:40:07Z</time>
      </trkpt>
      <trkpt lat="41.29235" lon="-0.49529">
        <time>2022-07-29T07:40:08Z</time>
      </trkpt>
      <trkpt lat="41.29246" lon="-0.49537">
        <time>2022-07-29T07:40:09Z</time>
      </trkpt>
      <trkpt lat="41.29258" lon="-0.49542">
        <time>2022-07-29T07:40:10Z</time>
      </trkpt>
      <trkpt lat="41.29271" lon="-0.49548">
        <time>2022-07-29T07:40:11Z</time>
      </trkpt>
      <trkpt lat="41.29282" lon="-0.49557">
        <time>2022-07-29T07:40:12Z</time>
      </trkpt>
      <trkpt lat="41.29291" lon="-0.4957">
        <time>2022-07-29T07:40:13Z</time>
      </trkpt>
      <trkpt lat="41.29299" lon="-0.49583">
        <time>2022-07-29T07:40:14Z</time>
      </trkpt>
      <trkpt lat="41.29307" lon="-0.49595">
        <time>2022-07-29T07:40:15Z</time>
      </trkpt>
      <trkpt lat="41.29317" lon="-0.49603">
        <time>2022-07-29T07:40:16Z</time>
      </trkpt>
      <trkpt lat="41.29327" lon="-0.49606">
        <time>2022-07-29T07:40:17Z</time>
      </trkpt>
      <trkpt lat="41.29337" lon="-0.49605">
        <time>2022-07-29T07:40:18Z</time>
      </trkpt>
      <trkpt lat="41.29345" lon="-0.49598">
        <time>2022-07-29T07:40:19Z</time>
      </trkpt>
      <trkpt lat="41.29354" lon="-0.49586">
        <time>2022-07-29T07:40:20Z</time>
      </trkpt>
      <trkpt lat="41.29362" lon="-0.49571">
        <time>2022-07-29T07:40:21Z</time>
      </trkpt>
      <trkpt lat="41.29371" lon="-0.49554">
        <time>2022-07-29T07:40:22Z</time>
      </trkpt>
      <trkpt lat="41.29379" lon="-0.49536">
        <time>2022-07-29T07:40:23Z</time>
      </trkpt>
      <trkpt lat="41.29388" lon="-0.49518">
        <time>2022-07-29T07:40:24Z</time>
      </trkpt>
      <trkpt lat="41.29397" lon="-0.49499">
        <time>2022-07-29T07:40:25Z</time>
      </trkpt>
      <trkpt lat="41.29407" lon="-0.4948">
        <time>2022-07-29T07:40:26Z</time>
      </trkpt>
      <trkpt lat="41.29418" lon="-0.49462">
        <time>2022-07-29T07:40:27Z</time>
      </trkpt>
      <trkpt lat="41.29429" lon="-0.49443">
        <time>2022-07-29T07:40:28Z</time>
      </trkpt>
      <trkpt lat="41.2944" lon="-0.49424">
        <time>2022-07-29T07:40:29Z</time>
      </trkpt>
      <trkpt lat="41.29451" lon="-0.49406">
        <time>2022-07-29T07:40:30Z</time>
      </trkpt>
      <trkpt lat="41.29463" lon="-0.49388">
        <time>2022-07-29T07:40:31Z</time>
      </trkpt>
      <trkpt lat="41.29474" lon="-0.4937">
        <time>2022-07-29T07:40:32Z</time>
      </trkpt>
      <trkpt lat="41.29485" lon="-0.49351">
        <time>2022-07-29T07:40:33Z</time>
      </trkpt>
      <trkpt lat="41.29497" lon="-0.49332">
        <time>2022-07-29T07:40:34Z</time>
      </trkpt>
      <trkpt lat="41.29507" lon="-0.49313">
        <time>2022-07-29T07:40:35Z</time>
      </trkpt>
      <trkpt lat="41.29515" lon="-0.49293">
        <time>2022-07-29T07:40:36Z</time>
      </trkpt>
      <trkpt lat="41.29521" lon="-0.4927">
        <time>2022-07-29T07:40:37Z</time>
      </trkpt>
      <trkpt lat="41.29528" lon="-0.49248">
        <time>2022-07-29T07:40:38Z</time>
      </trkpt>
      <trkpt lat="41.29535" lon="-0.49226">
        <time>2022-07-29T07:40:39Z</time>
      </trkpt>
      <trkpt lat="41.29544" lon="-0.49206">
        <time>2022-07-29T07:40:40Z</time>
      </trkpt>
      <trkpt lat="41.29556" lon="-0.49188">
        <time>2022-07-29T07:40:41Z</time>
      </trkpt>
      <trkpt lat="41.2957" lon="-0.49173">
        <time>2022-07-29T07:40:42Z</time>
      </trkpt>
      <trkpt lat="41.29585" lon="-0.4916">
        <time>2022-07-29T07:40:43Z</time>
      </trkpt>
      <trkpt lat="41.29602" lon="-0.49152">
        <time>2022-07-29T07:40:44Z</time>
      </trkpt>
      <trkpt lat="41.2962" lon="-0.49146">
        <time>2022-07-29T07:40:45Z</time>
      </trkpt>
      <trkpt lat="41.2964" lon="-0.49146">
        <time>2022-07-29T07:40:46Z</time>
      </trkpt>
      <trkpt lat="41.2966" lon="-0.49149">
        <time>2022-07-29T07:40:47Z</time>
      </trkpt>
      <trkpt lat="41.2968" lon="-0.49155">
        <time>2022-07-29T07:40:48Z</time>
      </trkpt>
      <trkpt lat="41.29701" lon="-0.49164">
        <time>2022-07-29T07:40:49Z</time>
      </trkpt>
      <trkpt lat="41.29723" lon="-0.49174">
        <time>2022-07-29T07:40:50Z</time>
      </trkpt>
      <trkpt lat="41.29747" lon="-0.49183">
        <time>2022-07-29T07:40:51Z</time>
      </trkpt>
      <trkpt lat="41.2977" lon="-0.49193">
        <time>2022-07-29T07:40:52Z</time>
      </trkpt>
      <trkpt lat="41.29793" lon="-0.49203">
        <time>2022-07-29T07:40:53Z</time>
      </trkpt>
      <trkpt lat="41.29816" lon="-0.49213">
        <time>2022-07-29T07:40:54Z</time>
      </trkpt>
      <trkpt lat="41.2984" lon="-0.49223">
        <time>2022-07-29T07:40:55Z</time>
      </trkpt>
      <trkpt lat="41.29863" lon="-0.49234">
        <time>2022-07-29T07:40:56Z</time>
      </trkpt>
      <trkpt lat="41.29887" lon="-0.49244">
        <time>2022-07-29T07:40:57Z</time>
      </trkpt>
      <trkpt lat="41.29911" lon="-0.49255">
        <time>2022-07-29T07:40:58Z</time>
      </trkpt>
      <trkpt lat="41.29936" lon="-0.49265">
        <time>2022-07-29T07:40:59Z</time>
      </trkpt>
      <trkpt lat="41.2996" lon="-0.49275">
        <time>2022-07-29T07:41:00Z</time>
      </trkpt>
      <trkpt lat="41.29985" lon="-0.49286">
        <time>2022-07-29T07:41:01Z</time>
      </trkpt>
      <trkpt lat="41.30009" lon="-0.49296">
        <time>2022-07-29T07:41:02Z</time>
      </trkpt>
      <trkpt lat="41.30033" lon="-0.49307">
        <time>2022-07-29T07:41:03Z</time>
      </trkpt>
      <trkpt lat="41.30058" lon="-0.49317">
        <time>2022-07-29T07:41:04Z</time>
      </trkpt>
      <trkpt lat="41.30082" lon="-0.49327">
        <time>2022-07-29T07:41:05Z</time>
      </trkpt>
      <trkpt lat="41.30107" lon="-0.49337">
        <time>2022-07-29T07:41:06Z</time>
      </trkpt>
      <trkpt lat="41.30132" lon="-0.49347">
        <time>2022-07-29T07:41:07Z</time>
      </trkpt>
      <trkpt lat="41.30155" lon="-0.49357">
        <time>2022-07-29T07:41:08Z</time>
      </trkpt>
      <trkpt lat="41.3018" lon="-0.49368">
        <time>2022-07-29T07:41:09Z</time>
      </trkpt>
      <trkpt lat="41.30203" lon="-0.49378">
        <time>2022-07-29T07:41:10Z</time>
      </trkpt>
      <trkpt lat="41.30227" lon="-0.49389">
        <time>2022-07-29T07:41:11Z</time>
      </trkpt>
      <trkpt lat="41.30251" lon="-0.49399">
        <time>2022-07-29T07:41:12Z</time>
      </trkpt>
      <trkpt lat="41.30275" lon="-0.49409">
        <time>2022-07-29T07:41:13Z</time>
      </trkpt>
      <trkpt lat="41.30298" lon="-0.4942">
        <time>2022-07-29T07:41:14Z</time>
      </trkpt>
      <trkpt lat="41.30321" lon="-0.49432">
        <time>2022-07-29T07:41:15Z</time>
      </trkpt>
      <trkpt lat="41.30344" lon="-0.49443">
        <time>2022-07-29T07:41:16Z</time>
      </trkpt>
      <trkpt lat="41.30367" lon="-0.49456">
        <time>2022-07-29T07:41:17Z</time>
      </trkpt>
      <trkpt lat="41.3039" lon="-0.49469">
        <time>2022-07-29T07:41:18Z</time>
      </trkpt>
      <trkpt lat="41.30413" lon="-0.49484">
        <time>2022-07-29T07:41:19Z</time>
      </trkpt>
      <trkpt lat="41.30436" lon="-0.495">
        <time>2022-07-29T07:41:20Z</time>
      </trkpt>
      <trkpt lat="41.30458" lon="-0.49515">
        <time>2022-07-29T07:41:21Z</time>
      </trkpt>
      <trkpt lat="41.30482" lon="-0.49531">
        <time>2022-07-29T07:41:22Z</time>
      </trkpt>
      <trkpt lat="41.30504" lon="-0.49547">
        <time>2022-07-29T07:41:23Z</time>
      </trkpt>
      <trkpt lat="41.30528" lon="-0.49564">
        <time>2022-07-29T07:41:24Z</time>
      </trkpt>
      <trkpt lat="41.30551" lon="-0.49579">
        <time>2022-07-29T07:41:25Z</time>
      </trkpt>
      <trkpt lat="41.30575" lon="-0.49595">
        <time>2022-07-29T07:41:26Z</time>
      </trkpt>
      <trkpt lat="41.30599" lon="-0.49611">
        <time>2022-07-29T07:41:27Z</time>
      </trkpt>
      <trkpt lat="41.30623" lon="-0.49627">
        <time>2022-07-29T07:41:28Z</time>
      </trkpt>
      <trkpt lat="41.30647" lon="-0.49644">
        <time>2022-07-29T07:41:29Z</time>
      </trkpt>
      <trkpt lat="41.30671" lon="-0.49661">
        <time>2022-07-29T07:41:30Z</time>
      </trkpt>
      <trkpt lat="41.30695" lon="-0.49678">
        <time>2022-07-29T07:41:31Z</time>
      </trkpt>
      <trkpt lat="41.30719" lon="-0.49695">
        <time>2022-07-29T07:41:32Z</time>
      </trkpt>
      <trkpt lat="41.30743" lon="-0.49712">
        <time>2022-07-29T07:41:33Z</time>
      </trkpt>
      <trkpt lat="41.30768" lon="-0.4973">
        <time>2022-07-29T07:41:34Z</time>
      </trkpt>
      <trkpt lat="41.30793" lon="-0.49747">
        <time>2022-07-29T07:41:35Z</time>
      </trkpt>
      <trkpt lat="41.30817" lon="-0.49765">
        <time>2022-07-29T07:41:36Z</time>
      </trkpt>
      <trkpt lat="41.30842" lon="-0.49782">
        <time>2022-07-29T07:41:37Z</time>
      </trkpt>
      <trkpt lat="41.30867" lon="-0.49799">
        <time>2022-07-29T07:41:38Z</time>
      </trkpt>
      <trkpt lat="41.30892" lon="-0.49817">
        <time>2022-07-29T07:41:39Z</time>
      </trkpt>
      <trkpt lat="41.30917" lon="-0.49835">
        <time>2022-07-29T07:41:40Z</time>
      </trkpt>
      <trkpt lat="41.30942" lon="-0.49853">
        <time>2022-07-29T07:41:41Z</time>
      </trkpt>
      <trkpt lat="41.30967" lon="-0.49871">
        <time>2022-07-29T07:41:42Z</time>
      </trkpt>
      <trkpt lat="41.30992" lon="-0.49888">
        <time>2022-07-29T07:41:43Z</time>
      </trkpt>
      <trkpt lat="41.31017" lon="-0.49906">
        <time>2022-07-29T07:41:44Z</time>
      </trkpt>
      <trkpt lat="41.31042" lon="-0.49924">
        <time>2022-07-29T07:41:45Z</time>
      </trkpt>
      <trkpt lat="41.31067" lon="-0.49942">
        <time>2022-07-29T07:41:46Z</time>
      </trkpt>
      <trkpt lat="41.31092" lon="-0.49959">
        <time>2022-07-29T07:41:47Z</time>
      </trkpt>
      <trkpt lat="41.31117" lon="-0.49977">
        <time>2022-07-29T07:41:48Z</time>
      </trkpt>
      <trkpt lat="41.31142" lon="-0.49995">
        <time>2022-07-29T07:41:49Z</time>
      </trkpt>
      <trkpt lat="41.31166" lon="-0.50012">
        <time>2022-07-29T07:41:50Z</time>
      </trkpt>
      <trkpt lat="41.3119" lon="-0.50029">
        <time>2022-07-29T07:41:51Z</time>
      </trkpt>
      <trkpt lat="41.31213" lon="-0.50045">
        <time>2022-07-29T07:41:52Z</time>
      </trkpt>
      <trkpt lat="41.31237" lon="-0.50062">
        <time>2022-07-29T07:41:53Z</time>
      </trkpt>
      <trkpt lat="41.31261" lon="-0.50078">
        <time>2022-07-29T07:41:54Z</time>
      </trkpt>
      <trkpt lat="41.31286" lon="-0.50093">
        <time>2022-07-29T07:41:55Z</time>
      </trkpt>
      <trkpt lat="41.31311" lon="-0.50106">
        <time>2022-07-29T07:41:56Z</time>
      </trkpt>
      <trkpt lat="41.31338" lon="-0.50116">
        <time>2022-07-29T07:41:57Z</time>
      </trkpt>
      <trkpt lat="41.31365" lon="-0.50124">
        <time>2022-07-29T07:41:58Z</time>
      </trkpt>
      <trkpt lat="41.31393" lon="-0.50131">
        <time>2022-07-29T07:41:59Z</time>
      </trkpt>
      <trkpt lat="41.31421" lon="-0.50135">
        <time>2022-07-29T07:42:00Z</time>
      </trkpt>
      <trkpt lat="41.3145" lon="-0.50139">
        <time>2022-07-29T07:42:01Z</time>
      </trkpt>
      <trkpt lat="41.31479" lon="-0.50142">
        <time>2022-07-29T07:42:02Z</time>
      </trkpt>
      <trkpt lat="41.31509" lon="-0.50144">
        <time>2022-07-29T07:42:03Z</time>
      </trkpt>
      <trkpt lat="41.31538" lon="-0.50147">
        <time>2022-07-29T07:42:04Z</time>
      </trkpt>
      <trkpt lat="41.31567" lon="-0.50149">
        <time>2022-07-29T07:42:05Z</time>
      </trkpt>
      <trkpt lat="41.31596" lon="-0.50152">
        <time>2022-07-29T07:42:06Z</time>
      </trkpt>
      <trkpt lat="41.31625" lon="-0.50154">
        <time>2022-07-29T07:42:07Z</time>
      </trkpt>
      <trkpt lat="41.31654" lon="-0.50157">
        <time>2022-07-29T07:42:08Z</time>
      </trkpt>
      <trkpt lat="41.31683" lon="-0.5016">
        <time>2022-07-29T07:42:09Z</time>
      </trkpt>
      <trkpt lat="41.31711" lon="-0.50162">
        <time>2022-07-29T07:42:10Z</time>
      </trkpt>
      <trkpt lat="41.31739" lon="-0.50165">
        <time>2022-07-29T07:42:11Z</time>
      </trkpt>
      <trkpt lat="41.31767" lon="-0.50167">
        <time>2022-07-29T07:42:12Z</time>
      </trkpt>
      <trkpt lat="41.31795" lon="-0.50169">
        <time>2022-07-29T07:42:13Z</time>
      </trkpt>
      <trkpt lat="41.31822" lon="-0.50172">
        <time>2022-07-29T07:42:14Z</time>
      </trkpt>
      <trkpt lat="41.31849" lon="-0.50174">
        <time>2022-07-29T07:42:15Z</time>
      </trkpt>
      <trkpt lat="41.31877" lon="-0.50176">
        <time>2022-07-29T07:42:16Z</time>
      </trkpt>
      <trkpt lat="41.31904" lon="-0.50179">
        <time>2022-07-29T07:42:17Z</time>
      </trkpt>
      <trkpt lat="41.31932" lon="-0.50181">
        <time>2022-07-29T07:42:18Z</time>
      </trkpt>
      <trkpt lat="41.31959" lon="-0.50183">
        <time>2022-07-29T07:42:19Z</time>
      </trkpt>
      <trkpt lat="41.31986" lon="-0.50186">
        <time>2022-07-29T07:42:20Z</time>
      </trkpt>
      <trkpt lat="41.32013" lon="-0.50188">
        <time>2022-07-29T07:42:21Z</time>
      </trkpt>
      <trkpt lat="41.3204" lon="-0.50191">
        <time>2022-07-29T07:42:22Z</time>
      </trkpt>
      <trkpt lat="41.32067" lon="-0.50192">
        <time>2022-07-29T07:42:23Z</time>
      </trkpt>
      <trkpt lat="41.32093" lon="-0.50193">
        <time>2022-07-29T07:42:24Z</time>
      </trkpt>
      <trkpt lat="41.3212" lon="-0.50191">
        <time>2022-07-29T07:42:25Z</time>
      </trkpt>
      <trkpt lat="41.32147" lon="-0.50187">
        <time>2022-07-29T07:42:26Z</time>
      </trkpt>
      <trkpt lat="41.32174" lon="-0.50181">
        <time>2022-07-29T07:42:27Z</time>
      </trkpt>
      <trkpt lat="41.32201" lon="-0.50172">
        <time>2022-07-29T07:42:28Z</time>
      </trkpt>
      <trkpt lat="41.32227" lon="-0.50161">
        <time>2022-07-29T07:42:29Z</time>
      </trkpt>
      <trkpt lat="41.32254" lon="-0.50147">
        <time>2022-07-29T07:42:30Z</time>
      </trkpt>
      <trkpt lat="41.3228" lon="-0.50133">
        <time>2022-07-29T07:42:31Z</time>
      </trkpt>
      <trkpt lat="41.32306" lon="-0.50117">
        <time>2022-07-29T07:42:32Z</time>
      </trkpt>
      <trkpt lat="41.32331" lon="-0.50102">
        <time>2022-07-29T07:42:33Z</time>
      </trkpt>
      <trkpt lat="41.32357" lon="-0.50087">
        <time>2022-07-29T07:42:34Z</time>
      </trkpt>
      <trkpt lat="41.32383" lon="-0.50075">
        <time>2022-07-29T07:42:35Z</time>
      </trkpt>
      <trkpt lat="41.32409" lon="-0.50062">
        <time>2022-07-29T07:42:36Z</time>
      </trkpt>
      <trkpt lat="41.32436" lon="-0.50053">
        <time>2022-07-29T07:42:37Z</time>
      </trkpt>
      <trkpt lat="41.32462" lon="-0.50047">
        <time>2022-07-29T07:42:38Z</time>
      </trkpt>
      <trkpt lat="41.32489" lon="-0.50043">
        <time>2022-07-29T07:42:39Z</time>
      </trkpt>
      <trkpt lat="41.32515" lon="-0.50041">
        <time>2022-07-29T07:42:40Z</time>
      </trkpt>
      <trkpt lat="41.32541" lon="-0.50041">
        <time>2022-07-29T07:42:41Z</time>
      </trkpt>
      <trkpt lat="41.32568" lon="-0.50043">
        <time>2022-07-29T07:42:42Z</time>
      </trkpt>
      <trkpt lat="41.32595" lon="-0.50047">
        <time>2022-07-29T07:42:43Z</time>
      </trkpt>
      <trkpt lat="41.32621" lon="-0.50053">
        <time>2022-07-29T07:42:44Z</time>
      </trkpt>
      <trkpt lat="41.32648" lon="-0.5006">
        <time>2022-07-29T07:42:45Z</time>
      </trkpt>
      <trkpt lat="41.32674" lon="-0.50067">
        <time>2022-07-29T07:42:46Z</time>
      </trkpt>
      <trkpt lat="41.327" lon="-0.50073">
        <time>2022-07-29T07:42:47Z</time>
      </trkpt>
      <trkpt lat="41.32726" lon="-0.5008">
        <time>2022-07-29T07:42:48Z</time>
      </trkpt>
      <trkpt lat="41.32752" lon="-0.50086">
        <time>2022-07-29T07:42:49Z</time>
      </trkpt>
      <trkpt lat="41.32778" lon="-0.50092">
        <time>2022-07-29T07:42:50Z</time>
      </trkpt>
      <trkpt lat="41.32804" lon="-0.50095">
        <time>2022-07-29T07:42:51Z</time>
      </trkpt>
      <trkpt lat="41.3283" lon="-0.50098">
        <time>2022-07-29T07:42:52Z</time>
      </trkpt>
      <trkpt lat="41.32857" lon="-0.50098">
        <time>2022-07-29T07:42:53Z</time>
      </trkpt>
      <trkpt lat="41.32884" lon="-0.50096">
        <time>2022-07-29T07:42:54Z</time>
      </trkpt>
      <trkpt lat="41.32911" lon="-0.50092">
        <time>2022-07-29T07:42:55Z</time>
      </trkpt>
      <trkpt lat="41.32937" lon="-0.50086">
        <time>2022-07-29T07:42:56Z</time>
      </trkpt>
      <trkpt lat="41.32964" lon="-0.50077">
        <time>2022-07-29T07:42:57Z</time>
      </trkpt>
      <trkpt lat="41.3299" lon="-0.50066">
        <time>2022-07-29T07:42:58Z</time>
      </trkpt>
      <trkpt lat="41.33014" lon="-0.50052">
        <time>2022-07-29T07:42:59Z</time>
      </trkpt>
      <trkpt lat="41.33038" lon="-0.50036">
        <time>2022-07-29T07:43:00Z</time>
      </trkpt>
      <trkpt lat="41.33062" lon="-0.50017">
        <time>2022-07-29T07:43:01Z</time>
      </trkpt>
      <trkpt lat="41.33085" lon="-0.49996">
        <time>2022-07-29T07:43:02Z</time>
      </trkpt>
      <trkpt lat="41.33106" lon="-0.49974">
        <time>2022-07-29T07:43:03Z</time>
      </trkpt>
      <trkpt lat="41.33126" lon="-0.49951">
        <time>2022-07-29T07:43:04Z</time>
      </trkpt>
      <trkpt lat="41.33145" lon="-0.49928">
        <time>2022-07-29T07:43:05Z</time>
      </trkpt>
      <trkpt lat="41.33164" lon="-0.49905">
        <time>2022-07-29T07:43:06Z</time>
      </trkpt>
      <trkpt lat="41.33184" lon="-0.49883">
        <time>2022-07-29T07:43:07Z</time>
      </trkpt>
      <trkpt lat="41.33204" lon="-0.49862">
        <time>2022-07-29T07:43:08Z</time>
      </trkpt>
      <trkpt lat="41.33226" lon="-0.49842">
        <time>2022-07-29T07:43:09Z</time>
      </trkpt>
      <trkpt lat="41.33248" lon="-0.49823">
        <time>2022-07-29T07:43:10Z</time>
      </trkpt>
      <trkpt lat="41.33271" lon="-0.49805">
        <time>2022-07-29T07:43:11Z</time>
      </trkpt>
      <trkpt lat="41.33295" lon="-0.49789">
        <time>2022-07-29T07:43:12Z</time>
      </trkpt>
      <trkpt lat="41.33321" lon="-0.49776">
        <time>2022-07-29T07:43:13Z</time>
      </trkpt>
      <trkpt lat="41.33347" lon="-0.49767">
        <time>2022-07-29T07:43:14Z</time>
      </trkpt>
      <trkpt lat="41.33374" lon="-0.49759">
        <time>2022-07-29T07:43:15Z</time>
      </trkpt>
      <trkpt lat="41.334" lon="-0.49754">
        <time>2022-07-29T07:43:16Z</time>
      </trkpt>
      <trkpt lat="41.33427" lon="-0.4975">
        <time>2022-07-29T07:43:17Z</time>
      </trkpt>
      <trkpt lat="41.33455" lon="-0.49749">
        <time>2022-07-29T07:43:18Z</time>
      </trkpt>
      <trkpt lat="41.33483" lon="-0.4975">
        <time>2022-07-29T07:43:19Z</time>
      </trkpt>
      <trkpt lat="41.3351" lon="-0.49753">
        <time>2022-07-29T07:43:20Z</time>
      </trkpt>
      <trkpt lat="41.33538" lon="-0.49757">
        <time>2022-07-29T07:43:21Z</time>
      </trkpt>
      <trkpt lat="41.33566" lon="-0.49761">
        <time>2022-07-29T07:43:22Z</time>
      </trkpt>
      <trkpt lat="41.33594" lon="-0.49766">
        <time>2022-07-29T07:43:23Z</time>
      </trkpt>
      <trkpt lat="41.33623" lon="-0.4977">
        <time>2022-07-29T07:43:24Z</time>
      </trkpt>
      <trkpt lat="41.33651" lon="-0.49774">
        <time>2022-07-29T07:43:25Z</time>
      </trkpt>
      <trkpt lat="41.3368" lon="-0.49779">
        <time>2022-07-29T07:43:26Z</time>
      </trkpt>
      <trkpt lat="41.33708" lon="-0.49783">
        <time>2022-07-29T07:43:27Z</time>
      </trkpt>
      <trkpt lat="41.33737" lon="-0.49787">
        <time>2022-07-29T07:43:28Z</time>
      </trkpt>
      <trkpt lat="41.33766" lon="-0.49791">
        <time>2022-07-29T07:43:29Z</time>
      </trkpt>
      <trkpt lat="41.33795" lon="-0.49795">
        <time>2022-07-29T07:43:30Z</time>
      </trkpt>
      <trkpt lat="41.33823" lon="-0.49799">
        <time>2022-07-29T07:43:31Z</time>
      </trkpt>
      <trkpt lat="41.33852" lon="-0.49803">
        <time>2022-07-29T07:43:32Z</time>
      </trkpt>
      <trkpt lat="41.33881" lon="-0.49807">
        <time>2022-07-29T07:43:33Z</time>
      </trkpt>
      <trkpt lat="41.33909" lon="-0.49811">
        <time>2022-07-29T07:43:34Z</time>
      </trkpt>
      <trkpt lat="41.33938" lon="-0.49815">
        <time>2022-07-29T07:43:35Z</time>
      </trkpt>
      <trkpt lat="41.33967" lon="-0.49819">
        <time>2022-07-29T07:43:36Z</time>
      </trkpt>
      <trkpt lat="41.33996" lon="-0.49823">
        <time>2022-07-29T07:43:37Z</time>
      </trkpt>
      <trkpt lat="41.34024" lon="-0.49827">
        <time>2022-07-29T07:43:38Z</time>
      </trkpt>
      <trkpt lat="41.34053" lon="-0.49831">
        <time>2022-07-29T07:43:39Z</time>
      </trkpt>
      <trkpt lat="41.34082" lon="-0.49834">
        <time>2022-07-29T07:43:40Z</time>
      </trkpt>
      <trkpt lat="41.34111" lon="-0.49838">
        <time>2022-07-29T07:43:41Z</time>
      </trkpt>
      <trkpt lat="41.34139" lon="-0.49842">
        <time>2022-07-29T07:43:42Z</time>
      </trkpt>
      <trkpt lat="41.34167" lon="-0.49846">
        <time>2022-07-29T07:43:43Z</time>
      </trkpt>
      <trkpt lat="41.34195" lon="-0.49851">
        <time>2022-07-29T07:43:44Z</time>
      </trkpt>
      <trkpt lat="41.34223" lon="-0.49855">
        <time>2022-07-29T07:43:45Z</time>
      </trkpt>
      <trkpt lat="41.34251" lon="-0.49859">
        <time>2022-07-29T07:43:46Z</time>
      </trkpt>
      <trkpt lat="41.3428" lon="-0.49863">
        <time>2022-07-29T07:43:47Z</time>
      </trkpt>
      <trkpt lat="41.34309" lon="-0.49866">
        <time>2022-07-29T07:43:48Z</time>
      </trkpt>
      <trkpt lat="41.34337" lon="-0.4987">
        <time>2022-07-29T07:43:49Z</time>
      </trkpt>
      <trkpt lat="41.34364" lon="-0.49874">
        <time>2022-07-29T07:43:50Z</time>
      </trkpt>
      <trkpt lat="41.3439" lon="-0.49877">
        <time>2022-07-29T07:43:51Z</time>
      </trkpt>
      <trkpt lat="41.34416" lon="-0.4988">
        <time>2022-07-29T07:43:52Z</time>
      </trkpt>
      <trkpt lat="41.3444" lon="-0.49883">
        <time>2022-07-29T07:43:53Z</time>
      </trkpt>
      <trkpt lat="41.34464" lon="-0.49887">
        <time>2022-07-29T07:43:54Z</time>
      </trkpt>
      <trkpt lat="41.34487" lon="-0.49891">
        <time>2022-07-29T07:43:55Z</time>
      </trkpt>
      <trkpt lat="41.3451" lon="-0.49896">
        <time>2022-07-29T07:43:56Z</time>
      </trkpt>
      <trkpt lat="41.34533" lon="-0.49903">
        <time>2022-07-29T07:43:57Z</time>
      </trkpt>
      <trkpt lat="41.34556" lon="-0.49912">
        <time>2022-07-29T07:43:58Z</time>
      </trkpt>
      <trkpt lat="41.34578" lon="-0.49923">
        <time>2022-07-29T07:43:59Z</time>
      </trkpt>
      <trkpt lat="41.346" lon="-0.49937">
        <time>2022-07-29T07:44:00Z</time>
      </trkpt>
      <trkpt lat="41.34621" lon="-0.49953">
        <time>2022-07-29T07:44:01Z</time>
      </trkpt>
      <trkpt lat="41.34642" lon="-0.49969">
        <time>2022-07-29T07:44:02Z</time>
      </trkpt>
      <trkpt lat="41.34662" lon="-0.49985">
        <time>2022-07-29T07:44:03Z</time>
      </trkpt>
      <trkpt lat="41.34683" lon="-0.50001">
        <time>2022-07-29T07:44:04Z</time>
      </trkpt>
      <trkpt lat="41.34705" lon="-0.50015">
        <time>2022-07-29T07:44:05Z</time>
      </trkpt>
      <trkpt lat="41.34728" lon="-0.50026">
        <time>2022-07-29T07:44:06Z</time>
      </trkpt>
      <trkpt lat="41.34752" lon="-0.50033">
        <time>2022-07-29T07:44:07Z</time>
      </trkpt>
      <trkpt lat="41.34777" lon="-0.50038">
        <time>2022-07-29T07:44:08Z</time>
      </trkpt>
      <trkpt lat="41.34803" lon="-0.50038">
        <time>2022-07-29T07:44:09Z</time>
      </trkpt>
      <trkpt lat="41.34829" lon="-0.50036">
        <time>2022-07-29T07:44:10Z</time>
      </trkpt>
      <trkpt lat="41.34855" lon="-0.50029">
        <time>2022-07-29T07:44:11Z</time>
      </trkpt>
      <trkpt lat="41.3488" lon="-0.50021">
        <time>2022-07-29T07:44:12Z</time>
      </trkpt>
      <trkpt lat="41.34904" lon="-0.50013">
        <time>2022-07-29T07:44:13Z</time>
      </trkpt>
      <trkpt lat="41.34929" lon="-0.50006">
        <time>2022-07-29T07:44:14Z</time>
      </trkpt>
      <trkpt lat="41.34953" lon="-0.50001">
        <time>2022-07-29T07:44:15Z</time>
      </trkpt>
      <trkpt lat="41.34977" lon="-0.49999">
        <time>2022-07-29T07:44:16Z</time>
      </trkpt>
      <trkpt lat="41.35001" lon="-0.5">
        <time>2022-07-29T07:44:17Z</time>
      </trkpt>
      <trkpt lat="41.35026" lon="-0.50004">
        <time>2022-07-29T07:44:18Z</time>
      </trkpt>
      <trkpt lat="41.3505" lon="-0.50011">
        <time>2022-07-29T07:44:19Z</time>
      </trkpt>
      <trkpt lat="41.35073" lon="-0.50021">
        <time>2022-07-29T07:44:20Z</time>
      </trkpt>
      <trkpt lat="41.35096" lon="-0.50035">
        <time>2022-07-29T07:44:21Z</time>
      </trkpt>
      <trkpt lat="41.35118" lon="-0.50053">
        <time>2022-07-29T07:44:22Z</time>
      </trkpt>
      <trkpt lat="41.3514" lon="-0.50071">
        <time>2022-07-29T07:44:23Z</time>
      </trkpt>
      <trkpt lat="41.35162" lon="-0.50089">
        <time>2022-07-29T07:44:24Z</time>
      </trkpt>
      <trkpt lat="41.35185" lon="-0.50106">
        <time>2022-07-29T07:44:25Z</time>
      </trkpt>
      <trkpt lat="41.35209" lon="-0.50119">
        <time>2022-07-29T07:44:26Z</time>
      </trkpt>
      <trkpt lat="41.35234" lon="-0.5013">
        <time>2022-07-29T07:44:27Z</time>
      </trkpt>
      <trkpt lat="41.3526" lon="-0.50137">
        <time>2022-07-29T07:44:28Z</time>
      </trkpt>
      <trkpt lat="41.35286" lon="-0.5014">
        <time>2022-07-29T07:44:29Z</time>
      </trkpt>
      <trkpt lat="41.35313" lon="-0.50139">
        <time>2022-07-29T07:44:30Z</time>
      </trkpt>
      <trkpt lat="41.3534" lon="-0.50137">
        <time>2022-07-29T07:44:31Z</time>
      </trkpt>
      <trkpt lat="41.35367" lon="-0.50135">
        <time>2022-07-29T07:44:32Z</time>
      </trkpt>
      <trkpt lat="41.35394" lon="-0.50133">
        <time>2022-07-29T07:44:33Z</time>
      </trkpt>
      <trkpt lat="41.35421" lon="-0.50131">
        <time>2022-07-29T07:44:34Z</time>
      </trkpt>
      <trkpt lat="41.35448" lon="-0.50128">
        <time>2022-07-29T07:44:35Z</time>
      </trkpt>
      <trkpt lat="41.35475" lon="-0.50126">
        <time>2022-07-29T07:44:36Z</time>
      </trkpt>
      <trkpt lat="41.35501" lon="-0.50124">
        <time>2022-07-29T07:44:37Z</time>
      </trkpt>
      <trkpt lat="41.35527" lon="-0.50123">
        <time>2022-07-29T07:44:38Z</time>
      </trkpt>
      <trkpt lat="41.35553" lon="-0.50122">
        <time>2022-07-29T07:44:39Z</time>
      </trkpt>
      <trkpt lat="41.35579" lon="-0.50123">
        <time>2022-07-29T07:44:40Z</time>
      </trkpt>
      <trkpt lat="41.35606" lon="-0.50125">
        <time>2022-07-29T07:44:41Z</time>
      </trkpt>
      <trkpt lat="41.35632" lon="-0.5013">
        <time>2022-07-29T07:44:42Z</time>
      </trkpt>
      <trkpt lat="41.35658" lon="-0.50136">
        <time>2022-07-29T07:44:43Z</time>
      </trkpt>
      <trkpt lat="41.35685" lon="-0.50142">
        <time>2022-07-29T07:44:44Z</time>
      </trkpt>
      <trkpt lat="41.35711" lon="-0.50148">
        <time>2022-07-29T07:44:45Z</time>
      </trkpt>
      <trkpt lat="41.35738" lon="-0.50155">
        <time>2022-07-29T07:44:46Z</time>
      </trkpt>
      <trkpt lat="41.35764" lon="-0.50163">
        <time>2022-07-29T07:44:47Z</time>
      </trkpt>
      <trkpt lat="41.35791" lon="-0.5017">
        <time>2022-07-29T07:44:48Z</time>
      </trkpt>
      <trkpt lat="41.35818" lon="-0.50178">
        <time>2022-07-29T07:44:49Z</time>
      </trkpt>
      <trkpt lat="41.35845" lon="-0.50185">
        <time>2022-07-29T07:44:50Z</time>
      </trkpt>
      <trkpt lat="41.35872" lon="-0.50192">
        <time>2022-07-29T07:44:51Z</time>
      </trkpt>
      <trkpt lat="41.35899" lon="-0.502">
        <time>2022-07-29T07:44:52Z</time>
      </trkpt>
      <trkpt lat="41.35926" lon="-0.50207">
        <time>2022-07-29T07:44:53Z</time>
      </trkpt>
      <trkpt lat="41.35953" lon="-0.50214">
        <time>2022-07-29T07:44:54Z</time>
      </trkpt>
      <trkpt lat="41.3598" lon="-0.50222">
        <time>2022-07-29T07:44:55Z</time>
      </trkpt>
      <trkpt lat="41.36007" lon="-0.50229">
        <time>2022-07-29T07:44:56Z</time>
      </trkpt>
      <trkpt lat="41.36034" lon="-0.50237">
        <time>2022-07-29T07:44:57Z</time>
      </trkpt>
      <trkpt lat="41.36061" lon="-0.50245">
        <time>2022-07-29T07:44:58Z</time>
      </trkpt>
      <trkpt lat="41.36087" lon="-0.50252">
        <time>2022-07-29T07:44:59Z</time>
      </trkpt>
      <trkpt lat="41.36114" lon="-0.50259">
        <time>2022-07-29T07:45:00Z</time>
      </trkpt>
      <trkpt lat="41.3614" lon="-0.50266">
        <time>2022-07-29T07:45:01Z</time>
      </trkpt>
      <trkpt lat="41.36167" lon="-0.50274">
        <time>2022-07-29T07:45:02Z</time>
      </trkpt>
      <trkpt lat="41.36193" lon="-0.50281">
        <time>2022-07-29T07:45:03Z</time>
      </trkpt>
      <trkpt lat="41.36217" lon="-0.50288">
        <time>2022-07-29T07:45:04Z</time>
      </trkpt>
      <trkpt lat="41.36241" lon="-0.50294">
        <time>2022-07-29T07:45:05Z</time>
      </trkpt>
      <trkpt lat="41.36265" lon="-0.50301">
        <time>2022-07-29T07:45:06Z</time>
      </trkpt>
      <trkpt lat="41.36287" lon="-0.50306">
        <time>2022-07-29T07:45:07Z</time>
      </trkpt>
      <trkpt lat="41.3631" lon="-0.50309">
        <time>2022-07-29T07:45:08Z</time>
      </trkpt>
      <trkpt lat="41.36332" lon="-0.5031">
        <time>2022-07-29T07:45:09Z</time>
      </trkpt>
      <trkpt lat="41.36354" lon="-0.50309">
        <time>2022-07-29T07:45:10Z</time>
      </trkpt>
      <trkpt lat="41.36376" lon="-0.50304">
        <time>2022-07-29T07:45:11Z</time>
      </trkpt>
      <trkpt lat="41.36397" lon="-0.50295">
        <time>2022-07-29T07:45:12Z</time>
      </trkpt>
      <trkpt lat="41.36418" lon="-0.50282">
        <time>2022-07-29T07:45:13Z</time>
      </trkpt>
      <trkpt lat="41.36438" lon="-0.50265">
        <time>2022-07-29T07:45:14Z</time>
      </trkpt>
      <trkpt lat="41.36457" lon="-0.50245">
        <time>2022-07-29T07:45:15Z</time>
      </trkpt>
      <trkpt lat="41.36476" lon="-0.50223">
        <time>2022-07-29T07:45:16Z</time>
      </trkpt>
      <trkpt lat="41.36494" lon="-0.502">
        <time>2022-07-29T07:45:17Z</time>
      </trkpt>
      <trkpt lat="41.36513" lon="-0.50177">
        <time>2022-07-29T07:45:18Z</time>
      </trkpt>
      <trkpt lat="41.36532" lon="-0.50153">
        <time>2022-07-29T07:45:19Z</time>
      </trkpt>
      <trkpt lat="41.36552" lon="-0.50128">
        <time>2022-07-29T07:45:20Z</time>
      </trkpt>
      <trkpt lat="41.36571" lon="-0.50104">
        <time>2022-07-29T07:45:21Z</time>
      </trkpt>
      <trkpt lat="41.3659" lon="-0.50079">
        <time>2022-07-29T07:45:22Z</time>
      </trkpt>
      <trkpt lat="41.3661" lon="-0.50054">
        <time>2022-07-29T07:45:23Z</time>
      </trkpt>
      <trkpt lat="41.36629" lon="-0.50029">
        <time>2022-07-29T07:45:24Z</time>
      </trkpt>
      <trkpt lat="41.36648" lon="-0.50005">
        <time>2022-07-29T07:45:25Z</time>
      </trkpt>
      <trkpt lat="41.36667" lon="-0.49982">
        <time>2022-07-29T07:45:26Z</time>
      </trkpt>
      <trkpt lat="41.36685" lon="-0.49959">
        <time>2022-07-29T07:45:27Z</time>
      </trkpt>
      <trkpt lat="41.36702" lon="-0.49938">
        <time>2022-07-29T07:45:28Z</time>
      </trkpt>
      <trkpt lat="41.36721" lon="-0.49918">
        <time>2022-07-29T07:45:29Z</time>
      </trkpt>
      <trkpt lat="41.36741" lon="-0.499">
        <time>2022-07-29T07:45:30Z</time>
      </trkpt>
      <trkpt lat="41.3676" lon="-0.49883">
        <time>2022-07-29T07:45:31Z</time>
      </trkpt>
      <trkpt lat="41.36784" lon="-0.49875">
        <time>2022-07-29T07:45:32Z</time>
      </trkpt>
      <trkpt lat="41.36808" lon="-0.49869">
        <time>2022-07-29T07:45:33Z</time>
      </trkpt>
      <trkpt lat="41.36834" lon="-0.49866">
        <time>2022-07-29T07:45:34Z</time>
      </trkpt>
      <trkpt lat="41.36859" lon="-0.49866">
        <time>2022-07-29T07:45:35Z</time>
      </trkpt>
      <trkpt lat="41.36884" lon="-0.49869">
        <time>2022-07-29T07:45:36Z</time>
      </trkpt>
      <trkpt lat="41.36911" lon="-0.49871">
        <time>2022-07-29T07:45:37Z</time>
      </trkpt>
      <trkpt lat="41.36938" lon="-0.49873">
        <time>2022-07-29T07:45:38Z</time>
      </trkpt>
      <trkpt lat="41.36966" lon="-0.49875">
        <time>2022-07-29T07:45:39Z</time>
      </trkpt>
      <trkpt lat="41.36994" lon="-0.49877">
        <time>2022-07-29T07:45:40Z</time>
      </trkpt>
      <trkpt lat="41.37023" lon="-0.49879">
        <time>2022-07-29T07:45:41Z</time>
      </trkpt>
      <trkpt lat="41.37051" lon="-0.49881">
        <time>2022-07-29T07:45:42Z</time>
      </trkpt>
      <trkpt lat="41.3708" lon="-0.49883">
        <time>2022-07-29T07:45:43Z</time>
      </trkpt>
      <trkpt lat="41.37108" lon="-0.49884">
        <time>2022-07-29T07:45:44Z</time>
      </trkpt>
      <trkpt lat="41.37137" lon="-0.49886">
        <time>2022-07-29T07:45:45Z</time>
      </trkpt>
      <trkpt lat="41.37166" lon="-0.49887">
        <time>2022-07-29T07:45:46Z</time>
      </trkpt>
      <trkpt lat="41.37194" lon="-0.49889">
        <time>2022-07-29T07:45:47Z</time>
      </trkpt>
      <trkpt lat="41.37223" lon="-0.49891">
        <time>2022-07-29T07:45:48Z</time>
      </trkpt>
      <trkpt lat="41.37252" lon="-0.49893">
        <time>2022-07-29T07:45:49Z</time>
      </trkpt>
      <trkpt lat="41.3728" lon="-0.49894">
        <time>2022-07-29T07:45:50Z</time>
      </trkpt>
      <trkpt lat="41.37309" lon="-0.49896">
        <time>2022-07-29T07:45:51Z</time>
      </trkpt>
      <trkpt lat="41.37337" lon="-0.49898">
        <time>2022-07-29T07:45:52Z</time>
      </trkpt>
      <trkpt lat="41.37365" lon="-0.499">
        <time>2022-07-29T07:45:53Z</time>
      </trkpt>
      <trkpt lat="41.37394" lon="-0.49901">
        <time>2022-07-29T07:45:54Z</time>
      </trkpt>
      <trkpt lat="41.37422" lon="-0.49904">
        <time>2022-07-29T07:45:55Z</time>
      </trkpt>
      <trkpt lat="41.3745" lon="-0.49906">
        <time>2022-07-29T07:45:56Z</time>
      </trkpt>
      <trkpt lat="41.37478" lon="-0.49908">
        <time>2022-07-29T07:45:57Z</time>
      </trkpt>
      <trkpt lat="41.37506" lon="-0.49909">
        <time>2022-07-29T07:45:58Z</time>
      </trkpt>
      <trkpt lat="41.37535" lon="-0.49911">
        <time>2022-07-29T07:45:59Z</time>
      </trkpt>
      <trkpt lat="41.37563" lon="-0.49913">
        <time>2022-07-29T07:46:00Z</time>
      </trkpt>
      <trkpt lat="41.37592" lon="-0.49915">
        <time>2022-07-29T07:46:01Z</time>
      </trkpt>
      <trkpt lat="41.3762" lon="-0.49917">
        <time>2022-07-29T07:46:02Z</time>
      </trkpt>
      <trkpt lat="41.37649" lon="-0.49919">
        <time>2022-07-29T07:46:03Z</time>
      </trkpt>
      <trkpt lat="41.37677" lon="-0.49921">
        <time>2022-07-29T07:46:04Z</time>
      </trkpt>
      <trkpt lat="41.37706" lon="-0.49923">
        <time>2022-07-29T07:46:05Z</time>
      </trkpt>
      <trkpt lat="41.37734" lon="-0.49926">
        <time>2022-07-29T07:46:06Z</time>
      </trkpt>
      <trkpt lat="41.37763" lon="-0.49928">
        <time>2022-07-29T07:46:07Z</time>
      </trkpt>
      <trkpt lat="41.37791" lon="-0.49929">
        <time>2022-07-29T07:46:08Z</time>
      </trkpt>
      <trkpt lat="41.37819" lon="-0.49931">
        <time>2022-07-29T07:46:09Z</time>
      </trkpt>
      <trkpt lat="41.37847" lon="-0.49933">
        <time>2022-07-29T07:46:10Z</time>
      </trkpt>
      <trkpt lat="41.37874" lon="-0.49935">
        <time>2022-07-29T07:46:11Z</time>
      </trkpt>
      <trkpt lat="41.37902" lon="-0.49937">
        <time>2022-07-29T07:46:12Z</time>
      </trkpt>
      <trkpt lat="41.37929" lon="-0.49939">
        <time>2022-07-29T07:46:13Z</time>
      </trkpt>
      <trkpt lat="41.37955" lon="-0.49941">
        <time>2022-07-29T07:46:14Z</time>
      </trkpt>
      <trkpt lat="41.37981" lon="-0.49942">
        <time>2022-07-29T07:46:15Z</time>
      </trkpt>
      <trkpt lat="41.38007" lon="-0.49944">
        <time>2022-07-29T07:46:16Z</time>
      </trkpt>
      <trkpt lat="41.38032" lon="-0.49946">
        <time>2022-07-29T07:46:17Z</time>
      </trkpt>
      <trkpt lat="41.38057" lon="-0.49947">
        <time>2022-07-29T07:46:18Z</time>
      </trkpt>
      <trkpt lat="41.38082" lon="-0.49949">
        <time>2022-07-29T07:46:19Z</time>
      </trkpt>
      <trkpt lat="41.38107" lon="-0.4995">
        <time>2022-07-29T07:46:20Z</time>
      </trkpt>
      <trkpt lat="41.38133" lon="-0.49952">
        <time>2022-07-29T07:46:21Z</time>
      </trkpt>
      <trkpt lat="41.38158" lon="-0.49953">
        <time>2022-07-29T07:46:22Z</time>
      </trkpt>
      <trkpt lat="41.38183" lon="-0.49955">
        <time>2022-07-29T07:46:23Z</time>
      </trkpt>
      <trkpt lat="41.38208" lon="-0.49958">
        <time>2022-07-29T07:46:24Z</time>
      </trkpt>
      <trkpt lat="41.38234" lon="-0.49961">
        <time>2022-07-29T07:46:25Z</time>
      </trkpt>
      <trkpt lat="41.38262" lon="-0.49964">
        <time>2022-07-29T07:46:26Z</time>
      </trkpt>
      <trkpt lat="41.38291" lon="-0.49966">
        <time>2022-07-29T07:46:27Z</time>
      </trkpt>
      <trkpt lat="41.3832" lon="-0.49967">
        <time>2022-07-29T07:46:28Z</time>
      </trkpt>
      <trkpt lat="41.38349" lon="-0.49969">
        <time>2022-07-29T07:46:29Z</time>
      </trkpt>
      <trkpt lat="41.38379" lon="-0.4997">
        <time>2022-07-29T07:46:30Z</time>
      </trkpt>
      <trkpt lat="41.38409" lon="-0.49971">
        <time>2022-07-29T07:46:31Z</time>
      </trkpt>
      <trkpt lat="41.38439" lon="-0.49973">
        <time>2022-07-29T07:46:32Z</time>
      </trkpt>
      <trkpt lat="41.38468" lon="-0.49975">
        <time>2022-07-29T07:46:33Z</time>
      </trkpt>
      <trkpt lat="41.38498" lon="-0.49977">
        <time>2022-07-29T07:46:34Z</time>
      </trkpt>
      <trkpt lat="41.38527" lon="-0.49978">
        <time>2022-07-29T07:46:35Z</time>
      </trkpt>
      <trkpt lat="41.38557" lon="-0.4998">
        <time>2022-07-29T07:46:36Z</time>
      </trkpt>
      <trkpt lat="41.38586" lon="-0.49982">
        <time>2022-07-29T07:46:37Z</time>
      </trkpt>
      <trkpt lat="41.38615" lon="-0.49984">
        <time>2022-07-29T07:46:38Z</time>
      </trkpt>
      <trkpt lat="41.38645" lon="-0.49986">
        <time>2022-07-29T07:46:39Z</time>
      </trkpt>
      <trkpt lat="41.38674" lon="-0.49988">
        <time>2022-07-29T07:46:40Z</time>
      </trkpt>
      <trkpt lat="41.38703" lon="-0.4999">
        <time>2022-07-29T07:46:41Z</time>
      </trkpt>
      <trkpt lat="41.38732" lon="-0.49992">
        <time>2022-07-29T07:46:42Z</time>
      </trkpt>
      <trkpt lat="41.38761" lon="-0.49994">
        <time>2022-07-29T07:46:43Z</time>
      </trkpt>
      <trkpt lat="41.3879" lon="-0.49996">
        <time>2022-07-29T07:46:44Z</time>
      </trkpt>
      <trkpt lat="41.38818" lon="-0.49997">
        <time>2022-07-29T07:46:45Z</time>
      </trkpt>
      <trkpt lat="41.38847" lon="-0.49999">
        <time>2022-07-29T07:46:46Z</time>
      </trkpt>
      <trkpt lat="41.38876" lon="-0.50001">
        <time>2022-07-29T07:46:47Z</time>
      </trkpt>
      <trkpt lat="41.38904" lon="-0.50003">
        <time>2022-07-29T07:46:48Z</time>
      </trkpt>
      <trkpt lat="41.38932" lon="-0.50005">
        <time>2022-07-29T07:46:49Z</time>
      </trkpt>
      <trkpt lat="41.38961" lon="-0.50007">
        <time>2022-07-29T07:46:50Z</time>
      </trkpt>
      <trkpt lat="41.38989" lon="-0.50009">
        <time>2022-07-29T07:46:51Z</time>
      </trkpt>
      <trkpt lat="41.39018" lon="-0.5001">
        <time>2022-07-29T07:46:52Z</time>
      </trkpt>
      <trkpt lat="41.39046" lon="-0.50012">
        <time>2022-07-29T07:46:53Z</time>
      </trkpt>
      <trkpt lat="41.39075" lon="-0.50014">
        <time>2022-07-29T07:46:54Z</time>
      </trkpt>
      <trkpt lat="41.39103" lon="-0.50015">
        <time>2022-07-29T07:46:55Z</time>
      </trkpt>
      <trkpt lat="41.39131" lon="-0.50017">
        <time>2022-07-29T07:46:56Z</time>
      </trkpt>
      <trkpt lat="41.39159" lon="-0.50019">
        <time>2022-07-29T07:46:57Z</time>
      </trkpt>
      <trkpt lat="41.39187" lon="-0.50021">
        <time>2022-07-29T07:46:58Z</time>
      </trkpt>
      <trkpt lat="41.39214" lon="-0.50023">
        <time>2022-07-29T07:46:59Z</time>
      </trkpt>
      <trkpt lat="41.39242" lon="-0.50025">
        <time>2022-07-29T07:47:00Z</time>
      </trkpt>
      <trkpt lat="41.39269" lon="-0.50027">
        <time>2022-07-29T07:47:01Z</time>
      </trkpt>
      <trkpt lat="41.39297" lon="-0.50029">
        <time>2022-07-29T07:47:02Z</time>
      </trkpt>
      <trkpt lat="41.39324" lon="-0.50031">
        <time>2022-07-29T07:47:03Z</time>
      </trkpt>
      <trkpt lat="41.39351" lon="-0.50033">
        <time>2022-07-29T07:47:04Z</time>
      </trkpt>
      <trkpt lat="41.39379" lon="-0.50035">
        <time>2022-07-29T07:47:05Z</time>
      </trkpt>
      <trkpt lat="41.39406" lon="-0.50037">
        <time>2022-07-29T07:47:06Z</time>
      </trkpt>
      <trkpt lat="41.39433" lon="-0.50039">
        <time>2022-07-29T07:47:07Z</time>
      </trkpt>
      <trkpt lat="41.39461" lon="-0.5004">
        <time>2022-07-29T07:47:08Z</time>
      </trkpt>
      <trkpt lat="41.39488" lon="-0.50042">
        <time>2022-07-29T07:47:09Z</time>
      </trkpt>
      <trkpt lat="41.39515" lon="-0.50044">
        <time>2022-07-29T07:47:10Z</time>
      </trkpt>
      <trkpt lat="41.39542" lon="-0.50046">
        <time>2022-07-29T07:47:11Z</time>
      </trkpt>
      <trkpt lat="41.3957" lon="-0.50048">
        <time>2022-07-29T07:47:12Z</time>
      </trkpt>
      <trkpt lat="41.39598" lon="-0.5005">
        <time>2022-07-29T07:47:13Z</time>
      </trkpt>
      <trkpt lat="41.39625" lon="-0.50052">
        <time>2022-07-29T07:47:14Z</time>
      </trkpt>
      <trkpt lat="41.39652" lon="-0.50054">
        <time>2022-07-29T07:47:15Z</time>
      </trkpt>
      <trkpt lat="41.39679" lon="-0.50055">
        <time>2022-07-29T07:47:16Z</time>
      </trkpt>
      <trkpt lat="41.39706" lon="-0.50058">
        <time>2022-07-29T07:47:17Z</time>
      </trkpt>
      <trkpt lat="41.39733" lon="-0.5006">
        <time>2022-07-29T07:47:18Z</time>
      </trkpt>
      <trkpt lat="41.39761" lon="-0.50062">
        <time>2022-07-29T07:47:19Z</time>
      </trkpt>
      <trkpt lat="41.39788" lon="-0.50064">
        <time>2022-07-29T07:47:20Z</time>
      </trkpt>
      <trkpt lat="41.39815" lon="-0.50066">
        <time>2022-07-29T07:47:21Z</time>
      </trkpt>
      <trkpt lat="41.39842" lon="-0.50068">
        <time>2022-07-29T07:47:22Z</time>
      </trkpt>
      <trkpt lat="41.3987" lon="-0.50069">
        <time>2022-07-29T07:47:23Z</time>
      </trkpt>
      <trkpt lat="41.39897" lon="-0.50071">
        <time>2022-07-29T07:47:24Z</time>
      </trkpt>
      <trkpt lat="41.39924" lon="-0.50073">
        <time>2022-07-29T07:47:25Z</time>
      </trkpt>
      <trkpt lat="41.39952" lon="-0.50075">
        <time>2022-07-29T07:47:26Z</time>
      </trkpt>
      <trkpt lat="41.39979" lon="-0.50077">
        <time>2022-07-29T07:47:27Z</time>
      </trkpt>
      <trkpt lat="41.40007" lon="-0.50079">
        <time>2022-07-29T07:47:28Z</time>
      </trkpt>
      <trkpt lat="41.40033" lon="-0.50081">
        <time>2022-07-29T07:47:29Z</time>
      </trkpt>
      <trkpt lat="41.40059" lon="-0.50082">
        <time>2022-07-29T07:47:30Z</time>
      </trkpt>
      <trkpt lat="41.40085" lon="-0.50084">
        <time>2022-07-29T07:47:31Z</time>
      </trkpt>
      <trkpt lat="41.40111" lon="-0.50087">
        <time>2022-07-29T07:47:32Z</time>
      </trkpt>
      <trkpt lat="41.40136" lon="-0.50089">
        <time>2022-07-29T07:47:33Z</time>
      </trkpt>
      <trkpt lat="41.40162" lon="-0.50091">
        <time>2022-07-29T07:47:34Z</time>
      </trkpt>
      <trkpt lat="41.40187" lon="-0.50093">
        <time>2022-07-29T07:47:35Z</time>
      </trkpt>
      <trkpt lat="41.40213" lon="-0.50095">
        <time>2022-07-29T07:47:36Z</time>
      </trkpt>
      <trkpt lat="41.40239" lon="-0.50096">
        <time>2022-07-29T07:47:37Z</time>
      </trkpt>
      <trkpt lat="41.40264" lon="-0.50098">
        <time>2022-07-29T07:47:38Z</time>
      </trkpt>
      <trkpt lat="41.4029" lon="-0.50098">
        <time>2022-07-29T07:47:39Z</time>
      </trkpt>
      <trkpt lat="41.40315" lon="-0.50095">
        <time>2022-07-29T07:47:40Z</time>
      </trkpt>
      <trkpt lat="41.40341" lon="-0.5009">
        <time>2022-07-29T07:47:41Z</time>
      </trkpt>
      <trkpt lat="41.40366" lon="-0.50082">
        <time>2022-07-29T07:47:42Z</time>
      </trkpt>
      <trkpt lat="41.4039" lon="-0.50071">
        <time>2022-07-29T07:47:43Z</time>
      </trkpt>
      <trkpt lat="41.40415" lon="-0.50058">
        <time>2022-07-29T07:47:44Z</time>
      </trkpt>
      <trkpt lat="41.40439" lon="-0.50042">
        <time>2022-07-29T07:47:45Z</time>
      </trkpt>
      <trkpt lat="41.40462" lon="-0.50026">
        <time>2022-07-29T07:47:46Z</time>
      </trkpt>
      <trkpt lat="41.40485" lon="-0.5001">
        <time>2022-07-29T07:47:47Z</time>
      </trkpt>
      <trkpt lat="41.40508" lon="-0.49995">
        <time>2022-07-29T07:47:48Z</time>
      </trkpt>
      <trkpt lat="41.4053" lon="-0.49979">
        <time>2022-07-29T07:47:49Z</time>
      </trkpt>
      <trkpt lat="41.40553" lon="-0.49964">
        <time>2022-07-29T07:47:50Z</time>
      </trkpt>
      <trkpt lat="41.40575" lon="-0.49948">
        <time>2022-07-29T07:47:51Z</time>
      </trkpt>
      <trkpt lat="41.40598" lon="-0.49933">
        <time>2022-07-29T07:47:52Z</time>
      </trkpt>
      <trkpt lat="41.4062" lon="-0.49917">
        <time>2022-07-29T07:47:53Z</time>
      </trkpt>
      <trkpt lat="41.40641" lon="-0.49902">
        <time>2022-07-29T07:47:54Z</time>
      </trkpt>
      <trkpt lat="41.40662" lon="-0.49887">
        <time>2022-07-29T07:47:55Z</time>
      </trkpt>
      <trkpt lat="41.40682" lon="-0.49873">
        <time>2022-07-29T07:47:56Z</time>
      </trkpt>
      <trkpt lat="41.40702" lon="-0.49859">
        <time>2022-07-29T07:47:57Z</time>
      </trkpt>
      <trkpt lat="41.40722" lon="-0.49845">
        <time>2022-07-29T07:47:58Z</time>
      </trkpt>
      <trkpt lat="41.4074" lon="-0.49832">
        <time>2022-07-29T07:47:59Z</time>
      </trkpt>
      <trkpt lat="41.40758" lon="-0.49819">
        <time>2022-07-29T07:48:00Z</time>
      </trkpt>
      <trkpt lat="41.40775" lon="-0.49806">
        <time>2022-07-29T07:48:01Z</time>
      </trkpt>
      <trkpt lat="41.40792" lon="-0.49795">
        <time>2022-07-29T07:48:02Z</time>
      </trkpt>
      <trkpt lat="41.40808" lon="-0.49784">
        <time>2022-07-29T07:48:03Z</time>
      </trkpt>
      <trkpt lat="41.40825" lon="-0.49775">
        <time>2022-07-29T07:48:04Z</time>
      </trkpt>
      <trkpt lat="41.40842" lon="-0.49769">
        <time>2022-07-29T07:48:05Z</time>
      </trkpt>
      <trkpt lat="41.4086" lon="-0.49767">
        <time>2022-07-29T07:48:06Z</time>
      </trkpt>
      <trkpt lat="41.40879" lon="-0.49769">
        <time>2022-07-29T07:48:07Z</time>
      </trkpt>
      <trkpt lat="41.40899" lon="-0.49774">
        <time>2022-07-29T07:48:08Z</time>
      </trkpt>
      <trkpt lat="41.40917" lon="-0.49783">
        <time>2022-07-29T07:48:09Z</time>
      </trkpt>
      <trkpt lat="41.40936" lon="-0.49794">
        <time>2022-07-29T07:48:10Z</time>
      </trkpt>
      <trkpt lat="41.40954" lon="-0.49805">
        <time>2022-07-29T07:48:11Z</time>
      </trkpt>
      <trkpt lat="41.40972" lon="-0.49814">
        <time>2022-07-29T07:48:12Z</time>
      </trkpt>
      <trkpt lat="41.4099" lon="-0.49823">
        <time>2022-07-29T07:48:13Z</time>
      </trkpt>
      <trkpt lat="41.41007" lon="-0.49833">
        <time>2022-07-29T07:48:14Z</time>
      </trkpt>
      <trkpt lat="41.41024" lon="-0.4984">
        <time>2022-07-29T07:48:15Z</time>
      </trkpt>
      <trkpt lat="41.4104" lon="-0.49845">
        <time>2022-07-29T07:48:16Z</time>
      </trkpt>
      <trkpt lat="41.41057" lon="-0.49845">
        <time>2022-07-29T07:48:17Z</time>
      </trkpt>
      <trkpt lat="41.41074" lon="-0.49841">
        <time>2022-07-29T07:48:18Z</time>
      </trkpt>
      <trkpt lat="41.4109" lon="-0.49833">
        <time>2022-07-29T07:48:19Z</time>
      </trkpt>
      <trkpt lat="41.41104" lon="-0.49821">
        <time>2022-07-29T07:48:20Z</time>
      </trkpt>
      <trkpt lat="41.41117" lon="-0.49806">
        <time>2022-07-29T07:48:21Z</time>
      </trkpt>
      <trkpt lat="41.41127" lon="-0.49788">
        <time>2022-07-29T07:48:22Z</time>
      </trkpt>
      <trkpt lat="41.41135" lon="-0.49768">
        <time>2022-07-29T07:48:23Z</time>
      </trkpt>
      <trkpt lat="41.41143" lon="-0.49747">
        <time>2022-07-29T07:48:24Z</time>
      </trkpt>
      <trkpt lat="41.41152" lon="-0.49727">
        <time>2022-07-29T07:48:25Z</time>
      </trkpt>
      <trkpt lat="41.41162" lon="-0.49707">
        <time>2022-07-29T07:48:26Z</time>
      </trkpt>
      <trkpt lat="41.41173" lon="-0.4969">
        <time>2022-07-29T07:48:27Z</time>
      </trkpt>
      <trkpt lat="41.41186" lon="-0.49675">
        <time>2022-07-29T07:48:28Z</time>
      </trkpt>
      <trkpt lat="41.41201" lon="-0.49663">
        <time>2022-07-29T07:48:29Z</time>
      </trkpt>
      <trkpt lat="41.41218" lon="-0.49655">
        <time>2022-07-29T07:48:30Z</time>
      </trkpt>
      <trkpt lat="41.41235" lon="-0.49651">
        <time>2022-07-29T07:48:31Z</time>
      </trkpt>
      <trkpt lat="41.41252" lon="-0.4965">
        <time>2022-07-29T07:48:32Z</time>
      </trkpt>
      <trkpt lat="41.41268" lon="-0.49647">
        <time>2022-07-29T07:48:33Z</time>
      </trkpt>
      <trkpt lat="41.41285" lon="-0.49642">
        <time>2022-07-29T07:48:34Z</time>
      </trkpt>
      <trkpt lat="41.413" lon="-0.49633">
        <time>2022-07-29T07:48:35Z</time>
      </trkpt>
      <trkpt lat="41.41315" lon="-0.49619">
        <time>2022-07-29T07:48:36Z</time>
      </trkpt>
      <trkpt lat="41.41329" lon="-0.49602">
        <time>2022-07-29T07:48:37Z</time>
      </trkpt>
      <trkpt lat="41.41344" lon="-0.49584">
        <time>2022-07-29T07:48:38Z</time>
      </trkpt>
      <trkpt lat="41.41359" lon="-0.49566">
        <time>2022-07-29T07:48:39Z</time>
      </trkpt>
      <trkpt lat="41.41373" lon="-0.49545">
        <time>2022-07-29T07:48:40Z</time>
      </trkpt>
      <trkpt lat="41.41387" lon="-0.49523">
        <time>2022-07-29T07:48:41Z</time>
      </trkpt>
      <trkpt lat="41.41399" lon="-0.49499">
        <time>2022-07-29T07:48:42Z</time>
      </trkpt>
      <trkpt lat="41.41408" lon="-0.49475">
        <time>2022-07-29T07:48:43Z</time>
      </trkpt>
      <trkpt lat="41.41418" lon="-0.4945">
        <time>2022-07-29T07:48:44Z</time>
      </trkpt>
      <trkpt lat="41.41427" lon="-0.49427">
        <time>2022-07-29T07:48:45Z</time>
      </trkpt>
      <trkpt lat="41.41437" lon="-0.49406">
        <time>2022-07-29T07:48:46Z</time>
      </trkpt>
      <trkpt lat="41.41449" lon="-0.49386">
        <time>2022-07-29T07:48:47Z</time>
      </trkpt>
      <trkpt lat="41.41462" lon="-0.49367">
        <time>2022-07-29T07:48:48Z</time>
      </trkpt>
      <trkpt lat="41.41478" lon="-0.49352">
        <time>2022-07-29T07:48:49Z</time>
      </trkpt>
      <trkpt lat="41.41495" lon="-0.49339">
        <time>2022-07-29T07:48:50Z</time>
      </trkpt>
      <trkpt lat="41.41512" lon="-0.49328">
        <time>2022-07-29T07:48:51Z</time>
      </trkpt>
      <trkpt lat="41.41531" lon="-0.4932">
        <time>2022-07-29T07:48:52Z</time>
      </trkpt>
      <trkpt lat="41.41549" lon="-0.49316">
        <time>2022-07-29T07:48:53Z</time>
      </trkpt>
      <trkpt lat="41.41568" lon="-0.49313">
        <time>2022-07-29T07:48:54Z</time>
      </trkpt>
      <trkpt lat="41.41588" lon="-0.49315">
        <time>2022-07-29T07:48:55Z</time>
      </trkpt>
      <trkpt lat="41.41607" lon="-0.49319">
        <time>2022-07-29T07:48:56Z</time>
      </trkpt>
      <trkpt lat="41.41625" lon="-0.49326">
        <time>2022-07-29T07:48:57Z</time>
      </trkpt>
      <trkpt lat="41.41643" lon="-0.49333">
        <time>2022-07-29T07:48:58Z</time>
      </trkpt>
      <trkpt lat="41.41659" lon="-0.49341">
        <time>2022-07-29T07:48:59Z</time>
      </trkpt>
      <trkpt lat="41.41674" lon="-0.49349">
        <time>2022-07-29T07:49:00Z</time>
      </trkpt>
      <trkpt lat="41.41689" lon="-0.49356">
        <time>2022-07-29T07:49:01Z</time>
      </trkpt>
      <trkpt lat="41.41702" lon="-0.49363">
        <time>2022-07-29T07:49:02Z</time>
      </trkpt>
      <trkpt lat="41.41715" lon="-0.4937">
        <time>2022-07-29T07:49:03Z</time>
      </trkpt>
      <trkpt lat="41.41727" lon="-0.49376">
        <time>2022-07-29T07:49:04Z</time>
      </trkpt>
      <trkpt lat="41.4174" lon="-0.49382">
        <time>2022-07-29T07:49:05Z</time>
      </trkpt>
      <trkpt lat="41.41751" lon="-0.49388">
        <time>2022-07-29T07:49:06Z</time>
      </trkpt>
      <trkpt lat="41.41764" lon="-0.49394">
        <time>2022-07-29T07:49:07Z</time>
      </trkpt>
      <trkpt lat="41.41776" lon="-0.494">
        <time>2022-07-29T07:49:08Z</time>
      </trkpt>
      <trkpt lat="41.41788" lon="-0.49406">
        <time>2022-07-29T07:49:09Z</time>
      </trkpt>
      <trkpt lat="41.418" lon="-0.49412">
        <time>2022-07-29T07:49:10Z</time>
      </trkpt>
      <trkpt lat="41.41812" lon="-0.49418">
        <time>2022-07-29T07:49:11Z</time>
      </trkpt>
      <trkpt lat="41.41824" lon="-0.49424">
        <time>2022-07-29T07:49:12Z</time>
      </trkpt>
      <trkpt lat="41.41836" lon="-0.4943">
        <time>2022-07-29T07:49:13Z</time>
      </trkpt>
      <trkpt lat="41.41849" lon="-0.49436">
        <time>2022-07-29T07:49:14Z</time>
      </trkpt>
      <trkpt lat="41.41861" lon="-0.49442">
        <time>2022-07-29T07:49:15Z</time>
      </trkpt>
      <trkpt lat="41.41874" lon="-0.49448">
        <time>2022-07-29T07:49:16Z</time>
      </trkpt>
      <trkpt lat="41.41887" lon="-0.49454">
        <time>2022-07-29T07:49:17Z</time>
      </trkpt>
      <trkpt lat="41.419" lon="-0.4946">
        <time>2022-07-29T07:49:18Z</time>
      </trkpt>
      <trkpt lat="41.41913" lon="-0.49466">
        <time>2022-07-29T07:49:19Z</time>
      </trkpt>
      <trkpt lat="41.41926" lon="-0.49472">
        <time>2022-07-29T07:49:20Z</time>
      </trkpt>
      <trkpt lat="41.41939" lon="-0.49479">
        <time>2022-07-29T07:49:21Z</time>
      </trkpt>
      <trkpt lat="41.41952" lon="-0.49486">
        <time>2022-07-29T07:49:22Z</time>
      </trkpt>
      <trkpt lat="41.41965" lon="-0.49493">
        <time>2022-07-29T07:49:23Z</time>
      </trkpt>
      <trkpt lat="41.41978" lon="-0.49499">
        <time>2022-07-29T07:49:24Z</time>
      </trkpt>
      <trkpt lat="41.41991" lon="-0.49505">
        <time>2022-07-29T07:49:25Z</time>
      </trkpt>
      <trkpt lat="41.42003" lon="-0.49511">
        <time>2022-07-29T07:49:26Z</time>
      </trkpt>
      <trkpt lat="41.42016" lon="-0.49518">
        <time>2022-07-29T07:49:27Z</time>
      </trkpt>
      <trkpt lat="41.42028" lon="-0.49524">
        <time>2022-07-29T07:49:28Z</time>
      </trkpt>
      <trkpt lat="41.42041" lon="-0.4953">
        <time>2022-07-29T07:49:29Z</time>
      </trkpt>
      <trkpt lat="41.42053" lon="-0.49536">
        <time>2022-07-29T07:49:30Z</time>
      </trkpt>
      <trkpt lat="41.42066" lon="-0.49541">
        <time>2022-07-29T07:49:31Z</time>
      </trkpt>
      <trkpt lat="41.42079" lon="-0.49545">
        <time>2022-07-29T07:49:32Z</time>
      </trkpt>
      <trkpt lat="41.42092" lon="-0.49546">
        <time>2022-07-29T07:49:33Z</time>
      </trkpt>
      <trkpt lat="41.42105" lon="-0.49547">
        <time>2022-07-29T07:49:34Z</time>
      </trkpt>
      <trkpt lat="41.42118" lon="-0.49548">
        <time>2022-07-29T07:49:35Z</time>
      </trkpt>
      <trkpt lat="41.42132" lon="-0.49548">
        <time>2022-07-29T07:49:36Z</time>
      </trkpt>
      <trkpt lat="41.42145" lon="-0.49548">
        <time>2022-07-29T07:49:37Z</time>
      </trkpt>
      <trkpt lat="41.42159" lon="-0.49548">
        <time>2022-07-29T07:49:38Z</time>
      </trkpt>
      <trkpt lat="41.42173" lon="-0.49548">
        <time>2022-07-29T07:49:39Z</time>
      </trkpt>
      <trkpt lat="41.42187" lon="-0.49549">
        <time>2022-07-29T07:49:40Z</time>
      </trkpt>
      <trkpt lat="41.422" lon="-0.4955">
        <time>2022-07-29T07:49:41Z</time>
      </trkpt>
      <trkpt lat="41.42213" lon="-0.4955">
        <time>2022-07-29T07:49:42Z</time>
      </trkpt>
      <trkpt lat="41.42226" lon="-0.4955">
        <time>2022-07-29T07:49:43Z</time>
      </trkpt>
      <trkpt lat="41.42239" lon="-0.4955">
        <time>2022-07-29T07:49:44Z</time>
      </trkpt>
      <trkpt lat="41.42252" lon="-0.49551">
        <time>2022-07-29T07:49:45Z</time>
      </trkpt>
      <trkpt lat="41.42264" lon="-0.49552">
        <time>2022-07-29T07:49:46Z</time>
      </trkpt>
      <trkpt lat="41.42276" lon="-0.49552">
        <time>2022-07-29T07:49:47Z</time>
      </trkpt>
      <trkpt lat="41.42288" lon="-0.49553">
        <time>2022-07-29T07:49:48Z</time>
      </trkpt>
      <trkpt lat="41.423" lon="-0.49554">
        <time>2022-07-29T07:49:49Z</time>
      </trkpt>
      <trkpt lat="41.42312" lon="-0.49554">
        <time>2022-07-29T07:49:50Z</time>
      </trkpt>
      <trkpt lat="41.42323" lon="-0.49554">
        <time>2022-07-29T07:49:51Z</time>
      </trkpt>
      <trkpt lat="41.42335" lon="-0.49554">
        <time>2022-07-29T07:49:52Z</time>
      </trkpt>
      <trkpt lat="41.42346" lon="-0.49555">
        <time>2022-07-29T07:49:53Z</time>
      </trkpt>
      <trkpt lat="41.42357" lon="-0.49556">
        <time>2022-07-29T07:49:54Z</time>
      </trkpt>
      <trkpt lat="41.42368" lon="-0.49558">
        <time>2022-07-29T07:49:55Z</time>
      </trkpt>
      <trkpt lat="41.42378" lon="-0.49564">
        <time>2022-07-29T07:49:56Z</time>
      </trkpt>
      <trkpt lat="41.42388" lon="-0.49572">
        <time>2022-07-29T07:49:57Z</time>
      </trkpt>
      <trkpt lat="41.42399" lon="-0.49581">
        <time>2022-07-29T07:49:58Z</time>
      </trkpt>
      <trkpt lat="41.42409" lon="-0.4959">
        <time>2022-07-29T07:49:59Z</time>
      </trkpt>
      <trkpt lat="41.4242" lon="-0.496">
        <time>2022-07-29T07:50:00Z</time>
      </trkpt>
      <trkpt lat="41.42431" lon="-0.49609">
        <time>2022-07-29T07:50:01Z</time>
      </trkpt>
      <trkpt lat="41.42442" lon="-0.49618">
        <time>2022-07-29T07:50:02Z</time>
      </trkpt>
      <trkpt lat="41.42452" lon="-0.49627">
        <time>2022-07-29T07:50:03Z</time>
      </trkpt>
      <trkpt lat="41.42463" lon="-0.49636">
        <time>2022-07-29T07:50:04Z</time>
      </trkpt>
      <trkpt lat="41.42473" lon="-0.49645">
        <time>2022-07-29T07:50:05Z</time>
      </trkpt>
      <trkpt lat="41.42485" lon="-0.49654">
        <time>2022-07-29T07:50:06Z</time>
      </trkpt>
      <trkpt lat="41.42496" lon="-0.49662">
        <time>2022-07-29T07:50:07Z</time>
      </trkpt>
      <trkpt lat="41.42507" lon="-0.49672">
        <time>2022-07-29T07:50:08Z</time>
      </trkpt>
      <trkpt lat="41.42519" lon="-0.49681">
        <time>2022-07-29T07:50:09Z</time>
      </trkpt>
      <trkpt lat="41.42531" lon="-0.4969">
        <time>2022-07-29T07:50:10Z</time>
      </trkpt>
      <trkpt lat="41.42543" lon="-0.49701">
        <time>2022-07-29T07:50:11Z</time>
      </trkpt>
      <trkpt lat="41.42556" lon="-0.49712">
        <time>2022-07-29T07:50:12Z</time>
      </trkpt>
      <trkpt lat="41.42568" lon="-0.49722">
        <time>2022-07-29T07:50:13Z</time>
      </trkpt>
      <trkpt lat="41.4258" lon="-0.49733">
        <time>2022-07-29T07:50:14Z</time>
      </trkpt>
      <trkpt lat="41.42592" lon="-0.49743">
        <time>2022-07-29T07:50:15Z</time>
      </trkpt>
      <trkpt lat="41.42605" lon="-0.49753">
        <time>2022-07-29T07:50:16Z</time>
      </trkpt>
      <trkpt lat="41.42617" lon="-0.49763">
        <time>2022-07-29T07:50:17Z</time>
      </trkpt>
      <trkpt lat="41.42629" lon="-0.49773">
        <time>2022-07-29T07:50:18Z</time>
      </trkpt>
      <trkpt lat="41.42641" lon="-0.49783">
        <time>2022-07-29T07:50:19Z</time>
      </trkpt>
      <trkpt lat="41.42652" lon="-0.49793">
        <time>2022-07-29T07:50:20Z</time>
      </trkpt>
      <trkpt lat="41.42664" lon="-0.49803">
        <time>2022-07-29T07:50:21Z</time>
      </trkpt>
      <trkpt lat="41.42676" lon="-0.49813">
        <time>2022-07-29T07:50:22Z</time>
      </trkpt>
      <trkpt lat="41.42688" lon="-0.49823">
        <time>2022-07-29T07:50:23Z</time>
      </trkpt>
      <trkpt lat="41.427" lon="-0.49833">
        <time>2022-07-29T07:50:24Z</time>
      </trkpt>
      <trkpt lat="41.42712" lon="-0.49843">
        <time>2022-07-29T07:50:25Z</time>
      </trkpt>
      <trkpt lat="41.42724" lon="-0.49853">
        <time>2022-07-29T07:50:26Z</time>
      </trkpt>
      <trkpt lat="41.42736" lon="-0.49863">
        <time>2022-07-29T07:50:27Z</time>
      </trkpt>
      <trkpt lat="41.42749" lon="-0.49874">
        <time>2022-07-29T07:50:28Z</time>
      </trkpt>
      <trkpt lat="41.42762" lon="-0.49885">
        <time>2022-07-29T07:50:29Z</time>
      </trkpt>
      <trkpt lat="41.42775" lon="-0.49896">
        <time>2022-07-29T07:50:30Z</time>
      </trkpt>
      <trkpt lat="41.42787" lon="-0.49906">
        <time>2022-07-29T07:50:31Z</time>
      </trkpt>
      <trkpt lat="41.428" lon="-0.49917">
        <time>2022-07-29T07:50:32Z</time>
      </trkpt>
      <trkpt lat="41.42812" lon="-0.49927">
        <time>2022-07-29T07:50:33Z</time>
      </trkpt>
      <trkpt lat="41.42825" lon="-0.49938">
        <time>2022-07-29T07:50:34Z</time>
      </trkpt>
      <trkpt lat="41.42837" lon="-0.49949">
        <time>2022-07-29T07:50:35Z</time>
      </trkpt>
      <trkpt lat="41.4285" lon="-0.4996">
        <time>2022-07-29T07:50:36Z</time>
      </trkpt>
      <trkpt lat="41.42864" lon="-0.49971">
        <time>2022-07-29T07:50:37Z</time>
      </trkpt>
      <trkpt lat="41.42878" lon="-0.49982">
        <time>2022-07-29T07:50:38Z</time>
      </trkpt>
      <trkpt lat="41.42892" lon="-0.49994">
        <time>2022-07-29T07:50:39Z</time>
      </trkpt>
      <trkpt lat="41.42907" lon="-0.50007">
        <time>2022-07-29T07:50:40Z</time>
      </trkpt>
      <trkpt lat="41.42922" lon="-0.5002">
        <time>2022-07-29T07:50:41Z</time>
      </trkpt>
      <trkpt lat="41.42936" lon="-0.50034">
        <time>2022-07-29T07:50:42Z</time>
      </trkpt>
      <trkpt lat="41.42951" lon="-0.50048">
        <time>2022-07-29T07:50:43Z</time>
      </trkpt>
      <trkpt lat="41.42965" lon="-0.50063">
        <time>2022-07-29T07:50:44Z</time>
      </trkpt>
      <trkpt lat="41.42978" lon="-0.50078">
        <time>2022-07-29T07:50:45Z</time>
      </trkpt>
      <trkpt lat="41.42991" lon="-0.50094">
        <time>2022-07-29T07:50:46Z</time>
      </trkpt>
      <trkpt lat="41.43003" lon="-0.50111">
        <time>2022-07-29T07:50:47Z</time>
      </trkpt>
      <trkpt lat="41.43014" lon="-0.50127">
        <time>2022-07-29T07:50:48Z</time>
      </trkpt>
      <trkpt lat="41.43026" lon="-0.50142">
        <time>2022-07-29T07:50:49Z</time>
      </trkpt>
      <trkpt lat="41.43038" lon="-0.50158">
        <time>2022-07-29T07:50:50Z</time>
      </trkpt>
      <trkpt lat="41.4305" lon="-0.50174">
        <time>2022-07-29T07:50:51Z</time>
      </trkpt>
      <trkpt lat="41.43061" lon="-0.5019">
        <time>2022-07-29T07:50:52Z</time>
      </trkpt>
      <trkpt lat="41.43073" lon="-0.50206">
        <time>2022-07-29T07:50:53Z</time>
      </trkpt>
      <trkpt lat="41.43085" lon="-0.50223">
        <time>2022-07-29T07:50:54Z</time>
      </trkpt>
      <trkpt lat="41.43097" lon="-0.50239">
        <time>2022-07-29T07:50:55Z</time>
      </trkpt>
      <trkpt lat="41.4311" lon="-0.50254">
        <time>2022-07-29T07:50:56Z</time>
      </trkpt>
      <trkpt lat="41.43123" lon="-0.5027">
        <time>2022-07-29T07:50:57Z</time>
      </trkpt>
      <trkpt lat="41.43136" lon="-0.50285">
        <time>2022-07-29T07:50:58Z</time>
      </trkpt>
      <trkpt lat="41.43149" lon="-0.503">
        <time>2022-07-29T07:50:59Z</time>
      </trkpt>
      <trkpt lat="41.43161" lon="-0.50313">
        <time>2022-07-29T07:51:00Z</time>
      </trkpt>
      <trkpt lat="41.43173" lon="-0.50326">
        <time>2022-07-29T07:51:01Z</time>
      </trkpt>
      <trkpt lat="41.43185" lon="-0.50339">
        <time>2022-07-29T07:51:02Z</time>
      </trkpt>
      <trkpt lat="41.43196" lon="-0.50351">
        <time>2022-07-29T07:51:03Z</time>
      </trkpt>
      <trkpt lat="41.43206" lon="-0.50361">
        <time>2022-07-29T07:51:04Z</time>
      </trkpt>
      <trkpt lat="41.43215" lon="-0.50371">
        <time>2022-07-29T07:51:05Z</time>
      </trkpt>
      <trkpt lat="41.43224" lon="-0.5038">
        <time>2022-07-29T07:51:06Z</time>
      </trkpt>
      <trkpt lat="41.43233" lon="-0.50387">
        <time>2022-07-29T07:51:07Z</time>
      </trkpt>
      <trkpt lat="41.4324" lon="-0.50393">
        <time>2022-07-29T07:51:08Z</time>
      </trkpt>
      <trkpt lat="41.43246" lon="-0.50397">
        <time>2022-07-29T07:51:09Z</time>
      </trkpt>
      <trkpt lat="41.43252" lon="-0.50401">
        <time>2022-07-29T07:51:10Z</time>
      </trkpt>
      <trkpt lat="41.43258" lon="-0.50404">
        <time>2022-07-29T07:51:11Z</time>
      </trkpt>
      <trkpt lat="41.43264" lon="-0.50407">
        <time>2022-07-29T07:51:12Z</time>
      </trkpt>
      <trkpt lat="41.4327" lon="-0.50409">
        <time>2022-07-29T07:51:13Z</time>
      </trkpt>
      <trkpt lat="41.43275" lon="-0.50412">
        <time>2022-07-29T07:51:14Z</time>
      </trkpt>
      <trkpt lat="41.4328" lon="-0.50414">
        <time>2022-07-29T07:51:15Z</time>
      </trkpt>
      <trkpt lat="41.43284" lon="-0.50415">
        <time>2022-07-29T07:51:16Z</time>
      </trkpt>
      <trkpt lat="41.43289" lon="-0.50416">
        <time>2022-07-29T07:51:17Z</time>
      </trkpt>
      <trkpt lat="41.43292" lon="-0.50417">
        <time>2022-07-29T07:51:18Z</time>
      </trkpt>
      <trkpt lat="41.43295" lon="-0.50419">
        <time>2022-07-29T07:51:19Z</time>
      </trkpt>
      <trkpt lat="41.43296" lon="-0.5042">
        <time>2022-07-29T07:51:20Z</time>
      </trkpt>
      <trkpt lat="41.43294" lon="-0.50418">
        <time>2022-07-29T07:56:12Z</time>
      </trkpt>
      <trkpt lat="41.43295" lon="-0.50419">
        <time>2022-07-29T07:56:13Z</time>
      </trkpt>
      <trkpt lat="41.43296" lon="-0.50419">
        <time>2022-07-29T07:56:14Z</time>
      </trkpt>
      <trkpt lat="41.433" lon="-0.50421">
        <time>2022-07-29T07:56:36Z</time>
      </trkpt>
      <trkpt lat="41.43302" lon="-0.50425">
        <time>2022-07-29T07:56:37Z</time>
      </trkpt>
      <trkpt lat="41.43305" lon="-0.50432">
        <time>2022-07-29T07:56:38Z</time>
      </trkpt>
      <trkpt lat="41.43308" lon="-0.5044">
        <time>2022-07-29T07:56:39Z</time>
      </trkpt>
      <trkpt lat="41.4331" lon="-0.50447">
        <time>2022-07-29T07:56:40Z</time>
      </trkpt>
      <trkpt lat="41.43313" lon="-0.50455">
        <time>2022-07-29T07:56:41Z</time>
      </trkpt>
      <trkpt lat="41.43314" lon="-0.50462">
        <time>2022-07-29T07:56:42Z</time>
      </trkpt>
      <trkpt lat="41.43317" lon="-0.50469">
        <time>2022-07-29T07:56:43Z</time>
      </trkpt>
      <trkpt lat="41.43321" lon="-0.50477">
        <time>2022-07-29T07:56:44Z</time>
      </trkpt>
      <trkpt lat="41.43328" lon="-0.50487">
        <time>2022-07-29T07:56:45Z</time>
      </trkpt>
      <trkpt lat="41.43337" lon="-0.50498">
        <time>2022-07-29T07:56:46Z</time>
      </trkpt>
      <trkpt lat="41.43346" lon="-0.50508">
        <time>2022-07-29T07:56:47Z</time>
      </trkpt>
      <trkpt lat="41.43356" lon="-0.5052">
        <time>2022-07-29T07:56:48Z</time>
      </trkpt>
      <trkpt lat="41.43368" lon="-0.50533">
        <time>2022-07-29T07:56:49Z</time>
      </trkpt>
      <trkpt lat="41.43381" lon="-0.50547">
        <time>2022-07-29T07:56:50Z</time>
      </trkpt>
      <trkpt lat="41.43393" lon="-0.5056">
        <time>2022-07-29T07:56:51Z</time>
      </trkpt>
      <trkpt lat="41.43407" lon="-0.50574">
        <time>2022-07-29T07:56:52Z</time>
      </trkpt>
      <trkpt lat="41.4342" lon="-0.50589">
        <time>2022-07-29T07:56:53Z</time>
      </trkpt>
      <trkpt lat="41.43434" lon="-0.50604">
        <time>2022-07-29T07:56:54Z</time>
      </trkpt>
      <trkpt lat="41.43449" lon="-0.50619">
        <time>2022-07-29T07:56:55Z</time>
      </trkpt>
      <trkpt lat="41.43462" lon="-0.50634">
        <time>2022-07-29T07:56:56Z</time>
      </trkpt>
      <trkpt lat="41.43476" lon="-0.50649">
        <time>2022-07-29T07:56:57Z</time>
      </trkpt>
      <trkpt lat="41.43491" lon="-0.50664">
        <time>2022-07-29T07:56:58Z</time>
      </trkpt>
      <trkpt lat="41.43506" lon="-0.50681">
        <time>2022-07-29T07:56:59Z</time>
      </trkpt>
      <trkpt lat="41.43521" lon="-0.50697">
        <time>2022-07-29T07:57:00Z</time>
      </trkpt>
      <trkpt lat="41.43536" lon="-0.50713">
        <time>2022-07-29T07:57:01Z</time>
      </trkpt>
      <trkpt lat="41.43552" lon="-0.50729">
        <time>2022-07-29T07:57:02Z</time>
      </trkpt>
      <trkpt lat="41.43568" lon="-0.50745">
        <time>2022-07-29T07:57:03Z</time>
      </trkpt>
      <trkpt lat="41.43584" lon="-0.50761">
        <time>2022-07-29T07:57:04Z</time>
      </trkpt>
      <trkpt lat="41.436" lon="-0.50778">
        <time>2022-07-29T07:57:05Z</time>
      </trkpt>
      <trkpt lat="41.43616" lon="-0.50796">
        <time>2022-07-29T07:57:06Z</time>
      </trkpt>
      <trkpt lat="41.43633" lon="-0.50813">
        <time>2022-07-29T07:57:07Z</time>
      </trkpt>
      <trkpt lat="41.43649" lon="-0.50831">
        <time>2022-07-29T07:57:08Z</time>
      </trkpt>
      <trkpt lat="41.43666" lon="-0.50848">
        <time>2022-07-29T07:57:09Z</time>
      </trkpt>
      <trkpt lat="41.43681" lon="-0.50866">
        <time>2022-07-29T07:57:10Z</time>
      </trkpt>
      <trkpt lat="41.43698" lon="-0.50882">
        <time>2022-07-29T07:57:11Z</time>
      </trkpt>
      <trkpt lat="41.43714" lon="-0.50899">
        <time>2022-07-29T07:57:12Z</time>
      </trkpt>
      <trkpt lat="41.4373" lon="-0.50917">
        <time>2022-07-29T07:57:13Z</time>
      </trkpt>
      <trkpt lat="41.43747" lon="-0.50935">
        <time>2022-07-29T07:57:14Z</time>
      </trkpt>
      <trkpt lat="41.43764" lon="-0.50952">
        <time>2022-07-29T07:57:15Z</time>
      </trkpt>
      <trkpt lat="41.43782" lon="-0.5097">
        <time>2022-07-29T07:57:16Z</time>
      </trkpt>
      <trkpt lat="41.43799" lon="-0.50989">
        <time>2022-07-29T07:57:17Z</time>
      </trkpt>
      <trkpt lat="41.43817" lon="-0.51008">
        <time>2022-07-29T07:57:18Z</time>
      </trkpt>
      <trkpt lat="41.43835" lon="-0.51027">
        <time>2022-07-29T07:57:19Z</time>
      </trkpt>
      <trkpt lat="41.43853" lon="-0.51046">
        <time>2022-07-29T07:57:20Z</time>
      </trkpt>
      <trkpt lat="41.4387" lon="-0.51065">
        <time>2022-07-29T07:57:21Z</time>
      </trkpt>
      <trkpt lat="41.43888" lon="-0.51084">
        <time>2022-07-29T07:57:22Z</time>
      </trkpt>
      <trkpt lat="41.43906" lon="-0.51103">
        <time>2022-07-29T07:57:23Z</time>
      </trkpt>
      <trkpt lat="41.43924" lon="-0.51123">
        <time>2022-07-29T07:57:24Z</time>
      </trkpt>
      <trkpt lat="41.43942" lon="-0.51142">
        <time>2022-07-29T07:57:25Z</time>
      </trkpt>
      <trkpt lat="41.4396" lon="-0.51161">
        <time>2022-07-29T07:57:26Z</time>
      </trkpt>
      <trkpt lat="41.43978" lon="-0.5118">
        <time>2022-07-29T07:57:27Z</time>
      </trkpt>
      <trkpt lat="41.43996" lon="-0.51198">
        <time>2022-07-29T07:57:28Z</time>
      </trkpt>
      <trkpt lat="41.44013" lon="-0.51216">
        <time>2022-07-29T07:57:29Z</time>
      </trkpt>
      <trkpt lat="41.4403" lon="-0.51233">
        <time>2022-07-29T07:57:30Z</time>
      </trkpt>
      <trkpt lat="41.44045" lon="-0.5125">
        <time>2022-07-29T07:57:31Z</time>
      </trkpt>
      <trkpt lat="41.44059" lon="-0.51267">
        <time>2022-07-29T07:57:32Z</time>
      </trkpt>
      <trkpt lat="41.44073" lon="-0.51283">
        <time>2022-07-29T07:57:33Z</time>
      </trkpt>
      <trkpt lat="41.44086" lon="-0.513">
        <time>2022-07-29T07:57:34Z</time>
      </trkpt>
      <trkpt lat="41.44099" lon="-0.5132">
        <time>2022-07-29T07:57:35Z</time>
      </trkpt>
      <trkpt lat="41.44113" lon="-0.51341">
        <time>2022-07-29T07:57:36Z</time>
      </trkpt>
      <trkpt lat="41.44127" lon="-0.51363">
        <time>2022-07-29T07:57:37Z</time>
      </trkpt>
      <trkpt lat="41.4414" lon="-0.51387">
        <time>2022-07-29T07:57:38Z</time>
      </trkpt>
      <trkpt lat="41.44154" lon="-0.5141">
        <time>2022-07-29T07:57:39Z</time>
      </trkpt>
      <trkpt lat="41.44168" lon="-0.51435">
        <time>2022-07-29T07:57:40Z</time>
      </trkpt>
      <trkpt lat="41.44183" lon="-0.51461">
        <time>2022-07-29T07:57:41Z</time>
      </trkpt>
      <trkpt lat="41.44199" lon="-0.51487">
        <time>2022-07-29T07:57:42Z</time>
      </trkpt>
      <trkpt lat="41.44214" lon="-0.51513">
        <time>2022-07-29T07:57:43Z</time>
      </trkpt>
      <trkpt lat="41.44229" lon="-0.5154">
        <time>2022-07-29T07:57:44Z</time>
      </trkpt>
      <trkpt lat="41.44244" lon="-0.51565">
        <time>2022-07-29T07:57:45Z</time>
      </trkpt>
      <trkpt lat="41.4426" lon="-0.51592">
        <time>2022-07-29T07:57:46Z</time>
      </trkpt>
      <trkpt lat="41.44275" lon="-0.51618">
        <time>2022-07-29T07:57:47Z</time>
      </trkpt>
      <trkpt lat="41.44291" lon="-0.51646">
        <time>2022-07-29T07:57:48Z</time>
      </trkpt>
      <trkpt lat="41.44307" lon="-0.51673">
        <time>2022-07-29T07:57:49Z</time>
      </trkpt>
      <trkpt lat="41.44323" lon="-0.517">
        <time>2022-07-29T07:57:50Z</time>
      </trkpt>
      <trkpt lat="41.44338" lon="-0.51728">
        <time>2022-07-29T07:57:51Z</time>
      </trkpt>
      <trkpt lat="41.44354" lon="-0.51755">
        <time>2022-07-29T07:57:52Z</time>
      </trkpt>
      <trkpt lat="41.4437" lon="-0.51782">
        <time>2022-07-29T07:57:53Z</time>
      </trkpt>
      <trkpt lat="41.44386" lon="-0.51809">
        <time>2022-07-29T07:57:54Z</time>
      </trkpt>
      <trkpt lat="41.44402" lon="-0.51836">
        <time>2022-07-29T07:57:55Z</time>
      </trkpt>
      <trkpt lat="41.44417" lon="-0.51864">
        <time>2022-07-29T07:57:56Z</time>
      </trkpt>
      <trkpt lat="41.44433" lon="-0.5189">
        <time>2022-07-29T07:57:57Z</time>
      </trkpt>
      <trkpt lat="41.44448" lon="-0.51917">
        <time>2022-07-29T07:57:58Z</time>
      </trkpt>
      <trkpt lat="41.44464" lon="-0.51943">
        <time>2022-07-29T07:57:59Z</time>
      </trkpt>
      <trkpt lat="41.44479" lon="-0.5197">
        <time>2022-07-29T07:58:00Z</time>
      </trkpt>
      <trkpt lat="41.44494" lon="-0.51996">
        <time>2022-07-29T07:58:01Z</time>
      </trkpt>
      <trkpt lat="41.44509" lon="-0.52024">
        <time>2022-07-29T07:58:02Z</time>
      </trkpt>
      <trkpt lat="41.44525" lon="-0.52051">
        <time>2022-07-29T07:58:03Z</time>
      </trkpt>
      <trkpt lat="41.44541" lon="-0.52078">
        <time>2022-07-29T07:58:04Z</time>
      </trkpt>
      <trkpt lat="41.44556" lon="-0.52105">
        <time>2022-07-29T07:58:05Z</time>
      </trkpt>
      <trkpt lat="41.44572" lon="-0.52132">
        <time>2022-07-29T07:58:06Z</time>
      </trkpt>
      <trkpt lat="41.44588" lon="-0.52159">
        <time>2022-07-29T07:58:07Z</time>
      </trkpt>
      <trkpt lat="41.44604" lon="-0.52187">
        <time>2022-07-29T07:58:08Z</time>
      </trkpt>
      <trkpt lat="41.4462" lon="-0.52215">
        <time>2022-07-29T07:58:09Z</time>
      </trkpt>
      <trkpt lat="41.44636" lon="-0.52242">
        <time>2022-07-29T07:58:10Z</time>
      </trkpt>
      <trkpt lat="41.44652" lon="-0.5227">
        <time>2022-07-29T07:58:11Z</time>
      </trkpt>
      <trkpt lat="41.44668" lon="-0.52298">
        <time>2022-07-29T07:58:12Z</time>
      </trkpt>
      <trkpt lat="41.44685" lon="-0.52325">
        <time>2022-07-29T07:58:13Z</time>
      </trkpt>
      <trkpt lat="41.44701" lon="-0.52353">
        <time>2022-07-29T07:58:14Z</time>
      </trkpt>
      <trkpt lat="41.44717" lon="-0.52381">
        <time>2022-07-29T07:58:15Z</time>
      </trkpt>
      <trkpt lat="41.44733" lon="-0.52408">
        <time>2022-07-29T07:58:16Z</time>
      </trkpt>
      <trkpt lat="41.44749" lon="-0.52437">
        <time>2022-07-29T07:58:17Z</time>
      </trkpt>
      <trkpt lat="41.44765" lon="-0.52464">
        <time>2022-07-29T07:58:18Z</time>
      </trkpt>
      <trkpt lat="41.44781" lon="-0.52493">
        <time>2022-07-29T07:58:19Z</time>
      </trkpt>
      <trkpt lat="41.44797" lon="-0.52521">
        <time>2022-07-29T07:58:20Z</time>
      </trkpt>
      <trkpt lat="41.44814" lon="-0.52549">
        <time>2022-07-29T07:58:21Z</time>
      </trkpt>
      <trkpt lat="41.4483" lon="-0.52578">
        <time>2022-07-29T07:58:22Z</time>
      </trkpt>
      <trkpt lat="41.44846" lon="-0.52606">
        <time>2022-07-29T07:58:23Z</time>
      </trkpt>
      <trkpt lat="41.44863" lon="-0.52635">
        <time>2022-07-29T07:58:24Z</time>
      </trkpt>
      <trkpt lat="41.4488" lon="-0.52665">
        <time>2022-07-29T07:58:25Z</time>
      </trkpt>
      <trkpt lat="41.44897" lon="-0.52694">
        <time>2022-07-29T07:58:26Z</time>
      </trkpt>
      <trkpt lat="41.44914" lon="-0.52723">
        <time>2022-07-29T07:58:27Z</time>
      </trkpt>
      <trkpt lat="41.44931" lon="-0.52752">
        <time>2022-07-29T07:58:28Z</time>
      </trkpt>
      <trkpt lat="41.44948" lon="-0.52782">
        <time>2022-07-29T07:58:29Z</time>
      </trkpt>
      <trkpt lat="41.44964" lon="-0.52811">
        <time>2022-07-29T07:58:30Z</time>
      </trkpt>
      <trkpt lat="41.44981" lon="-0.52841">
        <time>2022-07-29T07:58:31Z</time>
      </trkpt>
      <trkpt lat="41.44998" lon="-0.5287">
        <time>2022-07-29T07:58:32Z</time>
      </trkpt>
      <trkpt lat="41.45014" lon="-0.52898">
        <time>2022-07-29T07:58:33Z</time>
      </trkpt>
      <trkpt lat="41.45031" lon="-0.52927">
        <time>2022-07-29T07:58:34Z</time>
      </trkpt>
      <trkpt lat="41.45047" lon="-0.52955">
        <time>2022-07-29T07:58:35Z</time>
      </trkpt>
      <trkpt lat="41.45063" lon="-0.52983">
        <time>2022-07-29T07:58:36Z</time>
      </trkpt>
      <trkpt lat="41.45079" lon="-0.53012">
        <time>2022-07-29T07:58:37Z</time>
      </trkpt>
      <trkpt lat="41.45096" lon="-0.5304">
        <time>2022-07-29T07:58:38Z</time>
      </trkpt>
      <trkpt lat="41.45112" lon="-0.53068">
        <time>2022-07-29T07:58:39Z</time>
      </trkpt>
      <trkpt lat="41.45129" lon="-0.53095">
        <time>2022-07-29T07:58:40Z</time>
      </trkpt>
      <trkpt lat="41.45147" lon="-0.53122">
        <time>2022-07-29T07:58:41Z</time>
      </trkpt>
      <trkpt lat="41.45166" lon="-0.53148">
        <time>2022-07-29T07:58:42Z</time>
      </trkpt>
      <trkpt lat="41.45185" lon="-0.53173">
        <time>2022-07-29T07:58:43Z</time>
      </trkpt>
      <trkpt lat="41.45205" lon="-0.53197">
        <time>2022-07-29T07:58:44Z</time>
      </trkpt>
      <trkpt lat="41.45225" lon="-0.53222">
        <time>2022-07-29T07:58:45Z</time>
      </trkpt>
      <trkpt lat="41.45246" lon="-0.53246">
        <time>2022-07-29T07:58:46Z</time>
      </trkpt>
      <trkpt lat="41.45267" lon="-0.5327">
        <time>2022-07-29T07:58:47Z</time>
      </trkpt>
      <trkpt lat="41.45289" lon="-0.53293">
        <time>2022-07-29T07:58:48Z</time>
      </trkpt>
      <trkpt lat="41.45312" lon="-0.53315">
        <time>2022-07-29T07:58:49Z</time>
      </trkpt>
      <trkpt lat="41.45335" lon="-0.53335">
        <time>2022-07-29T07:58:50Z</time>
      </trkpt>
      <trkpt lat="41.45358" lon="-0.53355">
        <time>2022-07-29T07:58:51Z</time>
      </trkpt>
      <trkpt lat="41.45382" lon="-0.53374">
        <time>2022-07-29T07:58:52Z</time>
      </trkpt>
      <trkpt lat="41.45405" lon="-0.53393">
        <time>2022-07-29T07:58:53Z</time>
      </trkpt>
      <trkpt lat="41.4543" lon="-0.53411">
        <time>2022-07-29T07:58:54Z</time>
      </trkpt>
      <trkpt lat="41.45454" lon="-0.53428">
        <time>2022-07-29T07:58:55Z</time>
      </trkpt>
      <trkpt lat="41.45478" lon="-0.53443">
        <time>2022-07-29T07:58:56Z</time>
      </trkpt>
      <trkpt lat="41.45501" lon="-0.53457">
        <time>2022-07-29T07:58:57Z</time>
      </trkpt>
      <trkpt lat="41.45524" lon="-0.5347">
        <time>2022-07-29T07:58:58Z</time>
      </trkpt>
      <trkpt lat="41.45548" lon="-0.53483">
        <time>2022-07-29T07:58:59Z</time>
      </trkpt>
      <trkpt lat="41.45572" lon="-0.53495">
        <time>2022-07-29T07:59:00Z</time>
      </trkpt>
      <trkpt lat="41.45596" lon="-0.53507">
        <time>2022-07-29T07:59:01Z</time>
      </trkpt>
      <trkpt lat="41.45621" lon="-0.53518">
        <time>2022-07-29T07:59:02Z</time>
      </trkpt>
      <trkpt lat="41.45647" lon="-0.5353">
        <time>2022-07-29T07:59:03Z</time>
      </trkpt>
      <trkpt lat="41.45672" lon="-0.53541">
        <time>2022-07-29T07:59:04Z</time>
      </trkpt>
      <trkpt lat="41.45696" lon="-0.53552">
        <time>2022-07-29T07:59:05Z</time>
      </trkpt>
      <trkpt lat="41.45719" lon="-0.53563">
        <time>2022-07-29T07:59:06Z</time>
      </trkpt>
      <trkpt lat="41.4574" lon="-0.53575">
        <time>2022-07-29T07:59:07Z</time>
      </trkpt>
      <trkpt lat="41.4576" lon="-0.53585">
        <time>2022-07-29T07:59:08Z</time>
      </trkpt>
      <trkpt lat="41.45779" lon="-0.53596">
        <time>2022-07-29T07:59:09Z</time>
      </trkpt>
      <trkpt lat="41.45797" lon="-0.53608">
        <time>2022-07-29T07:59:10Z</time>
      </trkpt>
      <trkpt lat="41.45816" lon="-0.5362">
        <time>2022-07-29T07:59:11Z</time>
      </trkpt>
      <trkpt lat="41.45833" lon="-0.53632">
        <time>2022-07-29T07:59:12Z</time>
      </trkpt>
      <trkpt lat="41.45851" lon="-0.53643">
        <time>2022-07-29T07:59:13Z</time>
      </trkpt>
      <trkpt lat="41.45869" lon="-0.53655">
        <time>2022-07-29T07:59:14Z</time>
      </trkpt>
      <trkpt lat="41.45887" lon="-0.53667">
        <time>2022-07-29T07:59:15Z</time>
      </trkpt>
      <trkpt lat="41.45905" lon="-0.5368">
        <time>2022-07-29T07:59:16Z</time>
      </trkpt>
      <trkpt lat="41.45922" lon="-0.53692">
        <time>2022-07-29T07:59:17Z</time>
      </trkpt>
      <trkpt lat="41.4594" lon="-0.53703">
        <time>2022-07-29T07:59:18Z</time>
      </trkpt>
      <trkpt lat="41.45957" lon="-0.53714">
        <time>2022-07-29T07:59:19Z</time>
      </trkpt>
      <trkpt lat="41.45975" lon="-0.53726">
        <time>2022-07-29T07:59:20Z</time>
      </trkpt>
      <trkpt lat="41.45993" lon="-0.53738">
        <time>2022-07-29T07:59:21Z</time>
      </trkpt>
      <trkpt lat="41.4601" lon="-0.5375">
        <time>2022-07-29T07:59:22Z</time>
      </trkpt>
      <trkpt lat="41.46027" lon="-0.53762">
        <time>2022-07-29T07:59:23Z</time>
      </trkpt>
      <trkpt lat="41.46045" lon="-0.53773">
        <time>2022-07-29T07:59:24Z</time>
      </trkpt>
      <trkpt lat="41.46062" lon="-0.53785">
        <time>2022-07-29T07:59:25Z</time>
      </trkpt>
      <trkpt lat="41.46079" lon="-0.53796">
        <time>2022-07-29T07:59:26Z</time>
      </trkpt>
      <trkpt lat="41.46097" lon="-0.53807">
        <time>2022-07-29T07:59:27Z</time>
      </trkpt>
      <trkpt lat="41.46114" lon="-0.53818">
        <time>2022-07-29T07:59:28Z</time>
      </trkpt>
      <trkpt lat="41.46131" lon="-0.53829">
        <time>2022-07-29T07:59:29Z</time>
      </trkpt>
      <trkpt lat="41.46148" lon="-0.53841">
        <time>2022-07-29T07:59:30Z</time>
      </trkpt>
      <trkpt lat="41.46165" lon="-0.53852">
        <time>2022-07-29T07:59:31Z</time>
      </trkpt>
      <trkpt lat="41.46182" lon="-0.53863">
        <time>2022-07-29T07:59:32Z</time>
      </trkpt>
      <trkpt lat="41.46199" lon="-0.53875">
        <time>2022-07-29T07:59:33Z</time>
      </trkpt>
      <trkpt lat="41.46217" lon="-0.53886">
        <time>2022-07-29T07:59:34Z</time>
      </trkpt>
      <trkpt lat="41.46234" lon="-0.53898">
        <time>2022-07-29T07:59:35Z</time>
      </trkpt>
      <trkpt lat="41.46252" lon="-0.5391">
        <time>2022-07-29T07:59:36Z</time>
      </trkpt>
      <trkpt lat="41.46269" lon="-0.53921">
        <time>2022-07-29T07:59:37Z</time>
      </trkpt>
      <trkpt lat="41.46287" lon="-0.53933">
        <time>2022-07-29T07:59:38Z</time>
      </trkpt>
      <trkpt lat="41.46304" lon="-0.53945">
        <time>2022-07-29T07:59:39Z</time>
      </trkpt>
      <trkpt lat="41.46322" lon="-0.53956">
        <time>2022-07-29T07:59:40Z</time>
      </trkpt>
      <trkpt lat="41.4634" lon="-0.53968">
        <time>2022-07-29T07:59:41Z</time>
      </trkpt>
      <trkpt lat="41.46358" lon="-0.5398">
        <time>2022-07-29T07:59:42Z</time>
      </trkpt>
      <trkpt lat="41.46376" lon="-0.53992">
        <time>2022-07-29T07:59:43Z</time>
      </trkpt>
      <trkpt lat="41.46394" lon="-0.54005">
        <time>2022-07-29T07:59:44Z</time>
      </trkpt>
      <trkpt lat="41.46411" lon="-0.54019">
        <time>2022-07-29T07:59:45Z</time>
      </trkpt>
      <trkpt lat="41.46429" lon="-0.54037">
        <time>2022-07-29T07:59:46Z</time>
      </trkpt>
      <trkpt lat="41.46444" lon="-0.54058">
        <time>2022-07-29T07:59:47Z</time>
      </trkpt>
      <trkpt lat="41.46459" lon="-0.54083">
        <time>2022-07-29T07:59:48Z</time>
      </trkpt>
      <trkpt lat="41.46475" lon="-0.54111">
        <time>2022-07-29T07:59:49Z</time>
      </trkpt>
      <trkpt lat="41.46492" lon="-0.5414">
        <time>2022-07-29T07:59:50Z</time>
      </trkpt>
      <trkpt lat="41.46509" lon="-0.54169">
        <time>2022-07-29T07:59:51Z</time>
      </trkpt>
      <trkpt lat="41.46527" lon="-0.54198">
        <time>2022-07-29T07:59:52Z</time>
      </trkpt>
      <trkpt lat="41.46545" lon="-0.54228">
        <time>2022-07-29T07:59:53Z</time>
      </trkpt>
      <trkpt lat="41.46563" lon="-0.54258">
        <time>2022-07-29T07:59:54Z</time>
      </trkpt>
      <trkpt lat="41.46581" lon="-0.54288">
        <time>2022-07-29T07:59:55Z</time>
      </trkpt>
      <trkpt lat="41.46599" lon="-0.54318">
        <time>2022-07-29T07:59:56Z</time>
      </trkpt>
      <trkpt lat="41.46616" lon="-0.54348">
        <time>2022-07-29T07:59:57Z</time>
      </trkpt>
      <trkpt lat="41.46634" lon="-0.54377">
        <time>2022-07-29T07:59:58Z</time>
      </trkpt>
      <trkpt lat="41.46652" lon="-0.54408">
        <time>2022-07-29T07:59:59Z</time>
      </trkpt>
      <trkpt lat="41.4667" lon="-0.54437">
        <time>2022-07-29T08:00:00Z</time>
      </trkpt>
      <trkpt lat="41.46688" lon="-0.54466">
        <time>2022-07-29T08:00:01Z</time>
      </trkpt>
      <trkpt lat="41.46707" lon="-0.54495">
        <time>2022-07-29T08:00:02Z</time>
      </trkpt>
      <trkpt lat="41.46726" lon="-0.54523">
        <time>2022-07-29T08:00:03Z</time>
      </trkpt>
      <trkpt lat="41.46746" lon="-0.54552">
        <time>2022-07-29T08:00:04Z</time>
      </trkpt>
      <trkpt lat="41.46764" lon="-0.5458">
        <time>2022-07-29T08:00:05Z</time>
      </trkpt>
      <trkpt lat="41.46783" lon="-0.54608">
        <time>2022-07-29T08:00:06Z</time>
      </trkpt>
      <trkpt lat="41.46802" lon="-0.54635">
        <time>2022-07-29T08:00:07Z</time>
      </trkpt>
      <trkpt lat="41.4682" lon="-0.54663">
        <time>2022-07-29T08:00:08Z</time>
      </trkpt>
      <trkpt lat="41.46839" lon="-0.5469">
        <time>2022-07-29T08:00:09Z</time>
      </trkpt>
      <trkpt lat="41.46856" lon="-0.54717">
        <time>2022-07-29T08:00:10Z</time>
      </trkpt>
      <trkpt lat="41.46875" lon="-0.54744">
        <time>2022-07-29T08:00:11Z</time>
      </trkpt>
      <trkpt lat="41.46893" lon="-0.54771">
        <time>2022-07-29T08:00:12Z</time>
      </trkpt>
      <trkpt lat="41.46912" lon="-0.54798">
        <time>2022-07-29T08:00:13Z</time>
      </trkpt>
      <trkpt lat="41.46931" lon="-0.54824">
        <time>2022-07-29T08:00:14Z</time>
      </trkpt>
      <trkpt lat="41.46949" lon="-0.54851">
        <time>2022-07-29T08:00:15Z</time>
      </trkpt>
      <trkpt lat="41.46968" lon="-0.54878">
        <time>2022-07-29T08:00:16Z</time>
      </trkpt>
      <trkpt lat="41.46987" lon="-0.54904">
        <time>2022-07-29T08:00:17Z</time>
      </trkpt>
      <trkpt lat="41.47006" lon="-0.5493">
        <time>2022-07-29T08:00:18Z</time>
      </trkpt>
      <trkpt lat="41.47026" lon="-0.54957">
        <time>2022-07-29T08:00:19Z</time>
      </trkpt>
      <trkpt lat="41.47045" lon="-0.54984">
        <time>2022-07-29T08:00:20Z</time>
      </trkpt>
      <trkpt lat="41.47065" lon="-0.55011">
        <time>2022-07-29T08:00:21Z</time>
      </trkpt>
      <trkpt lat="41.47085" lon="-0.55037">
        <time>2022-07-29T08:00:22Z</time>
      </trkpt>
      <trkpt lat="41.47105" lon="-0.55064">
        <time>2022-07-29T08:00:23Z</time>
      </trkpt>
      <trkpt lat="41.47125" lon="-0.5509">
        <time>2022-07-29T08:00:24Z</time>
      </trkpt>
      <trkpt lat="41.47145" lon="-0.55117">
        <time>2022-07-29T08:00:25Z</time>
      </trkpt>
      <trkpt lat="41.47165" lon="-0.55143">
        <time>2022-07-29T08:00:26Z</time>
      </trkpt>
      <trkpt lat="41.47184" lon="-0.55169">
        <time>2022-07-29T08:00:27Z</time>
      </trkpt>
      <trkpt lat="41.47203" lon="-0.55193">
        <time>2022-07-29T08:00:28Z</time>
      </trkpt>
      <trkpt lat="41.47221" lon="-0.55217">
        <time>2022-07-29T08:00:29Z</time>
      </trkpt>
      <trkpt lat="41.4724" lon="-0.55241">
        <time>2022-07-29T08:00:30Z</time>
      </trkpt>
      <trkpt lat="41.47257" lon="-0.55264">
        <time>2022-07-29T08:00:31Z</time>
      </trkpt>
      <trkpt lat="41.47274" lon="-0.55287">
        <time>2022-07-29T08:00:32Z</time>
      </trkpt>
      <trkpt lat="41.47289" lon="-0.55308">
        <time>2022-07-29T08:00:33Z</time>
      </trkpt>
      <trkpt lat="41.47304" lon="-0.55328">
        <time>2022-07-29T08:00:34Z</time>
      </trkpt>
      <trkpt lat="41.47319" lon="-0.55347">
        <time>2022-07-29T08:00:35Z</time>
      </trkpt>
      <trkpt lat="41.47333" lon="-0.55366">
        <time>2022-07-29T08:00:36Z</time>
      </trkpt>
      <trkpt lat="41.47348" lon="-0.55386">
        <time>2022-07-29T08:00:37Z</time>
      </trkpt>
      <trkpt lat="41.47363" lon="-0.55406">
        <time>2022-07-29T08:00:38Z</time>
      </trkpt>
      <trkpt lat="41.47378" lon="-0.55426">
        <time>2022-07-29T08:00:39Z</time>
      </trkpt>
      <trkpt lat="41.47394" lon="-0.55447">
        <time>2022-07-29T08:00:40Z</time>
      </trkpt>
      <trkpt lat="41.47409" lon="-0.55468">
        <time>2022-07-29T08:00:41Z</time>
      </trkpt>
      <trkpt lat="41.47424" lon="-0.5549">
        <time>2022-07-29T08:00:42Z</time>
      </trkpt>
      <trkpt lat="41.47439" lon="-0.55511">
        <time>2022-07-29T08:00:43Z</time>
      </trkpt>
      <trkpt lat="41.47454" lon="-0.55532">
        <time>2022-07-29T08:00:44Z</time>
      </trkpt>
      <trkpt lat="41.4747" lon="-0.55553">
        <time>2022-07-29T08:00:45Z</time>
      </trkpt>
      <trkpt lat="41.47486" lon="-0.55574">
        <time>2022-07-29T08:00:46Z</time>
      </trkpt>
      <trkpt lat="41.47501" lon="-0.55595">
        <time>2022-07-29T08:00:47Z</time>
      </trkpt>
      <trkpt lat="41.47517" lon="-0.55616">
        <time>2022-07-29T08:00:48Z</time>
      </trkpt>
      <trkpt lat="41.47533" lon="-0.55637">
        <time>2022-07-29T08:00:49Z</time>
      </trkpt>
      <trkpt lat="41.47548" lon="-0.55658">
        <time>2022-07-29T08:00:50Z</time>
      </trkpt>
      <trkpt lat="41.47563" lon="-0.55679">
        <time>2022-07-29T08:00:51Z</time>
      </trkpt>
      <trkpt lat="41.47578" lon="-0.557">
        <time>2022-07-29T08:00:52Z</time>
      </trkpt>
      <trkpt lat="41.4759" lon="-0.55721">
        <time>2022-07-29T08:00:53Z</time>
      </trkpt>
      <trkpt lat="41.47602" lon="-0.55743">
        <time>2022-07-29T08:00:54Z</time>
      </trkpt>
      <trkpt lat="41.47613" lon="-0.55765">
        <time>2022-07-29T08:00:55Z</time>
      </trkpt>
      <trkpt lat="41.47623" lon="-0.55787">
        <time>2022-07-29T08:00:56Z</time>
      </trkpt>
      <trkpt lat="41.47633" lon="-0.55808">
        <time>2022-07-29T08:00:57Z</time>
      </trkpt>
      <trkpt lat="41.47641" lon="-0.5583">
        <time>2022-07-29T08:00:58Z</time>
      </trkpt>
      <trkpt lat="41.47648" lon="-0.55853">
        <time>2022-07-29T08:00:59Z</time>
      </trkpt>
      <trkpt lat="41.47655" lon="-0.55876">
        <time>2022-07-29T08:01:00Z</time>
      </trkpt>
      <trkpt lat="41.47662" lon="-0.55899">
        <time>2022-07-29T08:01:01Z</time>
      </trkpt>
      <trkpt lat="41.47669" lon="-0.55923">
        <time>2022-07-29T08:01:02Z</time>
      </trkpt>
      <trkpt lat="41.47675" lon="-0.55947">
        <time>2022-07-29T08:01:03Z</time>
      </trkpt>
      <trkpt lat="41.47682" lon="-0.5597">
        <time>2022-07-29T08:01:04Z</time>
      </trkpt>
      <trkpt lat="41.47689" lon="-0.55994">
        <time>2022-07-29T08:01:05Z</time>
      </trkpt>
      <trkpt lat="41.47697" lon="-0.56018">
        <time>2022-07-29T08:01:06Z</time>
      </trkpt>
      <trkpt lat="41.47705" lon="-0.56041">
        <time>2022-07-29T08:01:07Z</time>
      </trkpt>
      <trkpt lat="41.47714" lon="-0.56064">
        <time>2022-07-29T08:01:08Z</time>
      </trkpt>
      <trkpt lat="41.47724" lon="-0.56086">
        <time>2022-07-29T08:01:09Z</time>
      </trkpt>
      <trkpt lat="41.47734" lon="-0.56108">
        <time>2022-07-29T08:01:10Z</time>
      </trkpt>
      <trkpt lat="41.47745" lon="-0.56129">
        <time>2022-07-29T08:01:11Z</time>
      </trkpt>
      <trkpt lat="41.47756" lon="-0.5615">
        <time>2022-07-29T08:01:12Z</time>
      </trkpt>
      <trkpt lat="41.47767" lon="-0.56171">
        <time>2022-07-29T08:01:13Z</time>
      </trkpt>
      <trkpt lat="41.47779" lon="-0.56191">
        <time>2022-07-29T08:01:14Z</time>
      </trkpt>
      <trkpt lat="41.47792" lon="-0.5621">
        <time>2022-07-29T08:01:15Z</time>
      </trkpt>
      <trkpt lat="41.47805" lon="-0.56228">
        <time>2022-07-29T08:01:16Z</time>
      </trkpt>
      <trkpt lat="41.47818" lon="-0.56246">
        <time>2022-07-29T08:01:17Z</time>
      </trkpt>
      <trkpt lat="41.47831" lon="-0.56263">
        <time>2022-07-29T08:01:18Z</time>
      </trkpt>
      <trkpt lat="41.47844" lon="-0.5628">
        <time>2022-07-29T08:01:19Z</time>
      </trkpt>
      <trkpt lat="41.47857" lon="-0.56296">
        <time>2022-07-29T08:01:20Z</time>
      </trkpt>
      <trkpt lat="41.4787" lon="-0.56311">
        <time>2022-07-29T08:01:21Z</time>
      </trkpt>
      <trkpt lat="41.47882" lon="-0.56326">
        <time>2022-07-29T08:01:22Z</time>
      </trkpt>
      <trkpt lat="41.47894" lon="-0.5634">
        <time>2022-07-29T08:01:23Z</time>
      </trkpt>
      <trkpt lat="41.47905" lon="-0.56353">
        <time>2022-07-29T08:01:24Z</time>
      </trkpt>
      <trkpt lat="41.47915" lon="-0.56366">
        <time>2022-07-29T08:01:25Z</time>
      </trkpt>
      <trkpt lat="41.47925" lon="-0.56378">
        <time>2022-07-29T08:01:26Z</time>
      </trkpt>
      <trkpt lat="41.47934" lon="-0.56389">
        <time>2022-07-29T08:01:27Z</time>
      </trkpt>
      <trkpt lat="41.47943" lon="-0.564">
        <time>2022-07-29T08:01:28Z</time>
      </trkpt>
      <trkpt lat="41.47953" lon="-0.5641">
        <time>2022-07-29T08:01:29Z</time>
      </trkpt>
      <trkpt lat="41.47962" lon="-0.56421">
        <time>2022-07-29T08:01:30Z</time>
      </trkpt>
      <trkpt lat="41.47972" lon="-0.56432">
        <time>2022-07-29T08:01:31Z</time>
      </trkpt>
      <trkpt lat="41.47981" lon="-0.56444">
        <time>2022-07-29T08:01:32Z</time>
      </trkpt>
      <trkpt lat="41.47991" lon="-0.56455">
        <time>2022-07-29T08:01:33Z</time>
      </trkpt>
      <trkpt lat="41.48001" lon="-0.56466">
        <time>2022-07-29T08:01:34Z</time>
      </trkpt>
      <trkpt lat="41.4801" lon="-0.56476">
        <time>2022-07-29T08:01:35Z</time>
      </trkpt>
      <trkpt lat="41.48019" lon="-0.56487">
        <time>2022-07-29T08:01:36Z</time>
      </trkpt>
      <trkpt lat="41.48028" lon="-0.56497">
        <time>2022-07-29T08:01:37Z</time>
      </trkpt>
      <trkpt lat="41.48036" lon="-0.56506">
        <time>2022-07-29T08:01:38Z</time>
      </trkpt>
      <trkpt lat="41.48045" lon="-0.56516">
        <time>2022-07-29T08:01:39Z</time>
      </trkpt>
      <trkpt lat="41.48051" lon="-0.56524">
        <time>2022-07-29T08:01:40Z</time>
      </trkpt>
      <trkpt lat="41.48058" lon="-0.56531">
        <time>2022-07-29T08:01:41Z</time>
      </trkpt>
      <trkpt lat="41.48063" lon="-0.56538">
        <time>2022-07-29T08:01:42Z</time>
      </trkpt>
      <trkpt lat="41.48068" lon="-0.56544">
        <time>2022-07-29T08:01:43Z</time>
      </trkpt>
      <trkpt lat="41.48073" lon="-0.5655">
        <time>2022-07-29T08:01:44Z</time>
      </trkpt>
      <trkpt lat="41.48079" lon="-0.56557">
        <time>2022-07-29T08:01:45Z</time>
      </trkpt>
      <trkpt lat="41.48086" lon="-0.56564">
        <time>2022-07-29T08:01:46Z</time>
      </trkpt>
      <trkpt lat="41.48094" lon="-0.56573">
        <time>2022-07-29T08:01:47Z</time>
      </trkpt>
      <trkpt lat="41.48104" lon="-0.56584">
        <time>2022-07-29T08:01:48Z</time>
      </trkpt>
      <trkpt lat="41.48113" lon="-0.56595">
        <time>2022-07-29T08:01:49Z</time>
      </trkpt>
      <trkpt lat="41.48124" lon="-0.56607">
        <time>2022-07-29T08:01:50Z</time>
      </trkpt>
      <trkpt lat="41.48136" lon="-0.56622">
        <time>2022-07-29T08:01:51Z</time>
      </trkpt>
      <trkpt lat="41.48148" lon="-0.56636">
        <time>2022-07-29T08:01:52Z</time>
      </trkpt>
      <trkpt lat="41.48161" lon="-0.56651">
        <time>2022-07-29T08:01:53Z</time>
      </trkpt>
      <trkpt lat="41.48175" lon="-0.56668">
        <time>2022-07-29T08:01:54Z</time>
      </trkpt>
      <trkpt lat="41.48189" lon="-0.56685">
        <time>2022-07-29T08:01:55Z</time>
      </trkpt>
      <trkpt lat="41.48204" lon="-0.56703">
        <time>2022-07-29T08:01:56Z</time>
      </trkpt>
      <trkpt lat="41.48219" lon="-0.56721">
        <time>2022-07-29T08:01:57Z</time>
      </trkpt>
      <trkpt lat="41.48235" lon="-0.56741">
        <time>2022-07-29T08:01:58Z</time>
      </trkpt>
      <trkpt lat="41.48252" lon="-0.56762">
        <time>2022-07-29T08:01:59Z</time>
      </trkpt>
      <trkpt lat="41.48269" lon="-0.56783">
        <time>2022-07-29T08:02:00Z</time>
      </trkpt>
      <trkpt lat="41.48287" lon="-0.56806">
        <time>2022-07-29T08:02:01Z</time>
      </trkpt>
      <trkpt lat="41.48306" lon="-0.56829">
        <time>2022-07-29T08:02:02Z</time>
      </trkpt>
      <trkpt lat="41.48326" lon="-0.56853">
        <time>2022-07-29T08:02:03Z</time>
      </trkpt>
      <trkpt lat="41.48348" lon="-0.56878">
        <time>2022-07-29T08:02:04Z</time>
      </trkpt>
      <trkpt lat="41.4837" lon="-0.56904">
        <time>2022-07-29T08:02:05Z</time>
      </trkpt>
      <trkpt lat="41.48393" lon="-0.5693">
        <time>2022-07-29T08:02:06Z</time>
      </trkpt>
      <trkpt lat="41.48416" lon="-0.56957">
        <time>2022-07-29T08:02:07Z</time>
      </trkpt>
      <trkpt lat="41.4844" lon="-0.56984">
        <time>2022-07-29T08:02:08Z</time>
      </trkpt>
      <trkpt lat="41.48464" lon="-0.57012">
        <time>2022-07-29T08:02:09Z</time>
      </trkpt>
      <trkpt lat="41.48488" lon="-0.5704">
        <time>2022-07-29T08:02:10Z</time>
      </trkpt>
      <trkpt lat="41.48512" lon="-0.57068">
        <time>2022-07-29T08:02:11Z</time>
      </trkpt>
      <trkpt lat="41.48536" lon="-0.57096">
        <time>2022-07-29T08:02:12Z</time>
      </trkpt>
      <trkpt lat="41.4856" lon="-0.57124">
        <time>2022-07-29T08:02:13Z</time>
      </trkpt>
      <trkpt lat="41.48583" lon="-0.57152">
        <time>2022-07-29T08:02:14Z</time>
      </trkpt>
      <trkpt lat="41.48607" lon="-0.57179">
        <time>2022-07-29T08:02:15Z</time>
      </trkpt>
      <trkpt lat="41.48631" lon="-0.57206">
        <time>2022-07-29T08:02:16Z</time>
      </trkpt>
      <trkpt lat="41.48654" lon="-0.57235">
        <time>2022-07-29T08:02:17Z</time>
      </trkpt>
      <trkpt lat="41.48678" lon="-0.57262">
        <time>2022-07-29T08:02:18Z</time>
      </trkpt>
      <trkpt lat="41.48701" lon="-0.5729">
        <time>2022-07-29T08:02:19Z</time>
      </trkpt>
      <trkpt lat="41.48725" lon="-0.57317">
        <time>2022-07-29T08:02:20Z</time>
      </trkpt>
      <trkpt lat="41.48748" lon="-0.57343">
        <time>2022-07-29T08:02:21Z</time>
      </trkpt>
      <trkpt lat="41.48771" lon="-0.57371">
        <time>2022-07-29T08:02:22Z</time>
      </trkpt>
      <trkpt lat="41.48794" lon="-0.57399">
        <time>2022-07-29T08:02:23Z</time>
      </trkpt>
      <trkpt lat="41.48817" lon="-0.57426">
        <time>2022-07-29T08:02:24Z</time>
      </trkpt>
      <trkpt lat="41.4884" lon="-0.57454">
        <time>2022-07-29T08:02:25Z</time>
      </trkpt>
      <trkpt lat="41.48864" lon="-0.57481">
        <time>2022-07-29T08:02:26Z</time>
      </trkpt>
      <trkpt lat="41.48887" lon="-0.57508">
        <time>2022-07-29T08:02:27Z</time>
      </trkpt>
      <trkpt lat="41.4891" lon="-0.57535">
        <time>2022-07-29T08:02:28Z</time>
      </trkpt>
      <trkpt lat="41.48933" lon="-0.57562">
        <time>2022-07-29T08:02:29Z</time>
      </trkpt>
      <trkpt lat="41.48956" lon="-0.5759">
        <time>2022-07-29T08:02:30Z</time>
      </trkpt>
      <trkpt lat="41.48978" lon="-0.57617">
        <time>2022-07-29T08:02:31Z</time>
      </trkpt>
      <trkpt lat="41.49001" lon="-0.57643">
        <time>2022-07-29T08:02:32Z</time>
      </trkpt>
      <trkpt lat="41.49024" lon="-0.57669">
        <time>2022-07-29T08:02:33Z</time>
      </trkpt>
      <trkpt lat="41.49046" lon="-0.57695">
        <time>2022-07-29T08:02:34Z</time>
      </trkpt>
      <trkpt lat="41.49068" lon="-0.57721">
        <time>2022-07-29T08:02:35Z</time>
      </trkpt>
      <trkpt lat="41.4909" lon="-0.57747">
        <time>2022-07-29T08:02:36Z</time>
      </trkpt>
      <trkpt lat="41.49111" lon="-0.57772">
        <time>2022-07-29T08:02:37Z</time>
      </trkpt>
      <trkpt lat="41.49131" lon="-0.57796">
        <time>2022-07-29T08:02:38Z</time>
      </trkpt>
      <trkpt lat="41.49152" lon="-0.57819">
        <time>2022-07-29T08:02:39Z</time>
      </trkpt>
      <trkpt lat="41.49171" lon="-0.57842">
        <time>2022-07-29T08:02:40Z</time>
      </trkpt>
      <trkpt lat="41.4919" lon="-0.57864">
        <time>2022-07-29T08:02:41Z</time>
      </trkpt>
      <trkpt lat="41.49209" lon="-0.57887">
        <time>2022-07-29T08:02:42Z</time>
      </trkpt>
      <trkpt lat="41.49227" lon="-0.5791">
        <time>2022-07-29T08:02:43Z</time>
      </trkpt>
      <trkpt lat="41.49245" lon="-0.57934">
        <time>2022-07-29T08:02:44Z</time>
      </trkpt>
      <trkpt lat="41.49261" lon="-0.57961">
        <time>2022-07-29T08:02:45Z</time>
      </trkpt>
      <trkpt lat="41.49276" lon="-0.5799">
        <time>2022-07-29T08:02:46Z</time>
      </trkpt>
      <trkpt lat="41.49289" lon="-0.58021">
        <time>2022-07-29T08:02:47Z</time>
      </trkpt>
      <trkpt lat="41.49303" lon="-0.58054">
        <time>2022-07-29T08:02:48Z</time>
      </trkpt>
      <trkpt lat="41.49317" lon="-0.58087">
        <time>2022-07-29T08:02:49Z</time>
      </trkpt>
      <trkpt lat="41.49331" lon="-0.5812">
        <time>2022-07-29T08:02:50Z</time>
      </trkpt>
      <trkpt lat="41.49346" lon="-0.58154">
        <time>2022-07-29T08:02:51Z</time>
      </trkpt>
      <trkpt lat="41.4936" lon="-0.58188">
        <time>2022-07-29T08:02:52Z</time>
      </trkpt>
      <trkpt lat="41.49374" lon="-0.58222">
        <time>2022-07-29T08:02:53Z</time>
      </trkpt>
      <trkpt lat="41.49388" lon="-0.58255">
        <time>2022-07-29T08:02:54Z</time>
      </trkpt>
      <trkpt lat="41.49402" lon="-0.58289">
        <time>2022-07-29T08:02:55Z</time>
      </trkpt>
      <trkpt lat="41.49416" lon="-0.58322">
        <time>2022-07-29T08:02:56Z</time>
      </trkpt>
      <trkpt lat="41.4943" lon="-0.58355">
        <time>2022-07-29T08:02:57Z</time>
      </trkpt>
      <trkpt lat="41.49444" lon="-0.58388">
        <time>2022-07-29T08:02:58Z</time>
      </trkpt>
      <trkpt lat="41.49458" lon="-0.58421">
        <time>2022-07-29T08:02:59Z</time>
      </trkpt>
      <trkpt lat="41.49472" lon="-0.58453">
        <time>2022-07-29T08:03:00Z</time>
      </trkpt>
      <trkpt lat="41.49485" lon="-0.58486">
        <time>2022-07-29T08:03:01Z</time>
      </trkpt>
      <trkpt lat="41.49499" lon="-0.58519">
        <time>2022-07-29T08:03:02Z</time>
      </trkpt>
      <trkpt lat="41.49513" lon="-0.58551">
        <time>2022-07-29T08:03:03Z</time>
      </trkpt>
      <trkpt lat="41.49527" lon="-0.58584">
        <time>2022-07-29T08:03:04Z</time>
      </trkpt>
      <trkpt lat="41.49541" lon="-0.58616">
        <time>2022-07-29T08:03:05Z</time>
      </trkpt>
      <trkpt lat="41.49555" lon="-0.58649">
        <time>2022-07-29T08:03:06Z</time>
      </trkpt>
      <trkpt lat="41.49569" lon="-0.58682">
        <time>2022-07-29T08:03:07Z</time>
      </trkpt>
      <trkpt lat="41.49583" lon="-0.58715">
        <time>2022-07-29T08:03:08Z</time>
      </trkpt>
      <trkpt lat="41.49597" lon="-0.58749">
        <time>2022-07-29T08:03:09Z</time>
      </trkpt>
      <trkpt lat="41.49611" lon="-0.58782">
        <time>2022-07-29T08:03:10Z</time>
      </trkpt>
      <trkpt lat="41.49625" lon="-0.58817">
        <time>2022-07-29T08:03:11Z</time>
      </trkpt>
      <trkpt lat="41.4964" lon="-0.5885">
        <time>2022-07-29T08:03:12Z</time>
      </trkpt>
      <trkpt lat="41.49654" lon="-0.58884">
        <time>2022-07-29T08:03:13Z</time>
      </trkpt>
      <trkpt lat="41.49669" lon="-0.58919">
        <time>2022-07-29T08:03:14Z</time>
      </trkpt>
      <trkpt lat="41.49683" lon="-0.58953">
        <time>2022-07-29T08:03:15Z</time>
      </trkpt>
      <trkpt lat="41.49697" lon="-0.58987">
        <time>2022-07-29T08:03:16Z</time>
      </trkpt>
      <trkpt lat="41.49712" lon="-0.5902">
        <time>2022-07-29T08:03:17Z</time>
      </trkpt>
      <trkpt lat="41.49726" lon="-0.59054">
        <time>2022-07-29T08:03:18Z</time>
      </trkpt>
      <trkpt lat="41.49741" lon="-0.59088">
        <time>2022-07-29T08:03:19Z</time>
      </trkpt>
      <trkpt lat="41.49755" lon="-0.59122">
        <time>2022-07-29T08:03:20Z</time>
      </trkpt>
      <trkpt lat="41.49769" lon="-0.59156">
        <time>2022-07-29T08:03:21Z</time>
      </trkpt>
      <trkpt lat="41.49784" lon="-0.5919">
        <time>2022-07-29T08:03:22Z</time>
      </trkpt>
      <trkpt lat="41.49798" lon="-0.59224">
        <time>2022-07-29T08:03:23Z</time>
      </trkpt>
      <trkpt lat="41.49812" lon="-0.59258">
        <time>2022-07-29T08:03:24Z</time>
      </trkpt>
      <trkpt lat="41.49826" lon="-0.59292">
        <time>2022-07-29T08:03:25Z</time>
      </trkpt>
      <trkpt lat="41.4984" lon="-0.59326">
        <time>2022-07-29T08:03:26Z</time>
      </trkpt>
      <trkpt lat="41.49854" lon="-0.5936">
        <time>2022-07-29T08:03:27Z</time>
      </trkpt>
      <trkpt lat="41.49868" lon="-0.59393">
        <time>2022-07-29T08:03:28Z</time>
      </trkpt>
      <trkpt lat="41.49882" lon="-0.59427">
        <time>2022-07-29T08:03:29Z</time>
      </trkpt>
      <trkpt lat="41.49896" lon="-0.59461">
        <time>2022-07-29T08:03:30Z</time>
      </trkpt>
      <trkpt lat="41.4991" lon="-0.59494">
        <time>2022-07-29T08:03:31Z</time>
      </trkpt>
      <trkpt lat="41.49924" lon="-0.59528">
        <time>2022-07-29T08:03:32Z</time>
      </trkpt>
      <trkpt lat="41.49939" lon="-0.59562">
        <time>2022-07-29T08:03:33Z</time>
      </trkpt>
      <trkpt lat="41.49953" lon="-0.59596">
        <time>2022-07-29T08:03:34Z</time>
      </trkpt>
      <trkpt lat="41.49967" lon="-0.5963">
        <time>2022-07-29T08:03:35Z</time>
      </trkpt>
      <trkpt lat="41.49981" lon="-0.59664">
        <time>2022-07-29T08:03:36Z</time>
      </trkpt>
      <trkpt lat="41.49995" lon="-0.59698">
        <time>2022-07-29T08:03:37Z</time>
      </trkpt>
      <trkpt lat="41.5001" lon="-0.59732">
        <time>2022-07-29T08:03:38Z</time>
      </trkpt>
      <trkpt lat="41.50024" lon="-0.59766">
        <time>2022-07-29T08:03:39Z</time>
      </trkpt>
      <trkpt lat="41.50038" lon="-0.598">
        <time>2022-07-29T08:03:40Z</time>
      </trkpt>
      <trkpt lat="41.50052" lon="-0.59834">
        <time>2022-07-29T08:03:41Z</time>
      </trkpt>
      <trkpt lat="41.50067" lon="-0.59868">
        <time>2022-07-29T08:03:42Z</time>
      </trkpt>
      <trkpt lat="41.50082" lon="-0.59902">
        <time>2022-07-29T08:03:43Z</time>
      </trkpt>
      <trkpt lat="41.50096" lon="-0.59936">
        <time>2022-07-29T08:03:44Z</time>
      </trkpt>
      <trkpt lat="41.5011" lon="-0.5997">
        <time>2022-07-29T08:03:45Z</time>
      </trkpt>
      <trkpt lat="41.50125" lon="-0.60005">
        <time>2022-07-29T08:03:46Z</time>
      </trkpt>
      <trkpt lat="41.50139" lon="-0.60039">
        <time>2022-07-29T08:03:47Z</time>
      </trkpt>
      <trkpt lat="41.50153" lon="-0.60074">
        <time>2022-07-29T08:03:48Z</time>
      </trkpt>
      <trkpt lat="41.50168" lon="-0.60108">
        <time>2022-07-29T08:03:49Z</time>
      </trkpt>
      <trkpt lat="41.50183" lon="-0.60143">
        <time>2022-07-29T08:03:50Z</time>
      </trkpt>
      <trkpt lat="41.50197" lon="-0.60177">
        <time>2022-07-29T08:03:51Z</time>
      </trkpt>
      <trkpt lat="41.50211" lon="-0.60212">
        <time>2022-07-29T08:03:52Z</time>
      </trkpt>
      <trkpt lat="41.50226" lon="-0.60247">
        <time>2022-07-29T08:03:53Z</time>
      </trkpt>
      <trkpt lat="41.5024" lon="-0.6028">
        <time>2022-07-29T08:03:54Z</time>
      </trkpt>
      <trkpt lat="41.50255" lon="-0.60314">
        <time>2022-07-29T08:03:55Z</time>
      </trkpt>
      <trkpt lat="41.50269" lon="-0.60347">
        <time>2022-07-29T08:03:56Z</time>
      </trkpt>
      <trkpt lat="41.50283" lon="-0.6038">
        <time>2022-07-29T08:03:57Z</time>
      </trkpt>
      <trkpt lat="41.50296" lon="-0.60413">
        <time>2022-07-29T08:03:58Z</time>
      </trkpt>
      <trkpt lat="41.5031" lon="-0.60446">
        <time>2022-07-29T08:03:59Z</time>
      </trkpt>
      <trkpt lat="41.50323" lon="-0.60477">
        <time>2022-07-29T08:04:00Z</time>
      </trkpt>
      <trkpt lat="41.50337" lon="-0.60509">
        <time>2022-07-29T08:04:01Z</time>
      </trkpt>
      <trkpt lat="41.50351" lon="-0.60539">
        <time>2022-07-29T08:04:02Z</time>
      </trkpt>
      <trkpt lat="41.50366" lon="-0.6057">
        <time>2022-07-29T08:04:03Z</time>
      </trkpt>
      <trkpt lat="41.50381" lon="-0.606">
        <time>2022-07-29T08:04:04Z</time>
      </trkpt>
      <trkpt lat="41.50397" lon="-0.60629">
        <time>2022-07-29T08:04:05Z</time>
      </trkpt>
      <trkpt lat="41.50414" lon="-0.60658">
        <time>2022-07-29T08:04:06Z</time>
      </trkpt>
      <trkpt lat="41.5043" lon="-0.60687">
        <time>2022-07-29T08:04:07Z</time>
      </trkpt>
      <trkpt lat="41.50446" lon="-0.60717">
        <time>2022-07-29T08:04:08Z</time>
      </trkpt>
      <trkpt lat="41.50461" lon="-0.60748">
        <time>2022-07-29T08:04:09Z</time>
      </trkpt>
      <trkpt lat="41.50473" lon="-0.60781">
        <time>2022-07-29T08:04:10Z</time>
      </trkpt>
      <trkpt lat="41.50484" lon="-0.60815">
        <time>2022-07-29T08:04:11Z</time>
      </trkpt>
      <trkpt lat="41.50494" lon="-0.60849">
        <time>2022-07-29T08:04:12Z</time>
      </trkpt>
      <trkpt lat="41.50502" lon="-0.60885">
        <time>2022-07-29T08:04:13Z</time>
      </trkpt>
      <trkpt lat="41.50509" lon="-0.60921">
        <time>2022-07-29T08:04:14Z</time>
      </trkpt>
      <trkpt lat="41.50514" lon="-0.60957">
        <time>2022-07-29T08:04:15Z</time>
      </trkpt>
      <trkpt lat="41.50518" lon="-0.60994">
        <time>2022-07-29T08:04:16Z</time>
      </trkpt>
      <trkpt lat="41.50519" lon="-0.6103">
        <time>2022-07-29T08:04:17Z</time>
      </trkpt>
      <trkpt lat="41.50519" lon="-0.61064">
        <time>2022-07-29T08:04:18Z</time>
      </trkpt>
      <trkpt lat="41.50517" lon="-0.61097">
        <time>2022-07-29T08:04:19Z</time>
      </trkpt>
      <trkpt lat="41.50514" lon="-0.61128">
        <time>2022-07-29T08:04:20Z</time>
      </trkpt>
      <trkpt lat="41.5051" lon="-0.61157">
        <time>2022-07-29T08:04:21Z</time>
      </trkpt>
      <trkpt lat="41.50506" lon="-0.61184">
        <time>2022-07-29T08:04:22Z</time>
      </trkpt>
      <trkpt lat="41.50501" lon="-0.6121">
        <time>2022-07-29T08:04:23Z</time>
      </trkpt>
      <trkpt lat="41.50494" lon="-0.61237">
        <time>2022-07-29T08:04:24Z</time>
      </trkpt>
      <trkpt lat="41.50487" lon="-0.61262">
        <time>2022-07-29T08:04:25Z</time>
      </trkpt>
      <trkpt lat="41.5048" lon="-0.61288">
        <time>2022-07-29T08:04:26Z</time>
      </trkpt>
      <trkpt lat="41.50471" lon="-0.61313">
        <time>2022-07-29T08:04:27Z</time>
      </trkpt>
      <trkpt lat="41.50461" lon="-0.61338">
        <time>2022-07-29T08:04:28Z</time>
      </trkpt>
      <trkpt lat="41.5045" lon="-0.61363">
        <time>2022-07-29T08:04:29Z</time>
      </trkpt>
      <trkpt lat="41.50438" lon="-0.61389">
        <time>2022-07-29T08:04:30Z</time>
      </trkpt>
      <trkpt lat="41.50426" lon="-0.61413">
        <time>2022-07-29T08:04:31Z</time>
      </trkpt>
      <trkpt lat="41.50411" lon="-0.61438">
        <time>2022-07-29T08:04:32Z</time>
      </trkpt>
      <trkpt lat="41.50396" lon="-0.61461">
        <time>2022-07-29T08:04:33Z</time>
      </trkpt>
      <trkpt lat="41.5038" lon="-0.61484">
        <time>2022-07-29T08:04:34Z</time>
      </trkpt>
      <trkpt lat="41.50365" lon="-0.61508">
        <time>2022-07-29T08:04:35Z</time>
      </trkpt>
      <trkpt lat="41.50349" lon="-0.61532">
        <time>2022-07-29T08:04:36Z</time>
      </trkpt>
      <trkpt lat="41.50334" lon="-0.61555">
        <time>2022-07-29T08:04:37Z</time>
      </trkpt>
      <trkpt lat="41.50319" lon="-0.6158">
        <time>2022-07-29T08:04:38Z</time>
      </trkpt>
      <trkpt lat="41.50305" lon="-0.61605">
        <time>2022-07-29T08:04:39Z</time>
      </trkpt>
      <trkpt lat="41.50291" lon="-0.61631">
        <time>2022-07-29T08:04:40Z</time>
      </trkpt>
      <trkpt lat="41.50278" lon="-0.61658">
        <time>2022-07-29T08:04:41Z</time>
      </trkpt>
      <trkpt lat="41.50265" lon="-0.61684">
        <time>2022-07-29T08:04:42Z</time>
      </trkpt>
      <trkpt lat="41.50252" lon="-0.61712">
        <time>2022-07-29T08:04:43Z</time>
      </trkpt>
      <trkpt lat="41.50239" lon="-0.61742">
        <time>2022-07-29T08:04:44Z</time>
      </trkpt>
      <trkpt lat="41.50227" lon="-0.61773">
        <time>2022-07-29T08:04:45Z</time>
      </trkpt>
      <trkpt lat="41.50214" lon="-0.61805">
        <time>2022-07-29T08:04:46Z</time>
      </trkpt>
      <trkpt lat="41.50202" lon="-0.61838">
        <time>2022-07-29T08:04:47Z</time>
      </trkpt>
      <trkpt lat="41.5019" lon="-0.61873">
        <time>2022-07-29T08:04:48Z</time>
      </trkpt>
      <trkpt lat="41.50178" lon="-0.61908">
        <time>2022-07-29T08:04:49Z</time>
      </trkpt>
      <trkpt lat="41.50166" lon="-0.61943">
        <time>2022-07-29T08:04:50Z</time>
      </trkpt>
      <trkpt lat="41.50155" lon="-0.61978">
        <time>2022-07-29T08:04:51Z</time>
      </trkpt>
      <trkpt lat="41.50143" lon="-0.62013">
        <time>2022-07-29T08:04:52Z</time>
      </trkpt>
      <trkpt lat="41.50132" lon="-0.62048">
        <time>2022-07-29T08:04:53Z</time>
      </trkpt>
      <trkpt lat="41.50121" lon="-0.62082">
        <time>2022-07-29T08:04:54Z</time>
      </trkpt>
      <trkpt lat="41.5011" lon="-0.62117">
        <time>2022-07-29T08:04:55Z</time>
      </trkpt>
      <trkpt lat="41.501" lon="-0.62151">
        <time>2022-07-29T08:04:56Z</time>
      </trkpt>
      <trkpt lat="41.50089" lon="-0.62185">
        <time>2022-07-29T08:04:57Z</time>
      </trkpt>
      <trkpt lat="41.50079" lon="-0.6222">
        <time>2022-07-29T08:04:58Z</time>
      </trkpt>
      <trkpt lat="41.50069" lon="-0.62254">
        <time>2022-07-29T08:04:59Z</time>
      </trkpt>
      <trkpt lat="41.50059" lon="-0.62288">
        <time>2022-07-29T08:05:00Z</time>
      </trkpt>
      <trkpt lat="41.50049" lon="-0.62323">
        <time>2022-07-29T08:05:01Z</time>
      </trkpt>
      <trkpt lat="41.5004" lon="-0.62357">
        <time>2022-07-29T08:05:02Z</time>
      </trkpt>
      <trkpt lat="41.50031" lon="-0.62391">
        <time>2022-07-29T08:05:03Z</time>
      </trkpt>
      <trkpt lat="41.50021" lon="-0.62426">
        <time>2022-07-29T08:05:04Z</time>
      </trkpt>
      <trkpt lat="41.50013" lon="-0.62461">
        <time>2022-07-29T08:05:05Z</time>
      </trkpt>
      <trkpt lat="41.50004" lon="-0.62496">
        <time>2022-07-29T08:05:06Z</time>
      </trkpt>
      <trkpt lat="41.49995" lon="-0.62531">
        <time>2022-07-29T08:05:07Z</time>
      </trkpt>
      <trkpt lat="41.49986" lon="-0.62565">
        <time>2022-07-29T08:05:08Z</time>
      </trkpt>
      <trkpt lat="41.49978" lon="-0.626">
        <time>2022-07-29T08:05:09Z</time>
      </trkpt>
      <trkpt lat="41.49969" lon="-0.62634">
        <time>2022-07-29T08:05:10Z</time>
      </trkpt>
      <trkpt lat="41.49961" lon="-0.62668">
        <time>2022-07-29T08:05:11Z</time>
      </trkpt>
      <trkpt lat="41.49954" lon="-0.62702">
        <time>2022-07-29T08:05:12Z</time>
      </trkpt>
      <trkpt lat="41.49947" lon="-0.62737">
        <time>2022-07-29T08:05:13Z</time>
      </trkpt>
      <trkpt lat="41.49939" lon="-0.62771">
        <time>2022-07-29T08:05:14Z</time>
      </trkpt>
      <trkpt lat="41.49932" lon="-0.62805">
        <time>2022-07-29T08:05:15Z</time>
      </trkpt>
      <trkpt lat="41.49925" lon="-0.6284">
        <time>2022-07-29T08:05:16Z</time>
      </trkpt>
      <trkpt lat="41.49918" lon="-0.62874">
        <time>2022-07-29T08:05:17Z</time>
      </trkpt>
      <trkpt lat="41.49911" lon="-0.62909">
        <time>2022-07-29T08:05:18Z</time>
      </trkpt>
      <trkpt lat="41.49906" lon="-0.62944">
        <time>2022-07-29T08:05:19Z</time>
      </trkpt>
      <trkpt lat="41.499" lon="-0.62979">
        <time>2022-07-29T08:05:20Z</time>
      </trkpt>
      <trkpt lat="41.49896" lon="-0.63014">
        <time>2022-07-29T08:05:21Z</time>
      </trkpt>
      <trkpt lat="41.49894" lon="-0.63049">
        <time>2022-07-29T08:05:22Z</time>
      </trkpt>
      <trkpt lat="41.49891" lon="-0.63085">
        <time>2022-07-29T08:05:23Z</time>
      </trkpt>
      <trkpt lat="41.4989" lon="-0.63121">
        <time>2022-07-29T08:05:24Z</time>
      </trkpt>
      <trkpt lat="41.4989" lon="-0.63156">
        <time>2022-07-29T08:05:25Z</time>
      </trkpt>
      <trkpt lat="41.4989" lon="-0.63192">
        <time>2022-07-29T08:05:26Z</time>
      </trkpt>
      <trkpt lat="41.49891" lon="-0.63227">
        <time>2022-07-29T08:05:27Z</time>
      </trkpt>
      <trkpt lat="41.49893" lon="-0.63262">
        <time>2022-07-29T08:05:28Z</time>
      </trkpt>
      <trkpt lat="41.49897" lon="-0.63297">
        <time>2022-07-29T08:05:29Z</time>
      </trkpt>
      <trkpt lat="41.49901" lon="-0.63331">
        <time>2022-07-29T08:05:30Z</time>
      </trkpt>
      <trkpt lat="41.49906" lon="-0.63366">
        <time>2022-07-29T08:05:31Z</time>
      </trkpt>
      <trkpt lat="41.49912" lon="-0.634">
        <time>2022-07-29T08:05:32Z</time>
      </trkpt>
      <trkpt lat="41.49918" lon="-0.63434">
        <time>2022-07-29T08:05:33Z</time>
      </trkpt>
      <trkpt lat="41.49926" lon="-0.63468">
        <time>2022-07-29T08:05:34Z</time>
      </trkpt>
      <trkpt lat="41.49934" lon="-0.63502">
        <time>2022-07-29T08:05:35Z</time>
      </trkpt>
      <trkpt lat="41.49943" lon="-0.63536">
        <time>2022-07-29T08:05:36Z</time>
      </trkpt>
      <trkpt lat="41.49954" lon="-0.63569">
        <time>2022-07-29T08:05:37Z</time>
      </trkpt>
      <trkpt lat="41.49965" lon="-0.63602">
        <time>2022-07-29T08:05:38Z</time>
      </trkpt>
      <trkpt lat="41.49977" lon="-0.63634">
        <time>2022-07-29T08:05:39Z</time>
      </trkpt>
      <trkpt lat="41.4999" lon="-0.63666">
        <time>2022-07-29T08:05:40Z</time>
      </trkpt>
      <trkpt lat="41.50003" lon="-0.63698">
        <time>2022-07-29T08:05:41Z</time>
      </trkpt>
      <trkpt lat="41.50018" lon="-0.63729">
        <time>2022-07-29T08:05:42Z</time>
      </trkpt>
      <trkpt lat="41.50033" lon="-0.6376">
        <time>2022-07-29T08:05:43Z</time>
      </trkpt>
      <trkpt lat="41.50049" lon="-0.6379">
        <time>2022-07-29T08:05:44Z</time>
      </trkpt>
      <trkpt lat="41.50066" lon="-0.63819">
        <time>2022-07-29T08:05:45Z</time>
      </trkpt>
      <trkpt lat="41.50084" lon="-0.63847">
        <time>2022-07-29T08:05:46Z</time>
      </trkpt>
      <trkpt lat="41.50103" lon="-0.63873">
        <time>2022-07-29T08:05:47Z</time>
      </trkpt>
      <trkpt lat="41.50121" lon="-0.639">
        <time>2022-07-29T08:05:48Z</time>
      </trkpt>
      <trkpt lat="41.50141" lon="-0.63925">
        <time>2022-07-29T08:05:49Z</time>
      </trkpt>
      <trkpt lat="41.5016" lon="-0.63949">
        <time>2022-07-29T08:05:50Z</time>
      </trkpt>
      <trkpt lat="41.50181" lon="-0.63973">
        <time>2022-07-29T08:05:51Z</time>
      </trkpt>
      <trkpt lat="41.50202" lon="-0.63994">
        <time>2022-07-29T08:05:52Z</time>
      </trkpt>
      <trkpt lat="41.50224" lon="-0.64016">
        <time>2022-07-29T08:05:53Z</time>
      </trkpt>
      <trkpt lat="41.50246" lon="-0.64036">
        <time>2022-07-29T08:05:54Z</time>
      </trkpt>
      <trkpt lat="41.50268" lon="-0.64055">
        <time>2022-07-29T08:05:55Z</time>
      </trkpt>
      <trkpt lat="41.50291" lon="-0.64073">
        <time>2022-07-29T08:05:56Z</time>
      </trkpt>
      <trkpt lat="41.50314" lon="-0.6409">
        <time>2022-07-29T08:05:57Z</time>
      </trkpt>
      <trkpt lat="41.50338" lon="-0.64106">
        <time>2022-07-29T08:05:58Z</time>
      </trkpt>
      <trkpt lat="41.50361" lon="-0.6412">
        <time>2022-07-29T08:05:59Z</time>
      </trkpt>
      <trkpt lat="41.50385" lon="-0.64134">
        <time>2022-07-29T08:06:00Z</time>
      </trkpt>
      <trkpt lat="41.5041" lon="-0.64147">
        <time>2022-07-29T08:06:01Z</time>
      </trkpt>
      <trkpt lat="41.50434" lon="-0.64158">
        <time>2022-07-29T08:06:02Z</time>
      </trkpt>
      <trkpt lat="41.5046" lon="-0.64169">
        <time>2022-07-29T08:06:03Z</time>
      </trkpt>
      <trkpt lat="41.50486" lon="-0.64178">
        <time>2022-07-29T08:06:04Z</time>
      </trkpt>
      <trkpt lat="41.50512" lon="-0.64187">
        <time>2022-07-29T08:06:05Z</time>
      </trkpt>
      <trkpt lat="41.50538" lon="-0.64194">
        <time>2022-07-29T08:06:06Z</time>
      </trkpt>
      <trkpt lat="41.50565" lon="-0.642">
        <time>2022-07-29T08:06:07Z</time>
      </trkpt>
      <trkpt lat="41.50592" lon="-0.64205">
        <time>2022-07-29T08:06:08Z</time>
      </trkpt>
      <trkpt lat="41.50618" lon="-0.64211">
        <time>2022-07-29T08:06:09Z</time>
      </trkpt>
      <trkpt lat="41.50646" lon="-0.64216">
        <time>2022-07-29T08:06:10Z</time>
      </trkpt>
      <trkpt lat="41.50673" lon="-0.64222">
        <time>2022-07-29T08:06:11Z</time>
      </trkpt>
      <trkpt lat="41.507" lon="-0.64227">
        <time>2022-07-29T08:06:12Z</time>
      </trkpt>
      <trkpt lat="41.50726" lon="-0.64233">
        <time>2022-07-29T08:06:13Z</time>
      </trkpt>
      <trkpt lat="41.50752" lon="-0.6424">
        <time>2022-07-29T08:06:14Z</time>
      </trkpt>
      <trkpt lat="41.50778" lon="-0.64248">
        <time>2022-07-29T08:06:15Z</time>
      </trkpt>
      <trkpt lat="41.50804" lon="-0.64257">
        <time>2022-07-29T08:06:16Z</time>
      </trkpt>
      <trkpt lat="41.50828" lon="-0.64267">
        <time>2022-07-29T08:06:17Z</time>
      </trkpt>
      <trkpt lat="41.50853" lon="-0.64277">
        <time>2022-07-29T08:06:18Z</time>
      </trkpt>
      <trkpt lat="41.50876" lon="-0.64288">
        <time>2022-07-29T08:06:19Z</time>
      </trkpt>
      <trkpt lat="41.50899" lon="-0.64299">
        <time>2022-07-29T08:06:20Z</time>
      </trkpt>
      <trkpt lat="41.50921" lon="-0.6431">
        <time>2022-07-29T08:06:21Z</time>
      </trkpt>
      <trkpt lat="41.50942" lon="-0.64322">
        <time>2022-07-29T08:06:22Z</time>
      </trkpt>
      <trkpt lat="41.50961" lon="-0.64333">
        <time>2022-07-29T08:06:23Z</time>
      </trkpt>
      <trkpt lat="41.5098" lon="-0.64345">
        <time>2022-07-29T08:06:24Z</time>
      </trkpt>
      <trkpt lat="41.50998" lon="-0.64356">
        <time>2022-07-29T08:06:25Z</time>
      </trkpt>
      <trkpt lat="41.51015" lon="-0.64367">
        <time>2022-07-29T08:06:26Z</time>
      </trkpt>
      <trkpt lat="41.51032" lon="-0.64379">
        <time>2022-07-29T08:06:27Z</time>
      </trkpt>
      <trkpt lat="41.51048" lon="-0.64391">
        <time>2022-07-29T08:06:28Z</time>
      </trkpt>
      <trkpt lat="41.51064" lon="-0.64403">
        <time>2022-07-29T08:06:29Z</time>
      </trkpt>
      <trkpt lat="41.51079" lon="-0.64415">
        <time>2022-07-29T08:06:30Z</time>
      </trkpt>
      <trkpt lat="41.51094" lon="-0.64427">
        <time>2022-07-29T08:06:31Z</time>
      </trkpt>
      <trkpt lat="41.51108" lon="-0.64439">
        <time>2022-07-29T08:06:32Z</time>
      </trkpt>
      <trkpt lat="41.51122" lon="-0.64452">
        <time>2022-07-29T08:06:33Z</time>
      </trkpt>
      <trkpt lat="41.51136" lon="-0.64464">
        <time>2022-07-29T08:06:34Z</time>
      </trkpt>
      <trkpt lat="41.51149" lon="-0.64477">
        <time>2022-07-29T08:06:35Z</time>
      </trkpt>
      <trkpt lat="41.51162" lon="-0.64489">
        <time>2022-07-29T08:06:36Z</time>
      </trkpt>
      <trkpt lat="41.51175" lon="-0.64502">
        <time>2022-07-29T08:06:37Z</time>
      </trkpt>
      <trkpt lat="41.51188" lon="-0.64515">
        <time>2022-07-29T08:06:38Z</time>
      </trkpt>
      <trkpt lat="41.51201" lon="-0.64529">
        <time>2022-07-29T08:06:39Z</time>
      </trkpt>
      <trkpt lat="41.51215" lon="-0.64544">
        <time>2022-07-29T08:06:40Z</time>
      </trkpt>
      <trkpt lat="41.51228" lon="-0.64559">
        <time>2022-07-29T08:06:41Z</time>
      </trkpt>
      <trkpt lat="41.51242" lon="-0.64575">
        <time>2022-07-29T08:06:42Z</time>
      </trkpt>
      <trkpt lat="41.51255" lon="-0.64592">
        <time>2022-07-29T08:06:43Z</time>
      </trkpt>
      <trkpt lat="41.51269" lon="-0.64609">
        <time>2022-07-29T08:06:44Z</time>
      </trkpt>
      <trkpt lat="41.51282" lon="-0.64627">
        <time>2022-07-29T08:06:45Z</time>
      </trkpt>
      <trkpt lat="41.51296" lon="-0.64645">
        <time>2022-07-29T08:06:46Z</time>
      </trkpt>
      <trkpt lat="41.51309" lon="-0.64664">
        <time>2022-07-29T08:06:47Z</time>
      </trkpt>
      <trkpt lat="41.51322" lon="-0.64683">
        <time>2022-07-29T08:06:48Z</time>
      </trkpt>
      <trkpt lat="41.51335" lon="-0.64703">
        <time>2022-07-29T08:06:49Z</time>
      </trkpt>
      <trkpt lat="41.51347" lon="-0.64721">
        <time>2022-07-29T08:06:50Z</time>
      </trkpt>
      <trkpt lat="41.51358" lon="-0.6474">
        <time>2022-07-29T08:06:51Z</time>
      </trkpt>
      <trkpt lat="41.51369" lon="-0.64759">
        <time>2022-07-29T08:06:52Z</time>
      </trkpt>
      <trkpt lat="41.5138" lon="-0.64777">
        <time>2022-07-29T08:06:53Z</time>
      </trkpt>
      <trkpt lat="41.51391" lon="-0.64795">
        <time>2022-07-29T08:06:54Z</time>
      </trkpt>
      <trkpt lat="41.51401" lon="-0.64813">
        <time>2022-07-29T08:06:55Z</time>
      </trkpt>
      <trkpt lat="41.51411" lon="-0.64831">
        <time>2022-07-29T08:06:56Z</time>
      </trkpt>
      <trkpt lat="41.51421" lon="-0.6485">
        <time>2022-07-29T08:06:57Z</time>
      </trkpt>
      <trkpt lat="41.5143" lon="-0.64869">
        <time>2022-07-29T08:06:58Z</time>
      </trkpt>
      <trkpt lat="41.5144" lon="-0.64889">
        <time>2022-07-29T08:06:59Z</time>
      </trkpt>
      <trkpt lat="41.51449" lon="-0.64909">
        <time>2022-07-29T08:07:00Z</time>
      </trkpt>
      <trkpt lat="41.51459" lon="-0.64929">
        <time>2022-07-29T08:07:01Z</time>
      </trkpt>
      <trkpt lat="41.51469" lon="-0.64949">
        <time>2022-07-29T08:07:02Z</time>
      </trkpt>
      <trkpt lat="41.51478" lon="-0.6497">
        <time>2022-07-29T08:07:03Z</time>
      </trkpt>
      <trkpt lat="41.51488" lon="-0.64991">
        <time>2022-07-29T08:07:04Z</time>
      </trkpt>
      <trkpt lat="41.51498" lon="-0.65012">
        <time>2022-07-29T08:07:05Z</time>
      </trkpt>
      <trkpt lat="41.51508" lon="-0.65033">
        <time>2022-07-29T08:07:06Z</time>
      </trkpt>
      <trkpt lat="41.51519" lon="-0.65054">
        <time>2022-07-29T08:07:07Z</time>
      </trkpt>
      <trkpt lat="41.5153" lon="-0.65075">
        <time>2022-07-29T08:07:08Z</time>
      </trkpt>
      <trkpt lat="41.51542" lon="-0.65095">
        <time>2022-07-29T08:07:09Z</time>
      </trkpt>
      <trkpt lat="41.51554" lon="-0.65114">
        <time>2022-07-29T08:07:10Z</time>
      </trkpt>
      <trkpt lat="41.51566" lon="-0.65134">
        <time>2022-07-29T08:07:11Z</time>
      </trkpt>
      <trkpt lat="41.51579" lon="-0.65153">
        <time>2022-07-29T08:07:12Z</time>
      </trkpt>
      <trkpt lat="41.51592" lon="-0.65171">
        <time>2022-07-29T08:07:13Z</time>
      </trkpt>
      <trkpt lat="41.51606" lon="-0.65189">
        <time>2022-07-29T08:07:14Z</time>
      </trkpt>
      <trkpt lat="41.51619" lon="-0.65206">
        <time>2022-07-29T08:07:15Z</time>
      </trkpt>
      <trkpt lat="41.51633" lon="-0.65224">
        <time>2022-07-29T08:07:16Z</time>
      </trkpt>
      <trkpt lat="41.51647" lon="-0.65239">
        <time>2022-07-29T08:07:17Z</time>
      </trkpt>
      <trkpt lat="41.51661" lon="-0.65255">
        <time>2022-07-29T08:07:18Z</time>
      </trkpt>
      <trkpt lat="41.51676" lon="-0.65269">
        <time>2022-07-29T08:07:19Z</time>
      </trkpt>
      <trkpt lat="41.5169" lon="-0.65284">
        <time>2022-07-29T08:07:20Z</time>
      </trkpt>
      <trkpt lat="41.51705" lon="-0.65297">
        <time>2022-07-29T08:07:21Z</time>
      </trkpt>
      <trkpt lat="41.5172" lon="-0.6531">
        <time>2022-07-29T08:07:22Z</time>
      </trkpt>
      <trkpt lat="41.51734" lon="-0.65322">
        <time>2022-07-29T08:07:23Z</time>
      </trkpt>
      <trkpt lat="41.51749" lon="-0.65333">
        <time>2022-07-29T08:07:24Z</time>
      </trkpt>
      <trkpt lat="41.51765" lon="-0.65345">
        <time>2022-07-29T08:07:25Z</time>
      </trkpt>
      <trkpt lat="41.5178" lon="-0.65356">
        <time>2022-07-29T08:07:26Z</time>
      </trkpt>
      <trkpt lat="41.51796" lon="-0.65366">
        <time>2022-07-29T08:07:27Z</time>
      </trkpt>
      <trkpt lat="41.51812" lon="-0.65376">
        <time>2022-07-29T08:07:28Z</time>
      </trkpt>
      <trkpt lat="41.51828" lon="-0.65385">
        <time>2022-07-29T08:07:29Z</time>
      </trkpt>
      <trkpt lat="41.51844" lon="-0.65394">
        <time>2022-07-29T08:07:30Z</time>
      </trkpt>
      <trkpt lat="41.51861" lon="-0.65402">
        <time>2022-07-29T08:07:31Z</time>
      </trkpt>
      <trkpt lat="41.51878" lon="-0.6541">
        <time>2022-07-29T08:07:32Z</time>
      </trkpt>
      <trkpt lat="41.51895" lon="-0.65418">
        <time>2022-07-29T08:07:33Z</time>
      </trkpt>
      <trkpt lat="41.51913" lon="-0.65425">
        <time>2022-07-29T08:07:34Z</time>
      </trkpt>
      <trkpt lat="41.51931" lon="-0.65431">
        <time>2022-07-29T08:07:35Z</time>
      </trkpt>
      <trkpt lat="41.5195" lon="-0.65437">
        <time>2022-07-29T08:07:36Z</time>
      </trkpt>
      <trkpt lat="41.51968" lon="-0.65442">
        <time>2022-07-29T08:07:37Z</time>
      </trkpt>
      <trkpt lat="41.51986" lon="-0.65446">
        <time>2022-07-29T08:07:38Z</time>
      </trkpt>
      <trkpt lat="41.52004" lon="-0.65449">
        <time>2022-07-29T08:07:39Z</time>
      </trkpt>
      <trkpt lat="41.52022" lon="-0.65453">
        <time>2022-07-29T08:07:40Z</time>
      </trkpt>
      <trkpt lat="41.5204" lon="-0.65455">
        <time>2022-07-29T08:07:41Z</time>
      </trkpt>
      <trkpt lat="41.52057" lon="-0.65457">
        <time>2022-07-29T08:07:42Z</time>
      </trkpt>
      <trkpt lat="41.52075" lon="-0.65459">
        <time>2022-07-29T08:07:43Z</time>
      </trkpt>
      <trkpt lat="41.52092" lon="-0.65461">
        <time>2022-07-29T08:07:44Z</time>
      </trkpt>
      <trkpt lat="41.52109" lon="-0.65463">
        <time>2022-07-29T08:07:45Z</time>
      </trkpt>
      <trkpt lat="41.52127" lon="-0.65464">
        <time>2022-07-29T08:07:46Z</time>
      </trkpt>
      <trkpt lat="41.52144" lon="-0.65466">
        <time>2022-07-29T08:07:47Z</time>
      </trkpt>
      <trkpt lat="41.52162" lon="-0.65468">
        <time>2022-07-29T08:07:48Z</time>
      </trkpt>
      <trkpt lat="41.5218" lon="-0.65471">
        <time>2022-07-29T08:07:49Z</time>
      </trkpt>
      <trkpt lat="41.52197" lon="-0.65474">
        <time>2022-07-29T08:07:50Z</time>
      </trkpt>
      <trkpt lat="41.52214" lon="-0.65477">
        <time>2022-07-29T08:07:51Z</time>
      </trkpt>
      <trkpt lat="41.52231" lon="-0.65482">
        <time>2022-07-29T08:07:52Z</time>
      </trkpt>
      <trkpt lat="41.52248" lon="-0.65486">
        <time>2022-07-29T08:07:53Z</time>
      </trkpt>
      <trkpt lat="41.52264" lon="-0.65491">
        <time>2022-07-29T08:07:54Z</time>
      </trkpt>
      <trkpt lat="41.5228" lon="-0.65496">
        <time>2022-07-29T08:07:55Z</time>
      </trkpt>
      <trkpt lat="41.52295" lon="-0.65502">
        <time>2022-07-29T08:07:56Z</time>
      </trkpt>
      <trkpt lat="41.52312" lon="-0.65509">
        <time>2022-07-29T08:07:57Z</time>
      </trkpt>
      <trkpt lat="41.52329" lon="-0.65516">
        <time>2022-07-29T08:07:58Z</time>
      </trkpt>
      <trkpt lat="41.52346" lon="-0.65524">
        <time>2022-07-29T08:07:59Z</time>
      </trkpt>
      <trkpt lat="41.52362" lon="-0.65532">
        <time>2022-07-29T08:08:00Z</time>
      </trkpt>
      <trkpt lat="41.52378" lon="-0.6554">
        <time>2022-07-29T08:08:01Z</time>
      </trkpt>
      <trkpt lat="41.52395" lon="-0.6555">
        <time>2022-07-29T08:08:02Z</time>
      </trkpt>
      <trkpt lat="41.52411" lon="-0.6556">
        <time>2022-07-29T08:08:03Z</time>
      </trkpt>
      <trkpt lat="41.52428" lon="-0.6557">
        <time>2022-07-29T08:08:04Z</time>
      </trkpt>
      <trkpt lat="41.52444" lon="-0.65582">
        <time>2022-07-29T08:08:05Z</time>
      </trkpt>
      <trkpt lat="41.5246" lon="-0.65594">
        <time>2022-07-29T08:08:06Z</time>
      </trkpt>
      <trkpt lat="41.52476" lon="-0.65606">
        <time>2022-07-29T08:08:07Z</time>
      </trkpt>
      <trkpt lat="41.52492" lon="-0.65618">
        <time>2022-07-29T08:08:08Z</time>
      </trkpt>
      <trkpt lat="41.52507" lon="-0.65632">
        <time>2022-07-29T08:08:09Z</time>
      </trkpt>
      <trkpt lat="41.52524" lon="-0.65645">
        <time>2022-07-29T08:08:10Z</time>
      </trkpt>
      <trkpt lat="41.52539" lon="-0.6566">
        <time>2022-07-29T08:08:11Z</time>
      </trkpt>
      <trkpt lat="41.52553" lon="-0.65674">
        <time>2022-07-29T08:08:12Z</time>
      </trkpt>
      <trkpt lat="41.52567" lon="-0.65689">
        <time>2022-07-29T08:08:13Z</time>
      </trkpt>
      <trkpt lat="41.52581" lon="-0.65704">
        <time>2022-07-29T08:08:14Z</time>
      </trkpt>
      <trkpt lat="41.52595" lon="-0.6572">
        <time>2022-07-29T08:08:15Z</time>
      </trkpt>
      <trkpt lat="41.52608" lon="-0.65736">
        <time>2022-07-29T08:08:16Z</time>
      </trkpt>
      <trkpt lat="41.52621" lon="-0.65751">
        <time>2022-07-29T08:08:17Z</time>
      </trkpt>
      <trkpt lat="41.52634" lon="-0.65768">
        <time>2022-07-29T08:08:18Z</time>
      </trkpt>
      <trkpt lat="41.52646" lon="-0.65785">
        <time>2022-07-29T08:08:19Z</time>
      </trkpt>
      <trkpt lat="41.52658" lon="-0.65803">
        <time>2022-07-29T08:08:20Z</time>
      </trkpt>
      <trkpt lat="41.5267" lon="-0.65821">
        <time>2022-07-29T08:08:21Z</time>
      </trkpt>
      <trkpt lat="41.52681" lon="-0.65839">
        <time>2022-07-29T08:08:22Z</time>
      </trkpt>
      <trkpt lat="41.52693" lon="-0.65858">
        <time>2022-07-29T08:08:23Z</time>
      </trkpt>
      <trkpt lat="41.52704" lon="-0.65878">
        <time>2022-07-29T08:08:24Z</time>
      </trkpt>
      <trkpt lat="41.52715" lon="-0.65897">
        <time>2022-07-29T08:08:25Z</time>
      </trkpt>
      <trkpt lat="41.52725" lon="-0.65916">
        <time>2022-07-29T08:08:26Z</time>
      </trkpt>
      <trkpt lat="41.52735" lon="-0.65936">
        <time>2022-07-29T08:08:27Z</time>
      </trkpt>
      <trkpt lat="41.52746" lon="-0.65955">
        <time>2022-07-29T08:08:28Z</time>
      </trkpt>
      <trkpt lat="41.52756" lon="-0.65973">
        <time>2022-07-29T08:08:29Z</time>
      </trkpt>
      <trkpt lat="41.52766" lon="-0.65992">
        <time>2022-07-29T08:08:30Z</time>
      </trkpt>
      <trkpt lat="41.52775" lon="-0.66011">
        <time>2022-07-29T08:08:31Z</time>
      </trkpt>
      <trkpt lat="41.52785" lon="-0.6603">
        <time>2022-07-29T08:08:32Z</time>
      </trkpt>
      <trkpt lat="41.52795" lon="-0.6605">
        <time>2022-07-29T08:08:33Z</time>
      </trkpt>
      <trkpt lat="41.52806" lon="-0.66072">
        <time>2022-07-29T08:08:34Z</time>
      </trkpt>
      <trkpt lat="41.52818" lon="-0.66096">
        <time>2022-07-29T08:08:35Z</time>
      </trkpt>
      <trkpt lat="41.52831" lon="-0.6612">
        <time>2022-07-29T08:08:36Z</time>
      </trkpt>
      <trkpt lat="41.52845" lon="-0.66147">
        <time>2022-07-29T08:08:37Z</time>
      </trkpt>
      <trkpt lat="41.5286" lon="-0.66176">
        <time>2022-07-29T08:08:38Z</time>
      </trkpt>
      <trkpt lat="41.52876" lon="-0.66205">
        <time>2022-07-29T08:08:39Z</time>
      </trkpt>
      <trkpt lat="41.52891" lon="-0.66233">
        <time>2022-07-29T08:08:40Z</time>
      </trkpt>
      <trkpt lat="41.52905" lon="-0.6626">
        <time>2022-07-29T08:08:41Z</time>
      </trkpt>
      <trkpt lat="41.5292" lon="-0.66285">
        <time>2022-07-29T08:08:42Z</time>
      </trkpt>
      <trkpt lat="41.52934" lon="-0.66311">
        <time>2022-07-29T08:08:43Z</time>
      </trkpt>
      <trkpt lat="41.52948" lon="-0.66337">
        <time>2022-07-29T08:08:44Z</time>
      </trkpt>
      <trkpt lat="41.52961" lon="-0.66362">
        <time>2022-07-29T08:08:45Z</time>
      </trkpt>
      <trkpt lat="41.52974" lon="-0.66387">
        <time>2022-07-29T08:08:46Z</time>
      </trkpt>
      <trkpt lat="41.52987" lon="-0.66411">
        <time>2022-07-29T08:08:47Z</time>
      </trkpt>
      <trkpt lat="41.52999" lon="-0.66435">
        <time>2022-07-29T08:08:48Z</time>
      </trkpt>
      <trkpt lat="41.53012" lon="-0.66459">
        <time>2022-07-29T08:08:49Z</time>
      </trkpt>
      <trkpt lat="41.53024" lon="-0.66481">
        <time>2022-07-29T08:08:50Z</time>
      </trkpt>
      <trkpt lat="41.53035" lon="-0.66503">
        <time>2022-07-29T08:08:51Z</time>
      </trkpt>
      <trkpt lat="41.53047" lon="-0.66526">
        <time>2022-07-29T08:08:52Z</time>
      </trkpt>
      <trkpt lat="41.53059" lon="-0.66548">
        <time>2022-07-29T08:08:53Z</time>
      </trkpt>
      <trkpt lat="41.53071" lon="-0.6657">
        <time>2022-07-29T08:08:54Z</time>
      </trkpt>
      <trkpt lat="41.53082" lon="-0.66591">
        <time>2022-07-29T08:08:55Z</time>
      </trkpt>
      <trkpt lat="41.53094" lon="-0.66613">
        <time>2022-07-29T08:08:56Z</time>
      </trkpt>
      <trkpt lat="41.53106" lon="-0.66635">
        <time>2022-07-29T08:08:57Z</time>
      </trkpt>
      <trkpt lat="41.53117" lon="-0.66657">
        <time>2022-07-29T08:08:58Z</time>
      </trkpt>
      <trkpt lat="41.53129" lon="-0.6668">
        <time>2022-07-29T08:08:59Z</time>
      </trkpt>
      <trkpt lat="41.53141" lon="-0.66702">
        <time>2022-07-29T08:09:00Z</time>
      </trkpt>
      <trkpt lat="41.53152" lon="-0.66724">
        <time>2022-07-29T08:09:01Z</time>
      </trkpt>
      <trkpt lat="41.53164" lon="-0.66745">
        <time>2022-07-29T08:09:02Z</time>
      </trkpt>
      <trkpt lat="41.53175" lon="-0.66766">
        <time>2022-07-29T08:09:03Z</time>
      </trkpt>
      <trkpt lat="41.53186" lon="-0.66787">
        <time>2022-07-29T08:09:04Z</time>
      </trkpt>
      <trkpt lat="41.53197" lon="-0.66809">
        <time>2022-07-29T08:09:05Z</time>
      </trkpt>
      <trkpt lat="41.53208" lon="-0.6683">
        <time>2022-07-29T08:09:06Z</time>
      </trkpt>
      <trkpt lat="41.5322" lon="-0.66852">
        <time>2022-07-29T08:09:07Z</time>
      </trkpt>
      <trkpt lat="41.53231" lon="-0.66873">
        <time>2022-07-29T08:09:08Z</time>
      </trkpt>
      <trkpt lat="41.53242" lon="-0.66894">
        <time>2022-07-29T08:09:09Z</time>
      </trkpt>
      <trkpt lat="41.53253" lon="-0.66915">
        <time>2022-07-29T08:09:10Z</time>
      </trkpt>
      <trkpt lat="41.53264" lon="-0.66935">
        <time>2022-07-29T08:09:11Z</time>
      </trkpt>
      <trkpt lat="41.53275" lon="-0.66955">
        <time>2022-07-29T08:09:12Z</time>
      </trkpt>
      <trkpt lat="41.53286" lon="-0.66976">
        <time>2022-07-29T08:09:13Z</time>
      </trkpt>
      <trkpt lat="41.53297" lon="-0.66996">
        <time>2022-07-29T08:09:14Z</time>
      </trkpt>
      <trkpt lat="41.53308" lon="-0.67018">
        <time>2022-07-29T08:09:15Z</time>
      </trkpt>
      <trkpt lat="41.53319" lon="-0.6704">
        <time>2022-07-29T08:09:16Z</time>
      </trkpt>
      <trkpt lat="41.53331" lon="-0.67061">
        <time>2022-07-29T08:09:17Z</time>
      </trkpt>
      <trkpt lat="41.53342" lon="-0.67084">
        <time>2022-07-29T08:09:18Z</time>
      </trkpt>
      <trkpt lat="41.53355" lon="-0.6711">
        <time>2022-07-29T08:09:19Z</time>
      </trkpt>
      <trkpt lat="41.53369" lon="-0.67137">
        <time>2022-07-29T08:09:20Z</time>
      </trkpt>
      <trkpt lat="41.53383" lon="-0.67165">
        <time>2022-07-29T08:09:21Z</time>
      </trkpt>
      <trkpt lat="41.53399" lon="-0.67194">
        <time>2022-07-29T08:09:22Z</time>
      </trkpt>
      <trkpt lat="41.53416" lon="-0.67224">
        <time>2022-07-29T08:09:23Z</time>
      </trkpt>
      <trkpt lat="41.53433" lon="-0.67254">
        <time>2022-07-29T08:09:24Z</time>
      </trkpt>
      <trkpt lat="41.53449" lon="-0.67283">
        <time>2022-07-29T08:09:25Z</time>
      </trkpt>
      <trkpt lat="41.53465" lon="-0.67313">
        <time>2022-07-29T08:09:26Z</time>
      </trkpt>
      <trkpt lat="41.53481" lon="-0.67342">
        <time>2022-07-29T08:09:27Z</time>
      </trkpt>
      <trkpt lat="41.53496" lon="-0.67371">
        <time>2022-07-29T08:09:28Z</time>
      </trkpt>
      <trkpt lat="41.53512" lon="-0.674">
        <time>2022-07-29T08:09:29Z</time>
      </trkpt>
      <trkpt lat="41.53527" lon="-0.6743">
        <time>2022-07-29T08:09:30Z</time>
      </trkpt>
      <trkpt lat="41.53543" lon="-0.67459">
        <time>2022-07-29T08:09:31Z</time>
      </trkpt>
      <trkpt lat="41.53558" lon="-0.67488">
        <time>2022-07-29T08:09:32Z</time>
      </trkpt>
      <trkpt lat="41.53574" lon="-0.67517">
        <time>2022-07-29T08:09:33Z</time>
      </trkpt>
      <trkpt lat="41.53589" lon="-0.67546">
        <time>2022-07-29T08:09:34Z</time>
      </trkpt>
      <trkpt lat="41.53604" lon="-0.67575">
        <time>2022-07-29T08:09:35Z</time>
      </trkpt>
      <trkpt lat="41.5362" lon="-0.67604">
        <time>2022-07-29T08:09:36Z</time>
      </trkpt>
      <trkpt lat="41.53635" lon="-0.67634">
        <time>2022-07-29T08:09:37Z</time>
      </trkpt>
      <trkpt lat="41.53651" lon="-0.67663">
        <time>2022-07-29T08:09:38Z</time>
      </trkpt>
      <trkpt lat="41.53667" lon="-0.67694">
        <time>2022-07-29T08:09:39Z</time>
      </trkpt>
      <trkpt lat="41.53683" lon="-0.67724">
        <time>2022-07-29T08:09:40Z</time>
      </trkpt>
      <trkpt lat="41.53698" lon="-0.67754">
        <time>2022-07-29T08:09:41Z</time>
      </trkpt>
      <trkpt lat="41.53714" lon="-0.67784">
        <time>2022-07-29T08:09:42Z</time>
      </trkpt>
      <trkpt lat="41.53729" lon="-0.67814">
        <time>2022-07-29T08:09:43Z</time>
      </trkpt>
      <trkpt lat="41.53744" lon="-0.67844">
        <time>2022-07-29T08:09:44Z</time>
      </trkpt>
      <trkpt lat="41.53759" lon="-0.67875">
        <time>2022-07-29T08:09:45Z</time>
      </trkpt>
      <trkpt lat="41.53773" lon="-0.67905">
        <time>2022-07-29T08:09:46Z</time>
      </trkpt>
      <trkpt lat="41.53787" lon="-0.67936">
        <time>2022-07-29T08:09:47Z</time>
      </trkpt>
      <trkpt lat="41.53801" lon="-0.67966">
        <time>2022-07-29T08:09:48Z</time>
      </trkpt>
      <trkpt lat="41.53815" lon="-0.67997">
        <time>2022-07-29T08:09:49Z</time>
      </trkpt>
      <trkpt lat="41.53829" lon="-0.68028">
        <time>2022-07-29T08:09:50Z</time>
      </trkpt>
      <trkpt lat="41.53842" lon="-0.68059">
        <time>2022-07-29T08:09:51Z</time>
      </trkpt>
      <trkpt lat="41.53856" lon="-0.6809">
        <time>2022-07-29T08:09:52Z</time>
      </trkpt>
      <trkpt lat="41.53869" lon="-0.68121">
        <time>2022-07-29T08:09:53Z</time>
      </trkpt>
      <trkpt lat="41.53883" lon="-0.68152">
        <time>2022-07-29T08:09:54Z</time>
      </trkpt>
      <trkpt lat="41.53896" lon="-0.68183">
        <time>2022-07-29T08:09:55Z</time>
      </trkpt>
      <trkpt lat="41.53908" lon="-0.68213">
        <time>2022-07-29T08:09:56Z</time>
      </trkpt>
      <trkpt lat="41.53921" lon="-0.68244">
        <time>2022-07-29T08:09:57Z</time>
      </trkpt>
      <trkpt lat="41.53934" lon="-0.68274">
        <time>2022-07-29T08:09:58Z</time>
      </trkpt>
      <trkpt lat="41.53947" lon="-0.68303">
        <time>2022-07-29T08:09:59Z</time>
      </trkpt>
      <trkpt lat="41.53959" lon="-0.68332">
        <time>2022-07-29T08:10:00Z</time>
      </trkpt>
      <trkpt lat="41.53971" lon="-0.6836">
        <time>2022-07-29T08:10:01Z</time>
      </trkpt>
      <trkpt lat="41.53983" lon="-0.68387">
        <time>2022-07-29T08:10:02Z</time>
      </trkpt>
      <trkpt lat="41.53994" lon="-0.68413">
        <time>2022-07-29T08:10:03Z</time>
      </trkpt>
      <trkpt lat="41.54005" lon="-0.68439">
        <time>2022-07-29T08:10:04Z</time>
      </trkpt>
      <trkpt lat="41.54015" lon="-0.68464">
        <time>2022-07-29T08:10:05Z</time>
      </trkpt>
      <trkpt lat="41.54026" lon="-0.68489">
        <time>2022-07-29T08:10:06Z</time>
      </trkpt>
      <trkpt lat="41.54036" lon="-0.68514">
        <time>2022-07-29T08:10:07Z</time>
      </trkpt>
      <trkpt lat="41.54046" lon="-0.68538">
        <time>2022-07-29T08:10:08Z</time>
      </trkpt>
      <trkpt lat="41.54057" lon="-0.68562">
        <time>2022-07-29T08:10:09Z</time>
      </trkpt>
      <trkpt lat="41.54067" lon="-0.68586">
        <time>2022-07-29T08:10:10Z</time>
      </trkpt>
      <trkpt lat="41.54077" lon="-0.6861">
        <time>2022-07-29T08:10:11Z</time>
      </trkpt>
      <trkpt lat="41.54087" lon="-0.68633">
        <time>2022-07-29T08:10:12Z</time>
      </trkpt>
      <trkpt lat="41.54097" lon="-0.68656">
        <time>2022-07-29T08:10:13Z</time>
      </trkpt>
      <trkpt lat="41.54107" lon="-0.68679">
        <time>2022-07-29T08:10:14Z</time>
      </trkpt>
      <trkpt lat="41.54117" lon="-0.68703">
        <time>2022-07-29T08:10:15Z</time>
      </trkpt>
      <trkpt lat="41.54127" lon="-0.68729">
        <time>2022-07-29T08:10:16Z</time>
      </trkpt>
      <trkpt lat="41.54139" lon="-0.68754">
        <time>2022-07-29T08:10:17Z</time>
      </trkpt>
      <trkpt lat="41.5415" lon="-0.68781">
        <time>2022-07-29T08:10:18Z</time>
      </trkpt>
      <trkpt lat="41.54162" lon="-0.68809">
        <time>2022-07-29T08:10:19Z</time>
      </trkpt>
      <trkpt lat="41.54174" lon="-0.68838">
        <time>2022-07-29T08:10:20Z</time>
      </trkpt>
      <trkpt lat="41.54186" lon="-0.68867">
        <time>2022-07-29T08:10:21Z</time>
      </trkpt>
      <trkpt lat="41.54199" lon="-0.68897">
        <time>2022-07-29T08:10:22Z</time>
      </trkpt>
      <trkpt lat="41.54212" lon="-0.68927">
        <time>2022-07-29T08:10:23Z</time>
      </trkpt>
      <trkpt lat="41.54224" lon="-0.68956">
        <time>2022-07-29T08:10:24Z</time>
      </trkpt>
      <trkpt lat="41.54236" lon="-0.68984">
        <time>2022-07-29T08:10:25Z</time>
      </trkpt>
      <trkpt lat="41.54248" lon="-0.69012">
        <time>2022-07-29T08:10:26Z</time>
      </trkpt>
      <trkpt lat="41.54261" lon="-0.6904">
        <time>2022-07-29T08:10:27Z</time>
      </trkpt>
      <trkpt lat="41.54273" lon="-0.69066">
        <time>2022-07-29T08:10:28Z</time>
      </trkpt>
      <trkpt lat="41.54284" lon="-0.69091">
        <time>2022-07-29T08:10:29Z</time>
      </trkpt>
      <trkpt lat="41.54295" lon="-0.69115">
        <time>2022-07-29T08:10:30Z</time>
      </trkpt>
      <trkpt lat="41.54306" lon="-0.69139">
        <time>2022-07-29T08:10:31Z</time>
      </trkpt>
      <trkpt lat="41.54317" lon="-0.69162">
        <time>2022-07-29T08:10:32Z</time>
      </trkpt>
      <trkpt lat="41.54327" lon="-0.69185">
        <time>2022-07-29T08:10:33Z</time>
      </trkpt>
      <trkpt lat="41.54339" lon="-0.69208">
        <time>2022-07-29T08:10:34Z</time>
      </trkpt>
      <trkpt lat="41.54353" lon="-0.69229">
        <time>2022-07-29T08:10:35Z</time>
      </trkpt>
      <trkpt lat="41.54368" lon="-0.69251">
        <time>2022-07-29T08:10:36Z</time>
      </trkpt>
      <trkpt lat="41.54382" lon="-0.69272">
        <time>2022-07-29T08:10:37Z</time>
      </trkpt>
      <trkpt lat="41.54395" lon="-0.69295">
        <time>2022-07-29T08:10:38Z</time>
      </trkpt>
      <trkpt lat="41.54407" lon="-0.69317">
        <time>2022-07-29T08:10:39Z</time>
      </trkpt>
      <trkpt lat="41.54418" lon="-0.69338">
        <time>2022-07-29T08:10:40Z</time>
      </trkpt>
      <trkpt lat="41.54428" lon="-0.69358">
        <time>2022-07-29T08:10:41Z</time>
      </trkpt>
      <trkpt lat="41.54438" lon="-0.69376">
        <time>2022-07-29T08:10:42Z</time>
      </trkpt>
      <trkpt lat="41.54446" lon="-0.69394">
        <time>2022-07-29T08:10:43Z</time>
      </trkpt>
      <trkpt lat="41.54454" lon="-0.69409">
        <time>2022-07-29T08:10:44Z</time>
      </trkpt>
      <trkpt lat="41.54462" lon="-0.69424">
        <time>2022-07-29T08:10:45Z</time>
      </trkpt>
      <trkpt lat="41.54468" lon="-0.69436">
        <time>2022-07-29T08:10:46Z</time>
      </trkpt>
      <trkpt lat="41.54473" lon="-0.69445">
        <time>2022-07-29T08:10:47Z</time>
      </trkpt>
      <trkpt lat="41.54477" lon="-0.69453">
        <time>2022-07-29T08:10:48Z</time>
      </trkpt>
      <trkpt lat="41.54481" lon="-0.69458">
        <time>2022-07-29T08:10:49Z</time>
      </trkpt>
      <trkpt lat="41.54484" lon="-0.69461">
        <time>2022-07-29T08:10:50Z</time>
      </trkpt>
      <trkpt lat="41.54487" lon="-0.69463">
        <time>2022-07-29T08:10:51Z</time>
      </trkpt>
      <trkpt lat="41.5449" lon="-0.69465">
        <time>2022-07-29T08:10:52Z</time>
      </trkpt>
      <trkpt lat="41.54495" lon="-0.69467">
        <time>2022-07-29T08:10:53Z</time>
      </trkpt>
      <trkpt lat="41.54501" lon="-0.69469">
        <time>2022-07-29T08:10:54Z</time>
      </trkpt>
      <trkpt lat="41.5451" lon="-0.69467">
        <time>2022-07-29T08:10:55Z</time>
      </trkpt>
      <trkpt lat="41.54519" lon="-0.69465">
        <time>2022-07-29T08:10:56Z</time>
      </trkpt>
      <trkpt lat="41.54531" lon="-0.69463">
        <time>2022-07-29T08:10:57Z</time>
      </trkpt>
      <trkpt lat="41.54544" lon="-0.69462">
        <time>2022-07-29T08:10:58Z</time>
      </trkpt>
      <trkpt lat="41.54557" lon="-0.69462">
        <time>2022-07-29T08:10:59Z</time>
      </trkpt>
      <trkpt lat="41.5457" lon="-0.69463">
        <time>2022-07-29T08:11:00Z</time>
      </trkpt>
      <trkpt lat="41.54582" lon="-0.69464">
        <time>2022-07-29T08:11:01Z</time>
      </trkpt>
      <trkpt lat="41.54595" lon="-0.69465">
        <time>2022-07-29T08:11:02Z</time>
      </trkpt>
      <trkpt lat="41.54607" lon="-0.69464">
        <time>2022-07-29T08:11:03Z</time>
      </trkpt>
      <trkpt lat="41.54619" lon="-0.69459">
        <time>2022-07-29T08:11:04Z</time>
      </trkpt>
      <trkpt lat="41.54631" lon="-0.69448">
        <time>2022-07-29T08:11:05Z</time>
      </trkpt>
      <trkpt lat="41.54644" lon="-0.69432">
        <time>2022-07-29T08:11:06Z</time>
      </trkpt>
      <trkpt lat="41.54657" lon="-0.69412">
        <time>2022-07-29T08:11:07Z</time>
      </trkpt>
      <trkpt lat="41.54671" lon="-0.69392">
        <time>2022-07-29T08:11:08Z</time>
      </trkpt>
      <trkpt lat="41.54686" lon="-0.69371">
        <time>2022-07-29T08:11:09Z</time>
      </trkpt>
      <trkpt lat="41.54703" lon="-0.69349">
        <time>2022-07-29T08:11:10Z</time>
      </trkpt>
      <trkpt lat="41.5472" lon="-0.69326">
        <time>2022-07-29T08:11:11Z</time>
      </trkpt>
      <trkpt lat="41.54738" lon="-0.69304">
        <time>2022-07-29T08:11:12Z</time>
      </trkpt>
      <trkpt lat="41.54757" lon="-0.69282">
        <time>2022-07-29T08:11:13Z</time>
      </trkpt>
      <trkpt lat="41.54777" lon="-0.6926">
        <time>2022-07-29T08:11:14Z</time>
      </trkpt>
      <trkpt lat="41.54797" lon="-0.69237">
        <time>2022-07-29T08:11:15Z</time>
      </trkpt>
      <trkpt lat="41.54819" lon="-0.69215">
        <time>2022-07-29T08:11:16Z</time>
      </trkpt>
      <trkpt lat="41.54841" lon="-0.69192">
        <time>2022-07-29T08:11:17Z</time>
      </trkpt>
      <trkpt lat="41.54863" lon="-0.6917">
        <time>2022-07-29T08:11:18Z</time>
      </trkpt>
      <trkpt lat="41.54885" lon="-0.69148">
        <time>2022-07-29T08:11:19Z</time>
      </trkpt>
      <trkpt lat="41.54907" lon="-0.69127">
        <time>2022-07-29T08:11:20Z</time>
      </trkpt>
      <trkpt lat="41.54928" lon="-0.69105">
        <time>2022-07-29T08:11:21Z</time>
      </trkpt>
      <trkpt lat="41.5495" lon="-0.69084">
        <time>2022-07-29T08:11:22Z</time>
      </trkpt>
      <trkpt lat="41.54972" lon="-0.69063">
        <time>2022-07-29T08:11:23Z</time>
      </trkpt>
      <trkpt lat="41.54994" lon="-0.69041">
        <time>2022-07-29T08:11:24Z</time>
      </trkpt>
      <trkpt lat="41.55016" lon="-0.69019">
        <time>2022-07-29T08:11:25Z</time>
      </trkpt>
      <trkpt lat="41.55039" lon="-0.68997">
        <time>2022-07-29T08:11:26Z</time>
      </trkpt>
      <trkpt lat="41.55062" lon="-0.68975">
        <time>2022-07-29T08:11:27Z</time>
      </trkpt>
      <trkpt lat="41.55085" lon="-0.68952">
        <time>2022-07-29T08:11:28Z</time>
      </trkpt>
      <trkpt lat="41.55106" lon="-0.68931">
        <time>2022-07-29T08:11:29Z</time>
      </trkpt>
      <trkpt lat="41.55127" lon="-0.68911">
        <time>2022-07-29T08:11:30Z</time>
      </trkpt>
      <trkpt lat="41.55147" lon="-0.68891">
        <time>2022-07-29T08:11:31Z</time>
      </trkpt>
      <trkpt lat="41.55168" lon="-0.68872">
        <time>2022-07-29T08:11:32Z</time>
      </trkpt>
      <trkpt lat="41.5519" lon="-0.68852">
        <time>2022-07-29T08:11:33Z</time>
      </trkpt>
      <trkpt lat="41.55212" lon="-0.68831">
        <time>2022-07-29T08:11:34Z</time>
      </trkpt>
      <trkpt lat="41.55234" lon="-0.68809">
        <time>2022-07-29T08:11:35Z</time>
      </trkpt>
      <trkpt lat="41.55257" lon="-0.68788">
        <time>2022-07-29T08:11:36Z</time>
      </trkpt>
      <trkpt lat="41.55281" lon="-0.68766">
        <time>2022-07-29T08:11:37Z</time>
      </trkpt>
      <trkpt lat="41.55304" lon="-0.68744">
        <time>2022-07-29T08:11:38Z</time>
      </trkpt>
      <trkpt lat="41.55327" lon="-0.68722">
        <time>2022-07-29T08:11:39Z</time>
      </trkpt>
      <trkpt lat="41.5535" lon="-0.687">
        <time>2022-07-29T08:11:40Z</time>
      </trkpt>
      <trkpt lat="41.55373" lon="-0.68679">
        <time>2022-07-29T08:11:41Z</time>
      </trkpt>
      <trkpt lat="41.55395" lon="-0.68658">
        <time>2022-07-29T08:11:42Z</time>
      </trkpt>
      <trkpt lat="41.55418" lon="-0.68637">
        <time>2022-07-29T08:11:43Z</time>
      </trkpt>
      <trkpt lat="41.55441" lon="-0.68616">
        <time>2022-07-29T08:11:44Z</time>
      </trkpt>
      <trkpt lat="41.55464" lon="-0.68595">
        <time>2022-07-29T08:11:45Z</time>
      </trkpt>
      <trkpt lat="41.55487" lon="-0.68574">
        <time>2022-07-29T08:11:46Z</time>
      </trkpt>
      <trkpt lat="41.55509" lon="-0.68554">
        <time>2022-07-29T08:11:47Z</time>
      </trkpt>
      <trkpt lat="41.55532" lon="-0.68533">
        <time>2022-07-29T08:11:48Z</time>
      </trkpt>
      <trkpt lat="41.55554" lon="-0.68511">
        <time>2022-07-29T08:11:49Z</time>
      </trkpt>
      <trkpt lat="41.55577" lon="-0.6849">
        <time>2022-07-29T08:11:50Z</time>
      </trkpt>
      <trkpt lat="41.55599" lon="-0.68468">
        <time>2022-07-29T08:11:51Z</time>
      </trkpt>
      <trkpt lat="41.55622" lon="-0.68447">
        <time>2022-07-29T08:11:52Z</time>
      </trkpt>
      <trkpt lat="41.55644" lon="-0.68426">
        <time>2022-07-29T08:11:53Z</time>
      </trkpt>
      <trkpt lat="41.55667" lon="-0.68404">
        <time>2022-07-29T08:11:54Z</time>
      </trkpt>
      <trkpt lat="41.55689" lon="-0.68381">
        <time>2022-07-29T08:11:55Z</time>
      </trkpt>
      <trkpt lat="41.55711" lon="-0.68359">
        <time>2022-07-29T08:11:56Z</time>
      </trkpt>
      <trkpt lat="41.55734" lon="-0.68336">
        <time>2022-07-29T08:11:57Z</time>
      </trkpt>
      <trkpt lat="41.55756" lon="-0.68313">
        <time>2022-07-29T08:11:58Z</time>
      </trkpt>
      <trkpt lat="41.55779" lon="-0.6829">
        <time>2022-07-29T08:11:59Z</time>
      </trkpt>
      <trkpt lat="41.55801" lon="-0.68267">
        <time>2022-07-29T08:12:00Z</time>
      </trkpt>
      <trkpt lat="41.55823" lon="-0.68244">
        <time>2022-07-29T08:12:01Z</time>
      </trkpt>
      <trkpt lat="41.55846" lon="-0.68221">
        <time>2022-07-29T08:12:02Z</time>
      </trkpt>
      <trkpt lat="41.55867" lon="-0.68196">
        <time>2022-07-29T08:12:03Z</time>
      </trkpt>
      <trkpt lat="41.5589" lon="-0.68172">
        <time>2022-07-29T08:12:04Z</time>
      </trkpt>
      <trkpt lat="41.55912" lon="-0.68147">
        <time>2022-07-29T08:12:05Z</time>
      </trkpt>
      <trkpt lat="41.55934" lon="-0.68122">
        <time>2022-07-29T08:12:06Z</time>
      </trkpt>
      <trkpt lat="41.55955" lon="-0.68096">
        <time>2022-07-29T08:12:07Z</time>
      </trkpt>
      <trkpt lat="41.55977" lon="-0.6807">
        <time>2022-07-29T08:12:08Z</time>
      </trkpt>
      <trkpt lat="41.55999" lon="-0.68042">
        <time>2022-07-29T08:12:09Z</time>
      </trkpt>
      <trkpt lat="41.5602" lon="-0.68015">
        <time>2022-07-29T08:12:10Z</time>
      </trkpt>
      <trkpt lat="41.56041" lon="-0.67986">
        <time>2022-07-29T08:12:11Z</time>
      </trkpt>
      <trkpt lat="41.56062" lon="-0.67958">
        <time>2022-07-29T08:12:12Z</time>
      </trkpt>
      <trkpt lat="41.56083" lon="-0.67929">
        <time>2022-07-29T08:12:13Z</time>
      </trkpt>
      <trkpt lat="41.56104" lon="-0.679">
        <time>2022-07-29T08:12:14Z</time>
      </trkpt>
      <trkpt lat="41.56124" lon="-0.67871">
        <time>2022-07-29T08:12:15Z</time>
      </trkpt>
      <trkpt lat="41.56144" lon="-0.67843">
        <time>2022-07-29T08:12:16Z</time>
      </trkpt>
      <trkpt lat="41.56163" lon="-0.67813">
        <time>2022-07-29T08:12:17Z</time>
      </trkpt>
      <trkpt lat="41.56182" lon="-0.67784">
        <time>2022-07-29T08:12:18Z</time>
      </trkpt>
      <trkpt lat="41.562" lon="-0.67754">
        <time>2022-07-29T08:12:19Z</time>
      </trkpt>
      <trkpt lat="41.56218" lon="-0.67724">
        <time>2022-07-29T08:12:20Z</time>
      </trkpt>
      <trkpt lat="41.56236" lon="-0.67693">
        <time>2022-07-29T08:12:21Z</time>
      </trkpt>
      <trkpt lat="41.56254" lon="-0.67663">
        <time>2022-07-29T08:12:22Z</time>
      </trkpt>
      <trkpt lat="41.56271" lon="-0.67633">
        <time>2022-07-29T08:12:23Z</time>
      </trkpt>
      <trkpt lat="41.56289" lon="-0.67603">
        <time>2022-07-29T08:12:24Z</time>
      </trkpt>
      <trkpt lat="41.56307" lon="-0.67573">
        <time>2022-07-29T08:12:25Z</time>
      </trkpt>
      <trkpt lat="41.56324" lon="-0.67543">
        <time>2022-07-29T08:12:26Z</time>
      </trkpt>
      <trkpt lat="41.56342" lon="-0.67513">
        <time>2022-07-29T08:12:27Z</time>
      </trkpt>
      <trkpt lat="41.5636" lon="-0.67483">
        <time>2022-07-29T08:12:28Z</time>
      </trkpt>
      <trkpt lat="41.56378" lon="-0.67452">
        <time>2022-07-29T08:12:29Z</time>
      </trkpt>
      <trkpt lat="41.56395" lon="-0.67422">
        <time>2022-07-29T08:12:30Z</time>
      </trkpt>
      <trkpt lat="41.56414" lon="-0.67392">
        <time>2022-07-29T08:12:31Z</time>
      </trkpt>
      <trkpt lat="41.56432" lon="-0.67362">
        <time>2022-07-29T08:12:32Z</time>
      </trkpt>
      <trkpt lat="41.5645" lon="-0.67333">
        <time>2022-07-29T08:12:33Z</time>
      </trkpt>
      <trkpt lat="41.56469" lon="-0.67304">
        <time>2022-07-29T08:12:34Z</time>
      </trkpt>
      <trkpt lat="41.56487" lon="-0.67275">
        <time>2022-07-29T08:12:35Z</time>
      </trkpt>
      <trkpt lat="41.56506" lon="-0.67247">
        <time>2022-07-29T08:12:36Z</time>
      </trkpt>
      <trkpt lat="41.56526" lon="-0.67219">
        <time>2022-07-29T08:12:37Z</time>
      </trkpt>
      <trkpt lat="41.56546" lon="-0.67191">
        <time>2022-07-29T08:12:38Z</time>
      </trkpt>
      <trkpt lat="41.56566" lon="-0.67164">
        <time>2022-07-29T08:12:39Z</time>
      </trkpt>
      <trkpt lat="41.56587" lon="-0.67136">
        <time>2022-07-29T08:12:40Z</time>
      </trkpt>
      <trkpt lat="41.56608" lon="-0.67109">
        <time>2022-07-29T08:12:41Z</time>
      </trkpt>
      <trkpt lat="41.56629" lon="-0.67083">
        <time>2022-07-29T08:12:42Z</time>
      </trkpt>
      <trkpt lat="41.5665" lon="-0.67057">
        <time>2022-07-29T08:12:43Z</time>
      </trkpt>
      <trkpt lat="41.56671" lon="-0.67031">
        <time>2022-07-29T08:12:44Z</time>
      </trkpt>
      <trkpt lat="41.56693" lon="-0.67006">
        <time>2022-07-29T08:12:45Z</time>
      </trkpt>
      <trkpt lat="41.56714" lon="-0.66981">
        <time>2022-07-29T08:12:46Z</time>
      </trkpt>
      <trkpt lat="41.56736" lon="-0.66957">
        <time>2022-07-29T08:12:47Z</time>
      </trkpt>
      <trkpt lat="41.56758" lon="-0.66934">
        <time>2022-07-29T08:12:48Z</time>
      </trkpt>
      <trkpt lat="41.5678" lon="-0.6691">
        <time>2022-07-29T08:12:49Z</time>
      </trkpt>
      <trkpt lat="41.56802" lon="-0.66887">
        <time>2022-07-29T08:12:50Z</time>
      </trkpt>
      <trkpt lat="41.56824" lon="-0.66865">
        <time>2022-07-29T08:12:51Z</time>
      </trkpt>
      <trkpt lat="41.56846" lon="-0.66843">
        <time>2022-07-29T08:12:52Z</time>
      </trkpt>
      <trkpt lat="41.56868" lon="-0.66821">
        <time>2022-07-29T08:12:53Z</time>
      </trkpt>
      <trkpt lat="41.56891" lon="-0.66801">
        <time>2022-07-29T08:12:54Z</time>
      </trkpt>
      <trkpt lat="41.56914" lon="-0.66779">
        <time>2022-07-29T08:12:55Z</time>
      </trkpt>
      <trkpt lat="41.56937" lon="-0.66759">
        <time>2022-07-29T08:12:56Z</time>
      </trkpt>
      <trkpt lat="41.5696" lon="-0.66739">
        <time>2022-07-29T08:12:57Z</time>
      </trkpt>
      <trkpt lat="41.56983" lon="-0.66719">
        <time>2022-07-29T08:12:58Z</time>
      </trkpt>
      <trkpt lat="41.57007" lon="-0.667">
        <time>2022-07-29T08:12:59Z</time>
      </trkpt>
      <trkpt lat="41.57031" lon="-0.66681">
        <time>2022-07-29T08:13:00Z</time>
      </trkpt>
      <trkpt lat="41.57055" lon="-0.66663">
        <time>2022-07-29T08:13:01Z</time>
      </trkpt>
      <trkpt lat="41.57079" lon="-0.66645">
        <time>2022-07-29T08:13:02Z</time>
      </trkpt>
      <trkpt lat="41.57103" lon="-0.66627">
        <time>2022-07-29T08:13:03Z</time>
      </trkpt>
      <trkpt lat="41.57128" lon="-0.66609">
        <time>2022-07-29T08:13:04Z</time>
      </trkpt>
      <trkpt lat="41.57153" lon="-0.66592">
        <time>2022-07-29T08:13:05Z</time>
      </trkpt>
      <trkpt lat="41.57179" lon="-0.66575">
        <time>2022-07-29T08:13:06Z</time>
      </trkpt>
      <trkpt lat="41.57204" lon="-0.6656">
        <time>2022-07-29T08:13:07Z</time>
      </trkpt>
      <trkpt lat="41.57229" lon="-0.66544">
        <time>2022-07-29T08:13:08Z</time>
      </trkpt>
      <trkpt lat="41.57254" lon="-0.66529">
        <time>2022-07-29T08:13:09Z</time>
      </trkpt>
      <trkpt lat="41.57279" lon="-0.66514">
        <time>2022-07-29T08:13:10Z</time>
      </trkpt>
      <trkpt lat="41.57303" lon="-0.66499">
        <time>2022-07-29T08:13:11Z</time>
      </trkpt>
      <trkpt lat="41.57327" lon="-0.66484">
        <time>2022-07-29T08:13:12Z</time>
      </trkpt>
      <trkpt lat="41.5735" lon="-0.6647">
        <time>2022-07-29T08:13:13Z</time>
      </trkpt>
      <trkpt lat="41.57374" lon="-0.66455">
        <time>2022-07-29T08:13:14Z</time>
      </trkpt>
      <trkpt lat="41.57398" lon="-0.66442">
        <time>2022-07-29T08:13:15Z</time>
      </trkpt>
      <trkpt lat="41.57421" lon="-0.66429">
        <time>2022-07-29T08:13:16Z</time>
      </trkpt>
      <trkpt lat="41.57444" lon="-0.66416">
        <time>2022-07-29T08:13:17Z</time>
      </trkpt>
      <trkpt lat="41.57468" lon="-0.66403">
        <time>2022-07-29T08:13:18Z</time>
      </trkpt>
      <trkpt lat="41.57491" lon="-0.66391">
        <time>2022-07-29T08:13:19Z</time>
      </trkpt>
      <trkpt lat="41.57513" lon="-0.66377">
        <time>2022-07-29T08:13:20Z</time>
      </trkpt>
      <trkpt lat="41.57536" lon="-0.66364">
        <time>2022-07-29T08:13:21Z</time>
      </trkpt>
      <trkpt lat="41.57558" lon="-0.6635">
        <time>2022-07-29T08:13:22Z</time>
      </trkpt>
      <trkpt lat="41.57581" lon="-0.66336">
        <time>2022-07-29T08:13:23Z</time>
      </trkpt>
      <trkpt lat="41.57604" lon="-0.66321">
        <time>2022-07-29T08:13:24Z</time>
      </trkpt>
      <trkpt lat="41.57627" lon="-0.66307">
        <time>2022-07-29T08:13:25Z</time>
      </trkpt>
      <trkpt lat="41.57651" lon="-0.66293">
        <time>2022-07-29T08:13:26Z</time>
      </trkpt>
      <trkpt lat="41.57674" lon="-0.66278">
        <time>2022-07-29T08:13:27Z</time>
      </trkpt>
      <trkpt lat="41.57697" lon="-0.66264">
        <time>2022-07-29T08:13:28Z</time>
      </trkpt>
      <trkpt lat="41.5772" lon="-0.66249">
        <time>2022-07-29T08:13:29Z</time>
      </trkpt>
      <trkpt lat="41.57743" lon="-0.66233">
        <time>2022-07-29T08:13:30Z</time>
      </trkpt>
      <trkpt lat="41.57765" lon="-0.66217">
        <time>2022-07-29T08:13:31Z</time>
      </trkpt>
      <trkpt lat="41.57786" lon="-0.66202">
        <time>2022-07-29T08:13:32Z</time>
      </trkpt>
      <trkpt lat="41.57806" lon="-0.66186">
        <time>2022-07-29T08:13:33Z</time>
      </trkpt>
      <trkpt lat="41.57827" lon="-0.6617">
        <time>2022-07-29T08:13:34Z</time>
      </trkpt>
      <trkpt lat="41.57846" lon="-0.66155">
        <time>2022-07-29T08:13:35Z</time>
      </trkpt>
      <trkpt lat="41.57865" lon="-0.6614">
        <time>2022-07-29T08:13:36Z</time>
      </trkpt>
      <trkpt lat="41.57881" lon="-0.66126">
        <time>2022-07-29T08:13:37Z</time>
      </trkpt>
      <trkpt lat="41.57896" lon="-0.66115">
        <time>2022-07-29T08:13:38Z</time>
      </trkpt>
      <trkpt lat="41.57909" lon="-0.66103">
        <time>2022-07-29T08:13:39Z</time>
      </trkpt>
      <trkpt lat="41.57921" lon="-0.66092">
        <time>2022-07-29T08:13:40Z</time>
      </trkpt>
      <trkpt lat="41.57931" lon="-0.6608">
        <time>2022-07-29T08:13:41Z</time>
      </trkpt>
      <trkpt lat="41.57939" lon="-0.66067">
        <time>2022-07-29T08:13:42Z</time>
      </trkpt>
      <trkpt lat="41.57945" lon="-0.66052">
        <time>2022-07-29T08:13:43Z</time>
      </trkpt>
      <trkpt lat="41.57949" lon="-0.66035">
        <time>2022-07-29T08:13:44Z</time>
      </trkpt>
      <trkpt lat="41.5795" lon="-0.66018">
        <time>2022-07-29T08:13:45Z</time>
      </trkpt>
      <trkpt lat="41.57949" lon="-0.66001">
        <time>2022-07-29T08:13:46Z</time>
      </trkpt>
      <trkpt lat="41.57945" lon="-0.65983">
        <time>2022-07-29T08:13:47Z</time>
      </trkpt>
      <trkpt lat="41.57937" lon="-0.65967">
        <time>2022-07-29T08:13:48Z</time>
      </trkpt>
      <trkpt lat="41.57926" lon="-0.65952">
        <time>2022-07-29T08:13:49Z</time>
      </trkpt>
      <trkpt lat="41.57912" lon="-0.65941">
        <time>2022-07-29T08:13:50Z</time>
      </trkpt>
      <trkpt lat="41.57896" lon="-0.65932">
        <time>2022-07-29T08:13:51Z</time>
      </trkpt>
      <trkpt lat="41.57879" lon="-0.65927">
        <time>2022-07-29T08:13:52Z</time>
      </trkpt>
      <trkpt lat="41.57862" lon="-0.65923">
        <time>2022-07-29T08:13:53Z</time>
      </trkpt>
      <trkpt lat="41.57845" lon="-0.65919">
        <time>2022-07-29T08:13:54Z</time>
      </trkpt>
      <trkpt lat="41.57829" lon="-0.65915">
        <time>2022-07-29T08:13:55Z</time>
      </trkpt>
      <trkpt lat="41.57812" lon="-0.65912">
        <time>2022-07-29T08:13:56Z</time>
      </trkpt>
      <trkpt lat="41.57796" lon="-0.65909">
        <time>2022-07-29T08:13:57Z</time>
      </trkpt>
      <trkpt lat="41.57781" lon="-0.65908">
        <time>2022-07-29T08:13:58Z</time>
      </trkpt>
      <trkpt lat="41.57765" lon="-0.6591">
        <time>2022-07-29T08:13:59Z</time>
      </trkpt>
      <trkpt lat="41.57751" lon="-0.65916">
        <time>2022-07-29T08:14:00Z</time>
      </trkpt>
      <trkpt lat="41.5774" lon="-0.65926">
        <time>2022-07-29T08:14:01Z</time>
      </trkpt>
      <trkpt lat="41.57731" lon="-0.6594">
        <time>2022-07-29T08:14:02Z</time>
      </trkpt>
      <trkpt lat="41.57726" lon="-0.65957">
        <time>2022-07-29T08:14:03Z</time>
      </trkpt>
      <trkpt lat="41.57726" lon="-0.65974">
        <time>2022-07-29T08:14:04Z</time>
      </trkpt>
      <trkpt lat="41.57729" lon="-0.65992">
        <time>2022-07-29T08:14:05Z</time>
      </trkpt>
      <trkpt lat="41.57736" lon="-0.66008">
        <time>2022-07-29T08:14:06Z</time>
      </trkpt>
      <trkpt lat="41.57747" lon="-0.66021">
        <time>2022-07-29T08:14:07Z</time>
      </trkpt>
      <trkpt lat="41.5776" lon="-0.66032">
        <time>2022-07-29T08:14:08Z</time>
      </trkpt>
      <trkpt lat="41.57775" lon="-0.66044">
        <time>2022-07-29T08:14:09Z</time>
      </trkpt>
      <trkpt lat="41.57792" lon="-0.66058">
        <time>2022-07-29T08:14:10Z</time>
      </trkpt>
      <trkpt lat="41.57811" lon="-0.66073">
        <time>2022-07-29T08:14:11Z</time>
      </trkpt>
      <trkpt lat="41.57829" lon="-0.66088">
        <time>2022-07-29T08:14:12Z</time>
      </trkpt>
      <trkpt lat="41.57848" lon="-0.66105">
        <time>2022-07-29T08:14:13Z</time>
      </trkpt>
      <trkpt lat="41.57869" lon="-0.66123">
        <time>2022-07-29T08:14:14Z</time>
      </trkpt>
      <trkpt lat="41.5789" lon="-0.66141">
        <time>2022-07-29T08:14:15Z</time>
      </trkpt>
      <trkpt lat="41.5791" lon="-0.6616">
        <time>2022-07-29T08:14:16Z</time>
      </trkpt>
      <trkpt lat="41.57931" lon="-0.66179">
        <time>2022-07-29T08:14:17Z</time>
      </trkpt>
      <trkpt lat="41.57952" lon="-0.66199">
        <time>2022-07-29T08:14:18Z</time>
      </trkpt>
      <trkpt lat="41.57973" lon="-0.6622">
        <time>2022-07-29T08:14:19Z</time>
      </trkpt>
      <trkpt lat="41.57994" lon="-0.66241">
        <time>2022-07-29T08:14:20Z</time>
      </trkpt>
      <trkpt lat="41.58015" lon="-0.66263">
        <time>2022-07-29T08:14:21Z</time>
      </trkpt>
      <trkpt lat="41.58036" lon="-0.66284">
        <time>2022-07-29T08:14:22Z</time>
      </trkpt>
      <trkpt lat="41.58056" lon="-0.66307">
        <time>2022-07-29T08:14:23Z</time>
      </trkpt>
      <trkpt lat="41.58077" lon="-0.66329">
        <time>2022-07-29T08:14:24Z</time>
      </trkpt>
      <trkpt lat="41.58097" lon="-0.66352">
        <time>2022-07-29T08:14:25Z</time>
      </trkpt>
      <trkpt lat="41.58117" lon="-0.66376">
        <time>2022-07-29T08:14:26Z</time>
      </trkpt>
      <trkpt lat="41.58137" lon="-0.664">
        <time>2022-07-29T08:14:27Z</time>
      </trkpt>
      <trkpt lat="41.58157" lon="-0.66425">
        <time>2022-07-29T08:14:28Z</time>
      </trkpt>
      <trkpt lat="41.58175" lon="-0.66452">
        <time>2022-07-29T08:14:29Z</time>
      </trkpt>
      <trkpt lat="41.58194" lon="-0.6648">
        <time>2022-07-29T08:14:30Z</time>
      </trkpt>
      <trkpt lat="41.58213" lon="-0.66508">
        <time>2022-07-29T08:14:31Z</time>
      </trkpt>
      <trkpt lat="41.58232" lon="-0.66537">
        <time>2022-07-29T08:14:32Z</time>
      </trkpt>
      <trkpt lat="41.58252" lon="-0.66568">
        <time>2022-07-29T08:14:33Z</time>
      </trkpt>
      <trkpt lat="41.58271" lon="-0.66599">
        <time>2022-07-29T08:14:34Z</time>
      </trkpt>
      <trkpt lat="41.58291" lon="-0.6663">
        <time>2022-07-29T08:14:35Z</time>
      </trkpt>
      <trkpt lat="41.58309" lon="-0.66661">
        <time>2022-07-29T08:14:36Z</time>
      </trkpt>
      <trkpt lat="41.58328" lon="-0.66693">
        <time>2022-07-29T08:14:37Z</time>
      </trkpt>
      <trkpt lat="41.58346" lon="-0.66725">
        <time>2022-07-29T08:14:38Z</time>
      </trkpt>
      <trkpt lat="41.58364" lon="-0.66757">
        <time>2022-07-29T08:14:39Z</time>
      </trkpt>
      <trkpt lat="41.58381" lon="-0.6679">
        <time>2022-07-29T08:14:40Z</time>
      </trkpt>
      <trkpt lat="41.58398" lon="-0.66824">
        <time>2022-07-29T08:14:41Z</time>
      </trkpt>
      <trkpt lat="41.58414" lon="-0.66857">
        <time>2022-07-29T08:14:42Z</time>
      </trkpt>
      <trkpt lat="41.58431" lon="-0.66891">
        <time>2022-07-29T08:14:43Z</time>
      </trkpt>
      <trkpt lat="41.58446" lon="-0.66924">
        <time>2022-07-29T08:14:44Z</time>
      </trkpt>
      <trkpt lat="41.58461" lon="-0.66958">
        <time>2022-07-29T08:14:45Z</time>
      </trkpt>
      <trkpt lat="41.58476" lon="-0.66993">
        <time>2022-07-29T08:14:46Z</time>
      </trkpt>
      <trkpt lat="41.5849" lon="-0.67028">
        <time>2022-07-29T08:14:47Z</time>
      </trkpt>
      <trkpt lat="41.58505" lon="-0.67063">
        <time>2022-07-29T08:14:48Z</time>
      </trkpt>
      <trkpt lat="41.58518" lon="-0.67099">
        <time>2022-07-29T08:14:49Z</time>
      </trkpt>
      <trkpt lat="41.58531" lon="-0.67134">
        <time>2022-07-29T08:14:50Z</time>
      </trkpt>
      <trkpt lat="41.58544" lon="-0.67171">
        <time>2022-07-29T08:14:51Z</time>
      </trkpt>
      <trkpt lat="41.58556" lon="-0.67207">
        <time>2022-07-29T08:14:52Z</time>
      </trkpt>
      <trkpt lat="41.58567" lon="-0.67244">
        <time>2022-07-29T08:14:53Z</time>
      </trkpt>
      <trkpt lat="41.58579" lon="-0.67281">
        <time>2022-07-29T08:14:54Z</time>
      </trkpt>
      <trkpt lat="41.58589" lon="-0.67319">
        <time>2022-07-29T08:14:55Z</time>
      </trkpt>
      <trkpt lat="41.58599" lon="-0.67357">
        <time>2022-07-29T08:14:56Z</time>
      </trkpt>
      <trkpt lat="41.58609" lon="-0.67396">
        <time>2022-07-29T08:14:57Z</time>
      </trkpt>
      <trkpt lat="41.58619" lon="-0.67434">
        <time>2022-07-29T08:14:58Z</time>
      </trkpt>
      <trkpt lat="41.58628" lon="-0.67472">
        <time>2022-07-29T08:14:59Z</time>
      </trkpt>
      <trkpt lat="41.58637" lon="-0.67511">
        <time>2022-07-29T08:15:00Z</time>
      </trkpt>
      <trkpt lat="41.58646" lon="-0.67549">
        <time>2022-07-29T08:15:01Z</time>
      </trkpt>
      <trkpt lat="41.58654" lon="-0.67588">
        <time>2022-07-29T08:15:02Z</time>
      </trkpt>
      <trkpt lat="41.58662" lon="-0.67626">
        <time>2022-07-29T08:15:03Z</time>
      </trkpt>
      <trkpt lat="41.5867" lon="-0.67665">
        <time>2022-07-29T08:15:04Z</time>
      </trkpt>
      <trkpt lat="41.58678" lon="-0.67703">
        <time>2022-07-29T08:15:05Z</time>
      </trkpt>
      <trkpt lat="41.58687" lon="-0.67742">
        <time>2022-07-29T08:15:06Z</time>
      </trkpt>
      <trkpt lat="41.58696" lon="-0.6778">
        <time>2022-07-29T08:15:07Z</time>
      </trkpt>
      <trkpt lat="41.58705" lon="-0.67819">
        <time>2022-07-29T08:15:08Z</time>
      </trkpt>
      <trkpt lat="41.58714" lon="-0.67858">
        <time>2022-07-29T08:15:09Z</time>
      </trkpt>
      <trkpt lat="41.58725" lon="-0.67898">
        <time>2022-07-29T08:15:10Z</time>
      </trkpt>
      <trkpt lat="41.58735" lon="-0.67937">
        <time>2022-07-29T08:15:11Z</time>
      </trkpt>
      <trkpt lat="41.58747" lon="-0.67976">
        <time>2022-07-29T08:15:12Z</time>
      </trkpt>
      <trkpt lat="41.58759" lon="-0.68016">
        <time>2022-07-29T08:15:13Z</time>
      </trkpt>
      <trkpt lat="41.58772" lon="-0.68054">
        <time>2022-07-29T08:15:14Z</time>
      </trkpt>
      <trkpt lat="41.58786" lon="-0.68092">
        <time>2022-07-29T08:15:15Z</time>
      </trkpt>
      <trkpt lat="41.588" lon="-0.6813">
        <time>2022-07-29T08:15:16Z</time>
      </trkpt>
      <trkpt lat="41.58815" lon="-0.68167">
        <time>2022-07-29T08:15:17Z</time>
      </trkpt>
      <trkpt lat="41.58832" lon="-0.68204">
        <time>2022-07-29T08:15:18Z</time>
      </trkpt>
      <trkpt lat="41.58848" lon="-0.68241">
        <time>2022-07-29T08:15:19Z</time>
      </trkpt>
      <trkpt lat="41.58866" lon="-0.68277">
        <time>2022-07-29T08:15:20Z</time>
      </trkpt>
      <trkpt lat="41.58884" lon="-0.68312">
        <time>2022-07-29T08:15:21Z</time>
      </trkpt>
      <trkpt lat="41.58903" lon="-0.68347">
        <time>2022-07-29T08:15:22Z</time>
      </trkpt>
      <trkpt lat="41.58922" lon="-0.68382">
        <time>2022-07-29T08:15:23Z</time>
      </trkpt>
      <trkpt lat="41.58942" lon="-0.68417">
        <time>2022-07-29T08:15:24Z</time>
      </trkpt>
      <trkpt lat="41.58962" lon="-0.6845">
        <time>2022-07-29T08:15:25Z</time>
      </trkpt>
      <trkpt lat="41.58983" lon="-0.68484">
        <time>2022-07-29T08:15:26Z</time>
      </trkpt>
      <trkpt lat="41.59005" lon="-0.68515">
        <time>2022-07-29T08:15:27Z</time>
      </trkpt>
      <trkpt lat="41.59028" lon="-0.68546">
        <time>2022-07-29T08:15:28Z</time>
      </trkpt>
      <trkpt lat="41.59051" lon="-0.68577">
        <time>2022-07-29T08:15:29Z</time>
      </trkpt>
      <trkpt lat="41.59074" lon="-0.68607">
        <time>2022-07-29T08:15:30Z</time>
      </trkpt>
      <trkpt lat="41.59098" lon="-0.68635">
        <time>2022-07-29T08:15:31Z</time>
      </trkpt>
      <trkpt lat="41.59123" lon="-0.68663">
        <time>2022-07-29T08:15:32Z</time>
      </trkpt>
      <trkpt lat="41.59148" lon="-0.68691">
        <time>2022-07-29T08:15:33Z</time>
      </trkpt>
      <trkpt lat="41.59173" lon="-0.68717">
        <time>2022-07-29T08:15:34Z</time>
      </trkpt>
      <trkpt lat="41.59199" lon="-0.68743">
        <time>2022-07-29T08:15:35Z</time>
      </trkpt>
      <trkpt lat="41.59225" lon="-0.68768">
        <time>2022-07-29T08:15:36Z</time>
      </trkpt>
      <trkpt lat="41.59251" lon="-0.68792">
        <time>2022-07-29T08:15:37Z</time>
      </trkpt>
      <trkpt lat="41.59278" lon="-0.68815">
        <time>2022-07-29T08:15:38Z</time>
      </trkpt>
      <trkpt lat="41.59305" lon="-0.68837">
        <time>2022-07-29T08:15:39Z</time>
      </trkpt>
      <trkpt lat="41.59333" lon="-0.68857">
        <time>2022-07-29T08:15:40Z</time>
      </trkpt>
      <trkpt lat="41.5936" lon="-0.68877">
        <time>2022-07-29T08:15:41Z</time>
      </trkpt>
      <trkpt lat="41.59388" lon="-0.68896">
        <time>2022-07-29T08:15:42Z</time>
      </trkpt>
      <trkpt lat="41.59416" lon="-0.68914">
        <time>2022-07-29T08:15:43Z</time>
      </trkpt>
      <trkpt lat="41.59444" lon="-0.68931">
        <time>2022-07-29T08:15:44Z</time>
      </trkpt>
      <trkpt lat="41.59472" lon="-0.68947">
        <time>2022-07-29T08:15:45Z</time>
      </trkpt>
      <trkpt lat="41.59501" lon="-0.68963">
        <time>2022-07-29T08:15:46Z</time>
      </trkpt>
      <trkpt lat="41.5953" lon="-0.68977">
        <time>2022-07-29T08:15:47Z</time>
      </trkpt>
      <trkpt lat="41.59559" lon="-0.68991">
        <time>2022-07-29T08:15:48Z</time>
      </trkpt>
      <trkpt lat="41.59589" lon="-0.69004">
        <time>2022-07-29T08:15:49Z</time>
      </trkpt>
      <trkpt lat="41.59619" lon="-0.69015">
        <time>2022-07-29T08:15:50Z</time>
      </trkpt>
      <trkpt lat="41.59649" lon="-0.69027">
        <time>2022-07-29T08:15:51Z</time>
      </trkpt>
      <trkpt lat="41.59679" lon="-0.69036">
        <time>2022-07-29T08:15:52Z</time>
      </trkpt>
      <trkpt lat="41.59709" lon="-0.69046">
        <time>2022-07-29T08:15:53Z</time>
      </trkpt>
      <trkpt lat="41.5974" lon="-0.69054">
        <time>2022-07-29T08:15:54Z</time>
      </trkpt>
      <trkpt lat="41.59771" lon="-0.69062">
        <time>2022-07-29T08:15:55Z</time>
      </trkpt>
      <trkpt lat="41.59801" lon="-0.6907">
        <time>2022-07-29T08:15:56Z</time>
      </trkpt>
      <trkpt lat="41.59831" lon="-0.69078">
        <time>2022-07-29T08:15:57Z</time>
      </trkpt>
      <trkpt lat="41.59862" lon="-0.69085">
        <time>2022-07-29T08:15:58Z</time>
      </trkpt>
      <trkpt lat="41.59892" lon="-0.69091">
        <time>2022-07-29T08:15:59Z</time>
      </trkpt>
      <trkpt lat="41.59922" lon="-0.69099">
        <time>2022-07-29T08:16:00Z</time>
      </trkpt>
      <trkpt lat="41.59952" lon="-0.69107">
        <time>2022-07-29T08:16:01Z</time>
      </trkpt>
      <trkpt lat="41.59982" lon="-0.69115">
        <time>2022-07-29T08:16:02Z</time>
      </trkpt>
      <trkpt lat="41.60012" lon="-0.69122">
        <time>2022-07-29T08:16:03Z</time>
      </trkpt>
      <trkpt lat="41.60041" lon="-0.69129">
        <time>2022-07-29T08:16:04Z</time>
      </trkpt>
      <trkpt lat="41.60071" lon="-0.69137">
        <time>2022-07-29T08:16:05Z</time>
      </trkpt>
      <trkpt lat="41.60101" lon="-0.69145">
        <time>2022-07-29T08:16:06Z</time>
      </trkpt>
      <trkpt lat="41.6013" lon="-0.69154">
        <time>2022-07-29T08:16:07Z</time>
      </trkpt>
      <trkpt lat="41.6016" lon="-0.69163">
        <time>2022-07-29T08:16:08Z</time>
      </trkpt>
      <trkpt lat="41.60188" lon="-0.69174">
        <time>2022-07-29T08:16:09Z</time>
      </trkpt>
      <trkpt lat="41.60217" lon="-0.69184">
        <time>2022-07-29T08:16:10Z</time>
      </trkpt>
      <trkpt lat="41.60246" lon="-0.69195">
        <time>2022-07-29T08:16:11Z</time>
      </trkpt>
      <trkpt lat="41.60275" lon="-0.69206">
        <time>2022-07-29T08:16:12Z</time>
      </trkpt>
      <trkpt lat="41.60303" lon="-0.69217">
        <time>2022-07-29T08:16:13Z</time>
      </trkpt>
      <trkpt lat="41.60332" lon="-0.69229">
        <time>2022-07-29T08:16:14Z</time>
      </trkpt>
      <trkpt lat="41.6036" lon="-0.69241">
        <time>2022-07-29T08:16:15Z</time>
      </trkpt>
      <trkpt lat="41.60388" lon="-0.69253">
        <time>2022-07-29T08:16:16Z</time>
      </trkpt>
      <trkpt lat="41.60416" lon="-0.69266">
        <time>2022-07-29T08:16:17Z</time>
      </trkpt>
      <trkpt lat="41.60445" lon="-0.69279">
        <time>2022-07-29T08:16:18Z</time>
      </trkpt>
      <trkpt lat="41.60472" lon="-0.69293">
        <time>2022-07-29T08:16:19Z</time>
      </trkpt>
      <trkpt lat="41.60499" lon="-0.69307">
        <time>2022-07-29T08:16:20Z</time>
      </trkpt>
      <trkpt lat="41.60526" lon="-0.69321">
        <time>2022-07-29T08:16:21Z</time>
      </trkpt>
      <trkpt lat="41.60554" lon="-0.69336">
        <time>2022-07-29T08:16:22Z</time>
      </trkpt>
      <trkpt lat="41.6058" lon="-0.69352">
        <time>2022-07-29T08:16:23Z</time>
      </trkpt>
      <trkpt lat="41.60607" lon="-0.69368">
        <time>2022-07-29T08:16:24Z</time>
      </trkpt>
      <trkpt lat="41.60634" lon="-0.69383">
        <time>2022-07-29T08:16:25Z</time>
      </trkpt>
      <trkpt lat="41.6066" lon="-0.69398">
        <time>2022-07-29T08:16:26Z</time>
      </trkpt>
      <trkpt lat="41.60686" lon="-0.69414">
        <time>2022-07-29T08:16:27Z</time>
      </trkpt>
      <trkpt lat="41.60712" lon="-0.69429">
        <time>2022-07-29T08:16:28Z</time>
      </trkpt>
      <trkpt lat="41.60739" lon="-0.69445">
        <time>2022-07-29T08:16:29Z</time>
      </trkpt>
      <trkpt lat="41.60765" lon="-0.6946">
        <time>2022-07-29T08:16:30Z</time>
      </trkpt>
      <trkpt lat="41.60791" lon="-0.69475">
        <time>2022-07-29T08:16:31Z</time>
      </trkpt>
      <trkpt lat="41.60817" lon="-0.69491">
        <time>2022-07-29T08:16:32Z</time>
      </trkpt>
      <trkpt lat="41.60843" lon="-0.69506">
        <time>2022-07-29T08:16:33Z</time>
      </trkpt>
      <trkpt lat="41.6087" lon="-0.69522">
        <time>2022-07-29T08:16:34Z</time>
      </trkpt>
      <trkpt lat="41.60896" lon="-0.69536">
        <time>2022-07-29T08:16:35Z</time>
      </trkpt>
      <trkpt lat="41.60922" lon="-0.69552">
        <time>2022-07-29T08:16:36Z</time>
      </trkpt>
      <trkpt lat="41.60949" lon="-0.69567">
        <time>2022-07-29T08:16:37Z</time>
      </trkpt>
      <trkpt lat="41.60976" lon="-0.69582">
        <time>2022-07-29T08:16:38Z</time>
      </trkpt>
      <trkpt lat="41.61003" lon="-0.69598">
        <time>2022-07-29T08:16:39Z</time>
      </trkpt>
      <trkpt lat="41.6103" lon="-0.69614">
        <time>2022-07-29T08:16:40Z</time>
      </trkpt>
      <trkpt lat="41.61056" lon="-0.69629">
        <time>2022-07-29T08:16:41Z</time>
      </trkpt>
      <trkpt lat="41.61083" lon="-0.69645">
        <time>2022-07-29T08:16:42Z</time>
      </trkpt>
      <trkpt lat="41.6111" lon="-0.6966">
        <time>2022-07-29T08:16:43Z</time>
      </trkpt>
      <trkpt lat="41.61136" lon="-0.69675">
        <time>2022-07-29T08:16:44Z</time>
      </trkpt>
      <trkpt lat="41.61163" lon="-0.69691">
        <time>2022-07-29T08:16:45Z</time>
      </trkpt>
      <trkpt lat="41.6119" lon="-0.69707">
        <time>2022-07-29T08:16:46Z</time>
      </trkpt>
      <trkpt lat="41.61216" lon="-0.69722">
        <time>2022-07-29T08:16:47Z</time>
      </trkpt>
      <trkpt lat="41.61242" lon="-0.69738">
        <time>2022-07-29T08:16:48Z</time>
      </trkpt>
      <trkpt lat="41.61269" lon="-0.69753">
        <time>2022-07-29T08:16:49Z</time>
      </trkpt>
      <trkpt lat="41.61295" lon="-0.69769">
        <time>2022-07-29T08:16:50Z</time>
      </trkpt>
      <trkpt lat="41.61321" lon="-0.69784">
        <time>2022-07-29T08:16:51Z</time>
      </trkpt>
      <trkpt lat="41.61348" lon="-0.69799">
        <time>2022-07-29T08:16:52Z</time>
      </trkpt>
      <trkpt lat="41.61374" lon="-0.69815">
        <time>2022-07-29T08:16:53Z</time>
      </trkpt>
      <trkpt lat="41.614" lon="-0.69832">
        <time>2022-07-29T08:16:54Z</time>
      </trkpt>
      <trkpt lat="41.61426" lon="-0.69849">
        <time>2022-07-29T08:16:55Z</time>
      </trkpt>
      <trkpt lat="41.61451" lon="-0.69867">
        <time>2022-07-29T08:16:56Z</time>
      </trkpt>
      <trkpt lat="41.61476" lon="-0.69887">
        <time>2022-07-29T08:16:57Z</time>
      </trkpt>
      <trkpt lat="41.615" lon="-0.69908">
        <time>2022-07-29T08:16:58Z</time>
      </trkpt>
      <trkpt lat="41.61523" lon="-0.69932">
        <time>2022-07-29T08:16:59Z</time>
      </trkpt>
      <trkpt lat="41.61545" lon="-0.69956">
        <time>2022-07-29T08:17:00Z</time>
      </trkpt>
      <trkpt lat="41.61566" lon="-0.69983">
        <time>2022-07-29T08:17:01Z</time>
      </trkpt>
      <trkpt lat="41.61586" lon="-0.70012">
        <time>2022-07-29T08:17:02Z</time>
      </trkpt>
      <trkpt lat="41.61605" lon="-0.70042">
        <time>2022-07-29T08:17:03Z</time>
      </trkpt>
      <trkpt lat="41.61622" lon="-0.70074">
        <time>2022-07-29T08:17:04Z</time>
      </trkpt>
      <trkpt lat="41.61637" lon="-0.70107">
        <time>2022-07-29T08:17:05Z</time>
      </trkpt>
      <trkpt lat="41.6165" lon="-0.70142">
        <time>2022-07-29T08:17:06Z</time>
      </trkpt>
      <trkpt lat="41.61662" lon="-0.70178">
        <time>2022-07-29T08:17:07Z</time>
      </trkpt>
      <trkpt lat="41.61673" lon="-0.70215">
        <time>2022-07-29T08:17:08Z</time>
      </trkpt>
      <trkpt lat="41.61683" lon="-0.70253">
        <time>2022-07-29T08:17:09Z</time>
      </trkpt>
      <trkpt lat="41.61693" lon="-0.70291">
        <time>2022-07-29T08:17:10Z</time>
      </trkpt>
      <trkpt lat="41.61702" lon="-0.70329">
        <time>2022-07-29T08:17:11Z</time>
      </trkpt>
      <trkpt lat="41.61712" lon="-0.70369">
        <time>2022-07-29T08:17:12Z</time>
      </trkpt>
      <trkpt lat="41.61721" lon="-0.70408">
        <time>2022-07-29T08:17:13Z</time>
      </trkpt>
      <trkpt lat="41.61732" lon="-0.70447">
        <time>2022-07-29T08:17:14Z</time>
      </trkpt>
      <trkpt lat="41.61742" lon="-0.70487">
        <time>2022-07-29T08:17:15Z</time>
      </trkpt>
      <trkpt lat="41.61753" lon="-0.70527">
        <time>2022-07-29T08:17:16Z</time>
      </trkpt>
      <trkpt lat="41.61764" lon="-0.70566">
        <time>2022-07-29T08:17:17Z</time>
      </trkpt>
      <trkpt lat="41.61776" lon="-0.70606">
        <time>2022-07-29T08:17:18Z</time>
      </trkpt>
      <trkpt lat="41.61788" lon="-0.70645">
        <time>2022-07-29T08:17:19Z</time>
      </trkpt>
      <trkpt lat="41.61802" lon="-0.70683">
        <time>2022-07-29T08:17:20Z</time>
      </trkpt>
      <trkpt lat="41.61816" lon="-0.70722">
        <time>2022-07-29T08:17:21Z</time>
      </trkpt>
      <trkpt lat="41.61831" lon="-0.7076">
        <time>2022-07-29T08:17:22Z</time>
      </trkpt>
      <trkpt lat="41.61846" lon="-0.70798">
        <time>2022-07-29T08:17:23Z</time>
      </trkpt>
      <trkpt lat="41.61862" lon="-0.70837">
        <time>2022-07-29T08:17:24Z</time>
      </trkpt>
      <trkpt lat="41.61879" lon="-0.70875">
        <time>2022-07-29T08:17:25Z</time>
      </trkpt>
      <trkpt lat="41.61897" lon="-0.70912">
        <time>2022-07-29T08:17:26Z</time>
      </trkpt>
      <trkpt lat="41.61916" lon="-0.70948">
        <time>2022-07-29T08:17:27Z</time>
      </trkpt>
      <trkpt lat="41.61935" lon="-0.70985">
        <time>2022-07-29T08:17:28Z</time>
      </trkpt>
      <trkpt lat="41.61955" lon="-0.71021">
        <time>2022-07-29T08:17:29Z</time>
      </trkpt>
      <trkpt lat="41.61976" lon="-0.71056">
        <time>2022-07-29T08:17:30Z</time>
      </trkpt>
      <trkpt lat="41.61997" lon="-0.71091">
        <time>2022-07-29T08:17:31Z</time>
      </trkpt>
      <trkpt lat="41.62019" lon="-0.71126">
        <time>2022-07-29T08:17:32Z</time>
      </trkpt>
      <trkpt lat="41.62042" lon="-0.71159">
        <time>2022-07-29T08:17:33Z</time>
      </trkpt>
      <trkpt lat="41.62064" lon="-0.71193">
        <time>2022-07-29T08:17:34Z</time>
      </trkpt>
      <trkpt lat="41.62086" lon="-0.71227">
        <time>2022-07-29T08:17:35Z</time>
      </trkpt>
      <trkpt lat="41.62108" lon="-0.71261">
        <time>2022-07-29T08:17:36Z</time>
      </trkpt>
      <trkpt lat="41.6213" lon="-0.71295">
        <time>2022-07-29T08:17:37Z</time>
      </trkpt>
      <trkpt lat="41.62151" lon="-0.7133">
        <time>2022-07-29T08:17:38Z</time>
      </trkpt>
      <trkpt lat="41.62172" lon="-0.71365">
        <time>2022-07-29T08:17:39Z</time>
      </trkpt>
      <trkpt lat="41.62192" lon="-0.714">
        <time>2022-07-29T08:17:40Z</time>
      </trkpt>
      <trkpt lat="41.62211" lon="-0.71436">
        <time>2022-07-29T08:17:41Z</time>
      </trkpt>
      <trkpt lat="41.6223" lon="-0.71472">
        <time>2022-07-29T08:17:42Z</time>
      </trkpt>
      <trkpt lat="41.62249" lon="-0.71509">
        <time>2022-07-29T08:17:43Z</time>
      </trkpt>
      <trkpt lat="41.62267" lon="-0.71546">
        <time>2022-07-29T08:17:44Z</time>
      </trkpt>
      <trkpt lat="41.62284" lon="-0.71583">
        <time>2022-07-29T08:17:45Z</time>
      </trkpt>
      <trkpt lat="41.62301" lon="-0.71621">
        <time>2022-07-29T08:17:46Z</time>
      </trkpt>
      <trkpt lat="41.62317" lon="-0.71659">
        <time>2022-07-29T08:17:47Z</time>
      </trkpt>
      <trkpt lat="41.62333" lon="-0.71696">
        <time>2022-07-29T08:17:48Z</time>
      </trkpt>
      <trkpt lat="41.62349" lon="-0.71735">
        <time>2022-07-29T08:17:49Z</time>
      </trkpt>
      <trkpt lat="41.62364" lon="-0.71773">
        <time>2022-07-29T08:17:50Z</time>
      </trkpt>
      <trkpt lat="41.62378" lon="-0.71813">
        <time>2022-07-29T08:17:51Z</time>
      </trkpt>
      <trkpt lat="41.62393" lon="-0.71853">
        <time>2022-07-29T08:17:52Z</time>
      </trkpt>
      <trkpt lat="41.62407" lon="-0.71895">
        <time>2022-07-29T08:17:53Z</time>
      </trkpt>
      <trkpt lat="41.6242" lon="-0.71937">
        <time>2022-07-29T08:17:54Z</time>
      </trkpt>
      <trkpt lat="41.62434" lon="-0.7198">
        <time>2022-07-29T08:17:55Z</time>
      </trkpt>
      <trkpt lat="41.62446" lon="-0.72023">
        <time>2022-07-29T08:17:56Z</time>
      </trkpt>
      <trkpt lat="41.62458" lon="-0.72066">
        <time>2022-07-29T08:17:57Z</time>
      </trkpt>
      <trkpt lat="41.62469" lon="-0.72109">
        <time>2022-07-29T08:17:58Z</time>
      </trkpt>
      <trkpt lat="41.6248" lon="-0.72152">
        <time>2022-07-29T08:17:59Z</time>
      </trkpt>
      <trkpt lat="41.62491" lon="-0.72195">
        <time>2022-07-29T08:18:00Z</time>
      </trkpt>
      <trkpt lat="41.62502" lon="-0.72238">
        <time>2022-07-29T08:18:01Z</time>
      </trkpt>
      <trkpt lat="41.62513" lon="-0.72281">
        <time>2022-07-29T08:18:02Z</time>
      </trkpt>
      <trkpt lat="41.62524" lon="-0.72324">
        <time>2022-07-29T08:18:03Z</time>
      </trkpt>
      <trkpt lat="41.62536" lon="-0.72367">
        <time>2022-07-29T08:18:04Z</time>
      </trkpt>
      <trkpt lat="41.62548" lon="-0.7241">
        <time>2022-07-29T08:18:05Z</time>
      </trkpt>
      <trkpt lat="41.62561" lon="-0.72452">
        <time>2022-07-29T08:18:06Z</time>
      </trkpt>
      <trkpt lat="41.62574" lon="-0.72494">
        <time>2022-07-29T08:18:07Z</time>
      </trkpt>
      <trkpt lat="41.62589" lon="-0.72535">
        <time>2022-07-29T08:18:08Z</time>
      </trkpt>
      <trkpt lat="41.62604" lon="-0.72576">
        <time>2022-07-29T08:18:09Z</time>
      </trkpt>
      <trkpt lat="41.6262" lon="-0.72617">
        <time>2022-07-29T08:18:10Z</time>
      </trkpt>
      <trkpt lat="41.62637" lon="-0.72657">
        <time>2022-07-29T08:18:11Z</time>
      </trkpt>
      <trkpt lat="41.62655" lon="-0.72696">
        <time>2022-07-29T08:18:12Z</time>
      </trkpt>
      <trkpt lat="41.62674" lon="-0.72735">
        <time>2022-07-29T08:18:13Z</time>
      </trkpt>
      <trkpt lat="41.62693" lon="-0.72773">
        <time>2022-07-29T08:18:14Z</time>
      </trkpt>
      <trkpt lat="41.62713" lon="-0.72811">
        <time>2022-07-29T08:18:15Z</time>
      </trkpt>
      <trkpt lat="41.62734" lon="-0.72849">
        <time>2022-07-29T08:18:16Z</time>
      </trkpt>
      <trkpt lat="41.62756" lon="-0.72885">
        <time>2022-07-29T08:18:17Z</time>
      </trkpt>
      <trkpt lat="41.62779" lon="-0.72921">
        <time>2022-07-29T08:18:18Z</time>
      </trkpt>
      <trkpt lat="41.62802" lon="-0.72956">
        <time>2022-07-29T08:18:19Z</time>
      </trkpt>
      <trkpt lat="41.62826" lon="-0.7299">
        <time>2022-07-29T08:18:20Z</time>
      </trkpt>
      <trkpt lat="41.62849" lon="-0.73024">
        <time>2022-07-29T08:18:21Z</time>
      </trkpt>
      <trkpt lat="41.62873" lon="-0.73058">
        <time>2022-07-29T08:18:22Z</time>
      </trkpt>
      <trkpt lat="41.62897" lon="-0.73091">
        <time>2022-07-29T08:18:23Z</time>
      </trkpt>
      <trkpt lat="41.6292" lon="-0.73124">
        <time>2022-07-29T08:18:24Z</time>
      </trkpt>
      <trkpt lat="41.62943" lon="-0.73156">
        <time>2022-07-29T08:18:25Z</time>
      </trkpt>
      <trkpt lat="41.62966" lon="-0.73188">
        <time>2022-07-29T08:18:26Z</time>
      </trkpt>
      <trkpt lat="41.62988" lon="-0.73221">
        <time>2022-07-29T08:18:27Z</time>
      </trkpt>
      <trkpt lat="41.63009" lon="-0.73255">
        <time>2022-07-29T08:18:28Z</time>
      </trkpt>
      <trkpt lat="41.63029" lon="-0.73288">
        <time>2022-07-29T08:18:29Z</time>
      </trkpt>
      <trkpt lat="41.63049" lon="-0.73321">
        <time>2022-07-29T08:18:30Z</time>
      </trkpt>
      <trkpt lat="41.63069" lon="-0.73355">
        <time>2022-07-29T08:18:31Z</time>
      </trkpt>
      <trkpt lat="41.63088" lon="-0.73389">
        <time>2022-07-29T08:18:32Z</time>
      </trkpt>
      <trkpt lat="41.63107" lon="-0.73424">
        <time>2022-07-29T08:18:33Z</time>
      </trkpt>
      <trkpt lat="41.63124" lon="-0.7346">
        <time>2022-07-29T08:18:34Z</time>
      </trkpt>
      <trkpt lat="41.63141" lon="-0.73497">
        <time>2022-07-29T08:18:35Z</time>
      </trkpt>
      <trkpt lat="41.63157" lon="-0.73533">
        <time>2022-07-29T08:18:36Z</time>
      </trkpt>
      <trkpt lat="41.63172" lon="-0.73571">
        <time>2022-07-29T08:18:37Z</time>
      </trkpt>
      <trkpt lat="41.63188" lon="-0.73609">
        <time>2022-07-29T08:18:38Z</time>
      </trkpt>
      <trkpt lat="41.63202" lon="-0.73648">
        <time>2022-07-29T08:18:39Z</time>
      </trkpt>
      <trkpt lat="41.63215" lon="-0.73687">
        <time>2022-07-29T08:18:40Z</time>
      </trkpt>
      <trkpt lat="41.63228" lon="-0.73727">
        <time>2022-07-29T08:18:41Z</time>
      </trkpt>
      <trkpt lat="41.63241" lon="-0.73767">
        <time>2022-07-29T08:18:42Z</time>
      </trkpt>
      <trkpt lat="41.63254" lon="-0.73807">
        <time>2022-07-29T08:18:43Z</time>
      </trkpt>
      <trkpt lat="41.63267" lon="-0.73847">
        <time>2022-07-29T08:18:44Z</time>
      </trkpt>
      <trkpt lat="41.6328" lon="-0.73888">
        <time>2022-07-29T08:18:45Z</time>
      </trkpt>
      <trkpt lat="41.63293" lon="-0.73928">
        <time>2022-07-29T08:18:46Z</time>
      </trkpt>
      <trkpt lat="41.63307" lon="-0.73968">
        <time>2022-07-29T08:18:47Z</time>
      </trkpt>
      <trkpt lat="41.63321" lon="-0.74008">
        <time>2022-07-29T08:18:48Z</time>
      </trkpt>
      <trkpt lat="41.63336" lon="-0.74048">
        <time>2022-07-29T08:18:49Z</time>
      </trkpt>
      <trkpt lat="41.63351" lon="-0.74087">
        <time>2022-07-29T08:18:50Z</time>
      </trkpt>
      <trkpt lat="41.63366" lon="-0.74125">
        <time>2022-07-29T08:18:51Z</time>
      </trkpt>
      <trkpt lat="41.63382" lon="-0.74164">
        <time>2022-07-29T08:18:52Z</time>
      </trkpt>
      <trkpt lat="41.63399" lon="-0.74202">
        <time>2022-07-29T08:18:53Z</time>
      </trkpt>
      <trkpt lat="41.63416" lon="-0.74239">
        <time>2022-07-29T08:18:54Z</time>
      </trkpt>
      <trkpt lat="41.63433" lon="-0.74276">
        <time>2022-07-29T08:18:55Z</time>
      </trkpt>
      <trkpt lat="41.63451" lon="-0.74313">
        <time>2022-07-29T08:18:56Z</time>
      </trkpt>
      <trkpt lat="41.6347" lon="-0.7435">
        <time>2022-07-29T08:18:57Z</time>
      </trkpt>
      <trkpt lat="41.63489" lon="-0.74386">
        <time>2022-07-29T08:18:58Z</time>
      </trkpt>
      <trkpt lat="41.63509" lon="-0.74422">
        <time>2022-07-29T08:18:59Z</time>
      </trkpt>
      <trkpt lat="41.63528" lon="-0.74457">
        <time>2022-07-29T08:19:00Z</time>
      </trkpt>
      <trkpt lat="41.63548" lon="-0.74493">
        <time>2022-07-29T08:19:01Z</time>
      </trkpt>
      <trkpt lat="41.63568" lon="-0.74528">
        <time>2022-07-29T08:19:02Z</time>
      </trkpt>
      <trkpt lat="41.63588" lon="-0.74563">
        <time>2022-07-29T08:19:03Z</time>
      </trkpt>
      <trkpt lat="41.63607" lon="-0.74599">
        <time>2022-07-29T08:19:04Z</time>
      </trkpt>
      <trkpt lat="41.63627" lon="-0.74635">
        <time>2022-07-29T08:19:05Z</time>
      </trkpt>
      <trkpt lat="41.63647" lon="-0.7467">
        <time>2022-07-29T08:19:06Z</time>
      </trkpt>
      <trkpt lat="41.63666" lon="-0.74707">
        <time>2022-07-29T08:19:07Z</time>
      </trkpt>
      <trkpt lat="41.63685" lon="-0.74743">
        <time>2022-07-29T08:19:08Z</time>
      </trkpt>
      <trkpt lat="41.63703" lon="-0.7478">
        <time>2022-07-29T08:19:09Z</time>
      </trkpt>
      <trkpt lat="41.63722" lon="-0.74816">
        <time>2022-07-29T08:19:10Z</time>
      </trkpt>
      <trkpt lat="41.63741" lon="-0.74852">
        <time>2022-07-29T08:19:11Z</time>
      </trkpt>
      <trkpt lat="41.6376" lon="-0.74888">
        <time>2022-07-29T08:19:12Z</time>
      </trkpt>
      <trkpt lat="41.63778" lon="-0.74925">
        <time>2022-07-29T08:19:13Z</time>
      </trkpt>
      <trkpt lat="41.63796" lon="-0.74963">
        <time>2022-07-29T08:19:14Z</time>
      </trkpt>
      <trkpt lat="41.63814" lon="-0.75">
        <time>2022-07-29T08:19:15Z</time>
      </trkpt>
      <trkpt lat="41.63831" lon="-0.75037">
        <time>2022-07-29T08:19:16Z</time>
      </trkpt>
      <trkpt lat="41.63849" lon="-0.75074">
        <time>2022-07-29T08:19:17Z</time>
      </trkpt>
      <trkpt lat="41.63867" lon="-0.75112">
        <time>2022-07-29T08:19:18Z</time>
      </trkpt>
      <trkpt lat="41.63884" lon="-0.7515">
        <time>2022-07-29T08:19:19Z</time>
      </trkpt>
      <trkpt lat="41.63901" lon="-0.75188">
        <time>2022-07-29T08:19:20Z</time>
      </trkpt>
      <trkpt lat="41.63919" lon="-0.75226">
        <time>2022-07-29T08:19:21Z</time>
      </trkpt>
      <trkpt lat="41.63936" lon="-0.75264">
        <time>2022-07-29T08:19:22Z</time>
      </trkpt>
      <trkpt lat="41.63952" lon="-0.75302">
        <time>2022-07-29T08:19:23Z</time>
      </trkpt>
      <trkpt lat="41.63969" lon="-0.75339">
        <time>2022-07-29T08:19:24Z</time>
      </trkpt>
      <trkpt lat="41.63986" lon="-0.75377">
        <time>2022-07-29T08:19:25Z</time>
      </trkpt>
      <trkpt lat="41.64003" lon="-0.75415">
        <time>2022-07-29T08:19:26Z</time>
      </trkpt>
      <trkpt lat="41.6402" lon="-0.75452">
        <time>2022-07-29T08:19:27Z</time>
      </trkpt>
      <trkpt lat="41.64037" lon="-0.7549">
        <time>2022-07-29T08:19:28Z</time>
      </trkpt>
      <trkpt lat="41.64055" lon="-0.75527">
        <time>2022-07-29T08:19:29Z</time>
      </trkpt>
      <trkpt lat="41.64072" lon="-0.75564">
        <time>2022-07-29T08:19:30Z</time>
      </trkpt>
      <trkpt lat="41.64091" lon="-0.75601">
        <time>2022-07-29T08:19:31Z</time>
      </trkpt>
      <trkpt lat="41.64109" lon="-0.75636">
        <time>2022-07-29T08:19:32Z</time>
      </trkpt>
      <trkpt lat="41.64129" lon="-0.75672">
        <time>2022-07-29T08:19:33Z</time>
      </trkpt>
      <trkpt lat="41.64149" lon="-0.75706">
        <time>2022-07-29T08:19:34Z</time>
      </trkpt>
      <trkpt lat="41.64169" lon="-0.7574">
        <time>2022-07-29T08:19:35Z</time>
      </trkpt>
      <trkpt lat="41.6419" lon="-0.75773">
        <time>2022-07-29T08:19:36Z</time>
      </trkpt>
      <trkpt lat="41.64212" lon="-0.75805">
        <time>2022-07-29T08:19:37Z</time>
      </trkpt>
      <trkpt lat="41.64233" lon="-0.75837">
        <time>2022-07-29T08:19:38Z</time>
      </trkpt>
      <trkpt lat="41.64254" lon="-0.75869">
        <time>2022-07-29T08:19:39Z</time>
      </trkpt>
      <trkpt lat="41.64275" lon="-0.75901">
        <time>2022-07-29T08:19:40Z</time>
      </trkpt>
      <trkpt lat="41.64297" lon="-0.75932">
        <time>2022-07-29T08:19:41Z</time>
      </trkpt>
      <trkpt lat="41.64319" lon="-0.75963">
        <time>2022-07-29T08:19:42Z</time>
      </trkpt>
      <trkpt lat="41.64342" lon="-0.75993">
        <time>2022-07-29T08:19:43Z</time>
      </trkpt>
      <trkpt lat="41.64365" lon="-0.76024">
        <time>2022-07-29T08:19:44Z</time>
      </trkpt>
      <trkpt lat="41.64388" lon="-0.76054">
        <time>2022-07-29T08:19:45Z</time>
      </trkpt>
      <trkpt lat="41.64411" lon="-0.76084">
        <time>2022-07-29T08:19:46Z</time>
      </trkpt>
      <trkpt lat="41.64435" lon="-0.76113">
        <time>2022-07-29T08:19:47Z</time>
      </trkpt>
      <trkpt lat="41.64459" lon="-0.76142">
        <time>2022-07-29T08:19:48Z</time>
      </trkpt>
      <trkpt lat="41.64484" lon="-0.7617">
        <time>2022-07-29T08:19:49Z</time>
      </trkpt>
      <trkpt lat="41.64509" lon="-0.76199">
        <time>2022-07-29T08:19:50Z</time>
      </trkpt>
      <trkpt lat="41.64534" lon="-0.76227">
        <time>2022-07-29T08:19:51Z</time>
      </trkpt>
      <trkpt lat="41.64559" lon="-0.76255">
        <time>2022-07-29T08:19:52Z</time>
      </trkpt>
      <trkpt lat="41.64585" lon="-0.76282">
        <time>2022-07-29T08:19:53Z</time>
      </trkpt>
      <trkpt lat="41.64611" lon="-0.76309">
        <time>2022-07-29T08:19:54Z</time>
      </trkpt>
      <trkpt lat="41.64639" lon="-0.76336">
        <time>2022-07-29T08:19:55Z</time>
      </trkpt>
      <trkpt lat="41.64666" lon="-0.76362">
        <time>2022-07-29T08:19:56Z</time>
      </trkpt>
      <trkpt lat="41.64695" lon="-0.76387">
        <time>2022-07-29T08:19:57Z</time>
      </trkpt>
      <trkpt lat="41.64724" lon="-0.76412">
        <time>2022-07-29T08:19:58Z</time>
      </trkpt>
      <trkpt lat="41.64753" lon="-0.76437">
        <time>2022-07-29T08:19:59Z</time>
      </trkpt>
      <trkpt lat="41.64783" lon="-0.7646">
        <time>2022-07-29T08:20:00Z</time>
      </trkpt>
      <trkpt lat="41.64812" lon="-0.76484">
        <time>2022-07-29T08:20:01Z</time>
      </trkpt>
      <trkpt lat="41.64842" lon="-0.76507">
        <time>2022-07-29T08:20:02Z</time>
      </trkpt>
      <trkpt lat="41.64873" lon="-0.76529">
        <time>2022-07-29T08:20:03Z</time>
      </trkpt>
      <trkpt lat="41.64903" lon="-0.76551">
        <time>2022-07-29T08:20:04Z</time>
      </trkpt>
      <trkpt lat="41.64934" lon="-0.76573">
        <time>2022-07-29T08:20:05Z</time>
      </trkpt>
      <trkpt lat="41.64965" lon="-0.76594">
        <time>2022-07-29T08:20:06Z</time>
      </trkpt>
      <trkpt lat="41.64996" lon="-0.76615">
        <time>2022-07-29T08:20:07Z</time>
      </trkpt>
      <trkpt lat="41.65027" lon="-0.76635">
        <time>2022-07-29T08:20:08Z</time>
      </trkpt>
      <trkpt lat="41.65057" lon="-0.76656">
        <time>2022-07-29T08:20:09Z</time>
      </trkpt>
      <trkpt lat="41.65088" lon="-0.76677">
        <time>2022-07-29T08:20:10Z</time>
      </trkpt>
      <trkpt lat="41.65118" lon="-0.76698">
        <time>2022-07-29T08:20:11Z</time>
      </trkpt>
      <trkpt lat="41.65148" lon="-0.7672">
        <time>2022-07-29T08:20:12Z</time>
      </trkpt>
      <trkpt lat="41.65177" lon="-0.76743">
        <time>2022-07-29T08:20:13Z</time>
      </trkpt>
      <trkpt lat="41.65206" lon="-0.76768">
        <time>2022-07-29T08:20:14Z</time>
      </trkpt>
      <trkpt lat="41.65234" lon="-0.76793">
        <time>2022-07-29T08:20:15Z</time>
      </trkpt>
      <trkpt lat="41.65261" lon="-0.7682">
        <time>2022-07-29T08:20:16Z</time>
      </trkpt>
      <trkpt lat="41.65287" lon="-0.76849">
        <time>2022-07-29T08:20:17Z</time>
      </trkpt>
      <trkpt lat="41.65312" lon="-0.76878">
        <time>2022-07-29T08:20:18Z</time>
      </trkpt>
      <trkpt lat="41.65336" lon="-0.7691">
        <time>2022-07-29T08:20:19Z</time>
      </trkpt>
      <trkpt lat="41.65359" lon="-0.76942">
        <time>2022-07-29T08:20:20Z</time>
      </trkpt>
      <trkpt lat="41.65381" lon="-0.76975">
        <time>2022-07-29T08:20:21Z</time>
      </trkpt>
      <trkpt lat="41.65403" lon="-0.77008">
        <time>2022-07-29T08:20:22Z</time>
      </trkpt>
      <trkpt lat="41.65423" lon="-0.77042">
        <time>2022-07-29T08:20:23Z</time>
      </trkpt>
      <trkpt lat="41.65441" lon="-0.77075">
        <time>2022-07-29T08:20:24Z</time>
      </trkpt>
      <trkpt lat="41.65458" lon="-0.77109">
        <time>2022-07-29T08:20:25Z</time>
      </trkpt>
      <trkpt lat="41.65474" lon="-0.77142">
        <time>2022-07-29T08:20:26Z</time>
      </trkpt>
      <trkpt lat="41.65489" lon="-0.77175">
        <time>2022-07-29T08:20:27Z</time>
      </trkpt>
      <trkpt lat="41.65503" lon="-0.77207">
        <time>2022-07-29T08:20:28Z</time>
      </trkpt>
      <trkpt lat="41.65516" lon="-0.7724">
        <time>2022-07-29T08:20:29Z</time>
      </trkpt>
      <trkpt lat="41.65529" lon="-0.77273">
        <time>2022-07-29T08:20:30Z</time>
      </trkpt>
      <trkpt lat="41.65541" lon="-0.77306">
        <time>2022-07-29T08:20:31Z</time>
      </trkpt>
      <trkpt lat="41.65552" lon="-0.77338">
        <time>2022-07-29T08:20:32Z</time>
      </trkpt>
      <trkpt lat="41.65563" lon="-0.7737">
        <time>2022-07-29T08:20:33Z</time>
      </trkpt>
      <trkpt lat="41.65574" lon="-0.77401">
        <time>2022-07-29T08:20:34Z</time>
      </trkpt>
      <trkpt lat="41.65585" lon="-0.77432">
        <time>2022-07-29T08:20:35Z</time>
      </trkpt>
      <trkpt lat="41.65596" lon="-0.77463">
        <time>2022-07-29T08:20:36Z</time>
      </trkpt>
      <trkpt lat="41.65607" lon="-0.77493">
        <time>2022-07-29T08:20:37Z</time>
      </trkpt>
      <trkpt lat="41.65618" lon="-0.77523">
        <time>2022-07-29T08:20:38Z</time>
      </trkpt>
      <trkpt lat="41.65628" lon="-0.77553">
        <time>2022-07-29T08:20:39Z</time>
      </trkpt>
      <trkpt lat="41.65639" lon="-0.77582">
        <time>2022-07-29T08:20:40Z</time>
      </trkpt>
      <trkpt lat="41.65649" lon="-0.7761">
        <time>2022-07-29T08:20:41Z</time>
      </trkpt>
      <trkpt lat="41.65659" lon="-0.77638">
        <time>2022-07-29T08:20:42Z</time>
      </trkpt>
      <trkpt lat="41.65668" lon="-0.77665">
        <time>2022-07-29T08:20:43Z</time>
      </trkpt>
      <trkpt lat="41.65678" lon="-0.77692">
        <time>2022-07-29T08:20:44Z</time>
      </trkpt>
      <trkpt lat="41.65687" lon="-0.77719">
        <time>2022-07-29T08:20:45Z</time>
      </trkpt>
      <trkpt lat="41.65697" lon="-0.77746">
        <time>2022-07-29T08:20:46Z</time>
      </trkpt>
      <trkpt lat="41.65707" lon="-0.77773">
        <time>2022-07-29T08:20:47Z</time>
      </trkpt>
      <trkpt lat="41.65716" lon="-0.778">
        <time>2022-07-29T08:20:48Z</time>
      </trkpt>
      <trkpt lat="41.65726" lon="-0.77828">
        <time>2022-07-29T08:20:49Z</time>
      </trkpt>
      <trkpt lat="41.65736" lon="-0.77855">
        <time>2022-07-29T08:20:50Z</time>
      </trkpt>
      <trkpt lat="41.65746" lon="-0.77882">
        <time>2022-07-29T08:20:51Z</time>
      </trkpt>
      <trkpt lat="41.65755" lon="-0.77909">
        <time>2022-07-29T08:20:52Z</time>
      </trkpt>
      <trkpt lat="41.65765" lon="-0.77937">
        <time>2022-07-29T08:20:53Z</time>
      </trkpt>
      <trkpt lat="41.65774" lon="-0.77964">
        <time>2022-07-29T08:20:54Z</time>
      </trkpt>
      <trkpt lat="41.65784" lon="-0.77991">
        <time>2022-07-29T08:20:55Z</time>
      </trkpt>
      <trkpt lat="41.65794" lon="-0.78019">
        <time>2022-07-29T08:20:56Z</time>
      </trkpt>
      <trkpt lat="41.65804" lon="-0.78046">
        <time>2022-07-29T08:20:57Z</time>
      </trkpt>
      <trkpt lat="41.65814" lon="-0.78075">
        <time>2022-07-29T08:20:58Z</time>
      </trkpt>
      <trkpt lat="41.65825" lon="-0.78104">
        <time>2022-07-29T08:20:59Z</time>
      </trkpt>
      <trkpt lat="41.65836" lon="-0.78133">
        <time>2022-07-29T08:21:00Z</time>
      </trkpt>
      <trkpt lat="41.65846" lon="-0.78164">
        <time>2022-07-29T08:21:01Z</time>
      </trkpt>
      <trkpt lat="41.65858" lon="-0.78194">
        <time>2022-07-29T08:21:02Z</time>
      </trkpt>
      <trkpt lat="41.65869" lon="-0.78225">
        <time>2022-07-29T08:21:03Z</time>
      </trkpt>
      <trkpt lat="41.6588" lon="-0.78256">
        <time>2022-07-29T08:21:04Z</time>
      </trkpt>
      <trkpt lat="41.65891" lon="-0.78289">
        <time>2022-07-29T08:21:05Z</time>
      </trkpt>
      <trkpt lat="41.65902" lon="-0.78321">
        <time>2022-07-29T08:21:06Z</time>
      </trkpt>
      <trkpt lat="41.65914" lon="-0.78354">
        <time>2022-07-29T08:21:07Z</time>
      </trkpt>
      <trkpt lat="41.65925" lon="-0.78387">
        <time>2022-07-29T08:21:08Z</time>
      </trkpt>
      <trkpt lat="41.65937" lon="-0.78421">
        <time>2022-07-29T08:21:09Z</time>
      </trkpt>
      <trkpt lat="41.65949" lon="-0.78455">
        <time>2022-07-29T08:21:10Z</time>
      </trkpt>
      <trkpt lat="41.65961" lon="-0.7849">
        <time>2022-07-29T08:21:11Z</time>
      </trkpt>
      <trkpt lat="41.65973" lon="-0.78525">
        <time>2022-07-29T08:21:12Z</time>
      </trkpt>
      <trkpt lat="41.65986" lon="-0.78562">
        <time>2022-07-29T08:21:13Z</time>
      </trkpt>
      <trkpt lat="41.66" lon="-0.78601">
        <time>2022-07-29T08:21:14Z</time>
      </trkpt>
      <trkpt lat="41.66015" lon="-0.78641">
        <time>2022-07-29T08:21:15Z</time>
      </trkpt>
      <trkpt lat="41.66029" lon="-0.78683">
        <time>2022-07-29T08:21:16Z</time>
      </trkpt>
      <trkpt lat="41.66044" lon="-0.78726">
        <time>2022-07-29T08:21:17Z</time>
      </trkpt>
      <trkpt lat="41.66059" lon="-0.7877">
        <time>2022-07-29T08:21:18Z</time>
      </trkpt>
      <trkpt lat="41.66075" lon="-0.78814">
        <time>2022-07-29T08:21:19Z</time>
      </trkpt>
      <trkpt lat="41.6609" lon="-0.78859">
        <time>2022-07-29T08:21:20Z</time>
      </trkpt>
      <trkpt lat="41.66106" lon="-0.78904">
        <time>2022-07-29T08:21:21Z</time>
      </trkpt>
      <trkpt lat="41.66122" lon="-0.78949">
        <time>2022-07-29T08:21:22Z</time>
      </trkpt>
      <trkpt lat="41.66138" lon="-0.78993">
        <time>2022-07-29T08:21:23Z</time>
      </trkpt>
      <trkpt lat="41.66154" lon="-0.79038">
        <time>2022-07-29T08:21:24Z</time>
      </trkpt>
      <trkpt lat="41.6617" lon="-0.79084">
        <time>2022-07-29T08:21:25Z</time>
      </trkpt>
      <trkpt lat="41.66186" lon="-0.79128">
        <time>2022-07-29T08:21:26Z</time>
      </trkpt>
      <trkpt lat="41.66201" lon="-0.79174">
        <time>2022-07-29T08:21:27Z</time>
      </trkpt>
      <trkpt lat="41.66217" lon="-0.79218">
        <time>2022-07-29T08:21:28Z</time>
      </trkpt>
      <trkpt lat="41.66233" lon="-0.79263">
        <time>2022-07-29T08:21:29Z</time>
      </trkpt>
      <trkpt lat="41.66248" lon="-0.79308">
        <time>2022-07-29T08:21:30Z</time>
      </trkpt>
      <trkpt lat="41.66263" lon="-0.79353">
        <time>2022-07-29T08:21:31Z</time>
      </trkpt>
      <trkpt lat="41.66277" lon="-0.79398">
        <time>2022-07-29T08:21:32Z</time>
      </trkpt>
      <trkpt lat="41.66291" lon="-0.79443">
        <time>2022-07-29T08:21:33Z</time>
      </trkpt>
      <trkpt lat="41.66305" lon="-0.79487">
        <time>2022-07-29T08:21:34Z</time>
      </trkpt>
      <trkpt lat="41.66318" lon="-0.79532">
        <time>2022-07-29T08:21:35Z</time>
      </trkpt>
      <trkpt lat="41.6633" lon="-0.79577">
        <time>2022-07-29T08:21:36Z</time>
      </trkpt>
      <trkpt lat="41.66342" lon="-0.79623">
        <time>2022-07-29T08:21:37Z</time>
      </trkpt>
      <trkpt lat="41.66354" lon="-0.79669">
        <time>2022-07-29T08:21:38Z</time>
      </trkpt>
      <trkpt lat="41.66365" lon="-0.79714">
        <time>2022-07-29T08:21:39Z</time>
      </trkpt>
      <trkpt lat="41.66376" lon="-0.7976">
        <time>2022-07-29T08:21:40Z</time>
      </trkpt>
      <trkpt lat="41.66386" lon="-0.79806">
        <time>2022-07-29T08:21:41Z</time>
      </trkpt>
      <trkpt lat="41.66397" lon="-0.79852">
        <time>2022-07-29T08:21:42Z</time>
      </trkpt>
      <trkpt lat="41.66407" lon="-0.79897">
        <time>2022-07-29T08:21:43Z</time>
      </trkpt>
      <trkpt lat="41.66417" lon="-0.79943">
        <time>2022-07-29T08:21:44Z</time>
      </trkpt>
      <trkpt lat="41.66426" lon="-0.79988">
        <time>2022-07-29T08:21:45Z</time>
      </trkpt>
      <trkpt lat="41.66435" lon="-0.80034">
        <time>2022-07-29T08:21:46Z</time>
      </trkpt>
      <trkpt lat="41.66442" lon="-0.80079">
        <time>2022-07-29T08:21:47Z</time>
      </trkpt>
      <trkpt lat="41.66449" lon="-0.80125">
        <time>2022-07-29T08:21:48Z</time>
      </trkpt>
      <trkpt lat="41.66457" lon="-0.8017">
        <time>2022-07-29T08:21:49Z</time>
      </trkpt>
      <trkpt lat="41.66465" lon="-0.80215">
        <time>2022-07-29T08:21:50Z</time>
      </trkpt>
      <trkpt lat="41.66472" lon="-0.80259">
        <time>2022-07-29T08:21:51Z</time>
      </trkpt>
      <trkpt lat="41.66479" lon="-0.80303">
        <time>2022-07-29T08:21:52Z</time>
      </trkpt>
      <trkpt lat="41.66487" lon="-0.80347">
        <time>2022-07-29T08:21:53Z</time>
      </trkpt>
      <trkpt lat="41.66494" lon="-0.8039">
        <time>2022-07-29T08:21:54Z</time>
      </trkpt>
      <trkpt lat="41.66503" lon="-0.80434">
        <time>2022-07-29T08:21:55Z</time>
      </trkpt>
      <trkpt lat="41.66512" lon="-0.80477">
        <time>2022-07-29T08:21:56Z</time>
      </trkpt>
      <trkpt lat="41.66521" lon="-0.8052">
        <time>2022-07-29T08:21:57Z</time>
      </trkpt>
      <trkpt lat="41.66531" lon="-0.80563">
        <time>2022-07-29T08:21:58Z</time>
      </trkpt>
      <trkpt lat="41.66541" lon="-0.80605">
        <time>2022-07-29T08:21:59Z</time>
      </trkpt>
      <trkpt lat="41.66553" lon="-0.80647">
        <time>2022-07-29T08:22:00Z</time>
      </trkpt>
      <trkpt lat="41.66565" lon="-0.80688">
        <time>2022-07-29T08:22:01Z</time>
      </trkpt>
      <trkpt lat="41.66577" lon="-0.80729">
        <time>2022-07-29T08:22:02Z</time>
      </trkpt>
      <trkpt lat="41.6659" lon="-0.80769">
        <time>2022-07-29T08:22:03Z</time>
      </trkpt>
      <trkpt lat="41.66603" lon="-0.80809">
        <time>2022-07-29T08:22:04Z</time>
      </trkpt>
      <trkpt lat="41.66616" lon="-0.80849">
        <time>2022-07-29T08:22:05Z</time>
      </trkpt>
      <trkpt lat="41.66629" lon="-0.80888">
        <time>2022-07-29T08:22:06Z</time>
      </trkpt>
      <trkpt lat="41.66642" lon="-0.80926">
        <time>2022-07-29T08:22:07Z</time>
      </trkpt>
      <trkpt lat="41.66654" lon="-0.80965">
        <time>2022-07-29T08:22:08Z</time>
      </trkpt>
      <trkpt lat="41.66666" lon="-0.81004">
        <time>2022-07-29T08:22:09Z</time>
      </trkpt>
      <trkpt lat="41.66678" lon="-0.81042">
        <time>2022-07-29T08:22:10Z</time>
      </trkpt>
      <trkpt lat="41.6669" lon="-0.8108">
        <time>2022-07-29T08:22:11Z</time>
      </trkpt>
      <trkpt lat="41.66702" lon="-0.81119">
        <time>2022-07-29T08:22:12Z</time>
      </trkpt>
      <trkpt lat="41.66715" lon="-0.81158">
        <time>2022-07-29T08:22:13Z</time>
      </trkpt>
      <trkpt lat="41.66727" lon="-0.81198">
        <time>2022-07-29T08:22:14Z</time>
      </trkpt>
      <trkpt lat="41.6674" lon="-0.81237">
        <time>2022-07-29T08:22:15Z</time>
      </trkpt>
      <trkpt lat="41.66753" lon="-0.81277">
        <time>2022-07-29T08:22:16Z</time>
      </trkpt>
      <trkpt lat="41.66765" lon="-0.81315">
        <time>2022-07-29T08:22:17Z</time>
      </trkpt>
      <trkpt lat="41.66778" lon="-0.81354">
        <time>2022-07-29T08:22:18Z</time>
      </trkpt>
      <trkpt lat="41.66791" lon="-0.81392">
        <time>2022-07-29T08:22:19Z</time>
      </trkpt>
      <trkpt lat="41.66805" lon="-0.81431">
        <time>2022-07-29T08:22:20Z</time>
      </trkpt>
      <trkpt lat="41.6682" lon="-0.81468">
        <time>2022-07-29T08:22:21Z</time>
      </trkpt>
      <trkpt lat="41.66835" lon="-0.81505">
        <time>2022-07-29T08:22:22Z</time>
      </trkpt>
      <trkpt lat="41.66851" lon="-0.81541">
        <time>2022-07-29T08:22:23Z</time>
      </trkpt>
      <trkpt lat="41.66868" lon="-0.81576">
        <time>2022-07-29T08:22:24Z</time>
      </trkpt>
      <trkpt lat="41.66887" lon="-0.8161">
        <time>2022-07-29T08:22:25Z</time>
      </trkpt>
      <trkpt lat="41.66906" lon="-0.81644">
        <time>2022-07-29T08:22:26Z</time>
      </trkpt>
      <trkpt lat="41.66926" lon="-0.81676">
        <time>2022-07-29T08:22:27Z</time>
      </trkpt>
      <trkpt lat="41.66947" lon="-0.81708">
        <time>2022-07-29T08:22:28Z</time>
      </trkpt>
      <trkpt lat="41.66968" lon="-0.81738">
        <time>2022-07-29T08:22:29Z</time>
      </trkpt>
      <trkpt lat="41.66988" lon="-0.81767">
        <time>2022-07-29T08:22:30Z</time>
      </trkpt>
      <trkpt lat="41.67008" lon="-0.81796">
        <time>2022-07-29T08:22:31Z</time>
      </trkpt>
      <trkpt lat="41.67028" lon="-0.81824">
        <time>2022-07-29T08:22:32Z</time>
      </trkpt>
      <trkpt lat="41.67048" lon="-0.81851">
        <time>2022-07-29T08:22:33Z</time>
      </trkpt>
      <trkpt lat="41.67067" lon="-0.81879">
        <time>2022-07-29T08:22:34Z</time>
      </trkpt>
      <trkpt lat="41.67086" lon="-0.81907">
        <time>2022-07-29T08:22:35Z</time>
      </trkpt>
      <trkpt lat="41.67104" lon="-0.81934">
        <time>2022-07-29T08:22:36Z</time>
      </trkpt>
      <trkpt lat="41.67122" lon="-0.81962">
        <time>2022-07-29T08:22:37Z</time>
      </trkpt>
      <trkpt lat="41.6714" lon="-0.81991">
        <time>2022-07-29T08:22:38Z</time>
      </trkpt>
      <trkpt lat="41.67158" lon="-0.8202">
        <time>2022-07-29T08:22:39Z</time>
      </trkpt>
      <trkpt lat="41.67175" lon="-0.82049">
        <time>2022-07-29T08:22:40Z</time>
      </trkpt>
      <trkpt lat="41.67193" lon="-0.82079">
        <time>2022-07-29T08:22:41Z</time>
      </trkpt>
      <trkpt lat="41.6721" lon="-0.8211">
        <time>2022-07-29T08:22:42Z</time>
      </trkpt>
      <trkpt lat="41.67226" lon="-0.82141">
        <time>2022-07-29T08:22:43Z</time>
      </trkpt>
      <trkpt lat="41.67242" lon="-0.82172">
        <time>2022-07-29T08:22:44Z</time>
      </trkpt>
      <trkpt lat="41.67258" lon="-0.82202">
        <time>2022-07-29T08:22:45Z</time>
      </trkpt>
      <trkpt lat="41.67273" lon="-0.82231">
        <time>2022-07-29T08:22:46Z</time>
      </trkpt>
      <trkpt lat="41.67288" lon="-0.82261">
        <time>2022-07-29T08:22:47Z</time>
      </trkpt>
      <trkpt lat="41.67302" lon="-0.82292">
        <time>2022-07-29T08:22:48Z</time>
      </trkpt>
      <trkpt lat="41.67317" lon="-0.82323">
        <time>2022-07-29T08:22:49Z</time>
      </trkpt>
      <trkpt lat="41.6733" lon="-0.82355">
        <time>2022-07-29T08:22:50Z</time>
      </trkpt>
      <trkpt lat="41.67343" lon="-0.82387">
        <time>2022-07-29T08:22:51Z</time>
      </trkpt>
      <trkpt lat="41.67356" lon="-0.82419">
        <time>2022-07-29T08:22:52Z</time>
      </trkpt>
      <trkpt lat="41.67369" lon="-0.82451">
        <time>2022-07-29T08:22:53Z</time>
      </trkpt>
      <trkpt lat="41.67382" lon="-0.82484">
        <time>2022-07-29T08:22:54Z</time>
      </trkpt>
      <trkpt lat="41.67394" lon="-0.82518">
        <time>2022-07-29T08:22:55Z</time>
      </trkpt>
      <trkpt lat="41.67406" lon="-0.82552">
        <time>2022-07-29T08:22:56Z</time>
      </trkpt>
      <trkpt lat="41.67417" lon="-0.82587">
        <time>2022-07-29T08:22:57Z</time>
      </trkpt>
      <trkpt lat="41.67427" lon="-0.82621">
        <time>2022-07-29T08:22:58Z</time>
      </trkpt>
      <trkpt lat="41.67438" lon="-0.82656">
        <time>2022-07-29T08:22:59Z</time>
      </trkpt>
      <trkpt lat="41.67448" lon="-0.82692">
        <time>2022-07-29T08:23:00Z</time>
      </trkpt>
      <trkpt lat="41.67458" lon="-0.82727">
        <time>2022-07-29T08:23:01Z</time>
      </trkpt>
      <trkpt lat="41.67468" lon="-0.82763">
        <time>2022-07-29T08:23:02Z</time>
      </trkpt>
      <trkpt lat="41.67477" lon="-0.828">
        <time>2022-07-29T08:23:03Z</time>
      </trkpt>
      <trkpt lat="41.67485" lon="-0.82836">
        <time>2022-07-29T08:23:04Z</time>
      </trkpt>
      <trkpt lat="41.67493" lon="-0.82872">
        <time>2022-07-29T08:23:05Z</time>
      </trkpt>
      <trkpt lat="41.67499" lon="-0.82908">
        <time>2022-07-29T08:23:06Z</time>
      </trkpt>
      <trkpt lat="41.67506" lon="-0.82944">
        <time>2022-07-29T08:23:07Z</time>
      </trkpt>
      <trkpt lat="41.67513" lon="-0.82979">
        <time>2022-07-29T08:23:08Z</time>
      </trkpt>
      <trkpt lat="41.67519" lon="-0.83015">
        <time>2022-07-29T08:23:09Z</time>
      </trkpt>
      <trkpt lat="41.67525" lon="-0.8305">
        <time>2022-07-29T08:23:10Z</time>
      </trkpt>
      <trkpt lat="41.6753" lon="-0.83083">
        <time>2022-07-29T08:23:11Z</time>
      </trkpt>
      <trkpt lat="41.67535" lon="-0.83113">
        <time>2022-07-29T08:23:12Z</time>
      </trkpt>
      <trkpt lat="41.6754" lon="-0.8314">
        <time>2022-07-29T08:23:13Z</time>
      </trkpt>
      <trkpt lat="41.67544" lon="-0.83164">
        <time>2022-07-29T08:23:14Z</time>
      </trkpt>
      <trkpt lat="41.67548" lon="-0.83187">
        <time>2022-07-29T08:23:15Z</time>
      </trkpt>
      <trkpt lat="41.67553" lon="-0.83209">
        <time>2022-07-29T08:23:16Z</time>
      </trkpt>
      <trkpt lat="41.67559" lon="-0.8323">
        <time>2022-07-29T08:23:17Z</time>
      </trkpt>
      <trkpt lat="41.6757" lon="-0.83249">
        <time>2022-07-29T08:23:18Z</time>
      </trkpt>
      <trkpt lat="41.67582" lon="-0.83269">
        <time>2022-07-29T08:23:19Z</time>
      </trkpt>
      <trkpt lat="41.67597" lon="-0.83287">
        <time>2022-07-29T08:23:20Z</time>
      </trkpt>
      <trkpt lat="41.67614" lon="-0.83304">
        <time>2022-07-29T08:23:21Z</time>
      </trkpt>
      <trkpt lat="41.67632" lon="-0.83319">
        <time>2022-07-29T08:23:22Z</time>
      </trkpt>
      <trkpt lat="41.6765" lon="-0.83335">
        <time>2022-07-29T08:23:23Z</time>
      </trkpt>
      <trkpt lat="41.67668" lon="-0.83352">
        <time>2022-07-29T08:23:24Z</time>
      </trkpt>
      <trkpt lat="41.67686" lon="-0.83368">
        <time>2022-07-29T08:23:25Z</time>
      </trkpt>
      <trkpt lat="41.67704" lon="-0.83383">
        <time>2022-07-29T08:23:26Z</time>
      </trkpt>
      <trkpt lat="41.67721" lon="-0.83396">
        <time>2022-07-29T08:23:27Z</time>
      </trkpt>
      <trkpt lat="41.67737" lon="-0.83408">
        <time>2022-07-29T08:23:28Z</time>
      </trkpt>
      <trkpt lat="41.67753" lon="-0.83417">
        <time>2022-07-29T08:23:29Z</time>
      </trkpt>
      <trkpt lat="41.67769" lon="-0.83425">
        <time>2022-07-29T08:23:30Z</time>
      </trkpt>
      <trkpt lat="41.67784" lon="-0.8343">
        <time>2022-07-29T08:23:31Z</time>
      </trkpt>
      <trkpt lat="41.67796" lon="-0.83433">
        <time>2022-07-29T08:23:32Z</time>
      </trkpt>
      <trkpt lat="41.67807" lon="-0.83435">
        <time>2022-07-29T08:23:33Z</time>
      </trkpt>
      <trkpt lat="41.67819" lon="-0.83436">
        <time>2022-07-29T08:23:34Z</time>
      </trkpt>
      <trkpt lat="41.67832" lon="-0.83437">
        <time>2022-07-29T08:23:35Z</time>
      </trkpt>
      <trkpt lat="41.67849" lon="-0.83437">
        <time>2022-07-29T08:23:36Z</time>
      </trkpt>
      <trkpt lat="41.67868" lon="-0.83434">
        <time>2022-07-29T08:23:37Z</time>
      </trkpt>
      <trkpt lat="41.6789" lon="-0.83431">
        <time>2022-07-29T08:23:38Z</time>
      </trkpt>
      <trkpt lat="41.67912" lon="-0.83428">
        <time>2022-07-29T08:23:39Z</time>
      </trkpt>
      <trkpt lat="41.67936" lon="-0.83424">
        <time>2022-07-29T08:23:40Z</time>
      </trkpt>
      <trkpt lat="41.67962" lon="-0.8342">
        <time>2022-07-29T08:23:41Z</time>
      </trkpt>
      <trkpt lat="41.67988" lon="-0.83415">
        <time>2022-07-29T08:23:42Z</time>
      </trkpt>
      <trkpt lat="41.68014" lon="-0.8341">
        <time>2022-07-29T08:23:43Z</time>
      </trkpt>
      <trkpt lat="41.68039" lon="-0.83405">
        <time>2022-07-29T08:23:44Z</time>
      </trkpt>
      <trkpt lat="41.68064" lon="-0.83399">
        <time>2022-07-29T08:23:45Z</time>
      </trkpt>
      <trkpt lat="41.68087" lon="-0.83394">
        <time>2022-07-29T08:23:46Z</time>
      </trkpt>
      <trkpt lat="41.68111" lon="-0.83388">
        <time>2022-07-29T08:23:47Z</time>
      </trkpt>
      <trkpt lat="41.68134" lon="-0.83381">
        <time>2022-07-29T08:23:48Z</time>
      </trkpt>
      <trkpt lat="41.68159" lon="-0.83374">
        <time>2022-07-29T08:23:49Z</time>
      </trkpt>
      <trkpt lat="41.68186" lon="-0.83367">
        <time>2022-07-29T08:23:50Z</time>
      </trkpt>
      <trkpt lat="41.68214" lon="-0.8336">
        <time>2022-07-29T08:23:51Z</time>
      </trkpt>
      <trkpt lat="41.68244" lon="-0.83352">
        <time>2022-07-29T08:23:52Z</time>
      </trkpt>
      <trkpt lat="41.68274" lon="-0.83341">
        <time>2022-07-29T08:23:53Z</time>
      </trkpt>
      <trkpt lat="41.68305" lon="-0.8333">
        <time>2022-07-29T08:23:54Z</time>
      </trkpt>
      <trkpt lat="41.68334" lon="-0.83319">
        <time>2022-07-29T08:23:55Z</time>
      </trkpt>
      <trkpt lat="41.68364" lon="-0.83309">
        <time>2022-07-29T08:23:56Z</time>
      </trkpt>
      <trkpt lat="41.68395" lon="-0.833">
        <time>2022-07-29T08:23:57Z</time>
      </trkpt>
      <trkpt lat="41.68426" lon="-0.83291">
        <time>2022-07-29T08:23:58Z</time>
      </trkpt>
      <trkpt lat="41.68457" lon="-0.83282">
        <time>2022-07-29T08:23:59Z</time>
      </trkpt>
      <trkpt lat="41.68488" lon="-0.83275">
        <time>2022-07-29T08:24:00Z</time>
      </trkpt>
      <trkpt lat="41.68518" lon="-0.83268">
        <time>2022-07-29T08:24:01Z</time>
      </trkpt>
      <trkpt lat="41.68548" lon="-0.83264">
        <time>2022-07-29T08:24:02Z</time>
      </trkpt>
      <trkpt lat="41.68578" lon="-0.8326">
        <time>2022-07-29T08:24:03Z</time>
      </trkpt>
      <trkpt lat="41.68608" lon="-0.83257">
        <time>2022-07-29T08:24:04Z</time>
      </trkpt>
      <trkpt lat="41.68638" lon="-0.83255">
        <time>2022-07-29T08:24:05Z</time>
      </trkpt>
      <trkpt lat="41.68668" lon="-0.83254">
        <time>2022-07-29T08:24:06Z</time>
      </trkpt>
      <trkpt lat="41.68699" lon="-0.83254">
        <time>2022-07-29T08:24:07Z</time>
      </trkpt>
      <trkpt lat="41.68729" lon="-0.83255">
        <time>2022-07-29T08:24:08Z</time>
      </trkpt>
      <trkpt lat="41.6876" lon="-0.83257">
        <time>2022-07-29T08:24:09Z</time>
      </trkpt>
      <trkpt lat="41.68791" lon="-0.8326">
        <time>2022-07-29T08:24:10Z</time>
      </trkpt>
      <trkpt lat="41.68822" lon="-0.83265">
        <time>2022-07-29T08:24:11Z</time>
      </trkpt>
      <trkpt lat="41.68854" lon="-0.83271">
        <time>2022-07-29T08:24:12Z</time>
      </trkpt>
      <trkpt lat="41.68885" lon="-0.83277">
        <time>2022-07-29T08:24:13Z</time>
      </trkpt>
      <trkpt lat="41.68917" lon="-0.83285">
        <time>2022-07-29T08:24:14Z</time>
      </trkpt>
      <trkpt lat="41.68948" lon="-0.83295">
        <time>2022-07-29T08:24:15Z</time>
      </trkpt>
      <trkpt lat="41.68979" lon="-0.83306">
        <time>2022-07-29T08:24:16Z</time>
      </trkpt>
      <trkpt lat="41.6901" lon="-0.83318">
        <time>2022-07-29T08:24:17Z</time>
      </trkpt>
      <trkpt lat="41.69041" lon="-0.83331">
        <time>2022-07-29T08:24:18Z</time>
      </trkpt>
      <trkpt lat="41.69071" lon="-0.83346">
        <time>2022-07-29T08:24:19Z</time>
      </trkpt>
      <trkpt lat="41.69102" lon="-0.83361">
        <time>2022-07-29T08:24:20Z</time>
      </trkpt>
      <trkpt lat="41.69132" lon="-0.83378">
        <time>2022-07-29T08:24:21Z</time>
      </trkpt>
      <trkpt lat="41.69163" lon="-0.83396">
        <time>2022-07-29T08:24:22Z</time>
      </trkpt>
      <trkpt lat="41.69192" lon="-0.83415">
        <time>2022-07-29T08:24:23Z</time>
      </trkpt>
      <trkpt lat="41.69222" lon="-0.83435">
        <time>2022-07-29T08:24:24Z</time>
      </trkpt>
      <trkpt lat="41.69251" lon="-0.83456">
        <time>2022-07-29T08:24:25Z</time>
      </trkpt>
      <trkpt lat="41.69279" lon="-0.83478">
        <time>2022-07-29T08:24:26Z</time>
      </trkpt>
      <trkpt lat="41.69308" lon="-0.835">
        <time>2022-07-29T08:24:27Z</time>
      </trkpt>
      <trkpt lat="41.69337" lon="-0.83522">
        <time>2022-07-29T08:24:28Z</time>
      </trkpt>
      <trkpt lat="41.69366" lon="-0.83545">
        <time>2022-07-29T08:24:29Z</time>
      </trkpt>
      <trkpt lat="41.69395" lon="-0.83567">
        <time>2022-07-29T08:24:30Z</time>
      </trkpt>
      <trkpt lat="41.69424" lon="-0.83589">
        <time>2022-07-29T08:24:31Z</time>
      </trkpt>
      <trkpt lat="41.69453" lon="-0.83611">
        <time>2022-07-29T08:24:32Z</time>
      </trkpt>
      <trkpt lat="41.69482" lon="-0.83633">
        <time>2022-07-29T08:24:33Z</time>
      </trkpt>
      <trkpt lat="41.69511" lon="-0.83653">
        <time>2022-07-29T08:24:34Z</time>
      </trkpt>
      <trkpt lat="41.69541" lon="-0.83673">
        <time>2022-07-29T08:24:35Z</time>
      </trkpt>
      <trkpt lat="41.69571" lon="-0.83692">
        <time>2022-07-29T08:24:36Z</time>
      </trkpt>
      <trkpt lat="41.69602" lon="-0.8371">
        <time>2022-07-29T08:24:37Z</time>
      </trkpt>
      <trkpt lat="41.69632" lon="-0.83726">
        <time>2022-07-29T08:24:38Z</time>
      </trkpt>
      <trkpt lat="41.69664" lon="-0.8374">
        <time>2022-07-29T08:24:39Z</time>
      </trkpt>
      <trkpt lat="41.69696" lon="-0.83754">
        <time>2022-07-29T08:24:40Z</time>
      </trkpt>
      <trkpt lat="41.69728" lon="-0.83766">
        <time>2022-07-29T08:24:41Z</time>
      </trkpt>
      <trkpt lat="41.6976" lon="-0.83778">
        <time>2022-07-29T08:24:42Z</time>
      </trkpt>
      <trkpt lat="41.69793" lon="-0.83787">
        <time>2022-07-29T08:24:43Z</time>
      </trkpt>
      <trkpt lat="41.69827" lon="-0.83797">
        <time>2022-07-29T08:24:44Z</time>
      </trkpt>
      <trkpt lat="41.6986" lon="-0.83805">
        <time>2022-07-29T08:24:45Z</time>
      </trkpt>
      <trkpt lat="41.69894" lon="-0.83813">
        <time>2022-07-29T08:24:46Z</time>
      </trkpt>
      <trkpt lat="41.69928" lon="-0.83819">
        <time>2022-07-29T08:24:47Z</time>
      </trkpt>
      <trkpt lat="41.69961" lon="-0.83825">
        <time>2022-07-29T08:24:48Z</time>
      </trkpt>
      <trkpt lat="41.69995" lon="-0.83831">
        <time>2022-07-29T08:24:49Z</time>
      </trkpt>
      <trkpt lat="41.70029" lon="-0.83838">
        <time>2022-07-29T08:24:50Z</time>
      </trkpt>
      <trkpt lat="41.70063" lon="-0.83844">
        <time>2022-07-29T08:24:51Z</time>
      </trkpt>
      <trkpt lat="41.70096" lon="-0.83852">
        <time>2022-07-29T08:24:52Z</time>
      </trkpt>
      <trkpt lat="41.70129" lon="-0.8386">
        <time>2022-07-29T08:24:53Z</time>
      </trkpt>
      <trkpt lat="41.70162" lon="-0.83868">
        <time>2022-07-29T08:24:54Z</time>
      </trkpt>
      <trkpt lat="41.70194" lon="-0.83879">
        <time>2022-07-29T08:24:55Z</time>
      </trkpt>
      <trkpt lat="41.70225" lon="-0.8389">
        <time>2022-07-29T08:24:56Z</time>
      </trkpt>
      <trkpt lat="41.70257" lon="-0.83903">
        <time>2022-07-29T08:24:57Z</time>
      </trkpt>
      <trkpt lat="41.70288" lon="-0.83918">
        <time>2022-07-29T08:24:58Z</time>
      </trkpt>
      <trkpt lat="41.70318" lon="-0.83934">
        <time>2022-07-29T08:24:59Z</time>
      </trkpt>
      <trkpt lat="41.70348" lon="-0.83951">
        <time>2022-07-29T08:25:00Z</time>
      </trkpt>
      <trkpt lat="41.70378" lon="-0.8397">
        <time>2022-07-29T08:25:01Z</time>
      </trkpt>
      <trkpt lat="41.70407" lon="-0.83991">
        <time>2022-07-29T08:25:02Z</time>
      </trkpt>
      <trkpt lat="41.70436" lon="-0.84012">
        <time>2022-07-29T08:25:03Z</time>
      </trkpt>
      <trkpt lat="41.70464" lon="-0.84035">
        <time>2022-07-29T08:25:04Z</time>
      </trkpt>
      <trkpt lat="41.70492" lon="-0.84059">
        <time>2022-07-29T08:25:05Z</time>
      </trkpt>
      <trkpt lat="41.70519" lon="-0.84085">
        <time>2022-07-29T08:25:06Z</time>
      </trkpt>
      <trkpt lat="41.70545" lon="-0.84112">
        <time>2022-07-29T08:25:07Z</time>
      </trkpt>
      <trkpt lat="41.70571" lon="-0.8414">
        <time>2022-07-29T08:25:08Z</time>
      </trkpt>
      <trkpt lat="41.70595" lon="-0.8417">
        <time>2022-07-29T08:25:09Z</time>
      </trkpt>
      <trkpt lat="41.70619" lon="-0.84201">
        <time>2022-07-29T08:25:10Z</time>
      </trkpt>
      <trkpt lat="41.70642" lon="-0.84232">
        <time>2022-07-29T08:25:11Z</time>
      </trkpt>
      <trkpt lat="41.70665" lon="-0.84265">
        <time>2022-07-29T08:25:12Z</time>
      </trkpt>
      <trkpt lat="41.70687" lon="-0.84298">
        <time>2022-07-29T08:25:13Z</time>
      </trkpt>
      <trkpt lat="41.70709" lon="-0.84331">
        <time>2022-07-29T08:25:14Z</time>
      </trkpt>
      <trkpt lat="41.7073" lon="-0.84364">
        <time>2022-07-29T08:25:15Z</time>
      </trkpt>
      <trkpt lat="41.70751" lon="-0.84398">
        <time>2022-07-29T08:25:16Z</time>
      </trkpt>
      <trkpt lat="41.70772" lon="-0.84432">
        <time>2022-07-29T08:25:17Z</time>
      </trkpt>
      <trkpt lat="41.70794" lon="-0.84467">
        <time>2022-07-29T08:25:18Z</time>
      </trkpt>
      <trkpt lat="41.70815" lon="-0.84501">
        <time>2022-07-29T08:25:19Z</time>
      </trkpt>
      <trkpt lat="41.70836" lon="-0.84534">
        <time>2022-07-29T08:25:20Z</time>
      </trkpt>
      <trkpt lat="41.70857" lon="-0.84567">
        <time>2022-07-29T08:25:21Z</time>
      </trkpt>
      <trkpt lat="41.7088" lon="-0.846">
        <time>2022-07-29T08:25:22Z</time>
      </trkpt>
      <trkpt lat="41.70902" lon="-0.84633">
        <time>2022-07-29T08:25:23Z</time>
      </trkpt>
      <trkpt lat="41.70926" lon="-0.84664">
        <time>2022-07-29T08:25:24Z</time>
      </trkpt>
      <trkpt lat="41.7095" lon="-0.84695">
        <time>2022-07-29T08:25:25Z</time>
      </trkpt>
      <trkpt lat="41.70975" lon="-0.84724">
        <time>2022-07-29T08:25:26Z</time>
      </trkpt>
      <trkpt lat="41.71001" lon="-0.84752">
        <time>2022-07-29T08:25:27Z</time>
      </trkpt>
      <trkpt lat="41.71028" lon="-0.84778">
        <time>2022-07-29T08:25:28Z</time>
      </trkpt>
      <trkpt lat="41.71055" lon="-0.84804">
        <time>2022-07-29T08:25:29Z</time>
      </trkpt>
      <trkpt lat="41.71083" lon="-0.84828">
        <time>2022-07-29T08:25:30Z</time>
      </trkpt>
      <trkpt lat="41.71111" lon="-0.8485">
        <time>2022-07-29T08:25:31Z</time>
      </trkpt>
      <trkpt lat="41.71141" lon="-0.84869">
        <time>2022-07-29T08:25:32Z</time>
      </trkpt>
      <trkpt lat="41.71172" lon="-0.84887">
        <time>2022-07-29T08:25:33Z</time>
      </trkpt>
      <trkpt lat="41.71203" lon="-0.84904">
        <time>2022-07-29T08:25:34Z</time>
      </trkpt>
      <trkpt lat="41.71235" lon="-0.84918">
        <time>2022-07-29T08:25:35Z</time>
      </trkpt>
      <trkpt lat="41.71267" lon="-0.8493">
        <time>2022-07-29T08:25:36Z</time>
      </trkpt>
      <trkpt lat="41.713" lon="-0.84941">
        <time>2022-07-29T08:25:37Z</time>
      </trkpt>
      <trkpt lat="41.71333" lon="-0.8495">
        <time>2022-07-29T08:25:38Z</time>
      </trkpt>
      <trkpt lat="41.71367" lon="-0.84957">
        <time>2022-07-29T08:25:39Z</time>
      </trkpt>
      <trkpt lat="41.71401" lon="-0.84962">
        <time>2022-07-29T08:25:40Z</time>
      </trkpt>
      <trkpt lat="41.71436" lon="-0.84966">
        <time>2022-07-29T08:25:41Z</time>
      </trkpt>
      <trkpt lat="41.71469" lon="-0.84967">
        <time>2022-07-29T08:25:42Z</time>
      </trkpt>
      <trkpt lat="41.71504" lon="-0.84966">
        <time>2022-07-29T08:25:43Z</time>
      </trkpt>
      <trkpt lat="41.71538" lon="-0.84963">
        <time>2022-07-29T08:25:44Z</time>
      </trkpt>
      <trkpt lat="41.71573" lon="-0.84959">
        <time>2022-07-29T08:25:45Z</time>
      </trkpt>
      <trkpt lat="41.71608" lon="-0.84953">
        <time>2022-07-29T08:25:46Z</time>
      </trkpt>
      <trkpt lat="41.71642" lon="-0.84948">
        <time>2022-07-29T08:25:47Z</time>
      </trkpt>
      <trkpt lat="41.71676" lon="-0.8494">
        <time>2022-07-29T08:25:48Z</time>
      </trkpt>
      <trkpt lat="41.71711" lon="-0.84934">
        <time>2022-07-29T08:25:49Z</time>
      </trkpt>
      <trkpt lat="41.71745" lon="-0.84926">
        <time>2022-07-29T08:25:50Z</time>
      </trkpt>
      <trkpt lat="41.71779" lon="-0.84918">
        <time>2022-07-29T08:25:51Z</time>
      </trkpt>
      <trkpt lat="41.71813" lon="-0.8491">
        <time>2022-07-29T08:25:52Z</time>
      </trkpt>
      <trkpt lat="41.71847" lon="-0.84902">
        <time>2022-07-29T08:25:53Z</time>
      </trkpt>
      <trkpt lat="41.71881" lon="-0.84894">
        <time>2022-07-29T08:25:54Z</time>
      </trkpt>
      <trkpt lat="41.71915" lon="-0.84887">
        <time>2022-07-29T08:25:55Z</time>
      </trkpt>
      <trkpt lat="41.71949" lon="-0.84879">
        <time>2022-07-29T08:25:56Z</time>
      </trkpt>
      <trkpt lat="41.71983" lon="-0.84871">
        <time>2022-07-29T08:25:57Z</time>
      </trkpt>
      <trkpt lat="41.72016" lon="-0.84864">
        <time>2022-07-29T08:25:58Z</time>
      </trkpt>
      <trkpt lat="41.72049" lon="-0.84857">
        <time>2022-07-29T08:25:59Z</time>
      </trkpt>
      <trkpt lat="41.72082" lon="-0.84849">
        <time>2022-07-29T08:26:00Z</time>
      </trkpt>
      <trkpt lat="41.72115" lon="-0.84842">
        <time>2022-07-29T08:26:01Z</time>
      </trkpt>
      <trkpt lat="41.72148" lon="-0.84835">
        <time>2022-07-29T08:26:02Z</time>
      </trkpt>
      <trkpt lat="41.7218" lon="-0.84828">
        <time>2022-07-29T08:26:03Z</time>
      </trkpt>
      <trkpt lat="41.72212" lon="-0.84821">
        <time>2022-07-29T08:26:04Z</time>
      </trkpt>
      <trkpt lat="41.72244" lon="-0.84812">
        <time>2022-07-29T08:26:05Z</time>
      </trkpt>
      <trkpt lat="41.72276" lon="-0.84803">
        <time>2022-07-29T08:26:06Z</time>
      </trkpt>
      <trkpt lat="41.72308" lon="-0.84792">
        <time>2022-07-29T08:26:07Z</time>
      </trkpt>
      <trkpt lat="41.72339" lon="-0.84779">
        <time>2022-07-29T08:26:08Z</time>
      </trkpt>
      <trkpt lat="41.7237" lon="-0.84765">
        <time>2022-07-29T08:26:09Z</time>
      </trkpt>
      <trkpt lat="41.724" lon="-0.8475">
        <time>2022-07-29T08:26:10Z</time>
      </trkpt>
      <trkpt lat="41.7243" lon="-0.84734">
        <time>2022-07-29T08:26:11Z</time>
      </trkpt>
      <trkpt lat="41.7246" lon="-0.84717">
        <time>2022-07-29T08:26:12Z</time>
      </trkpt>
      <trkpt lat="41.7249" lon="-0.84701">
        <time>2022-07-29T08:26:13Z</time>
      </trkpt>
      <trkpt lat="41.72521" lon="-0.84683">
        <time>2022-07-29T08:26:14Z</time>
      </trkpt>
      <trkpt lat="41.72552" lon="-0.84666">
        <time>2022-07-29T08:26:15Z</time>
      </trkpt>
      <trkpt lat="41.72583" lon="-0.8465">
        <time>2022-07-29T08:26:16Z</time>
      </trkpt>
      <trkpt lat="41.72615" lon="-0.84635">
        <time>2022-07-29T08:26:17Z</time>
      </trkpt>
      <trkpt lat="41.72647" lon="-0.84622">
        <time>2022-07-29T08:26:18Z</time>
      </trkpt>
      <trkpt lat="41.7268" lon="-0.8461">
        <time>2022-07-29T08:26:19Z</time>
      </trkpt>
      <trkpt lat="41.72713" lon="-0.846">
        <time>2022-07-29T08:26:20Z</time>
      </trkpt>
      <trkpt lat="41.72746" lon="-0.84591">
        <time>2022-07-29T08:26:21Z</time>
      </trkpt>
      <trkpt lat="41.7278" lon="-0.84586">
        <time>2022-07-29T08:26:22Z</time>
      </trkpt>
      <trkpt lat="41.72814" lon="-0.84582">
        <time>2022-07-29T08:26:23Z</time>
      </trkpt>
      <trkpt lat="41.72848" lon="-0.84579">
        <time>2022-07-29T08:26:24Z</time>
      </trkpt>
      <trkpt lat="41.72882" lon="-0.84579">
        <time>2022-07-29T08:26:25Z</time>
      </trkpt>
      <trkpt lat="41.72916" lon="-0.84581">
        <time>2022-07-29T08:26:26Z</time>
      </trkpt>
      <trkpt lat="41.7295" lon="-0.84585">
        <time>2022-07-29T08:26:27Z</time>
      </trkpt>
      <trkpt lat="41.72983" lon="-0.8459">
        <time>2022-07-29T08:26:28Z</time>
      </trkpt>
      <trkpt lat="41.73017" lon="-0.84598">
        <time>2022-07-29T08:26:29Z</time>
      </trkpt>
      <trkpt lat="41.7305" lon="-0.84607">
        <time>2022-07-29T08:26:30Z</time>
      </trkpt>
      <trkpt lat="41.73082" lon="-0.84616">
        <time>2022-07-29T08:26:31Z</time>
      </trkpt>
      <trkpt lat="41.73115" lon="-0.84626">
        <time>2022-07-29T08:26:32Z</time>
      </trkpt>
      <trkpt lat="41.73147" lon="-0.84635">
        <time>2022-07-29T08:26:33Z</time>
      </trkpt>
      <trkpt lat="41.7318" lon="-0.84645">
        <time>2022-07-29T08:26:34Z</time>
      </trkpt>
      <trkpt lat="41.73212" lon="-0.84655">
        <time>2022-07-29T08:26:35Z</time>
      </trkpt>
      <trkpt lat="41.73245" lon="-0.84664">
        <time>2022-07-29T08:26:36Z</time>
      </trkpt>
      <trkpt lat="41.73278" lon="-0.84674">
        <time>2022-07-29T08:26:37Z</time>
      </trkpt>
      <trkpt lat="41.73311" lon="-0.84682">
        <time>2022-07-29T08:26:38Z</time>
      </trkpt>
      <trkpt lat="41.73344" lon="-0.84689">
        <time>2022-07-29T08:26:39Z</time>
      </trkpt>
      <trkpt lat="41.73378" lon="-0.84695">
        <time>2022-07-29T08:26:40Z</time>
      </trkpt>
      <trkpt lat="41.73412" lon="-0.84699">
        <time>2022-07-29T08:26:41Z</time>
      </trkpt>
      <trkpt lat="41.73445" lon="-0.84701">
        <time>2022-07-29T08:26:42Z</time>
      </trkpt>
      <trkpt lat="41.73479" lon="-0.847">
        <time>2022-07-29T08:26:43Z</time>
      </trkpt>
      <trkpt lat="41.73513" lon="-0.84697">
        <time>2022-07-29T08:26:44Z</time>
      </trkpt>
      <trkpt lat="41.73547" lon="-0.84692">
        <time>2022-07-29T08:26:45Z</time>
      </trkpt>
      <trkpt lat="41.7358" lon="-0.84686">
        <time>2022-07-29T08:26:46Z</time>
      </trkpt>
      <trkpt lat="41.73614" lon="-0.84677">
        <time>2022-07-29T08:26:47Z</time>
      </trkpt>
      <trkpt lat="41.73647" lon="-0.84667">
        <time>2022-07-29T08:26:48Z</time>
      </trkpt>
      <trkpt lat="41.73681" lon="-0.84656">
        <time>2022-07-29T08:26:49Z</time>
      </trkpt>
      <trkpt lat="41.73714" lon="-0.84643">
        <time>2022-07-29T08:26:50Z</time>
      </trkpt>
      <trkpt lat="41.73746" lon="-0.84629">
        <time>2022-07-29T08:26:51Z</time>
      </trkpt>
      <trkpt lat="41.73778" lon="-0.84613">
        <time>2022-07-29T08:26:52Z</time>
      </trkpt>
      <trkpt lat="41.7381" lon="-0.84597">
        <time>2022-07-29T08:26:53Z</time>
      </trkpt>
      <trkpt lat="41.73842" lon="-0.8458">
        <time>2022-07-29T08:26:54Z</time>
      </trkpt>
      <trkpt lat="41.73873" lon="-0.84563">
        <time>2022-07-29T08:26:55Z</time>
      </trkpt>
      <trkpt lat="41.73906" lon="-0.84545">
        <time>2022-07-29T08:26:56Z</time>
      </trkpt>
      <trkpt lat="41.73938" lon="-0.84528">
        <time>2022-07-29T08:26:57Z</time>
      </trkpt>
      <trkpt lat="41.7397" lon="-0.8451">
        <time>2022-07-29T08:26:58Z</time>
      </trkpt>
      <trkpt lat="41.74002" lon="-0.84493">
        <time>2022-07-29T08:26:59Z</time>
      </trkpt>
      <trkpt lat="41.74034" lon="-0.84475">
        <time>2022-07-29T08:27:00Z</time>
      </trkpt>
      <trkpt lat="41.74067" lon="-0.84457">
        <time>2022-07-29T08:27:01Z</time>
      </trkpt>
      <trkpt lat="41.74099" lon="-0.8444">
        <time>2022-07-29T08:27:02Z</time>
      </trkpt>
      <trkpt lat="41.74131" lon="-0.84422">
        <time>2022-07-29T08:27:03Z</time>
      </trkpt>
      <trkpt lat="41.74163" lon="-0.84404">
        <time>2022-07-29T08:27:04Z</time>
      </trkpt>
      <trkpt lat="41.74195" lon="-0.84387">
        <time>2022-07-29T08:27:05Z</time>
      </trkpt>
      <trkpt lat="41.74227" lon="-0.84369">
        <time>2022-07-29T08:27:06Z</time>
      </trkpt>
      <trkpt lat="41.7426" lon="-0.8435">
        <time>2022-07-29T08:27:07Z</time>
      </trkpt>
      <trkpt lat="41.74292" lon="-0.84332">
        <time>2022-07-29T08:27:08Z</time>
      </trkpt>
      <trkpt lat="41.74324" lon="-0.84314">
        <time>2022-07-29T08:27:09Z</time>
      </trkpt>
      <trkpt lat="41.74356" lon="-0.84296">
        <time>2022-07-29T08:27:10Z</time>
      </trkpt>
      <trkpt lat="41.74388" lon="-0.84277">
        <time>2022-07-29T08:27:11Z</time>
      </trkpt>
      <trkpt lat="41.7442" lon="-0.84259">
        <time>2022-07-29T08:27:12Z</time>
      </trkpt>
      <trkpt lat="41.74453" lon="-0.84242">
        <time>2022-07-29T08:27:13Z</time>
      </trkpt>
      <trkpt lat="41.74486" lon="-0.84224">
        <time>2022-07-29T08:27:14Z</time>
      </trkpt>
      <trkpt lat="41.74518" lon="-0.84206">
        <time>2022-07-29T08:27:15Z</time>
      </trkpt>
      <trkpt lat="41.74551" lon="-0.84188">
        <time>2022-07-29T08:27:16Z</time>
      </trkpt>
      <trkpt lat="41.74584" lon="-0.8417">
        <time>2022-07-29T08:27:17Z</time>
      </trkpt>
      <trkpt lat="41.74616" lon="-0.84152">
        <time>2022-07-29T08:27:18Z</time>
      </trkpt>
      <trkpt lat="41.74648" lon="-0.84134">
        <time>2022-07-29T08:27:19Z</time>
      </trkpt>
      <trkpt lat="41.7468" lon="-0.84117">
        <time>2022-07-29T08:27:20Z</time>
      </trkpt>
      <trkpt lat="41.74712" lon="-0.84099">
        <time>2022-07-29T08:27:21Z</time>
      </trkpt>
      <trkpt lat="41.74744" lon="-0.84081">
        <time>2022-07-29T08:27:22Z</time>
      </trkpt>
      <trkpt lat="41.74776" lon="-0.84064">
        <time>2022-07-29T08:27:23Z</time>
      </trkpt>
      <trkpt lat="41.74808" lon="-0.84046">
        <time>2022-07-29T08:27:24Z</time>
      </trkpt>
      <trkpt lat="41.74839" lon="-0.84028">
        <time>2022-07-29T08:27:25Z</time>
      </trkpt>
      <trkpt lat="41.7487" lon="-0.8401">
        <time>2022-07-29T08:27:26Z</time>
      </trkpt>
      <trkpt lat="41.74902" lon="-0.83992">
        <time>2022-07-29T08:27:27Z</time>
      </trkpt>
      <trkpt lat="41.74934" lon="-0.83974">
        <time>2022-07-29T08:27:28Z</time>
      </trkpt>
      <trkpt lat="41.74965" lon="-0.83956">
        <time>2022-07-29T08:27:29Z</time>
      </trkpt>
      <trkpt lat="41.74997" lon="-0.83938">
        <time>2022-07-29T08:27:30Z</time>
      </trkpt>
      <trkpt lat="41.75029" lon="-0.8392">
        <time>2022-07-29T08:27:31Z</time>
      </trkpt>
      <trkpt lat="41.75061" lon="-0.83903">
        <time>2022-07-29T08:27:32Z</time>
      </trkpt>
      <trkpt lat="41.75093" lon="-0.83886">
        <time>2022-07-29T08:27:33Z</time>
      </trkpt>
      <trkpt lat="41.75124" lon="-0.83868">
        <time>2022-07-29T08:27:34Z</time>
      </trkpt>
      <trkpt lat="41.75156" lon="-0.83851">
        <time>2022-07-29T08:27:35Z</time>
      </trkpt>
      <trkpt lat="41.75187" lon="-0.83833">
        <time>2022-07-29T08:27:36Z</time>
      </trkpt>
      <trkpt lat="41.75219" lon="-0.83816">
        <time>2022-07-29T08:27:37Z</time>
      </trkpt>
      <trkpt lat="41.75251" lon="-0.83798">
        <time>2022-07-29T08:27:38Z</time>
      </trkpt>
      <trkpt lat="41.75283" lon="-0.83781">
        <time>2022-07-29T08:27:39Z</time>
      </trkpt>
      <trkpt lat="41.75316" lon="-0.83763">
        <time>2022-07-29T08:27:40Z</time>
      </trkpt>
      <trkpt lat="41.75348" lon="-0.83745">
        <time>2022-07-29T08:27:41Z</time>
      </trkpt>
      <trkpt lat="41.7538" lon="-0.83728">
        <time>2022-07-29T08:27:42Z</time>
      </trkpt>
      <trkpt lat="41.75412" lon="-0.83711">
        <time>2022-07-29T08:27:43Z</time>
      </trkpt>
      <trkpt lat="41.75444" lon="-0.83694">
        <time>2022-07-29T08:27:44Z</time>
      </trkpt>
      <trkpt lat="41.75476" lon="-0.83678">
        <time>2022-07-29T08:27:45Z</time>
      </trkpt>
      <trkpt lat="41.75509" lon="-0.8366">
        <time>2022-07-29T08:27:46Z</time>
      </trkpt>
      <trkpt lat="41.75541" lon="-0.83643">
        <time>2022-07-29T08:27:47Z</time>
      </trkpt>
      <trkpt lat="41.75573" lon="-0.83625">
        <time>2022-07-29T08:27:48Z</time>
      </trkpt>
      <trkpt lat="41.75605" lon="-0.83607">
        <time>2022-07-29T08:27:49Z</time>
      </trkpt>
      <trkpt lat="41.75637" lon="-0.8359">
        <time>2022-07-29T08:27:50Z</time>
      </trkpt>
      <trkpt lat="41.75668" lon="-0.83573">
        <time>2022-07-29T08:27:51Z</time>
      </trkpt>
      <trkpt lat="41.757" lon="-0.83556">
        <time>2022-07-29T08:27:52Z</time>
      </trkpt>
      <trkpt lat="41.7573" lon="-0.83539">
        <time>2022-07-29T08:27:53Z</time>
      </trkpt>
      <trkpt lat="41.75761" lon="-0.83521">
        <time>2022-07-29T08:27:54Z</time>
      </trkpt>
      <trkpt lat="41.75792" lon="-0.83504">
        <time>2022-07-29T08:27:55Z</time>
      </trkpt>
      <trkpt lat="41.75823" lon="-0.83488">
        <time>2022-07-29T08:27:56Z</time>
      </trkpt>
      <trkpt lat="41.75853" lon="-0.83471">
        <time>2022-07-29T08:27:57Z</time>
      </trkpt>
      <trkpt lat="41.75881" lon="-0.83456">
        <time>2022-07-29T08:27:58Z</time>
      </trkpt>
      <trkpt lat="41.7591" lon="-0.83441">
        <time>2022-07-29T08:27:59Z</time>
      </trkpt>
      <trkpt lat="41.75938" lon="-0.83429">
        <time>2022-07-29T08:28:00Z</time>
      </trkpt>
      <trkpt lat="41.75968" lon="-0.83418">
        <time>2022-07-29T08:28:01Z</time>
      </trkpt>
      <trkpt lat="41.75998" lon="-0.83411">
        <time>2022-07-29T08:28:02Z</time>
      </trkpt>
      <trkpt lat="41.76028" lon="-0.83407">
        <time>2022-07-29T08:28:03Z</time>
      </trkpt>
      <trkpt lat="41.76059" lon="-0.83405">
        <time>2022-07-29T08:28:04Z</time>
      </trkpt>
      <trkpt lat="41.7609" lon="-0.83406">
        <time>2022-07-29T08:28:05Z</time>
      </trkpt>
      <trkpt lat="41.76121" lon="-0.83409">
        <time>2022-07-29T08:28:06Z</time>
      </trkpt>
      <trkpt lat="41.76153" lon="-0.83415">
        <time>2022-07-29T08:28:07Z</time>
      </trkpt>
      <trkpt lat="41.76185" lon="-0.83424">
        <time>2022-07-29T08:28:08Z</time>
      </trkpt>
      <trkpt lat="41.76217" lon="-0.83437">
        <time>2022-07-29T08:28:09Z</time>
      </trkpt>
      <trkpt lat="41.76248" lon="-0.83452">
        <time>2022-07-29T08:28:10Z</time>
      </trkpt>
      <trkpt lat="41.76278" lon="-0.83469">
        <time>2022-07-29T08:28:11Z</time>
      </trkpt>
      <trkpt lat="41.76309" lon="-0.83486">
        <time>2022-07-29T08:28:12Z</time>
      </trkpt>
      <trkpt lat="41.7634" lon="-0.83503">
        <time>2022-07-29T08:28:13Z</time>
      </trkpt>
      <trkpt lat="41.76371" lon="-0.83518">
        <time>2022-07-29T08:28:14Z</time>
      </trkpt>
      <trkpt lat="41.76403" lon="-0.83531">
        <time>2022-07-29T08:28:15Z</time>
      </trkpt>
      <trkpt lat="41.76435" lon="-0.83542">
        <time>2022-07-29T08:28:16Z</time>
      </trkpt>
      <trkpt lat="41.76468" lon="-0.83551">
        <time>2022-07-29T08:28:17Z</time>
      </trkpt>
      <trkpt lat="41.765" lon="-0.83558">
        <time>2022-07-29T08:28:18Z</time>
      </trkpt>
      <trkpt lat="41.76533" lon="-0.83564">
        <time>2022-07-29T08:28:19Z</time>
      </trkpt>
      <trkpt lat="41.76566" lon="-0.83568">
        <time>2022-07-29T08:28:20Z</time>
      </trkpt>
      <trkpt lat="41.76599" lon="-0.83571">
        <time>2022-07-29T08:28:21Z</time>
      </trkpt>
      <trkpt lat="41.76631" lon="-0.83572">
        <time>2022-07-29T08:28:22Z</time>
      </trkpt>
      <trkpt lat="41.76664" lon="-0.83571">
        <time>2022-07-29T08:28:23Z</time>
      </trkpt>
      <trkpt lat="41.76696" lon="-0.83569">
        <time>2022-07-29T08:28:24Z</time>
      </trkpt>
      <trkpt lat="41.76729" lon="-0.83566">
        <time>2022-07-29T08:28:25Z</time>
      </trkpt>
      <trkpt lat="41.76761" lon="-0.8356">
        <time>2022-07-29T08:28:26Z</time>
      </trkpt>
      <trkpt lat="41.76793" lon="-0.83554">
        <time>2022-07-29T08:28:27Z</time>
      </trkpt>
      <trkpt lat="41.76825" lon="-0.83546">
        <time>2022-07-29T08:28:28Z</time>
      </trkpt>
      <trkpt lat="41.76857" lon="-0.83537">
        <time>2022-07-29T08:28:29Z</time>
      </trkpt>
      <trkpt lat="41.76889" lon="-0.83529">
        <time>2022-07-29T08:28:30Z</time>
      </trkpt>
      <trkpt lat="41.76921" lon="-0.8352">
        <time>2022-07-29T08:28:31Z</time>
      </trkpt>
      <trkpt lat="41.76953" lon="-0.83511">
        <time>2022-07-29T08:28:32Z</time>
      </trkpt>
      <trkpt lat="41.76985" lon="-0.83502">
        <time>2022-07-29T08:28:33Z</time>
      </trkpt>
      <trkpt lat="41.77017" lon="-0.83493">
        <time>2022-07-29T08:28:34Z</time>
      </trkpt>
      <trkpt lat="41.77049" lon="-0.83484">
        <time>2022-07-29T08:28:35Z</time>
      </trkpt>
      <trkpt lat="41.77082" lon="-0.83476">
        <time>2022-07-29T08:28:36Z</time>
      </trkpt>
      <trkpt lat="41.77113" lon="-0.83467">
        <time>2022-07-29T08:28:37Z</time>
      </trkpt>
      <trkpt lat="41.77146" lon="-0.83458">
        <time>2022-07-29T08:28:38Z</time>
      </trkpt>
      <trkpt lat="41.77178" lon="-0.8345">
        <time>2022-07-29T08:28:39Z</time>
      </trkpt>
      <trkpt lat="41.7721" lon="-0.83442">
        <time>2022-07-29T08:28:40Z</time>
      </trkpt>
      <trkpt lat="41.77242" lon="-0.83433">
        <time>2022-07-29T08:28:41Z</time>
      </trkpt>
      <trkpt lat="41.77274" lon="-0.83424">
        <time>2022-07-29T08:28:42Z</time>
      </trkpt>
      <trkpt lat="41.77306" lon="-0.83416">
        <time>2022-07-29T08:28:43Z</time>
      </trkpt>
      <trkpt lat="41.77339" lon="-0.83407">
        <time>2022-07-29T08:28:44Z</time>
      </trkpt>
      <trkpt lat="41.77371" lon="-0.83398">
        <time>2022-07-29T08:28:45Z</time>
      </trkpt>
      <trkpt lat="41.77403" lon="-0.8339">
        <time>2022-07-29T08:28:46Z</time>
      </trkpt>
      <trkpt lat="41.77435" lon="-0.83381">
        <time>2022-07-29T08:28:47Z</time>
      </trkpt>
      <trkpt lat="41.77467" lon="-0.83372">
        <time>2022-07-29T08:28:48Z</time>
      </trkpt>
      <trkpt lat="41.77499" lon="-0.83364">
        <time>2022-07-29T08:28:49Z</time>
      </trkpt>
      <trkpt lat="41.77531" lon="-0.83355">
        <time>2022-07-29T08:28:50Z</time>
      </trkpt>
      <trkpt lat="41.77562" lon="-0.83346">
        <time>2022-07-29T08:28:51Z</time>
      </trkpt>
      <trkpt lat="41.77594" lon="-0.83338">
        <time>2022-07-29T08:28:52Z</time>
      </trkpt>
      <trkpt lat="41.77626" lon="-0.83329">
        <time>2022-07-29T08:28:53Z</time>
      </trkpt>
      <trkpt lat="41.77657" lon="-0.83321">
        <time>2022-07-29T08:28:54Z</time>
      </trkpt>
      <trkpt lat="41.77689" lon="-0.83312">
        <time>2022-07-29T08:28:55Z</time>
      </trkpt>
      <trkpt lat="41.77721" lon="-0.83303">
        <time>2022-07-29T08:28:56Z</time>
      </trkpt>
      <trkpt lat="41.77753" lon="-0.83294">
        <time>2022-07-29T08:28:57Z</time>
      </trkpt>
      <trkpt lat="41.77784" lon="-0.83284">
        <time>2022-07-29T08:28:58Z</time>
      </trkpt>
      <trkpt lat="41.77816" lon="-0.83274">
        <time>2022-07-29T08:28:59Z</time>
      </trkpt>
      <trkpt lat="41.77848" lon="-0.83264">
        <time>2022-07-29T08:29:00Z</time>
      </trkpt>
      <trkpt lat="41.7788" lon="-0.83255">
        <time>2022-07-29T08:29:01Z</time>
      </trkpt>
      <trkpt lat="41.77912" lon="-0.83245">
        <time>2022-07-29T08:29:02Z</time>
      </trkpt>
      <trkpt lat="41.77944" lon="-0.83236">
        <time>2022-07-29T08:29:03Z</time>
      </trkpt>
      <trkpt lat="41.77976" lon="-0.83228">
        <time>2022-07-29T08:29:04Z</time>
      </trkpt>
      <trkpt lat="41.78007" lon="-0.83219">
        <time>2022-07-29T08:29:05Z</time>
      </trkpt>
      <trkpt lat="41.78039" lon="-0.83211">
        <time>2022-07-29T08:29:06Z</time>
      </trkpt>
      <trkpt lat="41.78071" lon="-0.83202">
        <time>2022-07-29T08:29:07Z</time>
      </trkpt>
      <trkpt lat="41.78102" lon="-0.83193">
        <time>2022-07-29T08:29:08Z</time>
      </trkpt>
      <trkpt lat="41.78135" lon="-0.83183">
        <time>2022-07-29T08:29:09Z</time>
      </trkpt>
      <trkpt lat="41.78166" lon="-0.83173">
        <time>2022-07-29T08:29:10Z</time>
      </trkpt>
      <trkpt lat="41.78198" lon="-0.83163">
        <time>2022-07-29T08:29:11Z</time>
      </trkpt>
      <trkpt lat="41.7823" lon="-0.83152">
        <time>2022-07-29T08:29:12Z</time>
      </trkpt>
      <trkpt lat="41.78262" lon="-0.8314">
        <time>2022-07-29T08:29:13Z</time>
      </trkpt>
      <trkpt lat="41.78294" lon="-0.83128">
        <time>2022-07-29T08:29:14Z</time>
      </trkpt>
      <trkpt lat="41.78326" lon="-0.83115">
        <time>2022-07-29T08:29:15Z</time>
      </trkpt>
      <trkpt lat="41.78358" lon="-0.83102">
        <time>2022-07-29T08:29:16Z</time>
      </trkpt>
      <trkpt lat="41.78391" lon="-0.83088">
        <time>2022-07-29T08:29:17Z</time>
      </trkpt>
      <trkpt lat="41.78423" lon="-0.83072">
        <time>2022-07-29T08:29:18Z</time>
      </trkpt>
      <trkpt lat="41.78455" lon="-0.83057">
        <time>2022-07-29T08:29:19Z</time>
      </trkpt>
      <trkpt lat="41.78487" lon="-0.8304">
        <time>2022-07-29T08:29:20Z</time>
      </trkpt>
      <trkpt lat="41.78518" lon="-0.83023">
        <time>2022-07-29T08:29:21Z</time>
      </trkpt>
      <trkpt lat="41.7855" lon="-0.83005">
        <time>2022-07-29T08:29:22Z</time>
      </trkpt>
      <trkpt lat="41.78581" lon="-0.82987">
        <time>2022-07-29T08:29:23Z</time>
      </trkpt>
      <trkpt lat="41.78613" lon="-0.82968">
        <time>2022-07-29T08:29:24Z</time>
      </trkpt>
      <trkpt lat="41.78645" lon="-0.82949">
        <time>2022-07-29T08:29:25Z</time>
      </trkpt>
      <trkpt lat="41.78676" lon="-0.82931">
        <time>2022-07-29T08:29:26Z</time>
      </trkpt>
      <trkpt lat="41.78707" lon="-0.82912">
        <time>2022-07-29T08:29:27Z</time>
      </trkpt>
      <trkpt lat="41.78739" lon="-0.82893">
        <time>2022-07-29T08:29:28Z</time>
      </trkpt>
      <trkpt lat="41.7877" lon="-0.82875">
        <time>2022-07-29T08:29:29Z</time>
      </trkpt>
      <trkpt lat="41.78801" lon="-0.82856">
        <time>2022-07-29T08:29:30Z</time>
      </trkpt>
      <trkpt lat="41.78833" lon="-0.82838">
        <time>2022-07-29T08:29:31Z</time>
      </trkpt>
      <trkpt lat="41.78864" lon="-0.82819">
        <time>2022-07-29T08:29:32Z</time>
      </trkpt>
      <trkpt lat="41.78896" lon="-0.82802">
        <time>2022-07-29T08:29:33Z</time>
      </trkpt>
      <trkpt lat="41.78929" lon="-0.82785">
        <time>2022-07-29T08:29:34Z</time>
      </trkpt>
      <trkpt lat="41.78961" lon="-0.82768">
        <time>2022-07-29T08:29:35Z</time>
      </trkpt>
      <trkpt lat="41.78993" lon="-0.82753">
        <time>2022-07-29T08:29:36Z</time>
      </trkpt>
      <trkpt lat="41.79026" lon="-0.82737">
        <time>2022-07-29T08:29:37Z</time>
      </trkpt>
      <trkpt lat="41.79059" lon="-0.82722">
        <time>2022-07-29T08:29:38Z</time>
      </trkpt>
      <trkpt lat="41.79092" lon="-0.82707">
        <time>2022-07-29T08:29:39Z</time>
      </trkpt>
      <trkpt lat="41.79125" lon="-0.82694">
        <time>2022-07-29T08:29:40Z</time>
      </trkpt>
      <trkpt lat="41.79158" lon="-0.82681">
        <time>2022-07-29T08:29:41Z</time>
      </trkpt>
      <trkpt lat="41.79191" lon="-0.82668">
        <time>2022-07-29T08:29:42Z</time>
      </trkpt>
      <trkpt lat="41.79224" lon="-0.82656">
        <time>2022-07-29T08:29:43Z</time>
      </trkpt>
      <trkpt lat="41.79257" lon="-0.82645">
        <time>2022-07-29T08:29:44Z</time>
      </trkpt>
      <trkpt lat="41.7929" lon="-0.82634">
        <time>2022-07-29T08:29:45Z</time>
      </trkpt>
      <trkpt lat="41.79324" lon="-0.82624">
        <time>2022-07-29T08:29:46Z</time>
      </trkpt>
      <trkpt lat="41.79357" lon="-0.82614">
        <time>2022-07-29T08:29:47Z</time>
      </trkpt>
      <trkpt lat="41.79391" lon="-0.82605">
        <time>2022-07-29T08:29:48Z</time>
      </trkpt>
      <trkpt lat="41.79424" lon="-0.82596">
        <time>2022-07-29T08:29:49Z</time>
      </trkpt>
      <trkpt lat="41.79458" lon="-0.82587">
        <time>2022-07-29T08:29:50Z</time>
      </trkpt>
      <trkpt lat="41.79492" lon="-0.82579">
        <time>2022-07-29T08:29:51Z</time>
      </trkpt>
      <trkpt lat="41.79526" lon="-0.82571">
        <time>2022-07-29T08:29:52Z</time>
      </trkpt>
      <trkpt lat="41.7956" lon="-0.82564">
        <time>2022-07-29T08:29:53Z</time>
      </trkpt>
      <trkpt lat="41.79594" lon="-0.82556">
        <time>2022-07-29T08:29:54Z</time>
      </trkpt>
      <trkpt lat="41.79628" lon="-0.82549">
        <time>2022-07-29T08:29:55Z</time>
      </trkpt>
      <trkpt lat="41.79663" lon="-0.82542">
        <time>2022-07-29T08:29:56Z</time>
      </trkpt>
      <trkpt lat="41.79698" lon="-0.82534">
        <time>2022-07-29T08:29:57Z</time>
      </trkpt>
      <trkpt lat="41.79732" lon="-0.82527">
        <time>2022-07-29T08:29:58Z</time>
      </trkpt>
      <trkpt lat="41.79767" lon="-0.8252">
        <time>2022-07-29T08:29:59Z</time>
      </trkpt>
      <trkpt lat="41.79801" lon="-0.82512">
        <time>2022-07-29T08:30:00Z</time>
      </trkpt>
      <trkpt lat="41.79836" lon="-0.82504">
        <time>2022-07-29T08:30:01Z</time>
      </trkpt>
      <trkpt lat="41.79871" lon="-0.82496">
        <time>2022-07-29T08:30:02Z</time>
      </trkpt>
      <trkpt lat="41.79905" lon="-0.82487">
        <time>2022-07-29T08:30:03Z</time>
      </trkpt>
      <trkpt lat="41.79941" lon="-0.82478">
        <time>2022-07-29T08:30:04Z</time>
      </trkpt>
      <trkpt lat="41.79975" lon="-0.82469">
        <time>2022-07-29T08:30:05Z</time>
      </trkpt>
      <trkpt lat="41.80011" lon="-0.82459">
        <time>2022-07-29T08:30:06Z</time>
      </trkpt>
      <trkpt lat="41.80046" lon="-0.82449">
        <time>2022-07-29T08:30:07Z</time>
      </trkpt>
      <trkpt lat="41.80081" lon="-0.82438">
        <time>2022-07-29T08:30:08Z</time>
      </trkpt>
      <trkpt lat="41.80116" lon="-0.82427">
        <time>2022-07-29T08:30:09Z</time>
      </trkpt>
      <trkpt lat="41.80151" lon="-0.82415">
        <time>2022-07-29T08:30:10Z</time>
      </trkpt>
      <trkpt lat="41.80186" lon="-0.82402">
        <time>2022-07-29T08:30:11Z</time>
      </trkpt>
      <trkpt lat="41.80221" lon="-0.82388">
        <time>2022-07-29T08:30:12Z</time>
      </trkpt>
      <trkpt lat="41.80256" lon="-0.82374">
        <time>2022-07-29T08:30:13Z</time>
      </trkpt>
      <trkpt lat="41.8029" lon="-0.82358">
        <time>2022-07-29T08:30:14Z</time>
      </trkpt>
      <trkpt lat="41.80325" lon="-0.82342">
        <time>2022-07-29T08:30:15Z</time>
      </trkpt>
      <trkpt lat="41.80359" lon="-0.82325">
        <time>2022-07-29T08:30:16Z</time>
      </trkpt>
      <trkpt lat="41.80393" lon="-0.82307">
        <time>2022-07-29T08:30:17Z</time>
      </trkpt>
      <trkpt lat="41.80428" lon="-0.82289">
        <time>2022-07-29T08:30:18Z</time>
      </trkpt>
      <trkpt lat="41.80462" lon="-0.8227">
        <time>2022-07-29T08:30:19Z</time>
      </trkpt>
      <trkpt lat="41.80495" lon="-0.8225">
        <time>2022-07-29T08:30:20Z</time>
      </trkpt>
      <trkpt lat="41.80528" lon="-0.82229">
        <time>2022-07-29T08:30:21Z</time>
      </trkpt>
      <trkpt lat="41.80561" lon="-0.82207">
        <time>2022-07-29T08:30:22Z</time>
      </trkpt>
      <trkpt lat="41.80594" lon="-0.82185">
        <time>2022-07-29T08:30:23Z</time>
      </trkpt>
      <trkpt lat="41.80626" lon="-0.82163">
        <time>2022-07-29T08:30:24Z</time>
      </trkpt>
      <trkpt lat="41.80659" lon="-0.8214">
        <time>2022-07-29T08:30:25Z</time>
      </trkpt>
      <trkpt lat="41.80691" lon="-0.82117">
        <time>2022-07-29T08:30:26Z</time>
      </trkpt>
      <trkpt lat="41.80722" lon="-0.82093">
        <time>2022-07-29T08:30:27Z</time>
      </trkpt>
      <trkpt lat="41.80754" lon="-0.82068">
        <time>2022-07-29T08:30:28Z</time>
      </trkpt>
      <trkpt lat="41.80784" lon="-0.82042">
        <time>2022-07-29T08:30:29Z</time>
      </trkpt>
      <trkpt lat="41.80815" lon="-0.82015">
        <time>2022-07-29T08:30:30Z</time>
      </trkpt>
      <trkpt lat="41.80844" lon="-0.81988">
        <time>2022-07-29T08:30:31Z</time>
      </trkpt>
      <trkpt lat="41.80873" lon="-0.81961">
        <time>2022-07-29T08:30:32Z</time>
      </trkpt>
      <trkpt lat="41.80903" lon="-0.81933">
        <time>2022-07-29T08:30:33Z</time>
      </trkpt>
      <trkpt lat="41.80931" lon="-0.81905">
        <time>2022-07-29T08:30:34Z</time>
      </trkpt>
      <trkpt lat="41.80959" lon="-0.81877">
        <time>2022-07-29T08:30:35Z</time>
      </trkpt>
      <trkpt lat="41.80986" lon="-0.81849">
        <time>2022-07-29T08:30:36Z</time>
      </trkpt>
      <trkpt lat="41.81012" lon="-0.81822">
        <time>2022-07-29T08:30:37Z</time>
      </trkpt>
      <trkpt lat="41.81037" lon="-0.81796">
        <time>2022-07-29T08:30:38Z</time>
      </trkpt>
      <trkpt lat="41.81062" lon="-0.81769">
        <time>2022-07-29T08:30:39Z</time>
      </trkpt>
      <trkpt lat="41.81087" lon="-0.81741">
        <time>2022-07-29T08:30:40Z</time>
      </trkpt>
      <trkpt lat="41.81113" lon="-0.81713">
        <time>2022-07-29T08:30:41Z</time>
      </trkpt>
      <trkpt lat="41.81139" lon="-0.81683">
        <time>2022-07-29T08:30:42Z</time>
      </trkpt>
      <trkpt lat="41.81164" lon="-0.81654">
        <time>2022-07-29T08:30:43Z</time>
      </trkpt>
      <trkpt lat="41.8119" lon="-0.81624">
        <time>2022-07-29T08:30:44Z</time>
      </trkpt>
      <trkpt lat="41.81216" lon="-0.81594">
        <time>2022-07-29T08:30:45Z</time>
      </trkpt>
      <trkpt lat="41.81241" lon="-0.81563">
        <time>2022-07-29T08:30:46Z</time>
      </trkpt>
      <trkpt lat="41.81268" lon="-0.81532">
        <time>2022-07-29T08:30:47Z</time>
      </trkpt>
      <trkpt lat="41.81295" lon="-0.81502">
        <time>2022-07-29T08:30:48Z</time>
      </trkpt>
      <trkpt lat="41.81322" lon="-0.81472">
        <time>2022-07-29T08:30:49Z</time>
      </trkpt>
      <trkpt lat="41.81349" lon="-0.81443">
        <time>2022-07-29T08:30:50Z</time>
      </trkpt>
      <trkpt lat="41.81378" lon="-0.81413">
        <time>2022-07-29T08:30:51Z</time>
      </trkpt>
      <trkpt lat="41.81406" lon="-0.81384">
        <time>2022-07-29T08:30:52Z</time>
      </trkpt>
      <trkpt lat="41.81435" lon="-0.81354">
        <time>2022-07-29T08:30:53Z</time>
      </trkpt>
      <trkpt lat="41.81463" lon="-0.81325">
        <time>2022-07-29T08:30:54Z</time>
      </trkpt>
      <trkpt lat="41.81492" lon="-0.81296">
        <time>2022-07-29T08:30:55Z</time>
      </trkpt>
      <trkpt lat="41.8152" lon="-0.81269">
        <time>2022-07-29T08:30:56Z</time>
      </trkpt>
      <trkpt lat="41.81549" lon="-0.81241">
        <time>2022-07-29T08:30:57Z</time>
      </trkpt>
      <trkpt lat="41.81579" lon="-0.81214">
        <time>2022-07-29T08:30:58Z</time>
      </trkpt>
      <trkpt lat="41.81609" lon="-0.81188">
        <time>2022-07-29T08:30:59Z</time>
      </trkpt>
      <trkpt lat="41.81639" lon="-0.81163">
        <time>2022-07-29T08:31:00Z</time>
      </trkpt>
      <trkpt lat="41.8167" lon="-0.81139">
        <time>2022-07-29T08:31:01Z</time>
      </trkpt>
      <trkpt lat="41.817" lon="-0.81116">
        <time>2022-07-29T08:31:02Z</time>
      </trkpt>
      <trkpt lat="41.81732" lon="-0.81094">
        <time>2022-07-29T08:31:03Z</time>
      </trkpt>
      <trkpt lat="41.81764" lon="-0.81073">
        <time>2022-07-29T08:31:04Z</time>
      </trkpt>
      <trkpt lat="41.81796" lon="-0.81052">
        <time>2022-07-29T08:31:05Z</time>
      </trkpt>
      <trkpt lat="41.81828" lon="-0.81033">
        <time>2022-07-29T08:31:06Z</time>
      </trkpt>
      <trkpt lat="41.81861" lon="-0.81014">
        <time>2022-07-29T08:31:07Z</time>
      </trkpt>
      <trkpt lat="41.81894" lon="-0.80996">
        <time>2022-07-29T08:31:08Z</time>
      </trkpt>
      <trkpt lat="41.81928" lon="-0.8098">
        <time>2022-07-29T08:31:09Z</time>
      </trkpt>
      <trkpt lat="41.81962" lon="-0.80964">
        <time>2022-07-29T08:31:10Z</time>
      </trkpt>
      <trkpt lat="41.81996" lon="-0.8095">
        <time>2022-07-29T08:31:11Z</time>
      </trkpt>
      <trkpt lat="41.82031" lon="-0.80936">
        <time>2022-07-29T08:31:12Z</time>
      </trkpt>
      <trkpt lat="41.82065" lon="-0.80923">
        <time>2022-07-29T08:31:13Z</time>
      </trkpt>
      <trkpt lat="41.821" lon="-0.80911">
        <time>2022-07-29T08:31:14Z</time>
      </trkpt>
      <trkpt lat="41.82136" lon="-0.80901">
        <time>2022-07-29T08:31:15Z</time>
      </trkpt>
      <trkpt lat="41.82171" lon="-0.80892">
        <time>2022-07-29T08:31:16Z</time>
      </trkpt>
      <trkpt lat="41.82207" lon="-0.80883">
        <time>2022-07-29T08:31:17Z</time>
      </trkpt>
      <trkpt lat="41.82243" lon="-0.80876">
        <time>2022-07-29T08:31:18Z</time>
      </trkpt>
      <trkpt lat="41.8228" lon="-0.80869">
        <time>2022-07-29T08:31:19Z</time>
      </trkpt>
      <trkpt lat="41.82316" lon="-0.80864">
        <time>2022-07-29T08:31:20Z</time>
      </trkpt>
      <trkpt lat="41.82353" lon="-0.8086">
        <time>2022-07-29T08:31:21Z</time>
      </trkpt>
      <trkpt lat="41.8239" lon="-0.80857">
        <time>2022-07-29T08:31:22Z</time>
      </trkpt>
      <trkpt lat="41.82427" lon="-0.80853">
        <time>2022-07-29T08:31:23Z</time>
      </trkpt>
      <trkpt lat="41.82464" lon="-0.8085">
        <time>2022-07-29T08:31:24Z</time>
      </trkpt>
      <trkpt lat="41.82501" lon="-0.80847">
        <time>2022-07-29T08:31:25Z</time>
      </trkpt>
      <trkpt lat="41.82538" lon="-0.80843">
        <time>2022-07-29T08:31:26Z</time>
      </trkpt>
      <trkpt lat="41.82574" lon="-0.80841">
        <time>2022-07-29T08:31:27Z</time>
      </trkpt>
      <trkpt lat="41.82611" lon="-0.80838">
        <time>2022-07-29T08:31:28Z</time>
      </trkpt>
      <trkpt lat="41.82648" lon="-0.80835">
        <time>2022-07-29T08:31:29Z</time>
      </trkpt>
      <trkpt lat="41.82686" lon="-0.80832">
        <time>2022-07-29T08:31:30Z</time>
      </trkpt>
      <trkpt lat="41.82722" lon="-0.80829">
        <time>2022-07-29T08:31:31Z</time>
      </trkpt>
      <trkpt lat="41.82759" lon="-0.80827">
        <time>2022-07-29T08:31:32Z</time>
      </trkpt>
      <trkpt lat="41.82797" lon="-0.80824">
        <time>2022-07-29T08:31:33Z</time>
      </trkpt>
      <trkpt lat="41.82834" lon="-0.8082">
        <time>2022-07-29T08:31:34Z</time>
      </trkpt>
      <trkpt lat="41.82871" lon="-0.80817">
        <time>2022-07-29T08:31:35Z</time>
      </trkpt>
      <trkpt lat="41.82908" lon="-0.80812">
        <time>2022-07-29T08:31:36Z</time>
      </trkpt>
      <trkpt lat="41.82945" lon="-0.80807">
        <time>2022-07-29T08:31:37Z</time>
      </trkpt>
      <trkpt lat="41.82983" lon="-0.80801">
        <time>2022-07-29T08:31:38Z</time>
      </trkpt>
      <trkpt lat="41.8302" lon="-0.80794">
        <time>2022-07-29T08:31:39Z</time>
      </trkpt>
      <trkpt lat="41.83057" lon="-0.80786">
        <time>2022-07-29T08:31:40Z</time>
      </trkpt>
      <trkpt lat="41.83094" lon="-0.80777">
        <time>2022-07-29T08:31:41Z</time>
      </trkpt>
      <trkpt lat="41.83131" lon="-0.80768">
        <time>2022-07-29T08:31:42Z</time>
      </trkpt>
      <trkpt lat="41.83167" lon="-0.80757">
        <time>2022-07-29T08:31:43Z</time>
      </trkpt>
      <trkpt lat="41.83202" lon="-0.80744">
        <time>2022-07-29T08:31:44Z</time>
      </trkpt>
      <trkpt lat="41.83238" lon="-0.8073">
        <time>2022-07-29T08:31:45Z</time>
      </trkpt>
      <trkpt lat="41.83273" lon="-0.80716">
        <time>2022-07-29T08:31:46Z</time>
      </trkpt>
      <trkpt lat="41.83307" lon="-0.80701">
        <time>2022-07-29T08:31:47Z</time>
      </trkpt>
      <trkpt lat="41.83342" lon="-0.80685">
        <time>2022-07-29T08:31:48Z</time>
      </trkpt>
      <trkpt lat="41.83376" lon="-0.80668">
        <time>2022-07-29T08:31:49Z</time>
      </trkpt>
      <trkpt lat="41.8341" lon="-0.80651">
        <time>2022-07-29T08:31:50Z</time>
      </trkpt>
      <trkpt lat="41.83443" lon="-0.80632">
        <time>2022-07-29T08:31:51Z</time>
      </trkpt>
      <trkpt lat="41.83477" lon="-0.80613">
        <time>2022-07-29T08:31:52Z</time>
      </trkpt>
      <trkpt lat="41.8351" lon="-0.80593">
        <time>2022-07-29T08:31:53Z</time>
      </trkpt>
      <trkpt lat="41.83542" lon="-0.80573">
        <time>2022-07-29T08:31:54Z</time>
      </trkpt>
      <trkpt lat="41.83575" lon="-0.80553">
        <time>2022-07-29T08:31:55Z</time>
      </trkpt>
      <trkpt lat="41.83608" lon="-0.80532">
        <time>2022-07-29T08:31:56Z</time>
      </trkpt>
      <trkpt lat="41.8364" lon="-0.80511">
        <time>2022-07-29T08:31:57Z</time>
      </trkpt>
      <trkpt lat="41.83673" lon="-0.8049">
        <time>2022-07-29T08:31:58Z</time>
      </trkpt>
      <trkpt lat="41.83706" lon="-0.8047">
        <time>2022-07-29T08:31:59Z</time>
      </trkpt>
      <trkpt lat="41.83739" lon="-0.8045">
        <time>2022-07-29T08:32:00Z</time>
      </trkpt>
      <trkpt lat="41.83773" lon="-0.80429">
        <time>2022-07-29T08:32:01Z</time>
      </trkpt>
      <trkpt lat="41.83807" lon="-0.8041">
        <time>2022-07-29T08:32:02Z</time>
      </trkpt>
      <trkpt lat="41.83842" lon="-0.80391">
        <time>2022-07-29T08:32:03Z</time>
      </trkpt>
      <trkpt lat="41.83876" lon="-0.80374">
        <time>2022-07-29T08:32:04Z</time>
      </trkpt>
      <trkpt lat="41.83911" lon="-0.80357">
        <time>2022-07-29T08:32:05Z</time>
      </trkpt>
      <trkpt lat="41.83946" lon="-0.80342">
        <time>2022-07-29T08:32:06Z</time>
      </trkpt>
      <trkpt lat="41.83982" lon="-0.80328">
        <time>2022-07-29T08:32:07Z</time>
      </trkpt>
      <trkpt lat="41.84017" lon="-0.80316">
        <time>2022-07-29T08:32:08Z</time>
      </trkpt>
      <trkpt lat="41.84053" lon="-0.80306">
        <time>2022-07-29T08:32:09Z</time>
      </trkpt>
      <trkpt lat="41.84089" lon="-0.80296">
        <time>2022-07-29T08:32:10Z</time>
      </trkpt>
      <trkpt lat="41.84124" lon="-0.80288">
        <time>2022-07-29T08:32:11Z</time>
      </trkpt>
      <trkpt lat="41.8416" lon="-0.8028">
        <time>2022-07-29T08:32:12Z</time>
      </trkpt>
      <trkpt lat="41.84196" lon="-0.80274">
        <time>2022-07-29T08:32:13Z</time>
      </trkpt>
      <trkpt lat="41.84231" lon="-0.80268">
        <time>2022-07-29T08:32:14Z</time>
      </trkpt>
      <trkpt lat="41.84267" lon="-0.80264">
        <time>2022-07-29T08:32:15Z</time>
      </trkpt>
      <trkpt lat="41.84302" lon="-0.8026">
        <time>2022-07-29T08:32:16Z</time>
      </trkpt>
      <trkpt lat="41.84337" lon="-0.80259">
        <time>2022-07-29T08:32:17Z</time>
      </trkpt>
      <trkpt lat="41.84372" lon="-0.80258">
        <time>2022-07-29T08:32:18Z</time>
      </trkpt>
      <trkpt lat="41.84408" lon="-0.8026">
        <time>2022-07-29T08:32:19Z</time>
      </trkpt>
      <trkpt lat="41.84443" lon="-0.80262">
        <time>2022-07-29T08:32:20Z</time>
      </trkpt>
      <trkpt lat="41.84479" lon="-0.80266">
        <time>2022-07-29T08:32:21Z</time>
      </trkpt>
      <trkpt lat="41.84514" lon="-0.80271">
        <time>2022-07-29T08:32:22Z</time>
      </trkpt>
      <trkpt lat="41.8455" lon="-0.80277">
        <time>2022-07-29T08:32:23Z</time>
      </trkpt>
      <trkpt lat="41.84585" lon="-0.80283">
        <time>2022-07-29T08:32:24Z</time>
      </trkpt>
      <trkpt lat="41.8462" lon="-0.80292">
        <time>2022-07-29T08:32:25Z</time>
      </trkpt>
      <trkpt lat="41.84655" lon="-0.80301">
        <time>2022-07-29T08:32:26Z</time>
      </trkpt>
      <trkpt lat="41.8469" lon="-0.80311">
        <time>2022-07-29T08:32:27Z</time>
      </trkpt>
      <trkpt lat="41.84724" lon="-0.80321">
        <time>2022-07-29T08:32:28Z</time>
      </trkpt>
      <trkpt lat="41.84758" lon="-0.80332">
        <time>2022-07-29T08:32:29Z</time>
      </trkpt>
      <trkpt lat="41.84792" lon="-0.80344">
        <time>2022-07-29T08:32:30Z</time>
      </trkpt>
      <trkpt lat="41.84826" lon="-0.80355">
        <time>2022-07-29T08:32:31Z</time>
      </trkpt>
      <trkpt lat="41.84859" lon="-0.80367">
        <time>2022-07-29T08:32:32Z</time>
      </trkpt>
      <trkpt lat="41.84892" lon="-0.80378">
        <time>2022-07-29T08:32:33Z</time>
      </trkpt>
      <trkpt lat="41.84926" lon="-0.80388">
        <time>2022-07-29T08:32:34Z</time>
      </trkpt>
      <trkpt lat="41.84958" lon="-0.80398">
        <time>2022-07-29T08:32:35Z</time>
      </trkpt>
      <trkpt lat="41.84991" lon="-0.80408">
        <time>2022-07-29T08:32:36Z</time>
      </trkpt>
      <trkpt lat="41.85024" lon="-0.80416">
        <time>2022-07-29T08:32:37Z</time>
      </trkpt>
      <trkpt lat="41.85057" lon="-0.80423">
        <time>2022-07-29T08:32:38Z</time>
      </trkpt>
      <trkpt lat="41.8509" lon="-0.80428">
        <time>2022-07-29T08:32:39Z</time>
      </trkpt>
      <trkpt lat="41.85124" lon="-0.80432">
        <time>2022-07-29T08:32:40Z</time>
      </trkpt>
      <trkpt lat="41.85157" lon="-0.80434">
        <time>2022-07-29T08:32:41Z</time>
      </trkpt>
      <trkpt lat="41.8519" lon="-0.80435">
        <time>2022-07-29T08:32:42Z</time>
      </trkpt>
      <trkpt lat="41.85224" lon="-0.80433">
        <time>2022-07-29T08:32:43Z</time>
      </trkpt>
      <trkpt lat="41.85257" lon="-0.8043">
        <time>2022-07-29T08:32:44Z</time>
      </trkpt>
      <trkpt lat="41.85291" lon="-0.80424">
        <time>2022-07-29T08:32:45Z</time>
      </trkpt>
      <trkpt lat="41.85324" lon="-0.80416">
        <time>2022-07-29T08:32:46Z</time>
      </trkpt>
      <trkpt lat="41.85357" lon="-0.80406">
        <time>2022-07-29T08:32:47Z</time>
      </trkpt>
      <trkpt lat="41.8539" lon="-0.80394">
        <time>2022-07-29T08:32:48Z</time>
      </trkpt>
      <trkpt lat="41.85423" lon="-0.80381">
        <time>2022-07-29T08:32:49Z</time>
      </trkpt>
      <trkpt lat="41.85455" lon="-0.80364">
        <time>2022-07-29T08:32:50Z</time>
      </trkpt>
      <trkpt lat="41.85487" lon="-0.80347">
        <time>2022-07-29T08:32:51Z</time>
      </trkpt>
      <trkpt lat="41.85519" lon="-0.80327">
        <time>2022-07-29T08:32:52Z</time>
      </trkpt>
      <trkpt lat="41.8555" lon="-0.80305">
        <time>2022-07-29T08:32:53Z</time>
      </trkpt>
      <trkpt lat="41.8558" lon="-0.80281">
        <time>2022-07-29T08:32:54Z</time>
      </trkpt>
      <trkpt lat="41.85609" lon="-0.80256">
        <time>2022-07-29T08:32:55Z</time>
      </trkpt>
      <trkpt lat="41.85638" lon="-0.8023">
        <time>2022-07-29T08:32:56Z</time>
      </trkpt>
      <trkpt lat="41.85667" lon="-0.80202">
        <time>2022-07-29T08:32:57Z</time>
      </trkpt>
      <trkpt lat="41.85696" lon="-0.80175">
        <time>2022-07-29T08:32:58Z</time>
      </trkpt>
      <trkpt lat="41.85725" lon="-0.80146">
        <time>2022-07-29T08:32:59Z</time>
      </trkpt>
      <trkpt lat="41.85753" lon="-0.80118">
        <time>2022-07-29T08:33:00Z</time>
      </trkpt>
      <trkpt lat="41.85781" lon="-0.80089">
        <time>2022-07-29T08:33:01Z</time>
      </trkpt>
      <trkpt lat="41.8581" lon="-0.80061">
        <time>2022-07-29T08:33:02Z</time>
      </trkpt>
      <trkpt lat="41.85838" lon="-0.80034">
        <time>2022-07-29T08:33:03Z</time>
      </trkpt>
      <trkpt lat="41.85867" lon="-0.80007">
        <time>2022-07-29T08:33:04Z</time>
      </trkpt>
      <trkpt lat="41.85896" lon="-0.79982">
        <time>2022-07-29T08:33:05Z</time>
      </trkpt>
      <trkpt lat="41.85926" lon="-0.79957">
        <time>2022-07-29T08:33:06Z</time>
      </trkpt>
      <trkpt lat="41.85958" lon="-0.79933">
        <time>2022-07-29T08:33:07Z</time>
      </trkpt>
      <trkpt lat="41.85989" lon="-0.79911">
        <time>2022-07-29T08:33:08Z</time>
      </trkpt>
      <trkpt lat="41.86022" lon="-0.79892">
        <time>2022-07-29T08:33:09Z</time>
      </trkpt>
      <trkpt lat="41.86055" lon="-0.79874">
        <time>2022-07-29T08:33:10Z</time>
      </trkpt>
      <trkpt lat="41.86089" lon="-0.79859">
        <time>2022-07-29T08:33:11Z</time>
      </trkpt>
      <trkpt lat="41.86123" lon="-0.79846">
        <time>2022-07-29T08:33:12Z</time>
      </trkpt>
      <trkpt lat="41.86158" lon="-0.79836">
        <time>2022-07-29T08:33:13Z</time>
      </trkpt>
      <trkpt lat="41.86194" lon="-0.79828">
        <time>2022-07-29T08:33:14Z</time>
      </trkpt>
      <trkpt lat="41.86229" lon="-0.79822">
        <time>2022-07-29T08:33:15Z</time>
      </trkpt>
      <trkpt lat="41.86265" lon="-0.79818">
        <time>2022-07-29T08:33:16Z</time>
      </trkpt>
      <trkpt lat="41.86301" lon="-0.79817">
        <time>2022-07-29T08:33:17Z</time>
      </trkpt>
      <trkpt lat="41.86338" lon="-0.79817">
        <time>2022-07-29T08:33:18Z</time>
      </trkpt>
      <trkpt lat="41.86374" lon="-0.79821">
        <time>2022-07-29T08:33:19Z</time>
      </trkpt>
      <trkpt lat="41.86411" lon="-0.79825">
        <time>2022-07-29T08:33:20Z</time>
      </trkpt>
      <trkpt lat="41.86448" lon="-0.79832">
        <time>2022-07-29T08:33:21Z</time>
      </trkpt>
      <trkpt lat="41.86485" lon="-0.7984">
        <time>2022-07-29T08:33:22Z</time>
      </trkpt>
      <trkpt lat="41.86521" lon="-0.79848">
        <time>2022-07-29T08:33:23Z</time>
      </trkpt>
      <trkpt lat="41.86556" lon="-0.79857">
        <time>2022-07-29T08:33:24Z</time>
      </trkpt>
      <trkpt lat="41.8659" lon="-0.79867">
        <time>2022-07-29T08:33:25Z</time>
      </trkpt>
      <trkpt lat="41.86625" lon="-0.79876">
        <time>2022-07-29T08:33:26Z</time>
      </trkpt>
      <trkpt lat="41.8666" lon="-0.79886">
        <time>2022-07-29T08:33:27Z</time>
      </trkpt>
      <trkpt lat="41.86695" lon="-0.79895">
        <time>2022-07-29T08:33:28Z</time>
      </trkpt>
      <trkpt lat="41.86731" lon="-0.79903">
        <time>2022-07-29T08:33:29Z</time>
      </trkpt>
      <trkpt lat="41.86767" lon="-0.7991">
        <time>2022-07-29T08:33:30Z</time>
      </trkpt>
      <trkpt lat="41.86802" lon="-0.79916">
        <time>2022-07-29T08:33:31Z</time>
      </trkpt>
      <trkpt lat="41.86839" lon="-0.79921">
        <time>2022-07-29T08:33:32Z</time>
      </trkpt>
      <trkpt lat="41.86875" lon="-0.79924">
        <time>2022-07-29T08:33:33Z</time>
      </trkpt>
      <trkpt lat="41.86911" lon="-0.79927">
        <time>2022-07-29T08:33:34Z</time>
      </trkpt>
      <trkpt lat="41.86947" lon="-0.79929">
        <time>2022-07-29T08:33:35Z</time>
      </trkpt>
      <trkpt lat="41.86984" lon="-0.7993">
        <time>2022-07-29T08:33:36Z</time>
      </trkpt>
      <trkpt lat="41.8702" lon="-0.79929">
        <time>2022-07-29T08:33:37Z</time>
      </trkpt>
      <trkpt lat="41.87056" lon="-0.79925">
        <time>2022-07-29T08:33:38Z</time>
      </trkpt>
      <trkpt lat="41.87092" lon="-0.79919">
        <time>2022-07-29T08:33:39Z</time>
      </trkpt>
      <trkpt lat="41.87128" lon="-0.79911">
        <time>2022-07-29T08:33:40Z</time>
      </trkpt>
      <trkpt lat="41.87164" lon="-0.79901">
        <time>2022-07-29T08:33:41Z</time>
      </trkpt>
      <trkpt lat="41.872" lon="-0.79889">
        <time>2022-07-29T08:33:42Z</time>
      </trkpt>
      <trkpt lat="41.87235" lon="-0.79876">
        <time>2022-07-29T08:33:43Z</time>
      </trkpt>
      <trkpt lat="41.87269" lon="-0.7986">
        <time>2022-07-29T08:33:44Z</time>
      </trkpt>
      <trkpt lat="41.87302" lon="-0.79843">
        <time>2022-07-29T08:33:45Z</time>
      </trkpt>
      <trkpt lat="41.87334" lon="-0.79825">
        <time>2022-07-29T08:33:46Z</time>
      </trkpt>
      <trkpt lat="41.87366" lon="-0.79805">
        <time>2022-07-29T08:33:47Z</time>
      </trkpt>
      <trkpt lat="41.87396" lon="-0.79783">
        <time>2022-07-29T08:33:48Z</time>
      </trkpt>
      <trkpt lat="41.87425" lon="-0.7976">
        <time>2022-07-29T08:33:49Z</time>
      </trkpt>
      <trkpt lat="41.87454" lon="-0.79736">
        <time>2022-07-29T08:33:50Z</time>
      </trkpt>
      <trkpt lat="41.87481" lon="-0.79711">
        <time>2022-07-29T08:33:51Z</time>
      </trkpt>
      <trkpt lat="41.87508" lon="-0.79685">
        <time>2022-07-29T08:33:52Z</time>
      </trkpt>
      <trkpt lat="41.87533" lon="-0.79658">
        <time>2022-07-29T08:33:53Z</time>
      </trkpt>
      <trkpt lat="41.87558" lon="-0.7963">
        <time>2022-07-29T08:33:54Z</time>
      </trkpt>
      <trkpt lat="41.87582" lon="-0.79601">
        <time>2022-07-29T08:33:55Z</time>
      </trkpt>
      <trkpt lat="41.87604" lon="-0.7957">
        <time>2022-07-29T08:33:56Z</time>
      </trkpt>
      <trkpt lat="41.87626" lon="-0.79537">
        <time>2022-07-29T08:33:57Z</time>
      </trkpt>
      <trkpt lat="41.87646" lon="-0.79503">
        <time>2022-07-29T08:33:58Z</time>
      </trkpt>
      <trkpt lat="41.87665" lon="-0.79468">
        <time>2022-07-29T08:33:59Z</time>
      </trkpt>
      <trkpt lat="41.87684" lon="-0.79431">
        <time>2022-07-29T08:34:00Z</time>
      </trkpt>
      <trkpt lat="41.87701" lon="-0.79394">
        <time>2022-07-29T08:34:01Z</time>
      </trkpt>
      <trkpt lat="41.87718" lon="-0.79356">
        <time>2022-07-29T08:34:02Z</time>
      </trkpt>
      <trkpt lat="41.87734" lon="-0.79317">
        <time>2022-07-29T08:34:03Z</time>
      </trkpt>
      <trkpt lat="41.87748" lon="-0.79278">
        <time>2022-07-29T08:34:04Z</time>
      </trkpt>
      <trkpt lat="41.87763" lon="-0.79238">
        <time>2022-07-29T08:34:05Z</time>
      </trkpt>
      <trkpt lat="41.87774" lon="-0.79198">
        <time>2022-07-29T08:34:06Z</time>
      </trkpt>
      <trkpt lat="41.87785" lon="-0.79157">
        <time>2022-07-29T08:34:07Z</time>
      </trkpt>
      <trkpt lat="41.87795" lon="-0.79116">
        <time>2022-07-29T08:34:08Z</time>
      </trkpt>
      <trkpt lat="41.87804" lon="-0.79075">
        <time>2022-07-29T08:34:09Z</time>
      </trkpt>
      <trkpt lat="41.87813" lon="-0.79034">
        <time>2022-07-29T08:34:10Z</time>
      </trkpt>
      <trkpt lat="41.8782" lon="-0.78993">
        <time>2022-07-29T08:34:11Z</time>
      </trkpt>
      <trkpt lat="41.87827" lon="-0.78952">
        <time>2022-07-29T08:34:12Z</time>
      </trkpt>
      <trkpt lat="41.87833" lon="-0.7891">
        <time>2022-07-29T08:34:13Z</time>
      </trkpt>
      <trkpt lat="41.87838" lon="-0.78868">
        <time>2022-07-29T08:34:14Z</time>
      </trkpt>
      <trkpt lat="41.87842" lon="-0.78826">
        <time>2022-07-29T08:34:15Z</time>
      </trkpt>
      <trkpt lat="41.87845" lon="-0.78784">
        <time>2022-07-29T08:34:16Z</time>
      </trkpt>
      <trkpt lat="41.87849" lon="-0.78741">
        <time>2022-07-29T08:34:17Z</time>
      </trkpt>
      <trkpt lat="41.87852" lon="-0.78699">
        <time>2022-07-29T08:34:18Z</time>
      </trkpt>
      <trkpt lat="41.87855" lon="-0.78657">
        <time>2022-07-29T08:34:19Z</time>
      </trkpt>
      <trkpt lat="41.87857" lon="-0.78615">
        <time>2022-07-29T08:34:20Z</time>
      </trkpt>
      <trkpt lat="41.8786" lon="-0.78572">
        <time>2022-07-29T08:34:21Z</time>
      </trkpt>
      <trkpt lat="41.87862" lon="-0.7853">
        <time>2022-07-29T08:34:22Z</time>
      </trkpt>
      <trkpt lat="41.87864" lon="-0.78488">
        <time>2022-07-29T08:34:23Z</time>
      </trkpt>
      <trkpt lat="41.87866" lon="-0.78445">
        <time>2022-07-29T08:34:24Z</time>
      </trkpt>
      <trkpt lat="41.87868" lon="-0.78404">
        <time>2022-07-29T08:34:25Z</time>
      </trkpt>
      <trkpt lat="41.8787" lon="-0.78361">
        <time>2022-07-29T08:34:26Z</time>
      </trkpt>
      <trkpt lat="41.87873" lon="-0.78319">
        <time>2022-07-29T08:34:27Z</time>
      </trkpt>
      <trkpt lat="41.87875" lon="-0.78277">
        <time>2022-07-29T08:34:28Z</time>
      </trkpt>
      <trkpt lat="41.87878" lon="-0.78234">
        <time>2022-07-29T08:34:29Z</time>
      </trkpt>
      <trkpt lat="41.87882" lon="-0.78193">
        <time>2022-07-29T08:34:30Z</time>
      </trkpt>
      <trkpt lat="41.87887" lon="-0.78151">
        <time>2022-07-29T08:34:31Z</time>
      </trkpt>
      <trkpt lat="41.87892" lon="-0.78111">
        <time>2022-07-29T08:34:32Z</time>
      </trkpt>
      <trkpt lat="41.87897" lon="-0.78071">
        <time>2022-07-29T08:34:33Z</time>
      </trkpt>
      <trkpt lat="41.87902" lon="-0.78032">
        <time>2022-07-29T08:34:34Z</time>
      </trkpt>
      <trkpt lat="41.87907" lon="-0.77993">
        <time>2022-07-29T08:34:35Z</time>
      </trkpt>
      <trkpt lat="41.87913" lon="-0.77955">
        <time>2022-07-29T08:34:36Z</time>
      </trkpt>
      <trkpt lat="41.8792" lon="-0.77917">
        <time>2022-07-29T08:34:37Z</time>
      </trkpt>
      <trkpt lat="41.87927" lon="-0.77878">
        <time>2022-07-29T08:34:38Z</time>
      </trkpt>
      <trkpt lat="41.87934" lon="-0.77841">
        <time>2022-07-29T08:34:39Z</time>
      </trkpt>
      <trkpt lat="41.87942" lon="-0.77803">
        <time>2022-07-29T08:34:40Z</time>
      </trkpt>
      <trkpt lat="41.87952" lon="-0.77766">
        <time>2022-07-29T08:34:41Z</time>
      </trkpt>
      <trkpt lat="41.87962" lon="-0.7773">
        <time>2022-07-29T08:34:42Z</time>
      </trkpt>
      <trkpt lat="41.87973" lon="-0.77693">
        <time>2022-07-29T08:34:43Z</time>
      </trkpt>
      <trkpt lat="41.87985" lon="-0.77657">
        <time>2022-07-29T08:34:44Z</time>
      </trkpt>
      <trkpt lat="41.87998" lon="-0.77621">
        <time>2022-07-29T08:34:45Z</time>
      </trkpt>
      <trkpt lat="41.88012" lon="-0.77586">
        <time>2022-07-29T08:34:46Z</time>
      </trkpt>
      <trkpt lat="41.88027" lon="-0.7755">
        <time>2022-07-29T08:34:47Z</time>
      </trkpt>
      <trkpt lat="41.88043" lon="-0.77515">
        <time>2022-07-29T08:34:48Z</time>
      </trkpt>
      <trkpt lat="41.88059" lon="-0.7748">
        <time>2022-07-29T08:34:49Z</time>
      </trkpt>
      <trkpt lat="41.88076" lon="-0.77446">
        <time>2022-07-29T08:34:50Z</time>
      </trkpt>
      <trkpt lat="41.88093" lon="-0.77412">
        <time>2022-07-29T08:34:51Z</time>
      </trkpt>
      <trkpt lat="41.88112" lon="-0.77379">
        <time>2022-07-29T08:34:52Z</time>
      </trkpt>
      <trkpt lat="41.88131" lon="-0.77348">
        <time>2022-07-29T08:34:53Z</time>
      </trkpt>
      <trkpt lat="41.88152" lon="-0.77317">
        <time>2022-07-29T08:34:54Z</time>
      </trkpt>
      <trkpt lat="41.88174" lon="-0.77287">
        <time>2022-07-29T08:34:55Z</time>
      </trkpt>
      <trkpt lat="41.88196" lon="-0.77257">
        <time>2022-07-29T08:34:56Z</time>
      </trkpt>
      <trkpt lat="41.88218" lon="-0.77228">
        <time>2022-07-29T08:34:57Z</time>
      </trkpt>
      <trkpt lat="41.88241" lon="-0.77198">
        <time>2022-07-29T08:34:58Z</time>
      </trkpt>
      <trkpt lat="41.88264" lon="-0.7717">
        <time>2022-07-29T08:34:59Z</time>
      </trkpt>
      <trkpt lat="41.88287" lon="-0.77143">
        <time>2022-07-29T08:35:00Z</time>
      </trkpt>
      <trkpt lat="41.88312" lon="-0.77118">
        <time>2022-07-29T08:35:01Z</time>
      </trkpt>
      <trkpt lat="41.88337" lon="-0.77095">
        <time>2022-07-29T08:35:02Z</time>
      </trkpt>
      <trkpt lat="41.88362" lon="-0.77071">
        <time>2022-07-29T08:35:03Z</time>
      </trkpt>
      <trkpt lat="41.88388" lon="-0.77049">
        <time>2022-07-29T08:35:04Z</time>
      </trkpt>
      <trkpt lat="41.88414" lon="-0.77028">
        <time>2022-07-29T08:35:05Z</time>
      </trkpt>
      <trkpt lat="41.88441" lon="-0.77007">
        <time>2022-07-29T08:35:06Z</time>
      </trkpt>
      <trkpt lat="41.88469" lon="-0.76986">
        <time>2022-07-29T08:35:07Z</time>
      </trkpt>
      <trkpt lat="41.88496" lon="-0.76967">
        <time>2022-07-29T08:35:08Z</time>
      </trkpt>
      <trkpt lat="41.88525" lon="-0.76947">
        <time>2022-07-29T08:35:09Z</time>
      </trkpt>
      <trkpt lat="41.88553" lon="-0.7693">
        <time>2022-07-29T08:35:10Z</time>
      </trkpt>
      <trkpt lat="41.88581" lon="-0.76913">
        <time>2022-07-29T08:35:11Z</time>
      </trkpt>
      <trkpt lat="41.8861" lon="-0.76898">
        <time>2022-07-29T08:35:12Z</time>
      </trkpt>
      <trkpt lat="41.8864" lon="-0.76885">
        <time>2022-07-29T08:35:13Z</time>
      </trkpt>
      <trkpt lat="41.88669" lon="-0.76872">
        <time>2022-07-29T08:35:14Z</time>
      </trkpt>
      <trkpt lat="41.887" lon="-0.7686">
        <time>2022-07-29T08:35:15Z</time>
      </trkpt>
      <trkpt lat="41.8873" lon="-0.76849">
        <time>2022-07-29T08:35:16Z</time>
      </trkpt>
      <trkpt lat="41.8876" lon="-0.76839">
        <time>2022-07-29T08:35:17Z</time>
      </trkpt>
      <trkpt lat="41.8879" lon="-0.76829">
        <time>2022-07-29T08:35:18Z</time>
      </trkpt>
      <trkpt lat="41.88821" lon="-0.76819">
        <time>2022-07-29T08:35:19Z</time>
      </trkpt>
      <trkpt lat="41.88852" lon="-0.7681">
        <time>2022-07-29T08:35:20Z</time>
      </trkpt>
      <trkpt lat="41.88883" lon="-0.76802">
        <time>2022-07-29T08:35:21Z</time>
      </trkpt>
      <trkpt lat="41.88913" lon="-0.76794">
        <time>2022-07-29T08:35:22Z</time>
      </trkpt>
      <trkpt lat="41.88944" lon="-0.76785">
        <time>2022-07-29T08:35:23Z</time>
      </trkpt>
      <trkpt lat="41.88975" lon="-0.76777">
        <time>2022-07-29T08:35:24Z</time>
      </trkpt>
      <trkpt lat="41.89007" lon="-0.76769">
        <time>2022-07-29T08:35:25Z</time>
      </trkpt>
      <trkpt lat="41.89038" lon="-0.7676">
        <time>2022-07-29T08:35:26Z</time>
      </trkpt>
      <trkpt lat="41.89069" lon="-0.76751">
        <time>2022-07-29T08:35:27Z</time>
      </trkpt>
      <trkpt lat="41.891" lon="-0.76743">
        <time>2022-07-29T08:35:28Z</time>
      </trkpt>
      <trkpt lat="41.89131" lon="-0.76734">
        <time>2022-07-29T08:35:29Z</time>
      </trkpt>
      <trkpt lat="41.89162" lon="-0.76725">
        <time>2022-07-29T08:35:30Z</time>
      </trkpt>
      <trkpt lat="41.89194" lon="-0.76717">
        <time>2022-07-29T08:35:31Z</time>
      </trkpt>
      <trkpt lat="41.89225" lon="-0.76708">
        <time>2022-07-29T08:35:32Z</time>
      </trkpt>
      <trkpt lat="41.89256" lon="-0.76699">
        <time>2022-07-29T08:35:33Z</time>
      </trkpt>
      <trkpt lat="41.89288" lon="-0.7669">
        <time>2022-07-29T08:35:34Z</time>
      </trkpt>
      <trkpt lat="41.89319" lon="-0.76682">
        <time>2022-07-29T08:35:35Z</time>
      </trkpt>
      <trkpt lat="41.89351" lon="-0.76674">
        <time>2022-07-29T08:35:36Z</time>
      </trkpt>
      <trkpt lat="41.89383" lon="-0.76665">
        <time>2022-07-29T08:35:37Z</time>
      </trkpt>
      <trkpt lat="41.89414" lon="-0.76656">
        <time>2022-07-29T08:35:38Z</time>
      </trkpt>
      <trkpt lat="41.89446" lon="-0.76647">
        <time>2022-07-29T08:35:39Z</time>
      </trkpt>
      <trkpt lat="41.89478" lon="-0.76639">
        <time>2022-07-29T08:35:40Z</time>
      </trkpt>
      <trkpt lat="41.8951" lon="-0.7663">
        <time>2022-07-29T08:35:41Z</time>
      </trkpt>
      <trkpt lat="41.89541" lon="-0.76621">
        <time>2022-07-29T08:35:42Z</time>
      </trkpt>
      <trkpt lat="41.89573" lon="-0.76612">
        <time>2022-07-29T08:35:43Z</time>
      </trkpt>
      <trkpt lat="41.89605" lon="-0.76603">
        <time>2022-07-29T08:35:44Z</time>
      </trkpt>
      <trkpt lat="41.89637" lon="-0.76593">
        <time>2022-07-29T08:35:45Z</time>
      </trkpt>
      <trkpt lat="41.89669" lon="-0.76582">
        <time>2022-07-29T08:35:46Z</time>
      </trkpt>
      <trkpt lat="41.89701" lon="-0.7657">
        <time>2022-07-29T08:35:47Z</time>
      </trkpt>
      <trkpt lat="41.89734" lon="-0.76556">
        <time>2022-07-29T08:35:48Z</time>
      </trkpt>
      <trkpt lat="41.89766" lon="-0.76541">
        <time>2022-07-29T08:35:49Z</time>
      </trkpt>
      <trkpt lat="41.89798" lon="-0.76526">
        <time>2022-07-29T08:35:50Z</time>
      </trkpt>
      <trkpt lat="41.8983" lon="-0.76509">
        <time>2022-07-29T08:35:51Z</time>
      </trkpt>
      <trkpt lat="41.89862" lon="-0.76491">
        <time>2022-07-29T08:35:52Z</time>
      </trkpt>
      <trkpt lat="41.89894" lon="-0.76472">
        <time>2022-07-29T08:35:53Z</time>
      </trkpt>
      <trkpt lat="41.89925" lon="-0.76452">
        <time>2022-07-29T08:35:54Z</time>
      </trkpt>
      <trkpt lat="41.89956" lon="-0.76432">
        <time>2022-07-29T08:35:55Z</time>
      </trkpt>
      <trkpt lat="41.89987" lon="-0.76411">
        <time>2022-07-29T08:35:56Z</time>
      </trkpt>
      <trkpt lat="41.90018" lon="-0.76391">
        <time>2022-07-29T08:35:57Z</time>
      </trkpt>
      <trkpt lat="41.9005" lon="-0.7637">
        <time>2022-07-29T08:35:58Z</time>
      </trkpt>
      <trkpt lat="41.90081" lon="-0.76351">
        <time>2022-07-29T08:35:59Z</time>
      </trkpt>
      <trkpt lat="41.90113" lon="-0.76331">
        <time>2022-07-29T08:36:00Z</time>
      </trkpt>
      <trkpt lat="41.90145" lon="-0.76312">
        <time>2022-07-29T08:36:01Z</time>
      </trkpt>
      <trkpt lat="41.90176" lon="-0.76292">
        <time>2022-07-29T08:36:02Z</time>
      </trkpt>
      <trkpt lat="41.90208" lon="-0.76272">
        <time>2022-07-29T08:36:03Z</time>
      </trkpt>
      <trkpt lat="41.9024" lon="-0.76251">
        <time>2022-07-29T08:36:04Z</time>
      </trkpt>
      <trkpt lat="41.90271" lon="-0.7623">
        <time>2022-07-29T08:36:05Z</time>
      </trkpt>
      <trkpt lat="41.90302" lon="-0.76209">
        <time>2022-07-29T08:36:06Z</time>
      </trkpt>
      <trkpt lat="41.90333" lon="-0.76187">
        <time>2022-07-29T08:36:07Z</time>
      </trkpt>
      <trkpt lat="41.90364" lon="-0.76165">
        <time>2022-07-29T08:36:08Z</time>
      </trkpt>
      <trkpt lat="41.90394" lon="-0.76144">
        <time>2022-07-29T08:36:09Z</time>
      </trkpt>
      <trkpt lat="41.90425" lon="-0.76124">
        <time>2022-07-29T08:36:10Z</time>
      </trkpt>
      <trkpt lat="41.90455" lon="-0.76103">
        <time>2022-07-29T08:36:11Z</time>
      </trkpt>
      <trkpt lat="41.90486" lon="-0.76084">
        <time>2022-07-29T08:36:12Z</time>
      </trkpt>
      <trkpt lat="41.90516" lon="-0.76064">
        <time>2022-07-29T08:36:13Z</time>
      </trkpt>
      <trkpt lat="41.90546" lon="-0.76044">
        <time>2022-07-29T08:36:14Z</time>
      </trkpt>
      <trkpt lat="41.90577" lon="-0.76024">
        <time>2022-07-29T08:36:15Z</time>
      </trkpt>
      <trkpt lat="41.90607" lon="-0.76005">
        <time>2022-07-29T08:36:16Z</time>
      </trkpt>
      <trkpt lat="41.90638" lon="-0.75985">
        <time>2022-07-29T08:36:17Z</time>
      </trkpt>
      <trkpt lat="41.90668" lon="-0.75965">
        <time>2022-07-29T08:36:18Z</time>
      </trkpt>
      <trkpt lat="41.90698" lon="-0.75946">
        <time>2022-07-29T08:36:19Z</time>
      </trkpt>
      <trkpt lat="41.90728" lon="-0.75926">
        <time>2022-07-29T08:36:20Z</time>
      </trkpt>
      <trkpt lat="41.90758" lon="-0.75906">
        <time>2022-07-29T08:36:21Z</time>
      </trkpt>
      <trkpt lat="41.90788" lon="-0.75886">
        <time>2022-07-29T08:36:22Z</time>
      </trkpt>
      <trkpt lat="41.90818" lon="-0.75866">
        <time>2022-07-29T08:36:23Z</time>
      </trkpt>
      <trkpt lat="41.90848" lon="-0.75847">
        <time>2022-07-29T08:36:24Z</time>
      </trkpt>
      <trkpt lat="41.90878" lon="-0.75827">
        <time>2022-07-29T08:36:25Z</time>
      </trkpt>
      <trkpt lat="41.90907" lon="-0.75808">
        <time>2022-07-29T08:36:26Z</time>
      </trkpt>
      <trkpt lat="41.90937" lon="-0.75789">
        <time>2022-07-29T08:36:27Z</time>
      </trkpt>
      <trkpt lat="41.90967" lon="-0.75769">
        <time>2022-07-29T08:36:28Z</time>
      </trkpt>
      <trkpt lat="41.90996" lon="-0.75749">
        <time>2022-07-29T08:36:29Z</time>
      </trkpt>
      <trkpt lat="41.91025" lon="-0.75728">
        <time>2022-07-29T08:36:30Z</time>
      </trkpt>
      <trkpt lat="41.91054" lon="-0.75706">
        <time>2022-07-29T08:36:31Z</time>
      </trkpt>
      <trkpt lat="41.91083" lon="-0.75684">
        <time>2022-07-29T08:36:32Z</time>
      </trkpt>
      <trkpt lat="41.91111" lon="-0.7566">
        <time>2022-07-29T08:36:33Z</time>
      </trkpt>
      <trkpt lat="41.9114" lon="-0.75636">
        <time>2022-07-29T08:36:34Z</time>
      </trkpt>
      <trkpt lat="41.91167" lon="-0.75611">
        <time>2022-07-29T08:36:35Z</time>
      </trkpt>
      <trkpt lat="41.91195" lon="-0.75587">
        <time>2022-07-29T08:36:36Z</time>
      </trkpt>
      <trkpt lat="41.91223" lon="-0.75562">
        <time>2022-07-29T08:36:37Z</time>
      </trkpt>
      <trkpt lat="41.91251" lon="-0.75538">
        <time>2022-07-29T08:36:38Z</time>
      </trkpt>
      <trkpt lat="41.91279" lon="-0.75513">
        <time>2022-07-29T08:36:39Z</time>
      </trkpt>
      <trkpt lat="41.91308" lon="-0.75489">
        <time>2022-07-29T08:36:40Z</time>
      </trkpt>
      <trkpt lat="41.91336" lon="-0.75465">
        <time>2022-07-29T08:36:41Z</time>
      </trkpt>
      <trkpt lat="41.91365" lon="-0.75441">
        <time>2022-07-29T08:36:42Z</time>
      </trkpt>
      <trkpt lat="41.91394" lon="-0.75418">
        <time>2022-07-29T08:36:43Z</time>
      </trkpt>
      <trkpt lat="41.91424" lon="-0.75396">
        <time>2022-07-29T08:36:44Z</time>
      </trkpt>
      <trkpt lat="41.91453" lon="-0.75375">
        <time>2022-07-29T08:36:45Z</time>
      </trkpt>
      <trkpt lat="41.91483" lon="-0.75354">
        <time>2022-07-29T08:36:46Z</time>
      </trkpt>
      <trkpt lat="41.91514" lon="-0.75332">
        <time>2022-07-29T08:36:47Z</time>
      </trkpt>
      <trkpt lat="41.91545" lon="-0.75312">
        <time>2022-07-29T08:36:48Z</time>
      </trkpt>
      <trkpt lat="41.91575" lon="-0.75292">
        <time>2022-07-29T08:36:49Z</time>
      </trkpt>
      <trkpt lat="41.91605" lon="-0.75271">
        <time>2022-07-29T08:36:50Z</time>
      </trkpt>
      <trkpt lat="41.91636" lon="-0.75251">
        <time>2022-07-29T08:36:51Z</time>
      </trkpt>
      <trkpt lat="41.91666" lon="-0.75231">
        <time>2022-07-29T08:36:52Z</time>
      </trkpt>
      <trkpt lat="41.91696" lon="-0.75212">
        <time>2022-07-29T08:36:53Z</time>
      </trkpt>
      <trkpt lat="41.91727" lon="-0.75192">
        <time>2022-07-29T08:36:54Z</time>
      </trkpt>
      <trkpt lat="41.91756" lon="-0.75172">
        <time>2022-07-29T08:36:55Z</time>
      </trkpt>
      <trkpt lat="41.91786" lon="-0.75153">
        <time>2022-07-29T08:36:56Z</time>
      </trkpt>
      <trkpt lat="41.91815" lon="-0.75134">
        <time>2022-07-29T08:36:57Z</time>
      </trkpt>
      <trkpt lat="41.91843" lon="-0.75115">
        <time>2022-07-29T08:36:58Z</time>
      </trkpt>
      <trkpt lat="41.91872" lon="-0.75097">
        <time>2022-07-29T08:36:59Z</time>
      </trkpt>
      <trkpt lat="41.91901" lon="-0.75078">
        <time>2022-07-29T08:37:00Z</time>
      </trkpt>
      <trkpt lat="41.9193" lon="-0.75059">
        <time>2022-07-29T08:37:01Z</time>
      </trkpt>
      <trkpt lat="41.91958" lon="-0.7504">
        <time>2022-07-29T08:37:02Z</time>
      </trkpt>
      <trkpt lat="41.91987" lon="-0.75021">
        <time>2022-07-29T08:37:03Z</time>
      </trkpt>
      <trkpt lat="41.92016" lon="-0.75002">
        <time>2022-07-29T08:37:04Z</time>
      </trkpt>
      <trkpt lat="41.92045" lon="-0.74983">
        <time>2022-07-29T08:37:05Z</time>
      </trkpt>
      <trkpt lat="41.92074" lon="-0.74964">
        <time>2022-07-29T08:37:06Z</time>
      </trkpt>
      <trkpt lat="41.92104" lon="-0.74944">
        <time>2022-07-29T08:37:07Z</time>
      </trkpt>
      <trkpt lat="41.92133" lon="-0.74925">
        <time>2022-07-29T08:37:08Z</time>
      </trkpt>
      <trkpt lat="41.92163" lon="-0.74905">
        <time>2022-07-29T08:37:09Z</time>
      </trkpt>
      <trkpt lat="41.92193" lon="-0.74886">
        <time>2022-07-29T08:37:10Z</time>
      </trkpt>
      <trkpt lat="41.92222" lon="-0.74866">
        <time>2022-07-29T08:37:11Z</time>
      </trkpt>
      <trkpt lat="41.92252" lon="-0.74846">
        <time>2022-07-29T08:37:12Z</time>
      </trkpt>
      <trkpt lat="41.92282" lon="-0.74826">
        <time>2022-07-29T08:37:13Z</time>
      </trkpt>
      <trkpt lat="41.92312" lon="-0.74806">
        <time>2022-07-29T08:37:14Z</time>
      </trkpt>
      <trkpt lat="41.92343" lon="-0.74787">
        <time>2022-07-29T08:37:15Z</time>
      </trkpt>
      <trkpt lat="41.92373" lon="-0.74767">
        <time>2022-07-29T08:37:16Z</time>
      </trkpt>
      <trkpt lat="41.92403" lon="-0.74747">
        <time>2022-07-29T08:37:17Z</time>
      </trkpt>
      <trkpt lat="41.92434" lon="-0.74728">
        <time>2022-07-29T08:37:18Z</time>
      </trkpt>
      <trkpt lat="41.92464" lon="-0.74708">
        <time>2022-07-29T08:37:19Z</time>
      </trkpt>
      <trkpt lat="41.92494" lon="-0.74688">
        <time>2022-07-29T08:37:20Z</time>
      </trkpt>
      <trkpt lat="41.92525" lon="-0.74668">
        <time>2022-07-29T08:37:21Z</time>
      </trkpt>
      <trkpt lat="41.92556" lon="-0.74647">
        <time>2022-07-29T08:37:22Z</time>
      </trkpt>
      <trkpt lat="41.92586" lon="-0.74627">
        <time>2022-07-29T08:37:23Z</time>
      </trkpt>
      <trkpt lat="41.92616" lon="-0.74607">
        <time>2022-07-29T08:37:24Z</time>
      </trkpt>
      <trkpt lat="41.92647" lon="-0.74587">
        <time>2022-07-29T08:37:25Z</time>
      </trkpt>
      <trkpt lat="41.92678" lon="-0.74566">
        <time>2022-07-29T08:37:26Z</time>
      </trkpt>
      <trkpt lat="41.92709" lon="-0.74546">
        <time>2022-07-29T08:37:27Z</time>
      </trkpt>
      <trkpt lat="41.92739" lon="-0.74527">
        <time>2022-07-29T08:37:28Z</time>
      </trkpt>
      <trkpt lat="41.9277" lon="-0.74506">
        <time>2022-07-29T08:37:29Z</time>
      </trkpt>
      <trkpt lat="41.928" lon="-0.74487">
        <time>2022-07-29T08:37:30Z</time>
      </trkpt>
      <trkpt lat="41.9283" lon="-0.74467">
        <time>2022-07-29T08:37:31Z</time>
      </trkpt>
      <trkpt lat="41.9286" lon="-0.74447">
        <time>2022-07-29T08:37:32Z</time>
      </trkpt>
      <trkpt lat="41.92891" lon="-0.74427">
        <time>2022-07-29T08:37:33Z</time>
      </trkpt>
      <trkpt lat="41.92922" lon="-0.74408">
        <time>2022-07-29T08:37:34Z</time>
      </trkpt>
      <trkpt lat="41.92953" lon="-0.7439">
        <time>2022-07-29T08:37:35Z</time>
      </trkpt>
      <trkpt lat="41.92984" lon="-0.74372">
        <time>2022-07-29T08:37:36Z</time>
      </trkpt>
      <trkpt lat="41.93015" lon="-0.74355">
        <time>2022-07-29T08:37:37Z</time>
      </trkpt>
      <trkpt lat="41.93047" lon="-0.74338">
        <time>2022-07-29T08:37:38Z</time>
      </trkpt>
      <trkpt lat="41.93079" lon="-0.74323">
        <time>2022-07-29T08:37:39Z</time>
      </trkpt>
      <trkpt lat="41.93112" lon="-0.74308">
        <time>2022-07-29T08:37:40Z</time>
      </trkpt>
      <trkpt lat="41.93144" lon="-0.74292">
        <time>2022-07-29T08:37:41Z</time>
      </trkpt>
      <trkpt lat="41.93176" lon="-0.74276">
        <time>2022-07-29T08:37:42Z</time>
      </trkpt>
      <trkpt lat="41.93208" lon="-0.7426">
        <time>2022-07-29T08:37:43Z</time>
      </trkpt>
      <trkpt lat="41.9324" lon="-0.74243">
        <time>2022-07-29T08:37:44Z</time>
      </trkpt>
      <trkpt lat="41.93272" lon="-0.74225">
        <time>2022-07-29T08:37:45Z</time>
      </trkpt>
      <trkpt lat="41.93305" lon="-0.74206">
        <time>2022-07-29T08:37:46Z</time>
      </trkpt>
      <trkpt lat="41.93337" lon="-0.74186">
        <time>2022-07-29T08:37:47Z</time>
      </trkpt>
      <trkpt lat="41.93369" lon="-0.74166">
        <time>2022-07-29T08:37:48Z</time>
      </trkpt>
      <trkpt lat="41.93401" lon="-0.74145">
        <time>2022-07-29T08:37:49Z</time>
      </trkpt>
      <trkpt lat="41.93434" lon="-0.74124">
        <time>2022-07-29T08:37:50Z</time>
      </trkpt>
      <trkpt lat="41.93465" lon="-0.74102">
        <time>2022-07-29T08:37:51Z</time>
      </trkpt>
      <trkpt lat="41.93497" lon="-0.74081">
        <time>2022-07-29T08:37:52Z</time>
      </trkpt>
      <trkpt lat="41.93529" lon="-0.7406">
        <time>2022-07-29T08:37:53Z</time>
      </trkpt>
      <trkpt lat="41.9356" lon="-0.74038">
        <time>2022-07-29T08:37:54Z</time>
      </trkpt>
      <trkpt lat="41.93592" lon="-0.74017">
        <time>2022-07-29T08:37:55Z</time>
      </trkpt>
      <trkpt lat="41.93623" lon="-0.73996">
        <time>2022-07-29T08:37:56Z</time>
      </trkpt>
      <trkpt lat="41.93654" lon="-0.73975">
        <time>2022-07-29T08:37:57Z</time>
      </trkpt>
      <trkpt lat="41.93685" lon="-0.73954">
        <time>2022-07-29T08:37:58Z</time>
      </trkpt>
      <trkpt lat="41.93716" lon="-0.73932">
        <time>2022-07-29T08:37:59Z</time>
      </trkpt>
      <trkpt lat="41.93748" lon="-0.73911">
        <time>2022-07-29T08:38:00Z</time>
      </trkpt>
      <trkpt lat="41.93779" lon="-0.7389">
        <time>2022-07-29T08:38:01Z</time>
      </trkpt>
      <trkpt lat="41.9381" lon="-0.73869">
        <time>2022-07-29T08:38:02Z</time>
      </trkpt>
      <trkpt lat="41.93842" lon="-0.73848">
        <time>2022-07-29T08:38:03Z</time>
      </trkpt>
      <trkpt lat="41.93873" lon="-0.73826">
        <time>2022-07-29T08:38:04Z</time>
      </trkpt>
      <trkpt lat="41.93904" lon="-0.73806">
        <time>2022-07-29T08:38:05Z</time>
      </trkpt>
      <trkpt lat="41.93935" lon="-0.73785">
        <time>2022-07-29T08:38:06Z</time>
      </trkpt>
      <trkpt lat="41.93966" lon="-0.73764">
        <time>2022-07-29T08:38:07Z</time>
      </trkpt>
      <trkpt lat="41.93997" lon="-0.73743">
        <time>2022-07-29T08:38:08Z</time>
      </trkpt>
      <trkpt lat="41.94028" lon="-0.73722">
        <time>2022-07-29T08:38:09Z</time>
      </trkpt>
      <trkpt lat="41.94058" lon="-0.737">
        <time>2022-07-29T08:38:10Z</time>
      </trkpt>
      <trkpt lat="41.94089" lon="-0.73679">
        <time>2022-07-29T08:38:11Z</time>
      </trkpt>
      <trkpt lat="41.94119" lon="-0.73658">
        <time>2022-07-29T08:38:12Z</time>
      </trkpt>
      <trkpt lat="41.9415" lon="-0.73637">
        <time>2022-07-29T08:38:13Z</time>
      </trkpt>
      <trkpt lat="41.94181" lon="-0.73616">
        <time>2022-07-29T08:38:14Z</time>
      </trkpt>
      <trkpt lat="41.94212" lon="-0.73594">
        <time>2022-07-29T08:38:15Z</time>
      </trkpt>
      <trkpt lat="41.94243" lon="-0.73573">
        <time>2022-07-29T08:38:16Z</time>
      </trkpt>
      <trkpt lat="41.94274" lon="-0.73552">
        <time>2022-07-29T08:38:17Z</time>
      </trkpt>
      <trkpt lat="41.94305" lon="-0.73531">
        <time>2022-07-29T08:38:18Z</time>
      </trkpt>
      <trkpt lat="41.94336" lon="-0.7351">
        <time>2022-07-29T08:38:19Z</time>
      </trkpt>
      <trkpt lat="41.94367" lon="-0.73489">
        <time>2022-07-29T08:38:20Z</time>
      </trkpt>
      <trkpt lat="41.94398" lon="-0.73468">
        <time>2022-07-29T08:38:21Z</time>
      </trkpt>
      <trkpt lat="41.94429" lon="-0.73447">
        <time>2022-07-29T08:38:22Z</time>
      </trkpt>
      <trkpt lat="41.94459" lon="-0.73426">
        <time>2022-07-29T08:38:23Z</time>
      </trkpt>
      <trkpt lat="41.94491" lon="-0.73405">
        <time>2022-07-29T08:38:24Z</time>
      </trkpt>
      <trkpt lat="41.94521" lon="-0.73385">
        <time>2022-07-29T08:38:25Z</time>
      </trkpt>
      <trkpt lat="41.94552" lon="-0.73364">
        <time>2022-07-29T08:38:26Z</time>
      </trkpt>
      <trkpt lat="41.94583" lon="-0.73343">
        <time>2022-07-29T08:38:27Z</time>
      </trkpt>
      <trkpt lat="41.94613" lon="-0.73322">
        <time>2022-07-29T08:38:28Z</time>
      </trkpt>
      <trkpt lat="41.94644" lon="-0.73302">
        <time>2022-07-29T08:38:29Z</time>
      </trkpt>
      <trkpt lat="41.94675" lon="-0.73281">
        <time>2022-07-29T08:38:30Z</time>
      </trkpt>
      <trkpt lat="41.94705" lon="-0.7326">
        <time>2022-07-29T08:38:31Z</time>
      </trkpt>
      <trkpt lat="41.94736" lon="-0.73239">
        <time>2022-07-29T08:38:32Z</time>
      </trkpt>
      <trkpt lat="41.94767" lon="-0.73218">
        <time>2022-07-29T08:38:33Z</time>
      </trkpt>
      <trkpt lat="41.94798" lon="-0.73197">
        <time>2022-07-29T08:38:34Z</time>
      </trkpt>
      <trkpt lat="41.94828" lon="-0.73177">
        <time>2022-07-29T08:38:35Z</time>
      </trkpt>
      <trkpt lat="41.94858" lon="-0.73157">
        <time>2022-07-29T08:38:36Z</time>
      </trkpt>
      <trkpt lat="41.94889" lon="-0.73136">
        <time>2022-07-29T08:38:37Z</time>
      </trkpt>
      <trkpt lat="41.94919" lon="-0.73115">
        <time>2022-07-29T08:38:38Z</time>
      </trkpt>
      <trkpt lat="41.9495" lon="-0.73095">
        <time>2022-07-29T08:38:39Z</time>
      </trkpt>
      <trkpt lat="41.94981" lon="-0.73074">
        <time>2022-07-29T08:38:40Z</time>
      </trkpt>
      <trkpt lat="41.95012" lon="-0.73053">
        <time>2022-07-29T08:38:41Z</time>
      </trkpt>
      <trkpt lat="41.95042" lon="-0.73032">
        <time>2022-07-29T08:38:42Z</time>
      </trkpt>
      <trkpt lat="41.95073" lon="-0.73011">
        <time>2022-07-29T08:38:43Z</time>
      </trkpt>
      <trkpt lat="41.95104" lon="-0.7299">
        <time>2022-07-29T08:38:44Z</time>
      </trkpt>
      <trkpt lat="41.95135" lon="-0.72969">
        <time>2022-07-29T08:38:45Z</time>
      </trkpt>
      <trkpt lat="41.95166" lon="-0.72949">
        <time>2022-07-29T08:38:46Z</time>
      </trkpt>
      <trkpt lat="41.95197" lon="-0.72928">
        <time>2022-07-29T08:38:47Z</time>
      </trkpt>
      <trkpt lat="41.95229" lon="-0.72907">
        <time>2022-07-29T08:38:48Z</time>
      </trkpt>
      <trkpt lat="41.9526" lon="-0.72887">
        <time>2022-07-29T08:38:49Z</time>
      </trkpt>
      <trkpt lat="41.95292" lon="-0.72867">
        <time>2022-07-29T08:38:50Z</time>
      </trkpt>
      <trkpt lat="41.95323" lon="-0.72847">
        <time>2022-07-29T08:38:51Z</time>
      </trkpt>
      <trkpt lat="41.95355" lon="-0.72826">
        <time>2022-07-29T08:38:52Z</time>
      </trkpt>
      <trkpt lat="41.95386" lon="-0.72805">
        <time>2022-07-29T08:38:53Z</time>
      </trkpt>
      <trkpt lat="41.95417" lon="-0.72784">
        <time>2022-07-29T08:38:54Z</time>
      </trkpt>
      <trkpt lat="41.95448" lon="-0.72763">
        <time>2022-07-29T08:38:55Z</time>
      </trkpt>
      <trkpt lat="41.95479" lon="-0.72742">
        <time>2022-07-29T08:38:56Z</time>
      </trkpt>
      <trkpt lat="41.95509" lon="-0.72721">
        <time>2022-07-29T08:38:57Z</time>
      </trkpt>
      <trkpt lat="41.9554" lon="-0.72699">
        <time>2022-07-29T08:38:58Z</time>
      </trkpt>
      <trkpt lat="41.9557" lon="-0.72676">
        <time>2022-07-29T08:38:59Z</time>
      </trkpt>
      <trkpt lat="41.95599" lon="-0.72653">
        <time>2022-07-29T08:39:00Z</time>
      </trkpt>
      <trkpt lat="41.95628" lon="-0.72629">
        <time>2022-07-29T08:39:01Z</time>
      </trkpt>
      <trkpt lat="41.95657" lon="-0.72605">
        <time>2022-07-29T08:39:02Z</time>
      </trkpt>
      <trkpt lat="41.95685" lon="-0.7258">
        <time>2022-07-29T08:39:03Z</time>
      </trkpt>
      <trkpt lat="41.95713" lon="-0.72554">
        <time>2022-07-29T08:39:04Z</time>
      </trkpt>
      <trkpt lat="41.95742" lon="-0.72528">
        <time>2022-07-29T08:39:05Z</time>
      </trkpt>
      <trkpt lat="41.95769" lon="-0.72501">
        <time>2022-07-29T08:39:06Z</time>
      </trkpt>
      <trkpt lat="41.95796" lon="-0.72474">
        <time>2022-07-29T08:39:07Z</time>
      </trkpt>
      <trkpt lat="41.95822" lon="-0.72446">
        <time>2022-07-29T08:39:08Z</time>
      </trkpt>
      <trkpt lat="41.95848" lon="-0.72416">
        <time>2022-07-29T08:39:09Z</time>
      </trkpt>
      <trkpt lat="41.95873" lon="-0.72387">
        <time>2022-07-29T08:39:10Z</time>
      </trkpt>
      <trkpt lat="41.95898" lon="-0.72356">
        <time>2022-07-29T08:39:11Z</time>
      </trkpt>
      <trkpt lat="41.95924" lon="-0.72325">
        <time>2022-07-29T08:39:12Z</time>
      </trkpt>
      <trkpt lat="41.95948" lon="-0.72294">
        <time>2022-07-29T08:39:13Z</time>
      </trkpt>
      <trkpt lat="41.95971" lon="-0.72263">
        <time>2022-07-29T08:39:14Z</time>
      </trkpt>
      <trkpt lat="41.95995" lon="-0.7223">
        <time>2022-07-29T08:39:15Z</time>
      </trkpt>
      <trkpt lat="41.96018" lon="-0.72197">
        <time>2022-07-29T08:39:16Z</time>
      </trkpt>
      <trkpt lat="41.9604" lon="-0.72164">
        <time>2022-07-29T08:39:17Z</time>
      </trkpt>
      <trkpt lat="41.96062" lon="-0.72129">
        <time>2022-07-29T08:39:18Z</time>
      </trkpt>
      <trkpt lat="41.96083" lon="-0.72095">
        <time>2022-07-29T08:39:19Z</time>
      </trkpt>
      <trkpt lat="41.96103" lon="-0.7206">
        <time>2022-07-29T08:39:20Z</time>
      </trkpt>
      <trkpt lat="41.96124" lon="-0.72024">
        <time>2022-07-29T08:39:21Z</time>
      </trkpt>
      <trkpt lat="41.96144" lon="-0.71988">
        <time>2022-07-29T08:39:22Z</time>
      </trkpt>
      <trkpt lat="41.96163" lon="-0.71952">
        <time>2022-07-29T08:39:23Z</time>
      </trkpt>
      <trkpt lat="41.96182" lon="-0.71916">
        <time>2022-07-29T08:39:24Z</time>
      </trkpt>
      <trkpt lat="41.96201" lon="-0.7188">
        <time>2022-07-29T08:39:25Z</time>
      </trkpt>
      <trkpt lat="41.9622" lon="-0.71843">
        <time>2022-07-29T08:39:26Z</time>
      </trkpt>
      <trkpt lat="41.96238" lon="-0.71806">
        <time>2022-07-29T08:39:27Z</time>
      </trkpt>
      <trkpt lat="41.96257" lon="-0.71769">
        <time>2022-07-29T08:39:28Z</time>
      </trkpt>
      <trkpt lat="41.96276" lon="-0.71733">
        <time>2022-07-29T08:39:29Z</time>
      </trkpt>
      <trkpt lat="41.96295" lon="-0.71696">
        <time>2022-07-29T08:39:30Z</time>
      </trkpt>
      <trkpt lat="41.96314" lon="-0.71659">
        <time>2022-07-29T08:39:31Z</time>
      </trkpt>
      <trkpt lat="41.96333" lon="-0.71623">
        <time>2022-07-29T08:39:32Z</time>
      </trkpt>
      <trkpt lat="41.96353" lon="-0.71585">
        <time>2022-07-29T08:39:33Z</time>
      </trkpt>
      <trkpt lat="41.96372" lon="-0.71549">
        <time>2022-07-29T08:39:34Z</time>
      </trkpt>
      <trkpt lat="41.96391" lon="-0.71511">
        <time>2022-07-29T08:39:35Z</time>
      </trkpt>
      <trkpt lat="41.9641" lon="-0.71474">
        <time>2022-07-29T08:39:36Z</time>
      </trkpt>
      <trkpt lat="41.9643" lon="-0.71438">
        <time>2022-07-29T08:39:37Z</time>
      </trkpt>
      <trkpt lat="41.9645" lon="-0.71402">
        <time>2022-07-29T08:39:38Z</time>
      </trkpt>
      <trkpt lat="41.9647" lon="-0.71366">
        <time>2022-07-29T08:39:39Z</time>
      </trkpt>
      <trkpt lat="41.96489" lon="-0.71329">
        <time>2022-07-29T08:39:40Z</time>
      </trkpt>
      <trkpt lat="41.96509" lon="-0.71293">
        <time>2022-07-29T08:39:41Z</time>
      </trkpt>
      <trkpt lat="41.96529" lon="-0.71257">
        <time>2022-07-29T08:39:42Z</time>
      </trkpt>
      <trkpt lat="41.96548" lon="-0.7122">
        <time>2022-07-29T08:39:43Z</time>
      </trkpt>
      <trkpt lat="41.96567" lon="-0.71183">
        <time>2022-07-29T08:39:44Z</time>
      </trkpt>
      <trkpt lat="41.96586" lon="-0.71147">
        <time>2022-07-29T08:39:45Z</time>
      </trkpt>
      <trkpt lat="41.96605" lon="-0.7111">
        <time>2022-07-29T08:39:46Z</time>
      </trkpt>
      <trkpt lat="41.96624" lon="-0.71073">
        <time>2022-07-29T08:39:47Z</time>
      </trkpt>
      <trkpt lat="41.96642" lon="-0.71036">
        <time>2022-07-29T08:39:48Z</time>
      </trkpt>
      <trkpt lat="41.96661" lon="-0.70999">
        <time>2022-07-29T08:39:49Z</time>
      </trkpt>
      <trkpt lat="41.9668" lon="-0.70962">
        <time>2022-07-29T08:39:50Z</time>
      </trkpt>
      <trkpt lat="41.96699" lon="-0.70925">
        <time>2022-07-29T08:39:51Z</time>
      </trkpt>
      <trkpt lat="41.96718" lon="-0.70889">
        <time>2022-07-29T08:39:52Z</time>
      </trkpt>
      <trkpt lat="41.96737" lon="-0.70853">
        <time>2022-07-29T08:39:53Z</time>
      </trkpt>
      <trkpt lat="41.96757" lon="-0.70816">
        <time>2022-07-29T08:39:54Z</time>
      </trkpt>
      <trkpt lat="41.96776" lon="-0.7078">
        <time>2022-07-29T08:39:55Z</time>
      </trkpt>
      <trkpt lat="41.96795" lon="-0.70743">
        <time>2022-07-29T08:39:56Z</time>
      </trkpt>
      <trkpt lat="41.96814" lon="-0.70706">
        <time>2022-07-29T08:39:57Z</time>
      </trkpt>
      <trkpt lat="41.96834" lon="-0.70669">
        <time>2022-07-29T08:39:58Z</time>
      </trkpt>
      <trkpt lat="41.96853" lon="-0.70631">
        <time>2022-07-29T08:39:59Z</time>
      </trkpt>
      <trkpt lat="41.96873" lon="-0.70594">
        <time>2022-07-29T08:40:00Z</time>
      </trkpt>
      <trkpt lat="41.96893" lon="-0.70557">
        <time>2022-07-29T08:40:01Z</time>
      </trkpt>
      <trkpt lat="41.96913" lon="-0.7052">
        <time>2022-07-29T08:40:02Z</time>
      </trkpt>
      <trkpt lat="41.96932" lon="-0.70482">
        <time>2022-07-29T08:40:03Z</time>
      </trkpt>
      <trkpt lat="41.96951" lon="-0.70445">
        <time>2022-07-29T08:40:04Z</time>
      </trkpt>
      <trkpt lat="41.96971" lon="-0.70407">
        <time>2022-07-29T08:40:05Z</time>
      </trkpt>
      <trkpt lat="41.96991" lon="-0.70369">
        <time>2022-07-29T08:40:06Z</time>
      </trkpt>
      <trkpt lat="41.97011" lon="-0.70332">
        <time>2022-07-29T08:40:07Z</time>
      </trkpt>
      <trkpt lat="41.9703" lon="-0.70294">
        <time>2022-07-29T08:40:08Z</time>
      </trkpt>
      <trkpt lat="41.9705" lon="-0.70255">
        <time>2022-07-29T08:40:09Z</time>
      </trkpt>
      <trkpt lat="41.9707" lon="-0.70218">
        <time>2022-07-29T08:40:10Z</time>
      </trkpt>
      <trkpt lat="41.9709" lon="-0.7018">
        <time>2022-07-29T08:40:11Z</time>
      </trkpt>
      <trkpt lat="41.97109" lon="-0.70142">
        <time>2022-07-29T08:40:12Z</time>
      </trkpt>
      <trkpt lat="41.97129" lon="-0.70104">
        <time>2022-07-29T08:40:13Z</time>
      </trkpt>
      <trkpt lat="41.97149" lon="-0.70067">
        <time>2022-07-29T08:40:14Z</time>
      </trkpt>
      <trkpt lat="41.97169" lon="-0.70029">
        <time>2022-07-29T08:40:15Z</time>
      </trkpt>
      <trkpt lat="41.97188" lon="-0.69992">
        <time>2022-07-29T08:40:16Z</time>
      </trkpt>
      <trkpt lat="41.97208" lon="-0.69955">
        <time>2022-07-29T08:40:17Z</time>
      </trkpt>
      <trkpt lat="41.97226" lon="-0.6992">
        <time>2022-07-29T08:40:18Z</time>
      </trkpt>
      <trkpt lat="41.97245" lon="-0.69884">
        <time>2022-07-29T08:40:19Z</time>
      </trkpt>
      <trkpt lat="41.97263" lon="-0.69849">
        <time>2022-07-29T08:40:20Z</time>
      </trkpt>
      <trkpt lat="41.97281" lon="-0.69814">
        <time>2022-07-29T08:40:21Z</time>
      </trkpt>
      <trkpt lat="41.973" lon="-0.69779">
        <time>2022-07-29T08:40:22Z</time>
      </trkpt>
      <trkpt lat="41.97318" lon="-0.69744">
        <time>2022-07-29T08:40:23Z</time>
      </trkpt>
      <trkpt lat="41.97335" lon="-0.6971">
        <time>2022-07-29T08:40:24Z</time>
      </trkpt>
      <trkpt lat="41.97353" lon="-0.69676">
        <time>2022-07-29T08:40:25Z</time>
      </trkpt>
      <trkpt lat="41.97371" lon="-0.69641">
        <time>2022-07-29T08:40:26Z</time>
      </trkpt>
      <trkpt lat="41.97389" lon="-0.69607">
        <time>2022-07-29T08:40:27Z</time>
      </trkpt>
      <trkpt lat="41.97407" lon="-0.69573">
        <time>2022-07-29T08:40:28Z</time>
      </trkpt>
      <trkpt lat="41.97425" lon="-0.69539">
        <time>2022-07-29T08:40:29Z</time>
      </trkpt>
      <trkpt lat="41.97444" lon="-0.69505">
        <time>2022-07-29T08:40:30Z</time>
      </trkpt>
      <trkpt lat="41.97462" lon="-0.69471">
        <time>2022-07-29T08:40:31Z</time>
      </trkpt>
      <trkpt lat="41.97481" lon="-0.69438">
        <time>2022-07-29T08:40:32Z</time>
      </trkpt>
      <trkpt lat="41.975" lon="-0.69404">
        <time>2022-07-29T08:40:33Z</time>
      </trkpt>
      <trkpt lat="41.9752" lon="-0.69372">
        <time>2022-07-29T08:40:34Z</time>
      </trkpt>
      <trkpt lat="41.9754" lon="-0.69341">
        <time>2022-07-29T08:40:35Z</time>
      </trkpt>
      <trkpt lat="41.9756" lon="-0.69309">
        <time>2022-07-29T08:40:36Z</time>
      </trkpt>
      <trkpt lat="41.97581" lon="-0.69279">
        <time>2022-07-29T08:40:37Z</time>
      </trkpt>
      <trkpt lat="41.97603" lon="-0.6925">
        <time>2022-07-29T08:40:38Z</time>
      </trkpt>
      <trkpt lat="41.97625" lon="-0.6922">
        <time>2022-07-29T08:40:39Z</time>
      </trkpt>
      <trkpt lat="41.97648" lon="-0.69192">
        <time>2022-07-29T08:40:40Z</time>
      </trkpt>
      <trkpt lat="41.97671" lon="-0.69165">
        <time>2022-07-29T08:40:41Z</time>
      </trkpt>
      <trkpt lat="41.97695" lon="-0.69138">
        <time>2022-07-29T08:40:42Z</time>
      </trkpt>
      <trkpt lat="41.9772" lon="-0.69112">
        <time>2022-07-29T08:40:43Z</time>
      </trkpt>
      <trkpt lat="41.97744" lon="-0.69086">
        <time>2022-07-29T08:40:44Z</time>
      </trkpt>
      <trkpt lat="41.97769" lon="-0.69061">
        <time>2022-07-29T08:40:45Z</time>
      </trkpt>
      <trkpt lat="41.97795" lon="-0.69037">
        <time>2022-07-29T08:40:46Z</time>
      </trkpt>
      <trkpt lat="41.9782" lon="-0.69013">
        <time>2022-07-29T08:40:47Z</time>
      </trkpt>
      <trkpt lat="41.97845" lon="-0.68988">
        <time>2022-07-29T08:40:48Z</time>
      </trkpt>
      <trkpt lat="41.9787" lon="-0.68963">
        <time>2022-07-29T08:40:49Z</time>
      </trkpt>
      <trkpt lat="41.97896" lon="-0.68939">
        <time>2022-07-29T08:40:50Z</time>
      </trkpt>
      <trkpt lat="41.97921" lon="-0.68914">
        <time>2022-07-29T08:40:51Z</time>
      </trkpt>
      <trkpt lat="41.97946" lon="-0.68889">
        <time>2022-07-29T08:40:52Z</time>
      </trkpt>
      <trkpt lat="41.9797" lon="-0.68863">
        <time>2022-07-29T08:40:53Z</time>
      </trkpt>
      <trkpt lat="41.97994" lon="-0.68836">
        <time>2022-07-29T08:40:54Z</time>
      </trkpt>
      <trkpt lat="41.98017" lon="-0.68809">
        <time>2022-07-29T08:40:55Z</time>
      </trkpt>
      <trkpt lat="41.9804" lon="-0.68781">
        <time>2022-07-29T08:40:56Z</time>
      </trkpt>
      <trkpt lat="41.98063" lon="-0.68752">
        <time>2022-07-29T08:40:57Z</time>
      </trkpt>
      <trkpt lat="41.98086" lon="-0.68722">
        <time>2022-07-29T08:40:58Z</time>
      </trkpt>
      <trkpt lat="41.98107" lon="-0.68693">
        <time>2022-07-29T08:40:59Z</time>
      </trkpt>
      <trkpt lat="41.98128" lon="-0.68662">
        <time>2022-07-29T08:41:00Z</time>
      </trkpt>
      <trkpt lat="41.98149" lon="-0.68632">
        <time>2022-07-29T08:41:01Z</time>
      </trkpt>
      <trkpt lat="41.98169" lon="-0.686">
        <time>2022-07-29T08:41:02Z</time>
      </trkpt>
      <trkpt lat="41.98188" lon="-0.68567">
        <time>2022-07-29T08:41:03Z</time>
      </trkpt>
      <trkpt lat="41.98206" lon="-0.68534">
        <time>2022-07-29T08:41:04Z</time>
      </trkpt>
      <trkpt lat="41.98225" lon="-0.685">
        <time>2022-07-29T08:41:05Z</time>
      </trkpt>
      <trkpt lat="41.98243" lon="-0.68466">
        <time>2022-07-29T08:41:06Z</time>
      </trkpt>
      <trkpt lat="41.9826" lon="-0.68431">
        <time>2022-07-29T08:41:07Z</time>
      </trkpt>
      <trkpt lat="41.98276" lon="-0.68396">
        <time>2022-07-29T08:41:08Z</time>
      </trkpt>
      <trkpt lat="41.98292" lon="-0.68359">
        <time>2022-07-29T08:41:09Z</time>
      </trkpt>
      <trkpt lat="41.98308" lon="-0.68323">
        <time>2022-07-29T08:41:10Z</time>
      </trkpt>
      <trkpt lat="41.98322" lon="-0.68286">
        <time>2022-07-29T08:41:11Z</time>
      </trkpt>
      <trkpt lat="41.98337" lon="-0.68249">
        <time>2022-07-29T08:41:12Z</time>
      </trkpt>
      <trkpt lat="41.98351" lon="-0.68211">
        <time>2022-07-29T08:41:13Z</time>
      </trkpt>
      <trkpt lat="41.98365" lon="-0.68173">
        <time>2022-07-29T08:41:14Z</time>
      </trkpt>
      <trkpt lat="41.9838" lon="-0.68136">
        <time>2022-07-29T08:41:15Z</time>
      </trkpt>
      <trkpt lat="41.98395" lon="-0.68098">
        <time>2022-07-29T08:41:16Z</time>
      </trkpt>
      <trkpt lat="41.9841" lon="-0.6806">
        <time>2022-07-29T08:41:17Z</time>
      </trkpt>
      <trkpt lat="41.98425" lon="-0.68022">
        <time>2022-07-29T08:41:18Z</time>
      </trkpt>
      <trkpt lat="41.98441" lon="-0.67984">
        <time>2022-07-29T08:41:19Z</time>
      </trkpt>
      <trkpt lat="41.98457" lon="-0.67945">
        <time>2022-07-29T08:41:20Z</time>
      </trkpt>
      <trkpt lat="41.98473" lon="-0.67907">
        <time>2022-07-29T08:41:21Z</time>
      </trkpt>
      <trkpt lat="41.9849" lon="-0.6787">
        <time>2022-07-29T08:41:22Z</time>
      </trkpt>
      <trkpt lat="41.98508" lon="-0.67833">
        <time>2022-07-29T08:41:23Z</time>
      </trkpt>
      <trkpt lat="41.98526" lon="-0.67796">
        <time>2022-07-29T08:41:24Z</time>
      </trkpt>
      <trkpt lat="41.98546" lon="-0.67759">
        <time>2022-07-29T08:41:25Z</time>
      </trkpt>
      <trkpt lat="41.98566" lon="-0.67722">
        <time>2022-07-29T08:41:26Z</time>
      </trkpt>
      <trkpt lat="41.98587" lon="-0.67686">
        <time>2022-07-29T08:41:27Z</time>
      </trkpt>
      <trkpt lat="41.98608" lon="-0.67649">
        <time>2022-07-29T08:41:28Z</time>
      </trkpt>
      <trkpt lat="41.9863" lon="-0.67614">
        <time>2022-07-29T08:41:29Z</time>
      </trkpt>
      <trkpt lat="41.98651" lon="-0.6758">
        <time>2022-07-29T08:41:30Z</time>
      </trkpt>
      <trkpt lat="41.98674" lon="-0.67546">
        <time>2022-07-29T08:41:31Z</time>
      </trkpt>
      <trkpt lat="41.98697" lon="-0.67513">
        <time>2022-07-29T08:41:32Z</time>
      </trkpt>
      <trkpt lat="41.9872" lon="-0.6748">
        <time>2022-07-29T08:41:33Z</time>
      </trkpt>
      <trkpt lat="41.98743" lon="-0.67448">
        <time>2022-07-29T08:41:34Z</time>
      </trkpt>
      <trkpt lat="41.98767" lon="-0.67416">
        <time>2022-07-29T08:41:35Z</time>
      </trkpt>
      <trkpt lat="41.98791" lon="-0.67385">
        <time>2022-07-29T08:41:36Z</time>
      </trkpt>
      <trkpt lat="41.98816" lon="-0.67354">
        <time>2022-07-29T08:41:37Z</time>
      </trkpt>
      <trkpt lat="41.9884" lon="-0.67323">
        <time>2022-07-29T08:41:38Z</time>
      </trkpt>
      <trkpt lat="41.98865" lon="-0.67293">
        <time>2022-07-29T08:41:39Z</time>
      </trkpt>
      <trkpt lat="41.9889" lon="-0.67263">
        <time>2022-07-29T08:41:40Z</time>
      </trkpt>
      <trkpt lat="41.98916" lon="-0.67233">
        <time>2022-07-29T08:41:41Z</time>
      </trkpt>
      <trkpt lat="41.98942" lon="-0.67204">
        <time>2022-07-29T08:41:42Z</time>
      </trkpt>
      <trkpt lat="41.98968" lon="-0.67174">
        <time>2022-07-29T08:41:43Z</time>
      </trkpt>
      <trkpt lat="41.98994" lon="-0.67145">
        <time>2022-07-29T08:41:44Z</time>
      </trkpt>
      <trkpt lat="41.99019" lon="-0.67115">
        <time>2022-07-29T08:41:45Z</time>
      </trkpt>
      <trkpt lat="41.99044" lon="-0.67086">
        <time>2022-07-29T08:41:46Z</time>
      </trkpt>
      <trkpt lat="41.9907" lon="-0.67056">
        <time>2022-07-29T08:41:47Z</time>
      </trkpt>
      <trkpt lat="41.99094" lon="-0.67025">
        <time>2022-07-29T08:41:48Z</time>
      </trkpt>
      <trkpt lat="41.99119" lon="-0.66995">
        <time>2022-07-29T08:41:49Z</time>
      </trkpt>
      <trkpt lat="41.99143" lon="-0.66963">
        <time>2022-07-29T08:41:50Z</time>
      </trkpt>
      <trkpt lat="41.99167" lon="-0.66931">
        <time>2022-07-29T08:41:51Z</time>
      </trkpt>
      <trkpt lat="41.9919" lon="-0.66897">
        <time>2022-07-29T08:41:52Z</time>
      </trkpt>
      <trkpt lat="41.99213" lon="-0.66864">
        <time>2022-07-29T08:41:53Z</time>
      </trkpt>
      <trkpt lat="41.99235" lon="-0.66829">
        <time>2022-07-29T08:41:54Z</time>
      </trkpt>
      <trkpt lat="41.99256" lon="-0.66795">
        <time>2022-07-29T08:41:55Z</time>
      </trkpt>
      <trkpt lat="41.99277" lon="-0.6676">
        <time>2022-07-29T08:41:56Z</time>
      </trkpt>
      <trkpt lat="41.99298" lon="-0.66724">
        <time>2022-07-29T08:41:57Z</time>
      </trkpt>
      <trkpt lat="41.99318" lon="-0.66688">
        <time>2022-07-29T08:41:58Z</time>
      </trkpt>
      <trkpt lat="41.99338" lon="-0.66652">
        <time>2022-07-29T08:41:59Z</time>
      </trkpt>
      <trkpt lat="41.99357" lon="-0.66615">
        <time>2022-07-29T08:42:00Z</time>
      </trkpt>
      <trkpt lat="41.99375" lon="-0.66577">
        <time>2022-07-29T08:42:01Z</time>
      </trkpt>
      <trkpt lat="41.99393" lon="-0.66539">
        <time>2022-07-29T08:42:02Z</time>
      </trkpt>
      <trkpt lat="41.99411" lon="-0.66501">
        <time>2022-07-29T08:42:03Z</time>
      </trkpt>
      <trkpt lat="41.99428" lon="-0.66462">
        <time>2022-07-29T08:42:04Z</time>
      </trkpt>
      <trkpt lat="41.99445" lon="-0.66422">
        <time>2022-07-29T08:42:05Z</time>
      </trkpt>
      <trkpt lat="41.99461" lon="-0.66383">
        <time>2022-07-29T08:42:06Z</time>
      </trkpt>
      <trkpt lat="41.99476" lon="-0.66343">
        <time>2022-07-29T08:42:07Z</time>
      </trkpt>
      <trkpt lat="41.99491" lon="-0.66302">
        <time>2022-07-29T08:42:08Z</time>
      </trkpt>
      <trkpt lat="41.99505" lon="-0.66262">
        <time>2022-07-29T08:42:09Z</time>
      </trkpt>
      <trkpt lat="41.99518" lon="-0.66221">
        <time>2022-07-29T08:42:10Z</time>
      </trkpt>
      <trkpt lat="41.99531" lon="-0.6618">
        <time>2022-07-29T08:42:11Z</time>
      </trkpt>
      <trkpt lat="41.99544" lon="-0.66138">
        <time>2022-07-29T08:42:12Z</time>
      </trkpt>
      <trkpt lat="41.99556" lon="-0.66096">
        <time>2022-07-29T08:42:13Z</time>
      </trkpt>
      <trkpt lat="41.99567" lon="-0.66054">
        <time>2022-07-29T08:42:14Z</time>
      </trkpt>
      <trkpt lat="41.99578" lon="-0.66012">
        <time>2022-07-29T08:42:15Z</time>
      </trkpt>
      <trkpt lat="41.99588" lon="-0.65969">
        <time>2022-07-29T08:42:16Z</time>
      </trkpt>
      <trkpt lat="41.99597" lon="-0.65926">
        <time>2022-07-29T08:42:17Z</time>
      </trkpt>
      <trkpt lat="41.99607" lon="-0.65883">
        <time>2022-07-29T08:42:18Z</time>
      </trkpt>
      <trkpt lat="41.99616" lon="-0.6584">
        <time>2022-07-29T08:42:19Z</time>
      </trkpt>
      <trkpt lat="41.99624" lon="-0.65796">
        <time>2022-07-29T08:42:20Z</time>
      </trkpt>
      <trkpt lat="41.99634" lon="-0.65753">
        <time>2022-07-29T08:42:21Z</time>
      </trkpt>
      <trkpt lat="41.99643" lon="-0.6571">
        <time>2022-07-29T08:42:22Z</time>
      </trkpt>
      <trkpt lat="41.99651" lon="-0.65667">
        <time>2022-07-29T08:42:23Z</time>
      </trkpt>
      <trkpt lat="41.9966" lon="-0.65623">
        <time>2022-07-29T08:42:24Z</time>
      </trkpt>
      <trkpt lat="41.9967" lon="-0.65579">
        <time>2022-07-29T08:42:25Z</time>
      </trkpt>
      <trkpt lat="41.99679" lon="-0.65537">
        <time>2022-07-29T08:42:26Z</time>
      </trkpt>
      <trkpt lat="41.99689" lon="-0.65494">
        <time>2022-07-29T08:42:27Z</time>
      </trkpt>
      <trkpt lat="41.997" lon="-0.65452">
        <time>2022-07-29T08:42:28Z</time>
      </trkpt>
      <trkpt lat="41.99711" lon="-0.65409">
        <time>2022-07-29T08:42:29Z</time>
      </trkpt>
      <trkpt lat="41.99723" lon="-0.65368">
        <time>2022-07-29T08:42:30Z</time>
      </trkpt>
      <trkpt lat="41.99735" lon="-0.65327">
        <time>2022-07-29T08:42:31Z</time>
      </trkpt>
      <trkpt lat="41.99749" lon="-0.65286">
        <time>2022-07-29T08:42:32Z</time>
      </trkpt>
      <trkpt lat="41.99764" lon="-0.65245">
        <time>2022-07-29T08:42:33Z</time>
      </trkpt>
      <trkpt lat="41.99779" lon="-0.65206">
        <time>2022-07-29T08:42:34Z</time>
      </trkpt>
      <trkpt lat="41.99795" lon="-0.65167">
        <time>2022-07-29T08:42:35Z</time>
      </trkpt>
      <trkpt lat="41.99812" lon="-0.65128">
        <time>2022-07-29T08:42:36Z</time>
      </trkpt>
      <trkpt lat="41.99829" lon="-0.6509">
        <time>2022-07-29T08:42:37Z</time>
      </trkpt>
      <trkpt lat="41.99847" lon="-0.65052">
        <time>2022-07-29T08:42:38Z</time>
      </trkpt>
      <trkpt lat="41.99865" lon="-0.65015">
        <time>2022-07-29T08:42:39Z</time>
      </trkpt>
      <trkpt lat="41.99884" lon="-0.64978">
        <time>2022-07-29T08:42:40Z</time>
      </trkpt>
      <trkpt lat="41.99903" lon="-0.64941">
        <time>2022-07-29T08:42:41Z</time>
      </trkpt>
      <trkpt lat="41.99921" lon="-0.64903">
        <time>2022-07-29T08:42:42Z</time>
      </trkpt>
      <trkpt lat="41.99939" lon="-0.64866">
        <time>2022-07-29T08:42:43Z</time>
      </trkpt>
      <trkpt lat="41.99958" lon="-0.64829">
        <time>2022-07-29T08:42:44Z</time>
      </trkpt>
      <trkpt lat="41.99977" lon="-0.64792">
        <time>2022-07-29T08:42:45Z</time>
      </trkpt>
      <trkpt lat="41.99996" lon="-0.64755">
        <time>2022-07-29T08:42:46Z</time>
      </trkpt>
      <trkpt lat="42.00015" lon="-0.64718">
        <time>2022-07-29T08:42:47Z</time>
      </trkpt>
      <trkpt lat="42.00035" lon="-0.64682">
        <time>2022-07-29T08:42:48Z</time>
      </trkpt>
      <trkpt lat="42.00054" lon="-0.64645">
        <time>2022-07-29T08:42:49Z</time>
      </trkpt>
      <trkpt lat="42.00074" lon="-0.64608">
        <time>2022-07-29T08:42:50Z</time>
      </trkpt>
      <trkpt lat="42.00093" lon="-0.64571">
        <time>2022-07-29T08:42:51Z</time>
      </trkpt>
      <trkpt lat="42.00113" lon="-0.64534">
        <time>2022-07-29T08:42:52Z</time>
      </trkpt>
      <trkpt lat="42.00132" lon="-0.64497">
        <time>2022-07-29T08:42:53Z</time>
      </trkpt>
      <trkpt lat="42.00151" lon="-0.64461">
        <time>2022-07-29T08:42:54Z</time>
      </trkpt>
      <trkpt lat="42.00171" lon="-0.64424">
        <time>2022-07-29T08:42:55Z</time>
      </trkpt>
      <trkpt lat="42.0019" lon="-0.64389">
        <time>2022-07-29T08:42:56Z</time>
      </trkpt>
      <trkpt lat="42.0021" lon="-0.64352">
        <time>2022-07-29T08:42:57Z</time>
      </trkpt>
      <trkpt lat="42.00229" lon="-0.64316">
        <time>2022-07-29T08:42:58Z</time>
      </trkpt>
      <trkpt lat="42.00248" lon="-0.64279">
        <time>2022-07-29T08:42:59Z</time>
      </trkpt>
      <trkpt lat="42.00267" lon="-0.64243">
        <time>2022-07-29T08:43:00Z</time>
      </trkpt>
      <trkpt lat="42.00286" lon="-0.64206">
        <time>2022-07-29T08:43:01Z</time>
      </trkpt>
      <trkpt lat="42.00305" lon="-0.64169">
        <time>2022-07-29T08:43:02Z</time>
      </trkpt>
      <trkpt lat="42.00324" lon="-0.64133">
        <time>2022-07-29T08:43:03Z</time>
      </trkpt>
      <trkpt lat="42.00344" lon="-0.64096">
        <time>2022-07-29T08:43:04Z</time>
      </trkpt>
      <trkpt lat="42.00363" lon="-0.64059">
        <time>2022-07-29T08:43:05Z</time>
      </trkpt>
      <trkpt lat="42.00382" lon="-0.64022">
        <time>2022-07-29T08:43:06Z</time>
      </trkpt>
      <trkpt lat="42.00401" lon="-0.63986">
        <time>2022-07-29T08:43:07Z</time>
      </trkpt>
      <trkpt lat="42.00421" lon="-0.63949">
        <time>2022-07-29T08:43:08Z</time>
      </trkpt>
      <trkpt lat="42.00441" lon="-0.63912">
        <time>2022-07-29T08:43:09Z</time>
      </trkpt>
      <trkpt lat="42.0046" lon="-0.63876">
        <time>2022-07-29T08:43:10Z</time>
      </trkpt>
      <trkpt lat="42.00479" lon="-0.63839">
        <time>2022-07-29T08:43:11Z</time>
      </trkpt>
      <trkpt lat="42.00498" lon="-0.63802">
        <time>2022-07-29T08:43:12Z</time>
      </trkpt>
      <trkpt lat="42.00518" lon="-0.63765">
        <time>2022-07-29T08:43:13Z</time>
      </trkpt>
      <trkpt lat="42.00537" lon="-0.63729">
        <time>2022-07-29T08:43:14Z</time>
      </trkpt>
      <trkpt lat="42.00556" lon="-0.63692">
        <time>2022-07-29T08:43:15Z</time>
      </trkpt>
      <trkpt lat="42.00575" lon="-0.63655">
        <time>2022-07-29T08:43:16Z</time>
      </trkpt>
      <trkpt lat="42.00595" lon="-0.63619">
        <time>2022-07-29T08:43:17Z</time>
      </trkpt>
      <trkpt lat="42.00614" lon="-0.63583">
        <time>2022-07-29T08:43:18Z</time>
      </trkpt>
      <trkpt lat="42.00633" lon="-0.63546">
        <time>2022-07-29T08:43:19Z</time>
      </trkpt>
      <trkpt lat="42.00653" lon="-0.6351">
        <time>2022-07-29T08:43:20Z</time>
      </trkpt>
      <trkpt lat="42.00672" lon="-0.63473">
        <time>2022-07-29T08:43:21Z</time>
      </trkpt>
      <trkpt lat="42.00691" lon="-0.63436">
        <time>2022-07-29T08:43:22Z</time>
      </trkpt>
      <trkpt lat="42.0071" lon="-0.63399">
        <time>2022-07-29T08:43:23Z</time>
      </trkpt>
      <trkpt lat="42.0073" lon="-0.63363">
        <time>2022-07-29T08:43:24Z</time>
      </trkpt>
      <trkpt lat="42.00749" lon="-0.63326">
        <time>2022-07-29T08:43:25Z</time>
      </trkpt>
      <trkpt lat="42.00769" lon="-0.63289">
        <time>2022-07-29T08:43:26Z</time>
      </trkpt>
      <trkpt lat="42.00788" lon="-0.63253">
        <time>2022-07-29T08:43:27Z</time>
      </trkpt>
      <trkpt lat="42.00807" lon="-0.63216">
        <time>2022-07-29T08:43:28Z</time>
      </trkpt>
      <trkpt lat="42.00827" lon="-0.6318">
        <time>2022-07-29T08:43:29Z</time>
      </trkpt>
      <trkpt lat="42.00846" lon="-0.63143">
        <time>2022-07-29T08:43:30Z</time>
      </trkpt>
      <trkpt lat="42.00865" lon="-0.63107">
        <time>2022-07-29T08:43:31Z</time>
      </trkpt>
      <trkpt lat="42.00884" lon="-0.6307">
        <time>2022-07-29T08:43:32Z</time>
      </trkpt>
      <trkpt lat="42.00903" lon="-0.63034">
        <time>2022-07-29T08:43:33Z</time>
      </trkpt>
      <trkpt lat="42.00923" lon="-0.62997">
        <time>2022-07-29T08:43:34Z</time>
      </trkpt>
      <trkpt lat="42.00942" lon="-0.6296">
        <time>2022-07-29T08:43:35Z</time>
      </trkpt>
      <trkpt lat="42.00962" lon="-0.62923">
        <time>2022-07-29T08:43:36Z</time>
      </trkpt>
      <trkpt lat="42.00981" lon="-0.62887">
        <time>2022-07-29T08:43:37Z</time>
      </trkpt>
      <trkpt lat="42.01001" lon="-0.62851">
        <time>2022-07-29T08:43:38Z</time>
      </trkpt>
      <trkpt lat="42.0102" lon="-0.62814">
        <time>2022-07-29T08:43:39Z</time>
      </trkpt>
      <trkpt lat="42.0104" lon="-0.62778">
        <time>2022-07-29T08:43:40Z</time>
      </trkpt>
      <trkpt lat="42.0106" lon="-0.62742">
        <time>2022-07-29T08:43:41Z</time>
      </trkpt>
      <trkpt lat="42.0108" lon="-0.62706">
        <time>2022-07-29T08:43:42Z</time>
      </trkpt>
      <trkpt lat="42.01099" lon="-0.62669">
        <time>2022-07-29T08:43:43Z</time>
      </trkpt>
      <trkpt lat="42.01118" lon="-0.62633">
        <time>2022-07-29T08:43:44Z</time>
      </trkpt>
      <trkpt lat="42.01138" lon="-0.62597">
        <time>2022-07-29T08:43:45Z</time>
      </trkpt>
      <trkpt lat="42.01158" lon="-0.62561">
        <time>2022-07-29T08:43:46Z</time>
      </trkpt>
      <trkpt lat="42.01178" lon="-0.62526">
        <time>2022-07-29T08:43:47Z</time>
      </trkpt>
      <trkpt lat="42.01198" lon="-0.6249">
        <time>2022-07-29T08:43:48Z</time>
      </trkpt>
      <trkpt lat="42.01218" lon="-0.62454">
        <time>2022-07-29T08:43:49Z</time>
      </trkpt>
      <trkpt lat="42.01238" lon="-0.62418">
        <time>2022-07-29T08:43:50Z</time>
      </trkpt>
      <trkpt lat="42.01258" lon="-0.62381">
        <time>2022-07-29T08:43:51Z</time>
      </trkpt>
      <trkpt lat="42.01278" lon="-0.62345">
        <time>2022-07-29T08:43:52Z</time>
      </trkpt>
      <trkpt lat="42.01298" lon="-0.62308">
        <time>2022-07-29T08:43:53Z</time>
      </trkpt>
      <trkpt lat="42.01318" lon="-0.6227">
        <time>2022-07-29T08:43:54Z</time>
      </trkpt>
      <trkpt lat="42.01338" lon="-0.62233">
        <time>2022-07-29T08:43:55Z</time>
      </trkpt>
      <trkpt lat="42.01358" lon="-0.62194">
        <time>2022-07-29T08:43:56Z</time>
      </trkpt>
      <trkpt lat="42.01379" lon="-0.62156">
        <time>2022-07-29T08:43:57Z</time>
      </trkpt>
      <trkpt lat="42.014" lon="-0.62117">
        <time>2022-07-29T08:43:58Z</time>
      </trkpt>
      <trkpt lat="42.01421" lon="-0.62079">
        <time>2022-07-29T08:43:59Z</time>
      </trkpt>
      <trkpt lat="42.01441" lon="-0.6204">
        <time>2022-07-29T08:44:00Z</time>
      </trkpt>
      <trkpt lat="42.01462" lon="-0.62002">
        <time>2022-07-29T08:44:01Z</time>
      </trkpt>
      <trkpt lat="42.01483" lon="-0.61963">
        <time>2022-07-29T08:44:02Z</time>
      </trkpt>
      <trkpt lat="42.01504" lon="-0.61923">
        <time>2022-07-29T08:44:03Z</time>
      </trkpt>
      <trkpt lat="42.01525" lon="-0.61884">
        <time>2022-07-29T08:44:04Z</time>
      </trkpt>
      <trkpt lat="42.01546" lon="-0.61845">
        <time>2022-07-29T08:44:05Z</time>
      </trkpt>
      <trkpt lat="42.01568" lon="-0.61805">
        <time>2022-07-29T08:44:06Z</time>
      </trkpt>
      <trkpt lat="42.01589" lon="-0.61765">
        <time>2022-07-29T08:44:07Z</time>
      </trkpt>
      <trkpt lat="42.0161" lon="-0.61724">
        <time>2022-07-29T08:44:08Z</time>
      </trkpt>
      <trkpt lat="42.01631" lon="-0.61683">
        <time>2022-07-29T08:44:09Z</time>
      </trkpt>
      <trkpt lat="42.01652" lon="-0.61642">
        <time>2022-07-29T08:44:10Z</time>
      </trkpt>
      <trkpt lat="42.01674" lon="-0.61601">
        <time>2022-07-29T08:44:11Z</time>
      </trkpt>
      <trkpt lat="42.01696" lon="-0.61561">
        <time>2022-07-29T08:44:12Z</time>
      </trkpt>
      <trkpt lat="42.01717" lon="-0.61521">
        <time>2022-07-29T08:44:13Z</time>
      </trkpt>
      <trkpt lat="42.01739" lon="-0.6148">
        <time>2022-07-29T08:44:14Z</time>
      </trkpt>
      <trkpt lat="42.01761" lon="-0.6144">
        <time>2022-07-29T08:44:15Z</time>
      </trkpt>
      <trkpt lat="42.01782" lon="-0.614">
        <time>2022-07-29T08:44:16Z</time>
      </trkpt>
      <trkpt lat="42.01804" lon="-0.6136">
        <time>2022-07-29T08:44:17Z</time>
      </trkpt>
      <trkpt lat="42.01825" lon="-0.6132">
        <time>2022-07-29T08:44:18Z</time>
      </trkpt>
      <trkpt lat="42.01847" lon="-0.61281">
        <time>2022-07-29T08:44:19Z</time>
      </trkpt>
      <trkpt lat="42.01868" lon="-0.61241">
        <time>2022-07-29T08:44:20Z</time>
      </trkpt>
      <trkpt lat="42.01889" lon="-0.61202">
        <time>2022-07-29T08:44:21Z</time>
      </trkpt>
      <trkpt lat="42.0191" lon="-0.61162">
        <time>2022-07-29T08:44:22Z</time>
      </trkpt>
      <trkpt lat="42.01931" lon="-0.61124">
        <time>2022-07-29T08:44:23Z</time>
      </trkpt>
      <trkpt lat="42.01952" lon="-0.61085">
        <time>2022-07-29T08:44:24Z</time>
      </trkpt>
      <trkpt lat="42.01973" lon="-0.61046">
        <time>2022-07-29T08:44:25Z</time>
      </trkpt>
      <trkpt lat="42.01994" lon="-0.61007">
        <time>2022-07-29T08:44:26Z</time>
      </trkpt>
      <trkpt lat="42.02015" lon="-0.60968">
        <time>2022-07-29T08:44:27Z</time>
      </trkpt>
      <trkpt lat="42.02036" lon="-0.60929">
        <time>2022-07-29T08:44:28Z</time>
      </trkpt>
      <trkpt lat="42.02057" lon="-0.6089">
        <time>2022-07-29T08:44:29Z</time>
      </trkpt>
      <trkpt lat="42.02078" lon="-0.60851">
        <time>2022-07-29T08:44:30Z</time>
      </trkpt>
      <trkpt lat="42.02099" lon="-0.60812">
        <time>2022-07-29T08:44:31Z</time>
      </trkpt>
      <trkpt lat="42.0212" lon="-0.60773">
        <time>2022-07-29T08:44:32Z</time>
      </trkpt>
      <trkpt lat="42.02141" lon="-0.60734">
        <time>2022-07-29T08:44:33Z</time>
      </trkpt>
      <trkpt lat="42.02163" lon="-0.60695">
        <time>2022-07-29T08:44:34Z</time>
      </trkpt>
      <trkpt lat="42.02185" lon="-0.60656">
        <time>2022-07-29T08:44:35Z</time>
      </trkpt>
      <trkpt lat="42.02206" lon="-0.60617">
        <time>2022-07-29T08:44:36Z</time>
      </trkpt>
      <trkpt lat="42.02228" lon="-0.60577">
        <time>2022-07-29T08:44:37Z</time>
      </trkpt>
      <trkpt lat="42.02249" lon="-0.60538">
        <time>2022-07-29T08:44:38Z</time>
      </trkpt>
      <trkpt lat="42.0227" lon="-0.60499">
        <time>2022-07-29T08:44:39Z</time>
      </trkpt>
      <trkpt lat="42.02292" lon="-0.6046">
        <time>2022-07-29T08:44:40Z</time>
      </trkpt>
      <trkpt lat="42.02313" lon="-0.60421">
        <time>2022-07-29T08:44:41Z</time>
      </trkpt>
      <trkpt lat="42.02335" lon="-0.60382">
        <time>2022-07-29T08:44:42Z</time>
      </trkpt>
      <trkpt lat="42.02356" lon="-0.60343">
        <time>2022-07-29T08:44:43Z</time>
      </trkpt>
      <trkpt lat="42.02377" lon="-0.60305">
        <time>2022-07-29T08:44:44Z</time>
      </trkpt>
      <trkpt lat="42.02398" lon="-0.60267">
        <time>2022-07-29T08:44:45Z</time>
      </trkpt>
      <trkpt lat="42.02419" lon="-0.6023">
        <time>2022-07-29T08:44:46Z</time>
      </trkpt>
      <trkpt lat="42.0244" lon="-0.60192">
        <time>2022-07-29T08:44:47Z</time>
      </trkpt>
      <trkpt lat="42.02462" lon="-0.60155">
        <time>2022-07-29T08:44:48Z</time>
      </trkpt>
      <trkpt lat="42.02482" lon="-0.60118">
        <time>2022-07-29T08:44:49Z</time>
      </trkpt>
      <trkpt lat="42.02503" lon="-0.60082">
        <time>2022-07-29T08:44:50Z</time>
      </trkpt>
      <trkpt lat="42.02524" lon="-0.60044">
        <time>2022-07-29T08:44:51Z</time>
      </trkpt>
      <trkpt lat="42.02545" lon="-0.60007">
        <time>2022-07-29T08:44:52Z</time>
      </trkpt>
      <trkpt lat="42.02566" lon="-0.5997">
        <time>2022-07-29T08:44:53Z</time>
      </trkpt>
      <trkpt lat="42.02587" lon="-0.59932">
        <time>2022-07-29T08:44:54Z</time>
      </trkpt>
      <trkpt lat="42.02608" lon="-0.59895">
        <time>2022-07-29T08:44:55Z</time>
      </trkpt>
      <trkpt lat="42.02628" lon="-0.59857">
        <time>2022-07-29T08:44:56Z</time>
      </trkpt>
      <trkpt lat="42.0265" lon="-0.5982">
        <time>2022-07-29T08:44:57Z</time>
      </trkpt>
      <trkpt lat="42.0267" lon="-0.59782">
        <time>2022-07-29T08:44:58Z</time>
      </trkpt>
      <trkpt lat="42.02691" lon="-0.59744">
        <time>2022-07-29T08:44:59Z</time>
      </trkpt>
      <trkpt lat="42.02712" lon="-0.59707">
        <time>2022-07-29T08:45:00Z</time>
      </trkpt>
      <trkpt lat="42.02732" lon="-0.59669">
        <time>2022-07-29T08:45:01Z</time>
      </trkpt>
      <trkpt lat="42.02753" lon="-0.59631">
        <time>2022-07-29T08:45:02Z</time>
      </trkpt>
      <trkpt lat="42.02774" lon="-0.59594">
        <time>2022-07-29T08:45:03Z</time>
      </trkpt>
      <trkpt lat="42.02794" lon="-0.59556">
        <time>2022-07-29T08:45:04Z</time>
      </trkpt>
      <trkpt lat="42.02815" lon="-0.59518">
        <time>2022-07-29T08:45:05Z</time>
      </trkpt>
      <trkpt lat="42.02835" lon="-0.59481">
        <time>2022-07-29T08:45:06Z</time>
      </trkpt>
      <trkpt lat="42.02856" lon="-0.59444">
        <time>2022-07-29T08:45:07Z</time>
      </trkpt>
      <trkpt lat="42.02876" lon="-0.59407">
        <time>2022-07-29T08:45:08Z</time>
      </trkpt>
      <trkpt lat="42.02897" lon="-0.5937">
        <time>2022-07-29T08:45:09Z</time>
      </trkpt>
      <trkpt lat="42.02917" lon="-0.59332">
        <time>2022-07-29T08:45:10Z</time>
      </trkpt>
      <trkpt lat="42.02937" lon="-0.59295">
        <time>2022-07-29T08:45:11Z</time>
      </trkpt>
      <trkpt lat="42.02957" lon="-0.59257">
        <time>2022-07-29T08:45:12Z</time>
      </trkpt>
      <trkpt lat="42.02976" lon="-0.5922">
        <time>2022-07-29T08:45:13Z</time>
      </trkpt>
      <trkpt lat="42.02996" lon="-0.59184">
        <time>2022-07-29T08:45:14Z</time>
      </trkpt>
      <trkpt lat="42.03015" lon="-0.59147">
        <time>2022-07-29T08:45:15Z</time>
      </trkpt>
      <trkpt lat="42.03035" lon="-0.59112">
        <time>2022-07-29T08:45:16Z</time>
      </trkpt>
      <trkpt lat="42.03054" lon="-0.59076">
        <time>2022-07-29T08:45:17Z</time>
      </trkpt>
      <trkpt lat="42.03073" lon="-0.5904">
        <time>2022-07-29T08:45:18Z</time>
      </trkpt>
      <trkpt lat="42.03092" lon="-0.59004">
        <time>2022-07-29T08:45:19Z</time>
      </trkpt>
      <trkpt lat="42.0311" lon="-0.58966">
        <time>2022-07-29T08:45:20Z</time>
      </trkpt>
      <trkpt lat="42.03126" lon="-0.58927">
        <time>2022-07-29T08:45:21Z</time>
      </trkpt>
      <trkpt lat="42.03141" lon="-0.58888">
        <time>2022-07-29T08:45:22Z</time>
      </trkpt>
      <trkpt lat="42.03156" lon="-0.58847">
        <time>2022-07-29T08:45:23Z</time>
      </trkpt>
      <trkpt lat="42.03169" lon="-0.58806">
        <time>2022-07-29T08:45:24Z</time>
      </trkpt>
      <trkpt lat="42.03181" lon="-0.58765">
        <time>2022-07-29T08:45:25Z</time>
      </trkpt>
      <trkpt lat="42.03192" lon="-0.58723">
        <time>2022-07-29T08:45:26Z</time>
      </trkpt>
      <trkpt lat="42.03202" lon="-0.5868">
        <time>2022-07-29T08:45:27Z</time>
      </trkpt>
      <trkpt lat="42.03211" lon="-0.58636">
        <time>2022-07-29T08:45:28Z</time>
      </trkpt>
      <trkpt lat="42.03218" lon="-0.58592">
        <time>2022-07-29T08:45:29Z</time>
      </trkpt>
      <trkpt lat="42.03225" lon="-0.58548">
        <time>2022-07-29T08:45:30Z</time>
      </trkpt>
      <trkpt lat="42.0323" lon="-0.58503">
        <time>2022-07-29T08:45:31Z</time>
      </trkpt>
      <trkpt lat="42.03234" lon="-0.58459">
        <time>2022-07-29T08:45:32Z</time>
      </trkpt>
      <trkpt lat="42.03236" lon="-0.58414">
        <time>2022-07-29T08:45:33Z</time>
      </trkpt>
      <trkpt lat="42.03238" lon="-0.58369">
        <time>2022-07-29T08:45:34Z</time>
      </trkpt>
      <trkpt lat="42.03239" lon="-0.58324">
        <time>2022-07-29T08:45:35Z</time>
      </trkpt>
      <trkpt lat="42.0324" lon="-0.58278">
        <time>2022-07-29T08:45:36Z</time>
      </trkpt>
      <trkpt lat="42.03241" lon="-0.58231">
        <time>2022-07-29T08:45:37Z</time>
      </trkpt>
      <trkpt lat="42.03242" lon="-0.58185">
        <time>2022-07-29T08:45:38Z</time>
      </trkpt>
      <trkpt lat="42.03244" lon="-0.58139">
        <time>2022-07-29T08:45:39Z</time>
      </trkpt>
      <trkpt lat="42.03247" lon="-0.58093">
        <time>2022-07-29T08:45:40Z</time>
      </trkpt>
      <trkpt lat="42.03251" lon="-0.58047">
        <time>2022-07-29T08:45:41Z</time>
      </trkpt>
      <trkpt lat="42.03257" lon="-0.58002">
        <time>2022-07-29T08:45:42Z</time>
      </trkpt>
      <trkpt lat="42.03264" lon="-0.57958">
        <time>2022-07-29T08:45:43Z</time>
      </trkpt>
      <trkpt lat="42.03271" lon="-0.57913">
        <time>2022-07-29T08:45:44Z</time>
      </trkpt>
      <trkpt lat="42.0328" lon="-0.5787">
        <time>2022-07-29T08:45:45Z</time>
      </trkpt>
      <trkpt lat="42.0329" lon="-0.57826">
        <time>2022-07-29T08:45:46Z</time>
      </trkpt>
      <trkpt lat="42.03301" lon="-0.57783">
        <time>2022-07-29T08:45:47Z</time>
      </trkpt>
      <trkpt lat="42.03314" lon="-0.57742">
        <time>2022-07-29T08:45:48Z</time>
      </trkpt>
      <trkpt lat="42.03327" lon="-0.577">
        <time>2022-07-29T08:45:49Z</time>
      </trkpt>
      <trkpt lat="42.03341" lon="-0.5766">
        <time>2022-07-29T08:45:50Z</time>
      </trkpt>
      <trkpt lat="42.03356" lon="-0.5762">
        <time>2022-07-29T08:45:51Z</time>
      </trkpt>
      <trkpt lat="42.03372" lon="-0.5758">
        <time>2022-07-29T08:45:52Z</time>
      </trkpt>
      <trkpt lat="42.0339" lon="-0.57541">
        <time>2022-07-29T08:45:53Z</time>
      </trkpt>
      <trkpt lat="42.03408" lon="-0.57503">
        <time>2022-07-29T08:45:54Z</time>
      </trkpt>
      <trkpt lat="42.03428" lon="-0.57467">
        <time>2022-07-29T08:45:55Z</time>
      </trkpt>
      <trkpt lat="42.03449" lon="-0.57432">
        <time>2022-07-29T08:45:56Z</time>
      </trkpt>
      <trkpt lat="42.03471" lon="-0.57398">
        <time>2022-07-29T08:45:57Z</time>
      </trkpt>
      <trkpt lat="42.03493" lon="-0.57366">
        <time>2022-07-29T08:45:58Z</time>
      </trkpt>
      <trkpt lat="42.03516" lon="-0.57335">
        <time>2022-07-29T08:45:59Z</time>
      </trkpt>
      <trkpt lat="42.03541" lon="-0.57305">
        <time>2022-07-29T08:46:00Z</time>
      </trkpt>
      <trkpt lat="42.03566" lon="-0.57276">
        <time>2022-07-29T08:46:01Z</time>
      </trkpt>
      <trkpt lat="42.03593" lon="-0.57249">
        <time>2022-07-29T08:46:02Z</time>
      </trkpt>
      <trkpt lat="42.03619" lon="-0.57223">
        <time>2022-07-29T08:46:03Z</time>
      </trkpt>
      <trkpt lat="42.03646" lon="-0.57197">
        <time>2022-07-29T08:46:04Z</time>
      </trkpt>
      <trkpt lat="42.03674" lon="-0.57172">
        <time>2022-07-29T08:46:05Z</time>
      </trkpt>
      <trkpt lat="42.03701" lon="-0.57147">
        <time>2022-07-29T08:46:06Z</time>
      </trkpt>
      <trkpt lat="42.03728" lon="-0.57121">
        <time>2022-07-29T08:46:07Z</time>
      </trkpt>
      <trkpt lat="42.03756" lon="-0.57097">
        <time>2022-07-29T08:46:08Z</time>
      </trkpt>
      <trkpt lat="42.03784" lon="-0.57072">
        <time>2022-07-29T08:46:09Z</time>
      </trkpt>
      <trkpt lat="42.03812" lon="-0.57048">
        <time>2022-07-29T08:46:10Z</time>
      </trkpt>
      <trkpt lat="42.0384" lon="-0.57024">
        <time>2022-07-29T08:46:11Z</time>
      </trkpt>
      <trkpt lat="42.03868" lon="-0.57">
        <time>2022-07-29T08:46:12Z</time>
      </trkpt>
      <trkpt lat="42.03896" lon="-0.56975">
        <time>2022-07-29T08:46:13Z</time>
      </trkpt>
      <trkpt lat="42.03924" lon="-0.5695">
        <time>2022-07-29T08:46:14Z</time>
      </trkpt>
      <trkpt lat="42.03952" lon="-0.56926">
        <time>2022-07-29T08:46:15Z</time>
      </trkpt>
      <trkpt lat="42.03979" lon="-0.569">
        <time>2022-07-29T08:46:16Z</time>
      </trkpt>
      <trkpt lat="42.04007" lon="-0.56874">
        <time>2022-07-29T08:46:17Z</time>
      </trkpt>
      <trkpt lat="42.04034" lon="-0.56848">
        <time>2022-07-29T08:46:18Z</time>
      </trkpt>
      <trkpt lat="42.04062" lon="-0.56822">
        <time>2022-07-29T08:46:19Z</time>
      </trkpt>
      <trkpt lat="42.04088" lon="-0.56795">
        <time>2022-07-29T08:46:20Z</time>
      </trkpt>
      <trkpt lat="42.04115" lon="-0.56767">
        <time>2022-07-29T08:46:21Z</time>
      </trkpt>
      <trkpt lat="42.04141" lon="-0.56739">
        <time>2022-07-29T08:46:22Z</time>
      </trkpt>
      <trkpt lat="42.04168" lon="-0.5671">
        <time>2022-07-29T08:46:23Z</time>
      </trkpt>
      <trkpt lat="42.04194" lon="-0.56682">
        <time>2022-07-29T08:46:24Z</time>
      </trkpt>
      <trkpt lat="42.04219" lon="-0.56653">
        <time>2022-07-29T08:46:25Z</time>
      </trkpt>
      <trkpt lat="42.04245" lon="-0.56623">
        <time>2022-07-29T08:46:26Z</time>
      </trkpt>
      <trkpt lat="42.04269" lon="-0.56594">
        <time>2022-07-29T08:46:27Z</time>
      </trkpt>
      <trkpt lat="42.04292" lon="-0.56565">
        <time>2022-07-29T08:46:28Z</time>
      </trkpt>
      <trkpt lat="42.04315" lon="-0.56537">
        <time>2022-07-29T08:46:29Z</time>
      </trkpt>
      <trkpt lat="42.04337" lon="-0.56508">
        <time>2022-07-29T08:46:30Z</time>
      </trkpt>
      <trkpt lat="42.04359" lon="-0.56478">
        <time>2022-07-29T08:46:31Z</time>
      </trkpt>
      <trkpt lat="42.04382" lon="-0.56446">
        <time>2022-07-29T08:46:32Z</time>
      </trkpt>
      <trkpt lat="42.04405" lon="-0.56414">
        <time>2022-07-29T08:46:33Z</time>
      </trkpt>
      <trkpt lat="42.04428" lon="-0.5638">
        <time>2022-07-29T08:46:34Z</time>
      </trkpt>
      <trkpt lat="42.04451" lon="-0.56345">
        <time>2022-07-29T08:46:35Z</time>
      </trkpt>
      <trkpt lat="42.04473" lon="-0.5631">
        <time>2022-07-29T08:46:36Z</time>
      </trkpt>
      <trkpt lat="42.04496" lon="-0.56274">
        <time>2022-07-29T08:46:37Z</time>
      </trkpt>
      <trkpt lat="42.04518" lon="-0.56238">
        <time>2022-07-29T08:46:38Z</time>
      </trkpt>
      <trkpt lat="42.0454" lon="-0.56201">
        <time>2022-07-29T08:46:39Z</time>
      </trkpt>
      <trkpt lat="42.04561" lon="-0.56165">
        <time>2022-07-29T08:46:40Z</time>
      </trkpt>
      <trkpt lat="42.04583" lon="-0.56128">
        <time>2022-07-29T08:46:41Z</time>
      </trkpt>
      <trkpt lat="42.04604" lon="-0.56092">
        <time>2022-07-29T08:46:42Z</time>
      </trkpt>
      <trkpt lat="42.04625" lon="-0.56055">
        <time>2022-07-29T08:46:43Z</time>
      </trkpt>
      <trkpt lat="42.04646" lon="-0.56018">
        <time>2022-07-29T08:46:44Z</time>
      </trkpt>
      <trkpt lat="42.04667" lon="-0.5598">
        <time>2022-07-29T08:46:45Z</time>
      </trkpt>
      <trkpt lat="42.04687" lon="-0.55943">
        <time>2022-07-29T08:46:46Z</time>
      </trkpt>
      <trkpt lat="42.04708" lon="-0.55906">
        <time>2022-07-29T08:46:47Z</time>
      </trkpt>
      <trkpt lat="42.04728" lon="-0.55869">
        <time>2022-07-29T08:46:48Z</time>
      </trkpt>
      <trkpt lat="42.04748" lon="-0.55833">
        <time>2022-07-29T08:46:49Z</time>
      </trkpt>
      <trkpt lat="42.04767" lon="-0.55797">
        <time>2022-07-29T08:46:50Z</time>
      </trkpt>
      <trkpt lat="42.04787" lon="-0.55761">
        <time>2022-07-29T08:46:51Z</time>
      </trkpt>
      <trkpt lat="42.04806" lon="-0.55725">
        <time>2022-07-29T08:46:52Z</time>
      </trkpt>
      <trkpt lat="42.04824" lon="-0.55688">
        <time>2022-07-29T08:46:53Z</time>
      </trkpt>
      <trkpt lat="42.04842" lon="-0.55652">
        <time>2022-07-29T08:46:54Z</time>
      </trkpt>
      <trkpt lat="42.04861" lon="-0.55616">
        <time>2022-07-29T08:46:55Z</time>
      </trkpt>
      <trkpt lat="42.0488" lon="-0.55579">
        <time>2022-07-29T08:46:56Z</time>
      </trkpt>
      <trkpt lat="42.04899" lon="-0.55543">
        <time>2022-07-29T08:46:57Z</time>
      </trkpt>
      <trkpt lat="42.04918" lon="-0.55507">
        <time>2022-07-29T08:46:58Z</time>
      </trkpt>
      <trkpt lat="42.04938" lon="-0.55471">
        <time>2022-07-29T08:46:59Z</time>
      </trkpt>
      <trkpt lat="42.04958" lon="-0.55434">
        <time>2022-07-29T08:47:00Z</time>
      </trkpt>
      <trkpt lat="42.04978" lon="-0.55398">
        <time>2022-07-29T08:47:01Z</time>
      </trkpt>
      <trkpt lat="42.04997" lon="-0.55362">
        <time>2022-07-29T08:47:02Z</time>
      </trkpt>
      <trkpt lat="42.05017" lon="-0.55326">
        <time>2022-07-29T08:47:03Z</time>
      </trkpt>
      <trkpt lat="42.05036" lon="-0.5529">
        <time>2022-07-29T08:47:04Z</time>
      </trkpt>
      <trkpt lat="42.05055" lon="-0.55255">
        <time>2022-07-29T08:47:05Z</time>
      </trkpt>
      <trkpt lat="42.05075" lon="-0.55218">
        <time>2022-07-29T08:47:06Z</time>
      </trkpt>
      <trkpt lat="42.05094" lon="-0.55182">
        <time>2022-07-29T08:47:07Z</time>
      </trkpt>
      <trkpt lat="42.05114" lon="-0.55147">
        <time>2022-07-29T08:47:08Z</time>
      </trkpt>
      <trkpt lat="42.05133" lon="-0.55111">
        <time>2022-07-29T08:47:09Z</time>
      </trkpt>
      <trkpt lat="42.05153" lon="-0.55075">
        <time>2022-07-29T08:47:10Z</time>
      </trkpt>
      <trkpt lat="42.05172" lon="-0.55039">
        <time>2022-07-29T08:47:11Z</time>
      </trkpt>
      <trkpt lat="42.05192" lon="-0.55002">
        <time>2022-07-29T08:47:12Z</time>
      </trkpt>
      <trkpt lat="42.05211" lon="-0.54966">
        <time>2022-07-29T08:47:13Z</time>
      </trkpt>
      <trkpt lat="42.0523" lon="-0.5493">
        <time>2022-07-29T08:47:14Z</time>
      </trkpt>
      <trkpt lat="42.0525" lon="-0.54895">
        <time>2022-07-29T08:47:15Z</time>
      </trkpt>
      <trkpt lat="42.0527" lon="-0.54859">
        <time>2022-07-29T08:47:16Z</time>
      </trkpt>
      <trkpt lat="42.05289" lon="-0.54823">
        <time>2022-07-29T08:47:17Z</time>
      </trkpt>
      <trkpt lat="42.05309" lon="-0.54787">
        <time>2022-07-29T08:47:18Z</time>
      </trkpt>
      <trkpt lat="42.05329" lon="-0.54751">
        <time>2022-07-29T08:47:19Z</time>
      </trkpt>
      <trkpt lat="42.05349" lon="-0.54715">
        <time>2022-07-29T08:47:20Z</time>
      </trkpt>
      <trkpt lat="42.05369" lon="-0.5468">
        <time>2022-07-29T08:47:21Z</time>
      </trkpt>
      <trkpt lat="42.05388" lon="-0.54644">
        <time>2022-07-29T08:47:22Z</time>
      </trkpt>
      <trkpt lat="42.05408" lon="-0.54608">
        <time>2022-07-29T08:47:23Z</time>
      </trkpt>
      <trkpt lat="42.05428" lon="-0.54572">
        <time>2022-07-29T08:47:24Z</time>
      </trkpt>
      <trkpt lat="42.05447" lon="-0.54537">
        <time>2022-07-29T08:47:25Z</time>
      </trkpt>
      <trkpt lat="42.05466" lon="-0.54501">
        <time>2022-07-29T08:47:26Z</time>
      </trkpt>
      <trkpt lat="42.05486" lon="-0.54465">
        <time>2022-07-29T08:47:27Z</time>
      </trkpt>
      <trkpt lat="42.05505" lon="-0.54429">
        <time>2022-07-29T08:47:28Z</time>
      </trkpt>
      <trkpt lat="42.05524" lon="-0.54393">
        <time>2022-07-29T08:47:29Z</time>
      </trkpt>
      <trkpt lat="42.05543" lon="-0.54356">
        <time>2022-07-29T08:47:30Z</time>
      </trkpt>
      <trkpt lat="42.05562" lon="-0.54319">
        <time>2022-07-29T08:47:31Z</time>
      </trkpt>
      <trkpt lat="42.0558" lon="-0.54282">
        <time>2022-07-29T08:47:32Z</time>
      </trkpt>
      <trkpt lat="42.05598" lon="-0.54245">
        <time>2022-07-29T08:47:33Z</time>
      </trkpt>
      <trkpt lat="42.05616" lon="-0.54207">
        <time>2022-07-29T08:47:34Z</time>
      </trkpt>
      <trkpt lat="42.05634" lon="-0.5417">
        <time>2022-07-29T08:47:35Z</time>
      </trkpt>
      <trkpt lat="42.05651" lon="-0.54131">
        <time>2022-07-29T08:47:36Z</time>
      </trkpt>
      <trkpt lat="42.05667" lon="-0.54093">
        <time>2022-07-29T08:47:37Z</time>
      </trkpt>
      <trkpt lat="42.05683" lon="-0.54055">
        <time>2022-07-29T08:47:38Z</time>
      </trkpt>
      <trkpt lat="42.05698" lon="-0.54015">
        <time>2022-07-29T08:47:39Z</time>
      </trkpt>
      <trkpt lat="42.05713" lon="-0.53976">
        <time>2022-07-29T08:47:40Z</time>
      </trkpt>
      <trkpt lat="42.05727" lon="-0.53936">
        <time>2022-07-29T08:47:41Z</time>
      </trkpt>
      <trkpt lat="42.05741" lon="-0.53896">
        <time>2022-07-29T08:47:42Z</time>
      </trkpt>
      <trkpt lat="42.05754" lon="-0.53855">
        <time>2022-07-29T08:47:43Z</time>
      </trkpt>
      <trkpt lat="42.05767" lon="-0.53814">
        <time>2022-07-29T08:47:44Z</time>
      </trkpt>
      <trkpt lat="42.0578" lon="-0.53773">
        <time>2022-07-29T08:47:45Z</time>
      </trkpt>
      <trkpt lat="42.05793" lon="-0.53732">
        <time>2022-07-29T08:47:46Z</time>
      </trkpt>
      <trkpt lat="42.05807" lon="-0.53691">
        <time>2022-07-29T08:47:47Z</time>
      </trkpt>
      <trkpt lat="42.0582" lon="-0.53649">
        <time>2022-07-29T08:47:48Z</time>
      </trkpt>
      <trkpt lat="42.05834" lon="-0.53607">
        <time>2022-07-29T08:47:49Z</time>
      </trkpt>
      <trkpt lat="42.05847" lon="-0.53566">
        <time>2022-07-29T08:47:50Z</time>
      </trkpt>
      <trkpt lat="42.05861" lon="-0.53524">
        <time>2022-07-29T08:47:51Z</time>
      </trkpt>
      <trkpt lat="42.05875" lon="-0.53484">
        <time>2022-07-29T08:47:52Z</time>
      </trkpt>
      <trkpt lat="42.0589" lon="-0.53444">
        <time>2022-07-29T08:47:53Z</time>
      </trkpt>
      <trkpt lat="42.05906" lon="-0.53404">
        <time>2022-07-29T08:47:54Z</time>
      </trkpt>
      <trkpt lat="42.05922" lon="-0.53365">
        <time>2022-07-29T08:47:55Z</time>
      </trkpt>
      <trkpt lat="42.05938" lon="-0.53327">
        <time>2022-07-29T08:47:56Z</time>
      </trkpt>
      <trkpt lat="42.05955" lon="-0.53289">
        <time>2022-07-29T08:47:57Z</time>
      </trkpt>
      <trkpt lat="42.05973" lon="-0.53252">
        <time>2022-07-29T08:47:58Z</time>
      </trkpt>
      <trkpt lat="42.05991" lon="-0.53214">
        <time>2022-07-29T08:47:59Z</time>
      </trkpt>
      <trkpt lat="42.06009" lon="-0.53178">
        <time>2022-07-29T08:48:00Z</time>
      </trkpt>
      <trkpt lat="42.06029" lon="-0.53143">
        <time>2022-07-29T08:48:01Z</time>
      </trkpt>
      <trkpt lat="42.0605" lon="-0.53109">
        <time>2022-07-29T08:48:02Z</time>
      </trkpt>
      <trkpt lat="42.06071" lon="-0.53075">
        <time>2022-07-29T08:48:03Z</time>
      </trkpt>
      <trkpt lat="42.06093" lon="-0.53041">
        <time>2022-07-29T08:48:04Z</time>
      </trkpt>
      <trkpt lat="42.06116" lon="-0.53008">
        <time>2022-07-29T08:48:05Z</time>
      </trkpt>
      <trkpt lat="42.06138" lon="-0.52975">
        <time>2022-07-29T08:48:06Z</time>
      </trkpt>
      <trkpt lat="42.06161" lon="-0.52941">
        <time>2022-07-29T08:48:07Z</time>
      </trkpt>
      <trkpt lat="42.06183" lon="-0.52908">
        <time>2022-07-29T08:48:08Z</time>
      </trkpt>
      <trkpt lat="42.06205" lon="-0.52875">
        <time>2022-07-29T08:48:09Z</time>
      </trkpt>
      <trkpt lat="42.06227" lon="-0.52841">
        <time>2022-07-29T08:48:10Z</time>
      </trkpt>
      <trkpt lat="42.06249" lon="-0.52808">
        <time>2022-07-29T08:48:11Z</time>
      </trkpt>
      <trkpt lat="42.0627" lon="-0.52775">
        <time>2022-07-29T08:48:12Z</time>
      </trkpt>
      <trkpt lat="42.06292" lon="-0.52742">
        <time>2022-07-29T08:48:13Z</time>
      </trkpt>
      <trkpt lat="42.06313" lon="-0.52708">
        <time>2022-07-29T08:48:14Z</time>
      </trkpt>
      <trkpt lat="42.06334" lon="-0.52674">
        <time>2022-07-29T08:48:15Z</time>
      </trkpt>
      <trkpt lat="42.06355" lon="-0.5264">
        <time>2022-07-29T08:48:16Z</time>
      </trkpt>
      <trkpt lat="42.06376" lon="-0.52606">
        <time>2022-07-29T08:48:17Z</time>
      </trkpt>
      <trkpt lat="42.06397" lon="-0.52571">
        <time>2022-07-29T08:48:18Z</time>
      </trkpt>
      <trkpt lat="42.06417" lon="-0.52536">
        <time>2022-07-29T08:48:19Z</time>
      </trkpt>
      <trkpt lat="42.06437" lon="-0.52499">
        <time>2022-07-29T08:48:20Z</time>
      </trkpt>
      <trkpt lat="42.06456" lon="-0.52463">
        <time>2022-07-29T08:48:21Z</time>
      </trkpt>
      <trkpt lat="42.06475" lon="-0.52427">
        <time>2022-07-29T08:48:22Z</time>
      </trkpt>
      <trkpt lat="42.06493" lon="-0.5239">
        <time>2022-07-29T08:48:23Z</time>
      </trkpt>
      <trkpt lat="42.06512" lon="-0.52352">
        <time>2022-07-29T08:48:24Z</time>
      </trkpt>
      <trkpt lat="42.0653" lon="-0.52314">
        <time>2022-07-29T08:48:25Z</time>
      </trkpt>
      <trkpt lat="42.06547" lon="-0.52276">
        <time>2022-07-29T08:48:26Z</time>
      </trkpt>
      <trkpt lat="42.06564" lon="-0.52238">
        <time>2022-07-29T08:48:27Z</time>
      </trkpt>
      <trkpt lat="42.06581" lon="-0.522">
        <time>2022-07-29T08:48:28Z</time>
      </trkpt>
      <trkpt lat="42.06597" lon="-0.5216">
        <time>2022-07-29T08:48:29Z</time>
      </trkpt>
      <trkpt lat="42.06612" lon="-0.52121">
        <time>2022-07-29T08:48:30Z</time>
      </trkpt>
      <trkpt lat="42.06628" lon="-0.52082">
        <time>2022-07-29T08:48:31Z</time>
      </trkpt>
      <trkpt lat="42.06643" lon="-0.52042">
        <time>2022-07-29T08:48:32Z</time>
      </trkpt>
      <trkpt lat="42.06657" lon="-0.52002">
        <time>2022-07-29T08:48:33Z</time>
      </trkpt>
      <trkpt lat="42.06672" lon="-0.51962">
        <time>2022-07-29T08:48:34Z</time>
      </trkpt>
      <trkpt lat="42.06686" lon="-0.51922">
        <time>2022-07-29T08:48:35Z</time>
      </trkpt>
      <trkpt lat="42.06701" lon="-0.51882">
        <time>2022-07-29T08:48:36Z</time>
      </trkpt>
      <trkpt lat="42.06714" lon="-0.51841">
        <time>2022-07-29T08:48:37Z</time>
      </trkpt>
      <trkpt lat="42.06729" lon="-0.51801">
        <time>2022-07-29T08:48:38Z</time>
      </trkpt>
      <trkpt lat="42.06743" lon="-0.5176">
        <time>2022-07-29T08:48:39Z</time>
      </trkpt>
      <trkpt lat="42.06757" lon="-0.51718">
        <time>2022-07-29T08:48:40Z</time>
      </trkpt>
      <trkpt lat="42.06771" lon="-0.51676">
        <time>2022-07-29T08:48:41Z</time>
      </trkpt>
      <trkpt lat="42.06785" lon="-0.51633">
        <time>2022-07-29T08:48:42Z</time>
      </trkpt>
      <trkpt lat="42.06799" lon="-0.5159">
        <time>2022-07-29T08:48:43Z</time>
      </trkpt>
      <trkpt lat="42.06812" lon="-0.51547">
        <time>2022-07-29T08:48:44Z</time>
      </trkpt>
      <trkpt lat="42.06826" lon="-0.51503">
        <time>2022-07-29T08:48:45Z</time>
      </trkpt>
      <trkpt lat="42.06839" lon="-0.51461">
        <time>2022-07-29T08:48:46Z</time>
      </trkpt>
      <trkpt lat="42.06853" lon="-0.51417">
        <time>2022-07-29T08:48:47Z</time>
      </trkpt>
      <trkpt lat="42.06867" lon="-0.51375">
        <time>2022-07-29T08:48:48Z</time>
      </trkpt>
      <trkpt lat="42.06881" lon="-0.51332">
        <time>2022-07-29T08:48:49Z</time>
      </trkpt>
      <trkpt lat="42.06895" lon="-0.51289">
        <time>2022-07-29T08:48:50Z</time>
      </trkpt>
      <trkpt lat="42.06909" lon="-0.51247">
        <time>2022-07-29T08:48:51Z</time>
      </trkpt>
      <trkpt lat="42.06923" lon="-0.51205">
        <time>2022-07-29T08:48:52Z</time>
      </trkpt>
      <trkpt lat="42.06937" lon="-0.51164">
        <time>2022-07-29T08:48:53Z</time>
      </trkpt>
      <trkpt lat="42.06951" lon="-0.51122">
        <time>2022-07-29T08:48:54Z</time>
      </trkpt>
      <trkpt lat="42.06966" lon="-0.5108">
        <time>2022-07-29T08:48:55Z</time>
      </trkpt>
      <trkpt lat="42.0698" lon="-0.51038">
        <time>2022-07-29T08:48:56Z</time>
      </trkpt>
      <trkpt lat="42.06994" lon="-0.50997">
        <time>2022-07-29T08:48:57Z</time>
      </trkpt>
      <trkpt lat="42.07008" lon="-0.50956">
        <time>2022-07-29T08:48:58Z</time>
      </trkpt>
      <trkpt lat="42.07022" lon="-0.50914">
        <time>2022-07-29T08:48:59Z</time>
      </trkpt>
      <trkpt lat="42.07037" lon="-0.50873">
        <time>2022-07-29T08:49:00Z</time>
      </trkpt>
      <trkpt lat="42.07052" lon="-0.50831">
        <time>2022-07-29T08:49:01Z</time>
      </trkpt>
      <trkpt lat="42.07067" lon="-0.5079">
        <time>2022-07-29T08:49:02Z</time>
      </trkpt>
      <trkpt lat="42.07083" lon="-0.50748">
        <time>2022-07-29T08:49:03Z</time>
      </trkpt>
      <trkpt lat="42.071" lon="-0.50707">
        <time>2022-07-29T08:49:04Z</time>
      </trkpt>
      <trkpt lat="42.07116" lon="-0.50666">
        <time>2022-07-29T08:49:05Z</time>
      </trkpt>
      <trkpt lat="42.07133" lon="-0.50625">
        <time>2022-07-29T08:49:06Z</time>
      </trkpt>
      <trkpt lat="42.0715" lon="-0.50585">
        <time>2022-07-29T08:49:07Z</time>
      </trkpt>
      <trkpt lat="42.07167" lon="-0.50545">
        <time>2022-07-29T08:49:08Z</time>
      </trkpt>
      <trkpt lat="42.07183" lon="-0.50506">
        <time>2022-07-29T08:49:09Z</time>
      </trkpt>
      <trkpt lat="42.072" lon="-0.50468">
        <time>2022-07-29T08:49:10Z</time>
      </trkpt>
      <trkpt lat="42.07217" lon="-0.50431">
        <time>2022-07-29T08:49:11Z</time>
      </trkpt>
      <trkpt lat="42.07233" lon="-0.50393">
        <time>2022-07-29T08:49:12Z</time>
      </trkpt>
      <trkpt lat="42.07251" lon="-0.50356">
        <time>2022-07-29T08:49:13Z</time>
      </trkpt>
      <trkpt lat="42.07269" lon="-0.50319">
        <time>2022-07-29T08:49:14Z</time>
      </trkpt>
      <trkpt lat="42.07287" lon="-0.50282">
        <time>2022-07-29T08:49:15Z</time>
      </trkpt>
      <trkpt lat="42.07305" lon="-0.50245">
        <time>2022-07-29T08:49:16Z</time>
      </trkpt>
      <trkpt lat="42.07324" lon="-0.50208">
        <time>2022-07-29T08:49:17Z</time>
      </trkpt>
      <trkpt lat="42.07343" lon="-0.50171">
        <time>2022-07-29T08:49:18Z</time>
      </trkpt>
      <trkpt lat="42.07363" lon="-0.50135">
        <time>2022-07-29T08:49:19Z</time>
      </trkpt>
      <trkpt lat="42.07382" lon="-0.50099">
        <time>2022-07-29T08:49:20Z</time>
      </trkpt>
      <trkpt lat="42.07402" lon="-0.50063">
        <time>2022-07-29T08:49:21Z</time>
      </trkpt>
      <trkpt lat="42.07422" lon="-0.50027">
        <time>2022-07-29T08:49:22Z</time>
      </trkpt>
      <trkpt lat="42.07442" lon="-0.49992">
        <time>2022-07-29T08:49:23Z</time>
      </trkpt>
      <trkpt lat="42.07462" lon="-0.49957">
        <time>2022-07-29T08:49:24Z</time>
      </trkpt>
      <trkpt lat="42.07482" lon="-0.49921">
        <time>2022-07-29T08:49:25Z</time>
      </trkpt>
      <trkpt lat="42.07501" lon="-0.49885">
        <time>2022-07-29T08:49:26Z</time>
      </trkpt>
      <trkpt lat="42.07522" lon="-0.4985">
        <time>2022-07-29T08:49:27Z</time>
      </trkpt>
      <trkpt lat="42.07542" lon="-0.49815">
        <time>2022-07-29T08:49:28Z</time>
      </trkpt>
      <trkpt lat="42.07563" lon="-0.4978">
        <time>2022-07-29T08:49:29Z</time>
      </trkpt>
      <trkpt lat="42.07584" lon="-0.49746">
        <time>2022-07-29T08:49:30Z</time>
      </trkpt>
      <trkpt lat="42.07605" lon="-0.49712">
        <time>2022-07-29T08:49:31Z</time>
      </trkpt>
      <trkpt lat="42.07626" lon="-0.49678">
        <time>2022-07-29T08:49:32Z</time>
      </trkpt>
      <trkpt lat="42.07647" lon="-0.49643">
        <time>2022-07-29T08:49:33Z</time>
      </trkpt>
      <trkpt lat="42.07669" lon="-0.49609">
        <time>2022-07-29T08:49:34Z</time>
      </trkpt>
      <trkpt lat="42.0769" lon="-0.49575">
        <time>2022-07-29T08:49:35Z</time>
      </trkpt>
      <trkpt lat="42.07711" lon="-0.49541">
        <time>2022-07-29T08:49:36Z</time>
      </trkpt>
      <trkpt lat="42.07732" lon="-0.49507">
        <time>2022-07-29T08:49:37Z</time>
      </trkpt>
      <trkpt lat="42.07754" lon="-0.49474">
        <time>2022-07-29T08:49:38Z</time>
      </trkpt>
      <trkpt lat="42.07776" lon="-0.49441">
        <time>2022-07-29T08:49:39Z</time>
      </trkpt>
      <trkpt lat="42.07798" lon="-0.49407">
        <time>2022-07-29T08:49:40Z</time>
      </trkpt>
      <trkpt lat="42.0782" lon="-0.49375">
        <time>2022-07-29T08:49:41Z</time>
      </trkpt>
      <trkpt lat="42.07842" lon="-0.49342">
        <time>2022-07-29T08:49:42Z</time>
      </trkpt>
      <trkpt lat="42.07864" lon="-0.49309">
        <time>2022-07-29T08:49:43Z</time>
      </trkpt>
      <trkpt lat="42.07887" lon="-0.49276">
        <time>2022-07-29T08:49:44Z</time>
      </trkpt>
      <trkpt lat="42.07909" lon="-0.49244">
        <time>2022-07-29T08:49:45Z</time>
      </trkpt>
      <trkpt lat="42.07932" lon="-0.49211">
        <time>2022-07-29T08:49:46Z</time>
      </trkpt>
      <trkpt lat="42.07955" lon="-0.49179">
        <time>2022-07-29T08:49:47Z</time>
      </trkpt>
      <trkpt lat="42.07977" lon="-0.49147">
        <time>2022-07-29T08:49:48Z</time>
      </trkpt>
      <trkpt lat="42.08" lon="-0.49115">
        <time>2022-07-29T08:49:49Z</time>
      </trkpt>
      <trkpt lat="42.08023" lon="-0.49083">
        <time>2022-07-29T08:49:50Z</time>
      </trkpt>
      <trkpt lat="42.08046" lon="-0.49051">
        <time>2022-07-29T08:49:51Z</time>
      </trkpt>
      <trkpt lat="42.0807" lon="-0.4902">
        <time>2022-07-29T08:49:52Z</time>
      </trkpt>
      <trkpt lat="42.08094" lon="-0.48987">
        <time>2022-07-29T08:49:53Z</time>
      </trkpt>
      <trkpt lat="42.08117" lon="-0.48956">
        <time>2022-07-29T08:49:54Z</time>
      </trkpt>
      <trkpt lat="42.08141" lon="-0.48925">
        <time>2022-07-29T08:49:55Z</time>
      </trkpt>
      <trkpt lat="42.08164" lon="-0.48893">
        <time>2022-07-29T08:49:56Z</time>
      </trkpt>
      <trkpt lat="42.08188" lon="-0.48862">
        <time>2022-07-29T08:49:57Z</time>
      </trkpt>
      <trkpt lat="42.08212" lon="-0.48832">
        <time>2022-07-29T08:49:58Z</time>
      </trkpt>
      <trkpt lat="42.08236" lon="-0.48801">
        <time>2022-07-29T08:49:59Z</time>
      </trkpt>
      <trkpt lat="42.0826" lon="-0.4877">
        <time>2022-07-29T08:50:00Z</time>
      </trkpt>
      <trkpt lat="42.08284" lon="-0.4874">
        <time>2022-07-29T08:50:01Z</time>
      </trkpt>
      <trkpt lat="42.08309" lon="-0.48709">
        <time>2022-07-29T08:50:02Z</time>
      </trkpt>
      <trkpt lat="42.08333" lon="-0.48679">
        <time>2022-07-29T08:50:03Z</time>
      </trkpt>
      <trkpt lat="42.08358" lon="-0.4865">
        <time>2022-07-29T08:50:04Z</time>
      </trkpt>
      <trkpt lat="42.08383" lon="-0.4862">
        <time>2022-07-29T08:50:05Z</time>
      </trkpt>
      <trkpt lat="42.08407" lon="-0.48591">
        <time>2022-07-29T08:50:06Z</time>
      </trkpt>
      <trkpt lat="42.08433" lon="-0.48561">
        <time>2022-07-29T08:50:07Z</time>
      </trkpt>
      <trkpt lat="42.08458" lon="-0.48532">
        <time>2022-07-29T08:50:08Z</time>
      </trkpt>
      <trkpt lat="42.08482" lon="-0.48502">
        <time>2022-07-29T08:50:09Z</time>
      </trkpt>
      <trkpt lat="42.08508" lon="-0.48473">
        <time>2022-07-29T08:50:10Z</time>
      </trkpt>
      <trkpt lat="42.08533" lon="-0.48444">
        <time>2022-07-29T08:50:11Z</time>
      </trkpt>
      <trkpt lat="42.08559" lon="-0.48416">
        <time>2022-07-29T08:50:12Z</time>
      </trkpt>
      <trkpt lat="42.08584" lon="-0.48388">
        <time>2022-07-29T08:50:13Z</time>
      </trkpt>
      <trkpt lat="42.0861" lon="-0.48359">
        <time>2022-07-29T08:50:14Z</time>
      </trkpt>
      <trkpt lat="42.08635" lon="-0.48331">
        <time>2022-07-29T08:50:15Z</time>
      </trkpt>
      <trkpt lat="42.08661" lon="-0.48303">
        <time>2022-07-29T08:50:16Z</time>
      </trkpt>
      <trkpt lat="42.08686" lon="-0.48276">
        <time>2022-07-29T08:50:17Z</time>
      </trkpt>
      <trkpt lat="42.08712" lon="-0.48248">
        <time>2022-07-29T08:50:18Z</time>
      </trkpt>
      <trkpt lat="42.08738" lon="-0.4822">
        <time>2022-07-29T08:50:19Z</time>
      </trkpt>
      <trkpt lat="42.08764" lon="-0.48193">
        <time>2022-07-29T08:50:20Z</time>
      </trkpt>
      <trkpt lat="42.08791" lon="-0.48166">
        <time>2022-07-29T08:50:21Z</time>
      </trkpt>
      <trkpt lat="42.08817" lon="-0.48139">
        <time>2022-07-29T08:50:22Z</time>
      </trkpt>
      <trkpt lat="42.08843" lon="-0.48112">
        <time>2022-07-29T08:50:23Z</time>
      </trkpt>
      <trkpt lat="42.08869" lon="-0.48085">
        <time>2022-07-29T08:50:24Z</time>
      </trkpt>
      <trkpt lat="42.08896" lon="-0.48058">
        <time>2022-07-29T08:50:25Z</time>
      </trkpt>
      <trkpt lat="42.08923" lon="-0.48032">
        <time>2022-07-29T08:50:26Z</time>
      </trkpt>
      <trkpt lat="42.0895" lon="-0.48006">
        <time>2022-07-29T08:50:27Z</time>
      </trkpt>
      <trkpt lat="42.08977" lon="-0.47981">
        <time>2022-07-29T08:50:28Z</time>
      </trkpt>
      <trkpt lat="42.09005" lon="-0.47955">
        <time>2022-07-29T08:50:29Z</time>
      </trkpt>
      <trkpt lat="42.09032" lon="-0.4793">
        <time>2022-07-29T08:50:30Z</time>
      </trkpt>
      <trkpt lat="42.09059" lon="-0.47905">
        <time>2022-07-29T08:50:31Z</time>
      </trkpt>
      <trkpt lat="42.09086" lon="-0.47879">
        <time>2022-07-29T08:50:32Z</time>
      </trkpt>
      <trkpt lat="42.09113" lon="-0.47854">
        <time>2022-07-29T08:50:33Z</time>
      </trkpt>
      <trkpt lat="42.0914" lon="-0.47828">
        <time>2022-07-29T08:50:34Z</time>
      </trkpt>
      <trkpt lat="42.09166" lon="-0.47802">
        <time>2022-07-29T08:50:35Z</time>
      </trkpt>
      <trkpt lat="42.09193" lon="-0.47776">
        <time>2022-07-29T08:50:36Z</time>
      </trkpt>
      <trkpt lat="42.0922" lon="-0.4775">
        <time>2022-07-29T08:50:37Z</time>
      </trkpt>
      <trkpt lat="42.09246" lon="-0.47723">
        <time>2022-07-29T08:50:38Z</time>
      </trkpt>
      <trkpt lat="42.09273" lon="-0.47698">
        <time>2022-07-29T08:50:39Z</time>
      </trkpt>
      <trkpt lat="42.093" lon="-0.47672">
        <time>2022-07-29T08:50:40Z</time>
      </trkpt>
      <trkpt lat="42.09327" lon="-0.47647">
        <time>2022-07-29T08:50:41Z</time>
      </trkpt>
      <trkpt lat="42.09354" lon="-0.47621">
        <time>2022-07-29T08:50:42Z</time>
      </trkpt>
      <trkpt lat="42.09382" lon="-0.47595">
        <time>2022-07-29T08:50:43Z</time>
      </trkpt>
      <trkpt lat="42.09409" lon="-0.47569">
        <time>2022-07-29T08:50:44Z</time>
      </trkpt>
      <trkpt lat="42.09435" lon="-0.47544">
        <time>2022-07-29T08:50:45Z</time>
      </trkpt>
      <trkpt lat="42.09461" lon="-0.47517">
        <time>2022-07-29T08:50:46Z</time>
      </trkpt>
      <trkpt lat="42.09487" lon="-0.47489">
        <time>2022-07-29T08:50:47Z</time>
      </trkpt>
      <trkpt lat="42.09512" lon="-0.4746">
        <time>2022-07-29T08:50:48Z</time>
      </trkpt>
      <trkpt lat="42.09537" lon="-0.4743">
        <time>2022-07-29T08:50:49Z</time>
      </trkpt>
      <trkpt lat="42.0956" lon="-0.47399">
        <time>2022-07-29T08:50:50Z</time>
      </trkpt>
      <trkpt lat="42.09583" lon="-0.47366">
        <time>2022-07-29T08:50:51Z</time>
      </trkpt>
      <trkpt lat="42.09604" lon="-0.47333">
        <time>2022-07-29T08:50:52Z</time>
      </trkpt>
      <trkpt lat="42.09625" lon="-0.47297">
        <time>2022-07-29T08:50:53Z</time>
      </trkpt>
      <trkpt lat="42.09645" lon="-0.47261">
        <time>2022-07-29T08:50:54Z</time>
      </trkpt>
      <trkpt lat="42.09664" lon="-0.47224">
        <time>2022-07-29T08:50:55Z</time>
      </trkpt>
      <trkpt lat="42.09682" lon="-0.47186">
        <time>2022-07-29T08:50:56Z</time>
      </trkpt>
      <trkpt lat="42.09699" lon="-0.47148">
        <time>2022-07-29T08:50:57Z</time>
      </trkpt>
      <trkpt lat="42.09715" lon="-0.47108">
        <time>2022-07-29T08:50:58Z</time>
      </trkpt>
      <trkpt lat="42.09731" lon="-0.47069">
        <time>2022-07-29T08:50:59Z</time>
      </trkpt>
      <trkpt lat="42.09746" lon="-0.4703">
        <time>2022-07-29T08:51:00Z</time>
      </trkpt>
      <trkpt lat="42.09762" lon="-0.4699">
        <time>2022-07-29T08:51:01Z</time>
      </trkpt>
      <trkpt lat="42.09777" lon="-0.46951">
        <time>2022-07-29T08:51:02Z</time>
      </trkpt>
      <trkpt lat="42.09794" lon="-0.46911">
        <time>2022-07-29T08:51:03Z</time>
      </trkpt>
      <trkpt lat="42.0981" lon="-0.46873">
        <time>2022-07-29T08:51:04Z</time>
      </trkpt>
      <trkpt lat="42.09828" lon="-0.46836">
        <time>2022-07-29T08:51:05Z</time>
      </trkpt>
      <trkpt lat="42.09847" lon="-0.46798">
        <time>2022-07-29T08:51:06Z</time>
      </trkpt>
      <trkpt lat="42.09867" lon="-0.46762">
        <time>2022-07-29T08:51:07Z</time>
      </trkpt>
      <trkpt lat="42.09887" lon="-0.46728">
        <time>2022-07-29T08:51:08Z</time>
      </trkpt>
      <trkpt lat="42.09909" lon="-0.46694">
        <time>2022-07-29T08:51:09Z</time>
      </trkpt>
      <trkpt lat="42.0993" lon="-0.46661">
        <time>2022-07-29T08:51:10Z</time>
      </trkpt>
      <trkpt lat="42.09953" lon="-0.46627">
        <time>2022-07-29T08:51:11Z</time>
      </trkpt>
      <trkpt lat="42.09976" lon="-0.46594">
        <time>2022-07-29T08:51:12Z</time>
      </trkpt>
      <trkpt lat="42.09999" lon="-0.4656">
        <time>2022-07-29T08:51:13Z</time>
      </trkpt>
      <trkpt lat="42.10023" lon="-0.46526">
        <time>2022-07-29T08:51:14Z</time>
      </trkpt>
      <trkpt lat="42.10047" lon="-0.46492">
        <time>2022-07-29T08:51:15Z</time>
      </trkpt>
      <trkpt lat="42.10071" lon="-0.46459">
        <time>2022-07-29T08:51:16Z</time>
      </trkpt>
      <trkpt lat="42.10095" lon="-0.46425">
        <time>2022-07-29T08:51:17Z</time>
      </trkpt>
      <trkpt lat="42.10119" lon="-0.4639">
        <time>2022-07-29T08:51:18Z</time>
      </trkpt>
      <trkpt lat="42.10143" lon="-0.46356">
        <time>2022-07-29T08:51:19Z</time>
      </trkpt>
      <trkpt lat="42.10167" lon="-0.46321">
        <time>2022-07-29T08:51:20Z</time>
      </trkpt>
      <trkpt lat="42.10191" lon="-0.46286">
        <time>2022-07-29T08:51:21Z</time>
      </trkpt>
      <trkpt lat="42.10214" lon="-0.46252">
        <time>2022-07-29T08:51:22Z</time>
      </trkpt>
      <trkpt lat="42.10237" lon="-0.46218">
        <time>2022-07-29T08:51:23Z</time>
      </trkpt>
      <trkpt lat="42.1026" lon="-0.46183">
        <time>2022-07-29T08:51:24Z</time>
      </trkpt>
      <trkpt lat="42.10282" lon="-0.46149">
        <time>2022-07-29T08:51:25Z</time>
      </trkpt>
      <trkpt lat="42.10305" lon="-0.46115">
        <time>2022-07-29T08:51:26Z</time>
      </trkpt>
      <trkpt lat="42.10328" lon="-0.46082">
        <time>2022-07-29T08:51:27Z</time>
      </trkpt>
      <trkpt lat="42.10351" lon="-0.46047">
        <time>2022-07-29T08:51:28Z</time>
      </trkpt>
      <trkpt lat="42.10375" lon="-0.46014">
        <time>2022-07-29T08:51:29Z</time>
      </trkpt>
      <trkpt lat="42.10399" lon="-0.45982">
        <time>2022-07-29T08:51:30Z</time>
      </trkpt>
      <trkpt lat="42.10423" lon="-0.4595">
        <time>2022-07-29T08:51:31Z</time>
      </trkpt>
      <trkpt lat="42.10446" lon="-0.45918">
        <time>2022-07-29T08:51:32Z</time>
      </trkpt>
      <trkpt lat="42.1047" lon="-0.45887">
        <time>2022-07-29T08:51:33Z</time>
      </trkpt>
      <trkpt lat="42.10494" lon="-0.45856">
        <time>2022-07-29T08:51:34Z</time>
      </trkpt>
      <trkpt lat="42.10518" lon="-0.45826">
        <time>2022-07-29T08:51:35Z</time>
      </trkpt>
      <trkpt lat="42.10542" lon="-0.45795">
        <time>2022-07-29T08:51:36Z</time>
      </trkpt>
      <trkpt lat="42.10566" lon="-0.45765">
        <time>2022-07-29T08:51:37Z</time>
      </trkpt>
      <trkpt lat="42.1059" lon="-0.45735">
        <time>2022-07-29T08:51:38Z</time>
      </trkpt>
      <trkpt lat="42.10613" lon="-0.45704">
        <time>2022-07-29T08:51:39Z</time>
      </trkpt>
      <trkpt lat="42.10637" lon="-0.45672">
        <time>2022-07-29T08:51:40Z</time>
      </trkpt>
      <trkpt lat="42.1066" lon="-0.45641">
        <time>2022-07-29T08:51:41Z</time>
      </trkpt>
      <trkpt lat="42.10683" lon="-0.45609">
        <time>2022-07-29T08:51:42Z</time>
      </trkpt>
      <trkpt lat="42.10706" lon="-0.45577">
        <time>2022-07-29T08:51:43Z</time>
      </trkpt>
      <trkpt lat="42.10729" lon="-0.45545">
        <time>2022-07-29T08:51:44Z</time>
      </trkpt>
      <trkpt lat="42.10753" lon="-0.45513">
        <time>2022-07-29T08:51:45Z</time>
      </trkpt>
      <trkpt lat="42.10776" lon="-0.45481">
        <time>2022-07-29T08:51:46Z</time>
      </trkpt>
      <trkpt lat="42.10799" lon="-0.45449">
        <time>2022-07-29T08:51:47Z</time>
      </trkpt>
      <trkpt lat="42.10822" lon="-0.45417">
        <time>2022-07-29T08:51:48Z</time>
      </trkpt>
      <trkpt lat="42.10845" lon="-0.45384">
        <time>2022-07-29T08:51:49Z</time>
      </trkpt>
      <trkpt lat="42.10868" lon="-0.45352">
        <time>2022-07-29T08:51:50Z</time>
      </trkpt>
      <trkpt lat="42.10889" lon="-0.45321">
        <time>2022-07-29T08:51:51Z</time>
      </trkpt>
      <trkpt lat="42.10911" lon="-0.4529">
        <time>2022-07-29T08:51:52Z</time>
      </trkpt>
      <trkpt lat="42.10931" lon="-0.4526">
        <time>2022-07-29T08:51:53Z</time>
      </trkpt>
      <trkpt lat="42.10952" lon="-0.45231">
        <time>2022-07-29T08:51:54Z</time>
      </trkpt>
      <trkpt lat="42.10972" lon="-0.45202">
        <time>2022-07-29T08:51:55Z</time>
      </trkpt>
      <trkpt lat="42.10991" lon="-0.45174">
        <time>2022-07-29T08:51:56Z</time>
      </trkpt>
      <trkpt lat="42.1101" lon="-0.45146">
        <time>2022-07-29T08:51:57Z</time>
      </trkpt>
      <trkpt lat="42.11028" lon="-0.45118">
        <time>2022-07-29T08:51:58Z</time>
      </trkpt>
      <trkpt lat="42.11046" lon="-0.45089">
        <time>2022-07-29T08:51:59Z</time>
      </trkpt>
      <trkpt lat="42.11064" lon="-0.45061">
        <time>2022-07-29T08:52:00Z</time>
      </trkpt>
      <trkpt lat="42.11083" lon="-0.45034">
        <time>2022-07-29T08:52:01Z</time>
      </trkpt>
      <trkpt lat="42.11101" lon="-0.45007">
        <time>2022-07-29T08:52:02Z</time>
      </trkpt>
      <trkpt lat="42.11119" lon="-0.4498">
        <time>2022-07-29T08:52:03Z</time>
      </trkpt>
      <trkpt lat="42.11138" lon="-0.44954">
        <time>2022-07-29T08:52:04Z</time>
      </trkpt>
      <trkpt lat="42.11156" lon="-0.44927">
        <time>2022-07-29T08:52:05Z</time>
      </trkpt>
      <trkpt lat="42.11174" lon="-0.44901">
        <time>2022-07-29T08:52:06Z</time>
      </trkpt>
      <trkpt lat="42.11192" lon="-0.44875">
        <time>2022-07-29T08:52:07Z</time>
      </trkpt>
      <trkpt lat="42.1121" lon="-0.44848">
        <time>2022-07-29T08:52:08Z</time>
      </trkpt>
      <trkpt lat="42.11228" lon="-0.44822">
        <time>2022-07-29T08:52:09Z</time>
      </trkpt>
      <trkpt lat="42.11247" lon="-0.44795">
        <time>2022-07-29T08:52:10Z</time>
      </trkpt>
      <trkpt lat="42.11264" lon="-0.44768">
        <time>2022-07-29T08:52:11Z</time>
      </trkpt>
      <trkpt lat="42.11282" lon="-0.4474">
        <time>2022-07-29T08:52:12Z</time>
      </trkpt>
      <trkpt lat="42.113" lon="-0.44712">
        <time>2022-07-29T08:52:13Z</time>
      </trkpt>
      <trkpt lat="42.11319" lon="-0.44685">
        <time>2022-07-29T08:52:14Z</time>
      </trkpt>
      <trkpt lat="42.11337" lon="-0.44657">
        <time>2022-07-29T08:52:15Z</time>
      </trkpt>
      <trkpt lat="42.11355" lon="-0.44629">
        <time>2022-07-29T08:52:16Z</time>
      </trkpt>
      <trkpt lat="42.11373" lon="-0.446">
        <time>2022-07-29T08:52:17Z</time>
      </trkpt>
      <trkpt lat="42.11391" lon="-0.44571">
        <time>2022-07-29T08:52:18Z</time>
      </trkpt>
      <trkpt lat="42.1141" lon="-0.44541">
        <time>2022-07-29T08:52:19Z</time>
      </trkpt>
      <trkpt lat="42.11429" lon="-0.44511">
        <time>2022-07-29T08:52:20Z</time>
      </trkpt>
      <trkpt lat="42.11447" lon="-0.44481">
        <time>2022-07-29T08:52:21Z</time>
      </trkpt>
      <trkpt lat="42.11466" lon="-0.4445">
        <time>2022-07-29T08:52:22Z</time>
      </trkpt>
      <trkpt lat="42.11486" lon="-0.44418">
        <time>2022-07-29T08:52:23Z</time>
      </trkpt>
      <trkpt lat="42.11505" lon="-0.44386">
        <time>2022-07-29T08:52:24Z</time>
      </trkpt>
      <trkpt lat="42.11524" lon="-0.44355">
        <time>2022-07-29T08:52:25Z</time>
      </trkpt>
      <trkpt lat="42.11544" lon="-0.44323">
        <time>2022-07-29T08:52:26Z</time>
      </trkpt>
      <trkpt lat="42.11563" lon="-0.4429">
        <time>2022-07-29T08:52:27Z</time>
      </trkpt>
      <trkpt lat="42.11583" lon="-0.44258">
        <time>2022-07-29T08:52:28Z</time>
      </trkpt>
      <trkpt lat="42.11603" lon="-0.44226">
        <time>2022-07-29T08:52:29Z</time>
      </trkpt>
      <trkpt lat="42.11623" lon="-0.44194">
        <time>2022-07-29T08:52:30Z</time>
      </trkpt>
      <trkpt lat="42.11644" lon="-0.44162">
        <time>2022-07-29T08:52:31Z</time>
      </trkpt>
      <trkpt lat="42.11664" lon="-0.4413">
        <time>2022-07-29T08:52:32Z</time>
      </trkpt>
      <trkpt lat="42.11684" lon="-0.44097">
        <time>2022-07-29T08:52:33Z</time>
      </trkpt>
      <trkpt lat="42.11705" lon="-0.44066">
        <time>2022-07-29T08:52:34Z</time>
      </trkpt>
      <trkpt lat="42.11725" lon="-0.44035">
        <time>2022-07-29T08:52:35Z</time>
      </trkpt>
      <trkpt lat="42.11745" lon="-0.44004">
        <time>2022-07-29T08:52:36Z</time>
      </trkpt>
      <trkpt lat="42.11765" lon="-0.43973">
        <time>2022-07-29T08:52:37Z</time>
      </trkpt>
      <trkpt lat="42.11786" lon="-0.43942">
        <time>2022-07-29T08:52:38Z</time>
      </trkpt>
      <trkpt lat="42.11806" lon="-0.43911">
        <time>2022-07-29T08:52:39Z</time>
      </trkpt>
      <trkpt lat="42.11827" lon="-0.4388">
        <time>2022-07-29T08:52:40Z</time>
      </trkpt>
      <trkpt lat="42.11848" lon="-0.43849">
        <time>2022-07-29T08:52:41Z</time>
      </trkpt>
      <trkpt lat="42.11869" lon="-0.43818">
        <time>2022-07-29T08:52:42Z</time>
      </trkpt>
      <trkpt lat="42.11891" lon="-0.43788">
        <time>2022-07-29T08:52:43Z</time>
      </trkpt>
      <trkpt lat="42.11913" lon="-0.43757">
        <time>2022-07-29T08:52:44Z</time>
      </trkpt>
      <trkpt lat="42.11935" lon="-0.43726">
        <time>2022-07-29T08:52:45Z</time>
      </trkpt>
      <trkpt lat="42.11956" lon="-0.43696">
        <time>2022-07-29T08:52:46Z</time>
      </trkpt>
      <trkpt lat="42.11978" lon="-0.43665">
        <time>2022-07-29T08:52:47Z</time>
      </trkpt>
      <trkpt lat="42.12" lon="-0.43634">
        <time>2022-07-29T08:52:48Z</time>
      </trkpt>
      <trkpt lat="42.12022" lon="-0.43603">
        <time>2022-07-29T08:52:49Z</time>
      </trkpt>
      <trkpt lat="42.12045" lon="-0.43573">
        <time>2022-07-29T08:52:50Z</time>
      </trkpt>
      <trkpt lat="42.12067" lon="-0.43542">
        <time>2022-07-29T08:52:51Z</time>
      </trkpt>
      <trkpt lat="42.12089" lon="-0.43512">
        <time>2022-07-29T08:52:52Z</time>
      </trkpt>
      <trkpt lat="42.12112" lon="-0.43481">
        <time>2022-07-29T08:52:53Z</time>
      </trkpt>
      <trkpt lat="42.12136" lon="-0.43451">
        <time>2022-07-29T08:52:54Z</time>
      </trkpt>
      <trkpt lat="42.12159" lon="-0.43421">
        <time>2022-07-29T08:52:55Z</time>
      </trkpt>
      <trkpt lat="42.12184" lon="-0.43393">
        <time>2022-07-29T08:52:56Z</time>
      </trkpt>
      <trkpt lat="42.1221" lon="-0.43367">
        <time>2022-07-29T08:52:57Z</time>
      </trkpt>
      <trkpt lat="42.12237" lon="-0.43347">
        <time>2022-07-29T08:52:58Z</time>
      </trkpt>
      <trkpt lat="42.12264" lon="-0.43326">
        <time>2022-07-29T08:52:59Z</time>
      </trkpt>
      <trkpt lat="42.12292" lon="-0.43309">
        <time>2022-07-29T08:53:00Z</time>
      </trkpt>
      <trkpt lat="42.1232" lon="-0.43293">
        <time>2022-07-29T08:53:01Z</time>
      </trkpt>
      <trkpt lat="42.12349" lon="-0.43279">
        <time>2022-07-29T08:53:02Z</time>
      </trkpt>
      <trkpt lat="42.12379" lon="-0.43267">
        <time>2022-07-29T08:53:03Z</time>
      </trkpt>
      <trkpt lat="42.12409" lon="-0.43257">
        <time>2022-07-29T08:53:04Z</time>
      </trkpt>
      <trkpt lat="42.1244" lon="-0.4325">
        <time>2022-07-29T08:53:05Z</time>
      </trkpt>
      <trkpt lat="42.12471" lon="-0.43244">
        <time>2022-07-29T08:53:06Z</time>
      </trkpt>
      <trkpt lat="42.12502" lon="-0.43242">
        <time>2022-07-29T08:53:07Z</time>
      </trkpt>
      <trkpt lat="42.12533" lon="-0.4324">
        <time>2022-07-29T08:53:08Z</time>
      </trkpt>
      <trkpt lat="42.12564" lon="-0.43238">
        <time>2022-07-29T08:53:09Z</time>
      </trkpt>
      <trkpt lat="42.12595" lon="-0.43236">
        <time>2022-07-29T08:53:10Z</time>
      </trkpt>
      <trkpt lat="42.12626" lon="-0.43233">
        <time>2022-07-29T08:53:11Z</time>
      </trkpt>
      <trkpt lat="42.12658" lon="-0.43229">
        <time>2022-07-29T08:53:12Z</time>
      </trkpt>
      <trkpt lat="42.1269" lon="-0.43223">
        <time>2022-07-29T08:53:13Z</time>
      </trkpt>
      <trkpt lat="42.12721" lon="-0.43216">
        <time>2022-07-29T08:53:14Z</time>
      </trkpt>
      <trkpt lat="42.12753" lon="-0.43207">
        <time>2022-07-29T08:53:15Z</time>
      </trkpt>
      <trkpt lat="42.12784" lon="-0.43197">
        <time>2022-07-29T08:53:16Z</time>
      </trkpt>
      <trkpt lat="42.12815" lon="-0.43185">
        <time>2022-07-29T08:53:17Z</time>
      </trkpt>
      <trkpt lat="42.12846" lon="-0.43172">
        <time>2022-07-29T08:53:18Z</time>
      </trkpt>
      <trkpt lat="42.12877" lon="-0.43156">
        <time>2022-07-29T08:53:19Z</time>
      </trkpt>
      <trkpt lat="42.12907" lon="-0.4314">
        <time>2022-07-29T08:53:20Z</time>
      </trkpt>
      <trkpt lat="42.12937" lon="-0.43123">
        <time>2022-07-29T08:53:21Z</time>
      </trkpt>
      <trkpt lat="42.12967" lon="-0.43104">
        <time>2022-07-29T08:53:22Z</time>
      </trkpt>
      <trkpt lat="42.12997" lon="-0.43086">
        <time>2022-07-29T08:53:23Z</time>
      </trkpt>
      <trkpt lat="42.13027" lon="-0.43067">
        <time>2022-07-29T08:53:24Z</time>
      </trkpt>
      <trkpt lat="42.13057" lon="-0.43049">
        <time>2022-07-29T08:53:25Z</time>
      </trkpt>
      <trkpt lat="42.13087" lon="-0.43033">
        <time>2022-07-29T08:53:26Z</time>
      </trkpt>
      <trkpt lat="42.13117" lon="-0.43017">
        <time>2022-07-29T08:53:27Z</time>
      </trkpt>
      <trkpt lat="42.13148" lon="-0.43004">
        <time>2022-07-29T08:53:28Z</time>
      </trkpt>
      <trkpt lat="42.13178" lon="-0.42992">
        <time>2022-07-29T08:53:29Z</time>
      </trkpt>
      <trkpt lat="42.13209" lon="-0.42982">
        <time>2022-07-29T08:53:30Z</time>
      </trkpt>
      <trkpt lat="42.13239" lon="-0.42973">
        <time>2022-07-29T08:53:31Z</time>
      </trkpt>
      <trkpt lat="42.1327" lon="-0.42966">
        <time>2022-07-29T08:53:32Z</time>
      </trkpt>
      <trkpt lat="42.13301" lon="-0.42961">
        <time>2022-07-29T08:53:33Z</time>
      </trkpt>
      <trkpt lat="42.13332" lon="-0.42957">
        <time>2022-07-29T08:53:34Z</time>
      </trkpt>
      <trkpt lat="42.13362" lon="-0.42954">
        <time>2022-07-29T08:53:35Z</time>
      </trkpt>
      <trkpt lat="42.13394" lon="-0.42954">
        <time>2022-07-29T08:53:36Z</time>
      </trkpt>
      <trkpt lat="42.13425" lon="-0.42954">
        <time>2022-07-29T08:53:37Z</time>
      </trkpt>
      <trkpt lat="42.13458" lon="-0.42956">
        <time>2022-07-29T08:53:38Z</time>
      </trkpt>
      <trkpt lat="42.1349" lon="-0.4296">
        <time>2022-07-29T08:53:39Z</time>
      </trkpt>
      <trkpt lat="42.13523" lon="-0.42967">
        <time>2022-07-29T08:53:40Z</time>
      </trkpt>
      <trkpt lat="42.13556" lon="-0.42975">
        <time>2022-07-29T08:53:41Z</time>
      </trkpt>
      <trkpt lat="42.13589" lon="-0.42984">
        <time>2022-07-29T08:53:42Z</time>
      </trkpt>
      <trkpt lat="42.13622" lon="-0.42995">
        <time>2022-07-29T08:53:43Z</time>
      </trkpt>
      <trkpt lat="42.13655" lon="-0.43007">
        <time>2022-07-29T08:53:44Z</time>
      </trkpt>
      <trkpt lat="42.13688" lon="-0.4302">
        <time>2022-07-29T08:53:45Z</time>
      </trkpt>
      <trkpt lat="42.13721" lon="-0.43034">
        <time>2022-07-29T08:53:46Z</time>
      </trkpt>
      <trkpt lat="42.13753" lon="-0.43047">
        <time>2022-07-29T08:53:47Z</time>
      </trkpt>
      <trkpt lat="42.13786" lon="-0.4306">
        <time>2022-07-29T08:53:48Z</time>
      </trkpt>
      <trkpt lat="42.13818" lon="-0.43073">
        <time>2022-07-29T08:53:49Z</time>
      </trkpt>
      <trkpt lat="42.1385" lon="-0.43084">
        <time>2022-07-29T08:53:50Z</time>
      </trkpt>
      <trkpt lat="42.13882" lon="-0.43093">
        <time>2022-07-29T08:53:51Z</time>
      </trkpt>
      <trkpt lat="42.13914" lon="-0.43102">
        <time>2022-07-29T08:53:52Z</time>
      </trkpt>
      <trkpt lat="42.13946" lon="-0.43108">
        <time>2022-07-29T08:53:53Z</time>
      </trkpt>
      <trkpt lat="42.13978" lon="-0.43113">
        <time>2022-07-29T08:53:54Z</time>
      </trkpt>
      <trkpt lat="42.1401" lon="-0.43116">
        <time>2022-07-29T08:53:55Z</time>
      </trkpt>
      <trkpt lat="42.14042" lon="-0.43118">
        <time>2022-07-29T08:53:56Z</time>
      </trkpt>
      <trkpt lat="42.14075" lon="-0.43118">
        <time>2022-07-29T08:53:57Z</time>
      </trkpt>
      <trkpt lat="42.14107" lon="-0.43117">
        <time>2022-07-29T08:53:58Z</time>
      </trkpt>
      <trkpt lat="42.14139" lon="-0.43114">
        <time>2022-07-29T08:53:59Z</time>
      </trkpt>
      <trkpt lat="42.14171" lon="-0.4311">
        <time>2022-07-29T08:54:00Z</time>
      </trkpt>
      <trkpt lat="42.14203" lon="-0.43104">
        <time>2022-07-29T08:54:01Z</time>
      </trkpt>
      <trkpt lat="42.14235" lon="-0.43098">
        <time>2022-07-29T08:54:02Z</time>
      </trkpt>
      <trkpt lat="42.14267" lon="-0.4309">
        <time>2022-07-29T08:54:03Z</time>
      </trkpt>
      <trkpt lat="42.14298" lon="-0.4308">
        <time>2022-07-29T08:54:04Z</time>
      </trkpt>
      <trkpt lat="42.14329" lon="-0.43069">
        <time>2022-07-29T08:54:05Z</time>
      </trkpt>
      <trkpt lat="42.1436" lon="-0.43056">
        <time>2022-07-29T08:54:06Z</time>
      </trkpt>
      <trkpt lat="42.14391" lon="-0.43041">
        <time>2022-07-29T08:54:07Z</time>
      </trkpt>
      <trkpt lat="42.14421" lon="-0.43023">
        <time>2022-07-29T08:54:08Z</time>
      </trkpt>
      <trkpt lat="42.14451" lon="-0.43005">
        <time>2022-07-29T08:54:09Z</time>
      </trkpt>
      <trkpt lat="42.14481" lon="-0.42985">
        <time>2022-07-29T08:54:10Z</time>
      </trkpt>
      <trkpt lat="42.1451" lon="-0.42963">
        <time>2022-07-29T08:54:11Z</time>
      </trkpt>
      <trkpt lat="42.14539" lon="-0.42941">
        <time>2022-07-29T08:54:12Z</time>
      </trkpt>
      <trkpt lat="42.14567" lon="-0.42918">
        <time>2022-07-29T08:54:13Z</time>
      </trkpt>
      <trkpt lat="42.14595" lon="-0.42895">
        <time>2022-07-29T08:54:14Z</time>
      </trkpt>
      <trkpt lat="42.14624" lon="-0.42872">
        <time>2022-07-29T08:54:15Z</time>
      </trkpt>
      <trkpt lat="42.14652" lon="-0.42847">
        <time>2022-07-29T08:54:16Z</time>
      </trkpt>
      <trkpt lat="42.1468" lon="-0.42823">
        <time>2022-07-29T08:54:17Z</time>
      </trkpt>
      <trkpt lat="42.14709" lon="-0.428">
        <time>2022-07-29T08:54:18Z</time>
      </trkpt>
      <trkpt lat="42.14737" lon="-0.42776">
        <time>2022-07-29T08:54:19Z</time>
      </trkpt>
      <trkpt lat="42.14765" lon="-0.42753">
        <time>2022-07-29T08:54:20Z</time>
      </trkpt>
      <trkpt lat="42.14793" lon="-0.42731">
        <time>2022-07-29T08:54:21Z</time>
      </trkpt>
      <trkpt lat="42.14822" lon="-0.42709">
        <time>2022-07-29T08:54:22Z</time>
      </trkpt>
      <trkpt lat="42.1485" lon="-0.42687">
        <time>2022-07-29T08:54:23Z</time>
      </trkpt>
      <trkpt lat="42.14877" lon="-0.42665">
        <time>2022-07-29T08:54:24Z</time>
      </trkpt>
      <trkpt lat="42.14905" lon="-0.42643">
        <time>2022-07-29T08:54:25Z</time>
      </trkpt>
      <trkpt lat="42.14932" lon="-0.4262">
        <time>2022-07-29T08:54:26Z</time>
      </trkpt>
      <trkpt lat="42.14958" lon="-0.42598">
        <time>2022-07-29T08:54:27Z</time>
      </trkpt>
      <trkpt lat="42.14984" lon="-0.42575">
        <time>2022-07-29T08:54:28Z</time>
      </trkpt>
      <trkpt lat="42.15011" lon="-0.42553">
        <time>2022-07-29T08:54:29Z</time>
      </trkpt>
      <trkpt lat="42.15037" lon="-0.42532">
        <time>2022-07-29T08:54:30Z</time>
      </trkpt>
      <trkpt lat="42.15063" lon="-0.42511">
        <time>2022-07-29T08:54:31Z</time>
      </trkpt>
      <trkpt lat="42.1509" lon="-0.4249">
        <time>2022-07-29T08:54:32Z</time>
      </trkpt>
      <trkpt lat="42.15117" lon="-0.42469">
        <time>2022-07-29T08:54:33Z</time>
      </trkpt>
      <trkpt lat="42.15144" lon="-0.42449">
        <time>2022-07-29T08:54:34Z</time>
      </trkpt>
      <trkpt lat="42.15172" lon="-0.4243">
        <time>2022-07-29T08:54:35Z</time>
      </trkpt>
      <trkpt lat="42.15199" lon="-0.42411">
        <time>2022-07-29T08:54:36Z</time>
      </trkpt>
      <trkpt lat="42.15227" lon="-0.42392">
        <time>2022-07-29T08:54:37Z</time>
      </trkpt>
      <trkpt lat="42.15255" lon="-0.42374">
        <time>2022-07-29T08:54:38Z</time>
      </trkpt>
      <trkpt lat="42.15283" lon="-0.42358">
        <time>2022-07-29T08:54:39Z</time>
      </trkpt>
      <trkpt lat="42.15312" lon="-0.42342">
        <time>2022-07-29T08:54:40Z</time>
      </trkpt>
      <trkpt lat="42.1534" lon="-0.42327">
        <time>2022-07-29T08:54:41Z</time>
      </trkpt>
      <trkpt lat="42.15369" lon="-0.42313">
        <time>2022-07-29T08:54:42Z</time>
      </trkpt>
      <trkpt lat="42.15397" lon="-0.423">
        <time>2022-07-29T08:54:43Z</time>
      </trkpt>
      <trkpt lat="42.15426" lon="-0.42287">
        <time>2022-07-29T08:54:44Z</time>
      </trkpt>
      <trkpt lat="42.15456" lon="-0.42276">
        <time>2022-07-29T08:54:45Z</time>
      </trkpt>
      <trkpt lat="42.15485" lon="-0.42266">
        <time>2022-07-29T08:54:46Z</time>
      </trkpt>
      <trkpt lat="42.15514" lon="-0.42256">
        <time>2022-07-29T08:54:47Z</time>
      </trkpt>
      <trkpt lat="42.15544" lon="-0.42247">
        <time>2022-07-29T08:54:48Z</time>
      </trkpt>
      <trkpt lat="42.15573" lon="-0.42239">
        <time>2022-07-29T08:54:49Z</time>
      </trkpt>
      <trkpt lat="42.15603" lon="-0.42233">
        <time>2022-07-29T08:54:50Z</time>
      </trkpt>
      <trkpt lat="42.15633" lon="-0.42227">
        <time>2022-07-29T08:54:51Z</time>
      </trkpt>
      <trkpt lat="42.15663" lon="-0.42222">
        <time>2022-07-29T08:54:52Z</time>
      </trkpt>
      <trkpt lat="42.15692" lon="-0.42217">
        <time>2022-07-29T08:54:53Z</time>
      </trkpt>
      <trkpt lat="42.15722" lon="-0.42214">
        <time>2022-07-29T08:54:54Z</time>
      </trkpt>
      <trkpt lat="42.15752" lon="-0.42212">
        <time>2022-07-29T08:54:55Z</time>
      </trkpt>
      <trkpt lat="42.15783" lon="-0.4221">
        <time>2022-07-29T08:54:56Z</time>
      </trkpt>
      <trkpt lat="42.15813" lon="-0.4221">
        <time>2022-07-29T08:54:57Z</time>
      </trkpt>
      <trkpt lat="42.15843" lon="-0.42212">
        <time>2022-07-29T08:54:58Z</time>
      </trkpt>
      <trkpt lat="42.15873" lon="-0.42216">
        <time>2022-07-29T08:54:59Z</time>
      </trkpt>
      <trkpt lat="42.15903" lon="-0.42222">
        <time>2022-07-29T08:55:00Z</time>
      </trkpt>
      <trkpt lat="42.15932" lon="-0.4223">
        <time>2022-07-29T08:55:01Z</time>
      </trkpt>
      <trkpt lat="42.15961" lon="-0.4224">
        <time>2022-07-29T08:55:02Z</time>
      </trkpt>
      <trkpt lat="42.1599" lon="-0.42252">
        <time>2022-07-29T08:55:03Z</time>
      </trkpt>
      <trkpt lat="42.16019" lon="-0.42265">
        <time>2022-07-29T08:55:04Z</time>
      </trkpt>
      <trkpt lat="42.16047" lon="-0.4228">
        <time>2022-07-29T08:55:05Z</time>
      </trkpt>
      <trkpt lat="42.16076" lon="-0.42295">
        <time>2022-07-29T08:55:06Z</time>
      </trkpt>
      <trkpt lat="42.16104" lon="-0.42312">
        <time>2022-07-29T08:55:07Z</time>
      </trkpt>
      <trkpt lat="42.16132" lon="-0.42331">
        <time>2022-07-29T08:55:08Z</time>
      </trkpt>
      <trkpt lat="42.16159" lon="-0.4235">
        <time>2022-07-29T08:55:09Z</time>
      </trkpt>
      <trkpt lat="42.16187" lon="-0.42371">
        <time>2022-07-29T08:55:10Z</time>
      </trkpt>
      <trkpt lat="42.16213" lon="-0.42393">
        <time>2022-07-29T08:55:11Z</time>
      </trkpt>
      <trkpt lat="42.16239" lon="-0.42417">
        <time>2022-07-29T08:55:12Z</time>
      </trkpt>
      <trkpt lat="42.16266" lon="-0.42441">
        <time>2022-07-29T08:55:13Z</time>
      </trkpt>
      <trkpt lat="42.16292" lon="-0.42466">
        <time>2022-07-29T08:55:14Z</time>
      </trkpt>
      <trkpt lat="42.16318" lon="-0.4249">
        <time>2022-07-29T08:55:15Z</time>
      </trkpt>
      <trkpt lat="42.16344" lon="-0.42515">
        <time>2022-07-29T08:55:16Z</time>
      </trkpt>
      <trkpt lat="42.1637" lon="-0.42539">
        <time>2022-07-29T08:55:17Z</time>
      </trkpt>
      <trkpt lat="42.16397" lon="-0.42563">
        <time>2022-07-29T08:55:18Z</time>
      </trkpt>
      <trkpt lat="42.16424" lon="-0.42586">
        <time>2022-07-29T08:55:19Z</time>
      </trkpt>
      <trkpt lat="42.16452" lon="-0.42609">
        <time>2022-07-29T08:55:20Z</time>
      </trkpt>
      <trkpt lat="42.16479" lon="-0.42632">
        <time>2022-07-29T08:55:21Z</time>
      </trkpt>
      <trkpt lat="42.16508" lon="-0.42653">
        <time>2022-07-29T08:55:22Z</time>
      </trkpt>
      <trkpt lat="42.16536" lon="-0.42674">
        <time>2022-07-29T08:55:23Z</time>
      </trkpt>
      <trkpt lat="42.16565" lon="-0.42694">
        <time>2022-07-29T08:55:24Z</time>
      </trkpt>
      <trkpt lat="42.16594" lon="-0.42713">
        <time>2022-07-29T08:55:25Z</time>
      </trkpt>
      <trkpt lat="42.16624" lon="-0.42731">
        <time>2022-07-29T08:55:26Z</time>
      </trkpt>
      <trkpt lat="42.16654" lon="-0.42749">
        <time>2022-07-29T08:55:27Z</time>
      </trkpt>
      <trkpt lat="42.16684" lon="-0.42767">
        <time>2022-07-29T08:55:28Z</time>
      </trkpt>
      <trkpt lat="42.16714" lon="-0.42784">
        <time>2022-07-29T08:55:29Z</time>
      </trkpt>
      <trkpt lat="42.16744" lon="-0.428">
        <time>2022-07-29T08:55:30Z</time>
      </trkpt>
      <trkpt lat="42.16774" lon="-0.42817">
        <time>2022-07-29T08:55:31Z</time>
      </trkpt>
      <trkpt lat="42.16804" lon="-0.42834">
        <time>2022-07-29T08:55:32Z</time>
      </trkpt>
      <trkpt lat="42.16835" lon="-0.42851">
        <time>2022-07-29T08:55:33Z</time>
      </trkpt>
      <trkpt lat="42.16865" lon="-0.42868">
        <time>2022-07-29T08:55:34Z</time>
      </trkpt>
      <trkpt lat="42.16896" lon="-0.42884">
        <time>2022-07-29T08:55:35Z</time>
      </trkpt>
      <trkpt lat="42.16926" lon="-0.42901">
        <time>2022-07-29T08:55:36Z</time>
      </trkpt>
      <trkpt lat="42.16956" lon="-0.42917">
        <time>2022-07-29T08:55:37Z</time>
      </trkpt>
      <trkpt lat="42.16986" lon="-0.42934">
        <time>2022-07-29T08:55:38Z</time>
      </trkpt>
      <trkpt lat="42.17016" lon="-0.4295">
        <time>2022-07-29T08:55:39Z</time>
      </trkpt>
      <trkpt lat="42.17047" lon="-0.42967">
        <time>2022-07-29T08:55:40Z</time>
      </trkpt>
      <trkpt lat="42.17077" lon="-0.42983">
        <time>2022-07-29T08:55:41Z</time>
      </trkpt>
      <trkpt lat="42.17107" lon="-0.42999">
        <time>2022-07-29T08:55:42Z</time>
      </trkpt>
      <trkpt lat="42.17137" lon="-0.43016">
        <time>2022-07-29T08:55:43Z</time>
      </trkpt>
      <trkpt lat="42.17168" lon="-0.43032">
        <time>2022-07-29T08:55:44Z</time>
      </trkpt>
      <trkpt lat="42.17198" lon="-0.43048">
        <time>2022-07-29T08:55:45Z</time>
      </trkpt>
      <trkpt lat="42.17228" lon="-0.43065">
        <time>2022-07-29T08:55:46Z</time>
      </trkpt>
      <trkpt lat="42.17259" lon="-0.43081">
        <time>2022-07-29T08:55:47Z</time>
      </trkpt>
      <trkpt lat="42.1729" lon="-0.43095">
        <time>2022-07-29T08:55:48Z</time>
      </trkpt>
      <trkpt lat="42.17321" lon="-0.43109">
        <time>2022-07-29T08:55:49Z</time>
      </trkpt>
      <trkpt lat="42.17352" lon="-0.43122">
        <time>2022-07-29T08:55:50Z</time>
      </trkpt>
      <trkpt lat="42.17384" lon="-0.43133">
        <time>2022-07-29T08:55:51Z</time>
      </trkpt>
      <trkpt lat="42.17416" lon="-0.43143">
        <time>2022-07-29T08:55:52Z</time>
      </trkpt>
      <trkpt lat="42.17448" lon="-0.43151">
        <time>2022-07-29T08:55:53Z</time>
      </trkpt>
      <trkpt lat="42.1748" lon="-0.43158">
        <time>2022-07-29T08:55:54Z</time>
      </trkpt>
      <trkpt lat="42.17513" lon="-0.43164">
        <time>2022-07-29T08:55:55Z</time>
      </trkpt>
      <trkpt lat="42.17545" lon="-0.43167">
        <time>2022-07-29T08:55:56Z</time>
      </trkpt>
      <trkpt lat="42.17578" lon="-0.4317">
        <time>2022-07-29T08:55:57Z</time>
      </trkpt>
      <trkpt lat="42.1761" lon="-0.4317">
        <time>2022-07-29T08:55:58Z</time>
      </trkpt>
      <trkpt lat="42.17643" lon="-0.43169">
        <time>2022-07-29T08:55:59Z</time>
      </trkpt>
      <trkpt lat="42.17675" lon="-0.43167">
        <time>2022-07-29T08:56:00Z</time>
      </trkpt>
      <trkpt lat="42.17708" lon="-0.43163">
        <time>2022-07-29T08:56:01Z</time>
      </trkpt>
      <trkpt lat="42.1774" lon="-0.43158">
        <time>2022-07-29T08:56:02Z</time>
      </trkpt>
      <trkpt lat="42.17772" lon="-0.43151">
        <time>2022-07-29T08:56:03Z</time>
      </trkpt>
      <trkpt lat="42.17804" lon="-0.43144">
        <time>2022-07-29T08:56:04Z</time>
      </trkpt>
      <trkpt lat="42.17836" lon="-0.43136">
        <time>2022-07-29T08:56:05Z</time>
      </trkpt>
      <trkpt lat="42.17868" lon="-0.43128">
        <time>2022-07-29T08:56:06Z</time>
      </trkpt>
      <trkpt lat="42.179" lon="-0.43119">
        <time>2022-07-29T08:56:07Z</time>
      </trkpt>
      <trkpt lat="42.17932" lon="-0.4311">
        <time>2022-07-29T08:56:08Z</time>
      </trkpt>
      <trkpt lat="42.17964" lon="-0.43101">
        <time>2022-07-29T08:56:09Z</time>
      </trkpt>
      <trkpt lat="42.17996" lon="-0.43093">
        <time>2022-07-29T08:56:10Z</time>
      </trkpt>
      <trkpt lat="42.18028" lon="-0.43085">
        <time>2022-07-29T08:56:11Z</time>
      </trkpt>
      <trkpt lat="42.1806" lon="-0.43079">
        <time>2022-07-29T08:56:12Z</time>
      </trkpt>
      <trkpt lat="42.18092" lon="-0.43073">
        <time>2022-07-29T08:56:13Z</time>
      </trkpt>
      <trkpt lat="42.18124" lon="-0.43068">
        <time>2022-07-29T08:56:14Z</time>
      </trkpt>
      <trkpt lat="42.18157" lon="-0.43064">
        <time>2022-07-29T08:56:15Z</time>
      </trkpt>
      <trkpt lat="42.1819" lon="-0.43061">
        <time>2022-07-29T08:56:16Z</time>
      </trkpt>
      <trkpt lat="42.18223" lon="-0.43059">
        <time>2022-07-29T08:56:17Z</time>
      </trkpt>
      <trkpt lat="42.18256" lon="-0.43058">
        <time>2022-07-29T08:56:18Z</time>
      </trkpt>
      <trkpt lat="42.18289" lon="-0.43058">
        <time>2022-07-29T08:56:19Z</time>
      </trkpt>
      <trkpt lat="42.18321" lon="-0.43059">
        <time>2022-07-29T08:56:20Z</time>
      </trkpt>
      <trkpt lat="42.18354" lon="-0.43062">
        <time>2022-07-29T08:56:21Z</time>
      </trkpt>
      <trkpt lat="42.18387" lon="-0.43065">
        <time>2022-07-29T08:56:22Z</time>
      </trkpt>
      <trkpt lat="42.18419" lon="-0.43069">
        <time>2022-07-29T08:56:23Z</time>
      </trkpt>
      <trkpt lat="42.18451" lon="-0.43075">
        <time>2022-07-29T08:56:24Z</time>
      </trkpt>
      <trkpt lat="42.18483" lon="-0.43081">
        <time>2022-07-29T08:56:25Z</time>
      </trkpt>
      <trkpt lat="42.18516" lon="-0.43088">
        <time>2022-07-29T08:56:26Z</time>
      </trkpt>
      <trkpt lat="42.18548" lon="-0.43097">
        <time>2022-07-29T08:56:27Z</time>
      </trkpt>
      <trkpt lat="42.1858" lon="-0.43107">
        <time>2022-07-29T08:56:28Z</time>
      </trkpt>
      <trkpt lat="42.18611" lon="-0.43117">
        <time>2022-07-29T08:56:29Z</time>
      </trkpt>
      <trkpt lat="42.18643" lon="-0.43129">
        <time>2022-07-29T08:56:30Z</time>
      </trkpt>
      <trkpt lat="42.18674" lon="-0.43142">
        <time>2022-07-29T08:56:31Z</time>
      </trkpt>
      <trkpt lat="42.18705" lon="-0.43156">
        <time>2022-07-29T08:56:32Z</time>
      </trkpt>
      <trkpt lat="42.18736" lon="-0.4317">
        <time>2022-07-29T08:56:33Z</time>
      </trkpt>
      <trkpt lat="42.18766" lon="-0.43186">
        <time>2022-07-29T08:56:34Z</time>
      </trkpt>
      <trkpt lat="42.18796" lon="-0.43203">
        <time>2022-07-29T08:56:35Z</time>
      </trkpt>
      <trkpt lat="42.18827" lon="-0.4322">
        <time>2022-07-29T08:56:36Z</time>
      </trkpt>
      <trkpt lat="42.18856" lon="-0.43238">
        <time>2022-07-29T08:56:37Z</time>
      </trkpt>
      <trkpt lat="42.18886" lon="-0.43257">
        <time>2022-07-29T08:56:38Z</time>
      </trkpt>
      <trkpt lat="42.18915" lon="-0.43277">
        <time>2022-07-29T08:56:39Z</time>
      </trkpt>
      <trkpt lat="42.18944" lon="-0.43298">
        <time>2022-07-29T08:56:40Z</time>
      </trkpt>
      <trkpt lat="42.18973" lon="-0.43318">
        <time>2022-07-29T08:56:41Z</time>
      </trkpt>
      <trkpt lat="42.19002" lon="-0.43338">
        <time>2022-07-29T08:56:42Z</time>
      </trkpt>
      <trkpt lat="42.19031" lon="-0.43359">
        <time>2022-07-29T08:56:43Z</time>
      </trkpt>
      <trkpt lat="42.1906" lon="-0.43379">
        <time>2022-07-29T08:56:44Z</time>
      </trkpt>
      <trkpt lat="42.19089" lon="-0.434">
        <time>2022-07-29T08:56:45Z</time>
      </trkpt>
      <trkpt lat="42.19118" lon="-0.4342">
        <time>2022-07-29T08:56:46Z</time>
      </trkpt>
      <trkpt lat="42.19147" lon="-0.4344">
        <time>2022-07-29T08:56:47Z</time>
      </trkpt>
      <trkpt lat="42.19176" lon="-0.43459">
        <time>2022-07-29T08:56:48Z</time>
      </trkpt>
      <trkpt lat="42.19206" lon="-0.43478">
        <time>2022-07-29T08:56:49Z</time>
      </trkpt>
      <trkpt lat="42.19236" lon="-0.43495">
        <time>2022-07-29T08:56:50Z</time>
      </trkpt>
      <trkpt lat="42.19266" lon="-0.4351">
        <time>2022-07-29T08:56:51Z</time>
      </trkpt>
      <trkpt lat="42.19297" lon="-0.43525">
        <time>2022-07-29T08:56:52Z</time>
      </trkpt>
      <trkpt lat="42.19328" lon="-0.43538">
        <time>2022-07-29T08:56:53Z</time>
      </trkpt>
      <trkpt lat="42.19359" lon="-0.4355">
        <time>2022-07-29T08:56:54Z</time>
      </trkpt>
      <trkpt lat="42.19391" lon="-0.43561">
        <time>2022-07-29T08:56:55Z</time>
      </trkpt>
      <trkpt lat="42.19422" lon="-0.4357">
        <time>2022-07-29T08:56:56Z</time>
      </trkpt>
      <trkpt lat="42.19454" lon="-0.43579">
        <time>2022-07-29T08:56:57Z</time>
      </trkpt>
      <trkpt lat="42.19487" lon="-0.43588">
        <time>2022-07-29T08:56:58Z</time>
      </trkpt>
      <trkpt lat="42.19519" lon="-0.43594">
        <time>2022-07-29T08:56:59Z</time>
      </trkpt>
      <trkpt lat="42.19552" lon="-0.43599">
        <time>2022-07-29T08:57:00Z</time>
      </trkpt>
      <trkpt lat="42.19585" lon="-0.43602">
        <time>2022-07-29T08:57:01Z</time>
      </trkpt>
      <trkpt lat="42.19617" lon="-0.43604">
        <time>2022-07-29T08:57:02Z</time>
      </trkpt>
      <trkpt lat="42.1965" lon="-0.43605">
        <time>2022-07-29T08:57:03Z</time>
      </trkpt>
      <trkpt lat="42.19683" lon="-0.43605">
        <time>2022-07-29T08:57:04Z</time>
      </trkpt>
      <trkpt lat="42.19715" lon="-0.43605">
        <time>2022-07-29T08:57:05Z</time>
      </trkpt>
      <trkpt lat="42.19747" lon="-0.43603">
        <time>2022-07-29T08:57:06Z</time>
      </trkpt>
      <trkpt lat="42.1978" lon="-0.43602">
        <time>2022-07-29T08:57:07Z</time>
      </trkpt>
      <trkpt lat="42.19812" lon="-0.436">
        <time>2022-07-29T08:57:08Z</time>
      </trkpt>
      <trkpt lat="42.19845" lon="-0.43598">
        <time>2022-07-29T08:57:09Z</time>
      </trkpt>
      <trkpt lat="42.19877" lon="-0.43596">
        <time>2022-07-29T08:57:10Z</time>
      </trkpt>
      <trkpt lat="42.1991" lon="-0.43593">
        <time>2022-07-29T08:57:11Z</time>
      </trkpt>
      <trkpt lat="42.19942" lon="-0.43591">
        <time>2022-07-29T08:57:12Z</time>
      </trkpt>
      <trkpt lat="42.19975" lon="-0.43588">
        <time>2022-07-29T08:57:13Z</time>
      </trkpt>
      <trkpt lat="42.20007" lon="-0.43586">
        <time>2022-07-29T08:57:14Z</time>
      </trkpt>
      <trkpt lat="42.2004" lon="-0.43584">
        <time>2022-07-29T08:57:15Z</time>
      </trkpt>
      <trkpt lat="42.20072" lon="-0.43581">
        <time>2022-07-29T08:57:16Z</time>
      </trkpt>
      <trkpt lat="42.20105" lon="-0.43579">
        <time>2022-07-29T08:57:17Z</time>
      </trkpt>
      <trkpt lat="42.20138" lon="-0.43576">
        <time>2022-07-29T08:57:18Z</time>
      </trkpt>
      <trkpt lat="42.20171" lon="-0.43574">
        <time>2022-07-29T08:57:19Z</time>
      </trkpt>
      <trkpt lat="42.20203" lon="-0.43571">
        <time>2022-07-29T08:57:20Z</time>
      </trkpt>
      <trkpt lat="42.20236" lon="-0.43569">
        <time>2022-07-29T08:57:21Z</time>
      </trkpt>
      <trkpt lat="42.20268" lon="-0.43567">
        <time>2022-07-29T08:57:22Z</time>
      </trkpt>
      <trkpt lat="42.20301" lon="-0.43565">
        <time>2022-07-29T08:57:23Z</time>
      </trkpt>
      <trkpt lat="42.20333" lon="-0.43564">
        <time>2022-07-29T08:57:24Z</time>
      </trkpt>
      <trkpt lat="42.20366" lon="-0.43562">
        <time>2022-07-29T08:57:25Z</time>
      </trkpt>
      <trkpt lat="42.20398" lon="-0.43561">
        <time>2022-07-29T08:57:26Z</time>
      </trkpt>
      <trkpt lat="42.20431" lon="-0.43558">
        <time>2022-07-29T08:57:27Z</time>
      </trkpt>
      <trkpt lat="42.20463" lon="-0.43556">
        <time>2022-07-29T08:57:28Z</time>
      </trkpt>
      <trkpt lat="42.20496" lon="-0.43553">
        <time>2022-07-29T08:57:29Z</time>
      </trkpt>
      <trkpt lat="42.20528" lon="-0.43551">
        <time>2022-07-29T08:57:30Z</time>
      </trkpt>
      <trkpt lat="42.20561" lon="-0.43548">
        <time>2022-07-29T08:57:31Z</time>
      </trkpt>
      <trkpt lat="42.20593" lon="-0.43544">
        <time>2022-07-29T08:57:32Z</time>
      </trkpt>
      <trkpt lat="42.20626" lon="-0.43541">
        <time>2022-07-29T08:57:33Z</time>
      </trkpt>
      <trkpt lat="42.20659" lon="-0.43537">
        <time>2022-07-29T08:57:34Z</time>
      </trkpt>
      <trkpt lat="42.20691" lon="-0.43534">
        <time>2022-07-29T08:57:35Z</time>
      </trkpt>
      <trkpt lat="42.20724" lon="-0.43531">
        <time>2022-07-29T08:57:36Z</time>
      </trkpt>
      <trkpt lat="42.20757" lon="-0.43529">
        <time>2022-07-29T08:57:37Z</time>
      </trkpt>
      <trkpt lat="42.20789" lon="-0.43527">
        <time>2022-07-29T08:57:38Z</time>
      </trkpt>
      <trkpt lat="42.20822" lon="-0.43525">
        <time>2022-07-29T08:57:39Z</time>
      </trkpt>
      <trkpt lat="42.20855" lon="-0.43525">
        <time>2022-07-29T08:57:40Z</time>
      </trkpt>
      <trkpt lat="42.20887" lon="-0.43525">
        <time>2022-07-29T08:57:41Z</time>
      </trkpt>
      <trkpt lat="42.2092" lon="-0.43526">
        <time>2022-07-29T08:57:42Z</time>
      </trkpt>
      <trkpt lat="42.20953" lon="-0.43529">
        <time>2022-07-29T08:57:43Z</time>
      </trkpt>
      <trkpt lat="42.20985" lon="-0.43533">
        <time>2022-07-29T08:57:44Z</time>
      </trkpt>
      <trkpt lat="42.21018" lon="-0.43539">
        <time>2022-07-29T08:57:45Z</time>
      </trkpt>
      <trkpt lat="42.2105" lon="-0.43545">
        <time>2022-07-29T08:57:46Z</time>
      </trkpt>
      <trkpt lat="42.21082" lon="-0.43553">
        <time>2022-07-29T08:57:47Z</time>
      </trkpt>
      <trkpt lat="42.21113" lon="-0.43563">
        <time>2022-07-29T08:57:48Z</time>
      </trkpt>
      <trkpt lat="42.21145" lon="-0.43573">
        <time>2022-07-29T08:57:49Z</time>
      </trkpt>
      <trkpt lat="42.21176" lon="-0.43585">
        <time>2022-07-29T08:57:50Z</time>
      </trkpt>
      <trkpt lat="42.21208" lon="-0.43598">
        <time>2022-07-29T08:57:51Z</time>
      </trkpt>
      <trkpt lat="42.21238" lon="-0.43612">
        <time>2022-07-29T08:57:52Z</time>
      </trkpt>
      <trkpt lat="42.21269" lon="-0.43628">
        <time>2022-07-29T08:57:53Z</time>
      </trkpt>
      <trkpt lat="42.21299" lon="-0.43645">
        <time>2022-07-29T08:57:54Z</time>
      </trkpt>
      <trkpt lat="42.21329" lon="-0.43663">
        <time>2022-07-29T08:57:55Z</time>
      </trkpt>
      <trkpt lat="42.21359" lon="-0.43683">
        <time>2022-07-29T08:57:56Z</time>
      </trkpt>
      <trkpt lat="42.21388" lon="-0.43703">
        <time>2022-07-29T08:57:57Z</time>
      </trkpt>
      <trkpt lat="42.21416" lon="-0.43726">
        <time>2022-07-29T08:57:58Z</time>
      </trkpt>
      <trkpt lat="42.21443" lon="-0.43749">
        <time>2022-07-29T08:57:59Z</time>
      </trkpt>
      <trkpt lat="42.21471" lon="-0.43773">
        <time>2022-07-29T08:58:00Z</time>
      </trkpt>
      <trkpt lat="42.21497" lon="-0.43798">
        <time>2022-07-29T08:58:01Z</time>
      </trkpt>
      <trkpt lat="42.21524" lon="-0.43824">
        <time>2022-07-29T08:58:02Z</time>
      </trkpt>
      <trkpt lat="42.21549" lon="-0.43851">
        <time>2022-07-29T08:58:03Z</time>
      </trkpt>
      <trkpt lat="42.21575" lon="-0.43877">
        <time>2022-07-29T08:58:04Z</time>
      </trkpt>
      <trkpt lat="42.21601" lon="-0.43904">
        <time>2022-07-29T08:58:05Z</time>
      </trkpt>
      <trkpt lat="42.21627" lon="-0.43931">
        <time>2022-07-29T08:58:06Z</time>
      </trkpt>
      <trkpt lat="42.21653" lon="-0.43958">
        <time>2022-07-29T08:58:07Z</time>
      </trkpt>
      <trkpt lat="42.21678" lon="-0.43986">
        <time>2022-07-29T08:58:08Z</time>
      </trkpt>
      <trkpt lat="42.21703" lon="-0.44013">
        <time>2022-07-29T08:58:09Z</time>
      </trkpt>
      <trkpt lat="42.21729" lon="-0.4404">
        <time>2022-07-29T08:58:10Z</time>
      </trkpt>
      <trkpt lat="42.21756" lon="-0.44066">
        <time>2022-07-29T08:58:11Z</time>
      </trkpt>
      <trkpt lat="42.21782" lon="-0.44092">
        <time>2022-07-29T08:58:12Z</time>
      </trkpt>
      <trkpt lat="42.21809" lon="-0.44116">
        <time>2022-07-29T08:58:13Z</time>
      </trkpt>
      <trkpt lat="42.21838" lon="-0.44139">
        <time>2022-07-29T08:58:14Z</time>
      </trkpt>
      <trkpt lat="42.21866" lon="-0.4416">
        <time>2022-07-29T08:58:15Z</time>
      </trkpt>
      <trkpt lat="42.21895" lon="-0.44181">
        <time>2022-07-29T08:58:16Z</time>
      </trkpt>
      <trkpt lat="42.21924" lon="-0.44199">
        <time>2022-07-29T08:58:17Z</time>
      </trkpt>
      <trkpt lat="42.21955" lon="-0.44216">
        <time>2022-07-29T08:58:18Z</time>
      </trkpt>
      <trkpt lat="42.21985" lon="-0.44232">
        <time>2022-07-29T08:58:19Z</time>
      </trkpt>
      <trkpt lat="42.22016" lon="-0.44246">
        <time>2022-07-29T08:58:20Z</time>
      </trkpt>
      <trkpt lat="42.22047" lon="-0.44257">
        <time>2022-07-29T08:58:21Z</time>
      </trkpt>
      <trkpt lat="42.22079" lon="-0.44268">
        <time>2022-07-29T08:58:22Z</time>
      </trkpt>
      <trkpt lat="42.2211" lon="-0.44278">
        <time>2022-07-29T08:58:23Z</time>
      </trkpt>
      <trkpt lat="42.22142" lon="-0.44286">
        <time>2022-07-29T08:58:24Z</time>
      </trkpt>
      <trkpt lat="42.22174" lon="-0.44293">
        <time>2022-07-29T08:58:25Z</time>
      </trkpt>
      <trkpt lat="42.22206" lon="-0.44298">
        <time>2022-07-29T08:58:26Z</time>
      </trkpt>
      <trkpt lat="42.22239" lon="-0.44302">
        <time>2022-07-29T08:58:27Z</time>
      </trkpt>
      <trkpt lat="42.22272" lon="-0.44304">
        <time>2022-07-29T08:58:28Z</time>
      </trkpt>
      <trkpt lat="42.22305" lon="-0.44305">
        <time>2022-07-29T08:58:29Z</time>
      </trkpt>
      <trkpt lat="42.22337" lon="-0.44304">
        <time>2022-07-29T08:58:30Z</time>
      </trkpt>
      <trkpt lat="42.2237" lon="-0.44302">
        <time>2022-07-29T08:58:31Z</time>
      </trkpt>
      <trkpt lat="42.22402" lon="-0.443">
        <time>2022-07-29T08:58:32Z</time>
      </trkpt>
      <trkpt lat="42.22435" lon="-0.44298">
        <time>2022-07-29T08:58:33Z</time>
      </trkpt>
      <trkpt lat="42.22468" lon="-0.44295">
        <time>2022-07-29T08:58:34Z</time>
      </trkpt>
      <trkpt lat="42.225" lon="-0.44294">
        <time>2022-07-29T08:58:35Z</time>
      </trkpt>
      <trkpt lat="42.22532" lon="-0.44291">
        <time>2022-07-29T08:58:36Z</time>
      </trkpt>
      <trkpt lat="42.22565" lon="-0.44288">
        <time>2022-07-29T08:58:37Z</time>
      </trkpt>
      <trkpt lat="42.22598" lon="-0.44286">
        <time>2022-07-29T08:58:38Z</time>
      </trkpt>
      <trkpt lat="42.22631" lon="-0.44284">
        <time>2022-07-29T08:58:39Z</time>
      </trkpt>
      <trkpt lat="42.22663" lon="-0.44283">
        <time>2022-07-29T08:58:40Z</time>
      </trkpt>
      <trkpt lat="42.22696" lon="-0.44282">
        <time>2022-07-29T08:58:41Z</time>
      </trkpt>
      <trkpt lat="42.22729" lon="-0.44282">
        <time>2022-07-29T08:58:42Z</time>
      </trkpt>
      <trkpt lat="42.22761" lon="-0.44281">
        <time>2022-07-29T08:58:43Z</time>
      </trkpt>
      <trkpt lat="42.22794" lon="-0.44282">
        <time>2022-07-29T08:58:44Z</time>
      </trkpt>
      <trkpt lat="42.22826" lon="-0.44282">
        <time>2022-07-29T08:58:45Z</time>
      </trkpt>
      <trkpt lat="42.22859" lon="-0.44284">
        <time>2022-07-29T08:58:46Z</time>
      </trkpt>
      <trkpt lat="42.22891" lon="-0.44285">
        <time>2022-07-29T08:58:47Z</time>
      </trkpt>
      <trkpt lat="42.22924" lon="-0.44288">
        <time>2022-07-29T08:58:48Z</time>
      </trkpt>
      <trkpt lat="42.22957" lon="-0.4429">
        <time>2022-07-29T08:58:49Z</time>
      </trkpt>
      <trkpt lat="42.22989" lon="-0.44294">
        <time>2022-07-29T08:58:50Z</time>
      </trkpt>
      <trkpt lat="42.23022" lon="-0.44297">
        <time>2022-07-29T08:58:51Z</time>
      </trkpt>
      <trkpt lat="42.23054" lon="-0.44302">
        <time>2022-07-29T08:58:52Z</time>
      </trkpt>
      <trkpt lat="42.23087" lon="-0.44307">
        <time>2022-07-29T08:58:53Z</time>
      </trkpt>
      <trkpt lat="42.23119" lon="-0.44313">
        <time>2022-07-29T08:58:54Z</time>
      </trkpt>
      <trkpt lat="42.23151" lon="-0.44319">
        <time>2022-07-29T08:58:55Z</time>
      </trkpt>
      <trkpt lat="42.23183" lon="-0.44325">
        <time>2022-07-29T08:58:56Z</time>
      </trkpt>
      <trkpt lat="42.23216" lon="-0.44332">
        <time>2022-07-29T08:58:57Z</time>
      </trkpt>
      <trkpt lat="42.23247" lon="-0.4434">
        <time>2022-07-29T08:58:58Z</time>
      </trkpt>
      <trkpt lat="42.23279" lon="-0.44348">
        <time>2022-07-29T08:58:59Z</time>
      </trkpt>
      <trkpt lat="42.23312" lon="-0.44357">
        <time>2022-07-29T08:59:00Z</time>
      </trkpt>
      <trkpt lat="42.23343" lon="-0.44366">
        <time>2022-07-29T08:59:01Z</time>
      </trkpt>
      <trkpt lat="42.23375" lon="-0.44376">
        <time>2022-07-29T08:59:02Z</time>
      </trkpt>
      <trkpt lat="42.23407" lon="-0.44386">
        <time>2022-07-29T08:59:03Z</time>
      </trkpt>
      <trkpt lat="42.23439" lon="-0.44396">
        <time>2022-07-29T08:59:04Z</time>
      </trkpt>
      <trkpt lat="42.2347" lon="-0.44406">
        <time>2022-07-29T08:59:05Z</time>
      </trkpt>
      <trkpt lat="42.23502" lon="-0.44417">
        <time>2022-07-29T08:59:06Z</time>
      </trkpt>
      <trkpt lat="42.23534" lon="-0.44428">
        <time>2022-07-29T08:59:07Z</time>
      </trkpt>
      <trkpt lat="42.23565" lon="-0.44439">
        <time>2022-07-29T08:59:08Z</time>
      </trkpt>
      <trkpt lat="42.23596" lon="-0.44451">
        <time>2022-07-29T08:59:09Z</time>
      </trkpt>
      <trkpt lat="42.23628" lon="-0.44463">
        <time>2022-07-29T08:59:10Z</time>
      </trkpt>
      <trkpt lat="42.2366" lon="-0.44474">
        <time>2022-07-29T08:59:11Z</time>
      </trkpt>
      <trkpt lat="42.23692" lon="-0.44486">
        <time>2022-07-29T08:59:12Z</time>
      </trkpt>
      <trkpt lat="42.23723" lon="-0.44497">
        <time>2022-07-29T08:59:13Z</time>
      </trkpt>
      <trkpt lat="42.23755" lon="-0.44507">
        <time>2022-07-29T08:59:14Z</time>
      </trkpt>
      <trkpt lat="42.23787" lon="-0.44518">
        <time>2022-07-29T08:59:15Z</time>
      </trkpt>
      <trkpt lat="42.23819" lon="-0.44527">
        <time>2022-07-29T08:59:16Z</time>
      </trkpt>
      <trkpt lat="42.2385" lon="-0.44536">
        <time>2022-07-29T08:59:17Z</time>
      </trkpt>
      <trkpt lat="42.23882" lon="-0.44544">
        <time>2022-07-29T08:59:18Z</time>
      </trkpt>
      <trkpt lat="42.23915" lon="-0.44552">
        <time>2022-07-29T08:59:19Z</time>
      </trkpt>
      <trkpt lat="42.23947" lon="-0.44558">
        <time>2022-07-29T08:59:20Z</time>
      </trkpt>
      <trkpt lat="42.23979" lon="-0.44564">
        <time>2022-07-29T08:59:21Z</time>
      </trkpt>
      <trkpt lat="42.24012" lon="-0.44569">
        <time>2022-07-29T08:59:22Z</time>
      </trkpt>
      <trkpt lat="42.24045" lon="-0.44573">
        <time>2022-07-29T08:59:23Z</time>
      </trkpt>
      <trkpt lat="42.24078" lon="-0.44577">
        <time>2022-07-29T08:59:24Z</time>
      </trkpt>
      <trkpt lat="42.2411" lon="-0.4458">
        <time>2022-07-29T08:59:25Z</time>
      </trkpt>
      <trkpt lat="42.24143" lon="-0.44582">
        <time>2022-07-29T08:59:26Z</time>
      </trkpt>
      <trkpt lat="42.24176" lon="-0.44584">
        <time>2022-07-29T08:59:27Z</time>
      </trkpt>
      <trkpt lat="42.24208" lon="-0.44585">
        <time>2022-07-29T08:59:28Z</time>
      </trkpt>
      <trkpt lat="42.2424" lon="-0.44587">
        <time>2022-07-29T08:59:29Z</time>
      </trkpt>
      <trkpt lat="42.24273" lon="-0.44587">
        <time>2022-07-29T08:59:30Z</time>
      </trkpt>
      <trkpt lat="42.24306" lon="-0.44588">
        <time>2022-07-29T08:59:31Z</time>
      </trkpt>
      <trkpt lat="42.24338" lon="-0.44589">
        <time>2022-07-29T08:59:32Z</time>
      </trkpt>
      <trkpt lat="42.24371" lon="-0.4459">
        <time>2022-07-29T08:59:33Z</time>
      </trkpt>
      <trkpt lat="42.24404" lon="-0.44591">
        <time>2022-07-29T08:59:34Z</time>
      </trkpt>
      <trkpt lat="42.24436" lon="-0.44592">
        <time>2022-07-29T08:59:35Z</time>
      </trkpt>
      <trkpt lat="42.24469" lon="-0.44592">
        <time>2022-07-29T08:59:36Z</time>
      </trkpt>
      <trkpt lat="42.24502" lon="-0.44592">
        <time>2022-07-29T08:59:37Z</time>
      </trkpt>
      <trkpt lat="42.24534" lon="-0.44593">
        <time>2022-07-29T08:59:38Z</time>
      </trkpt>
      <trkpt lat="42.24567" lon="-0.44594">
        <time>2022-07-29T08:59:39Z</time>
      </trkpt>
      <trkpt lat="42.246" lon="-0.44595">
        <time>2022-07-29T08:59:40Z</time>
      </trkpt>
      <trkpt lat="42.24633" lon="-0.44595">
        <time>2022-07-29T08:59:41Z</time>
      </trkpt>
      <trkpt lat="42.24665" lon="-0.44596">
        <time>2022-07-29T08:59:42Z</time>
      </trkpt>
      <trkpt lat="42.24698" lon="-0.44597">
        <time>2022-07-29T08:59:43Z</time>
      </trkpt>
      <trkpt lat="42.24731" lon="-0.44597">
        <time>2022-07-29T08:59:44Z</time>
      </trkpt>
      <trkpt lat="42.24764" lon="-0.44597">
        <time>2022-07-29T08:59:45Z</time>
      </trkpt>
      <trkpt lat="42.24796" lon="-0.44596">
        <time>2022-07-29T08:59:46Z</time>
      </trkpt>
      <trkpt lat="42.24829" lon="-0.44593">
        <time>2022-07-29T08:59:47Z</time>
      </trkpt>
      <trkpt lat="42.24861" lon="-0.44588">
        <time>2022-07-29T08:59:48Z</time>
      </trkpt>
      <trkpt lat="42.24893" lon="-0.44582">
        <time>2022-07-29T08:59:49Z</time>
      </trkpt>
      <trkpt lat="42.24925" lon="-0.44573">
        <time>2022-07-29T08:59:50Z</time>
      </trkpt>
      <trkpt lat="42.24957" lon="-0.44563">
        <time>2022-07-29T08:59:51Z</time>
      </trkpt>
      <trkpt lat="42.24988" lon="-0.44553">
        <time>2022-07-29T08:59:52Z</time>
      </trkpt>
      <trkpt lat="42.2502" lon="-0.44543">
        <time>2022-07-29T08:59:53Z</time>
      </trkpt>
      <trkpt lat="42.25052" lon="-0.44533">
        <time>2022-07-29T08:59:54Z</time>
      </trkpt>
      <trkpt lat="42.25084" lon="-0.44522">
        <time>2022-07-29T08:59:55Z</time>
      </trkpt>
      <trkpt lat="42.25115" lon="-0.44511">
        <time>2022-07-29T08:59:56Z</time>
      </trkpt>
      <trkpt lat="42.25147" lon="-0.445">
        <time>2022-07-29T08:59:57Z</time>
      </trkpt>
      <trkpt lat="42.25179" lon="-0.4449">
        <time>2022-07-29T08:59:58Z</time>
      </trkpt>
      <trkpt lat="42.2521" lon="-0.4448">
        <time>2022-07-29T08:59:59Z</time>
      </trkpt>
      <trkpt lat="42.25242" lon="-0.44469">
        <time>2022-07-29T09:00:00Z</time>
      </trkpt>
      <trkpt lat="42.25274" lon="-0.44459">
        <time>2022-07-29T09:00:01Z</time>
      </trkpt>
      <trkpt lat="42.25305" lon="-0.44448">
        <time>2022-07-29T09:00:02Z</time>
      </trkpt>
      <trkpt lat="42.25337" lon="-0.44437">
        <time>2022-07-29T09:00:03Z</time>
      </trkpt>
      <trkpt lat="42.25368" lon="-0.44427">
        <time>2022-07-29T09:00:04Z</time>
      </trkpt>
      <trkpt lat="42.254" lon="-0.44417">
        <time>2022-07-29T09:00:05Z</time>
      </trkpt>
      <trkpt lat="42.25432" lon="-0.44406">
        <time>2022-07-29T09:00:06Z</time>
      </trkpt>
      <trkpt lat="42.25463" lon="-0.44396">
        <time>2022-07-29T09:00:07Z</time>
      </trkpt>
      <trkpt lat="42.25495" lon="-0.44385">
        <time>2022-07-29T09:00:08Z</time>
      </trkpt>
      <trkpt lat="42.25527" lon="-0.44375">
        <time>2022-07-29T09:00:09Z</time>
      </trkpt>
      <trkpt lat="42.25558" lon="-0.44365">
        <time>2022-07-29T09:00:10Z</time>
      </trkpt>
      <trkpt lat="42.2559" lon="-0.44354">
        <time>2022-07-29T09:00:11Z</time>
      </trkpt>
      <trkpt lat="42.25622" lon="-0.44345">
        <time>2022-07-29T09:00:12Z</time>
      </trkpt>
      <trkpt lat="42.25654" lon="-0.44335">
        <time>2022-07-29T09:00:13Z</time>
      </trkpt>
      <trkpt lat="42.25686" lon="-0.44325">
        <time>2022-07-29T09:00:14Z</time>
      </trkpt>
      <trkpt lat="42.25717" lon="-0.44315">
        <time>2022-07-29T09:00:15Z</time>
      </trkpt>
      <trkpt lat="42.25749" lon="-0.44305">
        <time>2022-07-29T09:00:16Z</time>
      </trkpt>
      <trkpt lat="42.25781" lon="-0.44295">
        <time>2022-07-29T09:00:17Z</time>
      </trkpt>
      <trkpt lat="42.25813" lon="-0.44284">
        <time>2022-07-29T09:00:18Z</time>
      </trkpt>
      <trkpt lat="42.25845" lon="-0.44274">
        <time>2022-07-29T09:00:19Z</time>
      </trkpt>
      <trkpt lat="42.25877" lon="-0.44263">
        <time>2022-07-29T09:00:20Z</time>
      </trkpt>
      <trkpt lat="42.25908" lon="-0.44251">
        <time>2022-07-29T09:00:21Z</time>
      </trkpt>
      <trkpt lat="42.25939" lon="-0.44239">
        <time>2022-07-29T09:00:22Z</time>
      </trkpt>
      <trkpt lat="42.2597" lon="-0.44225">
        <time>2022-07-29T09:00:23Z</time>
      </trkpt>
      <trkpt lat="42.26001" lon="-0.44209">
        <time>2022-07-29T09:00:24Z</time>
      </trkpt>
      <trkpt lat="42.2603" lon="-0.4419">
        <time>2022-07-29T09:00:25Z</time>
      </trkpt>
      <trkpt lat="42.26059" lon="-0.4417">
        <time>2022-07-29T09:00:26Z</time>
      </trkpt>
      <trkpt lat="42.26086" lon="-0.44147">
        <time>2022-07-29T09:00:27Z</time>
      </trkpt>
      <trkpt lat="42.26113" lon="-0.44122">
        <time>2022-07-29T09:00:28Z</time>
      </trkpt>
      <trkpt lat="42.26138" lon="-0.44095">
        <time>2022-07-29T09:00:29Z</time>
      </trkpt>
      <trkpt lat="42.26163" lon="-0.44067">
        <time>2022-07-29T09:00:30Z</time>
      </trkpt>
      <trkpt lat="42.26186" lon="-0.44036">
        <time>2022-07-29T09:00:31Z</time>
      </trkpt>
      <trkpt lat="42.26209" lon="-0.44005">
        <time>2022-07-29T09:00:32Z</time>
      </trkpt>
      <trkpt lat="42.26231" lon="-0.43972">
        <time>2022-07-29T09:00:33Z</time>
      </trkpt>
      <trkpt lat="42.26253" lon="-0.43939">
        <time>2022-07-29T09:00:34Z</time>
      </trkpt>
      <trkpt lat="42.26274" lon="-0.43905">
        <time>2022-07-29T09:00:35Z</time>
      </trkpt>
      <trkpt lat="42.26295" lon="-0.43871">
        <time>2022-07-29T09:00:36Z</time>
      </trkpt>
      <trkpt lat="42.26316" lon="-0.43837">
        <time>2022-07-29T09:00:37Z</time>
      </trkpt>
      <trkpt lat="42.26336" lon="-0.43803">
        <time>2022-07-29T09:00:38Z</time>
      </trkpt>
      <trkpt lat="42.26357" lon="-0.43769">
        <time>2022-07-29T09:00:39Z</time>
      </trkpt>
      <trkpt lat="42.26378" lon="-0.43735">
        <time>2022-07-29T09:00:40Z</time>
      </trkpt>
      <trkpt lat="42.26398" lon="-0.43702">
        <time>2022-07-29T09:00:41Z</time>
      </trkpt>
      <trkpt lat="42.26419" lon="-0.43668">
        <time>2022-07-29T09:00:42Z</time>
      </trkpt>
      <trkpt lat="42.2644" lon="-0.43636">
        <time>2022-07-29T09:00:43Z</time>
      </trkpt>
      <trkpt lat="42.26461" lon="-0.43603">
        <time>2022-07-29T09:00:44Z</time>
      </trkpt>
      <trkpt lat="42.26484" lon="-0.43572">
        <time>2022-07-29T09:00:45Z</time>
      </trkpt>
      <trkpt lat="42.26508" lon="-0.43543">
        <time>2022-07-29T09:00:46Z</time>
      </trkpt>
      <trkpt lat="42.26534" lon="-0.43517">
        <time>2022-07-29T09:00:47Z</time>
      </trkpt>
      <trkpt lat="42.26561" lon="-0.43493">
        <time>2022-07-29T09:00:48Z</time>
      </trkpt>
      <trkpt lat="42.26589" lon="-0.43473">
        <time>2022-07-29T09:00:49Z</time>
      </trkpt>
      <trkpt lat="42.26619" lon="-0.43457">
        <time>2022-07-29T09:00:50Z</time>
      </trkpt>
      <trkpt lat="42.26649" lon="-0.43444">
        <time>2022-07-29T09:00:51Z</time>
      </trkpt>
      <trkpt lat="42.2668" lon="-0.43436">
        <time>2022-07-29T09:00:52Z</time>
      </trkpt>
      <trkpt lat="42.26712" lon="-0.43432">
        <time>2022-07-29T09:00:53Z</time>
      </trkpt>
      <trkpt lat="42.26743" lon="-0.43431">
        <time>2022-07-29T09:00:54Z</time>
      </trkpt>
      <trkpt lat="42.26776" lon="-0.43431">
        <time>2022-07-29T09:00:55Z</time>
      </trkpt>
      <trkpt lat="42.26809" lon="-0.43431">
        <time>2022-07-29T09:00:56Z</time>
      </trkpt>
      <trkpt lat="42.26841" lon="-0.43432">
        <time>2022-07-29T09:00:57Z</time>
      </trkpt>
      <trkpt lat="42.26873" lon="-0.43431">
        <time>2022-07-29T09:00:58Z</time>
      </trkpt>
      <trkpt lat="42.26906" lon="-0.4343">
        <time>2022-07-29T09:00:59Z</time>
      </trkpt>
      <trkpt lat="42.26939" lon="-0.4343">
        <time>2022-07-29T09:01:00Z</time>
      </trkpt>
      <trkpt lat="42.26972" lon="-0.43429">
        <time>2022-07-29T09:01:01Z</time>
      </trkpt>
      <trkpt lat="42.27004" lon="-0.43428">
        <time>2022-07-29T09:01:02Z</time>
      </trkpt>
      <trkpt lat="42.27035" lon="-0.43428">
        <time>2022-07-29T09:01:03Z</time>
      </trkpt>
      <trkpt lat="42.27064" lon="-0.43427">
        <time>2022-07-29T09:01:04Z</time>
      </trkpt>
      <trkpt lat="42.27092" lon="-0.43423">
        <time>2022-07-29T09:01:05Z</time>
      </trkpt>
      <trkpt lat="42.27119" lon="-0.43416">
        <time>2022-07-29T09:01:06Z</time>
      </trkpt>
      <trkpt lat="42.27145" lon="-0.43405">
        <time>2022-07-29T09:01:07Z</time>
      </trkpt>
      <trkpt lat="42.2717" lon="-0.4339">
        <time>2022-07-29T09:01:08Z</time>
      </trkpt>
      <trkpt lat="42.27193" lon="-0.43372">
        <time>2022-07-29T09:01:09Z</time>
      </trkpt>
      <trkpt lat="42.27213" lon="-0.43351">
        <time>2022-07-29T09:01:10Z</time>
      </trkpt>
      <trkpt lat="42.27232" lon="-0.43326">
        <time>2022-07-29T09:01:11Z</time>
      </trkpt>
      <trkpt lat="42.27248" lon="-0.43299">
        <time>2022-07-29T09:01:12Z</time>
      </trkpt>
      <trkpt lat="42.27262" lon="-0.4327">
        <time>2022-07-29T09:01:13Z</time>
      </trkpt>
      <trkpt lat="42.27274" lon="-0.43238">
        <time>2022-07-29T09:01:14Z</time>
      </trkpt>
      <trkpt lat="42.27283" lon="-0.43203">
        <time>2022-07-29T09:01:15Z</time>
      </trkpt>
      <trkpt lat="42.27291" lon="-0.43167">
        <time>2022-07-29T09:01:16Z</time>
      </trkpt>
      <trkpt lat="42.273" lon="-0.43132">
        <time>2022-07-29T09:01:17Z</time>
      </trkpt>
      <trkpt lat="42.27311" lon="-0.43097">
        <time>2022-07-29T09:01:18Z</time>
      </trkpt>
      <trkpt lat="42.27326" lon="-0.43063">
        <time>2022-07-29T09:01:19Z</time>
      </trkpt>
      <trkpt lat="42.27343" lon="-0.43031">
        <time>2022-07-29T09:01:20Z</time>
      </trkpt>
      <trkpt lat="42.27364" lon="-0.43003">
        <time>2022-07-29T09:01:21Z</time>
      </trkpt>
      <trkpt lat="42.27387" lon="-0.42979">
        <time>2022-07-29T09:01:22Z</time>
      </trkpt>
      <trkpt lat="42.27411" lon="-0.42956">
        <time>2022-07-29T09:01:23Z</time>
      </trkpt>
      <trkpt lat="42.27437" lon="-0.42936">
        <time>2022-07-29T09:01:24Z</time>
      </trkpt>
      <trkpt lat="42.27463" lon="-0.42924">
        <time>2022-07-29T09:01:25Z</time>
      </trkpt>
      <trkpt lat="42.27493" lon="-0.42915">
        <time>2022-07-29T09:01:26Z</time>
      </trkpt>
      <trkpt lat="42.27524" lon="-0.42918">
        <time>2022-07-29T09:01:27Z</time>
      </trkpt>
      <trkpt lat="42.27554" lon="-0.42915">
        <time>2022-07-29T09:01:28Z</time>
      </trkpt>
      <trkpt lat="42.27583" lon="-0.42911">
        <time>2022-07-29T09:01:29Z</time>
      </trkpt>
      <trkpt lat="42.27611" lon="-0.42902">
        <time>2022-07-29T09:01:30Z</time>
      </trkpt>
      <trkpt lat="42.27638" lon="-0.42889">
        <time>2022-07-29T09:01:31Z</time>
      </trkpt>
      <trkpt lat="42.27665" lon="-0.42872">
        <time>2022-07-29T09:01:32Z</time>
      </trkpt>
      <trkpt lat="42.27688" lon="-0.4285">
        <time>2022-07-29T09:01:33Z</time>
      </trkpt>
      <trkpt lat="42.2771" lon="-0.42824">
        <time>2022-07-29T09:01:34Z</time>
      </trkpt>
      <trkpt lat="42.2773" lon="-0.428">
        <time>2022-07-29T09:01:35Z</time>
      </trkpt>
      <trkpt lat="42.27748" lon="-0.42769">
        <time>2022-07-29T09:01:36Z</time>
      </trkpt>
      <trkpt lat="42.27764" lon="-0.42736">
        <time>2022-07-29T09:01:37Z</time>
      </trkpt>
      <trkpt lat="42.27769" lon="-0.42694">
        <time>2022-07-29T09:01:38Z</time>
      </trkpt>
      <trkpt lat="42.27779" lon="-0.42656">
        <time>2022-07-29T09:01:39Z</time>
      </trkpt>
      <trkpt lat="42.27791" lon="-0.42618">
        <time>2022-07-29T09:01:40Z</time>
      </trkpt>
      <trkpt lat="42.27803" lon="-0.42583">
        <time>2022-07-29T09:01:41Z</time>
      </trkpt>
      <trkpt lat="42.27818" lon="-0.4255">
        <time>2022-07-29T09:01:42Z</time>
      </trkpt>
      <trkpt lat="42.27834" lon="-0.4252">
        <time>2022-07-29T09:01:43Z</time>
      </trkpt>
      <trkpt lat="42.27852" lon="-0.42491">
        <time>2022-07-29T09:01:44Z</time>
      </trkpt>
      <trkpt lat="42.2787" lon="-0.42465">
        <time>2022-07-29T09:01:45Z</time>
      </trkpt>
      <trkpt lat="42.27891" lon="-0.42441">
        <time>2022-07-29T09:01:46Z</time>
      </trkpt>
      <trkpt lat="42.27911" lon="-0.42419">
        <time>2022-07-29T09:01:47Z</time>
      </trkpt>
      <trkpt lat="42.27933" lon="-0.42399">
        <time>2022-07-29T09:01:48Z</time>
      </trkpt>
      <trkpt lat="42.27958" lon="-0.4238">
        <time>2022-07-29T09:01:49Z</time>
      </trkpt>
      <trkpt lat="42.27982" lon="-0.42364">
        <time>2022-07-29T09:01:50Z</time>
      </trkpt>
      <trkpt lat="42.28012" lon="-0.42348">
        <time>2022-07-29T09:01:51Z</time>
      </trkpt>
      <trkpt lat="42.28039" lon="-0.42335">
        <time>2022-07-29T09:01:52Z</time>
      </trkpt>
      <trkpt lat="42.28066" lon="-0.42325">
        <time>2022-07-29T09:01:53Z</time>
      </trkpt>
      <trkpt lat="42.28096" lon="-0.42318">
        <time>2022-07-29T09:01:54Z</time>
      </trkpt>
      <trkpt lat="42.28129" lon="-0.42338">
        <time>2022-07-29T09:01:55Z</time>
      </trkpt>
      <trkpt lat="42.28158" lon="-0.42342">
        <time>2022-07-29T09:01:56Z</time>
      </trkpt>
      <trkpt lat="42.28188" lon="-0.42351">
        <time>2022-07-29T09:01:57Z</time>
      </trkpt>
      <trkpt lat="42.28218" lon="-0.42365">
        <time>2022-07-29T09:01:58Z</time>
      </trkpt>
      <trkpt lat="42.28246" lon="-0.4238">
        <time>2022-07-29T09:01:59Z</time>
      </trkpt>
      <trkpt lat="42.28273" lon="-0.42397">
        <time>2022-07-29T09:02:00Z</time>
      </trkpt>
      <trkpt lat="42.28298" lon="-0.42417">
        <time>2022-07-29T09:02:01Z</time>
      </trkpt>
      <trkpt lat="42.28322" lon="-0.42437">
        <time>2022-07-29T09:02:02Z</time>
      </trkpt>
      <trkpt lat="42.28348" lon="-0.42454">
        <time>2022-07-29T09:02:03Z</time>
      </trkpt>
      <trkpt lat="42.28375" lon="-0.42469">
        <time>2022-07-29T09:02:04Z</time>
      </trkpt>
      <trkpt lat="42.28404" lon="-0.42479">
        <time>2022-07-29T09:02:05Z</time>
      </trkpt>
      <trkpt lat="42.28433" lon="-0.42484">
        <time>2022-07-29T09:02:06Z</time>
      </trkpt>
      <trkpt lat="42.28463" lon="-0.42483">
        <time>2022-07-29T09:02:07Z</time>
      </trkpt>
      <trkpt lat="42.28493" lon="-0.42477">
        <time>2022-07-29T09:02:08Z</time>
      </trkpt>
      <trkpt lat="42.28524" lon="-0.42468">
        <time>2022-07-29T09:02:09Z</time>
      </trkpt>
      <trkpt lat="42.28554" lon="-0.42458">
        <time>2022-07-29T09:02:10Z</time>
      </trkpt>
      <trkpt lat="42.28584" lon="-0.42447">
        <time>2022-07-29T09:02:11Z</time>
      </trkpt>
      <trkpt lat="42.28615" lon="-0.42436">
        <time>2022-07-29T09:02:12Z</time>
      </trkpt>
      <trkpt lat="42.28645" lon="-0.42426">
        <time>2022-07-29T09:02:13Z</time>
      </trkpt>
      <trkpt lat="42.28675" lon="-0.42416">
        <time>2022-07-29T09:02:14Z</time>
      </trkpt>
      <trkpt lat="42.28704" lon="-0.42406">
        <time>2022-07-29T09:02:15Z</time>
      </trkpt>
      <trkpt lat="42.28734" lon="-0.42396">
        <time>2022-07-29T09:02:16Z</time>
      </trkpt>
      <trkpt lat="42.28763" lon="-0.42386">
        <time>2022-07-29T09:02:17Z</time>
      </trkpt>
      <trkpt lat="42.28792" lon="-0.42376">
        <time>2022-07-29T09:02:18Z</time>
      </trkpt>
      <trkpt lat="42.2882" lon="-0.42366">
        <time>2022-07-29T09:02:19Z</time>
      </trkpt>
      <trkpt lat="42.28848" lon="-0.42356">
        <time>2022-07-29T09:02:20Z</time>
      </trkpt>
      <trkpt lat="42.28876" lon="-0.42346">
        <time>2022-07-29T09:02:21Z</time>
      </trkpt>
      <trkpt lat="42.28904" lon="-0.42336">
        <time>2022-07-29T09:02:22Z</time>
      </trkpt>
      <trkpt lat="42.28932" lon="-0.42325">
        <time>2022-07-29T09:02:23Z</time>
      </trkpt>
      <trkpt lat="42.2896" lon="-0.42314">
        <time>2022-07-29T09:02:24Z</time>
      </trkpt>
      <trkpt lat="42.28988" lon="-0.42303">
        <time>2022-07-29T09:02:25Z</time>
      </trkpt>
      <trkpt lat="42.29015" lon="-0.42294">
        <time>2022-07-29T09:02:26Z</time>
      </trkpt>
      <trkpt lat="42.29042" lon="-0.42284">
        <time>2022-07-29T09:02:27Z</time>
      </trkpt>
      <trkpt lat="42.29069" lon="-0.42278">
        <time>2022-07-29T09:02:28Z</time>
      </trkpt>
      <trkpt lat="42.29096" lon="-0.42275">
        <time>2022-07-29T09:02:29Z</time>
      </trkpt>
      <trkpt lat="42.29123" lon="-0.42276">
        <time>2022-07-29T09:02:30Z</time>
      </trkpt>
      <trkpt lat="42.29151" lon="-0.42277">
        <time>2022-07-29T09:02:31Z</time>
      </trkpt>
      <trkpt lat="42.29177" lon="-0.42283">
        <time>2022-07-29T09:02:32Z</time>
      </trkpt>
      <trkpt lat="42.29205" lon="-0.4229">
        <time>2022-07-29T09:02:33Z</time>
      </trkpt>
      <trkpt lat="42.29231" lon="-0.42299">
        <time>2022-07-29T09:02:34Z</time>
      </trkpt>
      <trkpt lat="42.29258" lon="-0.42312">
        <time>2022-07-29T09:02:35Z</time>
      </trkpt>
      <trkpt lat="42.29284" lon="-0.42326">
        <time>2022-07-29T09:02:36Z</time>
      </trkpt>
      <trkpt lat="42.29309" lon="-0.42342">
        <time>2022-07-29T09:02:37Z</time>
      </trkpt>
      <trkpt lat="42.29335" lon="-0.4236">
        <time>2022-07-29T09:02:38Z</time>
      </trkpt>
      <trkpt lat="42.29361" lon="-0.42377">
        <time>2022-07-29T09:02:39Z</time>
      </trkpt>
      <trkpt lat="42.29387" lon="-0.42394">
        <time>2022-07-29T09:02:40Z</time>
      </trkpt>
      <trkpt lat="42.29413" lon="-0.42411">
        <time>2022-07-29T09:02:41Z</time>
      </trkpt>
      <trkpt lat="42.29439" lon="-0.42428">
        <time>2022-07-29T09:02:42Z</time>
      </trkpt>
      <trkpt lat="42.29464" lon="-0.42446">
        <time>2022-07-29T09:02:43Z</time>
      </trkpt>
      <trkpt lat="42.29488" lon="-0.42463">
        <time>2022-07-29T09:02:44Z</time>
      </trkpt>
      <trkpt lat="42.29513" lon="-0.42479">
        <time>2022-07-29T09:02:45Z</time>
      </trkpt>
      <trkpt lat="42.29537" lon="-0.42496">
        <time>2022-07-29T09:02:46Z</time>
      </trkpt>
      <trkpt lat="42.29562" lon="-0.42513">
        <time>2022-07-29T09:02:47Z</time>
      </trkpt>
      <trkpt lat="42.29586" lon="-0.4253">
        <time>2022-07-29T09:02:48Z</time>
      </trkpt>
      <trkpt lat="42.2961" lon="-0.42546">
        <time>2022-07-29T09:02:49Z</time>
      </trkpt>
      <trkpt lat="42.29635" lon="-0.42563">
        <time>2022-07-29T09:02:50Z</time>
      </trkpt>
      <trkpt lat="42.29659" lon="-0.42579">
        <time>2022-07-29T09:02:51Z</time>
      </trkpt>
      <trkpt lat="42.29685" lon="-0.42591">
        <time>2022-07-29T09:02:52Z</time>
      </trkpt>
      <trkpt lat="42.29711" lon="-0.42601">
        <time>2022-07-29T09:02:53Z</time>
      </trkpt>
      <trkpt lat="42.29737" lon="-0.4261">
        <time>2022-07-29T09:02:54Z</time>
      </trkpt>
      <trkpt lat="42.29763" lon="-0.42615">
        <time>2022-07-29T09:02:55Z</time>
      </trkpt>
      <trkpt lat="42.30572" lon="-0.4254">
        <time>2022-07-29T09:03:27Z</time>
      </trkpt>
      <trkpt lat="42.30596" lon="-0.42531">
        <time>2022-07-29T09:03:28Z</time>
      </trkpt>
      <trkpt lat="42.30619" lon="-0.42519">
        <time>2022-07-29T09:03:29Z</time>
      </trkpt>
      <trkpt lat="42.3064" lon="-0.42505">
        <time>2022-07-29T09:03:30Z</time>
      </trkpt>
      <trkpt lat="42.30663" lon="-0.42492">
        <time>2022-07-29T09:03:31Z</time>
      </trkpt>
      <trkpt lat="42.30687" lon="-0.42478">
        <time>2022-07-29T09:03:32Z</time>
      </trkpt>
      <trkpt lat="42.30711" lon="-0.42466">
        <time>2022-07-29T09:03:33Z</time>
      </trkpt>
      <trkpt lat="42.30737" lon="-0.42457">
        <time>2022-07-29T09:03:34Z</time>
      </trkpt>
      <trkpt lat="42.30764" lon="-0.42449">
        <time>2022-07-29T09:03:35Z</time>
      </trkpt>
      <trkpt lat="42.3079" lon="-0.42444">
        <time>2022-07-29T09:03:36Z</time>
      </trkpt>
      <trkpt lat="42.30817" lon="-0.42439">
        <time>2022-07-29T09:03:37Z</time>
      </trkpt>
      <trkpt lat="42.30845" lon="-0.42435">
        <time>2022-07-29T09:03:38Z</time>
      </trkpt>
      <trkpt lat="42.30874" lon="-0.42434">
        <time>2022-07-29T09:03:39Z</time>
      </trkpt>
      <trkpt lat="42.30904" lon="-0.42436">
        <time>2022-07-29T09:03:40Z</time>
      </trkpt>
      <trkpt lat="42.30933" lon="-0.42439">
        <time>2022-07-29T09:03:41Z</time>
      </trkpt>
      <trkpt lat="42.30962" lon="-0.42444">
        <time>2022-07-29T09:03:42Z</time>
      </trkpt>
      <trkpt lat="42.3099" lon="-0.42451">
        <time>2022-07-29T09:03:43Z</time>
      </trkpt>
      <trkpt lat="42.31019" lon="-0.4246">
        <time>2022-07-29T09:03:44Z</time>
      </trkpt>
      <trkpt lat="42.31048" lon="-0.42471">
        <time>2022-07-29T09:03:45Z</time>
      </trkpt>
      <trkpt lat="42.31077" lon="-0.42483">
        <time>2022-07-29T09:03:46Z</time>
      </trkpt>
      <trkpt lat="42.31106" lon="-0.42495">
        <time>2022-07-29T09:03:47Z</time>
      </trkpt>
      <trkpt lat="42.31135" lon="-0.42506">
        <time>2022-07-29T09:03:48Z</time>
      </trkpt>
      <trkpt lat="42.31164" lon="-0.42516">
        <time>2022-07-29T09:03:49Z</time>
      </trkpt>
      <trkpt lat="42.31194" lon="-0.42523">
        <time>2022-07-29T09:03:50Z</time>
      </trkpt>
      <trkpt lat="42.31224" lon="-0.42529">
        <time>2022-07-29T09:03:51Z</time>
      </trkpt>
      <trkpt lat="42.31254" lon="-0.42534">
        <time>2022-07-29T09:03:52Z</time>
      </trkpt>
      <trkpt lat="42.31284" lon="-0.42537">
        <time>2022-07-29T09:03:53Z</time>
      </trkpt>
      <trkpt lat="42.31313" lon="-0.42537">
        <time>2022-07-29T09:03:54Z</time>
      </trkpt>
      <trkpt lat="42.31343" lon="-0.42537">
        <time>2022-07-29T09:03:55Z</time>
      </trkpt>
      <trkpt lat="42.31372" lon="-0.42535">
        <time>2022-07-29T09:03:56Z</time>
      </trkpt>
      <trkpt lat="42.31402" lon="-0.4253">
        <time>2022-07-29T09:03:57Z</time>
      </trkpt>
      <trkpt lat="42.31431" lon="-0.42524">
        <time>2022-07-29T09:03:58Z</time>
      </trkpt>
      <trkpt lat="42.31461" lon="-0.42515">
        <time>2022-07-29T09:03:59Z</time>
      </trkpt>
      <trkpt lat="42.3149" lon="-0.42506">
        <time>2022-07-29T09:04:00Z</time>
      </trkpt>
      <trkpt lat="42.31518" lon="-0.42494">
        <time>2022-07-29T09:04:01Z</time>
      </trkpt>
      <trkpt lat="42.31547" lon="-0.4248">
        <time>2022-07-29T09:04:02Z</time>
      </trkpt>
      <trkpt lat="42.31575" lon="-0.42466">
        <time>2022-07-29T09:04:03Z</time>
      </trkpt>
      <trkpt lat="42.31603" lon="-0.42453">
        <time>2022-07-29T09:04:04Z</time>
      </trkpt>
      <trkpt lat="42.31631" lon="-0.4244">
        <time>2022-07-29T09:04:05Z</time>
      </trkpt>
      <trkpt lat="42.3166" lon="-0.42428">
        <time>2022-07-29T09:04:06Z</time>
      </trkpt>
      <trkpt lat="42.31687" lon="-0.42415">
        <time>2022-07-29T09:04:07Z</time>
      </trkpt>
      <trkpt lat="42.31715" lon="-0.42402">
        <time>2022-07-29T09:04:08Z</time>
      </trkpt>
      <trkpt lat="42.31743" lon="-0.42391">
        <time>2022-07-29T09:04:09Z</time>
      </trkpt>
      <trkpt lat="42.3177" lon="-0.42379">
        <time>2022-07-29T09:04:10Z</time>
      </trkpt>
      <trkpt lat="42.31796" lon="-0.42367">
        <time>2022-07-29T09:04:11Z</time>
      </trkpt>
      <trkpt lat="42.31823" lon="-0.42355">
        <time>2022-07-29T09:04:12Z</time>
      </trkpt>
      <trkpt lat="42.31848" lon="-0.42344">
        <time>2022-07-29T09:04:13Z</time>
      </trkpt>
      <trkpt lat="42.31874" lon="-0.42333">
        <time>2022-07-29T09:04:14Z</time>
      </trkpt>
      <trkpt lat="42.31899" lon="-0.42323">
        <time>2022-07-29T09:04:15Z</time>
      </trkpt>
      <trkpt lat="42.31925" lon="-0.42313">
        <time>2022-07-29T09:04:16Z</time>
      </trkpt>
      <trkpt lat="42.31949" lon="-0.42302">
        <time>2022-07-29T09:04:17Z</time>
      </trkpt>
      <trkpt lat="42.31974" lon="-0.42291">
        <time>2022-07-29T09:04:18Z</time>
      </trkpt>
      <trkpt lat="42.31999" lon="-0.42279">
        <time>2022-07-29T09:04:19Z</time>
      </trkpt>
      <trkpt lat="42.32023" lon="-0.42267">
        <time>2022-07-29T09:04:20Z</time>
      </trkpt>
      <trkpt lat="42.32047" lon="-0.42255">
        <time>2022-07-29T09:04:21Z</time>
      </trkpt>
      <trkpt lat="42.32072" lon="-0.42242">
        <time>2022-07-29T09:04:22Z</time>
      </trkpt>
      <trkpt lat="42.32096" lon="-0.42228">
        <time>2022-07-29T09:04:23Z</time>
      </trkpt>
      <trkpt lat="42.3212" lon="-0.42215">
        <time>2022-07-29T09:04:24Z</time>
      </trkpt>
      <trkpt lat="42.32144" lon="-0.42201">
        <time>2022-07-29T09:04:25Z</time>
      </trkpt>
      <trkpt lat="42.32169" lon="-0.42187">
        <time>2022-07-29T09:04:26Z</time>
      </trkpt>
      <trkpt lat="42.32193" lon="-0.42172">
        <time>2022-07-29T09:04:27Z</time>
      </trkpt>
      <trkpt lat="42.32217" lon="-0.42157">
        <time>2022-07-29T09:04:28Z</time>
      </trkpt>
      <trkpt lat="42.32241" lon="-0.42142">
        <time>2022-07-29T09:04:29Z</time>
      </trkpt>
      <trkpt lat="42.32265" lon="-0.42126">
        <time>2022-07-29T09:04:30Z</time>
      </trkpt>
      <trkpt lat="42.32289" lon="-0.42109">
        <time>2022-07-29T09:04:31Z</time>
      </trkpt>
      <trkpt lat="42.32312" lon="-0.42092">
        <time>2022-07-29T09:04:32Z</time>
      </trkpt>
      <trkpt lat="42.32335" lon="-0.42074">
        <time>2022-07-29T09:04:33Z</time>
      </trkpt>
      <trkpt lat="42.32357" lon="-0.42056">
        <time>2022-07-29T09:04:34Z</time>
      </trkpt>
      <trkpt lat="42.3238" lon="-0.42037">
        <time>2022-07-29T09:04:35Z</time>
      </trkpt>
      <trkpt lat="42.32403" lon="-0.42016">
        <time>2022-07-29T09:04:36Z</time>
      </trkpt>
      <trkpt lat="42.32425" lon="-0.41995">
        <time>2022-07-29T09:04:37Z</time>
      </trkpt>
      <trkpt lat="42.32448" lon="-0.41972">
        <time>2022-07-29T09:04:38Z</time>
      </trkpt>
      <trkpt lat="42.32471" lon="-0.4195">
        <time>2022-07-29T09:04:39Z</time>
      </trkpt>
      <trkpt lat="42.32493" lon="-0.41926">
        <time>2022-07-29T09:04:40Z</time>
      </trkpt>
      <trkpt lat="42.32516" lon="-0.41902">
        <time>2022-07-29T09:04:41Z</time>
      </trkpt>
      <trkpt lat="42.32537" lon="-0.41877">
        <time>2022-07-29T09:04:42Z</time>
      </trkpt>
      <trkpt lat="42.32559" lon="-0.41851">
        <time>2022-07-29T09:04:43Z</time>
      </trkpt>
      <trkpt lat="42.32579" lon="-0.41826">
        <time>2022-07-29T09:04:44Z</time>
      </trkpt>
      <trkpt lat="42.32601" lon="-0.418">
        <time>2022-07-29T09:04:45Z</time>
      </trkpt>
      <trkpt lat="42.32621" lon="-0.41773">
        <time>2022-07-29T09:04:46Z</time>
      </trkpt>
      <trkpt lat="42.32641" lon="-0.41745">
        <time>2022-07-29T09:04:47Z</time>
      </trkpt>
      <trkpt lat="42.33497" lon="-0.40434">
        <time>2022-07-29T09:05:34Z</time>
      </trkpt>
      <trkpt lat="42.33513" lon="-0.40408">
        <time>2022-07-29T09:05:35Z</time>
      </trkpt>
      <trkpt lat="42.33529" lon="-0.40384">
        <time>2022-07-29T09:05:36Z</time>
      </trkpt>
      <trkpt lat="42.33546" lon="-0.40359">
        <time>2022-07-29T09:05:37Z</time>
      </trkpt>
      <trkpt lat="42.33564" lon="-0.40334">
        <time>2022-07-29T09:05:38Z</time>
      </trkpt>
      <trkpt lat="42.33583" lon="-0.4031">
        <time>2022-07-29T09:05:39Z</time>
      </trkpt>
      <trkpt lat="42.36151" lon="-0.39179">
        <time>2022-07-29T09:07:19Z</time>
      </trkpt>
      <trkpt lat="42.36178" lon="-0.39161">
        <time>2022-07-29T09:07:20Z</time>
      </trkpt>
      <trkpt lat="42.36204" lon="-0.39144">
        <time>2022-07-29T09:07:21Z</time>
      </trkpt>
      <trkpt lat="42.3623" lon="-0.39126">
        <time>2022-07-29T09:07:22Z</time>
      </trkpt>
      <trkpt lat="42.36255" lon="-0.39107">
        <time>2022-07-29T09:07:23Z</time>
      </trkpt>
      <trkpt lat="42.36279" lon="-0.39086">
        <time>2022-07-29T09:07:24Z</time>
      </trkpt>
      <trkpt lat="42.36303" lon="-0.39065">
        <time>2022-07-29T09:07:25Z</time>
      </trkpt>
      <trkpt lat="42.36328" lon="-0.39039">
        <time>2022-07-29T09:07:26Z</time>
      </trkpt>
      <trkpt lat="42.36351" lon="-0.39016">
        <time>2022-07-29T09:07:27Z</time>
      </trkpt>
      <trkpt lat="42.36374" lon="-0.38993">
        <time>2022-07-29T09:07:28Z</time>
      </trkpt>
      <trkpt lat="42.36397" lon="-0.38967">
        <time>2022-07-29T09:07:29Z</time>
      </trkpt>
      <trkpt lat="42.36417" lon="-0.3894">
        <time>2022-07-29T09:07:30Z</time>
      </trkpt>
      <trkpt lat="42.36438" lon="-0.38912">
        <time>2022-07-29T09:07:31Z</time>
      </trkpt>
      <trkpt lat="42.36457" lon="-0.38884">
        <time>2022-07-29T09:07:32Z</time>
      </trkpt>
      <trkpt lat="42.36476" lon="-0.38855">
        <time>2022-07-29T09:07:33Z</time>
      </trkpt>
      <trkpt lat="42.36495" lon="-0.38825">
        <time>2022-07-29T09:07:34Z</time>
      </trkpt>
      <trkpt lat="42.36513" lon="-0.38794">
        <time>2022-07-29T09:07:35Z</time>
      </trkpt>
      <trkpt lat="42.36532" lon="-0.38764">
        <time>2022-07-29T09:07:36Z</time>
      </trkpt>
      <trkpt lat="42.36551" lon="-0.38735">
        <time>2022-07-29T09:07:37Z</time>
      </trkpt>
      <trkpt lat="42.3657" lon="-0.38706">
        <time>2022-07-29T09:07:38Z</time>
      </trkpt>
      <trkpt lat="42.36589" lon="-0.38677">
        <time>2022-07-29T09:07:39Z</time>
      </trkpt>
      <trkpt lat="42.36608" lon="-0.38648">
        <time>2022-07-29T09:07:40Z</time>
      </trkpt>
      <trkpt lat="42.36626" lon="-0.38618">
        <time>2022-07-29T09:07:41Z</time>
      </trkpt>
      <trkpt lat="42.36645" lon="-0.38589">
        <time>2022-07-29T09:07:42Z</time>
      </trkpt>
      <trkpt lat="42.36663" lon="-0.3856">
        <time>2022-07-29T09:07:43Z</time>
      </trkpt>
      <trkpt lat="42.36682" lon="-0.38531">
        <time>2022-07-29T09:07:44Z</time>
      </trkpt>
      <trkpt lat="42.36701" lon="-0.38501">
        <time>2022-07-29T09:07:45Z</time>
      </trkpt>
      <trkpt lat="42.3672" lon="-0.38472">
        <time>2022-07-29T09:07:46Z</time>
      </trkpt>
      <trkpt lat="42.36739" lon="-0.38442">
        <time>2022-07-29T09:07:47Z</time>
      </trkpt>
      <trkpt lat="42.36759" lon="-0.38412">
        <time>2022-07-29T09:07:48Z</time>
      </trkpt>
      <trkpt lat="42.36777" lon="-0.38382">
        <time>2022-07-29T09:07:49Z</time>
      </trkpt>
      <trkpt lat="42.36797" lon="-0.38352">
        <time>2022-07-29T09:07:50Z</time>
      </trkpt>
      <trkpt lat="42.36816" lon="-0.38322">
        <time>2022-07-29T09:07:51Z</time>
      </trkpt>
      <trkpt lat="42.36835" lon="-0.38292">
        <time>2022-07-29T09:07:52Z</time>
      </trkpt>
      <trkpt lat="42.36854" lon="-0.38263">
        <time>2022-07-29T09:07:53Z</time>
      </trkpt>
      <trkpt lat="42.36873" lon="-0.38233">
        <time>2022-07-29T09:07:54Z</time>
      </trkpt>
      <trkpt lat="42.36893" lon="-0.38203">
        <time>2022-07-29T09:07:55Z</time>
      </trkpt>
      <trkpt lat="42.36912" lon="-0.38174">
        <time>2022-07-29T09:07:56Z</time>
      </trkpt>
      <trkpt lat="42.36932" lon="-0.38144">
        <time>2022-07-29T09:07:57Z</time>
      </trkpt>
      <trkpt lat="42.36952" lon="-0.38115">
        <time>2022-07-29T09:07:58Z</time>
      </trkpt>
      <trkpt lat="42.36972" lon="-0.38086">
        <time>2022-07-29T09:07:59Z</time>
      </trkpt>
      <trkpt lat="42.36993" lon="-0.38057">
        <time>2022-07-29T09:08:00Z</time>
      </trkpt>
      <trkpt lat="42.37014" lon="-0.38029">
        <time>2022-07-29T09:08:01Z</time>
      </trkpt>
      <trkpt lat="42.37036" lon="-0.38001">
        <time>2022-07-29T09:08:02Z</time>
      </trkpt>
      <trkpt lat="42.37058" lon="-0.37974">
        <time>2022-07-29T09:08:03Z</time>
      </trkpt>
      <trkpt lat="42.37081" lon="-0.37946">
        <time>2022-07-29T09:08:04Z</time>
      </trkpt>
      <trkpt lat="42.37103" lon="-0.37921">
        <time>2022-07-29T09:08:05Z</time>
      </trkpt>
      <trkpt lat="42.37126" lon="-0.37895">
        <time>2022-07-29T09:08:06Z</time>
      </trkpt>
      <trkpt lat="42.37149" lon="-0.3787">
        <time>2022-07-29T09:08:07Z</time>
      </trkpt>
      <trkpt lat="42.37383" lon="-0.37568">
        <time>2022-07-29T09:08:18Z</time>
      </trkpt>
      <trkpt lat="42.37406" lon="-0.37532">
        <time>2022-07-29T09:08:19Z</time>
      </trkpt>
      <trkpt lat="42.37428" lon="-0.375">
        <time>2022-07-29T09:08:20Z</time>
      </trkpt>
      <trkpt lat="42.37451" lon="-0.37473">
        <time>2022-07-29T09:08:21Z</time>
      </trkpt>
      <trkpt lat="42.37477" lon="-0.37448">
        <time>2022-07-29T09:08:22Z</time>
      </trkpt>
      <trkpt lat="42.37503" lon="-0.37425">
        <time>2022-07-29T09:08:23Z</time>
      </trkpt>
      <trkpt lat="42.37529" lon="-0.37405">
        <time>2022-07-29T09:08:24Z</time>
      </trkpt>
      <trkpt lat="42.37558" lon="-0.37386">
        <time>2022-07-29T09:08:25Z</time>
      </trkpt>
      <trkpt lat="42.37586" lon="-0.37368">
        <time>2022-07-29T09:08:26Z</time>
      </trkpt>
      <trkpt lat="42.37616" lon="-0.37353">
        <time>2022-07-29T09:08:27Z</time>
      </trkpt>
      <trkpt lat="42.37647" lon="-0.37341">
        <time>2022-07-29T09:08:28Z</time>
      </trkpt>
      <trkpt lat="42.37676" lon="-0.37331">
        <time>2022-07-29T09:08:29Z</time>
      </trkpt>
      <trkpt lat="42.37707" lon="-0.37323">
        <time>2022-07-29T09:08:30Z</time>
      </trkpt>
      <trkpt lat="42.37738" lon="-0.37318">
        <time>2022-07-29T09:08:31Z</time>
      </trkpt>
      <trkpt lat="42.3777" lon="-0.37316">
        <time>2022-07-29T09:08:32Z</time>
      </trkpt>
      <trkpt lat="42.37801" lon="-0.37316">
        <time>2022-07-29T09:08:33Z</time>
      </trkpt>
      <trkpt lat="42.37834" lon="-0.37317">
        <time>2022-07-29T09:08:34Z</time>
      </trkpt>
      <trkpt lat="42.37865" lon="-0.37317">
        <time>2022-07-29T09:08:35Z</time>
      </trkpt>
      <trkpt lat="42.37897" lon="-0.37315">
        <time>2022-07-29T09:08:36Z</time>
      </trkpt>
      <trkpt lat="42.37929" lon="-0.37311">
        <time>2022-07-29T09:08:37Z</time>
      </trkpt>
      <trkpt lat="42.3796" lon="-0.37303">
        <time>2022-07-29T09:08:38Z</time>
      </trkpt>
      <trkpt lat="42.37991" lon="-0.37293">
        <time>2022-07-29T09:08:39Z</time>
      </trkpt>
      <trkpt lat="42.38021" lon="-0.37282">
        <time>2022-07-29T09:08:40Z</time>
      </trkpt>
      <trkpt lat="42.38051" lon="-0.3727">
        <time>2022-07-29T09:08:41Z</time>
      </trkpt>
      <trkpt lat="42.38081" lon="-0.37258">
        <time>2022-07-29T09:08:42Z</time>
      </trkpt>
      <trkpt lat="42.38111" lon="-0.37248">
        <time>2022-07-29T09:08:43Z</time>
      </trkpt>
      <trkpt lat="42.3814" lon="-0.37241">
        <time>2022-07-29T09:08:44Z</time>
      </trkpt>
      <trkpt lat="42.3817" lon="-0.37236">
        <time>2022-07-29T09:08:45Z</time>
      </trkpt>
      <trkpt lat="42.38201" lon="-0.37233">
        <time>2022-07-29T09:08:46Z</time>
      </trkpt>
      <trkpt lat="42.38232" lon="-0.37233">
        <time>2022-07-29T09:08:47Z</time>
      </trkpt>
      <trkpt lat="42.38264" lon="-0.37236">
        <time>2022-07-29T09:08:48Z</time>
      </trkpt>
      <trkpt lat="42.38295" lon="-0.37242">
        <time>2022-07-29T09:08:49Z</time>
      </trkpt>
      <trkpt lat="42.38327" lon="-0.37249">
        <time>2022-07-29T09:08:50Z</time>
      </trkpt>
      <trkpt lat="42.38359" lon="-0.37255">
        <time>2022-07-29T09:08:51Z</time>
      </trkpt>
      <trkpt lat="42.38391" lon="-0.37261">
        <time>2022-07-29T09:08:52Z</time>
      </trkpt>
      <trkpt lat="42.38423" lon="-0.37266">
        <time>2022-07-29T09:08:53Z</time>
      </trkpt>
      <trkpt lat="42.38456" lon="-0.3727">
        <time>2022-07-29T09:08:54Z</time>
      </trkpt>
      <trkpt lat="42.38488" lon="-0.37271">
        <time>2022-07-29T09:08:55Z</time>
      </trkpt>
      <trkpt lat="42.38521" lon="-0.37271">
        <time>2022-07-29T09:08:56Z</time>
      </trkpt>
      <trkpt lat="42.38554" lon="-0.37271">
        <time>2022-07-29T09:08:57Z</time>
      </trkpt>
      <trkpt lat="42.38587" lon="-0.37269">
        <time>2022-07-29T09:08:58Z</time>
      </trkpt>
      <trkpt lat="42.38619" lon="-0.37264">
        <time>2022-07-29T09:08:59Z</time>
      </trkpt>
      <trkpt lat="42.38652" lon="-0.37259">
        <time>2022-07-29T09:09:00Z</time>
      </trkpt>
      <trkpt lat="42.38685" lon="-0.37252">
        <time>2022-07-29T09:09:01Z</time>
      </trkpt>
      <trkpt lat="42.38717" lon="-0.37244">
        <time>2022-07-29T09:09:02Z</time>
      </trkpt>
      <trkpt lat="42.3875" lon="-0.37236">
        <time>2022-07-29T09:09:03Z</time>
      </trkpt>
      <trkpt lat="42.38783" lon="-0.37227">
        <time>2022-07-29T09:09:04Z</time>
      </trkpt>
      <trkpt lat="42.38815" lon="-0.37219">
        <time>2022-07-29T09:09:05Z</time>
      </trkpt>
      <trkpt lat="42.38847" lon="-0.37211">
        <time>2022-07-29T09:09:06Z</time>
      </trkpt>
      <trkpt lat="42.38879" lon="-0.37204">
        <time>2022-07-29T09:09:07Z</time>
      </trkpt>
      <trkpt lat="42.3891" lon="-0.37197">
        <time>2022-07-29T09:09:08Z</time>
      </trkpt>
      <trkpt lat="42.38941" lon="-0.37194">
        <time>2022-07-29T09:09:09Z</time>
      </trkpt>
      <trkpt lat="42.38972" lon="-0.37193">
        <time>2022-07-29T09:09:10Z</time>
      </trkpt>
      <trkpt lat="42.39003" lon="-0.37195">
        <time>2022-07-29T09:09:11Z</time>
      </trkpt>
      <trkpt lat="42.39034" lon="-0.37199">
        <time>2022-07-29T09:09:12Z</time>
      </trkpt>
      <trkpt lat="42.39065" lon="-0.37204">
        <time>2022-07-29T09:09:13Z</time>
      </trkpt>
      <trkpt lat="42.39096" lon="-0.37209">
        <time>2022-07-29T09:09:14Z</time>
      </trkpt>
      <trkpt lat="42.39127" lon="-0.37213">
        <time>2022-07-29T09:09:15Z</time>
      </trkpt>
      <trkpt lat="42.39158" lon="-0.37215">
        <time>2022-07-29T09:09:16Z</time>
      </trkpt>
      <trkpt lat="42.39189" lon="-0.37212">
        <time>2022-07-29T09:09:17Z</time>
      </trkpt>
      <trkpt lat="42.3922" lon="-0.37207">
        <time>2022-07-29T09:09:18Z</time>
      </trkpt>
      <trkpt lat="42.39251" lon="-0.37198">
        <time>2022-07-29T09:09:19Z</time>
      </trkpt>
      <trkpt lat="42.39282" lon="-0.37186">
        <time>2022-07-29T09:09:20Z</time>
      </trkpt>
      <trkpt lat="42.39312" lon="-0.37173">
        <time>2022-07-29T09:09:21Z</time>
      </trkpt>
      <trkpt lat="42.39342" lon="-0.37159">
        <time>2022-07-29T09:09:22Z</time>
      </trkpt>
      <trkpt lat="42.39373" lon="-0.37146">
        <time>2022-07-29T09:09:23Z</time>
      </trkpt>
      <trkpt lat="42.39404" lon="-0.37135">
        <time>2022-07-29T09:09:24Z</time>
      </trkpt>
      <trkpt lat="42.39437" lon="-0.37129">
        <time>2022-07-29T09:09:25Z</time>
      </trkpt>
      <trkpt lat="42.39469" lon="-0.37125">
        <time>2022-07-29T09:09:26Z</time>
      </trkpt>
      <trkpt lat="42.39502" lon="-0.37124">
        <time>2022-07-29T09:09:27Z</time>
      </trkpt>
      <trkpt lat="42.39535" lon="-0.37126">
        <time>2022-07-29T09:09:28Z</time>
      </trkpt>
      <trkpt lat="42.39568" lon="-0.37132">
        <time>2022-07-29T09:09:29Z</time>
      </trkpt>
      <trkpt lat="42.39601" lon="-0.3714">
        <time>2022-07-29T09:09:30Z</time>
      </trkpt>
      <trkpt lat="42.39633" lon="-0.37152">
        <time>2022-07-29T09:09:31Z</time>
      </trkpt>
      <trkpt lat="42.39665" lon="-0.37167">
        <time>2022-07-29T09:09:32Z</time>
      </trkpt>
      <trkpt lat="42.39697" lon="-0.37184">
        <time>2022-07-29T09:09:33Z</time>
      </trkpt>
      <trkpt lat="42.39728" lon="-0.37204">
        <time>2022-07-29T09:09:34Z</time>
      </trkpt>
      <trkpt lat="42.3976" lon="-0.37223">
        <time>2022-07-29T09:09:35Z</time>
      </trkpt>
      <trkpt lat="42.39792" lon="-0.37241">
        <time>2022-07-29T09:09:36Z</time>
      </trkpt>
      <trkpt lat="42.39825" lon="-0.37258">
        <time>2022-07-29T09:09:37Z</time>
      </trkpt>
      <trkpt lat="42.39859" lon="-0.37273">
        <time>2022-07-29T09:09:38Z</time>
      </trkpt>
      <trkpt lat="42.39892" lon="-0.37287">
        <time>2022-07-29T09:09:39Z</time>
      </trkpt>
      <trkpt lat="42.39927" lon="-0.373">
        <time>2022-07-29T09:09:40Z</time>
      </trkpt>
      <trkpt lat="42.39961" lon="-0.37313">
        <time>2022-07-29T09:09:41Z</time>
      </trkpt>
      <trkpt lat="42.39995" lon="-0.37326">
        <time>2022-07-29T09:09:42Z</time>
      </trkpt>
      <trkpt lat="42.40028" lon="-0.37341">
        <time>2022-07-29T09:09:43Z</time>
      </trkpt>
      <trkpt lat="42.40061" lon="-0.37358">
        <time>2022-07-29T09:09:44Z</time>
      </trkpt>
      <trkpt lat="42.40094" lon="-0.37376">
        <time>2022-07-29T09:09:45Z</time>
      </trkpt>
      <trkpt lat="42.40126" lon="-0.37394">
        <time>2022-07-29T09:09:46Z</time>
      </trkpt>
      <trkpt lat="42.40159" lon="-0.37412">
        <time>2022-07-29T09:09:47Z</time>
      </trkpt>
      <trkpt lat="42.4019" lon="-0.37429">
        <time>2022-07-29T09:09:48Z</time>
      </trkpt>
      <trkpt lat="42.40221" lon="-0.37446">
        <time>2022-07-29T09:09:49Z</time>
      </trkpt>
      <trkpt lat="42.40253" lon="-0.37464">
        <time>2022-07-29T09:09:50Z</time>
      </trkpt>
      <trkpt lat="42.40283" lon="-0.37483">
        <time>2022-07-29T09:09:51Z</time>
      </trkpt>
      <trkpt lat="42.40313" lon="-0.37506">
        <time>2022-07-29T09:09:52Z</time>
      </trkpt>
      <trkpt lat="42.40342" lon="-0.37531">
        <time>2022-07-29T09:09:53Z</time>
      </trkpt>
      <trkpt lat="42.4037" lon="-0.37559">
        <time>2022-07-29T09:09:54Z</time>
      </trkpt>
      <trkpt lat="42.40397" lon="-0.37589">
        <time>2022-07-29T09:09:55Z</time>
      </trkpt>
      <trkpt lat="42.40423" lon="-0.37622">
        <time>2022-07-29T09:09:56Z</time>
      </trkpt>
      <trkpt lat="42.40447" lon="-0.37657">
        <time>2022-07-29T09:09:57Z</time>
      </trkpt>
      <trkpt lat="42.4047" lon="-0.37693">
        <time>2022-07-29T09:09:58Z</time>
      </trkpt>
      <trkpt lat="42.40491" lon="-0.37732">
        <time>2022-07-29T09:09:59Z</time>
      </trkpt>
      <trkpt lat="42.4051" lon="-0.37773">
        <time>2022-07-29T09:10:00Z</time>
      </trkpt>
      <trkpt lat="42.40527" lon="-0.37815">
        <time>2022-07-29T09:10:01Z</time>
      </trkpt>
      <trkpt lat="42.40543" lon="-0.37857">
        <time>2022-07-29T09:10:02Z</time>
      </trkpt>
      <trkpt lat="42.40558" lon="-0.379">
        <time>2022-07-29T09:10:03Z</time>
      </trkpt>
      <trkpt lat="42.40574" lon="-0.37942">
        <time>2022-07-29T09:10:04Z</time>
      </trkpt>
      <trkpt lat="42.4059" lon="-0.37985">
        <time>2022-07-29T09:10:05Z</time>
      </trkpt>
      <trkpt lat="42.40606" lon="-0.38027">
        <time>2022-07-29T09:10:06Z</time>
      </trkpt>
      <trkpt lat="42.40621" lon="-0.38068">
        <time>2022-07-29T09:10:07Z</time>
      </trkpt>
      <trkpt lat="42.40637" lon="-0.3811">
        <time>2022-07-29T09:10:08Z</time>
      </trkpt>
      <trkpt lat="42.40652" lon="-0.38151">
        <time>2022-07-29T09:10:09Z</time>
      </trkpt>
      <trkpt lat="42.40667" lon="-0.38193">
        <time>2022-07-29T09:10:10Z</time>
      </trkpt>
      <trkpt lat="42.40682" lon="-0.38235">
        <time>2022-07-29T09:10:11Z</time>
      </trkpt>
      <trkpt lat="42.40697" lon="-0.38276">
        <time>2022-07-29T09:10:12Z</time>
      </trkpt>
      <trkpt lat="42.40713" lon="-0.38318">
        <time>2022-07-29T09:10:13Z</time>
      </trkpt>
      <trkpt lat="42.40728" lon="-0.3836">
        <time>2022-07-29T09:10:14Z</time>
      </trkpt>
      <trkpt lat="42.40744" lon="-0.38401">
        <time>2022-07-29T09:10:15Z</time>
      </trkpt>
      <trkpt lat="42.40759" lon="-0.38442">
        <time>2022-07-29T09:10:16Z</time>
      </trkpt>
      <trkpt lat="42.40774" lon="-0.38483">
        <time>2022-07-29T09:10:17Z</time>
      </trkpt>
      <trkpt lat="42.40789" lon="-0.38524">
        <time>2022-07-29T09:10:18Z</time>
      </trkpt>
      <trkpt lat="42.40805" lon="-0.38564">
        <time>2022-07-29T09:10:19Z</time>
      </trkpt>
      <trkpt lat="42.4082" lon="-0.38604">
        <time>2022-07-29T09:10:20Z</time>
      </trkpt>
      <trkpt lat="42.40836" lon="-0.38643">
        <time>2022-07-29T09:10:21Z</time>
      </trkpt>
      <trkpt lat="42.40852" lon="-0.38682">
        <time>2022-07-29T09:10:22Z</time>
      </trkpt>
      <trkpt lat="42.40869" lon="-0.38719">
        <time>2022-07-29T09:10:23Z</time>
      </trkpt>
      <trkpt lat="42.40886" lon="-0.38756">
        <time>2022-07-29T09:10:24Z</time>
      </trkpt>
      <trkpt lat="42.40905" lon="-0.38792">
        <time>2022-07-29T09:10:25Z</time>
      </trkpt>
      <trkpt lat="42.40924" lon="-0.38827">
        <time>2022-07-29T09:10:26Z</time>
      </trkpt>
      <trkpt lat="42.40944" lon="-0.38861">
        <time>2022-07-29T09:10:27Z</time>
      </trkpt>
      <trkpt lat="42.40966" lon="-0.38894">
        <time>2022-07-29T09:10:28Z</time>
      </trkpt>
      <trkpt lat="42.40988" lon="-0.38926">
        <time>2022-07-29T09:10:29Z</time>
      </trkpt>
      <trkpt lat="42.4101" lon="-0.38957">
        <time>2022-07-29T09:10:30Z</time>
      </trkpt>
      <trkpt lat="42.41034" lon="-0.38987">
        <time>2022-07-29T09:10:31Z</time>
      </trkpt>
      <trkpt lat="42.41058" lon="-0.39015">
        <time>2022-07-29T09:10:32Z</time>
      </trkpt>
      <trkpt lat="42.41084" lon="-0.39042">
        <time>2022-07-29T09:10:33Z</time>
      </trkpt>
      <trkpt lat="42.41111" lon="-0.39067">
        <time>2022-07-29T09:10:34Z</time>
      </trkpt>
      <trkpt lat="42.41138" lon="-0.39091">
        <time>2022-07-29T09:10:35Z</time>
      </trkpt>
      <trkpt lat="42.41165" lon="-0.39115">
        <time>2022-07-29T09:10:36Z</time>
      </trkpt>
      <trkpt lat="42.41193" lon="-0.39138">
        <time>2022-07-29T09:10:37Z</time>
      </trkpt>
      <trkpt lat="42.41221" lon="-0.39162">
        <time>2022-07-29T09:10:38Z</time>
      </trkpt>
      <trkpt lat="42.41248" lon="-0.39185">
        <time>2022-07-29T09:10:39Z</time>
      </trkpt>
      <trkpt lat="42.41275" lon="-0.39208">
        <time>2022-07-29T09:10:40Z</time>
      </trkpt>
      <trkpt lat="42.41303" lon="-0.39232">
        <time>2022-07-29T09:10:41Z</time>
      </trkpt>
      <trkpt lat="42.41329" lon="-0.39254">
        <time>2022-07-29T09:10:42Z</time>
      </trkpt>
      <trkpt lat="42.41356" lon="-0.39277">
        <time>2022-07-29T09:10:43Z</time>
      </trkpt>
      <trkpt lat="42.41381" lon="-0.39299">
        <time>2022-07-29T09:10:44Z</time>
      </trkpt>
      <trkpt lat="42.41406" lon="-0.3932">
        <time>2022-07-29T09:10:45Z</time>
      </trkpt>
      <trkpt lat="42.41429" lon="-0.39339">
        <time>2022-07-29T09:10:46Z</time>
      </trkpt>
      <trkpt lat="42.41451" lon="-0.39357">
        <time>2022-07-29T09:10:47Z</time>
      </trkpt>
      <trkpt lat="42.41472" lon="-0.39376">
        <time>2022-07-29T09:10:48Z</time>
      </trkpt>
      <trkpt lat="42.41493" lon="-0.39392">
        <time>2022-07-29T09:10:49Z</time>
      </trkpt>
      <trkpt lat="42.41512" lon="-0.39407">
        <time>2022-07-29T09:10:50Z</time>
      </trkpt>
      <trkpt lat="42.41532" lon="-0.3942">
        <time>2022-07-29T09:10:51Z</time>
      </trkpt>
      <trkpt lat="42.41553" lon="-0.3943">
        <time>2022-07-29T09:10:52Z</time>
      </trkpt>
      <trkpt lat="42.41575" lon="-0.39436">
        <time>2022-07-29T09:10:53Z</time>
      </trkpt>
      <trkpt lat="42.41598" lon="-0.3944">
        <time>2022-07-29T09:10:54Z</time>
      </trkpt>
      <trkpt lat="42.41622" lon="-0.39441">
        <time>2022-07-29T09:10:55Z</time>
      </trkpt>
      <trkpt lat="42.41644" lon="-0.3944">
        <time>2022-07-29T09:10:56Z</time>
      </trkpt>
      <trkpt lat="42.41666" lon="-0.39437">
        <time>2022-07-29T09:10:57Z</time>
      </trkpt>
      <trkpt lat="42.41685" lon="-0.39435">
        <time>2022-07-29T09:10:58Z</time>
      </trkpt>
      <trkpt lat="42.41704" lon="-0.39434">
        <time>2022-07-29T09:10:59Z</time>
      </trkpt>
      <trkpt lat="42.41722" lon="-0.39434">
        <time>2022-07-29T09:11:00Z</time>
      </trkpt>
      <trkpt lat="42.4174" lon="-0.39436">
        <time>2022-07-29T09:11:01Z</time>
      </trkpt>
      <trkpt lat="42.41757" lon="-0.39441">
        <time>2022-07-29T09:11:02Z</time>
      </trkpt>
      <trkpt lat="42.41775" lon="-0.39448">
        <time>2022-07-29T09:11:03Z</time>
      </trkpt>
      <trkpt lat="42.41791" lon="-0.39456">
        <time>2022-07-29T09:11:04Z</time>
      </trkpt>
      <trkpt lat="42.41807" lon="-0.39466">
        <time>2022-07-29T09:11:05Z</time>
      </trkpt>
      <trkpt lat="42.41822" lon="-0.39477">
        <time>2022-07-29T09:11:06Z</time>
      </trkpt>
      <trkpt lat="42.41838" lon="-0.39488">
        <time>2022-07-29T09:11:07Z</time>
      </trkpt>
      <trkpt lat="42.41853" lon="-0.395">
        <time>2022-07-29T09:11:08Z</time>
      </trkpt>
      <trkpt lat="42.41867" lon="-0.39511">
        <time>2022-07-29T09:11:09Z</time>
      </trkpt>
      <trkpt lat="42.41882" lon="-0.39522">
        <time>2022-07-29T09:11:10Z</time>
      </trkpt>
      <trkpt lat="42.41897" lon="-0.39532">
        <time>2022-07-29T09:11:11Z</time>
      </trkpt>
      <trkpt lat="42.41913" lon="-0.3954">
        <time>2022-07-29T09:11:12Z</time>
      </trkpt>
      <trkpt lat="42.4193" lon="-0.39547">
        <time>2022-07-29T09:11:13Z</time>
      </trkpt>
      <trkpt lat="42.41946" lon="-0.39553">
        <time>2022-07-29T09:11:14Z</time>
      </trkpt>
      <trkpt lat="42.41964" lon="-0.39558">
        <time>2022-07-29T09:11:15Z</time>
      </trkpt>
      <trkpt lat="42.41982" lon="-0.39564">
        <time>2022-07-29T09:11:16Z</time>
      </trkpt>
      <trkpt lat="42.42" lon="-0.39569">
        <time>2022-07-29T09:11:17Z</time>
      </trkpt>
      <trkpt lat="42.42019" lon="-0.39575">
        <time>2022-07-29T09:11:18Z</time>
      </trkpt>
      <trkpt lat="42.42039" lon="-0.39581">
        <time>2022-07-29T09:11:19Z</time>
      </trkpt>
      <trkpt lat="42.42059" lon="-0.39587">
        <time>2022-07-29T09:11:20Z</time>
      </trkpt>
      <trkpt lat="42.42078" lon="-0.39592">
        <time>2022-07-29T09:11:21Z</time>
      </trkpt>
      <trkpt lat="42.42097" lon="-0.39598">
        <time>2022-07-29T09:11:22Z</time>
      </trkpt>
      <trkpt lat="42.42116" lon="-0.39604">
        <time>2022-07-29T09:11:23Z</time>
      </trkpt>
      <trkpt lat="42.42133" lon="-0.39608">
        <time>2022-07-29T09:11:24Z</time>
      </trkpt>
      <trkpt lat="42.42149" lon="-0.39611">
        <time>2022-07-29T09:11:25Z</time>
      </trkpt>
      <trkpt lat="42.42165" lon="-0.39614">
        <time>2022-07-29T09:11:26Z</time>
      </trkpt>
      <trkpt lat="42.42182" lon="-0.39615">
        <time>2022-07-29T09:11:27Z</time>
      </trkpt>
      <trkpt lat="42.422" lon="-0.39616">
        <time>2022-07-29T09:11:28Z</time>
      </trkpt>
      <trkpt lat="42.42218" lon="-0.39615">
        <time>2022-07-29T09:11:29Z</time>
      </trkpt>
      <trkpt lat="42.42237" lon="-0.39614">
        <time>2022-07-29T09:11:30Z</time>
      </trkpt>
      <trkpt lat="42.42258" lon="-0.39614">
        <time>2022-07-29T09:11:31Z</time>
      </trkpt>
      <trkpt lat="42.42281" lon="-0.39611">
        <time>2022-07-29T09:11:32Z</time>
      </trkpt>
      <trkpt lat="42.42304" lon="-0.39606">
        <time>2022-07-29T09:11:33Z</time>
      </trkpt>
      <trkpt lat="42.42329" lon="-0.396">
        <time>2022-07-29T09:11:34Z</time>
      </trkpt>
      <trkpt lat="42.42355" lon="-0.39596">
        <time>2022-07-29T09:11:35Z</time>
      </trkpt>
      <trkpt lat="42.42381" lon="-0.39593">
        <time>2022-07-29T09:11:36Z</time>
      </trkpt>
      <trkpt lat="42.42408" lon="-0.39591">
        <time>2022-07-29T09:11:37Z</time>
      </trkpt>
      <trkpt lat="42.42436" lon="-0.39591">
        <time>2022-07-29T09:11:38Z</time>
      </trkpt>
      <trkpt lat="42.42464" lon="-0.39592">
        <time>2022-07-29T09:11:39Z</time>
      </trkpt>
      <trkpt lat="42.42491" lon="-0.39595">
        <time>2022-07-29T09:11:40Z</time>
      </trkpt>
      <trkpt lat="42.42518" lon="-0.396">
        <time>2022-07-29T09:11:41Z</time>
      </trkpt>
      <trkpt lat="42.42545" lon="-0.39605">
        <time>2022-07-29T09:11:42Z</time>
      </trkpt>
      <trkpt lat="42.42573" lon="-0.39612">
        <time>2022-07-29T09:11:43Z</time>
      </trkpt>
      <trkpt lat="42.426" lon="-0.39621">
        <time>2022-07-29T09:11:44Z</time>
      </trkpt>
      <trkpt lat="42.42627" lon="-0.39631">
        <time>2022-07-29T09:11:45Z</time>
      </trkpt>
      <trkpt lat="42.42654" lon="-0.39642">
        <time>2022-07-29T09:11:46Z</time>
      </trkpt>
      <trkpt lat="42.42679" lon="-0.39655">
        <time>2022-07-29T09:11:47Z</time>
      </trkpt>
      <trkpt lat="42.42705" lon="-0.39668">
        <time>2022-07-29T09:11:48Z</time>
      </trkpt>
      <trkpt lat="42.42729" lon="-0.39683">
        <time>2022-07-29T09:11:49Z</time>
      </trkpt>
      <trkpt lat="42.42754" lon="-0.39699">
        <time>2022-07-29T09:11:50Z</time>
      </trkpt>
      <trkpt lat="42.42778" lon="-0.39714">
        <time>2022-07-29T09:11:51Z</time>
      </trkpt>
      <trkpt lat="42.42802" lon="-0.3973">
        <time>2022-07-29T09:11:52Z</time>
      </trkpt>
      <trkpt lat="42.42828" lon="-0.39745">
        <time>2022-07-29T09:11:53Z</time>
      </trkpt>
      <trkpt lat="42.42853" lon="-0.39759">
        <time>2022-07-29T09:11:54Z</time>
      </trkpt>
      <trkpt lat="42.42879" lon="-0.39771">
        <time>2022-07-29T09:11:55Z</time>
      </trkpt>
      <trkpt lat="42.42906" lon="-0.39781">
        <time>2022-07-29T09:11:56Z</time>
      </trkpt>
      <trkpt lat="42.42932" lon="-0.39789">
        <time>2022-07-29T09:11:57Z</time>
      </trkpt>
      <trkpt lat="42.42958" lon="-0.39795">
        <time>2022-07-29T09:11:58Z</time>
      </trkpt>
      <trkpt lat="42.42983" lon="-0.39798">
        <time>2022-07-29T09:11:59Z</time>
      </trkpt>
      <trkpt lat="42.4301" lon="-0.398">
        <time>2022-07-29T09:12:00Z</time>
      </trkpt>
      <trkpt lat="42.43035" lon="-0.398">
        <time>2022-07-29T09:12:01Z</time>
      </trkpt>
      <trkpt lat="42.43061" lon="-0.39798">
        <time>2022-07-29T09:12:02Z</time>
      </trkpt>
      <trkpt lat="42.43087" lon="-0.39793">
        <time>2022-07-29T09:12:03Z</time>
      </trkpt>
      <trkpt lat="42.43113" lon="-0.39787">
        <time>2022-07-29T09:12:04Z</time>
      </trkpt>
      <trkpt lat="42.43138" lon="-0.39779">
        <time>2022-07-29T09:12:05Z</time>
      </trkpt>
      <trkpt lat="42.43163" lon="-0.39772">
        <time>2022-07-29T09:12:06Z</time>
      </trkpt>
      <trkpt lat="42.43187" lon="-0.39764">
        <time>2022-07-29T09:12:07Z</time>
      </trkpt>
      <trkpt lat="42.43212" lon="-0.39756">
        <time>2022-07-29T09:12:08Z</time>
      </trkpt>
      <trkpt lat="42.43236" lon="-0.39749">
        <time>2022-07-29T09:12:09Z</time>
      </trkpt>
      <trkpt lat="42.4326" lon="-0.39742">
        <time>2022-07-29T09:12:10Z</time>
      </trkpt>
      <trkpt lat="42.43284" lon="-0.39735">
        <time>2022-07-29T09:12:11Z</time>
      </trkpt>
      <trkpt lat="42.43307" lon="-0.39729">
        <time>2022-07-29T09:12:12Z</time>
      </trkpt>
      <trkpt lat="42.4333" lon="-0.39722">
        <time>2022-07-29T09:12:13Z</time>
      </trkpt>
      <trkpt lat="42.43353" lon="-0.39715">
        <time>2022-07-29T09:12:14Z</time>
      </trkpt>
      <trkpt lat="42.43376" lon="-0.39708">
        <time>2022-07-29T09:12:15Z</time>
      </trkpt>
      <trkpt lat="42.43399" lon="-0.39701">
        <time>2022-07-29T09:12:16Z</time>
      </trkpt>
      <trkpt lat="42.43422" lon="-0.39695">
        <time>2022-07-29T09:12:17Z</time>
      </trkpt>
      <trkpt lat="42.43444" lon="-0.39688">
        <time>2022-07-29T09:12:18Z</time>
      </trkpt>
      <trkpt lat="42.43466" lon="-0.39681">
        <time>2022-07-29T09:12:19Z</time>
      </trkpt>
      <trkpt lat="42.43488" lon="-0.39675">
        <time>2022-07-29T09:12:20Z</time>
      </trkpt>
      <trkpt lat="42.4351" lon="-0.39669">
        <time>2022-07-29T09:12:21Z</time>
      </trkpt>
      <trkpt lat="42.43531" lon="-0.39662">
        <time>2022-07-29T09:12:22Z</time>
      </trkpt>
      <trkpt lat="42.43552" lon="-0.39657">
        <time>2022-07-29T09:12:23Z</time>
      </trkpt>
      <trkpt lat="42.43572" lon="-0.39651">
        <time>2022-07-29T09:12:24Z</time>
      </trkpt>
      <trkpt lat="42.43592" lon="-0.39644">
        <time>2022-07-29T09:12:25Z</time>
      </trkpt>
      <trkpt lat="42.43613" lon="-0.39638">
        <time>2022-07-29T09:12:26Z</time>
      </trkpt>
      <trkpt lat="42.43634" lon="-0.39632">
        <time>2022-07-29T09:12:27Z</time>
      </trkpt>
      <trkpt lat="42.43656" lon="-0.39626">
        <time>2022-07-29T09:12:28Z</time>
      </trkpt>
      <trkpt lat="42.43677" lon="-0.39619">
        <time>2022-07-29T09:12:29Z</time>
      </trkpt>
      <trkpt lat="42.43698" lon="-0.39613">
        <time>2022-07-29T09:12:30Z</time>
      </trkpt>
      <trkpt lat="42.43719" lon="-0.39607">
        <time>2022-07-29T09:12:31Z</time>
      </trkpt>
      <trkpt lat="42.43739" lon="-0.396">
        <time>2022-07-29T09:12:32Z</time>
      </trkpt>
      <trkpt lat="42.43759" lon="-0.39595">
        <time>2022-07-29T09:12:33Z</time>
      </trkpt>
      <trkpt lat="42.43778" lon="-0.39589">
        <time>2022-07-29T09:12:34Z</time>
      </trkpt>
      <trkpt lat="42.43797" lon="-0.39583">
        <time>2022-07-29T09:12:35Z</time>
      </trkpt>
      <trkpt lat="42.43815" lon="-0.39577">
        <time>2022-07-29T09:12:36Z</time>
      </trkpt>
      <trkpt lat="42.43833" lon="-0.39571">
        <time>2022-07-29T09:12:37Z</time>
      </trkpt>
      <trkpt lat="42.43851" lon="-0.39566">
        <time>2022-07-29T09:12:38Z</time>
      </trkpt>
      <trkpt lat="42.43869" lon="-0.39559">
        <time>2022-07-29T09:12:39Z</time>
      </trkpt>
      <trkpt lat="42.43887" lon="-0.39554">
        <time>2022-07-29T09:12:40Z</time>
      </trkpt>
      <trkpt lat="42.43905" lon="-0.39549">
        <time>2022-07-29T09:12:41Z</time>
      </trkpt>
      <trkpt lat="42.43923" lon="-0.39543">
        <time>2022-07-29T09:12:42Z</time>
      </trkpt>
      <trkpt lat="42.43942" lon="-0.39538">
        <time>2022-07-29T09:12:43Z</time>
      </trkpt>
      <trkpt lat="42.4396" lon="-0.39533">
        <time>2022-07-29T09:12:44Z</time>
      </trkpt>
      <trkpt lat="42.43978" lon="-0.39528">
        <time>2022-07-29T09:12:45Z</time>
      </trkpt>
      <trkpt lat="42.43996" lon="-0.39522">
        <time>2022-07-29T09:12:46Z</time>
      </trkpt>
      <trkpt lat="42.44013" lon="-0.39516">
        <time>2022-07-29T09:12:47Z</time>
      </trkpt>
      <trkpt lat="42.44031" lon="-0.39511">
        <time>2022-07-29T09:12:48Z</time>
      </trkpt>
      <trkpt lat="42.44049" lon="-0.39506">
        <time>2022-07-29T09:12:49Z</time>
      </trkpt>
      <trkpt lat="42.44067" lon="-0.39501">
        <time>2022-07-29T09:12:50Z</time>
      </trkpt>
      <trkpt lat="42.44084" lon="-0.39495">
        <time>2022-07-29T09:12:51Z</time>
      </trkpt>
      <trkpt lat="42.44103" lon="-0.39491">
        <time>2022-07-29T09:12:52Z</time>
      </trkpt>
      <trkpt lat="42.4412" lon="-0.39486">
        <time>2022-07-29T09:12:53Z</time>
      </trkpt>
      <trkpt lat="42.44136" lon="-0.39482">
        <time>2022-07-29T09:12:54Z</time>
      </trkpt>
      <trkpt lat="42.44152" lon="-0.39478">
        <time>2022-07-29T09:12:55Z</time>
      </trkpt>
      <trkpt lat="42.44168" lon="-0.39474">
        <time>2022-07-29T09:12:56Z</time>
      </trkpt>
      <trkpt lat="42.44183" lon="-0.3947">
        <time>2022-07-29T09:12:57Z</time>
      </trkpt>
      <trkpt lat="42.44198" lon="-0.39465">
        <time>2022-07-29T09:12:58Z</time>
      </trkpt>
      <trkpt lat="42.44212" lon="-0.3946">
        <time>2022-07-29T09:12:59Z</time>
      </trkpt>
      <trkpt lat="42.44228" lon="-0.39456">
        <time>2022-07-29T09:13:00Z</time>
      </trkpt>
      <trkpt lat="42.44243" lon="-0.39449">
        <time>2022-07-29T09:13:01Z</time>
      </trkpt>
      <trkpt lat="42.44258" lon="-0.39441">
        <time>2022-07-29T09:13:02Z</time>
      </trkpt>
      <trkpt lat="42.44274" lon="-0.3943">
        <time>2022-07-29T09:13:03Z</time>
      </trkpt>
      <trkpt lat="42.44289" lon="-0.39419">
        <time>2022-07-29T09:13:04Z</time>
      </trkpt>
      <trkpt lat="42.44304" lon="-0.39407">
        <time>2022-07-29T09:13:05Z</time>
      </trkpt>
      <trkpt lat="42.4432" lon="-0.39395">
        <time>2022-07-29T09:13:06Z</time>
      </trkpt>
      <trkpt lat="42.44335" lon="-0.39383">
        <time>2022-07-29T09:13:07Z</time>
      </trkpt>
      <trkpt lat="42.44352" lon="-0.3937">
        <time>2022-07-29T09:13:08Z</time>
      </trkpt>
      <trkpt lat="42.4437" lon="-0.39356">
        <time>2022-07-29T09:13:09Z</time>
      </trkpt>
      <trkpt lat="42.44389" lon="-0.39342">
        <time>2022-07-29T09:13:10Z</time>
      </trkpt>
      <trkpt lat="42.44409" lon="-0.39328">
        <time>2022-07-29T09:13:11Z</time>
      </trkpt>
      <trkpt lat="42.44431" lon="-0.39313">
        <time>2022-07-29T09:13:12Z</time>
      </trkpt>
      <trkpt lat="42.44453" lon="-0.39297">
        <time>2022-07-29T09:13:13Z</time>
      </trkpt>
      <trkpt lat="42.44477" lon="-0.3928">
        <time>2022-07-29T09:13:14Z</time>
      </trkpt>
      <trkpt lat="42.44502" lon="-0.39262">
        <time>2022-07-29T09:13:15Z</time>
      </trkpt>
      <trkpt lat="42.44527" lon="-0.39244">
        <time>2022-07-29T09:13:16Z</time>
      </trkpt>
      <trkpt lat="42.4455" lon="-0.39226">
        <time>2022-07-29T09:13:17Z</time>
      </trkpt>
      <trkpt lat="42.44572" lon="-0.39209">
        <time>2022-07-29T09:13:18Z</time>
      </trkpt>
      <trkpt lat="42.44594" lon="-0.39192">
        <time>2022-07-29T09:13:19Z</time>
      </trkpt>
      <trkpt lat="42.44613" lon="-0.39176">
        <time>2022-07-29T09:13:20Z</time>
      </trkpt>
      <trkpt lat="42.44632" lon="-0.39161">
        <time>2022-07-29T09:13:21Z</time>
      </trkpt>
      <trkpt lat="42.44651" lon="-0.39146">
        <time>2022-07-29T09:13:22Z</time>
      </trkpt>
      <trkpt lat="42.44671" lon="-0.39131">
        <time>2022-07-29T09:13:23Z</time>
      </trkpt>
      <trkpt lat="42.4469" lon="-0.39118">
        <time>2022-07-29T09:13:24Z</time>
      </trkpt>
      <trkpt lat="42.44711" lon="-0.39106">
        <time>2022-07-29T09:13:25Z</time>
      </trkpt>
      <trkpt lat="42.44731" lon="-0.39098">
        <time>2022-07-29T09:13:26Z</time>
      </trkpt>
      <trkpt lat="42.44751" lon="-0.39091">
        <time>2022-07-29T09:13:27Z</time>
      </trkpt>
      <trkpt lat="42.44772" lon="-0.39087">
        <time>2022-07-29T09:13:28Z</time>
      </trkpt>
      <trkpt lat="42.44792" lon="-0.39085">
        <time>2022-07-29T09:13:29Z</time>
      </trkpt>
      <trkpt lat="42.44812" lon="-0.39084">
        <time>2022-07-29T09:13:30Z</time>
      </trkpt>
      <trkpt lat="42.44832" lon="-0.39082">
        <time>2022-07-29T09:13:31Z</time>
      </trkpt>
      <trkpt lat="42.44852" lon="-0.3908">
        <time>2022-07-29T09:13:32Z</time>
      </trkpt>
      <trkpt lat="42.44872" lon="-0.39079">
        <time>2022-07-29T09:13:33Z</time>
      </trkpt>
      <trkpt lat="42.44893" lon="-0.39077">
        <time>2022-07-29T09:13:34Z</time>
      </trkpt>
      <trkpt lat="42.44915" lon="-0.39076">
        <time>2022-07-29T09:13:35Z</time>
      </trkpt>
      <trkpt lat="42.44939" lon="-0.39075">
        <time>2022-07-29T09:13:36Z</time>
      </trkpt>
      <trkpt lat="42.44964" lon="-0.39072">
        <time>2022-07-29T09:13:37Z</time>
      </trkpt>
      <trkpt lat="42.44988" lon="-0.39069">
        <time>2022-07-29T09:13:38Z</time>
      </trkpt>
      <trkpt lat="42.45011" lon="-0.39067">
        <time>2022-07-29T09:13:39Z</time>
      </trkpt>
      <trkpt lat="42.45033" lon="-0.39065">
        <time>2022-07-29T09:13:40Z</time>
      </trkpt>
      <trkpt lat="42.45055" lon="-0.39064">
        <time>2022-07-29T09:13:41Z</time>
      </trkpt>
      <trkpt lat="42.45076" lon="-0.39062">
        <time>2022-07-29T09:13:42Z</time>
      </trkpt>
      <trkpt lat="42.45098" lon="-0.39061">
        <time>2022-07-29T09:13:43Z</time>
      </trkpt>
      <trkpt lat="42.45121" lon="-0.39061">
        <time>2022-07-29T09:13:44Z</time>
      </trkpt>
      <trkpt lat="42.45146" lon="-0.3906">
        <time>2022-07-29T09:13:45Z</time>
      </trkpt>
      <trkpt lat="42.45172" lon="-0.39058">
        <time>2022-07-29T09:13:46Z</time>
      </trkpt>
      <trkpt lat="42.452" lon="-0.39056">
        <time>2022-07-29T09:13:47Z</time>
      </trkpt>
      <trkpt lat="42.45227" lon="-0.39054">
        <time>2022-07-29T09:13:48Z</time>
      </trkpt>
      <trkpt lat="42.45254" lon="-0.39052">
        <time>2022-07-29T09:13:49Z</time>
      </trkpt>
      <trkpt lat="42.4528" lon="-0.39048">
        <time>2022-07-29T09:13:50Z</time>
      </trkpt>
      <trkpt lat="42.45306" lon="-0.39045">
        <time>2022-07-29T09:13:51Z</time>
      </trkpt>
      <trkpt lat="42.45332" lon="-0.39042">
        <time>2022-07-29T09:13:52Z</time>
      </trkpt>
      <trkpt lat="42.45358" lon="-0.39039">
        <time>2022-07-29T09:13:53Z</time>
      </trkpt>
      <trkpt lat="42.45384" lon="-0.39038">
        <time>2022-07-29T09:13:54Z</time>
      </trkpt>
      <trkpt lat="42.4541" lon="-0.39036">
        <time>2022-07-29T09:13:55Z</time>
      </trkpt>
      <trkpt lat="42.45434" lon="-0.39033">
        <time>2022-07-29T09:13:56Z</time>
      </trkpt>
      <trkpt lat="42.45458" lon="-0.39031">
        <time>2022-07-29T09:13:57Z</time>
      </trkpt>
      <trkpt lat="42.45483" lon="-0.39028">
        <time>2022-07-29T09:13:58Z</time>
      </trkpt>
      <trkpt lat="42.45507" lon="-0.39022">
        <time>2022-07-29T09:13:59Z</time>
      </trkpt>
      <trkpt lat="42.45531" lon="-0.39013">
        <time>2022-07-29T09:14:00Z</time>
      </trkpt>
      <trkpt lat="42.45554" lon="-0.39001">
        <time>2022-07-29T09:14:01Z</time>
      </trkpt>
      <trkpt lat="42.45576" lon="-0.38989">
        <time>2022-07-29T09:14:02Z</time>
      </trkpt>
      <trkpt lat="42.45598" lon="-0.38976">
        <time>2022-07-29T09:14:03Z</time>
      </trkpt>
      <trkpt lat="42.45621" lon="-0.38966">
        <time>2022-07-29T09:14:04Z</time>
      </trkpt>
      <trkpt lat="42.45645" lon="-0.38958">
        <time>2022-07-29T09:14:05Z</time>
      </trkpt>
      <trkpt lat="42.45668" lon="-0.38953">
        <time>2022-07-29T09:14:06Z</time>
      </trkpt>
      <trkpt lat="42.45692" lon="-0.38952">
        <time>2022-07-29T09:14:07Z</time>
      </trkpt>
      <trkpt lat="42.45716" lon="-0.38954">
        <time>2022-07-29T09:14:08Z</time>
      </trkpt>
      <trkpt lat="42.45741" lon="-0.38959">
        <time>2022-07-29T09:14:09Z</time>
      </trkpt>
      <trkpt lat="42.45766" lon="-0.38967">
        <time>2022-07-29T09:14:10Z</time>
      </trkpt>
      <trkpt lat="42.45791" lon="-0.38975">
        <time>2022-07-29T09:14:11Z</time>
      </trkpt>
      <trkpt lat="42.45817" lon="-0.38984">
        <time>2022-07-29T09:14:12Z</time>
      </trkpt>
      <trkpt lat="42.45843" lon="-0.38992">
        <time>2022-07-29T09:14:13Z</time>
      </trkpt>
      <trkpt lat="42.4587" lon="-0.39001">
        <time>2022-07-29T09:14:14Z</time>
      </trkpt>
      <trkpt lat="42.45896" lon="-0.3901">
        <time>2022-07-29T09:14:15Z</time>
      </trkpt>
      <trkpt lat="42.45923" lon="-0.39019">
        <time>2022-07-29T09:14:16Z</time>
      </trkpt>
      <trkpt lat="42.45949" lon="-0.39028">
        <time>2022-07-29T09:14:17Z</time>
      </trkpt>
      <trkpt lat="42.45976" lon="-0.39036">
        <time>2022-07-29T09:14:18Z</time>
      </trkpt>
      <trkpt lat="42.46003" lon="-0.39044">
        <time>2022-07-29T09:14:19Z</time>
      </trkpt>
      <trkpt lat="42.46029" lon="-0.39052">
        <time>2022-07-29T09:14:20Z</time>
      </trkpt>
      <trkpt lat="42.46057" lon="-0.39059">
        <time>2022-07-29T09:14:21Z</time>
      </trkpt>
      <trkpt lat="42.46084" lon="-0.39063">
        <time>2022-07-29T09:14:22Z</time>
      </trkpt>
      <trkpt lat="42.46113" lon="-0.39064">
        <time>2022-07-29T09:14:23Z</time>
      </trkpt>
      <trkpt lat="42.46141" lon="-0.39063">
        <time>2022-07-29T09:14:24Z</time>
      </trkpt>
      <trkpt lat="42.46168" lon="-0.39061">
        <time>2022-07-29T09:14:25Z</time>
      </trkpt>
      <trkpt lat="42.46196" lon="-0.39058">
        <time>2022-07-29T09:14:26Z</time>
      </trkpt>
      <trkpt lat="42.46223" lon="-0.39054">
        <time>2022-07-29T09:14:27Z</time>
      </trkpt>
      <trkpt lat="42.46251" lon="-0.3905">
        <time>2022-07-29T09:14:28Z</time>
      </trkpt>
      <trkpt lat="42.46278" lon="-0.39046">
        <time>2022-07-29T09:14:29Z</time>
      </trkpt>
      <trkpt lat="42.46305" lon="-0.39043">
        <time>2022-07-29T09:14:30Z</time>
      </trkpt>
      <trkpt lat="42.46333" lon="-0.39039">
        <time>2022-07-29T09:14:31Z</time>
      </trkpt>
      <trkpt lat="42.46359" lon="-0.39035">
        <time>2022-07-29T09:14:32Z</time>
      </trkpt>
      <trkpt lat="42.46386" lon="-0.39032">
        <time>2022-07-29T09:14:33Z</time>
      </trkpt>
      <trkpt lat="42.46412" lon="-0.39028">
        <time>2022-07-29T09:14:34Z</time>
      </trkpt>
      <trkpt lat="42.46438" lon="-0.39025">
        <time>2022-07-29T09:14:35Z</time>
      </trkpt>
      <trkpt lat="42.46464" lon="-0.39021">
        <time>2022-07-29T09:14:36Z</time>
      </trkpt>
      <trkpt lat="42.46491" lon="-0.39018">
        <time>2022-07-29T09:14:37Z</time>
      </trkpt>
      <trkpt lat="42.46517" lon="-0.39014">
        <time>2022-07-29T09:14:38Z</time>
      </trkpt>
      <trkpt lat="42.46543" lon="-0.3901">
        <time>2022-07-29T09:14:39Z</time>
      </trkpt>
      <trkpt lat="42.46569" lon="-0.39007">
        <time>2022-07-29T09:14:40Z</time>
      </trkpt>
      <trkpt lat="42.46595" lon="-0.39003">
        <time>2022-07-29T09:14:41Z</time>
      </trkpt>
      <trkpt lat="42.4662" lon="-0.39">
        <time>2022-07-29T09:14:42Z</time>
      </trkpt>
      <trkpt lat="42.46644" lon="-0.38996">
        <time>2022-07-29T09:14:43Z</time>
      </trkpt>
      <trkpt lat="42.46669" lon="-0.38993">
        <time>2022-07-29T09:14:44Z</time>
      </trkpt>
      <trkpt lat="42.46694" lon="-0.38988">
        <time>2022-07-29T09:14:45Z</time>
      </trkpt>
      <trkpt lat="42.46718" lon="-0.38982">
        <time>2022-07-29T09:14:46Z</time>
      </trkpt>
      <trkpt lat="42.46742" lon="-0.38975">
        <time>2022-07-29T09:14:47Z</time>
      </trkpt>
      <trkpt lat="42.46766" lon="-0.38965">
        <time>2022-07-29T09:14:48Z</time>
      </trkpt>
      <trkpt lat="42.4679" lon="-0.38953">
        <time>2022-07-29T09:14:49Z</time>
      </trkpt>
      <trkpt lat="42.46814" lon="-0.3894">
        <time>2022-07-29T09:14:50Z</time>
      </trkpt>
      <trkpt lat="42.46837" lon="-0.38924">
        <time>2022-07-29T09:14:51Z</time>
      </trkpt>
      <trkpt lat="42.46859" lon="-0.38906">
        <time>2022-07-29T09:14:52Z</time>
      </trkpt>
      <trkpt lat="42.46882" lon="-0.38885">
        <time>2022-07-29T09:14:53Z</time>
      </trkpt>
      <trkpt lat="42.46903" lon="-0.38863">
        <time>2022-07-29T09:14:54Z</time>
      </trkpt>
      <trkpt lat="42.46924" lon="-0.3884">
        <time>2022-07-29T09:14:55Z</time>
      </trkpt>
      <trkpt lat="42.46944" lon="-0.38817">
        <time>2022-07-29T09:14:56Z</time>
      </trkpt>
      <trkpt lat="42.46965" lon="-0.38793">
        <time>2022-07-29T09:14:57Z</time>
      </trkpt>
      <trkpt lat="42.46985" lon="-0.3877">
        <time>2022-07-29T09:14:58Z</time>
      </trkpt>
      <trkpt lat="42.47006" lon="-0.38747">
        <time>2022-07-29T09:14:59Z</time>
      </trkpt>
      <trkpt lat="42.47026" lon="-0.38723">
        <time>2022-07-29T09:15:00Z</time>
      </trkpt>
      <trkpt lat="42.47047" lon="-0.38699">
        <time>2022-07-29T09:15:01Z</time>
      </trkpt>
      <trkpt lat="42.47067" lon="-0.38676">
        <time>2022-07-29T09:15:02Z</time>
      </trkpt>
      <trkpt lat="42.47088" lon="-0.38652">
        <time>2022-07-29T09:15:03Z</time>
      </trkpt>
      <trkpt lat="42.47108" lon="-0.38628">
        <time>2022-07-29T09:15:04Z</time>
      </trkpt>
      <trkpt lat="42.47129" lon="-0.38605">
        <time>2022-07-29T09:15:05Z</time>
      </trkpt>
      <trkpt lat="42.4715" lon="-0.38581">
        <time>2022-07-29T09:15:06Z</time>
      </trkpt>
      <trkpt lat="42.4717" lon="-0.38557">
        <time>2022-07-29T09:15:07Z</time>
      </trkpt>
      <trkpt lat="42.47191" lon="-0.38533">
        <time>2022-07-29T09:15:08Z</time>
      </trkpt>
      <trkpt lat="42.47212" lon="-0.3851">
        <time>2022-07-29T09:15:09Z</time>
      </trkpt>
      <trkpt lat="42.47232" lon="-0.38486">
        <time>2022-07-29T09:15:10Z</time>
      </trkpt>
      <trkpt lat="42.47252" lon="-0.38462">
        <time>2022-07-29T09:15:11Z</time>
      </trkpt>
      <trkpt lat="42.47272" lon="-0.38438">
        <time>2022-07-29T09:15:12Z</time>
      </trkpt>
      <trkpt lat="42.47292" lon="-0.38413">
        <time>2022-07-29T09:15:13Z</time>
      </trkpt>
      <trkpt lat="42.47312" lon="-0.38388">
        <time>2022-07-29T09:15:14Z</time>
      </trkpt>
      <trkpt lat="42.47331" lon="-0.38363">
        <time>2022-07-29T09:15:15Z</time>
      </trkpt>
      <trkpt lat="42.4735" lon="-0.38337">
        <time>2022-07-29T09:15:16Z</time>
      </trkpt>
      <trkpt lat="42.47368" lon="-0.3831">
        <time>2022-07-29T09:15:17Z</time>
      </trkpt>
      <trkpt lat="42.47387" lon="-0.38283">
        <time>2022-07-29T09:15:18Z</time>
      </trkpt>
      <trkpt lat="42.47404" lon="-0.38256">
        <time>2022-07-29T09:15:19Z</time>
      </trkpt>
      <trkpt lat="42.47421" lon="-0.38228">
        <time>2022-07-29T09:15:20Z</time>
      </trkpt>
      <trkpt lat="42.47438" lon="-0.38199">
        <time>2022-07-29T09:15:21Z</time>
      </trkpt>
      <trkpt lat="42.47455" lon="-0.38171">
        <time>2022-07-29T09:15:22Z</time>
      </trkpt>
      <trkpt lat="42.47472" lon="-0.38143">
        <time>2022-07-29T09:15:23Z</time>
      </trkpt>
      <trkpt lat="42.47489" lon="-0.38114">
        <time>2022-07-29T09:15:24Z</time>
      </trkpt>
      <trkpt lat="42.47506" lon="-0.38085">
        <time>2022-07-29T09:15:25Z</time>
      </trkpt>
      <trkpt lat="42.47522" lon="-0.38057">
        <time>2022-07-29T09:15:26Z</time>
      </trkpt>
      <trkpt lat="42.47539" lon="-0.38029">
        <time>2022-07-29T09:15:27Z</time>
      </trkpt>
      <trkpt lat="42.47558" lon="-0.38002">
        <time>2022-07-29T09:15:28Z</time>
      </trkpt>
      <trkpt lat="42.47577" lon="-0.37978">
        <time>2022-07-29T09:15:29Z</time>
      </trkpt>
      <trkpt lat="42.47598" lon="-0.37955">
        <time>2022-07-29T09:15:30Z</time>
      </trkpt>
      <trkpt lat="42.47619" lon="-0.37933">
        <time>2022-07-29T09:15:31Z</time>
      </trkpt>
      <trkpt lat="42.4764" lon="-0.37911">
        <time>2022-07-29T09:15:32Z</time>
      </trkpt>
      <trkpt lat="42.47662" lon="-0.37888">
        <time>2022-07-29T09:15:33Z</time>
      </trkpt>
      <trkpt lat="42.47683" lon="-0.37865">
        <time>2022-07-29T09:15:34Z</time>
      </trkpt>
      <trkpt lat="42.47704" lon="-0.37843">
        <time>2022-07-29T09:15:35Z</time>
      </trkpt>
      <trkpt lat="42.47726" lon="-0.37824">
        <time>2022-07-29T09:15:36Z</time>
      </trkpt>
      <trkpt lat="42.47748" lon="-0.37808">
        <time>2022-07-29T09:15:37Z</time>
      </trkpt>
      <trkpt lat="42.4777" lon="-0.37792">
        <time>2022-07-29T09:15:38Z</time>
      </trkpt>
      <trkpt lat="42.47791" lon="-0.37776">
        <time>2022-07-29T09:15:39Z</time>
      </trkpt>
      <trkpt lat="42.47811" lon="-0.37757">
        <time>2022-07-29T09:15:40Z</time>
      </trkpt>
      <trkpt lat="42.4783" lon="-0.37735">
        <time>2022-07-29T09:15:41Z</time>
      </trkpt>
      <trkpt lat="42.47848" lon="-0.3771">
        <time>2022-07-29T09:15:42Z</time>
      </trkpt>
      <trkpt lat="42.47865" lon="-0.37686">
        <time>2022-07-29T09:15:43Z</time>
      </trkpt>
      <trkpt lat="42.47883" lon="-0.37662">
        <time>2022-07-29T09:15:44Z</time>
      </trkpt>
      <trkpt lat="42.479" lon="-0.37638">
        <time>2022-07-29T09:15:45Z</time>
      </trkpt>
      <trkpt lat="42.47919" lon="-0.37616">
        <time>2022-07-29T09:15:46Z</time>
      </trkpt>
      <trkpt lat="42.4794" lon="-0.37595">
        <time>2022-07-29T09:15:47Z</time>
      </trkpt>
      <trkpt lat="42.4796" lon="-0.37576">
        <time>2022-07-29T09:15:48Z</time>
      </trkpt>
      <trkpt lat="42.47982" lon="-0.37559">
        <time>2022-07-29T09:15:49Z</time>
      </trkpt>
      <trkpt lat="42.48002" lon="-0.37543">
        <time>2022-07-29T09:15:50Z</time>
      </trkpt>
      <trkpt lat="42.48022" lon="-0.37531">
        <time>2022-07-29T09:15:51Z</time>
      </trkpt>
      <trkpt lat="42.48041" lon="-0.3752">
        <time>2022-07-29T09:15:52Z</time>
      </trkpt>
      <trkpt lat="42.4806" lon="-0.37511">
        <time>2022-07-29T09:15:53Z</time>
      </trkpt>
      <trkpt lat="42.4808" lon="-0.37503">
        <time>2022-07-29T09:15:54Z</time>
      </trkpt>
      <trkpt lat="42.48098" lon="-0.37496">
        <time>2022-07-29T09:15:55Z</time>
      </trkpt>
      <trkpt lat="42.48117" lon="-0.3749">
        <time>2022-07-29T09:15:56Z</time>
      </trkpt>
      <trkpt lat="42.48136" lon="-0.37485">
        <time>2022-07-29T09:15:57Z</time>
      </trkpt>
      <trkpt lat="42.48155" lon="-0.3748">
        <time>2022-07-29T09:15:58Z</time>
      </trkpt>
      <trkpt lat="42.48173" lon="-0.37476">
        <time>2022-07-29T09:15:59Z</time>
      </trkpt>
      <trkpt lat="42.48192" lon="-0.37473">
        <time>2022-07-29T09:16:00Z</time>
      </trkpt>
      <trkpt lat="42.48209" lon="-0.3747">
        <time>2022-07-29T09:16:01Z</time>
      </trkpt>
      <trkpt lat="42.48227" lon="-0.37468">
        <time>2022-07-29T09:16:02Z</time>
      </trkpt>
      <trkpt lat="42.48244" lon="-0.37468">
        <time>2022-07-29T09:16:03Z</time>
      </trkpt>
      <trkpt lat="42.48259" lon="-0.37469">
        <time>2022-07-29T09:16:04Z</time>
      </trkpt>
      <trkpt lat="42.48272" lon="-0.37472">
        <time>2022-07-29T09:16:05Z</time>
      </trkpt>
      <trkpt lat="42.48283" lon="-0.37477">
        <time>2022-07-29T09:16:06Z</time>
      </trkpt>
      <trkpt lat="42.48293" lon="-0.37483">
        <time>2022-07-29T09:16:07Z</time>
      </trkpt>
      <trkpt lat="42.48302" lon="-0.37489">
        <time>2022-07-29T09:16:08Z</time>
      </trkpt>
      <trkpt lat="42.48311" lon="-0.37494">
        <time>2022-07-29T09:16:09Z</time>
      </trkpt>
      <trkpt lat="42.48321" lon="-0.37496">
        <time>2022-07-29T09:16:10Z</time>
      </trkpt>
      <trkpt lat="42.48332" lon="-0.37495">
        <time>2022-07-29T09:16:11Z</time>
      </trkpt>
      <trkpt lat="42.48344" lon="-0.37493">
        <time>2022-07-29T09:16:12Z</time>
      </trkpt>
      <trkpt lat="42.48354" lon="-0.37493">
        <time>2022-07-29T09:16:13Z</time>
      </trkpt>
      <trkpt lat="42.48364" lon="-0.37495">
        <time>2022-07-29T09:16:14Z</time>
      </trkpt>
      <trkpt lat="42.48374" lon="-0.37498">
        <time>2022-07-29T09:16:15Z</time>
      </trkpt>
      <trkpt lat="42.48386" lon="-0.37501">
        <time>2022-07-29T09:16:16Z</time>
      </trkpt>
      <trkpt lat="42.48399" lon="-0.375">
        <time>2022-07-29T09:16:17Z</time>
      </trkpt>
      <trkpt lat="42.48414" lon="-0.37493">
        <time>2022-07-29T09:16:18Z</time>
      </trkpt>
      <trkpt lat="42.48429" lon="-0.37483">
        <time>2022-07-29T09:16:19Z</time>
      </trkpt>
      <trkpt lat="42.48445" lon="-0.37473">
        <time>2022-07-29T09:16:20Z</time>
      </trkpt>
      <trkpt lat="42.48461" lon="-0.37462">
        <time>2022-07-29T09:16:21Z</time>
      </trkpt>
      <trkpt lat="42.48479" lon="-0.37451">
        <time>2022-07-29T09:16:22Z</time>
      </trkpt>
      <trkpt lat="42.48498" lon="-0.37438">
        <time>2022-07-29T09:16:23Z</time>
      </trkpt>
      <trkpt lat="42.48517" lon="-0.37425">
        <time>2022-07-29T09:16:24Z</time>
      </trkpt>
      <trkpt lat="42.48536" lon="-0.37412">
        <time>2022-07-29T09:16:25Z</time>
      </trkpt>
      <trkpt lat="42.48556" lon="-0.37398">
        <time>2022-07-29T09:16:26Z</time>
      </trkpt>
      <trkpt lat="42.48576" lon="-0.37383">
        <time>2022-07-29T09:16:27Z</time>
      </trkpt>
      <trkpt lat="42.48596" lon="-0.37368">
        <time>2022-07-29T09:16:28Z</time>
      </trkpt>
      <trkpt lat="42.48617" lon="-0.37353">
        <time>2022-07-29T09:16:29Z</time>
      </trkpt>
      <trkpt lat="42.48637" lon="-0.37338">
        <time>2022-07-29T09:16:30Z</time>
      </trkpt>
      <trkpt lat="42.48657" lon="-0.37321">
        <time>2022-07-29T09:16:31Z</time>
      </trkpt>
      <trkpt lat="42.48678" lon="-0.37305">
        <time>2022-07-29T09:16:32Z</time>
      </trkpt>
      <trkpt lat="42.48699" lon="-0.37288">
        <time>2022-07-29T09:16:33Z</time>
      </trkpt>
      <trkpt lat="42.48719" lon="-0.3727">
        <time>2022-07-29T09:16:34Z</time>
      </trkpt>
      <trkpt lat="42.4874" lon="-0.37252">
        <time>2022-07-29T09:16:35Z</time>
      </trkpt>
      <trkpt lat="42.4876" lon="-0.37233">
        <time>2022-07-29T09:16:36Z</time>
      </trkpt>
      <trkpt lat="42.48781" lon="-0.37214">
        <time>2022-07-29T09:16:37Z</time>
      </trkpt>
      <trkpt lat="42.48801" lon="-0.37195">
        <time>2022-07-29T09:16:38Z</time>
      </trkpt>
      <trkpt lat="42.48822" lon="-0.37175">
        <time>2022-07-29T09:16:39Z</time>
      </trkpt>
      <trkpt lat="42.48842" lon="-0.37154">
        <time>2022-07-29T09:16:40Z</time>
      </trkpt>
      <trkpt lat="42.48863" lon="-0.37133">
        <time>2022-07-29T09:16:41Z</time>
      </trkpt>
      <trkpt lat="42.48883" lon="-0.37112">
        <time>2022-07-29T09:16:42Z</time>
      </trkpt>
      <trkpt lat="42.48903" lon="-0.3709">
        <time>2022-07-29T09:16:43Z</time>
      </trkpt>
      <trkpt lat="42.48923" lon="-0.37067">
        <time>2022-07-29T09:16:44Z</time>
      </trkpt>
      <trkpt lat="42.48942" lon="-0.37044">
        <time>2022-07-29T09:16:45Z</time>
      </trkpt>
      <trkpt lat="42.48962" lon="-0.37021">
        <time>2022-07-29T09:16:46Z</time>
      </trkpt>
      <trkpt lat="42.48981" lon="-0.36998">
        <time>2022-07-29T09:16:47Z</time>
      </trkpt>
      <trkpt lat="42.49" lon="-0.36975">
        <time>2022-07-29T09:16:48Z</time>
      </trkpt>
      <trkpt lat="42.49019" lon="-0.36951">
        <time>2022-07-29T09:16:49Z</time>
      </trkpt>
      <trkpt lat="42.49038" lon="-0.36927">
        <time>2022-07-29T09:16:50Z</time>
      </trkpt>
      <trkpt lat="42.49057" lon="-0.36903">
        <time>2022-07-29T09:16:51Z</time>
      </trkpt>
      <trkpt lat="42.49076" lon="-0.36879">
        <time>2022-07-29T09:16:52Z</time>
      </trkpt>
      <trkpt lat="42.49094" lon="-0.36855">
        <time>2022-07-29T09:16:53Z</time>
      </trkpt>
      <trkpt lat="42.49113" lon="-0.36831">
        <time>2022-07-29T09:16:54Z</time>
      </trkpt>
      <trkpt lat="42.49132" lon="-0.36808">
        <time>2022-07-29T09:16:55Z</time>
      </trkpt>
      <trkpt lat="42.49151" lon="-0.36784">
        <time>2022-07-29T09:16:56Z</time>
      </trkpt>
      <trkpt lat="42.4917" lon="-0.36762">
        <time>2022-07-29T09:16:57Z</time>
      </trkpt>
      <trkpt lat="42.49191" lon="-0.3674">
        <time>2022-07-29T09:16:58Z</time>
      </trkpt>
      <trkpt lat="42.49211" lon="-0.36719">
        <time>2022-07-29T09:16:59Z</time>
      </trkpt>
      <trkpt lat="42.49233" lon="-0.36699">
        <time>2022-07-29T09:17:00Z</time>
      </trkpt>
      <trkpt lat="42.49255" lon="-0.36679">
        <time>2022-07-29T09:17:01Z</time>
      </trkpt>
      <trkpt lat="42.49277" lon="-0.3666">
        <time>2022-07-29T09:17:02Z</time>
      </trkpt>
      <trkpt lat="42.49299" lon="-0.36642">
        <time>2022-07-29T09:17:03Z</time>
      </trkpt>
      <trkpt lat="42.49322" lon="-0.36624">
        <time>2022-07-29T09:17:04Z</time>
      </trkpt>
      <trkpt lat="42.49345" lon="-0.36607">
        <time>2022-07-29T09:17:05Z</time>
      </trkpt>
      <trkpt lat="42.49367" lon="-0.3659">
        <time>2022-07-29T09:17:06Z</time>
      </trkpt>
      <trkpt lat="42.49389" lon="-0.36574">
        <time>2022-07-29T09:17:07Z</time>
      </trkpt>
      <trkpt lat="42.49411" lon="-0.36558">
        <time>2022-07-29T09:17:08Z</time>
      </trkpt>
      <trkpt lat="42.49431" lon="-0.36543">
        <time>2022-07-29T09:17:09Z</time>
      </trkpt>
      <trkpt lat="42.49453" lon="-0.36526">
        <time>2022-07-29T09:17:10Z</time>
      </trkpt>
      <trkpt lat="42.49475" lon="-0.36508">
        <time>2022-07-29T09:17:11Z</time>
      </trkpt>
      <trkpt lat="42.49505" lon="-0.36474">
        <time>2022-07-29T09:17:12Z</time>
      </trkpt>
      <trkpt lat="42.49522" lon="-0.3646">
        <time>2022-07-29T09:17:13Z</time>
      </trkpt>
      <trkpt lat="42.49535" lon="-0.36435">
        <time>2022-07-29T09:17:14Z</time>
      </trkpt>
      <trkpt lat="42.49552" lon="-0.36412">
        <time>2022-07-29T09:17:15Z</time>
      </trkpt>
      <trkpt lat="42.49567" lon="-0.3639">
        <time>2022-07-29T09:17:16Z</time>
      </trkpt>
      <trkpt lat="42.49583" lon="-0.36366">
        <time>2022-07-29T09:17:17Z</time>
      </trkpt>
      <trkpt lat="42.49599" lon="-0.36341">
        <time>2022-07-29T09:17:18Z</time>
      </trkpt>
      <trkpt lat="42.49613" lon="-0.36316">
        <time>2022-07-29T09:17:19Z</time>
      </trkpt>
      <trkpt lat="42.49628" lon="-0.36291">
        <time>2022-07-29T09:17:20Z</time>
      </trkpt>
      <trkpt lat="42.49641" lon="-0.36263">
        <time>2022-07-29T09:17:21Z</time>
      </trkpt>
      <trkpt lat="42.49653" lon="-0.36235">
        <time>2022-07-29T09:17:22Z</time>
      </trkpt>
      <trkpt lat="42.49667" lon="-0.36206">
        <time>2022-07-29T09:17:23Z</time>
      </trkpt>
      <trkpt lat="42.49679" lon="-0.36177">
        <time>2022-07-29T09:17:24Z</time>
      </trkpt>
      <trkpt lat="42.4969" lon="-0.36146">
        <time>2022-07-29T09:17:25Z</time>
      </trkpt>
      <trkpt lat="42.49701" lon="-0.36116">
        <time>2022-07-29T09:17:26Z</time>
      </trkpt>
      <trkpt lat="42.49712" lon="-0.36085">
        <time>2022-07-29T09:17:27Z</time>
      </trkpt>
      <trkpt lat="42.49724" lon="-0.36054">
        <time>2022-07-29T09:17:28Z</time>
      </trkpt>
      <trkpt lat="42.49736" lon="-0.36023">
        <time>2022-07-29T09:17:29Z</time>
      </trkpt>
      <trkpt lat="42.49749" lon="-0.35993">
        <time>2022-07-29T09:17:30Z</time>
      </trkpt>
      <trkpt lat="42.49763" lon="-0.35964">
        <time>2022-07-29T09:17:31Z</time>
      </trkpt>
      <trkpt lat="42.49778" lon="-0.35935">
        <time>2022-07-29T09:17:32Z</time>
      </trkpt>
      <trkpt lat="42.49794" lon="-0.35907">
        <time>2022-07-29T09:17:33Z</time>
      </trkpt>
      <trkpt lat="42.4981" lon="-0.35879">
        <time>2022-07-29T09:17:34Z</time>
      </trkpt>
      <trkpt lat="42.49828" lon="-0.35853">
        <time>2022-07-29T09:17:35Z</time>
      </trkpt>
      <trkpt lat="42.49847" lon="-0.35827">
        <time>2022-07-29T09:17:36Z</time>
      </trkpt>
      <trkpt lat="42.49866" lon="-0.35802">
        <time>2022-07-29T09:17:37Z</time>
      </trkpt>
      <trkpt lat="42.49886" lon="-0.35777">
        <time>2022-07-29T09:17:38Z</time>
      </trkpt>
      <trkpt lat="42.49906" lon="-0.35754">
        <time>2022-07-29T09:17:39Z</time>
      </trkpt>
      <trkpt lat="42.49927" lon="-0.3573">
        <time>2022-07-29T09:17:40Z</time>
      </trkpt>
      <trkpt lat="42.49947" lon="-0.35707">
        <time>2022-07-29T09:17:41Z</time>
      </trkpt>
      <trkpt lat="42.49966" lon="-0.35684">
        <time>2022-07-29T09:17:42Z</time>
      </trkpt>
      <trkpt lat="42.49985" lon="-0.35661">
        <time>2022-07-29T09:17:43Z</time>
      </trkpt>
      <trkpt lat="42.50005" lon="-0.35639">
        <time>2022-07-29T09:17:44Z</time>
      </trkpt>
      <trkpt lat="42.50024" lon="-0.35617">
        <time>2022-07-29T09:17:45Z</time>
      </trkpt>
      <trkpt lat="42.50043" lon="-0.35595">
        <time>2022-07-29T09:17:46Z</time>
      </trkpt>
      <trkpt lat="42.50062" lon="-0.35572">
        <time>2022-07-29T09:17:47Z</time>
      </trkpt>
      <trkpt lat="42.50081" lon="-0.35551">
        <time>2022-07-29T09:17:48Z</time>
      </trkpt>
      <trkpt lat="42.50099" lon="-0.35529">
        <time>2022-07-29T09:17:49Z</time>
      </trkpt>
      <trkpt lat="42.50117" lon="-0.35507">
        <time>2022-07-29T09:17:50Z</time>
      </trkpt>
      <trkpt lat="42.50134" lon="-0.35485">
        <time>2022-07-29T09:17:51Z</time>
      </trkpt>
      <trkpt lat="42.50151" lon="-0.35465">
        <time>2022-07-29T09:17:52Z</time>
      </trkpt>
      <trkpt lat="42.50166" lon="-0.35446">
        <time>2022-07-29T09:17:53Z</time>
      </trkpt>
      <trkpt lat="42.50181" lon="-0.35429">
        <time>2022-07-29T09:17:54Z</time>
      </trkpt>
      <trkpt lat="42.50195" lon="-0.35412">
        <time>2022-07-29T09:17:55Z</time>
      </trkpt>
      <trkpt lat="42.50209" lon="-0.35397">
        <time>2022-07-29T09:17:56Z</time>
      </trkpt>
      <trkpt lat="42.50222" lon="-0.35383">
        <time>2022-07-29T09:17:57Z</time>
      </trkpt>
      <trkpt lat="42.50235" lon="-0.35371">
        <time>2022-07-29T09:17:58Z</time>
      </trkpt>
      <trkpt lat="42.50248" lon="-0.35359">
        <time>2022-07-29T09:17:59Z</time>
      </trkpt>
      <trkpt lat="42.5026" lon="-0.35349">
        <time>2022-07-29T09:18:00Z</time>
      </trkpt>
      <trkpt lat="42.50272" lon="-0.35339">
        <time>2022-07-29T09:18:01Z</time>
      </trkpt>
      <trkpt lat="42.50283" lon="-0.3533">
        <time>2022-07-29T09:18:02Z</time>
      </trkpt>
      <trkpt lat="42.50294" lon="-0.35322">
        <time>2022-07-29T09:18:03Z</time>
      </trkpt>
      <trkpt lat="42.50304" lon="-0.35314">
        <time>2022-07-29T09:18:04Z</time>
      </trkpt>
      <trkpt lat="42.50315" lon="-0.35307">
        <time>2022-07-29T09:18:05Z</time>
      </trkpt>
      <trkpt lat="42.50323" lon="-0.353">
        <time>2022-07-29T09:18:06Z</time>
      </trkpt>
      <trkpt lat="42.50331" lon="-0.35294">
        <time>2022-07-29T09:18:07Z</time>
      </trkpt>
      <trkpt lat="42.50338" lon="-0.35288">
        <time>2022-07-29T09:18:08Z</time>
      </trkpt>
      <trkpt lat="42.50342" lon="-0.35283">
        <time>2022-07-29T09:18:09Z</time>
      </trkpt>
      <trkpt lat="42.50347" lon="-0.35279">
        <time>2022-07-29T09:18:10Z</time>
      </trkpt>
      <trkpt lat="42.50353" lon="-0.3527">
        <time>2022-07-29T09:18:11Z</time>
      </trkpt>
      <trkpt lat="42.50357" lon="-0.3526">
        <time>2022-07-29T09:18:12Z</time>
      </trkpt>
      <trkpt lat="42.50363" lon="-0.3525">
        <time>2022-07-29T09:18:13Z</time>
      </trkpt>
      <trkpt lat="42.50371" lon="-0.3524">
        <time>2022-07-29T09:18:14Z</time>
      </trkpt>
      <trkpt lat="42.50381" lon="-0.35234">
        <time>2022-07-29T09:18:15Z</time>
      </trkpt>
      <trkpt lat="42.50392" lon="-0.35231">
        <time>2022-07-29T09:18:16Z</time>
      </trkpt>
      <trkpt lat="42.50403" lon="-0.35232">
        <time>2022-07-29T09:18:17Z</time>
      </trkpt>
      <trkpt lat="42.50414" lon="-0.35236">
        <time>2022-07-29T09:18:18Z</time>
      </trkpt>
      <trkpt lat="42.50422" lon="-0.35243">
        <time>2022-07-29T09:18:19Z</time>
      </trkpt>
      <trkpt lat="42.50429" lon="-0.35251">
        <time>2022-07-29T09:18:20Z</time>
      </trkpt>
      <trkpt lat="42.50434" lon="-0.35259">
        <time>2022-07-29T09:18:21Z</time>
      </trkpt>
      <trkpt lat="42.50439" lon="-0.3527">
        <time>2022-07-29T09:18:22Z</time>
      </trkpt>
      <trkpt lat="42.50442" lon="-0.35283">
        <time>2022-07-29T09:18:23Z</time>
      </trkpt>
      <trkpt lat="42.50446" lon="-0.35296">
        <time>2022-07-29T09:18:24Z</time>
      </trkpt>
      <trkpt lat="42.50449" lon="-0.35311">
        <time>2022-07-29T09:18:25Z</time>
      </trkpt>
      <trkpt lat="42.5045" lon="-0.35325">
        <time>2022-07-29T09:18:26Z</time>
      </trkpt>
      <trkpt lat="42.50444" lon="-0.35339">
        <time>2022-07-29T09:18:27Z</time>
      </trkpt>
      <trkpt lat="42.5044" lon="-0.35353">
        <time>2022-07-29T09:18:28Z</time>
      </trkpt>
      <trkpt lat="42.50434" lon="-0.35363">
        <time>2022-07-29T09:18:29Z</time>
      </trkpt>
      <trkpt lat="42.50428" lon="-0.35372">
        <time>2022-07-29T09:18:30Z</time>
      </trkpt>
      <trkpt lat="42.50423" lon="-0.35379">
        <time>2022-07-29T09:18:31Z</time>
      </trkpt>
      <trkpt lat="42.5042" lon="-0.35389">
        <time>2022-07-29T09:18:32Z</time>
      </trkpt>
      <trkpt lat="42.50419" lon="-0.35399">
        <time>2022-07-29T09:18:33Z</time>
      </trkpt>
      <trkpt lat="42.50421" lon="-0.35411">
        <time>2022-07-29T09:18:34Z</time>
      </trkpt>
      <trkpt lat="42.50425" lon="-0.35423">
        <time>2022-07-29T09:18:35Z</time>
      </trkpt>
      <trkpt lat="42.50429" lon="-0.35434">
        <time>2022-07-29T09:18:36Z</time>
      </trkpt>
      <trkpt lat="42.50434" lon="-0.35444">
        <time>2022-07-29T09:18:37Z</time>
      </trkpt>
      <trkpt lat="42.50438" lon="-0.35454">
        <time>2022-07-29T09:18:38Z</time>
      </trkpt>
      <trkpt lat="42.50444" lon="-0.35464">
        <time>2022-07-29T09:18:39Z</time>
      </trkpt>
      <trkpt lat="42.5045" lon="-0.35477">
        <time>2022-07-29T09:18:40Z</time>
      </trkpt>
      <trkpt lat="42.50456" lon="-0.35491">
        <time>2022-07-29T09:18:41Z</time>
      </trkpt>
      <trkpt lat="42.50461" lon="-0.35504">
        <time>2022-07-29T09:18:42Z</time>
      </trkpt>
      <trkpt lat="42.50466" lon="-0.35517">
        <time>2022-07-29T09:18:43Z</time>
      </trkpt>
      <trkpt lat="42.5047" lon="-0.35529">
        <time>2022-07-29T09:18:44Z</time>
      </trkpt>
      <trkpt lat="42.50473" lon="-0.35541">
        <time>2022-07-29T09:18:45Z</time>
      </trkpt>
      <trkpt lat="42.50476" lon="-0.35551">
        <time>2022-07-29T09:18:46Z</time>
      </trkpt>
      <trkpt lat="42.50478" lon="-0.3556">
        <time>2022-07-29T09:18:47Z</time>
      </trkpt>
      <trkpt lat="42.50481" lon="-0.35567">
        <time>2022-07-29T09:18:48Z</time>
      </trkpt>
      <trkpt lat="42.50482" lon="-0.35572">
        <time>2022-07-29T09:18:49Z</time>
      </trkpt>
      <trkpt lat="42.50484" lon="-0.35576">
        <time>2022-07-29T09:18:50Z</time>
      </trkpt>
      <trkpt lat="42.50484" lon="-0.35578">
        <time>2022-07-29T09:18:51Z</time>
      </trkpt>
      <trkpt lat="42.50484" lon="-0.3558">
        <time>2022-07-29T09:20:06Z</time>
      </trkpt>
      <trkpt lat="42.50485" lon="-0.35584">
        <time>2022-07-29T09:20:07Z</time>
      </trkpt>
      <trkpt lat="42.50486" lon="-0.35589">
        <time>2022-07-29T09:20:08Z</time>
      </trkpt>
      <trkpt lat="42.50488" lon="-0.35596">
        <time>2022-07-29T09:20:09Z</time>
      </trkpt>
      <trkpt lat="42.5049" lon="-0.35603">
        <time>2022-07-29T09:20:10Z</time>
      </trkpt>
      <trkpt lat="42.50492" lon="-0.35612">
        <time>2022-07-29T09:20:11Z</time>
      </trkpt>
      <trkpt lat="42.50494" lon="-0.3562">
        <time>2022-07-29T09:20:12Z</time>
      </trkpt>
      <trkpt lat="42.50497" lon="-0.3563">
        <time>2022-07-29T09:20:13Z</time>
      </trkpt>
      <trkpt lat="42.505" lon="-0.3564">
        <time>2022-07-29T09:20:14Z</time>
      </trkpt>
      <trkpt lat="42.50503" lon="-0.3565">
        <time>2022-07-29T09:20:15Z</time>
      </trkpt>
      <trkpt lat="42.50506" lon="-0.35661">
        <time>2022-07-29T09:20:16Z</time>
      </trkpt>
      <trkpt lat="42.5051" lon="-0.35673">
        <time>2022-07-29T09:20:17Z</time>
      </trkpt>
      <trkpt lat="42.50513" lon="-0.35684">
        <time>2022-07-29T09:20:18Z</time>
      </trkpt>
      <trkpt lat="42.50516" lon="-0.35696">
        <time>2022-07-29T09:20:19Z</time>
      </trkpt>
      <trkpt lat="42.5052" lon="-0.35707">
        <time>2022-07-29T09:20:20Z</time>
      </trkpt>
      <trkpt lat="42.50523" lon="-0.35719">
        <time>2022-07-29T09:20:21Z</time>
      </trkpt>
      <trkpt lat="42.50527" lon="-0.35731">
        <time>2022-07-29T09:20:22Z</time>
      </trkpt>
      <trkpt lat="42.5053" lon="-0.35742">
        <time>2022-07-29T09:20:23Z</time>
      </trkpt>
      <trkpt lat="42.50533" lon="-0.35753">
        <time>2022-07-29T09:20:24Z</time>
      </trkpt>
      <trkpt lat="42.50537" lon="-0.35764">
        <time>2022-07-29T09:20:25Z</time>
      </trkpt>
      <trkpt lat="42.50539" lon="-0.35773">
        <time>2022-07-29T09:20:26Z</time>
      </trkpt>
      <trkpt lat="42.50542" lon="-0.35782">
        <time>2022-07-29T09:20:27Z</time>
      </trkpt>
      <trkpt lat="42.50544" lon="-0.35791">
        <time>2022-07-29T09:20:28Z</time>
      </trkpt>
      <trkpt lat="42.50546" lon="-0.35799">
        <time>2022-07-29T09:20:29Z</time>
      </trkpt>
      <trkpt lat="42.50549" lon="-0.35807">
        <time>2022-07-29T09:20:30Z</time>
      </trkpt>
      <trkpt lat="42.50551" lon="-0.35814">
        <time>2022-07-29T09:20:31Z</time>
      </trkpt>
      <trkpt lat="42.50553" lon="-0.35821">
        <time>2022-07-29T09:20:32Z</time>
      </trkpt>
      <trkpt lat="42.50555" lon="-0.35828">
        <time>2022-07-29T09:20:33Z</time>
      </trkpt>
      <trkpt lat="42.50557" lon="-0.35834">
        <time>2022-07-29T09:20:34Z</time>
      </trkpt>
      <trkpt lat="42.50558" lon="-0.35841">
        <time>2022-07-29T09:20:35Z</time>
      </trkpt>
      <trkpt lat="42.50561" lon="-0.35847">
        <time>2022-07-29T09:20:36Z</time>
      </trkpt>
      <trkpt lat="42.50564" lon="-0.35851">
        <time>2022-07-29T09:20:37Z</time>
      </trkpt>
      <trkpt lat="42.50568" lon="-0.35853">
        <time>2022-07-29T09:20:38Z</time>
      </trkpt>
      <trkpt lat="42.50573" lon="-0.35852">
        <time>2022-07-29T09:20:39Z</time>
      </trkpt>
      <trkpt lat="42.5058" lon="-0.3585">
        <time>2022-07-29T09:20:40Z</time>
      </trkpt>
      <trkpt lat="42.50587" lon="-0.35846">
        <time>2022-07-29T09:20:41Z</time>
      </trkpt>
      <trkpt lat="42.50594" lon="-0.35842">
        <time>2022-07-29T09:20:42Z</time>
      </trkpt>
      <trkpt lat="42.50602" lon="-0.35838">
        <time>2022-07-29T09:20:43Z</time>
      </trkpt>
      <trkpt lat="42.50609" lon="-0.35834">
        <time>2022-07-29T09:20:44Z</time>
      </trkpt>
      <trkpt lat="42.50617" lon="-0.35829">
        <time>2022-07-29T09:20:45Z</time>
      </trkpt>
      <trkpt lat="42.50625" lon="-0.35825">
        <time>2022-07-29T09:20:46Z</time>
      </trkpt>
      <trkpt lat="42.50633" lon="-0.35821">
        <time>2022-07-29T09:20:47Z</time>
      </trkpt>
      <trkpt lat="42.50641" lon="-0.35816">
        <time>2022-07-29T09:20:48Z</time>
      </trkpt>
      <trkpt lat="42.50649" lon="-0.35811">
        <time>2022-07-29T09:20:49Z</time>
      </trkpt>
      <trkpt lat="42.50657" lon="-0.35807">
        <time>2022-07-29T09:20:50Z</time>
      </trkpt>
      <trkpt lat="42.50666" lon="-0.35802">
        <time>2022-07-29T09:20:51Z</time>
      </trkpt>
      <trkpt lat="42.50674" lon="-0.35798">
        <time>2022-07-29T09:20:52Z</time>
      </trkpt>
      <trkpt lat="42.50682" lon="-0.35794">
        <time>2022-07-29T09:20:53Z</time>
      </trkpt>
      <trkpt lat="42.50689" lon="-0.3579">
        <time>2022-07-29T09:20:54Z</time>
      </trkpt>
      <trkpt lat="42.50697" lon="-0.35785">
        <time>2022-07-29T09:20:55Z</time>
      </trkpt>
      <trkpt lat="42.50704" lon="-0.35782">
        <time>2022-07-29T09:20:56Z</time>
      </trkpt>
      <trkpt lat="42.50711" lon="-0.35778">
        <time>2022-07-29T09:20:57Z</time>
      </trkpt>
      <trkpt lat="42.50718" lon="-0.35774">
        <time>2022-07-29T09:20:58Z</time>
      </trkpt>
      <trkpt lat="42.50725" lon="-0.3577">
        <time>2022-07-29T09:20:59Z</time>
      </trkpt>
      <trkpt lat="42.50731" lon="-0.35766">
        <time>2022-07-29T09:21:00Z</time>
      </trkpt>
      <trkpt lat="42.50739" lon="-0.35762">
        <time>2022-07-29T09:21:01Z</time>
      </trkpt>
      <trkpt lat="42.50746" lon="-0.35759">
        <time>2022-07-29T09:21:02Z</time>
      </trkpt>
      <trkpt lat="42.50753" lon="-0.35755">
        <time>2022-07-29T09:21:03Z</time>
      </trkpt>
      <trkpt lat="42.50761" lon="-0.35751">
        <time>2022-07-29T09:21:04Z</time>
      </trkpt>
      <trkpt lat="42.50768" lon="-0.35747">
        <time>2022-07-29T09:21:05Z</time>
      </trkpt>
      <trkpt lat="42.50776" lon="-0.35744">
        <time>2022-07-29T09:21:06Z</time>
      </trkpt>
      <trkpt lat="42.50782" lon="-0.3574">
        <time>2022-07-29T09:21:07Z</time>
      </trkpt>
      <trkpt lat="42.50788" lon="-0.35736">
        <time>2022-07-29T09:21:08Z</time>
      </trkpt>
      <trkpt lat="42.50794" lon="-0.35734">
        <time>2022-07-29T09:21:09Z</time>
      </trkpt>
      <trkpt lat="42.50798" lon="-0.35731">
        <time>2022-07-29T09:21:10Z</time>
      </trkpt>
      <trkpt lat="42.50804" lon="-0.35728">
        <time>2022-07-29T09:21:11Z</time>
      </trkpt>
      <trkpt lat="42.50809" lon="-0.35726">
        <time>2022-07-29T09:21:12Z</time>
      </trkpt>
      <trkpt lat="42.50815" lon="-0.35723">
        <time>2022-07-29T09:21:13Z</time>
      </trkpt>
      <trkpt lat="42.50822" lon="-0.35719">
        <time>2022-07-29T09:21:14Z</time>
      </trkpt>
      <trkpt lat="42.50829" lon="-0.35715">
        <time>2022-07-29T09:21:15Z</time>
      </trkpt>
      <trkpt lat="42.50837" lon="-0.3571">
        <time>2022-07-29T09:21:16Z</time>
      </trkpt>
      <trkpt lat="42.50844" lon="-0.35705">
        <time>2022-07-29T09:21:17Z</time>
      </trkpt>
      <trkpt lat="42.50853" lon="-0.35701">
        <time>2022-07-29T09:21:18Z</time>
      </trkpt>
      <trkpt lat="42.50861" lon="-0.35697">
        <time>2022-07-29T09:21:19Z</time>
      </trkpt>
      <trkpt lat="42.50869" lon="-0.35693">
        <time>2022-07-29T09:21:20Z</time>
      </trkpt>
      <trkpt lat="42.50878" lon="-0.35688">
        <time>2022-07-29T09:21:21Z</time>
      </trkpt>
      <trkpt lat="42.50887" lon="-0.35683">
        <time>2022-07-29T09:21:22Z</time>
      </trkpt>
      <trkpt lat="42.50895" lon="-0.35679">
        <time>2022-07-29T09:21:23Z</time>
      </trkpt>
      <trkpt lat="42.50903" lon="-0.35674">
        <time>2022-07-29T09:21:24Z</time>
      </trkpt>
      <trkpt lat="42.50911" lon="-0.35669">
        <time>2022-07-29T09:21:25Z</time>
      </trkpt>
      <trkpt lat="42.5092" lon="-0.35665">
        <time>2022-07-29T09:21:26Z</time>
      </trkpt>
      <trkpt lat="42.50928" lon="-0.35659">
        <time>2022-07-29T09:21:27Z</time>
      </trkpt>
      <trkpt lat="42.50936" lon="-0.35654">
        <time>2022-07-29T09:21:28Z</time>
      </trkpt>
      <trkpt lat="42.50944" lon="-0.35648">
        <time>2022-07-29T09:21:29Z</time>
      </trkpt>
      <trkpt lat="42.50951" lon="-0.35643">
        <time>2022-07-29T09:21:30Z</time>
      </trkpt>
      <trkpt lat="42.50959" lon="-0.35637">
        <time>2022-07-29T09:21:31Z</time>
      </trkpt>
      <trkpt lat="42.50967" lon="-0.35631">
        <time>2022-07-29T09:21:32Z</time>
      </trkpt>
      <trkpt lat="42.50974" lon="-0.35627">
        <time>2022-07-29T09:21:33Z</time>
      </trkpt>
      <trkpt lat="42.50981" lon="-0.35623">
        <time>2022-07-29T09:21:34Z</time>
      </trkpt>
      <trkpt lat="42.50987" lon="-0.3562">
        <time>2022-07-29T09:21:35Z</time>
      </trkpt>
      <trkpt lat="42.50993" lon="-0.35617">
        <time>2022-07-29T09:21:36Z</time>
      </trkpt>
      <trkpt lat="42.51" lon="-0.35614">
        <time>2022-07-29T09:21:37Z</time>
      </trkpt>
      <trkpt lat="42.51007" lon="-0.35611">
        <time>2022-07-29T09:21:38Z</time>
      </trkpt>
      <trkpt lat="42.51015" lon="-0.35608">
        <time>2022-07-29T09:21:39Z</time>
      </trkpt>
      <trkpt lat="42.51025" lon="-0.35606">
        <time>2022-07-29T09:21:40Z</time>
      </trkpt>
      <trkpt lat="42.51035" lon="-0.35605">
        <time>2022-07-29T09:21:41Z</time>
      </trkpt>
      <trkpt lat="42.51045" lon="-0.35603">
        <time>2022-07-29T09:21:42Z</time>
      </trkpt>
      <trkpt lat="42.51055" lon="-0.35603">
        <time>2022-07-29T09:21:43Z</time>
      </trkpt>
      <trkpt lat="42.51066" lon="-0.35604">
        <time>2022-07-29T09:21:44Z</time>
      </trkpt>
      <trkpt lat="42.51076" lon="-0.35605">
        <time>2022-07-29T09:21:45Z</time>
      </trkpt>
      <trkpt lat="42.51087" lon="-0.35608">
        <time>2022-07-29T09:21:46Z</time>
      </trkpt>
      <trkpt lat="42.51099" lon="-0.35612">
        <time>2022-07-29T09:21:47Z</time>
      </trkpt>
      <trkpt lat="42.51111" lon="-0.35617">
        <time>2022-07-29T09:21:48Z</time>
      </trkpt>
      <trkpt lat="42.51123" lon="-0.35623">
        <time>2022-07-29T09:21:49Z</time>
      </trkpt>
      <trkpt lat="42.51135" lon="-0.35631">
        <time>2022-07-29T09:21:50Z</time>
      </trkpt>
      <trkpt lat="42.51146" lon="-0.35639">
        <time>2022-07-29T09:21:51Z</time>
      </trkpt>
      <trkpt lat="42.51155" lon="-0.35648">
        <time>2022-07-29T09:21:52Z</time>
      </trkpt>
      <trkpt lat="42.51165" lon="-0.35657">
        <time>2022-07-29T09:21:53Z</time>
      </trkpt>
      <trkpt lat="42.51174" lon="-0.35667">
        <time>2022-07-29T09:21:54Z</time>
      </trkpt>
      <trkpt lat="42.51182" lon="-0.35677">
        <time>2022-07-29T09:21:55Z</time>
      </trkpt>
      <trkpt lat="42.5119" lon="-0.35688">
        <time>2022-07-29T09:21:56Z</time>
      </trkpt>
      <trkpt lat="42.51198" lon="-0.35699">
        <time>2022-07-29T09:21:57Z</time>
      </trkpt>
      <trkpt lat="42.51205" lon="-0.3571">
        <time>2022-07-29T09:21:58Z</time>
      </trkpt>
      <trkpt lat="42.51212" lon="-0.35721">
        <time>2022-07-29T09:21:59Z</time>
      </trkpt>
      <trkpt lat="42.5122" lon="-0.35733">
        <time>2022-07-29T09:22:00Z</time>
      </trkpt>
      <trkpt lat="42.51227" lon="-0.35746">
        <time>2022-07-29T09:22:01Z</time>
      </trkpt>
      <trkpt lat="42.51235" lon="-0.35759">
        <time>2022-07-29T09:22:02Z</time>
      </trkpt>
      <trkpt lat="42.51243" lon="-0.35773">
        <time>2022-07-29T09:22:03Z</time>
      </trkpt>
      <trkpt lat="42.51251" lon="-0.35786">
        <time>2022-07-29T09:22:04Z</time>
      </trkpt>
      <trkpt lat="42.51259" lon="-0.35799">
        <time>2022-07-29T09:22:05Z</time>
      </trkpt>
      <trkpt lat="42.51267" lon="-0.35812">
        <time>2022-07-29T09:22:06Z</time>
      </trkpt>
      <trkpt lat="42.51275" lon="-0.35825">
        <time>2022-07-29T09:22:07Z</time>
      </trkpt>
      <trkpt lat="42.51284" lon="-0.35839">
        <time>2022-07-29T09:22:08Z</time>
      </trkpt>
      <trkpt lat="42.51292" lon="-0.35852">
        <time>2022-07-29T09:22:09Z</time>
      </trkpt>
      <trkpt lat="42.513" lon="-0.35864">
        <time>2022-07-29T09:22:10Z</time>
      </trkpt>
      <trkpt lat="42.51308" lon="-0.35877">
        <time>2022-07-29T09:22:11Z</time>
      </trkpt>
      <trkpt lat="42.51317" lon="-0.35889">
        <time>2022-07-29T09:22:12Z</time>
      </trkpt>
      <trkpt lat="42.51325" lon="-0.35901">
        <time>2022-07-29T09:22:13Z</time>
      </trkpt>
      <trkpt lat="42.51334" lon="-0.35912">
        <time>2022-07-29T09:22:14Z</time>
      </trkpt>
      <trkpt lat="42.51342" lon="-0.35923">
        <time>2022-07-29T09:22:15Z</time>
      </trkpt>
      <trkpt lat="42.5135" lon="-0.35934">
        <time>2022-07-29T09:22:16Z</time>
      </trkpt>
      <trkpt lat="42.51358" lon="-0.35945">
        <time>2022-07-29T09:22:17Z</time>
      </trkpt>
      <trkpt lat="42.51366" lon="-0.35954">
        <time>2022-07-29T09:22:18Z</time>
      </trkpt>
      <trkpt lat="42.51372" lon="-0.35963">
        <time>2022-07-29T09:22:19Z</time>
      </trkpt>
      <trkpt lat="42.51379" lon="-0.35971">
        <time>2022-07-29T09:22:20Z</time>
      </trkpt>
      <trkpt lat="42.51385" lon="-0.35979">
        <time>2022-07-29T09:22:21Z</time>
      </trkpt>
      <trkpt lat="42.5139" lon="-0.35986">
        <time>2022-07-29T09:22:22Z</time>
      </trkpt>
      <trkpt lat="42.51396" lon="-0.35992">
        <time>2022-07-29T09:22:23Z</time>
      </trkpt>
      <trkpt lat="42.51401" lon="-0.35999">
        <time>2022-07-29T09:22:24Z</time>
      </trkpt>
      <trkpt lat="42.51406" lon="-0.36008">
        <time>2022-07-29T09:22:25Z</time>
      </trkpt>
      <trkpt lat="42.51412" lon="-0.36017">
        <time>2022-07-29T09:22:26Z</time>
      </trkpt>
      <trkpt lat="42.51418" lon="-0.36026">
        <time>2022-07-29T09:22:27Z</time>
      </trkpt>
      <trkpt lat="42.51425" lon="-0.36036">
        <time>2022-07-29T09:22:28Z</time>
      </trkpt>
      <trkpt lat="42.51432" lon="-0.36046">
        <time>2022-07-29T09:22:29Z</time>
      </trkpt>
      <trkpt lat="42.51439" lon="-0.36055">
        <time>2022-07-29T09:22:30Z</time>
      </trkpt>
      <trkpt lat="42.51446" lon="-0.36064">
        <time>2022-07-29T09:22:31Z</time>
      </trkpt>
      <trkpt lat="42.51453" lon="-0.36073">
        <time>2022-07-29T09:22:32Z</time>
      </trkpt>
      <trkpt lat="42.51461" lon="-0.36083">
        <time>2022-07-29T09:22:33Z</time>
      </trkpt>
      <trkpt lat="42.51468" lon="-0.36094">
        <time>2022-07-29T09:22:34Z</time>
      </trkpt>
      <trkpt lat="42.51476" lon="-0.36104">
        <time>2022-07-29T09:22:35Z</time>
      </trkpt>
      <trkpt lat="42.51485" lon="-0.36115">
        <time>2022-07-29T09:22:36Z</time>
      </trkpt>
      <trkpt lat="42.51493" lon="-0.36125">
        <time>2022-07-29T09:22:37Z</time>
      </trkpt>
      <trkpt lat="42.515" lon="-0.36135">
        <time>2022-07-29T09:22:38Z</time>
      </trkpt>
      <trkpt lat="42.51508" lon="-0.36145">
        <time>2022-07-29T09:22:39Z</time>
      </trkpt>
      <trkpt lat="42.51515" lon="-0.36154">
        <time>2022-07-29T09:22:40Z</time>
      </trkpt>
      <trkpt lat="42.51521" lon="-0.36162">
        <time>2022-07-29T09:22:41Z</time>
      </trkpt>
      <trkpt lat="42.51526" lon="-0.3617">
        <time>2022-07-29T09:22:42Z</time>
      </trkpt>
      <trkpt lat="42.51531" lon="-0.36177">
        <time>2022-07-29T09:22:43Z</time>
      </trkpt>
      <trkpt lat="42.51537" lon="-0.36184">
        <time>2022-07-29T09:22:44Z</time>
      </trkpt>
      <trkpt lat="42.51542" lon="-0.3619">
        <time>2022-07-29T09:22:45Z</time>
      </trkpt>
      <trkpt lat="42.51547" lon="-0.36197">
        <time>2022-07-29T09:22:46Z</time>
      </trkpt>
      <trkpt lat="42.51552" lon="-0.36204">
        <time>2022-07-29T09:22:47Z</time>
      </trkpt>
      <trkpt lat="42.51559" lon="-0.36212">
        <time>2022-07-29T09:22:48Z</time>
      </trkpt>
      <trkpt lat="42.51565" lon="-0.36221">
        <time>2022-07-29T09:22:49Z</time>
      </trkpt>
      <trkpt lat="42.51572" lon="-0.3623">
        <time>2022-07-29T09:22:50Z</time>
      </trkpt>
      <trkpt lat="42.51579" lon="-0.36239">
        <time>2022-07-29T09:22:51Z</time>
      </trkpt>
      <trkpt lat="42.51586" lon="-0.36248">
        <time>2022-07-29T09:22:52Z</time>
      </trkpt>
      <trkpt lat="42.51593" lon="-0.36257">
        <time>2022-07-29T09:22:53Z</time>
      </trkpt>
      <trkpt lat="42.516" lon="-0.36267">
        <time>2022-07-29T09:22:54Z</time>
      </trkpt>
      <trkpt lat="42.51607" lon="-0.36277">
        <time>2022-07-29T09:22:55Z</time>
      </trkpt>
      <trkpt lat="42.51615" lon="-0.36286">
        <time>2022-07-29T09:22:56Z</time>
      </trkpt>
      <trkpt lat="42.51622" lon="-0.36296">
        <time>2022-07-29T09:22:57Z</time>
      </trkpt>
      <trkpt lat="42.51629" lon="-0.36305">
        <time>2022-07-29T09:22:58Z</time>
      </trkpt>
      <trkpt lat="42.51635" lon="-0.36314">
        <time>2022-07-29T09:22:59Z</time>
      </trkpt>
      <trkpt lat="42.51641" lon="-0.36321">
        <time>2022-07-29T09:23:00Z</time>
      </trkpt>
      <trkpt lat="42.51646" lon="-0.36329">
        <time>2022-07-29T09:23:01Z</time>
      </trkpt>
      <trkpt lat="42.51651" lon="-0.36335">
        <time>2022-07-29T09:23:02Z</time>
      </trkpt>
      <trkpt lat="42.51655" lon="-0.36341">
        <time>2022-07-29T09:23:03Z</time>
      </trkpt>
      <trkpt lat="42.51658" lon="-0.36345">
        <time>2022-07-29T09:23:04Z</time>
      </trkpt>
      <trkpt lat="42.51662" lon="-0.3635">
        <time>2022-07-29T09:23:05Z</time>
      </trkpt>
      <trkpt lat="42.51666" lon="-0.36355">
        <time>2022-07-29T09:23:06Z</time>
      </trkpt>
      <trkpt lat="42.5167" lon="-0.3636">
        <time>2022-07-29T09:23:07Z</time>
      </trkpt>
      <trkpt lat="42.51675" lon="-0.36365">
        <time>2022-07-29T09:23:08Z</time>
      </trkpt>
      <trkpt lat="42.51681" lon="-0.36369">
        <time>2022-07-29T09:23:09Z</time>
      </trkpt>
      <trkpt lat="42.51687" lon="-0.36373">
        <time>2022-07-29T09:23:10Z</time>
      </trkpt>
      <trkpt lat="42.51694" lon="-0.36378">
        <time>2022-07-29T09:23:11Z</time>
      </trkpt>
      <trkpt lat="42.51702" lon="-0.36382">
        <time>2022-07-29T09:23:12Z</time>
      </trkpt>
      <trkpt lat="42.51709" lon="-0.36385">
        <time>2022-07-29T09:23:13Z</time>
      </trkpt>
      <trkpt lat="42.51717" lon="-0.36387">
        <time>2022-07-29T09:23:14Z</time>
      </trkpt>
      <trkpt lat="42.51725" lon="-0.36389">
        <time>2022-07-29T09:23:15Z</time>
      </trkpt>
      <trkpt lat="42.51732" lon="-0.3639">
        <time>2022-07-29T09:23:16Z</time>
      </trkpt>
      <trkpt lat="42.51739" lon="-0.36392">
        <time>2022-07-29T09:23:17Z</time>
      </trkpt>
      <trkpt lat="42.51747" lon="-0.36393">
        <time>2022-07-29T09:23:18Z</time>
      </trkpt>
      <trkpt lat="42.51754" lon="-0.36395">
        <time>2022-07-29T09:23:19Z</time>
      </trkpt>
      <trkpt lat="42.51762" lon="-0.36397">
        <time>2022-07-29T09:23:20Z</time>
      </trkpt>
      <trkpt lat="42.5177" lon="-0.364">
        <time>2022-07-29T09:23:21Z</time>
      </trkpt>
      <trkpt lat="42.51778" lon="-0.36401">
        <time>2022-07-29T09:23:22Z</time>
      </trkpt>
      <trkpt lat="42.51786" lon="-0.36403">
        <time>2022-07-29T09:23:23Z</time>
      </trkpt>
      <trkpt lat="42.51793" lon="-0.36404">
        <time>2022-07-29T09:23:24Z</time>
      </trkpt>
      <trkpt lat="42.518" lon="-0.36404">
        <time>2022-07-29T09:23:25Z</time>
      </trkpt>
      <trkpt lat="42.51806" lon="-0.36402">
        <time>2022-07-29T09:23:26Z</time>
      </trkpt>
      <trkpt lat="42.51812" lon="-0.36399">
        <time>2022-07-29T09:23:27Z</time>
      </trkpt>
      <trkpt lat="42.51819" lon="-0.36393">
        <time>2022-07-29T09:23:28Z</time>
      </trkpt>
      <trkpt lat="42.51826" lon="-0.36386">
        <time>2022-07-29T09:23:29Z</time>
      </trkpt>
      <trkpt lat="42.51831" lon="-0.36376">
        <time>2022-07-29T09:23:30Z</time>
      </trkpt>
      <trkpt lat="42.51835" lon="-0.36367">
        <time>2022-07-29T09:23:31Z</time>
      </trkpt>
      <trkpt lat="42.51838" lon="-0.36356">
        <time>2022-07-29T09:23:32Z</time>
      </trkpt>
      <trkpt lat="42.5184" lon="-0.36346">
        <time>2022-07-29T09:23:33Z</time>
      </trkpt>
      <trkpt lat="42.51842" lon="-0.36336">
        <time>2022-07-29T09:23:34Z</time>
      </trkpt>
      <trkpt lat="42.51846" lon="-0.36325">
        <time>2022-07-29T09:23:35Z</time>
      </trkpt>
      <trkpt lat="42.51851" lon="-0.36316">
        <time>2022-07-29T09:23:36Z</time>
      </trkpt>
      <trkpt lat="42.51857" lon="-0.36307">
        <time>2022-07-29T09:23:37Z</time>
      </trkpt>
      <trkpt lat="42.51864" lon="-0.363">
        <time>2022-07-29T09:23:38Z</time>
      </trkpt>
      <trkpt lat="42.51872" lon="-0.36293">
        <time>2022-07-29T09:23:39Z</time>
      </trkpt>
      <trkpt lat="42.51879" lon="-0.36286">
        <time>2022-07-29T09:23:40Z</time>
      </trkpt>
      <trkpt lat="42.51886" lon="-0.3628">
        <time>2022-07-29T09:23:41Z</time>
      </trkpt>
      <trkpt lat="42.51892" lon="-0.36274">
        <time>2022-07-29T09:23:42Z</time>
      </trkpt>
      <trkpt lat="42.51898" lon="-0.36268">
        <time>2022-07-29T09:23:43Z</time>
      </trkpt>
      <trkpt lat="42.51903" lon="-0.36263">
        <time>2022-07-29T09:23:44Z</time>
      </trkpt>
      <trkpt lat="42.51908" lon="-0.36257">
        <time>2022-07-29T09:23:45Z</time>
      </trkpt>
      <trkpt lat="42.51913" lon="-0.36252">
        <time>2022-07-29T09:23:46Z</time>
      </trkpt>
      <trkpt lat="42.51917" lon="-0.36247">
        <time>2022-07-29T09:23:47Z</time>
      </trkpt>
      <trkpt lat="42.51922" lon="-0.36243">
        <time>2022-07-29T09:23:48Z</time>
      </trkpt>
      <trkpt lat="42.51926" lon="-0.36238">
        <time>2022-07-29T09:23:49Z</time>
      </trkpt>
      <trkpt lat="42.51931" lon="-0.36234">
        <time>2022-07-29T09:23:50Z</time>
      </trkpt>
      <trkpt lat="42.51934" lon="-0.3623">
        <time>2022-07-29T09:23:51Z</time>
      </trkpt>
      <trkpt lat="42.51938" lon="-0.36226">
        <time>2022-07-29T09:23:52Z</time>
      </trkpt>
      <trkpt lat="42.51942" lon="-0.36222">
        <time>2022-07-29T09:23:53Z</time>
      </trkpt>
      <trkpt lat="42.51948" lon="-0.36217">
        <time>2022-07-29T09:23:54Z</time>
      </trkpt>
      <trkpt lat="42.51953" lon="-0.36212">
        <time>2022-07-29T09:23:55Z</time>
      </trkpt>
      <trkpt lat="42.51959" lon="-0.36206">
        <time>2022-07-29T09:23:56Z</time>
      </trkpt>
      <trkpt lat="42.51966" lon="-0.36199">
        <time>2022-07-29T09:23:57Z</time>
      </trkpt>
      <trkpt lat="42.51973" lon="-0.36192">
        <time>2022-07-29T09:23:58Z</time>
      </trkpt>
      <trkpt lat="42.5198" lon="-0.36186">
        <time>2022-07-29T09:23:59Z</time>
      </trkpt>
      <trkpt lat="42.51987" lon="-0.36178">
        <time>2022-07-29T09:24:00Z</time>
      </trkpt>
      <trkpt lat="42.51995" lon="-0.36171">
        <time>2022-07-29T09:24:01Z</time>
      </trkpt>
      <trkpt lat="42.52002" lon="-0.36163">
        <time>2022-07-29T09:24:02Z</time>
      </trkpt>
      <trkpt lat="42.5201" lon="-0.36155">
        <time>2022-07-29T09:24:03Z</time>
      </trkpt>
      <trkpt lat="42.52018" lon="-0.36147">
        <time>2022-07-29T09:24:04Z</time>
      </trkpt>
      <trkpt lat="42.52025" lon="-0.36139">
        <time>2022-07-29T09:24:05Z</time>
      </trkpt>
      <trkpt lat="42.52034" lon="-0.36131">
        <time>2022-07-29T09:24:06Z</time>
      </trkpt>
      <trkpt lat="42.52042" lon="-0.36123">
        <time>2022-07-29T09:24:07Z</time>
      </trkpt>
      <trkpt lat="42.5205" lon="-0.36115">
        <time>2022-07-29T09:24:08Z</time>
      </trkpt>
      <trkpt lat="42.52057" lon="-0.36107">
        <time>2022-07-29T09:24:09Z</time>
      </trkpt>
      <trkpt lat="42.52064" lon="-0.36099">
        <time>2022-07-29T09:24:10Z</time>
      </trkpt>
      <trkpt lat="42.52071" lon="-0.36093">
        <time>2022-07-29T09:24:11Z</time>
      </trkpt>
      <trkpt lat="42.52077" lon="-0.36086">
        <time>2022-07-29T09:24:12Z</time>
      </trkpt>
      <trkpt lat="42.52083" lon="-0.3608">
        <time>2022-07-29T09:24:13Z</time>
      </trkpt>
      <trkpt lat="42.52089" lon="-0.36075">
        <time>2022-07-29T09:24:14Z</time>
      </trkpt>
      <trkpt lat="42.52093" lon="-0.36069">
        <time>2022-07-29T09:24:15Z</time>
      </trkpt>
      <trkpt lat="42.52098" lon="-0.36065">
        <time>2022-07-29T09:24:16Z</time>
      </trkpt>
      <trkpt lat="42.52102" lon="-0.36061">
        <time>2022-07-29T09:24:17Z</time>
      </trkpt>
      <trkpt lat="42.52106" lon="-0.36057">
        <time>2022-07-29T09:24:18Z</time>
      </trkpt>
      <trkpt lat="42.52109" lon="-0.36054">
        <time>2022-07-29T09:24:19Z</time>
      </trkpt>
      <trkpt lat="42.52112" lon="-0.36051">
        <time>2022-07-29T09:24:20Z</time>
      </trkpt>
      <trkpt lat="42.52115" lon="-0.36048">
        <time>2022-07-29T09:24:21Z</time>
      </trkpt>
      <trkpt lat="42.5212" lon="-0.36043">
        <time>2022-07-29T09:24:22Z</time>
      </trkpt>
      <trkpt lat="42.52126" lon="-0.36036">
        <time>2022-07-29T09:24:23Z</time>
      </trkpt>
      <trkpt lat="42.52132" lon="-0.36028">
        <time>2022-07-29T09:24:24Z</time>
      </trkpt>
      <trkpt lat="42.52139" lon="-0.36022">
        <time>2022-07-29T09:24:25Z</time>
      </trkpt>
      <trkpt lat="42.52147" lon="-0.36015">
        <time>2022-07-29T09:24:26Z</time>
      </trkpt>
      <trkpt lat="42.52156" lon="-0.3601">
        <time>2022-07-29T09:24:27Z</time>
      </trkpt>
      <trkpt lat="42.52167" lon="-0.36007">
        <time>2022-07-29T09:24:28Z</time>
      </trkpt>
      <trkpt lat="42.52178" lon="-0.36006">
        <time>2022-07-29T09:24:29Z</time>
      </trkpt>
      <trkpt lat="42.52189" lon="-0.36007">
        <time>2022-07-29T09:24:30Z</time>
      </trkpt>
      <trkpt lat="42.52201" lon="-0.36009">
        <time>2022-07-29T09:24:31Z</time>
      </trkpt>
      <trkpt lat="42.52214" lon="-0.36011">
        <time>2022-07-29T09:24:32Z</time>
      </trkpt>
      <trkpt lat="42.52228" lon="-0.36013">
        <time>2022-07-29T09:24:33Z</time>
      </trkpt>
      <trkpt lat="42.52241" lon="-0.36014">
        <time>2022-07-29T09:24:34Z</time>
      </trkpt>
      <trkpt lat="42.52255" lon="-0.36016">
        <time>2022-07-29T09:24:35Z</time>
      </trkpt>
      <trkpt lat="42.52267" lon="-0.36018">
        <time>2022-07-29T09:24:36Z</time>
      </trkpt>
      <trkpt lat="42.5228" lon="-0.3602">
        <time>2022-07-29T09:24:37Z</time>
      </trkpt>
      <trkpt lat="42.52293" lon="-0.36022">
        <time>2022-07-29T09:24:38Z</time>
      </trkpt>
      <trkpt lat="42.52305" lon="-0.36024">
        <time>2022-07-29T09:24:39Z</time>
      </trkpt>
      <trkpt lat="42.52317" lon="-0.36025">
        <time>2022-07-29T09:24:40Z</time>
      </trkpt>
      <trkpt lat="42.52328" lon="-0.36028">
        <time>2022-07-29T09:24:41Z</time>
      </trkpt>
      <trkpt lat="42.52339" lon="-0.36029">
        <time>2022-07-29T09:24:42Z</time>
      </trkpt>
      <trkpt lat="42.5235" lon="-0.36031">
        <time>2022-07-29T09:24:43Z</time>
      </trkpt>
      <trkpt lat="42.52359" lon="-0.36033">
        <time>2022-07-29T09:24:44Z</time>
      </trkpt>
      <trkpt lat="42.52368" lon="-0.36034">
        <time>2022-07-29T09:24:45Z</time>
      </trkpt>
      <trkpt lat="42.52375" lon="-0.36036">
        <time>2022-07-29T09:24:46Z</time>
      </trkpt>
      <trkpt lat="42.52382" lon="-0.36037">
        <time>2022-07-29T09:24:47Z</time>
      </trkpt>
      <trkpt lat="42.52389" lon="-0.36037">
        <time>2022-07-29T09:24:48Z</time>
      </trkpt>
      <trkpt lat="42.52395" lon="-0.36037">
        <time>2022-07-29T09:24:49Z</time>
      </trkpt>
      <trkpt lat="42.524" lon="-0.36036">
        <time>2022-07-29T09:24:50Z</time>
      </trkpt>
      <trkpt lat="42.52405" lon="-0.36032">
        <time>2022-07-29T09:24:51Z</time>
      </trkpt>
      <trkpt lat="42.52411" lon="-0.36028">
        <time>2022-07-29T09:24:52Z</time>
      </trkpt>
      <trkpt lat="42.52418" lon="-0.36026">
        <time>2022-07-29T09:24:53Z</time>
      </trkpt>
      <trkpt lat="42.52425" lon="-0.36027">
        <time>2022-07-29T09:24:54Z</time>
      </trkpt>
      <trkpt lat="42.52432" lon="-0.36031">
        <time>2022-07-29T09:24:55Z</time>
      </trkpt>
      <trkpt lat="42.52439" lon="-0.36033">
        <time>2022-07-29T09:24:56Z</time>
      </trkpt>
      <trkpt lat="42.52448" lon="-0.36033">
        <time>2022-07-29T09:24:57Z</time>
      </trkpt>
      <trkpt lat="42.52459" lon="-0.36034">
        <time>2022-07-29T09:24:58Z</time>
      </trkpt>
      <trkpt lat="42.5247" lon="-0.36034">
        <time>2022-07-29T09:24:59Z</time>
      </trkpt>
      <trkpt lat="42.52481" lon="-0.36036">
        <time>2022-07-29T09:25:00Z</time>
      </trkpt>
      <trkpt lat="42.52492" lon="-0.36037">
        <time>2022-07-29T09:25:01Z</time>
      </trkpt>
      <trkpt lat="42.52504" lon="-0.36039">
        <time>2022-07-29T09:25:02Z</time>
      </trkpt>
      <trkpt lat="42.52516" lon="-0.36041">
        <time>2022-07-29T09:25:03Z</time>
      </trkpt>
      <trkpt lat="42.52528" lon="-0.36045">
        <time>2022-07-29T09:25:04Z</time>
      </trkpt>
      <trkpt lat="42.52539" lon="-0.3605">
        <time>2022-07-29T09:25:05Z</time>
      </trkpt>
      <trkpt lat="42.5255" lon="-0.36055">
        <time>2022-07-29T09:25:06Z</time>
      </trkpt>
      <trkpt lat="42.52561" lon="-0.36062">
        <time>2022-07-29T09:25:07Z</time>
      </trkpt>
      <trkpt lat="42.52571" lon="-0.36071">
        <time>2022-07-29T09:25:08Z</time>
      </trkpt>
      <trkpt lat="42.5258" lon="-0.36079">
        <time>2022-07-29T09:25:09Z</time>
      </trkpt>
      <trkpt lat="42.5259" lon="-0.36088">
        <time>2022-07-29T09:25:10Z</time>
      </trkpt>
      <trkpt lat="42.526" lon="-0.36098">
        <time>2022-07-29T09:25:11Z</time>
      </trkpt>
      <trkpt lat="42.52609" lon="-0.36107">
        <time>2022-07-29T09:25:12Z</time>
      </trkpt>
      <trkpt lat="42.52618" lon="-0.36116">
        <time>2022-07-29T09:25:13Z</time>
      </trkpt>
      <trkpt lat="42.52627" lon="-0.36125">
        <time>2022-07-29T09:25:14Z</time>
      </trkpt>
      <trkpt lat="42.52636" lon="-0.36134">
        <time>2022-07-29T09:25:15Z</time>
      </trkpt>
      <trkpt lat="42.52645" lon="-0.36142">
        <time>2022-07-29T09:25:16Z</time>
      </trkpt>
      <trkpt lat="42.52655" lon="-0.36149">
        <time>2022-07-29T09:25:17Z</time>
      </trkpt>
      <trkpt lat="42.52664" lon="-0.36156">
        <time>2022-07-29T09:25:18Z</time>
      </trkpt>
      <trkpt lat="42.52673" lon="-0.36164">
        <time>2022-07-29T09:25:19Z</time>
      </trkpt>
      <trkpt lat="42.52682" lon="-0.36172">
        <time>2022-07-29T09:25:20Z</time>
      </trkpt>
      <trkpt lat="42.52691" lon="-0.36179">
        <time>2022-07-29T09:25:21Z</time>
      </trkpt>
      <trkpt lat="42.52699" lon="-0.36187">
        <time>2022-07-29T09:25:22Z</time>
      </trkpt>
      <trkpt lat="42.52707" lon="-0.36194">
        <time>2022-07-29T09:25:23Z</time>
      </trkpt>
      <trkpt lat="42.52713" lon="-0.36201">
        <time>2022-07-29T09:25:24Z</time>
      </trkpt>
      <trkpt lat="42.5272" lon="-0.36206">
        <time>2022-07-29T09:25:25Z</time>
      </trkpt>
      <trkpt lat="42.52725" lon="-0.36209">
        <time>2022-07-29T09:25:26Z</time>
      </trkpt>
      <trkpt lat="42.52731" lon="-0.36211">
        <time>2022-07-29T09:25:27Z</time>
      </trkpt>
      <trkpt lat="42.52737" lon="-0.3621">
        <time>2022-07-29T09:25:28Z</time>
      </trkpt>
      <trkpt lat="42.52743" lon="-0.36207">
        <time>2022-07-29T09:25:29Z</time>
      </trkpt>
      <trkpt lat="42.52748" lon="-0.36203">
        <time>2022-07-29T09:25:30Z</time>
      </trkpt>
      <trkpt lat="42.52751" lon="-0.36197">
        <time>2022-07-29T09:25:31Z</time>
      </trkpt>
      <trkpt lat="42.52754" lon="-0.36189">
        <time>2022-07-29T09:25:32Z</time>
      </trkpt>
      <trkpt lat="42.52755" lon="-0.36179">
        <time>2022-07-29T09:25:33Z</time>
      </trkpt>
      <trkpt lat="42.52754" lon="-0.36168">
        <time>2022-07-29T09:25:34Z</time>
      </trkpt>
      <trkpt lat="42.52752" lon="-0.36156">
        <time>2022-07-29T09:25:35Z</time>
      </trkpt>
      <trkpt lat="42.5275" lon="-0.36144">
        <time>2022-07-29T09:25:36Z</time>
      </trkpt>
      <trkpt lat="42.52748" lon="-0.36132">
        <time>2022-07-29T09:25:37Z</time>
      </trkpt>
      <trkpt lat="42.52745" lon="-0.36121">
        <time>2022-07-29T09:25:38Z</time>
      </trkpt>
      <trkpt lat="42.52742" lon="-0.36109">
        <time>2022-07-29T09:25:39Z</time>
      </trkpt>
      <trkpt lat="42.52738" lon="-0.36098">
        <time>2022-07-29T09:25:40Z</time>
      </trkpt>
      <trkpt lat="42.52734" lon="-0.36087">
        <time>2022-07-29T09:25:41Z</time>
      </trkpt>
      <trkpt lat="42.5273" lon="-0.36074">
        <time>2022-07-29T09:25:42Z</time>
      </trkpt>
      <trkpt lat="42.52725" lon="-0.36062">
        <time>2022-07-29T09:25:43Z</time>
      </trkpt>
      <trkpt lat="42.5272" lon="-0.3605">
        <time>2022-07-29T09:25:44Z</time>
      </trkpt>
      <trkpt lat="42.52714" lon="-0.36038">
        <time>2022-07-29T09:25:45Z</time>
      </trkpt>
      <trkpt lat="42.52708" lon="-0.36026">
        <time>2022-07-29T09:25:46Z</time>
      </trkpt>
      <trkpt lat="42.52702" lon="-0.36014">
        <time>2022-07-29T09:25:47Z</time>
      </trkpt>
      <trkpt lat="42.52695" lon="-0.36002">
        <time>2022-07-29T09:25:48Z</time>
      </trkpt>
      <trkpt lat="42.52688" lon="-0.3599">
        <time>2022-07-29T09:25:49Z</time>
      </trkpt>
      <trkpt lat="42.5268" lon="-0.35979">
        <time>2022-07-29T09:25:50Z</time>
      </trkpt>
      <trkpt lat="42.52671" lon="-0.35968">
        <time>2022-07-29T09:25:51Z</time>
      </trkpt>
      <trkpt lat="42.52663" lon="-0.35956">
        <time>2022-07-29T09:25:52Z</time>
      </trkpt>
      <trkpt lat="42.52653" lon="-0.35946">
        <time>2022-07-29T09:25:53Z</time>
      </trkpt>
      <trkpt lat="42.52644" lon="-0.35935">
        <time>2022-07-29T09:25:54Z</time>
      </trkpt>
      <trkpt lat="42.52634" lon="-0.35926">
        <time>2022-07-29T09:25:55Z</time>
      </trkpt>
      <trkpt lat="42.52623" lon="-0.35915">
        <time>2022-07-29T09:25:56Z</time>
      </trkpt>
      <trkpt lat="42.52612" lon="-0.35905">
        <time>2022-07-29T09:25:57Z</time>
      </trkpt>
      <trkpt lat="42.52601" lon="-0.35893">
        <time>2022-07-29T09:25:58Z</time>
      </trkpt>
      <trkpt lat="42.5259" lon="-0.35881">
        <time>2022-07-29T09:25:59Z</time>
      </trkpt>
      <trkpt lat="42.5258" lon="-0.35869">
        <time>2022-07-29T09:26:00Z</time>
      </trkpt>
      <trkpt lat="42.52569" lon="-0.35857">
        <time>2022-07-29T09:26:01Z</time>
      </trkpt>
      <trkpt lat="42.52556" lon="-0.35845">
        <time>2022-07-29T09:26:02Z</time>
      </trkpt>
      <trkpt lat="42.52544" lon="-0.35834">
        <time>2022-07-29T09:26:03Z</time>
      </trkpt>
      <trkpt lat="42.52532" lon="-0.35823">
        <time>2022-07-29T09:26:04Z</time>
      </trkpt>
      <trkpt lat="42.52519" lon="-0.35812">
        <time>2022-07-29T09:26:05Z</time>
      </trkpt>
      <trkpt lat="42.52507" lon="-0.35799">
        <time>2022-07-29T09:26:06Z</time>
      </trkpt>
      <trkpt lat="42.52495" lon="-0.35786">
        <time>2022-07-29T09:26:07Z</time>
      </trkpt>
      <trkpt lat="42.52482" lon="-0.35773">
        <time>2022-07-29T09:26:08Z</time>
      </trkpt>
      <trkpt lat="42.52469" lon="-0.35759">
        <time>2022-07-29T09:26:09Z</time>
      </trkpt>
      <trkpt lat="42.52457" lon="-0.35746">
        <time>2022-07-29T09:26:10Z</time>
      </trkpt>
      <trkpt lat="42.52445" lon="-0.35732">
        <time>2022-07-29T09:26:11Z</time>
      </trkpt>
      <trkpt lat="42.52433" lon="-0.3572">
        <time>2022-07-29T09:26:12Z</time>
      </trkpt>
      <trkpt lat="42.52421" lon="-0.35707">
        <time>2022-07-29T09:26:13Z</time>
      </trkpt>
      <trkpt lat="42.52409" lon="-0.35694">
        <time>2022-07-29T09:26:14Z</time>
      </trkpt>
      <trkpt lat="42.52397" lon="-0.35682">
        <time>2022-07-29T09:26:15Z</time>
      </trkpt>
      <trkpt lat="42.52387" lon="-0.35671">
        <time>2022-07-29T09:26:16Z</time>
      </trkpt>
      <trkpt lat="42.52376" lon="-0.3566">
        <time>2022-07-29T09:26:17Z</time>
      </trkpt>
      <trkpt lat="42.52366" lon="-0.35649">
        <time>2022-07-29T09:26:18Z</time>
      </trkpt>
      <trkpt lat="42.52356" lon="-0.35638">
        <time>2022-07-29T09:26:19Z</time>
      </trkpt>
      <trkpt lat="42.52347" lon="-0.35628">
        <time>2022-07-29T09:26:20Z</time>
      </trkpt>
      <trkpt lat="42.52338" lon="-0.35619">
        <time>2022-07-29T09:26:21Z</time>
      </trkpt>
      <trkpt lat="42.52329" lon="-0.35609">
        <time>2022-07-29T09:26:22Z</time>
      </trkpt>
      <trkpt lat="42.5232" lon="-0.356">
        <time>2022-07-29T09:26:23Z</time>
      </trkpt>
      <trkpt lat="42.52311" lon="-0.35589">
        <time>2022-07-29T09:26:24Z</time>
      </trkpt>
      <trkpt lat="42.523" lon="-0.35578">
        <time>2022-07-29T09:26:25Z</time>
      </trkpt>
      <trkpt lat="42.5229" lon="-0.35567">
        <time>2022-07-29T09:26:26Z</time>
      </trkpt>
      <trkpt lat="42.52279" lon="-0.35555">
        <time>2022-07-29T09:26:27Z</time>
      </trkpt>
      <trkpt lat="42.52267" lon="-0.35543">
        <time>2022-07-29T09:26:28Z</time>
      </trkpt>
      <trkpt lat="42.52254" lon="-0.3553">
        <time>2022-07-29T09:26:29Z</time>
      </trkpt>
      <trkpt lat="42.52242" lon="-0.35516">
        <time>2022-07-29T09:26:30Z</time>
      </trkpt>
      <trkpt lat="42.5223" lon="-0.35503">
        <time>2022-07-29T09:26:31Z</time>
      </trkpt>
      <trkpt lat="42.52218" lon="-0.35491">
        <time>2022-07-29T09:26:32Z</time>
      </trkpt>
      <trkpt lat="42.52206" lon="-0.35478">
        <time>2022-07-29T09:26:33Z</time>
      </trkpt>
      <trkpt lat="42.52195" lon="-0.35466">
        <time>2022-07-29T09:26:34Z</time>
      </trkpt>
      <trkpt lat="42.52183" lon="-0.35453">
        <time>2022-07-29T09:26:35Z</time>
      </trkpt>
      <trkpt lat="42.52172" lon="-0.35441">
        <time>2022-07-29T09:26:36Z</time>
      </trkpt>
      <trkpt lat="42.5216" lon="-0.35429">
        <time>2022-07-29T09:26:37Z</time>
      </trkpt>
      <trkpt lat="42.52149" lon="-0.35417">
        <time>2022-07-29T09:26:38Z</time>
      </trkpt>
      <trkpt lat="42.52138" lon="-0.35405">
        <time>2022-07-29T09:26:39Z</time>
      </trkpt>
      <trkpt lat="42.52127" lon="-0.35393">
        <time>2022-07-29T09:26:40Z</time>
      </trkpt>
      <trkpt lat="42.52116" lon="-0.35381">
        <time>2022-07-29T09:26:41Z</time>
      </trkpt>
      <trkpt lat="42.52104" lon="-0.3537">
        <time>2022-07-29T09:26:42Z</time>
      </trkpt>
      <trkpt lat="42.52094" lon="-0.35358">
        <time>2022-07-29T09:26:43Z</time>
      </trkpt>
      <trkpt lat="42.52084" lon="-0.35348">
        <time>2022-07-29T09:26:44Z</time>
      </trkpt>
      <trkpt lat="42.52074" lon="-0.35338">
        <time>2022-07-29T09:26:45Z</time>
      </trkpt>
      <trkpt lat="42.52065" lon="-0.35328">
        <time>2022-07-29T09:26:46Z</time>
      </trkpt>
      <trkpt lat="42.52056" lon="-0.3532">
        <time>2022-07-29T09:26:47Z</time>
      </trkpt>
      <trkpt lat="42.52047" lon="-0.35312">
        <time>2022-07-29T09:26:48Z</time>
      </trkpt>
      <trkpt lat="42.52042" lon="-0.35304">
        <time>2022-07-29T09:26:49Z</time>
      </trkpt>
      <trkpt lat="42.52039" lon="-0.35295">
        <time>2022-07-29T09:26:50Z</time>
      </trkpt>
      <trkpt lat="42.52037" lon="-0.35286">
        <time>2022-07-29T09:26:51Z</time>
      </trkpt>
      <trkpt lat="42.52035" lon="-0.35276">
        <time>2022-07-29T09:26:52Z</time>
      </trkpt>
      <trkpt lat="42.5203" lon="-0.35266">
        <time>2022-07-29T09:26:53Z</time>
      </trkpt>
      <trkpt lat="42.52026" lon="-0.35255">
        <time>2022-07-29T09:26:54Z</time>
      </trkpt>
      <trkpt lat="42.52024" lon="-0.35244">
        <time>2022-07-29T09:26:55Z</time>
      </trkpt>
      <trkpt lat="42.52024" lon="-0.35233">
        <time>2022-07-29T09:26:56Z</time>
      </trkpt>
      <trkpt lat="42.52027" lon="-0.35224">
        <time>2022-07-29T09:26:57Z</time>
      </trkpt>
      <trkpt lat="42.52031" lon="-0.35218">
        <time>2022-07-29T09:26:58Z</time>
      </trkpt>
      <trkpt lat="42.52037" lon="-0.35213">
        <time>2022-07-29T09:26:59Z</time>
      </trkpt>
      <trkpt lat="42.52043" lon="-0.35211">
        <time>2022-07-29T09:27:00Z</time>
      </trkpt>
      <trkpt lat="42.52051" lon="-0.35211">
        <time>2022-07-29T09:27:01Z</time>
      </trkpt>
      <trkpt lat="42.52059" lon="-0.35216">
        <time>2022-07-29T09:27:02Z</time>
      </trkpt>
      <trkpt lat="42.52065" lon="-0.35225">
        <time>2022-07-29T09:27:03Z</time>
      </trkpt>
      <trkpt lat="42.52068" lon="-0.35236">
        <time>2022-07-29T09:27:04Z</time>
      </trkpt>
      <trkpt lat="42.52069" lon="-0.35249">
        <time>2022-07-29T09:27:05Z</time>
      </trkpt>
      <trkpt lat="42.52072" lon="-0.35263">
        <time>2022-07-29T09:27:06Z</time>
      </trkpt>
      <trkpt lat="42.52077" lon="-0.35278">
        <time>2022-07-29T09:27:07Z</time>
      </trkpt>
      <trkpt lat="42.52084" lon="-0.35291">
        <time>2022-07-29T09:27:08Z</time>
      </trkpt>
      <trkpt lat="42.52092" lon="-0.35303">
        <time>2022-07-29T09:27:09Z</time>
      </trkpt>
      <trkpt lat="42.52101" lon="-0.35316">
        <time>2022-07-29T09:27:10Z</time>
      </trkpt>
      <trkpt lat="42.52112" lon="-0.3533">
        <time>2022-07-29T09:27:11Z</time>
      </trkpt>
      <trkpt lat="42.52123" lon="-0.35343">
        <time>2022-07-29T09:27:12Z</time>
      </trkpt>
      <trkpt lat="42.52135" lon="-0.35355">
        <time>2022-07-29T09:27:13Z</time>
      </trkpt>
      <trkpt lat="42.52146" lon="-0.35368">
        <time>2022-07-29T09:27:14Z</time>
      </trkpt>
      <trkpt lat="42.52158" lon="-0.35381">
        <time>2022-07-29T09:27:15Z</time>
      </trkpt>
      <trkpt lat="42.5217" lon="-0.35395">
        <time>2022-07-29T09:27:16Z</time>
      </trkpt>
      <trkpt lat="42.52182" lon="-0.35407">
        <time>2022-07-29T09:27:17Z</time>
      </trkpt>
      <trkpt lat="42.52194" lon="-0.3542">
        <time>2022-07-29T09:27:18Z</time>
      </trkpt>
      <trkpt lat="42.52205" lon="-0.35433">
        <time>2022-07-29T09:27:19Z</time>
      </trkpt>
      <trkpt lat="42.52217" lon="-0.35446">
        <time>2022-07-29T09:27:20Z</time>
      </trkpt>
      <trkpt lat="42.5223" lon="-0.3546">
        <time>2022-07-29T09:27:21Z</time>
      </trkpt>
      <trkpt lat="42.52242" lon="-0.35473">
        <time>2022-07-29T09:27:22Z</time>
      </trkpt>
      <trkpt lat="42.52255" lon="-0.35486">
        <time>2022-07-29T09:27:23Z</time>
      </trkpt>
      <trkpt lat="42.52267" lon="-0.355">
        <time>2022-07-29T09:27:24Z</time>
      </trkpt>
      <trkpt lat="42.52279" lon="-0.35513">
        <time>2022-07-29T09:27:25Z</time>
      </trkpt>
      <trkpt lat="42.52292" lon="-0.35527">
        <time>2022-07-29T09:27:26Z</time>
      </trkpt>
      <trkpt lat="42.52305" lon="-0.35541">
        <time>2022-07-29T09:27:27Z</time>
      </trkpt>
      <trkpt lat="42.52318" lon="-0.35556">
        <time>2022-07-29T09:27:28Z</time>
      </trkpt>
      <trkpt lat="42.52331" lon="-0.3557">
        <time>2022-07-29T09:27:29Z</time>
      </trkpt>
      <trkpt lat="42.52345" lon="-0.35585">
        <time>2022-07-29T09:27:30Z</time>
      </trkpt>
      <trkpt lat="42.52358" lon="-0.35599">
        <time>2022-07-29T09:27:31Z</time>
      </trkpt>
      <trkpt lat="42.52372" lon="-0.35614">
        <time>2022-07-29T09:27:32Z</time>
      </trkpt>
      <trkpt lat="42.52386" lon="-0.35629">
        <time>2022-07-29T09:27:33Z</time>
      </trkpt>
      <trkpt lat="42.524" lon="-0.35644">
        <time>2022-07-29T09:27:34Z</time>
      </trkpt>
      <trkpt lat="42.52413" lon="-0.35658">
        <time>2022-07-29T09:27:35Z</time>
      </trkpt>
      <trkpt lat="42.52426" lon="-0.35672">
        <time>2022-07-29T09:27:36Z</time>
      </trkpt>
      <trkpt lat="42.52439" lon="-0.35685">
        <time>2022-07-29T09:27:37Z</time>
      </trkpt>
      <trkpt lat="42.52451" lon="-0.35699">
        <time>2022-07-29T09:27:38Z</time>
      </trkpt>
      <trkpt lat="42.52463" lon="-0.35712">
        <time>2022-07-29T09:27:39Z</time>
      </trkpt>
      <trkpt lat="42.52475" lon="-0.35724">
        <time>2022-07-29T09:27:40Z</time>
      </trkpt>
      <trkpt lat="42.52486" lon="-0.35736">
        <time>2022-07-29T09:27:41Z</time>
      </trkpt>
      <trkpt lat="42.52497" lon="-0.35748">
        <time>2022-07-29T09:27:42Z</time>
      </trkpt>
      <trkpt lat="42.52507" lon="-0.35758">
        <time>2022-07-29T09:27:43Z</time>
      </trkpt>
      <trkpt lat="42.52517" lon="-0.35769">
        <time>2022-07-29T09:27:44Z</time>
      </trkpt>
      <trkpt lat="42.52527" lon="-0.3578">
        <time>2022-07-29T09:27:45Z</time>
      </trkpt>
      <trkpt lat="42.52538" lon="-0.35791">
        <time>2022-07-29T09:27:46Z</time>
      </trkpt>
      <trkpt lat="42.52548" lon="-0.35801">
        <time>2022-07-29T09:27:47Z</time>
      </trkpt>
      <trkpt lat="42.52559" lon="-0.35812">
        <time>2022-07-29T09:27:48Z</time>
      </trkpt>
      <trkpt lat="42.52569" lon="-0.35823">
        <time>2022-07-29T09:27:49Z</time>
      </trkpt>
      <trkpt lat="42.52581" lon="-0.35834">
        <time>2022-07-29T09:27:50Z</time>
      </trkpt>
      <trkpt lat="42.5259" lon="-0.35845">
        <time>2022-07-29T09:27:51Z</time>
      </trkpt>
      <trkpt lat="42.526" lon="-0.35855">
        <time>2022-07-29T09:27:52Z</time>
      </trkpt>
      <trkpt lat="42.52609" lon="-0.35865">
        <time>2022-07-29T09:27:53Z</time>
      </trkpt>
      <trkpt lat="42.52617" lon="-0.35873">
        <time>2022-07-29T09:27:54Z</time>
      </trkpt>
      <trkpt lat="42.52625" lon="-0.3588">
        <time>2022-07-29T09:27:55Z</time>
      </trkpt>
      <trkpt lat="42.52632" lon="-0.35884">
        <time>2022-07-29T09:27:56Z</time>
      </trkpt>
      <trkpt lat="42.5264" lon="-0.35886">
        <time>2022-07-29T09:27:57Z</time>
      </trkpt>
      <trkpt lat="42.52647" lon="-0.35885">
        <time>2022-07-29T09:27:58Z</time>
      </trkpt>
      <trkpt lat="42.52654" lon="-0.35883">
        <time>2022-07-29T09:27:59Z</time>
      </trkpt>
      <trkpt lat="42.5266" lon="-0.3588">
        <time>2022-07-29T09:28:00Z</time>
      </trkpt>
      <trkpt lat="42.52667" lon="-0.35879">
        <time>2022-07-29T09:28:01Z</time>
      </trkpt>
      <trkpt lat="42.52674" lon="-0.3588">
        <time>2022-07-29T09:28:02Z</time>
      </trkpt>
      <trkpt lat="42.52679" lon="-0.35885">
        <time>2022-07-29T09:28:03Z</time>
      </trkpt>
      <trkpt lat="42.52684" lon="-0.35892">
        <time>2022-07-29T09:28:04Z</time>
      </trkpt>
      <trkpt lat="42.52688" lon="-0.35899">
        <time>2022-07-29T09:28:05Z</time>
      </trkpt>
      <trkpt lat="42.52692" lon="-0.35906">
        <time>2022-07-29T09:28:06Z</time>
      </trkpt>
      <trkpt lat="42.52697" lon="-0.35914">
        <time>2022-07-29T09:28:07Z</time>
      </trkpt>
      <trkpt lat="42.52701" lon="-0.3592">
        <time>2022-07-29T09:28:08Z</time>
      </trkpt>
      <trkpt lat="42.52706" lon="-0.35926">
        <time>2022-07-29T09:28:09Z</time>
      </trkpt>
      <trkpt lat="42.52709" lon="-0.35933">
        <time>2022-07-29T09:28:10Z</time>
      </trkpt>
      <trkpt lat="42.52714" lon="-0.3594">
        <time>2022-07-29T09:28:11Z</time>
      </trkpt>
      <trkpt lat="42.52718" lon="-0.35946">
        <time>2022-07-29T09:28:12Z</time>
      </trkpt>
      <trkpt lat="42.52721" lon="-0.35951">
        <time>2022-07-29T09:28:13Z</time>
      </trkpt>
      <trkpt lat="42.52725" lon="-0.35955">
        <time>2022-07-29T09:28:14Z</time>
      </trkpt>
      <trkpt lat="42.52727" lon="-0.35959">
        <time>2022-07-29T09:28:15Z</time>
      </trkpt>
      <trkpt lat="42.52727" lon="-0.35964">
        <time>2022-07-29T09:28:16Z</time>
      </trkpt>
      <trkpt lat="42.52726" lon="-0.35967">
        <time>2022-07-29T09:28:17Z</time>
      </trkpt>
      <trkpt lat="42.52724" lon="-0.35969">
        <time>2022-07-29T09:28:18Z</time>
      </trkpt>
      <trkpt lat="42.52723" lon="-0.3597">
        <time>2022-07-29T09:28:19Z</time>
      </trkpt>
      <trkpt lat="42.52723" lon="-0.35967">
        <time>2022-07-29T09:35:51Z</time>
      </trkpt>
      <trkpt lat="42.52727" lon="-0.35964">
        <time>2022-07-29T09:37:27Z</time>
      </trkpt>
      <trkpt lat="42.52725" lon="-0.3596">
        <time>2022-07-29T09:37:28Z</time>
      </trkpt>
      <trkpt lat="42.52723" lon="-0.35955">
        <time>2022-07-29T09:37:29Z</time>
      </trkpt>
      <trkpt lat="42.5272" lon="-0.35948">
        <time>2022-07-29T09:37:30Z</time>
      </trkpt>
      <trkpt lat="42.52716" lon="-0.35941">
        <time>2022-07-29T09:37:31Z</time>
      </trkpt>
      <trkpt lat="42.52712" lon="-0.35934">
        <time>2022-07-29T09:37:32Z</time>
      </trkpt>
      <trkpt lat="42.52708" lon="-0.35928">
        <time>2022-07-29T09:37:33Z</time>
      </trkpt>
      <trkpt lat="42.52703" lon="-0.35922">
        <time>2022-07-29T09:37:34Z</time>
      </trkpt>
      <trkpt lat="42.52698" lon="-0.35915">
        <time>2022-07-29T09:37:35Z</time>
      </trkpt>
      <trkpt lat="42.52694" lon="-0.35909">
        <time>2022-07-29T09:37:36Z</time>
      </trkpt>
      <trkpt lat="42.5269" lon="-0.35903">
        <time>2022-07-29T09:37:37Z</time>
      </trkpt>
      <trkpt lat="42.52688" lon="-0.35898">
        <time>2022-07-29T09:37:38Z</time>
      </trkpt>
      <trkpt lat="42.52686" lon="-0.35894">
        <time>2022-07-29T09:37:39Z</time>
      </trkpt>
      <trkpt lat="42.52684" lon="-0.3589">
        <time>2022-07-29T09:37:40Z</time>
      </trkpt>
      <trkpt lat="42.52681" lon="-0.35886">
        <time>2022-07-29T09:37:41Z</time>
      </trkpt>
      <trkpt lat="42.52676" lon="-0.35884">
        <time>2022-07-29T09:37:42Z</time>
      </trkpt>
      <trkpt lat="42.52671" lon="-0.35884">
        <time>2022-07-29T09:37:43Z</time>
      </trkpt>
      <trkpt lat="42.52666" lon="-0.35885">
        <time>2022-07-29T09:37:44Z</time>
      </trkpt>
      <trkpt lat="42.52661" lon="-0.35889">
        <time>2022-07-29T09:37:45Z</time>
      </trkpt>
      <trkpt lat="42.52658" lon="-0.35895">
        <time>2022-07-29T09:37:46Z</time>
      </trkpt>
      <trkpt lat="42.52657" lon="-0.35903">
        <time>2022-07-29T09:37:47Z</time>
      </trkpt>
      <trkpt lat="42.52658" lon="-0.3591">
        <time>2022-07-29T09:37:48Z</time>
      </trkpt>
      <trkpt lat="42.52662" lon="-0.35916">
        <time>2022-07-29T09:37:49Z</time>
      </trkpt>
      <trkpt lat="42.52667" lon="-0.35924">
        <time>2022-07-29T09:37:50Z</time>
      </trkpt>
      <trkpt lat="42.52673" lon="-0.35932">
        <time>2022-07-29T09:37:51Z</time>
      </trkpt>
      <trkpt lat="42.5268" lon="-0.3594">
        <time>2022-07-29T09:37:52Z</time>
      </trkpt>
      <trkpt lat="42.52688" lon="-0.35949">
        <time>2022-07-29T09:37:53Z</time>
      </trkpt>
      <trkpt lat="42.52696" lon="-0.35959">
        <time>2022-07-29T09:37:54Z</time>
      </trkpt>
      <trkpt lat="42.52704" lon="-0.35972">
        <time>2022-07-29T09:37:55Z</time>
      </trkpt>
      <trkpt lat="42.52712" lon="-0.35987">
        <time>2022-07-29T09:37:56Z</time>
      </trkpt>
      <trkpt lat="42.5272" lon="-0.36001">
        <time>2022-07-29T09:37:57Z</time>
      </trkpt>
      <trkpt lat="42.52727" lon="-0.36014">
        <time>2022-07-29T09:37:58Z</time>
      </trkpt>
      <trkpt lat="42.52733" lon="-0.36027">
        <time>2022-07-29T09:37:59Z</time>
      </trkpt>
      <trkpt lat="42.52739" lon="-0.3604">
        <time>2022-07-29T09:38:00Z</time>
      </trkpt>
      <trkpt lat="42.52745" lon="-0.36054">
        <time>2022-07-29T09:38:01Z</time>
      </trkpt>
      <trkpt lat="42.5275" lon="-0.36067">
        <time>2022-07-29T09:38:02Z</time>
      </trkpt>
      <trkpt lat="42.52753" lon="-0.3608">
        <time>2022-07-29T09:38:03Z</time>
      </trkpt>
      <trkpt lat="42.52757" lon="-0.36094">
        <time>2022-07-29T09:38:04Z</time>
      </trkpt>
      <trkpt lat="42.5276" lon="-0.36109">
        <time>2022-07-29T09:38:05Z</time>
      </trkpt>
      <trkpt lat="42.52763" lon="-0.36123">
        <time>2022-07-29T09:38:06Z</time>
      </trkpt>
      <trkpt lat="42.52766" lon="-0.36137">
        <time>2022-07-29T09:38:07Z</time>
      </trkpt>
      <trkpt lat="42.5277" lon="-0.36152">
        <time>2022-07-29T09:38:08Z</time>
      </trkpt>
      <trkpt lat="42.52773" lon="-0.36165">
        <time>2022-07-29T09:38:09Z</time>
      </trkpt>
      <trkpt lat="42.52776" lon="-0.36177">
        <time>2022-07-29T09:38:10Z</time>
      </trkpt>
      <trkpt lat="42.52778" lon="-0.36187">
        <time>2022-07-29T09:38:11Z</time>
      </trkpt>
      <trkpt lat="42.5278" lon="-0.36195">
        <time>2022-07-29T09:38:12Z</time>
      </trkpt>
      <trkpt lat="42.52782" lon="-0.362">
        <time>2022-07-29T09:38:13Z</time>
      </trkpt>
      <trkpt lat="42.52784" lon="-0.36206">
        <time>2022-07-29T09:38:14Z</time>
      </trkpt>
      <trkpt lat="42.52788" lon="-0.36211">
        <time>2022-07-29T09:38:15Z</time>
      </trkpt>
      <trkpt lat="42.52792" lon="-0.36217">
        <time>2022-07-29T09:38:16Z</time>
      </trkpt>
      <trkpt lat="42.52797" lon="-0.36221">
        <time>2022-07-29T09:38:17Z</time>
      </trkpt>
      <trkpt lat="42.52803" lon="-0.36227">
        <time>2022-07-29T09:38:18Z</time>
      </trkpt>
      <trkpt lat="42.52807" lon="-0.36234">
        <time>2022-07-29T09:38:19Z</time>
      </trkpt>
      <trkpt lat="42.52811" lon="-0.36244">
        <time>2022-07-29T09:38:20Z</time>
      </trkpt>
      <trkpt lat="42.52813" lon="-0.36254">
        <time>2022-07-29T09:38:21Z</time>
      </trkpt>
      <trkpt lat="42.52815" lon="-0.36266">
        <time>2022-07-29T09:38:22Z</time>
      </trkpt>
      <trkpt lat="42.52818" lon="-0.36277">
        <time>2022-07-29T09:38:23Z</time>
      </trkpt>
      <trkpt lat="42.52822" lon="-0.36287">
        <time>2022-07-29T09:38:24Z</time>
      </trkpt>
      <trkpt lat="42.52827" lon="-0.36297">
        <time>2022-07-29T09:38:25Z</time>
      </trkpt>
      <trkpt lat="42.52831" lon="-0.36307">
        <time>2022-07-29T09:38:26Z</time>
      </trkpt>
      <trkpt lat="42.52838" lon="-0.36316">
        <time>2022-07-29T09:38:27Z</time>
      </trkpt>
      <trkpt lat="42.52846" lon="-0.36326">
        <time>2022-07-29T09:38:28Z</time>
      </trkpt>
      <trkpt lat="42.52854" lon="-0.36336">
        <time>2022-07-29T09:38:29Z</time>
      </trkpt>
      <trkpt lat="42.52862" lon="-0.36346">
        <time>2022-07-29T09:38:30Z</time>
      </trkpt>
      <trkpt lat="42.5287" lon="-0.36355">
        <time>2022-07-29T09:38:31Z</time>
      </trkpt>
      <trkpt lat="42.52879" lon="-0.36365">
        <time>2022-07-29T09:38:32Z</time>
      </trkpt>
      <trkpt lat="42.52889" lon="-0.36374">
        <time>2022-07-29T09:38:33Z</time>
      </trkpt>
      <trkpt lat="42.52899" lon="-0.36384">
        <time>2022-07-29T09:38:34Z</time>
      </trkpt>
      <trkpt lat="42.5291" lon="-0.36395">
        <time>2022-07-29T09:38:35Z</time>
      </trkpt>
      <trkpt lat="42.52922" lon="-0.36407">
        <time>2022-07-29T09:38:36Z</time>
      </trkpt>
      <trkpt lat="42.52934" lon="-0.36418">
        <time>2022-07-29T09:38:37Z</time>
      </trkpt>
      <trkpt lat="42.52946" lon="-0.36429">
        <time>2022-07-29T09:38:38Z</time>
      </trkpt>
      <trkpt lat="42.52959" lon="-0.3644">
        <time>2022-07-29T09:38:39Z</time>
      </trkpt>
      <trkpt lat="42.52971" lon="-0.36451">
        <time>2022-07-29T09:38:40Z</time>
      </trkpt>
      <trkpt lat="42.52984" lon="-0.36463">
        <time>2022-07-29T09:38:41Z</time>
      </trkpt>
      <trkpt lat="42.52998" lon="-0.36475">
        <time>2022-07-29T09:38:42Z</time>
      </trkpt>
      <trkpt lat="42.53011" lon="-0.36488">
        <time>2022-07-29T09:38:43Z</time>
      </trkpt>
      <trkpt lat="42.53025" lon="-0.365">
        <time>2022-07-29T09:38:44Z</time>
      </trkpt>
      <trkpt lat="42.53038" lon="-0.36512">
        <time>2022-07-29T09:38:45Z</time>
      </trkpt>
      <trkpt lat="42.53052" lon="-0.36524">
        <time>2022-07-29T09:38:46Z</time>
      </trkpt>
      <trkpt lat="42.53065" lon="-0.36536">
        <time>2022-07-29T09:38:47Z</time>
      </trkpt>
      <trkpt lat="42.53078" lon="-0.36548">
        <time>2022-07-29T09:38:48Z</time>
      </trkpt>
      <trkpt lat="42.53091" lon="-0.3656">
        <time>2022-07-29T09:38:49Z</time>
      </trkpt>
      <trkpt lat="42.53104" lon="-0.36572">
        <time>2022-07-29T09:38:50Z</time>
      </trkpt>
      <trkpt lat="42.53117" lon="-0.36583">
        <time>2022-07-29T09:38:51Z</time>
      </trkpt>
      <trkpt lat="42.5313" lon="-0.36595">
        <time>2022-07-29T09:38:52Z</time>
      </trkpt>
      <trkpt lat="42.53142" lon="-0.36605">
        <time>2022-07-29T09:38:53Z</time>
      </trkpt>
      <trkpt lat="42.53154" lon="-0.36616">
        <time>2022-07-29T09:38:54Z</time>
      </trkpt>
      <trkpt lat="42.53164" lon="-0.36625">
        <time>2022-07-29T09:38:55Z</time>
      </trkpt>
      <trkpt lat="42.53172" lon="-0.36632">
        <time>2022-07-29T09:38:56Z</time>
      </trkpt>
      <trkpt lat="42.5318" lon="-0.36639">
        <time>2022-07-29T09:38:57Z</time>
      </trkpt>
      <trkpt lat="42.53186" lon="-0.36645">
        <time>2022-07-29T09:38:58Z</time>
      </trkpt>
      <trkpt lat="42.53191" lon="-0.36651">
        <time>2022-07-29T09:38:59Z</time>
      </trkpt>
      <trkpt lat="42.53196" lon="-0.36655">
        <time>2022-07-29T09:39:00Z</time>
      </trkpt>
      <trkpt lat="42.532" lon="-0.36658">
        <time>2022-07-29T09:39:01Z</time>
      </trkpt>
      <trkpt lat="42.53204" lon="-0.36662">
        <time>2022-07-29T09:39:02Z</time>
      </trkpt>
      <trkpt lat="42.53208" lon="-0.36667">
        <time>2022-07-29T09:39:03Z</time>
      </trkpt>
      <trkpt lat="42.53212" lon="-0.36672">
        <time>2022-07-29T09:39:04Z</time>
      </trkpt>
      <trkpt lat="42.53217" lon="-0.36678">
        <time>2022-07-29T09:39:05Z</time>
      </trkpt>
      <trkpt lat="42.53223" lon="-0.36683">
        <time>2022-07-29T09:39:06Z</time>
      </trkpt>
      <trkpt lat="42.53229" lon="-0.36689">
        <time>2022-07-29T09:39:07Z</time>
      </trkpt>
      <trkpt lat="42.53234" lon="-0.36696">
        <time>2022-07-29T09:39:08Z</time>
      </trkpt>
      <trkpt lat="42.53239" lon="-0.36703">
        <time>2022-07-29T09:39:09Z</time>
      </trkpt>
      <trkpt lat="42.53246" lon="-0.3671">
        <time>2022-07-29T09:39:10Z</time>
      </trkpt>
      <trkpt lat="42.53253" lon="-0.36719">
        <time>2022-07-29T09:39:11Z</time>
      </trkpt>
      <trkpt lat="42.5326" lon="-0.36727">
        <time>2022-07-29T09:39:12Z</time>
      </trkpt>
      <trkpt lat="42.53267" lon="-0.36736">
        <time>2022-07-29T09:39:13Z</time>
      </trkpt>
      <trkpt lat="42.53273" lon="-0.36745">
        <time>2022-07-29T09:39:14Z</time>
      </trkpt>
      <trkpt lat="42.53279" lon="-0.36754">
        <time>2022-07-29T09:39:15Z</time>
      </trkpt>
      <trkpt lat="42.53286" lon="-0.36763">
        <time>2022-07-29T09:39:16Z</time>
      </trkpt>
      <trkpt lat="42.53292" lon="-0.36772">
        <time>2022-07-29T09:39:17Z</time>
      </trkpt>
      <trkpt lat="42.53298" lon="-0.36782">
        <time>2022-07-29T09:39:18Z</time>
      </trkpt>
      <trkpt lat="42.53305" lon="-0.36793">
        <time>2022-07-29T09:39:19Z</time>
      </trkpt>
      <trkpt lat="42.53313" lon="-0.36805">
        <time>2022-07-29T09:39:20Z</time>
      </trkpt>
      <trkpt lat="42.53321" lon="-0.36818">
        <time>2022-07-29T09:39:21Z</time>
      </trkpt>
      <trkpt lat="42.5333" lon="-0.3683">
        <time>2022-07-29T09:39:22Z</time>
      </trkpt>
      <trkpt lat="42.53339" lon="-0.36843">
        <time>2022-07-29T09:39:23Z</time>
      </trkpt>
      <trkpt lat="42.53347" lon="-0.36856">
        <time>2022-07-29T09:39:24Z</time>
      </trkpt>
      <trkpt lat="42.53356" lon="-0.36869">
        <time>2022-07-29T09:39:25Z</time>
      </trkpt>
      <trkpt lat="42.53364" lon="-0.36883">
        <time>2022-07-29T09:39:26Z</time>
      </trkpt>
      <trkpt lat="42.53373" lon="-0.36896">
        <time>2022-07-29T09:39:27Z</time>
      </trkpt>
      <trkpt lat="42.53381" lon="-0.36908">
        <time>2022-07-29T09:39:28Z</time>
      </trkpt>
      <trkpt lat="42.53389" lon="-0.36921">
        <time>2022-07-29T09:39:29Z</time>
      </trkpt>
      <trkpt lat="42.53398" lon="-0.36933">
        <time>2022-07-29T09:39:30Z</time>
      </trkpt>
      <trkpt lat="42.53407" lon="-0.36945">
        <time>2022-07-29T09:39:31Z</time>
      </trkpt>
      <trkpt lat="42.53415" lon="-0.36958">
        <time>2022-07-29T09:39:32Z</time>
      </trkpt>
      <trkpt lat="42.53424" lon="-0.36969">
        <time>2022-07-29T09:39:33Z</time>
      </trkpt>
      <trkpt lat="42.53434" lon="-0.3698">
        <time>2022-07-29T09:39:34Z</time>
      </trkpt>
      <trkpt lat="42.53444" lon="-0.36991">
        <time>2022-07-29T09:39:35Z</time>
      </trkpt>
      <trkpt lat="42.53454" lon="-0.37">
        <time>2022-07-29T09:39:36Z</time>
      </trkpt>
      <trkpt lat="42.53466" lon="-0.37008">
        <time>2022-07-29T09:39:37Z</time>
      </trkpt>
      <trkpt lat="42.53478" lon="-0.37015">
        <time>2022-07-29T09:39:38Z</time>
      </trkpt>
      <trkpt lat="42.53491" lon="-0.37021">
        <time>2022-07-29T09:39:39Z</time>
      </trkpt>
      <trkpt lat="42.53504" lon="-0.37025">
        <time>2022-07-29T09:39:40Z</time>
      </trkpt>
      <trkpt lat="42.53518" lon="-0.37028">
        <time>2022-07-29T09:39:41Z</time>
      </trkpt>
      <trkpt lat="42.53531" lon="-0.3703">
        <time>2022-07-29T09:39:42Z</time>
      </trkpt>
      <trkpt lat="42.53543" lon="-0.3703">
        <time>2022-07-29T09:39:43Z</time>
      </trkpt>
      <trkpt lat="42.53556" lon="-0.37028">
        <time>2022-07-29T09:39:44Z</time>
      </trkpt>
      <trkpt lat="42.53567" lon="-0.37025">
        <time>2022-07-29T09:39:45Z</time>
      </trkpt>
      <trkpt lat="42.53579" lon="-0.37021">
        <time>2022-07-29T09:39:46Z</time>
      </trkpt>
      <trkpt lat="42.53591" lon="-0.37016">
        <time>2022-07-29T09:39:47Z</time>
      </trkpt>
      <trkpt lat="42.53603" lon="-0.3701">
        <time>2022-07-29T09:39:48Z</time>
      </trkpt>
      <trkpt lat="42.53613" lon="-0.37003">
        <time>2022-07-29T09:39:49Z</time>
      </trkpt>
      <trkpt lat="42.53624" lon="-0.36993">
        <time>2022-07-29T09:39:50Z</time>
      </trkpt>
      <trkpt lat="42.53635" lon="-0.36983">
        <time>2022-07-29T09:39:51Z</time>
      </trkpt>
      <trkpt lat="42.53646" lon="-0.36971">
        <time>2022-07-29T09:39:52Z</time>
      </trkpt>
      <trkpt lat="42.53656" lon="-0.36957">
        <time>2022-07-29T09:39:53Z</time>
      </trkpt>
      <trkpt lat="42.53665" lon="-0.36942">
        <time>2022-07-29T09:39:54Z</time>
      </trkpt>
      <trkpt lat="42.53674" lon="-0.36925">
        <time>2022-07-29T09:39:55Z</time>
      </trkpt>
      <trkpt lat="42.53681" lon="-0.36906">
        <time>2022-07-29T09:39:56Z</time>
      </trkpt>
      <trkpt lat="42.53688" lon="-0.36887">
        <time>2022-07-29T09:39:57Z</time>
      </trkpt>
      <trkpt lat="42.53692" lon="-0.36865">
        <time>2022-07-29T09:39:58Z</time>
      </trkpt>
      <trkpt lat="42.53696" lon="-0.36842">
        <time>2022-07-29T09:39:59Z</time>
      </trkpt>
      <trkpt lat="42.537" lon="-0.3682">
        <time>2022-07-29T09:40:00Z</time>
      </trkpt>
      <trkpt lat="42.53702" lon="-0.36797">
        <time>2022-07-29T09:40:01Z</time>
      </trkpt>
      <trkpt lat="42.53705" lon="-0.36775">
        <time>2022-07-29T09:40:02Z</time>
      </trkpt>
      <trkpt lat="42.53707" lon="-0.36752">
        <time>2022-07-29T09:40:03Z</time>
      </trkpt>
      <trkpt lat="42.5371" lon="-0.3673">
        <time>2022-07-29T09:40:04Z</time>
      </trkpt>
      <trkpt lat="42.53712" lon="-0.36708">
        <time>2022-07-29T09:40:05Z</time>
      </trkpt>
      <trkpt lat="42.53714" lon="-0.36686">
        <time>2022-07-29T09:40:06Z</time>
      </trkpt>
      <trkpt lat="42.53716" lon="-0.36664">
        <time>2022-07-29T09:40:07Z</time>
      </trkpt>
      <trkpt lat="42.53718" lon="-0.36643">
        <time>2022-07-29T09:40:08Z</time>
      </trkpt>
      <trkpt lat="42.5372" lon="-0.36621">
        <time>2022-07-29T09:40:09Z</time>
      </trkpt>
      <trkpt lat="42.53722" lon="-0.36599">
        <time>2022-07-29T09:40:10Z</time>
      </trkpt>
      <trkpt lat="42.53723" lon="-0.36577">
        <time>2022-07-29T09:40:11Z</time>
      </trkpt>
      <trkpt lat="42.53722" lon="-0.36555">
        <time>2022-07-29T09:40:12Z</time>
      </trkpt>
      <trkpt lat="42.53721" lon="-0.36533">
        <time>2022-07-29T09:40:13Z</time>
      </trkpt>
      <trkpt lat="42.53719" lon="-0.36512">
        <time>2022-07-29T09:40:14Z</time>
      </trkpt>
      <trkpt lat="42.53716" lon="-0.36491">
        <time>2022-07-29T09:40:15Z</time>
      </trkpt>
      <trkpt lat="42.53711" lon="-0.3647">
        <time>2022-07-29T09:40:16Z</time>
      </trkpt>
      <trkpt lat="42.53706" lon="-0.3645">
        <time>2022-07-29T09:40:17Z</time>
      </trkpt>
      <trkpt lat="42.537" lon="-0.36429">
        <time>2022-07-29T09:40:18Z</time>
      </trkpt>
      <trkpt lat="42.53694" lon="-0.36407">
        <time>2022-07-29T09:40:19Z</time>
      </trkpt>
      <trkpt lat="42.53688" lon="-0.36385">
        <time>2022-07-29T09:40:20Z</time>
      </trkpt>
      <trkpt lat="42.53682" lon="-0.36362">
        <time>2022-07-29T09:40:21Z</time>
      </trkpt>
      <trkpt lat="42.53677" lon="-0.36339">
        <time>2022-07-29T09:40:22Z</time>
      </trkpt>
      <trkpt lat="42.53672" lon="-0.36316">
        <time>2022-07-29T09:40:23Z</time>
      </trkpt>
      <trkpt lat="42.53667" lon="-0.36293">
        <time>2022-07-29T09:40:24Z</time>
      </trkpt>
      <trkpt lat="42.53664" lon="-0.36271">
        <time>2022-07-29T09:40:25Z</time>
      </trkpt>
      <trkpt lat="42.53662" lon="-0.36248">
        <time>2022-07-29T09:40:26Z</time>
      </trkpt>
      <trkpt lat="42.5366" lon="-0.36226">
        <time>2022-07-29T09:40:27Z</time>
      </trkpt>
      <trkpt lat="42.53661" lon="-0.36205">
        <time>2022-07-29T09:40:28Z</time>
      </trkpt>
      <trkpt lat="42.53662" lon="-0.36185">
        <time>2022-07-29T09:40:29Z</time>
      </trkpt>
      <trkpt lat="42.53663" lon="-0.36164">
        <time>2022-07-29T09:40:30Z</time>
      </trkpt>
      <trkpt lat="42.53666" lon="-0.36144">
        <time>2022-07-29T09:40:31Z</time>
      </trkpt>
      <trkpt lat="42.53669" lon="-0.36125">
        <time>2022-07-29T09:40:32Z</time>
      </trkpt>
      <trkpt lat="42.53673" lon="-0.36106">
        <time>2022-07-29T09:40:33Z</time>
      </trkpt>
      <trkpt lat="42.53678" lon="-0.36087">
        <time>2022-07-29T09:40:34Z</time>
      </trkpt>
      <trkpt lat="42.53684" lon="-0.3607">
        <time>2022-07-29T09:40:35Z</time>
      </trkpt>
      <trkpt lat="42.5369" lon="-0.36053">
        <time>2022-07-29T09:40:36Z</time>
      </trkpt>
      <trkpt lat="42.53697" lon="-0.36037">
        <time>2022-07-29T09:40:37Z</time>
      </trkpt>
      <trkpt lat="42.53704" lon="-0.36022">
        <time>2022-07-29T09:40:38Z</time>
      </trkpt>
      <trkpt lat="42.53712" lon="-0.36007">
        <time>2022-07-29T09:40:39Z</time>
      </trkpt>
      <trkpt lat="42.5372" lon="-0.35993">
        <time>2022-07-29T09:40:40Z</time>
      </trkpt>
      <trkpt lat="42.53729" lon="-0.35979">
        <time>2022-07-29T09:40:41Z</time>
      </trkpt>
      <trkpt lat="42.53738" lon="-0.35966">
        <time>2022-07-29T09:40:42Z</time>
      </trkpt>
      <trkpt lat="42.53747" lon="-0.35952">
        <time>2022-07-29T09:40:43Z</time>
      </trkpt>
      <trkpt lat="42.53757" lon="-0.35937">
        <time>2022-07-29T09:40:44Z</time>
      </trkpt>
      <trkpt lat="42.53767" lon="-0.35923">
        <time>2022-07-29T09:40:45Z</time>
      </trkpt>
      <trkpt lat="42.53778" lon="-0.35907">
        <time>2022-07-29T09:40:46Z</time>
      </trkpt>
      <trkpt lat="42.53788" lon="-0.35891">
        <time>2022-07-29T09:40:47Z</time>
      </trkpt>
      <trkpt lat="42.538" lon="-0.35875">
        <time>2022-07-29T09:40:48Z</time>
      </trkpt>
      <trkpt lat="42.53811" lon="-0.35858">
        <time>2022-07-29T09:40:49Z</time>
      </trkpt>
      <trkpt lat="42.53822" lon="-0.3584">
        <time>2022-07-29T09:40:50Z</time>
      </trkpt>
      <trkpt lat="42.53834" lon="-0.35824">
        <time>2022-07-29T09:40:51Z</time>
      </trkpt>
      <trkpt lat="42.53846" lon="-0.35807">
        <time>2022-07-29T09:40:52Z</time>
      </trkpt>
      <trkpt lat="42.53858" lon="-0.35789">
        <time>2022-07-29T09:40:53Z</time>
      </trkpt>
      <trkpt lat="42.5387" lon="-0.35772">
        <time>2022-07-29T09:40:54Z</time>
      </trkpt>
      <trkpt lat="42.53882" lon="-0.35754">
        <time>2022-07-29T09:40:55Z</time>
      </trkpt>
      <trkpt lat="42.53893" lon="-0.35737">
        <time>2022-07-29T09:40:56Z</time>
      </trkpt>
      <trkpt lat="42.53905" lon="-0.35719">
        <time>2022-07-29T09:40:57Z</time>
      </trkpt>
      <trkpt lat="42.53919" lon="-0.357">
        <time>2022-07-29T09:40:58Z</time>
      </trkpt>
      <trkpt lat="42.53931" lon="-0.35682">
        <time>2022-07-29T09:40:59Z</time>
      </trkpt>
      <trkpt lat="42.53944" lon="-0.35663">
        <time>2022-07-29T09:41:00Z</time>
      </trkpt>
      <trkpt lat="42.53957" lon="-0.35645">
        <time>2022-07-29T09:41:01Z</time>
      </trkpt>
      <trkpt lat="42.5397" lon="-0.35625">
        <time>2022-07-29T09:41:02Z</time>
      </trkpt>
      <trkpt lat="42.53983" lon="-0.35606">
        <time>2022-07-29T09:41:03Z</time>
      </trkpt>
      <trkpt lat="42.53997" lon="-0.35586">
        <time>2022-07-29T09:41:04Z</time>
      </trkpt>
      <trkpt lat="42.5401" lon="-0.35567">
        <time>2022-07-29T09:41:05Z</time>
      </trkpt>
      <trkpt lat="42.54024" lon="-0.35546">
        <time>2022-07-29T09:41:06Z</time>
      </trkpt>
      <trkpt lat="42.54037" lon="-0.35524">
        <time>2022-07-29T09:41:07Z</time>
      </trkpt>
      <trkpt lat="42.54052" lon="-0.35503">
        <time>2022-07-29T09:41:08Z</time>
      </trkpt>
      <trkpt lat="42.54065" lon="-0.35482">
        <time>2022-07-29T09:41:09Z</time>
      </trkpt>
      <trkpt lat="42.5408" lon="-0.3546">
        <time>2022-07-29T09:41:10Z</time>
      </trkpt>
      <trkpt lat="42.54095" lon="-0.35438">
        <time>2022-07-29T09:41:11Z</time>
      </trkpt>
      <trkpt lat="42.5411" lon="-0.35416">
        <time>2022-07-29T09:41:12Z</time>
      </trkpt>
      <trkpt lat="42.54125" lon="-0.35394">
        <time>2022-07-29T09:41:13Z</time>
      </trkpt>
      <trkpt lat="42.54141" lon="-0.35372">
        <time>2022-07-29T09:41:14Z</time>
      </trkpt>
      <trkpt lat="42.54158" lon="-0.35351">
        <time>2022-07-29T09:41:15Z</time>
      </trkpt>
      <trkpt lat="42.54176" lon="-0.35332">
        <time>2022-07-29T09:41:16Z</time>
      </trkpt>
      <trkpt lat="42.54195" lon="-0.35316">
        <time>2022-07-29T09:41:17Z</time>
      </trkpt>
      <trkpt lat="42.54215" lon="-0.35301">
        <time>2022-07-29T09:41:18Z</time>
      </trkpt>
      <trkpt lat="42.54235" lon="-0.35288">
        <time>2022-07-29T09:41:19Z</time>
      </trkpt>
      <trkpt lat="42.54256" lon="-0.35276">
        <time>2022-07-29T09:41:20Z</time>
      </trkpt>
      <trkpt lat="42.54277" lon="-0.35264">
        <time>2022-07-29T09:41:21Z</time>
      </trkpt>
      <trkpt lat="42.54297" lon="-0.35252">
        <time>2022-07-29T09:41:22Z</time>
      </trkpt>
      <trkpt lat="42.54318" lon="-0.3524">
        <time>2022-07-29T09:41:23Z</time>
      </trkpt>
      <trkpt lat="42.54337" lon="-0.35229">
        <time>2022-07-29T09:41:24Z</time>
      </trkpt>
      <trkpt lat="42.54357" lon="-0.35217">
        <time>2022-07-29T09:41:25Z</time>
      </trkpt>
      <trkpt lat="42.54377" lon="-0.35205">
        <time>2022-07-29T09:41:26Z</time>
      </trkpt>
      <trkpt lat="42.54397" lon="-0.35194">
        <time>2022-07-29T09:41:27Z</time>
      </trkpt>
      <trkpt lat="42.54417" lon="-0.35182">
        <time>2022-07-29T09:41:28Z</time>
      </trkpt>
      <trkpt lat="42.54437" lon="-0.35171">
        <time>2022-07-29T09:41:29Z</time>
      </trkpt>
      <trkpt lat="42.54457" lon="-0.35159">
        <time>2022-07-29T09:41:30Z</time>
      </trkpt>
      <trkpt lat="42.54476" lon="-0.35146">
        <time>2022-07-29T09:41:31Z</time>
      </trkpt>
      <trkpt lat="42.54495" lon="-0.35133">
        <time>2022-07-29T09:41:32Z</time>
      </trkpt>
      <trkpt lat="42.54513" lon="-0.35118">
        <time>2022-07-29T09:41:33Z</time>
      </trkpt>
      <trkpt lat="42.54531" lon="-0.35102">
        <time>2022-07-29T09:41:34Z</time>
      </trkpt>
      <trkpt lat="42.54549" lon="-0.35085">
        <time>2022-07-29T09:41:35Z</time>
      </trkpt>
      <trkpt lat="42.54566" lon="-0.35067">
        <time>2022-07-29T09:41:36Z</time>
      </trkpt>
      <trkpt lat="42.54583" lon="-0.35049">
        <time>2022-07-29T09:41:37Z</time>
      </trkpt>
      <trkpt lat="42.54599" lon="-0.3503">
        <time>2022-07-29T09:41:38Z</time>
      </trkpt>
      <trkpt lat="42.54615" lon="-0.35011">
        <time>2022-07-29T09:41:39Z</time>
      </trkpt>
      <trkpt lat="42.54631" lon="-0.34993">
        <time>2022-07-29T09:41:40Z</time>
      </trkpt>
      <trkpt lat="42.54647" lon="-0.34976">
        <time>2022-07-29T09:41:41Z</time>
      </trkpt>
      <trkpt lat="42.54662" lon="-0.34959">
        <time>2022-07-29T09:41:42Z</time>
      </trkpt>
      <trkpt lat="42.54677" lon="-0.34941">
        <time>2022-07-29T09:41:43Z</time>
      </trkpt>
      <trkpt lat="42.54691" lon="-0.34924">
        <time>2022-07-29T09:41:44Z</time>
      </trkpt>
      <trkpt lat="42.54705" lon="-0.34907">
        <time>2022-07-29T09:41:45Z</time>
      </trkpt>
      <trkpt lat="42.54719" lon="-0.3489">
        <time>2022-07-29T09:41:46Z</time>
      </trkpt>
      <trkpt lat="42.54733" lon="-0.34874">
        <time>2022-07-29T09:41:47Z</time>
      </trkpt>
      <trkpt lat="42.54747" lon="-0.34857">
        <time>2022-07-29T09:41:48Z</time>
      </trkpt>
      <trkpt lat="42.54761" lon="-0.34841">
        <time>2022-07-29T09:41:49Z</time>
      </trkpt>
      <trkpt lat="42.54776" lon="-0.34825">
        <time>2022-07-29T09:41:50Z</time>
      </trkpt>
      <trkpt lat="42.5479" lon="-0.34808">
        <time>2022-07-29T09:41:51Z</time>
      </trkpt>
      <trkpt lat="42.54806" lon="-0.34791">
        <time>2022-07-29T09:41:52Z</time>
      </trkpt>
      <trkpt lat="42.54821" lon="-0.34774">
        <time>2022-07-29T09:41:53Z</time>
      </trkpt>
      <trkpt lat="42.54836" lon="-0.34757">
        <time>2022-07-29T09:41:54Z</time>
      </trkpt>
      <trkpt lat="42.54852" lon="-0.34739">
        <time>2022-07-29T09:41:55Z</time>
      </trkpt>
      <trkpt lat="42.54867" lon="-0.34721">
        <time>2022-07-29T09:41:56Z</time>
      </trkpt>
      <trkpt lat="42.54882" lon="-0.34703">
        <time>2022-07-29T09:41:57Z</time>
      </trkpt>
      <trkpt lat="42.54897" lon="-0.34685">
        <time>2022-07-29T09:41:58Z</time>
      </trkpt>
      <trkpt lat="42.54912" lon="-0.34666">
        <time>2022-07-29T09:41:59Z</time>
      </trkpt>
      <trkpt lat="42.54928" lon="-0.34649">
        <time>2022-07-29T09:42:00Z</time>
      </trkpt>
      <trkpt lat="42.54943" lon="-0.34631">
        <time>2022-07-29T09:42:01Z</time>
      </trkpt>
      <trkpt lat="42.54957" lon="-0.34612">
        <time>2022-07-29T09:42:02Z</time>
      </trkpt>
      <trkpt lat="42.54972" lon="-0.34594">
        <time>2022-07-29T09:42:03Z</time>
      </trkpt>
      <trkpt lat="42.54988" lon="-0.34575">
        <time>2022-07-29T09:42:04Z</time>
      </trkpt>
      <trkpt lat="42.55003" lon="-0.34556">
        <time>2022-07-29T09:42:05Z</time>
      </trkpt>
      <trkpt lat="42.55019" lon="-0.34536">
        <time>2022-07-29T09:42:06Z</time>
      </trkpt>
      <trkpt lat="42.55035" lon="-0.34517">
        <time>2022-07-29T09:42:07Z</time>
      </trkpt>
      <trkpt lat="42.5505" lon="-0.34498">
        <time>2022-07-29T09:42:08Z</time>
      </trkpt>
      <trkpt lat="42.55066" lon="-0.34479">
        <time>2022-07-29T09:42:09Z</time>
      </trkpt>
      <trkpt lat="42.55082" lon="-0.3446">
        <time>2022-07-29T09:42:10Z</time>
      </trkpt>
      <trkpt lat="42.55098" lon="-0.34441">
        <time>2022-07-29T09:42:11Z</time>
      </trkpt>
      <trkpt lat="42.55113" lon="-0.34421">
        <time>2022-07-29T09:42:12Z</time>
      </trkpt>
      <trkpt lat="42.55128" lon="-0.34402">
        <time>2022-07-29T09:42:13Z</time>
      </trkpt>
      <trkpt lat="42.55143" lon="-0.34384">
        <time>2022-07-29T09:42:14Z</time>
      </trkpt>
      <trkpt lat="42.55158" lon="-0.34365">
        <time>2022-07-29T09:42:15Z</time>
      </trkpt>
      <trkpt lat="42.55174" lon="-0.34347">
        <time>2022-07-29T09:42:16Z</time>
      </trkpt>
      <trkpt lat="42.55189" lon="-0.34328">
        <time>2022-07-29T09:42:17Z</time>
      </trkpt>
      <trkpt lat="42.55204" lon="-0.34309">
        <time>2022-07-29T09:42:18Z</time>
      </trkpt>
      <trkpt lat="42.5522" lon="-0.3429">
        <time>2022-07-29T09:42:19Z</time>
      </trkpt>
      <trkpt lat="42.55236" lon="-0.3427">
        <time>2022-07-29T09:42:20Z</time>
      </trkpt>
      <trkpt lat="42.55252" lon="-0.3425">
        <time>2022-07-29T09:42:21Z</time>
      </trkpt>
      <trkpt lat="42.55268" lon="-0.34231">
        <time>2022-07-29T09:42:22Z</time>
      </trkpt>
      <trkpt lat="42.55284" lon="-0.34211">
        <time>2022-07-29T09:42:23Z</time>
      </trkpt>
      <trkpt lat="42.55301" lon="-0.3419">
        <time>2022-07-29T09:42:24Z</time>
      </trkpt>
      <trkpt lat="42.55317" lon="-0.3417">
        <time>2022-07-29T09:42:25Z</time>
      </trkpt>
      <trkpt lat="42.55334" lon="-0.3415">
        <time>2022-07-29T09:42:26Z</time>
      </trkpt>
      <trkpt lat="42.5535" lon="-0.34129">
        <time>2022-07-29T09:42:27Z</time>
      </trkpt>
      <trkpt lat="42.55366" lon="-0.34109">
        <time>2022-07-29T09:42:28Z</time>
      </trkpt>
      <trkpt lat="42.55383" lon="-0.34089">
        <time>2022-07-29T09:42:29Z</time>
      </trkpt>
      <trkpt lat="42.55398" lon="-0.34068">
        <time>2022-07-29T09:42:30Z</time>
      </trkpt>
      <trkpt lat="42.55415" lon="-0.34049">
        <time>2022-07-29T09:42:31Z</time>
      </trkpt>
      <trkpt lat="42.55432" lon="-0.34029">
        <time>2022-07-29T09:42:32Z</time>
      </trkpt>
      <trkpt lat="42.55449" lon="-0.34008">
        <time>2022-07-29T09:42:33Z</time>
      </trkpt>
      <trkpt lat="42.55465" lon="-0.33988">
        <time>2022-07-29T09:42:34Z</time>
      </trkpt>
      <trkpt lat="42.55482" lon="-0.33967">
        <time>2022-07-29T09:42:35Z</time>
      </trkpt>
      <trkpt lat="42.55499" lon="-0.33947">
        <time>2022-07-29T09:42:36Z</time>
      </trkpt>
      <trkpt lat="42.55515" lon="-0.33926">
        <time>2022-07-29T09:42:37Z</time>
      </trkpt>
      <trkpt lat="42.55532" lon="-0.33905">
        <time>2022-07-29T09:42:38Z</time>
      </trkpt>
      <trkpt lat="42.55549" lon="-0.33884">
        <time>2022-07-29T09:42:39Z</time>
      </trkpt>
      <trkpt lat="42.55566" lon="-0.33864">
        <time>2022-07-29T09:42:40Z</time>
      </trkpt>
      <trkpt lat="42.55583" lon="-0.33843">
        <time>2022-07-29T09:42:41Z</time>
      </trkpt>
      <trkpt lat="42.556" lon="-0.33823">
        <time>2022-07-29T09:42:42Z</time>
      </trkpt>
      <trkpt lat="42.55616" lon="-0.33803">
        <time>2022-07-29T09:42:43Z</time>
      </trkpt>
      <trkpt lat="42.55632" lon="-0.33783">
        <time>2022-07-29T09:42:44Z</time>
      </trkpt>
      <trkpt lat="42.55648" lon="-0.33763">
        <time>2022-07-29T09:42:45Z</time>
      </trkpt>
      <trkpt lat="42.55664" lon="-0.33743">
        <time>2022-07-29T09:42:46Z</time>
      </trkpt>
      <trkpt lat="42.5568" lon="-0.33723">
        <time>2022-07-29T09:42:47Z</time>
      </trkpt>
      <trkpt lat="42.55696" lon="-0.33703">
        <time>2022-07-29T09:42:48Z</time>
      </trkpt>
      <trkpt lat="42.55712" lon="-0.33683">
        <time>2022-07-29T09:42:49Z</time>
      </trkpt>
      <trkpt lat="42.55728" lon="-0.33663">
        <time>2022-07-29T09:42:50Z</time>
      </trkpt>
      <trkpt lat="42.55745" lon="-0.33643">
        <time>2022-07-29T09:42:51Z</time>
      </trkpt>
      <trkpt lat="42.55762" lon="-0.33622">
        <time>2022-07-29T09:42:52Z</time>
      </trkpt>
      <trkpt lat="42.55779" lon="-0.33602">
        <time>2022-07-29T09:42:53Z</time>
      </trkpt>
      <trkpt lat="42.55796" lon="-0.33581">
        <time>2022-07-29T09:42:54Z</time>
      </trkpt>
      <trkpt lat="42.55813" lon="-0.3356">
        <time>2022-07-29T09:42:55Z</time>
      </trkpt>
      <trkpt lat="42.55831" lon="-0.33538">
        <time>2022-07-29T09:42:56Z</time>
      </trkpt>
      <trkpt lat="42.55847" lon="-0.33518">
        <time>2022-07-29T09:42:57Z</time>
      </trkpt>
      <trkpt lat="42.55864" lon="-0.33497">
        <time>2022-07-29T09:42:58Z</time>
      </trkpt>
      <trkpt lat="42.55881" lon="-0.33476">
        <time>2022-07-29T09:42:59Z</time>
      </trkpt>
      <trkpt lat="42.55898" lon="-0.33456">
        <time>2022-07-29T09:43:00Z</time>
      </trkpt>
      <trkpt lat="42.55914" lon="-0.33436">
        <time>2022-07-29T09:43:01Z</time>
      </trkpt>
      <trkpt lat="42.55931" lon="-0.33415">
        <time>2022-07-29T09:43:02Z</time>
      </trkpt>
      <trkpt lat="42.55948" lon="-0.33395">
        <time>2022-07-29T09:43:03Z</time>
      </trkpt>
      <trkpt lat="42.55964" lon="-0.33374">
        <time>2022-07-29T09:43:04Z</time>
      </trkpt>
      <trkpt lat="42.55981" lon="-0.33353">
        <time>2022-07-29T09:43:05Z</time>
      </trkpt>
      <trkpt lat="42.55998" lon="-0.33333">
        <time>2022-07-29T09:43:06Z</time>
      </trkpt>
      <trkpt lat="42.56015" lon="-0.33313">
        <time>2022-07-29T09:43:07Z</time>
      </trkpt>
      <trkpt lat="42.56032" lon="-0.33292">
        <time>2022-07-29T09:43:08Z</time>
      </trkpt>
      <trkpt lat="42.56048" lon="-0.33271">
        <time>2022-07-29T09:43:09Z</time>
      </trkpt>
      <trkpt lat="42.56065" lon="-0.33249">
        <time>2022-07-29T09:43:10Z</time>
      </trkpt>
      <trkpt lat="42.56082" lon="-0.33228">
        <time>2022-07-29T09:43:11Z</time>
      </trkpt>
      <trkpt lat="42.56099" lon="-0.33207">
        <time>2022-07-29T09:43:12Z</time>
      </trkpt>
      <trkpt lat="42.56116" lon="-0.33187">
        <time>2022-07-29T09:43:13Z</time>
      </trkpt>
      <trkpt lat="42.56132" lon="-0.33166">
        <time>2022-07-29T09:43:14Z</time>
      </trkpt>
      <trkpt lat="42.56149" lon="-0.33145">
        <time>2022-07-29T09:43:15Z</time>
      </trkpt>
      <trkpt lat="42.56166" lon="-0.33125">
        <time>2022-07-29T09:43:16Z</time>
      </trkpt>
      <trkpt lat="42.56183" lon="-0.33104">
        <time>2022-07-29T09:43:17Z</time>
      </trkpt>
      <trkpt lat="42.56199" lon="-0.33084">
        <time>2022-07-29T09:43:18Z</time>
      </trkpt>
      <trkpt lat="42.56216" lon="-0.33065">
        <time>2022-07-29T09:43:19Z</time>
      </trkpt>
      <trkpt lat="42.56233" lon="-0.33047">
        <time>2022-07-29T09:43:20Z</time>
      </trkpt>
      <trkpt lat="42.56249" lon="-0.33029">
        <time>2022-07-29T09:43:21Z</time>
      </trkpt>
      <trkpt lat="42.56266" lon="-0.33013">
        <time>2022-07-29T09:43:22Z</time>
      </trkpt>
      <trkpt lat="42.56284" lon="-0.32998">
        <time>2022-07-29T09:43:23Z</time>
      </trkpt>
      <trkpt lat="42.56302" lon="-0.32984">
        <time>2022-07-29T09:43:24Z</time>
      </trkpt>
      <trkpt lat="42.56321" lon="-0.32972">
        <time>2022-07-29T09:43:25Z</time>
      </trkpt>
      <trkpt lat="42.56339" lon="-0.32959">
        <time>2022-07-29T09:43:26Z</time>
      </trkpt>
      <trkpt lat="42.56357" lon="-0.32948">
        <time>2022-07-29T09:43:27Z</time>
      </trkpt>
      <trkpt lat="42.56376" lon="-0.32936">
        <time>2022-07-29T09:43:28Z</time>
      </trkpt>
      <trkpt lat="42.56395" lon="-0.32924">
        <time>2022-07-29T09:43:29Z</time>
      </trkpt>
      <trkpt lat="42.56414" lon="-0.32912">
        <time>2022-07-29T09:43:30Z</time>
      </trkpt>
      <trkpt lat="42.56432" lon="-0.329">
        <time>2022-07-29T09:43:31Z</time>
      </trkpt>
      <trkpt lat="42.56451" lon="-0.32888">
        <time>2022-07-29T09:43:32Z</time>
      </trkpt>
      <trkpt lat="42.5647" lon="-0.32876">
        <time>2022-07-29T09:43:33Z</time>
      </trkpt>
      <trkpt lat="42.56489" lon="-0.32863">
        <time>2022-07-29T09:43:34Z</time>
      </trkpt>
      <trkpt lat="42.56507" lon="-0.32851">
        <time>2022-07-29T09:43:35Z</time>
      </trkpt>
      <trkpt lat="42.56526" lon="-0.32839">
        <time>2022-07-29T09:43:36Z</time>
      </trkpt>
      <trkpt lat="42.56545" lon="-0.32826">
        <time>2022-07-29T09:43:37Z</time>
      </trkpt>
      <trkpt lat="42.56565" lon="-0.32814">
        <time>2022-07-29T09:43:38Z</time>
      </trkpt>
      <trkpt lat="42.56584" lon="-0.32802">
        <time>2022-07-29T09:43:39Z</time>
      </trkpt>
      <trkpt lat="42.56604" lon="-0.32789">
        <time>2022-07-29T09:43:40Z</time>
      </trkpt>
      <trkpt lat="42.56623" lon="-0.32777">
        <time>2022-07-29T09:43:41Z</time>
      </trkpt>
      <trkpt lat="42.56643" lon="-0.32765">
        <time>2022-07-29T09:43:42Z</time>
      </trkpt>
      <trkpt lat="42.56663" lon="-0.32752">
        <time>2022-07-29T09:43:43Z</time>
      </trkpt>
      <trkpt lat="42.56682" lon="-0.32739">
        <time>2022-07-29T09:43:44Z</time>
      </trkpt>
      <trkpt lat="42.56702" lon="-0.32726">
        <time>2022-07-29T09:43:45Z</time>
      </trkpt>
      <trkpt lat="42.56722" lon="-0.32713">
        <time>2022-07-29T09:43:46Z</time>
      </trkpt>
      <trkpt lat="42.56742" lon="-0.32701">
        <time>2022-07-29T09:43:47Z</time>
      </trkpt>
      <trkpt lat="42.56761" lon="-0.32687">
        <time>2022-07-29T09:43:48Z</time>
      </trkpt>
      <trkpt lat="42.56781" lon="-0.32674">
        <time>2022-07-29T09:43:49Z</time>
      </trkpt>
      <trkpt lat="42.568" lon="-0.32661">
        <time>2022-07-29T09:43:50Z</time>
      </trkpt>
      <trkpt lat="42.5682" lon="-0.32648">
        <time>2022-07-29T09:43:51Z</time>
      </trkpt>
      <trkpt lat="42.5684" lon="-0.32635">
        <time>2022-07-29T09:43:52Z</time>
      </trkpt>
      <trkpt lat="42.5686" lon="-0.32623">
        <time>2022-07-29T09:43:53Z</time>
      </trkpt>
      <trkpt lat="42.5688" lon="-0.32611">
        <time>2022-07-29T09:43:54Z</time>
      </trkpt>
      <trkpt lat="42.569" lon="-0.32599">
        <time>2022-07-29T09:43:55Z</time>
      </trkpt>
      <trkpt lat="42.56921" lon="-0.32587">
        <time>2022-07-29T09:43:56Z</time>
      </trkpt>
      <trkpt lat="42.56942" lon="-0.32577">
        <time>2022-07-29T09:43:57Z</time>
      </trkpt>
      <trkpt lat="42.56964" lon="-0.32567">
        <time>2022-07-29T09:43:58Z</time>
      </trkpt>
      <trkpt lat="42.56985" lon="-0.32559">
        <time>2022-07-29T09:43:59Z</time>
      </trkpt>
      <trkpt lat="42.57007" lon="-0.32551">
        <time>2022-07-29T09:44:00Z</time>
      </trkpt>
      <trkpt lat="42.5703" lon="-0.32543">
        <time>2022-07-29T09:44:01Z</time>
      </trkpt>
      <trkpt lat="42.57052" lon="-0.32538">
        <time>2022-07-29T09:44:02Z</time>
      </trkpt>
      <trkpt lat="42.57074" lon="-0.32532">
        <time>2022-07-29T09:44:03Z</time>
      </trkpt>
      <trkpt lat="42.57095" lon="-0.32528">
        <time>2022-07-29T09:44:04Z</time>
      </trkpt>
      <trkpt lat="42.57116" lon="-0.32524">
        <time>2022-07-29T09:44:05Z</time>
      </trkpt>
      <trkpt lat="42.57136" lon="-0.32521">
        <time>2022-07-29T09:44:06Z</time>
      </trkpt>
      <trkpt lat="42.57156" lon="-0.32518">
        <time>2022-07-29T09:44:07Z</time>
      </trkpt>
      <trkpt lat="42.57175" lon="-0.32516">
        <time>2022-07-29T09:44:08Z</time>
      </trkpt>
      <trkpt lat="42.57193" lon="-0.32513">
        <time>2022-07-29T09:44:09Z</time>
      </trkpt>
      <trkpt lat="42.57211" lon="-0.32509">
        <time>2022-07-29T09:44:10Z</time>
      </trkpt>
      <trkpt lat="42.57229" lon="-0.32506">
        <time>2022-07-29T09:44:11Z</time>
      </trkpt>
      <trkpt lat="42.57247" lon="-0.32502">
        <time>2022-07-29T09:44:12Z</time>
      </trkpt>
      <trkpt lat="42.57265" lon="-0.32497">
        <time>2022-07-29T09:44:13Z</time>
      </trkpt>
      <trkpt lat="42.57283" lon="-0.32492">
        <time>2022-07-29T09:44:14Z</time>
      </trkpt>
      <trkpt lat="42.57302" lon="-0.32487">
        <time>2022-07-29T09:44:15Z</time>
      </trkpt>
      <trkpt lat="42.57321" lon="-0.32481">
        <time>2022-07-29T09:44:16Z</time>
      </trkpt>
      <trkpt lat="42.5734" lon="-0.32476">
        <time>2022-07-29T09:44:17Z</time>
      </trkpt>
      <trkpt lat="42.57359" lon="-0.32469">
        <time>2022-07-29T09:44:18Z</time>
      </trkpt>
      <trkpt lat="42.57379" lon="-0.32463">
        <time>2022-07-29T09:44:19Z</time>
      </trkpt>
      <trkpt lat="42.57399" lon="-0.32456">
        <time>2022-07-29T09:44:20Z</time>
      </trkpt>
      <trkpt lat="42.5742" lon="-0.32448">
        <time>2022-07-29T09:44:21Z</time>
      </trkpt>
      <trkpt lat="42.5744" lon="-0.32441">
        <time>2022-07-29T09:44:22Z</time>
      </trkpt>
      <trkpt lat="42.57461" lon="-0.32434">
        <time>2022-07-29T09:44:23Z</time>
      </trkpt>
      <trkpt lat="42.57482" lon="-0.32428">
        <time>2022-07-29T09:44:24Z</time>
      </trkpt>
      <trkpt lat="42.57502" lon="-0.32424">
        <time>2022-07-29T09:44:25Z</time>
      </trkpt>
      <trkpt lat="42.57522" lon="-0.3242">
        <time>2022-07-29T09:44:26Z</time>
      </trkpt>
      <trkpt lat="42.57542" lon="-0.32417">
        <time>2022-07-29T09:44:27Z</time>
      </trkpt>
      <trkpt lat="42.57561" lon="-0.32415">
        <time>2022-07-29T09:44:28Z</time>
      </trkpt>
      <trkpt lat="42.57581" lon="-0.32414">
        <time>2022-07-29T09:44:29Z</time>
      </trkpt>
      <trkpt lat="42.57601" lon="-0.32413">
        <time>2022-07-29T09:44:30Z</time>
      </trkpt>
      <trkpt lat="42.5762" lon="-0.32414">
        <time>2022-07-29T09:44:31Z</time>
      </trkpt>
      <trkpt lat="42.5764" lon="-0.32415">
        <time>2022-07-29T09:44:32Z</time>
      </trkpt>
      <trkpt lat="42.57659" lon="-0.32417">
        <time>2022-07-29T09:44:33Z</time>
      </trkpt>
      <trkpt lat="42.57679" lon="-0.32419">
        <time>2022-07-29T09:44:34Z</time>
      </trkpt>
      <trkpt lat="42.57698" lon="-0.32422">
        <time>2022-07-29T09:44:35Z</time>
      </trkpt>
      <trkpt lat="42.57718" lon="-0.32427">
        <time>2022-07-29T09:44:36Z</time>
      </trkpt>
      <trkpt lat="42.57737" lon="-0.32432">
        <time>2022-07-29T09:44:37Z</time>
      </trkpt>
      <trkpt lat="42.57757" lon="-0.32438">
        <time>2022-07-29T09:44:38Z</time>
      </trkpt>
      <trkpt lat="42.57776" lon="-0.32445">
        <time>2022-07-29T09:44:39Z</time>
      </trkpt>
      <trkpt lat="42.57796" lon="-0.32453">
        <time>2022-07-29T09:44:40Z</time>
      </trkpt>
      <trkpt lat="42.57816" lon="-0.32461">
        <time>2022-07-29T09:44:41Z</time>
      </trkpt>
      <trkpt lat="42.57835" lon="-0.32471">
        <time>2022-07-29T09:44:42Z</time>
      </trkpt>
      <trkpt lat="42.57855" lon="-0.32482">
        <time>2022-07-29T09:44:43Z</time>
      </trkpt>
      <trkpt lat="42.57874" lon="-0.32493">
        <time>2022-07-29T09:44:44Z</time>
      </trkpt>
      <trkpt lat="42.57894" lon="-0.32504">
        <time>2022-07-29T09:44:45Z</time>
      </trkpt>
      <trkpt lat="42.57913" lon="-0.32516">
        <time>2022-07-29T09:44:46Z</time>
      </trkpt>
      <trkpt lat="42.57932" lon="-0.32528">
        <time>2022-07-29T09:44:47Z</time>
      </trkpt>
      <trkpt lat="42.57951" lon="-0.32541">
        <time>2022-07-29T09:44:48Z</time>
      </trkpt>
      <trkpt lat="42.5797" lon="-0.32553">
        <time>2022-07-29T09:44:49Z</time>
      </trkpt>
      <trkpt lat="42.57989" lon="-0.32564">
        <time>2022-07-29T09:44:50Z</time>
      </trkpt>
      <trkpt lat="42.58008" lon="-0.32577">
        <time>2022-07-29T09:44:51Z</time>
      </trkpt>
      <trkpt lat="42.58027" lon="-0.32588">
        <time>2022-07-29T09:44:52Z</time>
      </trkpt>
      <trkpt lat="42.58046" lon="-0.326">
        <time>2022-07-29T09:44:53Z</time>
      </trkpt>
      <trkpt lat="42.58065" lon="-0.32612">
        <time>2022-07-29T09:44:54Z</time>
      </trkpt>
      <trkpt lat="42.58083" lon="-0.32624">
        <time>2022-07-29T09:44:55Z</time>
      </trkpt>
      <trkpt lat="42.58102" lon="-0.32636">
        <time>2022-07-29T09:44:56Z</time>
      </trkpt>
      <trkpt lat="42.58121" lon="-0.32648">
        <time>2022-07-29T09:44:57Z</time>
      </trkpt>
      <trkpt lat="42.5814" lon="-0.3266">
        <time>2022-07-29T09:44:58Z</time>
      </trkpt>
      <trkpt lat="42.58159" lon="-0.3267">
        <time>2022-07-29T09:44:59Z</time>
      </trkpt>
      <trkpt lat="42.58178" lon="-0.3268">
        <time>2022-07-29T09:45:00Z</time>
      </trkpt>
      <trkpt lat="42.58199" lon="-0.32689">
        <time>2022-07-29T09:45:01Z</time>
      </trkpt>
      <trkpt lat="42.58219" lon="-0.32697">
        <time>2022-07-29T09:45:02Z</time>
      </trkpt>
      <trkpt lat="42.5824" lon="-0.32703">
        <time>2022-07-29T09:45:03Z</time>
      </trkpt>
      <trkpt lat="42.58262" lon="-0.32709">
        <time>2022-07-29T09:45:04Z</time>
      </trkpt>
      <trkpt lat="42.58284" lon="-0.32713">
        <time>2022-07-29T09:45:05Z</time>
      </trkpt>
      <trkpt lat="42.58306" lon="-0.32716">
        <time>2022-07-29T09:45:06Z</time>
      </trkpt>
      <trkpt lat="42.58329" lon="-0.32717">
        <time>2022-07-29T09:45:07Z</time>
      </trkpt>
      <trkpt lat="42.58352" lon="-0.32717">
        <time>2022-07-29T09:45:08Z</time>
      </trkpt>
      <trkpt lat="42.58374" lon="-0.32717">
        <time>2022-07-29T09:45:09Z</time>
      </trkpt>
      <trkpt lat="42.58397" lon="-0.32716">
        <time>2022-07-29T09:45:10Z</time>
      </trkpt>
      <trkpt lat="42.5842" lon="-0.32715">
        <time>2022-07-29T09:45:11Z</time>
      </trkpt>
      <trkpt lat="42.58443" lon="-0.32715">
        <time>2022-07-29T09:45:12Z</time>
      </trkpt>
      <trkpt lat="42.58466" lon="-0.32715">
        <time>2022-07-29T09:45:13Z</time>
      </trkpt>
      <trkpt lat="42.58489" lon="-0.32715">
        <time>2022-07-29T09:45:14Z</time>
      </trkpt>
      <trkpt lat="42.58511" lon="-0.32715">
        <time>2022-07-29T09:45:15Z</time>
      </trkpt>
      <trkpt lat="42.58533" lon="-0.32715">
        <time>2022-07-29T09:45:16Z</time>
      </trkpt>
      <trkpt lat="42.58554" lon="-0.32714">
        <time>2022-07-29T09:45:17Z</time>
      </trkpt>
      <trkpt lat="42.58575" lon="-0.32714">
        <time>2022-07-29T09:45:18Z</time>
      </trkpt>
      <trkpt lat="42.58596" lon="-0.32714">
        <time>2022-07-29T09:45:19Z</time>
      </trkpt>
      <trkpt lat="42.58617" lon="-0.32713">
        <time>2022-07-29T09:45:20Z</time>
      </trkpt>
      <trkpt lat="42.58638" lon="-0.32713">
        <time>2022-07-29T09:45:21Z</time>
      </trkpt>
      <trkpt lat="42.58659" lon="-0.32712">
        <time>2022-07-29T09:45:22Z</time>
      </trkpt>
      <trkpt lat="42.5868" lon="-0.32712">
        <time>2022-07-29T09:45:23Z</time>
      </trkpt>
      <trkpt lat="42.58701" lon="-0.32711">
        <time>2022-07-29T09:45:24Z</time>
      </trkpt>
      <trkpt lat="42.58722" lon="-0.32711">
        <time>2022-07-29T09:45:25Z</time>
      </trkpt>
      <trkpt lat="42.58744" lon="-0.32711">
        <time>2022-07-29T09:45:26Z</time>
      </trkpt>
      <trkpt lat="42.58766" lon="-0.32711">
        <time>2022-07-29T09:45:27Z</time>
      </trkpt>
      <trkpt lat="42.58788" lon="-0.32711">
        <time>2022-07-29T09:45:28Z</time>
      </trkpt>
      <trkpt lat="42.58811" lon="-0.3271">
        <time>2022-07-29T09:45:29Z</time>
      </trkpt>
      <trkpt lat="42.58834" lon="-0.3271">
        <time>2022-07-29T09:45:30Z</time>
      </trkpt>
      <trkpt lat="42.58857" lon="-0.32709">
        <time>2022-07-29T09:45:31Z</time>
      </trkpt>
      <trkpt lat="42.5888" lon="-0.32709">
        <time>2022-07-29T09:45:32Z</time>
      </trkpt>
      <trkpt lat="42.58903" lon="-0.32709">
        <time>2022-07-29T09:45:33Z</time>
      </trkpt>
      <trkpt lat="42.58926" lon="-0.32708">
        <time>2022-07-29T09:45:34Z</time>
      </trkpt>
      <trkpt lat="42.58949" lon="-0.32708">
        <time>2022-07-29T09:45:35Z</time>
      </trkpt>
      <trkpt lat="42.58971" lon="-0.32708">
        <time>2022-07-29T09:45:36Z</time>
      </trkpt>
      <trkpt lat="42.58993" lon="-0.32707">
        <time>2022-07-29T09:45:37Z</time>
      </trkpt>
      <trkpt lat="42.59015" lon="-0.32707">
        <time>2022-07-29T09:45:38Z</time>
      </trkpt>
      <trkpt lat="42.59037" lon="-0.32707">
        <time>2022-07-29T09:45:39Z</time>
      </trkpt>
      <trkpt lat="42.59059" lon="-0.32707">
        <time>2022-07-29T09:45:40Z</time>
      </trkpt>
      <trkpt lat="42.5908" lon="-0.32706">
        <time>2022-07-29T09:45:41Z</time>
      </trkpt>
      <trkpt lat="42.59101" lon="-0.32705">
        <time>2022-07-29T09:45:42Z</time>
      </trkpt>
      <trkpt lat="42.59122" lon="-0.32705">
        <time>2022-07-29T09:45:43Z</time>
      </trkpt>
      <trkpt lat="42.59142" lon="-0.32704">
        <time>2022-07-29T09:45:44Z</time>
      </trkpt>
      <trkpt lat="42.59162" lon="-0.32703">
        <time>2022-07-29T09:45:45Z</time>
      </trkpt>
      <trkpt lat="42.59181" lon="-0.32703">
        <time>2022-07-29T09:45:46Z</time>
      </trkpt>
      <trkpt lat="42.59199" lon="-0.32702">
        <time>2022-07-29T09:45:47Z</time>
      </trkpt>
      <trkpt lat="42.59217" lon="-0.32701">
        <time>2022-07-29T09:45:48Z</time>
      </trkpt>
      <trkpt lat="42.59236" lon="-0.32701">
        <time>2022-07-29T09:45:49Z</time>
      </trkpt>
      <trkpt lat="42.59255" lon="-0.327">
        <time>2022-07-29T09:45:50Z</time>
      </trkpt>
      <trkpt lat="42.59275" lon="-0.327">
        <time>2022-07-29T09:45:51Z</time>
      </trkpt>
      <trkpt lat="42.59295" lon="-0.32699">
        <time>2022-07-29T09:45:52Z</time>
      </trkpt>
      <trkpt lat="42.59315" lon="-0.32699">
        <time>2022-07-29T09:45:53Z</time>
      </trkpt>
      <trkpt lat="42.59336" lon="-0.32699">
        <time>2022-07-29T09:45:54Z</time>
      </trkpt>
      <trkpt lat="42.59356" lon="-0.32698">
        <time>2022-07-29T09:45:55Z</time>
      </trkpt>
      <trkpt lat="42.59377" lon="-0.32698">
        <time>2022-07-29T09:45:56Z</time>
      </trkpt>
      <trkpt lat="42.59398" lon="-0.32698">
        <time>2022-07-29T09:45:57Z</time>
      </trkpt>
      <trkpt lat="42.59418" lon="-0.32698">
        <time>2022-07-29T09:45:58Z</time>
      </trkpt>
      <trkpt lat="42.59439" lon="-0.32698">
        <time>2022-07-29T09:45:59Z</time>
      </trkpt>
      <trkpt lat="42.5946" lon="-0.32698">
        <time>2022-07-29T09:46:00Z</time>
      </trkpt>
      <trkpt lat="42.59481" lon="-0.32698">
        <time>2022-07-29T09:46:01Z</time>
      </trkpt>
      <trkpt lat="42.59502" lon="-0.32698">
        <time>2022-07-29T09:46:02Z</time>
      </trkpt>
      <trkpt lat="42.59523" lon="-0.32697">
        <time>2022-07-29T09:46:03Z</time>
      </trkpt>
      <trkpt lat="42.59544" lon="-0.32698">
        <time>2022-07-29T09:46:04Z</time>
      </trkpt>
      <trkpt lat="42.59565" lon="-0.32697">
        <time>2022-07-29T09:46:05Z</time>
      </trkpt>
      <trkpt lat="42.59587" lon="-0.32697">
        <time>2022-07-29T09:46:06Z</time>
      </trkpt>
      <trkpt lat="42.59608" lon="-0.32697">
        <time>2022-07-29T09:46:07Z</time>
      </trkpt>
      <trkpt lat="42.59629" lon="-0.32697">
        <time>2022-07-29T09:46:08Z</time>
      </trkpt>
      <trkpt lat="42.5965" lon="-0.32697">
        <time>2022-07-29T09:46:09Z</time>
      </trkpt>
      <trkpt lat="42.59671" lon="-0.32696">
        <time>2022-07-29T09:46:10Z</time>
      </trkpt>
      <trkpt lat="42.59693" lon="-0.32696">
        <time>2022-07-29T09:46:11Z</time>
      </trkpt>
      <trkpt lat="42.59714" lon="-0.32696">
        <time>2022-07-29T09:46:12Z</time>
      </trkpt>
      <trkpt lat="42.59736" lon="-0.32696">
        <time>2022-07-29T09:46:13Z</time>
      </trkpt>
      <trkpt lat="42.59757" lon="-0.32696">
        <time>2022-07-29T09:46:14Z</time>
      </trkpt>
      <trkpt lat="42.5978" lon="-0.32696">
        <time>2022-07-29T09:46:15Z</time>
      </trkpt>
      <trkpt lat="42.59802" lon="-0.32696">
        <time>2022-07-29T09:46:16Z</time>
      </trkpt>
      <trkpt lat="42.59824" lon="-0.32696">
        <time>2022-07-29T09:46:17Z</time>
      </trkpt>
      <trkpt lat="42.59846" lon="-0.32697">
        <time>2022-07-29T09:46:18Z</time>
      </trkpt>
      <trkpt lat="42.59869" lon="-0.32696">
        <time>2022-07-29T09:46:19Z</time>
      </trkpt>
      <trkpt lat="42.59891" lon="-0.32697">
        <time>2022-07-29T09:46:20Z</time>
      </trkpt>
      <trkpt lat="42.59914" lon="-0.32697">
        <time>2022-07-29T09:46:21Z</time>
      </trkpt>
      <trkpt lat="42.59937" lon="-0.32697">
        <time>2022-07-29T09:46:22Z</time>
      </trkpt>
      <trkpt lat="42.5996" lon="-0.327">
        <time>2022-07-29T09:46:23Z</time>
      </trkpt>
      <trkpt lat="42.59982" lon="-0.32705">
        <time>2022-07-29T09:46:24Z</time>
      </trkpt>
      <trkpt lat="42.60004" lon="-0.32712">
        <time>2022-07-29T09:46:25Z</time>
      </trkpt>
      <trkpt lat="42.60025" lon="-0.32719">
        <time>2022-07-29T09:46:26Z</time>
      </trkpt>
      <trkpt lat="42.60046" lon="-0.32726">
        <time>2022-07-29T09:46:27Z</time>
      </trkpt>
      <trkpt lat="42.60067" lon="-0.32733">
        <time>2022-07-29T09:46:28Z</time>
      </trkpt>
      <trkpt lat="42.60087" lon="-0.3274">
        <time>2022-07-29T09:46:29Z</time>
      </trkpt>
      <trkpt lat="42.60108" lon="-0.32747">
        <time>2022-07-29T09:46:30Z</time>
      </trkpt>
      <trkpt lat="42.60129" lon="-0.32754">
        <time>2022-07-29T09:46:31Z</time>
      </trkpt>
      <trkpt lat="42.6015" lon="-0.32761">
        <time>2022-07-29T09:46:32Z</time>
      </trkpt>
      <trkpt lat="42.6017" lon="-0.32768">
        <time>2022-07-29T09:46:33Z</time>
      </trkpt>
      <trkpt lat="42.60191" lon="-0.32775">
        <time>2022-07-29T09:46:34Z</time>
      </trkpt>
      <trkpt lat="42.60211" lon="-0.32782">
        <time>2022-07-29T09:46:35Z</time>
      </trkpt>
      <trkpt lat="42.60231" lon="-0.32789">
        <time>2022-07-29T09:46:36Z</time>
      </trkpt>
      <trkpt lat="42.60252" lon="-0.32796">
        <time>2022-07-29T09:46:37Z</time>
      </trkpt>
      <trkpt lat="42.60273" lon="-0.32803">
        <time>2022-07-29T09:46:38Z</time>
      </trkpt>
      <trkpt lat="42.60294" lon="-0.32808">
        <time>2022-07-29T09:46:39Z</time>
      </trkpt>
      <trkpt lat="42.60316" lon="-0.32813">
        <time>2022-07-29T09:46:40Z</time>
      </trkpt>
      <trkpt lat="42.60337" lon="-0.32815">
        <time>2022-07-29T09:46:41Z</time>
      </trkpt>
      <trkpt lat="42.6036" lon="-0.32815">
        <time>2022-07-29T09:46:42Z</time>
      </trkpt>
      <trkpt lat="42.60383" lon="-0.32815">
        <time>2022-07-29T09:46:43Z</time>
      </trkpt>
      <trkpt lat="42.60406" lon="-0.32814">
        <time>2022-07-29T09:46:44Z</time>
      </trkpt>
      <trkpt lat="42.60429" lon="-0.32813">
        <time>2022-07-29T09:46:45Z</time>
      </trkpt>
      <trkpt lat="42.60453" lon="-0.32812">
        <time>2022-07-29T09:46:46Z</time>
      </trkpt>
      <trkpt lat="42.60477" lon="-0.32811">
        <time>2022-07-29T09:46:47Z</time>
      </trkpt>
      <trkpt lat="42.60501" lon="-0.32809">
        <time>2022-07-29T09:46:48Z</time>
      </trkpt>
      <trkpt lat="42.60524" lon="-0.32808">
        <time>2022-07-29T09:46:49Z</time>
      </trkpt>
      <trkpt lat="42.60548" lon="-0.32807">
        <time>2022-07-29T09:46:50Z</time>
      </trkpt>
      <trkpt lat="42.60571" lon="-0.32806">
        <time>2022-07-29T09:46:51Z</time>
      </trkpt>
      <trkpt lat="42.60595" lon="-0.32805">
        <time>2022-07-29T09:46:52Z</time>
      </trkpt>
      <trkpt lat="42.60618" lon="-0.32803">
        <time>2022-07-29T09:46:53Z</time>
      </trkpt>
      <trkpt lat="42.60641" lon="-0.32802">
        <time>2022-07-29T09:46:54Z</time>
      </trkpt>
      <trkpt lat="42.60665" lon="-0.32801">
        <time>2022-07-29T09:46:55Z</time>
      </trkpt>
      <trkpt lat="42.60688" lon="-0.32801">
        <time>2022-07-29T09:46:56Z</time>
      </trkpt>
      <trkpt lat="42.60712" lon="-0.328">
        <time>2022-07-29T09:46:57Z</time>
      </trkpt>
      <trkpt lat="42.60735" lon="-0.32799">
        <time>2022-07-29T09:46:58Z</time>
      </trkpt>
      <trkpt lat="42.60759" lon="-0.32797">
        <time>2022-07-29T09:46:59Z</time>
      </trkpt>
      <trkpt lat="42.60782" lon="-0.32796">
        <time>2022-07-29T09:47:00Z</time>
      </trkpt>
      <trkpt lat="42.60806" lon="-0.32795">
        <time>2022-07-29T09:47:01Z</time>
      </trkpt>
      <trkpt lat="42.6083" lon="-0.32793">
        <time>2022-07-29T09:47:02Z</time>
      </trkpt>
      <trkpt lat="42.60853" lon="-0.32792">
        <time>2022-07-29T09:47:03Z</time>
      </trkpt>
      <trkpt lat="42.60877" lon="-0.3279">
        <time>2022-07-29T09:47:04Z</time>
      </trkpt>
      <trkpt lat="42.60899" lon="-0.32789">
        <time>2022-07-29T09:47:05Z</time>
      </trkpt>
      <trkpt lat="42.60922" lon="-0.32788">
        <time>2022-07-29T09:47:06Z</time>
      </trkpt>
      <trkpt lat="42.60945" lon="-0.32787">
        <time>2022-07-29T09:47:07Z</time>
      </trkpt>
      <trkpt lat="42.60968" lon="-0.32786">
        <time>2022-07-29T09:47:08Z</time>
      </trkpt>
      <trkpt lat="42.6099" lon="-0.32784">
        <time>2022-07-29T09:47:09Z</time>
      </trkpt>
      <trkpt lat="42.61012" lon="-0.32783">
        <time>2022-07-29T09:47:10Z</time>
      </trkpt>
      <trkpt lat="42.61034" lon="-0.32782">
        <time>2022-07-29T09:47:11Z</time>
      </trkpt>
      <trkpt lat="42.61056" lon="-0.32782">
        <time>2022-07-29T09:47:12Z</time>
      </trkpt>
      <trkpt lat="42.61079" lon="-0.3278">
        <time>2022-07-29T09:47:13Z</time>
      </trkpt>
      <trkpt lat="42.611" lon="-0.32779">
        <time>2022-07-29T09:47:14Z</time>
      </trkpt>
      <trkpt lat="42.61122" lon="-0.32777">
        <time>2022-07-29T09:47:15Z</time>
      </trkpt>
      <trkpt lat="42.61144" lon="-0.32776">
        <time>2022-07-29T09:47:16Z</time>
      </trkpt>
      <trkpt lat="42.61166" lon="-0.32775">
        <time>2022-07-29T09:47:17Z</time>
      </trkpt>
      <trkpt lat="42.61188" lon="-0.32774">
        <time>2022-07-29T09:47:18Z</time>
      </trkpt>
      <trkpt lat="42.61209" lon="-0.32773">
        <time>2022-07-29T09:47:19Z</time>
      </trkpt>
      <trkpt lat="42.61231" lon="-0.32773">
        <time>2022-07-29T09:47:20Z</time>
      </trkpt>
      <trkpt lat="42.61252" lon="-0.32772">
        <time>2022-07-29T09:47:21Z</time>
      </trkpt>
      <trkpt lat="42.61273" lon="-0.32771">
        <time>2022-07-29T09:47:22Z</time>
      </trkpt>
      <trkpt lat="42.61295" lon="-0.3277">
        <time>2022-07-29T09:47:23Z</time>
      </trkpt>
      <trkpt lat="42.61316" lon="-0.3277">
        <time>2022-07-29T09:47:24Z</time>
      </trkpt>
      <trkpt lat="42.61337" lon="-0.32769">
        <time>2022-07-29T09:47:25Z</time>
      </trkpt>
      <trkpt lat="42.61358" lon="-0.32768">
        <time>2022-07-29T09:47:26Z</time>
      </trkpt>
      <trkpt lat="42.61378" lon="-0.32768">
        <time>2022-07-29T09:47:27Z</time>
      </trkpt>
      <trkpt lat="42.61398" lon="-0.32767">
        <time>2022-07-29T09:47:28Z</time>
      </trkpt>
      <trkpt lat="42.61418" lon="-0.32765">
        <time>2022-07-29T09:47:29Z</time>
      </trkpt>
      <trkpt lat="42.61437" lon="-0.32764">
        <time>2022-07-29T09:47:30Z</time>
      </trkpt>
      <trkpt lat="42.61457" lon="-0.32763">
        <time>2022-07-29T09:47:31Z</time>
      </trkpt>
      <trkpt lat="42.61477" lon="-0.32762">
        <time>2022-07-29T09:47:32Z</time>
      </trkpt>
      <trkpt lat="42.61497" lon="-0.32761">
        <time>2022-07-29T09:47:33Z</time>
      </trkpt>
      <trkpt lat="42.61516" lon="-0.3276">
        <time>2022-07-29T09:47:34Z</time>
      </trkpt>
      <trkpt lat="42.61536" lon="-0.32759">
        <time>2022-07-29T09:47:35Z</time>
      </trkpt>
      <trkpt lat="42.61556" lon="-0.32758">
        <time>2022-07-29T09:47:36Z</time>
      </trkpt>
      <trkpt lat="42.61577" lon="-0.32757">
        <time>2022-07-29T09:47:37Z</time>
      </trkpt>
      <trkpt lat="42.61597" lon="-0.32757">
        <time>2022-07-29T09:47:38Z</time>
      </trkpt>
      <trkpt lat="42.61617" lon="-0.32755">
        <time>2022-07-29T09:47:39Z</time>
      </trkpt>
      <trkpt lat="42.61637" lon="-0.32754">
        <time>2022-07-29T09:47:40Z</time>
      </trkpt>
      <trkpt lat="42.61658" lon="-0.32753">
        <time>2022-07-29T09:47:41Z</time>
      </trkpt>
      <trkpt lat="42.61678" lon="-0.32752">
        <time>2022-07-29T09:47:42Z</time>
      </trkpt>
      <trkpt lat="42.61699" lon="-0.32751">
        <time>2022-07-29T09:47:43Z</time>
      </trkpt>
      <trkpt lat="42.61719" lon="-0.3275">
        <time>2022-07-29T09:47:44Z</time>
      </trkpt>
      <trkpt lat="42.6174" lon="-0.32749">
        <time>2022-07-29T09:47:45Z</time>
      </trkpt>
      <trkpt lat="42.6176" lon="-0.32748">
        <time>2022-07-29T09:47:46Z</time>
      </trkpt>
      <trkpt lat="42.6178" lon="-0.32746">
        <time>2022-07-29T09:47:47Z</time>
      </trkpt>
      <trkpt lat="42.618" lon="-0.32745">
        <time>2022-07-29T09:47:48Z</time>
      </trkpt>
      <trkpt lat="42.6182" lon="-0.32744">
        <time>2022-07-29T09:47:49Z</time>
      </trkpt>
      <trkpt lat="42.6184" lon="-0.32744">
        <time>2022-07-29T09:47:50Z</time>
      </trkpt>
      <trkpt lat="42.6186" lon="-0.32743">
        <time>2022-07-29T09:47:51Z</time>
      </trkpt>
      <trkpt lat="42.61879" lon="-0.32742">
        <time>2022-07-29T09:47:52Z</time>
      </trkpt>
      <trkpt lat="42.61898" lon="-0.32742">
        <time>2022-07-29T09:47:53Z</time>
      </trkpt>
      <trkpt lat="42.61917" lon="-0.32742">
        <time>2022-07-29T09:47:54Z</time>
      </trkpt>
      <trkpt lat="42.61936" lon="-0.32741">
        <time>2022-07-29T09:47:55Z</time>
      </trkpt>
      <trkpt lat="42.61954" lon="-0.32741">
        <time>2022-07-29T09:47:56Z</time>
      </trkpt>
      <trkpt lat="42.61973" lon="-0.32741">
        <time>2022-07-29T09:47:57Z</time>
      </trkpt>
      <trkpt lat="42.61991" lon="-0.32741">
        <time>2022-07-29T09:47:58Z</time>
      </trkpt>
      <trkpt lat="42.62009" lon="-0.32741">
        <time>2022-07-29T09:47:59Z</time>
      </trkpt>
      <trkpt lat="42.62026" lon="-0.32741">
        <time>2022-07-29T09:48:00Z</time>
      </trkpt>
      <trkpt lat="42.62043" lon="-0.32741">
        <time>2022-07-29T09:48:01Z</time>
      </trkpt>
      <trkpt lat="42.62059" lon="-0.3274">
        <time>2022-07-29T09:48:02Z</time>
      </trkpt>
      <trkpt lat="42.62075" lon="-0.3274">
        <time>2022-07-29T09:48:03Z</time>
      </trkpt>
      <trkpt lat="42.62091" lon="-0.3274">
        <time>2022-07-29T09:48:04Z</time>
      </trkpt>
      <trkpt lat="42.62105" lon="-0.32739">
        <time>2022-07-29T09:48:05Z</time>
      </trkpt>
      <trkpt lat="42.62119" lon="-0.32738">
        <time>2022-07-29T09:48:06Z</time>
      </trkpt>
      <trkpt lat="42.62132" lon="-0.32738">
        <time>2022-07-29T09:48:07Z</time>
      </trkpt>
      <trkpt lat="42.62145" lon="-0.32738">
        <time>2022-07-29T09:48:08Z</time>
      </trkpt>
      <trkpt lat="42.62156" lon="-0.32738">
        <time>2022-07-29T09:48:09Z</time>
      </trkpt>
      <trkpt lat="42.62167" lon="-0.32738">
        <time>2022-07-29T09:48:10Z</time>
      </trkpt>
      <trkpt lat="42.62178" lon="-0.32738">
        <time>2022-07-29T09:48:11Z</time>
      </trkpt>
      <trkpt lat="42.62188" lon="-0.32736">
        <time>2022-07-29T09:48:12Z</time>
      </trkpt>
      <trkpt lat="42.62197" lon="-0.32734">
        <time>2022-07-29T09:48:13Z</time>
      </trkpt>
      <trkpt lat="42.62207" lon="-0.32732">
        <time>2022-07-29T09:48:14Z</time>
      </trkpt>
      <trkpt lat="42.62215" lon="-0.32728">
        <time>2022-07-29T09:48:15Z</time>
      </trkpt>
      <trkpt lat="42.62222" lon="-0.32724">
        <time>2022-07-29T09:48:16Z</time>
      </trkpt>
      <trkpt lat="42.62228" lon="-0.3272">
        <time>2022-07-29T09:48:17Z</time>
      </trkpt>
      <trkpt lat="42.62232" lon="-0.32716">
        <time>2022-07-29T09:48:18Z</time>
      </trkpt>
      <trkpt lat="42.62235" lon="-0.32713">
        <time>2022-07-29T09:48:19Z</time>
      </trkpt>
      <trkpt lat="42.62238" lon="-0.3271">
        <time>2022-07-29T09:48:20Z</time>
      </trkpt>
      <trkpt lat="42.62239" lon="-0.32709">
        <time>2022-07-29T09:48:21Z</time>
      </trkpt>
      <trkpt lat="42.62241" lon="-0.32707">
        <time>2022-07-29T09:48:22Z</time>
      </trkpt>
      <trkpt lat="42.62242" lon="-0.32706">
        <time>2022-07-29T09:48:23Z</time>
      </trkpt>
      <trkpt lat="42.62244" lon="-0.32705">
        <time>2022-07-29T09:48:24Z</time>
      </trkpt>
      <trkpt lat="42.62246" lon="-0.32702">
        <time>2022-07-29T09:48:25Z</time>
      </trkpt>
      <trkpt lat="42.62249" lon="-0.327">
        <time>2022-07-29T09:48:26Z</time>
      </trkpt>
      <trkpt lat="42.62252" lon="-0.32696">
        <time>2022-07-29T09:48:27Z</time>
      </trkpt>
      <trkpt lat="42.62255" lon="-0.32693">
        <time>2022-07-29T09:48:28Z</time>
      </trkpt>
      <trkpt lat="42.62259" lon="-0.32689">
        <time>2022-07-29T09:48:29Z</time>
      </trkpt>
      <trkpt lat="42.62263" lon="-0.32685">
        <time>2022-07-29T09:48:30Z</time>
      </trkpt>
      <trkpt lat="42.62268" lon="-0.32682">
        <time>2022-07-29T09:48:31Z</time>
      </trkpt>
      <trkpt lat="42.62273" lon="-0.32678">
        <time>2022-07-29T09:48:32Z</time>
      </trkpt>
      <trkpt lat="42.62278" lon="-0.32674">
        <time>2022-07-29T09:48:33Z</time>
      </trkpt>
      <trkpt lat="42.62282" lon="-0.3267">
        <time>2022-07-29T09:48:34Z</time>
      </trkpt>
      <trkpt lat="42.62286" lon="-0.32666">
        <time>2022-07-29T09:48:35Z</time>
      </trkpt>
      <trkpt lat="42.6229" lon="-0.32663">
        <time>2022-07-29T09:48:36Z</time>
      </trkpt>
      <trkpt lat="42.62294" lon="-0.32659">
        <time>2022-07-29T09:48:37Z</time>
      </trkpt>
      <trkpt lat="42.62298" lon="-0.32656">
        <time>2022-07-29T09:48:38Z</time>
      </trkpt>
      <trkpt lat="42.62303" lon="-0.32652">
        <time>2022-07-29T09:48:39Z</time>
      </trkpt>
      <trkpt lat="42.62307" lon="-0.32648">
        <time>2022-07-29T09:48:40Z</time>
      </trkpt>
      <trkpt lat="42.62313" lon="-0.32643">
        <time>2022-07-29T09:48:41Z</time>
      </trkpt>
      <trkpt lat="42.62318" lon="-0.32638">
        <time>2022-07-29T09:48:42Z</time>
      </trkpt>
      <trkpt lat="42.62324" lon="-0.32632">
        <time>2022-07-29T09:48:43Z</time>
      </trkpt>
      <trkpt lat="42.6233" lon="-0.32626">
        <time>2022-07-29T09:48:44Z</time>
      </trkpt>
      <trkpt lat="42.62337" lon="-0.3262">
        <time>2022-07-29T09:48:45Z</time>
      </trkpt>
      <trkpt lat="42.62343" lon="-0.32615">
        <time>2022-07-29T09:48:46Z</time>
      </trkpt>
      <trkpt lat="42.62349" lon="-0.32609">
        <time>2022-07-29T09:48:47Z</time>
      </trkpt>
      <trkpt lat="42.62355" lon="-0.32604">
        <time>2022-07-29T09:48:48Z</time>
      </trkpt>
      <trkpt lat="42.62361" lon="-0.32599">
        <time>2022-07-29T09:48:49Z</time>
      </trkpt>
      <trkpt lat="42.62367" lon="-0.32593">
        <time>2022-07-29T09:48:50Z</time>
      </trkpt>
      <trkpt lat="42.62373" lon="-0.32587">
        <time>2022-07-29T09:48:51Z</time>
      </trkpt>
      <trkpt lat="42.6238" lon="-0.32581">
        <time>2022-07-29T09:48:52Z</time>
      </trkpt>
      <trkpt lat="42.62387" lon="-0.32575">
        <time>2022-07-29T09:48:53Z</time>
      </trkpt>
      <trkpt lat="42.62394" lon="-0.32569">
        <time>2022-07-29T09:48:54Z</time>
      </trkpt>
      <trkpt lat="42.62401" lon="-0.32562">
        <time>2022-07-29T09:48:55Z</time>
      </trkpt>
      <trkpt lat="42.62408" lon="-0.32555">
        <time>2022-07-29T09:48:56Z</time>
      </trkpt>
      <trkpt lat="42.62416" lon="-0.32548">
        <time>2022-07-29T09:48:57Z</time>
      </trkpt>
      <trkpt lat="42.62423" lon="-0.32542">
        <time>2022-07-29T09:48:58Z</time>
      </trkpt>
      <trkpt lat="42.6243" lon="-0.32536">
        <time>2022-07-29T09:48:59Z</time>
      </trkpt>
      <trkpt lat="42.62437" lon="-0.3253">
        <time>2022-07-29T09:49:00Z</time>
      </trkpt>
      <trkpt lat="42.62443" lon="-0.32523">
        <time>2022-07-29T09:49:01Z</time>
      </trkpt>
      <trkpt lat="42.62448" lon="-0.32518">
        <time>2022-07-29T09:49:02Z</time>
      </trkpt>
      <trkpt lat="42.62455" lon="-0.32511">
        <time>2022-07-29T09:49:03Z</time>
      </trkpt>
      <trkpt lat="42.62461" lon="-0.32505">
        <time>2022-07-29T09:49:04Z</time>
      </trkpt>
      <trkpt lat="42.62467" lon="-0.32498">
        <time>2022-07-29T09:49:05Z</time>
      </trkpt>
      <trkpt lat="42.62474" lon="-0.32492">
        <time>2022-07-29T09:49:06Z</time>
      </trkpt>
      <trkpt lat="42.6248" lon="-0.32486">
        <time>2022-07-29T09:49:07Z</time>
      </trkpt>
      <trkpt lat="42.62487" lon="-0.32479">
        <time>2022-07-29T09:49:08Z</time>
      </trkpt>
      <trkpt lat="42.62494" lon="-0.32473">
        <time>2022-07-29T09:49:09Z</time>
      </trkpt>
      <trkpt lat="42.62502" lon="-0.32467">
        <time>2022-07-29T09:49:10Z</time>
      </trkpt>
      <trkpt lat="42.62509" lon="-0.32463">
        <time>2022-07-29T09:49:11Z</time>
      </trkpt>
      <trkpt lat="42.62517" lon="-0.32459">
        <time>2022-07-29T09:49:12Z</time>
      </trkpt>
      <trkpt lat="42.62526" lon="-0.32458">
        <time>2022-07-29T09:49:13Z</time>
      </trkpt>
      <trkpt lat="42.62534" lon="-0.32457">
        <time>2022-07-29T09:49:14Z</time>
      </trkpt>
      <trkpt lat="42.62542" lon="-0.32457">
        <time>2022-07-29T09:49:15Z</time>
      </trkpt>
      <trkpt lat="42.62549" lon="-0.32457">
        <time>2022-07-29T09:49:16Z</time>
      </trkpt>
      <trkpt lat="42.62555" lon="-0.32458">
        <time>2022-07-29T09:49:17Z</time>
      </trkpt>
      <trkpt lat="42.62561" lon="-0.32459">
        <time>2022-07-29T09:49:18Z</time>
      </trkpt>
      <trkpt lat="42.62566" lon="-0.32459">
        <time>2022-07-29T09:49:19Z</time>
      </trkpt>
      <trkpt lat="42.62572" lon="-0.32459">
        <time>2022-07-29T09:49:20Z</time>
      </trkpt>
      <trkpt lat="42.62578" lon="-0.32459">
        <time>2022-07-29T09:49:21Z</time>
      </trkpt>
      <trkpt lat="42.62585" lon="-0.32459">
        <time>2022-07-29T09:49:22Z</time>
      </trkpt>
      <trkpt lat="42.62591" lon="-0.32459">
        <time>2022-07-29T09:49:23Z</time>
      </trkpt>
      <trkpt lat="42.62598" lon="-0.3246">
        <time>2022-07-29T09:49:24Z</time>
      </trkpt>
      <trkpt lat="42.62605" lon="-0.3246">
        <time>2022-07-29T09:49:25Z</time>
      </trkpt>
      <trkpt lat="42.62611" lon="-0.3246">
        <time>2022-07-29T09:49:26Z</time>
      </trkpt>
      <trkpt lat="42.62617" lon="-0.32461">
        <time>2022-07-29T09:49:27Z</time>
      </trkpt>
      <trkpt lat="42.62622" lon="-0.32461">
        <time>2022-07-29T09:49:28Z</time>
      </trkpt>
      <trkpt lat="42.62628" lon="-0.32461">
        <time>2022-07-29T09:49:29Z</time>
      </trkpt>
      <trkpt lat="42.62633" lon="-0.32461">
        <time>2022-07-29T09:49:30Z</time>
      </trkpt>
      <trkpt lat="42.62638" lon="-0.32461">
        <time>2022-07-29T09:49:31Z</time>
      </trkpt>
      <trkpt lat="42.62645" lon="-0.32461">
        <time>2022-07-29T09:49:32Z</time>
      </trkpt>
      <trkpt lat="42.6265" lon="-0.32461">
        <time>2022-07-29T09:49:33Z</time>
      </trkpt>
      <trkpt lat="42.62656" lon="-0.32462">
        <time>2022-07-29T09:49:34Z</time>
      </trkpt>
      <trkpt lat="42.62662" lon="-0.32462">
        <time>2022-07-29T09:49:35Z</time>
      </trkpt>
      <trkpt lat="42.62667" lon="-0.32463">
        <time>2022-07-29T09:49:36Z</time>
      </trkpt>
      <trkpt lat="42.62672" lon="-0.32464">
        <time>2022-07-29T09:49:37Z</time>
      </trkpt>
      <trkpt lat="42.62678" lon="-0.32464">
        <time>2022-07-29T09:49:38Z</time>
      </trkpt>
      <trkpt lat="42.62683" lon="-0.32464">
        <time>2022-07-29T09:49:39Z</time>
      </trkpt>
      <trkpt lat="42.62689" lon="-0.32464">
        <time>2022-07-29T09:49:40Z</time>
      </trkpt>
      <trkpt lat="42.62696" lon="-0.32464">
        <time>2022-07-29T09:49:41Z</time>
      </trkpt>
      <trkpt lat="42.62702" lon="-0.32464">
        <time>2022-07-29T09:49:42Z</time>
      </trkpt>
      <trkpt lat="42.62709" lon="-0.32465">
        <time>2022-07-29T09:49:43Z</time>
      </trkpt>
      <trkpt lat="42.62717" lon="-0.32465">
        <time>2022-07-29T09:49:44Z</time>
      </trkpt>
      <trkpt lat="42.62724" lon="-0.32465">
        <time>2022-07-29T09:49:45Z</time>
      </trkpt>
      <trkpt lat="42.62731" lon="-0.32466">
        <time>2022-07-29T09:49:46Z</time>
      </trkpt>
      <trkpt lat="42.62738" lon="-0.32467">
        <time>2022-07-29T09:49:47Z</time>
      </trkpt>
      <trkpt lat="42.62744" lon="-0.32469">
        <time>2022-07-29T09:49:48Z</time>
      </trkpt>
      <trkpt lat="42.62751" lon="-0.3247">
        <time>2022-07-29T09:49:49Z</time>
      </trkpt>
      <trkpt lat="42.62756" lon="-0.32471">
        <time>2022-07-29T09:49:50Z</time>
      </trkpt>
      <trkpt lat="42.62762" lon="-0.32471">
        <time>2022-07-29T09:49:51Z</time>
      </trkpt>
      <trkpt lat="42.62767" lon="-0.32472">
        <time>2022-07-29T09:49:52Z</time>
      </trkpt>
      <trkpt lat="42.62771" lon="-0.32471">
        <time>2022-07-29T09:49:53Z</time>
      </trkpt>
      <trkpt lat="42.62774" lon="-0.32469">
        <time>2022-07-29T09:49:54Z</time>
      </trkpt>
      <trkpt lat="42.62777" lon="-0.32465">
        <time>2022-07-29T09:49:55Z</time>
      </trkpt>
      <trkpt lat="42.62778" lon="-0.32461">
        <time>2022-07-29T09:49:56Z</time>
      </trkpt>
      <trkpt lat="42.62778" lon="-0.32455">
        <time>2022-07-29T09:49:57Z</time>
      </trkpt>
      <trkpt lat="42.62777" lon="-0.3245">
        <time>2022-07-29T09:49:58Z</time>
      </trkpt>
      <trkpt lat="42.62777" lon="-0.32443">
        <time>2022-07-29T09:49:59Z</time>
      </trkpt>
      <trkpt lat="42.62776" lon="-0.32436">
        <time>2022-07-29T09:50:00Z</time>
      </trkpt>
      <trkpt lat="42.62775" lon="-0.32428">
        <time>2022-07-29T09:50:01Z</time>
      </trkpt>
      <trkpt lat="42.62775" lon="-0.32419">
        <time>2022-07-29T09:50:02Z</time>
      </trkpt>
      <trkpt lat="42.62774" lon="-0.32409">
        <time>2022-07-29T09:50:03Z</time>
      </trkpt>
      <trkpt lat="42.62772" lon="-0.32399">
        <time>2022-07-29T09:50:04Z</time>
      </trkpt>
      <trkpt lat="42.62771" lon="-0.3239">
        <time>2022-07-29T09:50:05Z</time>
      </trkpt>
      <trkpt lat="42.6277" lon="-0.32381">
        <time>2022-07-29T09:50:06Z</time>
      </trkpt>
      <trkpt lat="42.6277" lon="-0.32373">
        <time>2022-07-29T09:50:07Z</time>
      </trkpt>
      <trkpt lat="42.62769" lon="-0.32364">
        <time>2022-07-29T09:50:08Z</time>
      </trkpt>
      <trkpt lat="42.62768" lon="-0.32356">
        <time>2022-07-29T09:50:09Z</time>
      </trkpt>
      <trkpt lat="42.62768" lon="-0.32348">
        <time>2022-07-29T09:50:10Z</time>
      </trkpt>
      <trkpt lat="42.62769" lon="-0.32342">
        <time>2022-07-29T09:50:11Z</time>
      </trkpt>
      <trkpt lat="42.62769" lon="-0.32336">
        <time>2022-07-29T09:50:12Z</time>
      </trkpt>
      <trkpt lat="42.62769" lon="-0.32329">
        <time>2022-07-29T09:50:13Z</time>
      </trkpt>
      <trkpt lat="42.62771" lon="-0.32322">
        <time>2022-07-29T09:50:14Z</time>
      </trkpt>
      <trkpt lat="42.62772" lon="-0.32314">
        <time>2022-07-29T09:50:15Z</time>
      </trkpt>
      <trkpt lat="42.62773" lon="-0.32307">
        <time>2022-07-29T09:50:16Z</time>
      </trkpt>
      <trkpt lat="42.62775" lon="-0.32301">
        <time>2022-07-29T09:50:17Z</time>
      </trkpt>
      <trkpt lat="42.62778" lon="-0.32295">
        <time>2022-07-29T09:50:18Z</time>
      </trkpt>
      <trkpt lat="42.62781" lon="-0.32289">
        <time>2022-07-29T09:50:19Z</time>
      </trkpt>
      <trkpt lat="42.62783" lon="-0.32283">
        <time>2022-07-29T09:50:20Z</time>
      </trkpt>
      <trkpt lat="42.62786" lon="-0.32277">
        <time>2022-07-29T09:50:21Z</time>
      </trkpt>
      <trkpt lat="42.6279" lon="-0.32272">
        <time>2022-07-29T09:50:22Z</time>
      </trkpt>
      <trkpt lat="42.62794" lon="-0.32266">
        <time>2022-07-29T09:50:23Z</time>
      </trkpt>
      <trkpt lat="42.62799" lon="-0.32262">
        <time>2022-07-29T09:50:24Z</time>
      </trkpt>
      <trkpt lat="42.62805" lon="-0.3226">
        <time>2022-07-29T09:50:25Z</time>
      </trkpt>
      <trkpt lat="42.6281" lon="-0.32259">
        <time>2022-07-29T09:50:26Z</time>
      </trkpt>
      <trkpt lat="42.62816" lon="-0.32259">
        <time>2022-07-29T09:50:27Z</time>
      </trkpt>
      <trkpt lat="42.62821" lon="-0.32261">
        <time>2022-07-29T09:50:28Z</time>
      </trkpt>
      <trkpt lat="42.62826" lon="-0.32262">
        <time>2022-07-29T09:50:29Z</time>
      </trkpt>
      <trkpt lat="42.62829" lon="-0.32265">
        <time>2022-07-29T09:50:30Z</time>
      </trkpt>
      <trkpt lat="42.62833" lon="-0.32267">
        <time>2022-07-29T09:50:31Z</time>
      </trkpt>
      <trkpt lat="42.62837" lon="-0.32269">
        <time>2022-07-29T09:50:32Z</time>
      </trkpt>
      <trkpt lat="42.62841" lon="-0.32271">
        <time>2022-07-29T09:50:33Z</time>
      </trkpt>
      <trkpt lat="42.62846" lon="-0.32273">
        <time>2022-07-29T09:50:34Z</time>
      </trkpt>
      <trkpt lat="42.6285" lon="-0.32273">
        <time>2022-07-29T09:50:35Z</time>
      </trkpt>
      <trkpt lat="42.62853" lon="-0.3227">
        <time>2022-07-29T09:50:36Z</time>
      </trkpt>
      <trkpt lat="42.62856" lon="-0.32265">
        <time>2022-07-29T09:50:37Z</time>
      </trkpt>
      <trkpt lat="42.62858" lon="-0.32259">
        <time>2022-07-29T09:50:38Z</time>
      </trkpt>
      <trkpt lat="42.62859" lon="-0.32254">
        <time>2022-07-29T09:50:39Z</time>
      </trkpt>
      <trkpt lat="42.62861" lon="-0.32248">
        <time>2022-07-29T09:50:40Z</time>
      </trkpt>
      <trkpt lat="42.62864" lon="-0.32242">
        <time>2022-07-29T09:50:41Z</time>
      </trkpt>
      <trkpt lat="42.62866" lon="-0.32237">
        <time>2022-07-29T09:50:42Z</time>
      </trkpt>
      <trkpt lat="42.62867" lon="-0.32232">
        <time>2022-07-29T09:50:43Z</time>
      </trkpt>
      <trkpt lat="42.62869" lon="-0.32227">
        <time>2022-07-29T09:50:44Z</time>
      </trkpt>
      <trkpt lat="42.6287" lon="-0.32224">
        <time>2022-07-29T09:50:45Z</time>
      </trkpt>
      <trkpt lat="42.62871" lon="-0.32221">
        <time>2022-07-29T09:50:46Z</time>
      </trkpt>
      <trkpt lat="42.62872" lon="-0.32217">
        <time>2022-07-29T09:50:47Z</time>
      </trkpt>
      <trkpt lat="42.62873" lon="-0.32214">
        <time>2022-07-29T09:50:48Z</time>
      </trkpt>
      <trkpt lat="42.62874" lon="-0.32211">
        <time>2022-07-29T09:50:49Z</time>
      </trkpt>
      <trkpt lat="42.62875" lon="-0.32208">
        <time>2022-07-29T09:50:50Z</time>
      </trkpt>
      <trkpt lat="42.62876" lon="-0.32206">
        <time>2022-07-29T09:50:51Z</time>
      </trkpt>
      <trkpt lat="42.62877" lon="-0.32204">
        <time>2022-07-29T09:50:52Z</time>
      </trkpt>
      <trkpt lat="42.62878" lon="-0.32202">
        <time>2022-07-29T09:50:53Z</time>
      </trkpt>
      <trkpt lat="42.62878" lon="-0.32199">
        <time>2022-07-29T09:50:54Z</time>
      </trkpt>
      <trkpt lat="42.62879" lon="-0.32196">
        <time>2022-07-29T09:50:55Z</time>
      </trkpt>
      <trkpt lat="42.62879" lon="-0.32194">
        <time>2022-07-29T09:50:56Z</time>
      </trkpt>
      <trkpt lat="42.62878" lon="-0.32191">
        <time>2022-07-29T09:50:59Z</time>
      </trkpt>
      <trkpt lat="42.62876" lon="-0.32187">
        <time>2022-07-29T09:51:00Z</time>
      </trkpt>
      <trkpt lat="42.62873" lon="-0.32184">
        <time>2022-07-29T09:51:01Z</time>
      </trkpt>
      <trkpt lat="42.62869" lon="-0.32181">
        <time>2022-07-29T09:51:02Z</time>
      </trkpt>
      <trkpt lat="42.62865" lon="-0.32179">
        <time>2022-07-29T09:51:03Z</time>
      </trkpt>
      <trkpt lat="42.62861" lon="-0.32177">
        <time>2022-07-29T09:51:04Z</time>
      </trkpt>
      <trkpt lat="42.62858" lon="-0.32174">
        <time>2022-07-29T09:51:05Z</time>
      </trkpt>
      <trkpt lat="42.62854" lon="-0.3217">
        <time>2022-07-29T09:51:06Z</time>
      </trkpt>
      <trkpt lat="42.6285" lon="-0.32165">
        <time>2022-07-29T09:51:07Z</time>
      </trkpt>
      <trkpt lat="42.62848" lon="-0.32159">
        <time>2022-07-29T09:51:08Z</time>
      </trkpt>
      <trkpt lat="42.62847" lon="-0.32154">
        <time>2022-07-29T09:51:09Z</time>
      </trkpt>
      <trkpt lat="42.62846" lon="-0.32149">
        <time>2022-07-29T09:51:10Z</time>
      </trkpt>
      <trkpt lat="42.62846" lon="-0.32143">
        <time>2022-07-29T09:51:11Z</time>
      </trkpt>
      <trkpt lat="42.62845" lon="-0.32139">
        <time>2022-07-29T09:51:12Z</time>
      </trkpt>
      <trkpt lat="42.62844" lon="-0.32134">
        <time>2022-07-29T09:51:13Z</time>
      </trkpt>
      <trkpt lat="42.62843" lon="-0.32129">
        <time>2022-07-29T09:51:14Z</time>
      </trkpt>
      <trkpt lat="42.62842" lon="-0.32123">
        <time>2022-07-29T09:51:15Z</time>
      </trkpt>
      <trkpt lat="42.62841" lon="-0.32117">
        <time>2022-07-29T09:51:16Z</time>
      </trkpt>
      <trkpt lat="42.6284" lon="-0.32111">
        <time>2022-07-29T09:51:17Z</time>
      </trkpt>
      <trkpt lat="42.62839" lon="-0.32105">
        <time>2022-07-29T09:51:18Z</time>
      </trkpt>
      <trkpt lat="42.62838" lon="-0.32099">
        <time>2022-07-29T09:51:19Z</time>
      </trkpt>
      <trkpt lat="42.62837" lon="-0.32092">
        <time>2022-07-29T09:51:20Z</time>
      </trkpt>
      <trkpt lat="42.62836" lon="-0.32088">
        <time>2022-07-29T09:51:21Z</time>
      </trkpt>
      <trkpt lat="42.62836" lon="-0.32085">
        <time>2022-07-29T09:51:22Z</time>
      </trkpt>
      <trkpt lat="42.62836" lon="-0.32083">
        <time>2022-07-29T09:51:23Z</time>
      </trkpt>
      <trkpt lat="42.62836" lon="-0.32082">
        <time>2022-07-29T09:51:50Z</time>
      </trkpt>
      <trkpt lat="42.62836" lon="-0.32079">
        <time>2022-07-29T09:51:51Z</time>
      </trkpt>
      <trkpt lat="42.62836" lon="-0.32075">
        <time>2022-07-29T09:51:52Z</time>
      </trkpt>
      <trkpt lat="42.62836" lon="-0.32072">
        <time>2022-07-29T09:51:53Z</time>
      </trkpt>
      <trkpt lat="42.62836" lon="-0.32068">
        <time>2022-07-29T09:51:54Z</time>
      </trkpt>
      <trkpt lat="42.62836" lon="-0.32066">
        <time>2022-07-29T09:51:55Z</time>
      </trkpt>
      <trkpt lat="42.62836" lon="-0.32064">
        <time>2022-07-29T09:51:56Z</time>
      </trkpt>
      <trkpt lat="42.62837" lon="-0.32061">
        <time>2022-07-29T09:51:57Z</time>
      </trkpt>
      <trkpt lat="42.62837" lon="-0.32058">
        <time>2022-07-29T09:51:58Z</time>
      </trkpt>
      <trkpt lat="42.62838" lon="-0.32055">
        <time>2022-07-29T09:51:59Z</time>
      </trkpt>
      <trkpt lat="42.62839" lon="-0.32052">
        <time>2022-07-29T09:52:00Z</time>
      </trkpt>
      <trkpt lat="42.6284" lon="-0.32049">
        <time>2022-07-29T09:52:01Z</time>
      </trkpt>
      <trkpt lat="42.62841" lon="-0.32046">
        <time>2022-07-29T09:52:02Z</time>
      </trkpt>
      <trkpt lat="42.62842" lon="-0.32043">
        <time>2022-07-29T09:52:03Z</time>
      </trkpt>
      <trkpt lat="42.62843" lon="-0.32041">
        <time>2022-07-29T09:52:04Z</time>
      </trkpt>
      <trkpt lat="42.62843" lon="-0.32039">
        <time>2022-07-29T09:52:05Z</time>
      </trkpt>
      <trkpt lat="42.62844" lon="-0.32036">
        <time>2022-07-29T09:52:06Z</time>
      </trkpt>
      <trkpt lat="42.62845" lon="-0.32033">
        <time>2022-07-29T09:52:07Z</time>
      </trkpt>
      <trkpt lat="42.62846" lon="-0.32031">
        <time>2022-07-29T09:52:08Z</time>
      </trkpt>
      <trkpt lat="42.62847" lon="-0.32028">
        <time>2022-07-29T09:52:09Z</time>
      </trkpt>
      <trkpt lat="42.62847" lon="-0.32026">
        <time>2022-07-29T09:52:10Z</time>
      </trkpt>
      <trkpt lat="42.62849" lon="-0.32023">
        <time>2022-07-29T09:52:11Z</time>
      </trkpt>
      <trkpt lat="42.6285" lon="-0.3202">
        <time>2022-07-29T09:52:12Z</time>
      </trkpt>
      <trkpt lat="42.62851" lon="-0.32017">
        <time>2022-07-29T09:52:13Z</time>
      </trkpt>
      <trkpt lat="42.62852" lon="-0.32015">
        <time>2022-07-29T09:52:14Z</time>
      </trkpt>
      <trkpt lat="42.62853" lon="-0.32013">
        <time>2022-07-29T09:52:15Z</time>
      </trkpt>
      <trkpt lat="42.62854" lon="-0.32012">
        <time>2022-07-29T09:52:16Z</time>
      </trkpt>
      <trkpt lat="42.6286" lon="-0.32008">
        <time>2022-07-29T09:52:29Z</time>
      </trkpt>
      <trkpt lat="42.62861" lon="-0.32005">
        <time>2022-07-29T09:52:30Z</time>
      </trkpt>
      <trkpt lat="42.62862" lon="-0.32003">
        <time>2022-07-29T09:52:31Z</time>
      </trkpt>
      <trkpt lat="42.62863" lon="-0.32001">
        <time>2022-07-29T09:52:32Z</time>
      </trkpt>
      <trkpt lat="42.62865" lon="-0.31999">
        <time>2022-07-29T09:52:33Z</time>
      </trkpt>
      <trkpt lat="42.62866" lon="-0.31997">
        <time>2022-07-29T09:52:34Z</time>
      </trkpt>
      <trkpt lat="42.62867" lon="-0.31996">
        <time>2022-07-29T09:52:35Z</time>
      </trkpt>
      <trkpt lat="42.6287" lon="-0.31992">
        <time>2022-07-29T09:52:36Z</time>
      </trkpt>
      <trkpt lat="42.62873" lon="-0.31988">
        <time>2022-07-29T09:52:37Z</time>
      </trkpt>
      <trkpt lat="42.62875" lon="-0.31981">
        <time>2022-07-29T09:52:38Z</time>
      </trkpt>
      <trkpt lat="42.62875" lon="-0.31973">
        <time>2022-07-29T09:52:39Z</time>
      </trkpt>
      <trkpt lat="42.62874" lon="-0.31963">
        <time>2022-07-29T09:52:40Z</time>
      </trkpt>
      <trkpt lat="42.62874" lon="-0.31954">
        <time>2022-07-29T09:52:41Z</time>
      </trkpt>
      <trkpt lat="42.62873" lon="-0.31945">
        <time>2022-07-29T09:52:42Z</time>
      </trkpt>
      <trkpt lat="42.62873" lon="-0.31937">
        <time>2022-07-29T09:52:43Z</time>
      </trkpt>
      <trkpt lat="42.62873" lon="-0.31928">
        <time>2022-07-29T09:52:44Z</time>
      </trkpt>
      <trkpt lat="42.62875" lon="-0.3192">
        <time>2022-07-29T09:52:45Z</time>
      </trkpt>
      <trkpt lat="42.62878" lon="-0.31911">
        <time>2022-07-29T09:52:46Z</time>
      </trkpt>
      <trkpt lat="42.62881" lon="-0.31902">
        <time>2022-07-29T09:52:47Z</time>
      </trkpt>
      <trkpt lat="42.62885" lon="-0.31892">
        <time>2022-07-29T09:52:48Z</time>
      </trkpt>
      <trkpt lat="42.62889" lon="-0.31881">
        <time>2022-07-29T09:52:49Z</time>
      </trkpt>
      <trkpt lat="42.62894" lon="-0.3187">
        <time>2022-07-29T09:52:50Z</time>
      </trkpt>
      <trkpt lat="42.62899" lon="-0.31859">
        <time>2022-07-29T09:52:51Z</time>
      </trkpt>
      <trkpt lat="42.62904" lon="-0.31848">
        <time>2022-07-29T09:52:52Z</time>
      </trkpt>
      <trkpt lat="42.62908" lon="-0.31838">
        <time>2022-07-29T09:52:53Z</time>
      </trkpt>
      <trkpt lat="42.62913" lon="-0.31827">
        <time>2022-07-29T09:52:54Z</time>
      </trkpt>
      <trkpt lat="42.62918" lon="-0.31817">
        <time>2022-07-29T09:52:55Z</time>
      </trkpt>
      <trkpt lat="42.62923" lon="-0.31806">
        <time>2022-07-29T09:52:56Z</time>
      </trkpt>
      <trkpt lat="42.62929" lon="-0.31796">
        <time>2022-07-29T09:52:57Z</time>
      </trkpt>
      <trkpt lat="42.62933" lon="-0.31786">
        <time>2022-07-29T09:52:58Z</time>
      </trkpt>
      <trkpt lat="42.62938" lon="-0.31777">
        <time>2022-07-29T09:52:59Z</time>
      </trkpt>
      <trkpt lat="42.62943" lon="-0.31767">
        <time>2022-07-29T09:53:00Z</time>
      </trkpt>
      <trkpt lat="42.62947" lon="-0.31759">
        <time>2022-07-29T09:53:01Z</time>
      </trkpt>
      <trkpt lat="42.62951" lon="-0.31749">
        <time>2022-07-29T09:53:02Z</time>
      </trkpt>
      <trkpt lat="42.62955" lon="-0.31739">
        <time>2022-07-29T09:53:03Z</time>
      </trkpt>
      <trkpt lat="42.62959" lon="-0.31729">
        <time>2022-07-29T09:53:04Z</time>
      </trkpt>
      <trkpt lat="42.62962" lon="-0.31718">
        <time>2022-07-29T09:53:05Z</time>
      </trkpt>
      <trkpt lat="42.62964" lon="-0.31708">
        <time>2022-07-29T09:53:06Z</time>
      </trkpt>
      <trkpt lat="42.62965" lon="-0.31698">
        <time>2022-07-29T09:53:07Z</time>
      </trkpt>
      <trkpt lat="42.62965" lon="-0.31687">
        <time>2022-07-29T09:53:08Z</time>
      </trkpt>
      <trkpt lat="42.62964" lon="-0.31676">
        <time>2022-07-29T09:53:09Z</time>
      </trkpt>
      <trkpt lat="42.62963" lon="-0.31663">
        <time>2022-07-29T09:53:10Z</time>
      </trkpt>
      <trkpt lat="42.62962" lon="-0.3165">
        <time>2022-07-29T09:53:11Z</time>
      </trkpt>
      <trkpt lat="42.62961" lon="-0.31636">
        <time>2022-07-29T09:53:12Z</time>
      </trkpt>
      <trkpt lat="42.6296" lon="-0.31621">
        <time>2022-07-29T09:53:13Z</time>
      </trkpt>
      <trkpt lat="42.62959" lon="-0.31607">
        <time>2022-07-29T09:53:14Z</time>
      </trkpt>
      <trkpt lat="42.62959" lon="-0.31593">
        <time>2022-07-29T09:53:15Z</time>
      </trkpt>
      <trkpt lat="42.62958" lon="-0.3158">
        <time>2022-07-29T09:53:16Z</time>
      </trkpt>
      <trkpt lat="42.62957" lon="-0.31568">
        <time>2022-07-29T09:53:17Z</time>
      </trkpt>
      <trkpt lat="42.62956" lon="-0.31556">
        <time>2022-07-29T09:53:18Z</time>
      </trkpt>
      <trkpt lat="42.62954" lon="-0.31544">
        <time>2022-07-29T09:53:19Z</time>
      </trkpt>
      <trkpt lat="42.6295" lon="-0.31534">
        <time>2022-07-29T09:53:20Z</time>
      </trkpt>
      <trkpt lat="42.62944" lon="-0.31522">
        <time>2022-07-29T09:53:21Z</time>
      </trkpt>
      <trkpt lat="42.62938" lon="-0.31511">
        <time>2022-07-29T09:53:22Z</time>
      </trkpt>
      <trkpt lat="42.62931" lon="-0.31499">
        <time>2022-07-29T09:53:23Z</time>
      </trkpt>
      <trkpt lat="42.62924" lon="-0.31487">
        <time>2022-07-29T09:53:24Z</time>
      </trkpt>
      <trkpt lat="42.62917" lon="-0.31474">
        <time>2022-07-29T09:53:25Z</time>
      </trkpt>
      <trkpt lat="42.6291" lon="-0.31462">
        <time>2022-07-29T09:53:26Z</time>
      </trkpt>
      <trkpt lat="42.62903" lon="-0.31451">
        <time>2022-07-29T09:53:27Z</time>
      </trkpt>
      <trkpt lat="42.62899" lon="-0.31438">
        <time>2022-07-29T09:53:28Z</time>
      </trkpt>
      <trkpt lat="42.62895" lon="-0.31426">
        <time>2022-07-29T09:53:29Z</time>
      </trkpt>
      <trkpt lat="42.62891" lon="-0.31413">
        <time>2022-07-29T09:53:30Z</time>
      </trkpt>
      <trkpt lat="42.62888" lon="-0.314">
        <time>2022-07-29T09:53:31Z</time>
      </trkpt>
      <trkpt lat="42.62884" lon="-0.31389">
        <time>2022-07-29T09:53:32Z</time>
      </trkpt>
      <trkpt lat="42.62881" lon="-0.31379">
        <time>2022-07-29T09:53:33Z</time>
      </trkpt>
      <trkpt lat="42.62879" lon="-0.31369">
        <time>2022-07-29T09:53:34Z</time>
      </trkpt>
      <trkpt lat="42.62877" lon="-0.31362">
        <time>2022-07-29T09:53:35Z</time>
      </trkpt>
      <trkpt lat="42.62875" lon="-0.31355">
        <time>2022-07-29T09:53:36Z</time>
      </trkpt>
      <trkpt lat="42.62875" lon="-0.31348">
        <time>2022-07-29T09:53:37Z</time>
      </trkpt>
      <trkpt lat="42.62875" lon="-0.31343">
        <time>2022-07-29T09:53:38Z</time>
      </trkpt>
      <trkpt lat="42.62877" lon="-0.3134">
        <time>2022-07-29T09:53:39Z</time>
      </trkpt>
      <trkpt lat="42.62879" lon="-0.31339">
        <time>2022-07-29T09:53:40Z</time>
      </trkpt>
      <trkpt lat="42.62882" lon="-0.31339">
        <time>2022-07-29T09:53:41Z</time>
      </trkpt>
      <trkpt lat="42.62885" lon="-0.31342">
        <time>2022-07-29T09:53:42Z</time>
      </trkpt>
      <trkpt lat="42.62888" lon="-0.31347">
        <time>2022-07-29T09:53:43Z</time>
      </trkpt>
      <trkpt lat="42.62892" lon="-0.31357">
        <time>2022-07-29T09:53:44Z</time>
      </trkpt>
      <trkpt lat="42.62896" lon="-0.31368">
        <time>2022-07-29T09:53:45Z</time>
      </trkpt>
      <trkpt lat="42.62901" lon="-0.3138">
        <time>2022-07-29T09:53:46Z</time>
      </trkpt>
      <trkpt lat="42.62907" lon="-0.31396">
        <time>2022-07-29T09:53:47Z</time>
      </trkpt>
      <trkpt lat="42.62913" lon="-0.31411">
        <time>2022-07-29T09:53:48Z</time>
      </trkpt>
      <trkpt lat="42.6292" lon="-0.31426">
        <time>2022-07-29T09:53:49Z</time>
      </trkpt>
      <trkpt lat="42.62927" lon="-0.31442">
        <time>2022-07-29T09:53:50Z</time>
      </trkpt>
      <trkpt lat="42.62934" lon="-0.31458">
        <time>2022-07-29T09:53:51Z</time>
      </trkpt>
      <trkpt lat="42.62943" lon="-0.31473">
        <time>2022-07-29T09:53:52Z</time>
      </trkpt>
      <trkpt lat="42.62953" lon="-0.31488">
        <time>2022-07-29T09:53:53Z</time>
      </trkpt>
      <trkpt lat="42.62963" lon="-0.31502">
        <time>2022-07-29T09:53:54Z</time>
      </trkpt>
      <trkpt lat="42.62973" lon="-0.31516">
        <time>2022-07-29T09:53:55Z</time>
      </trkpt>
      <trkpt lat="42.62983" lon="-0.31531">
        <time>2022-07-29T09:53:56Z</time>
      </trkpt>
      <trkpt lat="42.62993" lon="-0.31545">
        <time>2022-07-29T09:53:57Z</time>
      </trkpt>
      <trkpt lat="42.63001" lon="-0.3156">
        <time>2022-07-29T09:53:58Z</time>
      </trkpt>
      <trkpt lat="42.63008" lon="-0.31576">
        <time>2022-07-29T09:53:59Z</time>
      </trkpt>
      <trkpt lat="42.63014" lon="-0.31593">
        <time>2022-07-29T09:54:00Z</time>
      </trkpt>
      <trkpt lat="42.6302" lon="-0.3161">
        <time>2022-07-29T09:54:01Z</time>
      </trkpt>
      <trkpt lat="42.63025" lon="-0.31628">
        <time>2022-07-29T09:54:02Z</time>
      </trkpt>
      <trkpt lat="42.6303" lon="-0.31646">
        <time>2022-07-29T09:54:03Z</time>
      </trkpt>
      <trkpt lat="42.63036" lon="-0.31663">
        <time>2022-07-29T09:54:04Z</time>
      </trkpt>
      <trkpt lat="42.63042" lon="-0.31681">
        <time>2022-07-29T09:54:05Z</time>
      </trkpt>
      <trkpt lat="42.63047" lon="-0.31699">
        <time>2022-07-29T09:54:06Z</time>
      </trkpt>
      <trkpt lat="42.63052" lon="-0.31717">
        <time>2022-07-29T09:54:07Z</time>
      </trkpt>
      <trkpt lat="42.63058" lon="-0.31734">
        <time>2022-07-29T09:54:08Z</time>
      </trkpt>
      <trkpt lat="42.63063" lon="-0.31752">
        <time>2022-07-29T09:54:09Z</time>
      </trkpt>
      <trkpt lat="42.63068" lon="-0.3177">
        <time>2022-07-29T09:54:10Z</time>
      </trkpt>
      <trkpt lat="42.63074" lon="-0.31787">
        <time>2022-07-29T09:54:11Z</time>
      </trkpt>
      <trkpt lat="42.6308" lon="-0.31805">
        <time>2022-07-29T09:54:12Z</time>
      </trkpt>
      <trkpt lat="42.63086" lon="-0.31823">
        <time>2022-07-29T09:54:13Z</time>
      </trkpt>
      <trkpt lat="42.63092" lon="-0.31841">
        <time>2022-07-29T09:54:14Z</time>
      </trkpt>
      <trkpt lat="42.63097" lon="-0.31859">
        <time>2022-07-29T09:54:15Z</time>
      </trkpt>
      <trkpt lat="42.63103" lon="-0.31877">
        <time>2022-07-29T09:54:16Z</time>
      </trkpt>
      <trkpt lat="42.63109" lon="-0.31895">
        <time>2022-07-29T09:54:17Z</time>
      </trkpt>
      <trkpt lat="42.63114" lon="-0.31913">
        <time>2022-07-29T09:54:18Z</time>
      </trkpt>
      <trkpt lat="42.63119" lon="-0.3193">
        <time>2022-07-29T09:54:19Z</time>
      </trkpt>
      <trkpt lat="42.63125" lon="-0.31948">
        <time>2022-07-29T09:54:20Z</time>
      </trkpt>
      <trkpt lat="42.63131" lon="-0.31965">
        <time>2022-07-29T09:54:21Z</time>
      </trkpt>
      <trkpt lat="42.63136" lon="-0.31983">
        <time>2022-07-29T09:54:22Z</time>
      </trkpt>
      <trkpt lat="42.63141" lon="-0.32001">
        <time>2022-07-29T09:54:23Z</time>
      </trkpt>
      <trkpt lat="42.63147" lon="-0.32019">
        <time>2022-07-29T09:54:24Z</time>
      </trkpt>
      <trkpt lat="42.63152" lon="-0.32037">
        <time>2022-07-29T09:54:25Z</time>
      </trkpt>
      <trkpt lat="42.63158" lon="-0.32054">
        <time>2022-07-29T09:54:26Z</time>
      </trkpt>
      <trkpt lat="42.63163" lon="-0.3207">
        <time>2022-07-29T09:54:27Z</time>
      </trkpt>
      <trkpt lat="42.63168" lon="-0.32086">
        <time>2022-07-29T09:54:28Z</time>
      </trkpt>
      <trkpt lat="42.63173" lon="-0.32102">
        <time>2022-07-29T09:54:29Z</time>
      </trkpt>
      <trkpt lat="42.63178" lon="-0.32117">
        <time>2022-07-29T09:54:30Z</time>
      </trkpt>
      <trkpt lat="42.63183" lon="-0.32132">
        <time>2022-07-29T09:54:31Z</time>
      </trkpt>
      <trkpt lat="42.63186" lon="-0.32146">
        <time>2022-07-29T09:54:32Z</time>
      </trkpt>
      <trkpt lat="42.63189" lon="-0.32161">
        <time>2022-07-29T09:54:33Z</time>
      </trkpt>
      <trkpt lat="42.63191" lon="-0.32176">
        <time>2022-07-29T09:54:34Z</time>
      </trkpt>
      <trkpt lat="42.6319" lon="-0.32193">
        <time>2022-07-29T09:54:35Z</time>
      </trkpt>
      <trkpt lat="42.63188" lon="-0.32209">
        <time>2022-07-29T09:54:36Z</time>
      </trkpt>
      <trkpt lat="42.63183" lon="-0.32224">
        <time>2022-07-29T09:54:37Z</time>
      </trkpt>
      <trkpt lat="42.63177" lon="-0.32238">
        <time>2022-07-29T09:54:38Z</time>
      </trkpt>
      <trkpt lat="42.63169" lon="-0.32251">
        <time>2022-07-29T09:54:39Z</time>
      </trkpt>
      <trkpt lat="42.6316" lon="-0.32262">
        <time>2022-07-29T09:54:40Z</time>
      </trkpt>
      <trkpt lat="42.6315" lon="-0.32272">
        <time>2022-07-29T09:54:41Z</time>
      </trkpt>
      <trkpt lat="42.63141" lon="-0.32282">
        <time>2022-07-29T09:54:42Z</time>
      </trkpt>
      <trkpt lat="42.63131" lon="-0.32293">
        <time>2022-07-29T09:54:43Z</time>
      </trkpt>
      <trkpt lat="42.63123" lon="-0.32306">
        <time>2022-07-29T09:54:44Z</time>
      </trkpt>
      <trkpt lat="42.63116" lon="-0.3232">
        <time>2022-07-29T09:54:45Z</time>
      </trkpt>
      <trkpt lat="42.63111" lon="-0.32335">
        <time>2022-07-29T09:54:46Z</time>
      </trkpt>
      <trkpt lat="42.63105" lon="-0.32351">
        <time>2022-07-29T09:54:47Z</time>
      </trkpt>
      <trkpt lat="42.63101" lon="-0.32367">
        <time>2022-07-29T09:54:48Z</time>
      </trkpt>
      <trkpt lat="42.63095" lon="-0.32385">
        <time>2022-07-29T09:54:49Z</time>
      </trkpt>
      <trkpt lat="42.6309" lon="-0.32402">
        <time>2022-07-29T09:54:50Z</time>
      </trkpt>
      <trkpt lat="42.63084" lon="-0.3242">
        <time>2022-07-29T09:54:51Z</time>
      </trkpt>
      <trkpt lat="42.63078" lon="-0.32438">
        <time>2022-07-29T09:54:52Z</time>
      </trkpt>
      <trkpt lat="42.63073" lon="-0.32455">
        <time>2022-07-29T09:54:53Z</time>
      </trkpt>
      <trkpt lat="42.63067" lon="-0.32473">
        <time>2022-07-29T09:54:54Z</time>
      </trkpt>
      <trkpt lat="42.63061" lon="-0.3249">
        <time>2022-07-29T09:54:55Z</time>
      </trkpt>
      <trkpt lat="42.63056" lon="-0.32508">
        <time>2022-07-29T09:54:56Z</time>
      </trkpt>
      <trkpt lat="42.63051" lon="-0.32526">
        <time>2022-07-29T09:54:57Z</time>
      </trkpt>
      <trkpt lat="42.63045" lon="-0.32543">
        <time>2022-07-29T09:54:58Z</time>
      </trkpt>
      <trkpt lat="42.63039" lon="-0.32561">
        <time>2022-07-29T09:54:59Z</time>
      </trkpt>
      <trkpt lat="42.63034" lon="-0.32578">
        <time>2022-07-29T09:55:00Z</time>
      </trkpt>
      <trkpt lat="42.63029" lon="-0.32594">
        <time>2022-07-29T09:55:01Z</time>
      </trkpt>
      <trkpt lat="42.63024" lon="-0.32609">
        <time>2022-07-29T09:55:02Z</time>
      </trkpt>
      <trkpt lat="42.63019" lon="-0.32624">
        <time>2022-07-29T09:55:03Z</time>
      </trkpt>
      <trkpt lat="42.63015" lon="-0.32637">
        <time>2022-07-29T09:55:04Z</time>
      </trkpt>
      <trkpt lat="42.63011" lon="-0.3265">
        <time>2022-07-29T09:55:05Z</time>
      </trkpt>
      <trkpt lat="42.63009" lon="-0.32661">
        <time>2022-07-29T09:55:06Z</time>
      </trkpt>
      <trkpt lat="42.63007" lon="-0.32672">
        <time>2022-07-29T09:55:07Z</time>
      </trkpt>
      <trkpt lat="42.63007" lon="-0.32683">
        <time>2022-07-29T09:55:08Z</time>
      </trkpt>
      <trkpt lat="42.63009" lon="-0.32692">
        <time>2022-07-29T09:55:09Z</time>
      </trkpt>
      <trkpt lat="42.63012" lon="-0.32702">
        <time>2022-07-29T09:55:10Z</time>
      </trkpt>
      <trkpt lat="42.63018" lon="-0.32711">
        <time>2022-07-29T09:55:11Z</time>
      </trkpt>
      <trkpt lat="42.63026" lon="-0.32718">
        <time>2022-07-29T09:55:12Z</time>
      </trkpt>
      <trkpt lat="42.63035" lon="-0.32724">
        <time>2022-07-29T09:55:13Z</time>
      </trkpt>
      <trkpt lat="42.63045" lon="-0.32731">
        <time>2022-07-29T09:55:14Z</time>
      </trkpt>
      <trkpt lat="42.63055" lon="-0.3274">
        <time>2022-07-29T09:55:15Z</time>
      </trkpt>
      <trkpt lat="42.63063" lon="-0.3275">
        <time>2022-07-29T09:55:16Z</time>
      </trkpt>
      <trkpt lat="42.63072" lon="-0.3276">
        <time>2022-07-29T09:55:17Z</time>
      </trkpt>
      <trkpt lat="42.63082" lon="-0.32768">
        <time>2022-07-29T09:55:18Z</time>
      </trkpt>
      <trkpt lat="42.63092" lon="-0.32775">
        <time>2022-07-29T09:55:19Z</time>
      </trkpt>
      <trkpt lat="42.63103" lon="-0.32781">
        <time>2022-07-29T09:55:20Z</time>
      </trkpt>
      <trkpt lat="42.63115" lon="-0.32786">
        <time>2022-07-29T09:55:21Z</time>
      </trkpt>
      <trkpt lat="42.63128" lon="-0.32789">
        <time>2022-07-29T09:55:22Z</time>
      </trkpt>
      <trkpt lat="42.6314" lon="-0.3279">
        <time>2022-07-29T09:55:23Z</time>
      </trkpt>
      <trkpt lat="42.63151" lon="-0.32791">
        <time>2022-07-29T09:55:24Z</time>
      </trkpt>
      <trkpt lat="42.63162" lon="-0.3279">
        <time>2022-07-29T09:55:25Z</time>
      </trkpt>
      <trkpt lat="42.63173" lon="-0.32791">
        <time>2022-07-29T09:55:26Z</time>
      </trkpt>
      <trkpt lat="42.63185" lon="-0.32792">
        <time>2022-07-29T09:55:27Z</time>
      </trkpt>
      <trkpt lat="42.63198" lon="-0.32792">
        <time>2022-07-29T09:55:28Z</time>
      </trkpt>
      <trkpt lat="42.63212" lon="-0.32792">
        <time>2022-07-29T09:55:29Z</time>
      </trkpt>
      <trkpt lat="42.63227" lon="-0.32792">
        <time>2022-07-29T09:55:30Z</time>
      </trkpt>
      <trkpt lat="42.63242" lon="-0.32792">
        <time>2022-07-29T09:55:31Z</time>
      </trkpt>
      <trkpt lat="42.63257" lon="-0.3279">
        <time>2022-07-29T09:55:32Z</time>
      </trkpt>
      <trkpt lat="42.63271" lon="-0.32787">
        <time>2022-07-29T09:55:33Z</time>
      </trkpt>
      <trkpt lat="42.63287" lon="-0.32783">
        <time>2022-07-29T09:55:34Z</time>
      </trkpt>
      <trkpt lat="42.63302" lon="-0.32777">
        <time>2022-07-29T09:55:35Z</time>
      </trkpt>
      <trkpt lat="42.63318" lon="-0.3277">
        <time>2022-07-29T09:55:36Z</time>
      </trkpt>
      <trkpt lat="42.63333" lon="-0.32762">
        <time>2022-07-29T09:55:37Z</time>
      </trkpt>
      <trkpt lat="42.63347" lon="-0.32754">
        <time>2022-07-29T09:55:38Z</time>
      </trkpt>
      <trkpt lat="42.63361" lon="-0.32745">
        <time>2022-07-29T09:55:39Z</time>
      </trkpt>
      <trkpt lat="42.63375" lon="-0.32737">
        <time>2022-07-29T09:55:40Z</time>
      </trkpt>
      <trkpt lat="42.63389" lon="-0.3273">
        <time>2022-07-29T09:55:41Z</time>
      </trkpt>
      <trkpt lat="42.63403" lon="-0.32725">
        <time>2022-07-29T09:55:42Z</time>
      </trkpt>
      <trkpt lat="42.63417" lon="-0.32722">
        <time>2022-07-29T09:55:43Z</time>
      </trkpt>
      <trkpt lat="42.63431" lon="-0.32722">
        <time>2022-07-29T09:55:44Z</time>
      </trkpt>
      <trkpt lat="42.63446" lon="-0.32722">
        <time>2022-07-29T09:55:45Z</time>
      </trkpt>
      <trkpt lat="42.63461" lon="-0.32725">
        <time>2022-07-29T09:55:46Z</time>
      </trkpt>
      <trkpt lat="42.63476" lon="-0.32729">
        <time>2022-07-29T09:55:47Z</time>
      </trkpt>
      <trkpt lat="42.63492" lon="-0.32733">
        <time>2022-07-29T09:55:48Z</time>
      </trkpt>
      <trkpt lat="42.63508" lon="-0.32735">
        <time>2022-07-29T09:55:49Z</time>
      </trkpt>
      <trkpt lat="42.63524" lon="-0.32735">
        <time>2022-07-29T09:55:50Z</time>
      </trkpt>
      <trkpt lat="42.6354" lon="-0.32733">
        <time>2022-07-29T09:55:51Z</time>
      </trkpt>
      <trkpt lat="42.63556" lon="-0.32727">
        <time>2022-07-29T09:55:52Z</time>
      </trkpt>
      <trkpt lat="42.6357" lon="-0.32718">
        <time>2022-07-29T09:55:53Z</time>
      </trkpt>
      <trkpt lat="42.63583" lon="-0.32706">
        <time>2022-07-29T09:55:54Z</time>
      </trkpt>
      <trkpt lat="42.63596" lon="-0.32693">
        <time>2022-07-29T09:55:55Z</time>
      </trkpt>
      <trkpt lat="42.63609" lon="-0.3268">
        <time>2022-07-29T09:55:56Z</time>
      </trkpt>
      <trkpt lat="42.63621" lon="-0.32666">
        <time>2022-07-29T09:55:57Z</time>
      </trkpt>
      <trkpt lat="42.63633" lon="-0.32653">
        <time>2022-07-29T09:55:58Z</time>
      </trkpt>
      <trkpt lat="42.63646" lon="-0.32641">
        <time>2022-07-29T09:55:59Z</time>
      </trkpt>
      <trkpt lat="42.6366" lon="-0.32632">
        <time>2022-07-29T09:56:00Z</time>
      </trkpt>
      <trkpt lat="42.63674" lon="-0.32625">
        <time>2022-07-29T09:56:01Z</time>
      </trkpt>
      <trkpt lat="42.6369" lon="-0.32619">
        <time>2022-07-29T09:56:02Z</time>
      </trkpt>
      <trkpt lat="42.63706" lon="-0.32616">
        <time>2022-07-29T09:56:03Z</time>
      </trkpt>
      <trkpt lat="42.63721" lon="-0.32614">
        <time>2022-07-29T09:56:04Z</time>
      </trkpt>
      <trkpt lat="42.63738" lon="-0.32613">
        <time>2022-07-29T09:56:05Z</time>
      </trkpt>
      <trkpt lat="42.63755" lon="-0.32612">
        <time>2022-07-29T09:56:06Z</time>
      </trkpt>
      <trkpt lat="42.63773" lon="-0.3261">
        <time>2022-07-29T09:56:07Z</time>
      </trkpt>
      <trkpt lat="42.6379" lon="-0.32608">
        <time>2022-07-29T09:56:08Z</time>
      </trkpt>
      <trkpt lat="42.63809" lon="-0.32605">
        <time>2022-07-29T09:56:09Z</time>
      </trkpt>
      <trkpt lat="42.63827" lon="-0.32601">
        <time>2022-07-29T09:56:10Z</time>
      </trkpt>
      <trkpt lat="42.63846" lon="-0.32595">
        <time>2022-07-29T09:56:11Z</time>
      </trkpt>
      <trkpt lat="42.63866" lon="-0.32588">
        <time>2022-07-29T09:56:12Z</time>
      </trkpt>
      <trkpt lat="42.63888" lon="-0.3258">
        <time>2022-07-29T09:56:13Z</time>
      </trkpt>
      <trkpt lat="42.6391" lon="-0.32569">
        <time>2022-07-29T09:56:14Z</time>
      </trkpt>
      <trkpt lat="42.63932" lon="-0.32556">
        <time>2022-07-29T09:56:15Z</time>
      </trkpt>
      <trkpt lat="42.63954" lon="-0.32543">
        <time>2022-07-29T09:56:16Z</time>
      </trkpt>
      <trkpt lat="42.63975" lon="-0.3253">
        <time>2022-07-29T09:56:17Z</time>
      </trkpt>
      <trkpt lat="42.63994" lon="-0.32516">
        <time>2022-07-29T09:56:18Z</time>
      </trkpt>
      <trkpt lat="42.64013" lon="-0.32502">
        <time>2022-07-29T09:56:19Z</time>
      </trkpt>
      <trkpt lat="42.6403" lon="-0.32486">
        <time>2022-07-29T09:56:20Z</time>
      </trkpt>
      <trkpt lat="42.64046" lon="-0.32469">
        <time>2022-07-29T09:56:21Z</time>
      </trkpt>
      <trkpt lat="42.6406" lon="-0.32452">
        <time>2022-07-29T09:56:22Z</time>
      </trkpt>
      <trkpt lat="42.64075" lon="-0.32435">
        <time>2022-07-29T09:56:23Z</time>
      </trkpt>
      <trkpt lat="42.64089" lon="-0.32418">
        <time>2022-07-29T09:56:24Z</time>
      </trkpt>
      <trkpt lat="42.64104" lon="-0.32403">
        <time>2022-07-29T09:56:25Z</time>
      </trkpt>
      <trkpt lat="42.6412" lon="-0.32389">
        <time>2022-07-29T09:56:26Z</time>
      </trkpt>
      <trkpt lat="42.64138" lon="-0.32379">
        <time>2022-07-29T09:56:27Z</time>
      </trkpt>
      <trkpt lat="42.64156" lon="-0.3237">
        <time>2022-07-29T09:56:28Z</time>
      </trkpt>
      <trkpt lat="42.64175" lon="-0.32366">
        <time>2022-07-29T09:56:29Z</time>
      </trkpt>
      <trkpt lat="42.64194" lon="-0.32366">
        <time>2022-07-29T09:56:30Z</time>
      </trkpt>
      <trkpt lat="42.64212" lon="-0.3237">
        <time>2022-07-29T09:56:31Z</time>
      </trkpt>
      <trkpt lat="42.6423" lon="-0.32376">
        <time>2022-07-29T09:56:32Z</time>
      </trkpt>
      <trkpt lat="42.64246" lon="-0.32383">
        <time>2022-07-29T09:56:33Z</time>
      </trkpt>
      <trkpt lat="42.64263" lon="-0.32391">
        <time>2022-07-29T09:56:34Z</time>
      </trkpt>
      <trkpt lat="42.6428" lon="-0.32399">
        <time>2022-07-29T09:56:35Z</time>
      </trkpt>
      <trkpt lat="42.64298" lon="-0.32405">
        <time>2022-07-29T09:56:36Z</time>
      </trkpt>
      <trkpt lat="42.64317" lon="-0.32409">
        <time>2022-07-29T09:56:37Z</time>
      </trkpt>
      <trkpt lat="42.64336" lon="-0.3241">
        <time>2022-07-29T09:56:38Z</time>
      </trkpt>
      <trkpt lat="42.64354" lon="-0.32409">
        <time>2022-07-29T09:56:39Z</time>
      </trkpt>
      <trkpt lat="42.64372" lon="-0.32405">
        <time>2022-07-29T09:56:40Z</time>
      </trkpt>
      <trkpt lat="42.64389" lon="-0.324">
        <time>2022-07-29T09:56:41Z</time>
      </trkpt>
      <trkpt lat="42.64406" lon="-0.32395">
        <time>2022-07-29T09:56:42Z</time>
      </trkpt>
      <trkpt lat="42.64421" lon="-0.3239">
        <time>2022-07-29T09:56:43Z</time>
      </trkpt>
      <trkpt lat="42.64437" lon="-0.32385">
        <time>2022-07-29T09:56:44Z</time>
      </trkpt>
      <trkpt lat="42.64453" lon="-0.3238">
        <time>2022-07-29T09:56:45Z</time>
      </trkpt>
      <trkpt lat="42.64469" lon="-0.32375">
        <time>2022-07-29T09:56:46Z</time>
      </trkpt>
      <trkpt lat="42.64485" lon="-0.32369">
        <time>2022-07-29T09:56:47Z</time>
      </trkpt>
      <trkpt lat="42.64501" lon="-0.32362">
        <time>2022-07-29T09:56:48Z</time>
      </trkpt>
      <trkpt lat="42.64516" lon="-0.32355">
        <time>2022-07-29T09:56:49Z</time>
      </trkpt>
      <trkpt lat="42.6453" lon="-0.32346">
        <time>2022-07-29T09:56:50Z</time>
      </trkpt>
      <trkpt lat="42.64543" lon="-0.32335">
        <time>2022-07-29T09:56:51Z</time>
      </trkpt>
      <trkpt lat="42.64556" lon="-0.32322">
        <time>2022-07-29T09:56:52Z</time>
      </trkpt>
      <trkpt lat="42.64568" lon="-0.32306">
        <time>2022-07-29T09:56:53Z</time>
      </trkpt>
      <trkpt lat="42.64579" lon="-0.32289">
        <time>2022-07-29T09:56:54Z</time>
      </trkpt>
      <trkpt lat="42.6459" lon="-0.32271">
        <time>2022-07-29T09:56:55Z</time>
      </trkpt>
      <trkpt lat="42.64602" lon="-0.32253">
        <time>2022-07-29T09:56:56Z</time>
      </trkpt>
      <trkpt lat="42.64615" lon="-0.32238">
        <time>2022-07-29T09:56:57Z</time>
      </trkpt>
      <trkpt lat="42.64628" lon="-0.32223">
        <time>2022-07-29T09:56:58Z</time>
      </trkpt>
      <trkpt lat="42.64642" lon="-0.32212">
        <time>2022-07-29T09:56:59Z</time>
      </trkpt>
      <trkpt lat="42.64657" lon="-0.32202">
        <time>2022-07-29T09:57:00Z</time>
      </trkpt>
      <trkpt lat="42.64672" lon="-0.32192">
        <time>2022-07-29T09:57:01Z</time>
      </trkpt>
      <trkpt lat="42.64688" lon="-0.32182">
        <time>2022-07-29T09:57:02Z</time>
      </trkpt>
      <trkpt lat="42.64703" lon="-0.32171">
        <time>2022-07-29T09:57:03Z</time>
      </trkpt>
      <trkpt lat="42.64719" lon="-0.3216">
        <time>2022-07-29T09:57:04Z</time>
      </trkpt>
      <trkpt lat="42.64734" lon="-0.32148">
        <time>2022-07-29T09:57:05Z</time>
      </trkpt>
      <trkpt lat="42.64749" lon="-0.32135">
        <time>2022-07-29T09:57:06Z</time>
      </trkpt>
      <trkpt lat="42.64763" lon="-0.32121">
        <time>2022-07-29T09:57:07Z</time>
      </trkpt>
      <trkpt lat="42.64777" lon="-0.32107">
        <time>2022-07-29T09:57:08Z</time>
      </trkpt>
      <trkpt lat="42.6479" lon="-0.32093">
        <time>2022-07-29T09:57:09Z</time>
      </trkpt>
      <trkpt lat="42.64803" lon="-0.32079">
        <time>2022-07-29T09:57:10Z</time>
      </trkpt>
      <trkpt lat="42.64816" lon="-0.32064">
        <time>2022-07-29T09:57:11Z</time>
      </trkpt>
      <trkpt lat="42.64829" lon="-0.32048">
        <time>2022-07-29T09:57:12Z</time>
      </trkpt>
      <trkpt lat="42.64844" lon="-0.32034">
        <time>2022-07-29T09:57:13Z</time>
      </trkpt>
      <trkpt lat="42.64858" lon="-0.3202">
        <time>2022-07-29T09:57:14Z</time>
      </trkpt>
      <trkpt lat="42.64873" lon="-0.32007">
        <time>2022-07-29T09:57:15Z</time>
      </trkpt>
      <trkpt lat="42.64889" lon="-0.31995">
        <time>2022-07-29T09:57:16Z</time>
      </trkpt>
      <trkpt lat="42.64905" lon="-0.31984">
        <time>2022-07-29T09:57:17Z</time>
      </trkpt>
      <trkpt lat="42.6492" lon="-0.31974">
        <time>2022-07-29T09:57:18Z</time>
      </trkpt>
      <trkpt lat="42.64935" lon="-0.31965">
        <time>2022-07-29T09:57:19Z</time>
      </trkpt>
      <trkpt lat="42.64949" lon="-0.31955">
        <time>2022-07-29T09:57:20Z</time>
      </trkpt>
      <trkpt lat="42.64963" lon="-0.31946">
        <time>2022-07-29T09:57:21Z</time>
      </trkpt>
      <trkpt lat="42.64978" lon="-0.31937">
        <time>2022-07-29T09:57:22Z</time>
      </trkpt>
      <trkpt lat="42.64993" lon="-0.31928">
        <time>2022-07-29T09:57:23Z</time>
      </trkpt>
      <trkpt lat="42.65008" lon="-0.31919">
        <time>2022-07-29T09:57:24Z</time>
      </trkpt>
      <trkpt lat="42.65023" lon="-0.31912">
        <time>2022-07-29T09:57:25Z</time>
      </trkpt>
      <trkpt lat="42.65039" lon="-0.31906">
        <time>2022-07-29T09:57:26Z</time>
      </trkpt>
      <trkpt lat="42.65055" lon="-0.31904">
        <time>2022-07-29T09:57:27Z</time>
      </trkpt>
      <trkpt lat="42.65072" lon="-0.31904">
        <time>2022-07-29T09:57:28Z</time>
      </trkpt>
      <trkpt lat="42.65087" lon="-0.31908">
        <time>2022-07-29T09:57:29Z</time>
      </trkpt>
      <trkpt lat="42.65102" lon="-0.31915">
        <time>2022-07-29T09:57:30Z</time>
      </trkpt>
      <trkpt lat="42.65117" lon="-0.31924">
        <time>2022-07-29T09:57:31Z</time>
      </trkpt>
      <trkpt lat="42.65131" lon="-0.31936">
        <time>2022-07-29T09:57:32Z</time>
      </trkpt>
      <trkpt lat="42.65145" lon="-0.31947">
        <time>2022-07-29T09:57:33Z</time>
      </trkpt>
      <trkpt lat="42.65159" lon="-0.31958">
        <time>2022-07-29T09:57:34Z</time>
      </trkpt>
      <trkpt lat="42.65174" lon="-0.31968">
        <time>2022-07-29T09:57:35Z</time>
      </trkpt>
      <trkpt lat="42.6519" lon="-0.31976">
        <time>2022-07-29T09:57:36Z</time>
      </trkpt>
      <trkpt lat="42.65207" lon="-0.3198">
        <time>2022-07-29T09:57:37Z</time>
      </trkpt>
      <trkpt lat="42.65223" lon="-0.31981">
        <time>2022-07-29T09:57:38Z</time>
      </trkpt>
      <trkpt lat="42.65239" lon="-0.31982">
        <time>2022-07-29T09:57:39Z</time>
      </trkpt>
      <trkpt lat="42.65256" lon="-0.31982">
        <time>2022-07-29T09:57:40Z</time>
      </trkpt>
      <trkpt lat="42.65271" lon="-0.31982">
        <time>2022-07-29T09:57:41Z</time>
      </trkpt>
      <trkpt lat="42.65287" lon="-0.31982">
        <time>2022-07-29T09:57:42Z</time>
      </trkpt>
      <trkpt lat="42.65302" lon="-0.31982">
        <time>2022-07-29T09:57:43Z</time>
      </trkpt>
      <trkpt lat="42.65316" lon="-0.31983">
        <time>2022-07-29T09:57:44Z</time>
      </trkpt>
      <trkpt lat="42.65331" lon="-0.31984">
        <time>2022-07-29T09:57:45Z</time>
      </trkpt>
      <trkpt lat="42.65345" lon="-0.31986">
        <time>2022-07-29T09:57:46Z</time>
      </trkpt>
      <trkpt lat="42.6536" lon="-0.31987">
        <time>2022-07-29T09:57:47Z</time>
      </trkpt>
      <trkpt lat="42.65376" lon="-0.31987">
        <time>2022-07-29T09:57:48Z</time>
      </trkpt>
      <trkpt lat="42.65393" lon="-0.31986">
        <time>2022-07-29T09:57:49Z</time>
      </trkpt>
      <trkpt lat="42.6541" lon="-0.31984">
        <time>2022-07-29T09:57:50Z</time>
      </trkpt>
      <trkpt lat="42.65427" lon="-0.31981">
        <time>2022-07-29T09:57:51Z</time>
      </trkpt>
      <trkpt lat="42.65444" lon="-0.31976">
        <time>2022-07-29T09:57:52Z</time>
      </trkpt>
      <trkpt lat="42.65462" lon="-0.31971">
        <time>2022-07-29T09:57:53Z</time>
      </trkpt>
      <trkpt lat="42.65479" lon="-0.31966">
        <time>2022-07-29T09:57:54Z</time>
      </trkpt>
      <trkpt lat="42.65496" lon="-0.3196">
        <time>2022-07-29T09:57:55Z</time>
      </trkpt>
      <trkpt lat="42.65514" lon="-0.31955">
        <time>2022-07-29T09:57:56Z</time>
      </trkpt>
      <trkpt lat="42.65532" lon="-0.31952">
        <time>2022-07-29T09:57:57Z</time>
      </trkpt>
      <trkpt lat="42.6555" lon="-0.3195">
        <time>2022-07-29T09:57:58Z</time>
      </trkpt>
      <trkpt lat="42.65567" lon="-0.3195">
        <time>2022-07-29T09:57:59Z</time>
      </trkpt>
      <trkpt lat="42.65585" lon="-0.31951">
        <time>2022-07-29T09:58:00Z</time>
      </trkpt>
      <trkpt lat="42.65601" lon="-0.31953">
        <time>2022-07-29T09:58:01Z</time>
      </trkpt>
      <trkpt lat="42.65617" lon="-0.31957">
        <time>2022-07-29T09:58:02Z</time>
      </trkpt>
      <trkpt lat="42.65633" lon="-0.31963">
        <time>2022-07-29T09:58:03Z</time>
      </trkpt>
      <trkpt lat="42.65649" lon="-0.31971">
        <time>2022-07-29T09:58:04Z</time>
      </trkpt>
      <trkpt lat="42.65664" lon="-0.3198">
        <time>2022-07-29T09:58:05Z</time>
      </trkpt>
      <trkpt lat="42.65679" lon="-0.31991">
        <time>2022-07-29T09:58:06Z</time>
      </trkpt>
      <trkpt lat="42.65693" lon="-0.32004">
        <time>2022-07-29T09:58:07Z</time>
      </trkpt>
      <trkpt lat="42.65706" lon="-0.32019">
        <time>2022-07-29T09:58:08Z</time>
      </trkpt>
      <trkpt lat="42.65717" lon="-0.32038">
        <time>2022-07-29T09:58:09Z</time>
      </trkpt>
      <trkpt lat="42.65725" lon="-0.32057">
        <time>2022-07-29T09:58:10Z</time>
      </trkpt>
      <trkpt lat="42.65732" lon="-0.32076">
        <time>2022-07-29T09:58:11Z</time>
      </trkpt>
      <trkpt lat="42.65736" lon="-0.32095">
        <time>2022-07-29T09:58:12Z</time>
      </trkpt>
      <trkpt lat="42.6574" lon="-0.32114">
        <time>2022-07-29T09:58:13Z</time>
      </trkpt>
      <trkpt lat="42.65743" lon="-0.32132">
        <time>2022-07-29T09:58:14Z</time>
      </trkpt>
      <trkpt lat="42.65747" lon="-0.32151">
        <time>2022-07-29T09:58:15Z</time>
      </trkpt>
      <trkpt lat="42.6575" lon="-0.3217">
        <time>2022-07-29T09:58:16Z</time>
      </trkpt>
      <trkpt lat="42.65754" lon="-0.32191">
        <time>2022-07-29T09:58:17Z</time>
      </trkpt>
      <trkpt lat="42.6576" lon="-0.32211">
        <time>2022-07-29T09:58:18Z</time>
      </trkpt>
      <trkpt lat="42.65767" lon="-0.32228">
        <time>2022-07-29T09:58:19Z</time>
      </trkpt>
      <trkpt lat="42.65775" lon="-0.32243">
        <time>2022-07-29T09:58:20Z</time>
      </trkpt>
      <trkpt lat="42.65783" lon="-0.32256">
        <time>2022-07-29T09:58:21Z</time>
      </trkpt>
      <trkpt lat="42.65792" lon="-0.32268">
        <time>2022-07-29T09:58:22Z</time>
      </trkpt>
      <trkpt lat="42.658" lon="-0.32279">
        <time>2022-07-29T09:58:23Z</time>
      </trkpt>
      <trkpt lat="42.6581" lon="-0.32288">
        <time>2022-07-29T09:58:24Z</time>
      </trkpt>
      <trkpt lat="42.6582" lon="-0.32298">
        <time>2022-07-29T09:58:25Z</time>
      </trkpt>
      <trkpt lat="42.65831" lon="-0.32308">
        <time>2022-07-29T09:58:26Z</time>
      </trkpt>
      <trkpt lat="42.65842" lon="-0.32319">
        <time>2022-07-29T09:58:27Z</time>
      </trkpt>
      <trkpt lat="42.65853" lon="-0.3233">
        <time>2022-07-29T09:58:28Z</time>
      </trkpt>
      <trkpt lat="42.65863" lon="-0.3234">
        <time>2022-07-29T09:58:29Z</time>
      </trkpt>
      <trkpt lat="42.65874" lon="-0.3235">
        <time>2022-07-29T09:58:30Z</time>
      </trkpt>
      <trkpt lat="42.65884" lon="-0.32359">
        <time>2022-07-29T09:58:31Z</time>
      </trkpt>
      <trkpt lat="42.65895" lon="-0.32367">
        <time>2022-07-29T09:58:32Z</time>
      </trkpt>
      <trkpt lat="42.65906" lon="-0.32374">
        <time>2022-07-29T09:58:33Z</time>
      </trkpt>
      <trkpt lat="42.65917" lon="-0.32378">
        <time>2022-07-29T09:58:34Z</time>
      </trkpt>
      <trkpt lat="42.65929" lon="-0.32379">
        <time>2022-07-29T09:58:35Z</time>
      </trkpt>
      <trkpt lat="42.65941" lon="-0.32378">
        <time>2022-07-29T09:58:36Z</time>
      </trkpt>
      <trkpt lat="42.65953" lon="-0.32376">
        <time>2022-07-29T09:58:37Z</time>
      </trkpt>
      <trkpt lat="42.65965" lon="-0.32375">
        <time>2022-07-29T09:58:38Z</time>
      </trkpt>
      <trkpt lat="42.65977" lon="-0.32376">
        <time>2022-07-29T09:58:39Z</time>
      </trkpt>
      <trkpt lat="42.65989" lon="-0.32379">
        <time>2022-07-29T09:58:40Z</time>
      </trkpt>
      <trkpt lat="42.66002" lon="-0.32382">
        <time>2022-07-29T09:58:41Z</time>
      </trkpt>
      <trkpt lat="42.66015" lon="-0.32382">
        <time>2022-07-29T09:58:42Z</time>
      </trkpt>
      <trkpt lat="42.66029" lon="-0.3238">
        <time>2022-07-29T09:58:43Z</time>
      </trkpt>
      <trkpt lat="42.66045" lon="-0.32378">
        <time>2022-07-29T09:58:44Z</time>
      </trkpt>
      <trkpt lat="42.66062" lon="-0.32378">
        <time>2022-07-29T09:58:45Z</time>
      </trkpt>
      <trkpt lat="42.66079" lon="-0.32378">
        <time>2022-07-29T09:58:46Z</time>
      </trkpt>
      <trkpt lat="42.66095" lon="-0.3238">
        <time>2022-07-29T09:58:47Z</time>
      </trkpt>
      <trkpt lat="42.66112" lon="-0.32382">
        <time>2022-07-29T09:58:48Z</time>
      </trkpt>
      <trkpt lat="42.66128" lon="-0.32385">
        <time>2022-07-29T09:58:49Z</time>
      </trkpt>
      <trkpt lat="42.66143" lon="-0.32388">
        <time>2022-07-29T09:58:50Z</time>
      </trkpt>
      <trkpt lat="42.6616" lon="-0.32391">
        <time>2022-07-29T09:58:51Z</time>
      </trkpt>
      <trkpt lat="42.66177" lon="-0.32392">
        <time>2022-07-29T09:58:52Z</time>
      </trkpt>
      <trkpt lat="42.66197" lon="-0.32392">
        <time>2022-07-29T09:58:53Z</time>
      </trkpt>
      <trkpt lat="42.66217" lon="-0.32391">
        <time>2022-07-29T09:58:54Z</time>
      </trkpt>
      <trkpt lat="42.66238" lon="-0.32387">
        <time>2022-07-29T09:58:55Z</time>
      </trkpt>
      <trkpt lat="42.66259" lon="-0.3238">
        <time>2022-07-29T09:58:56Z</time>
      </trkpt>
      <trkpt lat="42.66279" lon="-0.32371">
        <time>2022-07-29T09:58:57Z</time>
      </trkpt>
      <trkpt lat="42.66301" lon="-0.32359">
        <time>2022-07-29T09:58:58Z</time>
      </trkpt>
      <trkpt lat="42.66322" lon="-0.32347">
        <time>2022-07-29T09:58:59Z</time>
      </trkpt>
      <trkpt lat="42.66345" lon="-0.32334">
        <time>2022-07-29T09:59:00Z</time>
      </trkpt>
      <trkpt lat="42.66367" lon="-0.32322">
        <time>2022-07-29T09:59:01Z</time>
      </trkpt>
      <trkpt lat="42.6639" lon="-0.32312">
        <time>2022-07-29T09:59:02Z</time>
      </trkpt>
      <trkpt lat="42.66414" lon="-0.32302">
        <time>2022-07-29T09:59:03Z</time>
      </trkpt>
      <trkpt lat="42.66438" lon="-0.32291">
        <time>2022-07-29T09:59:04Z</time>
      </trkpt>
      <trkpt lat="42.66463" lon="-0.32281">
        <time>2022-07-29T09:59:05Z</time>
      </trkpt>
      <trkpt lat="42.66487" lon="-0.32271">
        <time>2022-07-29T09:59:06Z</time>
      </trkpt>
      <trkpt lat="42.6651" lon="-0.32262">
        <time>2022-07-29T09:59:07Z</time>
      </trkpt>
      <trkpt lat="42.66532" lon="-0.32253">
        <time>2022-07-29T09:59:08Z</time>
      </trkpt>
      <trkpt lat="42.66554" lon="-0.32244">
        <time>2022-07-29T09:59:09Z</time>
      </trkpt>
      <trkpt lat="42.66575" lon="-0.32236">
        <time>2022-07-29T09:59:10Z</time>
      </trkpt>
      <trkpt lat="42.66596" lon="-0.32228">
        <time>2022-07-29T09:59:11Z</time>
      </trkpt>
      <trkpt lat="42.66617" lon="-0.32222">
        <time>2022-07-29T09:59:12Z</time>
      </trkpt>
      <trkpt lat="42.66637" lon="-0.32215">
        <time>2022-07-29T09:59:13Z</time>
      </trkpt>
      <trkpt lat="42.66658" lon="-0.32209">
        <time>2022-07-29T09:59:14Z</time>
      </trkpt>
      <trkpt lat="42.66678" lon="-0.32203">
        <time>2022-07-29T09:59:15Z</time>
      </trkpt>
      <trkpt lat="42.66698" lon="-0.32196">
        <time>2022-07-29T09:59:16Z</time>
      </trkpt>
      <trkpt lat="42.66718" lon="-0.3219">
        <time>2022-07-29T09:59:17Z</time>
      </trkpt>
      <trkpt lat="42.66737" lon="-0.32185">
        <time>2022-07-29T09:59:18Z</time>
      </trkpt>
      <trkpt lat="42.66757" lon="-0.3218">
        <time>2022-07-29T09:59:19Z</time>
      </trkpt>
      <trkpt lat="42.66775" lon="-0.32176">
        <time>2022-07-29T09:59:20Z</time>
      </trkpt>
      <trkpt lat="42.66794" lon="-0.32175">
        <time>2022-07-29T09:59:21Z</time>
      </trkpt>
      <trkpt lat="42.66813" lon="-0.32177">
        <time>2022-07-29T09:59:22Z</time>
      </trkpt>
      <trkpt lat="42.6683" lon="-0.32183">
        <time>2022-07-29T09:59:23Z</time>
      </trkpt>
      <trkpt lat="42.66847" lon="-0.32191">
        <time>2022-07-29T09:59:24Z</time>
      </trkpt>
      <trkpt lat="42.66863" lon="-0.32202">
        <time>2022-07-29T09:59:25Z</time>
      </trkpt>
      <trkpt lat="42.66879" lon="-0.32214">
        <time>2022-07-29T09:59:26Z</time>
      </trkpt>
      <trkpt lat="42.66894" lon="-0.32224">
        <time>2022-07-29T09:59:27Z</time>
      </trkpt>
      <trkpt lat="42.6691" lon="-0.32234">
        <time>2022-07-29T09:59:28Z</time>
      </trkpt>
      <trkpt lat="42.66926" lon="-0.32243">
        <time>2022-07-29T09:59:29Z</time>
      </trkpt>
      <trkpt lat="42.66942" lon="-0.32248">
        <time>2022-07-29T09:59:30Z</time>
      </trkpt>
      <trkpt lat="42.66957" lon="-0.32252">
        <time>2022-07-29T09:59:31Z</time>
      </trkpt>
      <trkpt lat="42.66973" lon="-0.32253">
        <time>2022-07-29T09:59:32Z</time>
      </trkpt>
      <trkpt lat="42.66989" lon="-0.32252">
        <time>2022-07-29T09:59:33Z</time>
      </trkpt>
      <trkpt lat="42.67004" lon="-0.3225">
        <time>2022-07-29T09:59:34Z</time>
      </trkpt>
      <trkpt lat="42.67019" lon="-0.32245">
        <time>2022-07-29T09:59:35Z</time>
      </trkpt>
      <trkpt lat="42.67034" lon="-0.32241">
        <time>2022-07-29T09:59:36Z</time>
      </trkpt>
      <trkpt lat="42.67048" lon="-0.32237">
        <time>2022-07-29T09:59:37Z</time>
      </trkpt>
      <trkpt lat="42.67062" lon="-0.32233">
        <time>2022-07-29T09:59:38Z</time>
      </trkpt>
      <trkpt lat="42.67075" lon="-0.32231">
        <time>2022-07-29T09:59:39Z</time>
      </trkpt>
      <trkpt lat="42.67088" lon="-0.3223">
        <time>2022-07-29T09:59:40Z</time>
      </trkpt>
      <trkpt lat="42.671" lon="-0.32232">
        <time>2022-07-29T09:59:41Z</time>
      </trkpt>
      <trkpt lat="42.6711" lon="-0.32235">
        <time>2022-07-29T09:59:42Z</time>
      </trkpt>
      <trkpt lat="42.67121" lon="-0.32238">
        <time>2022-07-29T09:59:43Z</time>
      </trkpt>
      <trkpt lat="42.67132" lon="-0.32243">
        <time>2022-07-29T09:59:44Z</time>
      </trkpt>
      <trkpt lat="42.67143" lon="-0.32247">
        <time>2022-07-29T09:59:45Z</time>
      </trkpt>
      <trkpt lat="42.67155" lon="-0.32251">
        <time>2022-07-29T09:59:46Z</time>
      </trkpt>
      <trkpt lat="42.67168" lon="-0.32256">
        <time>2022-07-29T09:59:47Z</time>
      </trkpt>
      <trkpt lat="42.6718" lon="-0.3226">
        <time>2022-07-29T09:59:48Z</time>
      </trkpt>
      <trkpt lat="42.67192" lon="-0.32264">
        <time>2022-07-29T09:59:49Z</time>
      </trkpt>
      <trkpt lat="42.67205" lon="-0.32265">
        <time>2022-07-29T09:59:50Z</time>
      </trkpt>
      <trkpt lat="42.67218" lon="-0.32266">
        <time>2022-07-29T09:59:51Z</time>
      </trkpt>
      <trkpt lat="42.67231" lon="-0.32266">
        <time>2022-07-29T09:59:52Z</time>
      </trkpt>
      <trkpt lat="42.67245" lon="-0.32266">
        <time>2022-07-29T09:59:53Z</time>
      </trkpt>
      <trkpt lat="42.67259" lon="-0.32265">
        <time>2022-07-29T09:59:54Z</time>
      </trkpt>
      <trkpt lat="42.67274" lon="-0.32263">
        <time>2022-07-29T09:59:55Z</time>
      </trkpt>
      <trkpt lat="42.67292" lon="-0.3226">
        <time>2022-07-29T09:59:56Z</time>
      </trkpt>
      <trkpt lat="42.67308" lon="-0.32259">
        <time>2022-07-29T09:59:57Z</time>
      </trkpt>
      <trkpt lat="42.67325" lon="-0.32258">
        <time>2022-07-29T09:59:58Z</time>
      </trkpt>
      <trkpt lat="42.67341" lon="-0.32258">
        <time>2022-07-29T09:59:59Z</time>
      </trkpt>
      <trkpt lat="42.67357" lon="-0.32259">
        <time>2022-07-29T10:00:00Z</time>
      </trkpt>
      <trkpt lat="42.67372" lon="-0.32262">
        <time>2022-07-29T10:00:01Z</time>
      </trkpt>
      <trkpt lat="42.67386" lon="-0.32264">
        <time>2022-07-29T10:00:02Z</time>
      </trkpt>
      <trkpt lat="42.674" lon="-0.32267">
        <time>2022-07-29T10:00:03Z</time>
      </trkpt>
      <trkpt lat="42.67414" lon="-0.3227">
        <time>2022-07-29T10:00:04Z</time>
      </trkpt>
      <trkpt lat="42.67429" lon="-0.32271">
        <time>2022-07-29T10:00:05Z</time>
      </trkpt>
      <trkpt lat="42.67444" lon="-0.32272">
        <time>2022-07-29T10:00:06Z</time>
      </trkpt>
      <trkpt lat="42.67459" lon="-0.32273">
        <time>2022-07-29T10:00:07Z</time>
      </trkpt>
      <trkpt lat="42.67475" lon="-0.32273">
        <time>2022-07-29T10:00:08Z</time>
      </trkpt>
      <trkpt lat="42.6749" lon="-0.32271">
        <time>2022-07-29T10:00:09Z</time>
      </trkpt>
      <trkpt lat="42.67504" lon="-0.3227">
        <time>2022-07-29T10:00:10Z</time>
      </trkpt>
      <trkpt lat="42.67518" lon="-0.32269">
        <time>2022-07-29T10:00:11Z</time>
      </trkpt>
      <trkpt lat="42.67533" lon="-0.32268">
        <time>2022-07-29T10:00:12Z</time>
      </trkpt>
      <trkpt lat="42.67548" lon="-0.32266">
        <time>2022-07-29T10:00:13Z</time>
      </trkpt>
      <trkpt lat="42.67562" lon="-0.32265">
        <time>2022-07-29T10:00:14Z</time>
      </trkpt>
      <trkpt lat="42.67576" lon="-0.32263">
        <time>2022-07-29T10:00:15Z</time>
      </trkpt>
      <trkpt lat="42.67589" lon="-0.3226">
        <time>2022-07-29T10:00:16Z</time>
      </trkpt>
      <trkpt lat="42.67602" lon="-0.32256">
        <time>2022-07-29T10:00:17Z</time>
      </trkpt>
      <trkpt lat="42.67613" lon="-0.3225">
        <time>2022-07-29T10:00:18Z</time>
      </trkpt>
      <trkpt lat="42.67623" lon="-0.32242">
        <time>2022-07-29T10:00:19Z</time>
      </trkpt>
      <trkpt lat="42.67633" lon="-0.32233">
        <time>2022-07-29T10:00:20Z</time>
      </trkpt>
      <trkpt lat="42.67643" lon="-0.32223">
        <time>2022-07-29T10:00:21Z</time>
      </trkpt>
      <trkpt lat="42.67653" lon="-0.3221">
        <time>2022-07-29T10:00:22Z</time>
      </trkpt>
      <trkpt lat="42.67661" lon="-0.32195">
        <time>2022-07-29T10:00:23Z</time>
      </trkpt>
      <trkpt lat="42.6767" lon="-0.3218">
        <time>2022-07-29T10:00:24Z</time>
      </trkpt>
      <trkpt lat="42.67678" lon="-0.32164">
        <time>2022-07-29T10:00:25Z</time>
      </trkpt>
      <trkpt lat="42.67686" lon="-0.3215">
        <time>2022-07-29T10:00:26Z</time>
      </trkpt>
      <trkpt lat="42.67693" lon="-0.32137">
        <time>2022-07-29T10:00:27Z</time>
      </trkpt>
      <trkpt lat="42.67701" lon="-0.32126">
        <time>2022-07-29T10:00:28Z</time>
      </trkpt>
      <trkpt lat="42.67709" lon="-0.32117">
        <time>2022-07-29T10:00:29Z</time>
      </trkpt>
      <trkpt lat="42.67717" lon="-0.32108">
        <time>2022-07-29T10:00:30Z</time>
      </trkpt>
      <trkpt lat="42.67726" lon="-0.32101">
        <time>2022-07-29T10:00:31Z</time>
      </trkpt>
      <trkpt lat="42.67736" lon="-0.32094">
        <time>2022-07-29T10:00:32Z</time>
      </trkpt>
      <trkpt lat="42.67746" lon="-0.32088">
        <time>2022-07-29T10:00:33Z</time>
      </trkpt>
      <trkpt lat="42.67757" lon="-0.32085">
        <time>2022-07-29T10:00:34Z</time>
      </trkpt>
      <trkpt lat="42.67768" lon="-0.32082">
        <time>2022-07-29T10:00:35Z</time>
      </trkpt>
      <trkpt lat="42.67779" lon="-0.32081">
        <time>2022-07-29T10:00:36Z</time>
      </trkpt>
      <trkpt lat="42.6779" lon="-0.32081">
        <time>2022-07-29T10:00:37Z</time>
      </trkpt>
      <trkpt lat="42.67801" lon="-0.32081">
        <time>2022-07-29T10:00:38Z</time>
      </trkpt>
      <trkpt lat="42.67812" lon="-0.32081">
        <time>2022-07-29T10:00:39Z</time>
      </trkpt>
      <trkpt lat="42.67823" lon="-0.32082">
        <time>2022-07-29T10:00:40Z</time>
      </trkpt>
      <trkpt lat="42.67833" lon="-0.32083">
        <time>2022-07-29T10:00:41Z</time>
      </trkpt>
      <trkpt lat="42.67843" lon="-0.32084">
        <time>2022-07-29T10:00:42Z</time>
      </trkpt>
      <trkpt lat="42.67853" lon="-0.32086">
        <time>2022-07-29T10:00:43Z</time>
      </trkpt>
      <trkpt lat="42.67862" lon="-0.32087">
        <time>2022-07-29T10:00:44Z</time>
      </trkpt>
      <trkpt lat="42.67873" lon="-0.32089">
        <time>2022-07-29T10:00:45Z</time>
      </trkpt>
      <trkpt lat="42.67883" lon="-0.32091">
        <time>2022-07-29T10:00:46Z</time>
      </trkpt>
      <trkpt lat="42.67895" lon="-0.32093">
        <time>2022-07-29T10:00:47Z</time>
      </trkpt>
      <trkpt lat="42.67908" lon="-0.32096">
        <time>2022-07-29T10:00:48Z</time>
      </trkpt>
      <trkpt lat="42.67921" lon="-0.32098">
        <time>2022-07-29T10:00:49Z</time>
      </trkpt>
      <trkpt lat="42.67934" lon="-0.32101">
        <time>2022-07-29T10:00:50Z</time>
      </trkpt>
      <trkpt lat="42.67947" lon="-0.32103">
        <time>2022-07-29T10:00:51Z</time>
      </trkpt>
      <trkpt lat="42.6796" lon="-0.32105">
        <time>2022-07-29T10:00:52Z</time>
      </trkpt>
      <trkpt lat="42.67972" lon="-0.32108">
        <time>2022-07-29T10:00:53Z</time>
      </trkpt>
      <trkpt lat="42.67986" lon="-0.3211">
        <time>2022-07-29T10:00:54Z</time>
      </trkpt>
      <trkpt lat="42.67999" lon="-0.32112">
        <time>2022-07-29T10:00:55Z</time>
      </trkpt>
      <trkpt lat="42.68012" lon="-0.32112">
        <time>2022-07-29T10:00:56Z</time>
      </trkpt>
      <trkpt lat="42.68025" lon="-0.32112">
        <time>2022-07-29T10:00:57Z</time>
      </trkpt>
      <trkpt lat="42.68038" lon="-0.3211">
        <time>2022-07-29T10:00:58Z</time>
      </trkpt>
      <trkpt lat="42.68052" lon="-0.32105">
        <time>2022-07-29T10:00:59Z</time>
      </trkpt>
      <trkpt lat="42.68065" lon="-0.321">
        <time>2022-07-29T10:01:00Z</time>
      </trkpt>
      <trkpt lat="42.68077" lon="-0.32095">
        <time>2022-07-29T10:01:01Z</time>
      </trkpt>
      <trkpt lat="42.6809" lon="-0.32089">
        <time>2022-07-29T10:01:02Z</time>
      </trkpt>
      <trkpt lat="42.68103" lon="-0.32084">
        <time>2022-07-29T10:01:03Z</time>
      </trkpt>
      <trkpt lat="42.68116" lon="-0.32079">
        <time>2022-07-29T10:01:04Z</time>
      </trkpt>
      <trkpt lat="42.6813" lon="-0.32076">
        <time>2022-07-29T10:01:05Z</time>
      </trkpt>
      <trkpt lat="42.68144" lon="-0.32074">
        <time>2022-07-29T10:01:06Z</time>
      </trkpt>
      <trkpt lat="42.68157" lon="-0.32074">
        <time>2022-07-29T10:01:07Z</time>
      </trkpt>
      <trkpt lat="42.68171" lon="-0.32074">
        <time>2022-07-29T10:01:08Z</time>
      </trkpt>
      <trkpt lat="42.68185" lon="-0.32076">
        <time>2022-07-29T10:01:09Z</time>
      </trkpt>
      <trkpt lat="42.68199" lon="-0.32078">
        <time>2022-07-29T10:01:10Z</time>
      </trkpt>
      <trkpt lat="42.68213" lon="-0.32079">
        <time>2022-07-29T10:01:11Z</time>
      </trkpt>
      <trkpt lat="42.68226" lon="-0.32081">
        <time>2022-07-29T10:01:12Z</time>
      </trkpt>
      <trkpt lat="42.68241" lon="-0.32083">
        <time>2022-07-29T10:01:13Z</time>
      </trkpt>
      <trkpt lat="42.68256" lon="-0.32085">
        <time>2022-07-29T10:01:14Z</time>
      </trkpt>
      <trkpt lat="42.68273" lon="-0.32087">
        <time>2022-07-29T10:01:15Z</time>
      </trkpt>
      <trkpt lat="42.68289" lon="-0.32089">
        <time>2022-07-29T10:01:16Z</time>
      </trkpt>
      <trkpt lat="42.68307" lon="-0.3209">
        <time>2022-07-29T10:01:17Z</time>
      </trkpt>
      <trkpt lat="42.68324" lon="-0.3209">
        <time>2022-07-29T10:01:18Z</time>
      </trkpt>
      <trkpt lat="42.68342" lon="-0.32088">
        <time>2022-07-29T10:01:19Z</time>
      </trkpt>
      <trkpt lat="42.68361" lon="-0.32083">
        <time>2022-07-29T10:01:20Z</time>
      </trkpt>
      <trkpt lat="42.6838" lon="-0.32075">
        <time>2022-07-29T10:01:21Z</time>
      </trkpt>
      <trkpt lat="42.68398" lon="-0.32064">
        <time>2022-07-29T10:01:22Z</time>
      </trkpt>
      <trkpt lat="42.68415" lon="-0.32051">
        <time>2022-07-29T10:01:23Z</time>
      </trkpt>
      <trkpt lat="42.6843" lon="-0.32038">
        <time>2022-07-29T10:01:24Z</time>
      </trkpt>
      <trkpt lat="42.68446" lon="-0.32026">
        <time>2022-07-29T10:01:25Z</time>
      </trkpt>
      <trkpt lat="42.68463" lon="-0.32016">
        <time>2022-07-29T10:01:26Z</time>
      </trkpt>
      <trkpt lat="42.6848" lon="-0.32009">
        <time>2022-07-29T10:01:27Z</time>
      </trkpt>
      <trkpt lat="42.68498" lon="-0.32004">
        <time>2022-07-29T10:01:28Z</time>
      </trkpt>
      <trkpt lat="42.68517" lon="-0.32001">
        <time>2022-07-29T10:01:29Z</time>
      </trkpt>
      <trkpt lat="42.68538" lon="-0.32">
        <time>2022-07-29T10:01:30Z</time>
      </trkpt>
      <trkpt lat="42.68561" lon="-0.31999">
        <time>2022-07-29T10:01:31Z</time>
      </trkpt>
      <trkpt lat="42.68585" lon="-0.31997">
        <time>2022-07-29T10:01:32Z</time>
      </trkpt>
      <trkpt lat="42.68611" lon="-0.31994">
        <time>2022-07-29T10:01:33Z</time>
      </trkpt>
      <trkpt lat="42.68637" lon="-0.31991">
        <time>2022-07-29T10:01:34Z</time>
      </trkpt>
      <trkpt lat="42.68661" lon="-0.31988">
        <time>2022-07-29T10:01:35Z</time>
      </trkpt>
      <trkpt lat="42.68684" lon="-0.31984">
        <time>2022-07-29T10:01:36Z</time>
      </trkpt>
      <trkpt lat="42.68707" lon="-0.31981">
        <time>2022-07-29T10:01:37Z</time>
      </trkpt>
      <trkpt lat="42.68728" lon="-0.31979">
        <time>2022-07-29T10:01:38Z</time>
      </trkpt>
      <trkpt lat="42.68749" lon="-0.31976">
        <time>2022-07-29T10:01:39Z</time>
      </trkpt>
      <trkpt lat="42.68769" lon="-0.31973">
        <time>2022-07-29T10:01:40Z</time>
      </trkpt>
      <trkpt lat="42.68789" lon="-0.31969">
        <time>2022-07-29T10:01:41Z</time>
      </trkpt>
      <trkpt lat="42.68806" lon="-0.31963">
        <time>2022-07-29T10:01:42Z</time>
      </trkpt>
      <trkpt lat="42.68816" lon="-0.31952">
        <time>2022-07-29T10:01:43Z</time>
      </trkpt>
      <trkpt lat="42.6883" lon="-0.31941">
        <time>2022-07-29T10:01:44Z</time>
      </trkpt>
      <trkpt lat="42.68841" lon="-0.31927">
        <time>2022-07-29T10:01:45Z</time>
      </trkpt>
      <trkpt lat="42.68852" lon="-0.31911">
        <time>2022-07-29T10:01:46Z</time>
      </trkpt>
      <trkpt lat="42.6886" lon="-0.31894">
        <time>2022-07-29T10:01:47Z</time>
      </trkpt>
      <trkpt lat="42.68867" lon="-0.31875">
        <time>2022-07-29T10:01:48Z</time>
      </trkpt>
      <trkpt lat="42.68872" lon="-0.31856">
        <time>2022-07-29T10:01:49Z</time>
      </trkpt>
      <trkpt lat="42.68876" lon="-0.31837">
        <time>2022-07-29T10:01:50Z</time>
      </trkpt>
      <trkpt lat="42.68881" lon="-0.31816">
        <time>2022-07-29T10:01:51Z</time>
      </trkpt>
      <trkpt lat="42.68885" lon="-0.31796">
        <time>2022-07-29T10:01:52Z</time>
      </trkpt>
      <trkpt lat="42.6889" lon="-0.31774">
        <time>2022-07-29T10:01:53Z</time>
      </trkpt>
      <trkpt lat="42.68894" lon="-0.31753">
        <time>2022-07-29T10:01:54Z</time>
      </trkpt>
      <trkpt lat="42.68898" lon="-0.31732">
        <time>2022-07-29T10:01:55Z</time>
      </trkpt>
      <trkpt lat="42.68902" lon="-0.31712">
        <time>2022-07-29T10:01:56Z</time>
      </trkpt>
      <trkpt lat="42.68907" lon="-0.31692">
        <time>2022-07-29T10:01:57Z</time>
      </trkpt>
      <trkpt lat="42.68913" lon="-0.31674">
        <time>2022-07-29T10:01:58Z</time>
      </trkpt>
      <trkpt lat="42.6892" lon="-0.31658">
        <time>2022-07-29T10:01:59Z</time>
      </trkpt>
      <trkpt lat="42.6893" lon="-0.31642">
        <time>2022-07-29T10:02:00Z</time>
      </trkpt>
      <trkpt lat="42.68941" lon="-0.31628">
        <time>2022-07-29T10:02:01Z</time>
      </trkpt>
      <trkpt lat="42.68953" lon="-0.31616">
        <time>2022-07-29T10:02:02Z</time>
      </trkpt>
      <trkpt lat="42.68966" lon="-0.31605">
        <time>2022-07-29T10:02:03Z</time>
      </trkpt>
      <trkpt lat="42.68981" lon="-0.31596">
        <time>2022-07-29T10:02:04Z</time>
      </trkpt>
      <trkpt lat="42.68996" lon="-0.31587">
        <time>2022-07-29T10:02:05Z</time>
      </trkpt>
      <trkpt lat="42.69011" lon="-0.3158">
        <time>2022-07-29T10:02:06Z</time>
      </trkpt>
      <trkpt lat="42.69027" lon="-0.31574">
        <time>2022-07-29T10:02:07Z</time>
      </trkpt>
      <trkpt lat="42.69043" lon="-0.3157">
        <time>2022-07-29T10:02:08Z</time>
      </trkpt>
      <trkpt lat="42.69059" lon="-0.31567">
        <time>2022-07-29T10:02:09Z</time>
      </trkpt>
      <trkpt lat="42.69076" lon="-0.31565">
        <time>2022-07-29T10:02:10Z</time>
      </trkpt>
      <trkpt lat="42.69092" lon="-0.31564">
        <time>2022-07-29T10:02:11Z</time>
      </trkpt>
      <trkpt lat="42.69108" lon="-0.31565">
        <time>2022-07-29T10:02:12Z</time>
      </trkpt>
      <trkpt lat="42.69125" lon="-0.31567">
        <time>2022-07-29T10:02:13Z</time>
      </trkpt>
      <trkpt lat="42.69142" lon="-0.3157">
        <time>2022-07-29T10:02:14Z</time>
      </trkpt>
      <trkpt lat="42.69161" lon="-0.31572">
        <time>2022-07-29T10:02:15Z</time>
      </trkpt>
      <trkpt lat="42.69179" lon="-0.31574">
        <time>2022-07-29T10:02:16Z</time>
      </trkpt>
      <trkpt lat="42.69198" lon="-0.31574">
        <time>2022-07-29T10:02:17Z</time>
      </trkpt>
      <trkpt lat="42.69217" lon="-0.31574">
        <time>2022-07-29T10:02:18Z</time>
      </trkpt>
      <trkpt lat="42.69236" lon="-0.31572">
        <time>2022-07-29T10:02:19Z</time>
      </trkpt>
      <trkpt lat="42.69255" lon="-0.31571">
        <time>2022-07-29T10:02:20Z</time>
      </trkpt>
      <trkpt lat="42.69274" lon="-0.3157">
        <time>2022-07-29T10:02:21Z</time>
      </trkpt>
      <trkpt lat="42.69291" lon="-0.31571">
        <time>2022-07-29T10:02:22Z</time>
      </trkpt>
      <trkpt lat="42.69308" lon="-0.31577">
        <time>2022-07-29T10:02:23Z</time>
      </trkpt>
      <trkpt lat="42.69324" lon="-0.31585">
        <time>2022-07-29T10:02:24Z</time>
      </trkpt>
      <trkpt lat="42.6934" lon="-0.31594">
        <time>2022-07-29T10:02:25Z</time>
      </trkpt>
      <trkpt lat="42.69355" lon="-0.31604">
        <time>2022-07-29T10:02:26Z</time>
      </trkpt>
      <trkpt lat="42.69371" lon="-0.31612">
        <time>2022-07-29T10:02:27Z</time>
      </trkpt>
      <trkpt lat="42.69389" lon="-0.31619">
        <time>2022-07-29T10:02:28Z</time>
      </trkpt>
      <trkpt lat="42.69406" lon="-0.31624">
        <time>2022-07-29T10:02:29Z</time>
      </trkpt>
      <trkpt lat="42.69425" lon="-0.31625">
        <time>2022-07-29T10:02:30Z</time>
      </trkpt>
      <trkpt lat="42.69442" lon="-0.31624">
        <time>2022-07-29T10:02:31Z</time>
      </trkpt>
      <trkpt lat="42.69459" lon="-0.3162">
        <time>2022-07-29T10:02:32Z</time>
      </trkpt>
      <trkpt lat="42.69476" lon="-0.31614">
        <time>2022-07-29T10:02:33Z</time>
      </trkpt>
      <trkpt lat="42.69493" lon="-0.31609">
        <time>2022-07-29T10:02:34Z</time>
      </trkpt>
      <trkpt lat="42.6951" lon="-0.31605">
        <time>2022-07-29T10:02:35Z</time>
      </trkpt>
      <trkpt lat="42.69527" lon="-0.31604">
        <time>2022-07-29T10:02:36Z</time>
      </trkpt>
      <trkpt lat="42.69544" lon="-0.31606">
        <time>2022-07-29T10:02:37Z</time>
      </trkpt>
      <trkpt lat="42.69561" lon="-0.31611">
        <time>2022-07-29T10:02:38Z</time>
      </trkpt>
      <trkpt lat="42.69576" lon="-0.3162">
        <time>2022-07-29T10:02:39Z</time>
      </trkpt>
      <trkpt lat="42.69591" lon="-0.31631">
        <time>2022-07-29T10:02:40Z</time>
      </trkpt>
      <trkpt lat="42.69604" lon="-0.31646">
        <time>2022-07-29T10:02:41Z</time>
      </trkpt>
      <trkpt lat="42.69613" lon="-0.31663">
        <time>2022-07-29T10:02:42Z</time>
      </trkpt>
      <trkpt lat="42.69622" lon="-0.31681">
        <time>2022-07-29T10:02:43Z</time>
      </trkpt>
      <trkpt lat="42.69628" lon="-0.317">
        <time>2022-07-29T10:02:44Z</time>
      </trkpt>
      <trkpt lat="42.69634" lon="-0.31719">
        <time>2022-07-29T10:02:45Z</time>
      </trkpt>
      <trkpt lat="42.69639" lon="-0.3174">
        <time>2022-07-29T10:02:46Z</time>
      </trkpt>
      <trkpt lat="42.69645" lon="-0.3176">
        <time>2022-07-29T10:02:47Z</time>
      </trkpt>
      <trkpt lat="42.69653" lon="-0.31779">
        <time>2022-07-29T10:02:48Z</time>
      </trkpt>
      <trkpt lat="42.69661" lon="-0.31797">
        <time>2022-07-29T10:02:49Z</time>
      </trkpt>
      <trkpt lat="42.69672" lon="-0.31814">
        <time>2022-07-29T10:02:50Z</time>
      </trkpt>
      <trkpt lat="42.69685" lon="-0.3183">
        <time>2022-07-29T10:02:51Z</time>
      </trkpt>
      <trkpt lat="42.69699" lon="-0.31843">
        <time>2022-07-29T10:02:52Z</time>
      </trkpt>
      <trkpt lat="42.69713" lon="-0.31855">
        <time>2022-07-29T10:02:53Z</time>
      </trkpt>
      <trkpt lat="42.69728" lon="-0.31866">
        <time>2022-07-29T10:02:54Z</time>
      </trkpt>
      <trkpt lat="42.69743" lon="-0.31877">
        <time>2022-07-29T10:02:55Z</time>
      </trkpt>
      <trkpt lat="42.6976" lon="-0.31887">
        <time>2022-07-29T10:02:56Z</time>
      </trkpt>
      <trkpt lat="42.69776" lon="-0.31898">
        <time>2022-07-29T10:02:57Z</time>
      </trkpt>
      <trkpt lat="42.69792" lon="-0.31907">
        <time>2022-07-29T10:02:58Z</time>
      </trkpt>
      <trkpt lat="42.6981" lon="-0.31915">
        <time>2022-07-29T10:02:59Z</time>
      </trkpt>
      <trkpt lat="42.69826" lon="-0.31921">
        <time>2022-07-29T10:03:00Z</time>
      </trkpt>
      <trkpt lat="42.69844" lon="-0.31925">
        <time>2022-07-29T10:03:01Z</time>
      </trkpt>
      <trkpt lat="42.69862" lon="-0.31928">
        <time>2022-07-29T10:03:02Z</time>
      </trkpt>
      <trkpt lat="42.69879" lon="-0.31931">
        <time>2022-07-29T10:03:03Z</time>
      </trkpt>
      <trkpt lat="42.69897" lon="-0.31933">
        <time>2022-07-29T10:03:04Z</time>
      </trkpt>
      <trkpt lat="42.69915" lon="-0.31934">
        <time>2022-07-29T10:03:05Z</time>
      </trkpt>
      <trkpt lat="42.69934" lon="-0.31935">
        <time>2022-07-29T10:03:06Z</time>
      </trkpt>
      <trkpt lat="42.69951" lon="-0.31937">
        <time>2022-07-29T10:03:07Z</time>
      </trkpt>
      <trkpt lat="42.69968" lon="-0.31939">
        <time>2022-07-29T10:03:08Z</time>
      </trkpt>
      <trkpt lat="42.69986" lon="-0.31941">
        <time>2022-07-29T10:03:09Z</time>
      </trkpt>
      <trkpt lat="42.70003" lon="-0.31944">
        <time>2022-07-29T10:03:10Z</time>
      </trkpt>
      <trkpt lat="42.70021" lon="-0.31947">
        <time>2022-07-29T10:03:11Z</time>
      </trkpt>
      <trkpt lat="42.70038" lon="-0.3195">
        <time>2022-07-29T10:03:12Z</time>
      </trkpt>
      <trkpt lat="42.70055" lon="-0.31953">
        <time>2022-07-29T10:03:13Z</time>
      </trkpt>
      <trkpt lat="42.70071" lon="-0.31956">
        <time>2022-07-29T10:03:14Z</time>
      </trkpt>
      <trkpt lat="42.70088" lon="-0.31959">
        <time>2022-07-29T10:03:15Z</time>
      </trkpt>
      <trkpt lat="42.70105" lon="-0.31963">
        <time>2022-07-29T10:03:16Z</time>
      </trkpt>
      <trkpt lat="42.70121" lon="-0.31966">
        <time>2022-07-29T10:03:17Z</time>
      </trkpt>
      <trkpt lat="42.70137" lon="-0.3197">
        <time>2022-07-29T10:03:18Z</time>
      </trkpt>
      <trkpt lat="42.70153" lon="-0.31973">
        <time>2022-07-29T10:03:19Z</time>
      </trkpt>
      <trkpt lat="42.7017" lon="-0.31976">
        <time>2022-07-29T10:03:20Z</time>
      </trkpt>
      <trkpt lat="42.70186" lon="-0.3198">
        <time>2022-07-29T10:03:21Z</time>
      </trkpt>
      <trkpt lat="42.70204" lon="-0.31984">
        <time>2022-07-29T10:03:22Z</time>
      </trkpt>
      <trkpt lat="42.70221" lon="-0.31988">
        <time>2022-07-29T10:03:23Z</time>
      </trkpt>
      <trkpt lat="42.70238" lon="-0.31991">
        <time>2022-07-29T10:03:24Z</time>
      </trkpt>
      <trkpt lat="42.70255" lon="-0.31994">
        <time>2022-07-29T10:03:25Z</time>
      </trkpt>
      <trkpt lat="42.70272" lon="-0.31997">
        <time>2022-07-29T10:03:26Z</time>
      </trkpt>
      <trkpt lat="42.7029" lon="-0.31995">
        <time>2022-07-29T10:03:27Z</time>
      </trkpt>
      <trkpt lat="42.70307" lon="-0.31991">
        <time>2022-07-29T10:03:28Z</time>
      </trkpt>
      <trkpt lat="42.70325" lon="-0.31983">
        <time>2022-07-29T10:03:29Z</time>
      </trkpt>
      <trkpt lat="42.70341" lon="-0.31971">
        <time>2022-07-29T10:03:30Z</time>
      </trkpt>
      <trkpt lat="42.70354" lon="-0.31956">
        <time>2022-07-29T10:03:31Z</time>
      </trkpt>
      <trkpt lat="42.70367" lon="-0.31938">
        <time>2022-07-29T10:03:32Z</time>
      </trkpt>
      <trkpt lat="42.70376" lon="-0.31917">
        <time>2022-07-29T10:03:33Z</time>
      </trkpt>
      <trkpt lat="42.70383" lon="-0.31896">
        <time>2022-07-29T10:03:34Z</time>
      </trkpt>
      <trkpt lat="42.70389" lon="-0.31875">
        <time>2022-07-29T10:03:35Z</time>
      </trkpt>
      <trkpt lat="42.70394" lon="-0.31854">
        <time>2022-07-29T10:03:36Z</time>
      </trkpt>
      <trkpt lat="42.704" lon="-0.31834">
        <time>2022-07-29T10:03:37Z</time>
      </trkpt>
      <trkpt lat="42.70406" lon="-0.31813">
        <time>2022-07-29T10:03:38Z</time>
      </trkpt>
      <trkpt lat="42.70412" lon="-0.31793">
        <time>2022-07-29T10:03:39Z</time>
      </trkpt>
      <trkpt lat="42.70419" lon="-0.31773">
        <time>2022-07-29T10:03:40Z</time>
      </trkpt>
      <trkpt lat="42.70427" lon="-0.31753">
        <time>2022-07-29T10:03:41Z</time>
      </trkpt>
      <trkpt lat="42.70435" lon="-0.31734">
        <time>2022-07-29T10:03:42Z</time>
      </trkpt>
      <trkpt lat="42.70446" lon="-0.31716">
        <time>2022-07-29T10:03:43Z</time>
      </trkpt>
      <trkpt lat="42.70457" lon="-0.31698">
        <time>2022-07-29T10:03:44Z</time>
      </trkpt>
      <trkpt lat="42.70469" lon="-0.31681">
        <time>2022-07-29T10:03:45Z</time>
      </trkpt>
      <trkpt lat="42.70482" lon="-0.31665">
        <time>2022-07-29T10:03:46Z</time>
      </trkpt>
      <trkpt lat="42.70496" lon="-0.31651">
        <time>2022-07-29T10:03:47Z</time>
      </trkpt>
      <trkpt lat="42.7051" lon="-0.31638">
        <time>2022-07-29T10:03:48Z</time>
      </trkpt>
      <trkpt lat="42.70524" lon="-0.31626">
        <time>2022-07-29T10:03:49Z</time>
      </trkpt>
      <trkpt lat="42.70538" lon="-0.31615">
        <time>2022-07-29T10:03:50Z</time>
      </trkpt>
      <trkpt lat="42.70552" lon="-0.31604">
        <time>2022-07-29T10:03:51Z</time>
      </trkpt>
      <trkpt lat="42.70566" lon="-0.31593">
        <time>2022-07-29T10:03:52Z</time>
      </trkpt>
      <trkpt lat="42.7058" lon="-0.31582">
        <time>2022-07-29T10:03:53Z</time>
      </trkpt>
      <trkpt lat="42.70594" lon="-0.3157">
        <time>2022-07-29T10:03:54Z</time>
      </trkpt>
      <trkpt lat="42.70609" lon="-0.31558">
        <time>2022-07-29T10:03:55Z</time>
      </trkpt>
      <trkpt lat="42.70623" lon="-0.31544">
        <time>2022-07-29T10:03:56Z</time>
      </trkpt>
      <trkpt lat="42.70637" lon="-0.3153">
        <time>2022-07-29T10:03:57Z</time>
      </trkpt>
      <trkpt lat="42.70651" lon="-0.31516">
        <time>2022-07-29T10:03:58Z</time>
      </trkpt>
      <trkpt lat="42.70664" lon="-0.31499">
        <time>2022-07-29T10:03:59Z</time>
      </trkpt>
      <trkpt lat="42.70676" lon="-0.3148">
        <time>2022-07-29T10:04:00Z</time>
      </trkpt>
      <trkpt lat="42.70687" lon="-0.3146">
        <time>2022-07-29T10:04:01Z</time>
      </trkpt>
      <trkpt lat="42.70696" lon="-0.31439">
        <time>2022-07-29T10:04:02Z</time>
      </trkpt>
      <trkpt lat="42.70704" lon="-0.31418">
        <time>2022-07-29T10:04:03Z</time>
      </trkpt>
      <trkpt lat="42.7071" lon="-0.31396">
        <time>2022-07-29T10:04:04Z</time>
      </trkpt>
      <trkpt lat="42.70715" lon="-0.31375">
        <time>2022-07-29T10:04:05Z</time>
      </trkpt>
      <trkpt lat="42.7072" lon="-0.31353">
        <time>2022-07-29T10:04:06Z</time>
      </trkpt>
      <trkpt lat="42.70724" lon="-0.31331">
        <time>2022-07-29T10:04:07Z</time>
      </trkpt>
      <trkpt lat="42.70728" lon="-0.3131">
        <time>2022-07-29T10:04:08Z</time>
      </trkpt>
      <trkpt lat="42.70732" lon="-0.3129">
        <time>2022-07-29T10:04:09Z</time>
      </trkpt>
      <trkpt lat="42.70737" lon="-0.31269">
        <time>2022-07-29T10:04:10Z</time>
      </trkpt>
      <trkpt lat="42.70744" lon="-0.31249">
        <time>2022-07-29T10:04:11Z</time>
      </trkpt>
      <trkpt lat="42.70751" lon="-0.31229">
        <time>2022-07-29T10:04:12Z</time>
      </trkpt>
      <trkpt lat="42.7076" lon="-0.31211">
        <time>2022-07-29T10:04:13Z</time>
      </trkpt>
      <trkpt lat="42.7077" lon="-0.31198">
        <time>2022-07-29T10:04:14Z</time>
      </trkpt>
      <trkpt lat="42.70787" lon="-0.31184">
        <time>2022-07-29T10:04:15Z</time>
      </trkpt>
      <trkpt lat="42.70804" lon="-0.31174">
        <time>2022-07-29T10:04:16Z</time>
      </trkpt>
      <trkpt lat="42.7082" lon="-0.31165">
        <time>2022-07-29T10:04:17Z</time>
      </trkpt>
      <trkpt lat="42.70837" lon="-0.31155">
        <time>2022-07-29T10:04:18Z</time>
      </trkpt>
      <trkpt lat="42.70854" lon="-0.31146">
        <time>2022-07-29T10:04:19Z</time>
      </trkpt>
      <trkpt lat="42.7087" lon="-0.31136">
        <time>2022-07-29T10:04:20Z</time>
      </trkpt>
      <trkpt lat="42.70887" lon="-0.31127">
        <time>2022-07-29T10:04:21Z</time>
      </trkpt>
      <trkpt lat="42.70903" lon="-0.31117">
        <time>2022-07-29T10:04:22Z</time>
      </trkpt>
      <trkpt lat="42.7092" lon="-0.31107">
        <time>2022-07-29T10:04:23Z</time>
      </trkpt>
      <trkpt lat="42.70937" lon="-0.31097">
        <time>2022-07-29T10:04:24Z</time>
      </trkpt>
      <trkpt lat="42.70953" lon="-0.31088">
        <time>2022-07-29T10:04:25Z</time>
      </trkpt>
      <trkpt lat="42.70969" lon="-0.31079">
        <time>2022-07-29T10:04:26Z</time>
      </trkpt>
      <trkpt lat="42.70985" lon="-0.31069">
        <time>2022-07-29T10:04:27Z</time>
      </trkpt>
      <trkpt lat="42.71001" lon="-0.3106">
        <time>2022-07-29T10:04:28Z</time>
      </trkpt>
      <trkpt lat="42.71017" lon="-0.31051">
        <time>2022-07-29T10:04:29Z</time>
      </trkpt>
      <trkpt lat="42.71033" lon="-0.31043">
        <time>2022-07-29T10:04:30Z</time>
      </trkpt>
      <trkpt lat="42.7105" lon="-0.31036">
        <time>2022-07-29T10:04:31Z</time>
      </trkpt>
      <trkpt lat="42.71067" lon="-0.31032">
        <time>2022-07-29T10:04:32Z</time>
      </trkpt>
      <trkpt lat="42.71085" lon="-0.31029">
        <time>2022-07-29T10:04:33Z</time>
      </trkpt>
      <trkpt lat="42.71104" lon="-0.31028">
        <time>2022-07-29T10:04:34Z</time>
      </trkpt>
      <trkpt lat="42.71123" lon="-0.31029">
        <time>2022-07-29T10:04:35Z</time>
      </trkpt>
      <trkpt lat="42.71144" lon="-0.31033">
        <time>2022-07-29T10:04:36Z</time>
      </trkpt>
      <trkpt lat="42.71164" lon="-0.3104">
        <time>2022-07-29T10:04:37Z</time>
      </trkpt>
      <trkpt lat="42.71184" lon="-0.31051">
        <time>2022-07-29T10:04:38Z</time>
      </trkpt>
      <trkpt lat="42.71203" lon="-0.31062">
        <time>2022-07-29T10:04:39Z</time>
      </trkpt>
      <trkpt lat="42.7122" lon="-0.31075">
        <time>2022-07-29T10:04:40Z</time>
      </trkpt>
      <trkpt lat="42.71237" lon="-0.31087">
        <time>2022-07-29T10:04:41Z</time>
      </trkpt>
      <trkpt lat="42.71254" lon="-0.31097">
        <time>2022-07-29T10:04:42Z</time>
      </trkpt>
      <trkpt lat="42.7127" lon="-0.31105">
        <time>2022-07-29T10:04:43Z</time>
      </trkpt>
      <trkpt lat="42.71287" lon="-0.31109">
        <time>2022-07-29T10:04:44Z</time>
      </trkpt>
      <trkpt lat="42.71306" lon="-0.31109">
        <time>2022-07-29T10:04:45Z</time>
      </trkpt>
      <trkpt lat="42.71324" lon="-0.31106">
        <time>2022-07-29T10:04:46Z</time>
      </trkpt>
      <trkpt lat="42.71341" lon="-0.31098">
        <time>2022-07-29T10:04:47Z</time>
      </trkpt>
      <trkpt lat="42.71357" lon="-0.31088">
        <time>2022-07-29T10:04:48Z</time>
      </trkpt>
      <trkpt lat="42.71371" lon="-0.31074">
        <time>2022-07-29T10:04:49Z</time>
      </trkpt>
      <trkpt lat="42.71383" lon="-0.31057">
        <time>2022-07-29T10:04:50Z</time>
      </trkpt>
      <trkpt lat="42.71394" lon="-0.31038">
        <time>2022-07-29T10:04:51Z</time>
      </trkpt>
      <trkpt lat="42.71404" lon="-0.31018">
        <time>2022-07-29T10:04:52Z</time>
      </trkpt>
      <trkpt lat="42.71415" lon="-0.30999">
        <time>2022-07-29T10:04:53Z</time>
      </trkpt>
      <trkpt lat="42.71428" lon="-0.30982">
        <time>2022-07-29T10:04:54Z</time>
      </trkpt>
      <trkpt lat="42.71442" lon="-0.30967">
        <time>2022-07-29T10:04:55Z</time>
      </trkpt>
      <trkpt lat="42.71457" lon="-0.30956">
        <time>2022-07-29T10:04:56Z</time>
      </trkpt>
      <trkpt lat="42.71472" lon="-0.30945">
        <time>2022-07-29T10:04:57Z</time>
      </trkpt>
      <trkpt lat="42.71487" lon="-0.30936">
        <time>2022-07-29T10:04:58Z</time>
      </trkpt>
      <trkpt lat="42.71501" lon="-0.30926">
        <time>2022-07-29T10:04:59Z</time>
      </trkpt>
      <trkpt lat="42.71517" lon="-0.30916">
        <time>2022-07-29T10:05:00Z</time>
      </trkpt>
      <trkpt lat="42.71533" lon="-0.30905">
        <time>2022-07-29T10:05:01Z</time>
      </trkpt>
      <trkpt lat="42.71548" lon="-0.30895">
        <time>2022-07-29T10:05:02Z</time>
      </trkpt>
      <trkpt lat="42.71563" lon="-0.30885">
        <time>2022-07-29T10:05:03Z</time>
      </trkpt>
      <trkpt lat="42.71578" lon="-0.30875">
        <time>2022-07-29T10:05:04Z</time>
      </trkpt>
      <trkpt lat="42.71593" lon="-0.30864">
        <time>2022-07-29T10:05:05Z</time>
      </trkpt>
      <trkpt lat="42.71608" lon="-0.30854">
        <time>2022-07-29T10:05:06Z</time>
      </trkpt>
      <trkpt lat="42.71622" lon="-0.30844">
        <time>2022-07-29T10:05:07Z</time>
      </trkpt>
      <trkpt lat="42.71637" lon="-0.30831">
        <time>2022-07-29T10:05:08Z</time>
      </trkpt>
      <trkpt lat="42.71651" lon="-0.30816">
        <time>2022-07-29T10:05:09Z</time>
      </trkpt>
      <trkpt lat="42.71664" lon="-0.30799">
        <time>2022-07-29T10:05:10Z</time>
      </trkpt>
      <trkpt lat="42.71676" lon="-0.30781">
        <time>2022-07-29T10:05:11Z</time>
      </trkpt>
      <trkpt lat="42.71688" lon="-0.30764">
        <time>2022-07-29T10:05:12Z</time>
      </trkpt>
      <trkpt lat="42.717" lon="-0.30745">
        <time>2022-07-29T10:05:13Z</time>
      </trkpt>
      <trkpt lat="42.71713" lon="-0.30728">
        <time>2022-07-29T10:05:14Z</time>
      </trkpt>
      <trkpt lat="42.71725" lon="-0.3071">
        <time>2022-07-29T10:05:15Z</time>
      </trkpt>
      <trkpt lat="42.71738" lon="-0.30694">
        <time>2022-07-29T10:05:16Z</time>
      </trkpt>
      <trkpt lat="42.7175" lon="-0.30679">
        <time>2022-07-29T10:05:17Z</time>
      </trkpt>
      <trkpt lat="42.71764" lon="-0.30665">
        <time>2022-07-29T10:05:18Z</time>
      </trkpt>
      <trkpt lat="42.71779" lon="-0.30651">
        <time>2022-07-29T10:05:19Z</time>
      </trkpt>
      <trkpt lat="42.71796" lon="-0.30641">
        <time>2022-07-29T10:05:20Z</time>
      </trkpt>
      <trkpt lat="42.71814" lon="-0.30632">
        <time>2022-07-29T10:05:21Z</time>
      </trkpt>
      <trkpt lat="42.71831" lon="-0.30623">
        <time>2022-07-29T10:05:22Z</time>
      </trkpt>
      <trkpt lat="42.7185" lon="-0.30617">
        <time>2022-07-29T10:05:23Z</time>
      </trkpt>
      <trkpt lat="42.71871" lon="-0.30614">
        <time>2022-07-29T10:05:24Z</time>
      </trkpt>
      <trkpt lat="42.71892" lon="-0.30614">
        <time>2022-07-29T10:05:25Z</time>
      </trkpt>
      <trkpt lat="42.71916" lon="-0.30615">
        <time>2022-07-29T10:05:26Z</time>
      </trkpt>
      <trkpt lat="42.71941" lon="-0.30616">
        <time>2022-07-29T10:05:27Z</time>
      </trkpt>
      <trkpt lat="42.71966" lon="-0.30617">
        <time>2022-07-29T10:05:28Z</time>
      </trkpt>
      <trkpt lat="42.7199" lon="-0.30619">
        <time>2022-07-29T10:05:29Z</time>
      </trkpt>
      <trkpt lat="42.72014" lon="-0.3062">
        <time>2022-07-29T10:05:30Z</time>
      </trkpt>
      <trkpt lat="42.72037" lon="-0.30622">
        <time>2022-07-29T10:05:31Z</time>
      </trkpt>
      <trkpt lat="42.72061" lon="-0.30624">
        <time>2022-07-29T10:05:32Z</time>
      </trkpt>
      <trkpt lat="42.72084" lon="-0.30626">
        <time>2022-07-29T10:05:33Z</time>
      </trkpt>
      <trkpt lat="42.72107" lon="-0.30629">
        <time>2022-07-29T10:05:34Z</time>
      </trkpt>
      <trkpt lat="42.7213" lon="-0.30631">
        <time>2022-07-29T10:05:35Z</time>
      </trkpt>
      <trkpt lat="42.72152" lon="-0.30633">
        <time>2022-07-29T10:05:36Z</time>
      </trkpt>
      <trkpt lat="42.72176" lon="-0.30635">
        <time>2022-07-29T10:05:37Z</time>
      </trkpt>
      <trkpt lat="42.722" lon="-0.30638">
        <time>2022-07-29T10:05:38Z</time>
      </trkpt>
      <trkpt lat="42.72224" lon="-0.30641">
        <time>2022-07-29T10:05:39Z</time>
      </trkpt>
      <trkpt lat="42.72247" lon="-0.30643">
        <time>2022-07-29T10:05:40Z</time>
      </trkpt>
      <trkpt lat="42.72269" lon="-0.30645">
        <time>2022-07-29T10:05:41Z</time>
      </trkpt>
      <trkpt lat="42.72292" lon="-0.30647">
        <time>2022-07-29T10:05:42Z</time>
      </trkpt>
      <trkpt lat="42.72314" lon="-0.30649">
        <time>2022-07-29T10:05:43Z</time>
      </trkpt>
      <trkpt lat="42.72336" lon="-0.30652">
        <time>2022-07-29T10:05:44Z</time>
      </trkpt>
      <trkpt lat="42.72357" lon="-0.30656">
        <time>2022-07-29T10:05:45Z</time>
      </trkpt>
      <trkpt lat="42.72378" lon="-0.30659">
        <time>2022-07-29T10:05:46Z</time>
      </trkpt>
      <trkpt lat="42.72398" lon="-0.30663">
        <time>2022-07-29T10:05:47Z</time>
      </trkpt>
      <trkpt lat="42.72417" lon="-0.30667">
        <time>2022-07-29T10:05:48Z</time>
      </trkpt>
      <trkpt lat="42.72434" lon="-0.30672">
        <time>2022-07-29T10:05:49Z</time>
      </trkpt>
      <trkpt lat="42.72452" lon="-0.30676">
        <time>2022-07-29T10:05:50Z</time>
      </trkpt>
      <trkpt lat="42.72469" lon="-0.3068">
        <time>2022-07-29T10:05:51Z</time>
      </trkpt>
      <trkpt lat="42.72486" lon="-0.30684">
        <time>2022-07-29T10:05:52Z</time>
      </trkpt>
      <trkpt lat="42.72503" lon="-0.30689">
        <time>2022-07-29T10:05:53Z</time>
      </trkpt>
      <trkpt lat="42.7252" lon="-0.30693">
        <time>2022-07-29T10:05:54Z</time>
      </trkpt>
      <trkpt lat="42.72537" lon="-0.30696">
        <time>2022-07-29T10:05:55Z</time>
      </trkpt>
      <trkpt lat="42.72555" lon="-0.30699">
        <time>2022-07-29T10:05:56Z</time>
      </trkpt>
      <trkpt lat="42.72572" lon="-0.30702">
        <time>2022-07-29T10:05:57Z</time>
      </trkpt>
      <trkpt lat="42.72589" lon="-0.30704">
        <time>2022-07-29T10:05:58Z</time>
      </trkpt>
      <trkpt lat="42.72606" lon="-0.30707">
        <time>2022-07-29T10:05:59Z</time>
      </trkpt>
      <trkpt lat="42.72624" lon="-0.3071">
        <time>2022-07-29T10:06:00Z</time>
      </trkpt>
      <trkpt lat="42.72642" lon="-0.30714">
        <time>2022-07-29T10:06:01Z</time>
      </trkpt>
      <trkpt lat="42.72661" lon="-0.30718">
        <time>2022-07-29T10:06:02Z</time>
      </trkpt>
      <trkpt lat="42.7268" lon="-0.30723">
        <time>2022-07-29T10:06:03Z</time>
      </trkpt>
      <trkpt lat="42.72699" lon="-0.3073">
        <time>2022-07-29T10:06:04Z</time>
      </trkpt>
      <trkpt lat="42.72718" lon="-0.30739">
        <time>2022-07-29T10:06:05Z</time>
      </trkpt>
      <trkpt lat="42.72736" lon="-0.30749">
        <time>2022-07-29T10:06:06Z</time>
      </trkpt>
      <trkpt lat="42.72754" lon="-0.30759">
        <time>2022-07-29T10:06:07Z</time>
      </trkpt>
      <trkpt lat="42.7277" lon="-0.30772">
        <time>2022-07-29T10:06:08Z</time>
      </trkpt>
      <trkpt lat="42.72785" lon="-0.30788">
        <time>2022-07-29T10:06:09Z</time>
      </trkpt>
      <trkpt lat="42.72798" lon="-0.30807">
        <time>2022-07-29T10:06:10Z</time>
      </trkpt>
      <trkpt lat="42.7281" lon="-0.30829">
        <time>2022-07-29T10:06:11Z</time>
      </trkpt>
      <trkpt lat="42.72821" lon="-0.30851">
        <time>2022-07-29T10:06:12Z</time>
      </trkpt>
      <trkpt lat="42.72832" lon="-0.30873">
        <time>2022-07-29T10:06:13Z</time>
      </trkpt>
      <trkpt lat="42.72843" lon="-0.30893">
        <time>2022-07-29T10:06:14Z</time>
      </trkpt>
      <trkpt lat="42.72854" lon="-0.30911">
        <time>2022-07-29T10:06:15Z</time>
      </trkpt>
      <trkpt lat="42.72865" lon="-0.30927">
        <time>2022-07-29T10:06:16Z</time>
      </trkpt>
      <trkpt lat="42.72878" lon="-0.30939">
        <time>2022-07-29T10:06:17Z</time>
      </trkpt>
      <trkpt lat="42.72893" lon="-0.30949">
        <time>2022-07-29T10:06:18Z</time>
      </trkpt>
      <trkpt lat="42.7291" lon="-0.30953">
        <time>2022-07-29T10:06:19Z</time>
      </trkpt>
      <trkpt lat="42.72928" lon="-0.30952">
        <time>2022-07-29T10:06:20Z</time>
      </trkpt>
      <trkpt lat="42.72945" lon="-0.30948">
        <time>2022-07-29T10:06:21Z</time>
      </trkpt>
      <trkpt lat="42.72963" lon="-0.30944">
        <time>2022-07-29T10:06:22Z</time>
      </trkpt>
      <trkpt lat="42.7298" lon="-0.30943">
        <time>2022-07-29T10:06:23Z</time>
      </trkpt>
      <trkpt lat="42.72998" lon="-0.30946">
        <time>2022-07-29T10:06:24Z</time>
      </trkpt>
      <trkpt lat="42.73016" lon="-0.30955">
        <time>2022-07-29T10:06:25Z</time>
      </trkpt>
      <trkpt lat="42.73032" lon="-0.30967">
        <time>2022-07-29T10:06:26Z</time>
      </trkpt>
      <trkpt lat="42.73049" lon="-0.30982">
        <time>2022-07-29T10:06:27Z</time>
      </trkpt>
      <trkpt lat="42.73064" lon="-0.30998">
        <time>2022-07-29T10:06:28Z</time>
      </trkpt>
      <trkpt lat="42.7308" lon="-0.31013">
        <time>2022-07-29T10:06:29Z</time>
      </trkpt>
      <trkpt lat="42.73095" lon="-0.31027">
        <time>2022-07-29T10:06:30Z</time>
      </trkpt>
      <trkpt lat="42.7311" lon="-0.31039">
        <time>2022-07-29T10:06:31Z</time>
      </trkpt>
      <trkpt lat="42.73124" lon="-0.31051">
        <time>2022-07-29T10:06:32Z</time>
      </trkpt>
      <trkpt lat="42.73138" lon="-0.31061">
        <time>2022-07-29T10:06:33Z</time>
      </trkpt>
      <trkpt lat="42.73151" lon="-0.3107">
        <time>2022-07-29T10:06:34Z</time>
      </trkpt>
      <trkpt lat="42.73163" lon="-0.31079">
        <time>2022-07-29T10:06:35Z</time>
      </trkpt>
      <trkpt lat="42.73175" lon="-0.31087">
        <time>2022-07-29T10:06:36Z</time>
      </trkpt>
      <trkpt lat="42.73186" lon="-0.31095">
        <time>2022-07-29T10:06:37Z</time>
      </trkpt>
      <trkpt lat="42.73198" lon="-0.31103">
        <time>2022-07-29T10:06:38Z</time>
      </trkpt>
      <trkpt lat="42.73209" lon="-0.31111">
        <time>2022-07-29T10:06:39Z</time>
      </trkpt>
      <trkpt lat="42.7322" lon="-0.3112">
        <time>2022-07-29T10:06:40Z</time>
      </trkpt>
      <trkpt lat="42.73231" lon="-0.31127">
        <time>2022-07-29T10:06:41Z</time>
      </trkpt>
      <trkpt lat="42.73241" lon="-0.31135">
        <time>2022-07-29T10:06:42Z</time>
      </trkpt>
      <trkpt lat="42.73251" lon="-0.31142">
        <time>2022-07-29T10:06:43Z</time>
      </trkpt>
      <trkpt lat="42.73261" lon="-0.31149">
        <time>2022-07-29T10:06:44Z</time>
      </trkpt>
      <trkpt lat="42.73271" lon="-0.31157">
        <time>2022-07-29T10:06:45Z</time>
      </trkpt>
      <trkpt lat="42.73281" lon="-0.31164">
        <time>2022-07-29T10:06:46Z</time>
      </trkpt>
      <trkpt lat="42.7329" lon="-0.31171">
        <time>2022-07-29T10:06:47Z</time>
      </trkpt>
      <trkpt lat="42.73301" lon="-0.31178">
        <time>2022-07-29T10:06:48Z</time>
      </trkpt>
      <trkpt lat="42.73311" lon="-0.31184">
        <time>2022-07-29T10:06:49Z</time>
      </trkpt>
      <trkpt lat="42.73321" lon="-0.31189">
        <time>2022-07-29T10:06:50Z</time>
      </trkpt>
      <trkpt lat="42.73332" lon="-0.31193">
        <time>2022-07-29T10:06:51Z</time>
      </trkpt>
      <trkpt lat="42.73343" lon="-0.31197">
        <time>2022-07-29T10:06:52Z</time>
      </trkpt>
      <trkpt lat="42.73354" lon="-0.31201">
        <time>2022-07-29T10:06:53Z</time>
      </trkpt>
      <trkpt lat="42.73364" lon="-0.31205">
        <time>2022-07-29T10:06:54Z</time>
      </trkpt>
      <trkpt lat="42.73376" lon="-0.31208">
        <time>2022-07-29T10:06:55Z</time>
      </trkpt>
      <trkpt lat="42.73387" lon="-0.31212">
        <time>2022-07-29T10:06:56Z</time>
      </trkpt>
      <trkpt lat="42.73399" lon="-0.31213">
        <time>2022-07-29T10:06:57Z</time>
      </trkpt>
      <trkpt lat="42.73412" lon="-0.31214">
        <time>2022-07-29T10:06:58Z</time>
      </trkpt>
      <trkpt lat="42.73426" lon="-0.31213">
        <time>2022-07-29T10:06:59Z</time>
      </trkpt>
      <trkpt lat="42.73438" lon="-0.31211">
        <time>2022-07-29T10:07:00Z</time>
      </trkpt>
      <trkpt lat="42.73451" lon="-0.31209">
        <time>2022-07-29T10:07:01Z</time>
      </trkpt>
      <trkpt lat="42.73464" lon="-0.31208">
        <time>2022-07-29T10:07:02Z</time>
      </trkpt>
      <trkpt lat="42.73476" lon="-0.31207">
        <time>2022-07-29T10:07:03Z</time>
      </trkpt>
      <trkpt lat="42.73487" lon="-0.31206">
        <time>2022-07-29T10:07:04Z</time>
      </trkpt>
      <trkpt lat="42.73499" lon="-0.31207">
        <time>2022-07-29T10:07:05Z</time>
      </trkpt>
      <trkpt lat="42.73512" lon="-0.31208">
        <time>2022-07-29T10:07:06Z</time>
      </trkpt>
      <trkpt lat="42.73523" lon="-0.31212">
        <time>2022-07-29T10:07:07Z</time>
      </trkpt>
      <trkpt lat="42.73532" lon="-0.31217">
        <time>2022-07-29T10:07:08Z</time>
      </trkpt>
      <trkpt lat="42.73539" lon="-0.31223">
        <time>2022-07-29T10:07:09Z</time>
      </trkpt>
      <trkpt lat="42.73544" lon="-0.31227">
        <time>2022-07-29T10:07:10Z</time>
      </trkpt>
      <trkpt lat="42.73547" lon="-0.31231">
        <time>2022-07-29T10:07:11Z</time>
      </trkpt>
      <trkpt lat="42.7355" lon="-0.31235">
        <time>2022-07-29T10:07:12Z</time>
      </trkpt>
      <trkpt lat="42.73552" lon="-0.31238">
        <time>2022-07-29T10:07:13Z</time>
      </trkpt>
      <trkpt lat="42.73556" lon="-0.31244">
        <time>2022-07-29T10:07:14Z</time>
      </trkpt>
      <trkpt lat="42.73561" lon="-0.31253">
        <time>2022-07-29T10:07:15Z</time>
      </trkpt>
      <trkpt lat="42.73566" lon="-0.31265">
        <time>2022-07-29T10:07:16Z</time>
      </trkpt>
      <trkpt lat="42.73569" lon="-0.31279">
        <time>2022-07-29T10:07:17Z</time>
      </trkpt>
      <trkpt lat="42.73572" lon="-0.31294">
        <time>2022-07-29T10:07:18Z</time>
      </trkpt>
      <trkpt lat="42.73576" lon="-0.3131">
        <time>2022-07-29T10:07:19Z</time>
      </trkpt>
      <trkpt lat="42.73579" lon="-0.31328">
        <time>2022-07-29T10:07:20Z</time>
      </trkpt>
      <trkpt lat="42.73582" lon="-0.31346">
        <time>2022-07-29T10:07:21Z</time>
      </trkpt>
      <trkpt lat="42.73586" lon="-0.31364">
        <time>2022-07-29T10:07:22Z</time>
      </trkpt>
      <trkpt lat="42.73591" lon="-0.31382">
        <time>2022-07-29T10:07:23Z</time>
      </trkpt>
      <trkpt lat="42.73596" lon="-0.31399">
        <time>2022-07-29T10:07:24Z</time>
      </trkpt>
      <trkpt lat="42.73603" lon="-0.31418">
        <time>2022-07-29T10:07:25Z</time>
      </trkpt>
      <trkpt lat="42.73611" lon="-0.31436">
        <time>2022-07-29T10:07:26Z</time>
      </trkpt>
      <trkpt lat="42.73619" lon="-0.31453">
        <time>2022-07-29T10:07:27Z</time>
      </trkpt>
      <trkpt lat="42.73627" lon="-0.31471">
        <time>2022-07-29T10:07:28Z</time>
      </trkpt>
      <trkpt lat="42.73636" lon="-0.31488">
        <time>2022-07-29T10:07:29Z</time>
      </trkpt>
      <trkpt lat="42.73646" lon="-0.31505">
        <time>2022-07-29T10:07:30Z</time>
      </trkpt>
      <trkpt lat="42.73655" lon="-0.31521">
        <time>2022-07-29T10:07:31Z</time>
      </trkpt>
      <trkpt lat="42.73664" lon="-0.31536">
        <time>2022-07-29T10:07:32Z</time>
      </trkpt>
      <trkpt lat="42.73673" lon="-0.3155">
        <time>2022-07-29T10:07:33Z</time>
      </trkpt>
      <trkpt lat="42.73682" lon="-0.31564">
        <time>2022-07-29T10:07:34Z</time>
      </trkpt>
      <trkpt lat="42.73691" lon="-0.31579">
        <time>2022-07-29T10:07:35Z</time>
      </trkpt>
      <trkpt lat="42.73701" lon="-0.31594">
        <time>2022-07-29T10:07:36Z</time>
      </trkpt>
      <trkpt lat="42.73709" lon="-0.3161">
        <time>2022-07-29T10:07:37Z</time>
      </trkpt>
      <trkpt lat="42.73718" lon="-0.31627">
        <time>2022-07-29T10:07:38Z</time>
      </trkpt>
      <trkpt lat="42.73723" lon="-0.31645">
        <time>2022-07-29T10:07:39Z</time>
      </trkpt>
      <trkpt lat="42.73727" lon="-0.31665">
        <time>2022-07-29T10:07:40Z</time>
      </trkpt>
      <trkpt lat="42.7373" lon="-0.31686">
        <time>2022-07-29T10:07:41Z</time>
      </trkpt>
      <trkpt lat="42.73733" lon="-0.31707">
        <time>2022-07-29T10:07:42Z</time>
      </trkpt>
      <trkpt lat="42.73737" lon="-0.31727">
        <time>2022-07-29T10:07:43Z</time>
      </trkpt>
      <trkpt lat="42.73743" lon="-0.31745">
        <time>2022-07-29T10:07:44Z</time>
      </trkpt>
      <trkpt lat="42.7375" lon="-0.31762">
        <time>2022-07-29T10:07:45Z</time>
      </trkpt>
      <trkpt lat="42.73759" lon="-0.31776">
        <time>2022-07-29T10:07:46Z</time>
      </trkpt>
      <trkpt lat="42.73769" lon="-0.31787">
        <time>2022-07-29T10:07:47Z</time>
      </trkpt>
      <trkpt lat="42.73781" lon="-0.31794">
        <time>2022-07-29T10:07:48Z</time>
      </trkpt>
      <trkpt lat="42.73794" lon="-0.31798">
        <time>2022-07-29T10:07:49Z</time>
      </trkpt>
      <trkpt lat="42.73808" lon="-0.31799">
        <time>2022-07-29T10:07:50Z</time>
      </trkpt>
      <trkpt lat="42.73822" lon="-0.31798">
        <time>2022-07-29T10:07:51Z</time>
      </trkpt>
      <trkpt lat="42.73836" lon="-0.31794">
        <time>2022-07-29T10:07:52Z</time>
      </trkpt>
      <trkpt lat="42.73849" lon="-0.31789">
        <time>2022-07-29T10:07:53Z</time>
      </trkpt>
      <trkpt lat="42.73861" lon="-0.31782">
        <time>2022-07-29T10:07:54Z</time>
      </trkpt>
      <trkpt lat="42.74267" lon="-0.31536">
        <time>2022-07-29T10:08:34Z</time>
      </trkpt>
      <trkpt lat="42.74282" lon="-0.31534">
        <time>2022-07-29T10:08:35Z</time>
      </trkpt>
      <trkpt lat="42.74294" lon="-0.31536">
        <time>2022-07-29T10:08:36Z</time>
      </trkpt>
      <trkpt lat="42.74305" lon="-0.3154">
        <time>2022-07-29T10:08:37Z</time>
      </trkpt>
      <trkpt lat="42.74313" lon="-0.31546">
        <time>2022-07-29T10:08:38Z</time>
      </trkpt>
      <trkpt lat="42.74322" lon="-0.31555">
        <time>2022-07-29T10:08:39Z</time>
      </trkpt>
      <trkpt lat="42.74331" lon="-0.31562">
        <time>2022-07-29T10:08:40Z</time>
      </trkpt>
      <trkpt lat="42.74341" lon="-0.31568">
        <time>2022-07-29T10:08:41Z</time>
      </trkpt>
      <trkpt lat="42.7435" lon="-0.31574">
        <time>2022-07-29T10:08:42Z</time>
      </trkpt>
      <trkpt lat="42.74361" lon="-0.31581">
        <time>2022-07-29T10:08:43Z</time>
      </trkpt>
      <trkpt lat="42.74369" lon="-0.31585">
        <time>2022-07-29T10:08:44Z</time>
      </trkpt>
      <trkpt lat="42.74378" lon="-0.31589">
        <time>2022-07-29T10:08:45Z</time>
      </trkpt>
      <trkpt lat="42.74387" lon="-0.31591">
        <time>2022-07-29T10:08:46Z</time>
      </trkpt>
      <trkpt lat="42.74395" lon="-0.31592">
        <time>2022-07-29T10:08:47Z</time>
      </trkpt>
      <trkpt lat="42.74402" lon="-0.31594">
        <time>2022-07-29T10:08:48Z</time>
      </trkpt>
      <trkpt lat="42.74411" lon="-0.31595">
        <time>2022-07-29T10:08:49Z</time>
      </trkpt>
      <trkpt lat="42.7442" lon="-0.31596">
        <time>2022-07-29T10:08:50Z</time>
      </trkpt>
      <trkpt lat="42.7443" lon="-0.31596">
        <time>2022-07-29T10:08:51Z</time>
      </trkpt>
      <trkpt lat="42.7444" lon="-0.31597">
        <time>2022-07-29T10:08:52Z</time>
      </trkpt>
      <trkpt lat="42.7445" lon="-0.31596">
        <time>2022-07-29T10:08:53Z</time>
      </trkpt>
      <trkpt lat="42.7446" lon="-0.31596">
        <time>2022-07-29T10:08:54Z</time>
      </trkpt>
      <trkpt lat="42.74469" lon="-0.31595">
        <time>2022-07-29T10:08:55Z</time>
      </trkpt>
      <trkpt lat="42.74477" lon="-0.31592">
        <time>2022-07-29T10:08:56Z</time>
      </trkpt>
      <trkpt lat="42.74486" lon="-0.3159">
        <time>2022-07-29T10:08:57Z</time>
      </trkpt>
      <trkpt lat="42.74497" lon="-0.31588">
        <time>2022-07-29T10:08:58Z</time>
      </trkpt>
      <trkpt lat="42.74507" lon="-0.31587">
        <time>2022-07-29T10:08:59Z</time>
      </trkpt>
      <trkpt lat="42.74518" lon="-0.31589">
        <time>2022-07-29T10:09:00Z</time>
      </trkpt>
      <trkpt lat="42.74528" lon="-0.31592">
        <time>2022-07-29T10:09:01Z</time>
      </trkpt>
      <trkpt lat="42.74539" lon="-0.31595">
        <time>2022-07-29T10:09:02Z</time>
      </trkpt>
      <trkpt lat="42.74548" lon="-0.31601">
        <time>2022-07-29T10:09:03Z</time>
      </trkpt>
      <trkpt lat="42.74557" lon="-0.31609">
        <time>2022-07-29T10:09:04Z</time>
      </trkpt>
      <trkpt lat="42.74567" lon="-0.31616">
        <time>2022-07-29T10:09:05Z</time>
      </trkpt>
      <trkpt lat="42.74575" lon="-0.31623">
        <time>2022-07-29T10:09:06Z</time>
      </trkpt>
      <trkpt lat="42.74585" lon="-0.3163">
        <time>2022-07-29T10:09:07Z</time>
      </trkpt>
      <trkpt lat="42.74596" lon="-0.31638">
        <time>2022-07-29T10:09:08Z</time>
      </trkpt>
      <trkpt lat="42.74607" lon="-0.31646">
        <time>2022-07-29T10:09:09Z</time>
      </trkpt>
      <trkpt lat="42.74618" lon="-0.31655">
        <time>2022-07-29T10:09:10Z</time>
      </trkpt>
      <trkpt lat="42.74628" lon="-0.31661">
        <time>2022-07-29T10:09:11Z</time>
      </trkpt>
      <trkpt lat="42.74637" lon="-0.31668">
        <time>2022-07-29T10:09:12Z</time>
      </trkpt>
      <trkpt lat="42.74644" lon="-0.31673">
        <time>2022-07-29T10:09:13Z</time>
      </trkpt>
      <trkpt lat="42.74652" lon="-0.31678">
        <time>2022-07-29T10:09:14Z</time>
      </trkpt>
      <trkpt lat="42.74661" lon="-0.31684">
        <time>2022-07-29T10:09:15Z</time>
      </trkpt>
      <trkpt lat="42.74669" lon="-0.3169">
        <time>2022-07-29T10:09:16Z</time>
      </trkpt>
      <trkpt lat="42.74676" lon="-0.31697">
        <time>2022-07-29T10:09:17Z</time>
      </trkpt>
      <trkpt lat="42.74686" lon="-0.31704">
        <time>2022-07-29T10:09:18Z</time>
      </trkpt>
      <trkpt lat="42.74695" lon="-0.31711">
        <time>2022-07-29T10:09:19Z</time>
      </trkpt>
      <trkpt lat="42.74705" lon="-0.31718">
        <time>2022-07-29T10:09:20Z</time>
      </trkpt>
      <trkpt lat="42.74715" lon="-0.31725">
        <time>2022-07-29T10:09:21Z</time>
      </trkpt>
      <trkpt lat="42.74727" lon="-0.3173">
        <time>2022-07-29T10:09:22Z</time>
      </trkpt>
      <trkpt lat="42.74737" lon="-0.31734">
        <time>2022-07-29T10:09:23Z</time>
      </trkpt>
      <trkpt lat="42.74748" lon="-0.31736">
        <time>2022-07-29T10:09:24Z</time>
      </trkpt>
      <trkpt lat="42.74759" lon="-0.31735">
        <time>2022-07-29T10:09:25Z</time>
      </trkpt>
      <trkpt lat="42.7477" lon="-0.31734">
        <time>2022-07-29T10:09:26Z</time>
      </trkpt>
      <trkpt lat="42.74782" lon="-0.31731">
        <time>2022-07-29T10:09:27Z</time>
      </trkpt>
      <trkpt lat="42.74794" lon="-0.31727">
        <time>2022-07-29T10:09:28Z</time>
      </trkpt>
      <trkpt lat="42.74806" lon="-0.31722">
        <time>2022-07-29T10:09:29Z</time>
      </trkpt>
      <trkpt lat="42.74817" lon="-0.31717">
        <time>2022-07-29T10:09:30Z</time>
      </trkpt>
      <trkpt lat="42.74829" lon="-0.3171">
        <time>2022-07-29T10:09:31Z</time>
      </trkpt>
      <trkpt lat="42.7484" lon="-0.31703">
        <time>2022-07-29T10:09:32Z</time>
      </trkpt>
      <trkpt lat="42.7485" lon="-0.31695">
        <time>2022-07-29T10:09:33Z</time>
      </trkpt>
      <trkpt lat="42.74859" lon="-0.31685">
        <time>2022-07-29T10:09:34Z</time>
      </trkpt>
      <trkpt lat="42.74869" lon="-0.31675">
        <time>2022-07-29T10:09:35Z</time>
      </trkpt>
      <trkpt lat="42.74879" lon="-0.31666">
        <time>2022-07-29T10:09:36Z</time>
      </trkpt>
      <trkpt lat="42.74888" lon="-0.31657">
        <time>2022-07-29T10:09:37Z</time>
      </trkpt>
      <trkpt lat="42.74898" lon="-0.31648">
        <time>2022-07-29T10:09:38Z</time>
      </trkpt>
      <trkpt lat="42.74907" lon="-0.31638">
        <time>2022-07-29T10:09:39Z</time>
      </trkpt>
      <trkpt lat="42.74916" lon="-0.31629">
        <time>2022-07-29T10:09:40Z</time>
      </trkpt>
      <trkpt lat="42.74925" lon="-0.31621">
        <time>2022-07-29T10:09:41Z</time>
      </trkpt>
      <trkpt lat="42.74935" lon="-0.31614">
        <time>2022-07-29T10:09:42Z</time>
      </trkpt>
      <trkpt lat="42.74944" lon="-0.31608">
        <time>2022-07-29T10:09:43Z</time>
      </trkpt>
      <trkpt lat="42.74952" lon="-0.31603">
        <time>2022-07-29T10:09:44Z</time>
      </trkpt>
      <trkpt lat="42.74961" lon="-0.31598">
        <time>2022-07-29T10:09:45Z</time>
      </trkpt>
      <trkpt lat="42.7497" lon="-0.31593">
        <time>2022-07-29T10:09:46Z</time>
      </trkpt>
      <trkpt lat="42.74979" lon="-0.31587">
        <time>2022-07-29T10:09:47Z</time>
      </trkpt>
      <trkpt lat="42.74987" lon="-0.31583">
        <time>2022-07-29T10:09:48Z</time>
      </trkpt>
      <trkpt lat="42.74995" lon="-0.3158">
        <time>2022-07-29T10:09:49Z</time>
      </trkpt>
      <trkpt lat="42.75003" lon="-0.31578">
        <time>2022-07-29T10:09:50Z</time>
      </trkpt>
      <trkpt lat="42.7501" lon="-0.31577">
        <time>2022-07-29T10:09:51Z</time>
      </trkpt>
      <trkpt lat="42.75017" lon="-0.31579">
        <time>2022-07-29T10:09:52Z</time>
      </trkpt>
      <trkpt lat="42.75024" lon="-0.31582">
        <time>2022-07-29T10:09:53Z</time>
      </trkpt>
      <trkpt lat="42.75032" lon="-0.31587">
        <time>2022-07-29T10:09:54Z</time>
      </trkpt>
      <trkpt lat="42.75039" lon="-0.31594">
        <time>2022-07-29T10:09:55Z</time>
      </trkpt>
      <trkpt lat="42.75046" lon="-0.31602">
        <time>2022-07-29T10:09:56Z</time>
      </trkpt>
      <trkpt lat="42.75055" lon="-0.31611">
        <time>2022-07-29T10:09:57Z</time>
      </trkpt>
      <trkpt lat="42.75063" lon="-0.31621">
        <time>2022-07-29T10:09:58Z</time>
      </trkpt>
      <trkpt lat="42.75072" lon="-0.31632">
        <time>2022-07-29T10:09:59Z</time>
      </trkpt>
      <trkpt lat="42.75083" lon="-0.31645">
        <time>2022-07-29T10:10:00Z</time>
      </trkpt>
      <trkpt lat="42.75094" lon="-0.31656">
        <time>2022-07-29T10:10:01Z</time>
      </trkpt>
      <trkpt lat="42.75105" lon="-0.31668">
        <time>2022-07-29T10:10:02Z</time>
      </trkpt>
      <trkpt lat="42.75116" lon="-0.31678">
        <time>2022-07-29T10:10:03Z</time>
      </trkpt>
      <trkpt lat="42.75127" lon="-0.31687">
        <time>2022-07-29T10:10:04Z</time>
      </trkpt>
      <trkpt lat="42.75136" lon="-0.31695">
        <time>2022-07-29T10:10:05Z</time>
      </trkpt>
      <trkpt lat="42.75145" lon="-0.31704">
        <time>2022-07-29T10:10:06Z</time>
      </trkpt>
      <trkpt lat="42.75157" lon="-0.31712">
        <time>2022-07-29T10:10:07Z</time>
      </trkpt>
      <trkpt lat="42.7517" lon="-0.3172">
        <time>2022-07-29T10:10:08Z</time>
      </trkpt>
      <trkpt lat="42.75184" lon="-0.3173">
        <time>2022-07-29T10:10:09Z</time>
      </trkpt>
      <trkpt lat="42.75199" lon="-0.31739">
        <time>2022-07-29T10:10:10Z</time>
      </trkpt>
      <trkpt lat="42.75213" lon="-0.3175">
        <time>2022-07-29T10:10:11Z</time>
      </trkpt>
      <trkpt lat="42.75225" lon="-0.3176">
        <time>2022-07-29T10:10:12Z</time>
      </trkpt>
      <trkpt lat="42.75237" lon="-0.3177">
        <time>2022-07-29T10:10:13Z</time>
      </trkpt>
      <trkpt lat="42.75248" lon="-0.31781">
        <time>2022-07-29T10:10:14Z</time>
      </trkpt>
      <trkpt lat="42.75259" lon="-0.31792">
        <time>2022-07-29T10:10:15Z</time>
      </trkpt>
      <trkpt lat="42.7527" lon="-0.31803">
        <time>2022-07-29T10:10:16Z</time>
      </trkpt>
      <trkpt lat="42.75281" lon="-0.31814">
        <time>2022-07-29T10:10:17Z</time>
      </trkpt>
      <trkpt lat="42.75292" lon="-0.31826">
        <time>2022-07-29T10:10:18Z</time>
      </trkpt>
      <trkpt lat="42.75304" lon="-0.31837">
        <time>2022-07-29T10:10:19Z</time>
      </trkpt>
      <trkpt lat="42.75316" lon="-0.31848">
        <time>2022-07-29T10:10:20Z</time>
      </trkpt>
      <trkpt lat="42.75328" lon="-0.3186">
        <time>2022-07-29T10:10:21Z</time>
      </trkpt>
      <trkpt lat="42.7534" lon="-0.31872">
        <time>2022-07-29T10:10:22Z</time>
      </trkpt>
      <trkpt lat="42.75351" lon="-0.31883">
        <time>2022-07-29T10:10:23Z</time>
      </trkpt>
      <trkpt lat="42.75362" lon="-0.31894">
        <time>2022-07-29T10:10:24Z</time>
      </trkpt>
      <trkpt lat="42.75372" lon="-0.31908">
        <time>2022-07-29T10:10:25Z</time>
      </trkpt>
      <trkpt lat="42.75383" lon="-0.31923">
        <time>2022-07-29T10:10:26Z</time>
      </trkpt>
      <trkpt lat="42.75394" lon="-0.31939">
        <time>2022-07-29T10:10:27Z</time>
      </trkpt>
      <trkpt lat="42.75405" lon="-0.31953">
        <time>2022-07-29T10:10:28Z</time>
      </trkpt>
      <trkpt lat="42.75417" lon="-0.31966">
        <time>2022-07-29T10:10:29Z</time>
      </trkpt>
      <trkpt lat="42.7543" lon="-0.31978">
        <time>2022-07-29T10:10:30Z</time>
      </trkpt>
      <trkpt lat="42.75445" lon="-0.31985">
        <time>2022-07-29T10:10:31Z</time>
      </trkpt>
      <trkpt lat="42.75459" lon="-0.31991">
        <time>2022-07-29T10:10:32Z</time>
      </trkpt>
      <trkpt lat="42.75473" lon="-0.31996">
        <time>2022-07-29T10:10:33Z</time>
      </trkpt>
      <trkpt lat="42.75487" lon="-0.32">
        <time>2022-07-29T10:10:34Z</time>
      </trkpt>
      <trkpt lat="42.755" lon="-0.32004">
        <time>2022-07-29T10:10:35Z</time>
      </trkpt>
      <trkpt lat="42.75512" lon="-0.32008">
        <time>2022-07-29T10:10:36Z</time>
      </trkpt>
      <trkpt lat="42.75524" lon="-0.32012">
        <time>2022-07-29T10:10:37Z</time>
      </trkpt>
      <trkpt lat="42.75538" lon="-0.32015">
        <time>2022-07-29T10:10:38Z</time>
      </trkpt>
      <trkpt lat="42.75552" lon="-0.32019">
        <time>2022-07-29T10:10:39Z</time>
      </trkpt>
      <trkpt lat="42.75565" lon="-0.32023">
        <time>2022-07-29T10:10:40Z</time>
      </trkpt>
      <trkpt lat="42.75579" lon="-0.32027">
        <time>2022-07-29T10:10:41Z</time>
      </trkpt>
      <trkpt lat="42.75594" lon="-0.3203">
        <time>2022-07-29T10:10:42Z</time>
      </trkpt>
      <trkpt lat="42.7561" lon="-0.32033">
        <time>2022-07-29T10:10:43Z</time>
      </trkpt>
      <trkpt lat="42.75625" lon="-0.32037">
        <time>2022-07-29T10:10:44Z</time>
      </trkpt>
      <trkpt lat="42.7564" lon="-0.32041">
        <time>2022-07-29T10:10:45Z</time>
      </trkpt>
      <trkpt lat="42.75654" lon="-0.32044">
        <time>2022-07-29T10:10:46Z</time>
      </trkpt>
      <trkpt lat="42.75668" lon="-0.32048">
        <time>2022-07-29T10:10:47Z</time>
      </trkpt>
      <trkpt lat="42.75681" lon="-0.32052">
        <time>2022-07-29T10:10:48Z</time>
      </trkpt>
      <trkpt lat="42.75695" lon="-0.32058">
        <time>2022-07-29T10:10:49Z</time>
      </trkpt>
      <trkpt lat="42.75708" lon="-0.32066">
        <time>2022-07-29T10:10:50Z</time>
      </trkpt>
      <trkpt lat="42.7572" lon="-0.32073">
        <time>2022-07-29T10:10:51Z</time>
      </trkpt>
      <trkpt lat="42.75731" lon="-0.3208">
        <time>2022-07-29T10:10:52Z</time>
      </trkpt>
      <trkpt lat="42.75741" lon="-0.32087">
        <time>2022-07-29T10:10:53Z</time>
      </trkpt>
      <trkpt lat="42.75751" lon="-0.32093">
        <time>2022-07-29T10:10:54Z</time>
      </trkpt>
      <trkpt lat="42.75761" lon="-0.32099">
        <time>2022-07-29T10:10:55Z</time>
      </trkpt>
      <trkpt lat="42.75771" lon="-0.32105">
        <time>2022-07-29T10:10:56Z</time>
      </trkpt>
      <trkpt lat="42.75782" lon="-0.32112">
        <time>2022-07-29T10:10:57Z</time>
      </trkpt>
      <trkpt lat="42.75792" lon="-0.32119">
        <time>2022-07-29T10:10:58Z</time>
      </trkpt>
      <trkpt lat="42.75803" lon="-0.32127">
        <time>2022-07-29T10:10:59Z</time>
      </trkpt>
      <trkpt lat="42.75813" lon="-0.32138">
        <time>2022-07-29T10:11:00Z</time>
      </trkpt>
      <trkpt lat="42.75822" lon="-0.32151">
        <time>2022-07-29T10:11:01Z</time>
      </trkpt>
      <trkpt lat="42.75832" lon="-0.32166">
        <time>2022-07-29T10:11:02Z</time>
      </trkpt>
      <trkpt lat="42.75841" lon="-0.32182">
        <time>2022-07-29T10:11:03Z</time>
      </trkpt>
      <trkpt lat="42.7585" lon="-0.32199">
        <time>2022-07-29T10:11:04Z</time>
      </trkpt>
      <trkpt lat="42.75859" lon="-0.32215">
        <time>2022-07-29T10:11:05Z</time>
      </trkpt>
      <trkpt lat="42.75867" lon="-0.3223">
        <time>2022-07-29T10:11:06Z</time>
      </trkpt>
      <trkpt lat="42.75875" lon="-0.32244">
        <time>2022-07-29T10:11:07Z</time>
      </trkpt>
      <trkpt lat="42.75883" lon="-0.32257">
        <time>2022-07-29T10:11:08Z</time>
      </trkpt>
      <trkpt lat="42.75891" lon="-0.3227">
        <time>2022-07-29T10:11:09Z</time>
      </trkpt>
      <trkpt lat="42.75899" lon="-0.32284">
        <time>2022-07-29T10:11:10Z</time>
      </trkpt>
      <trkpt lat="42.75908" lon="-0.32297">
        <time>2022-07-29T10:11:11Z</time>
      </trkpt>
      <trkpt lat="42.75916" lon="-0.32312">
        <time>2022-07-29T10:11:12Z</time>
      </trkpt>
      <trkpt lat="42.75923" lon="-0.32329">
        <time>2022-07-29T10:11:13Z</time>
      </trkpt>
      <trkpt lat="42.7593" lon="-0.32346">
        <time>2022-07-29T10:11:14Z</time>
      </trkpt>
      <trkpt lat="42.75935" lon="-0.32364">
        <time>2022-07-29T10:11:15Z</time>
      </trkpt>
      <trkpt lat="42.7594" lon="-0.32383">
        <time>2022-07-29T10:11:16Z</time>
      </trkpt>
      <trkpt lat="42.7594" lon="-0.32401">
        <time>2022-07-29T10:11:17Z</time>
      </trkpt>
      <trkpt lat="42.7594" lon="-0.3242">
        <time>2022-07-29T10:11:18Z</time>
      </trkpt>
      <trkpt lat="42.75937" lon="-0.32438">
        <time>2022-07-29T10:11:19Z</time>
      </trkpt>
      <trkpt lat="42.75934" lon="-0.32456">
        <time>2022-07-29T10:11:20Z</time>
      </trkpt>
      <trkpt lat="42.75929" lon="-0.32473">
        <time>2022-07-29T10:11:21Z</time>
      </trkpt>
      <trkpt lat="42.75924" lon="-0.3249">
        <time>2022-07-29T10:11:22Z</time>
      </trkpt>
      <trkpt lat="42.75919" lon="-0.32506">
        <time>2022-07-29T10:11:23Z</time>
      </trkpt>
      <trkpt lat="42.75914" lon="-0.32522">
        <time>2022-07-29T10:11:24Z</time>
      </trkpt>
      <trkpt lat="42.7591" lon="-0.32537">
        <time>2022-07-29T10:11:25Z</time>
      </trkpt>
      <trkpt lat="42.75905" lon="-0.32553">
        <time>2022-07-29T10:11:26Z</time>
      </trkpt>
      <trkpt lat="42.75901" lon="-0.3257">
        <time>2022-07-29T10:11:27Z</time>
      </trkpt>
      <trkpt lat="42.75895" lon="-0.32587">
        <time>2022-07-29T10:11:28Z</time>
      </trkpt>
      <trkpt lat="42.7589" lon="-0.32606">
        <time>2022-07-29T10:11:29Z</time>
      </trkpt>
      <trkpt lat="42.75885" lon="-0.32623">
        <time>2022-07-29T10:11:30Z</time>
      </trkpt>
      <trkpt lat="42.75879" lon="-0.3264">
        <time>2022-07-29T10:11:31Z</time>
      </trkpt>
      <trkpt lat="42.75876" lon="-0.32657">
        <time>2022-07-29T10:11:32Z</time>
      </trkpt>
      <trkpt lat="42.75873" lon="-0.32674">
        <time>2022-07-29T10:11:33Z</time>
      </trkpt>
      <trkpt lat="42.75872" lon="-0.32691">
        <time>2022-07-29T10:11:34Z</time>
      </trkpt>
      <trkpt lat="42.75872" lon="-0.32707">
        <time>2022-07-29T10:11:35Z</time>
      </trkpt>
      <trkpt lat="42.75874" lon="-0.32724">
        <time>2022-07-29T10:11:36Z</time>
      </trkpt>
      <trkpt lat="42.75875" lon="-0.32739">
        <time>2022-07-29T10:11:37Z</time>
      </trkpt>
      <trkpt lat="42.75878" lon="-0.32754">
        <time>2022-07-29T10:11:38Z</time>
      </trkpt>
      <trkpt lat="42.75881" lon="-0.32769">
        <time>2022-07-29T10:11:39Z</time>
      </trkpt>
      <trkpt lat="42.75885" lon="-0.32785">
        <time>2022-07-29T10:11:40Z</time>
      </trkpt>
      <trkpt lat="42.75889" lon="-0.32801">
        <time>2022-07-29T10:11:41Z</time>
      </trkpt>
      <trkpt lat="42.75894" lon="-0.32818">
        <time>2022-07-29T10:11:42Z</time>
      </trkpt>
      <trkpt lat="42.75899" lon="-0.32836">
        <time>2022-07-29T10:11:43Z</time>
      </trkpt>
      <trkpt lat="42.75905" lon="-0.32853">
        <time>2022-07-29T10:11:44Z</time>
      </trkpt>
      <trkpt lat="42.7591" lon="-0.32871">
        <time>2022-07-29T10:11:45Z</time>
      </trkpt>
      <trkpt lat="42.75916" lon="-0.32888">
        <time>2022-07-29T10:11:46Z</time>
      </trkpt>
      <trkpt lat="42.75921" lon="-0.32906">
        <time>2022-07-29T10:11:47Z</time>
      </trkpt>
      <trkpt lat="42.75926" lon="-0.32923">
        <time>2022-07-29T10:11:48Z</time>
      </trkpt>
      <trkpt lat="42.75931" lon="-0.32941">
        <time>2022-07-29T10:11:49Z</time>
      </trkpt>
      <trkpt lat="42.75936" lon="-0.3296">
        <time>2022-07-29T10:11:50Z</time>
      </trkpt>
      <trkpt lat="42.75942" lon="-0.32979">
        <time>2022-07-29T10:11:51Z</time>
      </trkpt>
      <trkpt lat="42.75949" lon="-0.32998">
        <time>2022-07-29T10:11:52Z</time>
      </trkpt>
      <trkpt lat="42.75955" lon="-0.33017">
        <time>2022-07-29T10:11:53Z</time>
      </trkpt>
      <trkpt lat="42.7596" lon="-0.33035">
        <time>2022-07-29T10:11:54Z</time>
      </trkpt>
      <trkpt lat="42.75966" lon="-0.33053">
        <time>2022-07-29T10:11:55Z</time>
      </trkpt>
      <trkpt lat="42.75971" lon="-0.3307">
        <time>2022-07-29T10:11:56Z</time>
      </trkpt>
      <trkpt lat="42.75976" lon="-0.33087">
        <time>2022-07-29T10:11:57Z</time>
      </trkpt>
      <trkpt lat="42.75981" lon="-0.33104">
        <time>2022-07-29T10:11:58Z</time>
      </trkpt>
      <trkpt lat="42.75986" lon="-0.3312">
        <time>2022-07-29T10:11:59Z</time>
      </trkpt>
      <trkpt lat="42.75992" lon="-0.33137">
        <time>2022-07-29T10:12:00Z</time>
      </trkpt>
      <trkpt lat="42.75997" lon="-0.33154">
        <time>2022-07-29T10:12:01Z</time>
      </trkpt>
      <trkpt lat="42.76002" lon="-0.33171">
        <time>2022-07-29T10:12:02Z</time>
      </trkpt>
      <trkpt lat="42.76008" lon="-0.33188">
        <time>2022-07-29T10:12:03Z</time>
      </trkpt>
      <trkpt lat="42.76014" lon="-0.33206">
        <time>2022-07-29T10:12:04Z</time>
      </trkpt>
      <trkpt lat="42.76019" lon="-0.33222">
        <time>2022-07-29T10:12:05Z</time>
      </trkpt>
      <trkpt lat="42.76025" lon="-0.33239">
        <time>2022-07-29T10:12:06Z</time>
      </trkpt>
      <trkpt lat="42.7603" lon="-0.33255">
        <time>2022-07-29T10:12:07Z</time>
      </trkpt>
      <trkpt lat="42.76035" lon="-0.3327">
        <time>2022-07-29T10:12:08Z</time>
      </trkpt>
      <trkpt lat="42.7604" lon="-0.33283">
        <time>2022-07-29T10:12:09Z</time>
      </trkpt>
      <trkpt lat="42.76045" lon="-0.33296">
        <time>2022-07-29T10:12:10Z</time>
      </trkpt>
      <trkpt lat="42.76049" lon="-0.33308">
        <time>2022-07-29T10:12:11Z</time>
      </trkpt>
      <trkpt lat="42.76054" lon="-0.33321">
        <time>2022-07-29T10:12:12Z</time>
      </trkpt>
      <trkpt lat="42.76061" lon="-0.33332">
        <time>2022-07-29T10:12:13Z</time>
      </trkpt>
      <trkpt lat="42.76068" lon="-0.33343">
        <time>2022-07-29T10:12:14Z</time>
      </trkpt>
      <trkpt lat="42.76077" lon="-0.33352">
        <time>2022-07-29T10:12:15Z</time>
      </trkpt>
      <trkpt lat="42.76085" lon="-0.3336">
        <time>2022-07-29T10:12:16Z</time>
      </trkpt>
      <trkpt lat="42.76092" lon="-0.33367">
        <time>2022-07-29T10:12:17Z</time>
      </trkpt>
      <trkpt lat="42.761" lon="-0.33372">
        <time>2022-07-29T10:12:18Z</time>
      </trkpt>
      <trkpt lat="42.76106" lon="-0.33379">
        <time>2022-07-29T10:12:19Z</time>
      </trkpt>
      <trkpt lat="42.76114" lon="-0.33385">
        <time>2022-07-29T10:12:20Z</time>
      </trkpt>
      <trkpt lat="42.76121" lon="-0.33391">
        <time>2022-07-29T10:12:21Z</time>
      </trkpt>
      <trkpt lat="42.76129" lon="-0.33398">
        <time>2022-07-29T10:12:22Z</time>
      </trkpt>
      <trkpt lat="42.76138" lon="-0.33405">
        <time>2022-07-29T10:12:23Z</time>
      </trkpt>
      <trkpt lat="42.76146" lon="-0.33413">
        <time>2022-07-29T10:12:24Z</time>
      </trkpt>
      <trkpt lat="42.76156" lon="-0.33421">
        <time>2022-07-29T10:12:25Z</time>
      </trkpt>
      <trkpt lat="42.76166" lon="-0.3343">
        <time>2022-07-29T10:12:26Z</time>
      </trkpt>
      <trkpt lat="42.76176" lon="-0.33439">
        <time>2022-07-29T10:12:27Z</time>
      </trkpt>
      <trkpt lat="42.76186" lon="-0.33449">
        <time>2022-07-29T10:12:28Z</time>
      </trkpt>
      <trkpt lat="42.76196" lon="-0.33458">
        <time>2022-07-29T10:12:29Z</time>
      </trkpt>
      <trkpt lat="42.76204" lon="-0.3347">
        <time>2022-07-29T10:12:30Z</time>
      </trkpt>
      <trkpt lat="42.76213" lon="-0.33482">
        <time>2022-07-29T10:12:31Z</time>
      </trkpt>
      <trkpt lat="42.76219" lon="-0.33498">
        <time>2022-07-29T10:12:32Z</time>
      </trkpt>
      <trkpt lat="42.76225" lon="-0.33513">
        <time>2022-07-29T10:12:33Z</time>
      </trkpt>
      <trkpt lat="42.76232" lon="-0.3353">
        <time>2022-07-29T10:12:34Z</time>
      </trkpt>
      <trkpt lat="42.76239" lon="-0.33546">
        <time>2022-07-29T10:12:35Z</time>
      </trkpt>
      <trkpt lat="42.76247" lon="-0.3356">
        <time>2022-07-29T10:12:36Z</time>
      </trkpt>
      <trkpt lat="42.76256" lon="-0.33573">
        <time>2022-07-29T10:12:37Z</time>
      </trkpt>
      <trkpt lat="42.76266" lon="-0.33583">
        <time>2022-07-29T10:12:38Z</time>
      </trkpt>
      <trkpt lat="42.76276" lon="-0.3359">
        <time>2022-07-29T10:12:39Z</time>
      </trkpt>
      <trkpt lat="42.76286" lon="-0.33595">
        <time>2022-07-29T10:12:40Z</time>
      </trkpt>
      <trkpt lat="42.76298" lon="-0.33596">
        <time>2022-07-29T10:12:41Z</time>
      </trkpt>
      <trkpt lat="42.76308" lon="-0.33595">
        <time>2022-07-29T10:12:42Z</time>
      </trkpt>
      <trkpt lat="42.7632" lon="-0.33593">
        <time>2022-07-29T10:12:43Z</time>
      </trkpt>
      <trkpt lat="42.76332" lon="-0.3359">
        <time>2022-07-29T10:12:44Z</time>
      </trkpt>
      <trkpt lat="42.76344" lon="-0.33588">
        <time>2022-07-29T10:12:45Z</time>
      </trkpt>
      <trkpt lat="42.76355" lon="-0.33586">
        <time>2022-07-29T10:12:46Z</time>
      </trkpt>
      <trkpt lat="42.76368" lon="-0.33587">
        <time>2022-07-29T10:12:47Z</time>
      </trkpt>
      <trkpt lat="42.76382" lon="-0.33589">
        <time>2022-07-29T10:12:48Z</time>
      </trkpt>
      <trkpt lat="42.76395" lon="-0.33592">
        <time>2022-07-29T10:12:49Z</time>
      </trkpt>
      <trkpt lat="42.76409" lon="-0.33596">
        <time>2022-07-29T10:12:50Z</time>
      </trkpt>
      <trkpt lat="42.76424" lon="-0.33602">
        <time>2022-07-29T10:12:51Z</time>
      </trkpt>
      <trkpt lat="42.76438" lon="-0.33609">
        <time>2022-07-29T10:12:52Z</time>
      </trkpt>
      <trkpt lat="42.76452" lon="-0.33615">
        <time>2022-07-29T10:12:53Z</time>
      </trkpt>
      <trkpt lat="42.76465" lon="-0.33621">
        <time>2022-07-29T10:12:54Z</time>
      </trkpt>
      <trkpt lat="42.76478" lon="-0.33628">
        <time>2022-07-29T10:12:55Z</time>
      </trkpt>
      <trkpt lat="42.76489" lon="-0.33634">
        <time>2022-07-29T10:12:56Z</time>
      </trkpt>
      <trkpt lat="42.765" lon="-0.33638">
        <time>2022-07-29T10:12:57Z</time>
      </trkpt>
      <trkpt lat="42.7651" lon="-0.33641">
        <time>2022-07-29T10:12:58Z</time>
      </trkpt>
      <trkpt lat="42.76521" lon="-0.33642">
        <time>2022-07-29T10:12:59Z</time>
      </trkpt>
      <trkpt lat="42.76531" lon="-0.3364">
        <time>2022-07-29T10:13:00Z</time>
      </trkpt>
      <trkpt lat="42.76542" lon="-0.33635">
        <time>2022-07-29T10:13:01Z</time>
      </trkpt>
      <trkpt lat="42.76554" lon="-0.33629">
        <time>2022-07-29T10:13:02Z</time>
      </trkpt>
      <trkpt lat="42.76565" lon="-0.33622">
        <time>2022-07-29T10:13:03Z</time>
      </trkpt>
      <trkpt lat="42.76575" lon="-0.33614">
        <time>2022-07-29T10:13:04Z</time>
      </trkpt>
      <trkpt lat="42.76587" lon="-0.33606">
        <time>2022-07-29T10:13:05Z</time>
      </trkpt>
      <trkpt lat="42.76598" lon="-0.33598">
        <time>2022-07-29T10:13:06Z</time>
      </trkpt>
      <trkpt lat="42.76609" lon="-0.33591">
        <time>2022-07-29T10:13:07Z</time>
      </trkpt>
      <trkpt lat="42.76619" lon="-0.33584">
        <time>2022-07-29T10:13:08Z</time>
      </trkpt>
      <trkpt lat="42.76629" lon="-0.33577">
        <time>2022-07-29T10:13:09Z</time>
      </trkpt>
      <trkpt lat="42.76638" lon="-0.3357">
        <time>2022-07-29T10:13:10Z</time>
      </trkpt>
      <trkpt lat="42.76648" lon="-0.33563">
        <time>2022-07-29T10:13:11Z</time>
      </trkpt>
      <trkpt lat="42.76657" lon="-0.33556">
        <time>2022-07-29T10:13:12Z</time>
      </trkpt>
      <trkpt lat="42.76666" lon="-0.33549">
        <time>2022-07-29T10:13:13Z</time>
      </trkpt>
      <trkpt lat="42.76675" lon="-0.33542">
        <time>2022-07-29T10:13:14Z</time>
      </trkpt>
      <trkpt lat="42.76685" lon="-0.33536">
        <time>2022-07-29T10:13:15Z</time>
      </trkpt>
      <trkpt lat="42.76694" lon="-0.3353">
        <time>2022-07-29T10:13:16Z</time>
      </trkpt>
      <trkpt lat="42.76704" lon="-0.33524">
        <time>2022-07-29T10:13:17Z</time>
      </trkpt>
      <trkpt lat="42.76714" lon="-0.33521">
        <time>2022-07-29T10:13:18Z</time>
      </trkpt>
      <trkpt lat="42.76724" lon="-0.33518">
        <time>2022-07-29T10:13:19Z</time>
      </trkpt>
      <trkpt lat="42.76734" lon="-0.33516">
        <time>2022-07-29T10:13:20Z</time>
      </trkpt>
      <trkpt lat="42.76743" lon="-0.33516">
        <time>2022-07-29T10:13:21Z</time>
      </trkpt>
      <trkpt lat="42.76751" lon="-0.33515">
        <time>2022-07-29T10:13:22Z</time>
      </trkpt>
      <trkpt lat="42.76758" lon="-0.33515">
        <time>2022-07-29T10:13:23Z</time>
      </trkpt>
      <trkpt lat="42.76764" lon="-0.33514">
        <time>2022-07-29T10:13:24Z</time>
      </trkpt>
      <trkpt lat="42.76771" lon="-0.33514">
        <time>2022-07-29T10:13:25Z</time>
      </trkpt>
      <trkpt lat="42.76777" lon="-0.33513">
        <time>2022-07-29T10:13:26Z</time>
      </trkpt>
      <trkpt lat="42.76783" lon="-0.33513">
        <time>2022-07-29T10:13:27Z</time>
      </trkpt>
      <trkpt lat="42.76789" lon="-0.33512">
        <time>2022-07-29T10:13:28Z</time>
      </trkpt>
      <trkpt lat="42.76795" lon="-0.33511">
        <time>2022-07-29T10:13:29Z</time>
      </trkpt>
      <trkpt lat="42.76802" lon="-0.3351">
        <time>2022-07-29T10:13:30Z</time>
      </trkpt>
      <trkpt lat="42.76808" lon="-0.3351">
        <time>2022-07-29T10:13:31Z</time>
      </trkpt>
      <trkpt lat="42.76815" lon="-0.33509">
        <time>2022-07-29T10:13:32Z</time>
      </trkpt>
      <trkpt lat="42.76822" lon="-0.33509">
        <time>2022-07-29T10:13:33Z</time>
      </trkpt>
      <trkpt lat="42.76829" lon="-0.33508">
        <time>2022-07-29T10:13:34Z</time>
      </trkpt>
      <trkpt lat="42.76835" lon="-0.33506">
        <time>2022-07-29T10:13:35Z</time>
      </trkpt>
      <trkpt lat="42.76842" lon="-0.33504">
        <time>2022-07-29T10:13:36Z</time>
      </trkpt>
      <trkpt lat="42.76848" lon="-0.33501">
        <time>2022-07-29T10:13:37Z</time>
      </trkpt>
      <trkpt lat="42.76856" lon="-0.33499">
        <time>2022-07-29T10:13:38Z</time>
      </trkpt>
      <trkpt lat="42.76862" lon="-0.33496">
        <time>2022-07-29T10:13:39Z</time>
      </trkpt>
      <trkpt lat="42.76868" lon="-0.33494">
        <time>2022-07-29T10:13:40Z</time>
      </trkpt>
      <trkpt lat="42.76874" lon="-0.33492">
        <time>2022-07-29T10:13:41Z</time>
      </trkpt>
      <trkpt lat="42.76878" lon="-0.33489">
        <time>2022-07-29T10:13:42Z</time>
      </trkpt>
      <trkpt lat="42.76883" lon="-0.33486">
        <time>2022-07-29T10:13:43Z</time>
      </trkpt>
      <trkpt lat="42.76886" lon="-0.33483">
        <time>2022-07-29T10:13:44Z</time>
      </trkpt>
      <trkpt lat="42.76889" lon="-0.3348">
        <time>2022-07-29T10:13:45Z</time>
      </trkpt>
      <trkpt lat="42.76892" lon="-0.33478">
        <time>2022-07-29T10:13:46Z</time>
      </trkpt>
      <trkpt lat="42.76895" lon="-0.33475">
        <time>2022-07-29T10:13:47Z</time>
      </trkpt>
      <trkpt lat="42.76901" lon="-0.33474">
        <time>2022-07-29T10:13:48Z</time>
      </trkpt>
      <trkpt lat="42.76907" lon="-0.33473">
        <time>2022-07-29T10:13:49Z</time>
      </trkpt>
      <trkpt lat="42.76913" lon="-0.33471">
        <time>2022-07-29T10:13:50Z</time>
      </trkpt>
      <trkpt lat="42.76918" lon="-0.33471">
        <time>2022-07-29T10:13:51Z</time>
      </trkpt>
      <trkpt lat="42.76922" lon="-0.33469">
        <time>2022-07-29T10:13:52Z</time>
      </trkpt>
      <trkpt lat="42.76927" lon="-0.33468">
        <time>2022-07-29T10:13:53Z</time>
      </trkpt>
      <trkpt lat="42.76932" lon="-0.33466">
        <time>2022-07-29T10:13:54Z</time>
      </trkpt>
      <trkpt lat="42.76938" lon="-0.33463">
        <time>2022-07-29T10:13:55Z</time>
      </trkpt>
      <trkpt lat="42.76945" lon="-0.3346">
        <time>2022-07-29T10:13:56Z</time>
      </trkpt>
      <trkpt lat="42.76951" lon="-0.33457">
        <time>2022-07-29T10:13:57Z</time>
      </trkpt>
      <trkpt lat="42.76958" lon="-0.33454">
        <time>2022-07-29T10:13:58Z</time>
      </trkpt>
      <trkpt lat="42.76964" lon="-0.33451">
        <time>2022-07-29T10:13:59Z</time>
      </trkpt>
      <trkpt lat="42.7697" lon="-0.33449">
        <time>2022-07-29T10:14:00Z</time>
      </trkpt>
      <trkpt lat="42.76976" lon="-0.33446">
        <time>2022-07-29T10:14:01Z</time>
      </trkpt>
      <trkpt lat="42.76982" lon="-0.33444">
        <time>2022-07-29T10:14:02Z</time>
      </trkpt>
      <trkpt lat="42.76987" lon="-0.33442">
        <time>2022-07-29T10:14:03Z</time>
      </trkpt>
      <trkpt lat="42.76992" lon="-0.3344">
        <time>2022-07-29T10:14:04Z</time>
      </trkpt>
      <trkpt lat="42.76997" lon="-0.33439">
        <time>2022-07-29T10:14:05Z</time>
      </trkpt>
      <trkpt lat="42.77003" lon="-0.33438">
        <time>2022-07-29T10:14:06Z</time>
      </trkpt>
      <trkpt lat="42.7701" lon="-0.33437">
        <time>2022-07-29T10:14:07Z</time>
      </trkpt>
      <trkpt lat="42.77017" lon="-0.33437">
        <time>2022-07-29T10:14:08Z</time>
      </trkpt>
      <trkpt lat="42.77024" lon="-0.33438">
        <time>2022-07-29T10:14:09Z</time>
      </trkpt>
      <trkpt lat="42.77032" lon="-0.3344">
        <time>2022-07-29T10:14:10Z</time>
      </trkpt>
      <trkpt lat="42.77039" lon="-0.33442">
        <time>2022-07-29T10:14:11Z</time>
      </trkpt>
      <trkpt lat="42.77046" lon="-0.33446">
        <time>2022-07-29T10:14:12Z</time>
      </trkpt>
      <trkpt lat="42.77053" lon="-0.3345">
        <time>2022-07-29T10:14:13Z</time>
      </trkpt>
      <trkpt lat="42.7706" lon="-0.33454">
        <time>2022-07-29T10:14:14Z</time>
      </trkpt>
      <trkpt lat="42.77066" lon="-0.33459">
        <time>2022-07-29T10:14:15Z</time>
      </trkpt>
      <trkpt lat="42.77072" lon="-0.33463">
        <time>2022-07-29T10:14:16Z</time>
      </trkpt>
      <trkpt lat="42.77078" lon="-0.33467">
        <time>2022-07-29T10:14:17Z</time>
      </trkpt>
      <trkpt lat="42.77083" lon="-0.33469">
        <time>2022-07-29T10:14:18Z</time>
      </trkpt>
      <trkpt lat="42.77087" lon="-0.33472">
        <time>2022-07-29T10:14:19Z</time>
      </trkpt>
      <trkpt lat="42.77091" lon="-0.33475">
        <time>2022-07-29T10:14:20Z</time>
      </trkpt>
      <trkpt lat="42.77094" lon="-0.33477">
        <time>2022-07-29T10:14:21Z</time>
      </trkpt>
      <trkpt lat="42.77098" lon="-0.33479">
        <time>2022-07-29T10:14:22Z</time>
      </trkpt>
      <trkpt lat="42.77102" lon="-0.33482">
        <time>2022-07-29T10:14:23Z</time>
      </trkpt>
      <trkpt lat="42.77105" lon="-0.33484">
        <time>2022-07-29T10:14:24Z</time>
      </trkpt>
      <trkpt lat="42.77108" lon="-0.33486">
        <time>2022-07-29T10:14:25Z</time>
      </trkpt>
      <trkpt lat="42.77112" lon="-0.33488">
        <time>2022-07-29T10:14:26Z</time>
      </trkpt>
      <trkpt lat="42.77116" lon="-0.33491">
        <time>2022-07-29T10:14:27Z</time>
      </trkpt>
      <trkpt lat="42.7712" lon="-0.33494">
        <time>2022-07-29T10:14:28Z</time>
      </trkpt>
      <trkpt lat="42.77124" lon="-0.33497">
        <time>2022-07-29T10:14:29Z</time>
      </trkpt>
      <trkpt lat="42.77128" lon="-0.33499">
        <time>2022-07-29T10:14:30Z</time>
      </trkpt>
      <trkpt lat="42.77132" lon="-0.33502">
        <time>2022-07-29T10:14:31Z</time>
      </trkpt>
      <trkpt lat="42.77137" lon="-0.33505">
        <time>2022-07-29T10:14:32Z</time>
      </trkpt>
      <trkpt lat="42.77143" lon="-0.33508">
        <time>2022-07-29T10:14:33Z</time>
      </trkpt>
      <trkpt lat="42.77148" lon="-0.33511">
        <time>2022-07-29T10:14:34Z</time>
      </trkpt>
      <trkpt lat="42.77154" lon="-0.33513">
        <time>2022-07-29T10:14:35Z</time>
      </trkpt>
      <trkpt lat="42.77159" lon="-0.33514">
        <time>2022-07-29T10:14:36Z</time>
      </trkpt>
      <trkpt lat="42.77165" lon="-0.33514">
        <time>2022-07-29T10:14:37Z</time>
      </trkpt>
      <trkpt lat="42.7717" lon="-0.33513">
        <time>2022-07-29T10:14:38Z</time>
      </trkpt>
      <trkpt lat="42.77174" lon="-0.33512">
        <time>2022-07-29T10:14:39Z</time>
      </trkpt>
      <trkpt lat="42.77178" lon="-0.3351">
        <time>2022-07-29T10:14:40Z</time>
      </trkpt>
      <trkpt lat="42.77181" lon="-0.33508">
        <time>2022-07-29T10:14:41Z</time>
      </trkpt>
      <trkpt lat="42.77185" lon="-0.33506">
        <time>2022-07-29T10:14:42Z</time>
      </trkpt>
      <trkpt lat="42.77188" lon="-0.33503">
        <time>2022-07-29T10:14:43Z</time>
      </trkpt>
      <trkpt lat="42.77192" lon="-0.335">
        <time>2022-07-29T10:14:44Z</time>
      </trkpt>
      <trkpt lat="42.77194" lon="-0.33496">
        <time>2022-07-29T10:14:45Z</time>
      </trkpt>
      <trkpt lat="42.77196" lon="-0.33493">
        <time>2022-07-29T10:14:46Z</time>
      </trkpt>
      <trkpt lat="42.77197" lon="-0.3349">
        <time>2022-07-29T10:14:47Z</time>
      </trkpt>
      <trkpt lat="42.77198" lon="-0.33487">
        <time>2022-07-29T10:14:48Z</time>
      </trkpt>
      <trkpt lat="42.77199" lon="-0.33485">
        <time>2022-07-29T10:14:49Z</time>
      </trkpt>
      <trkpt lat="42.772" lon="-0.33483">
        <time>2022-07-29T10:14:50Z</time>
      </trkpt>
      <trkpt lat="42.772" lon="-0.33481">
        <time>2022-07-29T10:14:51Z</time>
      </trkpt>
      <trkpt lat="42.77201" lon="-0.33479">
        <time>2022-07-29T10:14:52Z</time>
      </trkpt>
      <trkpt lat="42.77201" lon="-0.33477">
        <time>2022-07-29T10:14:53Z</time>
      </trkpt>
      <trkpt lat="42.77201" lon="-0.33474">
        <time>2022-07-29T10:14:54Z</time>
      </trkpt>
      <trkpt lat="42.77202" lon="-0.33472">
        <time>2022-07-29T10:14:55Z</time>
      </trkpt>
      <trkpt lat="42.77202" lon="-0.3347">
        <time>2022-07-29T10:14:56Z</time>
      </trkpt>
      <trkpt lat="42.77203" lon="-0.33468">
        <time>2022-07-29T10:14:57Z</time>
      </trkpt>
      <trkpt lat="42.77203" lon="-0.33466">
        <time>2022-07-29T10:14:58Z</time>
      </trkpt>
      <trkpt lat="42.77202" lon="-0.33464">
        <time>2022-07-29T10:14:59Z</time>
      </trkpt>
      <trkpt lat="42.77202" lon="-0.33462">
        <time>2022-07-29T10:15:00Z</time>
      </trkpt>
      <trkpt lat="42.77202" lon="-0.3346">
        <time>2022-07-29T10:15:01Z</time>
      </trkpt>
      <trkpt lat="42.77202" lon="-0.33457">
        <time>2022-07-29T10:15:02Z</time>
      </trkpt>
      <trkpt lat="42.77202" lon="-0.33455">
        <time>2022-07-29T10:15:03Z</time>
      </trkpt>
      <trkpt lat="42.77201" lon="-0.33453">
        <time>2022-07-29T10:15:04Z</time>
      </trkpt>
      <trkpt lat="42.772" lon="-0.3345">
        <time>2022-07-29T10:15:05Z</time>
      </trkpt>
      <trkpt lat="42.772" lon="-0.33446">
        <time>2022-07-29T10:15:06Z</time>
      </trkpt>
      <trkpt lat="42.772" lon="-0.33443">
        <time>2022-07-29T10:15:07Z</time>
      </trkpt>
      <trkpt lat="42.77199" lon="-0.3344">
        <time>2022-07-29T10:15:08Z</time>
      </trkpt>
      <trkpt lat="42.77199" lon="-0.33437">
        <time>2022-07-29T10:15:09Z</time>
      </trkpt>
      <trkpt lat="42.77198" lon="-0.33435">
        <time>2022-07-29T10:15:10Z</time>
      </trkpt>
      <trkpt lat="42.77198" lon="-0.33432">
        <time>2022-07-29T10:15:11Z</time>
      </trkpt>
      <trkpt lat="42.77197" lon="-0.33429">
        <time>2022-07-29T10:15:12Z</time>
      </trkpt>
      <trkpt lat="42.77197" lon="-0.33427">
        <time>2022-07-29T10:15:13Z</time>
      </trkpt>
      <trkpt lat="42.77196" lon="-0.33424">
        <time>2022-07-29T10:15:14Z</time>
      </trkpt>
      <trkpt lat="42.77196" lon="-0.33422">
        <time>2022-07-29T10:15:15Z</time>
      </trkpt>
      <trkpt lat="42.77196" lon="-0.3342">
        <time>2022-07-29T10:15:16Z</time>
      </trkpt>
      <trkpt lat="42.77196" lon="-0.33419">
        <time>2022-07-29T10:15:18Z</time>
      </trkpt>
      <trkpt lat="42.77196" lon="-0.33417">
        <time>2022-07-29T10:15:19Z</time>
      </trkpt>
      <trkpt lat="42.77195" lon="-0.33413">
        <time>2022-07-29T10:15:20Z</time>
      </trkpt>
      <trkpt lat="42.77195" lon="-0.33409">
        <time>2022-07-29T10:15:21Z</time>
      </trkpt>
      <trkpt lat="42.77194" lon="-0.33405">
        <time>2022-07-29T10:15:22Z</time>
      </trkpt>
      <trkpt lat="42.77194" lon="-0.33401">
        <time>2022-07-29T10:15:23Z</time>
      </trkpt>
      <trkpt lat="42.77193" lon="-0.33397">
        <time>2022-07-29T10:15:24Z</time>
      </trkpt>
      <trkpt lat="42.77193" lon="-0.33392">
        <time>2022-07-29T10:15:25Z</time>
      </trkpt>
      <trkpt lat="42.77192" lon="-0.33388">
        <time>2022-07-29T10:15:26Z</time>
      </trkpt>
      <trkpt lat="42.77192" lon="-0.33383">
        <time>2022-07-29T10:15:27Z</time>
      </trkpt>
      <trkpt lat="42.77192" lon="-0.3338">
        <time>2022-07-29T10:15:28Z</time>
      </trkpt>
      <trkpt lat="42.77192" lon="-0.33377">
        <time>2022-07-29T10:15:29Z</time>
      </trkpt>
      <trkpt lat="42.77192" lon="-0.33374">
        <time>2022-07-29T10:15:30Z</time>
      </trkpt>
      <trkpt lat="42.77191" lon="-0.33371">
        <time>2022-07-29T10:15:31Z</time>
      </trkpt>
      <trkpt lat="42.77191" lon="-0.33367">
        <time>2022-07-29T10:15:32Z</time>
      </trkpt>
      <trkpt lat="42.7719" lon="-0.33363">
        <time>2022-07-29T10:15:33Z</time>
      </trkpt>
      <trkpt lat="42.77189" lon="-0.33359">
        <time>2022-07-29T10:15:34Z</time>
      </trkpt>
      <trkpt lat="42.77189" lon="-0.33355">
        <time>2022-07-29T10:15:35Z</time>
      </trkpt>
      <trkpt lat="42.77189" lon="-0.33351">
        <time>2022-07-29T10:15:36Z</time>
      </trkpt>
      <trkpt lat="42.7719" lon="-0.33348">
        <time>2022-07-29T10:15:37Z</time>
      </trkpt>
      <trkpt lat="42.7719" lon="-0.33345">
        <time>2022-07-29T10:15:38Z</time>
      </trkpt>
      <trkpt lat="42.7719" lon="-0.33344">
        <time>2022-07-29T10:15:39Z</time>
      </trkpt>
      <trkpt lat="42.77189" lon="-0.3334">
        <time>2022-07-29T10:15:51Z</time>
      </trkpt>
      <trkpt lat="42.77189" lon="-0.33337">
        <time>2022-07-29T10:15:52Z</time>
      </trkpt>
      <trkpt lat="42.77189" lon="-0.33333">
        <time>2022-07-29T10:15:53Z</time>
      </trkpt>
      <trkpt lat="42.77187" lon="-0.33329">
        <time>2022-07-29T10:15:54Z</time>
      </trkpt>
      <trkpt lat="42.77186" lon="-0.33327">
        <time>2022-07-29T10:15:55Z</time>
      </trkpt>
      <trkpt lat="42.77185" lon="-0.33324">
        <time>2022-07-29T10:15:56Z</time>
      </trkpt>
      <trkpt lat="42.77184" lon="-0.33322">
        <time>2022-07-29T10:15:57Z</time>
      </trkpt>
      <trkpt lat="42.77183" lon="-0.33319">
        <time>2022-07-29T10:15:58Z</time>
      </trkpt>
      <trkpt lat="42.77183" lon="-0.33317">
        <time>2022-07-29T10:15:59Z</time>
      </trkpt>
      <trkpt lat="42.77182" lon="-0.33315">
        <time>2022-07-29T10:16:00Z</time>
      </trkpt>
      <trkpt lat="42.77182" lon="-0.33314">
        <time>2022-07-29T10:16:01Z</time>
      </trkpt>
      <trkpt lat="42.77182" lon="-0.33313">
        <time>2022-07-29T10:16:02Z</time>
      </trkpt>
      <trkpt lat="42.77181" lon="-0.33312">
        <time>2022-07-29T10:16:03Z</time>
      </trkpt>
      <trkpt lat="42.77181" lon="-0.3331">
        <time>2022-07-29T10:16:08Z</time>
      </trkpt>
      <trkpt lat="42.77181" lon="-0.33309">
        <time>2022-07-29T10:16:09Z</time>
      </trkpt>
      <trkpt lat="42.77181" lon="-0.33307">
        <time>2022-07-29T10:16:10Z</time>
      </trkpt>
      <trkpt lat="42.77182" lon="-0.333">
        <time>2022-07-29T10:16:18Z</time>
      </trkpt>
      <trkpt lat="42.77182" lon="-0.33298">
        <time>2022-07-29T10:16:19Z</time>
      </trkpt>
      <trkpt lat="42.77182" lon="-0.33296">
        <time>2022-07-29T10:16:20Z</time>
      </trkpt>
      <trkpt lat="42.77182" lon="-0.33295">
        <time>2022-07-29T10:16:21Z</time>
      </trkpt>
      <trkpt lat="42.77182" lon="-0.33293">
        <time>2022-07-29T10:16:22Z</time>
      </trkpt>
      <trkpt lat="42.77182" lon="-0.33292">
        <time>2022-07-29T10:16:23Z</time>
      </trkpt>
      <trkpt lat="42.77182" lon="-0.33291">
        <time>2022-07-29T10:16:24Z</time>
      </trkpt>
      <trkpt lat="42.77181" lon="-0.33289">
        <time>2022-07-29T10:16:25Z</time>
      </trkpt>
      <trkpt lat="42.7718" lon="-0.33288">
        <time>2022-07-29T10:16:26Z</time>
      </trkpt>
      <trkpt lat="42.77179" lon="-0.33286">
        <time>2022-07-29T10:16:27Z</time>
      </trkpt>
      <trkpt lat="42.77179" lon="-0.33285">
        <time>2022-07-29T10:16:28Z</time>
      </trkpt>
      <trkpt lat="42.77178" lon="-0.33283">
        <time>2022-07-29T10:16:29Z</time>
      </trkpt>
      <trkpt lat="42.77177" lon="-0.33281">
        <time>2022-07-29T10:16:30Z</time>
      </trkpt>
      <trkpt lat="42.77177" lon="-0.3328">
        <time>2022-07-29T10:16:31Z</time>
      </trkpt>
      <trkpt lat="42.77176" lon="-0.33276">
        <time>2022-07-29T10:16:36Z</time>
      </trkpt>
      <trkpt lat="42.77176" lon="-0.33275">
        <time>2022-07-29T10:16:37Z</time>
      </trkpt>
      <trkpt lat="42.77175" lon="-0.33273">
        <time>2022-07-29T10:16:38Z</time>
      </trkpt>
      <trkpt lat="42.77175" lon="-0.33272">
        <time>2022-07-29T10:16:39Z</time>
      </trkpt>
      <trkpt lat="42.77175" lon="-0.33271">
        <time>2022-07-29T10:16:40Z</time>
      </trkpt>
      <trkpt lat="42.77175" lon="-0.3327">
        <time>2022-07-29T10:16:41Z</time>
      </trkpt>
      <trkpt lat="42.77175" lon="-0.33269">
        <time>2022-07-29T10:16:42Z</time>
      </trkpt>
      <trkpt lat="42.77175" lon="-0.33265">
        <time>2022-07-29T10:16:46Z</time>
      </trkpt>
      <trkpt lat="42.77175" lon="-0.33263">
        <time>2022-07-29T10:16:47Z</time>
      </trkpt>
      <trkpt lat="42.77175" lon="-0.33261">
        <time>2022-07-29T10:16:48Z</time>
      </trkpt>
      <trkpt lat="42.77175" lon="-0.3326">
        <time>2022-07-29T10:16:49Z</time>
      </trkpt>
      <trkpt lat="42.77176" lon="-0.33258">
        <time>2022-07-29T10:18:08Z</time>
      </trkpt>
      <trkpt lat="42.77176" lon="-0.33256">
        <time>2022-07-29T10:18:09Z</time>
      </trkpt>
      <trkpt lat="42.77176" lon="-0.33254">
        <time>2022-07-29T10:18:10Z</time>
      </trkpt>
      <trkpt lat="42.77176" lon="-0.33252">
        <time>2022-07-29T10:18:11Z</time>
      </trkpt>
      <trkpt lat="42.77175" lon="-0.33251">
        <time>2022-07-29T10:18:12Z</time>
      </trkpt>
      <trkpt lat="42.77174" lon="-0.33249">
        <time>2022-07-29T10:18:13Z</time>
      </trkpt>
      <trkpt lat="42.77174" lon="-0.33248">
        <time>2022-07-29T10:18:14Z</time>
      </trkpt>
      <trkpt lat="42.77173" lon="-0.33247">
        <time>2022-07-29T10:18:15Z</time>
      </trkpt>
      <trkpt lat="42.77173" lon="-0.33245">
        <time>2022-07-29T10:18:16Z</time>
      </trkpt>
      <trkpt lat="42.77173" lon="-0.33243">
        <time>2022-07-29T10:18:17Z</time>
      </trkpt>
      <trkpt lat="42.77173" lon="-0.33241">
        <time>2022-07-29T10:18:18Z</time>
      </trkpt>
      <trkpt lat="42.77172" lon="-0.33239">
        <time>2022-07-29T10:18:19Z</time>
      </trkpt>
      <trkpt lat="42.77172" lon="-0.33237">
        <time>2022-07-29T10:18:20Z</time>
      </trkpt>
      <trkpt lat="42.77171" lon="-0.33235">
        <time>2022-07-29T10:18:21Z</time>
      </trkpt>
      <trkpt lat="42.77171" lon="-0.33232">
        <time>2022-07-29T10:18:22Z</time>
      </trkpt>
      <trkpt lat="42.77171" lon="-0.3323">
        <time>2022-07-29T10:18:23Z</time>
      </trkpt>
      <trkpt lat="42.7717" lon="-0.33227">
        <time>2022-07-29T10:18:24Z</time>
      </trkpt>
      <trkpt lat="42.7717" lon="-0.33225">
        <time>2022-07-29T10:18:25Z</time>
      </trkpt>
      <trkpt lat="42.77169" lon="-0.33223">
        <time>2022-07-29T10:18:26Z</time>
      </trkpt>
      <trkpt lat="42.77168" lon="-0.33221">
        <time>2022-07-29T10:18:27Z</time>
      </trkpt>
      <trkpt lat="42.77168" lon="-0.33219">
        <time>2022-07-29T10:18:28Z</time>
      </trkpt>
      <trkpt lat="42.77167" lon="-0.33217">
        <time>2022-07-29T10:18:29Z</time>
      </trkpt>
      <trkpt lat="42.77166" lon="-0.33215">
        <time>2022-07-29T10:18:30Z</time>
      </trkpt>
      <trkpt lat="42.77166" lon="-0.33213">
        <time>2022-07-29T10:18:31Z</time>
      </trkpt>
      <trkpt lat="42.77165" lon="-0.33211">
        <time>2022-07-29T10:18:32Z</time>
      </trkpt>
      <trkpt lat="42.77164" lon="-0.33208">
        <time>2022-07-29T10:18:33Z</time>
      </trkpt>
      <trkpt lat="42.77163" lon="-0.33206">
        <time>2022-07-29T10:18:34Z</time>
      </trkpt>
      <trkpt lat="42.77162" lon="-0.33203">
        <time>2022-07-29T10:18:35Z</time>
      </trkpt>
      <trkpt lat="42.77162" lon="-0.332">
        <time>2022-07-29T10:18:36Z</time>
      </trkpt>
      <trkpt lat="42.77163" lon="-0.33198">
        <time>2022-07-29T10:18:37Z</time>
      </trkpt>
      <trkpt lat="42.77163" lon="-0.33195">
        <time>2022-07-29T10:18:38Z</time>
      </trkpt>
      <trkpt lat="42.77164" lon="-0.33193">
        <time>2022-07-29T10:18:39Z</time>
      </trkpt>
      <trkpt lat="42.77166" lon="-0.3319">
        <time>2022-07-29T10:18:40Z</time>
      </trkpt>
      <trkpt lat="42.77168" lon="-0.33187">
        <time>2022-07-29T10:18:41Z</time>
      </trkpt>
      <trkpt lat="42.7717" lon="-0.33185">
        <time>2022-07-29T10:18:42Z</time>
      </trkpt>
      <trkpt lat="42.77172" lon="-0.33183">
        <time>2022-07-29T10:18:43Z</time>
      </trkpt>
      <trkpt lat="42.77174" lon="-0.33181">
        <time>2022-07-29T10:18:44Z</time>
      </trkpt>
      <trkpt lat="42.77176" lon="-0.33178">
        <time>2022-07-29T10:18:45Z</time>
      </trkpt>
      <trkpt lat="42.77178" lon="-0.33176">
        <time>2022-07-29T10:18:46Z</time>
      </trkpt>
      <trkpt lat="42.7718" lon="-0.33174">
        <time>2022-07-29T10:18:47Z</time>
      </trkpt>
      <trkpt lat="42.77182" lon="-0.33173">
        <time>2022-07-29T10:18:48Z</time>
      </trkpt>
      <trkpt lat="42.77184" lon="-0.33171">
        <time>2022-07-29T10:18:49Z</time>
      </trkpt>
      <trkpt lat="42.77186" lon="-0.3317">
        <time>2022-07-29T10:18:50Z</time>
      </trkpt>
      <trkpt lat="42.77187" lon="-0.33168">
        <time>2022-07-29T10:18:51Z</time>
      </trkpt>
      <trkpt lat="42.77189" lon="-0.33166">
        <time>2022-07-29T10:18:52Z</time>
      </trkpt>
      <trkpt lat="42.7719" lon="-0.33164">
        <time>2022-07-29T10:18:53Z</time>
      </trkpt>
      <trkpt lat="42.77191" lon="-0.33163">
        <time>2022-07-29T10:18:54Z</time>
      </trkpt>
      <trkpt lat="42.77192" lon="-0.33161">
        <time>2022-07-29T10:18:55Z</time>
      </trkpt>
      <trkpt lat="42.77192" lon="-0.3316">
        <time>2022-07-29T10:18:56Z</time>
      </trkpt>
      <trkpt lat="42.77193" lon="-0.33155">
        <time>2022-07-29T10:19:05Z</time>
      </trkpt>
      <trkpt lat="42.77193" lon="-0.33151">
        <time>2022-07-29T10:19:06Z</time>
      </trkpt>
      <trkpt lat="42.77192" lon="-0.33147">
        <time>2022-07-29T10:19:07Z</time>
      </trkpt>
      <trkpt lat="42.77189" lon="-0.33142">
        <time>2022-07-29T10:19:08Z</time>
      </trkpt>
      <trkpt lat="42.77181" lon="-0.3314">
        <time>2022-07-29T10:19:09Z</time>
      </trkpt>
      <trkpt lat="42.77173" lon="-0.33138">
        <time>2022-07-29T10:19:10Z</time>
      </trkpt>
      <trkpt lat="42.77165" lon="-0.33139">
        <time>2022-07-29T10:19:11Z</time>
      </trkpt>
      <trkpt lat="42.77159" lon="-0.33139">
        <time>2022-07-29T10:19:12Z</time>
      </trkpt>
      <trkpt lat="42.77153" lon="-0.33139">
        <time>2022-07-29T10:19:13Z</time>
      </trkpt>
      <trkpt lat="42.77148" lon="-0.33139">
        <time>2022-07-29T10:19:14Z</time>
      </trkpt>
      <trkpt lat="42.77143" lon="-0.3314">
        <time>2022-07-29T10:19:15Z</time>
      </trkpt>
      <trkpt lat="42.77139" lon="-0.33144">
        <time>2022-07-29T10:19:16Z</time>
      </trkpt>
      <trkpt lat="42.77134" lon="-0.33151">
        <time>2022-07-29T10:19:17Z</time>
      </trkpt>
      <trkpt lat="42.77128" lon="-0.33161">
        <time>2022-07-29T10:19:18Z</time>
      </trkpt>
      <trkpt lat="42.77122" lon="-0.33169">
        <time>2022-07-29T10:19:19Z</time>
      </trkpt>
      <trkpt lat="42.77116" lon="-0.33178">
        <time>2022-07-29T10:19:20Z</time>
      </trkpt>
      <trkpt lat="42.77109" lon="-0.33187">
        <time>2022-07-29T10:19:21Z</time>
      </trkpt>
      <trkpt lat="42.77101" lon="-0.33195">
        <time>2022-07-29T10:19:22Z</time>
      </trkpt>
      <trkpt lat="42.77094" lon="-0.33203">
        <time>2022-07-29T10:19:23Z</time>
      </trkpt>
      <trkpt lat="42.77087" lon="-0.33213">
        <time>2022-07-29T10:19:24Z</time>
      </trkpt>
      <trkpt lat="42.77079" lon="-0.33223">
        <time>2022-07-29T10:19:25Z</time>
      </trkpt>
      <trkpt lat="42.77071" lon="-0.33231">
        <time>2022-07-29T10:19:26Z</time>
      </trkpt>
      <trkpt lat="42.77063" lon="-0.33239">
        <time>2022-07-29T10:19:27Z</time>
      </trkpt>
      <trkpt lat="42.77055" lon="-0.33246">
        <time>2022-07-29T10:19:28Z</time>
      </trkpt>
      <trkpt lat="42.77047" lon="-0.33252">
        <time>2022-07-29T10:19:29Z</time>
      </trkpt>
      <trkpt lat="42.7704" lon="-0.33259">
        <time>2022-07-29T10:19:30Z</time>
      </trkpt>
      <trkpt lat="42.77034" lon="-0.33266">
        <time>2022-07-29T10:19:31Z</time>
      </trkpt>
      <trkpt lat="42.77027" lon="-0.33271">
        <time>2022-07-29T10:19:32Z</time>
      </trkpt>
      <trkpt lat="42.7702" lon="-0.33276">
        <time>2022-07-29T10:19:33Z</time>
      </trkpt>
      <trkpt lat="42.77013" lon="-0.33281">
        <time>2022-07-29T10:19:34Z</time>
      </trkpt>
      <trkpt lat="42.77005" lon="-0.33284">
        <time>2022-07-29T10:19:35Z</time>
      </trkpt>
      <trkpt lat="42.76998" lon="-0.33285">
        <time>2022-07-29T10:19:36Z</time>
      </trkpt>
      <trkpt lat="42.7699" lon="-0.33284">
        <time>2022-07-29T10:19:37Z</time>
      </trkpt>
      <trkpt lat="42.76983" lon="-0.33281">
        <time>2022-07-29T10:19:38Z</time>
      </trkpt>
      <trkpt lat="42.7698" lon="-0.33279">
        <time>2022-07-29T10:19:39Z</time>
      </trkpt>
      <trkpt lat="42.76976" lon="-0.33276">
        <time>2022-07-29T10:19:40Z</time>
      </trkpt>
      <trkpt lat="42.76974" lon="-0.33274">
        <time>2022-07-29T10:19:41Z</time>
      </trkpt>
      <trkpt lat="42.76973" lon="-0.33273">
        <time>2022-07-29T10:19:42Z</time>
      </trkpt>
      <trkpt lat="42.76972" lon="-0.33272">
        <time>2022-07-29T10:19:43Z</time>
      </trkpt>
      <trkpt lat="42.76971" lon="-0.33272">
        <time>2022-07-29T10:19:44Z</time>
      </trkpt>
      <trkpt lat="42.76969" lon="-0.33273">
        <time>2022-07-29T10:19:45Z</time>
      </trkpt>
      <trkpt lat="42.76966" lon="-0.33277">
        <time>2022-07-29T10:19:46Z</time>
      </trkpt>
      <trkpt lat="42.76963" lon="-0.33284">
        <time>2022-07-29T10:19:47Z</time>
      </trkpt>
      <trkpt lat="42.76958" lon="-0.3329">
        <time>2022-07-29T10:19:48Z</time>
      </trkpt>
      <trkpt lat="42.76954" lon="-0.33298">
        <time>2022-07-29T10:19:49Z</time>
      </trkpt>
      <trkpt lat="42.76949" lon="-0.33306">
        <time>2022-07-29T10:19:50Z</time>
      </trkpt>
      <trkpt lat="42.76944" lon="-0.33314">
        <time>2022-07-29T10:19:51Z</time>
      </trkpt>
      <trkpt lat="42.7694" lon="-0.33323">
        <time>2022-07-29T10:19:52Z</time>
      </trkpt>
      <trkpt lat="42.76937" lon="-0.33331">
        <time>2022-07-29T10:19:53Z</time>
      </trkpt>
      <trkpt lat="42.76934" lon="-0.33341">
        <time>2022-07-29T10:19:54Z</time>
      </trkpt>
      <trkpt lat="42.76932" lon="-0.3335">
        <time>2022-07-29T10:19:55Z</time>
      </trkpt>
      <trkpt lat="42.7693" lon="-0.3336">
        <time>2022-07-29T10:19:56Z</time>
      </trkpt>
      <trkpt lat="42.76929" lon="-0.33371">
        <time>2022-07-29T10:19:57Z</time>
      </trkpt>
      <trkpt lat="42.76929" lon="-0.33384">
        <time>2022-07-29T10:19:58Z</time>
      </trkpt>
      <trkpt lat="42.76929" lon="-0.33395">
        <time>2022-07-29T10:19:59Z</time>
      </trkpt>
      <trkpt lat="42.76927" lon="-0.33407">
        <time>2022-07-29T10:20:00Z</time>
      </trkpt>
      <trkpt lat="42.76925" lon="-0.33417">
        <time>2022-07-29T10:20:01Z</time>
      </trkpt>
      <trkpt lat="42.76922" lon="-0.33427">
        <time>2022-07-29T10:20:02Z</time>
      </trkpt>
      <trkpt lat="42.76919" lon="-0.33435">
        <time>2022-07-29T10:20:03Z</time>
      </trkpt>
      <trkpt lat="42.76916" lon="-0.33442">
        <time>2022-07-29T10:20:04Z</time>
      </trkpt>
      <trkpt lat="42.76914" lon="-0.33449">
        <time>2022-07-29T10:20:05Z</time>
      </trkpt>
      <trkpt lat="42.76913" lon="-0.33453">
        <time>2022-07-29T10:20:06Z</time>
      </trkpt>
      <trkpt lat="42.76914" lon="-0.33457">
        <time>2022-07-29T10:20:07Z</time>
      </trkpt>
      <trkpt lat="42.76916" lon="-0.33462">
        <time>2022-07-29T10:20:08Z</time>
      </trkpt>
      <trkpt lat="42.7692" lon="-0.33466">
        <time>2022-07-29T10:20:09Z</time>
      </trkpt>
      <trkpt lat="42.76926" lon="-0.33467">
        <time>2022-07-29T10:20:10Z</time>
      </trkpt>
      <trkpt lat="42.76933" lon="-0.33465">
        <time>2022-07-29T10:20:11Z</time>
      </trkpt>
      <trkpt lat="42.7694" lon="-0.33462">
        <time>2022-07-29T10:20:12Z</time>
      </trkpt>
      <trkpt lat="42.76948" lon="-0.33459">
        <time>2022-07-29T10:20:13Z</time>
      </trkpt>
      <trkpt lat="42.76956" lon="-0.33455">
        <time>2022-07-29T10:20:14Z</time>
      </trkpt>
      <trkpt lat="42.76964" lon="-0.3345">
        <time>2022-07-29T10:20:15Z</time>
      </trkpt>
      <trkpt lat="42.76972" lon="-0.33447">
        <time>2022-07-29T10:20:16Z</time>
      </trkpt>
      <trkpt lat="42.76979" lon="-0.33444">
        <time>2022-07-29T10:20:17Z</time>
      </trkpt>
      <trkpt lat="42.76986" lon="-0.33441">
        <time>2022-07-29T10:20:18Z</time>
      </trkpt>
      <trkpt lat="42.76993" lon="-0.33439">
        <time>2022-07-29T10:20:19Z</time>
      </trkpt>
      <trkpt lat="42.76999" lon="-0.33438">
        <time>2022-07-29T10:20:20Z</time>
      </trkpt>
      <trkpt lat="42.77005" lon="-0.33437">
        <time>2022-07-29T10:20:21Z</time>
      </trkpt>
      <trkpt lat="42.7701" lon="-0.33436">
        <time>2022-07-29T10:20:22Z</time>
      </trkpt>
      <trkpt lat="42.77014" lon="-0.33436">
        <time>2022-07-29T10:20:23Z</time>
      </trkpt>
      <trkpt lat="42.77018" lon="-0.33436">
        <time>2022-07-29T10:20:24Z</time>
      </trkpt>
      <trkpt lat="42.77021" lon="-0.33436">
        <time>2022-07-29T10:20:25Z</time>
      </trkpt>
      <trkpt lat="42.77024" lon="-0.33438">
        <time>2022-07-29T10:20:26Z</time>
      </trkpt>
      <trkpt lat="42.77027" lon="-0.33439">
        <time>2022-07-29T10:20:27Z</time>
      </trkpt>
      <trkpt lat="42.77032" lon="-0.33439">
        <time>2022-07-29T10:20:28Z</time>
      </trkpt>
      <trkpt lat="42.77039" lon="-0.33441">
        <time>2022-07-29T10:20:29Z</time>
      </trkpt>
      <trkpt lat="42.77046" lon="-0.33445">
        <time>2022-07-29T10:20:30Z</time>
      </trkpt>
      <trkpt lat="42.77052" lon="-0.33449">
        <time>2022-07-29T10:20:31Z</time>
      </trkpt>
      <trkpt lat="42.77058" lon="-0.33452">
        <time>2022-07-29T10:20:32Z</time>
      </trkpt>
      <trkpt lat="42.77064" lon="-0.33456">
        <time>2022-07-29T10:20:33Z</time>
      </trkpt>
      <trkpt lat="42.77071" lon="-0.3346">
        <time>2022-07-29T10:20:34Z</time>
      </trkpt>
      <trkpt lat="42.77077" lon="-0.33464">
        <time>2022-07-29T10:20:35Z</time>
      </trkpt>
      <trkpt lat="42.77083" lon="-0.33468">
        <time>2022-07-29T10:20:36Z</time>
      </trkpt>
      <trkpt lat="42.77088" lon="-0.33471">
        <time>2022-07-29T10:20:37Z</time>
      </trkpt>
      <trkpt lat="42.77094" lon="-0.33475">
        <time>2022-07-29T10:20:38Z</time>
      </trkpt>
      <trkpt lat="42.77099" lon="-0.33478">
        <time>2022-07-29T10:20:39Z</time>
      </trkpt>
      <trkpt lat="42.77104" lon="-0.33482">
        <time>2022-07-29T10:20:40Z</time>
      </trkpt>
      <trkpt lat="42.77109" lon="-0.33485">
        <time>2022-07-29T10:20:41Z</time>
      </trkpt>
      <trkpt lat="42.77114" lon="-0.33489">
        <time>2022-07-29T10:20:42Z</time>
      </trkpt>
      <trkpt lat="42.77119" lon="-0.33492">
        <time>2022-07-29T10:20:43Z</time>
      </trkpt>
      <trkpt lat="42.77125" lon="-0.33495">
        <time>2022-07-29T10:20:44Z</time>
      </trkpt>
      <trkpt lat="42.7713" lon="-0.33499">
        <time>2022-07-29T10:20:45Z</time>
      </trkpt>
      <trkpt lat="42.77135" lon="-0.33503">
        <time>2022-07-29T10:20:46Z</time>
      </trkpt>
      <trkpt lat="42.7714" lon="-0.33506">
        <time>2022-07-29T10:20:47Z</time>
      </trkpt>
      <trkpt lat="42.77145" lon="-0.33509">
        <time>2022-07-29T10:20:48Z</time>
      </trkpt>
      <trkpt lat="42.7715" lon="-0.33511">
        <time>2022-07-29T10:20:49Z</time>
      </trkpt>
      <trkpt lat="42.77154" lon="-0.33513">
        <time>2022-07-29T10:20:50Z</time>
      </trkpt>
      <trkpt lat="42.77159" lon="-0.33514">
        <time>2022-07-29T10:20:51Z</time>
      </trkpt>
      <trkpt lat="42.77165" lon="-0.33514">
        <time>2022-07-29T10:20:52Z</time>
      </trkpt>
      <trkpt lat="42.7717" lon="-0.33513">
        <time>2022-07-29T10:20:53Z</time>
      </trkpt>
      <trkpt lat="42.77174" lon="-0.33512">
        <time>2022-07-29T10:20:54Z</time>
      </trkpt>
      <trkpt lat="42.77179" lon="-0.3351">
        <time>2022-07-29T10:20:55Z</time>
      </trkpt>
      <trkpt lat="42.77182" lon="-0.33508">
        <time>2022-07-29T10:20:56Z</time>
      </trkpt>
      <trkpt lat="42.77187" lon="-0.33505">
        <time>2022-07-29T10:20:57Z</time>
      </trkpt>
      <trkpt lat="42.77191" lon="-0.33501">
        <time>2022-07-29T10:20:58Z</time>
      </trkpt>
      <trkpt lat="42.77196" lon="-0.33499">
        <time>2022-07-29T10:20:59Z</time>
      </trkpt>
      <trkpt lat="42.77201" lon="-0.33499">
        <time>2022-07-29T10:21:00Z</time>
      </trkpt>
      <trkpt lat="42.77206" lon="-0.33503">
        <time>2022-07-29T10:21:01Z</time>
      </trkpt>
      <trkpt lat="42.77209" lon="-0.3351">
        <time>2022-07-29T10:21:02Z</time>
      </trkpt>
      <trkpt lat="42.7721" lon="-0.33518">
        <time>2022-07-29T10:21:03Z</time>
      </trkpt>
      <trkpt lat="42.77206" lon="-0.33529">
        <time>2022-07-29T10:21:04Z</time>
      </trkpt>
      <trkpt lat="42.772" lon="-0.33539">
        <time>2022-07-29T10:21:05Z</time>
      </trkpt>
      <trkpt lat="42.77191" lon="-0.33547">
        <time>2022-07-29T10:21:06Z</time>
      </trkpt>
      <trkpt lat="42.77182" lon="-0.33557">
        <time>2022-07-29T10:21:07Z</time>
      </trkpt>
      <trkpt lat="42.77172" lon="-0.33567">
        <time>2022-07-29T10:21:08Z</time>
      </trkpt>
      <trkpt lat="42.7716" lon="-0.33574">
        <time>2022-07-29T10:21:09Z</time>
      </trkpt>
      <trkpt lat="42.7715" lon="-0.3358">
        <time>2022-07-29T10:21:10Z</time>
      </trkpt>
      <trkpt lat="42.77139" lon="-0.33586">
        <time>2022-07-29T10:21:11Z</time>
      </trkpt>
      <trkpt lat="42.7713" lon="-0.3359">
        <time>2022-07-29T10:21:12Z</time>
      </trkpt>
      <trkpt lat="42.77121" lon="-0.33592">
        <time>2022-07-29T10:21:13Z</time>
      </trkpt>
      <trkpt lat="42.77112" lon="-0.33591">
        <time>2022-07-29T10:21:14Z</time>
      </trkpt>
      <trkpt lat="42.77103" lon="-0.33587">
        <time>2022-07-29T10:21:15Z</time>
      </trkpt>
      <trkpt lat="42.77095" lon="-0.3358">
        <time>2022-07-29T10:21:16Z</time>
      </trkpt>
      <trkpt lat="42.77087" lon="-0.33573">
        <time>2022-07-29T10:21:17Z</time>
      </trkpt>
      <trkpt lat="42.7708" lon="-0.33566">
        <time>2022-07-29T10:21:18Z</time>
      </trkpt>
      <trkpt lat="42.77072" lon="-0.33561">
        <time>2022-07-29T10:21:19Z</time>
      </trkpt>
      <trkpt lat="42.77065" lon="-0.33561">
        <time>2022-07-29T10:21:20Z</time>
      </trkpt>
      <trkpt lat="42.77058" lon="-0.33565">
        <time>2022-07-29T10:21:21Z</time>
      </trkpt>
      <trkpt lat="42.7705" lon="-0.33571">
        <time>2022-07-29T10:21:22Z</time>
      </trkpt>
      <trkpt lat="42.77041" lon="-0.33578">
        <time>2022-07-29T10:21:23Z</time>
      </trkpt>
      <trkpt lat="42.77031" lon="-0.33586">
        <time>2022-07-29T10:21:24Z</time>
      </trkpt>
      <trkpt lat="42.77021" lon="-0.33594">
        <time>2022-07-29T10:21:25Z</time>
      </trkpt>
      <trkpt lat="42.77012" lon="-0.33602">
        <time>2022-07-29T10:21:26Z</time>
      </trkpt>
      <trkpt lat="42.77003" lon="-0.33611">
        <time>2022-07-29T10:21:27Z</time>
      </trkpt>
      <trkpt lat="42.76996" lon="-0.33619">
        <time>2022-07-29T10:21:28Z</time>
      </trkpt>
      <trkpt lat="42.76988" lon="-0.3363">
        <time>2022-07-29T10:21:29Z</time>
      </trkpt>
      <trkpt lat="42.7698" lon="-0.3364">
        <time>2022-07-29T10:21:30Z</time>
      </trkpt>
      <trkpt lat="42.76974" lon="-0.33649">
        <time>2022-07-29T10:21:31Z</time>
      </trkpt>
      <trkpt lat="42.76969" lon="-0.33656">
        <time>2022-07-29T10:21:32Z</time>
      </trkpt>
      <trkpt lat="42.76967" lon="-0.33665">
        <time>2022-07-29T10:21:33Z</time>
      </trkpt>
      <trkpt lat="42.76969" lon="-0.33672">
        <time>2022-07-29T10:21:34Z</time>
      </trkpt>
      <trkpt lat="42.76971" lon="-0.33676">
        <time>2022-07-29T10:21:35Z</time>
      </trkpt>
      <trkpt lat="42.76974" lon="-0.33677">
        <time>2022-07-29T10:21:36Z</time>
      </trkpt>
      <trkpt lat="42.76979" lon="-0.33676">
        <time>2022-07-29T10:21:37Z</time>
      </trkpt>
      <trkpt lat="42.76984" lon="-0.33673">
        <time>2022-07-29T10:21:38Z</time>
      </trkpt>
      <trkpt lat="42.76989" lon="-0.33668">
        <time>2022-07-29T10:21:39Z</time>
      </trkpt>
      <trkpt lat="42.76995" lon="-0.33663">
        <time>2022-07-29T10:21:40Z</time>
      </trkpt>
      <trkpt lat="42.77" lon="-0.33659">
        <time>2022-07-29T10:21:41Z</time>
      </trkpt>
      <trkpt lat="42.77007" lon="-0.33656">
        <time>2022-07-29T10:21:42Z</time>
      </trkpt>
      <trkpt lat="42.77015" lon="-0.33658">
        <time>2022-07-29T10:21:43Z</time>
      </trkpt>
      <trkpt lat="42.77024" lon="-0.33662">
        <time>2022-07-29T10:21:44Z</time>
      </trkpt>
      <trkpt lat="42.77033" lon="-0.33667">
        <time>2022-07-29T10:21:45Z</time>
      </trkpt>
      <trkpt lat="42.77042" lon="-0.33675">
        <time>2022-07-29T10:21:46Z</time>
      </trkpt>
      <trkpt lat="42.77051" lon="-0.33682">
        <time>2022-07-29T10:21:47Z</time>
      </trkpt>
      <trkpt lat="42.77059" lon="-0.33691">
        <time>2022-07-29T10:21:48Z</time>
      </trkpt>
      <trkpt lat="42.77067" lon="-0.33699">
        <time>2022-07-29T10:21:49Z</time>
      </trkpt>
      <trkpt lat="42.77076" lon="-0.33706">
        <time>2022-07-29T10:21:50Z</time>
      </trkpt>
      <trkpt lat="42.77087" lon="-0.33711">
        <time>2022-07-29T10:21:51Z</time>
      </trkpt>
      <trkpt lat="42.77099" lon="-0.33715">
        <time>2022-07-29T10:21:52Z</time>
      </trkpt>
      <trkpt lat="42.7711" lon="-0.33717">
        <time>2022-07-29T10:21:53Z</time>
      </trkpt>
      <trkpt lat="42.77122" lon="-0.33718">
        <time>2022-07-29T10:21:54Z</time>
      </trkpt>
      <trkpt lat="42.77133" lon="-0.33717">
        <time>2022-07-29T10:21:55Z</time>
      </trkpt>
      <trkpt lat="42.77142" lon="-0.33716">
        <time>2022-07-29T10:21:56Z</time>
      </trkpt>
      <trkpt lat="42.77153" lon="-0.33712">
        <time>2022-07-29T10:21:57Z</time>
      </trkpt>
      <trkpt lat="42.7716" lon="-0.33705">
        <time>2022-07-29T10:21:58Z</time>
      </trkpt>
      <trkpt lat="42.77168" lon="-0.33695">
        <time>2022-07-29T10:21:59Z</time>
      </trkpt>
      <trkpt lat="42.77174" lon="-0.33682">
        <time>2022-07-29T10:22:00Z</time>
      </trkpt>
      <trkpt lat="42.77181" lon="-0.33669">
        <time>2022-07-29T10:22:01Z</time>
      </trkpt>
      <trkpt lat="42.77188" lon="-0.33657">
        <time>2022-07-29T10:22:02Z</time>
      </trkpt>
      <trkpt lat="42.77196" lon="-0.33647">
        <time>2022-07-29T10:22:03Z</time>
      </trkpt>
      <trkpt lat="42.77207" lon="-0.3364">
        <time>2022-07-29T10:22:04Z</time>
      </trkpt>
      <trkpt lat="42.77217" lon="-0.33634">
        <time>2022-07-29T10:22:05Z</time>
      </trkpt>
      <trkpt lat="42.77228" lon="-0.33629">
        <time>2022-07-29T10:22:06Z</time>
      </trkpt>
      <trkpt lat="42.77239" lon="-0.33625">
        <time>2022-07-29T10:22:07Z</time>
      </trkpt>
      <trkpt lat="42.7725" lon="-0.33624">
        <time>2022-07-29T10:22:08Z</time>
      </trkpt>
      <trkpt lat="42.7726" lon="-0.33624">
        <time>2022-07-29T10:22:09Z</time>
      </trkpt>
      <trkpt lat="42.7727" lon="-0.33624">
        <time>2022-07-29T10:22:10Z</time>
      </trkpt>
      <trkpt lat="42.77279" lon="-0.3362">
        <time>2022-07-29T10:22:11Z</time>
      </trkpt>
      <trkpt lat="42.77288" lon="-0.33614">
        <time>2022-07-29T10:22:12Z</time>
      </trkpt>
      <trkpt lat="42.77295" lon="-0.33606">
        <time>2022-07-29T10:22:13Z</time>
      </trkpt>
      <trkpt lat="42.77301" lon="-0.33596">
        <time>2022-07-29T10:22:14Z</time>
      </trkpt>
      <trkpt lat="42.77307" lon="-0.33585">
        <time>2022-07-29T10:22:15Z</time>
      </trkpt>
      <trkpt lat="42.77313" lon="-0.33576">
        <time>2022-07-29T10:22:16Z</time>
      </trkpt>
      <trkpt lat="42.7732" lon="-0.3357">
        <time>2022-07-29T10:22:17Z</time>
      </trkpt>
      <trkpt lat="42.77329" lon="-0.33567">
        <time>2022-07-29T10:22:18Z</time>
      </trkpt>
      <trkpt lat="42.77339" lon="-0.33567">
        <time>2022-07-29T10:22:19Z</time>
      </trkpt>
      <trkpt lat="42.77349" lon="-0.33571">
        <time>2022-07-29T10:22:20Z</time>
      </trkpt>
      <trkpt lat="42.77358" lon="-0.3357">
        <time>2022-07-29T10:22:21Z</time>
      </trkpt>
      <trkpt lat="42.77366" lon="-0.33568">
        <time>2022-07-29T10:22:22Z</time>
      </trkpt>
      <trkpt lat="42.77373" lon="-0.33561">
        <time>2022-07-29T10:22:23Z</time>
      </trkpt>
      <trkpt lat="42.77378" lon="-0.33547">
        <time>2022-07-29T10:22:24Z</time>
      </trkpt>
      <trkpt lat="42.77384" lon="-0.33533">
        <time>2022-07-29T10:22:25Z</time>
      </trkpt>
      <trkpt lat="42.7739" lon="-0.33516">
        <time>2022-07-29T10:22:26Z</time>
      </trkpt>
      <trkpt lat="42.77397" lon="-0.335">
        <time>2022-07-29T10:22:27Z</time>
      </trkpt>
      <trkpt lat="42.77404" lon="-0.33485">
        <time>2022-07-29T10:22:28Z</time>
      </trkpt>
      <trkpt lat="42.7741" lon="-0.33473">
        <time>2022-07-29T10:22:29Z</time>
      </trkpt>
      <trkpt lat="42.77416" lon="-0.33461">
        <time>2022-07-29T10:22:30Z</time>
      </trkpt>
      <trkpt lat="42.77421" lon="-0.3345">
        <time>2022-07-29T10:22:31Z</time>
      </trkpt>
      <trkpt lat="42.77426" lon="-0.3344">
        <time>2022-07-29T10:22:32Z</time>
      </trkpt>
      <trkpt lat="42.7743" lon="-0.33432">
        <time>2022-07-29T10:22:33Z</time>
      </trkpt>
      <trkpt lat="42.77434" lon="-0.33426">
        <time>2022-07-29T10:22:34Z</time>
      </trkpt>
      <trkpt lat="42.77439" lon="-0.3342">
        <time>2022-07-29T10:22:35Z</time>
      </trkpt>
      <trkpt lat="42.77446" lon="-0.33417">
        <time>2022-07-29T10:22:36Z</time>
      </trkpt>
      <trkpt lat="42.77452" lon="-0.33418">
        <time>2022-07-29T10:22:37Z</time>
      </trkpt>
      <trkpt lat="42.77457" lon="-0.33424">
        <time>2022-07-29T10:22:38Z</time>
      </trkpt>
      <trkpt lat="42.77463" lon="-0.3343">
        <time>2022-07-29T10:22:39Z</time>
      </trkpt>
      <trkpt lat="42.77465" lon="-0.33442">
        <time>2022-07-29T10:22:40Z</time>
      </trkpt>
      <trkpt lat="42.77454" lon="-0.33457">
        <time>2022-07-29T10:22:41Z</time>
      </trkpt>
      <trkpt lat="42.77448" lon="-0.3347">
        <time>2022-07-29T10:22:42Z</time>
      </trkpt>
      <trkpt lat="42.77441" lon="-0.3348">
        <time>2022-07-29T10:22:43Z</time>
      </trkpt>
      <trkpt lat="42.77435" lon="-0.33491">
        <time>2022-07-29T10:22:44Z</time>
      </trkpt>
      <trkpt lat="42.77428" lon="-0.33502">
        <time>2022-07-29T10:22:45Z</time>
      </trkpt>
      <trkpt lat="42.77421" lon="-0.33515">
        <time>2022-07-29T10:22:46Z</time>
      </trkpt>
      <trkpt lat="42.77413" lon="-0.33529">
        <time>2022-07-29T10:22:47Z</time>
      </trkpt>
      <trkpt lat="42.77404" lon="-0.33543">
        <time>2022-07-29T10:22:48Z</time>
      </trkpt>
      <trkpt lat="42.77396" lon="-0.33557">
        <time>2022-07-29T10:22:49Z</time>
      </trkpt>
      <trkpt lat="42.77389" lon="-0.3357">
        <time>2022-07-29T10:22:50Z</time>
      </trkpt>
      <trkpt lat="42.77382" lon="-0.33582">
        <time>2022-07-29T10:22:51Z</time>
      </trkpt>
      <trkpt lat="42.77378" lon="-0.33593">
        <time>2022-07-29T10:22:52Z</time>
      </trkpt>
      <trkpt lat="42.77374" lon="-0.33603">
        <time>2022-07-29T10:22:53Z</time>
      </trkpt>
      <trkpt lat="42.77369" lon="-0.33612">
        <time>2022-07-29T10:22:54Z</time>
      </trkpt>
      <trkpt lat="42.7736" lon="-0.33614">
        <time>2022-07-29T10:22:55Z</time>
      </trkpt>
      <trkpt lat="42.77352" lon="-0.33616">
        <time>2022-07-29T10:22:56Z</time>
      </trkpt>
      <trkpt lat="42.77345" lon="-0.33621">
        <time>2022-07-29T10:22:57Z</time>
      </trkpt>
      <trkpt lat="42.7734" lon="-0.33629">
        <time>2022-07-29T10:22:58Z</time>
      </trkpt>
      <trkpt lat="42.77333" lon="-0.33639">
        <time>2022-07-29T10:22:59Z</time>
      </trkpt>
      <trkpt lat="42.77327" lon="-0.33651">
        <time>2022-07-29T10:23:00Z</time>
      </trkpt>
      <trkpt lat="42.77321" lon="-0.33663">
        <time>2022-07-29T10:23:01Z</time>
      </trkpt>
      <trkpt lat="42.77315" lon="-0.33675">
        <time>2022-07-29T10:23:02Z</time>
      </trkpt>
      <trkpt lat="42.77307" lon="-0.33687">
        <time>2022-07-29T10:23:03Z</time>
      </trkpt>
      <trkpt lat="42.773" lon="-0.337">
        <time>2022-07-29T10:23:04Z</time>
      </trkpt>
      <trkpt lat="42.77293" lon="-0.33714">
        <time>2022-07-29T10:23:05Z</time>
      </trkpt>
      <trkpt lat="42.77288" lon="-0.33727">
        <time>2022-07-29T10:23:06Z</time>
      </trkpt>
      <trkpt lat="42.77284" lon="-0.3374">
        <time>2022-07-29T10:23:07Z</time>
      </trkpt>
      <trkpt lat="42.77281" lon="-0.33754">
        <time>2022-07-29T10:23:08Z</time>
      </trkpt>
      <trkpt lat="42.77281" lon="-0.33768">
        <time>2022-07-29T10:23:09Z</time>
      </trkpt>
      <trkpt lat="42.77282" lon="-0.33783">
        <time>2022-07-29T10:23:10Z</time>
      </trkpt>
      <trkpt lat="42.77282" lon="-0.33798">
        <time>2022-07-29T10:23:11Z</time>
      </trkpt>
      <trkpt lat="42.77279" lon="-0.33813">
        <time>2022-07-29T10:23:12Z</time>
      </trkpt>
      <trkpt lat="42.77275" lon="-0.33827">
        <time>2022-07-29T10:23:13Z</time>
      </trkpt>
      <trkpt lat="42.77273" lon="-0.33842">
        <time>2022-07-29T10:23:14Z</time>
      </trkpt>
      <trkpt lat="42.77273" lon="-0.3386">
        <time>2022-07-29T10:23:15Z</time>
      </trkpt>
      <trkpt lat="42.77274" lon="-0.33881">
        <time>2022-07-29T10:23:16Z</time>
      </trkpt>
      <trkpt lat="42.77276" lon="-0.33901">
        <time>2022-07-29T10:23:17Z</time>
      </trkpt>
      <trkpt lat="42.77279" lon="-0.33921">
        <time>2022-07-29T10:23:18Z</time>
      </trkpt>
      <trkpt lat="42.77281" lon="-0.33941">
        <time>2022-07-29T10:23:19Z</time>
      </trkpt>
      <trkpt lat="42.77283" lon="-0.33962">
        <time>2022-07-29T10:23:20Z</time>
      </trkpt>
      <trkpt lat="42.77286" lon="-0.33984">
        <time>2022-07-29T10:23:21Z</time>
      </trkpt>
      <trkpt lat="42.77288" lon="-0.34004">
        <time>2022-07-29T10:23:22Z</time>
      </trkpt>
      <trkpt lat="42.77291" lon="-0.34024">
        <time>2022-07-29T10:23:23Z</time>
      </trkpt>
      <trkpt lat="42.77293" lon="-0.34043">
        <time>2022-07-29T10:23:24Z</time>
      </trkpt>
      <trkpt lat="42.77295" lon="-0.34063">
        <time>2022-07-29T10:23:25Z</time>
      </trkpt>
      <trkpt lat="42.77297" lon="-0.34083">
        <time>2022-07-29T10:23:26Z</time>
      </trkpt>
      <trkpt lat="42.77297" lon="-0.34104">
        <time>2022-07-29T10:23:27Z</time>
      </trkpt>
      <trkpt lat="42.77296" lon="-0.34125">
        <time>2022-07-29T10:23:28Z</time>
      </trkpt>
      <trkpt lat="42.77294" lon="-0.34148">
        <time>2022-07-29T10:23:29Z</time>
      </trkpt>
      <trkpt lat="42.77292" lon="-0.34172">
        <time>2022-07-29T10:23:30Z</time>
      </trkpt>
      <trkpt lat="42.7729" lon="-0.34194">
        <time>2022-07-29T10:23:31Z</time>
      </trkpt>
      <trkpt lat="42.77288" lon="-0.34215">
        <time>2022-07-29T10:23:32Z</time>
      </trkpt>
      <trkpt lat="42.77286" lon="-0.34235">
        <time>2022-07-29T10:23:33Z</time>
      </trkpt>
      <trkpt lat="42.77284" lon="-0.34253">
        <time>2022-07-29T10:23:34Z</time>
      </trkpt>
      <trkpt lat="42.77283" lon="-0.34269">
        <time>2022-07-29T10:23:35Z</time>
      </trkpt>
      <trkpt lat="42.77282" lon="-0.34285">
        <time>2022-07-29T10:23:36Z</time>
      </trkpt>
      <trkpt lat="42.77281" lon="-0.343">
        <time>2022-07-29T10:23:37Z</time>
      </trkpt>
      <trkpt lat="42.77279" lon="-0.34316">
        <time>2022-07-29T10:23:38Z</time>
      </trkpt>
      <trkpt lat="42.77278" lon="-0.34331">
        <time>2022-07-29T10:23:39Z</time>
      </trkpt>
      <trkpt lat="42.77275" lon="-0.34345">
        <time>2022-07-29T10:23:40Z</time>
      </trkpt>
      <trkpt lat="42.77271" lon="-0.34357">
        <time>2022-07-29T10:23:41Z</time>
      </trkpt>
      <trkpt lat="42.77265" lon="-0.34368">
        <time>2022-07-29T10:23:42Z</time>
      </trkpt>
      <trkpt lat="42.77262" lon="-0.34381">
        <time>2022-07-29T10:23:43Z</time>
      </trkpt>
      <trkpt lat="42.7726" lon="-0.34395">
        <time>2022-07-29T10:23:44Z</time>
      </trkpt>
      <trkpt lat="42.77261" lon="-0.3441">
        <time>2022-07-29T10:23:45Z</time>
      </trkpt>
      <trkpt lat="42.77264" lon="-0.34427">
        <time>2022-07-29T10:23:46Z</time>
      </trkpt>
      <trkpt lat="42.77266" lon="-0.34444">
        <time>2022-07-29T10:23:47Z</time>
      </trkpt>
      <trkpt lat="42.77269" lon="-0.3446">
        <time>2022-07-29T10:23:48Z</time>
      </trkpt>
      <trkpt lat="42.77272" lon="-0.34474">
        <time>2022-07-29T10:23:49Z</time>
      </trkpt>
      <trkpt lat="42.77275" lon="-0.34487">
        <time>2022-07-29T10:23:50Z</time>
      </trkpt>
      <trkpt lat="42.77277" lon="-0.34499">
        <time>2022-07-29T10:23:51Z</time>
      </trkpt>
      <trkpt lat="42.77282" lon="-0.34509">
        <time>2022-07-29T10:23:52Z</time>
      </trkpt>
      <trkpt lat="42.77289" lon="-0.3452">
        <time>2022-07-29T10:23:53Z</time>
      </trkpt>
      <trkpt lat="42.77298" lon="-0.34529">
        <time>2022-07-29T10:23:54Z</time>
      </trkpt>
      <trkpt lat="42.77308" lon="-0.34539">
        <time>2022-07-29T10:23:55Z</time>
      </trkpt>
      <trkpt lat="42.77317" lon="-0.3455">
        <time>2022-07-29T10:23:56Z</time>
      </trkpt>
      <trkpt lat="42.77324" lon="-0.34561">
        <time>2022-07-29T10:23:57Z</time>
      </trkpt>
      <trkpt lat="42.77329" lon="-0.34574">
        <time>2022-07-29T10:23:58Z</time>
      </trkpt>
      <trkpt lat="42.77331" lon="-0.34587">
        <time>2022-07-29T10:23:59Z</time>
      </trkpt>
      <trkpt lat="42.77329" lon="-0.34601">
        <time>2022-07-29T10:24:00Z</time>
      </trkpt>
      <trkpt lat="42.77324" lon="-0.34613">
        <time>2022-07-29T10:24:01Z</time>
      </trkpt>
      <trkpt lat="42.77316" lon="-0.34622">
        <time>2022-07-29T10:24:02Z</time>
      </trkpt>
      <trkpt lat="42.77303" lon="-0.34629">
        <time>2022-07-29T10:24:03Z</time>
      </trkpt>
      <trkpt lat="42.77289" lon="-0.34634">
        <time>2022-07-29T10:24:04Z</time>
      </trkpt>
      <trkpt lat="42.77273" lon="-0.34639">
        <time>2022-07-29T10:24:05Z</time>
      </trkpt>
      <trkpt lat="42.77256" lon="-0.34643">
        <time>2022-07-29T10:24:06Z</time>
      </trkpt>
      <trkpt lat="42.77241" lon="-0.34647">
        <time>2022-07-29T10:24:07Z</time>
      </trkpt>
      <trkpt lat="42.77226" lon="-0.34651">
        <time>2022-07-29T10:24:08Z</time>
      </trkpt>
      <trkpt lat="42.77212" lon="-0.34655">
        <time>2022-07-29T10:24:09Z</time>
      </trkpt>
      <trkpt lat="42.77199" lon="-0.34658">
        <time>2022-07-29T10:24:10Z</time>
      </trkpt>
      <trkpt lat="42.77189" lon="-0.34662">
        <time>2022-07-29T10:24:11Z</time>
      </trkpt>
      <trkpt lat="42.77181" lon="-0.34665">
        <time>2022-07-29T10:24:12Z</time>
      </trkpt>
      <trkpt lat="42.77175" lon="-0.3467">
        <time>2022-07-29T10:24:13Z</time>
      </trkpt>
      <trkpt lat="42.77171" lon="-0.34677">
        <time>2022-07-29T10:24:14Z</time>
      </trkpt>
      <trkpt lat="42.7717" lon="-0.34686">
        <time>2022-07-29T10:24:15Z</time>
      </trkpt>
      <trkpt lat="42.77173" lon="-0.34693">
        <time>2022-07-29T10:24:16Z</time>
      </trkpt>
      <trkpt lat="42.7718" lon="-0.34699">
        <time>2022-07-29T10:24:17Z</time>
      </trkpt>
      <trkpt lat="42.77189" lon="-0.34704">
        <time>2022-07-29T10:24:18Z</time>
      </trkpt>
      <trkpt lat="42.77199" lon="-0.34709">
        <time>2022-07-29T10:24:19Z</time>
      </trkpt>
      <trkpt lat="42.7721" lon="-0.34714">
        <time>2022-07-29T10:24:20Z</time>
      </trkpt>
      <trkpt lat="42.77222" lon="-0.34721">
        <time>2022-07-29T10:24:21Z</time>
      </trkpt>
      <trkpt lat="42.77234" lon="-0.34727">
        <time>2022-07-29T10:24:22Z</time>
      </trkpt>
      <trkpt lat="42.77246" lon="-0.34733">
        <time>2022-07-29T10:24:23Z</time>
      </trkpt>
      <trkpt lat="42.77256" lon="-0.34738">
        <time>2022-07-29T10:24:24Z</time>
      </trkpt>
      <trkpt lat="42.77265" lon="-0.34743">
        <time>2022-07-29T10:24:25Z</time>
      </trkpt>
      <trkpt lat="42.77274" lon="-0.34747">
        <time>2022-07-29T10:24:26Z</time>
      </trkpt>
      <trkpt lat="42.77281" lon="-0.34752">
        <time>2022-07-29T10:24:27Z</time>
      </trkpt>
      <trkpt lat="42.77287" lon="-0.34758">
        <time>2022-07-29T10:24:28Z</time>
      </trkpt>
      <trkpt lat="42.7729" lon="-0.34768">
        <time>2022-07-29T10:24:29Z</time>
      </trkpt>
      <trkpt lat="42.7729" lon="-0.34779">
        <time>2022-07-29T10:24:30Z</time>
      </trkpt>
      <trkpt lat="42.7729" lon="-0.3479">
        <time>2022-07-29T10:24:31Z</time>
      </trkpt>
      <trkpt lat="42.77277" lon="-0.34797">
        <time>2022-07-29T10:24:32Z</time>
      </trkpt>
      <trkpt lat="42.77266" lon="-0.34801">
        <time>2022-07-29T10:24:33Z</time>
      </trkpt>
      <trkpt lat="42.77254" lon="-0.34803">
        <time>2022-07-29T10:24:34Z</time>
      </trkpt>
      <trkpt lat="42.77242" lon="-0.34806">
        <time>2022-07-29T10:24:35Z</time>
      </trkpt>
      <trkpt lat="42.77231" lon="-0.34809">
        <time>2022-07-29T10:24:36Z</time>
      </trkpt>
      <trkpt lat="42.77222" lon="-0.34813">
        <time>2022-07-29T10:24:37Z</time>
      </trkpt>
      <trkpt lat="42.77213" lon="-0.34819">
        <time>2022-07-29T10:24:38Z</time>
      </trkpt>
      <trkpt lat="42.77205" lon="-0.34829">
        <time>2022-07-29T10:24:39Z</time>
      </trkpt>
      <trkpt lat="42.77197" lon="-0.3484">
        <time>2022-07-29T10:24:40Z</time>
      </trkpt>
      <trkpt lat="42.77189" lon="-0.3485">
        <time>2022-07-29T10:24:41Z</time>
      </trkpt>
      <trkpt lat="42.77183" lon="-0.3486">
        <time>2022-07-29T10:24:42Z</time>
      </trkpt>
      <trkpt lat="42.77179" lon="-0.34871">
        <time>2022-07-29T10:24:43Z</time>
      </trkpt>
      <trkpt lat="42.77177" lon="-0.34883">
        <time>2022-07-29T10:24:44Z</time>
      </trkpt>
      <trkpt lat="42.77179" lon="-0.34895">
        <time>2022-07-29T10:24:45Z</time>
      </trkpt>
      <trkpt lat="42.77185" lon="-0.34907">
        <time>2022-07-29T10:24:46Z</time>
      </trkpt>
      <trkpt lat="42.77195" lon="-0.34915">
        <time>2022-07-29T10:24:47Z</time>
      </trkpt>
      <trkpt lat="42.77205" lon="-0.34922">
        <time>2022-07-29T10:24:48Z</time>
      </trkpt>
      <trkpt lat="42.77215" lon="-0.34925">
        <time>2022-07-29T10:24:49Z</time>
      </trkpt>
      <trkpt lat="42.77224" lon="-0.34926">
        <time>2022-07-29T10:24:50Z</time>
      </trkpt>
      <trkpt lat="42.77233" lon="-0.34922">
        <time>2022-07-29T10:24:51Z</time>
      </trkpt>
      <trkpt lat="42.77242" lon="-0.34918">
        <time>2022-07-29T10:24:52Z</time>
      </trkpt>
      <trkpt lat="42.77246" lon="-0.3491">
        <time>2022-07-29T10:24:53Z</time>
      </trkpt>
      <trkpt lat="42.77252" lon="-0.34903">
        <time>2022-07-29T10:24:54Z</time>
      </trkpt>
      <trkpt lat="42.77257" lon="-0.34899">
        <time>2022-07-29T10:24:55Z</time>
      </trkpt>
      <trkpt lat="42.77265" lon="-0.34897">
        <time>2022-07-29T10:24:56Z</time>
      </trkpt>
      <trkpt lat="42.77272" lon="-0.34898">
        <time>2022-07-29T10:24:57Z</time>
      </trkpt>
      <trkpt lat="42.77281" lon="-0.34903">
        <time>2022-07-29T10:24:58Z</time>
      </trkpt>
      <trkpt lat="42.77284" lon="-0.34917">
        <time>2022-07-29T10:24:59Z</time>
      </trkpt>
      <trkpt lat="42.77286" lon="-0.34934">
        <time>2022-07-29T10:25:00Z</time>
      </trkpt>
      <trkpt lat="42.77288" lon="-0.34952">
        <time>2022-07-29T10:25:01Z</time>
      </trkpt>
      <trkpt lat="42.7729" lon="-0.34969">
        <time>2022-07-29T10:25:02Z</time>
      </trkpt>
      <trkpt lat="42.77292" lon="-0.34984">
        <time>2022-07-29T10:25:03Z</time>
      </trkpt>
      <trkpt lat="42.77296" lon="-0.34998">
        <time>2022-07-29T10:25:04Z</time>
      </trkpt>
      <trkpt lat="42.77301" lon="-0.35011">
        <time>2022-07-29T10:25:05Z</time>
      </trkpt>
      <trkpt lat="42.77308" lon="-0.35022">
        <time>2022-07-29T10:25:06Z</time>
      </trkpt>
      <trkpt lat="42.77317" lon="-0.35032">
        <time>2022-07-29T10:25:07Z</time>
      </trkpt>
      <trkpt lat="42.77327" lon="-0.35041">
        <time>2022-07-29T10:25:08Z</time>
      </trkpt>
      <trkpt lat="42.77336" lon="-0.35048">
        <time>2022-07-29T10:25:09Z</time>
      </trkpt>
      <trkpt lat="42.77347" lon="-0.35054">
        <time>2022-07-29T10:25:10Z</time>
      </trkpt>
      <trkpt lat="42.77359" lon="-0.35057">
        <time>2022-07-29T10:25:11Z</time>
      </trkpt>
      <trkpt lat="42.7737" lon="-0.35054">
        <time>2022-07-29T10:25:12Z</time>
      </trkpt>
      <trkpt lat="42.77381" lon="-0.35048">
        <time>2022-07-29T10:25:13Z</time>
      </trkpt>
      <trkpt lat="42.77391" lon="-0.35038">
        <time>2022-07-29T10:25:14Z</time>
      </trkpt>
      <trkpt lat="42.77399" lon="-0.35025">
        <time>2022-07-29T10:25:15Z</time>
      </trkpt>
      <trkpt lat="42.77406" lon="-0.35012">
        <time>2022-07-29T10:25:16Z</time>
      </trkpt>
      <trkpt lat="42.77412" lon="-0.34998">
        <time>2022-07-29T10:25:17Z</time>
      </trkpt>
      <trkpt lat="42.77418" lon="-0.34985">
        <time>2022-07-29T10:25:18Z</time>
      </trkpt>
      <trkpt lat="42.77424" lon="-0.34973">
        <time>2022-07-29T10:25:19Z</time>
      </trkpt>
      <trkpt lat="42.7743" lon="-0.34963">
        <time>2022-07-29T10:25:20Z</time>
      </trkpt>
      <trkpt lat="42.77437" lon="-0.34955">
        <time>2022-07-29T10:25:21Z</time>
      </trkpt>
      <trkpt lat="42.77446" lon="-0.34951">
        <time>2022-07-29T10:25:22Z</time>
      </trkpt>
      <trkpt lat="42.77454" lon="-0.34953">
        <time>2022-07-29T10:25:23Z</time>
      </trkpt>
      <trkpt lat="42.77461" lon="-0.3496">
        <time>2022-07-29T10:25:24Z</time>
      </trkpt>
      <trkpt lat="42.77463" lon="-0.34972">
        <time>2022-07-29T10:25:25Z</time>
      </trkpt>
      <trkpt lat="42.77463" lon="-0.34985">
        <time>2022-07-29T10:25:26Z</time>
      </trkpt>
      <trkpt lat="42.77461" lon="-0.35001">
        <time>2022-07-29T10:25:27Z</time>
      </trkpt>
      <trkpt lat="42.77458" lon="-0.3502">
        <time>2022-07-29T10:25:28Z</time>
      </trkpt>
      <trkpt lat="42.77454" lon="-0.35038">
        <time>2022-07-29T10:25:29Z</time>
      </trkpt>
      <trkpt lat="42.77448" lon="-0.35053">
        <time>2022-07-29T10:25:30Z</time>
      </trkpt>
      <trkpt lat="42.77442" lon="-0.35068">
        <time>2022-07-29T10:25:31Z</time>
      </trkpt>
      <trkpt lat="42.77438" lon="-0.35082">
        <time>2022-07-29T10:25:32Z</time>
      </trkpt>
      <trkpt lat="42.77435" lon="-0.35097">
        <time>2022-07-29T10:25:33Z</time>
      </trkpt>
      <trkpt lat="42.77435" lon="-0.35114">
        <time>2022-07-29T10:25:34Z</time>
      </trkpt>
      <trkpt lat="42.77435" lon="-0.35133">
        <time>2022-07-29T10:25:35Z</time>
      </trkpt>
      <trkpt lat="42.77435" lon="-0.35153">
        <time>2022-07-29T10:25:36Z</time>
      </trkpt>
      <trkpt lat="42.77436" lon="-0.35173">
        <time>2022-07-29T10:25:37Z</time>
      </trkpt>
      <trkpt lat="42.77437" lon="-0.35191">
        <time>2022-07-29T10:25:38Z</time>
      </trkpt>
      <trkpt lat="42.77435" lon="-0.35208">
        <time>2022-07-29T10:25:39Z</time>
      </trkpt>
      <trkpt lat="42.77432" lon="-0.35224">
        <time>2022-07-29T10:25:40Z</time>
      </trkpt>
      <trkpt lat="42.77428" lon="-0.35239">
        <time>2022-07-29T10:25:41Z</time>
      </trkpt>
      <trkpt lat="42.77423" lon="-0.35253">
        <time>2022-07-29T10:25:42Z</time>
      </trkpt>
      <trkpt lat="42.77417" lon="-0.35268">
        <time>2022-07-29T10:25:43Z</time>
      </trkpt>
      <trkpt lat="42.77414" lon="-0.35283">
        <time>2022-07-29T10:25:44Z</time>
      </trkpt>
      <trkpt lat="42.7741" lon="-0.35297">
        <time>2022-07-29T10:25:45Z</time>
      </trkpt>
      <trkpt lat="42.77407" lon="-0.35309">
        <time>2022-07-29T10:25:46Z</time>
      </trkpt>
      <trkpt lat="42.77406" lon="-0.35322">
        <time>2022-07-29T10:25:47Z</time>
      </trkpt>
      <trkpt lat="42.77406" lon="-0.35335">
        <time>2022-07-29T10:25:48Z</time>
      </trkpt>
      <trkpt lat="42.77407" lon="-0.35349">
        <time>2022-07-29T10:25:49Z</time>
      </trkpt>
      <trkpt lat="42.77408" lon="-0.35363">
        <time>2022-07-29T10:25:50Z</time>
      </trkpt>
      <trkpt lat="42.77407" lon="-0.35376">
        <time>2022-07-29T10:25:51Z</time>
      </trkpt>
      <trkpt lat="42.77403" lon="-0.35391">
        <time>2022-07-29T10:25:52Z</time>
      </trkpt>
      <trkpt lat="42.77398" lon="-0.35407">
        <time>2022-07-29T10:25:53Z</time>
      </trkpt>
      <trkpt lat="42.77394" lon="-0.35422">
        <time>2022-07-29T10:25:54Z</time>
      </trkpt>
      <trkpt lat="42.7739" lon="-0.35437">
        <time>2022-07-29T10:25:55Z</time>
      </trkpt>
      <trkpt lat="42.77385" lon="-0.35452">
        <time>2022-07-29T10:25:56Z</time>
      </trkpt>
      <trkpt lat="42.7738" lon="-0.35465">
        <time>2022-07-29T10:25:57Z</time>
      </trkpt>
      <trkpt lat="42.77374" lon="-0.35477">
        <time>2022-07-29T10:25:58Z</time>
      </trkpt>
      <trkpt lat="42.77368" lon="-0.35487">
        <time>2022-07-29T10:25:59Z</time>
      </trkpt>
      <trkpt lat="42.77361" lon="-0.35494">
        <time>2022-07-29T10:26:00Z</time>
      </trkpt>
      <trkpt lat="42.77352" lon="-0.35498">
        <time>2022-07-29T10:26:01Z</time>
      </trkpt>
      <trkpt lat="42.77344" lon="-0.35502">
        <time>2022-07-29T10:26:02Z</time>
      </trkpt>
      <trkpt lat="42.77337" lon="-0.35508">
        <time>2022-07-29T10:26:03Z</time>
      </trkpt>
      <trkpt lat="42.77331" lon="-0.35519">
        <time>2022-07-29T10:26:04Z</time>
      </trkpt>
      <trkpt lat="42.77327" lon="-0.35533">
        <time>2022-07-29T10:26:05Z</time>
      </trkpt>
      <trkpt lat="42.77324" lon="-0.35548">
        <time>2022-07-29T10:26:06Z</time>
      </trkpt>
      <trkpt lat="42.7732" lon="-0.35563">
        <time>2022-07-29T10:26:07Z</time>
      </trkpt>
      <trkpt lat="42.77313" lon="-0.35578">
        <time>2022-07-29T10:26:08Z</time>
      </trkpt>
      <trkpt lat="42.77303" lon="-0.35589">
        <time>2022-07-29T10:26:09Z</time>
      </trkpt>
      <trkpt lat="42.77292" lon="-0.35599">
        <time>2022-07-29T10:26:10Z</time>
      </trkpt>
      <trkpt lat="42.77283" lon="-0.35609">
        <time>2022-07-29T10:26:11Z</time>
      </trkpt>
      <trkpt lat="42.77275" lon="-0.35621">
        <time>2022-07-29T10:26:12Z</time>
      </trkpt>
      <trkpt lat="42.77268" lon="-0.35634">
        <time>2022-07-29T10:26:13Z</time>
      </trkpt>
      <trkpt lat="42.77263" lon="-0.35647">
        <time>2022-07-29T10:26:14Z</time>
      </trkpt>
      <trkpt lat="42.77258" lon="-0.35662">
        <time>2022-07-29T10:26:15Z</time>
      </trkpt>
      <trkpt lat="42.77255" lon="-0.35674">
        <time>2022-07-29T10:26:16Z</time>
      </trkpt>
      <trkpt lat="42.77252" lon="-0.35683">
        <time>2022-07-29T10:26:17Z</time>
      </trkpt>
      <trkpt lat="42.7725" lon="-0.3569">
        <time>2022-07-29T10:26:18Z</time>
      </trkpt>
      <trkpt lat="42.77248" lon="-0.35695">
        <time>2022-07-29T10:26:19Z</time>
      </trkpt>
      <trkpt lat="42.77248" lon="-0.35701">
        <time>2022-07-29T10:26:20Z</time>
      </trkpt>
      <trkpt lat="42.7725" lon="-0.35707">
        <time>2022-07-29T10:26:21Z</time>
      </trkpt>
      <trkpt lat="42.77256" lon="-0.35713">
        <time>2022-07-29T10:26:22Z</time>
      </trkpt>
      <trkpt lat="42.77265" lon="-0.35718">
        <time>2022-07-29T10:26:23Z</time>
      </trkpt>
      <trkpt lat="42.77271" lon="-0.35724">
        <time>2022-07-29T10:26:24Z</time>
      </trkpt>
      <trkpt lat="42.77277" lon="-0.35733">
        <time>2022-07-29T10:26:25Z</time>
      </trkpt>
      <trkpt lat="42.77281" lon="-0.35743">
        <time>2022-07-29T10:26:26Z</time>
      </trkpt>
      <trkpt lat="42.77284" lon="-0.35755">
        <time>2022-07-29T10:26:27Z</time>
      </trkpt>
      <trkpt lat="42.77286" lon="-0.35766">
        <time>2022-07-29T10:26:28Z</time>
      </trkpt>
      <trkpt lat="42.77288" lon="-0.35776">
        <time>2022-07-29T10:26:29Z</time>
      </trkpt>
      <trkpt lat="42.77289" lon="-0.35785">
        <time>2022-07-29T10:26:30Z</time>
      </trkpt>
      <trkpt lat="42.7729" lon="-0.35794">
        <time>2022-07-29T10:26:31Z</time>
      </trkpt>
      <trkpt lat="42.77292" lon="-0.35802">
        <time>2022-07-29T10:26:32Z</time>
      </trkpt>
      <trkpt lat="42.77293" lon="-0.35808">
        <time>2022-07-29T10:26:33Z</time>
      </trkpt>
      <trkpt lat="42.77293" lon="-0.35814">
        <time>2022-07-29T10:26:34Z</time>
      </trkpt>
      <trkpt lat="42.77293" lon="-0.35821">
        <time>2022-07-29T10:26:35Z</time>
      </trkpt>
      <trkpt lat="42.77293" lon="-0.35829">
        <time>2022-07-29T10:26:36Z</time>
      </trkpt>
      <trkpt lat="42.77294" lon="-0.35838">
        <time>2022-07-29T10:26:37Z</time>
      </trkpt>
      <trkpt lat="42.77294" lon="-0.35845">
        <time>2022-07-29T10:26:38Z</time>
      </trkpt>
      <trkpt lat="42.77295" lon="-0.35854">
        <time>2022-07-29T10:26:39Z</time>
      </trkpt>
      <trkpt lat="42.77295" lon="-0.35862">
        <time>2022-07-29T10:26:40Z</time>
      </trkpt>
      <trkpt lat="42.77295" lon="-0.3587">
        <time>2022-07-29T10:26:41Z</time>
      </trkpt>
      <trkpt lat="42.77295" lon="-0.35878">
        <time>2022-07-29T10:26:42Z</time>
      </trkpt>
      <trkpt lat="42.77294" lon="-0.35887">
        <time>2022-07-29T10:26:43Z</time>
      </trkpt>
      <trkpt lat="42.77294" lon="-0.35896">
        <time>2022-07-29T10:26:44Z</time>
      </trkpt>
      <trkpt lat="42.77294" lon="-0.35905">
        <time>2022-07-29T10:26:45Z</time>
      </trkpt>
      <trkpt lat="42.77294" lon="-0.35913">
        <time>2022-07-29T10:26:46Z</time>
      </trkpt>
      <trkpt lat="42.77295" lon="-0.35921">
        <time>2022-07-29T10:26:47Z</time>
      </trkpt>
      <trkpt lat="42.77295" lon="-0.35928">
        <time>2022-07-29T10:26:48Z</time>
      </trkpt>
      <trkpt lat="42.77296" lon="-0.35935">
        <time>2022-07-29T10:26:49Z</time>
      </trkpt>
      <trkpt lat="42.77297" lon="-0.35942">
        <time>2022-07-29T10:26:50Z</time>
      </trkpt>
      <trkpt lat="42.77298" lon="-0.3595">
        <time>2022-07-29T10:26:51Z</time>
      </trkpt>
      <trkpt lat="42.773" lon="-0.35956">
        <time>2022-07-29T10:26:52Z</time>
      </trkpt>
      <trkpt lat="42.77304" lon="-0.35962">
        <time>2022-07-29T10:26:53Z</time>
      </trkpt>
      <trkpt lat="42.77309" lon="-0.35966">
        <time>2022-07-29T10:26:54Z</time>
      </trkpt>
      <trkpt lat="42.77313" lon="-0.35971">
        <time>2022-07-29T10:26:55Z</time>
      </trkpt>
      <trkpt lat="42.77318" lon="-0.35975">
        <time>2022-07-29T10:26:56Z</time>
      </trkpt>
      <trkpt lat="42.77323" lon="-0.35982">
        <time>2022-07-29T10:26:57Z</time>
      </trkpt>
      <trkpt lat="42.77326" lon="-0.35989">
        <time>2022-07-29T10:26:58Z</time>
      </trkpt>
      <trkpt lat="42.77329" lon="-0.35998">
        <time>2022-07-29T10:26:59Z</time>
      </trkpt>
      <trkpt lat="42.77331" lon="-0.36008">
        <time>2022-07-29T10:27:00Z</time>
      </trkpt>
      <trkpt lat="42.77332" lon="-0.36016">
        <time>2022-07-29T10:27:01Z</time>
      </trkpt>
      <trkpt lat="42.77334" lon="-0.36023">
        <time>2022-07-29T10:27:02Z</time>
      </trkpt>
      <trkpt lat="42.77335" lon="-0.36029">
        <time>2022-07-29T10:27:03Z</time>
      </trkpt>
      <trkpt lat="42.77336" lon="-0.36033">
        <time>2022-07-29T10:27:04Z</time>
      </trkpt>
      <trkpt lat="42.77337" lon="-0.36037">
        <time>2022-07-29T10:27:05Z</time>
      </trkpt>
      <trkpt lat="42.77338" lon="-0.36041">
        <time>2022-07-29T10:27:06Z</time>
      </trkpt>
      <trkpt lat="42.7734" lon="-0.36043">
        <time>2022-07-29T10:27:07Z</time>
      </trkpt>
      <trkpt lat="42.7734" lon="-0.36045">
        <time>2022-07-29T10:27:08Z</time>
      </trkpt>
      <trkpt lat="42.77341" lon="-0.36046">
        <time>2022-07-29T10:27:10Z</time>
      </trkpt>
      <trkpt lat="42.77341" lon="-0.36048">
        <time>2022-07-29T10:27:11Z</time>
      </trkpt>
      <trkpt lat="42.77342" lon="-0.3605">
        <time>2022-07-29T10:27:12Z</time>
      </trkpt>
      <trkpt lat="42.77343" lon="-0.36052">
        <time>2022-07-29T10:27:13Z</time>
      </trkpt>
      <trkpt lat="42.77344" lon="-0.36056">
        <time>2022-07-29T10:27:14Z</time>
      </trkpt>
      <trkpt lat="42.77345" lon="-0.3606">
        <time>2022-07-29T10:27:15Z</time>
      </trkpt>
      <trkpt lat="42.77345" lon="-0.36065">
        <time>2022-07-29T10:27:16Z</time>
      </trkpt>
      <trkpt lat="42.77345" lon="-0.3607">
        <time>2022-07-29T10:27:17Z</time>
      </trkpt>
      <trkpt lat="42.77345" lon="-0.36075">
        <time>2022-07-29T10:27:18Z</time>
      </trkpt>
      <trkpt lat="42.77345" lon="-0.3608">
        <time>2022-07-29T10:27:19Z</time>
      </trkpt>
      <trkpt lat="42.77345" lon="-0.36085">
        <time>2022-07-29T10:27:20Z</time>
      </trkpt>
      <trkpt lat="42.77345" lon="-0.3609">
        <time>2022-07-29T10:27:21Z</time>
      </trkpt>
      <trkpt lat="42.77346" lon="-0.36094">
        <time>2022-07-29T10:27:22Z</time>
      </trkpt>
      <trkpt lat="42.77347" lon="-0.36098">
        <time>2022-07-29T10:27:23Z</time>
      </trkpt>
      <trkpt lat="42.77348" lon="-0.36103">
        <time>2022-07-29T10:27:24Z</time>
      </trkpt>
      <trkpt lat="42.77351" lon="-0.36106">
        <time>2022-07-29T10:27:25Z</time>
      </trkpt>
      <trkpt lat="42.77354" lon="-0.36108">
        <time>2022-07-29T10:27:26Z</time>
      </trkpt>
      <trkpt lat="42.77357" lon="-0.36109">
        <time>2022-07-29T10:27:27Z</time>
      </trkpt>
      <trkpt lat="42.7736" lon="-0.36108">
        <time>2022-07-29T10:27:28Z</time>
      </trkpt>
      <trkpt lat="42.77363" lon="-0.36108">
        <time>2022-07-29T10:27:29Z</time>
      </trkpt>
      <trkpt lat="42.77365" lon="-0.36107">
        <time>2022-07-29T10:27:30Z</time>
      </trkpt>
      <trkpt lat="42.77368" lon="-0.36106">
        <time>2022-07-29T10:27:31Z</time>
      </trkpt>
      <trkpt lat="42.7737" lon="-0.36105">
        <time>2022-07-29T10:27:32Z</time>
      </trkpt>
      <trkpt lat="42.77372" lon="-0.36105">
        <time>2022-07-29T10:27:33Z</time>
      </trkpt>
      <trkpt lat="42.77375" lon="-0.36103">
        <time>2022-07-29T10:27:34Z</time>
      </trkpt>
      <trkpt lat="42.77377" lon="-0.36098">
        <time>2022-07-29T10:27:35Z</time>
      </trkpt>
      <trkpt lat="42.77377" lon="-0.3609">
        <time>2022-07-29T10:27:36Z</time>
      </trkpt>
      <trkpt lat="42.77376" lon="-0.36083">
        <time>2022-07-29T10:27:37Z</time>
      </trkpt>
      <trkpt lat="42.77376" lon="-0.36076">
        <time>2022-07-29T10:27:38Z</time>
      </trkpt>
      <trkpt lat="42.77377" lon="-0.3607">
        <time>2022-07-29T10:27:39Z</time>
      </trkpt>
      <trkpt lat="42.77379" lon="-0.36065">
        <time>2022-07-29T10:27:40Z</time>
      </trkpt>
      <trkpt lat="42.77381" lon="-0.36062">
        <time>2022-07-29T10:27:41Z</time>
      </trkpt>
      <trkpt lat="42.77383" lon="-0.3606">
        <time>2022-07-29T10:27:42Z</time>
      </trkpt>
      <trkpt lat="42.77384" lon="-0.36059">
        <time>2022-07-29T10:27:43Z</time>
      </trkpt>
      <trkpt lat="42.77386" lon="-0.36057">
        <time>2022-07-29T10:27:44Z</time>
      </trkpt>
      <trkpt lat="42.77388" lon="-0.36057">
        <time>2022-07-29T10:27:45Z</time>
      </trkpt>
      <trkpt lat="42.7739" lon="-0.36056">
        <time>2022-07-29T10:27:46Z</time>
      </trkpt>
      <trkpt lat="42.77391" lon="-0.36056">
        <time>2022-07-29T10:27:47Z</time>
      </trkpt>
      <trkpt lat="42.77392" lon="-0.36055">
        <time>2022-07-29T10:27:48Z</time>
      </trkpt>
      <trkpt lat="42.77394" lon="-0.36055">
        <time>2022-07-29T10:27:49Z</time>
      </trkpt>
      <trkpt lat="42.77396" lon="-0.36055">
        <time>2022-07-29T10:27:50Z</time>
      </trkpt>
      <trkpt lat="42.774" lon="-0.36056">
        <time>2022-07-29T10:27:51Z</time>
      </trkpt>
      <trkpt lat="42.77403" lon="-0.36059">
        <time>2022-07-29T10:27:52Z</time>
      </trkpt>
      <trkpt lat="42.77406" lon="-0.36064">
        <time>2022-07-29T10:27:53Z</time>
      </trkpt>
      <trkpt lat="42.77408" lon="-0.36068">
        <time>2022-07-29T10:27:54Z</time>
      </trkpt>
      <trkpt lat="42.77409" lon="-0.36074">
        <time>2022-07-29T10:27:55Z</time>
      </trkpt>
      <trkpt lat="42.77411" lon="-0.3608">
        <time>2022-07-29T10:27:56Z</time>
      </trkpt>
      <trkpt lat="42.77413" lon="-0.36086">
        <time>2022-07-29T10:27:57Z</time>
      </trkpt>
      <trkpt lat="42.77415" lon="-0.36093">
        <time>2022-07-29T10:27:58Z</time>
      </trkpt>
      <trkpt lat="42.77417" lon="-0.361">
        <time>2022-07-29T10:27:59Z</time>
      </trkpt>
      <trkpt lat="42.7742" lon="-0.36107">
        <time>2022-07-29T10:28:00Z</time>
      </trkpt>
      <trkpt lat="42.77422" lon="-0.36114">
        <time>2022-07-29T10:28:01Z</time>
      </trkpt>
      <trkpt lat="42.77424" lon="-0.36121">
        <time>2022-07-29T10:28:02Z</time>
      </trkpt>
      <trkpt lat="42.77427" lon="-0.36128">
        <time>2022-07-29T10:28:03Z</time>
      </trkpt>
      <trkpt lat="42.77429" lon="-0.36136">
        <time>2022-07-29T10:28:04Z</time>
      </trkpt>
      <trkpt lat="42.77432" lon="-0.36144">
        <time>2022-07-29T10:28:05Z</time>
      </trkpt>
      <trkpt lat="42.77434" lon="-0.36152">
        <time>2022-07-29T10:28:06Z</time>
      </trkpt>
      <trkpt lat="42.77437" lon="-0.3616">
        <time>2022-07-29T10:28:07Z</time>
      </trkpt>
      <trkpt lat="42.77439" lon="-0.36168">
        <time>2022-07-29T10:28:08Z</time>
      </trkpt>
      <trkpt lat="42.77442" lon="-0.36176">
        <time>2022-07-29T10:28:09Z</time>
      </trkpt>
      <trkpt lat="42.77444" lon="-0.36184">
        <time>2022-07-29T10:28:10Z</time>
      </trkpt>
      <trkpt lat="42.77446" lon="-0.36193">
        <time>2022-07-29T10:28:11Z</time>
      </trkpt>
      <trkpt lat="42.77448" lon="-0.36201">
        <time>2022-07-29T10:28:12Z</time>
      </trkpt>
      <trkpt lat="42.77449" lon="-0.3621">
        <time>2022-07-29T10:28:13Z</time>
      </trkpt>
      <trkpt lat="42.77451" lon="-0.36218">
        <time>2022-07-29T10:28:14Z</time>
      </trkpt>
      <trkpt lat="42.77452" lon="-0.36228">
        <time>2022-07-29T10:28:15Z</time>
      </trkpt>
      <trkpt lat="42.77451" lon="-0.36237">
        <time>2022-07-29T10:28:16Z</time>
      </trkpt>
      <trkpt lat="42.7745" lon="-0.36246">
        <time>2022-07-29T10:28:17Z</time>
      </trkpt>
      <trkpt lat="42.77449" lon="-0.36255">
        <time>2022-07-29T10:28:18Z</time>
      </trkpt>
      <trkpt lat="42.77445" lon="-0.36265">
        <time>2022-07-29T10:28:19Z</time>
      </trkpt>
      <trkpt lat="42.77441" lon="-0.36274">
        <time>2022-07-29T10:28:20Z</time>
      </trkpt>
      <trkpt lat="42.77436" lon="-0.36283">
        <time>2022-07-29T10:28:21Z</time>
      </trkpt>
      <trkpt lat="42.77432" lon="-0.36292">
        <time>2022-07-29T10:28:22Z</time>
      </trkpt>
      <trkpt lat="42.77427" lon="-0.363">
        <time>2022-07-29T10:28:23Z</time>
      </trkpt>
      <trkpt lat="42.77423" lon="-0.36308">
        <time>2022-07-29T10:28:24Z</time>
      </trkpt>
      <trkpt lat="42.77419" lon="-0.36316">
        <time>2022-07-29T10:28:25Z</time>
      </trkpt>
      <trkpt lat="42.77416" lon="-0.36323">
        <time>2022-07-29T10:28:26Z</time>
      </trkpt>
      <trkpt lat="42.77412" lon="-0.36331">
        <time>2022-07-29T10:28:27Z</time>
      </trkpt>
      <trkpt lat="42.77409" lon="-0.3634">
        <time>2022-07-29T10:28:28Z</time>
      </trkpt>
      <trkpt lat="42.77405" lon="-0.3635">
        <time>2022-07-29T10:28:29Z</time>
      </trkpt>
      <trkpt lat="42.77404" lon="-0.36362">
        <time>2022-07-29T10:28:30Z</time>
      </trkpt>
      <trkpt lat="42.77404" lon="-0.36375">
        <time>2022-07-29T10:28:31Z</time>
      </trkpt>
      <trkpt lat="42.77405" lon="-0.36388">
        <time>2022-07-29T10:28:32Z</time>
      </trkpt>
      <trkpt lat="42.77408" lon="-0.36402">
        <time>2022-07-29T10:28:33Z</time>
      </trkpt>
      <trkpt lat="42.77411" lon="-0.36415">
        <time>2022-07-29T10:28:34Z</time>
      </trkpt>
      <trkpt lat="42.77415" lon="-0.36427">
        <time>2022-07-29T10:28:35Z</time>
      </trkpt>
      <trkpt lat="42.77421" lon="-0.36438">
        <time>2022-07-29T10:28:36Z</time>
      </trkpt>
      <trkpt lat="42.77427" lon="-0.36449">
        <time>2022-07-29T10:28:37Z</time>
      </trkpt>
      <trkpt lat="42.77432" lon="-0.36459">
        <time>2022-07-29T10:28:38Z</time>
      </trkpt>
      <trkpt lat="42.77437" lon="-0.36468">
        <time>2022-07-29T10:28:39Z</time>
      </trkpt>
      <trkpt lat="42.77442" lon="-0.36476">
        <time>2022-07-29T10:28:40Z</time>
      </trkpt>
      <trkpt lat="42.77446" lon="-0.36483">
        <time>2022-07-29T10:28:41Z</time>
      </trkpt>
      <trkpt lat="42.7745" lon="-0.36488">
        <time>2022-07-29T10:28:42Z</time>
      </trkpt>
      <trkpt lat="42.77452" lon="-0.36493">
        <time>2022-07-29T10:28:43Z</time>
      </trkpt>
      <trkpt lat="42.77453" lon="-0.36497">
        <time>2022-07-29T10:28:44Z</time>
      </trkpt>
      <trkpt lat="42.7745" lon="-0.36499">
        <time>2022-07-29T10:28:45Z</time>
      </trkpt>
      <trkpt lat="42.77447" lon="-0.36499">
        <time>2022-07-29T10:28:46Z</time>
      </trkpt>
      <trkpt lat="42.77445" lon="-0.36497">
        <time>2022-07-29T10:28:47Z</time>
      </trkpt>
      <trkpt lat="42.77444" lon="-0.36494">
        <time>2022-07-29T10:28:48Z</time>
      </trkpt>
      <trkpt lat="42.77443" lon="-0.36489">
        <time>2022-07-29T10:28:49Z</time>
      </trkpt>
      <trkpt lat="42.7744" lon="-0.3648">
        <time>2022-07-29T10:28:50Z</time>
      </trkpt>
      <trkpt lat="42.77436" lon="-0.36471">
        <time>2022-07-29T10:28:51Z</time>
      </trkpt>
      <trkpt lat="42.7743" lon="-0.36461">
        <time>2022-07-29T10:28:52Z</time>
      </trkpt>
      <trkpt lat="42.77424" lon="-0.3645">
        <time>2022-07-29T10:28:53Z</time>
      </trkpt>
      <trkpt lat="42.77419" lon="-0.36439">
        <time>2022-07-29T10:28:54Z</time>
      </trkpt>
      <trkpt lat="42.77414" lon="-0.36427">
        <time>2022-07-29T10:28:55Z</time>
      </trkpt>
      <trkpt lat="42.77409" lon="-0.36415">
        <time>2022-07-29T10:28:56Z</time>
      </trkpt>
      <trkpt lat="42.77406" lon="-0.36405">
        <time>2022-07-29T10:28:57Z</time>
      </trkpt>
      <trkpt lat="42.77402" lon="-0.36394">
        <time>2022-07-29T10:28:58Z</time>
      </trkpt>
      <trkpt lat="42.77398" lon="-0.36385">
        <time>2022-07-29T10:28:59Z</time>
      </trkpt>
      <trkpt lat="42.77393" lon="-0.36377">
        <time>2022-07-29T10:29:00Z</time>
      </trkpt>
      <trkpt lat="42.77388" lon="-0.3637">
        <time>2022-07-29T10:29:01Z</time>
      </trkpt>
      <trkpt lat="42.77384" lon="-0.36363">
        <time>2022-07-29T10:29:02Z</time>
      </trkpt>
      <trkpt lat="42.77382" lon="-0.36355">
        <time>2022-07-29T10:29:03Z</time>
      </trkpt>
      <trkpt lat="42.77383" lon="-0.36348">
        <time>2022-07-29T10:29:04Z</time>
      </trkpt>
      <trkpt lat="42.77385" lon="-0.36342">
        <time>2022-07-29T10:29:05Z</time>
      </trkpt>
      <trkpt lat="42.77391" lon="-0.36337">
        <time>2022-07-29T10:29:06Z</time>
      </trkpt>
      <trkpt lat="42.77397" lon="-0.36331">
        <time>2022-07-29T10:29:07Z</time>
      </trkpt>
      <trkpt lat="42.77404" lon="-0.36326">
        <time>2022-07-29T10:29:08Z</time>
      </trkpt>
      <trkpt lat="42.7741" lon="-0.3632">
        <time>2022-07-29T10:29:09Z</time>
      </trkpt>
      <trkpt lat="42.77415" lon="-0.36315">
        <time>2022-07-29T10:29:10Z</time>
      </trkpt>
      <trkpt lat="42.77419" lon="-0.3631">
        <time>2022-07-29T10:29:11Z</time>
      </trkpt>
      <trkpt lat="42.77422" lon="-0.36305">
        <time>2022-07-29T10:29:12Z</time>
      </trkpt>
      <trkpt lat="42.77425" lon="-0.36301">
        <time>2022-07-29T10:29:13Z</time>
      </trkpt>
      <trkpt lat="42.77428" lon="-0.36297">
        <time>2022-07-29T10:29:14Z</time>
      </trkpt>
      <trkpt lat="42.77431" lon="-0.36295">
        <time>2022-07-29T10:29:15Z</time>
      </trkpt>
      <trkpt lat="42.77435" lon="-0.36295">
        <time>2022-07-29T10:29:16Z</time>
      </trkpt>
      <trkpt lat="42.77439" lon="-0.36296">
        <time>2022-07-29T10:29:17Z</time>
      </trkpt>
      <trkpt lat="42.77441" lon="-0.36297">
        <time>2022-07-29T10:29:18Z</time>
      </trkpt>
      <trkpt lat="42.77444" lon="-0.36297">
        <time>2022-07-29T10:29:19Z</time>
      </trkpt>
      <trkpt lat="42.77445" lon="-0.36298">
        <time>2022-07-29T10:29:20Z</time>
      </trkpt>
      <trkpt lat="42.77444" lon="-0.36301">
        <time>2022-07-29T10:29:40Z</time>
      </trkpt>
      <trkpt lat="42.77444" lon="-0.36302">
        <time>2022-07-29T10:29:41Z</time>
      </trkpt>
      <trkpt lat="42.77445" lon="-0.36304">
        <time>2022-07-29T10:29:42Z</time>
      </trkpt>
      <trkpt lat="42.77446" lon="-0.36309">
        <time>2022-07-29T10:29:43Z</time>
      </trkpt>
      <trkpt lat="42.77448" lon="-0.36313">
        <time>2022-07-29T10:29:44Z</time>
      </trkpt>
      <trkpt lat="42.77451" lon="-0.36317">
        <time>2022-07-29T10:29:45Z</time>
      </trkpt>
      <trkpt lat="42.77454" lon="-0.36319">
        <time>2022-07-29T10:29:46Z</time>
      </trkpt>
      <trkpt lat="42.77456" lon="-0.36321">
        <time>2022-07-29T10:29:47Z</time>
      </trkpt>
      <trkpt lat="42.77458" lon="-0.36323">
        <time>2022-07-29T10:29:48Z</time>
      </trkpt>
      <trkpt lat="42.77458" lon="-0.36326">
        <time>2022-07-29T10:29:49Z</time>
      </trkpt>
      <trkpt lat="42.77458" lon="-0.36328">
        <time>2022-07-29T10:29:50Z</time>
      </trkpt>
      <trkpt lat="42.77452" lon="-0.36312">
        <time>2022-07-30T08:38:41Z</time>
      </trkpt>
      <trkpt lat="42.77448" lon="-0.3631">
        <time>2022-07-30T08:38:43Z</time>
      </trkpt>
      <trkpt lat="42.77447" lon="-0.36309">
        <time>2022-07-30T08:38:43Z</time>
      </trkpt>
      <trkpt lat="42.77445" lon="-0.36306">
        <time>2022-07-30T08:38:44Z</time>
      </trkpt>
      <trkpt lat="42.77442" lon="-0.36304">
        <time>2022-07-30T08:38:45Z</time>
      </trkpt>
      <trkpt lat="42.77439" lon="-0.36302">
        <time>2022-07-30T08:38:46Z</time>
      </trkpt>
      <trkpt lat="42.77436" lon="-0.36302">
        <time>2022-07-30T08:38:47Z</time>
      </trkpt>
      <trkpt lat="42.77432" lon="-0.36304">
        <time>2022-07-30T08:38:48Z</time>
      </trkpt>
      <trkpt lat="42.77426" lon="-0.36308">
        <time>2022-07-30T08:38:49Z</time>
      </trkpt>
      <trkpt lat="42.77422" lon="-0.36314">
        <time>2022-07-30T08:38:50Z</time>
      </trkpt>
      <trkpt lat="42.77418" lon="-0.36321">
        <time>2022-07-30T08:38:51Z</time>
      </trkpt>
      <trkpt lat="42.77415" lon="-0.36328">
        <time>2022-07-30T08:38:52Z</time>
      </trkpt>
      <trkpt lat="42.77411" lon="-0.36336">
        <time>2022-07-30T08:38:53Z</time>
      </trkpt>
      <trkpt lat="42.77409" lon="-0.36343">
        <time>2022-07-30T08:38:54Z</time>
      </trkpt>
      <trkpt lat="42.77406" lon="-0.3635">
        <time>2022-07-30T08:38:55Z</time>
      </trkpt>
      <trkpt lat="42.77403" lon="-0.36358">
        <time>2022-07-30T08:38:56Z</time>
      </trkpt>
      <trkpt lat="42.774" lon="-0.36364">
        <time>2022-07-30T08:38:57Z</time>
      </trkpt>
      <trkpt lat="42.77395" lon="-0.36368">
        <time>2022-07-30T08:38:58Z</time>
      </trkpt>
      <trkpt lat="42.77389" lon="-0.36368">
        <time>2022-07-30T08:38:59Z</time>
      </trkpt>
      <trkpt lat="42.77384" lon="-0.36364">
        <time>2022-07-30T08:39:00Z</time>
      </trkpt>
      <trkpt lat="42.7738" lon="-0.36356">
        <time>2022-07-30T08:39:01Z</time>
      </trkpt>
      <trkpt lat="42.77378" lon="-0.36346">
        <time>2022-07-30T08:39:02Z</time>
      </trkpt>
      <trkpt lat="42.77375" lon="-0.36335">
        <time>2022-07-30T08:39:03Z</time>
      </trkpt>
      <trkpt lat="42.77372" lon="-0.36325">
        <time>2022-07-30T08:39:04Z</time>
      </trkpt>
      <trkpt lat="42.77368" lon="-0.36313">
        <time>2022-07-30T08:39:05Z</time>
      </trkpt>
      <trkpt lat="42.77362" lon="-0.36301">
        <time>2022-07-30T08:39:06Z</time>
      </trkpt>
      <trkpt lat="42.77357" lon="-0.36289">
        <time>2022-07-30T08:39:07Z</time>
      </trkpt>
      <trkpt lat="42.7735" lon="-0.36277">
        <time>2022-07-30T08:39:08Z</time>
      </trkpt>
      <trkpt lat="42.77344" lon="-0.36263">
        <time>2022-07-30T08:39:09Z</time>
      </trkpt>
      <trkpt lat="42.77337" lon="-0.3625">
        <time>2022-07-30T08:39:10Z</time>
      </trkpt>
      <trkpt lat="42.7733" lon="-0.36238">
        <time>2022-07-30T08:39:11Z</time>
      </trkpt>
      <trkpt lat="42.77324" lon="-0.36227">
        <time>2022-07-30T08:39:12Z</time>
      </trkpt>
      <trkpt lat="42.77319" lon="-0.36215">
        <time>2022-07-30T08:39:13Z</time>
      </trkpt>
      <trkpt lat="42.77313" lon="-0.36204">
        <time>2022-07-30T08:39:14Z</time>
      </trkpt>
      <trkpt lat="42.77307" lon="-0.36193">
        <time>2022-07-30T08:39:15Z</time>
      </trkpt>
      <trkpt lat="42.77302" lon="-0.36183">
        <time>2022-07-30T08:39:16Z</time>
      </trkpt>
      <trkpt lat="42.77297" lon="-0.36172">
        <time>2022-07-30T08:39:17Z</time>
      </trkpt>
      <trkpt lat="42.77292" lon="-0.3616">
        <time>2022-07-30T08:39:18Z</time>
      </trkpt>
      <trkpt lat="42.77288" lon="-0.36149">
        <time>2022-07-30T08:39:19Z</time>
      </trkpt>
      <trkpt lat="42.77285" lon="-0.36136">
        <time>2022-07-30T08:39:20Z</time>
      </trkpt>
      <trkpt lat="42.77282" lon="-0.36122">
        <time>2022-07-30T08:39:21Z</time>
      </trkpt>
      <trkpt lat="42.77282" lon="-0.36109">
        <time>2022-07-30T08:39:22Z</time>
      </trkpt>
      <trkpt lat="42.77282" lon="-0.36094">
        <time>2022-07-30T08:39:23Z</time>
      </trkpt>
      <trkpt lat="42.77284" lon="-0.36081">
        <time>2022-07-30T08:39:24Z</time>
      </trkpt>
      <trkpt lat="42.77285" lon="-0.36067">
        <time>2022-07-30T08:39:25Z</time>
      </trkpt>
      <trkpt lat="42.77285" lon="-0.36055">
        <time>2022-07-30T08:39:26Z</time>
      </trkpt>
      <trkpt lat="42.77283" lon="-0.36043">
        <time>2022-07-30T08:39:27Z</time>
      </trkpt>
      <trkpt lat="42.77281" lon="-0.36031">
        <time>2022-07-30T08:39:28Z</time>
      </trkpt>
      <trkpt lat="42.77278" lon="-0.36021">
        <time>2022-07-30T08:39:29Z</time>
      </trkpt>
      <trkpt lat="42.77275" lon="-0.36011">
        <time>2022-07-30T08:39:30Z</time>
      </trkpt>
      <trkpt lat="42.77271" lon="-0.36001">
        <time>2022-07-30T08:39:31Z</time>
      </trkpt>
      <trkpt lat="42.77267" lon="-0.3599">
        <time>2022-07-30T08:39:32Z</time>
      </trkpt>
      <trkpt lat="42.77263" lon="-0.35979">
        <time>2022-07-30T08:39:33Z</time>
      </trkpt>
      <trkpt lat="42.7726" lon="-0.35968">
        <time>2022-07-30T08:39:34Z</time>
      </trkpt>
      <trkpt lat="42.77257" lon="-0.35956">
        <time>2022-07-30T08:39:35Z</time>
      </trkpt>
      <trkpt lat="42.77255" lon="-0.35944">
        <time>2022-07-30T08:39:36Z</time>
      </trkpt>
      <trkpt lat="42.77255" lon="-0.35931">
        <time>2022-07-30T08:39:37Z</time>
      </trkpt>
      <trkpt lat="42.77255" lon="-0.35918">
        <time>2022-07-30T08:39:38Z</time>
      </trkpt>
      <trkpt lat="42.77255" lon="-0.35905">
        <time>2022-07-30T08:39:39Z</time>
      </trkpt>
      <trkpt lat="42.77255" lon="-0.35893">
        <time>2022-07-30T08:39:40Z</time>
      </trkpt>
      <trkpt lat="42.77255" lon="-0.35881">
        <time>2022-07-30T08:39:41Z</time>
      </trkpt>
      <trkpt lat="42.77255" lon="-0.35869">
        <time>2022-07-30T08:39:42Z</time>
      </trkpt>
      <trkpt lat="42.77253" lon="-0.35856">
        <time>2022-07-30T08:39:43Z</time>
      </trkpt>
      <trkpt lat="42.77252" lon="-0.35844">
        <time>2022-07-30T08:39:44Z</time>
      </trkpt>
      <trkpt lat="42.7725" lon="-0.35831">
        <time>2022-07-30T08:39:45Z</time>
      </trkpt>
      <trkpt lat="42.77247" lon="-0.35818">
        <time>2022-07-30T08:39:46Z</time>
      </trkpt>
      <trkpt lat="42.77243" lon="-0.35806">
        <time>2022-07-30T08:39:47Z</time>
      </trkpt>
      <trkpt lat="42.77239" lon="-0.35795">
        <time>2022-07-30T08:39:48Z</time>
      </trkpt>
      <trkpt lat="42.77235" lon="-0.35785">
        <time>2022-07-30T08:39:49Z</time>
      </trkpt>
      <trkpt lat="42.77233" lon="-0.35774">
        <time>2022-07-30T08:39:50Z</time>
      </trkpt>
      <trkpt lat="42.77232" lon="-0.35762">
        <time>2022-07-30T08:39:51Z</time>
      </trkpt>
      <trkpt lat="42.77233" lon="-0.3575">
        <time>2022-07-30T08:39:52Z</time>
      </trkpt>
      <trkpt lat="42.77235" lon="-0.35739">
        <time>2022-07-30T08:39:53Z</time>
      </trkpt>
      <trkpt lat="42.77239" lon="-0.35727">
        <time>2022-07-30T08:39:54Z</time>
      </trkpt>
      <trkpt lat="42.77242" lon="-0.35717">
        <time>2022-07-30T08:39:55Z</time>
      </trkpt>
      <trkpt lat="42.77245" lon="-0.35702">
        <time>2022-07-30T08:39:56Z</time>
      </trkpt>
      <trkpt lat="42.77249" lon="-0.35689">
        <time>2022-07-30T08:39:57Z</time>
      </trkpt>
      <trkpt lat="42.77252" lon="-0.35676">
        <time>2022-07-30T08:39:58Z</time>
      </trkpt>
      <trkpt lat="42.77256" lon="-0.35662">
        <time>2022-07-30T08:39:59Z</time>
      </trkpt>
      <trkpt lat="42.7726" lon="-0.35649">
        <time>2022-07-30T08:40:00Z</time>
      </trkpt>
      <trkpt lat="42.77264" lon="-0.35638">
        <time>2022-07-30T08:40:01Z</time>
      </trkpt>
      <trkpt lat="42.77269" lon="-0.35626">
        <time>2022-07-30T08:40:02Z</time>
      </trkpt>
      <trkpt lat="42.77275" lon="-0.35617">
        <time>2022-07-30T08:40:03Z</time>
      </trkpt>
      <trkpt lat="42.77281" lon="-0.35609">
        <time>2022-07-30T08:40:04Z</time>
      </trkpt>
      <trkpt lat="42.77289" lon="-0.35602">
        <time>2022-07-30T08:40:05Z</time>
      </trkpt>
      <trkpt lat="42.77297" lon="-0.35595">
        <time>2022-07-30T08:40:06Z</time>
      </trkpt>
      <trkpt lat="42.77305" lon="-0.35586">
        <time>2022-07-30T08:40:07Z</time>
      </trkpt>
      <trkpt lat="42.77312" lon="-0.35578">
        <time>2022-07-30T08:40:08Z</time>
      </trkpt>
      <trkpt lat="42.77317" lon="-0.35567">
        <time>2022-07-30T08:40:09Z</time>
      </trkpt>
      <trkpt lat="42.77321" lon="-0.35556">
        <time>2022-07-30T08:40:10Z</time>
      </trkpt>
      <trkpt lat="42.77323" lon="-0.35543">
        <time>2022-07-30T08:40:11Z</time>
      </trkpt>
      <trkpt lat="42.77326" lon="-0.35532">
        <time>2022-07-30T08:40:12Z</time>
      </trkpt>
      <trkpt lat="42.7733" lon="-0.35521">
        <time>2022-07-30T08:40:13Z</time>
      </trkpt>
      <trkpt lat="42.77336" lon="-0.35513">
        <time>2022-07-30T08:40:14Z</time>
      </trkpt>
      <trkpt lat="42.77343" lon="-0.35506">
        <time>2022-07-30T08:40:15Z</time>
      </trkpt>
      <trkpt lat="42.77351" lon="-0.355">
        <time>2022-07-30T08:40:16Z</time>
      </trkpt>
      <trkpt lat="42.7736" lon="-0.35494">
        <time>2022-07-30T08:40:17Z</time>
      </trkpt>
      <trkpt lat="42.77367" lon="-0.35485">
        <time>2022-07-30T08:40:18Z</time>
      </trkpt>
      <trkpt lat="42.77373" lon="-0.35476">
        <time>2022-07-30T08:40:19Z</time>
      </trkpt>
      <trkpt lat="42.77378" lon="-0.35465">
        <time>2022-07-30T08:40:20Z</time>
      </trkpt>
      <trkpt lat="42.77383" lon="-0.35452">
        <time>2022-07-30T08:40:21Z</time>
      </trkpt>
      <trkpt lat="42.77388" lon="-0.35438">
        <time>2022-07-30T08:40:22Z</time>
      </trkpt>
      <trkpt lat="42.77393" lon="-0.35424">
        <time>2022-07-30T08:40:23Z</time>
      </trkpt>
      <trkpt lat="42.77398" lon="-0.3541">
        <time>2022-07-30T08:40:24Z</time>
      </trkpt>
      <trkpt lat="42.77402" lon="-0.35397">
        <time>2022-07-30T08:40:25Z</time>
      </trkpt>
      <trkpt lat="42.77406" lon="-0.35384">
        <time>2022-07-30T08:40:26Z</time>
      </trkpt>
      <trkpt lat="42.77407" lon="-0.3537">
        <time>2022-07-30T08:40:27Z</time>
      </trkpt>
      <trkpt lat="42.77406" lon="-0.35357">
        <time>2022-07-30T08:40:28Z</time>
      </trkpt>
      <trkpt lat="42.77404" lon="-0.35343">
        <time>2022-07-30T08:40:29Z</time>
      </trkpt>
      <trkpt lat="42.77403" lon="-0.3533">
        <time>2022-07-30T08:40:30Z</time>
      </trkpt>
      <trkpt lat="42.77405" lon="-0.35318">
        <time>2022-07-30T08:40:31Z</time>
      </trkpt>
      <trkpt lat="42.77407" lon="-0.35306">
        <time>2022-07-30T08:40:32Z</time>
      </trkpt>
      <trkpt lat="42.7741" lon="-0.35293">
        <time>2022-07-30T08:40:33Z</time>
      </trkpt>
      <trkpt lat="42.77413" lon="-0.35281">
        <time>2022-07-30T08:40:34Z</time>
      </trkpt>
      <trkpt lat="42.77417" lon="-0.35269">
        <time>2022-07-30T08:40:35Z</time>
      </trkpt>
      <trkpt lat="42.77421" lon="-0.35257">
        <time>2022-07-30T08:40:36Z</time>
      </trkpt>
      <trkpt lat="42.77425" lon="-0.35244">
        <time>2022-07-30T08:40:37Z</time>
      </trkpt>
      <trkpt lat="42.7743" lon="-0.35231">
        <time>2022-07-30T08:40:38Z</time>
      </trkpt>
      <trkpt lat="42.77432" lon="-0.35218">
        <time>2022-07-30T08:40:39Z</time>
      </trkpt>
      <trkpt lat="42.77433" lon="-0.35204">
        <time>2022-07-30T08:40:40Z</time>
      </trkpt>
      <trkpt lat="42.77433" lon="-0.3519">
        <time>2022-07-30T08:40:41Z</time>
      </trkpt>
      <trkpt lat="42.77433" lon="-0.35175">
        <time>2022-07-30T08:40:42Z</time>
      </trkpt>
      <trkpt lat="42.77432" lon="-0.3516">
        <time>2022-07-30T08:40:43Z</time>
      </trkpt>
      <trkpt lat="42.77432" lon="-0.35146">
        <time>2022-07-30T08:40:44Z</time>
      </trkpt>
      <trkpt lat="42.77431" lon="-0.35131">
        <time>2022-07-30T08:40:45Z</time>
      </trkpt>
      <trkpt lat="42.77431" lon="-0.35118">
        <time>2022-07-30T08:40:46Z</time>
      </trkpt>
      <trkpt lat="42.77431" lon="-0.35105">
        <time>2022-07-30T08:40:47Z</time>
      </trkpt>
      <trkpt lat="42.77432" lon="-0.35093">
        <time>2022-07-30T08:40:48Z</time>
      </trkpt>
      <trkpt lat="42.77436" lon="-0.3508">
        <time>2022-07-30T08:40:49Z</time>
      </trkpt>
      <trkpt lat="42.7744" lon="-0.35069">
        <time>2022-07-30T08:40:50Z</time>
      </trkpt>
      <trkpt lat="42.77445" lon="-0.35057">
        <time>2022-07-30T08:40:51Z</time>
      </trkpt>
      <trkpt lat="42.77449" lon="-0.35045">
        <time>2022-07-30T08:40:52Z</time>
      </trkpt>
      <trkpt lat="42.77452" lon="-0.35033">
        <time>2022-07-30T08:40:53Z</time>
      </trkpt>
      <trkpt lat="42.77455" lon="-0.3502">
        <time>2022-07-30T08:40:54Z</time>
      </trkpt>
      <trkpt lat="42.77457" lon="-0.35008">
        <time>2022-07-30T08:40:55Z</time>
      </trkpt>
      <trkpt lat="42.77459" lon="-0.34996">
        <time>2022-07-30T08:40:56Z</time>
      </trkpt>
      <trkpt lat="42.77461" lon="-0.34985">
        <time>2022-07-30T08:40:57Z</time>
      </trkpt>
      <trkpt lat="42.77462" lon="-0.34975">
        <time>2022-07-30T08:40:58Z</time>
      </trkpt>
      <trkpt lat="42.77461" lon="-0.34967">
        <time>2022-07-30T08:40:59Z</time>
      </trkpt>
      <trkpt lat="42.77457" lon="-0.3496">
        <time>2022-07-30T08:41:00Z</time>
      </trkpt>
      <trkpt lat="42.77452" lon="-0.34955">
        <time>2022-07-30T08:41:01Z</time>
      </trkpt>
      <trkpt lat="42.77446" lon="-0.34953">
        <time>2022-07-30T08:41:02Z</time>
      </trkpt>
      <trkpt lat="42.77439" lon="-0.34956">
        <time>2022-07-30T08:41:03Z</time>
      </trkpt>
      <trkpt lat="42.77433" lon="-0.34961">
        <time>2022-07-30T08:41:04Z</time>
      </trkpt>
      <trkpt lat="42.77427" lon="-0.34969">
        <time>2022-07-30T08:41:05Z</time>
      </trkpt>
      <trkpt lat="42.77421" lon="-0.34979">
        <time>2022-07-30T08:41:06Z</time>
      </trkpt>
      <trkpt lat="42.77416" lon="-0.3499">
        <time>2022-07-30T08:41:07Z</time>
      </trkpt>
      <trkpt lat="42.7741" lon="-0.35001">
        <time>2022-07-30T08:41:08Z</time>
      </trkpt>
      <trkpt lat="42.77405" lon="-0.35011">
        <time>2022-07-30T08:41:09Z</time>
      </trkpt>
      <trkpt lat="42.77399" lon="-0.35021">
        <time>2022-07-30T08:41:10Z</time>
      </trkpt>
      <trkpt lat="42.77394" lon="-0.35032">
        <time>2022-07-30T08:41:11Z</time>
      </trkpt>
      <trkpt lat="42.77388" lon="-0.3504">
        <time>2022-07-30T08:41:12Z</time>
      </trkpt>
      <trkpt lat="42.77381" lon="-0.35047">
        <time>2022-07-30T08:41:13Z</time>
      </trkpt>
      <trkpt lat="42.77373" lon="-0.35052">
        <time>2022-07-30T08:41:14Z</time>
      </trkpt>
      <trkpt lat="42.77364" lon="-0.35055">
        <time>2022-07-30T08:41:15Z</time>
      </trkpt>
      <trkpt lat="42.77355" lon="-0.35055">
        <time>2022-07-30T08:41:16Z</time>
      </trkpt>
      <trkpt lat="42.77346" lon="-0.35054">
        <time>2022-07-30T08:41:17Z</time>
      </trkpt>
      <trkpt lat="42.77337" lon="-0.35049">
        <time>2022-07-30T08:41:18Z</time>
      </trkpt>
      <trkpt lat="42.77329" lon="-0.35044">
        <time>2022-07-30T08:41:19Z</time>
      </trkpt>
      <trkpt lat="42.7732" lon="-0.35037">
        <time>2022-07-30T08:41:20Z</time>
      </trkpt>
      <trkpt lat="42.77312" lon="-0.35029">
        <time>2022-07-30T08:41:21Z</time>
      </trkpt>
      <trkpt lat="42.77304" lon="-0.35018">
        <time>2022-07-30T08:41:22Z</time>
      </trkpt>
      <trkpt lat="42.77299" lon="-0.35006">
        <time>2022-07-30T08:41:23Z</time>
      </trkpt>
      <trkpt lat="42.77294" lon="-0.34992">
        <time>2022-07-30T08:41:24Z</time>
      </trkpt>
      <trkpt lat="42.77292" lon="-0.34978">
        <time>2022-07-30T08:41:25Z</time>
      </trkpt>
      <trkpt lat="42.77289" lon="-0.34963">
        <time>2022-07-30T08:41:26Z</time>
      </trkpt>
      <trkpt lat="42.77287" lon="-0.34949">
        <time>2022-07-30T08:41:27Z</time>
      </trkpt>
      <trkpt lat="42.77285" lon="-0.34936">
        <time>2022-07-30T08:41:28Z</time>
      </trkpt>
      <trkpt lat="42.77284" lon="-0.34924">
        <time>2022-07-30T08:41:29Z</time>
      </trkpt>
      <trkpt lat="42.77282" lon="-0.34915">
        <time>2022-07-30T08:41:30Z</time>
      </trkpt>
      <trkpt lat="42.77279" lon="-0.34907">
        <time>2022-07-30T08:41:31Z</time>
      </trkpt>
      <trkpt lat="42.77274" lon="-0.34901">
        <time>2022-07-30T08:41:32Z</time>
      </trkpt>
      <trkpt lat="42.77268" lon="-0.34898">
        <time>2022-07-30T08:41:33Z</time>
      </trkpt>
      <trkpt lat="42.7726" lon="-0.34899">
        <time>2022-07-30T08:41:34Z</time>
      </trkpt>
      <trkpt lat="42.77252" lon="-0.34904">
        <time>2022-07-30T08:41:35Z</time>
      </trkpt>
      <trkpt lat="42.77245" lon="-0.3491">
        <time>2022-07-30T08:41:36Z</time>
      </trkpt>
      <trkpt lat="42.77239" lon="-0.34917">
        <time>2022-07-30T08:41:37Z</time>
      </trkpt>
      <trkpt lat="42.77232" lon="-0.34923">
        <time>2022-07-30T08:41:38Z</time>
      </trkpt>
      <trkpt lat="42.77224" lon="-0.34926">
        <time>2022-07-30T08:41:39Z</time>
      </trkpt>
      <trkpt lat="42.77215" lon="-0.34926">
        <time>2022-07-30T08:41:40Z</time>
      </trkpt>
      <trkpt lat="42.77206" lon="-0.34924">
        <time>2022-07-30T08:41:41Z</time>
      </trkpt>
      <trkpt lat="42.77198" lon="-0.3492">
        <time>2022-07-30T08:41:42Z</time>
      </trkpt>
      <trkpt lat="42.7719" lon="-0.34915">
        <time>2022-07-30T08:41:43Z</time>
      </trkpt>
      <trkpt lat="42.77183" lon="-0.34908">
        <time>2022-07-30T08:41:44Z</time>
      </trkpt>
      <trkpt lat="42.77178" lon="-0.349">
        <time>2022-07-30T08:41:45Z</time>
      </trkpt>
      <trkpt lat="42.77175" lon="-0.34889">
        <time>2022-07-30T08:41:46Z</time>
      </trkpt>
      <trkpt lat="42.77175" lon="-0.34878">
        <time>2022-07-30T08:41:47Z</time>
      </trkpt>
      <trkpt lat="42.77178" lon="-0.34867">
        <time>2022-07-30T08:41:48Z</time>
      </trkpt>
      <trkpt lat="42.77183" lon="-0.34857">
        <time>2022-07-30T08:41:49Z</time>
      </trkpt>
      <trkpt lat="42.77189" lon="-0.34846">
        <time>2022-07-30T08:41:50Z</time>
      </trkpt>
      <trkpt lat="42.77196" lon="-0.34836">
        <time>2022-07-30T08:41:51Z</time>
      </trkpt>
      <trkpt lat="42.77202" lon="-0.34826">
        <time>2022-07-30T08:41:52Z</time>
      </trkpt>
      <trkpt lat="42.7721" lon="-0.34818">
        <time>2022-07-30T08:41:53Z</time>
      </trkpt>
      <trkpt lat="42.77219" lon="-0.34813">
        <time>2022-07-30T08:41:54Z</time>
      </trkpt>
      <trkpt lat="42.77228" lon="-0.34808">
        <time>2022-07-30T08:41:55Z</time>
      </trkpt>
      <trkpt lat="42.77237" lon="-0.34805">
        <time>2022-07-30T08:41:56Z</time>
      </trkpt>
      <trkpt lat="42.77247" lon="-0.34803">
        <time>2022-07-30T08:41:57Z</time>
      </trkpt>
      <trkpt lat="42.77256" lon="-0.34801">
        <time>2022-07-30T08:41:58Z</time>
      </trkpt>
      <trkpt lat="42.77265" lon="-0.34799">
        <time>2022-07-30T08:41:59Z</time>
      </trkpt>
      <trkpt lat="42.77274" lon="-0.34797">
        <time>2022-07-30T08:42:00Z</time>
      </trkpt>
      <trkpt lat="42.7728" lon="-0.34794">
        <time>2022-07-30T08:42:01Z</time>
      </trkpt>
      <trkpt lat="42.77286" lon="-0.34788">
        <time>2022-07-30T08:42:02Z</time>
      </trkpt>
      <trkpt lat="42.77289" lon="-0.3478">
        <time>2022-07-30T08:42:03Z</time>
      </trkpt>
      <trkpt lat="42.77289" lon="-0.34771">
        <time>2022-07-30T08:42:04Z</time>
      </trkpt>
      <trkpt lat="42.77287" lon="-0.34763">
        <time>2022-07-30T08:42:05Z</time>
      </trkpt>
      <trkpt lat="42.77281" lon="-0.34756">
        <time>2022-07-30T08:42:06Z</time>
      </trkpt>
      <trkpt lat="42.77274" lon="-0.34751">
        <time>2022-07-30T08:42:07Z</time>
      </trkpt>
      <trkpt lat="42.77264" lon="-0.34746">
        <time>2022-07-30T08:42:08Z</time>
      </trkpt>
      <trkpt lat="42.77255" lon="-0.3474">
        <time>2022-07-30T08:42:09Z</time>
      </trkpt>
      <trkpt lat="42.77244" lon="-0.34735">
        <time>2022-07-30T08:42:10Z</time>
      </trkpt>
      <trkpt lat="42.77234" lon="-0.3473">
        <time>2022-07-30T08:42:11Z</time>
      </trkpt>
      <trkpt lat="42.77224" lon="-0.34724">
        <time>2022-07-30T08:42:12Z</time>
      </trkpt>
      <trkpt lat="42.77214" lon="-0.34719">
        <time>2022-07-30T08:42:13Z</time>
      </trkpt>
      <trkpt lat="42.77204" lon="-0.34714">
        <time>2022-07-30T08:42:14Z</time>
      </trkpt>
      <trkpt lat="42.77196" lon="-0.34709">
        <time>2022-07-30T08:42:15Z</time>
      </trkpt>
      <trkpt lat="42.77188" lon="-0.34706">
        <time>2022-07-30T08:42:16Z</time>
      </trkpt>
      <trkpt lat="42.7718" lon="-0.34702">
        <time>2022-07-30T08:42:17Z</time>
      </trkpt>
      <trkpt lat="42.77174" lon="-0.34698">
        <time>2022-07-30T08:42:18Z</time>
      </trkpt>
      <trkpt lat="42.77169" lon="-0.3469">
        <time>2022-07-30T08:42:19Z</time>
      </trkpt>
      <trkpt lat="42.77167" lon="-0.34682">
        <time>2022-07-30T08:42:20Z</time>
      </trkpt>
      <trkpt lat="42.77169" lon="-0.34673">
        <time>2022-07-30T08:42:21Z</time>
      </trkpt>
      <trkpt lat="42.77173" lon="-0.34667">
        <time>2022-07-30T08:42:22Z</time>
      </trkpt>
      <trkpt lat="42.77181" lon="-0.34663">
        <time>2022-07-30T08:42:23Z</time>
      </trkpt>
      <trkpt lat="42.7719" lon="-0.3466">
        <time>2022-07-30T08:42:24Z</time>
      </trkpt>
      <trkpt lat="42.77201" lon="-0.34657">
        <time>2022-07-30T08:42:25Z</time>
      </trkpt>
      <trkpt lat="42.77212" lon="-0.34653">
        <time>2022-07-30T08:42:26Z</time>
      </trkpt>
      <trkpt lat="42.77224" lon="-0.3465">
        <time>2022-07-30T08:42:27Z</time>
      </trkpt>
      <trkpt lat="42.77235" lon="-0.34647">
        <time>2022-07-30T08:42:28Z</time>
      </trkpt>
      <trkpt lat="42.77247" lon="-0.34644">
        <time>2022-07-30T08:42:29Z</time>
      </trkpt>
      <trkpt lat="42.77257" lon="-0.34642">
        <time>2022-07-30T08:42:30Z</time>
      </trkpt>
      <trkpt lat="42.77268" lon="-0.34639">
        <time>2022-07-30T08:42:31Z</time>
      </trkpt>
      <trkpt lat="42.77279" lon="-0.34636">
        <time>2022-07-30T08:42:32Z</time>
      </trkpt>
      <trkpt lat="42.7729" lon="-0.34633">
        <time>2022-07-30T08:42:33Z</time>
      </trkpt>
      <trkpt lat="42.773" lon="-0.3463">
        <time>2022-07-30T08:42:34Z</time>
      </trkpt>
      <trkpt lat="42.77308" lon="-0.34627">
        <time>2022-07-30T08:42:35Z</time>
      </trkpt>
      <trkpt lat="42.77317" lon="-0.34622">
        <time>2022-07-30T08:42:36Z</time>
      </trkpt>
      <trkpt lat="42.77323" lon="-0.34616">
        <time>2022-07-30T08:42:37Z</time>
      </trkpt>
      <trkpt lat="42.77327" lon="-0.34606">
        <time>2022-07-30T08:42:38Z</time>
      </trkpt>
      <trkpt lat="42.7733" lon="-0.34594">
        <time>2022-07-30T08:42:39Z</time>
      </trkpt>
      <trkpt lat="42.77329" lon="-0.34582">
        <time>2022-07-30T08:42:40Z</time>
      </trkpt>
      <trkpt lat="42.77326" lon="-0.34569">
        <time>2022-07-30T08:42:41Z</time>
      </trkpt>
      <trkpt lat="42.77319" lon="-0.34558">
        <time>2022-07-30T08:42:42Z</time>
      </trkpt>
      <trkpt lat="42.77312" lon="-0.34548">
        <time>2022-07-30T08:42:43Z</time>
      </trkpt>
      <trkpt lat="42.77303" lon="-0.34539">
        <time>2022-07-30T08:42:44Z</time>
      </trkpt>
      <trkpt lat="42.77295" lon="-0.3453">
        <time>2022-07-30T08:42:45Z</time>
      </trkpt>
      <trkpt lat="42.77288" lon="-0.34522">
        <time>2022-07-30T08:42:46Z</time>
      </trkpt>
      <trkpt lat="42.77282" lon="-0.34512">
        <time>2022-07-30T08:42:47Z</time>
      </trkpt>
      <trkpt lat="42.77277" lon="-0.34501">
        <time>2022-07-30T08:42:48Z</time>
      </trkpt>
      <trkpt lat="42.77274" lon="-0.34488">
        <time>2022-07-30T08:42:49Z</time>
      </trkpt>
      <trkpt lat="42.77272" lon="-0.34476">
        <time>2022-07-30T08:42:50Z</time>
      </trkpt>
      <trkpt lat="42.77269" lon="-0.34462">
        <time>2022-07-30T08:42:51Z</time>
      </trkpt>
      <trkpt lat="42.77266" lon="-0.34448">
        <time>2022-07-30T08:42:52Z</time>
      </trkpt>
      <trkpt lat="42.77263" lon="-0.34435">
        <time>2022-07-30T08:42:53Z</time>
      </trkpt>
      <trkpt lat="42.7726" lon="-0.34421">
        <time>2022-07-30T08:42:54Z</time>
      </trkpt>
      <trkpt lat="42.77258" lon="-0.34409">
        <time>2022-07-30T08:42:55Z</time>
      </trkpt>
      <trkpt lat="42.77258" lon="-0.34398">
        <time>2022-07-30T08:42:56Z</time>
      </trkpt>
      <trkpt lat="42.77259" lon="-0.34386">
        <time>2022-07-30T08:42:57Z</time>
      </trkpt>
      <trkpt lat="42.77262" lon="-0.34374">
        <time>2022-07-30T08:42:58Z</time>
      </trkpt>
      <trkpt lat="42.77266" lon="-0.34362">
        <time>2022-07-30T08:42:59Z</time>
      </trkpt>
      <trkpt lat="42.77271" lon="-0.34348">
        <time>2022-07-30T08:43:00Z</time>
      </trkpt>
      <trkpt lat="42.77274" lon="-0.34332">
        <time>2022-07-30T08:43:01Z</time>
      </trkpt>
      <trkpt lat="42.77276" lon="-0.34316">
        <time>2022-07-30T08:43:02Z</time>
      </trkpt>
      <trkpt lat="42.77278" lon="-0.34299">
        <time>2022-07-30T08:43:03Z</time>
      </trkpt>
      <trkpt lat="42.77279" lon="-0.34283">
        <time>2022-07-30T08:43:04Z</time>
      </trkpt>
      <trkpt lat="42.77281" lon="-0.34265">
        <time>2022-07-30T08:43:05Z</time>
      </trkpt>
      <trkpt lat="42.77282" lon="-0.34249">
        <time>2022-07-30T08:43:06Z</time>
      </trkpt>
      <trkpt lat="42.77283" lon="-0.34233">
        <time>2022-07-30T08:43:07Z</time>
      </trkpt>
      <trkpt lat="42.77285" lon="-0.34217">
        <time>2022-07-30T08:43:08Z</time>
      </trkpt>
      <trkpt lat="42.77287" lon="-0.34202">
        <time>2022-07-30T08:43:09Z</time>
      </trkpt>
      <trkpt lat="42.77289" lon="-0.34186">
        <time>2022-07-30T08:43:10Z</time>
      </trkpt>
      <trkpt lat="42.7729" lon="-0.34171">
        <time>2022-07-30T08:43:11Z</time>
      </trkpt>
      <trkpt lat="42.77291" lon="-0.34156">
        <time>2022-07-30T08:43:12Z</time>
      </trkpt>
      <trkpt lat="42.77293" lon="-0.34141">
        <time>2022-07-30T08:43:13Z</time>
      </trkpt>
      <trkpt lat="42.77294" lon="-0.34126">
        <time>2022-07-30T08:43:14Z</time>
      </trkpt>
      <trkpt lat="42.77294" lon="-0.34112">
        <time>2022-07-30T08:43:15Z</time>
      </trkpt>
      <trkpt lat="42.77295" lon="-0.34098">
        <time>2022-07-30T08:43:16Z</time>
      </trkpt>
      <trkpt lat="42.77294" lon="-0.34083">
        <time>2022-07-30T08:43:17Z</time>
      </trkpt>
      <trkpt lat="42.77293" lon="-0.34069">
        <time>2022-07-30T08:43:18Z</time>
      </trkpt>
      <trkpt lat="42.77292" lon="-0.34053">
        <time>2022-07-30T08:43:19Z</time>
      </trkpt>
      <trkpt lat="42.7729" lon="-0.34038">
        <time>2022-07-30T08:43:20Z</time>
      </trkpt>
      <trkpt lat="42.77288" lon="-0.34023">
        <time>2022-07-30T08:43:21Z</time>
      </trkpt>
      <trkpt lat="42.77287" lon="-0.34007">
        <time>2022-07-30T08:43:22Z</time>
      </trkpt>
      <trkpt lat="42.77285" lon="-0.33991">
        <time>2022-07-30T08:43:23Z</time>
      </trkpt>
      <trkpt lat="42.77284" lon="-0.33976">
        <time>2022-07-30T08:43:24Z</time>
      </trkpt>
      <trkpt lat="42.77283" lon="-0.3396">
        <time>2022-07-30T08:43:25Z</time>
      </trkpt>
      <trkpt lat="42.7728" lon="-0.33945">
        <time>2022-07-30T08:43:26Z</time>
      </trkpt>
      <trkpt lat="42.77278" lon="-0.33929">
        <time>2022-07-30T08:43:27Z</time>
      </trkpt>
      <trkpt lat="42.77276" lon="-0.33913">
        <time>2022-07-30T08:43:28Z</time>
      </trkpt>
      <trkpt lat="42.77274" lon="-0.33898">
        <time>2022-07-30T08:43:29Z</time>
      </trkpt>
      <trkpt lat="42.77272" lon="-0.33883">
        <time>2022-07-30T08:43:30Z</time>
      </trkpt>
      <trkpt lat="42.77271" lon="-0.33867">
        <time>2022-07-30T08:43:31Z</time>
      </trkpt>
      <trkpt lat="42.77272" lon="-0.33852">
        <time>2022-07-30T08:43:32Z</time>
      </trkpt>
      <trkpt lat="42.77273" lon="-0.33838">
        <time>2022-07-30T08:43:33Z</time>
      </trkpt>
      <trkpt lat="42.77276" lon="-0.33825">
        <time>2022-07-30T08:43:34Z</time>
      </trkpt>
      <trkpt lat="42.77279" lon="-0.33812">
        <time>2022-07-30T08:43:35Z</time>
      </trkpt>
      <trkpt lat="42.77281" lon="-0.338">
        <time>2022-07-30T08:43:36Z</time>
      </trkpt>
      <trkpt lat="42.77281" lon="-0.33788">
        <time>2022-07-30T08:43:37Z</time>
      </trkpt>
      <trkpt lat="42.7728" lon="-0.33776">
        <time>2022-07-30T08:43:38Z</time>
      </trkpt>
      <trkpt lat="42.7728" lon="-0.33764">
        <time>2022-07-30T08:43:39Z</time>
      </trkpt>
      <trkpt lat="42.77281" lon="-0.33752">
        <time>2022-07-30T08:43:40Z</time>
      </trkpt>
      <trkpt lat="42.77284" lon="-0.33739">
        <time>2022-07-30T08:43:41Z</time>
      </trkpt>
      <trkpt lat="42.77289" lon="-0.33726">
        <time>2022-07-30T08:43:42Z</time>
      </trkpt>
      <trkpt lat="42.77294" lon="-0.33714">
        <time>2022-07-30T08:43:43Z</time>
      </trkpt>
      <trkpt lat="42.773" lon="-0.33702">
        <time>2022-07-30T08:43:44Z</time>
      </trkpt>
      <trkpt lat="42.77307" lon="-0.3369">
        <time>2022-07-30T08:43:45Z</time>
      </trkpt>
      <trkpt lat="42.77313" lon="-0.33678">
        <time>2022-07-30T08:43:46Z</time>
      </trkpt>
      <trkpt lat="42.77319" lon="-0.33668">
        <time>2022-07-30T08:43:47Z</time>
      </trkpt>
      <trkpt lat="42.77325" lon="-0.33657">
        <time>2022-07-30T08:43:48Z</time>
      </trkpt>
      <trkpt lat="42.77329" lon="-0.33647">
        <time>2022-07-30T08:43:49Z</time>
      </trkpt>
      <trkpt lat="42.77334" lon="-0.33636">
        <time>2022-07-30T08:43:50Z</time>
      </trkpt>
      <trkpt lat="42.77339" lon="-0.33627">
        <time>2022-07-30T08:43:51Z</time>
      </trkpt>
      <trkpt lat="42.77345" lon="-0.33621">
        <time>2022-07-30T08:43:52Z</time>
      </trkpt>
      <trkpt lat="42.77353" lon="-0.33618">
        <time>2022-07-30T08:43:53Z</time>
      </trkpt>
      <trkpt lat="42.7736" lon="-0.33614">
        <time>2022-07-30T08:43:54Z</time>
      </trkpt>
      <trkpt lat="42.77367" lon="-0.3361">
        <time>2022-07-30T08:43:55Z</time>
      </trkpt>
      <trkpt lat="42.77375" lon="-0.33604">
        <time>2022-07-30T08:43:56Z</time>
      </trkpt>
      <trkpt lat="42.77378" lon="-0.33593">
        <time>2022-07-30T08:43:57Z</time>
      </trkpt>
      <trkpt lat="42.77383" lon="-0.33581">
        <time>2022-07-30T08:43:58Z</time>
      </trkpt>
      <trkpt lat="42.7739" lon="-0.3357">
        <time>2022-07-30T08:43:59Z</time>
      </trkpt>
      <trkpt lat="42.77398" lon="-0.33557">
        <time>2022-07-30T08:44:00Z</time>
      </trkpt>
      <trkpt lat="42.77405" lon="-0.33545">
        <time>2022-07-30T08:44:01Z</time>
      </trkpt>
      <trkpt lat="42.77413" lon="-0.33532">
        <time>2022-07-30T08:44:02Z</time>
      </trkpt>
      <trkpt lat="42.77421" lon="-0.33519">
        <time>2022-07-30T08:44:03Z</time>
      </trkpt>
      <trkpt lat="42.77428" lon="-0.33506">
        <time>2022-07-30T08:44:04Z</time>
      </trkpt>
      <trkpt lat="42.77436" lon="-0.33493">
        <time>2022-07-30T08:44:05Z</time>
      </trkpt>
      <trkpt lat="42.77443" lon="-0.3348">
        <time>2022-07-30T08:44:06Z</time>
      </trkpt>
      <trkpt lat="42.77449" lon="-0.33469">
        <time>2022-07-30T08:44:07Z</time>
      </trkpt>
      <trkpt lat="42.77454" lon="-0.33459">
        <time>2022-07-30T08:44:08Z</time>
      </trkpt>
      <trkpt lat="42.77456" lon="-0.33449">
        <time>2022-07-30T08:44:09Z</time>
      </trkpt>
      <trkpt lat="42.77458" lon="-0.3344">
        <time>2022-07-30T08:44:10Z</time>
      </trkpt>
      <trkpt lat="42.77459" lon="-0.33433">
        <time>2022-07-30T08:44:11Z</time>
      </trkpt>
      <trkpt lat="42.77456" lon="-0.33426">
        <time>2022-07-30T08:44:12Z</time>
      </trkpt>
      <trkpt lat="42.77451" lon="-0.33423">
        <time>2022-07-30T08:44:13Z</time>
      </trkpt>
      <trkpt lat="42.77445" lon="-0.33423">
        <time>2022-07-30T08:44:14Z</time>
      </trkpt>
      <trkpt lat="42.77438" lon="-0.33426">
        <time>2022-07-30T08:44:15Z</time>
      </trkpt>
      <trkpt lat="42.77432" lon="-0.33434">
        <time>2022-07-30T08:44:16Z</time>
      </trkpt>
      <trkpt lat="42.77426" lon="-0.33444">
        <time>2022-07-30T08:44:17Z</time>
      </trkpt>
      <trkpt lat="42.7742" lon="-0.33456">
        <time>2022-07-30T08:44:18Z</time>
      </trkpt>
      <trkpt lat="42.77414" lon="-0.3347">
        <time>2022-07-30T08:44:19Z</time>
      </trkpt>
      <trkpt lat="42.77408" lon="-0.33483">
        <time>2022-07-30T08:44:20Z</time>
      </trkpt>
      <trkpt lat="42.77402" lon="-0.33497">
        <time>2022-07-30T08:44:21Z</time>
      </trkpt>
      <trkpt lat="42.77395" lon="-0.3351">
        <time>2022-07-30T08:44:22Z</time>
      </trkpt>
      <trkpt lat="42.77389" lon="-0.33523">
        <time>2022-07-30T08:44:23Z</time>
      </trkpt>
      <trkpt lat="42.77383" lon="-0.33535">
        <time>2022-07-30T08:44:24Z</time>
      </trkpt>
      <trkpt lat="42.77378" lon="-0.33547">
        <time>2022-07-30T08:44:25Z</time>
      </trkpt>
      <trkpt lat="42.77373" lon="-0.33558">
        <time>2022-07-30T08:44:26Z</time>
      </trkpt>
      <trkpt lat="42.77366" lon="-0.33566">
        <time>2022-07-30T08:44:27Z</time>
      </trkpt>
      <trkpt lat="42.77358" lon="-0.33571">
        <time>2022-07-30T08:44:28Z</time>
      </trkpt>
      <trkpt lat="42.7735" lon="-0.33571">
        <time>2022-07-30T08:44:29Z</time>
      </trkpt>
      <trkpt lat="42.77341" lon="-0.33569">
        <time>2022-07-30T08:44:30Z</time>
      </trkpt>
      <trkpt lat="42.77333" lon="-0.33568">
        <time>2022-07-30T08:44:31Z</time>
      </trkpt>
      <trkpt lat="42.77324" lon="-0.3357">
        <time>2022-07-30T08:44:32Z</time>
      </trkpt>
      <trkpt lat="42.77316" lon="-0.33576">
        <time>2022-07-30T08:44:33Z</time>
      </trkpt>
      <trkpt lat="42.77309" lon="-0.33585">
        <time>2022-07-30T08:44:34Z</time>
      </trkpt>
      <trkpt lat="42.77302" lon="-0.33596">
        <time>2022-07-30T08:44:35Z</time>
      </trkpt>
      <trkpt lat="42.77295" lon="-0.33606">
        <time>2022-07-30T08:44:36Z</time>
      </trkpt>
      <trkpt lat="42.77287" lon="-0.33614">
        <time>2022-07-30T08:44:37Z</time>
      </trkpt>
      <trkpt lat="42.7728" lon="-0.33621">
        <time>2022-07-30T08:44:38Z</time>
      </trkpt>
      <trkpt lat="42.77271" lon="-0.33625">
        <time>2022-07-30T08:44:39Z</time>
      </trkpt>
      <trkpt lat="42.77262" lon="-0.33626">
        <time>2022-07-30T08:44:40Z</time>
      </trkpt>
      <trkpt lat="42.77252" lon="-0.33626">
        <time>2022-07-30T08:44:41Z</time>
      </trkpt>
      <trkpt lat="42.77242" lon="-0.33626">
        <time>2022-07-30T08:44:42Z</time>
      </trkpt>
      <trkpt lat="42.77232" lon="-0.33627">
        <time>2022-07-30T08:44:43Z</time>
      </trkpt>
      <trkpt lat="42.77222" lon="-0.3363">
        <time>2022-07-30T08:44:44Z</time>
      </trkpt>
      <trkpt lat="42.77212" lon="-0.33634">
        <time>2022-07-30T08:44:45Z</time>
      </trkpt>
      <trkpt lat="42.77202" lon="-0.33639">
        <time>2022-07-30T08:44:46Z</time>
      </trkpt>
      <trkpt lat="42.77194" lon="-0.33645">
        <time>2022-07-30T08:44:47Z</time>
      </trkpt>
      <trkpt lat="42.77186" lon="-0.33653">
        <time>2022-07-30T08:44:48Z</time>
      </trkpt>
      <trkpt lat="42.77179" lon="-0.33664">
        <time>2022-07-30T08:44:49Z</time>
      </trkpt>
      <trkpt lat="42.77173" lon="-0.33677">
        <time>2022-07-30T08:44:50Z</time>
      </trkpt>
      <trkpt lat="42.77168" lon="-0.33688">
        <time>2022-07-30T08:44:51Z</time>
      </trkpt>
      <trkpt lat="42.77162" lon="-0.33698">
        <time>2022-07-30T08:44:52Z</time>
      </trkpt>
      <trkpt lat="42.77154" lon="-0.33707">
        <time>2022-07-30T08:44:53Z</time>
      </trkpt>
      <trkpt lat="42.77147" lon="-0.33712">
        <time>2022-07-30T08:44:54Z</time>
      </trkpt>
      <trkpt lat="42.77139" lon="-0.33716">
        <time>2022-07-30T08:44:55Z</time>
      </trkpt>
      <trkpt lat="42.7713" lon="-0.33716">
        <time>2022-07-30T08:44:56Z</time>
      </trkpt>
      <trkpt lat="42.77121" lon="-0.33717">
        <time>2022-07-30T08:44:57Z</time>
      </trkpt>
      <trkpt lat="42.77113" lon="-0.33717">
        <time>2022-07-30T08:44:58Z</time>
      </trkpt>
      <trkpt lat="42.77103" lon="-0.33717">
        <time>2022-07-30T08:44:59Z</time>
      </trkpt>
      <trkpt lat="42.77093" lon="-0.33716">
        <time>2022-07-30T08:45:00Z</time>
      </trkpt>
      <trkpt lat="42.77084" lon="-0.33712">
        <time>2022-07-30T08:45:01Z</time>
      </trkpt>
      <trkpt lat="42.77074" lon="-0.33706">
        <time>2022-07-30T08:45:02Z</time>
      </trkpt>
      <trkpt lat="42.77066" lon="-0.33699">
        <time>2022-07-30T08:45:03Z</time>
      </trkpt>
      <trkpt lat="42.77058" lon="-0.33691">
        <time>2022-07-30T08:45:04Z</time>
      </trkpt>
      <trkpt lat="42.7705" lon="-0.33684">
        <time>2022-07-30T08:45:05Z</time>
      </trkpt>
      <trkpt lat="42.77042" lon="-0.33676">
        <time>2022-07-30T08:45:06Z</time>
      </trkpt>
      <trkpt lat="42.77035" lon="-0.3367">
        <time>2022-07-30T08:45:07Z</time>
      </trkpt>
      <trkpt lat="42.77028" lon="-0.33665">
        <time>2022-07-30T08:45:08Z</time>
      </trkpt>
      <trkpt lat="42.77021" lon="-0.33661">
        <time>2022-07-30T08:45:09Z</time>
      </trkpt>
      <trkpt lat="42.77015" lon="-0.33658">
        <time>2022-07-30T08:45:10Z</time>
      </trkpt>
      <trkpt lat="42.77008" lon="-0.33657">
        <time>2022-07-30T08:45:11Z</time>
      </trkpt>
      <trkpt lat="42.77002" lon="-0.33658">
        <time>2022-07-30T08:45:12Z</time>
      </trkpt>
      <trkpt lat="42.76996" lon="-0.33661">
        <time>2022-07-30T08:45:13Z</time>
      </trkpt>
      <trkpt lat="42.76991" lon="-0.33666">
        <time>2022-07-30T08:45:14Z</time>
      </trkpt>
      <trkpt lat="42.76986" lon="-0.3367">
        <time>2022-07-30T08:45:15Z</time>
      </trkpt>
      <trkpt lat="42.76981" lon="-0.33674">
        <time>2022-07-30T08:45:16Z</time>
      </trkpt>
      <trkpt lat="42.76975" lon="-0.33676">
        <time>2022-07-30T08:45:17Z</time>
      </trkpt>
      <trkpt lat="42.7697" lon="-0.33675">
        <time>2022-07-30T08:45:18Z</time>
      </trkpt>
      <trkpt lat="42.76967" lon="-0.33671">
        <time>2022-07-30T08:45:19Z</time>
      </trkpt>
      <trkpt lat="42.76965" lon="-0.33666">
        <time>2022-07-30T08:45:20Z</time>
      </trkpt>
      <trkpt lat="42.76964" lon="-0.33662">
        <time>2022-07-30T08:45:21Z</time>
      </trkpt>
      <trkpt lat="42.76965" lon="-0.33659">
        <time>2022-07-30T08:45:22Z</time>
      </trkpt>
      <trkpt lat="42.76967" lon="-0.33655">
        <time>2022-07-30T08:45:23Z</time>
      </trkpt>
      <trkpt lat="42.7697" lon="-0.3365">
        <time>2022-07-30T08:45:24Z</time>
      </trkpt>
      <trkpt lat="42.76973" lon="-0.33645">
        <time>2022-07-30T08:45:25Z</time>
      </trkpt>
      <trkpt lat="42.76978" lon="-0.3364">
        <time>2022-07-30T08:45:26Z</time>
      </trkpt>
      <trkpt lat="42.76982" lon="-0.33633">
        <time>2022-07-30T08:45:27Z</time>
      </trkpt>
      <trkpt lat="42.76987" lon="-0.33626">
        <time>2022-07-30T08:45:28Z</time>
      </trkpt>
      <trkpt lat="42.76993" lon="-0.33619">
        <time>2022-07-30T08:45:29Z</time>
      </trkpt>
      <trkpt lat="42.76999" lon="-0.33613">
        <time>2022-07-30T08:45:30Z</time>
      </trkpt>
      <trkpt lat="42.77005" lon="-0.33607">
        <time>2022-07-30T08:45:31Z</time>
      </trkpt>
      <trkpt lat="42.77012" lon="-0.33601">
        <time>2022-07-30T08:45:32Z</time>
      </trkpt>
      <trkpt lat="42.77018" lon="-0.33596">
        <time>2022-07-30T08:45:33Z</time>
      </trkpt>
      <trkpt lat="42.77024" lon="-0.33591">
        <time>2022-07-30T08:45:34Z</time>
      </trkpt>
      <trkpt lat="42.77031" lon="-0.33586">
        <time>2022-07-30T08:45:35Z</time>
      </trkpt>
      <trkpt lat="42.77036" lon="-0.33581">
        <time>2022-07-30T08:45:36Z</time>
      </trkpt>
      <trkpt lat="42.77042" lon="-0.33576">
        <time>2022-07-30T08:45:37Z</time>
      </trkpt>
      <trkpt lat="42.77048" lon="-0.33571">
        <time>2022-07-30T08:45:38Z</time>
      </trkpt>
      <trkpt lat="42.77054" lon="-0.33566">
        <time>2022-07-30T08:45:39Z</time>
      </trkpt>
      <trkpt lat="42.7706" lon="-0.33562">
        <time>2022-07-30T08:45:40Z</time>
      </trkpt>
      <trkpt lat="42.77066" lon="-0.3356">
        <time>2022-07-30T08:45:41Z</time>
      </trkpt>
      <trkpt lat="42.77072" lon="-0.33559">
        <time>2022-07-30T08:45:42Z</time>
      </trkpt>
      <trkpt lat="42.77078" lon="-0.33563">
        <time>2022-07-30T08:45:43Z</time>
      </trkpt>
      <trkpt lat="42.77083" lon="-0.33567">
        <time>2022-07-30T08:45:44Z</time>
      </trkpt>
      <trkpt lat="42.77089" lon="-0.33573">
        <time>2022-07-30T08:45:45Z</time>
      </trkpt>
      <trkpt lat="42.77095" lon="-0.33578">
        <time>2022-07-30T08:45:46Z</time>
      </trkpt>
      <trkpt lat="42.771" lon="-0.33583">
        <time>2022-07-30T08:45:47Z</time>
      </trkpt>
      <trkpt lat="42.77106" lon="-0.33588">
        <time>2022-07-30T08:45:48Z</time>
      </trkpt>
      <trkpt lat="42.77112" lon="-0.33592">
        <time>2022-07-30T08:45:49Z</time>
      </trkpt>
      <trkpt lat="42.77118" lon="-0.33593">
        <time>2022-07-30T08:45:50Z</time>
      </trkpt>
      <trkpt lat="42.77125" lon="-0.33591">
        <time>2022-07-30T08:45:51Z</time>
      </trkpt>
      <trkpt lat="42.77132" lon="-0.33589">
        <time>2022-07-30T08:45:52Z</time>
      </trkpt>
      <trkpt lat="42.77138" lon="-0.33586">
        <time>2022-07-30T08:45:53Z</time>
      </trkpt>
      <trkpt lat="42.77144" lon="-0.33583">
        <time>2022-07-30T08:45:54Z</time>
      </trkpt>
      <trkpt lat="42.77151" lon="-0.3358">
        <time>2022-07-30T08:45:55Z</time>
      </trkpt>
      <trkpt lat="42.77158" lon="-0.33577">
        <time>2022-07-30T08:45:56Z</time>
      </trkpt>
      <trkpt lat="42.77164" lon="-0.33573">
        <time>2022-07-30T08:45:57Z</time>
      </trkpt>
      <trkpt lat="42.77168" lon="-0.33568">
        <time>2022-07-30T08:45:58Z</time>
      </trkpt>
      <trkpt lat="42.77172" lon="-0.33564">
        <time>2022-07-30T08:45:59Z</time>
      </trkpt>
      <trkpt lat="42.77175" lon="-0.33561">
        <time>2022-07-30T08:46:00Z</time>
      </trkpt>
      <trkpt lat="42.77178" lon="-0.33559">
        <time>2022-07-30T08:46:01Z</time>
      </trkpt>
      <trkpt lat="42.77181" lon="-0.33557">
        <time>2022-07-30T08:46:02Z</time>
      </trkpt>
      <trkpt lat="42.77183" lon="-0.33554">
        <time>2022-07-30T08:46:03Z</time>
      </trkpt>
      <trkpt lat="42.77184" lon="-0.33553">
        <time>2022-07-30T08:46:04Z</time>
      </trkpt>
      <trkpt lat="42.77185" lon="-0.33551">
        <time>2022-07-30T08:46:05Z</time>
      </trkpt>
      <trkpt lat="42.77187" lon="-0.33549">
        <time>2022-07-30T08:46:06Z</time>
      </trkpt>
      <trkpt lat="42.77189" lon="-0.33548">
        <time>2022-07-30T08:46:07Z</time>
      </trkpt>
      <trkpt lat="42.7719" lon="-0.33547">
        <time>2022-07-30T08:46:08Z</time>
      </trkpt>
      <trkpt lat="42.77191" lon="-0.33545">
        <time>2022-07-30T08:46:09Z</time>
      </trkpt>
      <trkpt lat="42.77192" lon="-0.33544">
        <time>2022-07-30T08:46:10Z</time>
      </trkpt>
      <trkpt lat="42.77194" lon="-0.33543">
        <time>2022-07-30T08:46:11Z</time>
      </trkpt>
      <trkpt lat="42.77195" lon="-0.33541">
        <time>2022-07-30T08:46:12Z</time>
      </trkpt>
      <trkpt lat="42.77197" lon="-0.33539">
        <time>2022-07-30T08:46:13Z</time>
      </trkpt>
      <trkpt lat="42.77199" lon="-0.33537">
        <time>2022-07-30T08:46:14Z</time>
      </trkpt>
      <trkpt lat="42.772" lon="-0.33535">
        <time>2022-07-30T08:46:15Z</time>
      </trkpt>
      <trkpt lat="42.77202" lon="-0.33533">
        <time>2022-07-30T08:46:16Z</time>
      </trkpt>
      <trkpt lat="42.77203" lon="-0.3353">
        <time>2022-07-30T08:46:17Z</time>
      </trkpt>
      <trkpt lat="42.77205" lon="-0.33528">
        <time>2022-07-30T08:46:18Z</time>
      </trkpt>
      <trkpt lat="42.77205" lon="-0.33526">
        <time>2022-07-30T08:46:19Z</time>
      </trkpt>
      <trkpt lat="42.77206" lon="-0.33525">
        <time>2022-07-30T08:46:20Z</time>
      </trkpt>
      <trkpt lat="42.77207" lon="-0.33524">
        <time>2022-07-30T08:46:22Z</time>
      </trkpt>
      <trkpt lat="42.77207" lon="-0.33522">
        <time>2022-07-30T08:46:23Z</time>
      </trkpt>
      <trkpt lat="42.77208" lon="-0.33519">
        <time>2022-07-30T08:46:28Z</time>
      </trkpt>
      <trkpt lat="42.77208" lon="-0.33517">
        <time>2022-07-30T08:46:29Z</time>
      </trkpt>
      <trkpt lat="42.77208" lon="-0.33514">
        <time>2022-07-30T08:46:30Z</time>
      </trkpt>
      <trkpt lat="42.77208" lon="-0.33513">
        <time>2022-07-30T08:46:31Z</time>
      </trkpt>
      <trkpt lat="42.77206" lon="-0.33511">
        <time>2022-07-30T08:46:35Z</time>
      </trkpt>
      <trkpt lat="42.77206" lon="-0.33509">
        <time>2022-07-30T08:46:36Z</time>
      </trkpt>
      <trkpt lat="42.77205" lon="-0.33507">
        <time>2022-07-30T08:46:37Z</time>
      </trkpt>
      <trkpt lat="42.77204" lon="-0.33506">
        <time>2022-07-30T08:46:38Z</time>
      </trkpt>
      <trkpt lat="42.77202" lon="-0.33502">
        <time>2022-07-30T08:46:41Z</time>
      </trkpt>
      <trkpt lat="42.77202" lon="-0.335">
        <time>2022-07-30T08:46:42Z</time>
      </trkpt>
      <trkpt lat="42.772" lon="-0.33498">
        <time>2022-07-30T08:46:43Z</time>
      </trkpt>
      <trkpt lat="42.77197" lon="-0.33496">
        <time>2022-07-30T08:46:44Z</time>
      </trkpt>
      <trkpt lat="42.77193" lon="-0.33497">
        <time>2022-07-30T08:46:45Z</time>
      </trkpt>
      <trkpt lat="42.77188" lon="-0.33503">
        <time>2022-07-30T08:46:46Z</time>
      </trkpt>
      <trkpt lat="42.77183" lon="-0.33509">
        <time>2022-07-30T08:46:47Z</time>
      </trkpt>
      <trkpt lat="42.77177" lon="-0.33513">
        <time>2022-07-30T08:46:48Z</time>
      </trkpt>
      <trkpt lat="42.77171" lon="-0.33516">
        <time>2022-07-30T08:46:49Z</time>
      </trkpt>
      <trkpt lat="42.77165" lon="-0.33517">
        <time>2022-07-30T08:46:50Z</time>
      </trkpt>
      <trkpt lat="42.77158" lon="-0.33516">
        <time>2022-07-30T08:46:51Z</time>
      </trkpt>
      <trkpt lat="42.77151" lon="-0.33515">
        <time>2022-07-30T08:46:52Z</time>
      </trkpt>
      <trkpt lat="42.77144" lon="-0.33511">
        <time>2022-07-30T08:46:53Z</time>
      </trkpt>
      <trkpt lat="42.77137" lon="-0.33507">
        <time>2022-07-30T08:46:54Z</time>
      </trkpt>
      <trkpt lat="42.7713" lon="-0.33502">
        <time>2022-07-30T08:46:55Z</time>
      </trkpt>
      <trkpt lat="42.77123" lon="-0.33496">
        <time>2022-07-30T08:46:56Z</time>
      </trkpt>
      <trkpt lat="42.77116" lon="-0.33491">
        <time>2022-07-30T08:46:57Z</time>
      </trkpt>
      <trkpt lat="42.77109" lon="-0.33486">
        <time>2022-07-30T08:46:58Z</time>
      </trkpt>
      <trkpt lat="42.77102" lon="-0.33481">
        <time>2022-07-30T08:46:59Z</time>
      </trkpt>
      <trkpt lat="42.77094" lon="-0.33477">
        <time>2022-07-30T08:47:00Z</time>
      </trkpt>
      <trkpt lat="42.77086" lon="-0.33474">
        <time>2022-07-30T08:47:01Z</time>
      </trkpt>
      <trkpt lat="42.77079" lon="-0.3347">
        <time>2022-07-30T08:47:02Z</time>
      </trkpt>
      <trkpt lat="42.77072" lon="-0.33465">
        <time>2022-07-30T08:47:03Z</time>
      </trkpt>
      <trkpt lat="42.77064" lon="-0.3346">
        <time>2022-07-30T08:47:04Z</time>
      </trkpt>
      <trkpt lat="42.77057" lon="-0.33454">
        <time>2022-07-30T08:47:05Z</time>
      </trkpt>
      <trkpt lat="42.77049" lon="-0.3345">
        <time>2022-07-30T08:47:06Z</time>
      </trkpt>
      <trkpt lat="42.77042" lon="-0.33446">
        <time>2022-07-30T08:47:07Z</time>
      </trkpt>
      <trkpt lat="42.77035" lon="-0.33443">
        <time>2022-07-30T08:47:08Z</time>
      </trkpt>
      <trkpt lat="42.77027" lon="-0.33441">
        <time>2022-07-30T08:47:09Z</time>
      </trkpt>
      <trkpt lat="42.77019" lon="-0.33441">
        <time>2022-07-30T08:47:10Z</time>
      </trkpt>
      <trkpt lat="42.77011" lon="-0.33441">
        <time>2022-07-30T08:47:11Z</time>
      </trkpt>
      <trkpt lat="42.77004" lon="-0.33442">
        <time>2022-07-30T08:47:12Z</time>
      </trkpt>
      <trkpt lat="42.76996" lon="-0.33443">
        <time>2022-07-30T08:47:13Z</time>
      </trkpt>
      <trkpt lat="42.76989" lon="-0.33445">
        <time>2022-07-30T08:47:14Z</time>
      </trkpt>
      <trkpt lat="42.76982" lon="-0.33448">
        <time>2022-07-30T08:47:15Z</time>
      </trkpt>
      <trkpt lat="42.76974" lon="-0.33451">
        <time>2022-07-30T08:47:16Z</time>
      </trkpt>
      <trkpt lat="42.76966" lon="-0.33454">
        <time>2022-07-30T08:47:17Z</time>
      </trkpt>
      <trkpt lat="42.76958" lon="-0.33458">
        <time>2022-07-30T08:47:18Z</time>
      </trkpt>
      <trkpt lat="42.7695" lon="-0.33461">
        <time>2022-07-30T08:47:19Z</time>
      </trkpt>
      <trkpt lat="42.76941" lon="-0.33464">
        <time>2022-07-30T08:47:20Z</time>
      </trkpt>
      <trkpt lat="42.76933" lon="-0.33468">
        <time>2022-07-30T08:47:21Z</time>
      </trkpt>
      <trkpt lat="42.76925" lon="-0.33472">
        <time>2022-07-30T08:47:22Z</time>
      </trkpt>
      <trkpt lat="42.76918" lon="-0.33476">
        <time>2022-07-30T08:47:23Z</time>
      </trkpt>
      <trkpt lat="42.76909" lon="-0.3348">
        <time>2022-07-30T08:47:24Z</time>
      </trkpt>
      <trkpt lat="42.76901" lon="-0.33483">
        <time>2022-07-30T08:47:25Z</time>
      </trkpt>
      <trkpt lat="42.76892" lon="-0.33487">
        <time>2022-07-30T08:47:26Z</time>
      </trkpt>
      <trkpt lat="42.76884" lon="-0.3349">
        <time>2022-07-30T08:47:27Z</time>
      </trkpt>
      <trkpt lat="42.76876" lon="-0.33493">
        <time>2022-07-30T08:47:28Z</time>
      </trkpt>
      <trkpt lat="42.76869" lon="-0.33496">
        <time>2022-07-30T08:47:29Z</time>
      </trkpt>
      <trkpt lat="42.76861" lon="-0.33499">
        <time>2022-07-30T08:47:30Z</time>
      </trkpt>
      <trkpt lat="42.76852" lon="-0.33503">
        <time>2022-07-30T08:47:31Z</time>
      </trkpt>
      <trkpt lat="42.76843" lon="-0.33507">
        <time>2022-07-30T08:47:32Z</time>
      </trkpt>
      <trkpt lat="42.76833" lon="-0.3351">
        <time>2022-07-30T08:47:33Z</time>
      </trkpt>
      <trkpt lat="42.76822" lon="-0.33513">
        <time>2022-07-30T08:47:34Z</time>
      </trkpt>
      <trkpt lat="42.7681" lon="-0.33515">
        <time>2022-07-30T08:47:35Z</time>
      </trkpt>
      <trkpt lat="42.76799" lon="-0.33516">
        <time>2022-07-30T08:47:36Z</time>
      </trkpt>
      <trkpt lat="42.76788" lon="-0.33516">
        <time>2022-07-30T08:47:37Z</time>
      </trkpt>
      <trkpt lat="42.76778" lon="-0.33517">
        <time>2022-07-30T08:47:38Z</time>
      </trkpt>
      <trkpt lat="42.76768" lon="-0.33518">
        <time>2022-07-30T08:47:39Z</time>
      </trkpt>
      <trkpt lat="42.76758" lon="-0.33519">
        <time>2022-07-30T08:47:40Z</time>
      </trkpt>
      <trkpt lat="42.76746" lon="-0.3352">
        <time>2022-07-30T08:47:41Z</time>
      </trkpt>
      <trkpt lat="42.76735" lon="-0.33522">
        <time>2022-07-30T08:47:42Z</time>
      </trkpt>
      <trkpt lat="42.76722" lon="-0.33524">
        <time>2022-07-30T08:47:43Z</time>
      </trkpt>
      <trkpt lat="42.7671" lon="-0.33528">
        <time>2022-07-30T08:47:44Z</time>
      </trkpt>
      <trkpt lat="42.76697" lon="-0.33533">
        <time>2022-07-30T08:47:45Z</time>
      </trkpt>
      <trkpt lat="42.76684" lon="-0.33541">
        <time>2022-07-30T08:47:46Z</time>
      </trkpt>
      <trkpt lat="42.76672" lon="-0.33549">
        <time>2022-07-30T08:47:47Z</time>
      </trkpt>
      <trkpt lat="42.7666" lon="-0.33557">
        <time>2022-07-30T08:47:48Z</time>
      </trkpt>
      <trkpt lat="42.76648" lon="-0.33566">
        <time>2022-07-30T08:47:49Z</time>
      </trkpt>
      <trkpt lat="42.76637" lon="-0.33574">
        <time>2022-07-30T08:47:50Z</time>
      </trkpt>
      <trkpt lat="42.76626" lon="-0.33582">
        <time>2022-07-30T08:47:51Z</time>
      </trkpt>
      <trkpt lat="42.76615" lon="-0.3359">
        <time>2022-07-30T08:47:52Z</time>
      </trkpt>
      <trkpt lat="42.76604" lon="-0.33598">
        <time>2022-07-30T08:47:53Z</time>
      </trkpt>
      <trkpt lat="42.76592" lon="-0.33606">
        <time>2022-07-30T08:47:54Z</time>
      </trkpt>
      <trkpt lat="42.76582" lon="-0.33614">
        <time>2022-07-30T08:47:55Z</time>
      </trkpt>
      <trkpt lat="42.76571" lon="-0.33621">
        <time>2022-07-30T08:47:56Z</time>
      </trkpt>
      <trkpt lat="42.7656" lon="-0.33628">
        <time>2022-07-30T08:47:57Z</time>
      </trkpt>
      <trkpt lat="42.7655" lon="-0.33635">
        <time>2022-07-30T08:47:58Z</time>
      </trkpt>
      <trkpt lat="42.7654" lon="-0.33641">
        <time>2022-07-30T08:47:59Z</time>
      </trkpt>
      <trkpt lat="42.76529" lon="-0.33645">
        <time>2022-07-30T08:48:00Z</time>
      </trkpt>
      <trkpt lat="42.76518" lon="-0.33646">
        <time>2022-07-30T08:48:01Z</time>
      </trkpt>
      <trkpt lat="42.76505" lon="-0.33643">
        <time>2022-07-30T08:48:02Z</time>
      </trkpt>
      <trkpt lat="42.76491" lon="-0.33637">
        <time>2022-07-30T08:48:03Z</time>
      </trkpt>
      <trkpt lat="42.76476" lon="-0.3363">
        <time>2022-07-30T08:48:04Z</time>
      </trkpt>
      <trkpt lat="42.76459" lon="-0.33624">
        <time>2022-07-30T08:48:05Z</time>
      </trkpt>
      <trkpt lat="42.76441" lon="-0.33618">
        <time>2022-07-30T08:48:06Z</time>
      </trkpt>
      <trkpt lat="42.76425" lon="-0.33611">
        <time>2022-07-30T08:48:07Z</time>
      </trkpt>
      <trkpt lat="42.76409" lon="-0.33604">
        <time>2022-07-30T08:48:08Z</time>
      </trkpt>
      <trkpt lat="42.76395" lon="-0.33597">
        <time>2022-07-30T08:48:09Z</time>
      </trkpt>
      <trkpt lat="42.7638" lon="-0.33593">
        <time>2022-07-30T08:48:10Z</time>
      </trkpt>
      <trkpt lat="42.76365" lon="-0.33591">
        <time>2022-07-30T08:48:11Z</time>
      </trkpt>
      <trkpt lat="42.7635" lon="-0.33592">
        <time>2022-07-30T08:48:12Z</time>
      </trkpt>
      <trkpt lat="42.76335" lon="-0.33595">
        <time>2022-07-30T08:48:13Z</time>
      </trkpt>
      <trkpt lat="42.7632" lon="-0.33598">
        <time>2022-07-30T08:48:14Z</time>
      </trkpt>
      <trkpt lat="42.76306" lon="-0.336">
        <time>2022-07-30T08:48:15Z</time>
      </trkpt>
      <trkpt lat="42.76291" lon="-0.33599">
        <time>2022-07-30T08:48:16Z</time>
      </trkpt>
      <trkpt lat="42.76277" lon="-0.33595">
        <time>2022-07-30T08:48:17Z</time>
      </trkpt>
      <trkpt lat="42.76264" lon="-0.33587">
        <time>2022-07-30T08:48:18Z</time>
      </trkpt>
      <trkpt lat="42.76252" lon="-0.33575">
        <time>2022-07-30T08:48:19Z</time>
      </trkpt>
      <trkpt lat="42.76241" lon="-0.3356">
        <time>2022-07-30T08:48:20Z</time>
      </trkpt>
      <trkpt lat="42.76233" lon="-0.33543">
        <time>2022-07-30T08:48:21Z</time>
      </trkpt>
      <trkpt lat="42.76225" lon="-0.33524">
        <time>2022-07-30T08:48:22Z</time>
      </trkpt>
      <trkpt lat="42.76219" lon="-0.33505">
        <time>2022-07-30T08:48:23Z</time>
      </trkpt>
      <trkpt lat="42.76211" lon="-0.33486">
        <time>2022-07-30T08:48:24Z</time>
      </trkpt>
      <trkpt lat="42.76201" lon="-0.33471">
        <time>2022-07-30T08:48:25Z</time>
      </trkpt>
      <trkpt lat="42.76189" lon="-0.33457">
        <time>2022-07-30T08:48:26Z</time>
      </trkpt>
      <trkpt lat="42.76176" lon="-0.33445">
        <time>2022-07-30T08:48:27Z</time>
      </trkpt>
      <trkpt lat="42.76165" lon="-0.33433">
        <time>2022-07-30T08:48:28Z</time>
      </trkpt>
      <trkpt lat="42.76154" lon="-0.33424">
        <time>2022-07-30T08:48:29Z</time>
      </trkpt>
      <trkpt lat="42.76144" lon="-0.33414">
        <time>2022-07-30T08:48:30Z</time>
      </trkpt>
      <trkpt lat="42.76135" lon="-0.33406">
        <time>2022-07-30T08:48:31Z</time>
      </trkpt>
      <trkpt lat="42.76127" lon="-0.33398">
        <time>2022-07-30T08:48:32Z</time>
      </trkpt>
      <trkpt lat="42.76119" lon="-0.33392">
        <time>2022-07-30T08:48:33Z</time>
      </trkpt>
      <trkpt lat="42.76111" lon="-0.33386">
        <time>2022-07-30T08:48:34Z</time>
      </trkpt>
      <trkpt lat="42.76104" lon="-0.33382">
        <time>2022-07-30T08:48:35Z</time>
      </trkpt>
      <trkpt lat="42.76098" lon="-0.33379">
        <time>2022-07-30T08:48:36Z</time>
      </trkpt>
      <trkpt lat="42.76093" lon="-0.33379">
        <time>2022-07-30T08:48:37Z</time>
      </trkpt>
      <trkpt lat="42.76089" lon="-0.33379">
        <time>2022-07-30T08:48:38Z</time>
      </trkpt>
      <trkpt lat="42.76086" lon="-0.33379">
        <time>2022-07-30T08:48:39Z</time>
      </trkpt>
      <trkpt lat="42.76083" lon="-0.33379">
        <time>2022-07-30T08:48:40Z</time>
      </trkpt>
      <trkpt lat="42.76082" lon="-0.33378">
        <time>2022-07-30T08:48:41Z</time>
      </trkpt>
      <trkpt lat="42.7608" lon="-0.33375">
        <time>2022-07-30T08:48:47Z</time>
      </trkpt>
      <trkpt lat="42.76078" lon="-0.33375">
        <time>2022-07-30T08:48:48Z</time>
      </trkpt>
      <trkpt lat="42.76072" lon="-0.33372">
        <time>2022-07-30T08:48:49Z</time>
      </trkpt>
      <trkpt lat="42.76067" lon="-0.33365">
        <time>2022-07-30T08:48:50Z</time>
      </trkpt>
      <trkpt lat="42.76063" lon="-0.33355">
        <time>2022-07-30T08:48:51Z</time>
      </trkpt>
      <trkpt lat="42.76058" lon="-0.33343">
        <time>2022-07-30T08:48:52Z</time>
      </trkpt>
      <trkpt lat="42.76053" lon="-0.33328">
        <time>2022-07-30T08:48:53Z</time>
      </trkpt>
      <trkpt lat="42.76047" lon="-0.33312">
        <time>2022-07-30T08:48:54Z</time>
      </trkpt>
      <trkpt lat="42.76041" lon="-0.33296">
        <time>2022-07-30T08:48:55Z</time>
      </trkpt>
      <trkpt lat="42.76036" lon="-0.33279">
        <time>2022-07-30T08:48:56Z</time>
      </trkpt>
      <trkpt lat="42.76029" lon="-0.3326">
        <time>2022-07-30T08:48:57Z</time>
      </trkpt>
      <trkpt lat="42.76023" lon="-0.3324">
        <time>2022-07-30T08:48:58Z</time>
      </trkpt>
      <trkpt lat="42.76017" lon="-0.3322">
        <time>2022-07-30T08:48:59Z</time>
      </trkpt>
      <trkpt lat="42.7601" lon="-0.33199">
        <time>2022-07-30T08:49:00Z</time>
      </trkpt>
      <trkpt lat="42.76003" lon="-0.33178">
        <time>2022-07-30T08:49:01Z</time>
      </trkpt>
      <trkpt lat="42.75996" lon="-0.33157">
        <time>2022-07-30T08:49:02Z</time>
      </trkpt>
      <trkpt lat="42.75989" lon="-0.33135">
        <time>2022-07-30T08:49:03Z</time>
      </trkpt>
      <trkpt lat="42.75982" lon="-0.33113">
        <time>2022-07-30T08:49:04Z</time>
      </trkpt>
      <trkpt lat="42.75975" lon="-0.33092">
        <time>2022-07-30T08:49:05Z</time>
      </trkpt>
      <trkpt lat="42.75968" lon="-0.3307">
        <time>2022-07-30T08:49:06Z</time>
      </trkpt>
      <trkpt lat="42.75961" lon="-0.33047">
        <time>2022-07-30T08:49:07Z</time>
      </trkpt>
      <trkpt lat="42.75954" lon="-0.33025">
        <time>2022-07-30T08:49:08Z</time>
      </trkpt>
      <trkpt lat="42.75947" lon="-0.33003">
        <time>2022-07-30T08:49:09Z</time>
      </trkpt>
      <trkpt lat="42.7594" lon="-0.32981">
        <time>2022-07-30T08:49:10Z</time>
      </trkpt>
      <trkpt lat="42.75933" lon="-0.3296">
        <time>2022-07-30T08:49:11Z</time>
      </trkpt>
      <trkpt lat="42.75927" lon="-0.32939">
        <time>2022-07-30T08:49:12Z</time>
      </trkpt>
      <trkpt lat="42.7592" lon="-0.32918">
        <time>2022-07-30T08:49:13Z</time>
      </trkpt>
      <trkpt lat="42.75914" lon="-0.32898">
        <time>2022-07-30T08:49:14Z</time>
      </trkpt>
      <trkpt lat="42.75907" lon="-0.32878">
        <time>2022-07-30T08:49:15Z</time>
      </trkpt>
      <trkpt lat="42.75901" lon="-0.32858">
        <time>2022-07-30T08:49:16Z</time>
      </trkpt>
      <trkpt lat="42.75895" lon="-0.32838">
        <time>2022-07-30T08:49:17Z</time>
      </trkpt>
      <trkpt lat="42.75889" lon="-0.32819">
        <time>2022-07-30T08:49:18Z</time>
      </trkpt>
      <trkpt lat="42.75884" lon="-0.32799">
        <time>2022-07-30T08:49:19Z</time>
      </trkpt>
      <trkpt lat="42.75879" lon="-0.3278">
        <time>2022-07-30T08:49:20Z</time>
      </trkpt>
      <trkpt lat="42.75874" lon="-0.32759">
        <time>2022-07-30T08:49:21Z</time>
      </trkpt>
      <trkpt lat="42.75871" lon="-0.3274">
        <time>2022-07-30T08:49:22Z</time>
      </trkpt>
      <trkpt lat="42.75868" lon="-0.32719">
        <time>2022-07-30T08:49:23Z</time>
      </trkpt>
      <trkpt lat="42.75867" lon="-0.32699">
        <time>2022-07-30T08:49:24Z</time>
      </trkpt>
      <trkpt lat="42.75868" lon="-0.32679">
        <time>2022-07-30T08:49:25Z</time>
      </trkpt>
      <trkpt lat="42.75872" lon="-0.32659">
        <time>2022-07-30T08:49:26Z</time>
      </trkpt>
      <trkpt lat="42.75876" lon="-0.3264">
        <time>2022-07-30T08:49:27Z</time>
      </trkpt>
      <trkpt lat="42.75882" lon="-0.32621">
        <time>2022-07-30T08:49:28Z</time>
      </trkpt>
      <trkpt lat="42.75887" lon="-0.32602">
        <time>2022-07-30T08:49:29Z</time>
      </trkpt>
      <trkpt lat="42.75892" lon="-0.32584">
        <time>2022-07-30T08:49:30Z</time>
      </trkpt>
      <trkpt lat="42.75897" lon="-0.32566">
        <time>2022-07-30T08:49:31Z</time>
      </trkpt>
      <trkpt lat="42.75902" lon="-0.32549">
        <time>2022-07-30T08:49:32Z</time>
      </trkpt>
      <trkpt lat="42.75907" lon="-0.32532">
        <time>2022-07-30T08:49:33Z</time>
      </trkpt>
      <trkpt lat="42.75912" lon="-0.32515">
        <time>2022-07-30T08:49:34Z</time>
      </trkpt>
      <trkpt lat="42.75918" lon="-0.32498">
        <time>2022-07-30T08:49:35Z</time>
      </trkpt>
      <trkpt lat="42.75922" lon="-0.32481">
        <time>2022-07-30T08:49:36Z</time>
      </trkpt>
      <trkpt lat="42.75927" lon="-0.32465">
        <time>2022-07-30T08:49:37Z</time>
      </trkpt>
      <trkpt lat="42.75931" lon="-0.32448">
        <time>2022-07-30T08:49:38Z</time>
      </trkpt>
      <trkpt lat="42.75934" lon="-0.32431">
        <time>2022-07-30T08:49:39Z</time>
      </trkpt>
      <trkpt lat="42.75936" lon="-0.32412">
        <time>2022-07-30T08:49:40Z</time>
      </trkpt>
      <trkpt lat="42.75936" lon="-0.32393">
        <time>2022-07-30T08:49:41Z</time>
      </trkpt>
      <trkpt lat="42.75934" lon="-0.32375">
        <time>2022-07-30T08:49:42Z</time>
      </trkpt>
      <trkpt lat="42.75929" lon="-0.32356">
        <time>2022-07-30T08:49:43Z</time>
      </trkpt>
      <trkpt lat="42.75923" lon="-0.32339">
        <time>2022-07-30T08:49:44Z</time>
      </trkpt>
      <trkpt lat="42.75915" lon="-0.32322">
        <time>2022-07-30T08:49:45Z</time>
      </trkpt>
      <trkpt lat="42.75907" lon="-0.32306">
        <time>2022-07-30T08:49:46Z</time>
      </trkpt>
      <trkpt lat="42.75898" lon="-0.32289">
        <time>2022-07-30T08:49:47Z</time>
      </trkpt>
      <trkpt lat="42.75888" lon="-0.32273">
        <time>2022-07-30T08:49:48Z</time>
      </trkpt>
      <trkpt lat="42.75878" lon="-0.32256">
        <time>2022-07-30T08:49:49Z</time>
      </trkpt>
      <trkpt lat="42.75869" lon="-0.3224">
        <time>2022-07-30T08:49:50Z</time>
      </trkpt>
      <trkpt lat="42.75859" lon="-0.32224">
        <time>2022-07-30T08:49:51Z</time>
      </trkpt>
      <trkpt lat="42.7585" lon="-0.32208">
        <time>2022-07-30T08:49:52Z</time>
      </trkpt>
      <trkpt lat="42.75841" lon="-0.32192">
        <time>2022-07-30T08:49:53Z</time>
      </trkpt>
      <trkpt lat="42.75833" lon="-0.32177">
        <time>2022-07-30T08:49:54Z</time>
      </trkpt>
      <trkpt lat="42.75824" lon="-0.32163">
        <time>2022-07-30T08:49:55Z</time>
      </trkpt>
      <trkpt lat="42.75815" lon="-0.3215">
        <time>2022-07-30T08:49:56Z</time>
      </trkpt>
      <trkpt lat="42.75805" lon="-0.32138">
        <time>2022-07-30T08:49:57Z</time>
      </trkpt>
      <trkpt lat="42.75794" lon="-0.32127">
        <time>2022-07-30T08:49:58Z</time>
      </trkpt>
      <trkpt lat="42.75782" lon="-0.32117">
        <time>2022-07-30T08:49:59Z</time>
      </trkpt>
      <trkpt lat="42.75768" lon="-0.32108">
        <time>2022-07-30T08:50:00Z</time>
      </trkpt>
      <trkpt lat="42.75753" lon="-0.32098">
        <time>2022-07-30T08:50:01Z</time>
      </trkpt>
      <trkpt lat="42.75738" lon="-0.32089">
        <time>2022-07-30T08:50:02Z</time>
      </trkpt>
      <trkpt lat="42.75722" lon="-0.32079">
        <time>2022-07-30T08:50:03Z</time>
      </trkpt>
      <trkpt lat="42.75707" lon="-0.3207">
        <time>2022-07-30T08:50:04Z</time>
      </trkpt>
      <trkpt lat="42.75691" lon="-0.32062">
        <time>2022-07-30T08:50:05Z</time>
      </trkpt>
      <trkpt lat="42.75675" lon="-0.32055">
        <time>2022-07-30T08:50:06Z</time>
      </trkpt>
      <trkpt lat="42.75658" lon="-0.32049">
        <time>2022-07-30T08:50:07Z</time>
      </trkpt>
      <trkpt lat="42.75641" lon="-0.32044">
        <time>2022-07-30T08:50:08Z</time>
      </trkpt>
      <trkpt lat="42.75623" lon="-0.3204">
        <time>2022-07-30T08:50:09Z</time>
      </trkpt>
      <trkpt lat="42.75605" lon="-0.32036">
        <time>2022-07-30T08:50:10Z</time>
      </trkpt>
      <trkpt lat="42.75587" lon="-0.32032">
        <time>2022-07-30T08:50:11Z</time>
      </trkpt>
      <trkpt lat="42.75569" lon="-0.32027">
        <time>2022-07-30T08:50:12Z</time>
      </trkpt>
      <trkpt lat="42.75551" lon="-0.32023">
        <time>2022-07-30T08:50:13Z</time>
      </trkpt>
      <trkpt lat="42.75534" lon="-0.32019">
        <time>2022-07-30T08:50:14Z</time>
      </trkpt>
      <trkpt lat="42.75516" lon="-0.32015">
        <time>2022-07-30T08:50:15Z</time>
      </trkpt>
      <trkpt lat="42.75499" lon="-0.3201">
        <time>2022-07-30T08:50:16Z</time>
      </trkpt>
      <trkpt lat="42.75483" lon="-0.32004">
        <time>2022-07-30T08:50:17Z</time>
      </trkpt>
      <trkpt lat="42.75467" lon="-0.31998">
        <time>2022-07-30T08:50:18Z</time>
      </trkpt>
      <trkpt lat="42.75452" lon="-0.31992">
        <time>2022-07-30T08:50:19Z</time>
      </trkpt>
      <trkpt lat="42.75437" lon="-0.31985">
        <time>2022-07-30T08:50:20Z</time>
      </trkpt>
      <trkpt lat="42.75423" lon="-0.31976">
        <time>2022-07-30T08:50:21Z</time>
      </trkpt>
      <trkpt lat="42.75411" lon="-0.31965">
        <time>2022-07-30T08:50:22Z</time>
      </trkpt>
      <trkpt lat="42.75399" lon="-0.31951">
        <time>2022-07-30T08:50:23Z</time>
      </trkpt>
      <trkpt lat="42.75388" lon="-0.31936">
        <time>2022-07-30T08:50:24Z</time>
      </trkpt>
      <trkpt lat="42.75376" lon="-0.3192">
        <time>2022-07-30T08:50:25Z</time>
      </trkpt>
      <trkpt lat="42.75365" lon="-0.31904">
        <time>2022-07-30T08:50:26Z</time>
      </trkpt>
      <trkpt lat="42.75353" lon="-0.31889">
        <time>2022-07-30T08:50:27Z</time>
      </trkpt>
      <trkpt lat="42.7534" lon="-0.31875">
        <time>2022-07-30T08:50:28Z</time>
      </trkpt>
      <trkpt lat="42.75326" lon="-0.31862">
        <time>2022-07-30T08:50:29Z</time>
      </trkpt>
      <trkpt lat="42.75312" lon="-0.3185">
        <time>2022-07-30T08:50:30Z</time>
      </trkpt>
      <trkpt lat="42.75299" lon="-0.31837">
        <time>2022-07-30T08:50:31Z</time>
      </trkpt>
      <trkpt lat="42.75287" lon="-0.31824">
        <time>2022-07-30T08:50:32Z</time>
      </trkpt>
      <trkpt lat="42.75274" lon="-0.31811">
        <time>2022-07-30T08:50:33Z</time>
      </trkpt>
      <trkpt lat="42.75261" lon="-0.31799">
        <time>2022-07-30T08:50:34Z</time>
      </trkpt>
      <trkpt lat="42.75248" lon="-0.31786">
        <time>2022-07-30T08:50:35Z</time>
      </trkpt>
      <trkpt lat="42.75234" lon="-0.31774">
        <time>2022-07-30T08:50:36Z</time>
      </trkpt>
      <trkpt lat="42.75219" lon="-0.31762">
        <time>2022-07-30T08:50:37Z</time>
      </trkpt>
      <trkpt lat="42.75204" lon="-0.31751">
        <time>2022-07-30T08:50:38Z</time>
      </trkpt>
      <trkpt lat="42.75189" lon="-0.31739">
        <time>2022-07-30T08:50:39Z</time>
      </trkpt>
      <trkpt lat="42.75174" lon="-0.31729">
        <time>2022-07-30T08:50:40Z</time>
      </trkpt>
      <trkpt lat="42.75159" lon="-0.31718">
        <time>2022-07-30T08:50:41Z</time>
      </trkpt>
      <trkpt lat="42.75145" lon="-0.31707">
        <time>2022-07-30T08:50:42Z</time>
      </trkpt>
      <trkpt lat="42.75131" lon="-0.31695">
        <time>2022-07-30T08:50:43Z</time>
      </trkpt>
      <trkpt lat="42.75117" lon="-0.31684">
        <time>2022-07-30T08:50:44Z</time>
      </trkpt>
      <trkpt lat="42.75103" lon="-0.31673">
        <time>2022-07-30T08:50:45Z</time>
      </trkpt>
      <trkpt lat="42.7509" lon="-0.3166">
        <time>2022-07-30T08:50:46Z</time>
      </trkpt>
      <trkpt lat="42.75078" lon="-0.31647">
        <time>2022-07-30T08:50:47Z</time>
      </trkpt>
      <trkpt lat="42.75067" lon="-0.31634">
        <time>2022-07-30T08:50:48Z</time>
      </trkpt>
      <trkpt lat="42.75056" lon="-0.31621">
        <time>2022-07-30T08:50:49Z</time>
      </trkpt>
      <trkpt lat="42.75046" lon="-0.3161">
        <time>2022-07-30T08:50:50Z</time>
      </trkpt>
      <trkpt lat="42.75037" lon="-0.31599">
        <time>2022-07-30T08:50:51Z</time>
      </trkpt>
      <trkpt lat="42.75027" lon="-0.31591">
        <time>2022-07-30T08:50:52Z</time>
      </trkpt>
      <trkpt lat="42.75016" lon="-0.31585">
        <time>2022-07-30T08:50:53Z</time>
      </trkpt>
      <trkpt lat="42.75004" lon="-0.31582">
        <time>2022-07-30T08:50:54Z</time>
      </trkpt>
      <trkpt lat="42.74992" lon="-0.31583">
        <time>2022-07-30T08:50:55Z</time>
      </trkpt>
      <trkpt lat="42.74978" lon="-0.31588">
        <time>2022-07-30T08:50:56Z</time>
      </trkpt>
      <trkpt lat="42.74965" lon="-0.31595">
        <time>2022-07-30T08:50:57Z</time>
      </trkpt>
      <trkpt lat="42.74951" lon="-0.31604">
        <time>2022-07-30T08:50:58Z</time>
      </trkpt>
      <trkpt lat="42.74937" lon="-0.31613">
        <time>2022-07-30T08:50:59Z</time>
      </trkpt>
      <trkpt lat="42.74924" lon="-0.31624">
        <time>2022-07-30T08:51:00Z</time>
      </trkpt>
      <trkpt lat="42.74911" lon="-0.31635">
        <time>2022-07-30T08:51:01Z</time>
      </trkpt>
      <trkpt lat="42.74898" lon="-0.31648">
        <time>2022-07-30T08:51:02Z</time>
      </trkpt>
      <trkpt lat="42.74885" lon="-0.3166">
        <time>2022-07-30T08:51:03Z</time>
      </trkpt>
      <trkpt lat="42.74873" lon="-0.31672">
        <time>2022-07-30T08:51:04Z</time>
      </trkpt>
      <trkpt lat="42.7486" lon="-0.31683">
        <time>2022-07-30T08:51:05Z</time>
      </trkpt>
      <trkpt lat="42.74848" lon="-0.31693">
        <time>2022-07-30T08:51:06Z</time>
      </trkpt>
      <trkpt lat="42.74836" lon="-0.31703">
        <time>2022-07-30T08:51:07Z</time>
      </trkpt>
      <trkpt lat="42.74823" lon="-0.31713">
        <time>2022-07-30T08:51:08Z</time>
      </trkpt>
      <trkpt lat="42.74808" lon="-0.31721">
        <time>2022-07-30T08:51:09Z</time>
      </trkpt>
      <trkpt lat="42.74794" lon="-0.31727">
        <time>2022-07-30T08:51:10Z</time>
      </trkpt>
      <trkpt lat="42.74781" lon="-0.31732">
        <time>2022-07-30T08:51:11Z</time>
      </trkpt>
      <trkpt lat="42.74767" lon="-0.31735">
        <time>2022-07-30T08:51:12Z</time>
      </trkpt>
      <trkpt lat="42.74754" lon="-0.31736">
        <time>2022-07-30T08:51:13Z</time>
      </trkpt>
      <trkpt lat="42.7474" lon="-0.31734">
        <time>2022-07-30T08:51:14Z</time>
      </trkpt>
      <trkpt lat="42.74726" lon="-0.3173">
        <time>2022-07-30T08:51:15Z</time>
      </trkpt>
      <trkpt lat="42.74712" lon="-0.31722">
        <time>2022-07-30T08:51:16Z</time>
      </trkpt>
      <trkpt lat="42.74698" lon="-0.31713">
        <time>2022-07-30T08:51:17Z</time>
      </trkpt>
      <trkpt lat="42.74683" lon="-0.31702">
        <time>2022-07-30T08:51:18Z</time>
      </trkpt>
      <trkpt lat="42.74669" lon="-0.31691">
        <time>2022-07-30T08:51:19Z</time>
      </trkpt>
      <trkpt lat="42.74654" lon="-0.3168">
        <time>2022-07-30T08:51:20Z</time>
      </trkpt>
      <trkpt lat="42.7464" lon="-0.31669">
        <time>2022-07-30T08:51:21Z</time>
      </trkpt>
      <trkpt lat="42.74626" lon="-0.31658">
        <time>2022-07-30T08:51:22Z</time>
      </trkpt>
      <trkpt lat="42.74612" lon="-0.31647">
        <time>2022-07-30T08:51:23Z</time>
      </trkpt>
      <trkpt lat="42.74599" lon="-0.31636">
        <time>2022-07-30T08:51:24Z</time>
      </trkpt>
      <trkpt lat="42.74586" lon="-0.31626">
        <time>2022-07-30T08:51:25Z</time>
      </trkpt>
      <trkpt lat="42.74574" lon="-0.31616">
        <time>2022-07-30T08:51:26Z</time>
      </trkpt>
      <trkpt lat="42.74562" lon="-0.31607">
        <time>2022-07-30T08:51:27Z</time>
      </trkpt>
      <trkpt lat="42.74551" lon="-0.31598">
        <time>2022-07-30T08:51:28Z</time>
      </trkpt>
      <trkpt lat="42.74541" lon="-0.3159">
        <time>2022-07-30T08:51:29Z</time>
      </trkpt>
      <trkpt lat="42.74529" lon="-0.31583">
        <time>2022-07-30T08:51:30Z</time>
      </trkpt>
      <trkpt lat="42.74517" lon="-0.31578">
        <time>2022-07-30T08:51:31Z</time>
      </trkpt>
      <trkpt lat="42.74505" lon="-0.31576">
        <time>2022-07-30T08:51:32Z</time>
      </trkpt>
      <trkpt lat="42.74492" lon="-0.31575">
        <time>2022-07-30T08:51:33Z</time>
      </trkpt>
      <trkpt lat="42.7448" lon="-0.31577">
        <time>2022-07-30T08:51:34Z</time>
      </trkpt>
      <trkpt lat="42.74468" lon="-0.31579">
        <time>2022-07-30T08:51:35Z</time>
      </trkpt>
      <trkpt lat="42.74455" lon="-0.3158">
        <time>2022-07-30T08:51:36Z</time>
      </trkpt>
      <trkpt lat="42.74442" lon="-0.3158">
        <time>2022-07-30T08:51:37Z</time>
      </trkpt>
      <trkpt lat="42.74428" lon="-0.3158">
        <time>2022-07-30T08:51:38Z</time>
      </trkpt>
      <trkpt lat="42.74414" lon="-0.3158">
        <time>2022-07-30T08:51:39Z</time>
      </trkpt>
      <trkpt lat="42.74401" lon="-0.31578">
        <time>2022-07-30T08:51:40Z</time>
      </trkpt>
      <trkpt lat="42.74387" lon="-0.31575">
        <time>2022-07-30T08:51:41Z</time>
      </trkpt>
      <trkpt lat="42.74373" lon="-0.31571">
        <time>2022-07-30T08:51:42Z</time>
      </trkpt>
      <trkpt lat="42.7436" lon="-0.31566">
        <time>2022-07-30T08:51:43Z</time>
      </trkpt>
      <trkpt lat="42.74348" lon="-0.31559">
        <time>2022-07-30T08:51:44Z</time>
      </trkpt>
      <trkpt lat="42.74335" lon="-0.31551">
        <time>2022-07-30T08:51:45Z</time>
      </trkpt>
      <trkpt lat="42.74323" lon="-0.31543">
        <time>2022-07-30T08:51:46Z</time>
      </trkpt>
      <trkpt lat="42.74311" lon="-0.31534">
        <time>2022-07-30T08:51:47Z</time>
      </trkpt>
      <trkpt lat="42.74299" lon="-0.31526">
        <time>2022-07-30T08:51:48Z</time>
      </trkpt>
      <trkpt lat="42.74287" lon="-0.31519">
        <time>2022-07-30T08:51:49Z</time>
      </trkpt>
      <trkpt lat="42.74274" lon="-0.31515">
        <time>2022-07-30T08:51:50Z</time>
      </trkpt>
      <trkpt lat="42.74261" lon="-0.31514">
        <time>2022-07-30T08:51:51Z</time>
      </trkpt>
      <trkpt lat="42.74248" lon="-0.31516">
        <time>2022-07-30T08:51:52Z</time>
      </trkpt>
      <trkpt lat="42.74236" lon="-0.31517">
        <time>2022-07-30T08:51:53Z</time>
      </trkpt>
      <trkpt lat="42.74224" lon="-0.31519">
        <time>2022-07-30T08:51:54Z</time>
      </trkpt>
      <trkpt lat="42.74212" lon="-0.31523">
        <time>2022-07-30T08:51:55Z</time>
      </trkpt>
      <trkpt lat="42.73775" lon="-0.31793">
        <time>2022-07-30T08:52:33Z</time>
      </trkpt>
      <trkpt lat="42.73758" lon="-0.31768">
        <time>2022-07-30T08:52:34Z</time>
      </trkpt>
      <trkpt lat="42.73745" lon="-0.3175">
        <time>2022-07-30T08:52:35Z</time>
      </trkpt>
      <trkpt lat="42.7374" lon="-0.31737">
        <time>2022-07-30T08:52:36Z</time>
      </trkpt>
      <trkpt lat="42.73736" lon="-0.31723">
        <time>2022-07-30T08:52:37Z</time>
      </trkpt>
      <trkpt lat="42.73733" lon="-0.3171">
        <time>2022-07-30T08:52:38Z</time>
      </trkpt>
      <trkpt lat="42.7373" lon="-0.31697">
        <time>2022-07-30T08:52:39Z</time>
      </trkpt>
      <trkpt lat="42.73728" lon="-0.31683">
        <time>2022-07-30T08:52:40Z</time>
      </trkpt>
      <trkpt lat="42.73726" lon="-0.31671">
        <time>2022-07-30T08:52:41Z</time>
      </trkpt>
      <trkpt lat="42.73723" lon="-0.31658">
        <time>2022-07-30T08:52:42Z</time>
      </trkpt>
      <trkpt lat="42.73721" lon="-0.31646">
        <time>2022-07-30T08:52:43Z</time>
      </trkpt>
      <trkpt lat="42.73717" lon="-0.31635">
        <time>2022-07-30T08:52:44Z</time>
      </trkpt>
      <trkpt lat="42.73713" lon="-0.31625">
        <time>2022-07-30T08:52:45Z</time>
      </trkpt>
      <trkpt lat="42.73709" lon="-0.31615">
        <time>2022-07-30T08:52:46Z</time>
      </trkpt>
      <trkpt lat="42.73703" lon="-0.31605">
        <time>2022-07-30T08:52:47Z</time>
      </trkpt>
      <trkpt lat="42.73698" lon="-0.31596">
        <time>2022-07-30T08:52:48Z</time>
      </trkpt>
      <trkpt lat="42.73692" lon="-0.31587">
        <time>2022-07-30T08:52:49Z</time>
      </trkpt>
      <trkpt lat="42.73686" lon="-0.31577">
        <time>2022-07-30T08:52:50Z</time>
      </trkpt>
      <trkpt lat="42.7368" lon="-0.31567">
        <time>2022-07-30T08:52:51Z</time>
      </trkpt>
      <trkpt lat="42.73674" lon="-0.31557">
        <time>2022-07-30T08:52:52Z</time>
      </trkpt>
      <trkpt lat="42.73668" lon="-0.31546">
        <time>2022-07-30T08:52:53Z</time>
      </trkpt>
      <trkpt lat="42.73662" lon="-0.31536">
        <time>2022-07-30T08:52:54Z</time>
      </trkpt>
      <trkpt lat="42.73655" lon="-0.31525">
        <time>2022-07-30T08:52:55Z</time>
      </trkpt>
      <trkpt lat="42.73649" lon="-0.31515">
        <time>2022-07-30T08:52:56Z</time>
      </trkpt>
      <trkpt lat="42.73642" lon="-0.31504">
        <time>2022-07-30T08:52:57Z</time>
      </trkpt>
      <trkpt lat="42.73636" lon="-0.31494">
        <time>2022-07-30T08:52:58Z</time>
      </trkpt>
      <trkpt lat="42.7363" lon="-0.31483">
        <time>2022-07-30T08:52:59Z</time>
      </trkpt>
      <trkpt lat="42.73625" lon="-0.31472">
        <time>2022-07-30T08:53:00Z</time>
      </trkpt>
      <trkpt lat="42.73619" lon="-0.31461">
        <time>2022-07-30T08:53:01Z</time>
      </trkpt>
      <trkpt lat="42.73614" lon="-0.31449">
        <time>2022-07-30T08:53:02Z</time>
      </trkpt>
      <trkpt lat="42.73608" lon="-0.31438">
        <time>2022-07-30T08:53:03Z</time>
      </trkpt>
      <trkpt lat="42.73604" lon="-0.31427">
        <time>2022-07-30T08:53:04Z</time>
      </trkpt>
      <trkpt lat="42.73599" lon="-0.31416">
        <time>2022-07-30T08:53:05Z</time>
      </trkpt>
      <trkpt lat="42.73594" lon="-0.31404">
        <time>2022-07-30T08:53:06Z</time>
      </trkpt>
      <trkpt lat="42.7359" lon="-0.31392">
        <time>2022-07-30T08:53:07Z</time>
      </trkpt>
      <trkpt lat="42.73587" lon="-0.3138">
        <time>2022-07-30T08:53:08Z</time>
      </trkpt>
      <trkpt lat="42.73583" lon="-0.31366">
        <time>2022-07-30T08:53:09Z</time>
      </trkpt>
      <trkpt lat="42.73581" lon="-0.31352">
        <time>2022-07-30T08:53:10Z</time>
      </trkpt>
      <trkpt lat="42.73579" lon="-0.31339">
        <time>2022-07-30T08:53:11Z</time>
      </trkpt>
      <trkpt lat="42.73576" lon="-0.31325">
        <time>2022-07-30T08:53:12Z</time>
      </trkpt>
      <trkpt lat="42.73573" lon="-0.31311">
        <time>2022-07-30T08:53:13Z</time>
      </trkpt>
      <trkpt lat="42.73571" lon="-0.31298">
        <time>2022-07-30T08:53:14Z</time>
      </trkpt>
      <trkpt lat="42.73568" lon="-0.31286">
        <time>2022-07-30T08:53:15Z</time>
      </trkpt>
      <trkpt lat="42.73564" lon="-0.31274">
        <time>2022-07-30T08:53:16Z</time>
      </trkpt>
      <trkpt lat="42.7356" lon="-0.31262">
        <time>2022-07-30T08:53:17Z</time>
      </trkpt>
      <trkpt lat="42.73555" lon="-0.31252">
        <time>2022-07-30T08:53:18Z</time>
      </trkpt>
      <trkpt lat="42.73549" lon="-0.31241">
        <time>2022-07-30T08:53:19Z</time>
      </trkpt>
      <trkpt lat="42.73541" lon="-0.31232">
        <time>2022-07-30T08:53:20Z</time>
      </trkpt>
      <trkpt lat="42.73533" lon="-0.31225">
        <time>2022-07-30T08:53:21Z</time>
      </trkpt>
      <trkpt lat="42.73523" lon="-0.31219">
        <time>2022-07-30T08:53:22Z</time>
      </trkpt>
      <trkpt lat="42.73513" lon="-0.31215">
        <time>2022-07-30T08:53:23Z</time>
      </trkpt>
      <trkpt lat="42.73503" lon="-0.31212">
        <time>2022-07-30T08:53:24Z</time>
      </trkpt>
      <trkpt lat="42.73492" lon="-0.31211">
        <time>2022-07-30T08:53:25Z</time>
      </trkpt>
      <trkpt lat="42.73481" lon="-0.31212">
        <time>2022-07-30T08:53:26Z</time>
      </trkpt>
      <trkpt lat="42.7347" lon="-0.31213">
        <time>2022-07-30T08:53:27Z</time>
      </trkpt>
      <trkpt lat="42.73459" lon="-0.31214">
        <time>2022-07-30T08:53:28Z</time>
      </trkpt>
      <trkpt lat="42.73449" lon="-0.31215">
        <time>2022-07-30T08:53:29Z</time>
      </trkpt>
      <trkpt lat="42.73438" lon="-0.31216">
        <time>2022-07-30T08:53:30Z</time>
      </trkpt>
      <trkpt lat="42.73428" lon="-0.31217">
        <time>2022-07-30T08:53:31Z</time>
      </trkpt>
      <trkpt lat="42.73418" lon="-0.31217">
        <time>2022-07-30T08:53:32Z</time>
      </trkpt>
      <trkpt lat="42.73407" lon="-0.31217">
        <time>2022-07-30T08:53:33Z</time>
      </trkpt>
      <trkpt lat="42.73397" lon="-0.31216">
        <time>2022-07-30T08:53:34Z</time>
      </trkpt>
      <trkpt lat="42.73386" lon="-0.31213">
        <time>2022-07-30T08:53:35Z</time>
      </trkpt>
      <trkpt lat="42.73376" lon="-0.31211">
        <time>2022-07-30T08:53:36Z</time>
      </trkpt>
      <trkpt lat="42.73366" lon="-0.31208">
        <time>2022-07-30T08:53:37Z</time>
      </trkpt>
      <trkpt lat="42.73355" lon="-0.31205">
        <time>2022-07-30T08:53:38Z</time>
      </trkpt>
      <trkpt lat="42.73345" lon="-0.31202">
        <time>2022-07-30T08:53:39Z</time>
      </trkpt>
      <trkpt lat="42.73335" lon="-0.31198">
        <time>2022-07-30T08:53:40Z</time>
      </trkpt>
      <trkpt lat="42.73325" lon="-0.31194">
        <time>2022-07-30T08:53:41Z</time>
      </trkpt>
      <trkpt lat="42.73317" lon="-0.3119">
        <time>2022-07-30T08:53:42Z</time>
      </trkpt>
      <trkpt lat="42.7331" lon="-0.31187">
        <time>2022-07-30T08:53:43Z</time>
      </trkpt>
      <trkpt lat="42.73304" lon="-0.31183">
        <time>2022-07-30T08:53:44Z</time>
      </trkpt>
      <trkpt lat="42.73298" lon="-0.31178">
        <time>2022-07-30T08:53:45Z</time>
      </trkpt>
      <trkpt lat="42.73292" lon="-0.31175">
        <time>2022-07-30T08:53:46Z</time>
      </trkpt>
      <trkpt lat="42.73286" lon="-0.3117">
        <time>2022-07-30T08:53:47Z</time>
      </trkpt>
      <trkpt lat="42.73279" lon="-0.31166">
        <time>2022-07-30T08:53:48Z</time>
      </trkpt>
      <trkpt lat="42.73272" lon="-0.31161">
        <time>2022-07-30T08:53:49Z</time>
      </trkpt>
      <trkpt lat="42.73265" lon="-0.31156">
        <time>2022-07-30T08:53:50Z</time>
      </trkpt>
      <trkpt lat="42.73258" lon="-0.31151">
        <time>2022-07-30T08:53:51Z</time>
      </trkpt>
      <trkpt lat="42.7325" lon="-0.31146">
        <time>2022-07-30T08:53:52Z</time>
      </trkpt>
      <trkpt lat="42.73243" lon="-0.31141">
        <time>2022-07-30T08:53:53Z</time>
      </trkpt>
      <trkpt lat="42.73235" lon="-0.31135">
        <time>2022-07-30T08:53:54Z</time>
      </trkpt>
      <trkpt lat="42.73227" lon="-0.31129">
        <time>2022-07-30T08:53:55Z</time>
      </trkpt>
      <trkpt lat="42.7322" lon="-0.31123">
        <time>2022-07-30T08:53:56Z</time>
      </trkpt>
      <trkpt lat="42.73212" lon="-0.31118">
        <time>2022-07-30T08:53:57Z</time>
      </trkpt>
      <trkpt lat="42.73204" lon="-0.31112">
        <time>2022-07-30T08:53:58Z</time>
      </trkpt>
      <trkpt lat="42.73196" lon="-0.31107">
        <time>2022-07-30T08:53:59Z</time>
      </trkpt>
      <trkpt lat="42.73188" lon="-0.31101">
        <time>2022-07-30T08:54:00Z</time>
      </trkpt>
      <trkpt lat="42.7318" lon="-0.31095">
        <time>2022-07-30T08:54:01Z</time>
      </trkpt>
      <trkpt lat="42.73173" lon="-0.3109">
        <time>2022-07-30T08:54:02Z</time>
      </trkpt>
      <trkpt lat="42.73164" lon="-0.31084">
        <time>2022-07-30T08:54:03Z</time>
      </trkpt>
      <trkpt lat="42.73157" lon="-0.31078">
        <time>2022-07-30T08:54:04Z</time>
      </trkpt>
      <trkpt lat="42.73148" lon="-0.31072">
        <time>2022-07-30T08:54:05Z</time>
      </trkpt>
      <trkpt lat="42.73139" lon="-0.31066">
        <time>2022-07-30T08:54:06Z</time>
      </trkpt>
      <trkpt lat="42.73129" lon="-0.31059">
        <time>2022-07-30T08:54:07Z</time>
      </trkpt>
      <trkpt lat="42.73118" lon="-0.31051">
        <time>2022-07-30T08:54:08Z</time>
      </trkpt>
      <trkpt lat="42.73108" lon="-0.31043">
        <time>2022-07-30T08:54:09Z</time>
      </trkpt>
      <trkpt lat="42.73097" lon="-0.31034">
        <time>2022-07-30T08:54:10Z</time>
      </trkpt>
      <trkpt lat="42.73085" lon="-0.31024">
        <time>2022-07-30T08:54:11Z</time>
      </trkpt>
      <trkpt lat="42.73074" lon="-0.31013">
        <time>2022-07-30T08:54:12Z</time>
      </trkpt>
      <trkpt lat="42.73063" lon="-0.31002">
        <time>2022-07-30T08:54:13Z</time>
      </trkpt>
      <trkpt lat="42.73052" lon="-0.30991">
        <time>2022-07-30T08:54:14Z</time>
      </trkpt>
      <trkpt lat="42.73041" lon="-0.3098">
        <time>2022-07-30T08:54:15Z</time>
      </trkpt>
      <trkpt lat="42.73029" lon="-0.30969">
        <time>2022-07-30T08:54:16Z</time>
      </trkpt>
      <trkpt lat="42.73017" lon="-0.30961">
        <time>2022-07-30T08:54:17Z</time>
      </trkpt>
      <trkpt lat="42.73003" lon="-0.30954">
        <time>2022-07-30T08:54:18Z</time>
      </trkpt>
      <trkpt lat="42.7299" lon="-0.3095">
        <time>2022-07-30T08:54:19Z</time>
      </trkpt>
      <trkpt lat="42.72976" lon="-0.30949">
        <time>2022-07-30T08:54:20Z</time>
      </trkpt>
      <trkpt lat="42.72962" lon="-0.3095">
        <time>2022-07-30T08:54:21Z</time>
      </trkpt>
      <trkpt lat="42.72948" lon="-0.30953">
        <time>2022-07-30T08:54:22Z</time>
      </trkpt>
      <trkpt lat="42.72934" lon="-0.30956">
        <time>2022-07-30T08:54:23Z</time>
      </trkpt>
      <trkpt lat="42.72919" lon="-0.30957">
        <time>2022-07-30T08:54:24Z</time>
      </trkpt>
      <trkpt lat="42.72905" lon="-0.30956">
        <time>2022-07-30T08:54:25Z</time>
      </trkpt>
      <trkpt lat="42.7289" lon="-0.30951">
        <time>2022-07-30T08:54:26Z</time>
      </trkpt>
      <trkpt lat="42.72877" lon="-0.30942">
        <time>2022-07-30T08:54:27Z</time>
      </trkpt>
      <trkpt lat="42.72865" lon="-0.30931">
        <time>2022-07-30T08:54:28Z</time>
      </trkpt>
      <trkpt lat="42.72854" lon="-0.30918">
        <time>2022-07-30T08:54:29Z</time>
      </trkpt>
      <trkpt lat="42.72845" lon="-0.30902">
        <time>2022-07-30T08:54:30Z</time>
      </trkpt>
      <trkpt lat="42.72837" lon="-0.30886">
        <time>2022-07-30T08:54:31Z</time>
      </trkpt>
      <trkpt lat="42.72829" lon="-0.3087">
        <time>2022-07-30T08:54:32Z</time>
      </trkpt>
      <trkpt lat="42.72821" lon="-0.30855">
        <time>2022-07-30T08:54:33Z</time>
      </trkpt>
      <trkpt lat="42.72813" lon="-0.3084">
        <time>2022-07-30T08:54:34Z</time>
      </trkpt>
      <trkpt lat="42.72804" lon="-0.30825">
        <time>2022-07-30T08:54:35Z</time>
      </trkpt>
      <trkpt lat="42.72796" lon="-0.3081">
        <time>2022-07-30T08:54:36Z</time>
      </trkpt>
      <trkpt lat="42.72787" lon="-0.30796">
        <time>2022-07-30T08:54:37Z</time>
      </trkpt>
      <trkpt lat="42.72777" lon="-0.30784">
        <time>2022-07-30T08:54:38Z</time>
      </trkpt>
      <trkpt lat="42.72765" lon="-0.30772">
        <time>2022-07-30T08:54:39Z</time>
      </trkpt>
      <trkpt lat="42.72752" lon="-0.30763">
        <time>2022-07-30T08:54:40Z</time>
      </trkpt>
      <trkpt lat="42.72737" lon="-0.30754">
        <time>2022-07-30T08:54:41Z</time>
      </trkpt>
      <trkpt lat="42.72722" lon="-0.30748">
        <time>2022-07-30T08:54:42Z</time>
      </trkpt>
      <trkpt lat="42.72705" lon="-0.30742">
        <time>2022-07-30T08:54:43Z</time>
      </trkpt>
      <trkpt lat="42.7269" lon="-0.30736">
        <time>2022-07-30T08:54:44Z</time>
      </trkpt>
      <trkpt lat="42.72674" lon="-0.3073">
        <time>2022-07-30T08:54:45Z</time>
      </trkpt>
      <trkpt lat="42.72657" lon="-0.30724">
        <time>2022-07-30T08:54:46Z</time>
      </trkpt>
      <trkpt lat="42.7264" lon="-0.30718">
        <time>2022-07-30T08:54:47Z</time>
      </trkpt>
      <trkpt lat="42.72623" lon="-0.30714">
        <time>2022-07-30T08:54:48Z</time>
      </trkpt>
      <trkpt lat="42.72605" lon="-0.3071">
        <time>2022-07-30T08:54:49Z</time>
      </trkpt>
      <trkpt lat="42.72587" lon="-0.30707">
        <time>2022-07-30T08:54:50Z</time>
      </trkpt>
      <trkpt lat="42.72568" lon="-0.30705">
        <time>2022-07-30T08:54:51Z</time>
      </trkpt>
      <trkpt lat="42.72548" lon="-0.30701">
        <time>2022-07-30T08:54:52Z</time>
      </trkpt>
      <trkpt lat="42.72529" lon="-0.30698">
        <time>2022-07-30T08:54:53Z</time>
      </trkpt>
      <trkpt lat="42.7251" lon="-0.30694">
        <time>2022-07-30T08:54:54Z</time>
      </trkpt>
      <trkpt lat="42.72491" lon="-0.30689">
        <time>2022-07-30T08:54:55Z</time>
      </trkpt>
      <trkpt lat="42.72473" lon="-0.30685">
        <time>2022-07-30T08:54:56Z</time>
      </trkpt>
      <trkpt lat="42.72454" lon="-0.3068">
        <time>2022-07-30T08:54:57Z</time>
      </trkpt>
      <trkpt lat="42.72437" lon="-0.30676">
        <time>2022-07-30T08:54:58Z</time>
      </trkpt>
      <trkpt lat="42.72419" lon="-0.30673">
        <time>2022-07-30T08:54:59Z</time>
      </trkpt>
      <trkpt lat="42.72401" lon="-0.30669">
        <time>2022-07-30T08:55:00Z</time>
      </trkpt>
      <trkpt lat="42.72383" lon="-0.30666">
        <time>2022-07-30T08:55:01Z</time>
      </trkpt>
      <trkpt lat="42.72365" lon="-0.30663">
        <time>2022-07-30T08:55:02Z</time>
      </trkpt>
      <trkpt lat="42.72347" lon="-0.3066">
        <time>2022-07-30T08:55:03Z</time>
      </trkpt>
      <trkpt lat="42.72329" lon="-0.30657">
        <time>2022-07-30T08:55:04Z</time>
      </trkpt>
      <trkpt lat="42.7231" lon="-0.30654">
        <time>2022-07-30T08:55:05Z</time>
      </trkpt>
      <trkpt lat="42.72291" lon="-0.30652">
        <time>2022-07-30T08:55:06Z</time>
      </trkpt>
      <trkpt lat="42.72272" lon="-0.3065">
        <time>2022-07-30T08:55:07Z</time>
      </trkpt>
      <trkpt lat="42.72253" lon="-0.30648">
        <time>2022-07-30T08:55:08Z</time>
      </trkpt>
      <trkpt lat="42.72234" lon="-0.30646">
        <time>2022-07-30T08:55:09Z</time>
      </trkpt>
      <trkpt lat="42.72214" lon="-0.30644">
        <time>2022-07-30T08:55:10Z</time>
      </trkpt>
      <trkpt lat="42.72194" lon="-0.30642">
        <time>2022-07-30T08:55:11Z</time>
      </trkpt>
      <trkpt lat="42.72174" lon="-0.3064">
        <time>2022-07-30T08:55:12Z</time>
      </trkpt>
      <trkpt lat="42.72154" lon="-0.30638">
        <time>2022-07-30T08:55:13Z</time>
      </trkpt>
      <trkpt lat="42.72133" lon="-0.30636">
        <time>2022-07-30T08:55:14Z</time>
      </trkpt>
      <trkpt lat="42.72111" lon="-0.30634">
        <time>2022-07-30T08:55:15Z</time>
      </trkpt>
      <trkpt lat="42.7209" lon="-0.30632">
        <time>2022-07-30T08:55:16Z</time>
      </trkpt>
      <trkpt lat="42.7207" lon="-0.3063">
        <time>2022-07-30T08:55:17Z</time>
      </trkpt>
      <trkpt lat="42.72049" lon="-0.30628">
        <time>2022-07-30T08:55:18Z</time>
      </trkpt>
      <trkpt lat="42.72029" lon="-0.30626">
        <time>2022-07-30T08:55:19Z</time>
      </trkpt>
      <trkpt lat="42.72009" lon="-0.30623">
        <time>2022-07-30T08:55:20Z</time>
      </trkpt>
      <trkpt lat="42.71988" lon="-0.30621">
        <time>2022-07-30T08:55:21Z</time>
      </trkpt>
      <trkpt lat="42.71968" lon="-0.3062">
        <time>2022-07-30T08:55:22Z</time>
      </trkpt>
      <trkpt lat="42.71948" lon="-0.30618">
        <time>2022-07-30T08:55:23Z</time>
      </trkpt>
      <trkpt lat="42.71928" lon="-0.30617">
        <time>2022-07-30T08:55:24Z</time>
      </trkpt>
      <trkpt lat="42.71909" lon="-0.30615">
        <time>2022-07-30T08:55:25Z</time>
      </trkpt>
      <trkpt lat="42.71889" lon="-0.30616">
        <time>2022-07-30T08:55:26Z</time>
      </trkpt>
      <trkpt lat="42.7187" lon="-0.30618">
        <time>2022-07-30T08:55:27Z</time>
      </trkpt>
      <trkpt lat="42.71852" lon="-0.30622">
        <time>2022-07-30T08:55:28Z</time>
      </trkpt>
      <trkpt lat="42.71834" lon="-0.30628">
        <time>2022-07-30T08:55:29Z</time>
      </trkpt>
      <trkpt lat="42.71817" lon="-0.30635">
        <time>2022-07-30T08:55:30Z</time>
      </trkpt>
      <trkpt lat="42.718" lon="-0.30645">
        <time>2022-07-30T08:55:31Z</time>
      </trkpt>
      <trkpt lat="42.71785" lon="-0.30657">
        <time>2022-07-30T08:55:32Z</time>
      </trkpt>
      <trkpt lat="42.71769" lon="-0.3067">
        <time>2022-07-30T08:55:33Z</time>
      </trkpt>
      <trkpt lat="42.71755" lon="-0.30685">
        <time>2022-07-30T08:55:34Z</time>
      </trkpt>
      <trkpt lat="42.71742" lon="-0.30701">
        <time>2022-07-30T08:55:35Z</time>
      </trkpt>
      <trkpt lat="42.71729" lon="-0.30717">
        <time>2022-07-30T08:55:36Z</time>
      </trkpt>
      <trkpt lat="42.71717" lon="-0.30734">
        <time>2022-07-30T08:55:37Z</time>
      </trkpt>
      <trkpt lat="42.71705" lon="-0.30751">
        <time>2022-07-30T08:55:38Z</time>
      </trkpt>
      <trkpt lat="42.71694" lon="-0.30768">
        <time>2022-07-30T08:55:39Z</time>
      </trkpt>
      <trkpt lat="42.71682" lon="-0.30784">
        <time>2022-07-30T08:55:40Z</time>
      </trkpt>
      <trkpt lat="42.71671" lon="-0.30799">
        <time>2022-07-30T08:55:41Z</time>
      </trkpt>
      <trkpt lat="42.7166" lon="-0.30813">
        <time>2022-07-30T08:55:42Z</time>
      </trkpt>
      <trkpt lat="42.71648" lon="-0.30824">
        <time>2022-07-30T08:55:43Z</time>
      </trkpt>
      <trkpt lat="42.71639" lon="-0.30834">
        <time>2022-07-30T08:55:44Z</time>
      </trkpt>
      <trkpt lat="42.7163" lon="-0.30841">
        <time>2022-07-30T08:55:45Z</time>
      </trkpt>
      <trkpt lat="42.71623" lon="-0.30847">
        <time>2022-07-30T08:55:46Z</time>
      </trkpt>
      <trkpt lat="42.71617" lon="-0.30852">
        <time>2022-07-30T08:55:47Z</time>
      </trkpt>
      <trkpt lat="42.71613" lon="-0.30855">
        <time>2022-07-30T08:55:48Z</time>
      </trkpt>
      <trkpt lat="42.71609" lon="-0.30858">
        <time>2022-07-30T08:55:49Z</time>
      </trkpt>
      <trkpt lat="42.71605" lon="-0.3086">
        <time>2022-07-30T08:55:50Z</time>
      </trkpt>
      <trkpt lat="42.71603" lon="-0.30861">
        <time>2022-07-30T08:55:51Z</time>
      </trkpt>
      <trkpt lat="42.71601" lon="-0.30863">
        <time>2022-07-30T08:55:52Z</time>
      </trkpt>
      <trkpt lat="42.71599" lon="-0.30864">
        <time>2022-07-30T08:55:53Z</time>
      </trkpt>
      <trkpt lat="42.71597" lon="-0.30864">
        <time>2022-07-30T08:55:54Z</time>
      </trkpt>
      <trkpt lat="42.71596" lon="-0.30865">
        <time>2022-07-30T08:56:05Z</time>
      </trkpt>
      <trkpt lat="42.71594" lon="-0.30865">
        <time>2022-07-30T08:56:06Z</time>
      </trkpt>
      <trkpt lat="42.71592" lon="-0.30863">
        <time>2022-07-30T08:56:07Z</time>
      </trkpt>
      <trkpt lat="42.71589" lon="-0.30859">
        <time>2022-07-30T08:56:08Z</time>
      </trkpt>
      <trkpt lat="42.71587" lon="-0.30854">
        <time>2022-07-30T08:56:09Z</time>
      </trkpt>
      <trkpt lat="42.71587" lon="-0.30849">
        <time>2022-07-30T08:56:10Z</time>
      </trkpt>
      <trkpt lat="42.71588" lon="-0.30845">
        <time>2022-07-30T08:56:11Z</time>
      </trkpt>
      <trkpt lat="42.71589" lon="-0.30841">
        <time>2022-07-30T08:56:12Z</time>
      </trkpt>
      <trkpt lat="42.7159" lon="-0.30838">
        <time>2022-07-30T08:56:13Z</time>
      </trkpt>
      <trkpt lat="42.71592" lon="-0.30836">
        <time>2022-07-30T08:56:14Z</time>
      </trkpt>
      <trkpt lat="42.71593" lon="-0.30834">
        <time>2022-07-30T08:56:15Z</time>
      </trkpt>
      <trkpt lat="42.71594" lon="-0.30833">
        <time>2022-07-30T08:56:16Z</time>
      </trkpt>
      <trkpt lat="42.71596" lon="-0.30831">
        <time>2022-07-30T08:56:17Z</time>
      </trkpt>
      <trkpt lat="42.71598" lon="-0.3083">
        <time>2022-07-30T08:56:18Z</time>
      </trkpt>
      <trkpt lat="42.71599" lon="-0.3083">
        <time>2022-07-30T08:56:19Z</time>
      </trkpt>
      <trkpt lat="42.716" lon="-0.3083">
        <time>2022-07-30T08:56:20Z</time>
      </trkpt>
      <trkpt lat="42.71601" lon="-0.30829">
        <time>2022-07-30T08:56:21Z</time>
      </trkpt>
      <trkpt lat="42.71602" lon="-0.30829">
        <time>2022-07-30T08:56:22Z</time>
      </trkpt>
      <trkpt lat="42.71606" lon="-0.30828">
        <time>2022-07-30T08:56:23Z</time>
      </trkpt>
      <trkpt lat="42.71609" lon="-0.30829">
        <time>2022-07-30T08:56:24Z</time>
      </trkpt>
      <trkpt lat="42.71611" lon="-0.30832">
        <time>2022-07-30T08:56:25Z</time>
      </trkpt>
      <trkpt lat="42.71611" lon="-0.30836">
        <time>2022-07-30T08:56:26Z</time>
      </trkpt>
      <trkpt lat="42.71609" lon="-0.3084">
        <time>2022-07-30T08:56:27Z</time>
      </trkpt>
      <trkpt lat="42.71607" lon="-0.30843">
        <time>2022-07-30T08:56:28Z</time>
      </trkpt>
      <trkpt lat="42.71605" lon="-0.30845">
        <time>2022-07-30T08:56:29Z</time>
      </trkpt>
      <trkpt lat="42.71602" lon="-0.30847">
        <time>2022-07-30T08:56:30Z</time>
      </trkpt>
      <trkpt lat="42.716" lon="-0.30846">
        <time>2022-07-30T08:56:31Z</time>
      </trkpt>
      <trkpt lat="42.71598" lon="-0.30845">
        <time>2022-07-30T08:56:32Z</time>
      </trkpt>
      <trkpt lat="42.71588" lon="-0.3085">
        <time>2022-07-30T08:58:19Z</time>
      </trkpt>
      <trkpt lat="42.71587" lon="-0.30848">
        <time>2022-07-30T08:58:20Z</time>
      </trkpt>
      <trkpt lat="42.71586" lon="-0.30847">
        <time>2022-07-30T08:58:21Z</time>
      </trkpt>
      <trkpt lat="42.71587" lon="-0.30844">
        <time>2022-07-30T08:58:22Z</time>
      </trkpt>
      <trkpt lat="42.71588" lon="-0.30841">
        <time>2022-07-30T08:58:23Z</time>
      </trkpt>
      <trkpt lat="42.7159" lon="-0.30839">
        <time>2022-07-30T08:58:24Z</time>
      </trkpt>
      <trkpt lat="42.71592" lon="-0.30837">
        <time>2022-07-30T08:58:25Z</time>
      </trkpt>
      <trkpt lat="42.71594" lon="-0.30835">
        <time>2022-07-30T08:58:26Z</time>
      </trkpt>
      <trkpt lat="42.71596" lon="-0.30833">
        <time>2022-07-30T08:58:27Z</time>
      </trkpt>
      <trkpt lat="42.71598" lon="-0.30831">
        <time>2022-07-30T08:58:28Z</time>
      </trkpt>
      <trkpt lat="42.71601" lon="-0.3083">
        <time>2022-07-30T08:58:29Z</time>
      </trkpt>
      <trkpt lat="42.71615" lon="-0.30827">
        <time>2022-07-30T09:05:22Z</time>
      </trkpt>
      <trkpt lat="42.71616" lon="-0.30829">
        <time>2022-07-30T09:05:23Z</time>
      </trkpt>
      <trkpt lat="42.71616" lon="-0.30833">
        <time>2022-07-30T09:05:24Z</time>
      </trkpt>
      <trkpt lat="42.71616" lon="-0.30836">
        <time>2022-07-30T09:05:25Z</time>
      </trkpt>
      <trkpt lat="42.71616" lon="-0.30839">
        <time>2022-07-30T09:05:26Z</time>
      </trkpt>
      <trkpt lat="42.71616" lon="-0.30841">
        <time>2022-07-30T09:05:27Z</time>
      </trkpt>
      <trkpt lat="42.71617" lon="-0.30844">
        <time>2022-07-30T09:05:28Z</time>
      </trkpt>
      <trkpt lat="42.71616" lon="-0.30847">
        <time>2022-07-30T09:05:29Z</time>
      </trkpt>
      <trkpt lat="42.71614" lon="-0.30853">
        <time>2022-07-30T09:05:30Z</time>
      </trkpt>
      <trkpt lat="42.71607" lon="-0.30859">
        <time>2022-07-30T09:05:31Z</time>
      </trkpt>
      <trkpt lat="42.716" lon="-0.30864">
        <time>2022-07-30T09:05:32Z</time>
      </trkpt>
      <trkpt lat="42.71592" lon="-0.3087">
        <time>2022-07-30T09:05:33Z</time>
      </trkpt>
      <trkpt lat="42.71582" lon="-0.30877">
        <time>2022-07-30T09:05:34Z</time>
      </trkpt>
      <trkpt lat="42.7157" lon="-0.30884">
        <time>2022-07-30T09:05:35Z</time>
      </trkpt>
      <trkpt lat="42.71559" lon="-0.30891">
        <time>2022-07-30T09:05:36Z</time>
      </trkpt>
      <trkpt lat="42.71547" lon="-0.309">
        <time>2022-07-30T09:05:37Z</time>
      </trkpt>
      <trkpt lat="42.71534" lon="-0.30908">
        <time>2022-07-30T09:05:38Z</time>
      </trkpt>
      <trkpt lat="42.7152" lon="-0.30918">
        <time>2022-07-30T09:05:39Z</time>
      </trkpt>
      <trkpt lat="42.71506" lon="-0.30927">
        <time>2022-07-30T09:05:40Z</time>
      </trkpt>
      <trkpt lat="42.71492" lon="-0.30937">
        <time>2022-07-30T09:05:41Z</time>
      </trkpt>
      <trkpt lat="42.71477" lon="-0.30947">
        <time>2022-07-30T09:05:42Z</time>
      </trkpt>
      <trkpt lat="42.71462" lon="-0.30957">
        <time>2022-07-30T09:05:43Z</time>
      </trkpt>
      <trkpt lat="42.71447" lon="-0.30968">
        <time>2022-07-30T09:05:44Z</time>
      </trkpt>
      <trkpt lat="42.71432" lon="-0.30981">
        <time>2022-07-30T09:05:45Z</time>
      </trkpt>
      <trkpt lat="42.71419" lon="-0.30997">
        <time>2022-07-30T09:05:46Z</time>
      </trkpt>
      <trkpt lat="42.71408" lon="-0.31015">
        <time>2022-07-30T09:05:47Z</time>
      </trkpt>
      <trkpt lat="42.71398" lon="-0.31033">
        <time>2022-07-30T09:05:48Z</time>
      </trkpt>
      <trkpt lat="42.71389" lon="-0.31051">
        <time>2022-07-30T09:05:49Z</time>
      </trkpt>
      <trkpt lat="42.71378" lon="-0.31068">
        <time>2022-07-30T09:05:50Z</time>
      </trkpt>
      <trkpt lat="42.71366" lon="-0.31084">
        <time>2022-07-30T09:05:51Z</time>
      </trkpt>
      <trkpt lat="42.71351" lon="-0.31096">
        <time>2022-07-30T09:05:52Z</time>
      </trkpt>
      <trkpt lat="42.71336" lon="-0.31106">
        <time>2022-07-30T09:05:53Z</time>
      </trkpt>
      <trkpt lat="42.71321" lon="-0.31112">
        <time>2022-07-30T09:05:54Z</time>
      </trkpt>
      <trkpt lat="42.71304" lon="-0.31115">
        <time>2022-07-30T09:05:55Z</time>
      </trkpt>
      <trkpt lat="42.71287" lon="-0.31115">
        <time>2022-07-30T09:05:56Z</time>
      </trkpt>
      <trkpt lat="42.71269" lon="-0.3111">
        <time>2022-07-30T09:05:57Z</time>
      </trkpt>
      <trkpt lat="42.71252" lon="-0.31103">
        <time>2022-07-30T09:05:58Z</time>
      </trkpt>
      <trkpt lat="42.71237" lon="-0.31093">
        <time>2022-07-30T09:05:59Z</time>
      </trkpt>
      <trkpt lat="42.7122" lon="-0.31081">
        <time>2022-07-30T09:06:00Z</time>
      </trkpt>
      <trkpt lat="42.71204" lon="-0.3107">
        <time>2022-07-30T09:06:01Z</time>
      </trkpt>
      <trkpt lat="42.71187" lon="-0.31059">
        <time>2022-07-30T09:06:02Z</time>
      </trkpt>
      <trkpt lat="42.7117" lon="-0.3105">
        <time>2022-07-30T09:06:03Z</time>
      </trkpt>
      <trkpt lat="42.71153" lon="-0.31042">
        <time>2022-07-30T09:06:04Z</time>
      </trkpt>
      <trkpt lat="42.71136" lon="-0.31037">
        <time>2022-07-30T09:06:05Z</time>
      </trkpt>
      <trkpt lat="42.71117" lon="-0.31034">
        <time>2022-07-30T09:06:06Z</time>
      </trkpt>
      <trkpt lat="42.71098" lon="-0.31033">
        <time>2022-07-30T09:06:07Z</time>
      </trkpt>
      <trkpt lat="42.71079" lon="-0.31035">
        <time>2022-07-30T09:06:08Z</time>
      </trkpt>
      <trkpt lat="42.71059" lon="-0.31039">
        <time>2022-07-30T09:06:09Z</time>
      </trkpt>
      <trkpt lat="42.7104" lon="-0.31044">
        <time>2022-07-30T09:06:10Z</time>
      </trkpt>
      <trkpt lat="42.7102" lon="-0.31053">
        <time>2022-07-30T09:06:11Z</time>
      </trkpt>
      <trkpt lat="42.71" lon="-0.31064">
        <time>2022-07-30T09:06:12Z</time>
      </trkpt>
      <trkpt lat="42.7098" lon="-0.31076">
        <time>2022-07-30T09:06:13Z</time>
      </trkpt>
      <trkpt lat="42.7096" lon="-0.31088">
        <time>2022-07-30T09:06:14Z</time>
      </trkpt>
      <trkpt lat="42.70939" lon="-0.311">
        <time>2022-07-30T09:06:15Z</time>
      </trkpt>
      <trkpt lat="42.70919" lon="-0.31112">
        <time>2022-07-30T09:06:16Z</time>
      </trkpt>
      <trkpt lat="42.70898" lon="-0.31125">
        <time>2022-07-30T09:06:17Z</time>
      </trkpt>
      <trkpt lat="42.70878" lon="-0.31138">
        <time>2022-07-30T09:06:18Z</time>
      </trkpt>
      <trkpt lat="42.70858" lon="-0.31149">
        <time>2022-07-30T09:06:19Z</time>
      </trkpt>
      <trkpt lat="42.70838" lon="-0.3116">
        <time>2022-07-30T09:06:20Z</time>
      </trkpt>
      <trkpt lat="42.7082" lon="-0.31171">
        <time>2022-07-30T09:06:21Z</time>
      </trkpt>
      <trkpt lat="42.70803" lon="-0.31182">
        <time>2022-07-30T09:06:22Z</time>
      </trkpt>
      <trkpt lat="42.70786" lon="-0.31194">
        <time>2022-07-30T09:06:23Z</time>
      </trkpt>
      <trkpt lat="42.70772" lon="-0.31209">
        <time>2022-07-30T09:06:24Z</time>
      </trkpt>
      <trkpt lat="42.70759" lon="-0.31225">
        <time>2022-07-30T09:06:25Z</time>
      </trkpt>
      <trkpt lat="42.70748" lon="-0.31243">
        <time>2022-07-30T09:06:26Z</time>
      </trkpt>
      <trkpt lat="42.7074" lon="-0.31264">
        <time>2022-07-30T09:06:27Z</time>
      </trkpt>
      <trkpt lat="42.70734" lon="-0.31286">
        <time>2022-07-30T09:06:28Z</time>
      </trkpt>
      <trkpt lat="42.70729" lon="-0.31311">
        <time>2022-07-30T09:06:29Z</time>
      </trkpt>
      <trkpt lat="42.70724" lon="-0.31337">
        <time>2022-07-30T09:06:30Z</time>
      </trkpt>
      <trkpt lat="42.70719" lon="-0.31363">
        <time>2022-07-30T09:06:31Z</time>
      </trkpt>
      <trkpt lat="42.70714" lon="-0.31389">
        <time>2022-07-30T09:06:32Z</time>
      </trkpt>
      <trkpt lat="42.70706" lon="-0.31414">
        <time>2022-07-30T09:06:33Z</time>
      </trkpt>
      <trkpt lat="42.70697" lon="-0.3144">
        <time>2022-07-30T09:06:34Z</time>
      </trkpt>
      <trkpt lat="42.70686" lon="-0.31464">
        <time>2022-07-30T09:06:35Z</time>
      </trkpt>
      <trkpt lat="42.70674" lon="-0.31487">
        <time>2022-07-30T09:06:36Z</time>
      </trkpt>
      <trkpt lat="42.7066" lon="-0.31508">
        <time>2022-07-30T09:06:37Z</time>
      </trkpt>
      <trkpt lat="42.70645" lon="-0.31527">
        <time>2022-07-30T09:06:38Z</time>
      </trkpt>
      <trkpt lat="42.70628" lon="-0.31544">
        <time>2022-07-30T09:06:39Z</time>
      </trkpt>
      <trkpt lat="42.70611" lon="-0.3156">
        <time>2022-07-30T09:06:40Z</time>
      </trkpt>
      <trkpt lat="42.70593" lon="-0.31574">
        <time>2022-07-30T09:06:41Z</time>
      </trkpt>
      <trkpt lat="42.70576" lon="-0.31589">
        <time>2022-07-30T09:06:42Z</time>
      </trkpt>
      <trkpt lat="42.70559" lon="-0.31603">
        <time>2022-07-30T09:06:43Z</time>
      </trkpt>
      <trkpt lat="42.70542" lon="-0.31617">
        <time>2022-07-30T09:06:44Z</time>
      </trkpt>
      <trkpt lat="42.70525" lon="-0.31631">
        <time>2022-07-30T09:06:45Z</time>
      </trkpt>
      <trkpt lat="42.70509" lon="-0.31645">
        <time>2022-07-30T09:06:46Z</time>
      </trkpt>
      <trkpt lat="42.70493" lon="-0.31661">
        <time>2022-07-30T09:06:47Z</time>
      </trkpt>
      <trkpt lat="42.70477" lon="-0.31678">
        <time>2022-07-30T09:06:48Z</time>
      </trkpt>
      <trkpt lat="42.70463" lon="-0.31697">
        <time>2022-07-30T09:06:49Z</time>
      </trkpt>
      <trkpt lat="42.70449" lon="-0.31719">
        <time>2022-07-30T09:06:50Z</time>
      </trkpt>
      <trkpt lat="42.70437" lon="-0.31743">
        <time>2022-07-30T09:06:51Z</time>
      </trkpt>
      <trkpt lat="42.70426" lon="-0.31768">
        <time>2022-07-30T09:06:52Z</time>
      </trkpt>
      <trkpt lat="42.70417" lon="-0.31793">
        <time>2022-07-30T09:06:53Z</time>
      </trkpt>
      <trkpt lat="42.70409" lon="-0.31819">
        <time>2022-07-30T09:06:54Z</time>
      </trkpt>
      <trkpt lat="42.70401" lon="-0.31845">
        <time>2022-07-30T09:06:55Z</time>
      </trkpt>
      <trkpt lat="42.70394" lon="-0.31871">
        <time>2022-07-30T09:06:56Z</time>
      </trkpt>
      <trkpt lat="42.70386" lon="-0.31896">
        <time>2022-07-30T09:06:57Z</time>
      </trkpt>
      <trkpt lat="42.70378" lon="-0.3192">
        <time>2022-07-30T09:06:58Z</time>
      </trkpt>
      <trkpt lat="42.70367" lon="-0.31941">
        <time>2022-07-30T09:06:59Z</time>
      </trkpt>
      <trkpt lat="42.70355" lon="-0.31961">
        <time>2022-07-30T09:07:00Z</time>
      </trkpt>
      <trkpt lat="42.70341" lon="-0.31977">
        <time>2022-07-30T09:07:01Z</time>
      </trkpt>
      <trkpt lat="42.70324" lon="-0.31989">
        <time>2022-07-30T09:07:02Z</time>
      </trkpt>
      <trkpt lat="42.70306" lon="-0.31997">
        <time>2022-07-30T09:07:03Z</time>
      </trkpt>
      <trkpt lat="42.70288" lon="-0.32001">
        <time>2022-07-30T09:07:04Z</time>
      </trkpt>
      <trkpt lat="42.70268" lon="-0.32001">
        <time>2022-07-30T09:07:05Z</time>
      </trkpt>
      <trkpt lat="42.70249" lon="-0.31999">
        <time>2022-07-30T09:07:06Z</time>
      </trkpt>
      <trkpt lat="42.70229" lon="-0.31997">
        <time>2022-07-30T09:07:07Z</time>
      </trkpt>
      <trkpt lat="42.70209" lon="-0.31993">
        <time>2022-07-30T09:07:08Z</time>
      </trkpt>
      <trkpt lat="42.70188" lon="-0.31987">
        <time>2022-07-30T09:07:09Z</time>
      </trkpt>
      <trkpt lat="42.70168" lon="-0.31982">
        <time>2022-07-30T09:07:10Z</time>
      </trkpt>
      <trkpt lat="42.70147" lon="-0.31978">
        <time>2022-07-30T09:07:11Z</time>
      </trkpt>
      <trkpt lat="42.70127" lon="-0.31973">
        <time>2022-07-30T09:07:12Z</time>
      </trkpt>
      <trkpt lat="42.70107" lon="-0.31968">
        <time>2022-07-30T09:07:13Z</time>
      </trkpt>
      <trkpt lat="42.70086" lon="-0.31964">
        <time>2022-07-30T09:07:14Z</time>
      </trkpt>
      <trkpt lat="42.70066" lon="-0.3196">
        <time>2022-07-30T09:07:15Z</time>
      </trkpt>
      <trkpt lat="42.70045" lon="-0.31956">
        <time>2022-07-30T09:07:16Z</time>
      </trkpt>
      <trkpt lat="42.70024" lon="-0.31953">
        <time>2022-07-30T09:07:17Z</time>
      </trkpt>
      <trkpt lat="42.70003" lon="-0.3195">
        <time>2022-07-30T09:07:18Z</time>
      </trkpt>
      <trkpt lat="42.69981" lon="-0.31947">
        <time>2022-07-30T09:07:19Z</time>
      </trkpt>
      <trkpt lat="42.69959" lon="-0.31945">
        <time>2022-07-30T09:07:20Z</time>
      </trkpt>
      <trkpt lat="42.69938" lon="-0.31942">
        <time>2022-07-30T09:07:21Z</time>
      </trkpt>
      <trkpt lat="42.69916" lon="-0.31938">
        <time>2022-07-30T09:07:22Z</time>
      </trkpt>
      <trkpt lat="42.69894" lon="-0.31936">
        <time>2022-07-30T09:07:23Z</time>
      </trkpt>
      <trkpt lat="42.69873" lon="-0.31933">
        <time>2022-07-30T09:07:24Z</time>
      </trkpt>
      <trkpt lat="42.69852" lon="-0.31929">
        <time>2022-07-30T09:07:25Z</time>
      </trkpt>
      <trkpt lat="42.69831" lon="-0.31925">
        <time>2022-07-30T09:07:26Z</time>
      </trkpt>
      <trkpt lat="42.69811" lon="-0.31918">
        <time>2022-07-30T09:07:27Z</time>
      </trkpt>
      <trkpt lat="42.69791" lon="-0.31909">
        <time>2022-07-30T09:07:28Z</time>
      </trkpt>
      <trkpt lat="42.69772" lon="-0.31897">
        <time>2022-07-30T09:07:29Z</time>
      </trkpt>
      <trkpt lat="42.69753" lon="-0.31885">
        <time>2022-07-30T09:07:30Z</time>
      </trkpt>
      <trkpt lat="42.69734" lon="-0.31872">
        <time>2022-07-30T09:07:31Z</time>
      </trkpt>
      <trkpt lat="42.69717" lon="-0.3186">
        <time>2022-07-30T09:07:32Z</time>
      </trkpt>
      <trkpt lat="42.697" lon="-0.31847">
        <time>2022-07-30T09:07:33Z</time>
      </trkpt>
      <trkpt lat="42.69683" lon="-0.31833">
        <time>2022-07-30T09:07:34Z</time>
      </trkpt>
      <trkpt lat="42.69668" lon="-0.31819">
        <time>2022-07-30T09:07:35Z</time>
      </trkpt>
      <trkpt lat="42.69658" lon="-0.31797">
        <time>2022-07-30T09:07:36Z</time>
      </trkpt>
      <trkpt lat="42.69648" lon="-0.31775">
        <time>2022-07-30T09:07:37Z</time>
      </trkpt>
      <trkpt lat="42.69639" lon="-0.31752">
        <time>2022-07-30T09:07:38Z</time>
      </trkpt>
      <trkpt lat="42.69634" lon="-0.31729">
        <time>2022-07-30T09:07:39Z</time>
      </trkpt>
      <trkpt lat="42.69628" lon="-0.31707">
        <time>2022-07-30T09:07:40Z</time>
      </trkpt>
      <trkpt lat="42.6962" lon="-0.31686">
        <time>2022-07-30T09:07:41Z</time>
      </trkpt>
      <trkpt lat="42.69611" lon="-0.31666">
        <time>2022-07-30T09:07:42Z</time>
      </trkpt>
      <trkpt lat="42.696" lon="-0.31648">
        <time>2022-07-30T09:07:43Z</time>
      </trkpt>
      <trkpt lat="42.69589" lon="-0.31632">
        <time>2022-07-30T09:07:44Z</time>
      </trkpt>
      <trkpt lat="42.6957" lon="-0.31621">
        <time>2022-07-30T09:07:45Z</time>
      </trkpt>
      <trkpt lat="42.69554" lon="-0.31612">
        <time>2022-07-30T09:07:46Z</time>
      </trkpt>
      <trkpt lat="42.69536" lon="-0.31607">
        <time>2022-07-30T09:07:47Z</time>
      </trkpt>
      <trkpt lat="42.69518" lon="-0.31607">
        <time>2022-07-30T09:07:48Z</time>
      </trkpt>
      <trkpt lat="42.69499" lon="-0.31611">
        <time>2022-07-30T09:07:49Z</time>
      </trkpt>
      <trkpt lat="42.6948" lon="-0.31616">
        <time>2022-07-30T09:07:50Z</time>
      </trkpt>
      <trkpt lat="42.69461" lon="-0.31623">
        <time>2022-07-30T09:07:51Z</time>
      </trkpt>
      <trkpt lat="42.69442" lon="-0.31628">
        <time>2022-07-30T09:07:52Z</time>
      </trkpt>
      <trkpt lat="42.69423" lon="-0.3163">
        <time>2022-07-30T09:07:53Z</time>
      </trkpt>
      <trkpt lat="42.69403" lon="-0.31627">
        <time>2022-07-30T09:07:54Z</time>
      </trkpt>
      <trkpt lat="42.69382" lon="-0.31621">
        <time>2022-07-30T09:07:55Z</time>
      </trkpt>
      <trkpt lat="42.69363" lon="-0.31612">
        <time>2022-07-30T09:07:56Z</time>
      </trkpt>
      <trkpt lat="42.69345" lon="-0.316">
        <time>2022-07-30T09:07:57Z</time>
      </trkpt>
      <trkpt lat="42.69327" lon="-0.31589">
        <time>2022-07-30T09:07:58Z</time>
      </trkpt>
      <trkpt lat="42.69308" lon="-0.3158">
        <time>2022-07-30T09:07:59Z</time>
      </trkpt>
      <trkpt lat="42.69288" lon="-0.31574">
        <time>2022-07-30T09:08:00Z</time>
      </trkpt>
      <trkpt lat="42.69268" lon="-0.31573">
        <time>2022-07-30T09:08:01Z</time>
      </trkpt>
      <trkpt lat="42.69247" lon="-0.31575">
        <time>2022-07-30T09:08:02Z</time>
      </trkpt>
      <trkpt lat="42.69226" lon="-0.31577">
        <time>2022-07-30T09:08:03Z</time>
      </trkpt>
      <trkpt lat="42.69205" lon="-0.31579">
        <time>2022-07-30T09:08:04Z</time>
      </trkpt>
      <trkpt lat="42.69184" lon="-0.31578">
        <time>2022-07-30T09:08:05Z</time>
      </trkpt>
      <trkpt lat="42.69163" lon="-0.31576">
        <time>2022-07-30T09:08:06Z</time>
      </trkpt>
      <trkpt lat="42.69144" lon="-0.31572">
        <time>2022-07-30T09:08:07Z</time>
      </trkpt>
      <trkpt lat="42.69125" lon="-0.3157">
        <time>2022-07-30T09:08:08Z</time>
      </trkpt>
      <trkpt lat="42.69105" lon="-0.31568">
        <time>2022-07-30T09:08:09Z</time>
      </trkpt>
      <trkpt lat="42.69087" lon="-0.31567">
        <time>2022-07-30T09:08:10Z</time>
      </trkpt>
      <trkpt lat="42.69067" lon="-0.31569">
        <time>2022-07-30T09:08:11Z</time>
      </trkpt>
      <trkpt lat="42.69047" lon="-0.31572">
        <time>2022-07-30T09:08:12Z</time>
      </trkpt>
      <trkpt lat="42.69028" lon="-0.31577">
        <time>2022-07-30T09:08:13Z</time>
      </trkpt>
      <trkpt lat="42.69008" lon="-0.31585">
        <time>2022-07-30T09:08:14Z</time>
      </trkpt>
      <trkpt lat="42.68989" lon="-0.31594">
        <time>2022-07-30T09:08:15Z</time>
      </trkpt>
      <trkpt lat="42.68971" lon="-0.31605">
        <time>2022-07-30T09:08:16Z</time>
      </trkpt>
      <trkpt lat="42.68953" lon="-0.31619">
        <time>2022-07-30T09:08:17Z</time>
      </trkpt>
      <trkpt lat="42.68937" lon="-0.31635">
        <time>2022-07-30T09:08:18Z</time>
      </trkpt>
      <trkpt lat="42.68924" lon="-0.31654">
        <time>2022-07-30T09:08:19Z</time>
      </trkpt>
      <trkpt lat="42.68914" lon="-0.31675">
        <time>2022-07-30T09:08:20Z</time>
      </trkpt>
      <trkpt lat="42.68906" lon="-0.31699">
        <time>2022-07-30T09:08:21Z</time>
      </trkpt>
      <trkpt lat="42.68901" lon="-0.31723">
        <time>2022-07-30T09:08:22Z</time>
      </trkpt>
      <trkpt lat="42.68896" lon="-0.31748">
        <time>2022-07-30T09:08:23Z</time>
      </trkpt>
      <trkpt lat="42.68891" lon="-0.31772">
        <time>2022-07-30T09:08:24Z</time>
      </trkpt>
      <trkpt lat="42.68887" lon="-0.31797">
        <time>2022-07-30T09:08:25Z</time>
      </trkpt>
      <trkpt lat="42.68882" lon="-0.31821">
        <time>2022-07-30T09:08:26Z</time>
      </trkpt>
      <trkpt lat="42.68877" lon="-0.31845">
        <time>2022-07-30T09:08:27Z</time>
      </trkpt>
      <trkpt lat="42.68871" lon="-0.31867">
        <time>2022-07-30T09:08:28Z</time>
      </trkpt>
      <trkpt lat="42.68864" lon="-0.31889">
        <time>2022-07-30T09:08:29Z</time>
      </trkpt>
      <trkpt lat="42.68856" lon="-0.31907">
        <time>2022-07-30T09:08:30Z</time>
      </trkpt>
      <trkpt lat="42.68845" lon="-0.31924">
        <time>2022-07-30T09:08:31Z</time>
      </trkpt>
      <trkpt lat="42.68834" lon="-0.31939">
        <time>2022-07-30T09:08:32Z</time>
      </trkpt>
      <trkpt lat="42.68821" lon="-0.31952">
        <time>2022-07-30T09:08:33Z</time>
      </trkpt>
      <trkpt lat="42.68806" lon="-0.31962">
        <time>2022-07-30T09:08:34Z</time>
      </trkpt>
      <trkpt lat="42.68791" lon="-0.31969">
        <time>2022-07-30T09:08:35Z</time>
      </trkpt>
      <trkpt lat="42.68774" lon="-0.31975">
        <time>2022-07-30T09:08:36Z</time>
      </trkpt>
      <trkpt lat="42.68757" lon="-0.31979">
        <time>2022-07-30T09:08:37Z</time>
      </trkpt>
      <trkpt lat="42.6874" lon="-0.31982">
        <time>2022-07-30T09:08:38Z</time>
      </trkpt>
      <trkpt lat="42.68723" lon="-0.31983">
        <time>2022-07-30T09:08:39Z</time>
      </trkpt>
      <trkpt lat="42.68702" lon="-0.31984">
        <time>2022-07-30T09:08:40Z</time>
      </trkpt>
      <trkpt lat="42.68681" lon="-0.31985">
        <time>2022-07-30T09:08:41Z</time>
      </trkpt>
      <trkpt lat="42.68657" lon="-0.31988">
        <time>2022-07-30T09:08:42Z</time>
      </trkpt>
      <trkpt lat="42.68632" lon="-0.31991">
        <time>2022-07-30T09:08:43Z</time>
      </trkpt>
      <trkpt lat="42.68608" lon="-0.31995">
        <time>2022-07-30T09:08:44Z</time>
      </trkpt>
      <trkpt lat="42.68584" lon="-0.31999">
        <time>2022-07-30T09:08:45Z</time>
      </trkpt>
      <trkpt lat="42.68561" lon="-0.32002">
        <time>2022-07-30T09:08:46Z</time>
      </trkpt>
      <trkpt lat="42.68538" lon="-0.32005">
        <time>2022-07-30T09:08:47Z</time>
      </trkpt>
      <trkpt lat="42.68516" lon="-0.32007">
        <time>2022-07-30T09:08:48Z</time>
      </trkpt>
      <trkpt lat="42.68494" lon="-0.32011">
        <time>2022-07-30T09:08:49Z</time>
      </trkpt>
      <trkpt lat="42.68472" lon="-0.32018">
        <time>2022-07-30T09:08:50Z</time>
      </trkpt>
      <trkpt lat="42.68452" lon="-0.32029">
        <time>2022-07-30T09:08:51Z</time>
      </trkpt>
      <trkpt lat="42.68433" lon="-0.32043">
        <time>2022-07-30T09:08:52Z</time>
      </trkpt>
      <trkpt lat="42.68414" lon="-0.32058">
        <time>2022-07-30T09:08:53Z</time>
      </trkpt>
      <trkpt lat="42.68395" lon="-0.32071">
        <time>2022-07-30T09:08:54Z</time>
      </trkpt>
      <trkpt lat="42.68375" lon="-0.32082">
        <time>2022-07-30T09:08:55Z</time>
      </trkpt>
      <trkpt lat="42.68354" lon="-0.3209">
        <time>2022-07-30T09:08:56Z</time>
      </trkpt>
      <trkpt lat="42.68332" lon="-0.32095">
        <time>2022-07-30T09:08:57Z</time>
      </trkpt>
      <trkpt lat="42.68308" lon="-0.32096">
        <time>2022-07-30T09:08:58Z</time>
      </trkpt>
      <trkpt lat="42.68284" lon="-0.32094">
        <time>2022-07-30T09:08:59Z</time>
      </trkpt>
      <trkpt lat="42.68261" lon="-0.3209">
        <time>2022-07-30T09:09:00Z</time>
      </trkpt>
      <trkpt lat="42.68238" lon="-0.32087">
        <time>2022-07-30T09:09:01Z</time>
      </trkpt>
      <trkpt lat="42.68216" lon="-0.32084">
        <time>2022-07-30T09:09:02Z</time>
      </trkpt>
      <trkpt lat="42.68194" lon="-0.32082">
        <time>2022-07-30T09:09:03Z</time>
      </trkpt>
      <trkpt lat="42.68173" lon="-0.3208">
        <time>2022-07-30T09:09:04Z</time>
      </trkpt>
      <trkpt lat="42.68152" lon="-0.32078">
        <time>2022-07-30T09:09:05Z</time>
      </trkpt>
      <trkpt lat="42.68132" lon="-0.32079">
        <time>2022-07-30T09:09:06Z</time>
      </trkpt>
      <trkpt lat="42.68111" lon="-0.32085">
        <time>2022-07-30T09:09:07Z</time>
      </trkpt>
      <trkpt lat="42.68091" lon="-0.32093">
        <time>2022-07-30T09:09:08Z</time>
      </trkpt>
      <trkpt lat="42.68072" lon="-0.32103">
        <time>2022-07-30T09:09:09Z</time>
      </trkpt>
      <trkpt lat="42.68053" lon="-0.3211">
        <time>2022-07-30T09:09:10Z</time>
      </trkpt>
      <trkpt lat="42.68033" lon="-0.32116">
        <time>2022-07-30T09:09:11Z</time>
      </trkpt>
      <trkpt lat="42.68014" lon="-0.32119">
        <time>2022-07-30T09:09:12Z</time>
      </trkpt>
      <trkpt lat="42.67993" lon="-0.32117">
        <time>2022-07-30T09:09:13Z</time>
      </trkpt>
      <trkpt lat="42.67972" lon="-0.32114">
        <time>2022-07-30T09:09:14Z</time>
      </trkpt>
      <trkpt lat="42.6795" lon="-0.32111">
        <time>2022-07-30T09:09:15Z</time>
      </trkpt>
      <trkpt lat="42.67928" lon="-0.32107">
        <time>2022-07-30T09:09:16Z</time>
      </trkpt>
      <trkpt lat="42.67906" lon="-0.32103">
        <time>2022-07-30T09:09:17Z</time>
      </trkpt>
      <trkpt lat="42.67885" lon="-0.32098">
        <time>2022-07-30T09:09:18Z</time>
      </trkpt>
      <trkpt lat="42.67865" lon="-0.32094">
        <time>2022-07-30T09:09:19Z</time>
      </trkpt>
      <trkpt lat="42.67845" lon="-0.3209">
        <time>2022-07-30T09:09:20Z</time>
      </trkpt>
      <trkpt lat="42.67824" lon="-0.32087">
        <time>2022-07-30T09:09:21Z</time>
      </trkpt>
      <trkpt lat="42.67805" lon="-0.32085">
        <time>2022-07-30T09:09:22Z</time>
      </trkpt>
      <trkpt lat="42.67785" lon="-0.32085">
        <time>2022-07-30T09:09:23Z</time>
      </trkpt>
      <trkpt lat="42.67767" lon="-0.32086">
        <time>2022-07-30T09:09:24Z</time>
      </trkpt>
      <trkpt lat="42.67749" lon="-0.32091">
        <time>2022-07-30T09:09:25Z</time>
      </trkpt>
      <trkpt lat="42.67732" lon="-0.32099">
        <time>2022-07-30T09:09:26Z</time>
      </trkpt>
      <trkpt lat="42.67716" lon="-0.32111">
        <time>2022-07-30T09:09:27Z</time>
      </trkpt>
      <trkpt lat="42.67702" lon="-0.32127">
        <time>2022-07-30T09:09:28Z</time>
      </trkpt>
      <trkpt lat="42.6769" lon="-0.32146">
        <time>2022-07-30T09:09:29Z</time>
      </trkpt>
      <trkpt lat="42.67679" lon="-0.32167">
        <time>2022-07-30T09:09:30Z</time>
      </trkpt>
      <trkpt lat="42.67668" lon="-0.32187">
        <time>2022-07-30T09:09:31Z</time>
      </trkpt>
      <trkpt lat="42.67657" lon="-0.32207">
        <time>2022-07-30T09:09:32Z</time>
      </trkpt>
      <trkpt lat="42.67644" lon="-0.32226">
        <time>2022-07-30T09:09:33Z</time>
      </trkpt>
      <trkpt lat="42.67628" lon="-0.32242">
        <time>2022-07-30T09:09:34Z</time>
      </trkpt>
      <trkpt lat="42.6761" lon="-0.32254">
        <time>2022-07-30T09:09:35Z</time>
      </trkpt>
      <trkpt lat="42.6759" lon="-0.32264">
        <time>2022-07-30T09:09:36Z</time>
      </trkpt>
      <trkpt lat="42.67568" lon="-0.32271">
        <time>2022-07-30T09:09:37Z</time>
      </trkpt>
      <trkpt lat="42.67545" lon="-0.32276">
        <time>2022-07-30T09:09:38Z</time>
      </trkpt>
      <trkpt lat="42.6752" lon="-0.32276">
        <time>2022-07-30T09:09:39Z</time>
      </trkpt>
      <trkpt lat="42.67496" lon="-0.32277">
        <time>2022-07-30T09:09:40Z</time>
      </trkpt>
      <trkpt lat="42.67472" lon="-0.32277">
        <time>2022-07-30T09:09:41Z</time>
      </trkpt>
      <trkpt lat="42.67447" lon="-0.32276">
        <time>2022-07-30T09:09:42Z</time>
      </trkpt>
      <trkpt lat="42.67422" lon="-0.32273">
        <time>2022-07-30T09:09:43Z</time>
      </trkpt>
      <trkpt lat="42.67399" lon="-0.32269">
        <time>2022-07-30T09:09:44Z</time>
      </trkpt>
      <trkpt lat="42.67376" lon="-0.32265">
        <time>2022-07-30T09:09:45Z</time>
      </trkpt>
      <trkpt lat="42.67353" lon="-0.32263">
        <time>2022-07-30T09:09:46Z</time>
      </trkpt>
      <trkpt lat="42.6733" lon="-0.32261">
        <time>2022-07-30T09:09:47Z</time>
      </trkpt>
      <trkpt lat="42.67306" lon="-0.32262">
        <time>2022-07-30T09:09:48Z</time>
      </trkpt>
      <trkpt lat="42.67284" lon="-0.32264">
        <time>2022-07-30T09:09:49Z</time>
      </trkpt>
      <trkpt lat="42.6726" lon="-0.32266">
        <time>2022-07-30T09:09:50Z</time>
      </trkpt>
      <trkpt lat="42.67237" lon="-0.32268">
        <time>2022-07-30T09:09:51Z</time>
      </trkpt>
      <trkpt lat="42.67214" lon="-0.32269">
        <time>2022-07-30T09:09:52Z</time>
      </trkpt>
      <trkpt lat="42.67192" lon="-0.32265">
        <time>2022-07-30T09:09:53Z</time>
      </trkpt>
      <trkpt lat="42.6717" lon="-0.32259">
        <time>2022-07-30T09:09:54Z</time>
      </trkpt>
      <trkpt lat="42.67149" lon="-0.32252">
        <time>2022-07-30T09:09:55Z</time>
      </trkpt>
      <trkpt lat="42.67129" lon="-0.32244">
        <time>2022-07-30T09:09:56Z</time>
      </trkpt>
      <trkpt lat="42.6711" lon="-0.32238">
        <time>2022-07-30T09:09:57Z</time>
      </trkpt>
      <trkpt lat="42.67091" lon="-0.32234">
        <time>2022-07-30T09:09:58Z</time>
      </trkpt>
      <trkpt lat="42.6707" lon="-0.32235">
        <time>2022-07-30T09:09:59Z</time>
      </trkpt>
      <trkpt lat="42.67049" lon="-0.32239">
        <time>2022-07-30T09:10:00Z</time>
      </trkpt>
      <trkpt lat="42.67029" lon="-0.32246">
        <time>2022-07-30T09:10:01Z</time>
      </trkpt>
      <trkpt lat="42.67009" lon="-0.32253">
        <time>2022-07-30T09:10:02Z</time>
      </trkpt>
      <trkpt lat="42.66988" lon="-0.32256">
        <time>2022-07-30T09:10:03Z</time>
      </trkpt>
      <trkpt lat="42.66967" lon="-0.32259">
        <time>2022-07-30T09:10:04Z</time>
      </trkpt>
      <trkpt lat="42.66946" lon="-0.32256">
        <time>2022-07-30T09:10:05Z</time>
      </trkpt>
      <trkpt lat="42.66925" lon="-0.3225">
        <time>2022-07-30T09:10:06Z</time>
      </trkpt>
      <trkpt lat="42.66905" lon="-0.32239">
        <time>2022-07-30T09:10:07Z</time>
      </trkpt>
      <trkpt lat="42.66887" lon="-0.32226">
        <time>2022-07-30T09:10:08Z</time>
      </trkpt>
      <trkpt lat="42.66868" lon="-0.32213">
        <time>2022-07-30T09:10:09Z</time>
      </trkpt>
      <trkpt lat="42.66851" lon="-0.32201">
        <time>2022-07-30T09:10:10Z</time>
      </trkpt>
      <trkpt lat="42.66834" lon="-0.32191">
        <time>2022-07-30T09:10:11Z</time>
      </trkpt>
      <trkpt lat="42.66817" lon="-0.32183">
        <time>2022-07-30T09:10:12Z</time>
      </trkpt>
      <trkpt lat="42.66799" lon="-0.32179">
        <time>2022-07-30T09:10:13Z</time>
      </trkpt>
      <trkpt lat="42.6678" lon="-0.32179">
        <time>2022-07-30T09:10:14Z</time>
      </trkpt>
      <trkpt lat="42.66761" lon="-0.32183">
        <time>2022-07-30T09:10:15Z</time>
      </trkpt>
      <trkpt lat="42.66739" lon="-0.32189">
        <time>2022-07-30T09:10:16Z</time>
      </trkpt>
      <trkpt lat="42.66718" lon="-0.32195">
        <time>2022-07-30T09:10:17Z</time>
      </trkpt>
      <trkpt lat="42.66695" lon="-0.32202">
        <time>2022-07-30T09:10:18Z</time>
      </trkpt>
      <trkpt lat="42.66672" lon="-0.32208">
        <time>2022-07-30T09:10:19Z</time>
      </trkpt>
      <trkpt lat="42.66649" lon="-0.32216">
        <time>2022-07-30T09:10:20Z</time>
      </trkpt>
      <trkpt lat="42.66625" lon="-0.32223">
        <time>2022-07-30T09:10:21Z</time>
      </trkpt>
      <trkpt lat="42.66601" lon="-0.32231">
        <time>2022-07-30T09:10:22Z</time>
      </trkpt>
      <trkpt lat="42.66577" lon="-0.3224">
        <time>2022-07-30T09:10:23Z</time>
      </trkpt>
      <trkpt lat="42.66553" lon="-0.32249">
        <time>2022-07-30T09:10:24Z</time>
      </trkpt>
      <trkpt lat="42.66529" lon="-0.32258">
        <time>2022-07-30T09:10:25Z</time>
      </trkpt>
      <trkpt lat="42.66505" lon="-0.32267">
        <time>2022-07-30T09:10:26Z</time>
      </trkpt>
      <trkpt lat="42.66481" lon="-0.32277">
        <time>2022-07-30T09:10:27Z</time>
      </trkpt>
      <trkpt lat="42.66458" lon="-0.32286">
        <time>2022-07-30T09:10:28Z</time>
      </trkpt>
      <trkpt lat="42.66435" lon="-0.32296">
        <time>2022-07-30T09:10:29Z</time>
      </trkpt>
      <trkpt lat="42.66412" lon="-0.32306">
        <time>2022-07-30T09:10:30Z</time>
      </trkpt>
      <trkpt lat="42.6639" lon="-0.32316">
        <time>2022-07-30T09:10:31Z</time>
      </trkpt>
      <trkpt lat="42.66368" lon="-0.32326">
        <time>2022-07-30T09:10:32Z</time>
      </trkpt>
      <trkpt lat="42.66346" lon="-0.32336">
        <time>2022-07-30T09:10:33Z</time>
      </trkpt>
      <trkpt lat="42.66324" lon="-0.32348">
        <time>2022-07-30T09:10:34Z</time>
      </trkpt>
      <trkpt lat="42.66302" lon="-0.3236">
        <time>2022-07-30T09:10:35Z</time>
      </trkpt>
      <trkpt lat="42.66281" lon="-0.32371">
        <time>2022-07-30T09:10:36Z</time>
      </trkpt>
      <trkpt lat="42.66259" lon="-0.32382">
        <time>2022-07-30T09:10:37Z</time>
      </trkpt>
      <trkpt lat="42.66237" lon="-0.32391">
        <time>2022-07-30T09:10:38Z</time>
      </trkpt>
      <trkpt lat="42.66215" lon="-0.32396">
        <time>2022-07-30T09:10:39Z</time>
      </trkpt>
      <trkpt lat="42.66193" lon="-0.32397">
        <time>2022-07-30T09:10:40Z</time>
      </trkpt>
      <trkpt lat="42.66173" lon="-0.32396">
        <time>2022-07-30T09:10:41Z</time>
      </trkpt>
      <trkpt lat="42.66154" lon="-0.32394">
        <time>2022-07-30T09:10:42Z</time>
      </trkpt>
      <trkpt lat="42.66137" lon="-0.3239">
        <time>2022-07-30T09:10:43Z</time>
      </trkpt>
      <trkpt lat="42.66121" lon="-0.32387">
        <time>2022-07-30T09:10:44Z</time>
      </trkpt>
      <trkpt lat="42.66105" lon="-0.32385">
        <time>2022-07-30T09:10:45Z</time>
      </trkpt>
      <trkpt lat="42.6609" lon="-0.32383">
        <time>2022-07-30T09:10:46Z</time>
      </trkpt>
      <trkpt lat="42.66075" lon="-0.32382">
        <time>2022-07-30T09:10:47Z</time>
      </trkpt>
      <trkpt lat="42.66061" lon="-0.32382">
        <time>2022-07-30T09:10:48Z</time>
      </trkpt>
      <trkpt lat="42.66047" lon="-0.32382">
        <time>2022-07-30T09:10:49Z</time>
      </trkpt>
      <trkpt lat="42.66033" lon="-0.32384">
        <time>2022-07-30T09:10:50Z</time>
      </trkpt>
      <trkpt lat="42.66019" lon="-0.32386">
        <time>2022-07-30T09:10:51Z</time>
      </trkpt>
      <trkpt lat="42.66006" lon="-0.32386">
        <time>2022-07-30T09:10:52Z</time>
      </trkpt>
      <trkpt lat="42.65994" lon="-0.32384">
        <time>2022-07-30T09:10:53Z</time>
      </trkpt>
      <trkpt lat="42.65982" lon="-0.32381">
        <time>2022-07-30T09:10:54Z</time>
      </trkpt>
      <trkpt lat="42.65971" lon="-0.3238">
        <time>2022-07-30T09:10:55Z</time>
      </trkpt>
      <trkpt lat="42.65959" lon="-0.32381">
        <time>2022-07-30T09:10:56Z</time>
      </trkpt>
      <trkpt lat="42.65949" lon="-0.32382">
        <time>2022-07-30T09:10:57Z</time>
      </trkpt>
      <trkpt lat="42.65938" lon="-0.32384">
        <time>2022-07-30T09:10:58Z</time>
      </trkpt>
      <trkpt lat="42.65928" lon="-0.32384">
        <time>2022-07-30T09:10:59Z</time>
      </trkpt>
      <trkpt lat="42.65919" lon="-0.32383">
        <time>2022-07-30T09:11:00Z</time>
      </trkpt>
      <trkpt lat="42.6591" lon="-0.3238">
        <time>2022-07-30T09:11:01Z</time>
      </trkpt>
      <trkpt lat="42.659" lon="-0.32373">
        <time>2022-07-30T09:11:02Z</time>
      </trkpt>
      <trkpt lat="42.65889" lon="-0.32364">
        <time>2022-07-30T09:11:03Z</time>
      </trkpt>
      <trkpt lat="42.65877" lon="-0.32353">
        <time>2022-07-30T09:11:04Z</time>
      </trkpt>
      <trkpt lat="42.65864" lon="-0.3234">
        <time>2022-07-30T09:11:05Z</time>
      </trkpt>
      <trkpt lat="42.65851" lon="-0.32327">
        <time>2022-07-30T09:11:06Z</time>
      </trkpt>
      <trkpt lat="42.65839" lon="-0.32316">
        <time>2022-07-30T09:11:07Z</time>
      </trkpt>
      <trkpt lat="42.65827" lon="-0.32306">
        <time>2022-07-30T09:11:08Z</time>
      </trkpt>
      <trkpt lat="42.65815" lon="-0.32297">
        <time>2022-07-30T09:11:09Z</time>
      </trkpt>
      <trkpt lat="42.65805" lon="-0.32287">
        <time>2022-07-30T09:11:10Z</time>
      </trkpt>
      <trkpt lat="42.65795" lon="-0.32276">
        <time>2022-07-30T09:11:11Z</time>
      </trkpt>
      <trkpt lat="42.65786" lon="-0.32264">
        <time>2022-07-30T09:11:12Z</time>
      </trkpt>
      <trkpt lat="42.65777" lon="-0.32249">
        <time>2022-07-30T09:11:13Z</time>
      </trkpt>
      <trkpt lat="42.65768" lon="-0.32232">
        <time>2022-07-30T09:11:14Z</time>
      </trkpt>
      <trkpt lat="42.65761" lon="-0.32214">
        <time>2022-07-30T09:11:15Z</time>
      </trkpt>
      <trkpt lat="42.65755" lon="-0.32196">
        <time>2022-07-30T09:11:16Z</time>
      </trkpt>
      <trkpt lat="42.6575" lon="-0.32178">
        <time>2022-07-30T09:11:17Z</time>
      </trkpt>
      <trkpt lat="42.65746" lon="-0.3216">
        <time>2022-07-30T09:11:18Z</time>
      </trkpt>
      <trkpt lat="42.65743" lon="-0.32144">
        <time>2022-07-30T09:11:19Z</time>
      </trkpt>
      <trkpt lat="42.65741" lon="-0.32128">
        <time>2022-07-30T09:11:20Z</time>
      </trkpt>
      <trkpt lat="42.65738" lon="-0.32112">
        <time>2022-07-30T09:11:21Z</time>
      </trkpt>
      <trkpt lat="42.65735" lon="-0.32096">
        <time>2022-07-30T09:11:22Z</time>
      </trkpt>
      <trkpt lat="42.65731" lon="-0.3208">
        <time>2022-07-30T09:11:23Z</time>
      </trkpt>
      <trkpt lat="42.65726" lon="-0.32065">
        <time>2022-07-30T09:11:24Z</time>
      </trkpt>
      <trkpt lat="42.6572" lon="-0.3205">
        <time>2022-07-30T09:11:25Z</time>
      </trkpt>
      <trkpt lat="42.65713" lon="-0.32036">
        <time>2022-07-30T09:11:26Z</time>
      </trkpt>
      <trkpt lat="42.65705" lon="-0.32023">
        <time>2022-07-30T09:11:27Z</time>
      </trkpt>
      <trkpt lat="42.65696" lon="-0.32011">
        <time>2022-07-30T09:11:28Z</time>
      </trkpt>
      <trkpt lat="42.65686" lon="-0.32">
        <time>2022-07-30T09:11:29Z</time>
      </trkpt>
      <trkpt lat="42.65676" lon="-0.31991">
        <time>2022-07-30T09:11:30Z</time>
      </trkpt>
      <trkpt lat="42.65665" lon="-0.31984">
        <time>2022-07-30T09:11:31Z</time>
      </trkpt>
      <trkpt lat="42.65655" lon="-0.31977">
        <time>2022-07-30T09:11:32Z</time>
      </trkpt>
      <trkpt lat="42.65644" lon="-0.3197">
        <time>2022-07-30T09:11:33Z</time>
      </trkpt>
      <trkpt lat="42.65633" lon="-0.31965">
        <time>2022-07-30T09:11:34Z</time>
      </trkpt>
      <trkpt lat="42.65622" lon="-0.31961">
        <time>2022-07-30T09:11:35Z</time>
      </trkpt>
      <trkpt lat="42.65611" lon="-0.31957">
        <time>2022-07-30T09:11:36Z</time>
      </trkpt>
      <trkpt lat="42.65599" lon="-0.31954">
        <time>2022-07-30T09:11:37Z</time>
      </trkpt>
      <trkpt lat="42.65589" lon="-0.31952">
        <time>2022-07-30T09:11:38Z</time>
      </trkpt>
      <trkpt lat="42.65578" lon="-0.31951">
        <time>2022-07-30T09:11:39Z</time>
      </trkpt>
      <trkpt lat="42.65568" lon="-0.3195">
        <time>2022-07-30T09:11:40Z</time>
      </trkpt>
      <trkpt lat="42.65559" lon="-0.3195">
        <time>2022-07-30T09:11:41Z</time>
      </trkpt>
      <trkpt lat="42.65549" lon="-0.31951">
        <time>2022-07-30T09:11:42Z</time>
      </trkpt>
      <trkpt lat="42.6554" lon="-0.31951">
        <time>2022-07-30T09:11:43Z</time>
      </trkpt>
      <trkpt lat="42.6553" lon="-0.31952">
        <time>2022-07-30T09:11:44Z</time>
      </trkpt>
      <trkpt lat="42.6552" lon="-0.31955">
        <time>2022-07-30T09:11:45Z</time>
      </trkpt>
      <trkpt lat="42.6551" lon="-0.31958">
        <time>2022-07-30T09:11:46Z</time>
      </trkpt>
      <trkpt lat="42.65499" lon="-0.31962">
        <time>2022-07-30T09:11:47Z</time>
      </trkpt>
      <trkpt lat="42.65489" lon="-0.31965">
        <time>2022-07-30T09:11:48Z</time>
      </trkpt>
      <trkpt lat="42.65478" lon="-0.31968">
        <time>2022-07-30T09:11:49Z</time>
      </trkpt>
      <trkpt lat="42.65468" lon="-0.31972">
        <time>2022-07-30T09:11:50Z</time>
      </trkpt>
      <trkpt lat="42.65457" lon="-0.31975">
        <time>2022-07-30T09:11:51Z</time>
      </trkpt>
      <trkpt lat="42.65446" lon="-0.31978">
        <time>2022-07-30T09:11:52Z</time>
      </trkpt>
      <trkpt lat="42.65436" lon="-0.31981">
        <time>2022-07-30T09:11:53Z</time>
      </trkpt>
      <trkpt lat="42.65425" lon="-0.31983">
        <time>2022-07-30T09:11:54Z</time>
      </trkpt>
      <trkpt lat="42.65414" lon="-0.31985">
        <time>2022-07-30T09:11:55Z</time>
      </trkpt>
      <trkpt lat="42.65403" lon="-0.31987">
        <time>2022-07-30T09:11:56Z</time>
      </trkpt>
      <trkpt lat="42.65392" lon="-0.31988">
        <time>2022-07-30T09:11:57Z</time>
      </trkpt>
      <trkpt lat="42.65381" lon="-0.31989">
        <time>2022-07-30T09:11:58Z</time>
      </trkpt>
      <trkpt lat="42.6537" lon="-0.31988">
        <time>2022-07-30T09:11:59Z</time>
      </trkpt>
      <trkpt lat="42.65359" lon="-0.31988">
        <time>2022-07-30T09:12:00Z</time>
      </trkpt>
      <trkpt lat="42.65348" lon="-0.31987">
        <time>2022-07-30T09:12:01Z</time>
      </trkpt>
      <trkpt lat="42.65337" lon="-0.31986">
        <time>2022-07-30T09:12:02Z</time>
      </trkpt>
      <trkpt lat="42.65326" lon="-0.31985">
        <time>2022-07-30T09:12:03Z</time>
      </trkpt>
      <trkpt lat="42.65313" lon="-0.31983">
        <time>2022-07-30T09:12:04Z</time>
      </trkpt>
      <trkpt lat="42.65299" lon="-0.31982">
        <time>2022-07-30T09:12:05Z</time>
      </trkpt>
      <trkpt lat="42.65285" lon="-0.31982">
        <time>2022-07-30T09:12:06Z</time>
      </trkpt>
      <trkpt lat="42.65269" lon="-0.31983">
        <time>2022-07-30T09:12:07Z</time>
      </trkpt>
      <trkpt lat="42.65252" lon="-0.31985">
        <time>2022-07-30T09:12:08Z</time>
      </trkpt>
      <trkpt lat="42.65234" lon="-0.31986">
        <time>2022-07-30T09:12:09Z</time>
      </trkpt>
      <trkpt lat="42.65217" lon="-0.31986">
        <time>2022-07-30T09:12:10Z</time>
      </trkpt>
      <trkpt lat="42.65198" lon="-0.31983">
        <time>2022-07-30T09:12:11Z</time>
      </trkpt>
      <trkpt lat="42.6518" lon="-0.31977">
        <time>2022-07-30T09:12:12Z</time>
      </trkpt>
      <trkpt lat="42.65163" lon="-0.31967">
        <time>2022-07-30T09:12:13Z</time>
      </trkpt>
      <trkpt lat="42.65148" lon="-0.31955">
        <time>2022-07-30T09:12:14Z</time>
      </trkpt>
      <trkpt lat="42.65132" lon="-0.31942">
        <time>2022-07-30T09:12:15Z</time>
      </trkpt>
      <trkpt lat="42.65117" lon="-0.31929">
        <time>2022-07-30T09:12:16Z</time>
      </trkpt>
      <trkpt lat="42.65101" lon="-0.31919">
        <time>2022-07-30T09:12:17Z</time>
      </trkpt>
      <trkpt lat="42.65084" lon="-0.31911">
        <time>2022-07-30T09:12:18Z</time>
      </trkpt>
      <trkpt lat="42.65066" lon="-0.31907">
        <time>2022-07-30T09:12:19Z</time>
      </trkpt>
      <trkpt lat="42.65048" lon="-0.31908">
        <time>2022-07-30T09:12:20Z</time>
      </trkpt>
      <trkpt lat="42.65029" lon="-0.31913">
        <time>2022-07-30T09:12:21Z</time>
      </trkpt>
      <trkpt lat="42.65009" lon="-0.31921">
        <time>2022-07-30T09:12:22Z</time>
      </trkpt>
      <trkpt lat="42.64989" lon="-0.31932">
        <time>2022-07-30T09:12:23Z</time>
      </trkpt>
      <trkpt lat="42.64971" lon="-0.31943">
        <time>2022-07-30T09:12:24Z</time>
      </trkpt>
      <trkpt lat="42.64953" lon="-0.31954">
        <time>2022-07-30T09:12:25Z</time>
      </trkpt>
      <trkpt lat="42.64936" lon="-0.31965">
        <time>2022-07-30T09:12:26Z</time>
      </trkpt>
      <trkpt lat="42.64919" lon="-0.31975">
        <time>2022-07-30T09:12:27Z</time>
      </trkpt>
      <trkpt lat="42.64902" lon="-0.31986">
        <time>2022-07-30T09:12:28Z</time>
      </trkpt>
      <trkpt lat="42.64887" lon="-0.31997">
        <time>2022-07-30T09:12:29Z</time>
      </trkpt>
      <trkpt lat="42.64871" lon="-0.3201">
        <time>2022-07-30T09:12:30Z</time>
      </trkpt>
      <trkpt lat="42.64856" lon="-0.32024">
        <time>2022-07-30T09:12:31Z</time>
      </trkpt>
      <trkpt lat="42.64841" lon="-0.32038">
        <time>2022-07-30T09:12:32Z</time>
      </trkpt>
      <trkpt lat="42.64823" lon="-0.32056">
        <time>2022-07-30T09:12:33Z</time>
      </trkpt>
      <trkpt lat="42.64806" lon="-0.32075">
        <time>2022-07-30T09:12:34Z</time>
      </trkpt>
      <trkpt lat="42.64789" lon="-0.32094">
        <time>2022-07-30T09:12:35Z</time>
      </trkpt>
      <trkpt lat="42.64772" lon="-0.32114">
        <time>2022-07-30T09:12:36Z</time>
      </trkpt>
      <trkpt lat="42.64756" lon="-0.32131">
        <time>2022-07-30T09:12:37Z</time>
      </trkpt>
      <trkpt lat="42.64739" lon="-0.32146">
        <time>2022-07-30T09:12:38Z</time>
      </trkpt>
      <trkpt lat="42.64723" lon="-0.32159">
        <time>2022-07-30T09:12:39Z</time>
      </trkpt>
      <trkpt lat="42.64707" lon="-0.32171">
        <time>2022-07-30T09:12:40Z</time>
      </trkpt>
      <trkpt lat="42.64691" lon="-0.32182">
        <time>2022-07-30T09:12:41Z</time>
      </trkpt>
      <trkpt lat="42.64676" lon="-0.32192">
        <time>2022-07-30T09:12:42Z</time>
      </trkpt>
      <trkpt lat="42.64661" lon="-0.32202">
        <time>2022-07-30T09:12:43Z</time>
      </trkpt>
      <trkpt lat="42.64647" lon="-0.32212">
        <time>2022-07-30T09:12:44Z</time>
      </trkpt>
      <trkpt lat="42.64633" lon="-0.32222">
        <time>2022-07-30T09:12:45Z</time>
      </trkpt>
      <trkpt lat="42.6462" lon="-0.32235">
        <time>2022-07-30T09:12:46Z</time>
      </trkpt>
      <trkpt lat="42.64608" lon="-0.3225">
        <time>2022-07-30T09:12:47Z</time>
      </trkpt>
      <trkpt lat="42.64597" lon="-0.32266">
        <time>2022-07-30T09:12:48Z</time>
      </trkpt>
      <trkpt lat="42.64587" lon="-0.32282">
        <time>2022-07-30T09:12:49Z</time>
      </trkpt>
      <trkpt lat="42.64577" lon="-0.32299">
        <time>2022-07-30T09:12:50Z</time>
      </trkpt>
      <trkpt lat="42.64566" lon="-0.32315">
        <time>2022-07-30T09:12:51Z</time>
      </trkpt>
      <trkpt lat="42.64554" lon="-0.3233">
        <time>2022-07-30T09:12:52Z</time>
      </trkpt>
      <trkpt lat="42.64541" lon="-0.32341">
        <time>2022-07-30T09:12:53Z</time>
      </trkpt>
      <trkpt lat="42.64526" lon="-0.32352">
        <time>2022-07-30T09:12:54Z</time>
      </trkpt>
      <trkpt lat="42.6451" lon="-0.32361">
        <time>2022-07-30T09:12:55Z</time>
      </trkpt>
      <trkpt lat="42.64492" lon="-0.32368">
        <time>2022-07-30T09:12:56Z</time>
      </trkpt>
      <trkpt lat="42.64472" lon="-0.32374">
        <time>2022-07-30T09:12:57Z</time>
      </trkpt>
      <trkpt lat="42.6445" lon="-0.3238">
        <time>2022-07-30T09:12:58Z</time>
      </trkpt>
      <trkpt lat="42.64426" lon="-0.32388">
        <time>2022-07-30T09:12:59Z</time>
      </trkpt>
      <trkpt lat="42.64403" lon="-0.32397">
        <time>2022-07-30T09:13:00Z</time>
      </trkpt>
      <trkpt lat="42.64381" lon="-0.32405">
        <time>2022-07-30T09:13:01Z</time>
      </trkpt>
      <trkpt lat="42.64358" lon="-0.32411">
        <time>2022-07-30T09:13:02Z</time>
      </trkpt>
      <trkpt lat="42.64335" lon="-0.32414">
        <time>2022-07-30T09:13:03Z</time>
      </trkpt>
      <trkpt lat="42.64313" lon="-0.32413">
        <time>2022-07-30T09:13:04Z</time>
      </trkpt>
      <trkpt lat="42.64291" lon="-0.32407">
        <time>2022-07-30T09:13:05Z</time>
      </trkpt>
      <trkpt lat="42.6427" lon="-0.32399">
        <time>2022-07-30T09:13:06Z</time>
      </trkpt>
      <trkpt lat="42.6425" lon="-0.32389">
        <time>2022-07-30T09:13:07Z</time>
      </trkpt>
      <trkpt lat="42.6423" lon="-0.32379">
        <time>2022-07-30T09:13:08Z</time>
      </trkpt>
      <trkpt lat="42.6421" lon="-0.32372">
        <time>2022-07-30T09:13:09Z</time>
      </trkpt>
      <trkpt lat="42.64189" lon="-0.32369">
        <time>2022-07-30T09:13:10Z</time>
      </trkpt>
      <trkpt lat="42.64169" lon="-0.32371">
        <time>2022-07-30T09:13:11Z</time>
      </trkpt>
      <trkpt lat="42.64148" lon="-0.32376">
        <time>2022-07-30T09:13:12Z</time>
      </trkpt>
      <trkpt lat="42.64129" lon="-0.32386">
        <time>2022-07-30T09:13:13Z</time>
      </trkpt>
      <trkpt lat="42.6411" lon="-0.32401">
        <time>2022-07-30T09:13:14Z</time>
      </trkpt>
      <trkpt lat="42.64091" lon="-0.32421">
        <time>2022-07-30T09:13:15Z</time>
      </trkpt>
      <trkpt lat="42.64072" lon="-0.32444">
        <time>2022-07-30T09:13:16Z</time>
      </trkpt>
      <trkpt lat="42.64053" lon="-0.32466">
        <time>2022-07-30T09:13:17Z</time>
      </trkpt>
      <trkpt lat="42.64032" lon="-0.32487">
        <time>2022-07-30T09:13:18Z</time>
      </trkpt>
      <trkpt lat="42.6401" lon="-0.32506">
        <time>2022-07-30T09:13:19Z</time>
      </trkpt>
      <trkpt lat="42.63986" lon="-0.32523">
        <time>2022-07-30T09:13:20Z</time>
      </trkpt>
      <trkpt lat="42.63962" lon="-0.32538">
        <time>2022-07-30T09:13:21Z</time>
      </trkpt>
      <trkpt lat="42.63938" lon="-0.32552">
        <time>2022-07-30T09:13:22Z</time>
      </trkpt>
      <trkpt lat="42.63914" lon="-0.32565">
        <time>2022-07-30T09:13:23Z</time>
      </trkpt>
      <trkpt lat="42.6389" lon="-0.32577">
        <time>2022-07-30T09:13:24Z</time>
      </trkpt>
      <trkpt lat="42.63866" lon="-0.32589">
        <time>2022-07-30T09:13:25Z</time>
      </trkpt>
      <trkpt lat="42.63841" lon="-0.32598">
        <time>2022-07-30T09:13:26Z</time>
      </trkpt>
      <trkpt lat="42.63817" lon="-0.32605">
        <time>2022-07-30T09:13:27Z</time>
      </trkpt>
      <trkpt lat="42.63792" lon="-0.32609">
        <time>2022-07-30T09:13:28Z</time>
      </trkpt>
      <trkpt lat="42.63768" lon="-0.32612">
        <time>2022-07-30T09:13:29Z</time>
      </trkpt>
      <trkpt lat="42.63745" lon="-0.32613">
        <time>2022-07-30T09:13:30Z</time>
      </trkpt>
      <trkpt lat="42.63724" lon="-0.32615">
        <time>2022-07-30T09:13:31Z</time>
      </trkpt>
      <trkpt lat="42.63703" lon="-0.32617">
        <time>2022-07-30T09:13:32Z</time>
      </trkpt>
      <trkpt lat="42.63684" lon="-0.32622">
        <time>2022-07-30T09:13:33Z</time>
      </trkpt>
      <trkpt lat="42.63667" lon="-0.3263">
        <time>2022-07-30T09:13:34Z</time>
      </trkpt>
      <trkpt lat="42.63649" lon="-0.32642">
        <time>2022-07-30T09:13:35Z</time>
      </trkpt>
      <trkpt lat="42.63633" lon="-0.32657">
        <time>2022-07-30T09:13:36Z</time>
      </trkpt>
      <trkpt lat="42.63617" lon="-0.32675">
        <time>2022-07-30T09:13:37Z</time>
      </trkpt>
      <trkpt lat="42.63602" lon="-0.32693">
        <time>2022-07-30T09:13:38Z</time>
      </trkpt>
      <trkpt lat="42.63587" lon="-0.32709">
        <time>2022-07-30T09:13:39Z</time>
      </trkpt>
      <trkpt lat="42.63571" lon="-0.32721">
        <time>2022-07-30T09:13:40Z</time>
      </trkpt>
      <trkpt lat="42.63554" lon="-0.32731">
        <time>2022-07-30T09:13:41Z</time>
      </trkpt>
      <trkpt lat="42.63537" lon="-0.32736">
        <time>2022-07-30T09:13:42Z</time>
      </trkpt>
      <trkpt lat="42.63519" lon="-0.32738">
        <time>2022-07-30T09:13:43Z</time>
      </trkpt>
      <trkpt lat="42.635" lon="-0.32736">
        <time>2022-07-30T09:13:44Z</time>
      </trkpt>
      <trkpt lat="42.63482" lon="-0.32732">
        <time>2022-07-30T09:13:45Z</time>
      </trkpt>
      <trkpt lat="42.63464" lon="-0.32728">
        <time>2022-07-30T09:13:46Z</time>
      </trkpt>
      <trkpt lat="42.63447" lon="-0.32724">
        <time>2022-07-30T09:13:47Z</time>
      </trkpt>
      <trkpt lat="42.63429" lon="-0.32723">
        <time>2022-07-30T09:13:48Z</time>
      </trkpt>
      <trkpt lat="42.63412" lon="-0.32725">
        <time>2022-07-30T09:13:49Z</time>
      </trkpt>
      <trkpt lat="42.63395" lon="-0.32731">
        <time>2022-07-30T09:13:50Z</time>
      </trkpt>
      <trkpt lat="42.63377" lon="-0.32739">
        <time>2022-07-30T09:13:51Z</time>
      </trkpt>
      <trkpt lat="42.63359" lon="-0.3275">
        <time>2022-07-30T09:13:52Z</time>
      </trkpt>
      <trkpt lat="42.63341" lon="-0.32761">
        <time>2022-07-30T09:13:53Z</time>
      </trkpt>
      <trkpt lat="42.63323" lon="-0.32771">
        <time>2022-07-30T09:13:54Z</time>
      </trkpt>
      <trkpt lat="42.63304" lon="-0.3278">
        <time>2022-07-30T09:13:55Z</time>
      </trkpt>
      <trkpt lat="42.63285" lon="-0.32787">
        <time>2022-07-30T09:13:56Z</time>
      </trkpt>
      <trkpt lat="42.63266" lon="-0.32791">
        <time>2022-07-30T09:13:57Z</time>
      </trkpt>
      <trkpt lat="42.63247" lon="-0.32794">
        <time>2022-07-30T09:13:58Z</time>
      </trkpt>
      <trkpt lat="42.63228" lon="-0.32794">
        <time>2022-07-30T09:13:59Z</time>
      </trkpt>
      <trkpt lat="42.6321" lon="-0.32795">
        <time>2022-07-30T09:14:00Z</time>
      </trkpt>
      <trkpt lat="42.63191" lon="-0.32795">
        <time>2022-07-30T09:14:01Z</time>
      </trkpt>
      <trkpt lat="42.63173" lon="-0.32794">
        <time>2022-07-30T09:14:02Z</time>
      </trkpt>
      <trkpt lat="42.63156" lon="-0.32794">
        <time>2022-07-30T09:14:03Z</time>
      </trkpt>
      <trkpt lat="42.63139" lon="-0.32794">
        <time>2022-07-30T09:14:04Z</time>
      </trkpt>
      <trkpt lat="42.63123" lon="-0.32792">
        <time>2022-07-30T09:14:05Z</time>
      </trkpt>
      <trkpt lat="42.63108" lon="-0.32787">
        <time>2022-07-30T09:14:06Z</time>
      </trkpt>
      <trkpt lat="42.63093" lon="-0.3278">
        <time>2022-07-30T09:14:07Z</time>
      </trkpt>
      <trkpt lat="42.63079" lon="-0.32771">
        <time>2022-07-30T09:14:08Z</time>
      </trkpt>
      <trkpt lat="42.63067" lon="-0.32761">
        <time>2022-07-30T09:14:09Z</time>
      </trkpt>
      <trkpt lat="42.63055" lon="-0.3275">
        <time>2022-07-30T09:14:10Z</time>
      </trkpt>
      <trkpt lat="42.63042" lon="-0.32741">
        <time>2022-07-30T09:14:11Z</time>
      </trkpt>
      <trkpt lat="42.63029" lon="-0.32733">
        <time>2022-07-30T09:14:12Z</time>
      </trkpt>
      <trkpt lat="42.63016" lon="-0.3273">
        <time>2022-07-30T09:14:13Z</time>
      </trkpt>
      <trkpt lat="42.63002" lon="-0.32729">
        <time>2022-07-30T09:14:14Z</time>
      </trkpt>
      <trkpt lat="42.62987" lon="-0.32731">
        <time>2022-07-30T09:14:15Z</time>
      </trkpt>
      <trkpt lat="42.62972" lon="-0.32734">
        <time>2022-07-30T09:14:16Z</time>
      </trkpt>
      <trkpt lat="42.62956" lon="-0.32737">
        <time>2022-07-30T09:14:17Z</time>
      </trkpt>
      <trkpt lat="42.62939" lon="-0.3274">
        <time>2022-07-30T09:14:18Z</time>
      </trkpt>
      <trkpt lat="42.62922" lon="-0.32743">
        <time>2022-07-30T09:14:19Z</time>
      </trkpt>
      <trkpt lat="42.62906" lon="-0.32746">
        <time>2022-07-30T09:14:20Z</time>
      </trkpt>
      <trkpt lat="42.62889" lon="-0.32748">
        <time>2022-07-30T09:14:21Z</time>
      </trkpt>
      <trkpt lat="42.62871" lon="-0.3275">
        <time>2022-07-30T09:14:22Z</time>
      </trkpt>
      <trkpt lat="42.62854" lon="-0.32751">
        <time>2022-07-30T09:14:23Z</time>
      </trkpt>
      <trkpt lat="42.62836" lon="-0.32752">
        <time>2022-07-30T09:14:24Z</time>
      </trkpt>
      <trkpt lat="42.62818" lon="-0.32752">
        <time>2022-07-30T09:14:25Z</time>
      </trkpt>
      <trkpt lat="42.62799" lon="-0.32752">
        <time>2022-07-30T09:14:26Z</time>
      </trkpt>
      <trkpt lat="42.6278" lon="-0.32752">
        <time>2022-07-30T09:14:27Z</time>
      </trkpt>
      <trkpt lat="42.6276" lon="-0.32752">
        <time>2022-07-30T09:14:28Z</time>
      </trkpt>
      <trkpt lat="42.6274" lon="-0.32752">
        <time>2022-07-30T09:14:29Z</time>
      </trkpt>
      <trkpt lat="42.6272" lon="-0.32753">
        <time>2022-07-30T09:14:30Z</time>
      </trkpt>
      <trkpt lat="42.627" lon="-0.32753">
        <time>2022-07-30T09:14:31Z</time>
      </trkpt>
      <trkpt lat="42.6268" lon="-0.32752">
        <time>2022-07-30T09:14:32Z</time>
      </trkpt>
      <trkpt lat="42.62661" lon="-0.32752">
        <time>2022-07-30T09:14:33Z</time>
      </trkpt>
      <trkpt lat="42.62641" lon="-0.32752">
        <time>2022-07-30T09:14:34Z</time>
      </trkpt>
      <trkpt lat="42.62621" lon="-0.32751">
        <time>2022-07-30T09:14:35Z</time>
      </trkpt>
      <trkpt lat="42.62601" lon="-0.32751">
        <time>2022-07-30T09:14:36Z</time>
      </trkpt>
      <trkpt lat="42.62581" lon="-0.32751">
        <time>2022-07-30T09:14:37Z</time>
      </trkpt>
      <trkpt lat="42.62561" lon="-0.32751">
        <time>2022-07-30T09:14:38Z</time>
      </trkpt>
      <trkpt lat="42.6254" lon="-0.32751">
        <time>2022-07-30T09:14:39Z</time>
      </trkpt>
      <trkpt lat="42.6252" lon="-0.3275">
        <time>2022-07-30T09:14:40Z</time>
      </trkpt>
      <trkpt lat="42.62499" lon="-0.3275">
        <time>2022-07-30T09:14:41Z</time>
      </trkpt>
      <trkpt lat="42.62478" lon="-0.3275">
        <time>2022-07-30T09:14:42Z</time>
      </trkpt>
      <trkpt lat="42.62457" lon="-0.3275">
        <time>2022-07-30T09:14:43Z</time>
      </trkpt>
      <trkpt lat="42.62435" lon="-0.32749">
        <time>2022-07-30T09:14:44Z</time>
      </trkpt>
      <trkpt lat="42.62411" lon="-0.32749">
        <time>2022-07-30T09:14:45Z</time>
      </trkpt>
      <trkpt lat="42.62387" lon="-0.32748">
        <time>2022-07-30T09:14:46Z</time>
      </trkpt>
      <trkpt lat="42.62361" lon="-0.32748">
        <time>2022-07-30T09:14:47Z</time>
      </trkpt>
      <trkpt lat="42.62337" lon="-0.32748">
        <time>2022-07-30T09:14:48Z</time>
      </trkpt>
      <trkpt lat="42.62312" lon="-0.32748">
        <time>2022-07-30T09:14:49Z</time>
      </trkpt>
      <trkpt lat="42.62287" lon="-0.32748">
        <time>2022-07-30T09:14:50Z</time>
      </trkpt>
      <trkpt lat="42.62263" lon="-0.32747">
        <time>2022-07-30T09:14:51Z</time>
      </trkpt>
      <trkpt lat="42.62239" lon="-0.32747">
        <time>2022-07-30T09:14:52Z</time>
      </trkpt>
      <trkpt lat="42.62215" lon="-0.32747">
        <time>2022-07-30T09:14:53Z</time>
      </trkpt>
      <trkpt lat="42.62191" lon="-0.32746">
        <time>2022-07-30T09:14:54Z</time>
      </trkpt>
      <trkpt lat="42.62167" lon="-0.32746">
        <time>2022-07-30T09:14:55Z</time>
      </trkpt>
      <trkpt lat="42.62143" lon="-0.32746">
        <time>2022-07-30T09:14:56Z</time>
      </trkpt>
      <trkpt lat="42.62119" lon="-0.32746">
        <time>2022-07-30T09:14:57Z</time>
      </trkpt>
      <trkpt lat="42.62095" lon="-0.32744">
        <time>2022-07-30T09:14:58Z</time>
      </trkpt>
      <trkpt lat="42.6207" lon="-0.32743">
        <time>2022-07-30T09:14:59Z</time>
      </trkpt>
      <trkpt lat="42.62045" lon="-0.32743">
        <time>2022-07-30T09:15:00Z</time>
      </trkpt>
      <trkpt lat="42.62019" lon="-0.32743">
        <time>2022-07-30T09:15:01Z</time>
      </trkpt>
      <trkpt lat="42.61994" lon="-0.32743">
        <time>2022-07-30T09:15:02Z</time>
      </trkpt>
      <trkpt lat="42.61969" lon="-0.32743">
        <time>2022-07-30T09:15:03Z</time>
      </trkpt>
      <trkpt lat="42.61946" lon="-0.32743">
        <time>2022-07-30T09:15:04Z</time>
      </trkpt>
      <trkpt lat="42.61923" lon="-0.32744">
        <time>2022-07-30T09:15:05Z</time>
      </trkpt>
      <trkpt lat="42.61901" lon="-0.32745">
        <time>2022-07-30T09:15:06Z</time>
      </trkpt>
      <trkpt lat="42.6188" lon="-0.32745">
        <time>2022-07-30T09:15:07Z</time>
      </trkpt>
      <trkpt lat="42.61859" lon="-0.32746">
        <time>2022-07-30T09:15:08Z</time>
      </trkpt>
      <trkpt lat="42.61839" lon="-0.32747">
        <time>2022-07-30T09:15:09Z</time>
      </trkpt>
      <trkpt lat="42.61818" lon="-0.32748">
        <time>2022-07-30T09:15:10Z</time>
      </trkpt>
      <trkpt lat="42.61798" lon="-0.32748">
        <time>2022-07-30T09:15:11Z</time>
      </trkpt>
      <trkpt lat="42.61777" lon="-0.32749">
        <time>2022-07-30T09:15:12Z</time>
      </trkpt>
      <trkpt lat="42.61756" lon="-0.32751">
        <time>2022-07-30T09:15:13Z</time>
      </trkpt>
      <trkpt lat="42.61736" lon="-0.32752">
        <time>2022-07-30T09:15:14Z</time>
      </trkpt>
      <trkpt lat="42.61716" lon="-0.32753">
        <time>2022-07-30T09:15:15Z</time>
      </trkpt>
      <trkpt lat="42.61696" lon="-0.32754">
        <time>2022-07-30T09:15:16Z</time>
      </trkpt>
      <trkpt lat="42.61675" lon="-0.32755">
        <time>2022-07-30T09:15:17Z</time>
      </trkpt>
      <trkpt lat="42.61654" lon="-0.32757">
        <time>2022-07-30T09:15:18Z</time>
      </trkpt>
      <trkpt lat="42.61634" lon="-0.32758">
        <time>2022-07-30T09:15:19Z</time>
      </trkpt>
      <trkpt lat="42.61614" lon="-0.32758">
        <time>2022-07-30T09:15:20Z</time>
      </trkpt>
      <trkpt lat="42.61593" lon="-0.32759">
        <time>2022-07-30T09:15:21Z</time>
      </trkpt>
      <trkpt lat="42.61573" lon="-0.3276">
        <time>2022-07-30T09:15:22Z</time>
      </trkpt>
      <trkpt lat="42.61552" lon="-0.32761">
        <time>2022-07-30T09:15:23Z</time>
      </trkpt>
      <trkpt lat="42.61532" lon="-0.32762">
        <time>2022-07-30T09:15:24Z</time>
      </trkpt>
      <trkpt lat="42.61511" lon="-0.32763">
        <time>2022-07-30T09:15:25Z</time>
      </trkpt>
      <trkpt lat="42.61491" lon="-0.32764">
        <time>2022-07-30T09:15:26Z</time>
      </trkpt>
      <trkpt lat="42.61471" lon="-0.32765">
        <time>2022-07-30T09:15:27Z</time>
      </trkpt>
      <trkpt lat="42.6145" lon="-0.32766">
        <time>2022-07-30T09:15:28Z</time>
      </trkpt>
      <trkpt lat="42.6143" lon="-0.32767">
        <time>2022-07-30T09:15:29Z</time>
      </trkpt>
      <trkpt lat="42.61409" lon="-0.32767">
        <time>2022-07-30T09:15:30Z</time>
      </trkpt>
      <trkpt lat="42.61387" lon="-0.32768">
        <time>2022-07-30T09:15:31Z</time>
      </trkpt>
      <trkpt lat="42.61365" lon="-0.3277">
        <time>2022-07-30T09:15:32Z</time>
      </trkpt>
      <trkpt lat="42.61341" lon="-0.3277">
        <time>2022-07-30T09:15:33Z</time>
      </trkpt>
      <trkpt lat="42.61316" lon="-0.3277">
        <time>2022-07-30T09:15:34Z</time>
      </trkpt>
      <trkpt lat="42.61289" lon="-0.32771">
        <time>2022-07-30T09:15:35Z</time>
      </trkpt>
      <trkpt lat="42.6126" lon="-0.32772">
        <time>2022-07-30T09:15:36Z</time>
      </trkpt>
      <trkpt lat="42.6123" lon="-0.32774">
        <time>2022-07-30T09:15:37Z</time>
      </trkpt>
      <trkpt lat="42.61198" lon="-0.32776">
        <time>2022-07-30T09:15:38Z</time>
      </trkpt>
      <trkpt lat="42.61165" lon="-0.32777">
        <time>2022-07-30T09:15:39Z</time>
      </trkpt>
      <trkpt lat="42.61132" lon="-0.32779">
        <time>2022-07-30T09:15:40Z</time>
      </trkpt>
      <trkpt lat="42.61099" lon="-0.32781">
        <time>2022-07-30T09:15:41Z</time>
      </trkpt>
      <trkpt lat="42.61067" lon="-0.32782">
        <time>2022-07-30T09:15:42Z</time>
      </trkpt>
      <trkpt lat="42.61036" lon="-0.32785">
        <time>2022-07-30T09:15:43Z</time>
      </trkpt>
      <trkpt lat="42.61006" lon="-0.32787">
        <time>2022-07-30T09:15:44Z</time>
      </trkpt>
      <trkpt lat="42.60977" lon="-0.32789">
        <time>2022-07-30T09:15:45Z</time>
      </trkpt>
      <trkpt lat="42.60948" lon="-0.3279">
        <time>2022-07-30T09:15:46Z</time>
      </trkpt>
      <trkpt lat="42.60918" lon="-0.32792">
        <time>2022-07-30T09:15:47Z</time>
      </trkpt>
      <trkpt lat="42.60889" lon="-0.32793">
        <time>2022-07-30T09:15:48Z</time>
      </trkpt>
      <trkpt lat="42.6086" lon="-0.32795">
        <time>2022-07-30T09:15:49Z</time>
      </trkpt>
      <trkpt lat="42.60832" lon="-0.32797">
        <time>2022-07-30T09:15:50Z</time>
      </trkpt>
      <trkpt lat="42.60803" lon="-0.32798">
        <time>2022-07-30T09:15:51Z</time>
      </trkpt>
      <trkpt lat="42.60775" lon="-0.328">
        <time>2022-07-30T09:15:52Z</time>
      </trkpt>
      <trkpt lat="42.60746" lon="-0.32801">
        <time>2022-07-30T09:15:53Z</time>
      </trkpt>
      <trkpt lat="42.60719" lon="-0.32803">
        <time>2022-07-30T09:15:54Z</time>
      </trkpt>
      <trkpt lat="42.60691" lon="-0.32804">
        <time>2022-07-30T09:15:55Z</time>
      </trkpt>
      <trkpt lat="42.60663" lon="-0.32806">
        <time>2022-07-30T09:15:56Z</time>
      </trkpt>
      <trkpt lat="42.60636" lon="-0.32807">
        <time>2022-07-30T09:15:57Z</time>
      </trkpt>
      <trkpt lat="42.60609" lon="-0.32808">
        <time>2022-07-30T09:15:58Z</time>
      </trkpt>
      <trkpt lat="42.60582" lon="-0.32809">
        <time>2022-07-30T09:15:59Z</time>
      </trkpt>
      <trkpt lat="42.60555" lon="-0.32811">
        <time>2022-07-30T09:16:00Z</time>
      </trkpt>
      <trkpt lat="42.60528" lon="-0.32813">
        <time>2022-07-30T09:16:01Z</time>
      </trkpt>
      <trkpt lat="42.60501" lon="-0.32814">
        <time>2022-07-30T09:16:02Z</time>
      </trkpt>
      <trkpt lat="42.60474" lon="-0.32815">
        <time>2022-07-30T09:16:03Z</time>
      </trkpt>
      <trkpt lat="42.60448" lon="-0.32817">
        <time>2022-07-30T09:16:04Z</time>
      </trkpt>
      <trkpt lat="42.60421" lon="-0.32818">
        <time>2022-07-30T09:16:05Z</time>
      </trkpt>
      <trkpt lat="42.60394" lon="-0.32819">
        <time>2022-07-30T09:16:06Z</time>
      </trkpt>
      <trkpt lat="42.60368" lon="-0.32819">
        <time>2022-07-30T09:16:07Z</time>
      </trkpt>
      <trkpt lat="42.60341" lon="-0.32819">
        <time>2022-07-30T09:16:08Z</time>
      </trkpt>
      <trkpt lat="42.60313" lon="-0.32816">
        <time>2022-07-30T09:16:09Z</time>
      </trkpt>
      <trkpt lat="42.60286" lon="-0.3281">
        <time>2022-07-30T09:16:10Z</time>
      </trkpt>
      <trkpt lat="42.60259" lon="-0.32802">
        <time>2022-07-30T09:16:11Z</time>
      </trkpt>
      <trkpt lat="42.60233" lon="-0.32794">
        <time>2022-07-30T09:16:12Z</time>
      </trkpt>
      <trkpt lat="42.60207" lon="-0.32784">
        <time>2022-07-30T09:16:13Z</time>
      </trkpt>
      <trkpt lat="42.60181" lon="-0.32775">
        <time>2022-07-30T09:16:14Z</time>
      </trkpt>
      <trkpt lat="42.60155" lon="-0.32766">
        <time>2022-07-30T09:16:15Z</time>
      </trkpt>
      <trkpt lat="42.60129" lon="-0.32756">
        <time>2022-07-30T09:16:16Z</time>
      </trkpt>
      <trkpt lat="42.60103" lon="-0.32748">
        <time>2022-07-30T09:16:17Z</time>
      </trkpt>
      <trkpt lat="42.60078" lon="-0.3274">
        <time>2022-07-30T09:16:18Z</time>
      </trkpt>
      <trkpt lat="42.60053" lon="-0.32731">
        <time>2022-07-30T09:16:19Z</time>
      </trkpt>
      <trkpt lat="42.60029" lon="-0.32723">
        <time>2022-07-30T09:16:20Z</time>
      </trkpt>
      <trkpt lat="42.60004" lon="-0.32714">
        <time>2022-07-30T09:16:21Z</time>
      </trkpt>
      <trkpt lat="42.59979" lon="-0.32707">
        <time>2022-07-30T09:16:22Z</time>
      </trkpt>
      <trkpt lat="42.59954" lon="-0.32703">
        <time>2022-07-30T09:16:23Z</time>
      </trkpt>
      <trkpt lat="42.59928" lon="-0.32701">
        <time>2022-07-30T09:16:24Z</time>
      </trkpt>
      <trkpt lat="42.59902" lon="-0.327">
        <time>2022-07-30T09:16:25Z</time>
      </trkpt>
      <trkpt lat="42.59877" lon="-0.32699">
        <time>2022-07-30T09:16:26Z</time>
      </trkpt>
      <trkpt lat="42.59853" lon="-0.327">
        <time>2022-07-30T09:16:27Z</time>
      </trkpt>
      <trkpt lat="42.5983" lon="-0.32699">
        <time>2022-07-30T09:16:28Z</time>
      </trkpt>
      <trkpt lat="42.59807" lon="-0.32699">
        <time>2022-07-30T09:16:29Z</time>
      </trkpt>
      <trkpt lat="42.59784" lon="-0.32699">
        <time>2022-07-30T09:16:30Z</time>
      </trkpt>
      <trkpt lat="42.59763" lon="-0.32699">
        <time>2022-07-30T09:16:31Z</time>
      </trkpt>
      <trkpt lat="42.59743" lon="-0.327">
        <time>2022-07-30T09:16:32Z</time>
      </trkpt>
      <trkpt lat="42.59723" lon="-0.32699">
        <time>2022-07-30T09:16:33Z</time>
      </trkpt>
      <trkpt lat="42.59704" lon="-0.32699">
        <time>2022-07-30T09:16:34Z</time>
      </trkpt>
      <trkpt lat="42.59685" lon="-0.327">
        <time>2022-07-30T09:16:35Z</time>
      </trkpt>
      <trkpt lat="42.59666" lon="-0.32699">
        <time>2022-07-30T09:16:36Z</time>
      </trkpt>
      <trkpt lat="42.59647" lon="-0.32699">
        <time>2022-07-30T09:16:37Z</time>
      </trkpt>
      <trkpt lat="42.59629" lon="-0.32699">
        <time>2022-07-30T09:16:38Z</time>
      </trkpt>
      <trkpt lat="42.5961" lon="-0.327">
        <time>2022-07-30T09:16:39Z</time>
      </trkpt>
      <trkpt lat="42.59591" lon="-0.32701">
        <time>2022-07-30T09:16:40Z</time>
      </trkpt>
      <trkpt lat="42.59573" lon="-0.32701">
        <time>2022-07-30T09:16:41Z</time>
      </trkpt>
      <trkpt lat="42.59553" lon="-0.32701">
        <time>2022-07-30T09:16:42Z</time>
      </trkpt>
      <trkpt lat="42.59533" lon="-0.32701">
        <time>2022-07-30T09:16:43Z</time>
      </trkpt>
      <trkpt lat="42.59513" lon="-0.32701">
        <time>2022-07-30T09:16:44Z</time>
      </trkpt>
      <trkpt lat="42.59493" lon="-0.32701">
        <time>2022-07-30T09:16:45Z</time>
      </trkpt>
      <trkpt lat="42.59473" lon="-0.32701">
        <time>2022-07-30T09:16:46Z</time>
      </trkpt>
      <trkpt lat="42.59454" lon="-0.32701">
        <time>2022-07-30T09:16:47Z</time>
      </trkpt>
      <trkpt lat="42.59434" lon="-0.32701">
        <time>2022-07-30T09:16:48Z</time>
      </trkpt>
      <trkpt lat="42.59415" lon="-0.32702">
        <time>2022-07-30T09:16:49Z</time>
      </trkpt>
      <trkpt lat="42.59396" lon="-0.32702">
        <time>2022-07-30T09:16:50Z</time>
      </trkpt>
      <trkpt lat="42.59376" lon="-0.32703">
        <time>2022-07-30T09:16:51Z</time>
      </trkpt>
      <trkpt lat="42.59357" lon="-0.32703">
        <time>2022-07-30T09:16:52Z</time>
      </trkpt>
      <trkpt lat="42.59338" lon="-0.32703">
        <time>2022-07-30T09:16:53Z</time>
      </trkpt>
      <trkpt lat="42.59318" lon="-0.32703">
        <time>2022-07-30T09:16:54Z</time>
      </trkpt>
      <trkpt lat="42.59297" lon="-0.32704">
        <time>2022-07-30T09:16:55Z</time>
      </trkpt>
      <trkpt lat="42.59274" lon="-0.32704">
        <time>2022-07-30T09:16:56Z</time>
      </trkpt>
      <trkpt lat="42.59251" lon="-0.32705">
        <time>2022-07-30T09:16:57Z</time>
      </trkpt>
      <trkpt lat="42.59227" lon="-0.32705">
        <time>2022-07-30T09:16:58Z</time>
      </trkpt>
      <trkpt lat="42.59203" lon="-0.32706">
        <time>2022-07-30T09:16:59Z</time>
      </trkpt>
      <trkpt lat="42.59179" lon="-0.32706">
        <time>2022-07-30T09:17:00Z</time>
      </trkpt>
      <trkpt lat="42.59157" lon="-0.32707">
        <time>2022-07-30T09:17:01Z</time>
      </trkpt>
      <trkpt lat="42.59135" lon="-0.32707">
        <time>2022-07-30T09:17:02Z</time>
      </trkpt>
      <trkpt lat="42.59112" lon="-0.32707">
        <time>2022-07-30T09:17:03Z</time>
      </trkpt>
      <trkpt lat="42.5909" lon="-0.32708">
        <time>2022-07-30T09:17:04Z</time>
      </trkpt>
      <trkpt lat="42.59067" lon="-0.32708">
        <time>2022-07-30T09:17:05Z</time>
      </trkpt>
      <trkpt lat="42.59042" lon="-0.32708">
        <time>2022-07-30T09:17:06Z</time>
      </trkpt>
      <trkpt lat="42.59017" lon="-0.32707">
        <time>2022-07-30T09:17:07Z</time>
      </trkpt>
      <trkpt lat="42.5899" lon="-0.32707">
        <time>2022-07-30T09:17:08Z</time>
      </trkpt>
      <trkpt lat="42.58964" lon="-0.32708">
        <time>2022-07-30T09:17:09Z</time>
      </trkpt>
      <trkpt lat="42.58938" lon="-0.3271">
        <time>2022-07-30T09:17:10Z</time>
      </trkpt>
      <trkpt lat="42.58913" lon="-0.32711">
        <time>2022-07-30T09:17:11Z</time>
      </trkpt>
      <trkpt lat="42.58888" lon="-0.32712">
        <time>2022-07-30T09:17:12Z</time>
      </trkpt>
      <trkpt lat="42.58863" lon="-0.32713">
        <time>2022-07-30T09:17:13Z</time>
      </trkpt>
      <trkpt lat="42.5884" lon="-0.32714">
        <time>2022-07-30T09:17:14Z</time>
      </trkpt>
      <trkpt lat="42.58817" lon="-0.32714">
        <time>2022-07-30T09:17:15Z</time>
      </trkpt>
      <trkpt lat="42.58794" lon="-0.32715">
        <time>2022-07-30T09:17:16Z</time>
      </trkpt>
      <trkpt lat="42.58771" lon="-0.32715">
        <time>2022-07-30T09:17:17Z</time>
      </trkpt>
      <trkpt lat="42.58748" lon="-0.32715">
        <time>2022-07-30T09:17:18Z</time>
      </trkpt>
      <trkpt lat="42.58725" lon="-0.32715">
        <time>2022-07-30T09:17:19Z</time>
      </trkpt>
      <trkpt lat="42.58703" lon="-0.32715">
        <time>2022-07-30T09:17:20Z</time>
      </trkpt>
      <trkpt lat="42.58681" lon="-0.32715">
        <time>2022-07-30T09:17:21Z</time>
      </trkpt>
      <trkpt lat="42.5866" lon="-0.32716">
        <time>2022-07-30T09:17:22Z</time>
      </trkpt>
      <trkpt lat="42.58639" lon="-0.32716">
        <time>2022-07-30T09:17:23Z</time>
      </trkpt>
      <trkpt lat="42.58617" lon="-0.32716">
        <time>2022-07-30T09:17:24Z</time>
      </trkpt>
      <trkpt lat="42.58596" lon="-0.32716">
        <time>2022-07-30T09:17:25Z</time>
      </trkpt>
      <trkpt lat="42.58573" lon="-0.32717">
        <time>2022-07-30T09:17:26Z</time>
      </trkpt>
      <trkpt lat="42.58549" lon="-0.32716">
        <time>2022-07-30T09:17:27Z</time>
      </trkpt>
      <trkpt lat="42.58523" lon="-0.32716">
        <time>2022-07-30T09:17:28Z</time>
      </trkpt>
      <trkpt lat="42.58497" lon="-0.32716">
        <time>2022-07-30T09:17:29Z</time>
      </trkpt>
      <trkpt lat="42.58469" lon="-0.32717">
        <time>2022-07-30T09:17:30Z</time>
      </trkpt>
      <trkpt lat="42.5844" lon="-0.32719">
        <time>2022-07-30T09:17:31Z</time>
      </trkpt>
      <trkpt lat="42.5841" lon="-0.3272">
        <time>2022-07-30T09:17:32Z</time>
      </trkpt>
      <trkpt lat="42.5838" lon="-0.32721">
        <time>2022-07-30T09:17:33Z</time>
      </trkpt>
      <trkpt lat="42.58351" lon="-0.32721">
        <time>2022-07-30T09:17:34Z</time>
      </trkpt>
      <trkpt lat="42.58322" lon="-0.3272">
        <time>2022-07-30T09:17:35Z</time>
      </trkpt>
      <trkpt lat="42.58293" lon="-0.32718">
        <time>2022-07-30T09:17:36Z</time>
      </trkpt>
      <trkpt lat="42.58266" lon="-0.32714">
        <time>2022-07-30T09:17:37Z</time>
      </trkpt>
      <trkpt lat="42.58238" lon="-0.32707">
        <time>2022-07-30T09:17:38Z</time>
      </trkpt>
      <trkpt lat="42.58211" lon="-0.32699">
        <time>2022-07-30T09:17:39Z</time>
      </trkpt>
      <trkpt lat="42.58185" lon="-0.32688">
        <time>2022-07-30T09:17:40Z</time>
      </trkpt>
      <trkpt lat="42.58159" lon="-0.32675">
        <time>2022-07-30T09:17:41Z</time>
      </trkpt>
      <trkpt lat="42.58134" lon="-0.3266">
        <time>2022-07-30T09:17:42Z</time>
      </trkpt>
      <trkpt lat="42.5811" lon="-0.32645">
        <time>2022-07-30T09:17:43Z</time>
      </trkpt>
      <trkpt lat="42.58086" lon="-0.32629">
        <time>2022-07-30T09:17:44Z</time>
      </trkpt>
      <trkpt lat="42.58061" lon="-0.32613">
        <time>2022-07-30T09:17:45Z</time>
      </trkpt>
      <trkpt lat="42.58037" lon="-0.32597">
        <time>2022-07-30T09:17:46Z</time>
      </trkpt>
      <trkpt lat="42.58013" lon="-0.32582">
        <time>2022-07-30T09:17:47Z</time>
      </trkpt>
      <trkpt lat="42.57988" lon="-0.32567">
        <time>2022-07-30T09:17:48Z</time>
      </trkpt>
      <trkpt lat="42.57964" lon="-0.32552">
        <time>2022-07-30T09:17:49Z</time>
      </trkpt>
      <trkpt lat="42.5794" lon="-0.32537">
        <time>2022-07-30T09:17:50Z</time>
      </trkpt>
      <trkpt lat="42.57917" lon="-0.32522">
        <time>2022-07-30T09:17:51Z</time>
      </trkpt>
      <trkpt lat="42.57894" lon="-0.32507">
        <time>2022-07-30T09:17:52Z</time>
      </trkpt>
      <trkpt lat="42.5787" lon="-0.32493">
        <time>2022-07-30T09:17:53Z</time>
      </trkpt>
      <trkpt lat="42.57846" lon="-0.32479">
        <time>2022-07-30T09:17:54Z</time>
      </trkpt>
      <trkpt lat="42.57822" lon="-0.32466">
        <time>2022-07-30T09:17:55Z</time>
      </trkpt>
      <trkpt lat="42.57797" lon="-0.32455">
        <time>2022-07-30T09:17:56Z</time>
      </trkpt>
      <trkpt lat="42.57772" lon="-0.32446">
        <time>2022-07-30T09:17:57Z</time>
      </trkpt>
      <trkpt lat="42.57746" lon="-0.32437">
        <time>2022-07-30T09:17:58Z</time>
      </trkpt>
      <trkpt lat="42.5772" lon="-0.32431">
        <time>2022-07-30T09:17:59Z</time>
      </trkpt>
      <trkpt lat="42.57695" lon="-0.32425">
        <time>2022-07-30T09:18:00Z</time>
      </trkpt>
      <trkpt lat="42.57671" lon="-0.32422">
        <time>2022-07-30T09:18:01Z</time>
      </trkpt>
      <trkpt lat="42.57647" lon="-0.32419">
        <time>2022-07-30T09:18:02Z</time>
      </trkpt>
      <trkpt lat="42.57624" lon="-0.32417">
        <time>2022-07-30T09:18:03Z</time>
      </trkpt>
      <trkpt lat="42.57604" lon="-0.32417">
        <time>2022-07-30T09:18:04Z</time>
      </trkpt>
      <trkpt lat="42.57584" lon="-0.32417">
        <time>2022-07-30T09:18:05Z</time>
      </trkpt>
      <trkpt lat="42.57566" lon="-0.32418">
        <time>2022-07-30T09:18:06Z</time>
      </trkpt>
      <trkpt lat="42.57548" lon="-0.32419">
        <time>2022-07-30T09:18:07Z</time>
      </trkpt>
      <trkpt lat="42.57531" lon="-0.32421">
        <time>2022-07-30T09:18:08Z</time>
      </trkpt>
      <trkpt lat="42.57514" lon="-0.32423">
        <time>2022-07-30T09:18:09Z</time>
      </trkpt>
      <trkpt lat="42.57495" lon="-0.32426">
        <time>2022-07-30T09:18:10Z</time>
      </trkpt>
      <trkpt lat="42.57475" lon="-0.3243">
        <time>2022-07-30T09:18:11Z</time>
      </trkpt>
      <trkpt lat="42.57454" lon="-0.32436">
        <time>2022-07-30T09:18:12Z</time>
      </trkpt>
      <trkpt lat="42.57432" lon="-0.32443">
        <time>2022-07-30T09:18:13Z</time>
      </trkpt>
      <trkpt lat="42.57411" lon="-0.32451">
        <time>2022-07-30T09:18:14Z</time>
      </trkpt>
      <trkpt lat="42.5739" lon="-0.3246">
        <time>2022-07-30T09:18:15Z</time>
      </trkpt>
      <trkpt lat="42.5737" lon="-0.32468">
        <time>2022-07-30T09:18:16Z</time>
      </trkpt>
      <trkpt lat="42.5735" lon="-0.32476">
        <time>2022-07-30T09:18:17Z</time>
      </trkpt>
      <trkpt lat="42.57329" lon="-0.32483">
        <time>2022-07-30T09:18:18Z</time>
      </trkpt>
      <trkpt lat="42.57309" lon="-0.32489">
        <time>2022-07-30T09:18:19Z</time>
      </trkpt>
      <trkpt lat="42.57288" lon="-0.32495">
        <time>2022-07-30T09:18:20Z</time>
      </trkpt>
      <trkpt lat="42.57268" lon="-0.325">
        <time>2022-07-30T09:18:21Z</time>
      </trkpt>
      <trkpt lat="42.57248" lon="-0.32505">
        <time>2022-07-30T09:18:22Z</time>
      </trkpt>
      <trkpt lat="42.57227" lon="-0.32509">
        <time>2022-07-30T09:18:23Z</time>
      </trkpt>
      <trkpt lat="42.57206" lon="-0.32513">
        <time>2022-07-30T09:18:24Z</time>
      </trkpt>
      <trkpt lat="42.57184" lon="-0.32517">
        <time>2022-07-30T09:18:25Z</time>
      </trkpt>
      <trkpt lat="42.57162" lon="-0.3252">
        <time>2022-07-30T09:18:26Z</time>
      </trkpt>
      <trkpt lat="42.57139" lon="-0.32523">
        <time>2022-07-30T09:18:27Z</time>
      </trkpt>
      <trkpt lat="42.57116" lon="-0.32526">
        <time>2022-07-30T09:18:28Z</time>
      </trkpt>
      <trkpt lat="42.57093" lon="-0.32529">
        <time>2022-07-30T09:18:29Z</time>
      </trkpt>
      <trkpt lat="42.5707" lon="-0.32534">
        <time>2022-07-30T09:18:30Z</time>
      </trkpt>
      <trkpt lat="42.57047" lon="-0.3254">
        <time>2022-07-30T09:18:31Z</time>
      </trkpt>
      <trkpt lat="42.57024" lon="-0.32546">
        <time>2022-07-30T09:18:32Z</time>
      </trkpt>
      <trkpt lat="42.57" lon="-0.32553">
        <time>2022-07-30T09:18:33Z</time>
      </trkpt>
      <trkpt lat="42.56976" lon="-0.32562">
        <time>2022-07-30T09:18:34Z</time>
      </trkpt>
      <trkpt lat="42.56952" lon="-0.32572">
        <time>2022-07-30T09:18:35Z</time>
      </trkpt>
      <trkpt lat="42.5693" lon="-0.32583">
        <time>2022-07-30T09:18:36Z</time>
      </trkpt>
      <trkpt lat="42.56906" lon="-0.32596">
        <time>2022-07-30T09:18:37Z</time>
      </trkpt>
      <trkpt lat="42.56884" lon="-0.32609">
        <time>2022-07-30T09:18:38Z</time>
      </trkpt>
      <trkpt lat="42.56861" lon="-0.32623">
        <time>2022-07-30T09:18:39Z</time>
      </trkpt>
      <trkpt lat="42.56839" lon="-0.32638">
        <time>2022-07-30T09:18:40Z</time>
      </trkpt>
      <trkpt lat="42.56816" lon="-0.32652">
        <time>2022-07-30T09:18:41Z</time>
      </trkpt>
      <trkpt lat="42.56795" lon="-0.32666">
        <time>2022-07-30T09:18:42Z</time>
      </trkpt>
      <trkpt lat="42.56773" lon="-0.32681">
        <time>2022-07-30T09:18:43Z</time>
      </trkpt>
      <trkpt lat="42.56751" lon="-0.32695">
        <time>2022-07-30T09:18:44Z</time>
      </trkpt>
      <trkpt lat="42.56729" lon="-0.32709">
        <time>2022-07-30T09:18:45Z</time>
      </trkpt>
      <trkpt lat="42.56707" lon="-0.32724">
        <time>2022-07-30T09:18:46Z</time>
      </trkpt>
      <trkpt lat="42.56684" lon="-0.32739">
        <time>2022-07-30T09:18:47Z</time>
      </trkpt>
      <trkpt lat="42.56661" lon="-0.32754">
        <time>2022-07-30T09:18:48Z</time>
      </trkpt>
      <trkpt lat="42.56638" lon="-0.32768">
        <time>2022-07-30T09:18:49Z</time>
      </trkpt>
      <trkpt lat="42.56616" lon="-0.32783">
        <time>2022-07-30T09:18:50Z</time>
      </trkpt>
      <trkpt lat="42.56593" lon="-0.32798">
        <time>2022-07-30T09:18:51Z</time>
      </trkpt>
      <trkpt lat="42.5657" lon="-0.32814">
        <time>2022-07-30T09:18:52Z</time>
      </trkpt>
      <trkpt lat="42.56546" lon="-0.32829">
        <time>2022-07-30T09:18:53Z</time>
      </trkpt>
      <trkpt lat="42.56524" lon="-0.32844">
        <time>2022-07-30T09:18:54Z</time>
      </trkpt>
      <trkpt lat="42.56501" lon="-0.32858">
        <time>2022-07-30T09:18:55Z</time>
      </trkpt>
      <trkpt lat="42.56479" lon="-0.32872">
        <time>2022-07-30T09:18:56Z</time>
      </trkpt>
      <trkpt lat="42.56457" lon="-0.32886">
        <time>2022-07-30T09:18:57Z</time>
      </trkpt>
      <trkpt lat="42.56434" lon="-0.32901">
        <time>2022-07-30T09:18:58Z</time>
      </trkpt>
      <trkpt lat="42.56412" lon="-0.32915">
        <time>2022-07-30T09:18:59Z</time>
      </trkpt>
      <trkpt lat="42.56391" lon="-0.32929">
        <time>2022-07-30T09:19:00Z</time>
      </trkpt>
      <trkpt lat="42.56369" lon="-0.32943">
        <time>2022-07-30T09:19:01Z</time>
      </trkpt>
      <trkpt lat="42.56347" lon="-0.32958">
        <time>2022-07-30T09:19:02Z</time>
      </trkpt>
      <trkpt lat="42.56325" lon="-0.32972">
        <time>2022-07-30T09:19:03Z</time>
      </trkpt>
      <trkpt lat="42.56303" lon="-0.32988">
        <time>2022-07-30T09:19:04Z</time>
      </trkpt>
      <trkpt lat="42.56281" lon="-0.33004">
        <time>2022-07-30T09:19:05Z</time>
      </trkpt>
      <trkpt lat="42.5626" lon="-0.33023">
        <time>2022-07-30T09:19:06Z</time>
      </trkpt>
      <trkpt lat="42.5624" lon="-0.33043">
        <time>2022-07-30T09:19:07Z</time>
      </trkpt>
      <trkpt lat="42.56219" lon="-0.33065">
        <time>2022-07-30T09:19:08Z</time>
      </trkpt>
      <trkpt lat="42.56199" lon="-0.33088">
        <time>2022-07-30T09:19:09Z</time>
      </trkpt>
      <trkpt lat="42.56179" lon="-0.33112">
        <time>2022-07-30T09:19:10Z</time>
      </trkpt>
      <trkpt lat="42.56158" lon="-0.33137">
        <time>2022-07-30T09:19:11Z</time>
      </trkpt>
      <trkpt lat="42.56137" lon="-0.33163">
        <time>2022-07-30T09:19:12Z</time>
      </trkpt>
      <trkpt lat="42.56117" lon="-0.3319">
        <time>2022-07-30T09:19:13Z</time>
      </trkpt>
      <trkpt lat="42.56096" lon="-0.33216">
        <time>2022-07-30T09:19:14Z</time>
      </trkpt>
      <trkpt lat="42.56076" lon="-0.33241">
        <time>2022-07-30T09:19:15Z</time>
      </trkpt>
      <trkpt lat="42.56057" lon="-0.33264">
        <time>2022-07-30T09:19:16Z</time>
      </trkpt>
      <trkpt lat="42.56038" lon="-0.33287">
        <time>2022-07-30T09:19:17Z</time>
      </trkpt>
      <trkpt lat="42.5602" lon="-0.33309">
        <time>2022-07-30T09:19:18Z</time>
      </trkpt>
      <trkpt lat="42.56003" lon="-0.3333">
        <time>2022-07-30T09:19:19Z</time>
      </trkpt>
      <trkpt lat="42.55985" lon="-0.33352">
        <time>2022-07-30T09:19:20Z</time>
      </trkpt>
      <trkpt lat="42.55967" lon="-0.33374">
        <time>2022-07-30T09:19:21Z</time>
      </trkpt>
      <trkpt lat="42.55949" lon="-0.33394">
        <time>2022-07-30T09:19:22Z</time>
      </trkpt>
      <trkpt lat="42.5593" lon="-0.33417">
        <time>2022-07-30T09:19:23Z</time>
      </trkpt>
      <trkpt lat="42.55911" lon="-0.3344">
        <time>2022-07-30T09:19:24Z</time>
      </trkpt>
      <trkpt lat="42.55893" lon="-0.33464">
        <time>2022-07-30T09:19:25Z</time>
      </trkpt>
      <trkpt lat="42.55874" lon="-0.33487">
        <time>2022-07-30T09:19:26Z</time>
      </trkpt>
      <trkpt lat="42.55855" lon="-0.33512">
        <time>2022-07-30T09:19:27Z</time>
      </trkpt>
      <trkpt lat="42.55833" lon="-0.33537">
        <time>2022-07-30T09:19:28Z</time>
      </trkpt>
      <trkpt lat="42.55811" lon="-0.33563">
        <time>2022-07-30T09:19:29Z</time>
      </trkpt>
      <trkpt lat="42.55789" lon="-0.33589">
        <time>2022-07-30T09:19:30Z</time>
      </trkpt>
      <trkpt lat="42.55768" lon="-0.33615">
        <time>2022-07-30T09:19:31Z</time>
      </trkpt>
      <trkpt lat="42.55748" lon="-0.33642">
        <time>2022-07-30T09:19:32Z</time>
      </trkpt>
      <trkpt lat="42.55729" lon="-0.33668">
        <time>2022-07-30T09:19:33Z</time>
      </trkpt>
      <trkpt lat="42.55709" lon="-0.33692">
        <time>2022-07-30T09:19:34Z</time>
      </trkpt>
      <trkpt lat="42.55691" lon="-0.33716">
        <time>2022-07-30T09:19:35Z</time>
      </trkpt>
      <trkpt lat="42.55672" lon="-0.33739">
        <time>2022-07-30T09:19:36Z</time>
      </trkpt>
      <trkpt lat="42.55654" lon="-0.33761">
        <time>2022-07-30T09:19:37Z</time>
      </trkpt>
      <trkpt lat="42.55636" lon="-0.33783">
        <time>2022-07-30T09:19:38Z</time>
      </trkpt>
      <trkpt lat="42.55618" lon="-0.33805">
        <time>2022-07-30T09:19:39Z</time>
      </trkpt>
      <trkpt lat="42.55601" lon="-0.33827">
        <time>2022-07-30T09:19:40Z</time>
      </trkpt>
      <trkpt lat="42.55583" lon="-0.33848">
        <time>2022-07-30T09:19:41Z</time>
      </trkpt>
      <trkpt lat="42.55565" lon="-0.3387">
        <time>2022-07-30T09:19:42Z</time>
      </trkpt>
      <trkpt lat="42.55548" lon="-0.33891">
        <time>2022-07-30T09:19:43Z</time>
      </trkpt>
      <trkpt lat="42.5553" lon="-0.33913">
        <time>2022-07-30T09:19:44Z</time>
      </trkpt>
      <trkpt lat="42.55513" lon="-0.33933">
        <time>2022-07-30T09:19:45Z</time>
      </trkpt>
      <trkpt lat="42.55497" lon="-0.33954">
        <time>2022-07-30T09:19:46Z</time>
      </trkpt>
      <trkpt lat="42.55481" lon="-0.33974">
        <time>2022-07-30T09:19:47Z</time>
      </trkpt>
      <trkpt lat="42.55465" lon="-0.33994">
        <time>2022-07-30T09:19:48Z</time>
      </trkpt>
      <trkpt lat="42.55449" lon="-0.34013">
        <time>2022-07-30T09:19:49Z</time>
      </trkpt>
      <trkpt lat="42.55433" lon="-0.34032">
        <time>2022-07-30T09:19:50Z</time>
      </trkpt>
      <trkpt lat="42.55418" lon="-0.34051">
        <time>2022-07-30T09:19:51Z</time>
      </trkpt>
      <trkpt lat="42.55401" lon="-0.34071">
        <time>2022-07-30T09:19:52Z</time>
      </trkpt>
      <trkpt lat="42.55385" lon="-0.34091">
        <time>2022-07-30T09:19:53Z</time>
      </trkpt>
      <trkpt lat="42.55368" lon="-0.34112">
        <time>2022-07-30T09:19:54Z</time>
      </trkpt>
      <trkpt lat="42.55353" lon="-0.34131">
        <time>2022-07-30T09:19:55Z</time>
      </trkpt>
      <trkpt lat="42.55337" lon="-0.3415">
        <time>2022-07-30T09:19:56Z</time>
      </trkpt>
      <trkpt lat="42.55322" lon="-0.34169">
        <time>2022-07-30T09:19:57Z</time>
      </trkpt>
      <trkpt lat="42.55307" lon="-0.34186">
        <time>2022-07-30T09:19:58Z</time>
      </trkpt>
      <trkpt lat="42.55293" lon="-0.34204">
        <time>2022-07-30T09:19:59Z</time>
      </trkpt>
      <trkpt lat="42.55279" lon="-0.34221">
        <time>2022-07-30T09:20:00Z</time>
      </trkpt>
      <trkpt lat="42.55265" lon="-0.34238">
        <time>2022-07-30T09:20:01Z</time>
      </trkpt>
      <trkpt lat="42.55251" lon="-0.34255">
        <time>2022-07-30T09:20:02Z</time>
      </trkpt>
      <trkpt lat="42.55238" lon="-0.34271">
        <time>2022-07-30T09:20:03Z</time>
      </trkpt>
      <trkpt lat="42.55226" lon="-0.34286">
        <time>2022-07-30T09:20:04Z</time>
      </trkpt>
      <trkpt lat="42.55213" lon="-0.34301">
        <time>2022-07-30T09:20:05Z</time>
      </trkpt>
      <trkpt lat="42.55201" lon="-0.34316">
        <time>2022-07-30T09:20:06Z</time>
      </trkpt>
      <trkpt lat="42.55189" lon="-0.34332">
        <time>2022-07-30T09:20:07Z</time>
      </trkpt>
      <trkpt lat="42.55178" lon="-0.34346">
        <time>2022-07-30T09:20:08Z</time>
      </trkpt>
      <trkpt lat="42.55167" lon="-0.3436">
        <time>2022-07-30T09:20:09Z</time>
      </trkpt>
      <trkpt lat="42.55155" lon="-0.34374">
        <time>2022-07-30T09:20:10Z</time>
      </trkpt>
      <trkpt lat="42.55144" lon="-0.34389">
        <time>2022-07-30T09:20:11Z</time>
      </trkpt>
      <trkpt lat="42.55132" lon="-0.34403">
        <time>2022-07-30T09:20:12Z</time>
      </trkpt>
      <trkpt lat="42.5512" lon="-0.34418">
        <time>2022-07-30T09:20:13Z</time>
      </trkpt>
      <trkpt lat="42.55109" lon="-0.34433">
        <time>2022-07-30T09:20:14Z</time>
      </trkpt>
      <trkpt lat="42.55097" lon="-0.34448">
        <time>2022-07-30T09:20:15Z</time>
      </trkpt>
      <trkpt lat="42.55085" lon="-0.34463">
        <time>2022-07-30T09:20:16Z</time>
      </trkpt>
      <trkpt lat="42.55073" lon="-0.34478">
        <time>2022-07-30T09:20:17Z</time>
      </trkpt>
      <trkpt lat="42.55061" lon="-0.34493">
        <time>2022-07-30T09:20:18Z</time>
      </trkpt>
      <trkpt lat="42.55049" lon="-0.34508">
        <time>2022-07-30T09:20:19Z</time>
      </trkpt>
      <trkpt lat="42.55036" lon="-0.34523">
        <time>2022-07-30T09:20:20Z</time>
      </trkpt>
      <trkpt lat="42.55024" lon="-0.34538">
        <time>2022-07-30T09:20:21Z</time>
      </trkpt>
      <trkpt lat="42.55011" lon="-0.34554">
        <time>2022-07-30T09:20:22Z</time>
      </trkpt>
      <trkpt lat="42.54998" lon="-0.3457">
        <time>2022-07-30T09:20:23Z</time>
      </trkpt>
      <trkpt lat="42.54985" lon="-0.34585">
        <time>2022-07-30T09:20:24Z</time>
      </trkpt>
      <trkpt lat="42.54973" lon="-0.34601">
        <time>2022-07-30T09:20:25Z</time>
      </trkpt>
      <trkpt lat="42.54961" lon="-0.34616">
        <time>2022-07-30T09:20:26Z</time>
      </trkpt>
      <trkpt lat="42.54949" lon="-0.34631">
        <time>2022-07-30T09:20:27Z</time>
      </trkpt>
      <trkpt lat="42.54937" lon="-0.34645">
        <time>2022-07-30T09:20:28Z</time>
      </trkpt>
      <trkpt lat="42.54925" lon="-0.34659">
        <time>2022-07-30T09:20:29Z</time>
      </trkpt>
      <trkpt lat="42.54913" lon="-0.34673">
        <time>2022-07-30T09:20:30Z</time>
      </trkpt>
      <trkpt lat="42.54901" lon="-0.34687">
        <time>2022-07-30T09:20:31Z</time>
      </trkpt>
      <trkpt lat="42.54889" lon="-0.34702">
        <time>2022-07-30T09:20:32Z</time>
      </trkpt>
      <trkpt lat="42.54877" lon="-0.34716">
        <time>2022-07-30T09:20:33Z</time>
      </trkpt>
      <trkpt lat="42.54864" lon="-0.34731">
        <time>2022-07-30T09:20:34Z</time>
      </trkpt>
      <trkpt lat="42.54852" lon="-0.34745">
        <time>2022-07-30T09:20:35Z</time>
      </trkpt>
      <trkpt lat="42.54839" lon="-0.34759">
        <time>2022-07-30T09:20:36Z</time>
      </trkpt>
      <trkpt lat="42.54826" lon="-0.34773">
        <time>2022-07-30T09:20:37Z</time>
      </trkpt>
      <trkpt lat="42.54812" lon="-0.34788">
        <time>2022-07-30T09:20:38Z</time>
      </trkpt>
      <trkpt lat="42.54798" lon="-0.34803">
        <time>2022-07-30T09:20:39Z</time>
      </trkpt>
      <trkpt lat="42.54784" lon="-0.34819">
        <time>2022-07-30T09:20:40Z</time>
      </trkpt>
      <trkpt lat="42.54769" lon="-0.34835">
        <time>2022-07-30T09:20:41Z</time>
      </trkpt>
      <trkpt lat="42.54755" lon="-0.34851">
        <time>2022-07-30T09:20:42Z</time>
      </trkpt>
      <trkpt lat="42.54741" lon="-0.34867">
        <time>2022-07-30T09:20:43Z</time>
      </trkpt>
      <trkpt lat="42.54727" lon="-0.34883">
        <time>2022-07-30T09:20:44Z</time>
      </trkpt>
      <trkpt lat="42.54714" lon="-0.34898">
        <time>2022-07-30T09:20:45Z</time>
      </trkpt>
      <trkpt lat="42.54701" lon="-0.34913">
        <time>2022-07-30T09:20:46Z</time>
      </trkpt>
      <trkpt lat="42.54689" lon="-0.34928">
        <time>2022-07-30T09:20:47Z</time>
      </trkpt>
      <trkpt lat="42.54676" lon="-0.34942">
        <time>2022-07-30T09:20:48Z</time>
      </trkpt>
      <trkpt lat="42.54663" lon="-0.34958">
        <time>2022-07-30T09:20:49Z</time>
      </trkpt>
      <trkpt lat="42.5465" lon="-0.34973">
        <time>2022-07-30T09:20:50Z</time>
      </trkpt>
      <trkpt lat="42.54637" lon="-0.34987">
        <time>2022-07-30T09:20:51Z</time>
      </trkpt>
      <trkpt lat="42.54624" lon="-0.35002">
        <time>2022-07-30T09:20:52Z</time>
      </trkpt>
      <trkpt lat="42.54612" lon="-0.35017">
        <time>2022-07-30T09:20:53Z</time>
      </trkpt>
      <trkpt lat="42.54599" lon="-0.35031">
        <time>2022-07-30T09:20:54Z</time>
      </trkpt>
      <trkpt lat="42.54586" lon="-0.35046">
        <time>2022-07-30T09:20:55Z</time>
      </trkpt>
      <trkpt lat="42.54572" lon="-0.35063">
        <time>2022-07-30T09:20:56Z</time>
      </trkpt>
      <trkpt lat="42.54558" lon="-0.35079">
        <time>2022-07-30T09:20:57Z</time>
      </trkpt>
      <trkpt lat="42.54542" lon="-0.35094">
        <time>2022-07-30T09:20:58Z</time>
      </trkpt>
      <trkpt lat="42.54526" lon="-0.35109">
        <time>2022-07-30T09:20:59Z</time>
      </trkpt>
      <trkpt lat="42.54507" lon="-0.35124">
        <time>2022-07-30T09:21:00Z</time>
      </trkpt>
      <trkpt lat="42.54486" lon="-0.35139">
        <time>2022-07-30T09:21:01Z</time>
      </trkpt>
      <trkpt lat="42.54464" lon="-0.35154">
        <time>2022-07-30T09:21:02Z</time>
      </trkpt>
      <trkpt lat="42.54442" lon="-0.35167">
        <time>2022-07-30T09:21:03Z</time>
      </trkpt>
      <trkpt lat="42.54421" lon="-0.35181">
        <time>2022-07-30T09:21:04Z</time>
      </trkpt>
      <trkpt lat="42.54401" lon="-0.35194">
        <time>2022-07-30T09:21:05Z</time>
      </trkpt>
      <trkpt lat="42.54382" lon="-0.35205">
        <time>2022-07-30T09:21:06Z</time>
      </trkpt>
      <trkpt lat="42.54364" lon="-0.35216">
        <time>2022-07-30T09:21:07Z</time>
      </trkpt>
      <trkpt lat="42.54346" lon="-0.35226">
        <time>2022-07-30T09:21:08Z</time>
      </trkpt>
      <trkpt lat="42.54328" lon="-0.35236">
        <time>2022-07-30T09:21:09Z</time>
      </trkpt>
      <trkpt lat="42.54311" lon="-0.35246">
        <time>2022-07-30T09:21:10Z</time>
      </trkpt>
      <trkpt lat="42.54294" lon="-0.35256">
        <time>2022-07-30T09:21:11Z</time>
      </trkpt>
      <trkpt lat="42.54278" lon="-0.35266">
        <time>2022-07-30T09:21:12Z</time>
      </trkpt>
      <trkpt lat="42.54262" lon="-0.35276">
        <time>2022-07-30T09:21:13Z</time>
      </trkpt>
      <trkpt lat="42.54246" lon="-0.35286">
        <time>2022-07-30T09:21:14Z</time>
      </trkpt>
      <trkpt lat="42.54229" lon="-0.35296">
        <time>2022-07-30T09:21:15Z</time>
      </trkpt>
      <trkpt lat="42.54214" lon="-0.35307">
        <time>2022-07-30T09:21:16Z</time>
      </trkpt>
      <trkpt lat="42.54198" lon="-0.3532">
        <time>2022-07-30T09:21:17Z</time>
      </trkpt>
      <trkpt lat="42.54183" lon="-0.35334">
        <time>2022-07-30T09:21:18Z</time>
      </trkpt>
      <trkpt lat="42.54168" lon="-0.35349">
        <time>2022-07-30T09:21:19Z</time>
      </trkpt>
      <trkpt lat="42.54154" lon="-0.35366">
        <time>2022-07-30T09:21:20Z</time>
      </trkpt>
      <trkpt lat="42.5414" lon="-0.35384">
        <time>2022-07-30T09:21:21Z</time>
      </trkpt>
      <trkpt lat="42.54126" lon="-0.35404">
        <time>2022-07-30T09:21:22Z</time>
      </trkpt>
      <trkpt lat="42.54113" lon="-0.35423">
        <time>2022-07-30T09:21:23Z</time>
      </trkpt>
      <trkpt lat="42.541" lon="-0.35443">
        <time>2022-07-30T09:21:24Z</time>
      </trkpt>
      <trkpt lat="42.54087" lon="-0.35462">
        <time>2022-07-30T09:21:25Z</time>
      </trkpt>
      <trkpt lat="42.54073" lon="-0.35482">
        <time>2022-07-30T09:21:26Z</time>
      </trkpt>
      <trkpt lat="42.5406" lon="-0.35501">
        <time>2022-07-30T09:21:27Z</time>
      </trkpt>
      <trkpt lat="42.54047" lon="-0.3552">
        <time>2022-07-30T09:21:28Z</time>
      </trkpt>
      <trkpt lat="42.54033" lon="-0.35539">
        <time>2022-07-30T09:21:29Z</time>
      </trkpt>
      <trkpt lat="42.5402" lon="-0.35558">
        <time>2022-07-30T09:21:30Z</time>
      </trkpt>
      <trkpt lat="42.54007" lon="-0.35577">
        <time>2022-07-30T09:21:31Z</time>
      </trkpt>
      <trkpt lat="42.53994" lon="-0.35596">
        <time>2022-07-30T09:21:32Z</time>
      </trkpt>
      <trkpt lat="42.53982" lon="-0.35615">
        <time>2022-07-30T09:21:33Z</time>
      </trkpt>
      <trkpt lat="42.53969" lon="-0.35633">
        <time>2022-07-30T09:21:34Z</time>
      </trkpt>
      <trkpt lat="42.53956" lon="-0.3565">
        <time>2022-07-30T09:21:35Z</time>
      </trkpt>
      <trkpt lat="42.53944" lon="-0.35668">
        <time>2022-07-30T09:21:36Z</time>
      </trkpt>
      <trkpt lat="42.53931" lon="-0.35686">
        <time>2022-07-30T09:21:37Z</time>
      </trkpt>
      <trkpt lat="42.53919" lon="-0.35703">
        <time>2022-07-30T09:21:38Z</time>
      </trkpt>
      <trkpt lat="42.53907" lon="-0.35721">
        <time>2022-07-30T09:21:39Z</time>
      </trkpt>
      <trkpt lat="42.53896" lon="-0.35738">
        <time>2022-07-30T09:21:40Z</time>
      </trkpt>
      <trkpt lat="42.53885" lon="-0.35753">
        <time>2022-07-30T09:21:41Z</time>
      </trkpt>
      <trkpt lat="42.53875" lon="-0.35768">
        <time>2022-07-30T09:21:42Z</time>
      </trkpt>
      <trkpt lat="42.53865" lon="-0.35783">
        <time>2022-07-30T09:21:43Z</time>
      </trkpt>
      <trkpt lat="42.53856" lon="-0.35797">
        <time>2022-07-30T09:21:44Z</time>
      </trkpt>
      <trkpt lat="42.53847" lon="-0.3581">
        <time>2022-07-30T09:21:45Z</time>
      </trkpt>
      <trkpt lat="42.53837" lon="-0.35823">
        <time>2022-07-30T09:21:46Z</time>
      </trkpt>
      <trkpt lat="42.53828" lon="-0.35836">
        <time>2022-07-30T09:21:47Z</time>
      </trkpt>
      <trkpt lat="42.5382" lon="-0.35849">
        <time>2022-07-30T09:21:48Z</time>
      </trkpt>
      <trkpt lat="42.53811" lon="-0.35862">
        <time>2022-07-30T09:21:49Z</time>
      </trkpt>
      <trkpt lat="42.53802" lon="-0.35875">
        <time>2022-07-30T09:21:50Z</time>
      </trkpt>
      <trkpt lat="42.53793" lon="-0.35888">
        <time>2022-07-30T09:21:51Z</time>
      </trkpt>
      <trkpt lat="42.53784" lon="-0.35901">
        <time>2022-07-30T09:21:52Z</time>
      </trkpt>
      <trkpt lat="42.53775" lon="-0.35914">
        <time>2022-07-30T09:21:53Z</time>
      </trkpt>
      <trkpt lat="42.53766" lon="-0.35927">
        <time>2022-07-30T09:21:54Z</time>
      </trkpt>
      <trkpt lat="42.53757" lon="-0.3594">
        <time>2022-07-30T09:21:55Z</time>
      </trkpt>
      <trkpt lat="42.53748" lon="-0.35954">
        <time>2022-07-30T09:21:56Z</time>
      </trkpt>
      <trkpt lat="42.53739" lon="-0.35968">
        <time>2022-07-30T09:21:57Z</time>
      </trkpt>
      <trkpt lat="42.53729" lon="-0.35982">
        <time>2022-07-30T09:21:58Z</time>
      </trkpt>
      <trkpt lat="42.5372" lon="-0.35997">
        <time>2022-07-30T09:21:59Z</time>
      </trkpt>
      <trkpt lat="42.53711" lon="-0.36013">
        <time>2022-07-30T09:22:00Z</time>
      </trkpt>
      <trkpt lat="42.53702" lon="-0.3603">
        <time>2022-07-30T09:22:01Z</time>
      </trkpt>
      <trkpt lat="42.53695" lon="-0.36046">
        <time>2022-07-30T09:22:02Z</time>
      </trkpt>
      <trkpt lat="42.53689" lon="-0.36061">
        <time>2022-07-30T09:22:03Z</time>
      </trkpt>
      <trkpt lat="42.53683" lon="-0.36077">
        <time>2022-07-30T09:22:04Z</time>
      </trkpt>
      <trkpt lat="42.53678" lon="-0.36093">
        <time>2022-07-30T09:22:05Z</time>
      </trkpt>
      <trkpt lat="42.53674" lon="-0.36108">
        <time>2022-07-30T09:22:06Z</time>
      </trkpt>
      <trkpt lat="42.5367" lon="-0.36125">
        <time>2022-07-30T09:22:07Z</time>
      </trkpt>
      <trkpt lat="42.53667" lon="-0.36142">
        <time>2022-07-30T09:22:08Z</time>
      </trkpt>
      <trkpt lat="42.53665" lon="-0.3616">
        <time>2022-07-30T09:22:09Z</time>
      </trkpt>
      <trkpt lat="42.53663" lon="-0.36179">
        <time>2022-07-30T09:22:10Z</time>
      </trkpt>
      <trkpt lat="42.53662" lon="-0.36199">
        <time>2022-07-30T09:22:11Z</time>
      </trkpt>
      <trkpt lat="42.53662" lon="-0.3622">
        <time>2022-07-30T09:22:12Z</time>
      </trkpt>
      <trkpt lat="42.53663" lon="-0.36241">
        <time>2022-07-30T09:22:13Z</time>
      </trkpt>
      <trkpt lat="42.53665" lon="-0.36263">
        <time>2022-07-30T09:22:14Z</time>
      </trkpt>
      <trkpt lat="42.53668" lon="-0.36285">
        <time>2022-07-30T09:22:15Z</time>
      </trkpt>
      <trkpt lat="42.53672" lon="-0.36306">
        <time>2022-07-30T09:22:16Z</time>
      </trkpt>
      <trkpt lat="42.53677" lon="-0.36327">
        <time>2022-07-30T09:22:17Z</time>
      </trkpt>
      <trkpt lat="42.53682" lon="-0.36347">
        <time>2022-07-30T09:22:18Z</time>
      </trkpt>
      <trkpt lat="42.53687" lon="-0.36368">
        <time>2022-07-30T09:22:19Z</time>
      </trkpt>
      <trkpt lat="42.53693" lon="-0.36388">
        <time>2022-07-30T09:22:20Z</time>
      </trkpt>
      <trkpt lat="42.53698" lon="-0.36409">
        <time>2022-07-30T09:22:21Z</time>
      </trkpt>
      <trkpt lat="42.53704" lon="-0.36431">
        <time>2022-07-30T09:22:22Z</time>
      </trkpt>
      <trkpt lat="42.53709" lon="-0.36453">
        <time>2022-07-30T09:22:23Z</time>
      </trkpt>
      <trkpt lat="42.53715" lon="-0.36477">
        <time>2022-07-30T09:22:24Z</time>
      </trkpt>
      <trkpt lat="42.53719" lon="-0.36502">
        <time>2022-07-30T09:22:25Z</time>
      </trkpt>
      <trkpt lat="42.53722" lon="-0.36528">
        <time>2022-07-30T09:22:26Z</time>
      </trkpt>
      <trkpt lat="42.53724" lon="-0.36554">
        <time>2022-07-30T09:22:27Z</time>
      </trkpt>
      <trkpt lat="42.53724" lon="-0.36579">
        <time>2022-07-30T09:22:28Z</time>
      </trkpt>
      <trkpt lat="42.53723" lon="-0.36604">
        <time>2022-07-30T09:22:29Z</time>
      </trkpt>
      <trkpt lat="42.53721" lon="-0.36628">
        <time>2022-07-30T09:22:30Z</time>
      </trkpt>
      <trkpt lat="42.5372" lon="-0.36652">
        <time>2022-07-30T09:22:31Z</time>
      </trkpt>
      <trkpt lat="42.53717" lon="-0.36675">
        <time>2022-07-30T09:22:32Z</time>
      </trkpt>
      <trkpt lat="42.53715" lon="-0.36698">
        <time>2022-07-30T09:22:33Z</time>
      </trkpt>
      <trkpt lat="42.53713" lon="-0.3672">
        <time>2022-07-30T09:22:34Z</time>
      </trkpt>
      <trkpt lat="42.5371" lon="-0.36743">
        <time>2022-07-30T09:22:35Z</time>
      </trkpt>
      <trkpt lat="42.53708" lon="-0.36765">
        <time>2022-07-30T09:22:36Z</time>
      </trkpt>
      <trkpt lat="42.53706" lon="-0.36787">
        <time>2022-07-30T09:22:37Z</time>
      </trkpt>
      <trkpt lat="42.53704" lon="-0.36809">
        <time>2022-07-30T09:22:38Z</time>
      </trkpt>
      <trkpt lat="42.53701" lon="-0.36831">
        <time>2022-07-30T09:22:39Z</time>
      </trkpt>
      <trkpt lat="42.53698" lon="-0.36852">
        <time>2022-07-30T09:22:40Z</time>
      </trkpt>
      <trkpt lat="42.53694" lon="-0.36872">
        <time>2022-07-30T09:22:41Z</time>
      </trkpt>
      <trkpt lat="42.53689" lon="-0.36892">
        <time>2022-07-30T09:22:42Z</time>
      </trkpt>
      <trkpt lat="42.53683" lon="-0.36912">
        <time>2022-07-30T09:22:43Z</time>
      </trkpt>
      <trkpt lat="42.53675" lon="-0.36931">
        <time>2022-07-30T09:22:44Z</time>
      </trkpt>
      <trkpt lat="42.53667" lon="-0.36949">
        <time>2022-07-30T09:22:45Z</time>
      </trkpt>
      <trkpt lat="42.53657" lon="-0.36966">
        <time>2022-07-30T09:22:46Z</time>
      </trkpt>
      <trkpt lat="42.53646" lon="-0.36981">
        <time>2022-07-30T09:22:47Z</time>
      </trkpt>
      <trkpt lat="42.53634" lon="-0.36995">
        <time>2022-07-30T09:22:48Z</time>
      </trkpt>
      <trkpt lat="42.53622" lon="-0.37008">
        <time>2022-07-30T09:22:49Z</time>
      </trkpt>
      <trkpt lat="42.5361" lon="-0.37022">
        <time>2022-07-30T09:22:50Z</time>
      </trkpt>
      <trkpt lat="42.53598" lon="-0.37036">
        <time>2022-07-30T09:22:51Z</time>
      </trkpt>
      <trkpt lat="42.53588" lon="-0.37052">
        <time>2022-07-30T09:22:52Z</time>
      </trkpt>
      <trkpt lat="42.5358" lon="-0.3707">
        <time>2022-07-30T09:22:53Z</time>
      </trkpt>
      <trkpt lat="42.53575" lon="-0.37088">
        <time>2022-07-30T09:22:54Z</time>
      </trkpt>
      <trkpt lat="42.53572" lon="-0.37108">
        <time>2022-07-30T09:22:55Z</time>
      </trkpt>
      <trkpt lat="42.53572" lon="-0.37128">
        <time>2022-07-30T09:22:56Z</time>
      </trkpt>
      <trkpt lat="42.53574" lon="-0.37148">
        <time>2022-07-30T09:22:57Z</time>
      </trkpt>
      <trkpt lat="42.53576" lon="-0.37168">
        <time>2022-07-30T09:22:58Z</time>
      </trkpt>
      <trkpt lat="42.5358" lon="-0.37187">
        <time>2022-07-30T09:22:59Z</time>
      </trkpt>
      <trkpt lat="42.53586" lon="-0.37204">
        <time>2022-07-30T09:23:00Z</time>
      </trkpt>
      <trkpt lat="42.53593" lon="-0.3722">
        <time>2022-07-30T09:23:01Z</time>
      </trkpt>
      <trkpt lat="42.53602" lon="-0.37236">
        <time>2022-07-30T09:23:02Z</time>
      </trkpt>
      <trkpt lat="42.53611" lon="-0.37252">
        <time>2022-07-30T09:23:03Z</time>
      </trkpt>
      <trkpt lat="42.53622" lon="-0.3727">
        <time>2022-07-30T09:23:04Z</time>
      </trkpt>
      <trkpt lat="42.53632" lon="-0.37288">
        <time>2022-07-30T09:23:05Z</time>
      </trkpt>
      <trkpt lat="42.53642" lon="-0.37306">
        <time>2022-07-30T09:23:06Z</time>
      </trkpt>
      <trkpt lat="42.53651" lon="-0.37325">
        <time>2022-07-30T09:23:07Z</time>
      </trkpt>
      <trkpt lat="42.53661" lon="-0.37344">
        <time>2022-07-30T09:23:08Z</time>
      </trkpt>
      <trkpt lat="42.53671" lon="-0.37364">
        <time>2022-07-30T09:23:09Z</time>
      </trkpt>
      <trkpt lat="42.5368" lon="-0.37385">
        <time>2022-07-30T09:23:10Z</time>
      </trkpt>
      <trkpt lat="42.53688" lon="-0.37407">
        <time>2022-07-30T09:23:11Z</time>
      </trkpt>
      <trkpt lat="42.53694" lon="-0.37431">
        <time>2022-07-30T09:23:12Z</time>
      </trkpt>
      <trkpt lat="42.537" lon="-0.37455">
        <time>2022-07-30T09:23:13Z</time>
      </trkpt>
      <trkpt lat="42.53704" lon="-0.37481">
        <time>2022-07-30T09:23:14Z</time>
      </trkpt>
      <trkpt lat="42.53707" lon="-0.37506">
        <time>2022-07-30T09:23:15Z</time>
      </trkpt>
      <trkpt lat="42.5371" lon="-0.37531">
        <time>2022-07-30T09:23:16Z</time>
      </trkpt>
      <trkpt lat="42.53712" lon="-0.37555">
        <time>2022-07-30T09:23:17Z</time>
      </trkpt>
      <trkpt lat="42.53713" lon="-0.3758">
        <time>2022-07-30T09:23:18Z</time>
      </trkpt>
      <trkpt lat="42.53714" lon="-0.37604">
        <time>2022-07-30T09:23:19Z</time>
      </trkpt>
      <trkpt lat="42.53715" lon="-0.37629">
        <time>2022-07-30T09:23:20Z</time>
      </trkpt>
      <trkpt lat="42.53714" lon="-0.37651">
        <time>2022-07-30T09:23:21Z</time>
      </trkpt>
      <trkpt lat="42.53713" lon="-0.37673">
        <time>2022-07-30T09:23:22Z</time>
      </trkpt>
      <trkpt lat="42.53713" lon="-0.37692">
        <time>2022-07-30T09:23:23Z</time>
      </trkpt>
      <trkpt lat="42.53711" lon="-0.37711">
        <time>2022-07-30T09:23:24Z</time>
      </trkpt>
      <trkpt lat="42.53709" lon="-0.37729">
        <time>2022-07-30T09:23:25Z</time>
      </trkpt>
      <trkpt lat="42.53707" lon="-0.37747">
        <time>2022-07-30T09:23:26Z</time>
      </trkpt>
      <trkpt lat="42.53705" lon="-0.37764">
        <time>2022-07-30T09:23:27Z</time>
      </trkpt>
      <trkpt lat="42.53702" lon="-0.3778">
        <time>2022-07-30T09:23:28Z</time>
      </trkpt>
      <trkpt lat="42.53699" lon="-0.37796">
        <time>2022-07-30T09:23:29Z</time>
      </trkpt>
      <trkpt lat="42.53696" lon="-0.37809">
        <time>2022-07-30T09:23:30Z</time>
      </trkpt>
      <trkpt lat="42.53692" lon="-0.37822">
        <time>2022-07-30T09:23:31Z</time>
      </trkpt>
      <trkpt lat="42.53688" lon="-0.37833">
        <time>2022-07-30T09:23:32Z</time>
      </trkpt>
      <trkpt lat="42.53684" lon="-0.37842">
        <time>2022-07-30T09:23:33Z</time>
      </trkpt>
      <trkpt lat="42.5368" lon="-0.37851">
        <time>2022-07-30T09:23:34Z</time>
      </trkpt>
      <trkpt lat="42.53676" lon="-0.37859">
        <time>2022-07-30T09:23:35Z</time>
      </trkpt>
      <trkpt lat="42.53672" lon="-0.37867">
        <time>2022-07-30T09:23:36Z</time>
      </trkpt>
      <trkpt lat="42.5367" lon="-0.37877">
        <time>2022-07-30T09:23:37Z</time>
      </trkpt>
      <trkpt lat="42.53671" lon="-0.37887">
        <time>2022-07-30T09:23:38Z</time>
      </trkpt>
      <trkpt lat="42.53672" lon="-0.37897">
        <time>2022-07-30T09:23:39Z</time>
      </trkpt>
      <trkpt lat="42.53672" lon="-0.37908">
        <time>2022-07-30T09:23:40Z</time>
      </trkpt>
      <trkpt lat="42.53669" lon="-0.37919">
        <time>2022-07-30T09:23:41Z</time>
      </trkpt>
      <trkpt lat="42.53666" lon="-0.37931">
        <time>2022-07-30T09:23:42Z</time>
      </trkpt>
      <trkpt lat="42.53664" lon="-0.37945">
        <time>2022-07-30T09:23:43Z</time>
      </trkpt>
      <trkpt lat="42.53664" lon="-0.37961">
        <time>2022-07-30T09:23:44Z</time>
      </trkpt>
      <trkpt lat="42.53665" lon="-0.37978">
        <time>2022-07-30T09:23:45Z</time>
      </trkpt>
      <trkpt lat="42.53665" lon="-0.37996">
        <time>2022-07-30T09:23:46Z</time>
      </trkpt>
      <trkpt lat="42.53664" lon="-0.38015">
        <time>2022-07-30T09:23:47Z</time>
      </trkpt>
      <trkpt lat="42.53663" lon="-0.38036">
        <time>2022-07-30T09:23:48Z</time>
      </trkpt>
      <trkpt lat="42.53661" lon="-0.38057">
        <time>2022-07-30T09:23:49Z</time>
      </trkpt>
      <trkpt lat="42.5366" lon="-0.3808">
        <time>2022-07-30T09:23:50Z</time>
      </trkpt>
      <trkpt lat="42.53656" lon="-0.38105">
        <time>2022-07-30T09:23:51Z</time>
      </trkpt>
      <trkpt lat="42.53652" lon="-0.3813">
        <time>2022-07-30T09:23:52Z</time>
      </trkpt>
      <trkpt lat="42.53646" lon="-0.38156">
        <time>2022-07-30T09:23:53Z</time>
      </trkpt>
      <trkpt lat="42.5364" lon="-0.3818">
        <time>2022-07-30T09:23:54Z</time>
      </trkpt>
      <trkpt lat="42.53633" lon="-0.38205">
        <time>2022-07-30T09:23:55Z</time>
      </trkpt>
      <trkpt lat="42.53627" lon="-0.38228">
        <time>2022-07-30T09:23:56Z</time>
      </trkpt>
      <trkpt lat="42.5362" lon="-0.38249">
        <time>2022-07-30T09:23:57Z</time>
      </trkpt>
      <trkpt lat="42.53614" lon="-0.38268">
        <time>2022-07-30T09:23:58Z</time>
      </trkpt>
      <trkpt lat="42.53608" lon="-0.38286">
        <time>2022-07-30T09:23:59Z</time>
      </trkpt>
      <trkpt lat="42.53603" lon="-0.38305">
        <time>2022-07-30T09:24:00Z</time>
      </trkpt>
      <trkpt lat="42.53597" lon="-0.38323">
        <time>2022-07-30T09:24:01Z</time>
      </trkpt>
      <trkpt lat="42.53592" lon="-0.38343">
        <time>2022-07-30T09:24:02Z</time>
      </trkpt>
      <trkpt lat="42.53586" lon="-0.38363">
        <time>2022-07-30T09:24:03Z</time>
      </trkpt>
      <trkpt lat="42.53581" lon="-0.38383">
        <time>2022-07-30T09:24:04Z</time>
      </trkpt>
      <trkpt lat="42.53576" lon="-0.38405">
        <time>2022-07-30T09:24:05Z</time>
      </trkpt>
      <trkpt lat="42.53572" lon="-0.38427">
        <time>2022-07-30T09:24:06Z</time>
      </trkpt>
      <trkpt lat="42.53568" lon="-0.38451">
        <time>2022-07-30T09:24:07Z</time>
      </trkpt>
      <trkpt lat="42.53564" lon="-0.38474">
        <time>2022-07-30T09:24:08Z</time>
      </trkpt>
      <trkpt lat="42.53562" lon="-0.38499">
        <time>2022-07-30T09:24:09Z</time>
      </trkpt>
      <trkpt lat="42.5356" lon="-0.38523">
        <time>2022-07-30T09:24:10Z</time>
      </trkpt>
      <trkpt lat="42.53558" lon="-0.38548">
        <time>2022-07-30T09:24:11Z</time>
      </trkpt>
      <trkpt lat="42.53558" lon="-0.38573">
        <time>2022-07-30T09:24:12Z</time>
      </trkpt>
      <trkpt lat="42.53558" lon="-0.38599">
        <time>2022-07-30T09:24:13Z</time>
      </trkpt>
      <trkpt lat="42.5356" lon="-0.38624">
        <time>2022-07-30T09:24:14Z</time>
      </trkpt>
      <trkpt lat="42.53562" lon="-0.38649">
        <time>2022-07-30T09:24:15Z</time>
      </trkpt>
      <trkpt lat="42.53564" lon="-0.38673">
        <time>2022-07-30T09:24:16Z</time>
      </trkpt>
      <trkpt lat="42.53567" lon="-0.38698">
        <time>2022-07-30T09:24:17Z</time>
      </trkpt>
      <trkpt lat="42.5357" lon="-0.38722">
        <time>2022-07-30T09:24:18Z</time>
      </trkpt>
      <trkpt lat="42.53575" lon="-0.38746">
        <time>2022-07-30T09:24:19Z</time>
      </trkpt>
      <trkpt lat="42.5358" lon="-0.3877">
        <time>2022-07-30T09:24:20Z</time>
      </trkpt>
      <trkpt lat="42.53586" lon="-0.38793">
        <time>2022-07-30T09:24:21Z</time>
      </trkpt>
      <trkpt lat="42.53593" lon="-0.38816">
        <time>2022-07-30T09:24:22Z</time>
      </trkpt>
      <trkpt lat="42.53601" lon="-0.38839">
        <time>2022-07-30T09:24:23Z</time>
      </trkpt>
      <trkpt lat="42.53609" lon="-0.3886">
        <time>2022-07-30T09:24:24Z</time>
      </trkpt>
      <trkpt lat="42.53617" lon="-0.38882">
        <time>2022-07-30T09:24:25Z</time>
      </trkpt>
      <trkpt lat="42.53626" lon="-0.38903">
        <time>2022-07-30T09:24:26Z</time>
      </trkpt>
      <trkpt lat="42.53634" lon="-0.38925">
        <time>2022-07-30T09:24:27Z</time>
      </trkpt>
      <trkpt lat="42.53643" lon="-0.38946">
        <time>2022-07-30T09:24:28Z</time>
      </trkpt>
      <trkpt lat="42.53652" lon="-0.38967">
        <time>2022-07-30T09:24:29Z</time>
      </trkpt>
      <trkpt lat="42.53661" lon="-0.38989">
        <time>2022-07-30T09:24:30Z</time>
      </trkpt>
      <trkpt lat="42.5367" lon="-0.39009">
        <time>2022-07-30T09:24:31Z</time>
      </trkpt>
      <trkpt lat="42.53678" lon="-0.3903">
        <time>2022-07-30T09:24:32Z</time>
      </trkpt>
      <trkpt lat="42.53687" lon="-0.39051">
        <time>2022-07-30T09:24:33Z</time>
      </trkpt>
      <trkpt lat="42.53696" lon="-0.39073">
        <time>2022-07-30T09:24:34Z</time>
      </trkpt>
      <trkpt lat="42.53704" lon="-0.39094">
        <time>2022-07-30T09:24:35Z</time>
      </trkpt>
      <trkpt lat="42.53713" lon="-0.39114">
        <time>2022-07-30T09:24:36Z</time>
      </trkpt>
      <trkpt lat="42.53721" lon="-0.39135">
        <time>2022-07-30T09:24:37Z</time>
      </trkpt>
      <trkpt lat="42.5373" lon="-0.39157">
        <time>2022-07-30T09:24:38Z</time>
      </trkpt>
      <trkpt lat="42.53738" lon="-0.39179">
        <time>2022-07-30T09:24:39Z</time>
      </trkpt>
      <trkpt lat="42.53747" lon="-0.392">
        <time>2022-07-30T09:24:40Z</time>
      </trkpt>
      <trkpt lat="42.53756" lon="-0.39221">
        <time>2022-07-30T09:24:41Z</time>
      </trkpt>
      <trkpt lat="42.53765" lon="-0.39243">
        <time>2022-07-30T09:24:42Z</time>
      </trkpt>
      <trkpt lat="42.53774" lon="-0.39265">
        <time>2022-07-30T09:24:43Z</time>
      </trkpt>
      <trkpt lat="42.53783" lon="-0.39287">
        <time>2022-07-30T09:24:44Z</time>
      </trkpt>
      <trkpt lat="42.53792" lon="-0.39307">
        <time>2022-07-30T09:24:45Z</time>
      </trkpt>
      <trkpt lat="42.538" lon="-0.39328">
        <time>2022-07-30T09:24:46Z</time>
      </trkpt>
      <trkpt lat="42.53809" lon="-0.39348">
        <time>2022-07-30T09:24:47Z</time>
      </trkpt>
      <trkpt lat="42.53817" lon="-0.39368">
        <time>2022-07-30T09:24:48Z</time>
      </trkpt>
      <trkpt lat="42.53825" lon="-0.39388">
        <time>2022-07-30T09:24:49Z</time>
      </trkpt>
      <trkpt lat="42.53833" lon="-0.39407">
        <time>2022-07-30T09:24:50Z</time>
      </trkpt>
      <trkpt lat="42.53841" lon="-0.39426">
        <time>2022-07-30T09:24:51Z</time>
      </trkpt>
      <trkpt lat="42.53848" lon="-0.39444">
        <time>2022-07-30T09:24:52Z</time>
      </trkpt>
      <trkpt lat="42.53856" lon="-0.39461">
        <time>2022-07-30T09:24:53Z</time>
      </trkpt>
      <trkpt lat="42.53862" lon="-0.39477">
        <time>2022-07-30T09:24:54Z</time>
      </trkpt>
      <trkpt lat="42.53868" lon="-0.39492">
        <time>2022-07-30T09:24:55Z</time>
      </trkpt>
      <trkpt lat="42.53874" lon="-0.39506">
        <time>2022-07-30T09:24:56Z</time>
      </trkpt>
      <trkpt lat="42.5388" lon="-0.3952">
        <time>2022-07-30T09:24:57Z</time>
      </trkpt>
      <trkpt lat="42.53885" lon="-0.39533">
        <time>2022-07-30T09:24:58Z</time>
      </trkpt>
      <trkpt lat="42.5389" lon="-0.39545">
        <time>2022-07-30T09:24:59Z</time>
      </trkpt>
      <trkpt lat="42.53894" lon="-0.39556">
        <time>2022-07-30T09:25:00Z</time>
      </trkpt>
      <trkpt lat="42.53899" lon="-0.39567">
        <time>2022-07-30T09:25:01Z</time>
      </trkpt>
      <trkpt lat="42.53903" lon="-0.39576">
        <time>2022-07-30T09:25:02Z</time>
      </trkpt>
      <trkpt lat="42.53906" lon="-0.39586">
        <time>2022-07-30T09:25:03Z</time>
      </trkpt>
      <trkpt lat="42.5391" lon="-0.39595">
        <time>2022-07-30T09:25:04Z</time>
      </trkpt>
      <trkpt lat="42.53914" lon="-0.39605">
        <time>2022-07-30T09:25:05Z</time>
      </trkpt>
      <trkpt lat="42.53917" lon="-0.39614">
        <time>2022-07-30T09:25:06Z</time>
      </trkpt>
      <trkpt lat="42.53919" lon="-0.39622">
        <time>2022-07-30T09:25:07Z</time>
      </trkpt>
      <trkpt lat="42.53922" lon="-0.39629">
        <time>2022-07-30T09:25:08Z</time>
      </trkpt>
      <trkpt lat="42.53926" lon="-0.39634">
        <time>2022-07-30T09:25:09Z</time>
      </trkpt>
      <trkpt lat="42.5393" lon="-0.39637">
        <time>2022-07-30T09:25:10Z</time>
      </trkpt>
      <trkpt lat="42.53935" lon="-0.3964">
        <time>2022-07-30T09:25:11Z</time>
      </trkpt>
      <trkpt lat="42.53942" lon="-0.39641">
        <time>2022-07-30T09:25:12Z</time>
      </trkpt>
      <trkpt lat="42.5395" lon="-0.39642">
        <time>2022-07-30T09:25:13Z</time>
      </trkpt>
      <trkpt lat="42.53958" lon="-0.39645">
        <time>2022-07-30T09:25:14Z</time>
      </trkpt>
      <trkpt lat="42.53967" lon="-0.3965">
        <time>2022-07-30T09:25:15Z</time>
      </trkpt>
      <trkpt lat="42.53977" lon="-0.39659">
        <time>2022-07-30T09:25:16Z</time>
      </trkpt>
      <trkpt lat="42.53988" lon="-0.39668">
        <time>2022-07-30T09:25:17Z</time>
      </trkpt>
      <trkpt lat="42.54" lon="-0.39676">
        <time>2022-07-30T09:25:18Z</time>
      </trkpt>
      <trkpt lat="42.54013" lon="-0.39682">
        <time>2022-07-30T09:25:19Z</time>
      </trkpt>
      <trkpt lat="42.54026" lon="-0.3969">
        <time>2022-07-30T09:25:20Z</time>
      </trkpt>
      <trkpt lat="42.54037" lon="-0.39701">
        <time>2022-07-30T09:25:21Z</time>
      </trkpt>
      <trkpt lat="42.54047" lon="-0.39713">
        <time>2022-07-30T09:25:22Z</time>
      </trkpt>
      <trkpt lat="42.54055" lon="-0.39728">
        <time>2022-07-30T09:25:23Z</time>
      </trkpt>
      <trkpt lat="42.54061" lon="-0.39744">
        <time>2022-07-30T09:25:24Z</time>
      </trkpt>
      <trkpt lat="42.54067" lon="-0.39761">
        <time>2022-07-30T09:25:25Z</time>
      </trkpt>
      <trkpt lat="42.54071" lon="-0.3978">
        <time>2022-07-30T09:25:26Z</time>
      </trkpt>
      <trkpt lat="42.54074" lon="-0.398">
        <time>2022-07-30T09:25:27Z</time>
      </trkpt>
      <trkpt lat="42.54076" lon="-0.39821">
        <time>2022-07-30T09:25:28Z</time>
      </trkpt>
      <trkpt lat="42.54079" lon="-0.39841">
        <time>2022-07-30T09:25:29Z</time>
      </trkpt>
      <trkpt lat="42.54082" lon="-0.39861">
        <time>2022-07-30T09:25:30Z</time>
      </trkpt>
      <trkpt lat="42.54085" lon="-0.39881">
        <time>2022-07-30T09:25:31Z</time>
      </trkpt>
      <trkpt lat="42.54089" lon="-0.399">
        <time>2022-07-30T09:25:32Z</time>
      </trkpt>
      <trkpt lat="42.54094" lon="-0.39918">
        <time>2022-07-30T09:25:33Z</time>
      </trkpt>
      <trkpt lat="42.54101" lon="-0.39936">
        <time>2022-07-30T09:25:34Z</time>
      </trkpt>
      <trkpt lat="42.54109" lon="-0.39955">
        <time>2022-07-30T09:25:35Z</time>
      </trkpt>
      <trkpt lat="42.54117" lon="-0.39977">
        <time>2022-07-30T09:25:36Z</time>
      </trkpt>
      <trkpt lat="42.54127" lon="-0.40001">
        <time>2022-07-30T09:25:37Z</time>
      </trkpt>
      <trkpt lat="42.54137" lon="-0.40024">
        <time>2022-07-30T09:25:38Z</time>
      </trkpt>
      <trkpt lat="42.54147" lon="-0.40048">
        <time>2022-07-30T09:25:39Z</time>
      </trkpt>
      <trkpt lat="42.54157" lon="-0.40073">
        <time>2022-07-30T09:25:40Z</time>
      </trkpt>
      <trkpt lat="42.54168" lon="-0.40099">
        <time>2022-07-30T09:25:41Z</time>
      </trkpt>
      <trkpt lat="42.54179" lon="-0.40129">
        <time>2022-07-30T09:25:42Z</time>
      </trkpt>
      <trkpt lat="42.54192" lon="-0.40159">
        <time>2022-07-30T09:25:43Z</time>
      </trkpt>
      <trkpt lat="42.54205" lon="-0.40192">
        <time>2022-07-30T09:25:44Z</time>
      </trkpt>
      <trkpt lat="42.54219" lon="-0.40226">
        <time>2022-07-30T09:25:45Z</time>
      </trkpt>
      <trkpt lat="42.54234" lon="-0.4026">
        <time>2022-07-30T09:25:46Z</time>
      </trkpt>
      <trkpt lat="42.54248" lon="-0.40294">
        <time>2022-07-30T09:25:47Z</time>
      </trkpt>
      <trkpt lat="42.54263" lon="-0.4033">
        <time>2022-07-30T09:25:48Z</time>
      </trkpt>
      <trkpt lat="42.54278" lon="-0.40365">
        <time>2022-07-30T09:25:49Z</time>
      </trkpt>
      <trkpt lat="42.54293" lon="-0.40401">
        <time>2022-07-30T09:25:50Z</time>
      </trkpt>
      <trkpt lat="42.54308" lon="-0.40436">
        <time>2022-07-30T09:25:51Z</time>
      </trkpt>
      <trkpt lat="42.54322" lon="-0.4047">
        <time>2022-07-30T09:25:52Z</time>
      </trkpt>
      <trkpt lat="42.54337" lon="-0.40504">
        <time>2022-07-30T09:25:53Z</time>
      </trkpt>
      <trkpt lat="42.54352" lon="-0.40538">
        <time>2022-07-30T09:25:54Z</time>
      </trkpt>
      <trkpt lat="42.54367" lon="-0.40571">
        <time>2022-07-30T09:25:55Z</time>
      </trkpt>
      <trkpt lat="42.5438" lon="-0.40605">
        <time>2022-07-30T09:25:56Z</time>
      </trkpt>
      <trkpt lat="42.54395" lon="-0.40638">
        <time>2022-07-30T09:25:57Z</time>
      </trkpt>
      <trkpt lat="42.54409" lon="-0.40672">
        <time>2022-07-30T09:25:58Z</time>
      </trkpt>
      <trkpt lat="42.54423" lon="-0.40708">
        <time>2022-07-30T09:25:59Z</time>
      </trkpt>
      <trkpt lat="42.54438" lon="-0.40745">
        <time>2022-07-30T09:26:00Z</time>
      </trkpt>
      <trkpt lat="42.54452" lon="-0.40784">
        <time>2022-07-30T09:26:01Z</time>
      </trkpt>
      <trkpt lat="42.54467" lon="-0.40824">
        <time>2022-07-30T09:26:02Z</time>
      </trkpt>
      <trkpt lat="42.54481" lon="-0.40865">
        <time>2022-07-30T09:26:03Z</time>
      </trkpt>
      <trkpt lat="42.54494" lon="-0.40906">
        <time>2022-07-30T09:26:04Z</time>
      </trkpt>
      <trkpt lat="42.54507" lon="-0.40947">
        <time>2022-07-30T09:26:05Z</time>
      </trkpt>
      <trkpt lat="42.54519" lon="-0.40989">
        <time>2022-07-30T09:26:06Z</time>
      </trkpt>
      <trkpt lat="42.54531" lon="-0.4103">
        <time>2022-07-30T09:26:07Z</time>
      </trkpt>
      <trkpt lat="42.54542" lon="-0.41072">
        <time>2022-07-30T09:26:08Z</time>
      </trkpt>
      <trkpt lat="42.54553" lon="-0.41114">
        <time>2022-07-30T09:26:09Z</time>
      </trkpt>
      <trkpt lat="42.54563" lon="-0.41156">
        <time>2022-07-30T09:26:10Z</time>
      </trkpt>
      <trkpt lat="42.54572" lon="-0.41199">
        <time>2022-07-30T09:26:11Z</time>
      </trkpt>
      <trkpt lat="42.54581" lon="-0.41242">
        <time>2022-07-30T09:26:12Z</time>
      </trkpt>
      <trkpt lat="42.5459" lon="-0.41285">
        <time>2022-07-30T09:26:13Z</time>
      </trkpt>
      <trkpt lat="42.546" lon="-0.41328">
        <time>2022-07-30T09:26:14Z</time>
      </trkpt>
      <trkpt lat="42.54609" lon="-0.41371">
        <time>2022-07-30T09:26:15Z</time>
      </trkpt>
      <trkpt lat="42.54618" lon="-0.41414">
        <time>2022-07-30T09:26:16Z</time>
      </trkpt>
      <trkpt lat="42.54628" lon="-0.41457">
        <time>2022-07-30T09:26:17Z</time>
      </trkpt>
      <trkpt lat="42.54637" lon="-0.415">
        <time>2022-07-30T09:26:18Z</time>
      </trkpt>
      <trkpt lat="42.54646" lon="-0.41542">
        <time>2022-07-30T09:26:19Z</time>
      </trkpt>
      <trkpt lat="42.54655" lon="-0.41585">
        <time>2022-07-30T09:26:20Z</time>
      </trkpt>
      <trkpt lat="42.54665" lon="-0.41628">
        <time>2022-07-30T09:26:21Z</time>
      </trkpt>
      <trkpt lat="42.54674" lon="-0.41671">
        <time>2022-07-30T09:26:22Z</time>
      </trkpt>
      <trkpt lat="42.54684" lon="-0.41714">
        <time>2022-07-30T09:26:23Z</time>
      </trkpt>
      <trkpt lat="42.54694" lon="-0.41757">
        <time>2022-07-30T09:26:24Z</time>
      </trkpt>
      <trkpt lat="42.54704" lon="-0.41799">
        <time>2022-07-30T09:26:25Z</time>
      </trkpt>
      <trkpt lat="42.54714" lon="-0.41842">
        <time>2022-07-30T09:26:26Z</time>
      </trkpt>
      <trkpt lat="42.54725" lon="-0.41885">
        <time>2022-07-30T09:26:27Z</time>
      </trkpt>
      <trkpt lat="42.54736" lon="-0.41927">
        <time>2022-07-30T09:26:28Z</time>
      </trkpt>
      <trkpt lat="42.54748" lon="-0.41969">
        <time>2022-07-30T09:26:29Z</time>
      </trkpt>
      <trkpt lat="42.54759" lon="-0.42012">
        <time>2022-07-30T09:26:30Z</time>
      </trkpt>
      <trkpt lat="42.54771" lon="-0.42054">
        <time>2022-07-30T09:26:31Z</time>
      </trkpt>
      <trkpt lat="42.54782" lon="-0.42096">
        <time>2022-07-30T09:26:32Z</time>
      </trkpt>
      <trkpt lat="42.54794" lon="-0.42137">
        <time>2022-07-30T09:26:33Z</time>
      </trkpt>
      <trkpt lat="42.54806" lon="-0.42179">
        <time>2022-07-30T09:26:34Z</time>
      </trkpt>
      <trkpt lat="42.54819" lon="-0.42221">
        <time>2022-07-30T09:26:35Z</time>
      </trkpt>
      <trkpt lat="42.54832" lon="-0.42263">
        <time>2022-07-30T09:26:36Z</time>
      </trkpt>
      <trkpt lat="42.54845" lon="-0.42304">
        <time>2022-07-30T09:26:37Z</time>
      </trkpt>
      <trkpt lat="42.54858" lon="-0.42346">
        <time>2022-07-30T09:26:38Z</time>
      </trkpt>
      <trkpt lat="42.54871" lon="-0.42386">
        <time>2022-07-30T09:26:39Z</time>
      </trkpt>
      <trkpt lat="42.54883" lon="-0.42426">
        <time>2022-07-30T09:26:40Z</time>
      </trkpt>
      <trkpt lat="42.54896" lon="-0.42465">
        <time>2022-07-30T09:26:41Z</time>
      </trkpt>
      <trkpt lat="42.54908" lon="-0.42505">
        <time>2022-07-30T09:26:42Z</time>
      </trkpt>
      <trkpt lat="42.5492" lon="-0.42545">
        <time>2022-07-30T09:26:43Z</time>
      </trkpt>
      <trkpt lat="42.54931" lon="-0.42585">
        <time>2022-07-30T09:26:44Z</time>
      </trkpt>
      <trkpt lat="42.54942" lon="-0.42625">
        <time>2022-07-30T09:26:45Z</time>
      </trkpt>
      <trkpt lat="42.54952" lon="-0.42665">
        <time>2022-07-30T09:26:46Z</time>
      </trkpt>
      <trkpt lat="42.54962" lon="-0.42706">
        <time>2022-07-30T09:26:47Z</time>
      </trkpt>
      <trkpt lat="42.54972" lon="-0.42747">
        <time>2022-07-30T09:26:48Z</time>
      </trkpt>
      <trkpt lat="42.54981" lon="-0.42789">
        <time>2022-07-30T09:26:49Z</time>
      </trkpt>
      <trkpt lat="42.54989" lon="-0.42832">
        <time>2022-07-30T09:26:50Z</time>
      </trkpt>
      <trkpt lat="42.54997" lon="-0.42873">
        <time>2022-07-30T09:26:51Z</time>
      </trkpt>
      <trkpt lat="42.55004" lon="-0.42915">
        <time>2022-07-30T09:26:52Z</time>
      </trkpt>
      <trkpt lat="42.5501" lon="-0.42957">
        <time>2022-07-30T09:26:53Z</time>
      </trkpt>
      <trkpt lat="42.55017" lon="-0.42999">
        <time>2022-07-30T09:26:54Z</time>
      </trkpt>
      <trkpt lat="42.55023" lon="-0.43042">
        <time>2022-07-30T09:26:55Z</time>
      </trkpt>
      <trkpt lat="42.55028" lon="-0.43084">
        <time>2022-07-30T09:26:56Z</time>
      </trkpt>
      <trkpt lat="42.55032" lon="-0.43128">
        <time>2022-07-30T09:26:57Z</time>
      </trkpt>
      <trkpt lat="42.55035" lon="-0.43171">
        <time>2022-07-30T09:26:58Z</time>
      </trkpt>
      <trkpt lat="42.55039" lon="-0.43215">
        <time>2022-07-30T09:26:59Z</time>
      </trkpt>
      <trkpt lat="42.55042" lon="-0.4326">
        <time>2022-07-30T09:27:00Z</time>
      </trkpt>
      <trkpt lat="42.55044" lon="-0.43304">
        <time>2022-07-30T09:27:01Z</time>
      </trkpt>
      <trkpt lat="42.55046" lon="-0.43347">
        <time>2022-07-30T09:27:02Z</time>
      </trkpt>
      <trkpt lat="42.55048" lon="-0.43391">
        <time>2022-07-30T09:27:03Z</time>
      </trkpt>
      <trkpt lat="42.5505" lon="-0.43435">
        <time>2022-07-30T09:27:04Z</time>
      </trkpt>
      <trkpt lat="42.55052" lon="-0.43479">
        <time>2022-07-30T09:27:05Z</time>
      </trkpt>
      <trkpt lat="42.55055" lon="-0.43523">
        <time>2022-07-30T09:27:06Z</time>
      </trkpt>
      <trkpt lat="42.55057" lon="-0.43569">
        <time>2022-07-30T09:27:07Z</time>
      </trkpt>
      <trkpt lat="42.5506" lon="-0.43614">
        <time>2022-07-30T09:27:08Z</time>
      </trkpt>
      <trkpt lat="42.55063" lon="-0.4366">
        <time>2022-07-30T09:27:09Z</time>
      </trkpt>
      <trkpt lat="42.55067" lon="-0.43707">
        <time>2022-07-30T09:27:10Z</time>
      </trkpt>
      <trkpt lat="42.55071" lon="-0.43754">
        <time>2022-07-30T09:27:11Z</time>
      </trkpt>
      <trkpt lat="42.55076" lon="-0.43801">
        <time>2022-07-30T09:27:12Z</time>
      </trkpt>
      <trkpt lat="42.55082" lon="-0.43848">
        <time>2022-07-30T09:27:13Z</time>
      </trkpt>
      <trkpt lat="42.55088" lon="-0.43895">
        <time>2022-07-30T09:27:14Z</time>
      </trkpt>
      <trkpt lat="42.55094" lon="-0.43941">
        <time>2022-07-30T09:27:15Z</time>
      </trkpt>
      <trkpt lat="42.55102" lon="-0.43987">
        <time>2022-07-30T09:27:16Z</time>
      </trkpt>
      <trkpt lat="42.5511" lon="-0.44032">
        <time>2022-07-30T09:27:17Z</time>
      </trkpt>
      <trkpt lat="42.55118" lon="-0.44077">
        <time>2022-07-30T09:27:18Z</time>
      </trkpt>
      <trkpt lat="42.55127" lon="-0.44122">
        <time>2022-07-30T09:27:19Z</time>
      </trkpt>
      <trkpt lat="42.55136" lon="-0.44167">
        <time>2022-07-30T09:27:20Z</time>
      </trkpt>
      <trkpt lat="42.55146" lon="-0.44212">
        <time>2022-07-30T09:27:21Z</time>
      </trkpt>
      <trkpt lat="42.55156" lon="-0.44257">
        <time>2022-07-30T09:27:22Z</time>
      </trkpt>
      <trkpt lat="42.55165" lon="-0.44301">
        <time>2022-07-30T09:27:23Z</time>
      </trkpt>
      <trkpt lat="42.55175" lon="-0.44346">
        <time>2022-07-30T09:27:24Z</time>
      </trkpt>
      <trkpt lat="42.55184" lon="-0.44391">
        <time>2022-07-30T09:27:25Z</time>
      </trkpt>
      <trkpt lat="42.55194" lon="-0.44435">
        <time>2022-07-30T09:27:26Z</time>
      </trkpt>
      <trkpt lat="42.55204" lon="-0.4448">
        <time>2022-07-30T09:27:27Z</time>
      </trkpt>
      <trkpt lat="42.55214" lon="-0.44525">
        <time>2022-07-30T09:27:28Z</time>
      </trkpt>
      <trkpt lat="42.55223" lon="-0.44571">
        <time>2022-07-30T09:27:29Z</time>
      </trkpt>
      <trkpt lat="42.55233" lon="-0.44616">
        <time>2022-07-30T09:27:30Z</time>
      </trkpt>
      <trkpt lat="42.55242" lon="-0.44662">
        <time>2022-07-30T09:27:31Z</time>
      </trkpt>
      <trkpt lat="42.55252" lon="-0.44707">
        <time>2022-07-30T09:27:32Z</time>
      </trkpt>
      <trkpt lat="42.55261" lon="-0.44753">
        <time>2022-07-30T09:27:33Z</time>
      </trkpt>
      <trkpt lat="42.55271" lon="-0.44799">
        <time>2022-07-30T09:27:34Z</time>
      </trkpt>
      <trkpt lat="42.55281" lon="-0.44844">
        <time>2022-07-30T09:27:35Z</time>
      </trkpt>
      <trkpt lat="42.55291" lon="-0.44889">
        <time>2022-07-30T09:27:36Z</time>
      </trkpt>
      <trkpt lat="42.55301" lon="-0.44935">
        <time>2022-07-30T09:27:37Z</time>
      </trkpt>
      <trkpt lat="42.55311" lon="-0.4498">
        <time>2022-07-30T09:27:38Z</time>
      </trkpt>
      <trkpt lat="42.55321" lon="-0.45025">
        <time>2022-07-30T09:27:39Z</time>
      </trkpt>
      <trkpt lat="42.55331" lon="-0.4507">
        <time>2022-07-30T09:27:40Z</time>
      </trkpt>
      <trkpt lat="42.55341" lon="-0.45116">
        <time>2022-07-30T09:27:41Z</time>
      </trkpt>
      <trkpt lat="42.55351" lon="-0.45162">
        <time>2022-07-30T09:27:42Z</time>
      </trkpt>
      <trkpt lat="42.5536" lon="-0.45208">
        <time>2022-07-30T09:27:43Z</time>
      </trkpt>
      <trkpt lat="42.5537" lon="-0.45253">
        <time>2022-07-30T09:27:44Z</time>
      </trkpt>
      <trkpt lat="42.5538" lon="-0.45298">
        <time>2022-07-30T09:27:45Z</time>
      </trkpt>
      <trkpt lat="42.5539" lon="-0.45343">
        <time>2022-07-30T09:27:46Z</time>
      </trkpt>
      <trkpt lat="42.554" lon="-0.45388">
        <time>2022-07-30T09:27:47Z</time>
      </trkpt>
      <trkpt lat="42.5541" lon="-0.45432">
        <time>2022-07-30T09:27:48Z</time>
      </trkpt>
      <trkpt lat="42.55421" lon="-0.45476">
        <time>2022-07-30T09:27:49Z</time>
      </trkpt>
      <trkpt lat="42.55431" lon="-0.4552">
        <time>2022-07-30T09:27:50Z</time>
      </trkpt>
      <trkpt lat="42.55441" lon="-0.45563">
        <time>2022-07-30T09:27:51Z</time>
      </trkpt>
      <trkpt lat="42.55451" lon="-0.45607">
        <time>2022-07-30T09:27:52Z</time>
      </trkpt>
      <trkpt lat="42.55461" lon="-0.45651">
        <time>2022-07-30T09:27:53Z</time>
      </trkpt>
      <trkpt lat="42.5547" lon="-0.45694">
        <time>2022-07-30T09:27:54Z</time>
      </trkpt>
      <trkpt lat="42.5548" lon="-0.45739">
        <time>2022-07-30T09:27:55Z</time>
      </trkpt>
      <trkpt lat="42.55489" lon="-0.45783">
        <time>2022-07-30T09:27:56Z</time>
      </trkpt>
      <trkpt lat="42.55499" lon="-0.45827">
        <time>2022-07-30T09:27:57Z</time>
      </trkpt>
      <trkpt lat="42.55508" lon="-0.45871">
        <time>2022-07-30T09:27:58Z</time>
      </trkpt>
      <trkpt lat="42.55517" lon="-0.45915">
        <time>2022-07-30T09:27:59Z</time>
      </trkpt>
      <trkpt lat="42.55526" lon="-0.45959">
        <time>2022-07-30T09:28:00Z</time>
      </trkpt>
      <trkpt lat="42.55535" lon="-0.46003">
        <time>2022-07-30T09:28:01Z</time>
      </trkpt>
      <trkpt lat="42.55544" lon="-0.46048">
        <time>2022-07-30T09:28:02Z</time>
      </trkpt>
      <trkpt lat="42.55552" lon="-0.46093">
        <time>2022-07-30T09:28:03Z</time>
      </trkpt>
      <trkpt lat="42.5556" lon="-0.46138">
        <time>2022-07-30T09:28:04Z</time>
      </trkpt>
      <trkpt lat="42.55566" lon="-0.46184">
        <time>2022-07-30T09:28:05Z</time>
      </trkpt>
      <trkpt lat="42.55572" lon="-0.4623">
        <time>2022-07-30T09:28:06Z</time>
      </trkpt>
      <trkpt lat="42.55577" lon="-0.46275">
        <time>2022-07-30T09:28:07Z</time>
      </trkpt>
      <trkpt lat="42.55582" lon="-0.46321">
        <time>2022-07-30T09:28:08Z</time>
      </trkpt>
      <trkpt lat="42.55585" lon="-0.46368">
        <time>2022-07-30T09:28:09Z</time>
      </trkpt>
      <trkpt lat="42.55587" lon="-0.46415">
        <time>2022-07-30T09:28:10Z</time>
      </trkpt>
      <trkpt lat="42.55589" lon="-0.46462">
        <time>2022-07-30T09:28:11Z</time>
      </trkpt>
      <trkpt lat="42.5559" lon="-0.46509">
        <time>2022-07-30T09:28:12Z</time>
      </trkpt>
      <trkpt lat="42.55591" lon="-0.46556">
        <time>2022-07-30T09:28:13Z</time>
      </trkpt>
      <trkpt lat="42.55592" lon="-0.46604">
        <time>2022-07-30T09:28:14Z</time>
      </trkpt>
      <trkpt lat="42.55592" lon="-0.46651">
        <time>2022-07-30T09:28:15Z</time>
      </trkpt>
      <trkpt lat="42.55593" lon="-0.46698">
        <time>2022-07-30T09:28:16Z</time>
      </trkpt>
      <trkpt lat="42.55593" lon="-0.46746">
        <time>2022-07-30T09:28:17Z</time>
      </trkpt>
      <trkpt lat="42.55593" lon="-0.46794">
        <time>2022-07-30T09:28:18Z</time>
      </trkpt>
      <trkpt lat="42.55594" lon="-0.46841">
        <time>2022-07-30T09:28:19Z</time>
      </trkpt>
      <trkpt lat="42.55594" lon="-0.46889">
        <time>2022-07-30T09:28:20Z</time>
      </trkpt>
      <trkpt lat="42.55595" lon="-0.46937">
        <time>2022-07-30T09:28:21Z</time>
      </trkpt>
      <trkpt lat="42.55595" lon="-0.46985">
        <time>2022-07-30T09:28:22Z</time>
      </trkpt>
      <trkpt lat="42.55595" lon="-0.47034">
        <time>2022-07-30T09:28:23Z</time>
      </trkpt>
      <trkpt lat="42.55595" lon="-0.47082">
        <time>2022-07-30T09:28:24Z</time>
      </trkpt>
      <trkpt lat="42.55595" lon="-0.4713">
        <time>2022-07-30T09:28:25Z</time>
      </trkpt>
      <trkpt lat="42.55595" lon="-0.47179">
        <time>2022-07-30T09:28:26Z</time>
      </trkpt>
      <trkpt lat="42.55596" lon="-0.47228">
        <time>2022-07-30T09:28:27Z</time>
      </trkpt>
      <trkpt lat="42.55596" lon="-0.47277">
        <time>2022-07-30T09:28:28Z</time>
      </trkpt>
      <trkpt lat="42.55596" lon="-0.47327">
        <time>2022-07-30T09:28:29Z</time>
      </trkpt>
      <trkpt lat="42.55596" lon="-0.47376">
        <time>2022-07-30T09:28:30Z</time>
      </trkpt>
      <trkpt lat="42.55597" lon="-0.47425">
        <time>2022-07-30T09:28:31Z</time>
      </trkpt>
      <trkpt lat="42.55597" lon="-0.47475">
        <time>2022-07-30T09:28:32Z</time>
      </trkpt>
      <trkpt lat="42.55597" lon="-0.47524">
        <time>2022-07-30T09:28:33Z</time>
      </trkpt>
      <trkpt lat="42.55597" lon="-0.47574">
        <time>2022-07-30T09:28:34Z</time>
      </trkpt>
      <trkpt lat="42.55597" lon="-0.47623">
        <time>2022-07-30T09:28:35Z</time>
      </trkpt>
      <trkpt lat="42.55597" lon="-0.47673">
        <time>2022-07-30T09:28:36Z</time>
      </trkpt>
      <trkpt lat="42.55598" lon="-0.47724">
        <time>2022-07-30T09:28:37Z</time>
      </trkpt>
      <trkpt lat="42.55598" lon="-0.47774">
        <time>2022-07-30T09:28:38Z</time>
      </trkpt>
      <trkpt lat="42.556" lon="-0.47824">
        <time>2022-07-30T09:28:39Z</time>
      </trkpt>
      <trkpt lat="42.55602" lon="-0.47875">
        <time>2022-07-30T09:28:40Z</time>
      </trkpt>
      <trkpt lat="42.55605" lon="-0.47925">
        <time>2022-07-30T09:28:41Z</time>
      </trkpt>
      <trkpt lat="42.5561" lon="-0.47974">
        <time>2022-07-30T09:28:42Z</time>
      </trkpt>
      <trkpt lat="42.55616" lon="-0.48024">
        <time>2022-07-30T09:28:43Z</time>
      </trkpt>
      <trkpt lat="42.55623" lon="-0.48074">
        <time>2022-07-30T09:28:44Z</time>
      </trkpt>
      <trkpt lat="42.5563" lon="-0.48123">
        <time>2022-07-30T09:28:45Z</time>
      </trkpt>
      <trkpt lat="42.55639" lon="-0.48171">
        <time>2022-07-30T09:28:46Z</time>
      </trkpt>
      <trkpt lat="42.55649" lon="-0.48219">
        <time>2022-07-30T09:28:47Z</time>
      </trkpt>
      <trkpt lat="42.5566" lon="-0.48265">
        <time>2022-07-30T09:28:48Z</time>
      </trkpt>
      <trkpt lat="42.55673" lon="-0.4831">
        <time>2022-07-30T09:28:49Z</time>
      </trkpt>
      <trkpt lat="42.55687" lon="-0.48354">
        <time>2022-07-30T09:28:50Z</time>
      </trkpt>
      <trkpt lat="42.55701" lon="-0.48397">
        <time>2022-07-30T09:28:51Z</time>
      </trkpt>
      <trkpt lat="42.55716" lon="-0.4844">
        <time>2022-07-30T09:28:52Z</time>
      </trkpt>
      <trkpt lat="42.55731" lon="-0.48483">
        <time>2022-07-30T09:28:53Z</time>
      </trkpt>
      <trkpt lat="42.55748" lon="-0.48525">
        <time>2022-07-30T09:28:54Z</time>
      </trkpt>
      <trkpt lat="42.55764" lon="-0.48567">
        <time>2022-07-30T09:28:55Z</time>
      </trkpt>
      <trkpt lat="42.5578" lon="-0.4861">
        <time>2022-07-30T09:28:56Z</time>
      </trkpt>
      <trkpt lat="42.55796" lon="-0.48653">
        <time>2022-07-30T09:28:57Z</time>
      </trkpt>
      <trkpt lat="42.55812" lon="-0.48697">
        <time>2022-07-30T09:28:58Z</time>
      </trkpt>
      <trkpt lat="42.55827" lon="-0.48741">
        <time>2022-07-30T09:28:59Z</time>
      </trkpt>
      <trkpt lat="42.55841" lon="-0.48786">
        <time>2022-07-30T09:29:00Z</time>
      </trkpt>
      <trkpt lat="42.55854" lon="-0.48831">
        <time>2022-07-30T09:29:01Z</time>
      </trkpt>
      <trkpt lat="42.55866" lon="-0.48877">
        <time>2022-07-30T09:29:02Z</time>
      </trkpt>
      <trkpt lat="42.55877" lon="-0.48923">
        <time>2022-07-30T09:29:03Z</time>
      </trkpt>
      <trkpt lat="42.55886" lon="-0.4897">
        <time>2022-07-30T09:29:04Z</time>
      </trkpt>
      <trkpt lat="42.55895" lon="-0.49018">
        <time>2022-07-30T09:29:05Z</time>
      </trkpt>
      <trkpt lat="42.55902" lon="-0.49066">
        <time>2022-07-30T09:29:06Z</time>
      </trkpt>
      <trkpt lat="42.55909" lon="-0.49114">
        <time>2022-07-30T09:29:07Z</time>
      </trkpt>
      <trkpt lat="42.55914" lon="-0.49163">
        <time>2022-07-30T09:29:08Z</time>
      </trkpt>
      <trkpt lat="42.55917" lon="-0.49211">
        <time>2022-07-30T09:29:09Z</time>
      </trkpt>
      <trkpt lat="42.5592" lon="-0.49259">
        <time>2022-07-30T09:29:10Z</time>
      </trkpt>
      <trkpt lat="42.55922" lon="-0.49307">
        <time>2022-07-30T09:29:11Z</time>
      </trkpt>
      <trkpt lat="42.55925" lon="-0.49355">
        <time>2022-07-30T09:29:12Z</time>
      </trkpt>
      <trkpt lat="42.55927" lon="-0.49403">
        <time>2022-07-30T09:29:13Z</time>
      </trkpt>
      <trkpt lat="42.5593" lon="-0.49451">
        <time>2022-07-30T09:29:14Z</time>
      </trkpt>
      <trkpt lat="42.55934" lon="-0.49499">
        <time>2022-07-30T09:29:15Z</time>
      </trkpt>
      <trkpt lat="42.55938" lon="-0.49547">
        <time>2022-07-30T09:29:16Z</time>
      </trkpt>
      <trkpt lat="42.55944" lon="-0.49595">
        <time>2022-07-30T09:29:17Z</time>
      </trkpt>
      <trkpt lat="42.55952" lon="-0.49642">
        <time>2022-07-30T09:29:18Z</time>
      </trkpt>
      <trkpt lat="42.55961" lon="-0.4969">
        <time>2022-07-30T09:29:19Z</time>
      </trkpt>
      <trkpt lat="42.55971" lon="-0.49737">
        <time>2022-07-30T09:29:20Z</time>
      </trkpt>
      <trkpt lat="42.55983" lon="-0.49782">
        <time>2022-07-30T09:29:21Z</time>
      </trkpt>
      <trkpt lat="42.55996" lon="-0.49828">
        <time>2022-07-30T09:29:22Z</time>
      </trkpt>
      <trkpt lat="42.5601" lon="-0.49873">
        <time>2022-07-30T09:29:23Z</time>
      </trkpt>
      <trkpt lat="42.56026" lon="-0.49917">
        <time>2022-07-30T09:29:24Z</time>
      </trkpt>
      <trkpt lat="42.56043" lon="-0.49959">
        <time>2022-07-30T09:29:25Z</time>
      </trkpt>
      <trkpt lat="42.56062" lon="-0.5">
        <time>2022-07-30T09:29:26Z</time>
      </trkpt>
      <trkpt lat="42.56082" lon="-0.50041">
        <time>2022-07-30T09:29:27Z</time>
      </trkpt>
      <trkpt lat="42.56103" lon="-0.50079">
        <time>2022-07-30T09:29:28Z</time>
      </trkpt>
      <trkpt lat="42.56124" lon="-0.50117">
        <time>2022-07-30T09:29:29Z</time>
      </trkpt>
      <trkpt lat="42.56146" lon="-0.50152">
        <time>2022-07-30T09:29:30Z</time>
      </trkpt>
      <trkpt lat="42.56168" lon="-0.50186">
        <time>2022-07-30T09:29:31Z</time>
      </trkpt>
      <trkpt lat="42.56191" lon="-0.50219">
        <time>2022-07-30T09:29:32Z</time>
      </trkpt>
      <trkpt lat="42.56215" lon="-0.5025">
        <time>2022-07-30T09:29:33Z</time>
      </trkpt>
      <trkpt lat="42.5624" lon="-0.5028">
        <time>2022-07-30T09:29:34Z</time>
      </trkpt>
      <trkpt lat="42.56264" lon="-0.5031">
        <time>2022-07-30T09:29:35Z</time>
      </trkpt>
      <trkpt lat="42.56288" lon="-0.50338">
        <time>2022-07-30T09:29:36Z</time>
      </trkpt>
      <trkpt lat="42.56312" lon="-0.50367">
        <time>2022-07-30T09:29:37Z</time>
      </trkpt>
      <trkpt lat="42.56335" lon="-0.50396">
        <time>2022-07-30T09:29:38Z</time>
      </trkpt>
      <trkpt lat="42.56357" lon="-0.50424">
        <time>2022-07-30T09:29:39Z</time>
      </trkpt>
      <trkpt lat="42.56378" lon="-0.50453">
        <time>2022-07-30T09:29:40Z</time>
      </trkpt>
      <trkpt lat="42.56398" lon="-0.50482">
        <time>2022-07-30T09:29:41Z</time>
      </trkpt>
      <trkpt lat="42.56417" lon="-0.50512">
        <time>2022-07-30T09:29:42Z</time>
      </trkpt>
      <trkpt lat="42.56435" lon="-0.50544">
        <time>2022-07-30T09:29:43Z</time>
      </trkpt>
      <trkpt lat="42.56452" lon="-0.50577">
        <time>2022-07-30T09:29:44Z</time>
      </trkpt>
      <trkpt lat="42.56469" lon="-0.5061">
        <time>2022-07-30T09:29:45Z</time>
      </trkpt>
      <trkpt lat="42.56484" lon="-0.50645">
        <time>2022-07-30T09:29:46Z</time>
      </trkpt>
      <trkpt lat="42.56498" lon="-0.5068">
        <time>2022-07-30T09:29:47Z</time>
      </trkpt>
      <trkpt lat="42.56512" lon="-0.50717">
        <time>2022-07-30T09:29:48Z</time>
      </trkpt>
      <trkpt lat="42.56525" lon="-0.50753">
        <time>2022-07-30T09:29:49Z</time>
      </trkpt>
      <trkpt lat="42.56536" lon="-0.50791">
        <time>2022-07-30T09:29:50Z</time>
      </trkpt>
      <trkpt lat="42.56547" lon="-0.50829">
        <time>2022-07-30T09:29:51Z</time>
      </trkpt>
      <trkpt lat="42.56557" lon="-0.50867">
        <time>2022-07-30T09:29:52Z</time>
      </trkpt>
      <trkpt lat="42.56566" lon="-0.50906">
        <time>2022-07-30T09:29:53Z</time>
      </trkpt>
      <trkpt lat="42.56573" lon="-0.50946">
        <time>2022-07-30T09:29:54Z</time>
      </trkpt>
      <trkpt lat="42.56579" lon="-0.50986">
        <time>2022-07-30T09:29:55Z</time>
      </trkpt>
      <trkpt lat="42.56585" lon="-0.51026">
        <time>2022-07-30T09:29:56Z</time>
      </trkpt>
      <trkpt lat="42.5659" lon="-0.51067">
        <time>2022-07-30T09:29:57Z</time>
      </trkpt>
      <trkpt lat="42.56594" lon="-0.51107">
        <time>2022-07-30T09:29:58Z</time>
      </trkpt>
      <trkpt lat="42.56598" lon="-0.51147">
        <time>2022-07-30T09:29:59Z</time>
      </trkpt>
      <trkpt lat="42.56603" lon="-0.51186">
        <time>2022-07-30T09:30:00Z</time>
      </trkpt>
      <trkpt lat="42.56608" lon="-0.51224">
        <time>2022-07-30T09:30:01Z</time>
      </trkpt>
      <trkpt lat="42.56612" lon="-0.51262">
        <time>2022-07-30T09:30:02Z</time>
      </trkpt>
      <trkpt lat="42.56617" lon="-0.51299">
        <time>2022-07-30T09:30:03Z</time>
      </trkpt>
      <trkpt lat="42.56621" lon="-0.51335">
        <time>2022-07-30T09:30:04Z</time>
      </trkpt>
      <trkpt lat="42.56625" lon="-0.5137">
        <time>2022-07-30T09:30:05Z</time>
      </trkpt>
      <trkpt lat="42.5663" lon="-0.51404">
        <time>2022-07-30T09:30:06Z</time>
      </trkpt>
      <trkpt lat="42.56635" lon="-0.51436">
        <time>2022-07-30T09:30:07Z</time>
      </trkpt>
      <trkpt lat="42.5664" lon="-0.51468">
        <time>2022-07-30T09:30:08Z</time>
      </trkpt>
      <trkpt lat="42.56646" lon="-0.515">
        <time>2022-07-30T09:30:09Z</time>
      </trkpt>
      <trkpt lat="42.56652" lon="-0.51531">
        <time>2022-07-30T09:30:10Z</time>
      </trkpt>
      <trkpt lat="42.56658" lon="-0.51563">
        <time>2022-07-30T09:30:11Z</time>
      </trkpt>
      <trkpt lat="42.56663" lon="-0.51593">
        <time>2022-07-30T09:30:12Z</time>
      </trkpt>
      <trkpt lat="42.56669" lon="-0.51624">
        <time>2022-07-30T09:30:13Z</time>
      </trkpt>
      <trkpt lat="42.56676" lon="-0.51655">
        <time>2022-07-30T09:30:14Z</time>
      </trkpt>
      <trkpt lat="42.56682" lon="-0.51685">
        <time>2022-07-30T09:30:15Z</time>
      </trkpt>
      <trkpt lat="42.56687" lon="-0.51715">
        <time>2022-07-30T09:30:16Z</time>
      </trkpt>
      <trkpt lat="42.56691" lon="-0.51745">
        <time>2022-07-30T09:30:17Z</time>
      </trkpt>
      <trkpt lat="42.56696" lon="-0.51774">
        <time>2022-07-30T09:30:18Z</time>
      </trkpt>
      <trkpt lat="42.56701" lon="-0.51802">
        <time>2022-07-30T09:30:19Z</time>
      </trkpt>
      <trkpt lat="42.56708" lon="-0.51829">
        <time>2022-07-30T09:30:20Z</time>
      </trkpt>
      <trkpt lat="42.56716" lon="-0.51857">
        <time>2022-07-30T09:30:21Z</time>
      </trkpt>
      <trkpt lat="42.56725" lon="-0.51884">
        <time>2022-07-30T09:30:22Z</time>
      </trkpt>
      <trkpt lat="42.56734" lon="-0.51911">
        <time>2022-07-30T09:30:23Z</time>
      </trkpt>
      <trkpt lat="42.56743" lon="-0.51938">
        <time>2022-07-30T09:30:24Z</time>
      </trkpt>
      <trkpt lat="42.56751" lon="-0.51966">
        <time>2022-07-30T09:30:25Z</time>
      </trkpt>
      <trkpt lat="42.5676" lon="-0.51993">
        <time>2022-07-30T09:30:26Z</time>
      </trkpt>
      <trkpt lat="42.56769" lon="-0.5202">
        <time>2022-07-30T09:30:27Z</time>
      </trkpt>
      <trkpt lat="42.56778" lon="-0.52047">
        <time>2022-07-30T09:30:28Z</time>
      </trkpt>
      <trkpt lat="42.56787" lon="-0.52075">
        <time>2022-07-30T09:30:29Z</time>
      </trkpt>
      <trkpt lat="42.56796" lon="-0.52102">
        <time>2022-07-30T09:30:30Z</time>
      </trkpt>
      <trkpt lat="42.56806" lon="-0.5213">
        <time>2022-07-30T09:30:31Z</time>
      </trkpt>
      <trkpt lat="42.56817" lon="-0.52158">
        <time>2022-07-30T09:30:32Z</time>
      </trkpt>
      <trkpt lat="42.56828" lon="-0.52187">
        <time>2022-07-30T09:30:33Z</time>
      </trkpt>
      <trkpt lat="42.56839" lon="-0.52215">
        <time>2022-07-30T09:30:34Z</time>
      </trkpt>
      <trkpt lat="42.56851" lon="-0.52243">
        <time>2022-07-30T09:30:35Z</time>
      </trkpt>
      <trkpt lat="42.56863" lon="-0.52269">
        <time>2022-07-30T09:30:36Z</time>
      </trkpt>
      <trkpt lat="42.56876" lon="-0.52295">
        <time>2022-07-30T09:30:37Z</time>
      </trkpt>
      <trkpt lat="42.56889" lon="-0.52321">
        <time>2022-07-30T09:30:38Z</time>
      </trkpt>
      <trkpt lat="42.56902" lon="-0.52346">
        <time>2022-07-30T09:30:39Z</time>
      </trkpt>
      <trkpt lat="42.56917" lon="-0.52371">
        <time>2022-07-30T09:30:40Z</time>
      </trkpt>
      <trkpt lat="42.56931" lon="-0.52395">
        <time>2022-07-30T09:30:41Z</time>
      </trkpt>
      <trkpt lat="42.56946" lon="-0.52419">
        <time>2022-07-30T09:30:42Z</time>
      </trkpt>
      <trkpt lat="42.56962" lon="-0.52443">
        <time>2022-07-30T09:30:43Z</time>
      </trkpt>
      <trkpt lat="42.56978" lon="-0.52467">
        <time>2022-07-30T09:30:44Z</time>
      </trkpt>
      <trkpt lat="42.56995" lon="-0.52491">
        <time>2022-07-30T09:30:45Z</time>
      </trkpt>
      <trkpt lat="42.57013" lon="-0.52517">
        <time>2022-07-30T09:30:46Z</time>
      </trkpt>
      <trkpt lat="42.57032" lon="-0.52542">
        <time>2022-07-30T09:30:47Z</time>
      </trkpt>
      <trkpt lat="42.57053" lon="-0.52567">
        <time>2022-07-30T09:30:48Z</time>
      </trkpt>
      <trkpt lat="42.57075" lon="-0.52589">
        <time>2022-07-30T09:30:49Z</time>
      </trkpt>
      <trkpt lat="42.57097" lon="-0.52612">
        <time>2022-07-30T09:30:50Z</time>
      </trkpt>
      <trkpt lat="42.5712" lon="-0.52633">
        <time>2022-07-30T09:30:51Z</time>
      </trkpt>
      <trkpt lat="42.57142" lon="-0.52654">
        <time>2022-07-30T09:30:52Z</time>
      </trkpt>
      <trkpt lat="42.57165" lon="-0.52674">
        <time>2022-07-30T09:30:53Z</time>
      </trkpt>
      <trkpt lat="42.57188" lon="-0.52692">
        <time>2022-07-30T09:30:54Z</time>
      </trkpt>
      <trkpt lat="42.57211" lon="-0.52711">
        <time>2022-07-30T09:30:55Z</time>
      </trkpt>
      <trkpt lat="42.57234" lon="-0.52728">
        <time>2022-07-30T09:30:56Z</time>
      </trkpt>
      <trkpt lat="42.57257" lon="-0.52746">
        <time>2022-07-30T09:30:57Z</time>
      </trkpt>
      <trkpt lat="42.5728" lon="-0.52763">
        <time>2022-07-30T09:30:58Z</time>
      </trkpt>
      <trkpt lat="42.57304" lon="-0.52779">
        <time>2022-07-30T09:30:59Z</time>
      </trkpt>
      <trkpt lat="42.57327" lon="-0.52797">
        <time>2022-07-30T09:31:00Z</time>
      </trkpt>
      <trkpt lat="42.57351" lon="-0.52813">
        <time>2022-07-30T09:31:01Z</time>
      </trkpt>
      <trkpt lat="42.57374" lon="-0.52831">
        <time>2022-07-30T09:31:02Z</time>
      </trkpt>
      <trkpt lat="42.57398" lon="-0.52848">
        <time>2022-07-30T09:31:03Z</time>
      </trkpt>
      <trkpt lat="42.57422" lon="-0.52865">
        <time>2022-07-30T09:31:04Z</time>
      </trkpt>
      <trkpt lat="42.57446" lon="-0.52883">
        <time>2022-07-30T09:31:05Z</time>
      </trkpt>
      <trkpt lat="42.5747" lon="-0.529">
        <time>2022-07-30T09:31:06Z</time>
      </trkpt>
      <trkpt lat="42.57494" lon="-0.52918">
        <time>2022-07-30T09:31:07Z</time>
      </trkpt>
      <trkpt lat="42.57518" lon="-0.52935">
        <time>2022-07-30T09:31:08Z</time>
      </trkpt>
      <trkpt lat="42.57542" lon="-0.52952">
        <time>2022-07-30T09:31:09Z</time>
      </trkpt>
      <trkpt lat="42.57566" lon="-0.5297">
        <time>2022-07-30T09:31:10Z</time>
      </trkpt>
      <trkpt lat="42.57589" lon="-0.52987">
        <time>2022-07-30T09:31:11Z</time>
      </trkpt>
      <trkpt lat="42.57612" lon="-0.53005">
        <time>2022-07-30T09:31:12Z</time>
      </trkpt>
      <trkpt lat="42.57635" lon="-0.53023">
        <time>2022-07-30T09:31:13Z</time>
      </trkpt>
      <trkpt lat="42.57657" lon="-0.53042">
        <time>2022-07-30T09:31:14Z</time>
      </trkpt>
      <trkpt lat="42.57678" lon="-0.53062">
        <time>2022-07-30T09:31:15Z</time>
      </trkpt>
      <trkpt lat="42.57698" lon="-0.53082">
        <time>2022-07-30T09:31:16Z</time>
      </trkpt>
      <trkpt lat="42.57717" lon="-0.53102">
        <time>2022-07-30T09:31:17Z</time>
      </trkpt>
      <trkpt lat="42.57735" lon="-0.53122">
        <time>2022-07-30T09:31:18Z</time>
      </trkpt>
      <trkpt lat="42.57752" lon="-0.53142">
        <time>2022-07-30T09:31:19Z</time>
      </trkpt>
      <trkpt lat="42.57769" lon="-0.53162">
        <time>2022-07-30T09:31:20Z</time>
      </trkpt>
      <trkpt lat="42.57784" lon="-0.53182">
        <time>2022-07-30T09:31:21Z</time>
      </trkpt>
      <trkpt lat="42.578" lon="-0.53202">
        <time>2022-07-30T09:31:22Z</time>
      </trkpt>
      <trkpt lat="42.57815" lon="-0.53222">
        <time>2022-07-30T09:31:23Z</time>
      </trkpt>
      <trkpt lat="42.5783" lon="-0.53242">
        <time>2022-07-30T09:31:24Z</time>
      </trkpt>
      <trkpt lat="42.57845" lon="-0.53262">
        <time>2022-07-30T09:31:25Z</time>
      </trkpt>
      <trkpt lat="42.57861" lon="-0.53282">
        <time>2022-07-30T09:31:26Z</time>
      </trkpt>
      <trkpt lat="42.57876" lon="-0.53302">
        <time>2022-07-30T09:31:27Z</time>
      </trkpt>
      <trkpt lat="42.57892" lon="-0.53323">
        <time>2022-07-30T09:31:28Z</time>
      </trkpt>
      <trkpt lat="42.57908" lon="-0.53342">
        <time>2022-07-30T09:31:29Z</time>
      </trkpt>
      <trkpt lat="42.57925" lon="-0.53362">
        <time>2022-07-30T09:31:30Z</time>
      </trkpt>
      <trkpt lat="42.57942" lon="-0.53381">
        <time>2022-07-30T09:31:31Z</time>
      </trkpt>
      <trkpt lat="42.57958" lon="-0.534">
        <time>2022-07-30T09:31:32Z</time>
      </trkpt>
      <trkpt lat="42.57975" lon="-0.53419">
        <time>2022-07-30T09:31:33Z</time>
      </trkpt>
      <trkpt lat="42.5799" lon="-0.5344">
        <time>2022-07-30T09:31:34Z</time>
      </trkpt>
      <trkpt lat="42.58005" lon="-0.53462">
        <time>2022-07-30T09:31:35Z</time>
      </trkpt>
      <trkpt lat="42.5802" lon="-0.53486">
        <time>2022-07-30T09:31:36Z</time>
      </trkpt>
      <trkpt lat="42.58034" lon="-0.5351">
        <time>2022-07-30T09:31:37Z</time>
      </trkpt>
      <trkpt lat="42.58047" lon="-0.53533">
        <time>2022-07-30T09:31:38Z</time>
      </trkpt>
      <trkpt lat="42.58059" lon="-0.53557">
        <time>2022-07-30T09:31:39Z</time>
      </trkpt>
      <trkpt lat="42.58071" lon="-0.53581">
        <time>2022-07-30T09:31:40Z</time>
      </trkpt>
      <trkpt lat="42.58081" lon="-0.53604">
        <time>2022-07-30T09:31:41Z</time>
      </trkpt>
      <trkpt lat="42.58091" lon="-0.53628">
        <time>2022-07-30T09:31:42Z</time>
      </trkpt>
      <trkpt lat="42.581" lon="-0.53651">
        <time>2022-07-30T09:31:43Z</time>
      </trkpt>
      <trkpt lat="42.58109" lon="-0.53675">
        <time>2022-07-30T09:31:44Z</time>
      </trkpt>
      <trkpt lat="42.58118" lon="-0.53698">
        <time>2022-07-30T09:31:45Z</time>
      </trkpt>
      <trkpt lat="42.58127" lon="-0.53721">
        <time>2022-07-30T09:31:46Z</time>
      </trkpt>
      <trkpt lat="42.58136" lon="-0.53744">
        <time>2022-07-30T09:31:47Z</time>
      </trkpt>
      <trkpt lat="42.58145" lon="-0.53767">
        <time>2022-07-30T09:31:48Z</time>
      </trkpt>
      <trkpt lat="42.58153" lon="-0.5379">
        <time>2022-07-30T09:31:49Z</time>
      </trkpt>
      <trkpt lat="42.58162" lon="-0.53813">
        <time>2022-07-30T09:31:50Z</time>
      </trkpt>
      <trkpt lat="42.58171" lon="-0.53836">
        <time>2022-07-30T09:31:51Z</time>
      </trkpt>
      <trkpt lat="42.58179" lon="-0.5386">
        <time>2022-07-30T09:31:52Z</time>
      </trkpt>
      <trkpt lat="42.58187" lon="-0.53884">
        <time>2022-07-30T09:31:53Z</time>
      </trkpt>
      <trkpt lat="42.58195" lon="-0.53908">
        <time>2022-07-30T09:31:54Z</time>
      </trkpt>
      <trkpt lat="42.58201" lon="-0.53932">
        <time>2022-07-30T09:31:55Z</time>
      </trkpt>
      <trkpt lat="42.58205" lon="-0.53957">
        <time>2022-07-30T09:31:56Z</time>
      </trkpt>
      <trkpt lat="42.58208" lon="-0.53982">
        <time>2022-07-30T09:31:57Z</time>
      </trkpt>
      <trkpt lat="42.58211" lon="-0.54007">
        <time>2022-07-30T09:31:58Z</time>
      </trkpt>
      <trkpt lat="42.58213" lon="-0.54033">
        <time>2022-07-30T09:31:59Z</time>
      </trkpt>
      <trkpt lat="42.58214" lon="-0.54059">
        <time>2022-07-30T09:32:00Z</time>
      </trkpt>
      <trkpt lat="42.58216" lon="-0.54084">
        <time>2022-07-30T09:32:01Z</time>
      </trkpt>
      <trkpt lat="42.58219" lon="-0.54109">
        <time>2022-07-30T09:32:02Z</time>
      </trkpt>
      <trkpt lat="42.58222" lon="-0.54133">
        <time>2022-07-30T09:32:03Z</time>
      </trkpt>
      <trkpt lat="42.58226" lon="-0.54156">
        <time>2022-07-30T09:32:04Z</time>
      </trkpt>
      <trkpt lat="42.58233" lon="-0.54178">
        <time>2022-07-30T09:32:05Z</time>
      </trkpt>
      <trkpt lat="42.58241" lon="-0.54199">
        <time>2022-07-30T09:32:06Z</time>
      </trkpt>
      <trkpt lat="42.5825" lon="-0.54219">
        <time>2022-07-30T09:32:07Z</time>
      </trkpt>
      <trkpt lat="42.5826" lon="-0.5424">
        <time>2022-07-30T09:32:08Z</time>
      </trkpt>
      <trkpt lat="42.58272" lon="-0.5426">
        <time>2022-07-30T09:32:09Z</time>
      </trkpt>
      <trkpt lat="42.58284" lon="-0.54278">
        <time>2022-07-30T09:32:10Z</time>
      </trkpt>
      <trkpt lat="42.58297" lon="-0.54294">
        <time>2022-07-30T09:32:11Z</time>
      </trkpt>
      <trkpt lat="42.58309" lon="-0.54306">
        <time>2022-07-30T09:32:12Z</time>
      </trkpt>
      <trkpt lat="42.58321" lon="-0.54317">
        <time>2022-07-30T09:32:13Z</time>
      </trkpt>
      <trkpt lat="42.58332" lon="-0.54326">
        <time>2022-07-30T09:32:14Z</time>
      </trkpt>
      <trkpt lat="42.58342" lon="-0.54331">
        <time>2022-07-30T09:32:15Z</time>
      </trkpt>
      <trkpt lat="42.58351" lon="-0.54333">
        <time>2022-07-30T09:32:16Z</time>
      </trkpt>
      <trkpt lat="42.58359" lon="-0.54331">
        <time>2022-07-30T09:32:17Z</time>
      </trkpt>
      <trkpt lat="42.58366" lon="-0.54324">
        <time>2022-07-30T09:32:18Z</time>
      </trkpt>
      <trkpt lat="42.58371" lon="-0.54315">
        <time>2022-07-30T09:32:19Z</time>
      </trkpt>
      <trkpt lat="42.58373" lon="-0.54303">
        <time>2022-07-30T09:32:20Z</time>
      </trkpt>
      <trkpt lat="42.58371" lon="-0.54292">
        <time>2022-07-30T09:32:21Z</time>
      </trkpt>
      <trkpt lat="42.58366" lon="-0.54281">
        <time>2022-07-30T09:32:22Z</time>
      </trkpt>
      <trkpt lat="42.58358" lon="-0.54273">
        <time>2022-07-30T09:32:23Z</time>
      </trkpt>
      <trkpt lat="42.58349" lon="-0.54268">
        <time>2022-07-30T09:32:24Z</time>
      </trkpt>
      <trkpt lat="42.58338" lon="-0.54266">
        <time>2022-07-30T09:32:25Z</time>
      </trkpt>
      <trkpt lat="42.58326" lon="-0.5427">
        <time>2022-07-30T09:32:26Z</time>
      </trkpt>
      <trkpt lat="42.58316" lon="-0.54277">
        <time>2022-07-30T09:32:27Z</time>
      </trkpt>
      <trkpt lat="42.58306" lon="-0.54286">
        <time>2022-07-30T09:32:28Z</time>
      </trkpt>
      <trkpt lat="42.58297" lon="-0.54295">
        <time>2022-07-30T09:32:29Z</time>
      </trkpt>
      <trkpt lat="42.58286" lon="-0.54307">
        <time>2022-07-30T09:32:30Z</time>
      </trkpt>
      <trkpt lat="42.5828" lon="-0.54322">
        <time>2022-07-30T09:32:31Z</time>
      </trkpt>
      <trkpt lat="42.58271" lon="-0.54335">
        <time>2022-07-30T09:32:32Z</time>
      </trkpt>
      <trkpt lat="42.58261" lon="-0.54349">
        <time>2022-07-30T09:32:33Z</time>
      </trkpt>
      <trkpt lat="42.58249" lon="-0.54361">
        <time>2022-07-30T09:32:34Z</time>
      </trkpt>
      <trkpt lat="42.58236" lon="-0.54371">
        <time>2022-07-30T09:32:35Z</time>
      </trkpt>
      <trkpt lat="42.58223" lon="-0.54378">
        <time>2022-07-30T09:32:36Z</time>
      </trkpt>
      <trkpt lat="42.58212" lon="-0.54382">
        <time>2022-07-30T09:32:37Z</time>
      </trkpt>
      <trkpt lat="42.58204" lon="-0.54385">
        <time>2022-07-30T09:32:38Z</time>
      </trkpt>
      <trkpt lat="42.58196" lon="-0.54388">
        <time>2022-07-30T09:32:39Z</time>
      </trkpt>
      <trkpt lat="42.58187" lon="-0.54391">
        <time>2022-07-30T09:32:40Z</time>
      </trkpt>
      <trkpt lat="42.58176" lon="-0.54394">
        <time>2022-07-30T09:32:41Z</time>
      </trkpt>
      <trkpt lat="42.58164" lon="-0.54398">
        <time>2022-07-30T09:32:42Z</time>
      </trkpt>
      <trkpt lat="42.58151" lon="-0.54403">
        <time>2022-07-30T09:32:43Z</time>
      </trkpt>
      <trkpt lat="42.58138" lon="-0.54409">
        <time>2022-07-30T09:32:44Z</time>
      </trkpt>
      <trkpt lat="42.58124" lon="-0.54416">
        <time>2022-07-30T09:32:45Z</time>
      </trkpt>
      <trkpt lat="42.58109" lon="-0.54425">
        <time>2022-07-30T09:32:46Z</time>
      </trkpt>
      <trkpt lat="42.58095" lon="-0.54436">
        <time>2022-07-30T09:32:47Z</time>
      </trkpt>
      <trkpt lat="42.58082" lon="-0.54449">
        <time>2022-07-30T09:32:48Z</time>
      </trkpt>
      <trkpt lat="42.5807" lon="-0.54463">
        <time>2022-07-30T09:32:49Z</time>
      </trkpt>
      <trkpt lat="42.58058" lon="-0.54477">
        <time>2022-07-30T09:32:50Z</time>
      </trkpt>
      <trkpt lat="42.58047" lon="-0.54492">
        <time>2022-07-30T09:32:51Z</time>
      </trkpt>
      <trkpt lat="42.58036" lon="-0.54508">
        <time>2022-07-30T09:32:52Z</time>
      </trkpt>
      <trkpt lat="42.58026" lon="-0.54524">
        <time>2022-07-30T09:32:53Z</time>
      </trkpt>
      <trkpt lat="42.58015" lon="-0.5454">
        <time>2022-07-30T09:32:54Z</time>
      </trkpt>
      <trkpt lat="42.58004" lon="-0.54557">
        <time>2022-07-30T09:32:55Z</time>
      </trkpt>
      <trkpt lat="42.57994" lon="-0.54573">
        <time>2022-07-30T09:32:56Z</time>
      </trkpt>
      <trkpt lat="42.57983" lon="-0.54589">
        <time>2022-07-30T09:32:57Z</time>
      </trkpt>
      <trkpt lat="42.57972" lon="-0.54606">
        <time>2022-07-30T09:32:58Z</time>
      </trkpt>
      <trkpt lat="42.57962" lon="-0.54622">
        <time>2022-07-30T09:32:59Z</time>
      </trkpt>
      <trkpt lat="42.57951" lon="-0.54638">
        <time>2022-07-30T09:33:00Z</time>
      </trkpt>
      <trkpt lat="42.57941" lon="-0.54654">
        <time>2022-07-30T09:33:01Z</time>
      </trkpt>
      <trkpt lat="42.57931" lon="-0.54671">
        <time>2022-07-30T09:33:02Z</time>
      </trkpt>
      <trkpt lat="42.57921" lon="-0.54686">
        <time>2022-07-30T09:33:03Z</time>
      </trkpt>
      <trkpt lat="42.57911" lon="-0.54702">
        <time>2022-07-30T09:33:04Z</time>
      </trkpt>
      <trkpt lat="42.57902" lon="-0.54716">
        <time>2022-07-30T09:33:05Z</time>
      </trkpt>
      <trkpt lat="42.57893" lon="-0.5473">
        <time>2022-07-30T09:33:06Z</time>
      </trkpt>
      <trkpt lat="42.57885" lon="-0.54742">
        <time>2022-07-30T09:33:07Z</time>
      </trkpt>
      <trkpt lat="42.57878" lon="-0.54753">
        <time>2022-07-30T09:33:08Z</time>
      </trkpt>
      <trkpt lat="42.57871" lon="-0.54764">
        <time>2022-07-30T09:33:09Z</time>
      </trkpt>
      <trkpt lat="42.57863" lon="-0.54776">
        <time>2022-07-30T09:33:10Z</time>
      </trkpt>
      <trkpt lat="42.57856" lon="-0.54788">
        <time>2022-07-30T09:33:11Z</time>
      </trkpt>
      <trkpt lat="42.57848" lon="-0.548">
        <time>2022-07-30T09:33:12Z</time>
      </trkpt>
      <trkpt lat="42.5784" lon="-0.5481">
        <time>2022-07-30T09:33:13Z</time>
      </trkpt>
      <trkpt lat="42.57831" lon="-0.5482">
        <time>2022-07-30T09:33:14Z</time>
      </trkpt>
      <trkpt lat="42.5782" lon="-0.54828">
        <time>2022-07-30T09:33:15Z</time>
      </trkpt>
      <trkpt lat="42.57809" lon="-0.54835">
        <time>2022-07-30T09:33:16Z</time>
      </trkpt>
      <trkpt lat="42.57797" lon="-0.54839">
        <time>2022-07-30T09:33:17Z</time>
      </trkpt>
      <trkpt lat="42.57785" lon="-0.54843">
        <time>2022-07-30T09:33:18Z</time>
      </trkpt>
      <trkpt lat="42.57773" lon="-0.54846">
        <time>2022-07-30T09:33:19Z</time>
      </trkpt>
      <trkpt lat="42.57762" lon="-0.54849">
        <time>2022-07-30T09:33:20Z</time>
      </trkpt>
      <trkpt lat="42.5775" lon="-0.54853">
        <time>2022-07-30T09:33:21Z</time>
      </trkpt>
      <trkpt lat="42.57736" lon="-0.54855">
        <time>2022-07-30T09:33:22Z</time>
      </trkpt>
      <trkpt lat="42.57723" lon="-0.54858">
        <time>2022-07-30T09:33:23Z</time>
      </trkpt>
      <trkpt lat="42.57712" lon="-0.5486">
        <time>2022-07-30T09:33:24Z</time>
      </trkpt>
      <trkpt lat="42.577" lon="-0.54863">
        <time>2022-07-30T09:33:25Z</time>
      </trkpt>
      <trkpt lat="42.57687" lon="-0.54866">
        <time>2022-07-30T09:33:26Z</time>
      </trkpt>
      <trkpt lat="42.57673" lon="-0.54868">
        <time>2022-07-30T09:33:27Z</time>
      </trkpt>
      <trkpt lat="42.5766" lon="-0.54871">
        <time>2022-07-30T09:33:28Z</time>
      </trkpt>
      <trkpt lat="42.57649" lon="-0.54873">
        <time>2022-07-30T09:33:29Z</time>
      </trkpt>
      <trkpt lat="42.57637" lon="-0.54874">
        <time>2022-07-30T09:33:30Z</time>
      </trkpt>
      <trkpt lat="42.57626" lon="-0.54876">
        <time>2022-07-30T09:33:31Z</time>
      </trkpt>
      <trkpt lat="42.57614" lon="-0.54879">
        <time>2022-07-30T09:33:32Z</time>
      </trkpt>
      <trkpt lat="42.57603" lon="-0.54881">
        <time>2022-07-30T09:33:33Z</time>
      </trkpt>
      <trkpt lat="42.57593" lon="-0.54882">
        <time>2022-07-30T09:33:34Z</time>
      </trkpt>
      <trkpt lat="42.57582" lon="-0.54884">
        <time>2022-07-30T09:33:35Z</time>
      </trkpt>
      <trkpt lat="42.5757" lon="-0.54886">
        <time>2022-07-30T09:33:36Z</time>
      </trkpt>
      <trkpt lat="42.57558" lon="-0.54888">
        <time>2022-07-30T09:33:37Z</time>
      </trkpt>
      <trkpt lat="42.57547" lon="-0.5489">
        <time>2022-07-30T09:33:38Z</time>
      </trkpt>
      <trkpt lat="42.57536" lon="-0.54891">
        <time>2022-07-30T09:33:39Z</time>
      </trkpt>
      <trkpt lat="42.57524" lon="-0.54892">
        <time>2022-07-30T09:33:40Z</time>
      </trkpt>
      <trkpt lat="42.57513" lon="-0.54895">
        <time>2022-07-30T09:33:41Z</time>
      </trkpt>
      <trkpt lat="42.575" lon="-0.54898">
        <time>2022-07-30T09:33:42Z</time>
      </trkpt>
      <trkpt lat="42.57489" lon="-0.549">
        <time>2022-07-30T09:33:43Z</time>
      </trkpt>
      <trkpt lat="42.57478" lon="-0.54902">
        <time>2022-07-30T09:33:44Z</time>
      </trkpt>
      <trkpt lat="42.57467" lon="-0.54904">
        <time>2022-07-30T09:33:45Z</time>
      </trkpt>
      <trkpt lat="42.57458" lon="-0.54907">
        <time>2022-07-30T09:33:46Z</time>
      </trkpt>
      <trkpt lat="42.57449" lon="-0.54909">
        <time>2022-07-30T09:33:47Z</time>
      </trkpt>
      <trkpt lat="42.57439" lon="-0.54911">
        <time>2022-07-30T09:33:48Z</time>
      </trkpt>
      <trkpt lat="42.57432" lon="-0.54912">
        <time>2022-07-30T09:33:49Z</time>
      </trkpt>
      <trkpt lat="42.57425" lon="-0.54915">
        <time>2022-07-30T09:33:50Z</time>
      </trkpt>
      <trkpt lat="42.57418" lon="-0.54916">
        <time>2022-07-30T09:33:51Z</time>
      </trkpt>
      <trkpt lat="42.57413" lon="-0.54917">
        <time>2022-07-30T09:33:52Z</time>
      </trkpt>
      <trkpt lat="42.57417" lon="-0.5492">
        <time>2022-07-30T09:33:57Z</time>
      </trkpt>
      <trkpt lat="42.57413" lon="-0.5492">
        <time>2022-07-30T09:33:58Z</time>
      </trkpt>
      <trkpt lat="42.57408" lon="-0.54921">
        <time>2022-07-30T09:33:59Z</time>
      </trkpt>
      <trkpt lat="42.57404" lon="-0.54922">
        <time>2022-07-30T09:34:00Z</time>
      </trkpt>
      <trkpt lat="42.57401" lon="-0.54923">
        <time>2022-07-30T09:34:01Z</time>
      </trkpt>
      <trkpt lat="42.57397" lon="-0.54924">
        <time>2022-07-30T09:34:02Z</time>
      </trkpt>
      <trkpt lat="42.57394" lon="-0.54925">
        <time>2022-07-30T09:34:03Z</time>
      </trkpt>
      <trkpt lat="42.57392" lon="-0.54925">
        <time>2022-07-30T09:34:04Z</time>
      </trkpt>
      <trkpt lat="42.57389" lon="-0.54925">
        <time>2022-07-30T09:34:05Z</time>
      </trkpt>
      <trkpt lat="42.57386" lon="-0.54926">
        <time>2022-07-30T09:34:06Z</time>
      </trkpt>
      <trkpt lat="42.57382" lon="-0.54926">
        <time>2022-07-30T09:34:07Z</time>
      </trkpt>
      <trkpt lat="42.57379" lon="-0.54927">
        <time>2022-07-30T09:34:08Z</time>
      </trkpt>
      <trkpt lat="42.57375" lon="-0.54929">
        <time>2022-07-30T09:34:09Z</time>
      </trkpt>
      <trkpt lat="42.57371" lon="-0.5493">
        <time>2022-07-30T09:34:10Z</time>
      </trkpt>
      <trkpt lat="42.57367" lon="-0.54931">
        <time>2022-07-30T09:34:11Z</time>
      </trkpt>
      <trkpt lat="42.57362" lon="-0.54933">
        <time>2022-07-30T09:34:12Z</time>
      </trkpt>
      <trkpt lat="42.57356" lon="-0.54934">
        <time>2022-07-30T09:34:13Z</time>
      </trkpt>
      <trkpt lat="42.57351" lon="-0.54935">
        <time>2022-07-30T09:34:14Z</time>
      </trkpt>
      <trkpt lat="42.57345" lon="-0.54936">
        <time>2022-07-30T09:34:15Z</time>
      </trkpt>
      <trkpt lat="42.57339" lon="-0.54937">
        <time>2022-07-30T09:34:16Z</time>
      </trkpt>
      <trkpt lat="42.57333" lon="-0.54938">
        <time>2022-07-30T09:34:17Z</time>
      </trkpt>
      <trkpt lat="42.57327" lon="-0.5494">
        <time>2022-07-30T09:34:18Z</time>
      </trkpt>
      <trkpt lat="42.5732" lon="-0.54942">
        <time>2022-07-30T09:34:19Z</time>
      </trkpt>
      <trkpt lat="42.57314" lon="-0.54942">
        <time>2022-07-30T09:34:20Z</time>
      </trkpt>
      <trkpt lat="42.57308" lon="-0.54944">
        <time>2022-07-30T09:34:21Z</time>
      </trkpt>
      <trkpt lat="42.57301" lon="-0.54945">
        <time>2022-07-30T09:34:22Z</time>
      </trkpt>
      <trkpt lat="42.57296" lon="-0.54946">
        <time>2022-07-30T09:34:23Z</time>
      </trkpt>
      <trkpt lat="42.5729" lon="-0.54947">
        <time>2022-07-30T09:34:24Z</time>
      </trkpt>
      <trkpt lat="42.57285" lon="-0.54947">
        <time>2022-07-30T09:34:25Z</time>
      </trkpt>
      <trkpt lat="42.57281" lon="-0.54948">
        <time>2022-07-30T09:34:26Z</time>
      </trkpt>
      <trkpt lat="42.57276" lon="-0.54948">
        <time>2022-07-30T09:34:27Z</time>
      </trkpt>
      <trkpt lat="42.5727" lon="-0.54949">
        <time>2022-07-30T09:34:28Z</time>
      </trkpt>
      <trkpt lat="42.57265" lon="-0.5495">
        <time>2022-07-30T09:34:29Z</time>
      </trkpt>
      <trkpt lat="42.57258" lon="-0.5495">
        <time>2022-07-30T09:34:30Z</time>
      </trkpt>
      <trkpt lat="42.57252" lon="-0.5495">
        <time>2022-07-30T09:34:31Z</time>
      </trkpt>
      <trkpt lat="42.57245" lon="-0.54951">
        <time>2022-07-30T09:34:32Z</time>
      </trkpt>
      <trkpt lat="42.57239" lon="-0.54952">
        <time>2022-07-30T09:34:33Z</time>
      </trkpt>
      <trkpt lat="42.57233" lon="-0.54954">
        <time>2022-07-30T09:34:34Z</time>
      </trkpt>
      <trkpt lat="42.57227" lon="-0.54956">
        <time>2022-07-30T09:34:35Z</time>
      </trkpt>
      <trkpt lat="42.5722" lon="-0.54957">
        <time>2022-07-30T09:34:36Z</time>
      </trkpt>
      <trkpt lat="42.57214" lon="-0.54958">
        <time>2022-07-30T09:34:37Z</time>
      </trkpt>
      <trkpt lat="42.57206" lon="-0.5496">
        <time>2022-07-30T09:34:38Z</time>
      </trkpt>
      <trkpt lat="42.572" lon="-0.54963">
        <time>2022-07-30T09:34:39Z</time>
      </trkpt>
      <trkpt lat="42.57193" lon="-0.54967">
        <time>2022-07-30T09:34:40Z</time>
      </trkpt>
      <trkpt lat="42.57188" lon="-0.5497">
        <time>2022-07-30T09:34:41Z</time>
      </trkpt>
      <trkpt lat="42.57183" lon="-0.54973">
        <time>2022-07-30T09:34:42Z</time>
      </trkpt>
      <trkpt lat="42.5718" lon="-0.54975">
        <time>2022-07-30T09:34:43Z</time>
      </trkpt>
      <trkpt lat="42.57179" lon="-0.54977">
        <time>2022-07-30T09:34:44Z</time>
      </trkpt>
      <trkpt lat="42.57179" lon="-0.54984">
        <time>2022-07-30T09:34:54Z</time>
      </trkpt>
      <trkpt lat="42.57177" lon="-0.54988">
        <time>2022-07-30T09:34:55Z</time>
      </trkpt>
      <trkpt lat="42.57174" lon="-0.54992">
        <time>2022-07-30T09:34:56Z</time>
      </trkpt>
      <trkpt lat="42.57171" lon="-0.54997">
        <time>2022-07-30T09:34:57Z</time>
      </trkpt>
      <trkpt lat="42.57168" lon="-0.55001">
        <time>2022-07-30T09:34:58Z</time>
      </trkpt>
      <trkpt lat="42.57164" lon="-0.55006">
        <time>2022-07-30T09:34:59Z</time>
      </trkpt>
      <trkpt lat="42.57161" lon="-0.55012">
        <time>2022-07-30T09:35:00Z</time>
      </trkpt>
      <trkpt lat="42.57157" lon="-0.55018">
        <time>2022-07-30T09:35:01Z</time>
      </trkpt>
      <trkpt lat="42.57153" lon="-0.55024">
        <time>2022-07-30T09:35:02Z</time>
      </trkpt>
      <trkpt lat="42.57149" lon="-0.55029">
        <time>2022-07-30T09:35:03Z</time>
      </trkpt>
      <trkpt lat="42.57144" lon="-0.55035">
        <time>2022-07-30T09:35:04Z</time>
      </trkpt>
      <trkpt lat="42.5714" lon="-0.55041">
        <time>2022-07-30T09:35:05Z</time>
      </trkpt>
      <trkpt lat="42.57136" lon="-0.55046">
        <time>2022-07-30T09:35:06Z</time>
      </trkpt>
      <trkpt lat="42.57131" lon="-0.55052">
        <time>2022-07-30T09:35:07Z</time>
      </trkpt>
      <trkpt lat="42.57127" lon="-0.55057">
        <time>2022-07-30T09:35:08Z</time>
      </trkpt>
      <trkpt lat="42.57123" lon="-0.55061">
        <time>2022-07-30T09:35:09Z</time>
      </trkpt>
      <trkpt lat="42.57119" lon="-0.55064">
        <time>2022-07-30T09:35:10Z</time>
      </trkpt>
      <trkpt lat="42.57116" lon="-0.55066">
        <time>2022-07-30T09:35:11Z</time>
      </trkpt>
      <trkpt lat="42.57113" lon="-0.55069">
        <time>2022-07-30T09:35:12Z</time>
      </trkpt>
      <trkpt lat="42.57109" lon="-0.55071">
        <time>2022-07-30T09:35:13Z</time>
      </trkpt>
      <trkpt lat="42.57106" lon="-0.55073">
        <time>2022-07-30T09:35:14Z</time>
      </trkpt>
      <trkpt lat="42.57104" lon="-0.55075">
        <time>2022-07-30T09:35:15Z</time>
      </trkpt>
      <trkpt lat="42.57103" lon="-0.55076">
        <time>2022-07-30T09:35:16Z</time>
      </trkpt>
      <trkpt lat="42.571" lon="-0.55078">
        <time>2022-07-30T09:35:26Z</time>
      </trkpt>
      <trkpt lat="42.57098" lon="-0.55079">
        <time>2022-07-30T09:35:27Z</time>
      </trkpt>
      <trkpt lat="42.57096" lon="-0.55082">
        <time>2022-07-30T09:35:28Z</time>
      </trkpt>
      <trkpt lat="42.57092" lon="-0.55084">
        <time>2022-07-30T09:35:29Z</time>
      </trkpt>
      <trkpt lat="42.57088" lon="-0.55087">
        <time>2022-07-30T09:35:30Z</time>
      </trkpt>
      <trkpt lat="42.57084" lon="-0.55091">
        <time>2022-07-30T09:35:31Z</time>
      </trkpt>
      <trkpt lat="42.57078" lon="-0.55095">
        <time>2022-07-30T09:35:32Z</time>
      </trkpt>
      <trkpt lat="42.57073" lon="-0.551">
        <time>2022-07-30T09:35:33Z</time>
      </trkpt>
      <trkpt lat="42.57066" lon="-0.55104">
        <time>2022-07-30T09:35:34Z</time>
      </trkpt>
      <trkpt lat="42.57061" lon="-0.55109">
        <time>2022-07-30T09:35:35Z</time>
      </trkpt>
      <trkpt lat="42.57055" lon="-0.55114">
        <time>2022-07-30T09:35:36Z</time>
      </trkpt>
      <trkpt lat="42.57049" lon="-0.55118">
        <time>2022-07-30T09:35:37Z</time>
      </trkpt>
      <trkpt lat="42.57043" lon="-0.55122">
        <time>2022-07-30T09:35:38Z</time>
      </trkpt>
      <trkpt lat="42.57038" lon="-0.55126">
        <time>2022-07-30T09:35:39Z</time>
      </trkpt>
      <trkpt lat="42.57032" lon="-0.55131">
        <time>2022-07-30T09:35:40Z</time>
      </trkpt>
      <trkpt lat="42.57026" lon="-0.55136">
        <time>2022-07-30T09:35:41Z</time>
      </trkpt>
      <trkpt lat="42.57018" lon="-0.5514">
        <time>2022-07-30T09:35:42Z</time>
      </trkpt>
      <trkpt lat="42.57012" lon="-0.55145">
        <time>2022-07-30T09:35:43Z</time>
      </trkpt>
      <trkpt lat="42.57005" lon="-0.55151">
        <time>2022-07-30T09:35:44Z</time>
      </trkpt>
      <trkpt lat="42.56998" lon="-0.55155">
        <time>2022-07-30T09:35:45Z</time>
      </trkpt>
      <trkpt lat="42.56993" lon="-0.55159">
        <time>2022-07-30T09:35:46Z</time>
      </trkpt>
      <trkpt lat="42.56988" lon="-0.55163">
        <time>2022-07-30T09:35:47Z</time>
      </trkpt>
      <trkpt lat="42.56984" lon="-0.55166">
        <time>2022-07-30T09:35:48Z</time>
      </trkpt>
      <trkpt lat="42.5698" lon="-0.55169">
        <time>2022-07-30T09:35:49Z</time>
      </trkpt>
      <trkpt lat="42.56975" lon="-0.55173">
        <time>2022-07-30T09:35:50Z</time>
      </trkpt>
      <trkpt lat="42.56971" lon="-0.55176">
        <time>2022-07-30T09:35:51Z</time>
      </trkpt>
      <trkpt lat="42.56968" lon="-0.55178">
        <time>2022-07-30T09:35:52Z</time>
      </trkpt>
      <trkpt lat="42.56963" lon="-0.55182">
        <time>2022-07-30T09:35:53Z</time>
      </trkpt>
      <trkpt lat="42.56959" lon="-0.55185">
        <time>2022-07-30T09:35:54Z</time>
      </trkpt>
      <trkpt lat="42.56955" lon="-0.55188">
        <time>2022-07-30T09:35:55Z</time>
      </trkpt>
      <trkpt lat="42.56951" lon="-0.55191">
        <time>2022-07-30T09:35:56Z</time>
      </trkpt>
      <trkpt lat="42.56946" lon="-0.55194">
        <time>2022-07-30T09:35:57Z</time>
      </trkpt>
      <trkpt lat="42.56941" lon="-0.55197">
        <time>2022-07-30T09:35:58Z</time>
      </trkpt>
      <trkpt lat="42.56935" lon="-0.55202">
        <time>2022-07-30T09:35:59Z</time>
      </trkpt>
      <trkpt lat="42.56929" lon="-0.55206">
        <time>2022-07-30T09:36:00Z</time>
      </trkpt>
      <trkpt lat="42.56923" lon="-0.5521">
        <time>2022-07-30T09:36:01Z</time>
      </trkpt>
      <trkpt lat="42.56917" lon="-0.55214">
        <time>2022-07-30T09:36:02Z</time>
      </trkpt>
      <trkpt lat="42.56912" lon="-0.55218">
        <time>2022-07-30T09:36:03Z</time>
      </trkpt>
      <trkpt lat="42.56906" lon="-0.55223">
        <time>2022-07-30T09:36:04Z</time>
      </trkpt>
      <trkpt lat="42.569" lon="-0.55227">
        <time>2022-07-30T09:36:05Z</time>
      </trkpt>
      <trkpt lat="42.56895" lon="-0.55231">
        <time>2022-07-30T09:36:06Z</time>
      </trkpt>
      <trkpt lat="42.5689" lon="-0.55235">
        <time>2022-07-30T09:36:07Z</time>
      </trkpt>
      <trkpt lat="42.56885" lon="-0.55238">
        <time>2022-07-30T09:36:08Z</time>
      </trkpt>
      <trkpt lat="42.56882" lon="-0.5524">
        <time>2022-07-30T09:36:09Z</time>
      </trkpt>
      <trkpt lat="42.56878" lon="-0.55243">
        <time>2022-07-30T09:36:10Z</time>
      </trkpt>
      <trkpt lat="42.56873" lon="-0.55246">
        <time>2022-07-30T09:36:11Z</time>
      </trkpt>
      <trkpt lat="42.56867" lon="-0.5525">
        <time>2022-07-30T09:36:12Z</time>
      </trkpt>
      <trkpt lat="42.56862" lon="-0.55254">
        <time>2022-07-30T09:36:13Z</time>
      </trkpt>
      <trkpt lat="42.56856" lon="-0.55259">
        <time>2022-07-30T09:36:14Z</time>
      </trkpt>
      <trkpt lat="42.56849" lon="-0.55264">
        <time>2022-07-30T09:36:15Z</time>
      </trkpt>
      <trkpt lat="42.56843" lon="-0.55268">
        <time>2022-07-30T09:36:16Z</time>
      </trkpt>
      <trkpt lat="42.56837" lon="-0.55273">
        <time>2022-07-30T09:36:17Z</time>
      </trkpt>
      <trkpt lat="42.5683" lon="-0.55278">
        <time>2022-07-30T09:36:18Z</time>
      </trkpt>
      <trkpt lat="42.56822" lon="-0.55283">
        <time>2022-07-30T09:36:19Z</time>
      </trkpt>
      <trkpt lat="42.56815" lon="-0.55288">
        <time>2022-07-30T09:36:20Z</time>
      </trkpt>
      <trkpt lat="42.56808" lon="-0.55293">
        <time>2022-07-30T09:36:21Z</time>
      </trkpt>
      <trkpt lat="42.56801" lon="-0.55299">
        <time>2022-07-30T09:36:22Z</time>
      </trkpt>
      <trkpt lat="42.56793" lon="-0.55305">
        <time>2022-07-30T09:36:23Z</time>
      </trkpt>
      <trkpt lat="42.56785" lon="-0.55311">
        <time>2022-07-30T09:36:24Z</time>
      </trkpt>
      <trkpt lat="42.56777" lon="-0.55317">
        <time>2022-07-30T09:36:25Z</time>
      </trkpt>
      <trkpt lat="42.56769" lon="-0.55323">
        <time>2022-07-30T09:36:26Z</time>
      </trkpt>
      <trkpt lat="42.56761" lon="-0.55329">
        <time>2022-07-30T09:36:27Z</time>
      </trkpt>
      <trkpt lat="42.56754" lon="-0.55334">
        <time>2022-07-30T09:36:28Z</time>
      </trkpt>
      <trkpt lat="42.56747" lon="-0.5534">
        <time>2022-07-30T09:36:29Z</time>
      </trkpt>
      <trkpt lat="42.56741" lon="-0.55347">
        <time>2022-07-30T09:36:30Z</time>
      </trkpt>
      <trkpt lat="42.56734" lon="-0.55354">
        <time>2022-07-30T09:36:31Z</time>
      </trkpt>
      <trkpt lat="42.56728" lon="-0.55362">
        <time>2022-07-30T09:36:32Z</time>
      </trkpt>
      <trkpt lat="42.56722" lon="-0.55369">
        <time>2022-07-30T09:36:33Z</time>
      </trkpt>
      <trkpt lat="42.56715" lon="-0.55377">
        <time>2022-07-30T09:36:34Z</time>
      </trkpt>
      <trkpt lat="42.56709" lon="-0.55385">
        <time>2022-07-30T09:36:35Z</time>
      </trkpt>
      <trkpt lat="42.56703" lon="-0.55393">
        <time>2022-07-30T09:36:36Z</time>
      </trkpt>
      <trkpt lat="42.56698" lon="-0.554">
        <time>2022-07-30T09:36:37Z</time>
      </trkpt>
      <trkpt lat="42.56693" lon="-0.55406">
        <time>2022-07-30T09:36:38Z</time>
      </trkpt>
      <trkpt lat="42.56688" lon="-0.55412">
        <time>2022-07-30T09:36:39Z</time>
      </trkpt>
      <trkpt lat="42.56684" lon="-0.55418">
        <time>2022-07-30T09:36:40Z</time>
      </trkpt>
      <trkpt lat="42.5668" lon="-0.55423">
        <time>2022-07-30T09:36:41Z</time>
      </trkpt>
      <trkpt lat="42.56676" lon="-0.55429">
        <time>2022-07-30T09:36:42Z</time>
      </trkpt>
      <trkpt lat="42.56674" lon="-0.55432">
        <time>2022-07-30T09:36:43Z</time>
      </trkpt>
      <trkpt lat="42.56672" lon="-0.55434">
        <time>2022-07-30T09:36:44Z</time>
      </trkpt>
      <trkpt lat="42.56671" lon="-0.55436">
        <time>2022-07-30T09:36:45Z</time>
      </trkpt>
      <trkpt lat="42.56669" lon="-0.55441">
        <time>2022-07-30T09:36:46Z</time>
      </trkpt>
      <trkpt lat="42.56666" lon="-0.55445">
        <time>2022-07-30T09:36:47Z</time>
      </trkpt>
      <trkpt lat="42.56663" lon="-0.55451">
        <time>2022-07-30T09:36:48Z</time>
      </trkpt>
      <trkpt lat="42.56659" lon="-0.55457">
        <time>2022-07-30T09:36:49Z</time>
      </trkpt>
      <trkpt lat="42.56656" lon="-0.55464">
        <time>2022-07-30T09:36:50Z</time>
      </trkpt>
      <trkpt lat="42.56653" lon="-0.55471">
        <time>2022-07-30T09:36:51Z</time>
      </trkpt>
      <trkpt lat="42.5665" lon="-0.55479">
        <time>2022-07-30T09:36:52Z</time>
      </trkpt>
      <trkpt lat="42.56647" lon="-0.55489">
        <time>2022-07-30T09:36:53Z</time>
      </trkpt>
      <trkpt lat="42.56644" lon="-0.55499">
        <time>2022-07-30T09:36:54Z</time>
      </trkpt>
      <trkpt lat="42.56642" lon="-0.55511">
        <time>2022-07-30T09:36:55Z</time>
      </trkpt>
      <trkpt lat="42.5664" lon="-0.55522">
        <time>2022-07-30T09:36:56Z</time>
      </trkpt>
      <trkpt lat="42.56637" lon="-0.55534">
        <time>2022-07-30T09:36:57Z</time>
      </trkpt>
      <trkpt lat="42.56635" lon="-0.55546">
        <time>2022-07-30T09:36:58Z</time>
      </trkpt>
      <trkpt lat="42.56633" lon="-0.55558">
        <time>2022-07-30T09:36:59Z</time>
      </trkpt>
      <trkpt lat="42.56631" lon="-0.55571">
        <time>2022-07-30T09:37:00Z</time>
      </trkpt>
      <trkpt lat="42.56629" lon="-0.55583">
        <time>2022-07-30T09:37:01Z</time>
      </trkpt>
      <trkpt lat="42.56627" lon="-0.55594">
        <time>2022-07-30T09:37:02Z</time>
      </trkpt>
      <trkpt lat="42.56625" lon="-0.55607">
        <time>2022-07-30T09:37:03Z</time>
      </trkpt>
      <trkpt lat="42.56624" lon="-0.55617">
        <time>2022-07-30T09:37:04Z</time>
      </trkpt>
      <trkpt lat="42.56622" lon="-0.5563">
        <time>2022-07-30T09:37:05Z</time>
      </trkpt>
      <trkpt lat="42.56619" lon="-0.55643">
        <time>2022-07-30T09:37:06Z</time>
      </trkpt>
      <trkpt lat="42.56617" lon="-0.55655">
        <time>2022-07-30T09:37:07Z</time>
      </trkpt>
      <trkpt lat="42.56615" lon="-0.55669">
        <time>2022-07-30T09:37:08Z</time>
      </trkpt>
      <trkpt lat="42.56613" lon="-0.55682">
        <time>2022-07-30T09:37:09Z</time>
      </trkpt>
      <trkpt lat="42.56611" lon="-0.55695">
        <time>2022-07-30T09:37:10Z</time>
      </trkpt>
      <trkpt lat="42.56609" lon="-0.55708">
        <time>2022-07-30T09:37:11Z</time>
      </trkpt>
      <trkpt lat="42.56607" lon="-0.55721">
        <time>2022-07-30T09:37:12Z</time>
      </trkpt>
      <trkpt lat="42.56605" lon="-0.55734">
        <time>2022-07-30T09:37:13Z</time>
      </trkpt>
      <trkpt lat="42.56602" lon="-0.55748">
        <time>2022-07-30T09:37:14Z</time>
      </trkpt>
      <trkpt lat="42.566" lon="-0.5576">
        <time>2022-07-30T09:37:15Z</time>
      </trkpt>
      <trkpt lat="42.56598" lon="-0.55773">
        <time>2022-07-30T09:37:16Z</time>
      </trkpt>
      <trkpt lat="42.56596" lon="-0.55785">
        <time>2022-07-30T09:37:17Z</time>
      </trkpt>
      <trkpt lat="42.56594" lon="-0.55797">
        <time>2022-07-30T09:37:18Z</time>
      </trkpt>
      <trkpt lat="42.56592" lon="-0.55808">
        <time>2022-07-30T09:37:19Z</time>
      </trkpt>
      <trkpt lat="42.56589" lon="-0.55821">
        <time>2022-07-30T09:37:20Z</time>
      </trkpt>
      <trkpt lat="42.56588" lon="-0.55834">
        <time>2022-07-30T09:37:21Z</time>
      </trkpt>
      <trkpt lat="42.56586" lon="-0.55849">
        <time>2022-07-30T09:37:22Z</time>
      </trkpt>
      <trkpt lat="42.56583" lon="-0.55863">
        <time>2022-07-30T09:37:23Z</time>
      </trkpt>
      <trkpt lat="42.56581" lon="-0.55877">
        <time>2022-07-30T09:37:24Z</time>
      </trkpt>
      <trkpt lat="42.56578" lon="-0.55891">
        <time>2022-07-30T09:37:25Z</time>
      </trkpt>
      <trkpt lat="42.56575" lon="-0.55905">
        <time>2022-07-30T09:37:26Z</time>
      </trkpt>
      <trkpt lat="42.56574" lon="-0.55918">
        <time>2022-07-30T09:37:27Z</time>
      </trkpt>
      <trkpt lat="42.56571" lon="-0.55932">
        <time>2022-07-30T09:37:28Z</time>
      </trkpt>
      <trkpt lat="42.56568" lon="-0.55946">
        <time>2022-07-30T09:37:29Z</time>
      </trkpt>
      <trkpt lat="42.56566" lon="-0.5596">
        <time>2022-07-30T09:37:30Z</time>
      </trkpt>
      <trkpt lat="42.56564" lon="-0.55974">
        <time>2022-07-30T09:37:31Z</time>
      </trkpt>
      <trkpt lat="42.56562" lon="-0.55989">
        <time>2022-07-30T09:37:32Z</time>
      </trkpt>
      <trkpt lat="42.56559" lon="-0.56003">
        <time>2022-07-30T09:37:33Z</time>
      </trkpt>
      <trkpt lat="42.56557" lon="-0.56016">
        <time>2022-07-30T09:37:34Z</time>
      </trkpt>
      <trkpt lat="42.56555" lon="-0.56028">
        <time>2022-07-30T09:37:35Z</time>
      </trkpt>
      <trkpt lat="42.56554" lon="-0.5604">
        <time>2022-07-30T09:37:36Z</time>
      </trkpt>
      <trkpt lat="42.56552" lon="-0.56053">
        <time>2022-07-30T09:37:37Z</time>
      </trkpt>
      <trkpt lat="42.5655" lon="-0.56066">
        <time>2022-07-30T09:37:38Z</time>
      </trkpt>
      <trkpt lat="42.56548" lon="-0.56078">
        <time>2022-07-30T09:37:39Z</time>
      </trkpt>
      <trkpt lat="42.56546" lon="-0.56088">
        <time>2022-07-30T09:37:40Z</time>
      </trkpt>
      <trkpt lat="42.56544" lon="-0.56099">
        <time>2022-07-30T09:37:41Z</time>
      </trkpt>
      <trkpt lat="42.56542" lon="-0.56111">
        <time>2022-07-30T09:37:42Z</time>
      </trkpt>
      <trkpt lat="42.5654" lon="-0.56124">
        <time>2022-07-30T09:37:43Z</time>
      </trkpt>
      <trkpt lat="42.56537" lon="-0.56136">
        <time>2022-07-30T09:37:44Z</time>
      </trkpt>
      <trkpt lat="42.56535" lon="-0.5615">
        <time>2022-07-30T09:37:45Z</time>
      </trkpt>
      <trkpt lat="42.56533" lon="-0.56163">
        <time>2022-07-30T09:37:46Z</time>
      </trkpt>
      <trkpt lat="42.56531" lon="-0.56176">
        <time>2022-07-30T09:37:47Z</time>
      </trkpt>
      <trkpt lat="42.56529" lon="-0.56189">
        <time>2022-07-30T09:37:48Z</time>
      </trkpt>
      <trkpt lat="42.56527" lon="-0.56203">
        <time>2022-07-30T09:37:49Z</time>
      </trkpt>
      <trkpt lat="42.56525" lon="-0.56217">
        <time>2022-07-30T09:37:50Z</time>
      </trkpt>
      <trkpt lat="42.56522" lon="-0.5623">
        <time>2022-07-30T09:37:51Z</time>
      </trkpt>
      <trkpt lat="42.56519" lon="-0.56245">
        <time>2022-07-30T09:37:52Z</time>
      </trkpt>
      <trkpt lat="42.56517" lon="-0.56259">
        <time>2022-07-30T09:37:53Z</time>
      </trkpt>
      <trkpt lat="42.56515" lon="-0.56273">
        <time>2022-07-30T09:37:54Z</time>
      </trkpt>
      <trkpt lat="42.56512" lon="-0.56288">
        <time>2022-07-30T09:37:55Z</time>
      </trkpt>
      <trkpt lat="42.56509" lon="-0.56303">
        <time>2022-07-30T09:37:56Z</time>
      </trkpt>
      <trkpt lat="42.56507" lon="-0.56318">
        <time>2022-07-30T09:37:57Z</time>
      </trkpt>
      <trkpt lat="42.56505" lon="-0.56332">
        <time>2022-07-30T09:37:58Z</time>
      </trkpt>
      <trkpt lat="42.56503" lon="-0.56344">
        <time>2022-07-30T09:37:59Z</time>
      </trkpt>
      <trkpt lat="42.56501" lon="-0.56354">
        <time>2022-07-30T09:38:00Z</time>
      </trkpt>
      <trkpt lat="42.56499" lon="-0.56364">
        <time>2022-07-30T09:38:01Z</time>
      </trkpt>
      <trkpt lat="42.56498" lon="-0.56372">
        <time>2022-07-30T09:38:02Z</time>
      </trkpt>
      <trkpt lat="42.56496" lon="-0.56379">
        <time>2022-07-30T09:38:03Z</time>
      </trkpt>
      <trkpt lat="42.56495" lon="-0.56384">
        <time>2022-07-30T09:38:04Z</time>
      </trkpt>
      <trkpt lat="42.56494" lon="-0.56389">
        <time>2022-07-30T09:38:05Z</time>
      </trkpt>
      <trkpt lat="42.56493" lon="-0.56394">
        <time>2022-07-30T09:38:06Z</time>
      </trkpt>
      <trkpt lat="42.56492" lon="-0.564">
        <time>2022-07-30T09:38:07Z</time>
      </trkpt>
      <trkpt lat="42.56491" lon="-0.56407">
        <time>2022-07-30T09:38:08Z</time>
      </trkpt>
      <trkpt lat="42.56489" lon="-0.56415">
        <time>2022-07-30T09:38:09Z</time>
      </trkpt>
      <trkpt lat="42.56488" lon="-0.56424">
        <time>2022-07-30T09:38:10Z</time>
      </trkpt>
      <trkpt lat="42.56486" lon="-0.56435">
        <time>2022-07-30T09:38:11Z</time>
      </trkpt>
      <trkpt lat="42.56484" lon="-0.56446">
        <time>2022-07-30T09:38:12Z</time>
      </trkpt>
      <trkpt lat="42.56483" lon="-0.56456">
        <time>2022-07-30T09:38:13Z</time>
      </trkpt>
      <trkpt lat="42.56481" lon="-0.56467">
        <time>2022-07-30T09:38:14Z</time>
      </trkpt>
      <trkpt lat="42.56479" lon="-0.56478">
        <time>2022-07-30T09:38:15Z</time>
      </trkpt>
      <trkpt lat="42.56477" lon="-0.56491">
        <time>2022-07-30T09:38:16Z</time>
      </trkpt>
      <trkpt lat="42.56475" lon="-0.56504">
        <time>2022-07-30T09:38:17Z</time>
      </trkpt>
      <trkpt lat="42.56473" lon="-0.56517">
        <time>2022-07-30T09:38:18Z</time>
      </trkpt>
      <trkpt lat="42.56471" lon="-0.56532">
        <time>2022-07-30T09:38:19Z</time>
      </trkpt>
      <trkpt lat="42.56468" lon="-0.56546">
        <time>2022-07-30T09:38:20Z</time>
      </trkpt>
      <trkpt lat="42.56466" lon="-0.5656">
        <time>2022-07-30T09:38:21Z</time>
      </trkpt>
      <trkpt lat="42.56463" lon="-0.56573">
        <time>2022-07-30T09:38:22Z</time>
      </trkpt>
      <trkpt lat="42.56461" lon="-0.56586">
        <time>2022-07-30T09:38:23Z</time>
      </trkpt>
      <trkpt lat="42.56459" lon="-0.56597">
        <time>2022-07-30T09:38:24Z</time>
      </trkpt>
      <trkpt lat="42.56457" lon="-0.56609">
        <time>2022-07-30T09:38:25Z</time>
      </trkpt>
      <trkpt lat="42.56455" lon="-0.56621">
        <time>2022-07-30T09:38:26Z</time>
      </trkpt>
      <trkpt lat="42.56453" lon="-0.56634">
        <time>2022-07-30T09:38:27Z</time>
      </trkpt>
      <trkpt lat="42.56451" lon="-0.56648">
        <time>2022-07-30T09:38:28Z</time>
      </trkpt>
      <trkpt lat="42.56449" lon="-0.56663">
        <time>2022-07-30T09:38:29Z</time>
      </trkpt>
      <trkpt lat="42.56446" lon="-0.56679">
        <time>2022-07-30T09:38:30Z</time>
      </trkpt>
      <trkpt lat="42.56443" lon="-0.56697">
        <time>2022-07-30T09:38:31Z</time>
      </trkpt>
      <trkpt lat="42.5644" lon="-0.56716">
        <time>2022-07-30T09:38:32Z</time>
      </trkpt>
      <trkpt lat="42.56437" lon="-0.56734">
        <time>2022-07-30T09:38:33Z</time>
      </trkpt>
      <trkpt lat="42.56434" lon="-0.56754">
        <time>2022-07-30T09:38:34Z</time>
      </trkpt>
      <trkpt lat="42.56431" lon="-0.56773">
        <time>2022-07-30T09:38:35Z</time>
      </trkpt>
      <trkpt lat="42.56427" lon="-0.56792">
        <time>2022-07-30T09:38:36Z</time>
      </trkpt>
      <trkpt lat="42.56424" lon="-0.56811">
        <time>2022-07-30T09:38:37Z</time>
      </trkpt>
      <trkpt lat="42.56421" lon="-0.56832">
        <time>2022-07-30T09:38:38Z</time>
      </trkpt>
      <trkpt lat="42.56417" lon="-0.56853">
        <time>2022-07-30T09:38:39Z</time>
      </trkpt>
      <trkpt lat="42.56413" lon="-0.56874">
        <time>2022-07-30T09:38:40Z</time>
      </trkpt>
      <trkpt lat="42.5641" lon="-0.56895">
        <time>2022-07-30T09:38:41Z</time>
      </trkpt>
      <trkpt lat="42.56406" lon="-0.56916">
        <time>2022-07-30T09:38:42Z</time>
      </trkpt>
      <trkpt lat="42.56402" lon="-0.56938">
        <time>2022-07-30T09:38:43Z</time>
      </trkpt>
      <trkpt lat="42.56398" lon="-0.56959">
        <time>2022-07-30T09:38:44Z</time>
      </trkpt>
      <trkpt lat="42.56395" lon="-0.56981">
        <time>2022-07-30T09:38:45Z</time>
      </trkpt>
      <trkpt lat="42.56391" lon="-0.57004">
        <time>2022-07-30T09:38:46Z</time>
      </trkpt>
      <trkpt lat="42.56387" lon="-0.57028">
        <time>2022-07-30T09:38:47Z</time>
      </trkpt>
      <trkpt lat="42.56383" lon="-0.57054">
        <time>2022-07-30T09:38:48Z</time>
      </trkpt>
      <trkpt lat="42.56378" lon="-0.57083">
        <time>2022-07-30T09:38:49Z</time>
      </trkpt>
      <trkpt lat="42.56373" lon="-0.57111">
        <time>2022-07-30T09:38:50Z</time>
      </trkpt>
      <trkpt lat="42.56368" lon="-0.57141">
        <time>2022-07-30T09:38:51Z</time>
      </trkpt>
      <trkpt lat="42.56363" lon="-0.57171">
        <time>2022-07-30T09:38:52Z</time>
      </trkpt>
      <trkpt lat="42.56358" lon="-0.57201">
        <time>2022-07-30T09:38:53Z</time>
      </trkpt>
      <trkpt lat="42.56353" lon="-0.57231">
        <time>2022-07-30T09:38:54Z</time>
      </trkpt>
      <trkpt lat="42.56348" lon="-0.57262">
        <time>2022-07-30T09:38:55Z</time>
      </trkpt>
      <trkpt lat="42.56342" lon="-0.57293">
        <time>2022-07-30T09:38:56Z</time>
      </trkpt>
      <trkpt lat="42.56337" lon="-0.57325">
        <time>2022-07-30T09:38:57Z</time>
      </trkpt>
      <trkpt lat="42.56332" lon="-0.57356">
        <time>2022-07-30T09:38:58Z</time>
      </trkpt>
      <trkpt lat="42.56327" lon="-0.57386">
        <time>2022-07-30T09:38:59Z</time>
      </trkpt>
      <trkpt lat="42.56322" lon="-0.57415">
        <time>2022-07-30T09:39:00Z</time>
      </trkpt>
      <trkpt lat="42.56317" lon="-0.57443">
        <time>2022-07-30T09:39:01Z</time>
      </trkpt>
      <trkpt lat="42.56313" lon="-0.5747">
        <time>2022-07-30T09:39:02Z</time>
      </trkpt>
      <trkpt lat="42.56307" lon="-0.57495">
        <time>2022-07-30T09:39:03Z</time>
      </trkpt>
      <trkpt lat="42.56302" lon="-0.57521">
        <time>2022-07-30T09:39:04Z</time>
      </trkpt>
      <trkpt lat="42.56296" lon="-0.57546">
        <time>2022-07-30T09:39:05Z</time>
      </trkpt>
      <trkpt lat="42.5629" lon="-0.5757">
        <time>2022-07-30T09:39:06Z</time>
      </trkpt>
      <trkpt lat="42.56284" lon="-0.57594">
        <time>2022-07-30T09:39:07Z</time>
      </trkpt>
      <trkpt lat="42.56279" lon="-0.57618">
        <time>2022-07-30T09:39:08Z</time>
      </trkpt>
      <trkpt lat="42.56273" lon="-0.57643">
        <time>2022-07-30T09:39:09Z</time>
      </trkpt>
      <trkpt lat="42.56267" lon="-0.57667">
        <time>2022-07-30T09:39:10Z</time>
      </trkpt>
      <trkpt lat="42.56261" lon="-0.57691">
        <time>2022-07-30T09:39:11Z</time>
      </trkpt>
      <trkpt lat="42.56255" lon="-0.57715">
        <time>2022-07-30T09:39:12Z</time>
      </trkpt>
      <trkpt lat="42.56249" lon="-0.5774">
        <time>2022-07-30T09:39:13Z</time>
      </trkpt>
      <trkpt lat="42.56242" lon="-0.57764">
        <time>2022-07-30T09:39:14Z</time>
      </trkpt>
      <trkpt lat="42.56236" lon="-0.5779">
        <time>2022-07-30T09:39:15Z</time>
      </trkpt>
      <trkpt lat="42.56231" lon="-0.57817">
        <time>2022-07-30T09:39:16Z</time>
      </trkpt>
      <trkpt lat="42.56226" lon="-0.57845">
        <time>2022-07-30T09:39:17Z</time>
      </trkpt>
      <trkpt lat="42.56224" lon="-0.57875">
        <time>2022-07-30T09:39:18Z</time>
      </trkpt>
      <trkpt lat="42.56222" lon="-0.57904">
        <time>2022-07-30T09:39:19Z</time>
      </trkpt>
      <trkpt lat="42.5622" lon="-0.57933">
        <time>2022-07-30T09:39:20Z</time>
      </trkpt>
      <trkpt lat="42.56217" lon="-0.5796">
        <time>2022-07-30T09:39:21Z</time>
      </trkpt>
      <trkpt lat="42.56214" lon="-0.57986">
        <time>2022-07-30T09:39:22Z</time>
      </trkpt>
      <trkpt lat="42.56211" lon="-0.5801">
        <time>2022-07-30T09:39:23Z</time>
      </trkpt>
      <trkpt lat="42.56207" lon="-0.58034">
        <time>2022-07-30T09:39:24Z</time>
      </trkpt>
      <trkpt lat="42.56202" lon="-0.58057">
        <time>2022-07-30T09:39:25Z</time>
      </trkpt>
      <trkpt lat="42.56198" lon="-0.58081">
        <time>2022-07-30T09:39:26Z</time>
      </trkpt>
      <trkpt lat="42.56194" lon="-0.58106">
        <time>2022-07-30T09:39:27Z</time>
      </trkpt>
      <trkpt lat="42.56191" lon="-0.58131">
        <time>2022-07-30T09:39:28Z</time>
      </trkpt>
      <trkpt lat="42.56189" lon="-0.58157">
        <time>2022-07-30T09:39:29Z</time>
      </trkpt>
      <trkpt lat="42.56187" lon="-0.58184">
        <time>2022-07-30T09:39:30Z</time>
      </trkpt>
      <trkpt lat="42.56184" lon="-0.58211">
        <time>2022-07-30T09:39:31Z</time>
      </trkpt>
      <trkpt lat="42.56182" lon="-0.58238">
        <time>2022-07-30T09:39:32Z</time>
      </trkpt>
      <trkpt lat="42.5618" lon="-0.58265">
        <time>2022-07-30T09:39:33Z</time>
      </trkpt>
      <trkpt lat="42.56177" lon="-0.58291">
        <time>2022-07-30T09:39:34Z</time>
      </trkpt>
      <trkpt lat="42.56173" lon="-0.58317">
        <time>2022-07-30T09:39:35Z</time>
      </trkpt>
      <trkpt lat="42.56169" lon="-0.58343">
        <time>2022-07-30T09:39:36Z</time>
      </trkpt>
      <trkpt lat="42.56163" lon="-0.58368">
        <time>2022-07-30T09:39:37Z</time>
      </trkpt>
      <trkpt lat="42.56156" lon="-0.58394">
        <time>2022-07-30T09:39:38Z</time>
      </trkpt>
      <trkpt lat="42.56149" lon="-0.5842">
        <time>2022-07-30T09:39:39Z</time>
      </trkpt>
      <trkpt lat="42.56142" lon="-0.58446">
        <time>2022-07-30T09:39:40Z</time>
      </trkpt>
      <trkpt lat="42.56135" lon="-0.58472">
        <time>2022-07-30T09:39:41Z</time>
      </trkpt>
      <trkpt lat="42.56128" lon="-0.58499">
        <time>2022-07-30T09:39:42Z</time>
      </trkpt>
      <trkpt lat="42.56121" lon="-0.58525">
        <time>2022-07-30T09:39:43Z</time>
      </trkpt>
      <trkpt lat="42.56114" lon="-0.58551">
        <time>2022-07-30T09:39:44Z</time>
      </trkpt>
      <trkpt lat="42.56106" lon="-0.58578">
        <time>2022-07-30T09:39:45Z</time>
      </trkpt>
      <trkpt lat="42.56099" lon="-0.58605">
        <time>2022-07-30T09:39:46Z</time>
      </trkpt>
      <trkpt lat="42.56091" lon="-0.58632">
        <time>2022-07-30T09:39:47Z</time>
      </trkpt>
      <trkpt lat="42.56084" lon="-0.58659">
        <time>2022-07-30T09:39:48Z</time>
      </trkpt>
      <trkpt lat="42.56075" lon="-0.58687">
        <time>2022-07-30T09:39:49Z</time>
      </trkpt>
      <trkpt lat="42.56066" lon="-0.58714">
        <time>2022-07-30T09:39:50Z</time>
      </trkpt>
      <trkpt lat="42.56056" lon="-0.58741">
        <time>2022-07-30T09:39:51Z</time>
      </trkpt>
      <trkpt lat="42.56046" lon="-0.58768">
        <time>2022-07-30T09:39:52Z</time>
      </trkpt>
      <trkpt lat="42.56036" lon="-0.58796">
        <time>2022-07-30T09:39:53Z</time>
      </trkpt>
      <trkpt lat="42.56028" lon="-0.58825">
        <time>2022-07-30T09:39:54Z</time>
      </trkpt>
      <trkpt lat="42.56021" lon="-0.58854">
        <time>2022-07-30T09:39:55Z</time>
      </trkpt>
      <trkpt lat="42.56014" lon="-0.58883">
        <time>2022-07-30T09:39:56Z</time>
      </trkpt>
      <trkpt lat="42.56008" lon="-0.5891">
        <time>2022-07-30T09:39:57Z</time>
      </trkpt>
      <trkpt lat="42.56002" lon="-0.58936">
        <time>2022-07-30T09:39:58Z</time>
      </trkpt>
      <trkpt lat="42.55996" lon="-0.58961">
        <time>2022-07-30T09:39:59Z</time>
      </trkpt>
      <trkpt lat="42.5599" lon="-0.58985">
        <time>2022-07-30T09:40:00Z</time>
      </trkpt>
      <trkpt lat="42.55985" lon="-0.59008">
        <time>2022-07-30T09:40:01Z</time>
      </trkpt>
      <trkpt lat="42.55979" lon="-0.5903">
        <time>2022-07-30T09:40:02Z</time>
      </trkpt>
      <trkpt lat="42.55974" lon="-0.59052">
        <time>2022-07-30T09:40:03Z</time>
      </trkpt>
      <trkpt lat="42.55969" lon="-0.59073">
        <time>2022-07-30T09:40:04Z</time>
      </trkpt>
      <trkpt lat="42.55964" lon="-0.59094">
        <time>2022-07-30T09:40:05Z</time>
      </trkpt>
      <trkpt lat="42.5596" lon="-0.59114">
        <time>2022-07-30T09:40:06Z</time>
      </trkpt>
      <trkpt lat="42.55955" lon="-0.59133">
        <time>2022-07-30T09:40:07Z</time>
      </trkpt>
      <trkpt lat="42.55952" lon="-0.5915">
        <time>2022-07-30T09:40:08Z</time>
      </trkpt>
      <trkpt lat="42.5595" lon="-0.59166">
        <time>2022-07-30T09:40:09Z</time>
      </trkpt>
      <trkpt lat="42.55948" lon="-0.59181">
        <time>2022-07-30T09:40:10Z</time>
      </trkpt>
      <trkpt lat="42.55948" lon="-0.59194">
        <time>2022-07-30T09:40:11Z</time>
      </trkpt>
      <trkpt lat="42.5595" lon="-0.59206">
        <time>2022-07-30T09:40:12Z</time>
      </trkpt>
      <trkpt lat="42.55953" lon="-0.59216">
        <time>2022-07-30T09:40:13Z</time>
      </trkpt>
      <trkpt lat="42.55957" lon="-0.59225">
        <time>2022-07-30T09:40:14Z</time>
      </trkpt>
      <trkpt lat="42.55959" lon="-0.59234">
        <time>2022-07-30T09:40:15Z</time>
      </trkpt>
      <trkpt lat="42.55959" lon="-0.59243">
        <time>2022-07-30T09:40:16Z</time>
      </trkpt>
      <trkpt lat="42.55956" lon="-0.59253">
        <time>2022-07-30T09:40:17Z</time>
      </trkpt>
      <trkpt lat="42.5595" lon="-0.59261">
        <time>2022-07-30T09:40:18Z</time>
      </trkpt>
      <trkpt lat="42.55941" lon="-0.59269">
        <time>2022-07-30T09:40:19Z</time>
      </trkpt>
      <trkpt lat="42.55933" lon="-0.59279">
        <time>2022-07-30T09:40:20Z</time>
      </trkpt>
      <trkpt lat="42.55925" lon="-0.59293">
        <time>2022-07-30T09:40:21Z</time>
      </trkpt>
      <trkpt lat="42.55917" lon="-0.59311">
        <time>2022-07-30T09:40:22Z</time>
      </trkpt>
      <trkpt lat="42.55911" lon="-0.59331">
        <time>2022-07-30T09:40:23Z</time>
      </trkpt>
      <trkpt lat="42.55905" lon="-0.59353">
        <time>2022-07-30T09:40:24Z</time>
      </trkpt>
      <trkpt lat="42.55899" lon="-0.59376">
        <time>2022-07-30T09:40:25Z</time>
      </trkpt>
      <trkpt lat="42.55893" lon="-0.59399">
        <time>2022-07-30T09:40:26Z</time>
      </trkpt>
      <trkpt lat="42.55887" lon="-0.59424">
        <time>2022-07-30T09:40:27Z</time>
      </trkpt>
      <trkpt lat="42.55881" lon="-0.5945">
        <time>2022-07-30T09:40:28Z</time>
      </trkpt>
      <trkpt lat="42.55875" lon="-0.59477">
        <time>2022-07-30T09:40:29Z</time>
      </trkpt>
      <trkpt lat="42.55869" lon="-0.59503">
        <time>2022-07-30T09:40:30Z</time>
      </trkpt>
      <trkpt lat="42.55862" lon="-0.5953">
        <time>2022-07-30T09:40:31Z</time>
      </trkpt>
      <trkpt lat="42.55856" lon="-0.59558">
        <time>2022-07-30T09:40:32Z</time>
      </trkpt>
      <trkpt lat="42.5585" lon="-0.59584">
        <time>2022-07-30T09:40:33Z</time>
      </trkpt>
      <trkpt lat="42.55843" lon="-0.59611">
        <time>2022-07-30T09:40:34Z</time>
      </trkpt>
      <trkpt lat="42.55836" lon="-0.59637">
        <time>2022-07-30T09:40:35Z</time>
      </trkpt>
      <trkpt lat="42.5583" lon="-0.59664">
        <time>2022-07-30T09:40:36Z</time>
      </trkpt>
      <trkpt lat="42.55824" lon="-0.5969">
        <time>2022-07-30T09:40:37Z</time>
      </trkpt>
      <trkpt lat="42.55818" lon="-0.59716">
        <time>2022-07-30T09:40:38Z</time>
      </trkpt>
      <trkpt lat="42.55812" lon="-0.59742">
        <time>2022-07-30T09:40:39Z</time>
      </trkpt>
      <trkpt lat="42.55806" lon="-0.59768">
        <time>2022-07-30T09:40:40Z</time>
      </trkpt>
      <trkpt lat="42.558" lon="-0.59794">
        <time>2022-07-30T09:40:41Z</time>
      </trkpt>
      <trkpt lat="42.55794" lon="-0.5982">
        <time>2022-07-30T09:40:42Z</time>
      </trkpt>
      <trkpt lat="42.55787" lon="-0.59845">
        <time>2022-07-30T09:40:43Z</time>
      </trkpt>
      <trkpt lat="42.55781" lon="-0.59871">
        <time>2022-07-30T09:40:44Z</time>
      </trkpt>
      <trkpt lat="42.55775" lon="-0.59897">
        <time>2022-07-30T09:40:45Z</time>
      </trkpt>
      <trkpt lat="42.55769" lon="-0.59922">
        <time>2022-07-30T09:40:46Z</time>
      </trkpt>
      <trkpt lat="42.55763" lon="-0.59948">
        <time>2022-07-30T09:40:47Z</time>
      </trkpt>
      <trkpt lat="42.55757" lon="-0.59973">
        <time>2022-07-30T09:40:48Z</time>
      </trkpt>
      <trkpt lat="42.55751" lon="-0.59999">
        <time>2022-07-30T09:40:49Z</time>
      </trkpt>
      <trkpt lat="42.55744" lon="-0.60024">
        <time>2022-07-30T09:40:50Z</time>
      </trkpt>
      <trkpt lat="42.55738" lon="-0.60049">
        <time>2022-07-30T09:40:51Z</time>
      </trkpt>
      <trkpt lat="42.55733" lon="-0.60074">
        <time>2022-07-30T09:40:52Z</time>
      </trkpt>
      <trkpt lat="42.55727" lon="-0.60097">
        <time>2022-07-30T09:40:53Z</time>
      </trkpt>
      <trkpt lat="42.55721" lon="-0.60119">
        <time>2022-07-30T09:40:54Z</time>
      </trkpt>
      <trkpt lat="42.55714" lon="-0.60139">
        <time>2022-07-30T09:40:55Z</time>
      </trkpt>
      <trkpt lat="42.55705" lon="-0.60157">
        <time>2022-07-30T09:40:56Z</time>
      </trkpt>
      <trkpt lat="42.55693" lon="-0.60172">
        <time>2022-07-30T09:40:57Z</time>
      </trkpt>
      <trkpt lat="42.5568" lon="-0.60182">
        <time>2022-07-30T09:40:58Z</time>
      </trkpt>
      <trkpt lat="42.55667" lon="-0.60191">
        <time>2022-07-30T09:40:59Z</time>
      </trkpt>
      <trkpt lat="42.55654" lon="-0.60202">
        <time>2022-07-30T09:41:00Z</time>
      </trkpt>
      <trkpt lat="42.55642" lon="-0.60216">
        <time>2022-07-30T09:41:01Z</time>
      </trkpt>
      <trkpt lat="42.55632" lon="-0.60233">
        <time>2022-07-30T09:41:02Z</time>
      </trkpt>
      <trkpt lat="42.55623" lon="-0.60254">
        <time>2022-07-30T09:41:03Z</time>
      </trkpt>
      <trkpt lat="42.55616" lon="-0.60276">
        <time>2022-07-30T09:41:04Z</time>
      </trkpt>
      <trkpt lat="42.55608" lon="-0.603">
        <time>2022-07-30T09:41:05Z</time>
      </trkpt>
      <trkpt lat="42.55601" lon="-0.60324">
        <time>2022-07-30T09:41:06Z</time>
      </trkpt>
      <trkpt lat="42.55594" lon="-0.60347">
        <time>2022-07-30T09:41:07Z</time>
      </trkpt>
      <trkpt lat="42.55588" lon="-0.6037">
        <time>2022-07-30T09:41:08Z</time>
      </trkpt>
      <trkpt lat="42.55582" lon="-0.60391">
        <time>2022-07-30T09:41:09Z</time>
      </trkpt>
      <trkpt lat="42.55576" lon="-0.60412">
        <time>2022-07-30T09:41:10Z</time>
      </trkpt>
      <trkpt lat="42.5557" lon="-0.60433">
        <time>2022-07-30T09:41:11Z</time>
      </trkpt>
      <trkpt lat="42.55565" lon="-0.60452">
        <time>2022-07-30T09:41:12Z</time>
      </trkpt>
      <trkpt lat="42.5556" lon="-0.60471">
        <time>2022-07-30T09:41:13Z</time>
      </trkpt>
      <trkpt lat="42.55555" lon="-0.60488">
        <time>2022-07-30T09:41:14Z</time>
      </trkpt>
      <trkpt lat="42.5555" lon="-0.60504">
        <time>2022-07-30T09:41:15Z</time>
      </trkpt>
      <trkpt lat="42.55546" lon="-0.6052">
        <time>2022-07-30T09:41:16Z</time>
      </trkpt>
      <trkpt lat="42.55542" lon="-0.60533">
        <time>2022-07-30T09:41:17Z</time>
      </trkpt>
      <trkpt lat="42.55538" lon="-0.60545">
        <time>2022-07-30T09:41:18Z</time>
      </trkpt>
      <trkpt lat="42.55536" lon="-0.60555">
        <time>2022-07-30T09:41:19Z</time>
      </trkpt>
      <trkpt lat="42.55533" lon="-0.60563">
        <time>2022-07-30T09:41:20Z</time>
      </trkpt>
      <trkpt lat="42.55531" lon="-0.6057">
        <time>2022-07-30T09:41:21Z</time>
      </trkpt>
      <trkpt lat="42.5553" lon="-0.60577">
        <time>2022-07-30T09:41:22Z</time>
      </trkpt>
      <trkpt lat="42.5553" lon="-0.60582">
        <time>2022-07-30T09:41:23Z</time>
      </trkpt>
      <trkpt lat="42.55531" lon="-0.60587">
        <time>2022-07-30T09:41:24Z</time>
      </trkpt>
      <trkpt lat="42.55532" lon="-0.60591">
        <time>2022-07-30T09:41:25Z</time>
      </trkpt>
      <trkpt lat="42.55531" lon="-0.60595">
        <time>2022-07-30T09:41:26Z</time>
      </trkpt>
      <trkpt lat="42.55531" lon="-0.60599">
        <time>2022-07-30T09:41:27Z</time>
      </trkpt>
      <trkpt lat="42.55529" lon="-0.60603">
        <time>2022-07-30T09:41:28Z</time>
      </trkpt>
      <trkpt lat="42.55527" lon="-0.60605">
        <time>2022-07-30T09:41:29Z</time>
      </trkpt>
      <trkpt lat="42.55526" lon="-0.60606">
        <time>2022-07-30T09:41:30Z</time>
      </trkpt>
      <trkpt lat="42.55525" lon="-0.60606">
        <time>2022-07-30T09:41:31Z</time>
      </trkpt>
      <trkpt lat="42.55522" lon="-0.60605">
        <time>2022-07-30T09:44:36Z</time>
      </trkpt>
      <trkpt lat="42.5552" lon="-0.60603">
        <time>2022-07-30T09:44:37Z</time>
      </trkpt>
      <trkpt lat="42.55519" lon="-0.606">
        <time>2022-07-30T09:44:38Z</time>
      </trkpt>
      <trkpt lat="42.55521" lon="-0.60593">
        <time>2022-07-30T09:44:39Z</time>
      </trkpt>
      <trkpt lat="42.55523" lon="-0.60583">
        <time>2022-07-30T09:44:40Z</time>
      </trkpt>
      <trkpt lat="42.55527" lon="-0.60571">
        <time>2022-07-30T09:44:41Z</time>
      </trkpt>
      <trkpt lat="42.55531" lon="-0.60559">
        <time>2022-07-30T09:44:42Z</time>
      </trkpt>
      <trkpt lat="42.55534" lon="-0.60546">
        <time>2022-07-30T09:44:43Z</time>
      </trkpt>
      <trkpt lat="42.55538" lon="-0.60531">
        <time>2022-07-30T09:44:44Z</time>
      </trkpt>
      <trkpt lat="42.55543" lon="-0.60515">
        <time>2022-07-30T09:44:45Z</time>
      </trkpt>
      <trkpt lat="42.55548" lon="-0.60499">
        <time>2022-07-30T09:44:46Z</time>
      </trkpt>
      <trkpt lat="42.55553" lon="-0.60482">
        <time>2022-07-30T09:44:47Z</time>
      </trkpt>
      <trkpt lat="42.55559" lon="-0.60465">
        <time>2022-07-30T09:44:48Z</time>
      </trkpt>
      <trkpt lat="42.55564" lon="-0.60447">
        <time>2022-07-30T09:44:49Z</time>
      </trkpt>
      <trkpt lat="42.55569" lon="-0.60428">
        <time>2022-07-30T09:44:50Z</time>
      </trkpt>
      <trkpt lat="42.55576" lon="-0.60408">
        <time>2022-07-30T09:44:51Z</time>
      </trkpt>
      <trkpt lat="42.55582" lon="-0.60388">
        <time>2022-07-30T09:44:52Z</time>
      </trkpt>
      <trkpt lat="42.55588" lon="-0.60368">
        <time>2022-07-30T09:44:53Z</time>
      </trkpt>
      <trkpt lat="42.55593" lon="-0.60348">
        <time>2022-07-30T09:44:54Z</time>
      </trkpt>
      <trkpt lat="42.55599" lon="-0.60328">
        <time>2022-07-30T09:44:55Z</time>
      </trkpt>
      <trkpt lat="42.55605" lon="-0.60308">
        <time>2022-07-30T09:44:56Z</time>
      </trkpt>
      <trkpt lat="42.5561" lon="-0.60289">
        <time>2022-07-30T09:44:57Z</time>
      </trkpt>
      <trkpt lat="42.55615" lon="-0.60271">
        <time>2022-07-30T09:44:58Z</time>
      </trkpt>
      <trkpt lat="42.55622" lon="-0.60252">
        <time>2022-07-30T09:44:59Z</time>
      </trkpt>
      <trkpt lat="42.55629" lon="-0.60235">
        <time>2022-07-30T09:45:00Z</time>
      </trkpt>
      <trkpt lat="42.55638" lon="-0.60218">
        <time>2022-07-30T09:45:01Z</time>
      </trkpt>
      <trkpt lat="42.5565" lon="-0.60203">
        <time>2022-07-30T09:45:02Z</time>
      </trkpt>
      <trkpt lat="42.55663" lon="-0.60192">
        <time>2022-07-30T09:45:03Z</time>
      </trkpt>
      <trkpt lat="42.55677" lon="-0.60183">
        <time>2022-07-30T09:45:04Z</time>
      </trkpt>
      <trkpt lat="42.55689" lon="-0.60172">
        <time>2022-07-30T09:45:05Z</time>
      </trkpt>
      <trkpt lat="42.55701" lon="-0.60158">
        <time>2022-07-30T09:45:06Z</time>
      </trkpt>
      <trkpt lat="42.55711" lon="-0.60141">
        <time>2022-07-30T09:45:07Z</time>
      </trkpt>
      <trkpt lat="42.55719" lon="-0.60119">
        <time>2022-07-30T09:45:08Z</time>
      </trkpt>
      <trkpt lat="42.55726" lon="-0.60096">
        <time>2022-07-30T09:45:09Z</time>
      </trkpt>
      <trkpt lat="42.55733" lon="-0.6007">
        <time>2022-07-30T09:45:10Z</time>
      </trkpt>
      <trkpt lat="42.55739" lon="-0.60043">
        <time>2022-07-30T09:45:11Z</time>
      </trkpt>
      <trkpt lat="42.55746" lon="-0.60016">
        <time>2022-07-30T09:45:12Z</time>
      </trkpt>
      <trkpt lat="42.55752" lon="-0.59989">
        <time>2022-07-30T09:45:13Z</time>
      </trkpt>
      <trkpt lat="42.55759" lon="-0.59961">
        <time>2022-07-30T09:45:14Z</time>
      </trkpt>
      <trkpt lat="42.55766" lon="-0.59932">
        <time>2022-07-30T09:45:15Z</time>
      </trkpt>
      <trkpt lat="42.55772" lon="-0.59905">
        <time>2022-07-30T09:45:16Z</time>
      </trkpt>
      <trkpt lat="42.55779" lon="-0.59878">
        <time>2022-07-30T09:45:17Z</time>
      </trkpt>
      <trkpt lat="42.55786" lon="-0.59851">
        <time>2022-07-30T09:45:18Z</time>
      </trkpt>
      <trkpt lat="42.55792" lon="-0.59824">
        <time>2022-07-30T09:45:19Z</time>
      </trkpt>
      <trkpt lat="42.55798" lon="-0.59796">
        <time>2022-07-30T09:45:20Z</time>
      </trkpt>
      <trkpt lat="42.55805" lon="-0.59768">
        <time>2022-07-30T09:45:21Z</time>
      </trkpt>
      <trkpt lat="42.55812" lon="-0.5974">
        <time>2022-07-30T09:45:22Z</time>
      </trkpt>
      <trkpt lat="42.55818" lon="-0.59712">
        <time>2022-07-30T09:45:23Z</time>
      </trkpt>
      <trkpt lat="42.55825" lon="-0.59685">
        <time>2022-07-30T09:45:24Z</time>
      </trkpt>
      <trkpt lat="42.55831" lon="-0.59657">
        <time>2022-07-30T09:45:25Z</time>
      </trkpt>
      <trkpt lat="42.55837" lon="-0.5963">
        <time>2022-07-30T09:45:26Z</time>
      </trkpt>
      <trkpt lat="42.55843" lon="-0.59603">
        <time>2022-07-30T09:45:27Z</time>
      </trkpt>
      <trkpt lat="42.55849" lon="-0.59577">
        <time>2022-07-30T09:45:28Z</time>
      </trkpt>
      <trkpt lat="42.55855" lon="-0.59552">
        <time>2022-07-30T09:45:29Z</time>
      </trkpt>
      <trkpt lat="42.55861" lon="-0.59528">
        <time>2022-07-30T09:45:30Z</time>
      </trkpt>
      <trkpt lat="42.55867" lon="-0.59504">
        <time>2022-07-30T09:45:31Z</time>
      </trkpt>
      <trkpt lat="42.55872" lon="-0.59482">
        <time>2022-07-30T09:45:32Z</time>
      </trkpt>
      <trkpt lat="42.55877" lon="-0.5946">
        <time>2022-07-30T09:45:33Z</time>
      </trkpt>
      <trkpt lat="42.55881" lon="-0.59439">
        <time>2022-07-30T09:45:34Z</time>
      </trkpt>
      <trkpt lat="42.55886" lon="-0.59419">
        <time>2022-07-30T09:45:35Z</time>
      </trkpt>
      <trkpt lat="42.55891" lon="-0.594">
        <time>2022-07-30T09:45:36Z</time>
      </trkpt>
      <trkpt lat="42.55895" lon="-0.59381">
        <time>2022-07-30T09:45:37Z</time>
      </trkpt>
      <trkpt lat="42.55899" lon="-0.59363">
        <time>2022-07-30T09:45:38Z</time>
      </trkpt>
      <trkpt lat="42.55903" lon="-0.59347">
        <time>2022-07-30T09:45:39Z</time>
      </trkpt>
      <trkpt lat="42.55907" lon="-0.59332">
        <time>2022-07-30T09:45:40Z</time>
      </trkpt>
      <trkpt lat="42.55911" lon="-0.59318">
        <time>2022-07-30T09:45:41Z</time>
      </trkpt>
      <trkpt lat="42.55916" lon="-0.59306">
        <time>2022-07-30T09:45:42Z</time>
      </trkpt>
      <trkpt lat="42.55921" lon="-0.59295">
        <time>2022-07-30T09:45:43Z</time>
      </trkpt>
      <trkpt lat="42.55926" lon="-0.59284">
        <time>2022-07-30T09:45:44Z</time>
      </trkpt>
      <trkpt lat="42.5593" lon="-0.59273">
        <time>2022-07-30T09:45:45Z</time>
      </trkpt>
      <trkpt lat="42.55931" lon="-0.59263">
        <time>2022-07-30T09:45:46Z</time>
      </trkpt>
      <trkpt lat="42.55932" lon="-0.59252">
        <time>2022-07-30T09:45:47Z</time>
      </trkpt>
      <trkpt lat="42.55933" lon="-0.59242">
        <time>2022-07-30T09:45:48Z</time>
      </trkpt>
      <trkpt lat="42.55936" lon="-0.59232">
        <time>2022-07-30T09:45:49Z</time>
      </trkpt>
      <trkpt lat="42.55941" lon="-0.59226">
        <time>2022-07-30T09:45:50Z</time>
      </trkpt>
      <trkpt lat="42.55948" lon="-0.59224">
        <time>2022-07-30T09:45:51Z</time>
      </trkpt>
      <trkpt lat="42.55955" lon="-0.59227">
        <time>2022-07-30T09:45:52Z</time>
      </trkpt>
      <trkpt lat="42.5596" lon="-0.59234">
        <time>2022-07-30T09:45:53Z</time>
      </trkpt>
      <trkpt lat="42.55966" lon="-0.59244">
        <time>2022-07-30T09:45:54Z</time>
      </trkpt>
      <trkpt lat="42.55975" lon="-0.59253">
        <time>2022-07-30T09:45:55Z</time>
      </trkpt>
      <trkpt lat="42.55984" lon="-0.5926">
        <time>2022-07-30T09:45:56Z</time>
      </trkpt>
      <trkpt lat="42.55997" lon="-0.59268">
        <time>2022-07-30T09:45:57Z</time>
      </trkpt>
      <trkpt lat="42.56011" lon="-0.59276">
        <time>2022-07-30T09:45:58Z</time>
      </trkpt>
      <trkpt lat="42.56026" lon="-0.59285">
        <time>2022-07-30T09:45:59Z</time>
      </trkpt>
      <trkpt lat="42.56042" lon="-0.59294">
        <time>2022-07-30T09:46:00Z</time>
      </trkpt>
      <trkpt lat="42.56059" lon="-0.59304">
        <time>2022-07-30T09:46:01Z</time>
      </trkpt>
      <trkpt lat="42.56077" lon="-0.59314">
        <time>2022-07-30T09:46:02Z</time>
      </trkpt>
      <trkpt lat="42.56096" lon="-0.59325">
        <time>2022-07-30T09:46:03Z</time>
      </trkpt>
      <trkpt lat="42.56116" lon="-0.59337">
        <time>2022-07-30T09:46:04Z</time>
      </trkpt>
      <trkpt lat="42.56137" lon="-0.59349">
        <time>2022-07-30T09:46:05Z</time>
      </trkpt>
      <trkpt lat="42.56157" lon="-0.59361">
        <time>2022-07-30T09:46:06Z</time>
      </trkpt>
      <trkpt lat="42.56178" lon="-0.59373">
        <time>2022-07-30T09:46:07Z</time>
      </trkpt>
      <trkpt lat="42.56199" lon="-0.59385">
        <time>2022-07-30T09:46:08Z</time>
      </trkpt>
      <trkpt lat="42.5622" lon="-0.59398">
        <time>2022-07-30T09:46:09Z</time>
      </trkpt>
      <trkpt lat="42.56241" lon="-0.5941">
        <time>2022-07-30T09:46:10Z</time>
      </trkpt>
      <trkpt lat="42.56262" lon="-0.59421">
        <time>2022-07-30T09:46:11Z</time>
      </trkpt>
      <trkpt lat="42.56282" lon="-0.59433">
        <time>2022-07-30T09:46:12Z</time>
      </trkpt>
      <trkpt lat="42.56302" lon="-0.59445">
        <time>2022-07-30T09:46:13Z</time>
      </trkpt>
      <trkpt lat="42.5632" lon="-0.59459">
        <time>2022-07-30T09:46:14Z</time>
      </trkpt>
      <trkpt lat="42.56338" lon="-0.59475">
        <time>2022-07-30T09:46:15Z</time>
      </trkpt>
      <trkpt lat="42.56353" lon="-0.59494">
        <time>2022-07-30T09:46:16Z</time>
      </trkpt>
      <trkpt lat="42.56366" lon="-0.59516">
        <time>2022-07-30T09:46:17Z</time>
      </trkpt>
      <trkpt lat="42.56377" lon="-0.5954">
        <time>2022-07-30T09:46:18Z</time>
      </trkpt>
      <trkpt lat="42.56385" lon="-0.59566">
        <time>2022-07-30T09:46:19Z</time>
      </trkpt>
      <trkpt lat="42.5639" lon="-0.59595">
        <time>2022-07-30T09:46:20Z</time>
      </trkpt>
      <trkpt lat="42.56392" lon="-0.59626">
        <time>2022-07-30T09:46:21Z</time>
      </trkpt>
      <trkpt lat="42.56393" lon="-0.59658">
        <time>2022-07-30T09:46:22Z</time>
      </trkpt>
      <trkpt lat="42.56394" lon="-0.5969">
        <time>2022-07-30T09:46:23Z</time>
      </trkpt>
      <trkpt lat="42.56393" lon="-0.59722">
        <time>2022-07-30T09:46:24Z</time>
      </trkpt>
      <trkpt lat="42.56391" lon="-0.59754">
        <time>2022-07-30T09:46:25Z</time>
      </trkpt>
      <trkpt lat="42.56388" lon="-0.59786">
        <time>2022-07-30T09:46:26Z</time>
      </trkpt>
      <trkpt lat="42.56385" lon="-0.59818">
        <time>2022-07-30T09:46:27Z</time>
      </trkpt>
      <trkpt lat="42.56381" lon="-0.59849">
        <time>2022-07-30T09:46:28Z</time>
      </trkpt>
      <trkpt lat="42.56377" lon="-0.59878">
        <time>2022-07-30T09:46:29Z</time>
      </trkpt>
      <trkpt lat="42.56372" lon="-0.59906">
        <time>2022-07-30T09:46:30Z</time>
      </trkpt>
      <trkpt lat="42.56367" lon="-0.59933">
        <time>2022-07-30T09:46:31Z</time>
      </trkpt>
      <trkpt lat="42.56362" lon="-0.59957">
        <time>2022-07-30T09:46:32Z</time>
      </trkpt>
      <trkpt lat="42.56358" lon="-0.59979">
        <time>2022-07-30T09:46:33Z</time>
      </trkpt>
      <trkpt lat="42.56356" lon="-0.59999">
        <time>2022-07-30T09:46:34Z</time>
      </trkpt>
      <trkpt lat="42.56355" lon="-0.60019">
        <time>2022-07-30T09:46:35Z</time>
      </trkpt>
      <trkpt lat="42.56356" lon="-0.60036">
        <time>2022-07-30T09:46:36Z</time>
      </trkpt>
      <trkpt lat="42.5636" lon="-0.6005">
        <time>2022-07-30T09:46:37Z</time>
      </trkpt>
      <trkpt lat="42.56365" lon="-0.60061">
        <time>2022-07-30T09:46:38Z</time>
      </trkpt>
      <trkpt lat="42.56371" lon="-0.6007">
        <time>2022-07-30T09:46:39Z</time>
      </trkpt>
      <trkpt lat="42.56377" lon="-0.60075">
        <time>2022-07-30T09:46:40Z</time>
      </trkpt>
      <trkpt lat="42.56385" lon="-0.60077">
        <time>2022-07-30T09:46:41Z</time>
      </trkpt>
      <trkpt lat="42.56394" lon="-0.6008">
        <time>2022-07-30T09:46:42Z</time>
      </trkpt>
      <trkpt lat="42.56402" lon="-0.60086">
        <time>2022-07-30T09:46:43Z</time>
      </trkpt>
      <trkpt lat="42.56409" lon="-0.60094">
        <time>2022-07-30T09:46:44Z</time>
      </trkpt>
      <trkpt lat="42.56416" lon="-0.60103">
        <time>2022-07-30T09:46:45Z</time>
      </trkpt>
      <trkpt lat="42.56424" lon="-0.60111">
        <time>2022-07-30T09:46:46Z</time>
      </trkpt>
      <trkpt lat="42.56432" lon="-0.60117">
        <time>2022-07-30T09:46:47Z</time>
      </trkpt>
      <trkpt lat="42.5644" lon="-0.60124">
        <time>2022-07-30T09:46:48Z</time>
      </trkpt>
      <trkpt lat="42.56448" lon="-0.6013">
        <time>2022-07-30T09:46:49Z</time>
      </trkpt>
      <trkpt lat="42.56467" lon="-0.60135">
        <time>2022-07-30T09:46:52Z</time>
      </trkpt>
      <trkpt lat="42.56474" lon="-0.60131">
        <time>2022-07-30T09:46:53Z</time>
      </trkpt>
      <trkpt lat="42.5648" lon="-0.60126">
        <time>2022-07-30T09:46:54Z</time>
      </trkpt>
      <trkpt lat="42.56488" lon="-0.60123">
        <time>2022-07-30T09:46:55Z</time>
      </trkpt>
      <trkpt lat="42.56495" lon="-0.60125">
        <time>2022-07-30T09:46:56Z</time>
      </trkpt>
      <trkpt lat="42.565" lon="-0.60129">
        <time>2022-07-30T09:46:57Z</time>
      </trkpt>
      <trkpt lat="42.56505" lon="-0.60136">
        <time>2022-07-30T09:46:58Z</time>
      </trkpt>
      <trkpt lat="42.56507" lon="-0.60145">
        <time>2022-07-30T09:46:59Z</time>
      </trkpt>
      <trkpt lat="42.56506" lon="-0.60154">
        <time>2022-07-30T09:47:00Z</time>
      </trkpt>
      <trkpt lat="42.56502" lon="-0.60164">
        <time>2022-07-30T09:47:01Z</time>
      </trkpt>
      <trkpt lat="42.56496" lon="-0.60172">
        <time>2022-07-30T09:47:02Z</time>
      </trkpt>
      <trkpt lat="42.56488" lon="-0.60181">
        <time>2022-07-30T09:47:03Z</time>
      </trkpt>
      <trkpt lat="42.56479" lon="-0.60193">
        <time>2022-07-30T09:47:04Z</time>
      </trkpt>
      <trkpt lat="42.56471" lon="-0.60207">
        <time>2022-07-30T09:47:05Z</time>
      </trkpt>
      <trkpt lat="42.56464" lon="-0.60221">
        <time>2022-07-30T09:47:06Z</time>
      </trkpt>
      <trkpt lat="42.56455" lon="-0.60237">
        <time>2022-07-30T09:47:07Z</time>
      </trkpt>
      <trkpt lat="42.56447" lon="-0.60254">
        <time>2022-07-30T09:47:08Z</time>
      </trkpt>
      <trkpt lat="42.56439" lon="-0.60271">
        <time>2022-07-30T09:47:09Z</time>
      </trkpt>
      <trkpt lat="42.5643" lon="-0.60289">
        <time>2022-07-30T09:47:10Z</time>
      </trkpt>
      <trkpt lat="42.56422" lon="-0.60307">
        <time>2022-07-30T09:47:11Z</time>
      </trkpt>
      <trkpt lat="42.56414" lon="-0.60326">
        <time>2022-07-30T09:47:12Z</time>
      </trkpt>
      <trkpt lat="42.56406" lon="-0.60344">
        <time>2022-07-30T09:47:13Z</time>
      </trkpt>
      <trkpt lat="42.56398" lon="-0.60365">
        <time>2022-07-30T09:47:14Z</time>
      </trkpt>
      <trkpt lat="42.56391" lon="-0.60388">
        <time>2022-07-30T09:47:15Z</time>
      </trkpt>
      <trkpt lat="42.56385" lon="-0.60411">
        <time>2022-07-30T09:47:16Z</time>
      </trkpt>
      <trkpt lat="42.56378" lon="-0.60436">
        <time>2022-07-30T09:47:17Z</time>
      </trkpt>
      <trkpt lat="42.56371" lon="-0.60464">
        <time>2022-07-30T09:47:18Z</time>
      </trkpt>
      <trkpt lat="42.56365" lon="-0.60494">
        <time>2022-07-30T09:47:19Z</time>
      </trkpt>
      <trkpt lat="42.56359" lon="-0.60525">
        <time>2022-07-30T09:47:20Z</time>
      </trkpt>
      <trkpt lat="42.56352" lon="-0.60556">
        <time>2022-07-30T09:47:21Z</time>
      </trkpt>
      <trkpt lat="42.56346" lon="-0.6059">
        <time>2022-07-30T09:47:22Z</time>
      </trkpt>
      <trkpt lat="42.56341" lon="-0.60624">
        <time>2022-07-30T09:47:23Z</time>
      </trkpt>
      <trkpt lat="42.56335" lon="-0.60658">
        <time>2022-07-30T09:47:24Z</time>
      </trkpt>
      <trkpt lat="42.56329" lon="-0.60694">
        <time>2022-07-30T09:47:25Z</time>
      </trkpt>
      <trkpt lat="42.56323" lon="-0.60732">
        <time>2022-07-30T09:47:26Z</time>
      </trkpt>
      <trkpt lat="42.56317" lon="-0.60771">
        <time>2022-07-30T09:47:27Z</time>
      </trkpt>
      <trkpt lat="42.56311" lon="-0.60811">
        <time>2022-07-30T09:47:28Z</time>
      </trkpt>
      <trkpt lat="42.56305" lon="-0.60852">
        <time>2022-07-30T09:47:29Z</time>
      </trkpt>
      <trkpt lat="42.563" lon="-0.60894">
        <time>2022-07-30T09:47:30Z</time>
      </trkpt>
      <trkpt lat="42.56296" lon="-0.60938">
        <time>2022-07-30T09:47:31Z</time>
      </trkpt>
      <trkpt lat="42.56292" lon="-0.60982">
        <time>2022-07-30T09:47:32Z</time>
      </trkpt>
      <trkpt lat="42.56289" lon="-0.61026">
        <time>2022-07-30T09:47:33Z</time>
      </trkpt>
      <trkpt lat="42.56286" lon="-0.61071">
        <time>2022-07-30T09:47:34Z</time>
      </trkpt>
      <trkpt lat="42.56284" lon="-0.61116">
        <time>2022-07-30T09:47:35Z</time>
      </trkpt>
      <trkpt lat="42.56282" lon="-0.61162">
        <time>2022-07-30T09:47:36Z</time>
      </trkpt>
      <trkpt lat="42.5628" lon="-0.61209">
        <time>2022-07-30T09:47:37Z</time>
      </trkpt>
      <trkpt lat="42.56279" lon="-0.61256">
        <time>2022-07-30T09:47:38Z</time>
      </trkpt>
      <trkpt lat="42.56279" lon="-0.61303">
        <time>2022-07-30T09:47:39Z</time>
      </trkpt>
      <trkpt lat="42.5628" lon="-0.61351">
        <time>2022-07-30T09:47:40Z</time>
      </trkpt>
      <trkpt lat="42.56281" lon="-0.61399">
        <time>2022-07-30T09:47:41Z</time>
      </trkpt>
      <trkpt lat="42.56282" lon="-0.61448">
        <time>2022-07-30T09:47:42Z</time>
      </trkpt>
      <trkpt lat="42.56284" lon="-0.61496">
        <time>2022-07-30T09:47:43Z</time>
      </trkpt>
      <trkpt lat="42.56287" lon="-0.61545">
        <time>2022-07-30T09:47:44Z</time>
      </trkpt>
      <trkpt lat="42.5629" lon="-0.61593">
        <time>2022-07-30T09:47:45Z</time>
      </trkpt>
      <trkpt lat="42.56294" lon="-0.61641">
        <time>2022-07-30T09:47:46Z</time>
      </trkpt>
      <trkpt lat="42.56299" lon="-0.6169">
        <time>2022-07-30T09:47:47Z</time>
      </trkpt>
      <trkpt lat="42.56303" lon="-0.61738">
        <time>2022-07-30T09:47:48Z</time>
      </trkpt>
      <trkpt lat="42.56309" lon="-0.61786">
        <time>2022-07-30T09:47:49Z</time>
      </trkpt>
      <trkpt lat="42.56315" lon="-0.61834">
        <time>2022-07-30T09:47:50Z</time>
      </trkpt>
      <trkpt lat="42.56321" lon="-0.61882">
        <time>2022-07-30T09:47:51Z</time>
      </trkpt>
      <trkpt lat="42.56328" lon="-0.6193">
        <time>2022-07-30T09:47:52Z</time>
      </trkpt>
      <trkpt lat="42.56335" lon="-0.61977">
        <time>2022-07-30T09:47:53Z</time>
      </trkpt>
      <trkpt lat="42.56342" lon="-0.62025">
        <time>2022-07-30T09:47:54Z</time>
      </trkpt>
      <trkpt lat="42.56349" lon="-0.62074">
        <time>2022-07-30T09:47:55Z</time>
      </trkpt>
      <trkpt lat="42.56356" lon="-0.62122">
        <time>2022-07-30T09:47:56Z</time>
      </trkpt>
      <trkpt lat="42.56364" lon="-0.62172">
        <time>2022-07-30T09:47:57Z</time>
      </trkpt>
      <trkpt lat="42.5637" lon="-0.62221">
        <time>2022-07-30T09:47:58Z</time>
      </trkpt>
      <trkpt lat="42.56377" lon="-0.6227">
        <time>2022-07-30T09:47:59Z</time>
      </trkpt>
      <trkpt lat="42.56384" lon="-0.62319">
        <time>2022-07-30T09:48:00Z</time>
      </trkpt>
      <trkpt lat="42.5639" lon="-0.62369">
        <time>2022-07-30T09:48:01Z</time>
      </trkpt>
      <trkpt lat="42.56396" lon="-0.62419">
        <time>2022-07-30T09:48:02Z</time>
      </trkpt>
      <trkpt lat="42.56401" lon="-0.62469">
        <time>2022-07-30T09:48:03Z</time>
      </trkpt>
      <trkpt lat="42.56406" lon="-0.62519">
        <time>2022-07-30T09:48:04Z</time>
      </trkpt>
      <trkpt lat="42.5641" lon="-0.62569">
        <time>2022-07-30T09:48:05Z</time>
      </trkpt>
      <trkpt lat="42.56413" lon="-0.6262">
        <time>2022-07-30T09:48:06Z</time>
      </trkpt>
      <trkpt lat="42.56416" lon="-0.6267">
        <time>2022-07-30T09:48:07Z</time>
      </trkpt>
      <trkpt lat="42.56419" lon="-0.62719">
        <time>2022-07-30T09:48:08Z</time>
      </trkpt>
      <trkpt lat="42.5642" lon="-0.62769">
        <time>2022-07-30T09:48:09Z</time>
      </trkpt>
      <trkpt lat="42.56421" lon="-0.62818">
        <time>2022-07-30T09:48:10Z</time>
      </trkpt>
      <trkpt lat="42.56422" lon="-0.62867">
        <time>2022-07-30T09:48:11Z</time>
      </trkpt>
      <trkpt lat="42.56421" lon="-0.62916">
        <time>2022-07-30T09:48:12Z</time>
      </trkpt>
      <trkpt lat="42.56421" lon="-0.62965">
        <time>2022-07-30T09:48:13Z</time>
      </trkpt>
      <trkpt lat="42.56421" lon="-0.63014">
        <time>2022-07-30T09:48:14Z</time>
      </trkpt>
      <trkpt lat="42.56419" lon="-0.63063">
        <time>2022-07-30T09:48:15Z</time>
      </trkpt>
      <trkpt lat="42.56418" lon="-0.63112">
        <time>2022-07-30T09:48:16Z</time>
      </trkpt>
      <trkpt lat="42.56415" lon="-0.6316">
        <time>2022-07-30T09:48:17Z</time>
      </trkpt>
      <trkpt lat="42.56413" lon="-0.63209">
        <time>2022-07-30T09:48:18Z</time>
      </trkpt>
      <trkpt lat="42.56409" lon="-0.63257">
        <time>2022-07-30T09:48:19Z</time>
      </trkpt>
      <trkpt lat="42.56405" lon="-0.63305">
        <time>2022-07-30T09:48:20Z</time>
      </trkpt>
      <trkpt lat="42.56401" lon="-0.63352">
        <time>2022-07-30T09:48:21Z</time>
      </trkpt>
      <trkpt lat="42.56397" lon="-0.63399">
        <time>2022-07-30T09:48:22Z</time>
      </trkpt>
      <trkpt lat="42.56393" lon="-0.63447">
        <time>2022-07-30T09:48:23Z</time>
      </trkpt>
      <trkpt lat="42.56389" lon="-0.63494">
        <time>2022-07-30T09:48:24Z</time>
      </trkpt>
      <trkpt lat="42.56385" lon="-0.63541">
        <time>2022-07-30T09:48:25Z</time>
      </trkpt>
      <trkpt lat="42.56381" lon="-0.63588">
        <time>2022-07-30T09:48:26Z</time>
      </trkpt>
      <trkpt lat="42.56377" lon="-0.63634">
        <time>2022-07-30T09:48:27Z</time>
      </trkpt>
      <trkpt lat="42.56373" lon="-0.6368">
        <time>2022-07-30T09:48:28Z</time>
      </trkpt>
      <trkpt lat="42.56369" lon="-0.63726">
        <time>2022-07-30T09:48:29Z</time>
      </trkpt>
      <trkpt lat="42.56365" lon="-0.63772">
        <time>2022-07-30T09:48:30Z</time>
      </trkpt>
      <trkpt lat="42.56361" lon="-0.63818">
        <time>2022-07-30T09:48:31Z</time>
      </trkpt>
      <trkpt lat="42.56357" lon="-0.63863">
        <time>2022-07-30T09:48:32Z</time>
      </trkpt>
      <trkpt lat="42.56353" lon="-0.63908">
        <time>2022-07-30T09:48:33Z</time>
      </trkpt>
      <trkpt lat="42.5635" lon="-0.63952">
        <time>2022-07-30T09:48:34Z</time>
      </trkpt>
      <trkpt lat="42.56346" lon="-0.63996">
        <time>2022-07-30T09:48:35Z</time>
      </trkpt>
      <trkpt lat="42.56341" lon="-0.6404">
        <time>2022-07-30T09:48:36Z</time>
      </trkpt>
      <trkpt lat="42.56337" lon="-0.64084">
        <time>2022-07-30T09:48:37Z</time>
      </trkpt>
      <trkpt lat="42.56333" lon="-0.64127">
        <time>2022-07-30T09:48:38Z</time>
      </trkpt>
      <trkpt lat="42.56328" lon="-0.6417">
        <time>2022-07-30T09:48:39Z</time>
      </trkpt>
      <trkpt lat="42.56324" lon="-0.64213">
        <time>2022-07-30T09:48:40Z</time>
      </trkpt>
      <trkpt lat="42.56319" lon="-0.64255">
        <time>2022-07-30T09:48:41Z</time>
      </trkpt>
      <trkpt lat="42.56314" lon="-0.64297">
        <time>2022-07-30T09:48:42Z</time>
      </trkpt>
      <trkpt lat="42.56309" lon="-0.64339">
        <time>2022-07-30T09:48:43Z</time>
      </trkpt>
      <trkpt lat="42.56303" lon="-0.64382">
        <time>2022-07-30T09:48:44Z</time>
      </trkpt>
      <trkpt lat="42.56297" lon="-0.64424">
        <time>2022-07-30T09:48:45Z</time>
      </trkpt>
      <trkpt lat="42.56292" lon="-0.64466">
        <time>2022-07-30T09:48:46Z</time>
      </trkpt>
      <trkpt lat="42.56285" lon="-0.64508">
        <time>2022-07-30T09:48:47Z</time>
      </trkpt>
      <trkpt lat="42.56279" lon="-0.64549">
        <time>2022-07-30T09:48:48Z</time>
      </trkpt>
      <trkpt lat="42.56272" lon="-0.64591">
        <time>2022-07-30T09:48:49Z</time>
      </trkpt>
      <trkpt lat="42.56265" lon="-0.64633">
        <time>2022-07-30T09:48:50Z</time>
      </trkpt>
      <trkpt lat="42.56258" lon="-0.64675">
        <time>2022-07-30T09:48:51Z</time>
      </trkpt>
      <trkpt lat="42.56251" lon="-0.64717">
        <time>2022-07-30T09:48:52Z</time>
      </trkpt>
      <trkpt lat="42.56245" lon="-0.64759">
        <time>2022-07-30T09:48:53Z</time>
      </trkpt>
      <trkpt lat="42.56238" lon="-0.64801">
        <time>2022-07-30T09:48:54Z</time>
      </trkpt>
      <trkpt lat="42.56232" lon="-0.64844">
        <time>2022-07-30T09:48:55Z</time>
      </trkpt>
      <trkpt lat="42.56226" lon="-0.64887">
        <time>2022-07-30T09:48:56Z</time>
      </trkpt>
      <trkpt lat="42.5622" lon="-0.64929">
        <time>2022-07-30T09:48:57Z</time>
      </trkpt>
      <trkpt lat="42.56215" lon="-0.64972">
        <time>2022-07-30T09:48:58Z</time>
      </trkpt>
      <trkpt lat="42.56209" lon="-0.65015">
        <time>2022-07-30T09:48:59Z</time>
      </trkpt>
      <trkpt lat="42.56204" lon="-0.65058">
        <time>2022-07-30T09:49:00Z</time>
      </trkpt>
      <trkpt lat="42.56199" lon="-0.651">
        <time>2022-07-30T09:49:01Z</time>
      </trkpt>
      <trkpt lat="42.56194" lon="-0.65144">
        <time>2022-07-30T09:49:02Z</time>
      </trkpt>
      <trkpt lat="42.56189" lon="-0.65187">
        <time>2022-07-30T09:49:03Z</time>
      </trkpt>
      <trkpt lat="42.56184" lon="-0.6523">
        <time>2022-07-30T09:49:04Z</time>
      </trkpt>
      <trkpt lat="42.5618" lon="-0.65273">
        <time>2022-07-30T09:49:05Z</time>
      </trkpt>
      <trkpt lat="42.56176" lon="-0.65317">
        <time>2022-07-30T09:49:06Z</time>
      </trkpt>
      <trkpt lat="42.56173" lon="-0.6536">
        <time>2022-07-30T09:49:07Z</time>
      </trkpt>
      <trkpt lat="42.56169" lon="-0.65403">
        <time>2022-07-30T09:49:08Z</time>
      </trkpt>
      <trkpt lat="42.56166" lon="-0.65447">
        <time>2022-07-30T09:49:09Z</time>
      </trkpt>
      <trkpt lat="42.56163" lon="-0.6549">
        <time>2022-07-30T09:49:10Z</time>
      </trkpt>
      <trkpt lat="42.5616" lon="-0.65534">
        <time>2022-07-30T09:49:11Z</time>
      </trkpt>
      <trkpt lat="42.56157" lon="-0.65577">
        <time>2022-07-30T09:49:12Z</time>
      </trkpt>
      <trkpt lat="42.56155" lon="-0.6562">
        <time>2022-07-30T09:49:13Z</time>
      </trkpt>
      <trkpt lat="42.56154" lon="-0.65663">
        <time>2022-07-30T09:49:14Z</time>
      </trkpt>
      <trkpt lat="42.56152" lon="-0.65707">
        <time>2022-07-30T09:49:15Z</time>
      </trkpt>
      <trkpt lat="42.5615" lon="-0.6575">
        <time>2022-07-30T09:49:16Z</time>
      </trkpt>
      <trkpt lat="42.56149" lon="-0.65794">
        <time>2022-07-30T09:49:17Z</time>
      </trkpt>
      <trkpt lat="42.56148" lon="-0.65838">
        <time>2022-07-30T09:49:18Z</time>
      </trkpt>
      <trkpt lat="42.56147" lon="-0.65883">
        <time>2022-07-30T09:49:19Z</time>
      </trkpt>
      <trkpt lat="42.56147" lon="-0.65928">
        <time>2022-07-30T09:49:20Z</time>
      </trkpt>
      <trkpt lat="42.56146" lon="-0.65973">
        <time>2022-07-30T09:49:21Z</time>
      </trkpt>
      <trkpt lat="42.56146" lon="-0.66018">
        <time>2022-07-30T09:49:22Z</time>
      </trkpt>
      <trkpt lat="42.56146" lon="-0.66065">
        <time>2022-07-30T09:49:23Z</time>
      </trkpt>
      <trkpt lat="42.56146" lon="-0.6611">
        <time>2022-07-30T09:49:24Z</time>
      </trkpt>
      <trkpt lat="42.56147" lon="-0.66157">
        <time>2022-07-30T09:49:25Z</time>
      </trkpt>
      <trkpt lat="42.56148" lon="-0.66203">
        <time>2022-07-30T09:49:26Z</time>
      </trkpt>
      <trkpt lat="42.56148" lon="-0.66249">
        <time>2022-07-30T09:49:27Z</time>
      </trkpt>
      <trkpt lat="42.5615" lon="-0.66296">
        <time>2022-07-30T09:49:28Z</time>
      </trkpt>
      <trkpt lat="42.56151" lon="-0.66342">
        <time>2022-07-30T09:49:29Z</time>
      </trkpt>
      <trkpt lat="42.56153" lon="-0.66388">
        <time>2022-07-30T09:49:30Z</time>
      </trkpt>
      <trkpt lat="42.56155" lon="-0.66434">
        <time>2022-07-30T09:49:31Z</time>
      </trkpt>
      <trkpt lat="42.56157" lon="-0.6648">
        <time>2022-07-30T09:49:32Z</time>
      </trkpt>
      <trkpt lat="42.5616" lon="-0.66526">
        <time>2022-07-30T09:49:33Z</time>
      </trkpt>
      <trkpt lat="42.56163" lon="-0.66572">
        <time>2022-07-30T09:49:34Z</time>
      </trkpt>
      <trkpt lat="42.56165" lon="-0.66618">
        <time>2022-07-30T09:49:35Z</time>
      </trkpt>
      <trkpt lat="42.56169" lon="-0.66664">
        <time>2022-07-30T09:49:36Z</time>
      </trkpt>
      <trkpt lat="42.56172" lon="-0.6671">
        <time>2022-07-30T09:49:37Z</time>
      </trkpt>
      <trkpt lat="42.56176" lon="-0.66755">
        <time>2022-07-30T09:49:38Z</time>
      </trkpt>
      <trkpt lat="42.56181" lon="-0.66801">
        <time>2022-07-30T09:49:39Z</time>
      </trkpt>
      <trkpt lat="42.56186" lon="-0.66847">
        <time>2022-07-30T09:49:40Z</time>
      </trkpt>
      <trkpt lat="42.56191" lon="-0.66892">
        <time>2022-07-30T09:49:41Z</time>
      </trkpt>
      <trkpt lat="42.56195" lon="-0.66937">
        <time>2022-07-30T09:49:42Z</time>
      </trkpt>
      <trkpt lat="42.56201" lon="-0.66983">
        <time>2022-07-30T09:49:43Z</time>
      </trkpt>
      <trkpt lat="42.56206" lon="-0.67028">
        <time>2022-07-30T09:49:44Z</time>
      </trkpt>
      <trkpt lat="42.56212" lon="-0.67074">
        <time>2022-07-30T09:49:45Z</time>
      </trkpt>
      <trkpt lat="42.56218" lon="-0.6712">
        <time>2022-07-30T09:49:46Z</time>
      </trkpt>
      <trkpt lat="42.56224" lon="-0.67165">
        <time>2022-07-30T09:49:47Z</time>
      </trkpt>
      <trkpt lat="42.5623" lon="-0.67211">
        <time>2022-07-30T09:49:48Z</time>
      </trkpt>
      <trkpt lat="42.56237" lon="-0.67256">
        <time>2022-07-30T09:49:49Z</time>
      </trkpt>
      <trkpt lat="42.56245" lon="-0.67302">
        <time>2022-07-30T09:49:50Z</time>
      </trkpt>
      <trkpt lat="42.56252" lon="-0.67347">
        <time>2022-07-30T09:49:51Z</time>
      </trkpt>
      <trkpt lat="42.56259" lon="-0.67392">
        <time>2022-07-30T09:49:52Z</time>
      </trkpt>
      <trkpt lat="42.56267" lon="-0.67436">
        <time>2022-07-30T09:49:53Z</time>
      </trkpt>
      <trkpt lat="42.56275" lon="-0.67481">
        <time>2022-07-30T09:49:54Z</time>
      </trkpt>
      <trkpt lat="42.56283" lon="-0.67525">
        <time>2022-07-30T09:49:55Z</time>
      </trkpt>
      <trkpt lat="42.56291" lon="-0.67569">
        <time>2022-07-30T09:49:56Z</time>
      </trkpt>
      <trkpt lat="42.56299" lon="-0.67613">
        <time>2022-07-30T09:49:57Z</time>
      </trkpt>
      <trkpt lat="42.56308" lon="-0.67657">
        <time>2022-07-30T09:49:58Z</time>
      </trkpt>
      <trkpt lat="42.56316" lon="-0.677">
        <time>2022-07-30T09:49:59Z</time>
      </trkpt>
      <trkpt lat="42.56324" lon="-0.67744">
        <time>2022-07-30T09:50:00Z</time>
      </trkpt>
      <trkpt lat="42.56331" lon="-0.67787">
        <time>2022-07-30T09:50:01Z</time>
      </trkpt>
      <trkpt lat="42.56338" lon="-0.67831">
        <time>2022-07-30T09:50:02Z</time>
      </trkpt>
      <trkpt lat="42.56344" lon="-0.67875">
        <time>2022-07-30T09:50:03Z</time>
      </trkpt>
      <trkpt lat="42.5635" lon="-0.67919">
        <time>2022-07-30T09:50:04Z</time>
      </trkpt>
      <trkpt lat="42.56355" lon="-0.67964">
        <time>2022-07-30T09:50:05Z</time>
      </trkpt>
      <trkpt lat="42.5636" lon="-0.68008">
        <time>2022-07-30T09:50:06Z</time>
      </trkpt>
      <trkpt lat="42.56364" lon="-0.68053">
        <time>2022-07-30T09:50:07Z</time>
      </trkpt>
      <trkpt lat="42.56367" lon="-0.68098">
        <time>2022-07-30T09:50:08Z</time>
      </trkpt>
      <trkpt lat="42.5637" lon="-0.68144">
        <time>2022-07-30T09:50:09Z</time>
      </trkpt>
      <trkpt lat="42.56372" lon="-0.6819">
        <time>2022-07-30T09:50:10Z</time>
      </trkpt>
      <trkpt lat="42.56374" lon="-0.68235">
        <time>2022-07-30T09:50:11Z</time>
      </trkpt>
      <trkpt lat="42.56375" lon="-0.6828">
        <time>2022-07-30T09:50:12Z</time>
      </trkpt>
      <trkpt lat="42.56375" lon="-0.68326">
        <time>2022-07-30T09:50:13Z</time>
      </trkpt>
      <trkpt lat="42.56375" lon="-0.68372">
        <time>2022-07-30T09:50:14Z</time>
      </trkpt>
      <trkpt lat="42.56374" lon="-0.68417">
        <time>2022-07-30T09:50:15Z</time>
      </trkpt>
      <trkpt lat="42.56373" lon="-0.68462">
        <time>2022-07-30T09:50:16Z</time>
      </trkpt>
      <trkpt lat="42.56372" lon="-0.68507">
        <time>2022-07-30T09:50:17Z</time>
      </trkpt>
      <trkpt lat="42.56371" lon="-0.68551">
        <time>2022-07-30T09:50:18Z</time>
      </trkpt>
      <trkpt lat="42.5637" lon="-0.68596">
        <time>2022-07-30T09:50:19Z</time>
      </trkpt>
      <trkpt lat="42.56368" lon="-0.6864">
        <time>2022-07-30T09:50:20Z</time>
      </trkpt>
      <trkpt lat="42.56367" lon="-0.68685">
        <time>2022-07-30T09:50:21Z</time>
      </trkpt>
      <trkpt lat="42.56366" lon="-0.68729">
        <time>2022-07-30T09:50:22Z</time>
      </trkpt>
      <trkpt lat="42.56365" lon="-0.68774">
        <time>2022-07-30T09:50:23Z</time>
      </trkpt>
      <trkpt lat="42.56364" lon="-0.68819">
        <time>2022-07-30T09:50:24Z</time>
      </trkpt>
      <trkpt lat="42.56363" lon="-0.68864">
        <time>2022-07-30T09:50:25Z</time>
      </trkpt>
      <trkpt lat="42.56364" lon="-0.68909">
        <time>2022-07-30T09:50:26Z</time>
      </trkpt>
      <trkpt lat="42.56365" lon="-0.68954">
        <time>2022-07-30T09:50:27Z</time>
      </trkpt>
      <trkpt lat="42.56366" lon="-0.68998">
        <time>2022-07-30T09:50:28Z</time>
      </trkpt>
      <trkpt lat="42.56367" lon="-0.69043">
        <time>2022-07-30T09:50:29Z</time>
      </trkpt>
      <trkpt lat="42.5637" lon="-0.69088">
        <time>2022-07-30T09:50:30Z</time>
      </trkpt>
      <trkpt lat="42.56373" lon="-0.69132">
        <time>2022-07-30T09:50:31Z</time>
      </trkpt>
      <trkpt lat="42.56376" lon="-0.69177">
        <time>2022-07-30T09:50:32Z</time>
      </trkpt>
      <trkpt lat="42.56381" lon="-0.69221">
        <time>2022-07-30T09:50:33Z</time>
      </trkpt>
      <trkpt lat="42.56386" lon="-0.69265">
        <time>2022-07-30T09:50:34Z</time>
      </trkpt>
      <trkpt lat="42.56391" lon="-0.69309">
        <time>2022-07-30T09:50:35Z</time>
      </trkpt>
      <trkpt lat="42.56397" lon="-0.69353">
        <time>2022-07-30T09:50:36Z</time>
      </trkpt>
      <trkpt lat="42.56403" lon="-0.69397">
        <time>2022-07-30T09:50:37Z</time>
      </trkpt>
      <trkpt lat="42.56409" lon="-0.69441">
        <time>2022-07-30T09:50:38Z</time>
      </trkpt>
      <trkpt lat="42.56416" lon="-0.69485">
        <time>2022-07-30T09:50:39Z</time>
      </trkpt>
      <trkpt lat="42.56422" lon="-0.69529">
        <time>2022-07-30T09:50:40Z</time>
      </trkpt>
      <trkpt lat="42.56429" lon="-0.69573">
        <time>2022-07-30T09:50:41Z</time>
      </trkpt>
      <trkpt lat="42.56435" lon="-0.69616">
        <time>2022-07-30T09:50:42Z</time>
      </trkpt>
      <trkpt lat="42.56442" lon="-0.6966">
        <time>2022-07-30T09:50:43Z</time>
      </trkpt>
      <trkpt lat="42.56448" lon="-0.69704">
        <time>2022-07-30T09:50:44Z</time>
      </trkpt>
      <trkpt lat="42.56453" lon="-0.69748">
        <time>2022-07-30T09:50:45Z</time>
      </trkpt>
      <trkpt lat="42.56459" lon="-0.69792">
        <time>2022-07-30T09:50:46Z</time>
      </trkpt>
      <trkpt lat="42.56464" lon="-0.69836">
        <time>2022-07-30T09:50:47Z</time>
      </trkpt>
      <trkpt lat="42.56468" lon="-0.69881">
        <time>2022-07-30T09:50:48Z</time>
      </trkpt>
      <trkpt lat="42.56472" lon="-0.69925">
        <time>2022-07-30T09:50:49Z</time>
      </trkpt>
      <trkpt lat="42.56475" lon="-0.69969">
        <time>2022-07-30T09:50:50Z</time>
      </trkpt>
      <trkpt lat="42.56477" lon="-0.70014">
        <time>2022-07-30T09:50:51Z</time>
      </trkpt>
      <trkpt lat="42.56479" lon="-0.70058">
        <time>2022-07-30T09:50:52Z</time>
      </trkpt>
      <trkpt lat="42.5648" lon="-0.70103">
        <time>2022-07-30T09:50:53Z</time>
      </trkpt>
      <trkpt lat="42.5648" lon="-0.70148">
        <time>2022-07-30T09:50:54Z</time>
      </trkpt>
      <trkpt lat="42.56481" lon="-0.70193">
        <time>2022-07-30T09:50:55Z</time>
      </trkpt>
      <trkpt lat="42.56481" lon="-0.70238">
        <time>2022-07-30T09:50:56Z</time>
      </trkpt>
      <trkpt lat="42.5648" lon="-0.70282">
        <time>2022-07-30T09:50:57Z</time>
      </trkpt>
      <trkpt lat="42.56479" lon="-0.70327">
        <time>2022-07-30T09:50:58Z</time>
      </trkpt>
      <trkpt lat="42.56478" lon="-0.70372">
        <time>2022-07-30T09:50:59Z</time>
      </trkpt>
      <trkpt lat="42.56477" lon="-0.70417">
        <time>2022-07-30T09:51:00Z</time>
      </trkpt>
      <trkpt lat="42.56475" lon="-0.70462">
        <time>2022-07-30T09:51:01Z</time>
      </trkpt>
      <trkpt lat="42.56474" lon="-0.70507">
        <time>2022-07-30T09:51:02Z</time>
      </trkpt>
      <trkpt lat="42.56474" lon="-0.70551">
        <time>2022-07-30T09:51:03Z</time>
      </trkpt>
      <trkpt lat="42.56474" lon="-0.70596">
        <time>2022-07-30T09:51:04Z</time>
      </trkpt>
      <trkpt lat="42.56475" lon="-0.7064">
        <time>2022-07-30T09:51:05Z</time>
      </trkpt>
      <trkpt lat="42.56476" lon="-0.70685">
        <time>2022-07-30T09:51:06Z</time>
      </trkpt>
      <trkpt lat="42.56478" lon="-0.7073">
        <time>2022-07-30T09:51:07Z</time>
      </trkpt>
      <trkpt lat="42.5648" lon="-0.70775">
        <time>2022-07-30T09:51:08Z</time>
      </trkpt>
      <trkpt lat="42.56483" lon="-0.70819">
        <time>2022-07-30T09:51:09Z</time>
      </trkpt>
      <trkpt lat="42.56486" lon="-0.70864">
        <time>2022-07-30T09:51:10Z</time>
      </trkpt>
      <trkpt lat="42.5649" lon="-0.70908">
        <time>2022-07-30T09:51:11Z</time>
      </trkpt>
      <trkpt lat="42.56494" lon="-0.70953">
        <time>2022-07-30T09:51:12Z</time>
      </trkpt>
      <trkpt lat="42.56499" lon="-0.70997">
        <time>2022-07-30T09:51:13Z</time>
      </trkpt>
      <trkpt lat="42.56503" lon="-0.71042">
        <time>2022-07-30T09:51:14Z</time>
      </trkpt>
      <trkpt lat="42.56506" lon="-0.71086">
        <time>2022-07-30T09:51:15Z</time>
      </trkpt>
      <trkpt lat="42.56509" lon="-0.7113">
        <time>2022-07-30T09:51:16Z</time>
      </trkpt>
      <trkpt lat="42.56512" lon="-0.71175">
        <time>2022-07-30T09:51:17Z</time>
      </trkpt>
      <trkpt lat="42.56514" lon="-0.7122">
        <time>2022-07-30T09:51:18Z</time>
      </trkpt>
      <trkpt lat="42.56515" lon="-0.71264">
        <time>2022-07-30T09:51:19Z</time>
      </trkpt>
      <trkpt lat="42.56515" lon="-0.71309">
        <time>2022-07-30T09:51:20Z</time>
      </trkpt>
      <trkpt lat="42.56514" lon="-0.71354">
        <time>2022-07-30T09:51:21Z</time>
      </trkpt>
      <trkpt lat="42.56513" lon="-0.71399">
        <time>2022-07-30T09:51:22Z</time>
      </trkpt>
      <trkpt lat="42.5651" lon="-0.71443">
        <time>2022-07-30T09:51:23Z</time>
      </trkpt>
      <trkpt lat="42.56507" lon="-0.71488">
        <time>2022-07-30T09:51:24Z</time>
      </trkpt>
      <trkpt lat="42.56503" lon="-0.71532">
        <time>2022-07-30T09:51:25Z</time>
      </trkpt>
      <trkpt lat="42.56499" lon="-0.71576">
        <time>2022-07-30T09:51:26Z</time>
      </trkpt>
      <trkpt lat="42.56495" lon="-0.7162">
        <time>2022-07-30T09:51:27Z</time>
      </trkpt>
      <trkpt lat="42.56491" lon="-0.71664">
        <time>2022-07-30T09:51:28Z</time>
      </trkpt>
      <trkpt lat="42.56487" lon="-0.71709">
        <time>2022-07-30T09:51:29Z</time>
      </trkpt>
      <trkpt lat="42.56483" lon="-0.71753">
        <time>2022-07-30T09:51:30Z</time>
      </trkpt>
      <trkpt lat="42.56479" lon="-0.71797">
        <time>2022-07-30T09:51:31Z</time>
      </trkpt>
      <trkpt lat="42.56475" lon="-0.71841">
        <time>2022-07-30T09:51:32Z</time>
      </trkpt>
      <trkpt lat="42.56471" lon="-0.71886">
        <time>2022-07-30T09:51:33Z</time>
      </trkpt>
      <trkpt lat="42.56467" lon="-0.7193">
        <time>2022-07-30T09:51:34Z</time>
      </trkpt>
      <trkpt lat="42.56463" lon="-0.71975">
        <time>2022-07-30T09:51:35Z</time>
      </trkpt>
      <trkpt lat="42.56458" lon="-0.72019">
        <time>2022-07-30T09:51:36Z</time>
      </trkpt>
      <trkpt lat="42.56454" lon="-0.72063">
        <time>2022-07-30T09:51:37Z</time>
      </trkpt>
      <trkpt lat="42.5645" lon="-0.72108">
        <time>2022-07-30T09:51:38Z</time>
      </trkpt>
      <trkpt lat="42.56446" lon="-0.72153">
        <time>2022-07-30T09:51:39Z</time>
      </trkpt>
      <trkpt lat="42.56442" lon="-0.72197">
        <time>2022-07-30T09:51:40Z</time>
      </trkpt>
      <trkpt lat="42.56438" lon="-0.72242">
        <time>2022-07-30T09:51:41Z</time>
      </trkpt>
      <trkpt lat="42.56434" lon="-0.72286">
        <time>2022-07-30T09:51:42Z</time>
      </trkpt>
      <trkpt lat="42.5643" lon="-0.72331">
        <time>2022-07-30T09:51:43Z</time>
      </trkpt>
      <trkpt lat="42.56426" lon="-0.72376">
        <time>2022-07-30T09:51:44Z</time>
      </trkpt>
      <trkpt lat="42.56422" lon="-0.7242">
        <time>2022-07-30T09:51:45Z</time>
      </trkpt>
      <trkpt lat="42.56418" lon="-0.72465">
        <time>2022-07-30T09:51:46Z</time>
      </trkpt>
      <trkpt lat="42.56414" lon="-0.72509">
        <time>2022-07-30T09:51:47Z</time>
      </trkpt>
      <trkpt lat="42.5641" lon="-0.72553">
        <time>2022-07-30T09:51:48Z</time>
      </trkpt>
      <trkpt lat="42.56408" lon="-0.72597">
        <time>2022-07-30T09:51:49Z</time>
      </trkpt>
      <trkpt lat="42.56406" lon="-0.72642">
        <time>2022-07-30T09:51:50Z</time>
      </trkpt>
      <trkpt lat="42.56405" lon="-0.72687">
        <time>2022-07-30T09:51:51Z</time>
      </trkpt>
      <trkpt lat="42.56405" lon="-0.72732">
        <time>2022-07-30T09:51:52Z</time>
      </trkpt>
      <trkpt lat="42.56405" lon="-0.72777">
        <time>2022-07-30T09:51:53Z</time>
      </trkpt>
      <trkpt lat="42.56406" lon="-0.72821">
        <time>2022-07-30T09:51:54Z</time>
      </trkpt>
      <trkpt lat="42.56409" lon="-0.72867">
        <time>2022-07-30T09:51:55Z</time>
      </trkpt>
      <trkpt lat="42.56411" lon="-0.72911">
        <time>2022-07-30T09:51:56Z</time>
      </trkpt>
      <trkpt lat="42.56415" lon="-0.72956">
        <time>2022-07-30T09:51:57Z</time>
      </trkpt>
      <trkpt lat="42.56419" lon="-0.73">
        <time>2022-07-30T09:51:58Z</time>
      </trkpt>
      <trkpt lat="42.56425" lon="-0.73044">
        <time>2022-07-30T09:51:59Z</time>
      </trkpt>
      <trkpt lat="42.56431" lon="-0.73088">
        <time>2022-07-30T09:52:00Z</time>
      </trkpt>
      <trkpt lat="42.56438" lon="-0.73132">
        <time>2022-07-30T09:52:01Z</time>
      </trkpt>
      <trkpt lat="42.56446" lon="-0.73175">
        <time>2022-07-30T09:52:02Z</time>
      </trkpt>
      <trkpt lat="42.56454" lon="-0.73218">
        <time>2022-07-30T09:52:03Z</time>
      </trkpt>
      <trkpt lat="42.56464" lon="-0.73261">
        <time>2022-07-30T09:52:04Z</time>
      </trkpt>
      <trkpt lat="42.56474" lon="-0.73304">
        <time>2022-07-30T09:52:05Z</time>
      </trkpt>
      <trkpt lat="42.56485" lon="-0.73347">
        <time>2022-07-30T09:52:06Z</time>
      </trkpt>
      <trkpt lat="42.56496" lon="-0.73389">
        <time>2022-07-30T09:52:07Z</time>
      </trkpt>
      <trkpt lat="42.56507" lon="-0.73431">
        <time>2022-07-30T09:52:08Z</time>
      </trkpt>
      <trkpt lat="42.56517" lon="-0.73473">
        <time>2022-07-30T09:52:09Z</time>
      </trkpt>
      <trkpt lat="42.56528" lon="-0.73516">
        <time>2022-07-30T09:52:10Z</time>
      </trkpt>
      <trkpt lat="42.56537" lon="-0.73559">
        <time>2022-07-30T09:52:11Z</time>
      </trkpt>
      <trkpt lat="42.56546" lon="-0.73602">
        <time>2022-07-30T09:52:12Z</time>
      </trkpt>
      <trkpt lat="42.56553" lon="-0.73645">
        <time>2022-07-30T09:52:13Z</time>
      </trkpt>
      <trkpt lat="42.56559" lon="-0.73689">
        <time>2022-07-30T09:52:14Z</time>
      </trkpt>
      <trkpt lat="42.56564" lon="-0.73733">
        <time>2022-07-30T09:52:15Z</time>
      </trkpt>
      <trkpt lat="42.56568" lon="-0.73777">
        <time>2022-07-30T09:52:16Z</time>
      </trkpt>
      <trkpt lat="42.5657" lon="-0.73822">
        <time>2022-07-30T09:52:17Z</time>
      </trkpt>
      <trkpt lat="42.56571" lon="-0.73867">
        <time>2022-07-30T09:52:18Z</time>
      </trkpt>
      <trkpt lat="42.5657" lon="-0.73912">
        <time>2022-07-30T09:52:19Z</time>
      </trkpt>
      <trkpt lat="42.56568" lon="-0.73956">
        <time>2022-07-30T09:52:20Z</time>
      </trkpt>
      <trkpt lat="42.56565" lon="-0.74001">
        <time>2022-07-30T09:52:21Z</time>
      </trkpt>
      <trkpt lat="42.5656" lon="-0.74044">
        <time>2022-07-30T09:52:22Z</time>
      </trkpt>
      <trkpt lat="42.56555" lon="-0.74088">
        <time>2022-07-30T09:52:23Z</time>
      </trkpt>
      <trkpt lat="42.56548" lon="-0.74131">
        <time>2022-07-30T09:52:24Z</time>
      </trkpt>
      <trkpt lat="42.56539" lon="-0.74174">
        <time>2022-07-30T09:52:25Z</time>
      </trkpt>
      <trkpt lat="42.56529" lon="-0.74217">
        <time>2022-07-30T09:52:26Z</time>
      </trkpt>
      <trkpt lat="42.56518" lon="-0.74258">
        <time>2022-07-30T09:52:27Z</time>
      </trkpt>
      <trkpt lat="42.56506" lon="-0.743">
        <time>2022-07-30T09:52:28Z</time>
      </trkpt>
      <trkpt lat="42.56494" lon="-0.74341">
        <time>2022-07-30T09:52:29Z</time>
      </trkpt>
      <trkpt lat="42.56482" lon="-0.74383">
        <time>2022-07-30T09:52:30Z</time>
      </trkpt>
      <trkpt lat="42.56469" lon="-0.74425">
        <time>2022-07-30T09:52:31Z</time>
      </trkpt>
      <trkpt lat="42.56457" lon="-0.74467">
        <time>2022-07-30T09:52:32Z</time>
      </trkpt>
      <trkpt lat="42.56446" lon="-0.74509">
        <time>2022-07-30T09:52:33Z</time>
      </trkpt>
      <trkpt lat="42.56437" lon="-0.74552">
        <time>2022-07-30T09:52:34Z</time>
      </trkpt>
      <trkpt lat="42.56428" lon="-0.74595">
        <time>2022-07-30T09:52:35Z</time>
      </trkpt>
      <trkpt lat="42.5642" lon="-0.74639">
        <time>2022-07-30T09:52:36Z</time>
      </trkpt>
      <trkpt lat="42.56413" lon="-0.74683">
        <time>2022-07-30T09:52:37Z</time>
      </trkpt>
      <trkpt lat="42.56407" lon="-0.74727">
        <time>2022-07-30T09:52:38Z</time>
      </trkpt>
      <trkpt lat="42.56402" lon="-0.74771">
        <time>2022-07-30T09:52:39Z</time>
      </trkpt>
      <trkpt lat="42.56398" lon="-0.74816">
        <time>2022-07-30T09:52:40Z</time>
      </trkpt>
      <trkpt lat="42.56395" lon="-0.74861">
        <time>2022-07-30T09:52:41Z</time>
      </trkpt>
      <trkpt lat="42.56394" lon="-0.74906">
        <time>2022-07-30T09:52:42Z</time>
      </trkpt>
      <trkpt lat="42.56393" lon="-0.7495">
        <time>2022-07-30T09:52:43Z</time>
      </trkpt>
      <trkpt lat="42.56392" lon="-0.74995">
        <time>2022-07-30T09:52:44Z</time>
      </trkpt>
      <trkpt lat="42.56391" lon="-0.7504">
        <time>2022-07-30T09:52:45Z</time>
      </trkpt>
      <trkpt lat="42.5639" lon="-0.75084">
        <time>2022-07-30T09:52:46Z</time>
      </trkpt>
      <trkpt lat="42.56389" lon="-0.75129">
        <time>2022-07-30T09:52:47Z</time>
      </trkpt>
      <trkpt lat="42.56386" lon="-0.75174">
        <time>2022-07-30T09:52:48Z</time>
      </trkpt>
      <trkpt lat="42.56383" lon="-0.75218">
        <time>2022-07-30T09:52:49Z</time>
      </trkpt>
      <trkpt lat="42.56378" lon="-0.75263">
        <time>2022-07-30T09:52:50Z</time>
      </trkpt>
      <trkpt lat="42.56371" lon="-0.75307">
        <time>2022-07-30T09:52:51Z</time>
      </trkpt>
      <trkpt lat="42.56364" lon="-0.75349">
        <time>2022-07-30T09:52:52Z</time>
      </trkpt>
      <trkpt lat="42.56356" lon="-0.7539">
        <time>2022-07-30T09:52:53Z</time>
      </trkpt>
      <trkpt lat="42.56348" lon="-0.75429">
        <time>2022-07-30T09:52:54Z</time>
      </trkpt>
      <trkpt lat="42.56339" lon="-0.75469">
        <time>2022-07-30T09:52:55Z</time>
      </trkpt>
      <trkpt lat="42.56332" lon="-0.75508">
        <time>2022-07-30T09:52:56Z</time>
      </trkpt>
      <trkpt lat="42.56324" lon="-0.75548">
        <time>2022-07-30T09:52:57Z</time>
      </trkpt>
      <trkpt lat="42.56318" lon="-0.75587">
        <time>2022-07-30T09:52:58Z</time>
      </trkpt>
      <trkpt lat="42.56311" lon="-0.75626">
        <time>2022-07-30T09:52:59Z</time>
      </trkpt>
      <trkpt lat="42.56306" lon="-0.75666">
        <time>2022-07-30T09:53:00Z</time>
      </trkpt>
      <trkpt lat="42.56301" lon="-0.75706">
        <time>2022-07-30T09:53:01Z</time>
      </trkpt>
      <trkpt lat="42.56298" lon="-0.75747">
        <time>2022-07-30T09:53:02Z</time>
      </trkpt>
      <trkpt lat="42.56295" lon="-0.75789">
        <time>2022-07-30T09:53:03Z</time>
      </trkpt>
      <trkpt lat="42.56293" lon="-0.7583">
        <time>2022-07-30T09:53:04Z</time>
      </trkpt>
      <trkpt lat="42.56292" lon="-0.75872">
        <time>2022-07-30T09:53:05Z</time>
      </trkpt>
      <trkpt lat="42.56291" lon="-0.75914">
        <time>2022-07-30T09:53:06Z</time>
      </trkpt>
      <trkpt lat="42.56291" lon="-0.75956">
        <time>2022-07-30T09:53:07Z</time>
      </trkpt>
      <trkpt lat="42.56293" lon="-0.75998">
        <time>2022-07-30T09:53:08Z</time>
      </trkpt>
      <trkpt lat="42.56295" lon="-0.7604">
        <time>2022-07-30T09:53:09Z</time>
      </trkpt>
      <trkpt lat="42.56298" lon="-0.76082">
        <time>2022-07-30T09:53:10Z</time>
      </trkpt>
      <trkpt lat="42.563" lon="-0.76124">
        <time>2022-07-30T09:53:11Z</time>
      </trkpt>
      <trkpt lat="42.56303" lon="-0.76165">
        <time>2022-07-30T09:53:12Z</time>
      </trkpt>
      <trkpt lat="42.56305" lon="-0.76206">
        <time>2022-07-30T09:53:13Z</time>
      </trkpt>
      <trkpt lat="42.56307" lon="-0.76247">
        <time>2022-07-30T09:53:14Z</time>
      </trkpt>
      <trkpt lat="42.56308" lon="-0.76288">
        <time>2022-07-30T09:53:15Z</time>
      </trkpt>
      <trkpt lat="42.56308" lon="-0.76329">
        <time>2022-07-30T09:53:16Z</time>
      </trkpt>
      <trkpt lat="42.56307" lon="-0.76369">
        <time>2022-07-30T09:53:17Z</time>
      </trkpt>
      <trkpt lat="42.56305" lon="-0.7641">
        <time>2022-07-30T09:53:18Z</time>
      </trkpt>
      <trkpt lat="42.56301" lon="-0.76451">
        <time>2022-07-30T09:53:19Z</time>
      </trkpt>
      <trkpt lat="42.56298" lon="-0.76492">
        <time>2022-07-30T09:53:20Z</time>
      </trkpt>
      <trkpt lat="42.56293" lon="-0.76534">
        <time>2022-07-30T09:53:21Z</time>
      </trkpt>
      <trkpt lat="42.56288" lon="-0.76576">
        <time>2022-07-30T09:53:22Z</time>
      </trkpt>
      <trkpt lat="42.56282" lon="-0.76618">
        <time>2022-07-30T09:53:23Z</time>
      </trkpt>
      <trkpt lat="42.56277" lon="-0.7666">
        <time>2022-07-30T09:53:24Z</time>
      </trkpt>
      <trkpt lat="42.56272" lon="-0.76702">
        <time>2022-07-30T09:53:25Z</time>
      </trkpt>
      <trkpt lat="42.56268" lon="-0.76743">
        <time>2022-07-30T09:53:26Z</time>
      </trkpt>
      <trkpt lat="42.56265" lon="-0.76785">
        <time>2022-07-30T09:53:27Z</time>
      </trkpt>
      <trkpt lat="42.56263" lon="-0.76826">
        <time>2022-07-30T09:53:28Z</time>
      </trkpt>
      <trkpt lat="42.56261" lon="-0.76868">
        <time>2022-07-30T09:53:29Z</time>
      </trkpt>
      <trkpt lat="42.5626" lon="-0.76909">
        <time>2022-07-30T09:53:30Z</time>
      </trkpt>
      <trkpt lat="42.5626" lon="-0.7695">
        <time>2022-07-30T09:53:31Z</time>
      </trkpt>
      <trkpt lat="42.56261" lon="-0.76992">
        <time>2022-07-30T09:53:32Z</time>
      </trkpt>
      <trkpt lat="42.56262" lon="-0.77034">
        <time>2022-07-30T09:53:33Z</time>
      </trkpt>
      <trkpt lat="42.56264" lon="-0.77075">
        <time>2022-07-30T09:53:34Z</time>
      </trkpt>
      <trkpt lat="42.56267" lon="-0.77117">
        <time>2022-07-30T09:53:35Z</time>
      </trkpt>
      <trkpt lat="42.5627" lon="-0.77159">
        <time>2022-07-30T09:53:36Z</time>
      </trkpt>
      <trkpt lat="42.56273" lon="-0.772">
        <time>2022-07-30T09:53:37Z</time>
      </trkpt>
      <trkpt lat="42.56276" lon="-0.7724">
        <time>2022-07-30T09:53:38Z</time>
      </trkpt>
      <trkpt lat="42.56279" lon="-0.77281">
        <time>2022-07-30T09:53:39Z</time>
      </trkpt>
      <trkpt lat="42.56281" lon="-0.77321">
        <time>2022-07-30T09:53:40Z</time>
      </trkpt>
      <trkpt lat="42.56283" lon="-0.77361">
        <time>2022-07-30T09:53:41Z</time>
      </trkpt>
      <trkpt lat="42.56285" lon="-0.774">
        <time>2022-07-30T09:53:42Z</time>
      </trkpt>
      <trkpt lat="42.56285" lon="-0.77438">
        <time>2022-07-30T09:53:43Z</time>
      </trkpt>
      <trkpt lat="42.56286" lon="-0.77476">
        <time>2022-07-30T09:53:44Z</time>
      </trkpt>
      <trkpt lat="42.56285" lon="-0.77513">
        <time>2022-07-30T09:53:45Z</time>
      </trkpt>
      <trkpt lat="42.56284" lon="-0.7755">
        <time>2022-07-30T09:53:46Z</time>
      </trkpt>
      <trkpt lat="42.56283" lon="-0.77585">
        <time>2022-07-30T09:53:47Z</time>
      </trkpt>
      <trkpt lat="42.56281" lon="-0.77619">
        <time>2022-07-30T09:53:48Z</time>
      </trkpt>
      <trkpt lat="42.56279" lon="-0.77653">
        <time>2022-07-30T09:53:49Z</time>
      </trkpt>
      <trkpt lat="42.56276" lon="-0.77686">
        <time>2022-07-30T09:53:50Z</time>
      </trkpt>
      <trkpt lat="42.56273" lon="-0.77719">
        <time>2022-07-30T09:53:51Z</time>
      </trkpt>
      <trkpt lat="42.5627" lon="-0.7775">
        <time>2022-07-30T09:53:52Z</time>
      </trkpt>
      <trkpt lat="42.56266" lon="-0.77781">
        <time>2022-07-30T09:53:53Z</time>
      </trkpt>
      <trkpt lat="42.56263" lon="-0.77813">
        <time>2022-07-30T09:53:54Z</time>
      </trkpt>
      <trkpt lat="42.56259" lon="-0.77844">
        <time>2022-07-30T09:53:55Z</time>
      </trkpt>
      <trkpt lat="42.56255" lon="-0.77876">
        <time>2022-07-30T09:53:56Z</time>
      </trkpt>
      <trkpt lat="42.56251" lon="-0.77906">
        <time>2022-07-30T09:53:57Z</time>
      </trkpt>
      <trkpt lat="42.56249" lon="-0.77935">
        <time>2022-07-30T09:53:58Z</time>
      </trkpt>
      <trkpt lat="42.56246" lon="-0.77964">
        <time>2022-07-30T09:53:59Z</time>
      </trkpt>
      <trkpt lat="42.56243" lon="-0.77991">
        <time>2022-07-30T09:54:00Z</time>
      </trkpt>
      <trkpt lat="42.56241" lon="-0.78017">
        <time>2022-07-30T09:54:01Z</time>
      </trkpt>
      <trkpt lat="42.56239" lon="-0.78042">
        <time>2022-07-30T09:54:02Z</time>
      </trkpt>
      <trkpt lat="42.56237" lon="-0.78065">
        <time>2022-07-30T09:54:03Z</time>
      </trkpt>
      <trkpt lat="42.56235" lon="-0.78087">
        <time>2022-07-30T09:54:04Z</time>
      </trkpt>
      <trkpt lat="42.56234" lon="-0.78106">
        <time>2022-07-30T09:54:05Z</time>
      </trkpt>
      <trkpt lat="42.56233" lon="-0.78123">
        <time>2022-07-30T09:54:06Z</time>
      </trkpt>
      <trkpt lat="42.56234" lon="-0.78139">
        <time>2022-07-30T09:54:07Z</time>
      </trkpt>
      <trkpt lat="42.56237" lon="-0.78154">
        <time>2022-07-30T09:54:08Z</time>
      </trkpt>
      <trkpt lat="42.56243" lon="-0.78169">
        <time>2022-07-30T09:54:09Z</time>
      </trkpt>
      <trkpt lat="42.56251" lon="-0.78181">
        <time>2022-07-30T09:54:10Z</time>
      </trkpt>
      <trkpt lat="42.56261" lon="-0.7819">
        <time>2022-07-30T09:54:11Z</time>
      </trkpt>
      <trkpt lat="42.56272" lon="-0.78196">
        <time>2022-07-30T09:54:12Z</time>
      </trkpt>
      <trkpt lat="42.56284" lon="-0.78198">
        <time>2022-07-30T09:54:13Z</time>
      </trkpt>
      <trkpt lat="42.56297" lon="-0.78196">
        <time>2022-07-30T09:54:14Z</time>
      </trkpt>
      <trkpt lat="42.5631" lon="-0.7819">
        <time>2022-07-30T09:54:15Z</time>
      </trkpt>
      <trkpt lat="42.56321" lon="-0.7818">
        <time>2022-07-30T09:54:16Z</time>
      </trkpt>
      <trkpt lat="42.56329" lon="-0.78167">
        <time>2022-07-30T09:54:17Z</time>
      </trkpt>
      <trkpt lat="42.56336" lon="-0.78151">
        <time>2022-07-30T09:54:18Z</time>
      </trkpt>
      <trkpt lat="42.5634" lon="-0.78134">
        <time>2022-07-30T09:54:19Z</time>
      </trkpt>
      <trkpt lat="42.56344" lon="-0.78117">
        <time>2022-07-30T09:54:20Z</time>
      </trkpt>
      <trkpt lat="42.56347" lon="-0.78099">
        <time>2022-07-30T09:54:21Z</time>
      </trkpt>
      <trkpt lat="42.56349" lon="-0.78082">
        <time>2022-07-30T09:54:22Z</time>
      </trkpt>
      <trkpt lat="42.56352" lon="-0.78064">
        <time>2022-07-30T09:54:23Z</time>
      </trkpt>
      <trkpt lat="42.56354" lon="-0.78046">
        <time>2022-07-30T09:54:24Z</time>
      </trkpt>
      <trkpt lat="42.56355" lon="-0.78028">
        <time>2022-07-30T09:54:25Z</time>
      </trkpt>
      <trkpt lat="42.56356" lon="-0.78011">
        <time>2022-07-30T09:54:26Z</time>
      </trkpt>
      <trkpt lat="42.56356" lon="-0.77994">
        <time>2022-07-30T09:54:27Z</time>
      </trkpt>
      <trkpt lat="42.56357" lon="-0.77979">
        <time>2022-07-30T09:54:28Z</time>
      </trkpt>
      <trkpt lat="42.56356" lon="-0.77967">
        <time>2022-07-30T09:54:29Z</time>
      </trkpt>
      <trkpt lat="42.56356" lon="-0.77957">
        <time>2022-07-30T09:54:30Z</time>
      </trkpt>
      <trkpt lat="42.56355" lon="-0.77948">
        <time>2022-07-30T09:54:31Z</time>
      </trkpt>
      <trkpt lat="42.56352" lon="-0.77941">
        <time>2022-07-30T09:54:32Z</time>
      </trkpt>
      <trkpt lat="42.56347" lon="-0.77934">
        <time>2022-07-30T09:54:33Z</time>
      </trkpt>
      <trkpt lat="42.56341" lon="-0.77928">
        <time>2022-07-30T09:54:34Z</time>
      </trkpt>
      <trkpt lat="42.56336" lon="-0.7792">
        <time>2022-07-30T09:54:35Z</time>
      </trkpt>
      <trkpt lat="42.56332" lon="-0.77909">
        <time>2022-07-30T09:54:36Z</time>
      </trkpt>
      <trkpt lat="42.5633" lon="-0.77898">
        <time>2022-07-30T09:54:37Z</time>
      </trkpt>
      <trkpt lat="42.56333" lon="-0.77888">
        <time>2022-07-30T09:54:38Z</time>
      </trkpt>
      <trkpt lat="42.56338" lon="-0.7788">
        <time>2022-07-30T09:54:39Z</time>
      </trkpt>
      <trkpt lat="42.56345" lon="-0.77875">
        <time>2022-07-30T09:54:40Z</time>
      </trkpt>
      <trkpt lat="42.56353" lon="-0.77871">
        <time>2022-07-30T09:54:41Z</time>
      </trkpt>
      <trkpt lat="42.56362" lon="-0.77869">
        <time>2022-07-30T09:54:42Z</time>
      </trkpt>
      <trkpt lat="42.56373" lon="-0.77865">
        <time>2022-07-30T09:54:43Z</time>
      </trkpt>
      <trkpt lat="42.56384" lon="-0.77858">
        <time>2022-07-30T09:54:44Z</time>
      </trkpt>
      <trkpt lat="42.56395" lon="-0.77849">
        <time>2022-07-30T09:54:45Z</time>
      </trkpt>
      <trkpt lat="42.56405" lon="-0.77838">
        <time>2022-07-30T09:54:46Z</time>
      </trkpt>
      <trkpt lat="42.56417" lon="-0.77826">
        <time>2022-07-30T09:54:47Z</time>
      </trkpt>
      <trkpt lat="42.5643" lon="-0.77812">
        <time>2022-07-30T09:54:48Z</time>
      </trkpt>
      <trkpt lat="42.56442" lon="-0.77798">
        <time>2022-07-30T09:54:49Z</time>
      </trkpt>
      <trkpt lat="42.56455" lon="-0.77784">
        <time>2022-07-30T09:54:50Z</time>
      </trkpt>
      <trkpt lat="42.56469" lon="-0.77769">
        <time>2022-07-30T09:54:51Z</time>
      </trkpt>
      <trkpt lat="42.56483" lon="-0.77753">
        <time>2022-07-30T09:54:52Z</time>
      </trkpt>
      <trkpt lat="42.56497" lon="-0.77737">
        <time>2022-07-30T09:54:53Z</time>
      </trkpt>
      <trkpt lat="42.56513" lon="-0.7772">
        <time>2022-07-30T09:54:54Z</time>
      </trkpt>
      <trkpt lat="42.5653" lon="-0.77701">
        <time>2022-07-30T09:54:55Z</time>
      </trkpt>
      <trkpt lat="42.5655" lon="-0.77679">
        <time>2022-07-30T09:54:56Z</time>
      </trkpt>
      <trkpt lat="42.56569" lon="-0.77657">
        <time>2022-07-30T09:54:57Z</time>
      </trkpt>
      <trkpt lat="42.56589" lon="-0.77635">
        <time>2022-07-30T09:54:58Z</time>
      </trkpt>
      <trkpt lat="42.56611" lon="-0.77612">
        <time>2022-07-30T09:54:59Z</time>
      </trkpt>
      <trkpt lat="42.56633" lon="-0.77589">
        <time>2022-07-30T09:55:00Z</time>
      </trkpt>
      <trkpt lat="42.56656" lon="-0.77564">
        <time>2022-07-30T09:55:01Z</time>
      </trkpt>
      <trkpt lat="42.56679" lon="-0.77539">
        <time>2022-07-30T09:55:02Z</time>
      </trkpt>
      <trkpt lat="42.56702" lon="-0.77514">
        <time>2022-07-30T09:55:03Z</time>
      </trkpt>
      <trkpt lat="42.56725" lon="-0.77488">
        <time>2022-07-30T09:55:04Z</time>
      </trkpt>
      <trkpt lat="42.56748" lon="-0.77462">
        <time>2022-07-30T09:55:05Z</time>
      </trkpt>
      <trkpt lat="42.5677" lon="-0.77435">
        <time>2022-07-30T09:55:06Z</time>
      </trkpt>
      <trkpt lat="42.56792" lon="-0.7741">
        <time>2022-07-30T09:55:07Z</time>
      </trkpt>
      <trkpt lat="42.56815" lon="-0.77385">
        <time>2022-07-30T09:55:08Z</time>
      </trkpt>
      <trkpt lat="42.56837" lon="-0.7736">
        <time>2022-07-30T09:55:09Z</time>
      </trkpt>
      <trkpt lat="42.56858" lon="-0.77336">
        <time>2022-07-30T09:55:10Z</time>
      </trkpt>
      <trkpt lat="42.56879" lon="-0.77313">
        <time>2022-07-30T09:55:11Z</time>
      </trkpt>
      <trkpt lat="42.569" lon="-0.7729">
        <time>2022-07-30T09:55:12Z</time>
      </trkpt>
      <trkpt lat="42.56919" lon="-0.77267">
        <time>2022-07-30T09:55:13Z</time>
      </trkpt>
      <trkpt lat="42.56939" lon="-0.77246">
        <time>2022-07-30T09:55:14Z</time>
      </trkpt>
      <trkpt lat="42.56958" lon="-0.77225">
        <time>2022-07-30T09:55:15Z</time>
      </trkpt>
      <trkpt lat="42.56977" lon="-0.77204">
        <time>2022-07-30T09:55:16Z</time>
      </trkpt>
      <trkpt lat="42.56995" lon="-0.77184">
        <time>2022-07-30T09:55:17Z</time>
      </trkpt>
      <trkpt lat="42.57013" lon="-0.77164">
        <time>2022-07-30T09:55:18Z</time>
      </trkpt>
      <trkpt lat="42.57031" lon="-0.77144">
        <time>2022-07-30T09:55:19Z</time>
      </trkpt>
      <trkpt lat="42.57048" lon="-0.77122">
        <time>2022-07-30T09:55:20Z</time>
      </trkpt>
      <trkpt lat="42.57065" lon="-0.771">
        <time>2022-07-30T09:55:21Z</time>
      </trkpt>
      <trkpt lat="42.57081" lon="-0.77076">
        <time>2022-07-30T09:55:22Z</time>
      </trkpt>
      <trkpt lat="42.57097" lon="-0.77051">
        <time>2022-07-30T09:55:23Z</time>
      </trkpt>
      <trkpt lat="42.57111" lon="-0.77024">
        <time>2022-07-30T09:55:24Z</time>
      </trkpt>
      <trkpt lat="42.57124" lon="-0.76996">
        <time>2022-07-30T09:55:25Z</time>
      </trkpt>
      <trkpt lat="42.57136" lon="-0.76967">
        <time>2022-07-30T09:55:26Z</time>
      </trkpt>
      <trkpt lat="42.57148" lon="-0.76937">
        <time>2022-07-30T09:55:27Z</time>
      </trkpt>
      <trkpt lat="42.5716" lon="-0.76907">
        <time>2022-07-30T09:55:28Z</time>
      </trkpt>
      <trkpt lat="42.57172" lon="-0.76876">
        <time>2022-07-30T09:55:29Z</time>
      </trkpt>
      <trkpt lat="42.57184" lon="-0.76844">
        <time>2022-07-30T09:55:30Z</time>
      </trkpt>
      <trkpt lat="42.57196" lon="-0.76812">
        <time>2022-07-30T09:55:31Z</time>
      </trkpt>
      <trkpt lat="42.57209" lon="-0.7678">
        <time>2022-07-30T09:55:32Z</time>
      </trkpt>
      <trkpt lat="42.57221" lon="-0.76748">
        <time>2022-07-30T09:55:33Z</time>
      </trkpt>
      <trkpt lat="42.57235" lon="-0.76714">
        <time>2022-07-30T09:55:34Z</time>
      </trkpt>
      <trkpt lat="42.57247" lon="-0.7668">
        <time>2022-07-30T09:55:35Z</time>
      </trkpt>
      <trkpt lat="42.57261" lon="-0.76647">
        <time>2022-07-30T09:55:36Z</time>
      </trkpt>
      <trkpt lat="42.57274" lon="-0.76614">
        <time>2022-07-30T09:55:37Z</time>
      </trkpt>
      <trkpt lat="42.57288" lon="-0.76581">
        <time>2022-07-30T09:55:38Z</time>
      </trkpt>
      <trkpt lat="42.57301" lon="-0.76549">
        <time>2022-07-30T09:55:39Z</time>
      </trkpt>
      <trkpt lat="42.57313" lon="-0.76517">
        <time>2022-07-30T09:55:40Z</time>
      </trkpt>
      <trkpt lat="42.57325" lon="-0.76486">
        <time>2022-07-30T09:55:41Z</time>
      </trkpt>
      <trkpt lat="42.57336" lon="-0.76455">
        <time>2022-07-30T09:55:42Z</time>
      </trkpt>
      <trkpt lat="42.57347" lon="-0.76424">
        <time>2022-07-30T09:55:43Z</time>
      </trkpt>
      <trkpt lat="42.57359" lon="-0.76393">
        <time>2022-07-30T09:55:44Z</time>
      </trkpt>
      <trkpt lat="42.5737" lon="-0.76363">
        <time>2022-07-30T09:55:45Z</time>
      </trkpt>
      <trkpt lat="42.57382" lon="-0.76332">
        <time>2022-07-30T09:55:46Z</time>
      </trkpt>
      <trkpt lat="42.57393" lon="-0.76302">
        <time>2022-07-30T09:55:47Z</time>
      </trkpt>
      <trkpt lat="42.57405" lon="-0.76273">
        <time>2022-07-30T09:55:48Z</time>
      </trkpt>
      <trkpt lat="42.57416" lon="-0.76244">
        <time>2022-07-30T09:55:49Z</time>
      </trkpt>
      <trkpt lat="42.57427" lon="-0.76216">
        <time>2022-07-30T09:55:50Z</time>
      </trkpt>
      <trkpt lat="42.57438" lon="-0.76188">
        <time>2022-07-30T09:55:51Z</time>
      </trkpt>
      <trkpt lat="42.57448" lon="-0.76161">
        <time>2022-07-30T09:55:52Z</time>
      </trkpt>
      <trkpt lat="42.57458" lon="-0.76134">
        <time>2022-07-30T09:55:53Z</time>
      </trkpt>
      <trkpt lat="42.57468" lon="-0.76108">
        <time>2022-07-30T09:55:54Z</time>
      </trkpt>
      <trkpt lat="42.57478" lon="-0.76082">
        <time>2022-07-30T09:55:55Z</time>
      </trkpt>
      <trkpt lat="42.57488" lon="-0.76056">
        <time>2022-07-30T09:55:56Z</time>
      </trkpt>
      <trkpt lat="42.57497" lon="-0.76031">
        <time>2022-07-30T09:55:57Z</time>
      </trkpt>
      <trkpt lat="42.57507" lon="-0.76008">
        <time>2022-07-30T09:55:58Z</time>
      </trkpt>
      <trkpt lat="42.57515" lon="-0.75985">
        <time>2022-07-30T09:55:59Z</time>
      </trkpt>
      <trkpt lat="42.57524" lon="-0.75962">
        <time>2022-07-30T09:56:00Z</time>
      </trkpt>
      <trkpt lat="42.57532" lon="-0.7594">
        <time>2022-07-30T09:56:01Z</time>
      </trkpt>
      <trkpt lat="42.5754" lon="-0.75919">
        <time>2022-07-30T09:56:02Z</time>
      </trkpt>
      <trkpt lat="42.57547" lon="-0.75898">
        <time>2022-07-30T09:56:03Z</time>
      </trkpt>
      <trkpt lat="42.57554" lon="-0.75876">
        <time>2022-07-30T09:56:04Z</time>
      </trkpt>
      <trkpt lat="42.5756" lon="-0.75854">
        <time>2022-07-30T09:56:05Z</time>
      </trkpt>
      <trkpt lat="42.57566" lon="-0.75831">
        <time>2022-07-30T09:56:06Z</time>
      </trkpt>
      <trkpt lat="42.5757" lon="-0.75807">
        <time>2022-07-30T09:56:07Z</time>
      </trkpt>
      <trkpt lat="42.57575" lon="-0.75782">
        <time>2022-07-30T09:56:08Z</time>
      </trkpt>
      <trkpt lat="42.57578" lon="-0.75755">
        <time>2022-07-30T09:56:09Z</time>
      </trkpt>
      <trkpt lat="42.57581" lon="-0.75729">
        <time>2022-07-30T09:56:10Z</time>
      </trkpt>
      <trkpt lat="42.57583" lon="-0.75703">
        <time>2022-07-30T09:56:11Z</time>
      </trkpt>
      <trkpt lat="42.57584" lon="-0.75676">
        <time>2022-07-30T09:56:12Z</time>
      </trkpt>
      <trkpt lat="42.57585" lon="-0.7565">
        <time>2022-07-30T09:56:13Z</time>
      </trkpt>
      <trkpt lat="42.57586" lon="-0.75625">
        <time>2022-07-30T09:56:14Z</time>
      </trkpt>
      <trkpt lat="42.57587" lon="-0.75599">
        <time>2022-07-30T09:56:15Z</time>
      </trkpt>
      <trkpt lat="42.57589" lon="-0.75573">
        <time>2022-07-30T09:56:16Z</time>
      </trkpt>
      <trkpt lat="42.5759" lon="-0.75548">
        <time>2022-07-30T09:56:17Z</time>
      </trkpt>
      <trkpt lat="42.57592" lon="-0.75523">
        <time>2022-07-30T09:56:18Z</time>
      </trkpt>
      <trkpt lat="42.57595" lon="-0.75498">
        <time>2022-07-30T09:56:19Z</time>
      </trkpt>
      <trkpt lat="42.57599" lon="-0.75472">
        <time>2022-07-30T09:56:20Z</time>
      </trkpt>
      <trkpt lat="42.57604" lon="-0.75447">
        <time>2022-07-30T09:56:21Z</time>
      </trkpt>
      <trkpt lat="42.57611" lon="-0.75421">
        <time>2022-07-30T09:56:22Z</time>
      </trkpt>
      <trkpt lat="42.57618" lon="-0.75396">
        <time>2022-07-30T09:56:23Z</time>
      </trkpt>
      <trkpt lat="42.57626" lon="-0.75372">
        <time>2022-07-30T09:56:24Z</time>
      </trkpt>
      <trkpt lat="42.57633" lon="-0.75349">
        <time>2022-07-30T09:56:25Z</time>
      </trkpt>
      <trkpt lat="42.57641" lon="-0.75326">
        <time>2022-07-30T09:56:26Z</time>
      </trkpt>
      <trkpt lat="42.5765" lon="-0.75304">
        <time>2022-07-30T09:56:27Z</time>
      </trkpt>
      <trkpt lat="42.5766" lon="-0.75281">
        <time>2022-07-30T09:56:28Z</time>
      </trkpt>
      <trkpt lat="42.5767" lon="-0.75259">
        <time>2022-07-30T09:56:29Z</time>
      </trkpt>
      <trkpt lat="42.57682" lon="-0.75236">
        <time>2022-07-30T09:56:30Z</time>
      </trkpt>
      <trkpt lat="42.57694" lon="-0.75209">
        <time>2022-07-30T09:56:31Z</time>
      </trkpt>
      <trkpt lat="42.57707" lon="-0.75181">
        <time>2022-07-30T09:56:32Z</time>
      </trkpt>
      <trkpt lat="42.57719" lon="-0.7515">
        <time>2022-07-30T09:56:33Z</time>
      </trkpt>
      <trkpt lat="42.57732" lon="-0.75119">
        <time>2022-07-30T09:56:34Z</time>
      </trkpt>
      <trkpt lat="42.57745" lon="-0.75087">
        <time>2022-07-30T09:56:35Z</time>
      </trkpt>
      <trkpt lat="42.57759" lon="-0.75055">
        <time>2022-07-30T09:56:36Z</time>
      </trkpt>
      <trkpt lat="42.57774" lon="-0.75021">
        <time>2022-07-30T09:56:37Z</time>
      </trkpt>
      <trkpt lat="42.5779" lon="-0.74986">
        <time>2022-07-30T09:56:38Z</time>
      </trkpt>
      <trkpt lat="42.57806" lon="-0.74953">
        <time>2022-07-30T09:56:39Z</time>
      </trkpt>
      <trkpt lat="42.57821" lon="-0.74919">
        <time>2022-07-30T09:56:40Z</time>
      </trkpt>
      <trkpt lat="42.57835" lon="-0.74886">
        <time>2022-07-30T09:56:41Z</time>
      </trkpt>
      <trkpt lat="42.57849" lon="-0.74853">
        <time>2022-07-30T09:56:42Z</time>
      </trkpt>
      <trkpt lat="42.57862" lon="-0.74821">
        <time>2022-07-30T09:56:43Z</time>
      </trkpt>
      <trkpt lat="42.57874" lon="-0.74789">
        <time>2022-07-30T09:56:44Z</time>
      </trkpt>
      <trkpt lat="42.57887" lon="-0.74758">
        <time>2022-07-30T09:56:45Z</time>
      </trkpt>
      <trkpt lat="42.57901" lon="-0.74728">
        <time>2022-07-30T09:56:46Z</time>
      </trkpt>
      <trkpt lat="42.57914" lon="-0.74698">
        <time>2022-07-30T09:56:47Z</time>
      </trkpt>
      <trkpt lat="42.57928" lon="-0.74669">
        <time>2022-07-30T09:56:48Z</time>
      </trkpt>
      <trkpt lat="42.57942" lon="-0.74641">
        <time>2022-07-30T09:56:49Z</time>
      </trkpt>
      <trkpt lat="42.57957" lon="-0.74612">
        <time>2022-07-30T09:56:50Z</time>
      </trkpt>
      <trkpt lat="42.57974" lon="-0.74585">
        <time>2022-07-30T09:56:51Z</time>
      </trkpt>
      <trkpt lat="42.57991" lon="-0.74557">
        <time>2022-07-30T09:56:52Z</time>
      </trkpt>
      <trkpt lat="42.58009" lon="-0.74531">
        <time>2022-07-30T09:56:53Z</time>
      </trkpt>
      <trkpt lat="42.58027" lon="-0.74504">
        <time>2022-07-30T09:56:54Z</time>
      </trkpt>
      <trkpt lat="42.58046" lon="-0.74479">
        <time>2022-07-30T09:56:55Z</time>
      </trkpt>
      <trkpt lat="42.58065" lon="-0.74455">
        <time>2022-07-30T09:56:56Z</time>
      </trkpt>
      <trkpt lat="42.58084" lon="-0.7443">
        <time>2022-07-30T09:56:57Z</time>
      </trkpt>
      <trkpt lat="42.58103" lon="-0.74406">
        <time>2022-07-30T09:56:58Z</time>
      </trkpt>
      <trkpt lat="42.58122" lon="-0.74381">
        <time>2022-07-30T09:56:59Z</time>
      </trkpt>
      <trkpt lat="42.58141" lon="-0.74356">
        <time>2022-07-30T09:57:00Z</time>
      </trkpt>
      <trkpt lat="42.5816" lon="-0.74331">
        <time>2022-07-30T09:57:01Z</time>
      </trkpt>
      <trkpt lat="42.5818" lon="-0.74306">
        <time>2022-07-30T09:57:02Z</time>
      </trkpt>
      <trkpt lat="42.58199" lon="-0.74281">
        <time>2022-07-30T09:57:03Z</time>
      </trkpt>
      <trkpt lat="42.58218" lon="-0.74257">
        <time>2022-07-30T09:57:04Z</time>
      </trkpt>
      <trkpt lat="42.58238" lon="-0.74232">
        <time>2022-07-30T09:57:05Z</time>
      </trkpt>
      <trkpt lat="42.58257" lon="-0.74207">
        <time>2022-07-30T09:57:06Z</time>
      </trkpt>
      <trkpt lat="42.58276" lon="-0.74181">
        <time>2022-07-30T09:57:07Z</time>
      </trkpt>
      <trkpt lat="42.58296" lon="-0.74156">
        <time>2022-07-30T09:57:08Z</time>
      </trkpt>
      <trkpt lat="42.58316" lon="-0.74131">
        <time>2022-07-30T09:57:09Z</time>
      </trkpt>
      <trkpt lat="42.58335" lon="-0.74105">
        <time>2022-07-30T09:57:10Z</time>
      </trkpt>
      <trkpt lat="42.58354" lon="-0.74081">
        <time>2022-07-30T09:57:11Z</time>
      </trkpt>
      <trkpt lat="42.58372" lon="-0.74057">
        <time>2022-07-30T09:57:12Z</time>
      </trkpt>
      <trkpt lat="42.58391" lon="-0.74033">
        <time>2022-07-30T09:57:13Z</time>
      </trkpt>
      <trkpt lat="42.58408" lon="-0.7401">
        <time>2022-07-30T09:57:14Z</time>
      </trkpt>
      <trkpt lat="42.58426" lon="-0.73987">
        <time>2022-07-30T09:57:15Z</time>
      </trkpt>
      <trkpt lat="42.58443" lon="-0.73965">
        <time>2022-07-30T09:57:16Z</time>
      </trkpt>
      <trkpt lat="42.58461" lon="-0.73943">
        <time>2022-07-30T09:57:17Z</time>
      </trkpt>
      <trkpt lat="42.58478" lon="-0.73921">
        <time>2022-07-30T09:57:18Z</time>
      </trkpt>
      <trkpt lat="42.58494" lon="-0.73901">
        <time>2022-07-30T09:57:19Z</time>
      </trkpt>
      <trkpt lat="42.58512" lon="-0.73881">
        <time>2022-07-30T09:57:20Z</time>
      </trkpt>
      <trkpt lat="42.58529" lon="-0.73862">
        <time>2022-07-30T09:57:21Z</time>
      </trkpt>
      <trkpt lat="42.58547" lon="-0.73845">
        <time>2022-07-30T09:57:22Z</time>
      </trkpt>
      <trkpt lat="42.58566" lon="-0.73828">
        <time>2022-07-30T09:57:23Z</time>
      </trkpt>
      <trkpt lat="42.58586" lon="-0.73814">
        <time>2022-07-30T09:57:24Z</time>
      </trkpt>
      <trkpt lat="42.58607" lon="-0.73801">
        <time>2022-07-30T09:57:25Z</time>
      </trkpt>
      <trkpt lat="42.58628" lon="-0.73789">
        <time>2022-07-30T09:57:26Z</time>
      </trkpt>
      <trkpt lat="42.58649" lon="-0.73775">
        <time>2022-07-30T09:57:27Z</time>
      </trkpt>
      <trkpt lat="42.5867" lon="-0.73762">
        <time>2022-07-30T09:57:28Z</time>
      </trkpt>
      <trkpt lat="42.58692" lon="-0.73748">
        <time>2022-07-30T09:57:29Z</time>
      </trkpt>
      <trkpt lat="42.58713" lon="-0.73734">
        <time>2022-07-30T09:57:30Z</time>
      </trkpt>
      <trkpt lat="42.58735" lon="-0.7372">
        <time>2022-07-30T09:57:31Z</time>
      </trkpt>
      <trkpt lat="42.58757" lon="-0.73706">
        <time>2022-07-30T09:57:32Z</time>
      </trkpt>
      <trkpt lat="42.58779" lon="-0.73692">
        <time>2022-07-30T09:57:33Z</time>
      </trkpt>
      <trkpt lat="42.58802" lon="-0.73679">
        <time>2022-07-30T09:57:34Z</time>
      </trkpt>
      <trkpt lat="42.58824" lon="-0.73665">
        <time>2022-07-30T09:57:35Z</time>
      </trkpt>
      <trkpt lat="42.58847" lon="-0.73651">
        <time>2022-07-30T09:57:36Z</time>
      </trkpt>
      <trkpt lat="42.58871" lon="-0.73637">
        <time>2022-07-30T09:57:37Z</time>
      </trkpt>
      <trkpt lat="42.58894" lon="-0.73622">
        <time>2022-07-30T09:57:38Z</time>
      </trkpt>
      <trkpt lat="42.58917" lon="-0.73608">
        <time>2022-07-30T09:57:39Z</time>
      </trkpt>
      <trkpt lat="42.5894" lon="-0.73593">
        <time>2022-07-30T09:57:40Z</time>
      </trkpt>
      <trkpt lat="42.58964" lon="-0.73579">
        <time>2022-07-30T09:57:41Z</time>
      </trkpt>
      <trkpt lat="42.58987" lon="-0.73564">
        <time>2022-07-30T09:57:42Z</time>
      </trkpt>
      <trkpt lat="42.5901" lon="-0.7355">
        <time>2022-07-30T09:57:43Z</time>
      </trkpt>
      <trkpt lat="42.59033" lon="-0.73536">
        <time>2022-07-30T09:57:44Z</time>
      </trkpt>
      <trkpt lat="42.59056" lon="-0.73522">
        <time>2022-07-30T09:57:45Z</time>
      </trkpt>
      <trkpt lat="42.59078" lon="-0.73507">
        <time>2022-07-30T09:57:46Z</time>
      </trkpt>
      <trkpt lat="42.59101" lon="-0.73492">
        <time>2022-07-30T09:57:47Z</time>
      </trkpt>
      <trkpt lat="42.59124" lon="-0.73478">
        <time>2022-07-30T09:57:48Z</time>
      </trkpt>
      <trkpt lat="42.59147" lon="-0.73464">
        <time>2022-07-30T09:57:49Z</time>
      </trkpt>
      <trkpt lat="42.59169" lon="-0.73449">
        <time>2022-07-30T09:57:50Z</time>
      </trkpt>
      <trkpt lat="42.59192" lon="-0.73435">
        <time>2022-07-30T09:57:51Z</time>
      </trkpt>
      <trkpt lat="42.59214" lon="-0.73421">
        <time>2022-07-30T09:57:52Z</time>
      </trkpt>
      <trkpt lat="42.59237" lon="-0.73407">
        <time>2022-07-30T09:57:53Z</time>
      </trkpt>
      <trkpt lat="42.59259" lon="-0.73392">
        <time>2022-07-30T09:57:54Z</time>
      </trkpt>
      <trkpt lat="42.59281" lon="-0.73378">
        <time>2022-07-30T09:57:55Z</time>
      </trkpt>
      <trkpt lat="42.59303" lon="-0.73362">
        <time>2022-07-30T09:57:56Z</time>
      </trkpt>
      <trkpt lat="42.59324" lon="-0.73346">
        <time>2022-07-30T09:57:57Z</time>
      </trkpt>
      <trkpt lat="42.59345" lon="-0.73328">
        <time>2022-07-30T09:57:58Z</time>
      </trkpt>
      <trkpt lat="42.59366" lon="-0.73311">
        <time>2022-07-30T09:57:59Z</time>
      </trkpt>
      <trkpt lat="42.59388" lon="-0.73295">
        <time>2022-07-30T09:58:00Z</time>
      </trkpt>
      <trkpt lat="42.59409" lon="-0.73279">
        <time>2022-07-30T09:58:01Z</time>
      </trkpt>
      <trkpt lat="42.59431" lon="-0.73264">
        <time>2022-07-30T09:58:02Z</time>
      </trkpt>
      <trkpt lat="42.59453" lon="-0.7325">
        <time>2022-07-30T09:58:03Z</time>
      </trkpt>
      <trkpt lat="42.59476" lon="-0.73238">
        <time>2022-07-30T09:58:04Z</time>
      </trkpt>
      <trkpt lat="42.59499" lon="-0.73228">
        <time>2022-07-30T09:58:05Z</time>
      </trkpt>
      <trkpt lat="42.59523" lon="-0.73219">
        <time>2022-07-30T09:58:06Z</time>
      </trkpt>
      <trkpt lat="42.59547" lon="-0.73212">
        <time>2022-07-30T09:58:07Z</time>
      </trkpt>
      <trkpt lat="42.59572" lon="-0.73207">
        <time>2022-07-30T09:58:08Z</time>
      </trkpt>
      <trkpt lat="42.59597" lon="-0.73204">
        <time>2022-07-30T09:58:09Z</time>
      </trkpt>
      <trkpt lat="42.59623" lon="-0.73202">
        <time>2022-07-30T09:58:10Z</time>
      </trkpt>
      <trkpt lat="42.59649" lon="-0.73201">
        <time>2022-07-30T09:58:11Z</time>
      </trkpt>
      <trkpt lat="42.59674" lon="-0.73201">
        <time>2022-07-30T09:58:12Z</time>
      </trkpt>
      <trkpt lat="42.59699" lon="-0.73201">
        <time>2022-07-30T09:58:13Z</time>
      </trkpt>
      <trkpt lat="42.59724" lon="-0.73201">
        <time>2022-07-30T09:58:14Z</time>
      </trkpt>
      <trkpt lat="42.59749" lon="-0.73201">
        <time>2022-07-30T09:58:15Z</time>
      </trkpt>
      <trkpt lat="42.59773" lon="-0.73201">
        <time>2022-07-30T09:58:16Z</time>
      </trkpt>
      <trkpt lat="42.59798" lon="-0.732">
        <time>2022-07-30T09:58:17Z</time>
      </trkpt>
      <trkpt lat="42.59822" lon="-0.73197">
        <time>2022-07-30T09:58:18Z</time>
      </trkpt>
      <trkpt lat="42.59845" lon="-0.73191">
        <time>2022-07-30T09:58:19Z</time>
      </trkpt>
      <trkpt lat="42.59868" lon="-0.73182">
        <time>2022-07-30T09:58:20Z</time>
      </trkpt>
      <trkpt lat="42.5989" lon="-0.73169">
        <time>2022-07-30T09:58:21Z</time>
      </trkpt>
      <trkpt lat="42.59912" lon="-0.73155">
        <time>2022-07-30T09:58:22Z</time>
      </trkpt>
      <trkpt lat="42.59933" lon="-0.73141">
        <time>2022-07-30T09:58:23Z</time>
      </trkpt>
      <trkpt lat="42.59953" lon="-0.73126">
        <time>2022-07-30T09:58:24Z</time>
      </trkpt>
      <trkpt lat="42.59973" lon="-0.73113">
        <time>2022-07-30T09:58:25Z</time>
      </trkpt>
      <trkpt lat="42.59994" lon="-0.731">
        <time>2022-07-30T09:58:26Z</time>
      </trkpt>
      <trkpt lat="42.60016" lon="-0.7309">
        <time>2022-07-30T09:58:27Z</time>
      </trkpt>
      <trkpt lat="42.60039" lon="-0.73083">
        <time>2022-07-30T09:58:28Z</time>
      </trkpt>
      <trkpt lat="42.60063" lon="-0.73077">
        <time>2022-07-30T09:58:29Z</time>
      </trkpt>
      <trkpt lat="42.60089" lon="-0.73073">
        <time>2022-07-30T09:58:30Z</time>
      </trkpt>
      <trkpt lat="42.60114" lon="-0.73068">
        <time>2022-07-30T09:58:31Z</time>
      </trkpt>
      <trkpt lat="42.6014" lon="-0.73063">
        <time>2022-07-30T09:58:32Z</time>
      </trkpt>
      <trkpt lat="42.60165" lon="-0.73059">
        <time>2022-07-30T09:58:33Z</time>
      </trkpt>
      <trkpt lat="42.6019" lon="-0.73054">
        <time>2022-07-30T09:58:34Z</time>
      </trkpt>
      <trkpt lat="42.60215" lon="-0.7305">
        <time>2022-07-30T09:58:35Z</time>
      </trkpt>
      <trkpt lat="42.60239" lon="-0.73046">
        <time>2022-07-30T09:58:36Z</time>
      </trkpt>
      <trkpt lat="42.60262" lon="-0.73042">
        <time>2022-07-30T09:58:37Z</time>
      </trkpt>
      <trkpt lat="42.60285" lon="-0.73038">
        <time>2022-07-30T09:58:38Z</time>
      </trkpt>
      <trkpt lat="42.60309" lon="-0.73031">
        <time>2022-07-30T09:58:39Z</time>
      </trkpt>
      <trkpt lat="42.60333" lon="-0.73024">
        <time>2022-07-30T09:58:40Z</time>
      </trkpt>
      <trkpt lat="42.60357" lon="-0.73016">
        <time>2022-07-30T09:58:41Z</time>
      </trkpt>
      <trkpt lat="42.60381" lon="-0.73008">
        <time>2022-07-30T09:58:42Z</time>
      </trkpt>
      <trkpt lat="42.60406" lon="-0.72998">
        <time>2022-07-30T09:58:43Z</time>
      </trkpt>
      <trkpt lat="42.6043" lon="-0.72989">
        <time>2022-07-30T09:58:44Z</time>
      </trkpt>
      <trkpt lat="42.60454" lon="-0.7298">
        <time>2022-07-30T09:58:45Z</time>
      </trkpt>
      <trkpt lat="42.60478" lon="-0.72972">
        <time>2022-07-30T09:58:46Z</time>
      </trkpt>
      <trkpt lat="42.60501" lon="-0.72967">
        <time>2022-07-30T09:58:47Z</time>
      </trkpt>
      <trkpt lat="42.60524" lon="-0.72963">
        <time>2022-07-30T09:58:48Z</time>
      </trkpt>
      <trkpt lat="42.60547" lon="-0.7296">
        <time>2022-07-30T09:58:49Z</time>
      </trkpt>
      <trkpt lat="42.60569" lon="-0.72957">
        <time>2022-07-30T09:58:50Z</time>
      </trkpt>
      <trkpt lat="42.60591" lon="-0.72952">
        <time>2022-07-30T09:58:51Z</time>
      </trkpt>
      <trkpt lat="42.60611" lon="-0.72945">
        <time>2022-07-30T09:58:52Z</time>
      </trkpt>
      <trkpt lat="42.60631" lon="-0.72935">
        <time>2022-07-30T09:58:53Z</time>
      </trkpt>
      <trkpt lat="42.6065" lon="-0.72921">
        <time>2022-07-30T09:58:54Z</time>
      </trkpt>
      <trkpt lat="42.60669" lon="-0.72905">
        <time>2022-07-30T09:58:55Z</time>
      </trkpt>
      <trkpt lat="42.60688" lon="-0.72887">
        <time>2022-07-30T09:58:56Z</time>
      </trkpt>
      <trkpt lat="42.60706" lon="-0.72868">
        <time>2022-07-30T09:58:57Z</time>
      </trkpt>
      <trkpt lat="42.60725" lon="-0.72848">
        <time>2022-07-30T09:58:58Z</time>
      </trkpt>
      <trkpt lat="42.60743" lon="-0.72828">
        <time>2022-07-30T09:58:59Z</time>
      </trkpt>
      <trkpt lat="42.60761" lon="-0.72808">
        <time>2022-07-30T09:59:00Z</time>
      </trkpt>
      <trkpt lat="42.6078" lon="-0.72788">
        <time>2022-07-30T09:59:01Z</time>
      </trkpt>
      <trkpt lat="42.60797" lon="-0.72769">
        <time>2022-07-30T09:59:02Z</time>
      </trkpt>
      <trkpt lat="42.60815" lon="-0.72749">
        <time>2022-07-30T09:59:03Z</time>
      </trkpt>
      <trkpt lat="42.60832" lon="-0.7273">
        <time>2022-07-30T09:59:04Z</time>
      </trkpt>
      <trkpt lat="42.6085" lon="-0.72711">
        <time>2022-07-30T09:59:05Z</time>
      </trkpt>
      <trkpt lat="42.60867" lon="-0.7269">
        <time>2022-07-30T09:59:06Z</time>
      </trkpt>
      <trkpt lat="42.60883" lon="-0.72668">
        <time>2022-07-30T09:59:07Z</time>
      </trkpt>
      <trkpt lat="42.60898" lon="-0.72645">
        <time>2022-07-30T09:59:08Z</time>
      </trkpt>
      <trkpt lat="42.60912" lon="-0.72622">
        <time>2022-07-30T09:59:09Z</time>
      </trkpt>
      <trkpt lat="42.60926" lon="-0.72599">
        <time>2022-07-30T09:59:10Z</time>
      </trkpt>
      <trkpt lat="42.60938" lon="-0.72576">
        <time>2022-07-30T09:59:11Z</time>
      </trkpt>
      <trkpt lat="42.6095" lon="-0.72554">
        <time>2022-07-30T09:59:12Z</time>
      </trkpt>
      <trkpt lat="42.60963" lon="-0.72533">
        <time>2022-07-30T09:59:13Z</time>
      </trkpt>
      <trkpt lat="42.60976" lon="-0.72513">
        <time>2022-07-30T09:59:14Z</time>
      </trkpt>
      <trkpt lat="42.6099" lon="-0.72496">
        <time>2022-07-30T09:59:15Z</time>
      </trkpt>
      <trkpt lat="42.61004" lon="-0.7248">
        <time>2022-07-30T09:59:16Z</time>
      </trkpt>
      <trkpt lat="42.61019" lon="-0.72467">
        <time>2022-07-30T09:59:17Z</time>
      </trkpt>
      <trkpt lat="42.61035" lon="-0.72455">
        <time>2022-07-30T09:59:18Z</time>
      </trkpt>
      <trkpt lat="42.61051" lon="-0.72445">
        <time>2022-07-30T09:59:19Z</time>
      </trkpt>
      <trkpt lat="42.61069" lon="-0.72436">
        <time>2022-07-30T09:59:20Z</time>
      </trkpt>
      <trkpt lat="42.61087" lon="-0.72427">
        <time>2022-07-30T09:59:21Z</time>
      </trkpt>
      <trkpt lat="42.61106" lon="-0.72419">
        <time>2022-07-30T09:59:22Z</time>
      </trkpt>
      <trkpt lat="42.61125" lon="-0.7241">
        <time>2022-07-30T09:59:23Z</time>
      </trkpt>
      <trkpt lat="42.61145" lon="-0.72401">
        <time>2022-07-30T09:59:24Z</time>
      </trkpt>
      <trkpt lat="42.61165" lon="-0.72392">
        <time>2022-07-30T09:59:25Z</time>
      </trkpt>
      <trkpt lat="42.61185" lon="-0.72384">
        <time>2022-07-30T09:59:26Z</time>
      </trkpt>
      <trkpt lat="42.61205" lon="-0.72374">
        <time>2022-07-30T09:59:27Z</time>
      </trkpt>
      <trkpt lat="42.61225" lon="-0.72365">
        <time>2022-07-30T09:59:28Z</time>
      </trkpt>
      <trkpt lat="42.61246" lon="-0.72356">
        <time>2022-07-30T09:59:29Z</time>
      </trkpt>
      <trkpt lat="42.61267" lon="-0.72347">
        <time>2022-07-30T09:59:30Z</time>
      </trkpt>
      <trkpt lat="42.61288" lon="-0.72338">
        <time>2022-07-30T09:59:31Z</time>
      </trkpt>
      <trkpt lat="42.61309" lon="-0.72329">
        <time>2022-07-30T09:59:32Z</time>
      </trkpt>
      <trkpt lat="42.61331" lon="-0.7232">
        <time>2022-07-30T09:59:33Z</time>
      </trkpt>
      <trkpt lat="42.61352" lon="-0.7231">
        <time>2022-07-30T09:59:34Z</time>
      </trkpt>
      <trkpt lat="42.61374" lon="-0.72301">
        <time>2022-07-30T09:59:35Z</time>
      </trkpt>
      <trkpt lat="42.61395" lon="-0.72292">
        <time>2022-07-30T09:59:36Z</time>
      </trkpt>
      <trkpt lat="42.61417" lon="-0.72282">
        <time>2022-07-30T09:59:37Z</time>
      </trkpt>
      <trkpt lat="42.61439" lon="-0.72272">
        <time>2022-07-30T09:59:38Z</time>
      </trkpt>
      <trkpt lat="42.61461" lon="-0.72263">
        <time>2022-07-30T09:59:39Z</time>
      </trkpt>
      <trkpt lat="42.61482" lon="-0.72253">
        <time>2022-07-30T09:59:40Z</time>
      </trkpt>
      <trkpt lat="42.61504" lon="-0.72244">
        <time>2022-07-30T09:59:41Z</time>
      </trkpt>
      <trkpt lat="42.61525" lon="-0.72234">
        <time>2022-07-30T09:59:42Z</time>
      </trkpt>
      <trkpt lat="42.61546" lon="-0.72225">
        <time>2022-07-30T09:59:43Z</time>
      </trkpt>
      <trkpt lat="42.61567" lon="-0.72215">
        <time>2022-07-30T09:59:44Z</time>
      </trkpt>
      <trkpt lat="42.61588" lon="-0.72206">
        <time>2022-07-30T09:59:45Z</time>
      </trkpt>
      <trkpt lat="42.61608" lon="-0.72197">
        <time>2022-07-30T09:59:46Z</time>
      </trkpt>
      <trkpt lat="42.61629" lon="-0.72188">
        <time>2022-07-30T09:59:47Z</time>
      </trkpt>
      <trkpt lat="42.61649" lon="-0.7218">
        <time>2022-07-30T09:59:48Z</time>
      </trkpt>
      <trkpt lat="42.61669" lon="-0.72171">
        <time>2022-07-30T09:59:49Z</time>
      </trkpt>
      <trkpt lat="42.61688" lon="-0.72162">
        <time>2022-07-30T09:59:50Z</time>
      </trkpt>
      <trkpt lat="42.61707" lon="-0.72153">
        <time>2022-07-30T09:59:51Z</time>
      </trkpt>
      <trkpt lat="42.61727" lon="-0.72145">
        <time>2022-07-30T09:59:52Z</time>
      </trkpt>
      <trkpt lat="42.61746" lon="-0.72137">
        <time>2022-07-30T09:59:53Z</time>
      </trkpt>
      <trkpt lat="42.61764" lon="-0.72128">
        <time>2022-07-30T09:59:54Z</time>
      </trkpt>
      <trkpt lat="42.61782" lon="-0.7212">
        <time>2022-07-30T09:59:55Z</time>
      </trkpt>
      <trkpt lat="42.61799" lon="-0.72112">
        <time>2022-07-30T09:59:56Z</time>
      </trkpt>
      <trkpt lat="42.61815" lon="-0.72103">
        <time>2022-07-30T09:59:57Z</time>
      </trkpt>
      <trkpt lat="42.61831" lon="-0.72093">
        <time>2022-07-30T09:59:58Z</time>
      </trkpt>
      <trkpt lat="42.61846" lon="-0.72081">
        <time>2022-07-30T09:59:59Z</time>
      </trkpt>
      <trkpt lat="42.61862" lon="-0.72068">
        <time>2022-07-30T10:00:00Z</time>
      </trkpt>
      <trkpt lat="42.61877" lon="-0.72052">
        <time>2022-07-30T10:00:01Z</time>
      </trkpt>
      <trkpt lat="42.61891" lon="-0.72034">
        <time>2022-07-30T10:00:02Z</time>
      </trkpt>
      <trkpt lat="42.61906" lon="-0.72015">
        <time>2022-07-30T10:00:03Z</time>
      </trkpt>
      <trkpt lat="42.61921" lon="-0.71996">
        <time>2022-07-30T10:00:04Z</time>
      </trkpt>
      <trkpt lat="42.61936" lon="-0.71975">
        <time>2022-07-30T10:00:05Z</time>
      </trkpt>
      <trkpt lat="42.61951" lon="-0.71956">
        <time>2022-07-30T10:00:06Z</time>
      </trkpt>
      <trkpt lat="42.61965" lon="-0.71936">
        <time>2022-07-30T10:00:07Z</time>
      </trkpt>
      <trkpt lat="42.6198" lon="-0.71916">
        <time>2022-07-30T10:00:08Z</time>
      </trkpt>
      <trkpt lat="42.61994" lon="-0.71897">
        <time>2022-07-30T10:00:09Z</time>
      </trkpt>
      <trkpt lat="42.62008" lon="-0.71878">
        <time>2022-07-30T10:00:10Z</time>
      </trkpt>
      <trkpt lat="42.62022" lon="-0.71859">
        <time>2022-07-30T10:00:11Z</time>
      </trkpt>
      <trkpt lat="42.62037" lon="-0.71842">
        <time>2022-07-30T10:00:12Z</time>
      </trkpt>
      <trkpt lat="42.62054" lon="-0.71826">
        <time>2022-07-30T10:00:13Z</time>
      </trkpt>
      <trkpt lat="42.62071" lon="-0.7181">
        <time>2022-07-30T10:00:14Z</time>
      </trkpt>
      <trkpt lat="42.62089" lon="-0.71797">
        <time>2022-07-30T10:00:15Z</time>
      </trkpt>
      <trkpt lat="42.62108" lon="-0.71786">
        <time>2022-07-30T10:00:16Z</time>
      </trkpt>
      <trkpt lat="42.62128" lon="-0.71778">
        <time>2022-07-30T10:00:17Z</time>
      </trkpt>
      <trkpt lat="42.62148" lon="-0.71771">
        <time>2022-07-30T10:00:18Z</time>
      </trkpt>
      <trkpt lat="42.62169" lon="-0.71765">
        <time>2022-07-30T10:00:19Z</time>
      </trkpt>
      <trkpt lat="42.62189" lon="-0.71761">
        <time>2022-07-30T10:00:20Z</time>
      </trkpt>
      <trkpt lat="42.62209" lon="-0.71757">
        <time>2022-07-30T10:00:21Z</time>
      </trkpt>
      <trkpt lat="42.62228" lon="-0.71753">
        <time>2022-07-30T10:00:22Z</time>
      </trkpt>
      <trkpt lat="42.62247" lon="-0.71748">
        <time>2022-07-30T10:00:23Z</time>
      </trkpt>
      <trkpt lat="42.62267" lon="-0.71743">
        <time>2022-07-30T10:00:24Z</time>
      </trkpt>
      <trkpt lat="42.62287" lon="-0.71739">
        <time>2022-07-30T10:00:25Z</time>
      </trkpt>
      <trkpt lat="42.62306" lon="-0.71735">
        <time>2022-07-30T10:00:26Z</time>
      </trkpt>
      <trkpt lat="42.62326" lon="-0.71731">
        <time>2022-07-30T10:00:27Z</time>
      </trkpt>
      <trkpt lat="42.62346" lon="-0.71727">
        <time>2022-07-30T10:00:28Z</time>
      </trkpt>
      <trkpt lat="42.62366" lon="-0.71723">
        <time>2022-07-30T10:00:29Z</time>
      </trkpt>
      <trkpt lat="42.62386" lon="-0.71719">
        <time>2022-07-30T10:00:30Z</time>
      </trkpt>
      <trkpt lat="42.62406" lon="-0.71715">
        <time>2022-07-30T10:00:31Z</time>
      </trkpt>
      <trkpt lat="42.62426" lon="-0.7171">
        <time>2022-07-30T10:00:32Z</time>
      </trkpt>
      <trkpt lat="42.62445" lon="-0.71706">
        <time>2022-07-30T10:00:33Z</time>
      </trkpt>
      <trkpt lat="42.62464" lon="-0.71701">
        <time>2022-07-30T10:00:34Z</time>
      </trkpt>
      <trkpt lat="42.62482" lon="-0.71697">
        <time>2022-07-30T10:00:35Z</time>
      </trkpt>
      <trkpt lat="42.625" lon="-0.71693">
        <time>2022-07-30T10:00:36Z</time>
      </trkpt>
      <trkpt lat="42.62515" lon="-0.7169">
        <time>2022-07-30T10:00:37Z</time>
      </trkpt>
      <trkpt lat="42.62531" lon="-0.71686">
        <time>2022-07-30T10:00:38Z</time>
      </trkpt>
      <trkpt lat="42.62545" lon="-0.71683">
        <time>2022-07-30T10:00:39Z</time>
      </trkpt>
      <trkpt lat="42.62559" lon="-0.7168">
        <time>2022-07-30T10:00:40Z</time>
      </trkpt>
      <trkpt lat="42.62572" lon="-0.71677">
        <time>2022-07-30T10:00:41Z</time>
      </trkpt>
      <trkpt lat="42.62585" lon="-0.71674">
        <time>2022-07-30T10:00:42Z</time>
      </trkpt>
      <trkpt lat="42.62597" lon="-0.71671">
        <time>2022-07-30T10:00:43Z</time>
      </trkpt>
      <trkpt lat="42.62609" lon="-0.71668">
        <time>2022-07-30T10:00:44Z</time>
      </trkpt>
      <trkpt lat="42.62621" lon="-0.71665">
        <time>2022-07-30T10:00:45Z</time>
      </trkpt>
      <trkpt lat="42.62633" lon="-0.71662">
        <time>2022-07-30T10:00:46Z</time>
      </trkpt>
      <trkpt lat="42.62646" lon="-0.71659">
        <time>2022-07-30T10:00:47Z</time>
      </trkpt>
      <trkpt lat="42.62658" lon="-0.71656">
        <time>2022-07-30T10:00:48Z</time>
      </trkpt>
      <trkpt lat="42.6267" lon="-0.71653">
        <time>2022-07-30T10:00:49Z</time>
      </trkpt>
      <trkpt lat="42.62681" lon="-0.7165">
        <time>2022-07-30T10:00:50Z</time>
      </trkpt>
      <trkpt lat="42.62693" lon="-0.71647">
        <time>2022-07-30T10:00:51Z</time>
      </trkpt>
      <trkpt lat="42.62706" lon="-0.71644">
        <time>2022-07-30T10:00:52Z</time>
      </trkpt>
      <trkpt lat="42.62718" lon="-0.71642">
        <time>2022-07-30T10:00:53Z</time>
      </trkpt>
      <trkpt lat="42.6273" lon="-0.7164">
        <time>2022-07-30T10:00:54Z</time>
      </trkpt>
      <trkpt lat="42.62743" lon="-0.71639">
        <time>2022-07-30T10:00:55Z</time>
      </trkpt>
      <trkpt lat="42.62756" lon="-0.71639">
        <time>2022-07-30T10:00:56Z</time>
      </trkpt>
      <trkpt lat="42.62769" lon="-0.7164">
        <time>2022-07-30T10:00:57Z</time>
      </trkpt>
      <trkpt lat="42.62783" lon="-0.71642">
        <time>2022-07-30T10:00:58Z</time>
      </trkpt>
      <trkpt lat="42.62796" lon="-0.71645">
        <time>2022-07-30T10:00:59Z</time>
      </trkpt>
      <trkpt lat="42.62809" lon="-0.71649">
        <time>2022-07-30T10:01:00Z</time>
      </trkpt>
      <trkpt lat="42.62823" lon="-0.71654">
        <time>2022-07-30T10:01:01Z</time>
      </trkpt>
      <trkpt lat="42.62836" lon="-0.7166">
        <time>2022-07-30T10:01:02Z</time>
      </trkpt>
      <trkpt lat="42.6285" lon="-0.71667">
        <time>2022-07-30T10:01:03Z</time>
      </trkpt>
      <trkpt lat="42.62864" lon="-0.71674">
        <time>2022-07-30T10:01:04Z</time>
      </trkpt>
      <trkpt lat="42.62878" lon="-0.71682">
        <time>2022-07-30T10:01:05Z</time>
      </trkpt>
      <trkpt lat="42.62892" lon="-0.71689">
        <time>2022-07-30T10:01:06Z</time>
      </trkpt>
      <trkpt lat="42.62907" lon="-0.71697">
        <time>2022-07-30T10:01:07Z</time>
      </trkpt>
      <trkpt lat="42.62921" lon="-0.71704">
        <time>2022-07-30T10:01:08Z</time>
      </trkpt>
      <trkpt lat="42.62936" lon="-0.71712">
        <time>2022-07-30T10:01:09Z</time>
      </trkpt>
      <trkpt lat="42.62951" lon="-0.7172">
        <time>2022-07-30T10:01:10Z</time>
      </trkpt>
      <trkpt lat="42.62967" lon="-0.71728">
        <time>2022-07-30T10:01:11Z</time>
      </trkpt>
      <trkpt lat="42.62983" lon="-0.71736">
        <time>2022-07-30T10:01:12Z</time>
      </trkpt>
      <trkpt lat="42.62998" lon="-0.71744">
        <time>2022-07-30T10:01:13Z</time>
      </trkpt>
      <trkpt lat="42.63014" lon="-0.71752">
        <time>2022-07-30T10:01:14Z</time>
      </trkpt>
      <trkpt lat="42.63029" lon="-0.71762">
        <time>2022-07-30T10:01:15Z</time>
      </trkpt>
      <trkpt lat="42.63043" lon="-0.71773">
        <time>2022-07-30T10:01:16Z</time>
      </trkpt>
      <trkpt lat="42.63058" lon="-0.71785">
        <time>2022-07-30T10:01:17Z</time>
      </trkpt>
      <trkpt lat="42.63072" lon="-0.718">
        <time>2022-07-30T10:01:18Z</time>
      </trkpt>
      <trkpt lat="42.63086" lon="-0.71816">
        <time>2022-07-30T10:01:19Z</time>
      </trkpt>
      <trkpt lat="42.631" lon="-0.71834">
        <time>2022-07-30T10:01:20Z</time>
      </trkpt>
      <trkpt lat="42.63112" lon="-0.71853">
        <time>2022-07-30T10:01:21Z</time>
      </trkpt>
      <trkpt lat="42.63123" lon="-0.71872">
        <time>2022-07-30T10:01:22Z</time>
      </trkpt>
      <trkpt lat="42.63135" lon="-0.71892">
        <time>2022-07-30T10:01:23Z</time>
      </trkpt>
      <trkpt lat="42.63148" lon="-0.71912">
        <time>2022-07-30T10:01:24Z</time>
      </trkpt>
      <trkpt lat="42.63161" lon="-0.71932">
        <time>2022-07-30T10:01:25Z</time>
      </trkpt>
      <trkpt lat="42.63174" lon="-0.71951">
        <time>2022-07-30T10:01:26Z</time>
      </trkpt>
      <trkpt lat="42.63187" lon="-0.71969">
        <time>2022-07-30T10:01:27Z</time>
      </trkpt>
      <trkpt lat="42.63202" lon="-0.71987">
        <time>2022-07-30T10:01:28Z</time>
      </trkpt>
      <trkpt lat="42.63218" lon="-0.72002">
        <time>2022-07-30T10:01:29Z</time>
      </trkpt>
      <trkpt lat="42.63234" lon="-0.72017">
        <time>2022-07-30T10:01:30Z</time>
      </trkpt>
      <trkpt lat="42.63251" lon="-0.72031">
        <time>2022-07-30T10:01:31Z</time>
      </trkpt>
      <trkpt lat="42.63269" lon="-0.72044">
        <time>2022-07-30T10:01:32Z</time>
      </trkpt>
      <trkpt lat="42.63288" lon="-0.72055">
        <time>2022-07-30T10:01:33Z</time>
      </trkpt>
      <trkpt lat="42.63308" lon="-0.72064">
        <time>2022-07-30T10:01:34Z</time>
      </trkpt>
      <trkpt lat="42.63327" lon="-0.72072">
        <time>2022-07-30T10:01:35Z</time>
      </trkpt>
      <trkpt lat="42.63346" lon="-0.72079">
        <time>2022-07-30T10:01:36Z</time>
      </trkpt>
      <trkpt lat="42.63365" lon="-0.72087">
        <time>2022-07-30T10:01:37Z</time>
      </trkpt>
      <trkpt lat="42.63383" lon="-0.72096">
        <time>2022-07-30T10:01:38Z</time>
      </trkpt>
      <trkpt lat="42.63402" lon="-0.72107">
        <time>2022-07-30T10:01:39Z</time>
      </trkpt>
      <trkpt lat="42.6342" lon="-0.72119">
        <time>2022-07-30T10:01:40Z</time>
      </trkpt>
      <trkpt lat="42.63438" lon="-0.72134">
        <time>2022-07-30T10:01:41Z</time>
      </trkpt>
      <trkpt lat="42.63454" lon="-0.7215">
        <time>2022-07-30T10:01:42Z</time>
      </trkpt>
      <trkpt lat="42.6347" lon="-0.72167">
        <time>2022-07-30T10:01:43Z</time>
      </trkpt>
      <trkpt lat="42.63486" lon="-0.72183">
        <time>2022-07-30T10:01:44Z</time>
      </trkpt>
      <trkpt lat="42.63502" lon="-0.72199">
        <time>2022-07-30T10:01:45Z</time>
      </trkpt>
      <trkpt lat="42.63518" lon="-0.72213">
        <time>2022-07-30T10:01:46Z</time>
      </trkpt>
      <trkpt lat="42.63535" lon="-0.72225">
        <time>2022-07-30T10:01:47Z</time>
      </trkpt>
      <trkpt lat="42.63553" lon="-0.72235">
        <time>2022-07-30T10:01:48Z</time>
      </trkpt>
      <trkpt lat="42.63571" lon="-0.72243">
        <time>2022-07-30T10:01:49Z</time>
      </trkpt>
      <trkpt lat="42.6359" lon="-0.7225">
        <time>2022-07-30T10:01:50Z</time>
      </trkpt>
      <trkpt lat="42.63609" lon="-0.72255">
        <time>2022-07-30T10:01:51Z</time>
      </trkpt>
      <trkpt lat="42.63629" lon="-0.7226">
        <time>2022-07-30T10:01:52Z</time>
      </trkpt>
      <trkpt lat="42.63648" lon="-0.72264">
        <time>2022-07-30T10:01:53Z</time>
      </trkpt>
      <trkpt lat="42.63667" lon="-0.72269">
        <time>2022-07-30T10:01:54Z</time>
      </trkpt>
      <trkpt lat="42.63686" lon="-0.72275">
        <time>2022-07-30T10:01:55Z</time>
      </trkpt>
      <trkpt lat="42.63705" lon="-0.72281">
        <time>2022-07-30T10:01:56Z</time>
      </trkpt>
      <trkpt lat="42.63724" lon="-0.72288">
        <time>2022-07-30T10:01:57Z</time>
      </trkpt>
      <trkpt lat="42.63743" lon="-0.72296">
        <time>2022-07-30T10:01:58Z</time>
      </trkpt>
      <trkpt lat="42.63761" lon="-0.72304">
        <time>2022-07-30T10:01:59Z</time>
      </trkpt>
      <trkpt lat="42.6378" lon="-0.72312">
        <time>2022-07-30T10:02:00Z</time>
      </trkpt>
      <trkpt lat="42.63799" lon="-0.7232">
        <time>2022-07-30T10:02:01Z</time>
      </trkpt>
      <trkpt lat="42.63817" lon="-0.72329">
        <time>2022-07-30T10:02:02Z</time>
      </trkpt>
      <trkpt lat="42.63835" lon="-0.72338">
        <time>2022-07-30T10:02:03Z</time>
      </trkpt>
      <trkpt lat="42.63852" lon="-0.72349">
        <time>2022-07-30T10:02:04Z</time>
      </trkpt>
      <trkpt lat="42.63868" lon="-0.72361">
        <time>2022-07-30T10:02:05Z</time>
      </trkpt>
      <trkpt lat="42.63885" lon="-0.72374">
        <time>2022-07-30T10:02:06Z</time>
      </trkpt>
      <trkpt lat="42.639" lon="-0.7239">
        <time>2022-07-30T10:02:07Z</time>
      </trkpt>
      <trkpt lat="42.63916" lon="-0.72406">
        <time>2022-07-30T10:02:08Z</time>
      </trkpt>
      <trkpt lat="42.63931" lon="-0.72424">
        <time>2022-07-30T10:02:09Z</time>
      </trkpt>
      <trkpt lat="42.63947" lon="-0.72442">
        <time>2022-07-30T10:02:10Z</time>
      </trkpt>
      <trkpt lat="42.63963" lon="-0.7246">
        <time>2022-07-30T10:02:11Z</time>
      </trkpt>
      <trkpt lat="42.63979" lon="-0.72478">
        <time>2022-07-30T10:02:12Z</time>
      </trkpt>
      <trkpt lat="42.63995" lon="-0.72497">
        <time>2022-07-30T10:02:13Z</time>
      </trkpt>
      <trkpt lat="42.64011" lon="-0.72515">
        <time>2022-07-30T10:02:14Z</time>
      </trkpt>
      <trkpt lat="42.64027" lon="-0.72533">
        <time>2022-07-30T10:02:15Z</time>
      </trkpt>
      <trkpt lat="42.64043" lon="-0.72551">
        <time>2022-07-30T10:02:16Z</time>
      </trkpt>
      <trkpt lat="42.64059" lon="-0.72569">
        <time>2022-07-30T10:02:17Z</time>
      </trkpt>
      <trkpt lat="42.64075" lon="-0.72588">
        <time>2022-07-30T10:02:18Z</time>
      </trkpt>
      <trkpt lat="42.64091" lon="-0.72606">
        <time>2022-07-30T10:02:19Z</time>
      </trkpt>
      <trkpt lat="42.64107" lon="-0.72624">
        <time>2022-07-30T10:02:20Z</time>
      </trkpt>
      <trkpt lat="42.64123" lon="-0.72642">
        <time>2022-07-30T10:02:21Z</time>
      </trkpt>
      <trkpt lat="42.64138" lon="-0.72659">
        <time>2022-07-30T10:02:22Z</time>
      </trkpt>
      <trkpt lat="42.64154" lon="-0.72678">
        <time>2022-07-30T10:02:23Z</time>
      </trkpt>
      <trkpt lat="42.64169" lon="-0.72695">
        <time>2022-07-30T10:02:24Z</time>
      </trkpt>
      <trkpt lat="42.64185" lon="-0.72713">
        <time>2022-07-30T10:02:25Z</time>
      </trkpt>
      <trkpt lat="42.64201" lon="-0.7273">
        <time>2022-07-30T10:02:26Z</time>
      </trkpt>
      <trkpt lat="42.64216" lon="-0.72748">
        <time>2022-07-30T10:02:27Z</time>
      </trkpt>
      <trkpt lat="42.64232" lon="-0.72765">
        <time>2022-07-30T10:02:28Z</time>
      </trkpt>
      <trkpt lat="42.64246" lon="-0.72782">
        <time>2022-07-30T10:02:29Z</time>
      </trkpt>
      <trkpt lat="42.64261" lon="-0.72798">
        <time>2022-07-30T10:02:30Z</time>
      </trkpt>
      <trkpt lat="42.64276" lon="-0.72813">
        <time>2022-07-30T10:02:31Z</time>
      </trkpt>
      <trkpt lat="42.64292" lon="-0.72827">
        <time>2022-07-30T10:02:32Z</time>
      </trkpt>
      <trkpt lat="42.64308" lon="-0.72838">
        <time>2022-07-30T10:02:33Z</time>
      </trkpt>
      <trkpt lat="42.64326" lon="-0.72847">
        <time>2022-07-30T10:02:34Z</time>
      </trkpt>
      <trkpt lat="42.64343" lon="-0.72853">
        <time>2022-07-30T10:02:35Z</time>
      </trkpt>
      <trkpt lat="42.64362" lon="-0.72856">
        <time>2022-07-30T10:02:36Z</time>
      </trkpt>
      <trkpt lat="42.6438" lon="-0.72856">
        <time>2022-07-30T10:02:37Z</time>
      </trkpt>
      <trkpt lat="42.64399" lon="-0.72853">
        <time>2022-07-30T10:02:38Z</time>
      </trkpt>
      <trkpt lat="42.64418" lon="-0.72848">
        <time>2022-07-30T10:02:39Z</time>
      </trkpt>
      <trkpt lat="42.64436" lon="-0.7284">
        <time>2022-07-30T10:02:40Z</time>
      </trkpt>
      <trkpt lat="42.64455" lon="-0.72832">
        <time>2022-07-30T10:02:41Z</time>
      </trkpt>
      <trkpt lat="42.64474" lon="-0.72823">
        <time>2022-07-30T10:02:42Z</time>
      </trkpt>
      <trkpt lat="42.64492" lon="-0.72814">
        <time>2022-07-30T10:02:43Z</time>
      </trkpt>
      <trkpt lat="42.64511" lon="-0.72806">
        <time>2022-07-30T10:02:44Z</time>
      </trkpt>
      <trkpt lat="42.6453" lon="-0.728">
        <time>2022-07-30T10:02:45Z</time>
      </trkpt>
      <trkpt lat="42.6455" lon="-0.72794">
        <time>2022-07-30T10:02:46Z</time>
      </trkpt>
      <trkpt lat="42.6457" lon="-0.7279">
        <time>2022-07-30T10:02:47Z</time>
      </trkpt>
      <trkpt lat="42.6459" lon="-0.72788">
        <time>2022-07-30T10:02:48Z</time>
      </trkpt>
      <trkpt lat="42.64611" lon="-0.72788">
        <time>2022-07-30T10:02:49Z</time>
      </trkpt>
      <trkpt lat="42.64631" lon="-0.72789">
        <time>2022-07-30T10:02:50Z</time>
      </trkpt>
      <trkpt lat="42.64652" lon="-0.72791">
        <time>2022-07-30T10:02:51Z</time>
      </trkpt>
      <trkpt lat="42.64672" lon="-0.72794">
        <time>2022-07-30T10:02:52Z</time>
      </trkpt>
      <trkpt lat="42.64693" lon="-0.72796">
        <time>2022-07-30T10:02:53Z</time>
      </trkpt>
      <trkpt lat="42.64714" lon="-0.72799">
        <time>2022-07-30T10:02:54Z</time>
      </trkpt>
      <trkpt lat="42.64735" lon="-0.72801">
        <time>2022-07-30T10:02:55Z</time>
      </trkpt>
      <trkpt lat="42.64756" lon="-0.72804">
        <time>2022-07-30T10:02:56Z</time>
      </trkpt>
      <trkpt lat="42.64777" lon="-0.72807">
        <time>2022-07-30T10:02:57Z</time>
      </trkpt>
      <trkpt lat="42.64799" lon="-0.7281">
        <time>2022-07-30T10:02:58Z</time>
      </trkpt>
      <trkpt lat="42.6482" lon="-0.72813">
        <time>2022-07-30T10:02:59Z</time>
      </trkpt>
      <trkpt lat="42.64842" lon="-0.72815">
        <time>2022-07-30T10:03:00Z</time>
      </trkpt>
      <trkpt lat="42.64863" lon="-0.72818">
        <time>2022-07-30T10:03:01Z</time>
      </trkpt>
      <trkpt lat="42.64885" lon="-0.72821">
        <time>2022-07-30T10:03:02Z</time>
      </trkpt>
      <trkpt lat="42.64907" lon="-0.72824">
        <time>2022-07-30T10:03:03Z</time>
      </trkpt>
      <trkpt lat="42.64928" lon="-0.72827">
        <time>2022-07-30T10:03:04Z</time>
      </trkpt>
      <trkpt lat="42.64951" lon="-0.7283">
        <time>2022-07-30T10:03:05Z</time>
      </trkpt>
      <trkpt lat="42.64973" lon="-0.72833">
        <time>2022-07-30T10:03:06Z</time>
      </trkpt>
      <trkpt lat="42.64995" lon="-0.72836">
        <time>2022-07-30T10:03:07Z</time>
      </trkpt>
      <trkpt lat="42.65017" lon="-0.72839">
        <time>2022-07-30T10:03:08Z</time>
      </trkpt>
      <trkpt lat="42.6504" lon="-0.72842">
        <time>2022-07-30T10:03:09Z</time>
      </trkpt>
      <trkpt lat="42.65063" lon="-0.72845">
        <time>2022-07-30T10:03:10Z</time>
      </trkpt>
      <trkpt lat="42.65085" lon="-0.72848">
        <time>2022-07-30T10:03:11Z</time>
      </trkpt>
      <trkpt lat="42.65108" lon="-0.72851">
        <time>2022-07-30T10:03:12Z</time>
      </trkpt>
      <trkpt lat="42.65131" lon="-0.72855">
        <time>2022-07-30T10:03:13Z</time>
      </trkpt>
      <trkpt lat="42.65154" lon="-0.72858">
        <time>2022-07-30T10:03:14Z</time>
      </trkpt>
      <trkpt lat="42.65176" lon="-0.72861">
        <time>2022-07-30T10:03:15Z</time>
      </trkpt>
      <trkpt lat="42.65199" lon="-0.72864">
        <time>2022-07-30T10:03:16Z</time>
      </trkpt>
      <trkpt lat="42.65222" lon="-0.72866">
        <time>2022-07-30T10:03:17Z</time>
      </trkpt>
      <trkpt lat="42.65244" lon="-0.72869">
        <time>2022-07-30T10:03:18Z</time>
      </trkpt>
      <trkpt lat="42.65266" lon="-0.7287">
        <time>2022-07-30T10:03:19Z</time>
      </trkpt>
      <trkpt lat="42.65287" lon="-0.7287">
        <time>2022-07-30T10:03:20Z</time>
      </trkpt>
      <trkpt lat="42.65307" lon="-0.72869">
        <time>2022-07-30T10:03:21Z</time>
      </trkpt>
      <trkpt lat="42.65328" lon="-0.72867">
        <time>2022-07-30T10:03:22Z</time>
      </trkpt>
      <trkpt lat="42.65347" lon="-0.72863">
        <time>2022-07-30T10:03:23Z</time>
      </trkpt>
      <trkpt lat="42.65368" lon="-0.7286">
        <time>2022-07-30T10:03:24Z</time>
      </trkpt>
      <trkpt lat="42.65387" lon="-0.72856">
        <time>2022-07-30T10:03:25Z</time>
      </trkpt>
      <trkpt lat="42.65407" lon="-0.72853">
        <time>2022-07-30T10:03:26Z</time>
      </trkpt>
      <trkpt lat="42.65427" lon="-0.72851">
        <time>2022-07-30T10:03:27Z</time>
      </trkpt>
      <trkpt lat="42.65448" lon="-0.72849">
        <time>2022-07-30T10:03:28Z</time>
      </trkpt>
      <trkpt lat="42.65469" lon="-0.72849">
        <time>2022-07-30T10:03:29Z</time>
      </trkpt>
      <trkpt lat="42.6549" lon="-0.7285">
        <time>2022-07-30T10:03:30Z</time>
      </trkpt>
      <trkpt lat="42.65511" lon="-0.72853">
        <time>2022-07-30T10:03:31Z</time>
      </trkpt>
      <trkpt lat="42.65533" lon="-0.72856">
        <time>2022-07-30T10:03:32Z</time>
      </trkpt>
      <trkpt lat="42.65555" lon="-0.7286">
        <time>2022-07-30T10:03:33Z</time>
      </trkpt>
      <trkpt lat="42.65577" lon="-0.72864">
        <time>2022-07-30T10:03:34Z</time>
      </trkpt>
      <trkpt lat="42.656" lon="-0.72869">
        <time>2022-07-30T10:03:35Z</time>
      </trkpt>
      <trkpt lat="42.65622" lon="-0.72873">
        <time>2022-07-30T10:03:36Z</time>
      </trkpt>
      <trkpt lat="42.65645" lon="-0.72879">
        <time>2022-07-30T10:03:37Z</time>
      </trkpt>
      <trkpt lat="42.65668" lon="-0.72883">
        <time>2022-07-30T10:03:38Z</time>
      </trkpt>
      <trkpt lat="42.65691" lon="-0.72888">
        <time>2022-07-30T10:03:39Z</time>
      </trkpt>
      <trkpt lat="42.65714" lon="-0.72892">
        <time>2022-07-30T10:03:40Z</time>
      </trkpt>
      <trkpt lat="42.65738" lon="-0.72895">
        <time>2022-07-30T10:03:41Z</time>
      </trkpt>
      <trkpt lat="42.65761" lon="-0.72896">
        <time>2022-07-30T10:03:42Z</time>
      </trkpt>
      <trkpt lat="42.65784" lon="-0.72897">
        <time>2022-07-30T10:03:43Z</time>
      </trkpt>
      <trkpt lat="42.65807" lon="-0.72897">
        <time>2022-07-30T10:03:44Z</time>
      </trkpt>
      <trkpt lat="42.65829" lon="-0.72897">
        <time>2022-07-30T10:03:45Z</time>
      </trkpt>
      <trkpt lat="42.65851" lon="-0.72898">
        <time>2022-07-30T10:03:46Z</time>
      </trkpt>
      <trkpt lat="42.65872" lon="-0.72901">
        <time>2022-07-30T10:03:47Z</time>
      </trkpt>
      <trkpt lat="42.65893" lon="-0.72907">
        <time>2022-07-30T10:03:48Z</time>
      </trkpt>
      <trkpt lat="42.65914" lon="-0.72916">
        <time>2022-07-30T10:03:49Z</time>
      </trkpt>
      <trkpt lat="42.65934" lon="-0.72925">
        <time>2022-07-30T10:03:50Z</time>
      </trkpt>
      <trkpt lat="42.65955" lon="-0.72936">
        <time>2022-07-30T10:03:51Z</time>
      </trkpt>
      <trkpt lat="42.65976" lon="-0.72946">
        <time>2022-07-30T10:03:52Z</time>
      </trkpt>
      <trkpt lat="42.65998" lon="-0.72955">
        <time>2022-07-30T10:03:53Z</time>
      </trkpt>
      <trkpt lat="42.6602" lon="-0.72962">
        <time>2022-07-30T10:03:54Z</time>
      </trkpt>
      <trkpt lat="42.66042" lon="-0.7297">
        <time>2022-07-30T10:03:55Z</time>
      </trkpt>
      <trkpt lat="42.66065" lon="-0.72977">
        <time>2022-07-30T10:03:56Z</time>
      </trkpt>
      <trkpt lat="42.66088" lon="-0.72984">
        <time>2022-07-30T10:03:57Z</time>
      </trkpt>
      <trkpt lat="42.66111" lon="-0.72991">
        <time>2022-07-30T10:03:58Z</time>
      </trkpt>
      <trkpt lat="42.66134" lon="-0.72998">
        <time>2022-07-30T10:03:59Z</time>
      </trkpt>
      <trkpt lat="42.66158" lon="-0.73004">
        <time>2022-07-30T10:04:00Z</time>
      </trkpt>
      <trkpt lat="42.66181" lon="-0.7301">
        <time>2022-07-30T10:04:01Z</time>
      </trkpt>
      <trkpt lat="42.66205" lon="-0.73016">
        <time>2022-07-30T10:04:02Z</time>
      </trkpt>
      <trkpt lat="42.66229" lon="-0.73022">
        <time>2022-07-30T10:04:03Z</time>
      </trkpt>
      <trkpt lat="42.66253" lon="-0.73027">
        <time>2022-07-30T10:04:04Z</time>
      </trkpt>
      <trkpt lat="42.66276" lon="-0.73033">
        <time>2022-07-30T10:04:05Z</time>
      </trkpt>
      <trkpt lat="42.663" lon="-0.73038">
        <time>2022-07-30T10:04:06Z</time>
      </trkpt>
      <trkpt lat="42.66323" lon="-0.73043">
        <time>2022-07-30T10:04:07Z</time>
      </trkpt>
      <trkpt lat="42.66346" lon="-0.73048">
        <time>2022-07-30T10:04:08Z</time>
      </trkpt>
      <trkpt lat="42.66369" lon="-0.73053">
        <time>2022-07-30T10:04:09Z</time>
      </trkpt>
      <trkpt lat="42.66392" lon="-0.73058">
        <time>2022-07-30T10:04:10Z</time>
      </trkpt>
      <trkpt lat="42.66415" lon="-0.73062">
        <time>2022-07-30T10:04:11Z</time>
      </trkpt>
      <trkpt lat="42.66438" lon="-0.73067">
        <time>2022-07-30T10:04:12Z</time>
      </trkpt>
      <trkpt lat="42.66461" lon="-0.73073">
        <time>2022-07-30T10:04:13Z</time>
      </trkpt>
      <trkpt lat="42.66484" lon="-0.73078">
        <time>2022-07-30T10:04:14Z</time>
      </trkpt>
      <trkpt lat="42.66507" lon="-0.73084">
        <time>2022-07-30T10:04:15Z</time>
      </trkpt>
      <trkpt lat="42.6653" lon="-0.73089">
        <time>2022-07-30T10:04:16Z</time>
      </trkpt>
      <trkpt lat="42.66552" lon="-0.73095">
        <time>2022-07-30T10:04:17Z</time>
      </trkpt>
      <trkpt lat="42.66575" lon="-0.73101">
        <time>2022-07-30T10:04:18Z</time>
      </trkpt>
      <trkpt lat="42.66597" lon="-0.73108">
        <time>2022-07-30T10:04:19Z</time>
      </trkpt>
      <trkpt lat="42.66621" lon="-0.73114">
        <time>2022-07-30T10:04:20Z</time>
      </trkpt>
      <trkpt lat="42.66643" lon="-0.73121">
        <time>2022-07-30T10:04:21Z</time>
      </trkpt>
      <trkpt lat="42.66666" lon="-0.73128">
        <time>2022-07-30T10:04:22Z</time>
      </trkpt>
      <trkpt lat="42.66689" lon="-0.73136">
        <time>2022-07-30T10:04:23Z</time>
      </trkpt>
      <trkpt lat="42.66711" lon="-0.73143">
        <time>2022-07-30T10:04:24Z</time>
      </trkpt>
      <trkpt lat="42.66734" lon="-0.73151">
        <time>2022-07-30T10:04:25Z</time>
      </trkpt>
      <trkpt lat="42.66757" lon="-0.73158">
        <time>2022-07-30T10:04:26Z</time>
      </trkpt>
      <trkpt lat="42.66779" lon="-0.73165">
        <time>2022-07-30T10:04:27Z</time>
      </trkpt>
      <trkpt lat="42.66801" lon="-0.73173">
        <time>2022-07-30T10:04:28Z</time>
      </trkpt>
      <trkpt lat="42.66822" lon="-0.7318">
        <time>2022-07-30T10:04:29Z</time>
      </trkpt>
      <trkpt lat="42.66843" lon="-0.73187">
        <time>2022-07-30T10:04:30Z</time>
      </trkpt>
      <trkpt lat="42.66864" lon="-0.73194">
        <time>2022-07-30T10:04:31Z</time>
      </trkpt>
      <trkpt lat="42.66885" lon="-0.73201">
        <time>2022-07-30T10:04:32Z</time>
      </trkpt>
      <trkpt lat="42.66905" lon="-0.73208">
        <time>2022-07-30T10:04:33Z</time>
      </trkpt>
      <trkpt lat="42.66925" lon="-0.73215">
        <time>2022-07-30T10:04:34Z</time>
      </trkpt>
      <trkpt lat="42.66945" lon="-0.73222">
        <time>2022-07-30T10:04:35Z</time>
      </trkpt>
      <trkpt lat="42.66965" lon="-0.73229">
        <time>2022-07-30T10:04:36Z</time>
      </trkpt>
      <trkpt lat="42.66985" lon="-0.73235">
        <time>2022-07-30T10:04:37Z</time>
      </trkpt>
      <trkpt lat="42.67005" lon="-0.73242">
        <time>2022-07-30T10:04:38Z</time>
      </trkpt>
      <trkpt lat="42.67025" lon="-0.73248">
        <time>2022-07-30T10:04:39Z</time>
      </trkpt>
      <trkpt lat="42.67045" lon="-0.73255">
        <time>2022-07-30T10:04:40Z</time>
      </trkpt>
      <trkpt lat="42.67065" lon="-0.7326">
        <time>2022-07-30T10:04:41Z</time>
      </trkpt>
      <trkpt lat="42.67086" lon="-0.73265">
        <time>2022-07-30T10:04:42Z</time>
      </trkpt>
      <trkpt lat="42.67106" lon="-0.73267">
        <time>2022-07-30T10:04:43Z</time>
      </trkpt>
      <trkpt lat="42.67127" lon="-0.73268">
        <time>2022-07-30T10:04:44Z</time>
      </trkpt>
      <trkpt lat="42.67147" lon="-0.73266">
        <time>2022-07-30T10:04:45Z</time>
      </trkpt>
      <trkpt lat="42.67168" lon="-0.73263">
        <time>2022-07-30T10:04:46Z</time>
      </trkpt>
      <trkpt lat="42.67188" lon="-0.73259">
        <time>2022-07-30T10:04:47Z</time>
      </trkpt>
      <trkpt lat="42.67209" lon="-0.73254">
        <time>2022-07-30T10:04:48Z</time>
      </trkpt>
      <trkpt lat="42.67229" lon="-0.73248">
        <time>2022-07-30T10:04:49Z</time>
      </trkpt>
      <trkpt lat="42.6725" lon="-0.73242">
        <time>2022-07-30T10:04:50Z</time>
      </trkpt>
      <trkpt lat="42.6727" lon="-0.73236">
        <time>2022-07-30T10:04:51Z</time>
      </trkpt>
      <trkpt lat="42.6729" lon="-0.7323">
        <time>2022-07-30T10:04:52Z</time>
      </trkpt>
      <trkpt lat="42.6731" lon="-0.73224">
        <time>2022-07-30T10:04:53Z</time>
      </trkpt>
      <trkpt lat="42.6733" lon="-0.73217">
        <time>2022-07-30T10:04:54Z</time>
      </trkpt>
      <trkpt lat="42.67349" lon="-0.7321">
        <time>2022-07-30T10:04:55Z</time>
      </trkpt>
      <trkpt lat="42.67365" lon="-0.73204">
        <time>2022-07-30T10:04:56Z</time>
      </trkpt>
      <trkpt lat="42.6738" lon="-0.73199">
        <time>2022-07-30T10:04:57Z</time>
      </trkpt>
      <trkpt lat="42.67392" lon="-0.73194">
        <time>2022-07-30T10:04:58Z</time>
      </trkpt>
      <trkpt lat="42.67404" lon="-0.73189">
        <time>2022-07-30T10:04:59Z</time>
      </trkpt>
      <trkpt lat="42.67413" lon="-0.73185">
        <time>2022-07-30T10:05:00Z</time>
      </trkpt>
      <trkpt lat="42.6742" lon="-0.7318">
        <time>2022-07-30T10:05:01Z</time>
      </trkpt>
      <trkpt lat="42.67426" lon="-0.73177">
        <time>2022-07-30T10:05:02Z</time>
      </trkpt>
      <trkpt lat="42.67431" lon="-0.73174">
        <time>2022-07-30T10:05:03Z</time>
      </trkpt>
      <trkpt lat="42.67434" lon="-0.73172">
        <time>2022-07-30T10:05:04Z</time>
      </trkpt>
      <trkpt lat="42.67436" lon="-0.73171">
        <time>2022-07-30T10:05:05Z</time>
      </trkpt>
      <trkpt lat="42.67437" lon="-0.73171">
        <time>2022-07-30T10:09:16Z</time>
      </trkpt>
      <trkpt lat="42.67441" lon="-0.73169">
        <time>2022-07-30T10:09:17Z</time>
      </trkpt>
      <trkpt lat="42.67449" lon="-0.73166">
        <time>2022-07-30T10:09:18Z</time>
      </trkpt>
      <trkpt lat="42.67459" lon="-0.73164">
        <time>2022-07-30T10:09:19Z</time>
      </trkpt>
      <trkpt lat="42.6747" lon="-0.73162">
        <time>2022-07-30T10:09:20Z</time>
      </trkpt>
      <trkpt lat="42.67483" lon="-0.73158">
        <time>2022-07-30T10:09:21Z</time>
      </trkpt>
      <trkpt lat="42.67496" lon="-0.73153">
        <time>2022-07-30T10:09:22Z</time>
      </trkpt>
      <trkpt lat="42.6751" lon="-0.73148">
        <time>2022-07-30T10:09:23Z</time>
      </trkpt>
      <trkpt lat="42.67524" lon="-0.73143">
        <time>2022-07-30T10:09:24Z</time>
      </trkpt>
      <trkpt lat="42.67539" lon="-0.73137">
        <time>2022-07-30T10:09:25Z</time>
      </trkpt>
      <trkpt lat="42.67554" lon="-0.73132">
        <time>2022-07-30T10:09:26Z</time>
      </trkpt>
      <trkpt lat="42.67569" lon="-0.73126">
        <time>2022-07-30T10:09:27Z</time>
      </trkpt>
      <trkpt lat="42.67585" lon="-0.7312">
        <time>2022-07-30T10:09:28Z</time>
      </trkpt>
      <trkpt lat="42.67601" lon="-0.73114">
        <time>2022-07-30T10:09:29Z</time>
      </trkpt>
      <trkpt lat="42.67618" lon="-0.73107">
        <time>2022-07-30T10:09:30Z</time>
      </trkpt>
      <trkpt lat="42.67635" lon="-0.731">
        <time>2022-07-30T10:09:31Z</time>
      </trkpt>
      <trkpt lat="42.67652" lon="-0.73093">
        <time>2022-07-30T10:09:32Z</time>
      </trkpt>
      <trkpt lat="42.67669" lon="-0.73086">
        <time>2022-07-30T10:09:33Z</time>
      </trkpt>
      <trkpt lat="42.67686" lon="-0.7308">
        <time>2022-07-30T10:09:34Z</time>
      </trkpt>
      <trkpt lat="42.67704" lon="-0.73074">
        <time>2022-07-30T10:09:35Z</time>
      </trkpt>
      <trkpt lat="42.67722" lon="-0.7307">
        <time>2022-07-30T10:09:36Z</time>
      </trkpt>
      <trkpt lat="42.67741" lon="-0.73068">
        <time>2022-07-30T10:09:37Z</time>
      </trkpt>
      <trkpt lat="42.6776" lon="-0.73069">
        <time>2022-07-30T10:09:38Z</time>
      </trkpt>
      <trkpt lat="42.6778" lon="-0.73071">
        <time>2022-07-30T10:09:39Z</time>
      </trkpt>
      <trkpt lat="42.67801" lon="-0.73077">
        <time>2022-07-30T10:09:40Z</time>
      </trkpt>
      <trkpt lat="42.67821" lon="-0.73084">
        <time>2022-07-30T10:09:41Z</time>
      </trkpt>
      <trkpt lat="42.6784" lon="-0.73095">
        <time>2022-07-30T10:09:42Z</time>
      </trkpt>
      <trkpt lat="42.67859" lon="-0.73109">
        <time>2022-07-30T10:09:43Z</time>
      </trkpt>
      <trkpt lat="42.67877" lon="-0.73125">
        <time>2022-07-30T10:09:44Z</time>
      </trkpt>
      <trkpt lat="42.67895" lon="-0.73143">
        <time>2022-07-30T10:09:45Z</time>
      </trkpt>
      <trkpt lat="42.67912" lon="-0.73161">
        <time>2022-07-30T10:09:46Z</time>
      </trkpt>
      <trkpt lat="42.67929" lon="-0.73179">
        <time>2022-07-30T10:09:47Z</time>
      </trkpt>
      <trkpt lat="42.67945" lon="-0.73196">
        <time>2022-07-30T10:09:48Z</time>
      </trkpt>
      <trkpt lat="42.67962" lon="-0.73214">
        <time>2022-07-30T10:09:49Z</time>
      </trkpt>
      <trkpt lat="42.67979" lon="-0.7323">
        <time>2022-07-30T10:09:50Z</time>
      </trkpt>
      <trkpt lat="42.67998" lon="-0.73245">
        <time>2022-07-30T10:09:51Z</time>
      </trkpt>
      <trkpt lat="42.68016" lon="-0.7326">
        <time>2022-07-30T10:09:52Z</time>
      </trkpt>
      <trkpt lat="42.68035" lon="-0.73273">
        <time>2022-07-30T10:09:53Z</time>
      </trkpt>
      <trkpt lat="42.68055" lon="-0.73285">
        <time>2022-07-30T10:09:54Z</time>
      </trkpt>
      <trkpt lat="42.68076" lon="-0.73295">
        <time>2022-07-30T10:09:55Z</time>
      </trkpt>
      <trkpt lat="42.68096" lon="-0.73305">
        <time>2022-07-30T10:09:56Z</time>
      </trkpt>
      <trkpt lat="42.68118" lon="-0.73315">
        <time>2022-07-30T10:09:57Z</time>
      </trkpt>
      <trkpt lat="42.68139" lon="-0.73325">
        <time>2022-07-30T10:09:58Z</time>
      </trkpt>
      <trkpt lat="42.6816" lon="-0.73334">
        <time>2022-07-30T10:09:59Z</time>
      </trkpt>
      <trkpt lat="42.68182" lon="-0.73345">
        <time>2022-07-30T10:10:00Z</time>
      </trkpt>
      <trkpt lat="42.68203" lon="-0.73354">
        <time>2022-07-30T10:10:01Z</time>
      </trkpt>
      <trkpt lat="42.68224" lon="-0.73364">
        <time>2022-07-30T10:10:02Z</time>
      </trkpt>
      <trkpt lat="42.68244" lon="-0.73373">
        <time>2022-07-30T10:10:03Z</time>
      </trkpt>
      <trkpt lat="42.68265" lon="-0.73383">
        <time>2022-07-30T10:10:04Z</time>
      </trkpt>
      <trkpt lat="42.68286" lon="-0.73393">
        <time>2022-07-30T10:10:05Z</time>
      </trkpt>
      <trkpt lat="42.68307" lon="-0.73403">
        <time>2022-07-30T10:10:06Z</time>
      </trkpt>
      <trkpt lat="42.68328" lon="-0.73413">
        <time>2022-07-30T10:10:07Z</time>
      </trkpt>
      <trkpt lat="42.68349" lon="-0.73423">
        <time>2022-07-30T10:10:08Z</time>
      </trkpt>
      <trkpt lat="42.6837" lon="-0.73432">
        <time>2022-07-30T10:10:09Z</time>
      </trkpt>
      <trkpt lat="42.6839" lon="-0.73442">
        <time>2022-07-30T10:10:10Z</time>
      </trkpt>
      <trkpt lat="42.68411" lon="-0.73451">
        <time>2022-07-30T10:10:11Z</time>
      </trkpt>
      <trkpt lat="42.68433" lon="-0.7346">
        <time>2022-07-30T10:10:12Z</time>
      </trkpt>
      <trkpt lat="42.68456" lon="-0.7347">
        <time>2022-07-30T10:10:13Z</time>
      </trkpt>
      <trkpt lat="42.68478" lon="-0.7348">
        <time>2022-07-30T10:10:14Z</time>
      </trkpt>
      <trkpt lat="42.68501" lon="-0.7349">
        <time>2022-07-30T10:10:15Z</time>
      </trkpt>
      <trkpt lat="42.68523" lon="-0.735">
        <time>2022-07-30T10:10:16Z</time>
      </trkpt>
      <trkpt lat="42.68545" lon="-0.7351">
        <time>2022-07-30T10:10:17Z</time>
      </trkpt>
      <trkpt lat="42.68567" lon="-0.73521">
        <time>2022-07-30T10:10:18Z</time>
      </trkpt>
      <trkpt lat="42.6859" lon="-0.73531">
        <time>2022-07-30T10:10:19Z</time>
      </trkpt>
      <trkpt lat="42.68612" lon="-0.73541">
        <time>2022-07-30T10:10:20Z</time>
      </trkpt>
      <trkpt lat="42.68635" lon="-0.7355">
        <time>2022-07-30T10:10:21Z</time>
      </trkpt>
      <trkpt lat="42.68658" lon="-0.73557">
        <time>2022-07-30T10:10:22Z</time>
      </trkpt>
      <trkpt lat="42.68682" lon="-0.73564">
        <time>2022-07-30T10:10:23Z</time>
      </trkpt>
      <trkpt lat="42.68707" lon="-0.73567">
        <time>2022-07-30T10:10:24Z</time>
      </trkpt>
      <trkpt lat="42.68731" lon="-0.73569">
        <time>2022-07-30T10:10:25Z</time>
      </trkpt>
      <trkpt lat="42.68756" lon="-0.73571">
        <time>2022-07-30T10:10:26Z</time>
      </trkpt>
      <trkpt lat="42.6878" lon="-0.73572">
        <time>2022-07-30T10:10:27Z</time>
      </trkpt>
      <trkpt lat="42.68804" lon="-0.73574">
        <time>2022-07-30T10:10:28Z</time>
      </trkpt>
      <trkpt lat="42.68829" lon="-0.73575">
        <time>2022-07-30T10:10:29Z</time>
      </trkpt>
      <trkpt lat="42.68852" lon="-0.73577">
        <time>2022-07-30T10:10:30Z</time>
      </trkpt>
      <trkpt lat="42.68875" lon="-0.73579">
        <time>2022-07-30T10:10:31Z</time>
      </trkpt>
      <trkpt lat="42.68898" lon="-0.7358">
        <time>2022-07-30T10:10:32Z</time>
      </trkpt>
      <trkpt lat="42.68921" lon="-0.73581">
        <time>2022-07-30T10:10:33Z</time>
      </trkpt>
      <trkpt lat="42.68944" lon="-0.73583">
        <time>2022-07-30T10:10:34Z</time>
      </trkpt>
      <trkpt lat="42.68966" lon="-0.73586">
        <time>2022-07-30T10:10:35Z</time>
      </trkpt>
      <trkpt lat="42.68988" lon="-0.73591">
        <time>2022-07-30T10:10:36Z</time>
      </trkpt>
      <trkpt lat="42.69011" lon="-0.736">
        <time>2022-07-30T10:10:37Z</time>
      </trkpt>
      <trkpt lat="42.69032" lon="-0.73611">
        <time>2022-07-30T10:10:38Z</time>
      </trkpt>
      <trkpt lat="42.69052" lon="-0.73626">
        <time>2022-07-30T10:10:39Z</time>
      </trkpt>
      <trkpt lat="42.69072" lon="-0.73643">
        <time>2022-07-30T10:10:40Z</time>
      </trkpt>
      <trkpt lat="42.69092" lon="-0.73662">
        <time>2022-07-30T10:10:41Z</time>
      </trkpt>
      <trkpt lat="42.69112" lon="-0.73682">
        <time>2022-07-30T10:10:42Z</time>
      </trkpt>
      <trkpt lat="42.69132" lon="-0.73701">
        <time>2022-07-30T10:10:43Z</time>
      </trkpt>
      <trkpt lat="42.69152" lon="-0.7372">
        <time>2022-07-30T10:10:44Z</time>
      </trkpt>
      <trkpt lat="42.69172" lon="-0.7374">
        <time>2022-07-30T10:10:45Z</time>
      </trkpt>
      <trkpt lat="42.69192" lon="-0.73759">
        <time>2022-07-30T10:10:46Z</time>
      </trkpt>
      <trkpt lat="42.69212" lon="-0.73777">
        <time>2022-07-30T10:10:47Z</time>
      </trkpt>
      <trkpt lat="42.69232" lon="-0.73794">
        <time>2022-07-30T10:10:48Z</time>
      </trkpt>
      <trkpt lat="42.69253" lon="-0.7381">
        <time>2022-07-30T10:10:49Z</time>
      </trkpt>
      <trkpt lat="42.69274" lon="-0.73825">
        <time>2022-07-30T10:10:50Z</time>
      </trkpt>
      <trkpt lat="42.69296" lon="-0.73838">
        <time>2022-07-30T10:10:51Z</time>
      </trkpt>
      <trkpt lat="42.69317" lon="-0.73851">
        <time>2022-07-30T10:10:52Z</time>
      </trkpt>
      <trkpt lat="42.69337" lon="-0.73866">
        <time>2022-07-30T10:10:53Z</time>
      </trkpt>
      <trkpt lat="42.69355" lon="-0.73882">
        <time>2022-07-30T10:10:54Z</time>
      </trkpt>
      <trkpt lat="42.69373" lon="-0.739">
        <time>2022-07-30T10:10:55Z</time>
      </trkpt>
      <trkpt lat="42.6939" lon="-0.73919">
        <time>2022-07-30T10:10:56Z</time>
      </trkpt>
      <trkpt lat="42.69407" lon="-0.73939">
        <time>2022-07-30T10:10:57Z</time>
      </trkpt>
      <trkpt lat="42.69423" lon="-0.7396">
        <time>2022-07-30T10:10:58Z</time>
      </trkpt>
      <trkpt lat="42.69439" lon="-0.73981">
        <time>2022-07-30T10:10:59Z</time>
      </trkpt>
      <trkpt lat="42.69455" lon="-0.74003">
        <time>2022-07-30T10:11:00Z</time>
      </trkpt>
      <trkpt lat="42.6947" lon="-0.74025">
        <time>2022-07-30T10:11:01Z</time>
      </trkpt>
      <trkpt lat="42.69485" lon="-0.74048">
        <time>2022-07-30T10:11:02Z</time>
      </trkpt>
      <trkpt lat="42.69499" lon="-0.74071">
        <time>2022-07-30T10:11:03Z</time>
      </trkpt>
      <trkpt lat="42.69513" lon="-0.74093">
        <time>2022-07-30T10:11:04Z</time>
      </trkpt>
      <trkpt lat="42.69527" lon="-0.74114">
        <time>2022-07-30T10:11:05Z</time>
      </trkpt>
      <trkpt lat="42.69541" lon="-0.74136">
        <time>2022-07-30T10:11:06Z</time>
      </trkpt>
      <trkpt lat="42.69555" lon="-0.74157">
        <time>2022-07-30T10:11:07Z</time>
      </trkpt>
      <trkpt lat="42.69571" lon="-0.74177">
        <time>2022-07-30T10:11:08Z</time>
      </trkpt>
      <trkpt lat="42.69588" lon="-0.74196">
        <time>2022-07-30T10:11:09Z</time>
      </trkpt>
      <trkpt lat="42.69606" lon="-0.74214">
        <time>2022-07-30T10:11:10Z</time>
      </trkpt>
      <trkpt lat="42.69624" lon="-0.74232">
        <time>2022-07-30T10:11:11Z</time>
      </trkpt>
      <trkpt lat="42.69642" lon="-0.7425">
        <time>2022-07-30T10:11:12Z</time>
      </trkpt>
      <trkpt lat="42.6966" lon="-0.74269">
        <time>2022-07-30T10:11:13Z</time>
      </trkpt>
      <trkpt lat="42.69676" lon="-0.7429">
        <time>2022-07-30T10:11:14Z</time>
      </trkpt>
      <trkpt lat="42.69691" lon="-0.74313">
        <time>2022-07-30T10:11:15Z</time>
      </trkpt>
      <trkpt lat="42.69705" lon="-0.74337">
        <time>2022-07-30T10:11:16Z</time>
      </trkpt>
      <trkpt lat="42.69718" lon="-0.74362">
        <time>2022-07-30T10:11:17Z</time>
      </trkpt>
      <trkpt lat="42.6973" lon="-0.74388">
        <time>2022-07-30T10:11:18Z</time>
      </trkpt>
      <trkpt lat="42.69742" lon="-0.74413">
        <time>2022-07-30T10:11:19Z</time>
      </trkpt>
      <trkpt lat="42.69755" lon="-0.74438">
        <time>2022-07-30T10:11:20Z</time>
      </trkpt>
      <trkpt lat="42.69767" lon="-0.74463">
        <time>2022-07-30T10:11:21Z</time>
      </trkpt>
      <trkpt lat="42.6978" lon="-0.74486">
        <time>2022-07-30T10:11:22Z</time>
      </trkpt>
      <trkpt lat="42.69793" lon="-0.74508">
        <time>2022-07-30T10:11:23Z</time>
      </trkpt>
      <trkpt lat="42.69806" lon="-0.7453">
        <time>2022-07-30T10:11:24Z</time>
      </trkpt>
      <trkpt lat="42.6982" lon="-0.74552">
        <time>2022-07-30T10:11:25Z</time>
      </trkpt>
      <trkpt lat="42.69835" lon="-0.74572">
        <time>2022-07-30T10:11:26Z</time>
      </trkpt>
      <trkpt lat="42.69851" lon="-0.74591">
        <time>2022-07-30T10:11:27Z</time>
      </trkpt>
      <trkpt lat="42.69866" lon="-0.74609">
        <time>2022-07-30T10:11:28Z</time>
      </trkpt>
      <trkpt lat="42.69882" lon="-0.74625">
        <time>2022-07-30T10:11:29Z</time>
      </trkpt>
      <trkpt lat="42.69898" lon="-0.74639">
        <time>2022-07-30T10:11:30Z</time>
      </trkpt>
      <trkpt lat="42.69915" lon="-0.74652">
        <time>2022-07-30T10:11:31Z</time>
      </trkpt>
      <trkpt lat="42.69933" lon="-0.74663">
        <time>2022-07-30T10:11:32Z</time>
      </trkpt>
      <trkpt lat="42.69953" lon="-0.74672">
        <time>2022-07-30T10:11:33Z</time>
      </trkpt>
      <trkpt lat="42.69973" lon="-0.74678">
        <time>2022-07-30T10:11:34Z</time>
      </trkpt>
      <trkpt lat="42.69997" lon="-0.74682">
        <time>2022-07-30T10:11:35Z</time>
      </trkpt>
      <trkpt lat="42.70019" lon="-0.74684">
        <time>2022-07-30T10:11:36Z</time>
      </trkpt>
      <trkpt lat="42.70043" lon="-0.74687">
        <time>2022-07-30T10:11:37Z</time>
      </trkpt>
      <trkpt lat="42.70066" lon="-0.7469">
        <time>2022-07-30T10:11:38Z</time>
      </trkpt>
      <trkpt lat="42.70088" lon="-0.74693">
        <time>2022-07-30T10:11:39Z</time>
      </trkpt>
      <trkpt lat="42.70112" lon="-0.74696">
        <time>2022-07-30T10:11:40Z</time>
      </trkpt>
      <trkpt lat="42.70135" lon="-0.74699">
        <time>2022-07-30T10:11:41Z</time>
      </trkpt>
      <trkpt lat="42.70158" lon="-0.74702">
        <time>2022-07-30T10:11:42Z</time>
      </trkpt>
      <trkpt lat="42.70181" lon="-0.74706">
        <time>2022-07-30T10:11:43Z</time>
      </trkpt>
      <trkpt lat="42.70204" lon="-0.74711">
        <time>2022-07-30T10:11:44Z</time>
      </trkpt>
      <trkpt lat="42.70227" lon="-0.74718">
        <time>2022-07-30T10:11:45Z</time>
      </trkpt>
      <trkpt lat="42.70249" lon="-0.74726">
        <time>2022-07-30T10:11:46Z</time>
      </trkpt>
      <trkpt lat="42.70271" lon="-0.74734">
        <time>2022-07-30T10:11:47Z</time>
      </trkpt>
      <trkpt lat="42.70292" lon="-0.7474">
        <time>2022-07-30T10:11:48Z</time>
      </trkpt>
      <trkpt lat="42.70314" lon="-0.74745">
        <time>2022-07-30T10:11:49Z</time>
      </trkpt>
      <trkpt lat="42.70336" lon="-0.74747">
        <time>2022-07-30T10:11:50Z</time>
      </trkpt>
      <trkpt lat="42.70358" lon="-0.74748">
        <time>2022-07-30T10:11:51Z</time>
      </trkpt>
      <trkpt lat="42.70378" lon="-0.74749">
        <time>2022-07-30T10:11:52Z</time>
      </trkpt>
      <trkpt lat="42.70399" lon="-0.74751">
        <time>2022-07-30T10:11:53Z</time>
      </trkpt>
      <trkpt lat="42.7042" lon="-0.74755">
        <time>2022-07-30T10:11:54Z</time>
      </trkpt>
      <trkpt lat="42.70441" lon="-0.74763">
        <time>2022-07-30T10:11:55Z</time>
      </trkpt>
      <trkpt lat="42.70461" lon="-0.74773">
        <time>2022-07-30T10:11:56Z</time>
      </trkpt>
      <trkpt lat="42.7048" lon="-0.74787">
        <time>2022-07-30T10:11:57Z</time>
      </trkpt>
      <trkpt lat="42.70499" lon="-0.74803">
        <time>2022-07-30T10:11:58Z</time>
      </trkpt>
      <trkpt lat="42.70517" lon="-0.74822">
        <time>2022-07-30T10:11:59Z</time>
      </trkpt>
      <trkpt lat="42.70535" lon="-0.74841">
        <time>2022-07-30T10:12:00Z</time>
      </trkpt>
      <trkpt lat="42.70554" lon="-0.74859">
        <time>2022-07-30T10:12:01Z</time>
      </trkpt>
      <trkpt lat="42.70573" lon="-0.74877">
        <time>2022-07-30T10:12:02Z</time>
      </trkpt>
      <trkpt lat="42.70593" lon="-0.74894">
        <time>2022-07-30T10:12:03Z</time>
      </trkpt>
      <trkpt lat="42.70614" lon="-0.7491">
        <time>2022-07-30T10:12:04Z</time>
      </trkpt>
      <trkpt lat="42.70635" lon="-0.74923">
        <time>2022-07-30T10:12:05Z</time>
      </trkpt>
      <trkpt lat="42.70656" lon="-0.74936">
        <time>2022-07-30T10:12:06Z</time>
      </trkpt>
      <trkpt lat="42.70676" lon="-0.74948">
        <time>2022-07-30T10:12:07Z</time>
      </trkpt>
      <trkpt lat="42.70696" lon="-0.7496">
        <time>2022-07-30T10:12:08Z</time>
      </trkpt>
      <trkpt lat="42.70714" lon="-0.74971">
        <time>2022-07-30T10:12:09Z</time>
      </trkpt>
      <trkpt lat="42.70733" lon="-0.74982">
        <time>2022-07-30T10:12:10Z</time>
      </trkpt>
      <trkpt lat="42.70751" lon="-0.74991">
        <time>2022-07-30T10:12:11Z</time>
      </trkpt>
      <trkpt lat="42.7077" lon="-0.74999">
        <time>2022-07-30T10:12:12Z</time>
      </trkpt>
      <trkpt lat="42.70789" lon="-0.75006">
        <time>2022-07-30T10:12:13Z</time>
      </trkpt>
      <trkpt lat="42.70809" lon="-0.75013">
        <time>2022-07-30T10:12:14Z</time>
      </trkpt>
      <trkpt lat="42.70829" lon="-0.75018">
        <time>2022-07-30T10:12:15Z</time>
      </trkpt>
      <trkpt lat="42.70849" lon="-0.75022">
        <time>2022-07-30T10:12:16Z</time>
      </trkpt>
      <trkpt lat="42.7087" lon="-0.75025">
        <time>2022-07-30T10:12:17Z</time>
      </trkpt>
      <trkpt lat="42.70891" lon="-0.75026">
        <time>2022-07-30T10:12:18Z</time>
      </trkpt>
      <trkpt lat="42.70913" lon="-0.75026">
        <time>2022-07-30T10:12:19Z</time>
      </trkpt>
      <trkpt lat="42.70935" lon="-0.75024">
        <time>2022-07-30T10:12:20Z</time>
      </trkpt>
      <trkpt lat="42.70957" lon="-0.75021">
        <time>2022-07-30T10:12:21Z</time>
      </trkpt>
      <trkpt lat="42.70979" lon="-0.75017">
        <time>2022-07-30T10:12:22Z</time>
      </trkpt>
      <trkpt lat="42.71002" lon="-0.75011">
        <time>2022-07-30T10:12:23Z</time>
      </trkpt>
      <trkpt lat="42.71024" lon="-0.75005">
        <time>2022-07-30T10:12:24Z</time>
      </trkpt>
      <trkpt lat="42.71047" lon="-0.74999">
        <time>2022-07-30T10:12:25Z</time>
      </trkpt>
      <trkpt lat="42.71068" lon="-0.74993">
        <time>2022-07-30T10:12:26Z</time>
      </trkpt>
      <trkpt lat="42.71091" lon="-0.74987">
        <time>2022-07-30T10:12:27Z</time>
      </trkpt>
      <trkpt lat="42.71113" lon="-0.74981">
        <time>2022-07-30T10:12:28Z</time>
      </trkpt>
      <trkpt lat="42.71135" lon="-0.74974">
        <time>2022-07-30T10:12:29Z</time>
      </trkpt>
      <trkpt lat="42.71157" lon="-0.74968">
        <time>2022-07-30T10:12:30Z</time>
      </trkpt>
      <trkpt lat="42.71179" lon="-0.74963">
        <time>2022-07-30T10:12:31Z</time>
      </trkpt>
      <trkpt lat="42.71201" lon="-0.74959">
        <time>2022-07-30T10:12:32Z</time>
      </trkpt>
      <trkpt lat="42.71223" lon="-0.74956">
        <time>2022-07-30T10:12:33Z</time>
      </trkpt>
      <trkpt lat="42.71245" lon="-0.74954">
        <time>2022-07-30T10:12:34Z</time>
      </trkpt>
      <trkpt lat="42.71267" lon="-0.74954">
        <time>2022-07-30T10:12:35Z</time>
      </trkpt>
      <trkpt lat="42.71289" lon="-0.74956">
        <time>2022-07-30T10:12:36Z</time>
      </trkpt>
      <trkpt lat="42.71311" lon="-0.74958">
        <time>2022-07-30T10:12:37Z</time>
      </trkpt>
      <trkpt lat="42.71333" lon="-0.74963">
        <time>2022-07-30T10:12:38Z</time>
      </trkpt>
      <trkpt lat="42.71355" lon="-0.74968">
        <time>2022-07-30T10:12:39Z</time>
      </trkpt>
      <trkpt lat="42.71378" lon="-0.74975">
        <time>2022-07-30T10:12:40Z</time>
      </trkpt>
      <trkpt lat="42.71402" lon="-0.74982">
        <time>2022-07-30T10:12:41Z</time>
      </trkpt>
      <trkpt lat="42.71425" lon="-0.74989">
        <time>2022-07-30T10:12:42Z</time>
      </trkpt>
      <trkpt lat="42.71449" lon="-0.74996">
        <time>2022-07-30T10:12:43Z</time>
      </trkpt>
      <trkpt lat="42.71473" lon="-0.75003">
        <time>2022-07-30T10:12:44Z</time>
      </trkpt>
      <trkpt lat="42.71496" lon="-0.7501">
        <time>2022-07-30T10:12:45Z</time>
      </trkpt>
      <trkpt lat="42.7152" lon="-0.75017">
        <time>2022-07-30T10:12:46Z</time>
      </trkpt>
      <trkpt lat="42.71544" lon="-0.75024">
        <time>2022-07-30T10:12:47Z</time>
      </trkpt>
      <trkpt lat="42.71568" lon="-0.75031">
        <time>2022-07-30T10:12:48Z</time>
      </trkpt>
      <trkpt lat="42.71591" lon="-0.75038">
        <time>2022-07-30T10:12:49Z</time>
      </trkpt>
      <trkpt lat="42.71613" lon="-0.75044">
        <time>2022-07-30T10:12:50Z</time>
      </trkpt>
      <trkpt lat="42.71635" lon="-0.75051">
        <time>2022-07-30T10:12:51Z</time>
      </trkpt>
      <trkpt lat="42.71657" lon="-0.75057">
        <time>2022-07-30T10:12:52Z</time>
      </trkpt>
      <trkpt lat="42.71679" lon="-0.75063">
        <time>2022-07-30T10:12:53Z</time>
      </trkpt>
      <trkpt lat="42.717" lon="-0.75068">
        <time>2022-07-30T10:12:54Z</time>
      </trkpt>
      <trkpt lat="42.71721" lon="-0.75072">
        <time>2022-07-30T10:12:55Z</time>
      </trkpt>
      <trkpt lat="42.71742" lon="-0.75076">
        <time>2022-07-30T10:12:56Z</time>
      </trkpt>
      <trkpt lat="42.71763" lon="-0.75078">
        <time>2022-07-30T10:12:57Z</time>
      </trkpt>
      <trkpt lat="42.71785" lon="-0.7508">
        <time>2022-07-30T10:12:58Z</time>
      </trkpt>
      <trkpt lat="42.71807" lon="-0.75081">
        <time>2022-07-30T10:12:59Z</time>
      </trkpt>
      <trkpt lat="42.7183" lon="-0.75083">
        <time>2022-07-30T10:13:00Z</time>
      </trkpt>
      <trkpt lat="42.71852" lon="-0.75084">
        <time>2022-07-30T10:13:01Z</time>
      </trkpt>
      <trkpt lat="42.71875" lon="-0.75085">
        <time>2022-07-30T10:13:02Z</time>
      </trkpt>
      <trkpt lat="42.71897" lon="-0.75086">
        <time>2022-07-30T10:13:03Z</time>
      </trkpt>
      <trkpt lat="42.71919" lon="-0.75087">
        <time>2022-07-30T10:13:04Z</time>
      </trkpt>
      <trkpt lat="42.71941" lon="-0.75087">
        <time>2022-07-30T10:13:05Z</time>
      </trkpt>
      <trkpt lat="42.71963" lon="-0.75088">
        <time>2022-07-30T10:13:06Z</time>
      </trkpt>
      <trkpt lat="42.71985" lon="-0.75089">
        <time>2022-07-30T10:13:07Z</time>
      </trkpt>
      <trkpt lat="42.72007" lon="-0.7509">
        <time>2022-07-30T10:13:08Z</time>
      </trkpt>
      <trkpt lat="42.72029" lon="-0.75091">
        <time>2022-07-30T10:13:09Z</time>
      </trkpt>
      <trkpt lat="42.72052" lon="-0.75092">
        <time>2022-07-30T10:13:10Z</time>
      </trkpt>
      <trkpt lat="42.72075" lon="-0.75093">
        <time>2022-07-30T10:13:11Z</time>
      </trkpt>
      <trkpt lat="42.72098" lon="-0.75095">
        <time>2022-07-30T10:13:12Z</time>
      </trkpt>
      <trkpt lat="42.72121" lon="-0.75098">
        <time>2022-07-30T10:13:13Z</time>
      </trkpt>
      <trkpt lat="42.72144" lon="-0.75103">
        <time>2022-07-30T10:13:14Z</time>
      </trkpt>
      <trkpt lat="42.72168" lon="-0.7511">
        <time>2022-07-30T10:13:15Z</time>
      </trkpt>
      <trkpt lat="42.7219" lon="-0.75118">
        <time>2022-07-30T10:13:16Z</time>
      </trkpt>
      <trkpt lat="42.72212" lon="-0.75126">
        <time>2022-07-30T10:13:17Z</time>
      </trkpt>
      <trkpt lat="42.72234" lon="-0.75135">
        <time>2022-07-30T10:13:18Z</time>
      </trkpt>
      <trkpt lat="42.72255" lon="-0.75143">
        <time>2022-07-30T10:13:19Z</time>
      </trkpt>
      <trkpt lat="42.72275" lon="-0.75151">
        <time>2022-07-30T10:13:20Z</time>
      </trkpt>
      <trkpt lat="42.72295" lon="-0.75158">
        <time>2022-07-30T10:13:21Z</time>
      </trkpt>
      <trkpt lat="42.72313" lon="-0.75165">
        <time>2022-07-30T10:13:22Z</time>
      </trkpt>
      <trkpt lat="42.72332" lon="-0.75172">
        <time>2022-07-30T10:13:23Z</time>
      </trkpt>
      <trkpt lat="42.7235" lon="-0.75179">
        <time>2022-07-30T10:13:24Z</time>
      </trkpt>
      <trkpt lat="42.72368" lon="-0.75185">
        <time>2022-07-30T10:13:25Z</time>
      </trkpt>
      <trkpt lat="42.72387" lon="-0.7519">
        <time>2022-07-30T10:13:26Z</time>
      </trkpt>
      <trkpt lat="42.72405" lon="-0.75194">
        <time>2022-07-30T10:13:27Z</time>
      </trkpt>
      <trkpt lat="42.72424" lon="-0.75195">
        <time>2022-07-30T10:13:28Z</time>
      </trkpt>
      <trkpt lat="42.72444" lon="-0.75195">
        <time>2022-07-30T10:13:29Z</time>
      </trkpt>
      <trkpt lat="42.72462" lon="-0.75195">
        <time>2022-07-30T10:13:30Z</time>
      </trkpt>
      <trkpt lat="42.72481" lon="-0.75195">
        <time>2022-07-30T10:13:31Z</time>
      </trkpt>
      <trkpt lat="42.72499" lon="-0.75196">
        <time>2022-07-30T10:13:32Z</time>
      </trkpt>
      <trkpt lat="42.72518" lon="-0.75198">
        <time>2022-07-30T10:13:33Z</time>
      </trkpt>
      <trkpt lat="42.72536" lon="-0.75203">
        <time>2022-07-30T10:13:34Z</time>
      </trkpt>
      <trkpt lat="42.72555" lon="-0.7521">
        <time>2022-07-30T10:13:35Z</time>
      </trkpt>
      <trkpt lat="42.72574" lon="-0.75218">
        <time>2022-07-30T10:13:36Z</time>
      </trkpt>
      <trkpt lat="42.72593" lon="-0.7523">
        <time>2022-07-30T10:13:37Z</time>
      </trkpt>
      <trkpt lat="42.72613" lon="-0.75243">
        <time>2022-07-30T10:13:38Z</time>
      </trkpt>
      <trkpt lat="42.72631" lon="-0.75258">
        <time>2022-07-30T10:13:39Z</time>
      </trkpt>
      <trkpt lat="42.72651" lon="-0.75273">
        <time>2022-07-30T10:13:40Z</time>
      </trkpt>
      <trkpt lat="42.7267" lon="-0.75288">
        <time>2022-07-30T10:13:41Z</time>
      </trkpt>
      <trkpt lat="42.7269" lon="-0.75302">
        <time>2022-07-30T10:13:42Z</time>
      </trkpt>
      <trkpt lat="42.7271" lon="-0.75314">
        <time>2022-07-30T10:13:43Z</time>
      </trkpt>
      <trkpt lat="42.72732" lon="-0.75325">
        <time>2022-07-30T10:13:44Z</time>
      </trkpt>
      <trkpt lat="42.72754" lon="-0.75333">
        <time>2022-07-30T10:13:45Z</time>
      </trkpt>
      <trkpt lat="42.72776" lon="-0.75339">
        <time>2022-07-30T10:13:46Z</time>
      </trkpt>
      <trkpt lat="42.72798" lon="-0.75343">
        <time>2022-07-30T10:13:47Z</time>
      </trkpt>
      <trkpt lat="42.72821" lon="-0.75345">
        <time>2022-07-30T10:13:48Z</time>
      </trkpt>
      <trkpt lat="42.72844" lon="-0.75345">
        <time>2022-07-30T10:13:49Z</time>
      </trkpt>
      <trkpt lat="42.72867" lon="-0.75343">
        <time>2022-07-30T10:13:50Z</time>
      </trkpt>
      <trkpt lat="42.72889" lon="-0.7534">
        <time>2022-07-30T10:13:51Z</time>
      </trkpt>
      <trkpt lat="42.72911" lon="-0.75337">
        <time>2022-07-30T10:13:52Z</time>
      </trkpt>
      <trkpt lat="42.72933" lon="-0.75333">
        <time>2022-07-30T10:13:53Z</time>
      </trkpt>
      <trkpt lat="42.72953" lon="-0.75329">
        <time>2022-07-30T10:13:54Z</time>
      </trkpt>
      <trkpt lat="42.72973" lon="-0.75324">
        <time>2022-07-30T10:13:55Z</time>
      </trkpt>
      <trkpt lat="42.72992" lon="-0.7532">
        <time>2022-07-30T10:13:56Z</time>
      </trkpt>
      <trkpt lat="42.7301" lon="-0.75316">
        <time>2022-07-30T10:13:57Z</time>
      </trkpt>
      <trkpt lat="42.73027" lon="-0.75311">
        <time>2022-07-30T10:13:58Z</time>
      </trkpt>
      <trkpt lat="42.73045" lon="-0.75307">
        <time>2022-07-30T10:13:59Z</time>
      </trkpt>
      <trkpt lat="42.73062" lon="-0.75302">
        <time>2022-07-30T10:14:00Z</time>
      </trkpt>
      <trkpt lat="42.73079" lon="-0.75298">
        <time>2022-07-30T10:14:01Z</time>
      </trkpt>
      <trkpt lat="42.73095" lon="-0.75294">
        <time>2022-07-30T10:14:02Z</time>
      </trkpt>
      <trkpt lat="42.7311" lon="-0.7529">
        <time>2022-07-30T10:14:03Z</time>
      </trkpt>
      <trkpt lat="42.73125" lon="-0.75286">
        <time>2022-07-30T10:14:04Z</time>
      </trkpt>
      <trkpt lat="42.7314" lon="-0.75283">
        <time>2022-07-30T10:14:05Z</time>
      </trkpt>
      <trkpt lat="42.73155" lon="-0.75279">
        <time>2022-07-30T10:14:06Z</time>
      </trkpt>
      <trkpt lat="42.7317" lon="-0.75276">
        <time>2022-07-30T10:14:07Z</time>
      </trkpt>
      <trkpt lat="42.73184" lon="-0.75272">
        <time>2022-07-30T10:14:08Z</time>
      </trkpt>
      <trkpt lat="42.73198" lon="-0.75269">
        <time>2022-07-30T10:14:09Z</time>
      </trkpt>
      <trkpt lat="42.73212" lon="-0.75265">
        <time>2022-07-30T10:14:10Z</time>
      </trkpt>
      <trkpt lat="42.73226" lon="-0.75262">
        <time>2022-07-30T10:14:11Z</time>
      </trkpt>
      <trkpt lat="42.73241" lon="-0.75258">
        <time>2022-07-30T10:14:12Z</time>
      </trkpt>
      <trkpt lat="42.73257" lon="-0.75255">
        <time>2022-07-30T10:14:13Z</time>
      </trkpt>
      <trkpt lat="42.73272" lon="-0.75251">
        <time>2022-07-30T10:14:14Z</time>
      </trkpt>
      <trkpt lat="42.73287" lon="-0.75248">
        <time>2022-07-30T10:14:15Z</time>
      </trkpt>
      <trkpt lat="42.73302" lon="-0.75245">
        <time>2022-07-30T10:14:16Z</time>
      </trkpt>
      <trkpt lat="42.73317" lon="-0.75242">
        <time>2022-07-30T10:14:17Z</time>
      </trkpt>
      <trkpt lat="42.73332" lon="-0.75238">
        <time>2022-07-30T10:14:18Z</time>
      </trkpt>
      <trkpt lat="42.73346" lon="-0.75233">
        <time>2022-07-30T10:14:19Z</time>
      </trkpt>
      <trkpt lat="42.7336" lon="-0.75228">
        <time>2022-07-30T10:14:20Z</time>
      </trkpt>
      <trkpt lat="42.73375" lon="-0.75224">
        <time>2022-07-30T10:14:21Z</time>
      </trkpt>
      <trkpt lat="42.73389" lon="-0.7522">
        <time>2022-07-30T10:14:22Z</time>
      </trkpt>
      <trkpt lat="42.73403" lon="-0.75216">
        <time>2022-07-30T10:14:23Z</time>
      </trkpt>
      <trkpt lat="42.73417" lon="-0.75213">
        <time>2022-07-30T10:14:24Z</time>
      </trkpt>
      <trkpt lat="42.73429" lon="-0.75209">
        <time>2022-07-30T10:14:25Z</time>
      </trkpt>
      <trkpt lat="42.73442" lon="-0.75206">
        <time>2022-07-30T10:14:26Z</time>
      </trkpt>
      <trkpt lat="42.73454" lon="-0.75204">
        <time>2022-07-30T10:14:27Z</time>
      </trkpt>
      <trkpt lat="42.73467" lon="-0.75201">
        <time>2022-07-30T10:14:28Z</time>
      </trkpt>
      <trkpt lat="42.73479" lon="-0.75199">
        <time>2022-07-30T10:14:29Z</time>
      </trkpt>
      <trkpt lat="42.73492" lon="-0.75196">
        <time>2022-07-30T10:14:30Z</time>
      </trkpt>
      <trkpt lat="42.73504" lon="-0.75193">
        <time>2022-07-30T10:14:31Z</time>
      </trkpt>
      <trkpt lat="42.73517" lon="-0.7519">
        <time>2022-07-30T10:14:32Z</time>
      </trkpt>
      <trkpt lat="42.73529" lon="-0.75187">
        <time>2022-07-30T10:14:33Z</time>
      </trkpt>
      <trkpt lat="42.73541" lon="-0.75184">
        <time>2022-07-30T10:14:34Z</time>
      </trkpt>
      <trkpt lat="42.73553" lon="-0.75182">
        <time>2022-07-30T10:14:35Z</time>
      </trkpt>
      <trkpt lat="42.73564" lon="-0.75179">
        <time>2022-07-30T10:14:36Z</time>
      </trkpt>
      <trkpt lat="42.73575" lon="-0.75177">
        <time>2022-07-30T10:14:37Z</time>
      </trkpt>
      <trkpt lat="42.73585" lon="-0.75175">
        <time>2022-07-30T10:14:38Z</time>
      </trkpt>
      <trkpt lat="42.73595" lon="-0.75172">
        <time>2022-07-30T10:14:39Z</time>
      </trkpt>
      <trkpt lat="42.73605" lon="-0.75171">
        <time>2022-07-30T10:14:40Z</time>
      </trkpt>
      <trkpt lat="42.73614" lon="-0.75169">
        <time>2022-07-30T10:14:41Z</time>
      </trkpt>
      <trkpt lat="42.73624" lon="-0.75167">
        <time>2022-07-30T10:14:42Z</time>
      </trkpt>
      <trkpt lat="42.73634" lon="-0.75165">
        <time>2022-07-30T10:14:43Z</time>
      </trkpt>
      <trkpt lat="42.73644" lon="-0.75165">
        <time>2022-07-30T10:14:44Z</time>
      </trkpt>
      <trkpt lat="42.73655" lon="-0.75164">
        <time>2022-07-30T10:14:45Z</time>
      </trkpt>
      <trkpt lat="42.73666" lon="-0.75163">
        <time>2022-07-30T10:14:46Z</time>
      </trkpt>
      <trkpt lat="42.73677" lon="-0.75163">
        <time>2022-07-30T10:14:47Z</time>
      </trkpt>
      <trkpt lat="42.73689" lon="-0.75163">
        <time>2022-07-30T10:14:48Z</time>
      </trkpt>
      <trkpt lat="42.737" lon="-0.75163">
        <time>2022-07-30T10:14:49Z</time>
      </trkpt>
      <trkpt lat="42.73713" lon="-0.75162">
        <time>2022-07-30T10:14:50Z</time>
      </trkpt>
      <trkpt lat="42.73724" lon="-0.75162">
        <time>2022-07-30T10:14:51Z</time>
      </trkpt>
      <trkpt lat="42.73736" lon="-0.75162">
        <time>2022-07-30T10:14:52Z</time>
      </trkpt>
      <trkpt lat="42.73748" lon="-0.75162">
        <time>2022-07-30T10:14:53Z</time>
      </trkpt>
      <trkpt lat="42.73759" lon="-0.75161">
        <time>2022-07-30T10:14:54Z</time>
      </trkpt>
      <trkpt lat="42.73769" lon="-0.75161">
        <time>2022-07-30T10:14:55Z</time>
      </trkpt>
      <trkpt lat="42.73778" lon="-0.7516">
        <time>2022-07-30T10:14:56Z</time>
      </trkpt>
      <trkpt lat="42.73787" lon="-0.7516">
        <time>2022-07-30T10:14:57Z</time>
      </trkpt>
      <trkpt lat="42.73796" lon="-0.75162">
        <time>2022-07-30T10:14:58Z</time>
      </trkpt>
      <trkpt lat="42.73805" lon="-0.75165">
        <time>2022-07-30T10:14:59Z</time>
      </trkpt>
      <trkpt lat="42.73813" lon="-0.75171">
        <time>2022-07-30T10:15:00Z</time>
      </trkpt>
      <trkpt lat="42.7382" lon="-0.75176">
        <time>2022-07-30T10:15:01Z</time>
      </trkpt>
      <trkpt lat="42.73827" lon="-0.75182">
        <time>2022-07-30T10:15:02Z</time>
      </trkpt>
      <trkpt lat="42.73835" lon="-0.75187">
        <time>2022-07-30T10:15:03Z</time>
      </trkpt>
      <trkpt lat="42.73843" lon="-0.75194">
        <time>2022-07-30T10:15:04Z</time>
      </trkpt>
      <trkpt lat="42.73851" lon="-0.75199">
        <time>2022-07-30T10:15:05Z</time>
      </trkpt>
      <trkpt lat="42.7386" lon="-0.75205">
        <time>2022-07-30T10:15:06Z</time>
      </trkpt>
      <trkpt lat="42.73868" lon="-0.75211">
        <time>2022-07-30T10:15:07Z</time>
      </trkpt>
      <trkpt lat="42.73876" lon="-0.75218">
        <time>2022-07-30T10:15:08Z</time>
      </trkpt>
      <trkpt lat="42.73885" lon="-0.75224">
        <time>2022-07-30T10:15:09Z</time>
      </trkpt>
      <trkpt lat="42.73894" lon="-0.75231">
        <time>2022-07-30T10:15:10Z</time>
      </trkpt>
      <trkpt lat="42.73902" lon="-0.75237">
        <time>2022-07-30T10:15:11Z</time>
      </trkpt>
      <trkpt lat="42.73911" lon="-0.75243">
        <time>2022-07-30T10:15:12Z</time>
      </trkpt>
      <trkpt lat="42.73919" lon="-0.75247">
        <time>2022-07-30T10:15:13Z</time>
      </trkpt>
      <trkpt lat="42.73927" lon="-0.75249">
        <time>2022-07-30T10:15:14Z</time>
      </trkpt>
      <trkpt lat="42.73936" lon="-0.75246">
        <time>2022-07-30T10:15:15Z</time>
      </trkpt>
      <trkpt lat="42.73943" lon="-0.75239">
        <time>2022-07-30T10:15:16Z</time>
      </trkpt>
      <trkpt lat="42.7395" lon="-0.75231">
        <time>2022-07-30T10:15:17Z</time>
      </trkpt>
      <trkpt lat="42.73957" lon="-0.75222">
        <time>2022-07-30T10:15:18Z</time>
      </trkpt>
      <trkpt lat="42.73963" lon="-0.75214">
        <time>2022-07-30T10:15:19Z</time>
      </trkpt>
      <trkpt lat="42.73969" lon="-0.75205">
        <time>2022-07-30T10:15:20Z</time>
      </trkpt>
      <trkpt lat="42.73975" lon="-0.75196">
        <time>2022-07-30T10:15:21Z</time>
      </trkpt>
      <trkpt lat="42.7398" lon="-0.75187">
        <time>2022-07-30T10:15:22Z</time>
      </trkpt>
      <trkpt lat="42.73982" lon="-0.75176">
        <time>2022-07-30T10:15:23Z</time>
      </trkpt>
      <trkpt lat="42.73984" lon="-0.75163">
        <time>2022-07-30T10:15:24Z</time>
      </trkpt>
      <trkpt lat="42.73984" lon="-0.7515">
        <time>2022-07-30T10:15:25Z</time>
      </trkpt>
      <trkpt lat="42.73983" lon="-0.75138">
        <time>2022-07-30T10:15:26Z</time>
      </trkpt>
      <trkpt lat="42.73982" lon="-0.75126">
        <time>2022-07-30T10:15:27Z</time>
      </trkpt>
      <trkpt lat="42.73981" lon="-0.75115">
        <time>2022-07-30T10:15:28Z</time>
      </trkpt>
      <trkpt lat="42.7398" lon="-0.75104">
        <time>2022-07-30T10:15:29Z</time>
      </trkpt>
      <trkpt lat="42.73979" lon="-0.75093">
        <time>2022-07-30T10:15:30Z</time>
      </trkpt>
      <trkpt lat="42.73978" lon="-0.75082">
        <time>2022-07-30T10:15:31Z</time>
      </trkpt>
      <trkpt lat="42.73978" lon="-0.75072">
        <time>2022-07-30T10:15:32Z</time>
      </trkpt>
      <trkpt lat="42.73979" lon="-0.75061">
        <time>2022-07-30T10:15:33Z</time>
      </trkpt>
      <trkpt lat="42.73979" lon="-0.7505">
        <time>2022-07-30T10:15:34Z</time>
      </trkpt>
      <trkpt lat="42.7398" lon="-0.75039">
        <time>2022-07-30T10:15:35Z</time>
      </trkpt>
      <trkpt lat="42.73981" lon="-0.75028">
        <time>2022-07-30T10:15:36Z</time>
      </trkpt>
      <trkpt lat="42.73981" lon="-0.75016">
        <time>2022-07-30T10:15:37Z</time>
      </trkpt>
      <trkpt lat="42.73982" lon="-0.75003">
        <time>2022-07-30T10:15:38Z</time>
      </trkpt>
      <trkpt lat="42.73983" lon="-0.7499">
        <time>2022-07-30T10:15:39Z</time>
      </trkpt>
      <trkpt lat="42.73983" lon="-0.74977">
        <time>2022-07-30T10:15:40Z</time>
      </trkpt>
      <trkpt lat="42.73984" lon="-0.74963">
        <time>2022-07-30T10:15:41Z</time>
      </trkpt>
      <trkpt lat="42.73985" lon="-0.7495">
        <time>2022-07-30T10:15:42Z</time>
      </trkpt>
      <trkpt lat="42.73985" lon="-0.74937">
        <time>2022-07-30T10:15:43Z</time>
      </trkpt>
      <trkpt lat="42.73985" lon="-0.74926">
        <time>2022-07-30T10:15:44Z</time>
      </trkpt>
      <trkpt lat="42.73986" lon="-0.74915">
        <time>2022-07-30T10:15:45Z</time>
      </trkpt>
      <trkpt lat="42.73986" lon="-0.74904">
        <time>2022-07-30T10:15:46Z</time>
      </trkpt>
      <trkpt lat="42.73987" lon="-0.74895">
        <time>2022-07-30T10:15:47Z</time>
      </trkpt>
      <trkpt lat="42.73987" lon="-0.74885">
        <time>2022-07-30T10:15:48Z</time>
      </trkpt>
      <trkpt lat="42.73987" lon="-0.74876">
        <time>2022-07-30T10:15:49Z</time>
      </trkpt>
      <trkpt lat="42.73987" lon="-0.74867">
        <time>2022-07-30T10:15:50Z</time>
      </trkpt>
      <trkpt lat="42.73988" lon="-0.74859">
        <time>2022-07-30T10:15:51Z</time>
      </trkpt>
      <trkpt lat="42.73988" lon="-0.74852">
        <time>2022-07-30T10:15:52Z</time>
      </trkpt>
      <trkpt lat="42.7399" lon="-0.74846">
        <time>2022-07-30T10:15:53Z</time>
      </trkpt>
      <trkpt lat="42.73994" lon="-0.74842">
        <time>2022-07-30T10:15:54Z</time>
      </trkpt>
      <trkpt lat="42.73998" lon="-0.74838">
        <time>2022-07-30T10:15:55Z</time>
      </trkpt>
      <trkpt lat="42.74006" lon="-0.74836">
        <time>2022-07-30T10:15:56Z</time>
      </trkpt>
      <trkpt lat="42.74014" lon="-0.74834">
        <time>2022-07-30T10:15:57Z</time>
      </trkpt>
      <trkpt lat="42.74022" lon="-0.74831">
        <time>2022-07-30T10:15:58Z</time>
      </trkpt>
      <trkpt lat="42.74029" lon="-0.74829">
        <time>2022-07-30T10:15:59Z</time>
      </trkpt>
      <trkpt lat="42.74037" lon="-0.74827">
        <time>2022-07-30T10:16:00Z</time>
      </trkpt>
      <trkpt lat="42.74045" lon="-0.74824">
        <time>2022-07-30T10:16:01Z</time>
      </trkpt>
      <trkpt lat="42.74053" lon="-0.74822">
        <time>2022-07-30T10:16:02Z</time>
      </trkpt>
      <trkpt lat="42.7406" lon="-0.74819">
        <time>2022-07-30T10:16:03Z</time>
      </trkpt>
      <trkpt lat="42.74067" lon="-0.74817">
        <time>2022-07-30T10:16:04Z</time>
      </trkpt>
      <trkpt lat="42.74074" lon="-0.74815">
        <time>2022-07-30T10:16:05Z</time>
      </trkpt>
      <trkpt lat="42.74079" lon="-0.74814">
        <time>2022-07-30T10:16:06Z</time>
      </trkpt>
      <trkpt lat="42.74083" lon="-0.74815">
        <time>2022-07-30T10:16:07Z</time>
      </trkpt>
      <trkpt lat="42.74086" lon="-0.74818">
        <time>2022-07-30T10:16:08Z</time>
      </trkpt>
      <trkpt lat="42.74087" lon="-0.74821">
        <time>2022-07-30T10:16:09Z</time>
      </trkpt>
      <trkpt lat="42.74088" lon="-0.74824">
        <time>2022-07-30T10:16:10Z</time>
      </trkpt>
      <trkpt lat="42.74089" lon="-0.74826">
        <time>2022-07-30T10:16:11Z</time>
      </trkpt>
      <trkpt lat="42.74091" lon="-0.74827">
        <time>2022-07-30T10:16:12Z</time>
      </trkpt>
      <trkpt lat="42.74092" lon="-0.74827">
        <time>2022-07-30T10:16:13Z</time>
      </trkpt>
      <trkpt lat="42.74093" lon="-0.74828">
        <time>2022-07-30T10:16:14Z</time>
      </trkpt>
      <trkpt lat="42.74087" lon="-0.74826">
        <time>2022-07-30T10:18:53Z</time>
      </trkpt>
      <trkpt lat="42.74088" lon="-0.74827">
        <time>2022-07-30T10:18:54Z</time>
      </trkpt>
      <trkpt lat="42.7409" lon="-0.74827">
        <time>2022-07-30T10:18:55Z</time>
      </trkpt>
      <trkpt lat="42.74092" lon="-0.74827">
        <time>2022-07-30T10:18:56Z</time>
      </trkpt>
      <trkpt lat="42.74096" lon="-0.74827">
        <time>2022-07-30T10:18:57Z</time>
      </trkpt>
      <trkpt lat="42.74098" lon="-0.74824">
        <time>2022-07-30T10:18:58Z</time>
      </trkpt>
      <trkpt lat="42.741" lon="-0.7482">
        <time>2022-07-30T10:18:59Z</time>
      </trkpt>
      <trkpt lat="42.741" lon="-0.74817">
        <time>2022-07-30T10:19:00Z</time>
      </trkpt>
      <trkpt lat="42.741" lon="-0.74814">
        <time>2022-07-30T10:19:03Z</time>
      </trkpt>
      <trkpt lat="42.74101" lon="-0.74811">
        <time>2022-07-30T10:19:04Z</time>
      </trkpt>
      <trkpt lat="42.74104" lon="-0.74807">
        <time>2022-07-30T10:19:05Z</time>
      </trkpt>
      <trkpt lat="42.74111" lon="-0.74803">
        <time>2022-07-30T10:19:06Z</time>
      </trkpt>
      <trkpt lat="42.74119" lon="-0.74801">
        <time>2022-07-30T10:19:07Z</time>
      </trkpt>
      <trkpt lat="42.74127" lon="-0.74799">
        <time>2022-07-30T10:19:08Z</time>
      </trkpt>
      <trkpt lat="42.74137" lon="-0.74797">
        <time>2022-07-30T10:19:09Z</time>
      </trkpt>
      <trkpt lat="42.74149" lon="-0.74793">
        <time>2022-07-30T10:19:10Z</time>
      </trkpt>
      <trkpt lat="42.7416" lon="-0.7479">
        <time>2022-07-30T10:19:11Z</time>
      </trkpt>
      <trkpt lat="42.74173" lon="-0.74786">
        <time>2022-07-30T10:19:12Z</time>
      </trkpt>
      <trkpt lat="42.74185" lon="-0.74782">
        <time>2022-07-30T10:19:13Z</time>
      </trkpt>
      <trkpt lat="42.74197" lon="-0.74778">
        <time>2022-07-30T10:19:14Z</time>
      </trkpt>
      <trkpt lat="42.74208" lon="-0.74774">
        <time>2022-07-30T10:19:15Z</time>
      </trkpt>
      <trkpt lat="42.74219" lon="-0.74773">
        <time>2022-07-30T10:19:16Z</time>
      </trkpt>
      <trkpt lat="42.74231" lon="-0.74776">
        <time>2022-07-30T10:19:17Z</time>
      </trkpt>
      <trkpt lat="42.74242" lon="-0.74783">
        <time>2022-07-30T10:19:18Z</time>
      </trkpt>
      <trkpt lat="42.74253" lon="-0.74792">
        <time>2022-07-30T10:19:19Z</time>
      </trkpt>
      <trkpt lat="42.74265" lon="-0.74803">
        <time>2022-07-30T10:19:20Z</time>
      </trkpt>
      <trkpt lat="42.74277" lon="-0.74812">
        <time>2022-07-30T10:19:21Z</time>
      </trkpt>
      <trkpt lat="42.74289" lon="-0.74821">
        <time>2022-07-30T10:19:22Z</time>
      </trkpt>
      <trkpt lat="42.74302" lon="-0.74828">
        <time>2022-07-30T10:19:23Z</time>
      </trkpt>
      <trkpt lat="42.74316" lon="-0.74834">
        <time>2022-07-30T10:19:24Z</time>
      </trkpt>
      <trkpt lat="42.74332" lon="-0.74839">
        <time>2022-07-30T10:19:25Z</time>
      </trkpt>
      <trkpt lat="42.74349" lon="-0.74842">
        <time>2022-07-30T10:19:26Z</time>
      </trkpt>
      <trkpt lat="42.74366" lon="-0.74843">
        <time>2022-07-30T10:19:27Z</time>
      </trkpt>
      <trkpt lat="42.74383" lon="-0.74846">
        <time>2022-07-30T10:19:28Z</time>
      </trkpt>
      <trkpt lat="42.74401" lon="-0.74849">
        <time>2022-07-30T10:19:29Z</time>
      </trkpt>
      <trkpt lat="42.74419" lon="-0.74854">
        <time>2022-07-30T10:19:30Z</time>
      </trkpt>
      <trkpt lat="42.74437" lon="-0.7486">
        <time>2022-07-30T10:19:31Z</time>
      </trkpt>
      <trkpt lat="42.74454" lon="-0.74866">
        <time>2022-07-30T10:19:32Z</time>
      </trkpt>
      <trkpt lat="42.74471" lon="-0.74873">
        <time>2022-07-30T10:19:33Z</time>
      </trkpt>
      <trkpt lat="42.74487" lon="-0.74878">
        <time>2022-07-30T10:19:34Z</time>
      </trkpt>
      <trkpt lat="42.74505" lon="-0.74881">
        <time>2022-07-30T10:19:35Z</time>
      </trkpt>
      <trkpt lat="42.74524" lon="-0.74881">
        <time>2022-07-30T10:19:36Z</time>
      </trkpt>
      <trkpt lat="42.74542" lon="-0.74878">
        <time>2022-07-30T10:19:37Z</time>
      </trkpt>
      <trkpt lat="42.74558" lon="-0.74873">
        <time>2022-07-30T10:19:38Z</time>
      </trkpt>
      <trkpt lat="42.74574" lon="-0.74869">
        <time>2022-07-30T10:19:39Z</time>
      </trkpt>
      <trkpt lat="42.7459" lon="-0.74868">
        <time>2022-07-30T10:19:40Z</time>
      </trkpt>
      <trkpt lat="42.74607" lon="-0.7487">
        <time>2022-07-30T10:19:41Z</time>
      </trkpt>
      <trkpt lat="42.74623" lon="-0.74875">
        <time>2022-07-30T10:19:42Z</time>
      </trkpt>
      <trkpt lat="42.74638" lon="-0.74883">
        <time>2022-07-30T10:19:43Z</time>
      </trkpt>
      <trkpt lat="42.74654" lon="-0.74893">
        <time>2022-07-30T10:19:44Z</time>
      </trkpt>
      <trkpt lat="42.7467" lon="-0.74903">
        <time>2022-07-30T10:19:45Z</time>
      </trkpt>
      <trkpt lat="42.74687" lon="-0.74913">
        <time>2022-07-30T10:19:46Z</time>
      </trkpt>
      <trkpt lat="42.74705" lon="-0.74923">
        <time>2022-07-30T10:19:47Z</time>
      </trkpt>
      <trkpt lat="42.74723" lon="-0.74934">
        <time>2022-07-30T10:19:48Z</time>
      </trkpt>
      <trkpt lat="42.74739" lon="-0.74945">
        <time>2022-07-30T10:19:49Z</time>
      </trkpt>
      <trkpt lat="42.74756" lon="-0.74957">
        <time>2022-07-30T10:19:50Z</time>
      </trkpt>
      <trkpt lat="42.74773" lon="-0.74968">
        <time>2022-07-30T10:19:51Z</time>
      </trkpt>
      <trkpt lat="42.7479" lon="-0.7498">
        <time>2022-07-30T10:19:52Z</time>
      </trkpt>
      <trkpt lat="42.74806" lon="-0.74993">
        <time>2022-07-30T10:19:53Z</time>
      </trkpt>
      <trkpt lat="42.74823" lon="-0.75005">
        <time>2022-07-30T10:19:54Z</time>
      </trkpt>
      <trkpt lat="42.74838" lon="-0.75018">
        <time>2022-07-30T10:19:55Z</time>
      </trkpt>
      <trkpt lat="42.74854" lon="-0.75031">
        <time>2022-07-30T10:19:56Z</time>
      </trkpt>
      <trkpt lat="42.74868" lon="-0.75044">
        <time>2022-07-30T10:19:57Z</time>
      </trkpt>
      <trkpt lat="42.74881" lon="-0.75057">
        <time>2022-07-30T10:19:58Z</time>
      </trkpt>
      <trkpt lat="42.74894" lon="-0.7507">
        <time>2022-07-30T10:19:59Z</time>
      </trkpt>
      <trkpt lat="42.74907" lon="-0.75083">
        <time>2022-07-30T10:20:00Z</time>
      </trkpt>
      <trkpt lat="42.7492" lon="-0.75096">
        <time>2022-07-30T10:20:01Z</time>
      </trkpt>
      <trkpt lat="42.74933" lon="-0.7511">
        <time>2022-07-30T10:20:02Z</time>
      </trkpt>
      <trkpt lat="42.74947" lon="-0.75124">
        <time>2022-07-30T10:20:03Z</time>
      </trkpt>
      <trkpt lat="42.7496" lon="-0.75136">
        <time>2022-07-30T10:20:04Z</time>
      </trkpt>
      <trkpt lat="42.74974" lon="-0.75148">
        <time>2022-07-30T10:20:05Z</time>
      </trkpt>
      <trkpt lat="42.74989" lon="-0.75158">
        <time>2022-07-30T10:20:06Z</time>
      </trkpt>
      <trkpt lat="42.75004" lon="-0.75168">
        <time>2022-07-30T10:20:07Z</time>
      </trkpt>
      <trkpt lat="42.7502" lon="-0.75179">
        <time>2022-07-30T10:20:08Z</time>
      </trkpt>
      <trkpt lat="42.75037" lon="-0.7519">
        <time>2022-07-30T10:20:09Z</time>
      </trkpt>
      <trkpt lat="42.75053" lon="-0.75204">
        <time>2022-07-30T10:20:10Z</time>
      </trkpt>
      <trkpt lat="42.75068" lon="-0.75219">
        <time>2022-07-30T10:20:11Z</time>
      </trkpt>
      <trkpt lat="42.75082" lon="-0.75235">
        <time>2022-07-30T10:20:12Z</time>
      </trkpt>
      <trkpt lat="42.75096" lon="-0.75254">
        <time>2022-07-30T10:20:13Z</time>
      </trkpt>
      <trkpt lat="42.75109" lon="-0.75273">
        <time>2022-07-30T10:20:14Z</time>
      </trkpt>
      <trkpt lat="42.75122" lon="-0.75292">
        <time>2022-07-30T10:20:15Z</time>
      </trkpt>
      <trkpt lat="42.75135" lon="-0.7531">
        <time>2022-07-30T10:20:16Z</time>
      </trkpt>
      <trkpt lat="42.75147" lon="-0.75327">
        <time>2022-07-30T10:20:17Z</time>
      </trkpt>
      <trkpt lat="42.75158" lon="-0.75343">
        <time>2022-07-30T10:20:18Z</time>
      </trkpt>
      <trkpt lat="42.75169" lon="-0.75358">
        <time>2022-07-30T10:20:19Z</time>
      </trkpt>
      <trkpt lat="42.75181" lon="-0.75372">
        <time>2022-07-30T10:20:20Z</time>
      </trkpt>
      <trkpt lat="42.75193" lon="-0.75386">
        <time>2022-07-30T10:20:21Z</time>
      </trkpt>
      <trkpt lat="42.75206" lon="-0.75399">
        <time>2022-07-30T10:20:22Z</time>
      </trkpt>
      <trkpt lat="42.7522" lon="-0.75411">
        <time>2022-07-30T10:20:23Z</time>
      </trkpt>
      <trkpt lat="42.75234" lon="-0.75422">
        <time>2022-07-30T10:20:24Z</time>
      </trkpt>
      <trkpt lat="42.75248" lon="-0.75432">
        <time>2022-07-30T10:20:25Z</time>
      </trkpt>
      <trkpt lat="42.75262" lon="-0.75441">
        <time>2022-07-30T10:20:26Z</time>
      </trkpt>
      <trkpt lat="42.75277" lon="-0.75448">
        <time>2022-07-30T10:20:27Z</time>
      </trkpt>
      <trkpt lat="42.75292" lon="-0.75454">
        <time>2022-07-30T10:20:28Z</time>
      </trkpt>
      <trkpt lat="42.75307" lon="-0.7546">
        <time>2022-07-30T10:20:29Z</time>
      </trkpt>
      <trkpt lat="42.75322" lon="-0.75464">
        <time>2022-07-30T10:20:30Z</time>
      </trkpt>
      <trkpt lat="42.75338" lon="-0.75468">
        <time>2022-07-30T10:20:31Z</time>
      </trkpt>
      <trkpt lat="42.75353" lon="-0.75472">
        <time>2022-07-30T10:20:32Z</time>
      </trkpt>
      <trkpt lat="42.75367" lon="-0.75476">
        <time>2022-07-30T10:20:33Z</time>
      </trkpt>
      <trkpt lat="42.75382" lon="-0.75479">
        <time>2022-07-30T10:20:34Z</time>
      </trkpt>
      <trkpt lat="42.75396" lon="-0.75482">
        <time>2022-07-30T10:20:35Z</time>
      </trkpt>
      <trkpt lat="42.75408" lon="-0.75486">
        <time>2022-07-30T10:20:36Z</time>
      </trkpt>
      <trkpt lat="42.75418" lon="-0.75488">
        <time>2022-07-30T10:20:37Z</time>
      </trkpt>
      <trkpt lat="42.75428" lon="-0.75488">
        <time>2022-07-30T10:20:38Z</time>
      </trkpt>
      <trkpt lat="42.75437" lon="-0.75486">
        <time>2022-07-30T10:20:39Z</time>
      </trkpt>
      <trkpt lat="42.75445" lon="-0.7548">
        <time>2022-07-30T10:20:40Z</time>
      </trkpt>
      <trkpt lat="42.75453" lon="-0.75471">
        <time>2022-07-30T10:20:41Z</time>
      </trkpt>
      <trkpt lat="42.75458" lon="-0.7546">
        <time>2022-07-30T10:20:42Z</time>
      </trkpt>
      <trkpt lat="42.75462" lon="-0.75446">
        <time>2022-07-30T10:20:43Z</time>
      </trkpt>
      <trkpt lat="42.75465" lon="-0.75431">
        <time>2022-07-30T10:20:44Z</time>
      </trkpt>
      <trkpt lat="42.75468" lon="-0.75414">
        <time>2022-07-30T10:20:45Z</time>
      </trkpt>
      <trkpt lat="42.75471" lon="-0.75398">
        <time>2022-07-30T10:20:46Z</time>
      </trkpt>
      <trkpt lat="42.75474" lon="-0.75383">
        <time>2022-07-30T10:20:47Z</time>
      </trkpt>
      <trkpt lat="42.7548" lon="-0.75371">
        <time>2022-07-30T10:20:48Z</time>
      </trkpt>
      <trkpt lat="42.75487" lon="-0.75359">
        <time>2022-07-30T10:20:49Z</time>
      </trkpt>
      <trkpt lat="42.75495" lon="-0.75348">
        <time>2022-07-30T10:20:50Z</time>
      </trkpt>
      <trkpt lat="42.75503" lon="-0.75337">
        <time>2022-07-30T10:20:51Z</time>
      </trkpt>
      <trkpt lat="42.75511" lon="-0.75327">
        <time>2022-07-30T10:20:52Z</time>
      </trkpt>
      <trkpt lat="42.75518" lon="-0.75318">
        <time>2022-07-30T10:20:53Z</time>
      </trkpt>
      <trkpt lat="42.75524" lon="-0.75312">
        <time>2022-07-30T10:20:54Z</time>
      </trkpt>
      <trkpt lat="42.75529" lon="-0.75308">
        <time>2022-07-30T10:20:55Z</time>
      </trkpt>
      <trkpt lat="42.75533" lon="-0.75305">
        <time>2022-07-30T10:20:56Z</time>
      </trkpt>
      <trkpt lat="42.75536" lon="-0.75304">
        <time>2022-07-30T10:20:57Z</time>
      </trkpt>
      <trkpt lat="42.75539" lon="-0.75304">
        <time>2022-07-30T10:20:58Z</time>
      </trkpt>
      <trkpt lat="42.7554" lon="-0.75304">
        <time>2022-07-30T10:20:59Z</time>
      </trkpt>
      <trkpt lat="42.7554" lon="-0.75306">
        <time>2022-07-30T10:26:04Z</time>
      </trkpt>
      <trkpt lat="42.7554" lon="-0.75308">
        <time>2022-07-30T10:26:05Z</time>
      </trkpt>
      <trkpt lat="42.7554" lon="-0.75311">
        <time>2022-07-30T10:26:06Z</time>
      </trkpt>
      <trkpt lat="42.75537" lon="-0.75312">
        <time>2022-07-30T10:26:07Z</time>
      </trkpt>
      <trkpt lat="42.75533" lon="-0.75313">
        <time>2022-07-30T10:26:08Z</time>
      </trkpt>
      <trkpt lat="42.75526" lon="-0.75316">
        <time>2022-07-30T10:26:09Z</time>
      </trkpt>
      <trkpt lat="42.75519" lon="-0.75322">
        <time>2022-07-30T10:26:10Z</time>
      </trkpt>
      <trkpt lat="42.75511" lon="-0.7533">
        <time>2022-07-30T10:26:11Z</time>
      </trkpt>
      <trkpt lat="42.75503" lon="-0.7534">
        <time>2022-07-30T10:26:12Z</time>
      </trkpt>
      <trkpt lat="42.75495" lon="-0.7535">
        <time>2022-07-30T10:26:13Z</time>
      </trkpt>
      <trkpt lat="42.75488" lon="-0.7536">
        <time>2022-07-30T10:26:14Z</time>
      </trkpt>
      <trkpt lat="42.75481" lon="-0.75371">
        <time>2022-07-30T10:26:15Z</time>
      </trkpt>
      <trkpt lat="42.75476" lon="-0.75384">
        <time>2022-07-30T10:26:16Z</time>
      </trkpt>
      <trkpt lat="42.75473" lon="-0.75397">
        <time>2022-07-30T10:26:17Z</time>
      </trkpt>
      <trkpt lat="42.7547" lon="-0.75411">
        <time>2022-07-30T10:26:18Z</time>
      </trkpt>
      <trkpt lat="42.75469" lon="-0.75425">
        <time>2022-07-30T10:26:19Z</time>
      </trkpt>
      <trkpt lat="42.75467" lon="-0.75439">
        <time>2022-07-30T10:26:20Z</time>
      </trkpt>
      <trkpt lat="42.75464" lon="-0.75451">
        <time>2022-07-30T10:26:21Z</time>
      </trkpt>
      <trkpt lat="42.75461" lon="-0.75463">
        <time>2022-07-30T10:26:22Z</time>
      </trkpt>
      <trkpt lat="42.75455" lon="-0.75473">
        <time>2022-07-30T10:26:23Z</time>
      </trkpt>
      <trkpt lat="42.75448" lon="-0.75481">
        <time>2022-07-30T10:26:24Z</time>
      </trkpt>
      <trkpt lat="42.75439" lon="-0.75487">
        <time>2022-07-30T10:26:25Z</time>
      </trkpt>
      <trkpt lat="42.75429" lon="-0.7549">
        <time>2022-07-30T10:26:26Z</time>
      </trkpt>
      <trkpt lat="42.75417" lon="-0.75489">
        <time>2022-07-30T10:26:27Z</time>
      </trkpt>
      <trkpt lat="42.75404" lon="-0.75486">
        <time>2022-07-30T10:26:28Z</time>
      </trkpt>
      <trkpt lat="42.75391" lon="-0.75482">
        <time>2022-07-30T10:26:29Z</time>
      </trkpt>
      <trkpt lat="42.75375" lon="-0.75479">
        <time>2022-07-30T10:26:30Z</time>
      </trkpt>
      <trkpt lat="42.7536" lon="-0.75475">
        <time>2022-07-30T10:26:31Z</time>
      </trkpt>
      <trkpt lat="42.75345" lon="-0.75471">
        <time>2022-07-30T10:26:32Z</time>
      </trkpt>
      <trkpt lat="42.7533" lon="-0.75467">
        <time>2022-07-30T10:26:33Z</time>
      </trkpt>
      <trkpt lat="42.75315" lon="-0.75463">
        <time>2022-07-30T10:26:34Z</time>
      </trkpt>
      <trkpt lat="42.753" lon="-0.75458">
        <time>2022-07-30T10:26:35Z</time>
      </trkpt>
      <trkpt lat="42.75285" lon="-0.75452">
        <time>2022-07-30T10:26:36Z</time>
      </trkpt>
      <trkpt lat="42.7527" lon="-0.75446">
        <time>2022-07-30T10:26:37Z</time>
      </trkpt>
      <trkpt lat="42.75255" lon="-0.75438">
        <time>2022-07-30T10:26:38Z</time>
      </trkpt>
      <trkpt lat="42.75239" lon="-0.75428">
        <time>2022-07-30T10:26:39Z</time>
      </trkpt>
      <trkpt lat="42.75225" lon="-0.75418">
        <time>2022-07-30T10:26:40Z</time>
      </trkpt>
      <trkpt lat="42.7521" lon="-0.75406">
        <time>2022-07-30T10:26:41Z</time>
      </trkpt>
      <trkpt lat="42.75196" lon="-0.75393">
        <time>2022-07-30T10:26:42Z</time>
      </trkpt>
      <trkpt lat="42.75183" lon="-0.75378">
        <time>2022-07-30T10:26:43Z</time>
      </trkpt>
      <trkpt lat="42.7517" lon="-0.75363">
        <time>2022-07-30T10:26:44Z</time>
      </trkpt>
      <trkpt lat="42.75159" lon="-0.75347">
        <time>2022-07-30T10:26:45Z</time>
      </trkpt>
      <trkpt lat="42.75147" lon="-0.75331">
        <time>2022-07-30T10:26:46Z</time>
      </trkpt>
      <trkpt lat="42.75135" lon="-0.75314">
        <time>2022-07-30T10:26:47Z</time>
      </trkpt>
      <trkpt lat="42.75124" lon="-0.75298">
        <time>2022-07-30T10:26:48Z</time>
      </trkpt>
      <trkpt lat="42.75112" lon="-0.75282">
        <time>2022-07-30T10:26:49Z</time>
      </trkpt>
      <trkpt lat="42.75101" lon="-0.75266">
        <time>2022-07-30T10:26:50Z</time>
      </trkpt>
      <trkpt lat="42.7509" lon="-0.7525">
        <time>2022-07-30T10:26:51Z</time>
      </trkpt>
      <trkpt lat="42.75079" lon="-0.75235">
        <time>2022-07-30T10:26:52Z</time>
      </trkpt>
      <trkpt lat="42.75067" lon="-0.75221">
        <time>2022-07-30T10:26:53Z</time>
      </trkpt>
      <trkpt lat="42.75054" lon="-0.75207">
        <time>2022-07-30T10:26:54Z</time>
      </trkpt>
      <trkpt lat="42.7504" lon="-0.75195">
        <time>2022-07-30T10:26:55Z</time>
      </trkpt>
      <trkpt lat="42.75025" lon="-0.75184">
        <time>2022-07-30T10:26:56Z</time>
      </trkpt>
      <trkpt lat="42.7501" lon="-0.75174">
        <time>2022-07-30T10:26:57Z</time>
      </trkpt>
      <trkpt lat="42.74995" lon="-0.75164">
        <time>2022-07-30T10:26:58Z</time>
      </trkpt>
      <trkpt lat="42.7498" lon="-0.75154">
        <time>2022-07-30T10:26:59Z</time>
      </trkpt>
      <trkpt lat="42.74965" lon="-0.75142">
        <time>2022-07-30T10:27:00Z</time>
      </trkpt>
      <trkpt lat="42.74952" lon="-0.7513">
        <time>2022-07-30T10:27:01Z</time>
      </trkpt>
      <trkpt lat="42.74938" lon="-0.75116">
        <time>2022-07-30T10:27:02Z</time>
      </trkpt>
      <trkpt lat="42.74925" lon="-0.75102">
        <time>2022-07-30T10:27:03Z</time>
      </trkpt>
      <trkpt lat="42.74912" lon="-0.75088">
        <time>2022-07-30T10:27:04Z</time>
      </trkpt>
      <trkpt lat="42.74899" lon="-0.75075">
        <time>2022-07-30T10:27:05Z</time>
      </trkpt>
      <trkpt lat="42.74886" lon="-0.75062">
        <time>2022-07-30T10:27:06Z</time>
      </trkpt>
      <trkpt lat="42.74873" lon="-0.7505">
        <time>2022-07-30T10:27:07Z</time>
      </trkpt>
      <trkpt lat="42.7486" lon="-0.75039">
        <time>2022-07-30T10:27:08Z</time>
      </trkpt>
      <trkpt lat="42.74847" lon="-0.75027">
        <time>2022-07-30T10:27:09Z</time>
      </trkpt>
      <trkpt lat="42.74835" lon="-0.75017">
        <time>2022-07-30T10:27:10Z</time>
      </trkpt>
      <trkpt lat="42.74823" lon="-0.75007">
        <time>2022-07-30T10:27:11Z</time>
      </trkpt>
      <trkpt lat="42.74811" lon="-0.74997">
        <time>2022-07-30T10:27:12Z</time>
      </trkpt>
      <trkpt lat="42.748" lon="-0.74989">
        <time>2022-07-30T10:27:13Z</time>
      </trkpt>
      <trkpt lat="42.74788" lon="-0.7498">
        <time>2022-07-30T10:27:14Z</time>
      </trkpt>
      <trkpt lat="42.74776" lon="-0.74971">
        <time>2022-07-30T10:27:15Z</time>
      </trkpt>
      <trkpt lat="42.74764" lon="-0.74962">
        <time>2022-07-30T10:27:16Z</time>
      </trkpt>
      <trkpt lat="42.74751" lon="-0.74953">
        <time>2022-07-30T10:27:17Z</time>
      </trkpt>
      <trkpt lat="42.74736" lon="-0.74945">
        <time>2022-07-30T10:27:18Z</time>
      </trkpt>
      <trkpt lat="42.74722" lon="-0.74935">
        <time>2022-07-30T10:27:19Z</time>
      </trkpt>
      <trkpt lat="42.74707" lon="-0.74927">
        <time>2022-07-30T10:27:20Z</time>
      </trkpt>
      <trkpt lat="42.74693" lon="-0.74919">
        <time>2022-07-30T10:27:21Z</time>
      </trkpt>
      <trkpt lat="42.74679" lon="-0.7491">
        <time>2022-07-30T10:27:22Z</time>
      </trkpt>
      <trkpt lat="42.74665" lon="-0.74903">
        <time>2022-07-30T10:27:23Z</time>
      </trkpt>
      <trkpt lat="42.74652" lon="-0.74895">
        <time>2022-07-30T10:27:24Z</time>
      </trkpt>
      <trkpt lat="42.74639" lon="-0.74887">
        <time>2022-07-30T10:27:25Z</time>
      </trkpt>
      <trkpt lat="42.74627" lon="-0.74881">
        <time>2022-07-30T10:27:26Z</time>
      </trkpt>
      <trkpt lat="42.74614" lon="-0.74876">
        <time>2022-07-30T10:27:27Z</time>
      </trkpt>
      <trkpt lat="42.74602" lon="-0.74872">
        <time>2022-07-30T10:27:28Z</time>
      </trkpt>
      <trkpt lat="42.74588" lon="-0.74871">
        <time>2022-07-30T10:27:29Z</time>
      </trkpt>
      <trkpt lat="42.74575" lon="-0.74873">
        <time>2022-07-30T10:27:30Z</time>
      </trkpt>
      <trkpt lat="42.7456" lon="-0.74876">
        <time>2022-07-30T10:27:31Z</time>
      </trkpt>
      <trkpt lat="42.74545" lon="-0.7488">
        <time>2022-07-30T10:27:32Z</time>
      </trkpt>
      <trkpt lat="42.7453" lon="-0.74884">
        <time>2022-07-30T10:27:33Z</time>
      </trkpt>
      <trkpt lat="42.74514" lon="-0.74885">
        <time>2022-07-30T10:27:34Z</time>
      </trkpt>
      <trkpt lat="42.74498" lon="-0.74883">
        <time>2022-07-30T10:27:35Z</time>
      </trkpt>
      <trkpt lat="42.74482" lon="-0.7488">
        <time>2022-07-30T10:27:36Z</time>
      </trkpt>
      <trkpt lat="42.74467" lon="-0.74875">
        <time>2022-07-30T10:27:37Z</time>
      </trkpt>
      <trkpt lat="42.74451" lon="-0.7487">
        <time>2022-07-30T10:27:38Z</time>
      </trkpt>
      <trkpt lat="42.74436" lon="-0.74864">
        <time>2022-07-30T10:27:39Z</time>
      </trkpt>
      <trkpt lat="42.74422" lon="-0.74859">
        <time>2022-07-30T10:27:40Z</time>
      </trkpt>
      <trkpt lat="42.74408" lon="-0.74855">
        <time>2022-07-30T10:27:41Z</time>
      </trkpt>
      <trkpt lat="42.74394" lon="-0.74851">
        <time>2022-07-30T10:27:42Z</time>
      </trkpt>
      <trkpt lat="42.74381" lon="-0.74848">
        <time>2022-07-30T10:27:43Z</time>
      </trkpt>
      <trkpt lat="42.74369" lon="-0.74846">
        <time>2022-07-30T10:27:44Z</time>
      </trkpt>
      <trkpt lat="42.74357" lon="-0.74845">
        <time>2022-07-30T10:27:45Z</time>
      </trkpt>
      <trkpt lat="42.74345" lon="-0.74844">
        <time>2022-07-30T10:27:46Z</time>
      </trkpt>
      <trkpt lat="42.74335" lon="-0.74843">
        <time>2022-07-30T10:27:47Z</time>
      </trkpt>
      <trkpt lat="42.74325" lon="-0.74841">
        <time>2022-07-30T10:27:48Z</time>
      </trkpt>
      <trkpt lat="42.74315" lon="-0.74838">
        <time>2022-07-30T10:27:49Z</time>
      </trkpt>
      <trkpt lat="42.74305" lon="-0.74834">
        <time>2022-07-30T10:27:50Z</time>
      </trkpt>
      <trkpt lat="42.74296" lon="-0.7483">
        <time>2022-07-30T10:27:51Z</time>
      </trkpt>
      <trkpt lat="42.74287" lon="-0.74824">
        <time>2022-07-30T10:27:52Z</time>
      </trkpt>
      <trkpt lat="42.74279" lon="-0.74818">
        <time>2022-07-30T10:27:53Z</time>
      </trkpt>
      <trkpt lat="42.74271" lon="-0.74813">
        <time>2022-07-30T10:27:54Z</time>
      </trkpt>
      <trkpt lat="42.74263" lon="-0.74806">
        <time>2022-07-30T10:27:55Z</time>
      </trkpt>
      <trkpt lat="42.74256" lon="-0.748">
        <time>2022-07-30T10:27:56Z</time>
      </trkpt>
      <trkpt lat="42.74248" lon="-0.74794">
        <time>2022-07-30T10:27:57Z</time>
      </trkpt>
      <trkpt lat="42.74241" lon="-0.74788">
        <time>2022-07-30T10:27:58Z</time>
      </trkpt>
      <trkpt lat="42.74234" lon="-0.74783">
        <time>2022-07-30T10:27:59Z</time>
      </trkpt>
      <trkpt lat="42.74226" lon="-0.7478">
        <time>2022-07-30T10:28:00Z</time>
      </trkpt>
      <trkpt lat="42.74219" lon="-0.74777">
        <time>2022-07-30T10:28:01Z</time>
      </trkpt>
      <trkpt lat="42.74211" lon="-0.74777">
        <time>2022-07-30T10:28:02Z</time>
      </trkpt>
      <trkpt lat="42.74203" lon="-0.74779">
        <time>2022-07-30T10:28:03Z</time>
      </trkpt>
      <trkpt lat="42.74195" lon="-0.74781">
        <time>2022-07-30T10:28:04Z</time>
      </trkpt>
      <trkpt lat="42.74186" lon="-0.74784">
        <time>2022-07-30T10:28:05Z</time>
      </trkpt>
      <trkpt lat="42.74177" lon="-0.74786">
        <time>2022-07-30T10:28:06Z</time>
      </trkpt>
      <trkpt lat="42.74168" lon="-0.74789">
        <time>2022-07-30T10:28:07Z</time>
      </trkpt>
      <trkpt lat="42.74159" lon="-0.74792">
        <time>2022-07-30T10:28:08Z</time>
      </trkpt>
      <trkpt lat="42.74149" lon="-0.74795">
        <time>2022-07-30T10:28:09Z</time>
      </trkpt>
      <trkpt lat="42.74139" lon="-0.74798">
        <time>2022-07-30T10:28:10Z</time>
      </trkpt>
      <trkpt lat="42.7413" lon="-0.74801">
        <time>2022-07-30T10:28:11Z</time>
      </trkpt>
      <trkpt lat="42.7412" lon="-0.74804">
        <time>2022-07-30T10:28:12Z</time>
      </trkpt>
      <trkpt lat="42.7411" lon="-0.74806">
        <time>2022-07-30T10:28:13Z</time>
      </trkpt>
      <trkpt lat="42.741" lon="-0.74809">
        <time>2022-07-30T10:28:14Z</time>
      </trkpt>
      <trkpt lat="42.74091" lon="-0.74812">
        <time>2022-07-30T10:28:15Z</time>
      </trkpt>
      <trkpt lat="42.74081" lon="-0.74815">
        <time>2022-07-30T10:28:16Z</time>
      </trkpt>
      <trkpt lat="42.7407" lon="-0.74819">
        <time>2022-07-30T10:28:17Z</time>
      </trkpt>
      <trkpt lat="42.74059" lon="-0.74822">
        <time>2022-07-30T10:28:18Z</time>
      </trkpt>
      <trkpt lat="42.74048" lon="-0.74826">
        <time>2022-07-30T10:28:19Z</time>
      </trkpt>
      <trkpt lat="42.74037" lon="-0.74829">
        <time>2022-07-30T10:28:20Z</time>
      </trkpt>
      <trkpt lat="42.74028" lon="-0.74832">
        <time>2022-07-30T10:28:21Z</time>
      </trkpt>
      <trkpt lat="42.74019" lon="-0.74834">
        <time>2022-07-30T10:28:22Z</time>
      </trkpt>
      <trkpt lat="42.74011" lon="-0.74836">
        <time>2022-07-30T10:28:23Z</time>
      </trkpt>
      <trkpt lat="42.74005" lon="-0.74838">
        <time>2022-07-30T10:28:24Z</time>
      </trkpt>
      <trkpt lat="42.73999" lon="-0.7484">
        <time>2022-07-30T10:28:25Z</time>
      </trkpt>
      <trkpt lat="42.73994" lon="-0.74842">
        <time>2022-07-30T10:28:26Z</time>
      </trkpt>
      <trkpt lat="42.73991" lon="-0.74846">
        <time>2022-07-30T10:28:27Z</time>
      </trkpt>
      <trkpt lat="42.73988" lon="-0.7485">
        <time>2022-07-30T10:28:28Z</time>
      </trkpt>
      <trkpt lat="42.73986" lon="-0.74856">
        <time>2022-07-30T10:28:29Z</time>
      </trkpt>
      <trkpt lat="42.73986" lon="-0.74864">
        <time>2022-07-30T10:28:30Z</time>
      </trkpt>
      <trkpt lat="42.73986" lon="-0.74873">
        <time>2022-07-30T10:28:31Z</time>
      </trkpt>
      <trkpt lat="42.73985" lon="-0.74885">
        <time>2022-07-30T10:28:32Z</time>
      </trkpt>
      <trkpt lat="42.73985" lon="-0.74896">
        <time>2022-07-30T10:28:33Z</time>
      </trkpt>
      <trkpt lat="42.73984" lon="-0.74908">
        <time>2022-07-30T10:28:34Z</time>
      </trkpt>
      <trkpt lat="42.73984" lon="-0.74921">
        <time>2022-07-30T10:28:35Z</time>
      </trkpt>
      <trkpt lat="42.73983" lon="-0.74936">
        <time>2022-07-30T10:28:36Z</time>
      </trkpt>
      <trkpt lat="42.73982" lon="-0.74951">
        <time>2022-07-30T10:28:37Z</time>
      </trkpt>
      <trkpt lat="42.73982" lon="-0.74965">
        <time>2022-07-30T10:28:38Z</time>
      </trkpt>
      <trkpt lat="42.73981" lon="-0.7498">
        <time>2022-07-30T10:28:39Z</time>
      </trkpt>
      <trkpt lat="42.7398" lon="-0.74995">
        <time>2022-07-30T10:28:40Z</time>
      </trkpt>
      <trkpt lat="42.7398" lon="-0.75009">
        <time>2022-07-30T10:28:41Z</time>
      </trkpt>
      <trkpt lat="42.73979" lon="-0.75024">
        <time>2022-07-30T10:28:42Z</time>
      </trkpt>
      <trkpt lat="42.73979" lon="-0.75039">
        <time>2022-07-30T10:28:43Z</time>
      </trkpt>
      <trkpt lat="42.73979" lon="-0.75052">
        <time>2022-07-30T10:28:44Z</time>
      </trkpt>
      <trkpt lat="42.73979" lon="-0.75067">
        <time>2022-07-30T10:28:45Z</time>
      </trkpt>
      <trkpt lat="42.73979" lon="-0.75081">
        <time>2022-07-30T10:28:46Z</time>
      </trkpt>
      <trkpt lat="42.7398" lon="-0.75096">
        <time>2022-07-30T10:28:47Z</time>
      </trkpt>
      <trkpt lat="42.73981" lon="-0.7511">
        <time>2022-07-30T10:28:48Z</time>
      </trkpt>
      <trkpt lat="42.73982" lon="-0.75125">
        <time>2022-07-30T10:28:49Z</time>
      </trkpt>
      <trkpt lat="42.73983" lon="-0.75138">
        <time>2022-07-30T10:28:50Z</time>
      </trkpt>
      <trkpt lat="42.73984" lon="-0.75152">
        <time>2022-07-30T10:28:51Z</time>
      </trkpt>
      <trkpt lat="42.73985" lon="-0.75165">
        <time>2022-07-30T10:28:52Z</time>
      </trkpt>
      <trkpt lat="42.73983" lon="-0.75177">
        <time>2022-07-30T10:28:53Z</time>
      </trkpt>
      <trkpt lat="42.73979" lon="-0.75189">
        <time>2022-07-30T10:28:54Z</time>
      </trkpt>
      <trkpt lat="42.73974" lon="-0.75199">
        <time>2022-07-30T10:28:55Z</time>
      </trkpt>
      <trkpt lat="42.73967" lon="-0.75209">
        <time>2022-07-30T10:28:56Z</time>
      </trkpt>
      <trkpt lat="42.7396" lon="-0.75218">
        <time>2022-07-30T10:28:57Z</time>
      </trkpt>
      <trkpt lat="42.73952" lon="-0.75228">
        <time>2022-07-30T10:28:58Z</time>
      </trkpt>
      <trkpt lat="42.73946" lon="-0.75237">
        <time>2022-07-30T10:28:59Z</time>
      </trkpt>
      <trkpt lat="42.73939" lon="-0.75245">
        <time>2022-07-30T10:29:00Z</time>
      </trkpt>
      <trkpt lat="42.73931" lon="-0.7525">
        <time>2022-07-30T10:29:01Z</time>
      </trkpt>
      <trkpt lat="42.73922" lon="-0.75252">
        <time>2022-07-30T10:29:02Z</time>
      </trkpt>
      <trkpt lat="42.73912" lon="-0.7525">
        <time>2022-07-30T10:29:03Z</time>
      </trkpt>
      <trkpt lat="42.73901" lon="-0.75243">
        <time>2022-07-30T10:29:04Z</time>
      </trkpt>
      <trkpt lat="42.7389" lon="-0.75234">
        <time>2022-07-30T10:29:05Z</time>
      </trkpt>
      <trkpt lat="42.73879" lon="-0.75226">
        <time>2022-07-30T10:29:06Z</time>
      </trkpt>
      <trkpt lat="42.73869" lon="-0.75217">
        <time>2022-07-30T10:29:07Z</time>
      </trkpt>
      <trkpt lat="42.73859" lon="-0.75209">
        <time>2022-07-30T10:29:08Z</time>
      </trkpt>
      <trkpt lat="42.73849" lon="-0.75201">
        <time>2022-07-30T10:29:09Z</time>
      </trkpt>
      <trkpt lat="42.73839" lon="-0.75194">
        <time>2022-07-30T10:29:10Z</time>
      </trkpt>
      <trkpt lat="42.7383" lon="-0.75187">
        <time>2022-07-30T10:29:11Z</time>
      </trkpt>
      <trkpt lat="42.73821" lon="-0.75181">
        <time>2022-07-30T10:29:12Z</time>
      </trkpt>
      <trkpt lat="42.73813" lon="-0.75175">
        <time>2022-07-30T10:29:13Z</time>
      </trkpt>
      <trkpt lat="42.73805" lon="-0.7517">
        <time>2022-07-30T10:29:14Z</time>
      </trkpt>
      <trkpt lat="42.73797" lon="-0.75165">
        <time>2022-07-30T10:29:15Z</time>
      </trkpt>
      <trkpt lat="42.73788" lon="-0.75163">
        <time>2022-07-30T10:29:16Z</time>
      </trkpt>
      <trkpt lat="42.73778" lon="-0.75163">
        <time>2022-07-30T10:29:17Z</time>
      </trkpt>
      <trkpt lat="42.73768" lon="-0.75163">
        <time>2022-07-30T10:29:18Z</time>
      </trkpt>
      <trkpt lat="42.73757" lon="-0.75163">
        <time>2022-07-30T10:29:19Z</time>
      </trkpt>
      <trkpt lat="42.73746" lon="-0.75164">
        <time>2022-07-30T10:29:20Z</time>
      </trkpt>
      <trkpt lat="42.73735" lon="-0.75164">
        <time>2022-07-30T10:29:21Z</time>
      </trkpt>
      <trkpt lat="42.73724" lon="-0.75164">
        <time>2022-07-30T10:29:22Z</time>
      </trkpt>
      <trkpt lat="42.73713" lon="-0.75164">
        <time>2022-07-30T10:29:23Z</time>
      </trkpt>
      <trkpt lat="42.73703" lon="-0.75164">
        <time>2022-07-30T10:29:24Z</time>
      </trkpt>
      <trkpt lat="42.73693" lon="-0.75164">
        <time>2022-07-30T10:29:25Z</time>
      </trkpt>
      <trkpt lat="42.73684" lon="-0.75164">
        <time>2022-07-30T10:29:26Z</time>
      </trkpt>
      <trkpt lat="42.73675" lon="-0.75164">
        <time>2022-07-30T10:29:27Z</time>
      </trkpt>
      <trkpt lat="42.73665" lon="-0.75164">
        <time>2022-07-30T10:29:28Z</time>
      </trkpt>
      <trkpt lat="42.73656" lon="-0.75165">
        <time>2022-07-30T10:29:29Z</time>
      </trkpt>
      <trkpt lat="42.73647" lon="-0.75166">
        <time>2022-07-30T10:29:30Z</time>
      </trkpt>
      <trkpt lat="42.73638" lon="-0.75167">
        <time>2022-07-30T10:29:31Z</time>
      </trkpt>
      <trkpt lat="42.73629" lon="-0.75168">
        <time>2022-07-30T10:29:32Z</time>
      </trkpt>
      <trkpt lat="42.7362" lon="-0.7517">
        <time>2022-07-30T10:29:33Z</time>
      </trkpt>
      <trkpt lat="42.7361" lon="-0.75172">
        <time>2022-07-30T10:29:34Z</time>
      </trkpt>
      <trkpt lat="42.73602" lon="-0.75173">
        <time>2022-07-30T10:29:35Z</time>
      </trkpt>
      <trkpt lat="42.73594" lon="-0.75175">
        <time>2022-07-30T10:29:36Z</time>
      </trkpt>
      <trkpt lat="42.73587" lon="-0.75177">
        <time>2022-07-30T10:29:37Z</time>
      </trkpt>
      <trkpt lat="42.73582" lon="-0.75178">
        <time>2022-07-30T10:29:38Z</time>
      </trkpt>
      <trkpt lat="42.73577" lon="-0.75182">
        <time>2022-07-30T10:29:39Z</time>
      </trkpt>
      <trkpt lat="42.73574" lon="-0.75187">
        <time>2022-07-30T10:29:40Z</time>
      </trkpt>
      <trkpt lat="42.73573" lon="-0.75194">
        <time>2022-07-30T10:29:41Z</time>
      </trkpt>
      <trkpt lat="42.73573" lon="-0.75203">
        <time>2022-07-30T10:29:42Z</time>
      </trkpt>
      <trkpt lat="42.73575" lon="-0.75214">
        <time>2022-07-30T10:29:43Z</time>
      </trkpt>
      <trkpt lat="42.73576" lon="-0.75225">
        <time>2022-07-30T10:29:44Z</time>
      </trkpt>
      <trkpt lat="42.73577" lon="-0.75237">
        <time>2022-07-30T10:29:45Z</time>
      </trkpt>
      <trkpt lat="42.73578" lon="-0.75251">
        <time>2022-07-30T10:29:46Z</time>
      </trkpt>
      <trkpt lat="42.73579" lon="-0.75265">
        <time>2022-07-30T10:29:47Z</time>
      </trkpt>
      <trkpt lat="42.73579" lon="-0.75277">
        <time>2022-07-30T10:29:48Z</time>
      </trkpt>
      <trkpt lat="42.73578" lon="-0.75291">
        <time>2022-07-30T10:29:49Z</time>
      </trkpt>
      <trkpt lat="42.73573" lon="-0.75304">
        <time>2022-07-30T10:29:50Z</time>
      </trkpt>
      <trkpt lat="42.73568" lon="-0.75317">
        <time>2022-07-30T10:29:51Z</time>
      </trkpt>
      <trkpt lat="42.73561" lon="-0.75329">
        <time>2022-07-30T10:29:52Z</time>
      </trkpt>
      <trkpt lat="42.73554" lon="-0.75341">
        <time>2022-07-30T10:29:53Z</time>
      </trkpt>
      <trkpt lat="42.73547" lon="-0.75354">
        <time>2022-07-30T10:29:54Z</time>
      </trkpt>
      <trkpt lat="42.7354" lon="-0.75367">
        <time>2022-07-30T10:29:55Z</time>
      </trkpt>
      <trkpt lat="42.73534" lon="-0.7538">
        <time>2022-07-30T10:29:56Z</time>
      </trkpt>
      <trkpt lat="42.73528" lon="-0.75392">
        <time>2022-07-30T10:29:57Z</time>
      </trkpt>
      <trkpt lat="42.73523" lon="-0.75404">
        <time>2022-07-30T10:29:58Z</time>
      </trkpt>
      <trkpt lat="42.73519" lon="-0.75418">
        <time>2022-07-30T10:29:59Z</time>
      </trkpt>
      <trkpt lat="42.73515" lon="-0.75433">
        <time>2022-07-30T10:30:00Z</time>
      </trkpt>
      <trkpt lat="42.73513" lon="-0.75447">
        <time>2022-07-30T10:30:01Z</time>
      </trkpt>
      <trkpt lat="42.73511" lon="-0.75461">
        <time>2022-07-30T10:30:02Z</time>
      </trkpt>
      <trkpt lat="42.73511" lon="-0.75475">
        <time>2022-07-30T10:30:03Z</time>
      </trkpt>
      <trkpt lat="42.73511" lon="-0.75489">
        <time>2022-07-30T10:30:04Z</time>
      </trkpt>
      <trkpt lat="42.73513" lon="-0.75504">
        <time>2022-07-30T10:30:05Z</time>
      </trkpt>
      <trkpt lat="42.73516" lon="-0.7552">
        <time>2022-07-30T10:30:06Z</time>
      </trkpt>
      <trkpt lat="42.73519" lon="-0.75536">
        <time>2022-07-30T10:30:07Z</time>
      </trkpt>
      <trkpt lat="42.73522" lon="-0.75551">
        <time>2022-07-30T10:30:08Z</time>
      </trkpt>
      <trkpt lat="42.73526" lon="-0.75566">
        <time>2022-07-30T10:30:09Z</time>
      </trkpt>
      <trkpt lat="42.7353" lon="-0.75582">
        <time>2022-07-30T10:30:10Z</time>
      </trkpt>
      <trkpt lat="42.73534" lon="-0.756">
        <time>2022-07-30T10:30:11Z</time>
      </trkpt>
      <trkpt lat="42.73539" lon="-0.75619">
        <time>2022-07-30T10:30:12Z</time>
      </trkpt>
      <trkpt lat="42.73544" lon="-0.75639">
        <time>2022-07-30T10:30:13Z</time>
      </trkpt>
      <trkpt lat="42.7355" lon="-0.75657">
        <time>2022-07-30T10:30:14Z</time>
      </trkpt>
      <trkpt lat="42.73556" lon="-0.75675">
        <time>2022-07-30T10:30:15Z</time>
      </trkpt>
      <trkpt lat="42.73562" lon="-0.75693">
        <time>2022-07-30T10:30:16Z</time>
      </trkpt>
      <trkpt lat="42.73568" lon="-0.7571">
        <time>2022-07-30T10:30:17Z</time>
      </trkpt>
      <trkpt lat="42.73574" lon="-0.75727">
        <time>2022-07-30T10:30:18Z</time>
      </trkpt>
      <trkpt lat="42.7358" lon="-0.75744">
        <time>2022-07-30T10:30:19Z</time>
      </trkpt>
      <trkpt lat="42.73586" lon="-0.75761">
        <time>2022-07-30T10:30:20Z</time>
      </trkpt>
      <trkpt lat="42.73593" lon="-0.75778">
        <time>2022-07-30T10:30:21Z</time>
      </trkpt>
      <trkpt lat="42.736" lon="-0.75798">
        <time>2022-07-30T10:30:22Z</time>
      </trkpt>
      <trkpt lat="42.73608" lon="-0.75819">
        <time>2022-07-30T10:30:23Z</time>
      </trkpt>
      <trkpt lat="42.73617" lon="-0.75843">
        <time>2022-07-30T10:30:24Z</time>
      </trkpt>
      <trkpt lat="42.73625" lon="-0.75866">
        <time>2022-07-30T10:30:25Z</time>
      </trkpt>
      <trkpt lat="42.73634" lon="-0.7589">
        <time>2022-07-30T10:30:26Z</time>
      </trkpt>
      <trkpt lat="42.73642" lon="-0.75914">
        <time>2022-07-30T10:30:27Z</time>
      </trkpt>
      <trkpt lat="42.73651" lon="-0.75938">
        <time>2022-07-30T10:30:28Z</time>
      </trkpt>
      <trkpt lat="42.73659" lon="-0.75962">
        <time>2022-07-30T10:30:29Z</time>
      </trkpt>
      <trkpt lat="42.73667" lon="-0.75985">
        <time>2022-07-30T10:30:30Z</time>
      </trkpt>
      <trkpt lat="42.73675" lon="-0.76009">
        <time>2022-07-30T10:30:31Z</time>
      </trkpt>
      <trkpt lat="42.73682" lon="-0.76033">
        <time>2022-07-30T10:30:32Z</time>
      </trkpt>
      <trkpt lat="42.7369" lon="-0.76056">
        <time>2022-07-30T10:30:33Z</time>
      </trkpt>
      <trkpt lat="42.73698" lon="-0.7608">
        <time>2022-07-30T10:30:34Z</time>
      </trkpt>
      <trkpt lat="42.73706" lon="-0.76104">
        <time>2022-07-30T10:30:35Z</time>
      </trkpt>
      <trkpt lat="42.73713" lon="-0.76127">
        <time>2022-07-30T10:30:36Z</time>
      </trkpt>
      <trkpt lat="42.73722" lon="-0.76149">
        <time>2022-07-30T10:30:37Z</time>
      </trkpt>
      <trkpt lat="42.7373" lon="-0.76171">
        <time>2022-07-30T10:30:38Z</time>
      </trkpt>
      <trkpt lat="42.73738" lon="-0.76192">
        <time>2022-07-30T10:30:39Z</time>
      </trkpt>
      <trkpt lat="42.73747" lon="-0.76213">
        <time>2022-07-30T10:30:40Z</time>
      </trkpt>
      <trkpt lat="42.73755" lon="-0.76234">
        <time>2022-07-30T10:30:41Z</time>
      </trkpt>
      <trkpt lat="42.73762" lon="-0.76256">
        <time>2022-07-30T10:30:42Z</time>
      </trkpt>
      <trkpt lat="42.73769" lon="-0.76278">
        <time>2022-07-30T10:30:43Z</time>
      </trkpt>
      <trkpt lat="42.73774" lon="-0.76302">
        <time>2022-07-30T10:30:44Z</time>
      </trkpt>
      <trkpt lat="42.73778" lon="-0.76326">
        <time>2022-07-30T10:30:45Z</time>
      </trkpt>
      <trkpt lat="42.73782" lon="-0.7635">
        <time>2022-07-30T10:30:46Z</time>
      </trkpt>
      <trkpt lat="42.73787" lon="-0.76372">
        <time>2022-07-30T10:30:47Z</time>
      </trkpt>
      <trkpt lat="42.73794" lon="-0.76391">
        <time>2022-07-30T10:30:48Z</time>
      </trkpt>
      <trkpt lat="42.73803" lon="-0.76407">
        <time>2022-07-30T10:30:49Z</time>
      </trkpt>
      <trkpt lat="42.73812" lon="-0.76422">
        <time>2022-07-30T10:30:50Z</time>
      </trkpt>
      <trkpt lat="42.7382" lon="-0.7644">
        <time>2022-07-30T10:30:51Z</time>
      </trkpt>
      <trkpt lat="42.73825" lon="-0.76461">
        <time>2022-07-30T10:30:52Z</time>
      </trkpt>
      <trkpt lat="42.73827" lon="-0.76485">
        <time>2022-07-30T10:30:53Z</time>
      </trkpt>
      <trkpt lat="42.73829" lon="-0.7651">
        <time>2022-07-30T10:30:54Z</time>
      </trkpt>
      <trkpt lat="42.73832" lon="-0.76538">
        <time>2022-07-30T10:30:55Z</time>
      </trkpt>
      <trkpt lat="42.73836" lon="-0.76567">
        <time>2022-07-30T10:30:56Z</time>
      </trkpt>
      <trkpt lat="42.73837" lon="-0.76597">
        <time>2022-07-30T10:30:57Z</time>
      </trkpt>
      <trkpt lat="42.73838" lon="-0.76626">
        <time>2022-07-30T10:30:58Z</time>
      </trkpt>
      <trkpt lat="42.73839" lon="-0.76654">
        <time>2022-07-30T10:30:59Z</time>
      </trkpt>
      <trkpt lat="42.73839" lon="-0.76682">
        <time>2022-07-30T10:31:00Z</time>
      </trkpt>
      <trkpt lat="42.7384" lon="-0.7671">
        <time>2022-07-30T10:31:01Z</time>
      </trkpt>
      <trkpt lat="42.73844" lon="-0.76738">
        <time>2022-07-30T10:31:02Z</time>
      </trkpt>
      <trkpt lat="42.73849" lon="-0.76766">
        <time>2022-07-30T10:31:03Z</time>
      </trkpt>
      <trkpt lat="42.73855" lon="-0.76794">
        <time>2022-07-30T10:31:04Z</time>
      </trkpt>
      <trkpt lat="42.73859" lon="-0.76823">
        <time>2022-07-30T10:31:05Z</time>
      </trkpt>
      <trkpt lat="42.73862" lon="-0.76853">
        <time>2022-07-30T10:31:06Z</time>
      </trkpt>
      <trkpt lat="42.73864" lon="-0.76883">
        <time>2022-07-30T10:31:07Z</time>
      </trkpt>
      <trkpt lat="42.73865" lon="-0.76911">
        <time>2022-07-30T10:31:08Z</time>
      </trkpt>
      <trkpt lat="42.73866" lon="-0.76938">
        <time>2022-07-30T10:31:09Z</time>
      </trkpt>
      <trkpt lat="42.73867" lon="-0.76962">
        <time>2022-07-30T10:31:10Z</time>
      </trkpt>
      <trkpt lat="42.73869" lon="-0.76985">
        <time>2022-07-30T10:31:11Z</time>
      </trkpt>
      <trkpt lat="42.73871" lon="-0.77007">
        <time>2022-07-30T10:31:12Z</time>
      </trkpt>
      <trkpt lat="42.73877" lon="-0.77028">
        <time>2022-07-30T10:31:13Z</time>
      </trkpt>
      <trkpt lat="42.73884" lon="-0.77048">
        <time>2022-07-30T10:31:14Z</time>
      </trkpt>
      <trkpt lat="42.73894" lon="-0.77069">
        <time>2022-07-30T10:31:15Z</time>
      </trkpt>
      <trkpt lat="42.73904" lon="-0.77091">
        <time>2022-07-30T10:31:16Z</time>
      </trkpt>
      <trkpt lat="42.73914" lon="-0.77114">
        <time>2022-07-30T10:31:17Z</time>
      </trkpt>
      <trkpt lat="42.73923" lon="-0.77138">
        <time>2022-07-30T10:31:18Z</time>
      </trkpt>
      <trkpt lat="42.73931" lon="-0.77162">
        <time>2022-07-30T10:31:19Z</time>
      </trkpt>
      <trkpt lat="42.7394" lon="-0.77186">
        <time>2022-07-30T10:31:20Z</time>
      </trkpt>
      <trkpt lat="42.73949" lon="-0.77209">
        <time>2022-07-30T10:31:21Z</time>
      </trkpt>
      <trkpt lat="42.73957" lon="-0.77232">
        <time>2022-07-30T10:31:22Z</time>
      </trkpt>
      <trkpt lat="42.73965" lon="-0.77255">
        <time>2022-07-30T10:31:23Z</time>
      </trkpt>
      <trkpt lat="42.7397" lon="-0.77279">
        <time>2022-07-30T10:31:24Z</time>
      </trkpt>
      <trkpt lat="42.73973" lon="-0.77303">
        <time>2022-07-30T10:31:25Z</time>
      </trkpt>
      <trkpt lat="42.73977" lon="-0.77328">
        <time>2022-07-30T10:31:26Z</time>
      </trkpt>
      <trkpt lat="42.7398" lon="-0.77352">
        <time>2022-07-30T10:31:27Z</time>
      </trkpt>
      <trkpt lat="42.73984" lon="-0.77376">
        <time>2022-07-30T10:31:28Z</time>
      </trkpt>
      <trkpt lat="42.7399" lon="-0.77399">
        <time>2022-07-30T10:31:29Z</time>
      </trkpt>
      <trkpt lat="42.73999" lon="-0.77422">
        <time>2022-07-30T10:31:30Z</time>
      </trkpt>
      <trkpt lat="42.7401" lon="-0.77443">
        <time>2022-07-30T10:31:31Z</time>
      </trkpt>
      <trkpt lat="42.74023" lon="-0.77464">
        <time>2022-07-30T10:31:32Z</time>
      </trkpt>
      <trkpt lat="42.74036" lon="-0.77484">
        <time>2022-07-30T10:31:33Z</time>
      </trkpt>
      <trkpt lat="42.74049" lon="-0.77503">
        <time>2022-07-30T10:31:34Z</time>
      </trkpt>
      <trkpt lat="42.74062" lon="-0.77522">
        <time>2022-07-30T10:31:35Z</time>
      </trkpt>
      <trkpt lat="42.74074" lon="-0.7754">
        <time>2022-07-30T10:31:36Z</time>
      </trkpt>
      <trkpt lat="42.74087" lon="-0.77555">
        <time>2022-07-30T10:31:37Z</time>
      </trkpt>
      <trkpt lat="42.74101" lon="-0.77565">
        <time>2022-07-30T10:31:38Z</time>
      </trkpt>
      <trkpt lat="42.74115" lon="-0.77572">
        <time>2022-07-30T10:31:39Z</time>
      </trkpt>
      <trkpt lat="42.74131" lon="-0.77575">
        <time>2022-07-30T10:31:40Z</time>
      </trkpt>
      <trkpt lat="42.74148" lon="-0.77579">
        <time>2022-07-30T10:31:41Z</time>
      </trkpt>
      <trkpt lat="42.74165" lon="-0.77584">
        <time>2022-07-30T10:31:42Z</time>
      </trkpt>
      <trkpt lat="42.74183" lon="-0.7759">
        <time>2022-07-30T10:31:43Z</time>
      </trkpt>
      <trkpt lat="42.74202" lon="-0.77598">
        <time>2022-07-30T10:31:44Z</time>
      </trkpt>
      <trkpt lat="42.74218" lon="-0.77608">
        <time>2022-07-30T10:31:45Z</time>
      </trkpt>
      <trkpt lat="42.74235" lon="-0.77616">
        <time>2022-07-30T10:31:46Z</time>
      </trkpt>
      <trkpt lat="42.7425" lon="-0.77622">
        <time>2022-07-30T10:31:47Z</time>
      </trkpt>
      <trkpt lat="42.74267" lon="-0.77624">
        <time>2022-07-30T10:31:48Z</time>
      </trkpt>
      <trkpt lat="42.74284" lon="-0.77628">
        <time>2022-07-30T10:31:49Z</time>
      </trkpt>
      <trkpt lat="42.74301" lon="-0.77635">
        <time>2022-07-30T10:31:50Z</time>
      </trkpt>
      <trkpt lat="42.74317" lon="-0.77646">
        <time>2022-07-30T10:31:51Z</time>
      </trkpt>
      <trkpt lat="42.74332" lon="-0.77658">
        <time>2022-07-30T10:31:52Z</time>
      </trkpt>
      <trkpt lat="42.74349" lon="-0.77671">
        <time>2022-07-30T10:31:53Z</time>
      </trkpt>
      <trkpt lat="42.74366" lon="-0.77683">
        <time>2022-07-30T10:31:54Z</time>
      </trkpt>
      <trkpt lat="42.74384" lon="-0.77692">
        <time>2022-07-30T10:31:55Z</time>
      </trkpt>
      <trkpt lat="42.74403" lon="-0.77699">
        <time>2022-07-30T10:31:56Z</time>
      </trkpt>
      <trkpt lat="42.74423" lon="-0.77702">
        <time>2022-07-30T10:31:57Z</time>
      </trkpt>
      <trkpt lat="42.74443" lon="-0.77701">
        <time>2022-07-30T10:31:58Z</time>
      </trkpt>
      <trkpt lat="42.74465" lon="-0.77697">
        <time>2022-07-30T10:31:59Z</time>
      </trkpt>
      <trkpt lat="42.74486" lon="-0.77695">
        <time>2022-07-30T10:32:00Z</time>
      </trkpt>
      <trkpt lat="42.74507" lon="-0.77695">
        <time>2022-07-30T10:32:01Z</time>
      </trkpt>
      <trkpt lat="42.74528" lon="-0.77697">
        <time>2022-07-30T10:32:02Z</time>
      </trkpt>
      <trkpt lat="42.74547" lon="-0.77698">
        <time>2022-07-30T10:32:03Z</time>
      </trkpt>
      <trkpt lat="42.74567" lon="-0.77699">
        <time>2022-07-30T10:32:04Z</time>
      </trkpt>
      <trkpt lat="42.74585" lon="-0.77699">
        <time>2022-07-30T10:32:05Z</time>
      </trkpt>
      <trkpt lat="42.74604" lon="-0.77696">
        <time>2022-07-30T10:32:06Z</time>
      </trkpt>
      <trkpt lat="42.7462" lon="-0.77689">
        <time>2022-07-30T10:32:07Z</time>
      </trkpt>
      <trkpt lat="42.74637" lon="-0.77678">
        <time>2022-07-30T10:32:08Z</time>
      </trkpt>
      <trkpt lat="42.74654" lon="-0.77664">
        <time>2022-07-30T10:32:09Z</time>
      </trkpt>
      <trkpt lat="42.74671" lon="-0.77649">
        <time>2022-07-30T10:32:10Z</time>
      </trkpt>
      <trkpt lat="42.74689" lon="-0.77634">
        <time>2022-07-30T10:32:11Z</time>
      </trkpt>
      <trkpt lat="42.74706" lon="-0.77618">
        <time>2022-07-30T10:32:12Z</time>
      </trkpt>
      <trkpt lat="42.74723" lon="-0.77603">
        <time>2022-07-30T10:32:13Z</time>
      </trkpt>
      <trkpt lat="42.7474" lon="-0.77591">
        <time>2022-07-30T10:32:14Z</time>
      </trkpt>
      <trkpt lat="42.74756" lon="-0.77581">
        <time>2022-07-30T10:32:15Z</time>
      </trkpt>
      <trkpt lat="42.74772" lon="-0.77572">
        <time>2022-07-30T10:32:16Z</time>
      </trkpt>
      <trkpt lat="42.74786" lon="-0.77565">
        <time>2022-07-30T10:32:17Z</time>
      </trkpt>
      <trkpt lat="42.74799" lon="-0.77561">
        <time>2022-07-30T10:32:18Z</time>
      </trkpt>
      <trkpt lat="42.74809" lon="-0.7756">
        <time>2022-07-30T10:32:19Z</time>
      </trkpt>
      <trkpt lat="42.74818" lon="-0.77564">
        <time>2022-07-30T10:32:20Z</time>
      </trkpt>
      <trkpt lat="42.74824" lon="-0.77572">
        <time>2022-07-30T10:32:21Z</time>
      </trkpt>
      <trkpt lat="42.74831" lon="-0.77579">
        <time>2022-07-30T10:32:22Z</time>
      </trkpt>
      <trkpt lat="42.74835" lon="-0.77588">
        <time>2022-07-30T10:32:23Z</time>
      </trkpt>
      <trkpt lat="42.74832" lon="-0.77599">
        <time>2022-07-30T10:32:24Z</time>
      </trkpt>
      <trkpt lat="42.74828" lon="-0.77615">
        <time>2022-07-30T10:32:25Z</time>
      </trkpt>
      <trkpt lat="42.74819" lon="-0.77629">
        <time>2022-07-30T10:32:26Z</time>
      </trkpt>
      <trkpt lat="42.74802" lon="-0.77641">
        <time>2022-07-30T10:32:27Z</time>
      </trkpt>
      <trkpt lat="42.74794" lon="-0.77654">
        <time>2022-07-30T10:32:28Z</time>
      </trkpt>
      <trkpt lat="42.7479" lon="-0.77668">
        <time>2022-07-30T10:32:29Z</time>
      </trkpt>
      <trkpt lat="42.74792" lon="-0.7768">
        <time>2022-07-30T10:32:30Z</time>
      </trkpt>
      <trkpt lat="42.74798" lon="-0.7769">
        <time>2022-07-30T10:32:31Z</time>
      </trkpt>
      <trkpt lat="42.74805" lon="-0.777">
        <time>2022-07-30T10:32:32Z</time>
      </trkpt>
      <trkpt lat="42.7481" lon="-0.77713">
        <time>2022-07-30T10:32:33Z</time>
      </trkpt>
      <trkpt lat="42.74811" lon="-0.77727">
        <time>2022-07-30T10:32:34Z</time>
      </trkpt>
      <trkpt lat="42.74809" lon="-0.77741">
        <time>2022-07-30T10:32:35Z</time>
      </trkpt>
      <trkpt lat="42.74804" lon="-0.77753">
        <time>2022-07-30T10:32:36Z</time>
      </trkpt>
      <trkpt lat="42.74797" lon="-0.77762">
        <time>2022-07-30T10:32:37Z</time>
      </trkpt>
      <trkpt lat="42.74778" lon="-0.77761">
        <time>2022-07-30T10:32:38Z</time>
      </trkpt>
      <trkpt lat="42.74764" lon="-0.77762">
        <time>2022-07-30T10:32:39Z</time>
      </trkpt>
      <trkpt lat="42.74749" lon="-0.77764">
        <time>2022-07-30T10:32:40Z</time>
      </trkpt>
      <trkpt lat="42.74736" lon="-0.77766">
        <time>2022-07-30T10:32:41Z</time>
      </trkpt>
      <trkpt lat="42.74725" lon="-0.77774">
        <time>2022-07-30T10:32:42Z</time>
      </trkpt>
      <trkpt lat="42.74714" lon="-0.77787">
        <time>2022-07-30T10:32:43Z</time>
      </trkpt>
      <trkpt lat="42.74706" lon="-0.77802">
        <time>2022-07-30T10:32:44Z</time>
      </trkpt>
      <trkpt lat="42.747" lon="-0.77816">
        <time>2022-07-30T10:32:45Z</time>
      </trkpt>
      <trkpt lat="42.74699" lon="-0.77831">
        <time>2022-07-30T10:32:46Z</time>
      </trkpt>
      <trkpt lat="42.74703" lon="-0.77846">
        <time>2022-07-30T10:32:47Z</time>
      </trkpt>
      <trkpt lat="42.74709" lon="-0.77862">
        <time>2022-07-30T10:32:48Z</time>
      </trkpt>
      <trkpt lat="42.74717" lon="-0.77879">
        <time>2022-07-30T10:32:49Z</time>
      </trkpt>
      <trkpt lat="42.74726" lon="-0.77898">
        <time>2022-07-30T10:32:50Z</time>
      </trkpt>
      <trkpt lat="42.74735" lon="-0.77919">
        <time>2022-07-30T10:32:51Z</time>
      </trkpt>
      <trkpt lat="42.74743" lon="-0.77941">
        <time>2022-07-30T10:32:52Z</time>
      </trkpt>
      <trkpt lat="42.7475" lon="-0.77962">
        <time>2022-07-30T10:32:53Z</time>
      </trkpt>
      <trkpt lat="42.74756" lon="-0.77982">
        <time>2022-07-30T10:32:54Z</time>
      </trkpt>
      <trkpt lat="42.74762" lon="-0.78001">
        <time>2022-07-30T10:32:55Z</time>
      </trkpt>
      <trkpt lat="42.74766" lon="-0.78018">
        <time>2022-07-30T10:32:56Z</time>
      </trkpt>
      <trkpt lat="42.74767" lon="-0.78035">
        <time>2022-07-30T10:32:57Z</time>
      </trkpt>
      <trkpt lat="42.74763" lon="-0.78049">
        <time>2022-07-30T10:32:58Z</time>
      </trkpt>
      <trkpt lat="42.74759" lon="-0.78061">
        <time>2022-07-30T10:32:59Z</time>
      </trkpt>
      <trkpt lat="42.74753" lon="-0.78072">
        <time>2022-07-30T10:33:00Z</time>
      </trkpt>
      <trkpt lat="42.74738" lon="-0.78075">
        <time>2022-07-30T10:33:01Z</time>
      </trkpt>
      <trkpt lat="42.74718" lon="-0.78066">
        <time>2022-07-30T10:33:02Z</time>
      </trkpt>
      <trkpt lat="42.74702" lon="-0.78059">
        <time>2022-07-30T10:33:03Z</time>
      </trkpt>
      <trkpt lat="42.74684" lon="-0.78052">
        <time>2022-07-30T10:33:04Z</time>
      </trkpt>
      <trkpt lat="42.74667" lon="-0.78045">
        <time>2022-07-30T10:33:05Z</time>
      </trkpt>
      <trkpt lat="42.74651" lon="-0.7804">
        <time>2022-07-30T10:33:06Z</time>
      </trkpt>
      <trkpt lat="42.74637" lon="-0.78036">
        <time>2022-07-30T10:33:07Z</time>
      </trkpt>
      <trkpt lat="42.74624" lon="-0.78031">
        <time>2022-07-30T10:33:08Z</time>
      </trkpt>
      <trkpt lat="42.74613" lon="-0.78022">
        <time>2022-07-30T10:33:09Z</time>
      </trkpt>
      <trkpt lat="42.74604" lon="-0.78008">
        <time>2022-07-30T10:33:10Z</time>
      </trkpt>
      <trkpt lat="42.74598" lon="-0.77993">
        <time>2022-07-30T10:33:11Z</time>
      </trkpt>
      <trkpt lat="42.74591" lon="-0.77981">
        <time>2022-07-30T10:33:12Z</time>
      </trkpt>
      <trkpt lat="42.74584" lon="-0.77972">
        <time>2022-07-30T10:33:13Z</time>
      </trkpt>
      <trkpt lat="42.74575" lon="-0.77968">
        <time>2022-07-30T10:33:14Z</time>
      </trkpt>
      <trkpt lat="42.74566" lon="-0.77973">
        <time>2022-07-30T10:33:15Z</time>
      </trkpt>
      <trkpt lat="42.74558" lon="-0.77982">
        <time>2022-07-30T10:33:16Z</time>
      </trkpt>
      <trkpt lat="42.7455" lon="-0.77995">
        <time>2022-07-30T10:33:17Z</time>
      </trkpt>
      <trkpt lat="42.74541" lon="-0.7801">
        <time>2022-07-30T10:33:18Z</time>
      </trkpt>
      <trkpt lat="42.74531" lon="-0.78026">
        <time>2022-07-30T10:33:19Z</time>
      </trkpt>
      <trkpt lat="42.74523" lon="-0.78042">
        <time>2022-07-30T10:33:20Z</time>
      </trkpt>
      <trkpt lat="42.74513" lon="-0.78055">
        <time>2022-07-30T10:33:21Z</time>
      </trkpt>
      <trkpt lat="42.74502" lon="-0.78066">
        <time>2022-07-30T10:33:22Z</time>
      </trkpt>
      <trkpt lat="42.7449" lon="-0.78073">
        <time>2022-07-30T10:33:23Z</time>
      </trkpt>
      <trkpt lat="42.74478" lon="-0.78076">
        <time>2022-07-30T10:33:24Z</time>
      </trkpt>
      <trkpt lat="42.74466" lon="-0.78078">
        <time>2022-07-30T10:33:25Z</time>
      </trkpt>
      <trkpt lat="42.74458" lon="-0.7808">
        <time>2022-07-30T10:33:26Z</time>
      </trkpt>
      <trkpt lat="42.74452" lon="-0.78085">
        <time>2022-07-30T10:33:27Z</time>
      </trkpt>
      <trkpt lat="42.7445" lon="-0.78094">
        <time>2022-07-30T10:33:28Z</time>
      </trkpt>
      <trkpt lat="42.74451" lon="-0.78106">
        <time>2022-07-30T10:33:29Z</time>
      </trkpt>
      <trkpt lat="42.74455" lon="-0.78119">
        <time>2022-07-30T10:33:30Z</time>
      </trkpt>
      <trkpt lat="42.74462" lon="-0.78134">
        <time>2022-07-30T10:33:31Z</time>
      </trkpt>
      <trkpt lat="42.74467" lon="-0.78152">
        <time>2022-07-30T10:33:32Z</time>
      </trkpt>
      <trkpt lat="42.74472" lon="-0.78169">
        <time>2022-07-30T10:33:33Z</time>
      </trkpt>
      <trkpt lat="42.74476" lon="-0.78185">
        <time>2022-07-30T10:33:34Z</time>
      </trkpt>
      <trkpt lat="42.74477" lon="-0.78203">
        <time>2022-07-30T10:33:35Z</time>
      </trkpt>
      <trkpt lat="42.74472" lon="-0.78219">
        <time>2022-07-30T10:33:36Z</time>
      </trkpt>
      <trkpt lat="42.74463" lon="-0.78234">
        <time>2022-07-30T10:33:37Z</time>
      </trkpt>
      <trkpt lat="42.74451" lon="-0.78246">
        <time>2022-07-30T10:33:38Z</time>
      </trkpt>
      <trkpt lat="42.74436" lon="-0.78255">
        <time>2022-07-30T10:33:39Z</time>
      </trkpt>
      <trkpt lat="42.74421" lon="-0.78264">
        <time>2022-07-30T10:33:40Z</time>
      </trkpt>
      <trkpt lat="42.74409" lon="-0.78275">
        <time>2022-07-30T10:33:41Z</time>
      </trkpt>
      <trkpt lat="42.74399" lon="-0.78285">
        <time>2022-07-30T10:33:42Z</time>
      </trkpt>
      <trkpt lat="42.74389" lon="-0.78292">
        <time>2022-07-30T10:33:43Z</time>
      </trkpt>
      <trkpt lat="42.74378" lon="-0.78295">
        <time>2022-07-30T10:33:44Z</time>
      </trkpt>
      <trkpt lat="42.74367" lon="-0.78294">
        <time>2022-07-30T10:33:45Z</time>
      </trkpt>
      <trkpt lat="42.74355" lon="-0.7829">
        <time>2022-07-30T10:33:46Z</time>
      </trkpt>
      <trkpt lat="42.74342" lon="-0.78283">
        <time>2022-07-30T10:33:47Z</time>
      </trkpt>
      <trkpt lat="42.74327" lon="-0.78274">
        <time>2022-07-30T10:33:48Z</time>
      </trkpt>
      <trkpt lat="42.7431" lon="-0.78264">
        <time>2022-07-30T10:33:49Z</time>
      </trkpt>
      <trkpt lat="42.74292" lon="-0.78253">
        <time>2022-07-30T10:33:50Z</time>
      </trkpt>
      <trkpt lat="42.74274" lon="-0.78242">
        <time>2022-07-30T10:33:51Z</time>
      </trkpt>
      <trkpt lat="42.74257" lon="-0.78231">
        <time>2022-07-30T10:33:52Z</time>
      </trkpt>
      <trkpt lat="42.74242" lon="-0.78222">
        <time>2022-07-30T10:33:53Z</time>
      </trkpt>
      <trkpt lat="42.74229" lon="-0.78213">
        <time>2022-07-30T10:33:54Z</time>
      </trkpt>
      <trkpt lat="42.74218" lon="-0.78207">
        <time>2022-07-30T10:33:55Z</time>
      </trkpt>
      <trkpt lat="42.74209" lon="-0.78204">
        <time>2022-07-30T10:33:56Z</time>
      </trkpt>
      <trkpt lat="42.74199" lon="-0.78205">
        <time>2022-07-30T10:33:57Z</time>
      </trkpt>
      <trkpt lat="42.74192" lon="-0.78213">
        <time>2022-07-30T10:33:58Z</time>
      </trkpt>
      <trkpt lat="42.74189" lon="-0.78226">
        <time>2022-07-30T10:33:59Z</time>
      </trkpt>
      <trkpt lat="42.74186" lon="-0.78243">
        <time>2022-07-30T10:34:00Z</time>
      </trkpt>
      <trkpt lat="42.74184" lon="-0.78263">
        <time>2022-07-30T10:34:01Z</time>
      </trkpt>
      <trkpt lat="42.7418" lon="-0.78285">
        <time>2022-07-30T10:34:02Z</time>
      </trkpt>
      <trkpt lat="42.74175" lon="-0.78307">
        <time>2022-07-30T10:34:03Z</time>
      </trkpt>
      <trkpt lat="42.74169" lon="-0.78328">
        <time>2022-07-30T10:34:04Z</time>
      </trkpt>
      <trkpt lat="42.74163" lon="-0.78349">
        <time>2022-07-30T10:34:05Z</time>
      </trkpt>
      <trkpt lat="42.74155" lon="-0.78368">
        <time>2022-07-30T10:34:06Z</time>
      </trkpt>
      <trkpt lat="42.74144" lon="-0.78384">
        <time>2022-07-30T10:34:07Z</time>
      </trkpt>
      <trkpt lat="42.7413" lon="-0.78396">
        <time>2022-07-30T10:34:08Z</time>
      </trkpt>
      <trkpt lat="42.74115" lon="-0.78404">
        <time>2022-07-30T10:34:09Z</time>
      </trkpt>
      <trkpt lat="42.74099" lon="-0.7841">
        <time>2022-07-30T10:34:10Z</time>
      </trkpt>
      <trkpt lat="42.74084" lon="-0.78417">
        <time>2022-07-30T10:34:11Z</time>
      </trkpt>
      <trkpt lat="42.74069" lon="-0.78423">
        <time>2022-07-30T10:34:12Z</time>
      </trkpt>
      <trkpt lat="42.74055" lon="-0.78431">
        <time>2022-07-30T10:34:13Z</time>
      </trkpt>
      <trkpt lat="42.74042" lon="-0.7844">
        <time>2022-07-30T10:34:14Z</time>
      </trkpt>
      <trkpt lat="42.74032" lon="-0.78452">
        <time>2022-07-30T10:34:15Z</time>
      </trkpt>
      <trkpt lat="42.74021" lon="-0.78465">
        <time>2022-07-30T10:34:16Z</time>
      </trkpt>
      <trkpt lat="42.74012" lon="-0.7848">
        <time>2022-07-30T10:34:17Z</time>
      </trkpt>
      <trkpt lat="42.74002" lon="-0.78498">
        <time>2022-07-30T10:34:18Z</time>
      </trkpt>
      <trkpt lat="42.73993" lon="-0.78517">
        <time>2022-07-30T10:34:19Z</time>
      </trkpt>
      <trkpt lat="42.73984" lon="-0.78537">
        <time>2022-07-30T10:34:20Z</time>
      </trkpt>
      <trkpt lat="42.73976" lon="-0.78559">
        <time>2022-07-30T10:34:21Z</time>
      </trkpt>
      <trkpt lat="42.73969" lon="-0.78579">
        <time>2022-07-30T10:34:22Z</time>
      </trkpt>
      <trkpt lat="42.7396" lon="-0.78599">
        <time>2022-07-30T10:34:23Z</time>
      </trkpt>
      <trkpt lat="42.7395" lon="-0.78616">
        <time>2022-07-30T10:34:24Z</time>
      </trkpt>
      <trkpt lat="42.73939" lon="-0.78633">
        <time>2022-07-30T10:34:25Z</time>
      </trkpt>
      <trkpt lat="42.73928" lon="-0.78648">
        <time>2022-07-30T10:34:26Z</time>
      </trkpt>
      <trkpt lat="42.7392" lon="-0.78666">
        <time>2022-07-30T10:34:27Z</time>
      </trkpt>
      <trkpt lat="42.73913" lon="-0.78684">
        <time>2022-07-30T10:34:28Z</time>
      </trkpt>
      <trkpt lat="42.73907" lon="-0.78701">
        <time>2022-07-30T10:34:29Z</time>
      </trkpt>
      <trkpt lat="42.73902" lon="-0.78717">
        <time>2022-07-30T10:34:30Z</time>
      </trkpt>
      <trkpt lat="42.73896" lon="-0.7873">
        <time>2022-07-30T10:34:31Z</time>
      </trkpt>
      <trkpt lat="42.73889" lon="-0.7874">
        <time>2022-07-30T10:34:32Z</time>
      </trkpt>
      <trkpt lat="42.73881" lon="-0.78745">
        <time>2022-07-30T10:34:33Z</time>
      </trkpt>
      <trkpt lat="42.73871" lon="-0.78745">
        <time>2022-07-30T10:34:34Z</time>
      </trkpt>
      <trkpt lat="42.73861" lon="-0.78739">
        <time>2022-07-30T10:34:35Z</time>
      </trkpt>
      <trkpt lat="42.73849" lon="-0.78732">
        <time>2022-07-30T10:34:36Z</time>
      </trkpt>
      <trkpt lat="42.73836" lon="-0.78726">
        <time>2022-07-30T10:34:37Z</time>
      </trkpt>
      <trkpt lat="42.73821" lon="-0.78725">
        <time>2022-07-30T10:34:38Z</time>
      </trkpt>
      <trkpt lat="42.73804" lon="-0.78725">
        <time>2022-07-30T10:34:39Z</time>
      </trkpt>
      <trkpt lat="42.73788" lon="-0.78723">
        <time>2022-07-30T10:34:40Z</time>
      </trkpt>
      <trkpt lat="42.73774" lon="-0.78721">
        <time>2022-07-30T10:34:41Z</time>
      </trkpt>
      <trkpt lat="42.73761" lon="-0.78719">
        <time>2022-07-30T10:34:42Z</time>
      </trkpt>
      <trkpt lat="42.73748" lon="-0.7872">
        <time>2022-07-30T10:34:43Z</time>
      </trkpt>
      <trkpt lat="42.73736" lon="-0.78724">
        <time>2022-07-30T10:34:44Z</time>
      </trkpt>
      <trkpt lat="42.73724" lon="-0.78735">
        <time>2022-07-30T10:34:45Z</time>
      </trkpt>
      <trkpt lat="42.73712" lon="-0.78749">
        <time>2022-07-30T10:34:46Z</time>
      </trkpt>
      <trkpt lat="42.73701" lon="-0.78765">
        <time>2022-07-30T10:34:47Z</time>
      </trkpt>
      <trkpt lat="42.73689" lon="-0.78781">
        <time>2022-07-30T10:34:48Z</time>
      </trkpt>
      <trkpt lat="42.73677" lon="-0.78795">
        <time>2022-07-30T10:34:49Z</time>
      </trkpt>
      <trkpt lat="42.73663" lon="-0.78808">
        <time>2022-07-30T10:34:50Z</time>
      </trkpt>
      <trkpt lat="42.7365" lon="-0.78817">
        <time>2022-07-30T10:34:51Z</time>
      </trkpt>
      <trkpt lat="42.73638" lon="-0.78825">
        <time>2022-07-30T10:34:52Z</time>
      </trkpt>
      <trkpt lat="42.73626" lon="-0.78833">
        <time>2022-07-30T10:34:53Z</time>
      </trkpt>
      <trkpt lat="42.73615" lon="-0.78845">
        <time>2022-07-30T10:34:54Z</time>
      </trkpt>
      <trkpt lat="42.73607" lon="-0.7886">
        <time>2022-07-30T10:34:55Z</time>
      </trkpt>
      <trkpt lat="42.73599" lon="-0.78878">
        <time>2022-07-30T10:34:56Z</time>
      </trkpt>
      <trkpt lat="42.73591" lon="-0.78894">
        <time>2022-07-30T10:34:57Z</time>
      </trkpt>
      <trkpt lat="42.73583" lon="-0.78909">
        <time>2022-07-30T10:34:58Z</time>
      </trkpt>
      <trkpt lat="42.73574" lon="-0.7892">
        <time>2022-07-30T10:34:59Z</time>
      </trkpt>
      <trkpt lat="42.73567" lon="-0.78927">
        <time>2022-07-30T10:35:00Z</time>
      </trkpt>
      <trkpt lat="42.73558" lon="-0.7893">
        <time>2022-07-30T10:35:01Z</time>
      </trkpt>
      <trkpt lat="42.7355" lon="-0.78927">
        <time>2022-07-30T10:35:02Z</time>
      </trkpt>
      <trkpt lat="42.73543" lon="-0.78918">
        <time>2022-07-30T10:35:03Z</time>
      </trkpt>
      <trkpt lat="42.7354" lon="-0.78906">
        <time>2022-07-30T10:35:04Z</time>
      </trkpt>
      <trkpt lat="42.7354" lon="-0.78892">
        <time>2022-07-30T10:35:05Z</time>
      </trkpt>
      <trkpt lat="42.73542" lon="-0.78873">
        <time>2022-07-30T10:35:06Z</time>
      </trkpt>
      <trkpt lat="42.73544" lon="-0.78852">
        <time>2022-07-30T10:35:07Z</time>
      </trkpt>
      <trkpt lat="42.73546" lon="-0.7883">
        <time>2022-07-30T10:35:08Z</time>
      </trkpt>
      <trkpt lat="42.73548" lon="-0.7881">
        <time>2022-07-30T10:35:09Z</time>
      </trkpt>
      <trkpt lat="42.7355" lon="-0.78791">
        <time>2022-07-30T10:35:10Z</time>
      </trkpt>
      <trkpt lat="42.73551" lon="-0.78774">
        <time>2022-07-30T10:35:11Z</time>
      </trkpt>
      <trkpt lat="42.73549" lon="-0.78757">
        <time>2022-07-30T10:35:12Z</time>
      </trkpt>
      <trkpt lat="42.73545" lon="-0.78741">
        <time>2022-07-30T10:35:13Z</time>
      </trkpt>
      <trkpt lat="42.73539" lon="-0.78727">
        <time>2022-07-30T10:35:14Z</time>
      </trkpt>
      <trkpt lat="42.73531" lon="-0.78718">
        <time>2022-07-30T10:35:15Z</time>
      </trkpt>
      <trkpt lat="42.73521" lon="-0.78711">
        <time>2022-07-30T10:35:16Z</time>
      </trkpt>
      <trkpt lat="42.73509" lon="-0.7871">
        <time>2022-07-30T10:35:17Z</time>
      </trkpt>
      <trkpt lat="42.73497" lon="-0.78714">
        <time>2022-07-30T10:35:18Z</time>
      </trkpt>
      <trkpt lat="42.73485" lon="-0.78724">
        <time>2022-07-30T10:35:19Z</time>
      </trkpt>
      <trkpt lat="42.73472" lon="-0.78737">
        <time>2022-07-30T10:35:20Z</time>
      </trkpt>
      <trkpt lat="42.7346" lon="-0.78752">
        <time>2022-07-30T10:35:21Z</time>
      </trkpt>
      <trkpt lat="42.73447" lon="-0.78767">
        <time>2022-07-30T10:35:22Z</time>
      </trkpt>
      <trkpt lat="42.73434" lon="-0.78783">
        <time>2022-07-30T10:35:23Z</time>
      </trkpt>
      <trkpt lat="42.7342" lon="-0.78801">
        <time>2022-07-30T10:35:24Z</time>
      </trkpt>
      <trkpt lat="42.73405" lon="-0.78814">
        <time>2022-07-30T10:35:25Z</time>
      </trkpt>
      <trkpt lat="42.73393" lon="-0.78826">
        <time>2022-07-30T10:35:26Z</time>
      </trkpt>
      <trkpt lat="42.73382" lon="-0.78838">
        <time>2022-07-30T10:35:27Z</time>
      </trkpt>
      <trkpt lat="42.73372" lon="-0.78849">
        <time>2022-07-30T10:35:28Z</time>
      </trkpt>
      <trkpt lat="42.73362" lon="-0.78857">
        <time>2022-07-30T10:35:29Z</time>
      </trkpt>
      <trkpt lat="42.73351" lon="-0.78861">
        <time>2022-07-30T10:35:30Z</time>
      </trkpt>
      <trkpt lat="42.73339" lon="-0.78861">
        <time>2022-07-30T10:35:31Z</time>
      </trkpt>
      <trkpt lat="42.73326" lon="-0.78856">
        <time>2022-07-30T10:35:32Z</time>
      </trkpt>
      <trkpt lat="42.73314" lon="-0.7885">
        <time>2022-07-30T10:35:33Z</time>
      </trkpt>
      <trkpt lat="42.73304" lon="-0.78838">
        <time>2022-07-30T10:35:34Z</time>
      </trkpt>
      <trkpt lat="42.73298" lon="-0.78823">
        <time>2022-07-30T10:35:35Z</time>
      </trkpt>
      <trkpt lat="42.73293" lon="-0.78808">
        <time>2022-07-30T10:35:36Z</time>
      </trkpt>
      <trkpt lat="42.73288" lon="-0.78795">
        <time>2022-07-30T10:35:37Z</time>
      </trkpt>
      <trkpt lat="42.73282" lon="-0.78783">
        <time>2022-07-30T10:35:38Z</time>
      </trkpt>
      <trkpt lat="42.73275" lon="-0.78773">
        <time>2022-07-30T10:35:39Z</time>
      </trkpt>
      <trkpt lat="42.73266" lon="-0.7877">
        <time>2022-07-30T10:35:40Z</time>
      </trkpt>
      <trkpt lat="42.73258" lon="-0.7877">
        <time>2022-07-30T10:35:41Z</time>
      </trkpt>
      <trkpt lat="42.73249" lon="-0.78775">
        <time>2022-07-30T10:35:42Z</time>
      </trkpt>
      <trkpt lat="42.73241" lon="-0.78786">
        <time>2022-07-30T10:35:43Z</time>
      </trkpt>
      <trkpt lat="42.73233" lon="-0.78798">
        <time>2022-07-30T10:35:44Z</time>
      </trkpt>
      <trkpt lat="42.73223" lon="-0.78808">
        <time>2022-07-30T10:35:45Z</time>
      </trkpt>
      <trkpt lat="42.73212" lon="-0.78814">
        <time>2022-07-30T10:35:46Z</time>
      </trkpt>
      <trkpt lat="42.73201" lon="-0.78819">
        <time>2022-07-30T10:35:47Z</time>
      </trkpt>
      <trkpt lat="42.73188" lon="-0.78818">
        <time>2022-07-30T10:35:48Z</time>
      </trkpt>
      <trkpt lat="42.73175" lon="-0.78813">
        <time>2022-07-30T10:35:49Z</time>
      </trkpt>
      <trkpt lat="42.73163" lon="-0.78806">
        <time>2022-07-30T10:35:50Z</time>
      </trkpt>
      <trkpt lat="42.73152" lon="-0.78801">
        <time>2022-07-30T10:35:51Z</time>
      </trkpt>
      <trkpt lat="42.73144" lon="-0.78799">
        <time>2022-07-30T10:35:52Z</time>
      </trkpt>
      <trkpt lat="42.73135" lon="-0.78801">
        <time>2022-07-30T10:35:53Z</time>
      </trkpt>
      <trkpt lat="42.73128" lon="-0.78807">
        <time>2022-07-30T10:35:54Z</time>
      </trkpt>
      <trkpt lat="42.73126" lon="-0.78817">
        <time>2022-07-30T10:35:55Z</time>
      </trkpt>
      <trkpt lat="42.73124" lon="-0.78826">
        <time>2022-07-30T10:35:56Z</time>
      </trkpt>
      <trkpt lat="42.73133" lon="-0.78836">
        <time>2022-07-30T10:35:57Z</time>
      </trkpt>
      <trkpt lat="42.73142" lon="-0.78841">
        <time>2022-07-30T10:35:58Z</time>
      </trkpt>
      <trkpt lat="42.73154" lon="-0.78843">
        <time>2022-07-30T10:35:59Z</time>
      </trkpt>
      <trkpt lat="42.73168" lon="-0.78844">
        <time>2022-07-30T10:36:00Z</time>
      </trkpt>
      <trkpt lat="42.73184" lon="-0.78846">
        <time>2022-07-30T10:36:01Z</time>
      </trkpt>
      <trkpt lat="42.73202" lon="-0.78849">
        <time>2022-07-30T10:36:02Z</time>
      </trkpt>
      <trkpt lat="42.7322" lon="-0.78855">
        <time>2022-07-30T10:36:03Z</time>
      </trkpt>
      <trkpt lat="42.73239" lon="-0.78863">
        <time>2022-07-30T10:36:04Z</time>
      </trkpt>
      <trkpt lat="42.73258" lon="-0.78873">
        <time>2022-07-30T10:36:05Z</time>
      </trkpt>
      <trkpt lat="42.73276" lon="-0.78885">
        <time>2022-07-30T10:36:06Z</time>
      </trkpt>
      <trkpt lat="42.73294" lon="-0.789">
        <time>2022-07-30T10:36:07Z</time>
      </trkpt>
      <trkpt lat="42.73309" lon="-0.78916">
        <time>2022-07-30T10:36:08Z</time>
      </trkpt>
      <trkpt lat="42.73324" lon="-0.78934">
        <time>2022-07-30T10:36:09Z</time>
      </trkpt>
      <trkpt lat="42.73338" lon="-0.78949">
        <time>2022-07-30T10:36:10Z</time>
      </trkpt>
      <trkpt lat="42.73351" lon="-0.78963">
        <time>2022-07-30T10:36:11Z</time>
      </trkpt>
      <trkpt lat="42.73363" lon="-0.78975">
        <time>2022-07-30T10:36:12Z</time>
      </trkpt>
      <trkpt lat="42.73375" lon="-0.78986">
        <time>2022-07-30T10:36:13Z</time>
      </trkpt>
      <trkpt lat="42.73385" lon="-0.79">
        <time>2022-07-30T10:36:14Z</time>
      </trkpt>
      <trkpt lat="42.73393" lon="-0.79016">
        <time>2022-07-30T10:36:15Z</time>
      </trkpt>
      <trkpt lat="42.73403" lon="-0.79032">
        <time>2022-07-30T10:36:16Z</time>
      </trkpt>
      <trkpt lat="42.73415" lon="-0.79046">
        <time>2022-07-30T10:36:17Z</time>
      </trkpt>
      <trkpt lat="42.7343" lon="-0.79059">
        <time>2022-07-30T10:36:18Z</time>
      </trkpt>
      <trkpt lat="42.73446" lon="-0.79071">
        <time>2022-07-30T10:36:19Z</time>
      </trkpt>
      <trkpt lat="42.73462" lon="-0.79081">
        <time>2022-07-30T10:36:20Z</time>
      </trkpt>
      <trkpt lat="42.73477" lon="-0.79092">
        <time>2022-07-30T10:36:21Z</time>
      </trkpt>
      <trkpt lat="42.73491" lon="-0.79103">
        <time>2022-07-30T10:36:22Z</time>
      </trkpt>
      <trkpt lat="42.73504" lon="-0.79115">
        <time>2022-07-30T10:36:23Z</time>
      </trkpt>
      <trkpt lat="42.73515" lon="-0.79131">
        <time>2022-07-30T10:36:24Z</time>
      </trkpt>
      <trkpt lat="42.73524" lon="-0.7915">
        <time>2022-07-30T10:36:25Z</time>
      </trkpt>
      <trkpt lat="42.73531" lon="-0.79171">
        <time>2022-07-30T10:36:26Z</time>
      </trkpt>
      <trkpt lat="42.73538" lon="-0.79193">
        <time>2022-07-30T10:36:27Z</time>
      </trkpt>
      <trkpt lat="42.73545" lon="-0.79213">
        <time>2022-07-30T10:36:28Z</time>
      </trkpt>
      <trkpt lat="42.73552" lon="-0.79232">
        <time>2022-07-30T10:36:29Z</time>
      </trkpt>
      <trkpt lat="42.73562" lon="-0.79249">
        <time>2022-07-30T10:36:30Z</time>
      </trkpt>
      <trkpt lat="42.73574" lon="-0.79265">
        <time>2022-07-30T10:36:31Z</time>
      </trkpt>
      <trkpt lat="42.73587" lon="-0.7928">
        <time>2022-07-30T10:36:32Z</time>
      </trkpt>
      <trkpt lat="42.736" lon="-0.79297">
        <time>2022-07-30T10:36:33Z</time>
      </trkpt>
      <trkpt lat="42.73613" lon="-0.79315">
        <time>2022-07-30T10:36:34Z</time>
      </trkpt>
      <trkpt lat="42.73626" lon="-0.79334">
        <time>2022-07-30T10:36:35Z</time>
      </trkpt>
      <trkpt lat="42.7364" lon="-0.79353">
        <time>2022-07-30T10:36:36Z</time>
      </trkpt>
      <trkpt lat="42.73655" lon="-0.79371">
        <time>2022-07-30T10:36:37Z</time>
      </trkpt>
      <trkpt lat="42.7367" lon="-0.79391">
        <time>2022-07-30T10:36:38Z</time>
      </trkpt>
      <trkpt lat="42.73684" lon="-0.79412">
        <time>2022-07-30T10:36:39Z</time>
      </trkpt>
      <trkpt lat="42.73698" lon="-0.79433">
        <time>2022-07-30T10:36:40Z</time>
      </trkpt>
      <trkpt lat="42.73712" lon="-0.79455">
        <time>2022-07-30T10:36:41Z</time>
      </trkpt>
      <trkpt lat="42.73726" lon="-0.79476">
        <time>2022-07-30T10:36:42Z</time>
      </trkpt>
      <trkpt lat="42.7374" lon="-0.79497">
        <time>2022-07-30T10:36:43Z</time>
      </trkpt>
      <trkpt lat="42.73753" lon="-0.79518">
        <time>2022-07-30T10:36:44Z</time>
      </trkpt>
      <trkpt lat="42.73767" lon="-0.79539">
        <time>2022-07-30T10:36:45Z</time>
      </trkpt>
      <trkpt lat="42.7378" lon="-0.79561">
        <time>2022-07-30T10:36:46Z</time>
      </trkpt>
      <trkpt lat="42.73792" lon="-0.79582">
        <time>2022-07-30T10:36:47Z</time>
      </trkpt>
      <trkpt lat="42.73803" lon="-0.79604">
        <time>2022-07-30T10:36:48Z</time>
      </trkpt>
      <trkpt lat="42.73814" lon="-0.79625">
        <time>2022-07-30T10:36:49Z</time>
      </trkpt>
      <trkpt lat="42.73825" lon="-0.79646">
        <time>2022-07-30T10:36:50Z</time>
      </trkpt>
      <trkpt lat="42.73835" lon="-0.79667">
        <time>2022-07-30T10:36:51Z</time>
      </trkpt>
      <trkpt lat="42.73843" lon="-0.79688">
        <time>2022-07-30T10:36:52Z</time>
      </trkpt>
      <trkpt lat="42.7385" lon="-0.7971">
        <time>2022-07-30T10:36:53Z</time>
      </trkpt>
      <trkpt lat="42.73854" lon="-0.79734">
        <time>2022-07-30T10:36:54Z</time>
      </trkpt>
      <trkpt lat="42.73856" lon="-0.7976">
        <time>2022-07-30T10:36:55Z</time>
      </trkpt>
      <trkpt lat="42.73857" lon="-0.79788">
        <time>2022-07-30T10:36:56Z</time>
      </trkpt>
      <trkpt lat="42.73859" lon="-0.79816">
        <time>2022-07-30T10:36:57Z</time>
      </trkpt>
      <trkpt lat="42.7386" lon="-0.79843">
        <time>2022-07-30T10:36:58Z</time>
      </trkpt>
      <trkpt lat="42.73862" lon="-0.7987">
        <time>2022-07-30T10:36:59Z</time>
      </trkpt>
      <trkpt lat="42.73864" lon="-0.79896">
        <time>2022-07-30T10:37:00Z</time>
      </trkpt>
      <trkpt lat="42.73866" lon="-0.79922">
        <time>2022-07-30T10:37:01Z</time>
      </trkpt>
      <trkpt lat="42.73868" lon="-0.79947">
        <time>2022-07-30T10:37:02Z</time>
      </trkpt>
      <trkpt lat="42.73871" lon="-0.79971">
        <time>2022-07-30T10:37:03Z</time>
      </trkpt>
      <trkpt lat="42.73875" lon="-0.79995">
        <time>2022-07-30T10:37:04Z</time>
      </trkpt>
      <trkpt lat="42.7388" lon="-0.8002">
        <time>2022-07-30T10:37:05Z</time>
      </trkpt>
      <trkpt lat="42.73885" lon="-0.80045">
        <time>2022-07-30T10:37:06Z</time>
      </trkpt>
      <trkpt lat="42.73892" lon="-0.8007">
        <time>2022-07-30T10:37:07Z</time>
      </trkpt>
      <trkpt lat="42.73899" lon="-0.80095">
        <time>2022-07-30T10:37:08Z</time>
      </trkpt>
      <trkpt lat="42.73907" lon="-0.80119">
        <time>2022-07-30T10:37:09Z</time>
      </trkpt>
      <trkpt lat="42.73916" lon="-0.80141">
        <time>2022-07-30T10:37:10Z</time>
      </trkpt>
      <trkpt lat="42.73927" lon="-0.80162">
        <time>2022-07-30T10:37:11Z</time>
      </trkpt>
      <trkpt lat="42.73936" lon="-0.80182">
        <time>2022-07-30T10:37:12Z</time>
      </trkpt>
      <trkpt lat="42.73945" lon="-0.80202">
        <time>2022-07-30T10:37:13Z</time>
      </trkpt>
      <trkpt lat="42.7395" lon="-0.80223">
        <time>2022-07-30T10:37:14Z</time>
      </trkpt>
      <trkpt lat="42.73953" lon="-0.80246">
        <time>2022-07-30T10:37:15Z</time>
      </trkpt>
      <trkpt lat="42.73954" lon="-0.80271">
        <time>2022-07-30T10:37:16Z</time>
      </trkpt>
      <trkpt lat="42.73953" lon="-0.80297">
        <time>2022-07-30T10:37:17Z</time>
      </trkpt>
      <trkpt lat="42.73952" lon="-0.80325">
        <time>2022-07-30T10:37:18Z</time>
      </trkpt>
      <trkpt lat="42.73951" lon="-0.80354">
        <time>2022-07-30T10:37:19Z</time>
      </trkpt>
      <trkpt lat="42.73951" lon="-0.80383">
        <time>2022-07-30T10:37:20Z</time>
      </trkpt>
      <trkpt lat="42.73951" lon="-0.80413">
        <time>2022-07-30T10:37:21Z</time>
      </trkpt>
      <trkpt lat="42.73951" lon="-0.80442">
        <time>2022-07-30T10:37:22Z</time>
      </trkpt>
      <trkpt lat="42.73952" lon="-0.80472">
        <time>2022-07-30T10:37:23Z</time>
      </trkpt>
      <trkpt lat="42.73952" lon="-0.80502">
        <time>2022-07-30T10:37:24Z</time>
      </trkpt>
      <trkpt lat="42.73953" lon="-0.80532">
        <time>2022-07-30T10:37:25Z</time>
      </trkpt>
      <trkpt lat="42.73955" lon="-0.80561">
        <time>2022-07-30T10:37:26Z</time>
      </trkpt>
      <trkpt lat="42.73956" lon="-0.8059">
        <time>2022-07-30T10:37:27Z</time>
      </trkpt>
      <trkpt lat="42.73957" lon="-0.80618">
        <time>2022-07-30T10:37:28Z</time>
      </trkpt>
      <trkpt lat="42.73959" lon="-0.80645">
        <time>2022-07-30T10:37:29Z</time>
      </trkpt>
      <trkpt lat="42.7396" lon="-0.80671">
        <time>2022-07-30T10:37:30Z</time>
      </trkpt>
      <trkpt lat="42.73961" lon="-0.80696">
        <time>2022-07-30T10:37:31Z</time>
      </trkpt>
      <trkpt lat="42.73961" lon="-0.8072">
        <time>2022-07-30T10:37:32Z</time>
      </trkpt>
      <trkpt lat="42.73959" lon="-0.80743">
        <time>2022-07-30T10:37:33Z</time>
      </trkpt>
      <trkpt lat="42.73955" lon="-0.80767">
        <time>2022-07-30T10:37:34Z</time>
      </trkpt>
      <trkpt lat="42.73948" lon="-0.80789">
        <time>2022-07-30T10:37:35Z</time>
      </trkpt>
      <trkpt lat="42.73938" lon="-0.80812">
        <time>2022-07-30T10:37:36Z</time>
      </trkpt>
      <trkpt lat="42.73929" lon="-0.80833">
        <time>2022-07-30T10:37:37Z</time>
      </trkpt>
      <trkpt lat="42.7392" lon="-0.80853">
        <time>2022-07-30T10:37:38Z</time>
      </trkpt>
      <trkpt lat="42.73911" lon="-0.80873">
        <time>2022-07-30T10:37:39Z</time>
      </trkpt>
      <trkpt lat="42.73902" lon="-0.80891">
        <time>2022-07-30T10:37:40Z</time>
      </trkpt>
      <trkpt lat="42.73891" lon="-0.80906">
        <time>2022-07-30T10:37:41Z</time>
      </trkpt>
      <trkpt lat="42.73879" lon="-0.80919">
        <time>2022-07-30T10:37:42Z</time>
      </trkpt>
      <trkpt lat="42.73866" lon="-0.80928">
        <time>2022-07-30T10:37:43Z</time>
      </trkpt>
      <trkpt lat="42.73853" lon="-0.80937">
        <time>2022-07-30T10:37:44Z</time>
      </trkpt>
      <trkpt lat="42.73841" lon="-0.80946">
        <time>2022-07-30T10:37:45Z</time>
      </trkpt>
      <trkpt lat="42.73831" lon="-0.80955">
        <time>2022-07-30T10:37:46Z</time>
      </trkpt>
      <trkpt lat="42.73823" lon="-0.80964">
        <time>2022-07-30T10:37:47Z</time>
      </trkpt>
      <trkpt lat="42.73818" lon="-0.80976">
        <time>2022-07-30T10:37:48Z</time>
      </trkpt>
      <trkpt lat="42.73815" lon="-0.80988">
        <time>2022-07-30T10:37:49Z</time>
      </trkpt>
      <trkpt lat="42.73813" lon="-0.81001">
        <time>2022-07-30T10:37:50Z</time>
      </trkpt>
      <trkpt lat="42.73812" lon="-0.81013">
        <time>2022-07-30T10:37:51Z</time>
      </trkpt>
      <trkpt lat="42.73811" lon="-0.81026">
        <time>2022-07-30T10:37:52Z</time>
      </trkpt>
      <trkpt lat="42.73809" lon="-0.81041">
        <time>2022-07-30T10:37:53Z</time>
      </trkpt>
      <trkpt lat="42.73797" lon="-0.81109">
        <time>2022-07-30T10:37:58Z</time>
      </trkpt>
      <trkpt lat="42.73792" lon="-0.81117">
        <time>2022-07-30T10:37:59Z</time>
      </trkpt>
      <trkpt lat="42.73787" lon="-0.81126">
        <time>2022-07-30T10:38:00Z</time>
      </trkpt>
      <trkpt lat="42.73764" lon="-0.81161">
        <time>2022-07-30T10:38:01Z</time>
      </trkpt>
      <trkpt lat="42.7375" lon="-0.81193">
        <time>2022-07-30T10:38:02Z</time>
      </trkpt>
      <trkpt lat="42.73741" lon="-0.81214">
        <time>2022-07-30T10:38:03Z</time>
      </trkpt>
      <trkpt lat="42.73733" lon="-0.81234">
        <time>2022-07-30T10:38:04Z</time>
      </trkpt>
      <trkpt lat="42.73726" lon="-0.81255">
        <time>2022-07-30T10:38:05Z</time>
      </trkpt>
      <trkpt lat="42.73719" lon="-0.81274">
        <time>2022-07-30T10:38:06Z</time>
      </trkpt>
      <trkpt lat="42.7371" lon="-0.81292">
        <time>2022-07-30T10:38:07Z</time>
      </trkpt>
      <trkpt lat="42.73702" lon="-0.81307">
        <time>2022-07-30T10:38:08Z</time>
      </trkpt>
      <trkpt lat="42.73695" lon="-0.81319">
        <time>2022-07-30T10:38:09Z</time>
      </trkpt>
      <trkpt lat="42.73685" lon="-0.8133">
        <time>2022-07-30T10:38:10Z</time>
      </trkpt>
      <trkpt lat="42.73665" lon="-0.8133">
        <time>2022-07-30T10:38:11Z</time>
      </trkpt>
      <trkpt lat="42.73648" lon="-0.81332">
        <time>2022-07-30T10:38:12Z</time>
      </trkpt>
      <trkpt lat="42.73632" lon="-0.81335">
        <time>2022-07-30T10:38:13Z</time>
      </trkpt>
      <trkpt lat="42.73617" lon="-0.8134">
        <time>2022-07-30T10:38:14Z</time>
      </trkpt>
      <trkpt lat="42.73603" lon="-0.81349">
        <time>2022-07-30T10:38:15Z</time>
      </trkpt>
      <trkpt lat="42.7359" lon="-0.81361">
        <time>2022-07-30T10:38:16Z</time>
      </trkpt>
      <trkpt lat="42.7358" lon="-0.81374">
        <time>2022-07-30T10:38:17Z</time>
      </trkpt>
      <trkpt lat="42.73572" lon="-0.81389">
        <time>2022-07-30T10:38:18Z</time>
      </trkpt>
      <trkpt lat="42.73568" lon="-0.81405">
        <time>2022-07-30T10:38:19Z</time>
      </trkpt>
      <trkpt lat="42.73566" lon="-0.81422">
        <time>2022-07-30T10:38:20Z</time>
      </trkpt>
      <trkpt lat="42.73567" lon="-0.81439">
        <time>2022-07-30T10:38:21Z</time>
      </trkpt>
      <trkpt lat="42.73571" lon="-0.81455">
        <time>2022-07-30T10:38:22Z</time>
      </trkpt>
      <trkpt lat="42.73575" lon="-0.81471">
        <time>2022-07-30T10:38:23Z</time>
      </trkpt>
      <trkpt lat="42.73582" lon="-0.81484">
        <time>2022-07-30T10:38:24Z</time>
      </trkpt>
      <trkpt lat="42.73589" lon="-0.81497">
        <time>2022-07-30T10:38:25Z</time>
      </trkpt>
      <trkpt lat="42.73595" lon="-0.81507">
        <time>2022-07-30T10:38:26Z</time>
      </trkpt>
      <trkpt lat="42.73601" lon="-0.81515">
        <time>2022-07-30T10:38:27Z</time>
      </trkpt>
      <trkpt lat="42.73606" lon="-0.81521">
        <time>2022-07-30T10:38:28Z</time>
      </trkpt>
      <trkpt lat="42.7361" lon="-0.81528">
        <time>2022-07-30T10:38:29Z</time>
      </trkpt>
      <trkpt lat="42.7361" lon="-0.81536">
        <time>2022-07-30T10:38:30Z</time>
      </trkpt>
      <trkpt lat="42.73608" lon="-0.81542">
        <time>2022-07-30T10:38:31Z</time>
      </trkpt>
      <trkpt lat="42.73603" lon="-0.81546">
        <time>2022-07-30T10:38:32Z</time>
      </trkpt>
      <trkpt lat="42.73597" lon="-0.81548">
        <time>2022-07-30T10:38:33Z</time>
      </trkpt>
      <trkpt lat="42.73588" lon="-0.81546">
        <time>2022-07-30T10:38:34Z</time>
      </trkpt>
      <trkpt lat="42.73578" lon="-0.81542">
        <time>2022-07-30T10:38:35Z</time>
      </trkpt>
      <trkpt lat="42.73565" lon="-0.81539">
        <time>2022-07-30T10:38:36Z</time>
      </trkpt>
      <trkpt lat="42.73551" lon="-0.81535">
        <time>2022-07-30T10:38:37Z</time>
      </trkpt>
      <trkpt lat="42.73537" lon="-0.81531">
        <time>2022-07-30T10:38:38Z</time>
      </trkpt>
      <trkpt lat="42.73524" lon="-0.81527">
        <time>2022-07-30T10:38:39Z</time>
      </trkpt>
      <trkpt lat="42.7351" lon="-0.81523">
        <time>2022-07-30T10:38:40Z</time>
      </trkpt>
      <trkpt lat="42.73497" lon="-0.81519">
        <time>2022-07-30T10:38:41Z</time>
      </trkpt>
      <trkpt lat="42.73485" lon="-0.81515">
        <time>2022-07-30T10:38:42Z</time>
      </trkpt>
      <trkpt lat="42.73475" lon="-0.81511">
        <time>2022-07-30T10:38:43Z</time>
      </trkpt>
      <trkpt lat="42.73465" lon="-0.81508">
        <time>2022-07-30T10:38:44Z</time>
      </trkpt>
      <trkpt lat="42.73457" lon="-0.81506">
        <time>2022-07-30T10:38:45Z</time>
      </trkpt>
      <trkpt lat="42.73451" lon="-0.81504">
        <time>2022-07-30T10:38:46Z</time>
      </trkpt>
      <trkpt lat="42.73446" lon="-0.81503">
        <time>2022-07-30T10:38:47Z</time>
      </trkpt>
      <trkpt lat="42.73444" lon="-0.81503">
        <time>2022-07-30T10:38:48Z</time>
      </trkpt>
      <trkpt lat="42.73442" lon="-0.81502">
        <time>2022-07-30T10:38:49Z</time>
      </trkpt>
      <trkpt lat="42.73442" lon="-0.81501">
        <time>2022-07-30T10:42:38Z</time>
      </trkpt>
      <trkpt lat="42.73439" lon="-0.815">
        <time>2022-07-30T10:42:39Z</time>
      </trkpt>
      <trkpt lat="42.73433" lon="-0.81498">
        <time>2022-07-30T10:42:40Z</time>
      </trkpt>
      <trkpt lat="42.73426" lon="-0.81494">
        <time>2022-07-30T10:42:41Z</time>
      </trkpt>
      <trkpt lat="42.73417" lon="-0.81489">
        <time>2022-07-30T10:42:42Z</time>
      </trkpt>
      <trkpt lat="42.73408" lon="-0.81485">
        <time>2022-07-30T10:42:43Z</time>
      </trkpt>
      <trkpt lat="42.73398" lon="-0.8148">
        <time>2022-07-30T10:42:44Z</time>
      </trkpt>
      <trkpt lat="42.73388" lon="-0.81474">
        <time>2022-07-30T10:42:45Z</time>
      </trkpt>
      <trkpt lat="42.73377" lon="-0.81469">
        <time>2022-07-30T10:42:46Z</time>
      </trkpt>
      <trkpt lat="42.73366" lon="-0.81463">
        <time>2022-07-30T10:42:47Z</time>
      </trkpt>
      <trkpt lat="42.73354" lon="-0.81457">
        <time>2022-07-30T10:42:48Z</time>
      </trkpt>
      <trkpt lat="42.73343" lon="-0.81452">
        <time>2022-07-30T10:42:49Z</time>
      </trkpt>
      <trkpt lat="42.73334" lon="-0.81447">
        <time>2022-07-30T10:42:50Z</time>
      </trkpt>
      <trkpt lat="42.73325" lon="-0.81442">
        <time>2022-07-30T10:42:51Z</time>
      </trkpt>
      <trkpt lat="42.73316" lon="-0.81438">
        <time>2022-07-30T10:42:52Z</time>
      </trkpt>
      <trkpt lat="42.73306" lon="-0.81435">
        <time>2022-07-30T10:42:53Z</time>
      </trkpt>
      <trkpt lat="42.73295" lon="-0.81433">
        <time>2022-07-30T10:42:54Z</time>
      </trkpt>
      <trkpt lat="42.73285" lon="-0.81432">
        <time>2022-07-30T10:42:55Z</time>
      </trkpt>
      <trkpt lat="42.73274" lon="-0.81433">
        <time>2022-07-30T10:42:56Z</time>
      </trkpt>
      <trkpt lat="42.73263" lon="-0.81434">
        <time>2022-07-30T10:42:57Z</time>
      </trkpt>
      <trkpt lat="42.73254" lon="-0.81435">
        <time>2022-07-30T10:42:58Z</time>
      </trkpt>
      <trkpt lat="42.73246" lon="-0.81436">
        <time>2022-07-30T10:42:59Z</time>
      </trkpt>
      <trkpt lat="42.7324" lon="-0.81436">
        <time>2022-07-30T10:43:00Z</time>
      </trkpt>
      <trkpt lat="42.73235" lon="-0.81437">
        <time>2022-07-30T10:43:01Z</time>
      </trkpt>
      <trkpt lat="42.73232" lon="-0.81437">
        <time>2022-07-30T10:43:02Z</time>
      </trkpt>
      <trkpt lat="42.7323" lon="-0.81437">
        <time>2022-07-30T10:43:03Z</time>
      </trkpt>
      <trkpt lat="42.73229" lon="-0.81438">
        <time>2022-07-30T10:46:45Z</time>
      </trkpt>
      <trkpt lat="42.73227" lon="-0.81437">
        <time>2022-07-30T10:46:46Z</time>
      </trkpt>
      <trkpt lat="42.73224" lon="-0.81437">
        <time>2022-07-30T10:46:47Z</time>
      </trkpt>
      <trkpt lat="42.73217" lon="-0.81437">
        <time>2022-07-30T10:46:48Z</time>
      </trkpt>
      <trkpt lat="42.73209" lon="-0.81436">
        <time>2022-07-30T10:46:49Z</time>
      </trkpt>
      <trkpt lat="42.73201" lon="-0.81436">
        <time>2022-07-30T10:46:50Z</time>
      </trkpt>
      <trkpt lat="42.73193" lon="-0.81436">
        <time>2022-07-30T10:46:51Z</time>
      </trkpt>
      <trkpt lat="42.73183" lon="-0.81436">
        <time>2022-07-30T10:46:52Z</time>
      </trkpt>
      <trkpt lat="42.73174" lon="-0.81437">
        <time>2022-07-30T10:46:53Z</time>
      </trkpt>
      <trkpt lat="42.73164" lon="-0.81438">
        <time>2022-07-30T10:46:54Z</time>
      </trkpt>
      <trkpt lat="42.73154" lon="-0.81439">
        <time>2022-07-30T10:46:55Z</time>
      </trkpt>
      <trkpt lat="42.73144" lon="-0.81439">
        <time>2022-07-30T10:46:56Z</time>
      </trkpt>
      <trkpt lat="42.73135" lon="-0.8144">
        <time>2022-07-30T10:46:57Z</time>
      </trkpt>
      <trkpt lat="42.73125" lon="-0.81442">
        <time>2022-07-30T10:46:58Z</time>
      </trkpt>
      <trkpt lat="42.73117" lon="-0.81443">
        <time>2022-07-30T10:46:59Z</time>
      </trkpt>
      <trkpt lat="42.73108" lon="-0.81444">
        <time>2022-07-30T10:47:00Z</time>
      </trkpt>
      <trkpt lat="42.73097" lon="-0.81441">
        <time>2022-07-30T10:47:01Z</time>
      </trkpt>
      <trkpt lat="42.73088" lon="-0.81436">
        <time>2022-07-30T10:47:02Z</time>
      </trkpt>
      <trkpt lat="42.73078" lon="-0.81428">
        <time>2022-07-30T10:47:03Z</time>
      </trkpt>
      <trkpt lat="42.73068" lon="-0.81419">
        <time>2022-07-30T10:47:04Z</time>
      </trkpt>
      <trkpt lat="42.73059" lon="-0.81411">
        <time>2022-07-30T10:47:05Z</time>
      </trkpt>
      <trkpt lat="42.7305" lon="-0.81402">
        <time>2022-07-30T10:47:06Z</time>
      </trkpt>
      <trkpt lat="42.73043" lon="-0.81396">
        <time>2022-07-30T10:47:07Z</time>
      </trkpt>
      <trkpt lat="42.73036" lon="-0.81391">
        <time>2022-07-30T10:47:08Z</time>
      </trkpt>
      <trkpt lat="42.73029" lon="-0.81387">
        <time>2022-07-30T10:47:09Z</time>
      </trkpt>
      <trkpt lat="42.73024" lon="-0.81385">
        <time>2022-07-30T10:47:10Z</time>
      </trkpt>
      <trkpt lat="42.73017" lon="-0.81385">
        <time>2022-07-30T10:47:11Z</time>
      </trkpt>
      <trkpt lat="42.73011" lon="-0.81388">
        <time>2022-07-30T10:47:12Z</time>
      </trkpt>
      <trkpt lat="42.73004" lon="-0.81394">
        <time>2022-07-30T10:47:13Z</time>
      </trkpt>
      <trkpt lat="42.72995" lon="-0.81401">
        <time>2022-07-30T10:47:14Z</time>
      </trkpt>
      <trkpt lat="42.72987" lon="-0.81406">
        <time>2022-07-30T10:47:15Z</time>
      </trkpt>
      <trkpt lat="42.72978" lon="-0.8141">
        <time>2022-07-30T10:47:16Z</time>
      </trkpt>
      <trkpt lat="42.72969" lon="-0.81411">
        <time>2022-07-30T10:47:17Z</time>
      </trkpt>
      <trkpt lat="42.7296" lon="-0.81408">
        <time>2022-07-30T10:47:18Z</time>
      </trkpt>
      <trkpt lat="42.7295" lon="-0.81402">
        <time>2022-07-30T10:47:19Z</time>
      </trkpt>
      <trkpt lat="42.7294" lon="-0.81396">
        <time>2022-07-30T10:47:20Z</time>
      </trkpt>
      <trkpt lat="42.72931" lon="-0.81389">
        <time>2022-07-30T10:47:21Z</time>
      </trkpt>
      <trkpt lat="42.7292" lon="-0.81381">
        <time>2022-07-30T10:47:22Z</time>
      </trkpt>
      <trkpt lat="42.7291" lon="-0.81374">
        <time>2022-07-30T10:47:23Z</time>
      </trkpt>
      <trkpt lat="42.72901" lon="-0.81367">
        <time>2022-07-30T10:47:24Z</time>
      </trkpt>
      <trkpt lat="42.7289" lon="-0.81358">
        <time>2022-07-30T10:47:25Z</time>
      </trkpt>
      <trkpt lat="42.72881" lon="-0.81351">
        <time>2022-07-30T10:47:26Z</time>
      </trkpt>
      <trkpt lat="42.7287" lon="-0.81343">
        <time>2022-07-30T10:47:27Z</time>
      </trkpt>
      <trkpt lat="42.7286" lon="-0.81337">
        <time>2022-07-30T10:47:28Z</time>
      </trkpt>
      <trkpt lat="42.72849" lon="-0.8133">
        <time>2022-07-30T10:47:29Z</time>
      </trkpt>
      <trkpt lat="42.72836" lon="-0.81323">
        <time>2022-07-30T10:47:30Z</time>
      </trkpt>
      <trkpt lat="42.72824" lon="-0.81317">
        <time>2022-07-30T10:47:31Z</time>
      </trkpt>
      <trkpt lat="42.72811" lon="-0.81312">
        <time>2022-07-30T10:47:32Z</time>
      </trkpt>
      <trkpt lat="42.72798" lon="-0.81305">
        <time>2022-07-30T10:47:33Z</time>
      </trkpt>
      <trkpt lat="42.72787" lon="-0.81299">
        <time>2022-07-30T10:47:34Z</time>
      </trkpt>
      <trkpt lat="42.72775" lon="-0.81292">
        <time>2022-07-30T10:47:35Z</time>
      </trkpt>
      <trkpt lat="42.72765" lon="-0.81282">
        <time>2022-07-30T10:47:36Z</time>
      </trkpt>
      <trkpt lat="42.72758" lon="-0.81272">
        <time>2022-07-30T10:47:37Z</time>
      </trkpt>
      <trkpt lat="42.7275" lon="-0.81259">
        <time>2022-07-30T10:47:38Z</time>
      </trkpt>
      <trkpt lat="42.72743" lon="-0.81248">
        <time>2022-07-30T10:47:39Z</time>
      </trkpt>
      <trkpt lat="42.72734" lon="-0.81237">
        <time>2022-07-30T10:47:40Z</time>
      </trkpt>
      <trkpt lat="42.72725" lon="-0.81226">
        <time>2022-07-30T10:47:41Z</time>
      </trkpt>
      <trkpt lat="42.72716" lon="-0.81218">
        <time>2022-07-30T10:47:42Z</time>
      </trkpt>
      <trkpt lat="42.72706" lon="-0.81211">
        <time>2022-07-30T10:47:43Z</time>
      </trkpt>
      <trkpt lat="42.72696" lon="-0.81206">
        <time>2022-07-30T10:47:44Z</time>
      </trkpt>
      <trkpt lat="42.72685" lon="-0.81202">
        <time>2022-07-30T10:47:45Z</time>
      </trkpt>
      <trkpt lat="42.72672" lon="-0.812">
        <time>2022-07-30T10:47:46Z</time>
      </trkpt>
      <trkpt lat="42.72661" lon="-0.812">
        <time>2022-07-30T10:47:47Z</time>
      </trkpt>
      <trkpt lat="42.72649" lon="-0.81199">
        <time>2022-07-30T10:47:48Z</time>
      </trkpt>
      <trkpt lat="42.72636" lon="-0.81199">
        <time>2022-07-30T10:47:49Z</time>
      </trkpt>
      <trkpt lat="42.72625" lon="-0.81198">
        <time>2022-07-30T10:47:50Z</time>
      </trkpt>
      <trkpt lat="42.72613" lon="-0.81195">
        <time>2022-07-30T10:47:51Z</time>
      </trkpt>
      <trkpt lat="42.72601" lon="-0.81191">
        <time>2022-07-30T10:47:52Z</time>
      </trkpt>
      <trkpt lat="42.72588" lon="-0.81186">
        <time>2022-07-30T10:47:53Z</time>
      </trkpt>
      <trkpt lat="42.72575" lon="-0.8118">
        <time>2022-07-30T10:47:54Z</time>
      </trkpt>
      <trkpt lat="42.72562" lon="-0.81174">
        <time>2022-07-30T10:47:55Z</time>
      </trkpt>
      <trkpt lat="42.72549" lon="-0.81167">
        <time>2022-07-30T10:47:56Z</time>
      </trkpt>
      <trkpt lat="42.72534" lon="-0.81159">
        <time>2022-07-30T10:47:57Z</time>
      </trkpt>
      <trkpt lat="42.72522" lon="-0.81152">
        <time>2022-07-30T10:47:58Z</time>
      </trkpt>
      <trkpt lat="42.72508" lon="-0.81144">
        <time>2022-07-30T10:47:59Z</time>
      </trkpt>
      <trkpt lat="42.72494" lon="-0.81136">
        <time>2022-07-30T10:48:00Z</time>
      </trkpt>
      <trkpt lat="42.7248" lon="-0.81128">
        <time>2022-07-30T10:48:01Z</time>
      </trkpt>
      <trkpt lat="42.72465" lon="-0.8112">
        <time>2022-07-30T10:48:02Z</time>
      </trkpt>
      <trkpt lat="42.72449" lon="-0.81113">
        <time>2022-07-30T10:48:03Z</time>
      </trkpt>
      <trkpt lat="42.72435" lon="-0.81106">
        <time>2022-07-30T10:48:04Z</time>
      </trkpt>
      <trkpt lat="42.7242" lon="-0.81099">
        <time>2022-07-30T10:48:05Z</time>
      </trkpt>
      <trkpt lat="42.72406" lon="-0.81092">
        <time>2022-07-30T10:48:06Z</time>
      </trkpt>
      <trkpt lat="42.72392" lon="-0.81085">
        <time>2022-07-30T10:48:07Z</time>
      </trkpt>
      <trkpt lat="42.72377" lon="-0.8108">
        <time>2022-07-30T10:48:08Z</time>
      </trkpt>
      <trkpt lat="42.72363" lon="-0.81075">
        <time>2022-07-30T10:48:09Z</time>
      </trkpt>
      <trkpt lat="42.72349" lon="-0.81069">
        <time>2022-07-30T10:48:10Z</time>
      </trkpt>
      <trkpt lat="42.72334" lon="-0.81065">
        <time>2022-07-30T10:48:11Z</time>
      </trkpt>
      <trkpt lat="42.7232" lon="-0.8106">
        <time>2022-07-30T10:48:12Z</time>
      </trkpt>
      <trkpt lat="42.72306" lon="-0.81055">
        <time>2022-07-30T10:48:13Z</time>
      </trkpt>
      <trkpt lat="42.72293" lon="-0.81049">
        <time>2022-07-30T10:48:14Z</time>
      </trkpt>
      <trkpt lat="42.72281" lon="-0.81043">
        <time>2022-07-30T10:48:15Z</time>
      </trkpt>
      <trkpt lat="42.72269" lon="-0.81036">
        <time>2022-07-30T10:48:16Z</time>
      </trkpt>
      <trkpt lat="42.72258" lon="-0.81027">
        <time>2022-07-30T10:48:17Z</time>
      </trkpt>
      <trkpt lat="42.72248" lon="-0.81017">
        <time>2022-07-30T10:48:18Z</time>
      </trkpt>
      <trkpt lat="42.72239" lon="-0.81005">
        <time>2022-07-30T10:48:19Z</time>
      </trkpt>
      <trkpt lat="42.7223" lon="-0.80991">
        <time>2022-07-30T10:48:20Z</time>
      </trkpt>
      <trkpt lat="42.7222" lon="-0.80976">
        <time>2022-07-30T10:48:21Z</time>
      </trkpt>
      <trkpt lat="42.72211" lon="-0.80961">
        <time>2022-07-30T10:48:22Z</time>
      </trkpt>
      <trkpt lat="42.72202" lon="-0.80945">
        <time>2022-07-30T10:48:23Z</time>
      </trkpt>
      <trkpt lat="42.72193" lon="-0.8093">
        <time>2022-07-30T10:48:24Z</time>
      </trkpt>
      <trkpt lat="42.72186" lon="-0.80916">
        <time>2022-07-30T10:48:25Z</time>
      </trkpt>
      <trkpt lat="42.7218" lon="-0.809">
        <time>2022-07-30T10:48:26Z</time>
      </trkpt>
      <trkpt lat="42.72174" lon="-0.80883">
        <time>2022-07-30T10:48:27Z</time>
      </trkpt>
      <trkpt lat="42.7217" lon="-0.80867">
        <time>2022-07-30T10:48:28Z</time>
      </trkpt>
      <trkpt lat="42.72166" lon="-0.80851">
        <time>2022-07-30T10:48:29Z</time>
      </trkpt>
      <trkpt lat="42.72162" lon="-0.80836">
        <time>2022-07-30T10:48:30Z</time>
      </trkpt>
      <trkpt lat="42.72157" lon="-0.80822">
        <time>2022-07-30T10:48:31Z</time>
      </trkpt>
      <trkpt lat="42.72152" lon="-0.80808">
        <time>2022-07-30T10:48:32Z</time>
      </trkpt>
      <trkpt lat="42.72146" lon="-0.80796">
        <time>2022-07-30T10:48:33Z</time>
      </trkpt>
      <trkpt lat="42.72138" lon="-0.80785">
        <time>2022-07-30T10:48:34Z</time>
      </trkpt>
      <trkpt lat="42.72129" lon="-0.80776">
        <time>2022-07-30T10:48:35Z</time>
      </trkpt>
      <trkpt lat="42.72121" lon="-0.80768">
        <time>2022-07-30T10:48:36Z</time>
      </trkpt>
      <trkpt lat="42.7211" lon="-0.80762">
        <time>2022-07-30T10:48:37Z</time>
      </trkpt>
      <trkpt lat="42.721" lon="-0.80754">
        <time>2022-07-30T10:48:38Z</time>
      </trkpt>
      <trkpt lat="42.72089" lon="-0.80747">
        <time>2022-07-30T10:48:39Z</time>
      </trkpt>
      <trkpt lat="42.72078" lon="-0.80739">
        <time>2022-07-30T10:48:40Z</time>
      </trkpt>
      <trkpt lat="42.72066" lon="-0.80731">
        <time>2022-07-30T10:48:41Z</time>
      </trkpt>
      <trkpt lat="42.72055" lon="-0.80723">
        <time>2022-07-30T10:48:42Z</time>
      </trkpt>
      <trkpt lat="42.72043" lon="-0.80715">
        <time>2022-07-30T10:48:43Z</time>
      </trkpt>
      <trkpt lat="42.72031" lon="-0.80707">
        <time>2022-07-30T10:48:44Z</time>
      </trkpt>
      <trkpt lat="42.7202" lon="-0.80698">
        <time>2022-07-30T10:48:45Z</time>
      </trkpt>
      <trkpt lat="42.7201" lon="-0.80688">
        <time>2022-07-30T10:48:46Z</time>
      </trkpt>
      <trkpt lat="42.72001" lon="-0.80676">
        <time>2022-07-30T10:48:47Z</time>
      </trkpt>
      <trkpt lat="42.71991" lon="-0.80663">
        <time>2022-07-30T10:48:48Z</time>
      </trkpt>
      <trkpt lat="42.71983" lon="-0.80648">
        <time>2022-07-30T10:48:49Z</time>
      </trkpt>
      <trkpt lat="42.71975" lon="-0.80633">
        <time>2022-07-30T10:48:50Z</time>
      </trkpt>
      <trkpt lat="42.71968" lon="-0.80618">
        <time>2022-07-30T10:48:51Z</time>
      </trkpt>
      <trkpt lat="42.71961" lon="-0.80603">
        <time>2022-07-30T10:48:52Z</time>
      </trkpt>
      <trkpt lat="42.71955" lon="-0.8059">
        <time>2022-07-30T10:48:53Z</time>
      </trkpt>
      <trkpt lat="42.71948" lon="-0.80578">
        <time>2022-07-30T10:48:54Z</time>
      </trkpt>
      <trkpt lat="42.71939" lon="-0.80568">
        <time>2022-07-30T10:48:55Z</time>
      </trkpt>
      <trkpt lat="42.7193" lon="-0.80557">
        <time>2022-07-30T10:48:56Z</time>
      </trkpt>
      <trkpt lat="42.71919" lon="-0.80547">
        <time>2022-07-30T10:48:57Z</time>
      </trkpt>
      <trkpt lat="42.71908" lon="-0.80534">
        <time>2022-07-30T10:48:58Z</time>
      </trkpt>
      <trkpt lat="42.71897" lon="-0.80522">
        <time>2022-07-30T10:48:59Z</time>
      </trkpt>
      <trkpt lat="42.71885" lon="-0.80509">
        <time>2022-07-30T10:49:00Z</time>
      </trkpt>
      <trkpt lat="42.71873" lon="-0.80495">
        <time>2022-07-30T10:49:01Z</time>
      </trkpt>
      <trkpt lat="42.71861" lon="-0.80482">
        <time>2022-07-30T10:49:02Z</time>
      </trkpt>
      <trkpt lat="42.71849" lon="-0.80469">
        <time>2022-07-30T10:49:03Z</time>
      </trkpt>
      <trkpt lat="42.71838" lon="-0.80457">
        <time>2022-07-30T10:49:04Z</time>
      </trkpt>
      <trkpt lat="42.71826" lon="-0.80445">
        <time>2022-07-30T10:49:05Z</time>
      </trkpt>
      <trkpt lat="42.71815" lon="-0.80432">
        <time>2022-07-30T10:49:06Z</time>
      </trkpt>
      <trkpt lat="42.71804" lon="-0.80418">
        <time>2022-07-30T10:49:07Z</time>
      </trkpt>
      <trkpt lat="42.71793" lon="-0.80403">
        <time>2022-07-30T10:49:08Z</time>
      </trkpt>
      <trkpt lat="42.71784" lon="-0.80387">
        <time>2022-07-30T10:49:09Z</time>
      </trkpt>
      <trkpt lat="42.71773" lon="-0.80369">
        <time>2022-07-30T10:49:10Z</time>
      </trkpt>
      <trkpt lat="42.71763" lon="-0.80351">
        <time>2022-07-30T10:49:11Z</time>
      </trkpt>
      <trkpt lat="42.71753" lon="-0.80333">
        <time>2022-07-30T10:49:12Z</time>
      </trkpt>
      <trkpt lat="42.71743" lon="-0.80315">
        <time>2022-07-30T10:49:13Z</time>
      </trkpt>
      <trkpt lat="42.71734" lon="-0.80298">
        <time>2022-07-30T10:49:14Z</time>
      </trkpt>
      <trkpt lat="42.71724" lon="-0.80282">
        <time>2022-07-30T10:49:15Z</time>
      </trkpt>
      <trkpt lat="42.71714" lon="-0.80266">
        <time>2022-07-30T10:49:16Z</time>
      </trkpt>
      <trkpt lat="42.71705" lon="-0.80251">
        <time>2022-07-30T10:49:17Z</time>
      </trkpt>
      <trkpt lat="42.71697" lon="-0.80236">
        <time>2022-07-30T10:49:18Z</time>
      </trkpt>
      <trkpt lat="42.71688" lon="-0.80222">
        <time>2022-07-30T10:49:19Z</time>
      </trkpt>
      <trkpt lat="42.71683" lon="-0.80209">
        <time>2022-07-30T10:49:20Z</time>
      </trkpt>
      <trkpt lat="42.71677" lon="-0.80197">
        <time>2022-07-30T10:49:21Z</time>
      </trkpt>
      <trkpt lat="42.71672" lon="-0.80185">
        <time>2022-07-30T10:49:22Z</time>
      </trkpt>
      <trkpt lat="42.71667" lon="-0.80174">
        <time>2022-07-30T10:49:23Z</time>
      </trkpt>
      <trkpt lat="42.71663" lon="-0.80162">
        <time>2022-07-30T10:49:24Z</time>
      </trkpt>
      <trkpt lat="42.71658" lon="-0.8015">
        <time>2022-07-30T10:49:25Z</time>
      </trkpt>
      <trkpt lat="42.71653" lon="-0.80138">
        <time>2022-07-30T10:49:26Z</time>
      </trkpt>
      <trkpt lat="42.71648" lon="-0.80125">
        <time>2022-07-30T10:49:27Z</time>
      </trkpt>
      <trkpt lat="42.71641" lon="-0.80111">
        <time>2022-07-30T10:49:28Z</time>
      </trkpt>
      <trkpt lat="42.71634" lon="-0.80096">
        <time>2022-07-30T10:49:29Z</time>
      </trkpt>
      <trkpt lat="42.71626" lon="-0.80081">
        <time>2022-07-30T10:49:30Z</time>
      </trkpt>
      <trkpt lat="42.71618" lon="-0.80066">
        <time>2022-07-30T10:49:31Z</time>
      </trkpt>
      <trkpt lat="42.71611" lon="-0.80051">
        <time>2022-07-30T10:49:32Z</time>
      </trkpt>
      <trkpt lat="42.71603" lon="-0.80037">
        <time>2022-07-30T10:49:33Z</time>
      </trkpt>
      <trkpt lat="42.71595" lon="-0.80023">
        <time>2022-07-30T10:49:34Z</time>
      </trkpt>
      <trkpt lat="42.71587" lon="-0.80009">
        <time>2022-07-30T10:49:35Z</time>
      </trkpt>
      <trkpt lat="42.71579" lon="-0.79996">
        <time>2022-07-30T10:49:36Z</time>
      </trkpt>
      <trkpt lat="42.7157" lon="-0.79983">
        <time>2022-07-30T10:49:37Z</time>
      </trkpt>
      <trkpt lat="42.71561" lon="-0.79971">
        <time>2022-07-30T10:49:38Z</time>
      </trkpt>
      <trkpt lat="42.71551" lon="-0.7996">
        <time>2022-07-30T10:49:39Z</time>
      </trkpt>
      <trkpt lat="42.71541" lon="-0.79949">
        <time>2022-07-30T10:49:40Z</time>
      </trkpt>
      <trkpt lat="42.71531" lon="-0.79938">
        <time>2022-07-30T10:49:41Z</time>
      </trkpt>
      <trkpt lat="42.71521" lon="-0.79928">
        <time>2022-07-30T10:49:42Z</time>
      </trkpt>
      <trkpt lat="42.7151" lon="-0.79919">
        <time>2022-07-30T10:49:43Z</time>
      </trkpt>
      <trkpt lat="42.715" lon="-0.7991">
        <time>2022-07-30T10:49:44Z</time>
      </trkpt>
      <trkpt lat="42.71489" lon="-0.79903">
        <time>2022-07-30T10:49:45Z</time>
      </trkpt>
      <trkpt lat="42.71477" lon="-0.79897">
        <time>2022-07-30T10:49:46Z</time>
      </trkpt>
      <trkpt lat="42.71465" lon="-0.79891">
        <time>2022-07-30T10:49:47Z</time>
      </trkpt>
      <trkpt lat="42.71453" lon="-0.79886">
        <time>2022-07-30T10:49:48Z</time>
      </trkpt>
      <trkpt lat="42.7144" lon="-0.7988">
        <time>2022-07-30T10:49:49Z</time>
      </trkpt>
      <trkpt lat="42.71427" lon="-0.79874">
        <time>2022-07-30T10:49:50Z</time>
      </trkpt>
      <trkpt lat="42.71416" lon="-0.79868">
        <time>2022-07-30T10:49:51Z</time>
      </trkpt>
      <trkpt lat="42.71405" lon="-0.79863">
        <time>2022-07-30T10:49:52Z</time>
      </trkpt>
      <trkpt lat="42.71393" lon="-0.79858">
        <time>2022-07-30T10:49:53Z</time>
      </trkpt>
      <trkpt lat="42.71383" lon="-0.79853">
        <time>2022-07-30T10:49:54Z</time>
      </trkpt>
      <trkpt lat="42.71372" lon="-0.79848">
        <time>2022-07-30T10:49:55Z</time>
      </trkpt>
      <trkpt lat="42.71362" lon="-0.79842">
        <time>2022-07-30T10:49:56Z</time>
      </trkpt>
      <trkpt lat="42.71353" lon="-0.79835">
        <time>2022-07-30T10:49:57Z</time>
      </trkpt>
      <trkpt lat="42.71344" lon="-0.79825">
        <time>2022-07-30T10:49:58Z</time>
      </trkpt>
      <trkpt lat="42.71338" lon="-0.79812">
        <time>2022-07-30T10:49:59Z</time>
      </trkpt>
      <trkpt lat="42.71331" lon="-0.79796">
        <time>2022-07-30T10:50:00Z</time>
      </trkpt>
      <trkpt lat="42.71326" lon="-0.79779">
        <time>2022-07-30T10:50:01Z</time>
      </trkpt>
      <trkpt lat="42.7132" lon="-0.79759">
        <time>2022-07-30T10:50:02Z</time>
      </trkpt>
      <trkpt lat="42.71315" lon="-0.79738">
        <time>2022-07-30T10:50:03Z</time>
      </trkpt>
      <trkpt lat="42.71308" lon="-0.79717">
        <time>2022-07-30T10:50:04Z</time>
      </trkpt>
      <trkpt lat="42.71301" lon="-0.79696">
        <time>2022-07-30T10:50:05Z</time>
      </trkpt>
      <trkpt lat="42.71295" lon="-0.79676">
        <time>2022-07-30T10:50:06Z</time>
      </trkpt>
      <trkpt lat="42.7129" lon="-0.79656">
        <time>2022-07-30T10:50:07Z</time>
      </trkpt>
      <trkpt lat="42.71285" lon="-0.79638">
        <time>2022-07-30T10:50:08Z</time>
      </trkpt>
      <trkpt lat="42.7128" lon="-0.7962">
        <time>2022-07-30T10:50:09Z</time>
      </trkpt>
      <trkpt lat="42.71276" lon="-0.79602">
        <time>2022-07-30T10:50:10Z</time>
      </trkpt>
      <trkpt lat="42.71272" lon="-0.79583">
        <time>2022-07-30T10:50:11Z</time>
      </trkpt>
      <trkpt lat="42.71269" lon="-0.79564">
        <time>2022-07-30T10:50:12Z</time>
      </trkpt>
      <trkpt lat="42.71266" lon="-0.79545">
        <time>2022-07-30T10:50:13Z</time>
      </trkpt>
      <trkpt lat="42.71263" lon="-0.79527">
        <time>2022-07-30T10:50:14Z</time>
      </trkpt>
      <trkpt lat="42.7126" lon="-0.79508">
        <time>2022-07-30T10:50:15Z</time>
      </trkpt>
      <trkpt lat="42.71258" lon="-0.7949">
        <time>2022-07-30T10:50:16Z</time>
      </trkpt>
      <trkpt lat="42.71255" lon="-0.79471">
        <time>2022-07-30T10:50:17Z</time>
      </trkpt>
      <trkpt lat="42.71253" lon="-0.79454">
        <time>2022-07-30T10:50:18Z</time>
      </trkpt>
      <trkpt lat="42.71251" lon="-0.79438">
        <time>2022-07-30T10:50:19Z</time>
      </trkpt>
      <trkpt lat="42.71248" lon="-0.79423">
        <time>2022-07-30T10:50:20Z</time>
      </trkpt>
      <trkpt lat="42.71245" lon="-0.79409">
        <time>2022-07-30T10:50:21Z</time>
      </trkpt>
      <trkpt lat="42.7124" lon="-0.79396">
        <time>2022-07-30T10:50:22Z</time>
      </trkpt>
      <trkpt lat="42.71235" lon="-0.79382">
        <time>2022-07-30T10:50:23Z</time>
      </trkpt>
      <trkpt lat="42.7123" lon="-0.79367">
        <time>2022-07-30T10:50:24Z</time>
      </trkpt>
      <trkpt lat="42.71225" lon="-0.79352">
        <time>2022-07-30T10:50:25Z</time>
      </trkpt>
      <trkpt lat="42.7122" lon="-0.79336">
        <time>2022-07-30T10:50:26Z</time>
      </trkpt>
      <trkpt lat="42.71215" lon="-0.79321">
        <time>2022-07-30T10:50:27Z</time>
      </trkpt>
      <trkpt lat="42.71209" lon="-0.79306">
        <time>2022-07-30T10:50:28Z</time>
      </trkpt>
      <trkpt lat="42.71203" lon="-0.79292">
        <time>2022-07-30T10:50:29Z</time>
      </trkpt>
      <trkpt lat="42.71196" lon="-0.79279">
        <time>2022-07-30T10:50:30Z</time>
      </trkpt>
      <trkpt lat="42.71188" lon="-0.79265">
        <time>2022-07-30T10:50:31Z</time>
      </trkpt>
      <trkpt lat="42.71179" lon="-0.79252">
        <time>2022-07-30T10:50:32Z</time>
      </trkpt>
      <trkpt lat="42.7117" lon="-0.79239">
        <time>2022-07-30T10:50:33Z</time>
      </trkpt>
      <trkpt lat="42.71161" lon="-0.79226">
        <time>2022-07-30T10:50:34Z</time>
      </trkpt>
      <trkpt lat="42.71151" lon="-0.79215">
        <time>2022-07-30T10:50:35Z</time>
      </trkpt>
      <trkpt lat="42.71139" lon="-0.79205">
        <time>2022-07-30T10:50:36Z</time>
      </trkpt>
      <trkpt lat="42.71127" lon="-0.79196">
        <time>2022-07-30T10:50:37Z</time>
      </trkpt>
      <trkpt lat="42.71115" lon="-0.79187">
        <time>2022-07-30T10:50:38Z</time>
      </trkpt>
      <trkpt lat="42.71101" lon="-0.79177">
        <time>2022-07-30T10:50:39Z</time>
      </trkpt>
      <trkpt lat="42.71088" lon="-0.79168">
        <time>2022-07-30T10:50:40Z</time>
      </trkpt>
      <trkpt lat="42.71074" lon="-0.79159">
        <time>2022-07-30T10:50:41Z</time>
      </trkpt>
      <trkpt lat="42.71061" lon="-0.7915">
        <time>2022-07-30T10:50:42Z</time>
      </trkpt>
      <trkpt lat="42.71047" lon="-0.79142">
        <time>2022-07-30T10:50:43Z</time>
      </trkpt>
      <trkpt lat="42.71032" lon="-0.79136">
        <time>2022-07-30T10:50:44Z</time>
      </trkpt>
      <trkpt lat="42.71018" lon="-0.7913">
        <time>2022-07-30T10:50:45Z</time>
      </trkpt>
      <trkpt lat="42.71004" lon="-0.79123">
        <time>2022-07-30T10:50:46Z</time>
      </trkpt>
      <trkpt lat="42.7099" lon="-0.79117">
        <time>2022-07-30T10:50:47Z</time>
      </trkpt>
      <trkpt lat="42.70975" lon="-0.7911">
        <time>2022-07-30T10:50:48Z</time>
      </trkpt>
      <trkpt lat="42.70962" lon="-0.79104">
        <time>2022-07-30T10:50:49Z</time>
      </trkpt>
      <trkpt lat="42.70949" lon="-0.79099">
        <time>2022-07-30T10:50:50Z</time>
      </trkpt>
      <trkpt lat="42.70935" lon="-0.79094">
        <time>2022-07-30T10:50:51Z</time>
      </trkpt>
      <trkpt lat="42.70921" lon="-0.79091">
        <time>2022-07-30T10:50:52Z</time>
      </trkpt>
      <trkpt lat="42.70907" lon="-0.79089">
        <time>2022-07-30T10:50:53Z</time>
      </trkpt>
      <trkpt lat="42.70892" lon="-0.79087">
        <time>2022-07-30T10:50:54Z</time>
      </trkpt>
      <trkpt lat="42.70877" lon="-0.79086">
        <time>2022-07-30T10:50:55Z</time>
      </trkpt>
      <trkpt lat="42.70862" lon="-0.79084">
        <time>2022-07-30T10:50:56Z</time>
      </trkpt>
      <trkpt lat="42.70847" lon="-0.79082">
        <time>2022-07-30T10:50:57Z</time>
      </trkpt>
      <trkpt lat="42.70832" lon="-0.79079">
        <time>2022-07-30T10:50:58Z</time>
      </trkpt>
      <trkpt lat="42.70817" lon="-0.79076">
        <time>2022-07-30T10:50:59Z</time>
      </trkpt>
      <trkpt lat="42.70804" lon="-0.79074">
        <time>2022-07-30T10:51:00Z</time>
      </trkpt>
      <trkpt lat="42.7079" lon="-0.79072">
        <time>2022-07-30T10:51:01Z</time>
      </trkpt>
      <trkpt lat="42.70775" lon="-0.79071">
        <time>2022-07-30T10:51:02Z</time>
      </trkpt>
      <trkpt lat="42.70761" lon="-0.7907">
        <time>2022-07-30T10:51:03Z</time>
      </trkpt>
      <trkpt lat="42.70747" lon="-0.79069">
        <time>2022-07-30T10:51:04Z</time>
      </trkpt>
      <trkpt lat="42.70733" lon="-0.79069">
        <time>2022-07-30T10:51:05Z</time>
      </trkpt>
      <trkpt lat="42.70719" lon="-0.79068">
        <time>2022-07-30T10:51:06Z</time>
      </trkpt>
      <trkpt lat="42.70706" lon="-0.79066">
        <time>2022-07-30T10:51:07Z</time>
      </trkpt>
      <trkpt lat="42.70693" lon="-0.79063">
        <time>2022-07-30T10:51:08Z</time>
      </trkpt>
      <trkpt lat="42.70679" lon="-0.7906">
        <time>2022-07-30T10:51:09Z</time>
      </trkpt>
      <trkpt lat="42.70665" lon="-0.79055">
        <time>2022-07-30T10:51:10Z</time>
      </trkpt>
      <trkpt lat="42.70651" lon="-0.7905">
        <time>2022-07-30T10:51:11Z</time>
      </trkpt>
      <trkpt lat="42.70637" lon="-0.79045">
        <time>2022-07-30T10:51:12Z</time>
      </trkpt>
      <trkpt lat="42.70624" lon="-0.7904">
        <time>2022-07-30T10:51:13Z</time>
      </trkpt>
      <trkpt lat="42.70612" lon="-0.79035">
        <time>2022-07-30T10:51:14Z</time>
      </trkpt>
      <trkpt lat="42.70599" lon="-0.7903">
        <time>2022-07-30T10:51:15Z</time>
      </trkpt>
      <trkpt lat="42.70588" lon="-0.79025">
        <time>2022-07-30T10:51:16Z</time>
      </trkpt>
      <trkpt lat="42.70578" lon="-0.79018">
        <time>2022-07-30T10:51:17Z</time>
      </trkpt>
      <trkpt lat="42.70568" lon="-0.79011">
        <time>2022-07-30T10:51:18Z</time>
      </trkpt>
      <trkpt lat="42.70559" lon="-0.79002">
        <time>2022-07-30T10:51:19Z</time>
      </trkpt>
      <trkpt lat="42.70552" lon="-0.78992">
        <time>2022-07-30T10:51:20Z</time>
      </trkpt>
      <trkpt lat="42.70546" lon="-0.78983">
        <time>2022-07-30T10:51:21Z</time>
      </trkpt>
      <trkpt lat="42.7054" lon="-0.78974">
        <time>2022-07-30T10:51:22Z</time>
      </trkpt>
      <trkpt lat="42.70535" lon="-0.78967">
        <time>2022-07-30T10:51:23Z</time>
      </trkpt>
      <trkpt lat="42.70528" lon="-0.78962">
        <time>2022-07-30T10:51:24Z</time>
      </trkpt>
      <trkpt lat="42.7052" lon="-0.7896">
        <time>2022-07-30T10:51:25Z</time>
      </trkpt>
      <trkpt lat="42.70512" lon="-0.7896">
        <time>2022-07-30T10:51:26Z</time>
      </trkpt>
      <trkpt lat="42.70503" lon="-0.78961">
        <time>2022-07-30T10:51:27Z</time>
      </trkpt>
      <trkpt lat="42.70493" lon="-0.7896">
        <time>2022-07-30T10:51:28Z</time>
      </trkpt>
      <trkpt lat="42.70482" lon="-0.78956">
        <time>2022-07-30T10:51:29Z</time>
      </trkpt>
      <trkpt lat="42.70471" lon="-0.7895">
        <time>2022-07-30T10:51:30Z</time>
      </trkpt>
      <trkpt lat="42.70459" lon="-0.78943">
        <time>2022-07-30T10:51:31Z</time>
      </trkpt>
      <trkpt lat="42.70446" lon="-0.78936">
        <time>2022-07-30T10:51:32Z</time>
      </trkpt>
      <trkpt lat="42.70434" lon="-0.78929">
        <time>2022-07-30T10:51:33Z</time>
      </trkpt>
      <trkpt lat="42.70421" lon="-0.78923">
        <time>2022-07-30T10:51:34Z</time>
      </trkpt>
      <trkpt lat="42.70407" lon="-0.78918">
        <time>2022-07-30T10:51:35Z</time>
      </trkpt>
      <trkpt lat="42.70393" lon="-0.78914">
        <time>2022-07-30T10:51:36Z</time>
      </trkpt>
      <trkpt lat="42.70379" lon="-0.7891">
        <time>2022-07-30T10:51:37Z</time>
      </trkpt>
      <trkpt lat="42.70365" lon="-0.78905">
        <time>2022-07-30T10:51:38Z</time>
      </trkpt>
      <trkpt lat="42.70351" lon="-0.789">
        <time>2022-07-30T10:51:39Z</time>
      </trkpt>
      <trkpt lat="42.70338" lon="-0.78896">
        <time>2022-07-30T10:51:40Z</time>
      </trkpt>
      <trkpt lat="42.70325" lon="-0.78892">
        <time>2022-07-30T10:51:41Z</time>
      </trkpt>
      <trkpt lat="42.70312" lon="-0.78888">
        <time>2022-07-30T10:51:42Z</time>
      </trkpt>
      <trkpt lat="42.70298" lon="-0.78885">
        <time>2022-07-30T10:51:43Z</time>
      </trkpt>
      <trkpt lat="42.70285" lon="-0.78883">
        <time>2022-07-30T10:51:44Z</time>
      </trkpt>
      <trkpt lat="42.7027" lon="-0.78883">
        <time>2022-07-30T10:51:45Z</time>
      </trkpt>
      <trkpt lat="42.70256" lon="-0.78883">
        <time>2022-07-30T10:51:46Z</time>
      </trkpt>
      <trkpt lat="42.70241" lon="-0.78883">
        <time>2022-07-30T10:51:47Z</time>
      </trkpt>
      <trkpt lat="42.70226" lon="-0.78884">
        <time>2022-07-30T10:51:48Z</time>
      </trkpt>
      <trkpt lat="42.70213" lon="-0.78885">
        <time>2022-07-30T10:51:49Z</time>
      </trkpt>
      <trkpt lat="42.70199" lon="-0.78886">
        <time>2022-07-30T10:51:50Z</time>
      </trkpt>
      <trkpt lat="42.70186" lon="-0.78886">
        <time>2022-07-30T10:51:51Z</time>
      </trkpt>
      <trkpt lat="42.70173" lon="-0.78886">
        <time>2022-07-30T10:51:52Z</time>
      </trkpt>
      <trkpt lat="42.70161" lon="-0.78886">
        <time>2022-07-30T10:51:53Z</time>
      </trkpt>
      <trkpt lat="42.70151" lon="-0.78886">
        <time>2022-07-30T10:51:54Z</time>
      </trkpt>
      <trkpt lat="42.70141" lon="-0.78886">
        <time>2022-07-30T10:51:55Z</time>
      </trkpt>
      <trkpt lat="42.70131" lon="-0.78887">
        <time>2022-07-30T10:51:56Z</time>
      </trkpt>
      <trkpt lat="42.70122" lon="-0.7889">
        <time>2022-07-30T10:51:57Z</time>
      </trkpt>
      <trkpt lat="42.70113" lon="-0.78894">
        <time>2022-07-30T10:51:58Z</time>
      </trkpt>
      <trkpt lat="42.70105" lon="-0.78902">
        <time>2022-07-30T10:51:59Z</time>
      </trkpt>
      <trkpt lat="42.70098" lon="-0.78909">
        <time>2022-07-30T10:52:00Z</time>
      </trkpt>
      <trkpt lat="42.70091" lon="-0.78914">
        <time>2022-07-30T10:52:01Z</time>
      </trkpt>
      <trkpt lat="42.70085" lon="-0.78921">
        <time>2022-07-30T10:52:02Z</time>
      </trkpt>
      <trkpt lat="42.70081" lon="-0.78928">
        <time>2022-07-30T10:52:03Z</time>
      </trkpt>
      <trkpt lat="42.70077" lon="-0.78936">
        <time>2022-07-30T10:52:04Z</time>
      </trkpt>
      <trkpt lat="42.70074" lon="-0.78945">
        <time>2022-07-30T10:52:05Z</time>
      </trkpt>
      <trkpt lat="42.70072" lon="-0.78955">
        <time>2022-07-30T10:52:06Z</time>
      </trkpt>
      <trkpt lat="42.7007" lon="-0.78965">
        <time>2022-07-30T10:52:07Z</time>
      </trkpt>
      <trkpt lat="42.70067" lon="-0.78975">
        <time>2022-07-30T10:52:08Z</time>
      </trkpt>
      <trkpt lat="42.70065" lon="-0.78985">
        <time>2022-07-30T10:52:09Z</time>
      </trkpt>
      <trkpt lat="42.7006" lon="-0.78991">
        <time>2022-07-30T10:52:10Z</time>
      </trkpt>
      <trkpt lat="42.70053" lon="-0.78994">
        <time>2022-07-30T10:52:11Z</time>
      </trkpt>
      <trkpt lat="42.70044" lon="-0.78995">
        <time>2022-07-30T10:52:12Z</time>
      </trkpt>
      <trkpt lat="42.70034" lon="-0.78996">
        <time>2022-07-30T10:52:13Z</time>
      </trkpt>
      <trkpt lat="42.70024" lon="-0.78995">
        <time>2022-07-30T10:52:14Z</time>
      </trkpt>
      <trkpt lat="42.70012" lon="-0.78992">
        <time>2022-07-30T10:52:15Z</time>
      </trkpt>
      <trkpt lat="42.70002" lon="-0.78987">
        <time>2022-07-30T10:52:16Z</time>
      </trkpt>
      <trkpt lat="42.69991" lon="-0.78982">
        <time>2022-07-30T10:52:17Z</time>
      </trkpt>
      <trkpt lat="42.69981" lon="-0.78976">
        <time>2022-07-30T10:52:18Z</time>
      </trkpt>
      <trkpt lat="42.6997" lon="-0.78969">
        <time>2022-07-30T10:52:19Z</time>
      </trkpt>
      <trkpt lat="42.69959" lon="-0.78961">
        <time>2022-07-30T10:52:20Z</time>
      </trkpt>
      <trkpt lat="42.69948" lon="-0.78953">
        <time>2022-07-30T10:52:21Z</time>
      </trkpt>
      <trkpt lat="42.69936" lon="-0.78947">
        <time>2022-07-30T10:52:22Z</time>
      </trkpt>
      <trkpt lat="42.69924" lon="-0.78943">
        <time>2022-07-30T10:52:23Z</time>
      </trkpt>
      <trkpt lat="42.69911" lon="-0.78941">
        <time>2022-07-30T10:52:24Z</time>
      </trkpt>
      <trkpt lat="42.69899" lon="-0.7894">
        <time>2022-07-30T10:52:25Z</time>
      </trkpt>
      <trkpt lat="42.69886" lon="-0.78939">
        <time>2022-07-30T10:52:26Z</time>
      </trkpt>
      <trkpt lat="42.69873" lon="-0.78939">
        <time>2022-07-30T10:52:27Z</time>
      </trkpt>
      <trkpt lat="42.69862" lon="-0.78938">
        <time>2022-07-30T10:52:28Z</time>
      </trkpt>
      <trkpt lat="42.6985" lon="-0.78936">
        <time>2022-07-30T10:52:29Z</time>
      </trkpt>
      <trkpt lat="42.69838" lon="-0.78933">
        <time>2022-07-30T10:52:30Z</time>
      </trkpt>
      <trkpt lat="42.69826" lon="-0.7893">
        <time>2022-07-30T10:52:31Z</time>
      </trkpt>
      <trkpt lat="42.69816" lon="-0.78923">
        <time>2022-07-30T10:52:32Z</time>
      </trkpt>
      <trkpt lat="42.69805" lon="-0.78916">
        <time>2022-07-30T10:52:33Z</time>
      </trkpt>
      <trkpt lat="42.69795" lon="-0.78906">
        <time>2022-07-30T10:52:34Z</time>
      </trkpt>
      <trkpt lat="42.69786" lon="-0.78894">
        <time>2022-07-30T10:52:35Z</time>
      </trkpt>
      <trkpt lat="42.69777" lon="-0.78881">
        <time>2022-07-30T10:52:36Z</time>
      </trkpt>
      <trkpt lat="42.69768" lon="-0.78868">
        <time>2022-07-30T10:52:37Z</time>
      </trkpt>
      <trkpt lat="42.69758" lon="-0.78854">
        <time>2022-07-30T10:52:38Z</time>
      </trkpt>
      <trkpt lat="42.69748" lon="-0.78839">
        <time>2022-07-30T10:52:39Z</time>
      </trkpt>
      <trkpt lat="42.69738" lon="-0.78824">
        <time>2022-07-30T10:52:40Z</time>
      </trkpt>
      <trkpt lat="42.69728" lon="-0.78809">
        <time>2022-07-30T10:52:41Z</time>
      </trkpt>
      <trkpt lat="42.69719" lon="-0.78794">
        <time>2022-07-30T10:52:42Z</time>
      </trkpt>
      <trkpt lat="42.69712" lon="-0.7878">
        <time>2022-07-30T10:52:43Z</time>
      </trkpt>
      <trkpt lat="42.69705" lon="-0.78765">
        <time>2022-07-30T10:52:44Z</time>
      </trkpt>
      <trkpt lat="42.69698" lon="-0.7875">
        <time>2022-07-30T10:52:45Z</time>
      </trkpt>
      <trkpt lat="42.69692" lon="-0.78735">
        <time>2022-07-30T10:52:46Z</time>
      </trkpt>
      <trkpt lat="42.69684" lon="-0.78721">
        <time>2022-07-30T10:52:47Z</time>
      </trkpt>
      <trkpt lat="42.69677" lon="-0.78707">
        <time>2022-07-30T10:52:48Z</time>
      </trkpt>
      <trkpt lat="42.69669" lon="-0.78694">
        <time>2022-07-30T10:52:49Z</time>
      </trkpt>
      <trkpt lat="42.69661" lon="-0.78681">
        <time>2022-07-30T10:52:50Z</time>
      </trkpt>
      <trkpt lat="42.69654" lon="-0.78669">
        <time>2022-07-30T10:52:51Z</time>
      </trkpt>
      <trkpt lat="42.69646" lon="-0.78659">
        <time>2022-07-30T10:52:52Z</time>
      </trkpt>
      <trkpt lat="42.69639" lon="-0.78649">
        <time>2022-07-30T10:52:53Z</time>
      </trkpt>
      <trkpt lat="42.69631" lon="-0.7864">
        <time>2022-07-30T10:52:54Z</time>
      </trkpt>
      <trkpt lat="42.69622" lon="-0.78633">
        <time>2022-07-30T10:52:55Z</time>
      </trkpt>
      <trkpt lat="42.69612" lon="-0.78629">
        <time>2022-07-30T10:52:56Z</time>
      </trkpt>
      <trkpt lat="42.69601" lon="-0.78627">
        <time>2022-07-30T10:52:57Z</time>
      </trkpt>
      <trkpt lat="42.69591" lon="-0.78627">
        <time>2022-07-30T10:52:58Z</time>
      </trkpt>
      <trkpt lat="42.69582" lon="-0.78624">
        <time>2022-07-30T10:52:59Z</time>
      </trkpt>
      <trkpt lat="42.69573" lon="-0.78619">
        <time>2022-07-30T10:53:00Z</time>
      </trkpt>
      <trkpt lat="42.69564" lon="-0.7861">
        <time>2022-07-30T10:53:01Z</time>
      </trkpt>
      <trkpt lat="42.69556" lon="-0.78599">
        <time>2022-07-30T10:53:02Z</time>
      </trkpt>
      <trkpt lat="42.69546" lon="-0.78588">
        <time>2022-07-30T10:53:03Z</time>
      </trkpt>
      <trkpt lat="42.69534" lon="-0.7858">
        <time>2022-07-30T10:53:04Z</time>
      </trkpt>
      <trkpt lat="42.6952" lon="-0.78572">
        <time>2022-07-30T10:53:05Z</time>
      </trkpt>
      <trkpt lat="42.69507" lon="-0.78564">
        <time>2022-07-30T10:53:06Z</time>
      </trkpt>
      <trkpt lat="42.69495" lon="-0.78556">
        <time>2022-07-30T10:53:07Z</time>
      </trkpt>
      <trkpt lat="42.69483" lon="-0.78548">
        <time>2022-07-30T10:53:08Z</time>
      </trkpt>
      <trkpt lat="42.69471" lon="-0.78541">
        <time>2022-07-30T10:53:09Z</time>
      </trkpt>
      <trkpt lat="42.6946" lon="-0.78534">
        <time>2022-07-30T10:53:10Z</time>
      </trkpt>
      <trkpt lat="42.6945" lon="-0.78528">
        <time>2022-07-30T10:53:11Z</time>
      </trkpt>
      <trkpt lat="42.69439" lon="-0.78523">
        <time>2022-07-30T10:53:12Z</time>
      </trkpt>
      <trkpt lat="42.69427" lon="-0.7852">
        <time>2022-07-30T10:53:13Z</time>
      </trkpt>
      <trkpt lat="42.69414" lon="-0.78519">
        <time>2022-07-30T10:53:14Z</time>
      </trkpt>
      <trkpt lat="42.69401" lon="-0.78519">
        <time>2022-07-30T10:53:15Z</time>
      </trkpt>
      <trkpt lat="42.69388" lon="-0.78519">
        <time>2022-07-30T10:53:16Z</time>
      </trkpt>
      <trkpt lat="42.69377" lon="-0.78518">
        <time>2022-07-30T10:53:17Z</time>
      </trkpt>
      <trkpt lat="42.69366" lon="-0.78513">
        <time>2022-07-30T10:53:18Z</time>
      </trkpt>
      <trkpt lat="42.69354" lon="-0.78507">
        <time>2022-07-30T10:53:19Z</time>
      </trkpt>
      <trkpt lat="42.69344" lon="-0.785">
        <time>2022-07-30T10:53:20Z</time>
      </trkpt>
      <trkpt lat="42.69333" lon="-0.78494">
        <time>2022-07-30T10:53:21Z</time>
      </trkpt>
      <trkpt lat="42.69324" lon="-0.7849">
        <time>2022-07-30T10:53:22Z</time>
      </trkpt>
      <trkpt lat="42.69314" lon="-0.78488">
        <time>2022-07-30T10:53:23Z</time>
      </trkpt>
      <trkpt lat="42.69305" lon="-0.7849">
        <time>2022-07-30T10:53:24Z</time>
      </trkpt>
      <trkpt lat="42.69297" lon="-0.78495">
        <time>2022-07-30T10:53:25Z</time>
      </trkpt>
      <trkpt lat="42.69289" lon="-0.78503">
        <time>2022-07-30T10:53:26Z</time>
      </trkpt>
      <trkpt lat="42.69281" lon="-0.78513">
        <time>2022-07-30T10:53:27Z</time>
      </trkpt>
      <trkpt lat="42.69274" lon="-0.78523">
        <time>2022-07-30T10:53:28Z</time>
      </trkpt>
      <trkpt lat="42.69267" lon="-0.78532">
        <time>2022-07-30T10:53:29Z</time>
      </trkpt>
      <trkpt lat="42.6926" lon="-0.78539">
        <time>2022-07-30T10:53:30Z</time>
      </trkpt>
      <trkpt lat="42.69253" lon="-0.78544">
        <time>2022-07-30T10:53:31Z</time>
      </trkpt>
      <trkpt lat="42.69247" lon="-0.78547">
        <time>2022-07-30T10:53:32Z</time>
      </trkpt>
      <trkpt lat="42.6924" lon="-0.78545">
        <time>2022-07-30T10:53:33Z</time>
      </trkpt>
      <trkpt lat="42.69234" lon="-0.7854">
        <time>2022-07-30T10:53:34Z</time>
      </trkpt>
      <trkpt lat="42.6923" lon="-0.78531">
        <time>2022-07-30T10:53:35Z</time>
      </trkpt>
      <trkpt lat="42.69228" lon="-0.78518">
        <time>2022-07-30T10:53:36Z</time>
      </trkpt>
      <trkpt lat="42.69228" lon="-0.78504">
        <time>2022-07-30T10:53:37Z</time>
      </trkpt>
      <trkpt lat="42.69228" lon="-0.7849">
        <time>2022-07-30T10:53:38Z</time>
      </trkpt>
      <trkpt lat="42.69228" lon="-0.78476">
        <time>2022-07-30T10:53:39Z</time>
      </trkpt>
      <trkpt lat="42.69228" lon="-0.78462">
        <time>2022-07-30T10:53:40Z</time>
      </trkpt>
      <trkpt lat="42.69227" lon="-0.78449">
        <time>2022-07-30T10:53:41Z</time>
      </trkpt>
      <trkpt lat="42.69223" lon="-0.78438">
        <time>2022-07-30T10:53:42Z</time>
      </trkpt>
      <trkpt lat="42.69217" lon="-0.78428">
        <time>2022-07-30T10:53:43Z</time>
      </trkpt>
      <trkpt lat="42.69208" lon="-0.78421">
        <time>2022-07-30T10:53:44Z</time>
      </trkpt>
      <trkpt lat="42.69197" lon="-0.78416">
        <time>2022-07-30T10:53:45Z</time>
      </trkpt>
      <trkpt lat="42.69184" lon="-0.78412">
        <time>2022-07-30T10:53:46Z</time>
      </trkpt>
      <trkpt lat="42.6917" lon="-0.78408">
        <time>2022-07-30T10:53:47Z</time>
      </trkpt>
      <trkpt lat="42.69157" lon="-0.78405">
        <time>2022-07-30T10:53:48Z</time>
      </trkpt>
      <trkpt lat="42.69145" lon="-0.78401">
        <time>2022-07-30T10:53:49Z</time>
      </trkpt>
      <trkpt lat="42.69133" lon="-0.78395">
        <time>2022-07-30T10:53:50Z</time>
      </trkpt>
      <trkpt lat="42.69121" lon="-0.78387">
        <time>2022-07-30T10:53:51Z</time>
      </trkpt>
      <trkpt lat="42.6911" lon="-0.78376">
        <time>2022-07-30T10:53:52Z</time>
      </trkpt>
      <trkpt lat="42.69099" lon="-0.78364">
        <time>2022-07-30T10:53:53Z</time>
      </trkpt>
      <trkpt lat="42.6909" lon="-0.78353">
        <time>2022-07-30T10:53:54Z</time>
      </trkpt>
      <trkpt lat="42.69081" lon="-0.78343">
        <time>2022-07-30T10:53:55Z</time>
      </trkpt>
      <trkpt lat="42.69073" lon="-0.78333">
        <time>2022-07-30T10:53:56Z</time>
      </trkpt>
      <trkpt lat="42.69065" lon="-0.78325">
        <time>2022-07-30T10:53:57Z</time>
      </trkpt>
      <trkpt lat="42.69056" lon="-0.78319">
        <time>2022-07-30T10:53:58Z</time>
      </trkpt>
      <trkpt lat="42.69046" lon="-0.78314">
        <time>2022-07-30T10:53:59Z</time>
      </trkpt>
      <trkpt lat="42.69036" lon="-0.7831">
        <time>2022-07-30T10:54:00Z</time>
      </trkpt>
      <trkpt lat="42.69028" lon="-0.78308">
        <time>2022-07-30T10:54:01Z</time>
      </trkpt>
      <trkpt lat="42.6902" lon="-0.78307">
        <time>2022-07-30T10:54:02Z</time>
      </trkpt>
      <trkpt lat="42.69013" lon="-0.78309">
        <time>2022-07-30T10:54:03Z</time>
      </trkpt>
      <trkpt lat="42.69007" lon="-0.78315">
        <time>2022-07-30T10:54:04Z</time>
      </trkpt>
      <trkpt lat="42.69001" lon="-0.78324">
        <time>2022-07-30T10:54:05Z</time>
      </trkpt>
      <trkpt lat="42.68998" lon="-0.78336">
        <time>2022-07-30T10:54:06Z</time>
      </trkpt>
      <trkpt lat="42.68997" lon="-0.7835">
        <time>2022-07-30T10:54:07Z</time>
      </trkpt>
      <trkpt lat="42.68996" lon="-0.78366">
        <time>2022-07-30T10:54:08Z</time>
      </trkpt>
      <trkpt lat="42.68993" lon="-0.78383">
        <time>2022-07-30T10:54:09Z</time>
      </trkpt>
      <trkpt lat="42.68988" lon="-0.78401">
        <time>2022-07-30T10:54:10Z</time>
      </trkpt>
      <trkpt lat="42.68983" lon="-0.78417">
        <time>2022-07-30T10:54:11Z</time>
      </trkpt>
      <trkpt lat="42.68977" lon="-0.78432">
        <time>2022-07-30T10:54:12Z</time>
      </trkpt>
      <trkpt lat="42.68971" lon="-0.78446">
        <time>2022-07-30T10:54:13Z</time>
      </trkpt>
      <trkpt lat="42.68965" lon="-0.78458">
        <time>2022-07-30T10:54:14Z</time>
      </trkpt>
      <trkpt lat="42.68958" lon="-0.78469">
        <time>2022-07-30T10:54:15Z</time>
      </trkpt>
      <trkpt lat="42.68952" lon="-0.78478">
        <time>2022-07-30T10:54:16Z</time>
      </trkpt>
      <trkpt lat="42.68944" lon="-0.78484">
        <time>2022-07-30T10:54:17Z</time>
      </trkpt>
      <trkpt lat="42.68937" lon="-0.78486">
        <time>2022-07-30T10:54:18Z</time>
      </trkpt>
      <trkpt lat="42.68929" lon="-0.78485">
        <time>2022-07-30T10:54:19Z</time>
      </trkpt>
      <trkpt lat="42.68923" lon="-0.78479">
        <time>2022-07-30T10:54:20Z</time>
      </trkpt>
      <trkpt lat="42.68917" lon="-0.78469">
        <time>2022-07-30T10:54:21Z</time>
      </trkpt>
      <trkpt lat="42.68912" lon="-0.78454">
        <time>2022-07-30T10:54:22Z</time>
      </trkpt>
      <trkpt lat="42.68908" lon="-0.78439">
        <time>2022-07-30T10:54:23Z</time>
      </trkpt>
      <trkpt lat="42.68906" lon="-0.78424">
        <time>2022-07-30T10:54:24Z</time>
      </trkpt>
      <trkpt lat="42.68904" lon="-0.78409">
        <time>2022-07-30T10:54:25Z</time>
      </trkpt>
      <trkpt lat="42.68907" lon="-0.78395">
        <time>2022-07-30T10:54:26Z</time>
      </trkpt>
      <trkpt lat="42.68911" lon="-0.7838">
        <time>2022-07-30T10:54:27Z</time>
      </trkpt>
      <trkpt lat="42.68917" lon="-0.78364">
        <time>2022-07-30T10:54:28Z</time>
      </trkpt>
      <trkpt lat="42.68921" lon="-0.78349">
        <time>2022-07-30T10:54:29Z</time>
      </trkpt>
      <trkpt lat="42.68924" lon="-0.78335">
        <time>2022-07-30T10:54:30Z</time>
      </trkpt>
      <trkpt lat="42.68925" lon="-0.78324">
        <time>2022-07-30T10:54:31Z</time>
      </trkpt>
      <trkpt lat="42.68925" lon="-0.78313">
        <time>2022-07-30T10:54:32Z</time>
      </trkpt>
      <trkpt lat="42.68922" lon="-0.78304">
        <time>2022-07-30T10:54:33Z</time>
      </trkpt>
      <trkpt lat="42.68915" lon="-0.78298">
        <time>2022-07-30T10:54:34Z</time>
      </trkpt>
      <trkpt lat="42.68907" lon="-0.78294">
        <time>2022-07-30T10:54:35Z</time>
      </trkpt>
      <trkpt lat="42.68897" lon="-0.78293">
        <time>2022-07-30T10:54:36Z</time>
      </trkpt>
      <trkpt lat="42.68887" lon="-0.78293">
        <time>2022-07-30T10:54:37Z</time>
      </trkpt>
      <trkpt lat="42.68878" lon="-0.78294">
        <time>2022-07-30T10:54:38Z</time>
      </trkpt>
      <trkpt lat="42.68869" lon="-0.78299">
        <time>2022-07-30T10:54:39Z</time>
      </trkpt>
      <trkpt lat="42.6886" lon="-0.78307">
        <time>2022-07-30T10:54:40Z</time>
      </trkpt>
      <trkpt lat="42.68851" lon="-0.78316">
        <time>2022-07-30T10:54:41Z</time>
      </trkpt>
      <trkpt lat="42.68841" lon="-0.78322">
        <time>2022-07-30T10:54:42Z</time>
      </trkpt>
      <trkpt lat="42.68832" lon="-0.78324">
        <time>2022-07-30T10:54:43Z</time>
      </trkpt>
      <trkpt lat="42.68824" lon="-0.78322">
        <time>2022-07-30T10:54:44Z</time>
      </trkpt>
      <trkpt lat="42.68816" lon="-0.78315">
        <time>2022-07-30T10:54:45Z</time>
      </trkpt>
      <trkpt lat="42.68808" lon="-0.78306">
        <time>2022-07-30T10:54:46Z</time>
      </trkpt>
      <trkpt lat="42.68801" lon="-0.78297">
        <time>2022-07-30T10:54:47Z</time>
      </trkpt>
      <trkpt lat="42.68793" lon="-0.7829">
        <time>2022-07-30T10:54:48Z</time>
      </trkpt>
      <trkpt lat="42.68785" lon="-0.78286">
        <time>2022-07-30T10:54:49Z</time>
      </trkpt>
      <trkpt lat="42.68777" lon="-0.78286">
        <time>2022-07-30T10:54:50Z</time>
      </trkpt>
      <trkpt lat="42.6877" lon="-0.7829">
        <time>2022-07-30T10:54:51Z</time>
      </trkpt>
      <trkpt lat="42.68764" lon="-0.78297">
        <time>2022-07-30T10:54:52Z</time>
      </trkpt>
      <trkpt lat="42.68759" lon="-0.78305">
        <time>2022-07-30T10:54:53Z</time>
      </trkpt>
      <trkpt lat="42.68753" lon="-0.78309">
        <time>2022-07-30T10:54:54Z</time>
      </trkpt>
      <trkpt lat="42.68747" lon="-0.7831">
        <time>2022-07-30T10:54:55Z</time>
      </trkpt>
      <trkpt lat="42.68742" lon="-0.78308">
        <time>2022-07-30T10:54:56Z</time>
      </trkpt>
      <trkpt lat="42.68736" lon="-0.78301">
        <time>2022-07-30T10:54:57Z</time>
      </trkpt>
      <trkpt lat="42.68732" lon="-0.7829">
        <time>2022-07-30T10:54:58Z</time>
      </trkpt>
      <trkpt lat="42.68729" lon="-0.7828">
        <time>2022-07-30T10:54:59Z</time>
      </trkpt>
      <trkpt lat="42.68724" lon="-0.78272">
        <time>2022-07-30T10:55:00Z</time>
      </trkpt>
      <trkpt lat="42.68718" lon="-0.78267">
        <time>2022-07-30T10:55:01Z</time>
      </trkpt>
      <trkpt lat="42.68711" lon="-0.78266">
        <time>2022-07-30T10:55:02Z</time>
      </trkpt>
      <trkpt lat="42.68704" lon="-0.7827">
        <time>2022-07-30T10:55:03Z</time>
      </trkpt>
      <trkpt lat="42.68698" lon="-0.78277">
        <time>2022-07-30T10:55:04Z</time>
      </trkpt>
      <trkpt lat="42.68692" lon="-0.78287">
        <time>2022-07-30T10:55:05Z</time>
      </trkpt>
      <trkpt lat="42.68689" lon="-0.78301">
        <time>2022-07-30T10:55:06Z</time>
      </trkpt>
      <trkpt lat="42.68687" lon="-0.78316">
        <time>2022-07-30T10:55:07Z</time>
      </trkpt>
      <trkpt lat="42.68688" lon="-0.78331">
        <time>2022-07-30T10:55:08Z</time>
      </trkpt>
      <trkpt lat="42.68688" lon="-0.78345">
        <time>2022-07-30T10:55:09Z</time>
      </trkpt>
      <trkpt lat="42.68686" lon="-0.78358">
        <time>2022-07-30T10:55:10Z</time>
      </trkpt>
      <trkpt lat="42.68682" lon="-0.7837">
        <time>2022-07-30T10:55:11Z</time>
      </trkpt>
      <trkpt lat="42.68677" lon="-0.7838">
        <time>2022-07-30T10:55:12Z</time>
      </trkpt>
      <trkpt lat="42.6867" lon="-0.78387">
        <time>2022-07-30T10:55:13Z</time>
      </trkpt>
      <trkpt lat="42.68662" lon="-0.78389">
        <time>2022-07-30T10:55:14Z</time>
      </trkpt>
      <trkpt lat="42.68653" lon="-0.78388">
        <time>2022-07-30T10:55:15Z</time>
      </trkpt>
      <trkpt lat="42.68644" lon="-0.78382">
        <time>2022-07-30T10:55:16Z</time>
      </trkpt>
      <trkpt lat="42.68636" lon="-0.78374">
        <time>2022-07-30T10:55:17Z</time>
      </trkpt>
      <trkpt lat="42.68626" lon="-0.78367">
        <time>2022-07-30T10:55:18Z</time>
      </trkpt>
      <trkpt lat="42.68617" lon="-0.78363">
        <time>2022-07-30T10:55:19Z</time>
      </trkpt>
      <trkpt lat="42.68607" lon="-0.78361">
        <time>2022-07-30T10:55:20Z</time>
      </trkpt>
      <trkpt lat="42.68597" lon="-0.78364">
        <time>2022-07-30T10:55:21Z</time>
      </trkpt>
      <trkpt lat="42.68588" lon="-0.7837">
        <time>2022-07-30T10:55:22Z</time>
      </trkpt>
      <trkpt lat="42.68578" lon="-0.78378">
        <time>2022-07-30T10:55:23Z</time>
      </trkpt>
      <trkpt lat="42.68567" lon="-0.78382">
        <time>2022-07-30T10:55:24Z</time>
      </trkpt>
      <trkpt lat="42.68555" lon="-0.78381">
        <time>2022-07-30T10:55:25Z</time>
      </trkpt>
      <trkpt lat="42.68542" lon="-0.78375">
        <time>2022-07-30T10:55:26Z</time>
      </trkpt>
      <trkpt lat="42.68528" lon="-0.78368">
        <time>2022-07-30T10:55:27Z</time>
      </trkpt>
      <trkpt lat="42.68514" lon="-0.78362">
        <time>2022-07-30T10:55:28Z</time>
      </trkpt>
      <trkpt lat="42.685" lon="-0.78357">
        <time>2022-07-30T10:55:29Z</time>
      </trkpt>
      <trkpt lat="42.68487" lon="-0.7835">
        <time>2022-07-30T10:55:30Z</time>
      </trkpt>
      <trkpt lat="42.68475" lon="-0.78343">
        <time>2022-07-30T10:55:31Z</time>
      </trkpt>
      <trkpt lat="42.68463" lon="-0.78337">
        <time>2022-07-30T10:55:32Z</time>
      </trkpt>
      <trkpt lat="42.68451" lon="-0.78331">
        <time>2022-07-30T10:55:33Z</time>
      </trkpt>
      <trkpt lat="42.68439" lon="-0.78327">
        <time>2022-07-30T10:55:34Z</time>
      </trkpt>
      <trkpt lat="42.68427" lon="-0.78326">
        <time>2022-07-30T10:55:35Z</time>
      </trkpt>
      <trkpt lat="42.68412" lon="-0.78327">
        <time>2022-07-30T10:55:36Z</time>
      </trkpt>
      <trkpt lat="42.68397" lon="-0.78328">
        <time>2022-07-30T10:55:37Z</time>
      </trkpt>
      <trkpt lat="42.68381" lon="-0.7833">
        <time>2022-07-30T10:55:38Z</time>
      </trkpt>
      <trkpt lat="42.68365" lon="-0.78332">
        <time>2022-07-30T10:55:39Z</time>
      </trkpt>
      <trkpt lat="42.68349" lon="-0.78333">
        <time>2022-07-30T10:55:40Z</time>
      </trkpt>
      <trkpt lat="42.68334" lon="-0.78335">
        <time>2022-07-30T10:55:41Z</time>
      </trkpt>
      <trkpt lat="42.68321" lon="-0.78335">
        <time>2022-07-30T10:55:42Z</time>
      </trkpt>
      <trkpt lat="42.6831" lon="-0.78337">
        <time>2022-07-30T10:55:43Z</time>
      </trkpt>
      <trkpt lat="42.68299" lon="-0.78337">
        <time>2022-07-30T10:55:44Z</time>
      </trkpt>
      <trkpt lat="42.6829" lon="-0.78338">
        <time>2022-07-30T10:55:45Z</time>
      </trkpt>
      <trkpt lat="42.68282" lon="-0.78342">
        <time>2022-07-30T10:55:46Z</time>
      </trkpt>
      <trkpt lat="42.68275" lon="-0.78348">
        <time>2022-07-30T10:55:47Z</time>
      </trkpt>
      <trkpt lat="42.6827" lon="-0.78357">
        <time>2022-07-30T10:55:48Z</time>
      </trkpt>
      <trkpt lat="42.68267" lon="-0.78368">
        <time>2022-07-30T10:55:49Z</time>
      </trkpt>
      <trkpt lat="42.68266" lon="-0.78382">
        <time>2022-07-30T10:55:50Z</time>
      </trkpt>
      <trkpt lat="42.68266" lon="-0.78399">
        <time>2022-07-30T10:55:51Z</time>
      </trkpt>
      <trkpt lat="42.68266" lon="-0.78419">
        <time>2022-07-30T10:55:52Z</time>
      </trkpt>
      <trkpt lat="42.68266" lon="-0.78438">
        <time>2022-07-30T10:55:53Z</time>
      </trkpt>
      <trkpt lat="42.68266" lon="-0.78455">
        <time>2022-07-30T10:55:54Z</time>
      </trkpt>
      <trkpt lat="42.68266" lon="-0.7847">
        <time>2022-07-30T10:55:55Z</time>
      </trkpt>
      <trkpt lat="42.68265" lon="-0.78482">
        <time>2022-07-30T10:55:56Z</time>
      </trkpt>
      <trkpt lat="42.68263" lon="-0.78493">
        <time>2022-07-30T10:55:57Z</time>
      </trkpt>
      <trkpt lat="42.68258" lon="-0.78501">
        <time>2022-07-30T10:55:58Z</time>
      </trkpt>
      <trkpt lat="42.68251" lon="-0.78507">
        <time>2022-07-30T10:55:59Z</time>
      </trkpt>
      <trkpt lat="42.68244" lon="-0.78511">
        <time>2022-07-30T10:56:00Z</time>
      </trkpt>
      <trkpt lat="42.68238" lon="-0.78512">
        <time>2022-07-30T10:56:01Z</time>
      </trkpt>
      <trkpt lat="42.68231" lon="-0.78508">
        <time>2022-07-30T10:56:02Z</time>
      </trkpt>
      <trkpt lat="42.68226" lon="-0.78499">
        <time>2022-07-30T10:56:03Z</time>
      </trkpt>
      <trkpt lat="42.6822" lon="-0.78485">
        <time>2022-07-30T10:56:04Z</time>
      </trkpt>
      <trkpt lat="42.68214" lon="-0.7847">
        <time>2022-07-30T10:56:05Z</time>
      </trkpt>
      <trkpt lat="42.68209" lon="-0.78452">
        <time>2022-07-30T10:56:06Z</time>
      </trkpt>
      <trkpt lat="42.68205" lon="-0.78433">
        <time>2022-07-30T10:56:07Z</time>
      </trkpt>
      <trkpt lat="42.68202" lon="-0.78414">
        <time>2022-07-30T10:56:08Z</time>
      </trkpt>
      <trkpt lat="42.68199" lon="-0.78394">
        <time>2022-07-30T10:56:09Z</time>
      </trkpt>
      <trkpt lat="42.68197" lon="-0.78377">
        <time>2022-07-30T10:56:10Z</time>
      </trkpt>
      <trkpt lat="42.68194" lon="-0.78361">
        <time>2022-07-30T10:56:11Z</time>
      </trkpt>
      <trkpt lat="42.68191" lon="-0.78348">
        <time>2022-07-30T10:56:12Z</time>
      </trkpt>
      <trkpt lat="42.68187" lon="-0.78336">
        <time>2022-07-30T10:56:13Z</time>
      </trkpt>
      <trkpt lat="42.68181" lon="-0.78325">
        <time>2022-07-30T10:56:14Z</time>
      </trkpt>
      <trkpt lat="42.68172" lon="-0.78314">
        <time>2022-07-30T10:56:15Z</time>
      </trkpt>
      <trkpt lat="42.68164" lon="-0.78303">
        <time>2022-07-30T10:56:16Z</time>
      </trkpt>
      <trkpt lat="42.68155" lon="-0.78293">
        <time>2022-07-30T10:56:17Z</time>
      </trkpt>
      <trkpt lat="42.68148" lon="-0.78284">
        <time>2022-07-30T10:56:18Z</time>
      </trkpt>
      <trkpt lat="42.68142" lon="-0.78277">
        <time>2022-07-30T10:56:19Z</time>
      </trkpt>
      <trkpt lat="42.68135" lon="-0.78272">
        <time>2022-07-30T10:56:20Z</time>
      </trkpt>
      <trkpt lat="42.68126" lon="-0.78269">
        <time>2022-07-30T10:56:21Z</time>
      </trkpt>
      <trkpt lat="42.68116" lon="-0.78268">
        <time>2022-07-30T10:56:22Z</time>
      </trkpt>
      <trkpt lat="42.68106" lon="-0.7827">
        <time>2022-07-30T10:56:23Z</time>
      </trkpt>
      <trkpt lat="42.68095" lon="-0.78276">
        <time>2022-07-30T10:56:24Z</time>
      </trkpt>
      <trkpt lat="42.68082" lon="-0.78283">
        <time>2022-07-30T10:56:25Z</time>
      </trkpt>
      <trkpt lat="42.68067" lon="-0.78291">
        <time>2022-07-30T10:56:26Z</time>
      </trkpt>
      <trkpt lat="42.68052" lon="-0.783">
        <time>2022-07-30T10:56:27Z</time>
      </trkpt>
      <trkpt lat="42.68036" lon="-0.78309">
        <time>2022-07-30T10:56:28Z</time>
      </trkpt>
      <trkpt lat="42.68019" lon="-0.78318">
        <time>2022-07-30T10:56:29Z</time>
      </trkpt>
      <trkpt lat="42.68002" lon="-0.78328">
        <time>2022-07-30T10:56:30Z</time>
      </trkpt>
      <trkpt lat="42.67985" lon="-0.78337">
        <time>2022-07-30T10:56:31Z</time>
      </trkpt>
      <trkpt lat="42.67969" lon="-0.78346">
        <time>2022-07-30T10:56:32Z</time>
      </trkpt>
      <trkpt lat="42.67952" lon="-0.78356">
        <time>2022-07-30T10:56:33Z</time>
      </trkpt>
      <trkpt lat="42.67935" lon="-0.78366">
        <time>2022-07-30T10:56:34Z</time>
      </trkpt>
      <trkpt lat="42.67919" lon="-0.78376">
        <time>2022-07-30T10:56:35Z</time>
      </trkpt>
      <trkpt lat="42.67904" lon="-0.78384">
        <time>2022-07-30T10:56:36Z</time>
      </trkpt>
      <trkpt lat="42.6789" lon="-0.78393">
        <time>2022-07-30T10:56:37Z</time>
      </trkpt>
      <trkpt lat="42.67877" lon="-0.784">
        <time>2022-07-30T10:56:38Z</time>
      </trkpt>
      <trkpt lat="42.67865" lon="-0.78407">
        <time>2022-07-30T10:56:39Z</time>
      </trkpt>
      <trkpt lat="42.67853" lon="-0.78414">
        <time>2022-07-30T10:56:40Z</time>
      </trkpt>
      <trkpt lat="42.67842" lon="-0.78421">
        <time>2022-07-30T10:56:41Z</time>
      </trkpt>
      <trkpt lat="42.67832" lon="-0.78428">
        <time>2022-07-30T10:56:42Z</time>
      </trkpt>
      <trkpt lat="42.67821" lon="-0.78435">
        <time>2022-07-30T10:56:43Z</time>
      </trkpt>
      <trkpt lat="42.67811" lon="-0.78441">
        <time>2022-07-30T10:56:44Z</time>
      </trkpt>
      <trkpt lat="42.678" lon="-0.78444">
        <time>2022-07-30T10:56:45Z</time>
      </trkpt>
      <trkpt lat="42.67789" lon="-0.78442">
        <time>2022-07-30T10:56:46Z</time>
      </trkpt>
      <trkpt lat="42.67778" lon="-0.78436">
        <time>2022-07-30T10:56:47Z</time>
      </trkpt>
      <trkpt lat="42.67766" lon="-0.78427">
        <time>2022-07-30T10:56:48Z</time>
      </trkpt>
      <trkpt lat="42.6776" lon="-0.78411">
        <time>2022-07-30T10:56:49Z</time>
      </trkpt>
      <trkpt lat="42.67752" lon="-0.78395">
        <time>2022-07-30T10:56:50Z</time>
      </trkpt>
      <trkpt lat="42.67745" lon="-0.78378">
        <time>2022-07-30T10:56:51Z</time>
      </trkpt>
      <trkpt lat="42.67736" lon="-0.78362">
        <time>2022-07-30T10:56:52Z</time>
      </trkpt>
      <trkpt lat="42.67726" lon="-0.78348">
        <time>2022-07-30T10:56:53Z</time>
      </trkpt>
      <trkpt lat="42.67716" lon="-0.78335">
        <time>2022-07-30T10:56:54Z</time>
      </trkpt>
      <trkpt lat="42.67707" lon="-0.78324">
        <time>2022-07-30T10:56:55Z</time>
      </trkpt>
      <trkpt lat="42.67698" lon="-0.78315">
        <time>2022-07-30T10:56:56Z</time>
      </trkpt>
      <trkpt lat="42.6769" lon="-0.78307">
        <time>2022-07-30T10:56:57Z</time>
      </trkpt>
      <trkpt lat="42.67683" lon="-0.78301">
        <time>2022-07-30T10:56:58Z</time>
      </trkpt>
      <trkpt lat="42.67675" lon="-0.78297">
        <time>2022-07-30T10:56:59Z</time>
      </trkpt>
      <trkpt lat="42.67666" lon="-0.78296">
        <time>2022-07-30T10:57:00Z</time>
      </trkpt>
      <trkpt lat="42.67655" lon="-0.78299">
        <time>2022-07-30T10:57:01Z</time>
      </trkpt>
      <trkpt lat="42.67644" lon="-0.78302">
        <time>2022-07-30T10:57:02Z</time>
      </trkpt>
      <trkpt lat="42.67632" lon="-0.78306">
        <time>2022-07-30T10:57:03Z</time>
      </trkpt>
      <trkpt lat="42.6762" lon="-0.78311">
        <time>2022-07-30T10:57:04Z</time>
      </trkpt>
      <trkpt lat="42.67609" lon="-0.78316">
        <time>2022-07-30T10:57:05Z</time>
      </trkpt>
      <trkpt lat="42.67597" lon="-0.78323">
        <time>2022-07-30T10:57:06Z</time>
      </trkpt>
      <trkpt lat="42.67585" lon="-0.78331">
        <time>2022-07-30T10:57:07Z</time>
      </trkpt>
      <trkpt lat="42.67574" lon="-0.78339">
        <time>2022-07-30T10:57:08Z</time>
      </trkpt>
      <trkpt lat="42.67563" lon="-0.78347">
        <time>2022-07-30T10:57:09Z</time>
      </trkpt>
      <trkpt lat="42.67552" lon="-0.78356">
        <time>2022-07-30T10:57:10Z</time>
      </trkpt>
      <trkpt lat="42.67542" lon="-0.78366">
        <time>2022-07-30T10:57:11Z</time>
      </trkpt>
      <trkpt lat="42.67533" lon="-0.78376">
        <time>2022-07-30T10:57:12Z</time>
      </trkpt>
      <trkpt lat="42.67525" lon="-0.78388">
        <time>2022-07-30T10:57:13Z</time>
      </trkpt>
      <trkpt lat="42.67518" lon="-0.78401">
        <time>2022-07-30T10:57:14Z</time>
      </trkpt>
      <trkpt lat="42.67512" lon="-0.78416">
        <time>2022-07-30T10:57:15Z</time>
      </trkpt>
      <trkpt lat="42.67506" lon="-0.78431">
        <time>2022-07-30T10:57:16Z</time>
      </trkpt>
      <trkpt lat="42.675" lon="-0.78446">
        <time>2022-07-30T10:57:17Z</time>
      </trkpt>
      <trkpt lat="42.67493" lon="-0.78459">
        <time>2022-07-30T10:57:18Z</time>
      </trkpt>
      <trkpt lat="42.67487" lon="-0.78472">
        <time>2022-07-30T10:57:19Z</time>
      </trkpt>
      <trkpt lat="42.67478" lon="-0.78483">
        <time>2022-07-30T10:57:20Z</time>
      </trkpt>
      <trkpt lat="42.67468" lon="-0.78491">
        <time>2022-07-30T10:57:21Z</time>
      </trkpt>
      <trkpt lat="42.67457" lon="-0.78495">
        <time>2022-07-30T10:57:22Z</time>
      </trkpt>
      <trkpt lat="42.67446" lon="-0.78496">
        <time>2022-07-30T10:57:23Z</time>
      </trkpt>
      <trkpt lat="42.67433" lon="-0.78495">
        <time>2022-07-30T10:57:24Z</time>
      </trkpt>
      <trkpt lat="42.67422" lon="-0.78493">
        <time>2022-07-30T10:57:25Z</time>
      </trkpt>
      <trkpt lat="42.67413" lon="-0.78491">
        <time>2022-07-30T10:57:26Z</time>
      </trkpt>
      <trkpt lat="42.67405" lon="-0.7849">
        <time>2022-07-30T10:57:27Z</time>
      </trkpt>
      <trkpt lat="42.67398" lon="-0.78488">
        <time>2022-07-30T10:57:28Z</time>
      </trkpt>
      <trkpt lat="42.6739" lon="-0.78487">
        <time>2022-07-30T10:57:29Z</time>
      </trkpt>
      <trkpt lat="42.67381" lon="-0.78489">
        <time>2022-07-30T10:57:30Z</time>
      </trkpt>
      <trkpt lat="42.67372" lon="-0.78495">
        <time>2022-07-30T10:57:31Z</time>
      </trkpt>
      <trkpt lat="42.67361" lon="-0.78502">
        <time>2022-07-30T10:57:32Z</time>
      </trkpt>
      <trkpt lat="42.67351" lon="-0.78509">
        <time>2022-07-30T10:57:33Z</time>
      </trkpt>
      <trkpt lat="42.6734" lon="-0.78514">
        <time>2022-07-30T10:57:34Z</time>
      </trkpt>
      <trkpt lat="42.67331" lon="-0.7852">
        <time>2022-07-30T10:57:35Z</time>
      </trkpt>
      <trkpt lat="42.67322" lon="-0.78529">
        <time>2022-07-30T10:57:36Z</time>
      </trkpt>
      <trkpt lat="42.67313" lon="-0.7854">
        <time>2022-07-30T10:57:37Z</time>
      </trkpt>
      <trkpt lat="42.67304" lon="-0.78553">
        <time>2022-07-30T10:57:38Z</time>
      </trkpt>
      <trkpt lat="42.67297" lon="-0.78565">
        <time>2022-07-30T10:57:39Z</time>
      </trkpt>
      <trkpt lat="42.6729" lon="-0.78577">
        <time>2022-07-30T10:57:40Z</time>
      </trkpt>
      <trkpt lat="42.67284" lon="-0.78587">
        <time>2022-07-30T10:57:41Z</time>
      </trkpt>
      <trkpt lat="42.67279" lon="-0.78596">
        <time>2022-07-30T10:57:42Z</time>
      </trkpt>
      <trkpt lat="42.67276" lon="-0.78606">
        <time>2022-07-30T10:57:43Z</time>
      </trkpt>
      <trkpt lat="42.67276" lon="-0.78618">
        <time>2022-07-30T10:57:44Z</time>
      </trkpt>
      <trkpt lat="42.67276" lon="-0.78629">
        <time>2022-07-30T10:57:45Z</time>
      </trkpt>
      <trkpt lat="42.67276" lon="-0.7864">
        <time>2022-07-30T10:57:46Z</time>
      </trkpt>
      <trkpt lat="42.67272" lon="-0.78648">
        <time>2022-07-30T10:57:47Z</time>
      </trkpt>
      <trkpt lat="42.67266" lon="-0.78655">
        <time>2022-07-30T10:57:48Z</time>
      </trkpt>
      <trkpt lat="42.67257" lon="-0.78659">
        <time>2022-07-30T10:57:49Z</time>
      </trkpt>
      <trkpt lat="42.67248" lon="-0.78665">
        <time>2022-07-30T10:57:50Z</time>
      </trkpt>
      <trkpt lat="42.67238" lon="-0.78672">
        <time>2022-07-30T10:57:51Z</time>
      </trkpt>
      <trkpt lat="42.67227" lon="-0.78681">
        <time>2022-07-30T10:57:52Z</time>
      </trkpt>
      <trkpt lat="42.67217" lon="-0.78689">
        <time>2022-07-30T10:57:53Z</time>
      </trkpt>
      <trkpt lat="42.67207" lon="-0.78698">
        <time>2022-07-30T10:57:54Z</time>
      </trkpt>
      <trkpt lat="42.67199" lon="-0.78708">
        <time>2022-07-30T10:57:55Z</time>
      </trkpt>
      <trkpt lat="42.67192" lon="-0.78719">
        <time>2022-07-30T10:57:56Z</time>
      </trkpt>
      <trkpt lat="42.67187" lon="-0.78731">
        <time>2022-07-30T10:57:57Z</time>
      </trkpt>
      <trkpt lat="42.67183" lon="-0.78742">
        <time>2022-07-30T10:57:58Z</time>
      </trkpt>
      <trkpt lat="42.67178" lon="-0.78752">
        <time>2022-07-30T10:57:59Z</time>
      </trkpt>
      <trkpt lat="42.67171" lon="-0.78761">
        <time>2022-07-30T10:58:00Z</time>
      </trkpt>
      <trkpt lat="42.67163" lon="-0.78768">
        <time>2022-07-30T10:58:01Z</time>
      </trkpt>
      <trkpt lat="42.67154" lon="-0.78773">
        <time>2022-07-30T10:58:02Z</time>
      </trkpt>
      <trkpt lat="42.67146" lon="-0.78779">
        <time>2022-07-30T10:58:03Z</time>
      </trkpt>
      <trkpt lat="42.67139" lon="-0.78781">
        <time>2022-07-30T10:58:04Z</time>
      </trkpt>
      <trkpt lat="42.67131" lon="-0.78778">
        <time>2022-07-30T10:58:05Z</time>
      </trkpt>
      <trkpt lat="42.67124" lon="-0.78774">
        <time>2022-07-30T10:58:06Z</time>
      </trkpt>
      <trkpt lat="42.67119" lon="-0.78767">
        <time>2022-07-30T10:58:07Z</time>
      </trkpt>
      <trkpt lat="42.67115" lon="-0.78756">
        <time>2022-07-30T10:58:08Z</time>
      </trkpt>
      <trkpt lat="42.67113" lon="-0.78743">
        <time>2022-07-30T10:58:09Z</time>
      </trkpt>
      <trkpt lat="42.67111" lon="-0.78729">
        <time>2022-07-30T10:58:10Z</time>
      </trkpt>
      <trkpt lat="42.67109" lon="-0.78716">
        <time>2022-07-30T10:58:11Z</time>
      </trkpt>
      <trkpt lat="42.67105" lon="-0.78706">
        <time>2022-07-30T10:58:12Z</time>
      </trkpt>
      <trkpt lat="42.671" lon="-0.78698">
        <time>2022-07-30T10:58:13Z</time>
      </trkpt>
      <trkpt lat="42.67093" lon="-0.78692">
        <time>2022-07-30T10:58:14Z</time>
      </trkpt>
      <trkpt lat="42.67086" lon="-0.7869">
        <time>2022-07-30T10:58:15Z</time>
      </trkpt>
      <trkpt lat="42.67077" lon="-0.78693">
        <time>2022-07-30T10:58:16Z</time>
      </trkpt>
      <trkpt lat="42.67069" lon="-0.787">
        <time>2022-07-30T10:58:17Z</time>
      </trkpt>
      <trkpt lat="42.67061" lon="-0.78708">
        <time>2022-07-30T10:58:18Z</time>
      </trkpt>
      <trkpt lat="42.67051" lon="-0.78714">
        <time>2022-07-30T10:58:19Z</time>
      </trkpt>
      <trkpt lat="42.67042" lon="-0.78716">
        <time>2022-07-30T10:58:20Z</time>
      </trkpt>
      <trkpt lat="42.67032" lon="-0.78715">
        <time>2022-07-30T10:58:21Z</time>
      </trkpt>
      <trkpt lat="42.67021" lon="-0.7871">
        <time>2022-07-30T10:58:22Z</time>
      </trkpt>
      <trkpt lat="42.6701" lon="-0.78705">
        <time>2022-07-30T10:58:23Z</time>
      </trkpt>
      <trkpt lat="42.67" lon="-0.78702">
        <time>2022-07-30T10:58:24Z</time>
      </trkpt>
      <trkpt lat="42.66991" lon="-0.78696">
        <time>2022-07-30T10:58:25Z</time>
      </trkpt>
      <trkpt lat="42.66983" lon="-0.78687">
        <time>2022-07-30T10:58:26Z</time>
      </trkpt>
      <trkpt lat="42.66976" lon="-0.78674">
        <time>2022-07-30T10:58:27Z</time>
      </trkpt>
      <trkpt lat="42.66967" lon="-0.7866">
        <time>2022-07-30T10:58:28Z</time>
      </trkpt>
      <trkpt lat="42.66958" lon="-0.78648">
        <time>2022-07-30T10:58:29Z</time>
      </trkpt>
      <trkpt lat="42.66949" lon="-0.78638">
        <time>2022-07-30T10:58:30Z</time>
      </trkpt>
      <trkpt lat="42.66941" lon="-0.78631">
        <time>2022-07-30T10:58:31Z</time>
      </trkpt>
      <trkpt lat="42.66932" lon="-0.78626">
        <time>2022-07-30T10:58:32Z</time>
      </trkpt>
      <trkpt lat="42.66921" lon="-0.78623">
        <time>2022-07-30T10:58:33Z</time>
      </trkpt>
      <trkpt lat="42.6691" lon="-0.78622">
        <time>2022-07-30T10:58:34Z</time>
      </trkpt>
      <trkpt lat="42.669" lon="-0.78619">
        <time>2022-07-30T10:58:35Z</time>
      </trkpt>
      <trkpt lat="42.66889" lon="-0.78613">
        <time>2022-07-30T10:58:36Z</time>
      </trkpt>
      <trkpt lat="42.66879" lon="-0.78604">
        <time>2022-07-30T10:58:37Z</time>
      </trkpt>
      <trkpt lat="42.66868" lon="-0.78595">
        <time>2022-07-30T10:58:38Z</time>
      </trkpt>
      <trkpt lat="42.66856" lon="-0.78589">
        <time>2022-07-30T10:58:39Z</time>
      </trkpt>
      <trkpt lat="42.66843" lon="-0.78582">
        <time>2022-07-30T10:58:40Z</time>
      </trkpt>
      <trkpt lat="42.66831" lon="-0.78576">
        <time>2022-07-30T10:58:41Z</time>
      </trkpt>
      <trkpt lat="42.66819" lon="-0.7857">
        <time>2022-07-30T10:58:42Z</time>
      </trkpt>
      <trkpt lat="42.66808" lon="-0.78565">
        <time>2022-07-30T10:58:43Z</time>
      </trkpt>
      <trkpt lat="42.66797" lon="-0.78562">
        <time>2022-07-30T10:58:44Z</time>
      </trkpt>
      <trkpt lat="42.66787" lon="-0.78562">
        <time>2022-07-30T10:58:45Z</time>
      </trkpt>
      <trkpt lat="42.66776" lon="-0.78563">
        <time>2022-07-30T10:58:46Z</time>
      </trkpt>
      <trkpt lat="42.66768" lon="-0.78565">
        <time>2022-07-30T10:58:47Z</time>
      </trkpt>
      <trkpt lat="42.6676" lon="-0.78566">
        <time>2022-07-30T10:58:48Z</time>
      </trkpt>
      <trkpt lat="42.66752" lon="-0.78566">
        <time>2022-07-30T10:58:49Z</time>
      </trkpt>
      <trkpt lat="42.66745" lon="-0.78564">
        <time>2022-07-30T10:58:50Z</time>
      </trkpt>
      <trkpt lat="42.66738" lon="-0.78559">
        <time>2022-07-30T10:58:51Z</time>
      </trkpt>
      <trkpt lat="42.66732" lon="-0.78547">
        <time>2022-07-30T10:58:52Z</time>
      </trkpt>
      <trkpt lat="42.66727" lon="-0.78533">
        <time>2022-07-30T10:58:53Z</time>
      </trkpt>
      <trkpt lat="42.66721" lon="-0.78519">
        <time>2022-07-30T10:58:54Z</time>
      </trkpt>
      <trkpt lat="42.66714" lon="-0.78507">
        <time>2022-07-30T10:58:55Z</time>
      </trkpt>
      <trkpt lat="42.66704" lon="-0.78495">
        <time>2022-07-30T10:58:56Z</time>
      </trkpt>
      <trkpt lat="42.66694" lon="-0.78483">
        <time>2022-07-30T10:58:57Z</time>
      </trkpt>
      <trkpt lat="42.66683" lon="-0.78472">
        <time>2022-07-30T10:58:58Z</time>
      </trkpt>
      <trkpt lat="42.66671" lon="-0.7846">
        <time>2022-07-30T10:58:59Z</time>
      </trkpt>
      <trkpt lat="42.6666" lon="-0.78447">
        <time>2022-07-30T10:59:00Z</time>
      </trkpt>
      <trkpt lat="42.6665" lon="-0.78435">
        <time>2022-07-30T10:59:01Z</time>
      </trkpt>
      <trkpt lat="42.6664" lon="-0.78421">
        <time>2022-07-30T10:59:02Z</time>
      </trkpt>
      <trkpt lat="42.66631" lon="-0.78407">
        <time>2022-07-30T10:59:03Z</time>
      </trkpt>
      <trkpt lat="42.66624" lon="-0.78394">
        <time>2022-07-30T10:59:04Z</time>
      </trkpt>
      <trkpt lat="42.66617" lon="-0.78383">
        <time>2022-07-30T10:59:05Z</time>
      </trkpt>
      <trkpt lat="42.66611" lon="-0.78372">
        <time>2022-07-30T10:59:06Z</time>
      </trkpt>
      <trkpt lat="42.66605" lon="-0.78362">
        <time>2022-07-30T10:59:07Z</time>
      </trkpt>
      <trkpt lat="42.66597" lon="-0.78356">
        <time>2022-07-30T10:59:08Z</time>
      </trkpt>
      <trkpt lat="42.66587" lon="-0.78351">
        <time>2022-07-30T10:59:09Z</time>
      </trkpt>
      <trkpt lat="42.66576" lon="-0.78349">
        <time>2022-07-30T10:59:10Z</time>
      </trkpt>
      <trkpt lat="42.66564" lon="-0.78349">
        <time>2022-07-30T10:59:11Z</time>
      </trkpt>
      <trkpt lat="42.66551" lon="-0.7835">
        <time>2022-07-30T10:59:12Z</time>
      </trkpt>
      <trkpt lat="42.66538" lon="-0.78352">
        <time>2022-07-30T10:59:13Z</time>
      </trkpt>
      <trkpt lat="42.66523" lon="-0.78353">
        <time>2022-07-30T10:59:14Z</time>
      </trkpt>
      <trkpt lat="42.66507" lon="-0.78355">
        <time>2022-07-30T10:59:15Z</time>
      </trkpt>
      <trkpt lat="42.66491" lon="-0.78356">
        <time>2022-07-30T10:59:16Z</time>
      </trkpt>
      <trkpt lat="42.66475" lon="-0.78358">
        <time>2022-07-30T10:59:17Z</time>
      </trkpt>
      <trkpt lat="42.66458" lon="-0.78359">
        <time>2022-07-30T10:59:18Z</time>
      </trkpt>
      <trkpt lat="42.66441" lon="-0.78361">
        <time>2022-07-30T10:59:19Z</time>
      </trkpt>
      <trkpt lat="42.66425" lon="-0.78362">
        <time>2022-07-30T10:59:20Z</time>
      </trkpt>
      <trkpt lat="42.66408" lon="-0.78364">
        <time>2022-07-30T10:59:21Z</time>
      </trkpt>
      <trkpt lat="42.66392" lon="-0.78366">
        <time>2022-07-30T10:59:22Z</time>
      </trkpt>
      <trkpt lat="42.66376" lon="-0.78368">
        <time>2022-07-30T10:59:23Z</time>
      </trkpt>
      <trkpt lat="42.6636" lon="-0.78369">
        <time>2022-07-30T10:59:24Z</time>
      </trkpt>
      <trkpt lat="42.66345" lon="-0.7837">
        <time>2022-07-30T10:59:25Z</time>
      </trkpt>
      <trkpt lat="42.66329" lon="-0.78372">
        <time>2022-07-30T10:59:26Z</time>
      </trkpt>
      <trkpt lat="42.66315" lon="-0.78374">
        <time>2022-07-30T10:59:27Z</time>
      </trkpt>
      <trkpt lat="42.663" lon="-0.78375">
        <time>2022-07-30T10:59:28Z</time>
      </trkpt>
      <trkpt lat="42.66286" lon="-0.78377">
        <time>2022-07-30T10:59:29Z</time>
      </trkpt>
      <trkpt lat="42.66272" lon="-0.78378">
        <time>2022-07-30T10:59:30Z</time>
      </trkpt>
      <trkpt lat="42.66259" lon="-0.7838">
        <time>2022-07-30T10:59:31Z</time>
      </trkpt>
      <trkpt lat="42.66246" lon="-0.78381">
        <time>2022-07-30T10:59:32Z</time>
      </trkpt>
      <trkpt lat="42.66234" lon="-0.78382">
        <time>2022-07-30T10:59:33Z</time>
      </trkpt>
      <trkpt lat="42.66222" lon="-0.78383">
        <time>2022-07-30T10:59:34Z</time>
      </trkpt>
      <trkpt lat="42.66211" lon="-0.78384">
        <time>2022-07-30T10:59:35Z</time>
      </trkpt>
      <trkpt lat="42.66201" lon="-0.78385">
        <time>2022-07-30T10:59:36Z</time>
      </trkpt>
      <trkpt lat="42.66192" lon="-0.78385">
        <time>2022-07-30T10:59:37Z</time>
      </trkpt>
      <trkpt lat="42.66183" lon="-0.78386">
        <time>2022-07-30T10:59:38Z</time>
      </trkpt>
      <trkpt lat="42.66175" lon="-0.78386">
        <time>2022-07-30T10:59:39Z</time>
      </trkpt>
      <trkpt lat="42.66167" lon="-0.78387">
        <time>2022-07-30T10:59:40Z</time>
      </trkpt>
      <trkpt lat="42.66161" lon="-0.78387">
        <time>2022-07-30T10:59:41Z</time>
      </trkpt>
      <trkpt lat="42.66155" lon="-0.78389">
        <time>2022-07-30T10:59:42Z</time>
      </trkpt>
      <trkpt lat="42.6615" lon="-0.7839">
        <time>2022-07-30T10:59:43Z</time>
      </trkpt>
      <trkpt lat="42.66146" lon="-0.78392">
        <time>2022-07-30T10:59:44Z</time>
      </trkpt>
      <trkpt lat="42.66141" lon="-0.78395">
        <time>2022-07-30T10:59:45Z</time>
      </trkpt>
      <trkpt lat="42.66137" lon="-0.78401">
        <time>2022-07-30T10:59:46Z</time>
      </trkpt>
      <trkpt lat="42.66133" lon="-0.7841">
        <time>2022-07-30T10:59:47Z</time>
      </trkpt>
      <trkpt lat="42.66131" lon="-0.7842">
        <time>2022-07-30T10:59:48Z</time>
      </trkpt>
      <trkpt lat="42.66131" lon="-0.78431">
        <time>2022-07-30T10:59:49Z</time>
      </trkpt>
      <trkpt lat="42.6613" lon="-0.78443">
        <time>2022-07-30T10:59:50Z</time>
      </trkpt>
      <trkpt lat="42.6613" lon="-0.78456">
        <time>2022-07-30T10:59:51Z</time>
      </trkpt>
      <trkpt lat="42.6613" lon="-0.7847">
        <time>2022-07-30T10:59:52Z</time>
      </trkpt>
      <trkpt lat="42.66131" lon="-0.78485">
        <time>2022-07-30T10:59:53Z</time>
      </trkpt>
      <trkpt lat="42.66135" lon="-0.78501">
        <time>2022-07-30T10:59:54Z</time>
      </trkpt>
      <trkpt lat="42.6614" lon="-0.78516">
        <time>2022-07-30T10:59:55Z</time>
      </trkpt>
      <trkpt lat="42.66146" lon="-0.78532">
        <time>2022-07-30T10:59:56Z</time>
      </trkpt>
      <trkpt lat="42.66152" lon="-0.78548">
        <time>2022-07-30T10:59:57Z</time>
      </trkpt>
      <trkpt lat="42.66159" lon="-0.78564">
        <time>2022-07-30T10:59:58Z</time>
      </trkpt>
      <trkpt lat="42.66165" lon="-0.7858">
        <time>2022-07-30T10:59:59Z</time>
      </trkpt>
      <trkpt lat="42.66171" lon="-0.78594">
        <time>2022-07-30T11:00:00Z</time>
      </trkpt>
      <trkpt lat="42.66176" lon="-0.78608">
        <time>2022-07-30T11:00:01Z</time>
      </trkpt>
      <trkpt lat="42.6618" lon="-0.78619">
        <time>2022-07-30T11:00:02Z</time>
      </trkpt>
      <trkpt lat="42.66184" lon="-0.7863">
        <time>2022-07-30T11:00:03Z</time>
      </trkpt>
      <trkpt lat="42.66186" lon="-0.78641">
        <time>2022-07-30T11:00:04Z</time>
      </trkpt>
      <trkpt lat="42.66187" lon="-0.78652">
        <time>2022-07-30T11:00:05Z</time>
      </trkpt>
      <trkpt lat="42.66185" lon="-0.78662">
        <time>2022-07-30T11:00:06Z</time>
      </trkpt>
      <trkpt lat="42.66181" lon="-0.78671">
        <time>2022-07-30T11:00:07Z</time>
      </trkpt>
      <trkpt lat="42.66174" lon="-0.78678">
        <time>2022-07-30T11:00:08Z</time>
      </trkpt>
      <trkpt lat="42.66166" lon="-0.78682">
        <time>2022-07-30T11:00:09Z</time>
      </trkpt>
      <trkpt lat="42.66157" lon="-0.78684">
        <time>2022-07-30T11:00:10Z</time>
      </trkpt>
      <trkpt lat="42.66147" lon="-0.78682">
        <time>2022-07-30T11:00:11Z</time>
      </trkpt>
      <trkpt lat="42.66137" lon="-0.78676">
        <time>2022-07-30T11:00:12Z</time>
      </trkpt>
      <trkpt lat="42.66128" lon="-0.78667">
        <time>2022-07-30T11:00:13Z</time>
      </trkpt>
      <trkpt lat="42.66118" lon="-0.78655">
        <time>2022-07-30T11:00:14Z</time>
      </trkpt>
      <trkpt lat="42.66109" lon="-0.78644">
        <time>2022-07-30T11:00:15Z</time>
      </trkpt>
      <trkpt lat="42.661" lon="-0.78631">
        <time>2022-07-30T11:00:16Z</time>
      </trkpt>
      <trkpt lat="42.66092" lon="-0.78618">
        <time>2022-07-30T11:00:17Z</time>
      </trkpt>
      <trkpt lat="42.66084" lon="-0.78604">
        <time>2022-07-30T11:00:18Z</time>
      </trkpt>
      <trkpt lat="42.66075" lon="-0.7859">
        <time>2022-07-30T11:00:19Z</time>
      </trkpt>
      <trkpt lat="42.66067" lon="-0.78575">
        <time>2022-07-30T11:00:20Z</time>
      </trkpt>
      <trkpt lat="42.66058" lon="-0.78561">
        <time>2022-07-30T11:00:21Z</time>
      </trkpt>
      <trkpt lat="42.6605" lon="-0.78548">
        <time>2022-07-30T11:00:22Z</time>
      </trkpt>
      <trkpt lat="42.66042" lon="-0.78535">
        <time>2022-07-30T11:00:23Z</time>
      </trkpt>
      <trkpt lat="42.66035" lon="-0.78523">
        <time>2022-07-30T11:00:24Z</time>
      </trkpt>
      <trkpt lat="42.66031" lon="-0.78508">
        <time>2022-07-30T11:00:25Z</time>
      </trkpt>
      <trkpt lat="42.66026" lon="-0.78494">
        <time>2022-07-30T11:00:26Z</time>
      </trkpt>
      <trkpt lat="42.66023" lon="-0.78481">
        <time>2022-07-30T11:00:27Z</time>
      </trkpt>
      <trkpt lat="42.6602" lon="-0.78468">
        <time>2022-07-30T11:00:28Z</time>
      </trkpt>
      <trkpt lat="42.66016" lon="-0.78456">
        <time>2022-07-30T11:00:29Z</time>
      </trkpt>
      <trkpt lat="42.66012" lon="-0.78446">
        <time>2022-07-30T11:00:30Z</time>
      </trkpt>
      <trkpt lat="42.66006" lon="-0.7844">
        <time>2022-07-30T11:00:31Z</time>
      </trkpt>
      <trkpt lat="42.65999" lon="-0.78434">
        <time>2022-07-30T11:00:32Z</time>
      </trkpt>
      <trkpt lat="42.6599" lon="-0.78431">
        <time>2022-07-30T11:00:33Z</time>
      </trkpt>
      <trkpt lat="42.6598" lon="-0.78431">
        <time>2022-07-30T11:00:34Z</time>
      </trkpt>
      <trkpt lat="42.6597" lon="-0.78435">
        <time>2022-07-30T11:00:35Z</time>
      </trkpt>
      <trkpt lat="42.65961" lon="-0.78442">
        <time>2022-07-30T11:00:36Z</time>
      </trkpt>
      <trkpt lat="42.65952" lon="-0.78453">
        <time>2022-07-30T11:00:37Z</time>
      </trkpt>
      <trkpt lat="42.65943" lon="-0.78465">
        <time>2022-07-30T11:00:38Z</time>
      </trkpt>
      <trkpt lat="42.65934" lon="-0.78479">
        <time>2022-07-30T11:00:39Z</time>
      </trkpt>
      <trkpt lat="42.65925" lon="-0.78492">
        <time>2022-07-30T11:00:40Z</time>
      </trkpt>
      <trkpt lat="42.65915" lon="-0.78506">
        <time>2022-07-30T11:00:41Z</time>
      </trkpt>
      <trkpt lat="42.65903" lon="-0.7852">
        <time>2022-07-30T11:00:42Z</time>
      </trkpt>
      <trkpt lat="42.65891" lon="-0.78532">
        <time>2022-07-30T11:00:43Z</time>
      </trkpt>
      <trkpt lat="42.65878" lon="-0.78544">
        <time>2022-07-30T11:00:44Z</time>
      </trkpt>
      <trkpt lat="42.65865" lon="-0.78554">
        <time>2022-07-30T11:00:45Z</time>
      </trkpt>
      <trkpt lat="42.65853" lon="-0.78563">
        <time>2022-07-30T11:00:46Z</time>
      </trkpt>
      <trkpt lat="42.6584" lon="-0.78573">
        <time>2022-07-30T11:00:47Z</time>
      </trkpt>
      <trkpt lat="42.65828" lon="-0.78582">
        <time>2022-07-30T11:00:48Z</time>
      </trkpt>
      <trkpt lat="42.65818" lon="-0.7859">
        <time>2022-07-30T11:00:49Z</time>
      </trkpt>
      <trkpt lat="42.65808" lon="-0.78599">
        <time>2022-07-30T11:00:50Z</time>
      </trkpt>
      <trkpt lat="42.658" lon="-0.78607">
        <time>2022-07-30T11:00:51Z</time>
      </trkpt>
      <trkpt lat="42.65793" lon="-0.78614">
        <time>2022-07-30T11:00:52Z</time>
      </trkpt>
      <trkpt lat="42.65786" lon="-0.78618">
        <time>2022-07-30T11:00:53Z</time>
      </trkpt>
      <trkpt lat="42.65778" lon="-0.78622">
        <time>2022-07-30T11:00:54Z</time>
      </trkpt>
      <trkpt lat="42.65768" lon="-0.78624">
        <time>2022-07-30T11:00:55Z</time>
      </trkpt>
      <trkpt lat="42.65759" lon="-0.78623">
        <time>2022-07-30T11:00:56Z</time>
      </trkpt>
      <trkpt lat="42.6575" lon="-0.78618">
        <time>2022-07-30T11:00:57Z</time>
      </trkpt>
      <trkpt lat="42.65742" lon="-0.78613">
        <time>2022-07-30T11:00:58Z</time>
      </trkpt>
      <trkpt lat="42.65734" lon="-0.78606">
        <time>2022-07-30T11:00:59Z</time>
      </trkpt>
      <trkpt lat="42.65727" lon="-0.78601">
        <time>2022-07-30T11:01:00Z</time>
      </trkpt>
      <trkpt lat="42.65718" lon="-0.78598">
        <time>2022-07-30T11:01:01Z</time>
      </trkpt>
      <trkpt lat="42.6571" lon="-0.78597">
        <time>2022-07-30T11:01:02Z</time>
      </trkpt>
      <trkpt lat="42.65702" lon="-0.78597">
        <time>2022-07-30T11:01:03Z</time>
      </trkpt>
      <trkpt lat="42.65694" lon="-0.786">
        <time>2022-07-30T11:01:04Z</time>
      </trkpt>
      <trkpt lat="42.65687" lon="-0.78606">
        <time>2022-07-30T11:01:05Z</time>
      </trkpt>
      <trkpt lat="42.6568" lon="-0.78614">
        <time>2022-07-30T11:01:06Z</time>
      </trkpt>
      <trkpt lat="42.65672" lon="-0.78621">
        <time>2022-07-30T11:01:07Z</time>
      </trkpt>
      <trkpt lat="42.65663" lon="-0.78625">
        <time>2022-07-30T11:01:08Z</time>
      </trkpt>
      <trkpt lat="42.65654" lon="-0.78627">
        <time>2022-07-30T11:01:09Z</time>
      </trkpt>
      <trkpt lat="42.65644" lon="-0.78628">
        <time>2022-07-30T11:01:10Z</time>
      </trkpt>
      <trkpt lat="42.65635" lon="-0.78627">
        <time>2022-07-30T11:01:11Z</time>
      </trkpt>
      <trkpt lat="42.65625" lon="-0.78626">
        <time>2022-07-30T11:01:12Z</time>
      </trkpt>
      <trkpt lat="42.65615" lon="-0.78623">
        <time>2022-07-30T11:01:13Z</time>
      </trkpt>
      <trkpt lat="42.65605" lon="-0.78622">
        <time>2022-07-30T11:01:14Z</time>
      </trkpt>
      <trkpt lat="42.65596" lon="-0.78619">
        <time>2022-07-30T11:01:15Z</time>
      </trkpt>
      <trkpt lat="42.65588" lon="-0.78617">
        <time>2022-07-30T11:01:16Z</time>
      </trkpt>
      <trkpt lat="42.65579" lon="-0.78615">
        <time>2022-07-30T11:01:17Z</time>
      </trkpt>
      <trkpt lat="42.65571" lon="-0.78614">
        <time>2022-07-30T11:01:18Z</time>
      </trkpt>
      <trkpt lat="42.65562" lon="-0.78613">
        <time>2022-07-30T11:01:19Z</time>
      </trkpt>
      <trkpt lat="42.65553" lon="-0.78613">
        <time>2022-07-30T11:01:20Z</time>
      </trkpt>
      <trkpt lat="42.65543" lon="-0.78615">
        <time>2022-07-30T11:01:21Z</time>
      </trkpt>
      <trkpt lat="42.65533" lon="-0.78619">
        <time>2022-07-30T11:01:22Z</time>
      </trkpt>
      <trkpt lat="42.65523" lon="-0.78623">
        <time>2022-07-30T11:01:23Z</time>
      </trkpt>
      <trkpt lat="42.65515" lon="-0.78626">
        <time>2022-07-30T11:01:24Z</time>
      </trkpt>
      <trkpt lat="42.65506" lon="-0.78628">
        <time>2022-07-30T11:01:25Z</time>
      </trkpt>
      <trkpt lat="42.65497" lon="-0.78629">
        <time>2022-07-30T11:01:26Z</time>
      </trkpt>
      <trkpt lat="42.65489" lon="-0.7863">
        <time>2022-07-30T11:01:27Z</time>
      </trkpt>
      <trkpt lat="42.65483" lon="-0.78632">
        <time>2022-07-30T11:01:28Z</time>
      </trkpt>
      <trkpt lat="42.65477" lon="-0.78639">
        <time>2022-07-30T11:01:29Z</time>
      </trkpt>
      <trkpt lat="42.65471" lon="-0.78646">
        <time>2022-07-30T11:01:30Z</time>
      </trkpt>
      <trkpt lat="42.65465" lon="-0.78653">
        <time>2022-07-30T11:01:31Z</time>
      </trkpt>
      <trkpt lat="42.6546" lon="-0.78661">
        <time>2022-07-30T11:01:32Z</time>
      </trkpt>
      <trkpt lat="42.65456" lon="-0.78672">
        <time>2022-07-30T11:01:33Z</time>
      </trkpt>
      <trkpt lat="42.6545" lon="-0.78684">
        <time>2022-07-30T11:01:34Z</time>
      </trkpt>
      <trkpt lat="42.65443" lon="-0.78695">
        <time>2022-07-30T11:01:35Z</time>
      </trkpt>
      <trkpt lat="42.65436" lon="-0.78707">
        <time>2022-07-30T11:01:36Z</time>
      </trkpt>
      <trkpt lat="42.65428" lon="-0.78718">
        <time>2022-07-30T11:01:37Z</time>
      </trkpt>
      <trkpt lat="42.65422" lon="-0.78728">
        <time>2022-07-30T11:01:38Z</time>
      </trkpt>
      <trkpt lat="42.65418" lon="-0.78743">
        <time>2022-07-30T11:01:39Z</time>
      </trkpt>
      <trkpt lat="42.65427" lon="-0.78766">
        <time>2022-07-30T11:01:40Z</time>
      </trkpt>
      <trkpt lat="42.6543" lon="-0.78785">
        <time>2022-07-30T11:01:41Z</time>
      </trkpt>
      <trkpt lat="42.65429" lon="-0.78801">
        <time>2022-07-30T11:01:42Z</time>
      </trkpt>
      <trkpt lat="42.65425" lon="-0.78816">
        <time>2022-07-30T11:01:43Z</time>
      </trkpt>
      <trkpt lat="42.65421" lon="-0.7883">
        <time>2022-07-30T11:01:44Z</time>
      </trkpt>
      <trkpt lat="42.65417" lon="-0.78844">
        <time>2022-07-30T11:01:45Z</time>
      </trkpt>
      <trkpt lat="42.65411" lon="-0.78856">
        <time>2022-07-30T11:01:46Z</time>
      </trkpt>
      <trkpt lat="42.65403" lon="-0.78867">
        <time>2022-07-30T11:01:47Z</time>
      </trkpt>
      <trkpt lat="42.65396" lon="-0.78876">
        <time>2022-07-30T11:01:48Z</time>
      </trkpt>
      <trkpt lat="42.65393" lon="-0.78886">
        <time>2022-07-30T11:01:49Z</time>
      </trkpt>
      <trkpt lat="42.65386" lon="-0.78891">
        <time>2022-07-30T11:01:50Z</time>
      </trkpt>
      <trkpt lat="42.6538" lon="-0.78896">
        <time>2022-07-30T11:01:51Z</time>
      </trkpt>
      <trkpt lat="42.65367" lon="-0.78896">
        <time>2022-07-30T11:01:52Z</time>
      </trkpt>
      <trkpt lat="42.65358" lon="-0.78899">
        <time>2022-07-30T11:01:53Z</time>
      </trkpt>
      <trkpt lat="42.65351" lon="-0.78903">
        <time>2022-07-30T11:01:54Z</time>
      </trkpt>
      <trkpt lat="42.65344" lon="-0.78909">
        <time>2022-07-30T11:01:55Z</time>
      </trkpt>
      <trkpt lat="42.65337" lon="-0.78916">
        <time>2022-07-30T11:01:56Z</time>
      </trkpt>
      <trkpt lat="42.6533" lon="-0.78925">
        <time>2022-07-30T11:01:57Z</time>
      </trkpt>
      <trkpt lat="42.65323" lon="-0.78935">
        <time>2022-07-30T11:01:58Z</time>
      </trkpt>
      <trkpt lat="42.65317" lon="-0.78945">
        <time>2022-07-30T11:01:59Z</time>
      </trkpt>
      <trkpt lat="42.65313" lon="-0.78955">
        <time>2022-07-30T11:02:00Z</time>
      </trkpt>
      <trkpt lat="42.65306" lon="-0.78965">
        <time>2022-07-30T11:02:01Z</time>
      </trkpt>
      <trkpt lat="42.65299" lon="-0.78975">
        <time>2022-07-30T11:02:02Z</time>
      </trkpt>
      <trkpt lat="42.65291" lon="-0.78984">
        <time>2022-07-30T11:02:03Z</time>
      </trkpt>
      <trkpt lat="42.65281" lon="-0.78991">
        <time>2022-07-30T11:02:04Z</time>
      </trkpt>
      <trkpt lat="42.65272" lon="-0.79002">
        <time>2022-07-30T11:02:05Z</time>
      </trkpt>
      <trkpt lat="42.65264" lon="-0.79012">
        <time>2022-07-30T11:02:06Z</time>
      </trkpt>
      <trkpt lat="42.65255" lon="-0.79018">
        <time>2022-07-30T11:02:07Z</time>
      </trkpt>
      <trkpt lat="42.65247" lon="-0.79025">
        <time>2022-07-30T11:02:08Z</time>
      </trkpt>
      <trkpt lat="42.65238" lon="-0.79031">
        <time>2022-07-30T11:02:09Z</time>
      </trkpt>
      <trkpt lat="42.65229" lon="-0.79036">
        <time>2022-07-30T11:02:10Z</time>
      </trkpt>
      <trkpt lat="42.65219" lon="-0.7904">
        <time>2022-07-30T11:02:11Z</time>
      </trkpt>
      <trkpt lat="42.6521" lon="-0.79047">
        <time>2022-07-30T11:02:12Z</time>
      </trkpt>
      <trkpt lat="42.65199" lon="-0.79051">
        <time>2022-07-30T11:02:13Z</time>
      </trkpt>
      <trkpt lat="42.65189" lon="-0.79055">
        <time>2022-07-30T11:02:14Z</time>
      </trkpt>
      <trkpt lat="42.65178" lon="-0.79058">
        <time>2022-07-30T11:02:15Z</time>
      </trkpt>
      <trkpt lat="42.65168" lon="-0.79059">
        <time>2022-07-30T11:02:16Z</time>
      </trkpt>
      <trkpt lat="42.65157" lon="-0.79061">
        <time>2022-07-30T11:02:17Z</time>
      </trkpt>
      <trkpt lat="42.65147" lon="-0.79063">
        <time>2022-07-30T11:02:18Z</time>
      </trkpt>
      <trkpt lat="42.65137" lon="-0.79066">
        <time>2022-07-30T11:02:19Z</time>
      </trkpt>
      <trkpt lat="42.65128" lon="-0.79069">
        <time>2022-07-30T11:02:20Z</time>
      </trkpt>
      <trkpt lat="42.6512" lon="-0.79072">
        <time>2022-07-30T11:02:21Z</time>
      </trkpt>
      <trkpt lat="42.65111" lon="-0.79075">
        <time>2022-07-30T11:02:22Z</time>
      </trkpt>
      <trkpt lat="42.65103" lon="-0.79079">
        <time>2022-07-30T11:02:23Z</time>
      </trkpt>
      <trkpt lat="42.65095" lon="-0.79088">
        <time>2022-07-30T11:02:24Z</time>
      </trkpt>
      <trkpt lat="42.65087" lon="-0.79098">
        <time>2022-07-30T11:02:25Z</time>
      </trkpt>
      <trkpt lat="42.65078" lon="-0.79109">
        <time>2022-07-30T11:02:26Z</time>
      </trkpt>
      <trkpt lat="42.65068" lon="-0.7912">
        <time>2022-07-30T11:02:27Z</time>
      </trkpt>
      <trkpt lat="42.65058" lon="-0.79131">
        <time>2022-07-30T11:02:28Z</time>
      </trkpt>
      <trkpt lat="42.65048" lon="-0.79142">
        <time>2022-07-30T11:02:29Z</time>
      </trkpt>
      <trkpt lat="42.65041" lon="-0.79152">
        <time>2022-07-30T11:02:30Z</time>
      </trkpt>
      <trkpt lat="42.65033" lon="-0.79161">
        <time>2022-07-30T11:02:31Z</time>
      </trkpt>
      <trkpt lat="42.65026" lon="-0.79167">
        <time>2022-07-30T11:02:32Z</time>
      </trkpt>
      <trkpt lat="42.65019" lon="-0.79175">
        <time>2022-07-30T11:02:33Z</time>
      </trkpt>
      <trkpt lat="42.65015" lon="-0.79185">
        <time>2022-07-30T11:02:34Z</time>
      </trkpt>
      <trkpt lat="42.65012" lon="-0.79196">
        <time>2022-07-30T11:02:35Z</time>
      </trkpt>
      <trkpt lat="42.65008" lon="-0.79208">
        <time>2022-07-30T11:02:36Z</time>
      </trkpt>
      <trkpt lat="42.65004" lon="-0.79221">
        <time>2022-07-30T11:02:37Z</time>
      </trkpt>
      <trkpt lat="42.65" lon="-0.79235">
        <time>2022-07-30T11:02:38Z</time>
      </trkpt>
      <trkpt lat="42.64996" lon="-0.79248">
        <time>2022-07-30T11:02:39Z</time>
      </trkpt>
      <trkpt lat="42.64991" lon="-0.79259">
        <time>2022-07-30T11:02:40Z</time>
      </trkpt>
      <trkpt lat="42.64985" lon="-0.7927">
        <time>2022-07-30T11:02:41Z</time>
      </trkpt>
      <trkpt lat="42.64979" lon="-0.79279">
        <time>2022-07-30T11:02:42Z</time>
      </trkpt>
      <trkpt lat="42.64973" lon="-0.7929">
        <time>2022-07-30T11:02:43Z</time>
      </trkpt>
      <trkpt lat="42.64966" lon="-0.793">
        <time>2022-07-30T11:02:44Z</time>
      </trkpt>
      <trkpt lat="42.64958" lon="-0.79311">
        <time>2022-07-30T11:02:45Z</time>
      </trkpt>
      <trkpt lat="42.6495" lon="-0.79322">
        <time>2022-07-30T11:02:46Z</time>
      </trkpt>
      <trkpt lat="42.64938" lon="-0.7933">
        <time>2022-07-30T11:02:47Z</time>
      </trkpt>
      <trkpt lat="42.64928" lon="-0.79337">
        <time>2022-07-30T11:02:48Z</time>
      </trkpt>
      <trkpt lat="42.64916" lon="-0.7934">
        <time>2022-07-30T11:02:49Z</time>
      </trkpt>
      <trkpt lat="42.64905" lon="-0.79345">
        <time>2022-07-30T11:02:50Z</time>
      </trkpt>
      <trkpt lat="42.64895" lon="-0.79351">
        <time>2022-07-30T11:02:51Z</time>
      </trkpt>
      <trkpt lat="42.64886" lon="-0.79361">
        <time>2022-07-30T11:02:52Z</time>
      </trkpt>
      <trkpt lat="42.64877" lon="-0.7937">
        <time>2022-07-30T11:02:53Z</time>
      </trkpt>
      <trkpt lat="42.6487" lon="-0.79383">
        <time>2022-07-30T11:02:54Z</time>
      </trkpt>
      <trkpt lat="42.64863" lon="-0.79395">
        <time>2022-07-30T11:02:55Z</time>
      </trkpt>
      <trkpt lat="42.64858" lon="-0.79408">
        <time>2022-07-30T11:02:56Z</time>
      </trkpt>
      <trkpt lat="42.64854" lon="-0.79422">
        <time>2022-07-30T11:02:57Z</time>
      </trkpt>
      <trkpt lat="42.64852" lon="-0.79436">
        <time>2022-07-30T11:02:58Z</time>
      </trkpt>
      <trkpt lat="42.6485" lon="-0.79449">
        <time>2022-07-30T11:02:59Z</time>
      </trkpt>
      <trkpt lat="42.64849" lon="-0.79463">
        <time>2022-07-30T11:03:00Z</time>
      </trkpt>
      <trkpt lat="42.64847" lon="-0.79477">
        <time>2022-07-30T11:03:01Z</time>
      </trkpt>
      <trkpt lat="42.64845" lon="-0.79491">
        <time>2022-07-30T11:03:02Z</time>
      </trkpt>
      <trkpt lat="42.64842" lon="-0.79505">
        <time>2022-07-30T11:03:03Z</time>
      </trkpt>
      <trkpt lat="42.64839" lon="-0.79519">
        <time>2022-07-30T11:03:04Z</time>
      </trkpt>
      <trkpt lat="42.64835" lon="-0.79532">
        <time>2022-07-30T11:03:05Z</time>
      </trkpt>
      <trkpt lat="42.64832" lon="-0.79545">
        <time>2022-07-30T11:03:06Z</time>
      </trkpt>
      <trkpt lat="42.64829" lon="-0.79557">
        <time>2022-07-30T11:03:07Z</time>
      </trkpt>
      <trkpt lat="42.64814" lon="-0.79607">
        <time>2022-07-30T11:03:10Z</time>
      </trkpt>
      <trkpt lat="42.64809" lon="-0.79621">
        <time>2022-07-30T11:03:11Z</time>
      </trkpt>
      <trkpt lat="42.64804" lon="-0.79636">
        <time>2022-07-30T11:03:12Z</time>
      </trkpt>
      <trkpt lat="42.648" lon="-0.79651">
        <time>2022-07-30T11:03:13Z</time>
      </trkpt>
      <trkpt lat="42.64796" lon="-0.79665">
        <time>2022-07-30T11:03:14Z</time>
      </trkpt>
      <trkpt lat="42.64794" lon="-0.7968">
        <time>2022-07-30T11:03:15Z</time>
      </trkpt>
      <trkpt lat="42.64792" lon="-0.79695">
        <time>2022-07-30T11:03:16Z</time>
      </trkpt>
      <trkpt lat="42.64789" lon="-0.79711">
        <time>2022-07-30T11:03:17Z</time>
      </trkpt>
      <trkpt lat="42.64785" lon="-0.79725">
        <time>2022-07-30T11:03:18Z</time>
      </trkpt>
      <trkpt lat="42.64781" lon="-0.7974">
        <time>2022-07-30T11:03:19Z</time>
      </trkpt>
      <trkpt lat="42.64778" lon="-0.79753">
        <time>2022-07-30T11:03:20Z</time>
      </trkpt>
      <trkpt lat="42.64776" lon="-0.79766">
        <time>2022-07-30T11:03:21Z</time>
      </trkpt>
      <trkpt lat="42.64773" lon="-0.79779">
        <time>2022-07-30T11:03:22Z</time>
      </trkpt>
      <trkpt lat="42.64768" lon="-0.79791">
        <time>2022-07-30T11:03:23Z</time>
      </trkpt>
      <trkpt lat="42.64761" lon="-0.79803">
        <time>2022-07-30T11:03:24Z</time>
      </trkpt>
      <trkpt lat="42.64753" lon="-0.79814">
        <time>2022-07-30T11:03:25Z</time>
      </trkpt>
      <trkpt lat="42.64746" lon="-0.79824">
        <time>2022-07-30T11:03:26Z</time>
      </trkpt>
      <trkpt lat="42.64737" lon="-0.79833">
        <time>2022-07-30T11:03:27Z</time>
      </trkpt>
      <trkpt lat="42.64725" lon="-0.79839">
        <time>2022-07-30T11:03:28Z</time>
      </trkpt>
      <trkpt lat="42.64715" lon="-0.79846">
        <time>2022-07-30T11:03:29Z</time>
      </trkpt>
      <trkpt lat="42.64703" lon="-0.79848">
        <time>2022-07-30T11:03:30Z</time>
      </trkpt>
      <trkpt lat="42.64691" lon="-0.79849">
        <time>2022-07-30T11:03:31Z</time>
      </trkpt>
      <trkpt lat="42.64678" lon="-0.79849">
        <time>2022-07-30T11:03:32Z</time>
      </trkpt>
      <trkpt lat="42.64665" lon="-0.7985">
        <time>2022-07-30T11:03:33Z</time>
      </trkpt>
      <trkpt lat="42.64653" lon="-0.79849">
        <time>2022-07-30T11:03:34Z</time>
      </trkpt>
      <trkpt lat="42.64641" lon="-0.79849">
        <time>2022-07-30T11:03:35Z</time>
      </trkpt>
      <trkpt lat="42.64628" lon="-0.79846">
        <time>2022-07-30T11:03:36Z</time>
      </trkpt>
      <trkpt lat="42.64615" lon="-0.79842">
        <time>2022-07-30T11:03:37Z</time>
      </trkpt>
      <trkpt lat="42.64603" lon="-0.79837">
        <time>2022-07-30T11:03:38Z</time>
      </trkpt>
      <trkpt lat="42.6459" lon="-0.79834">
        <time>2022-07-30T11:03:39Z</time>
      </trkpt>
      <trkpt lat="42.64577" lon="-0.79832">
        <time>2022-07-30T11:03:40Z</time>
      </trkpt>
      <trkpt lat="42.64564" lon="-0.79831">
        <time>2022-07-30T11:03:41Z</time>
      </trkpt>
      <trkpt lat="42.6455" lon="-0.79831">
        <time>2022-07-30T11:03:42Z</time>
      </trkpt>
      <trkpt lat="42.64537" lon="-0.79832">
        <time>2022-07-30T11:03:43Z</time>
      </trkpt>
      <trkpt lat="42.64523" lon="-0.79832">
        <time>2022-07-30T11:03:44Z</time>
      </trkpt>
      <trkpt lat="42.64509" lon="-0.79832">
        <time>2022-07-30T11:03:45Z</time>
      </trkpt>
      <trkpt lat="42.64496" lon="-0.79832">
        <time>2022-07-30T11:03:46Z</time>
      </trkpt>
      <trkpt lat="42.64485" lon="-0.79831">
        <time>2022-07-30T11:03:47Z</time>
      </trkpt>
      <trkpt lat="42.64475" lon="-0.7983">
        <time>2022-07-30T11:03:48Z</time>
      </trkpt>
      <trkpt lat="42.64465" lon="-0.79831">
        <time>2022-07-30T11:03:49Z</time>
      </trkpt>
      <trkpt lat="42.64456" lon="-0.79835">
        <time>2022-07-30T11:03:50Z</time>
      </trkpt>
      <trkpt lat="42.64446" lon="-0.7984">
        <time>2022-07-30T11:03:51Z</time>
      </trkpt>
      <trkpt lat="42.64436" lon="-0.79846">
        <time>2022-07-30T11:03:52Z</time>
      </trkpt>
      <trkpt lat="42.64427" lon="-0.79856">
        <time>2022-07-30T11:03:53Z</time>
      </trkpt>
      <trkpt lat="42.6442" lon="-0.79868">
        <time>2022-07-30T11:03:54Z</time>
      </trkpt>
      <trkpt lat="42.64413" lon="-0.7988">
        <time>2022-07-30T11:03:55Z</time>
      </trkpt>
      <trkpt lat="42.64403" lon="-0.79889">
        <time>2022-07-30T11:03:56Z</time>
      </trkpt>
      <trkpt lat="42.64392" lon="-0.79895">
        <time>2022-07-30T11:03:57Z</time>
      </trkpt>
      <trkpt lat="42.64382" lon="-0.79904">
        <time>2022-07-30T11:03:58Z</time>
      </trkpt>
      <trkpt lat="42.64373" lon="-0.79913">
        <time>2022-07-30T11:03:59Z</time>
      </trkpt>
      <trkpt lat="42.64366" lon="-0.79926">
        <time>2022-07-30T11:04:00Z</time>
      </trkpt>
      <trkpt lat="42.64357" lon="-0.79939">
        <time>2022-07-30T11:04:01Z</time>
      </trkpt>
      <trkpt lat="42.64349" lon="-0.79953">
        <time>2022-07-30T11:04:02Z</time>
      </trkpt>
      <trkpt lat="42.6434" lon="-0.79967">
        <time>2022-07-30T11:04:03Z</time>
      </trkpt>
      <trkpt lat="42.64332" lon="-0.79981">
        <time>2022-07-30T11:04:04Z</time>
      </trkpt>
      <trkpt lat="42.64322" lon="-0.79995">
        <time>2022-07-30T11:04:05Z</time>
      </trkpt>
      <trkpt lat="42.64312" lon="-0.80009">
        <time>2022-07-30T11:04:06Z</time>
      </trkpt>
      <trkpt lat="42.64302" lon="-0.80022">
        <time>2022-07-30T11:04:07Z</time>
      </trkpt>
      <trkpt lat="42.6429" lon="-0.80034">
        <time>2022-07-30T11:04:08Z</time>
      </trkpt>
      <trkpt lat="42.64278" lon="-0.80047">
        <time>2022-07-30T11:04:09Z</time>
      </trkpt>
      <trkpt lat="42.64268" lon="-0.80062">
        <time>2022-07-30T11:04:10Z</time>
      </trkpt>
      <trkpt lat="42.64258" lon="-0.80076">
        <time>2022-07-30T11:04:11Z</time>
      </trkpt>
      <trkpt lat="42.64248" lon="-0.8009">
        <time>2022-07-30T11:04:12Z</time>
      </trkpt>
      <trkpt lat="42.64238" lon="-0.80105">
        <time>2022-07-30T11:04:13Z</time>
      </trkpt>
      <trkpt lat="42.64228" lon="-0.80119">
        <time>2022-07-30T11:04:14Z</time>
      </trkpt>
      <trkpt lat="42.64219" lon="-0.80135">
        <time>2022-07-30T11:04:15Z</time>
      </trkpt>
      <trkpt lat="42.64211" lon="-0.80151">
        <time>2022-07-30T11:04:16Z</time>
      </trkpt>
      <trkpt lat="42.64203" lon="-0.80167">
        <time>2022-07-30T11:04:17Z</time>
      </trkpt>
      <trkpt lat="42.64196" lon="-0.80184">
        <time>2022-07-30T11:04:18Z</time>
      </trkpt>
      <trkpt lat="42.64188" lon="-0.80198">
        <time>2022-07-30T11:04:19Z</time>
      </trkpt>
      <trkpt lat="42.64179" lon="-0.80211">
        <time>2022-07-30T11:04:20Z</time>
      </trkpt>
      <trkpt lat="42.6417" lon="-0.80223">
        <time>2022-07-30T11:04:21Z</time>
      </trkpt>
      <trkpt lat="42.64162" lon="-0.80233">
        <time>2022-07-30T11:04:22Z</time>
      </trkpt>
      <trkpt lat="42.64154" lon="-0.80242">
        <time>2022-07-30T11:04:23Z</time>
      </trkpt>
      <trkpt lat="42.64147" lon="-0.80249">
        <time>2022-07-30T11:04:24Z</time>
      </trkpt>
      <trkpt lat="42.64141" lon="-0.80255">
        <time>2022-07-30T11:04:25Z</time>
      </trkpt>
      <trkpt lat="42.64137" lon="-0.80261">
        <time>2022-07-30T11:04:26Z</time>
      </trkpt>
      <trkpt lat="42.64133" lon="-0.80265">
        <time>2022-07-30T11:04:27Z</time>
      </trkpt>
      <trkpt lat="42.6413" lon="-0.8027">
        <time>2022-07-30T11:04:28Z</time>
      </trkpt>
      <trkpt lat="42.64127" lon="-0.80274">
        <time>2022-07-30T11:04:29Z</time>
      </trkpt>
      <trkpt lat="42.64125" lon="-0.80277">
        <time>2022-07-30T11:04:30Z</time>
      </trkpt>
      <trkpt lat="42.64123" lon="-0.80281">
        <time>2022-07-30T11:04:31Z</time>
      </trkpt>
      <trkpt lat="42.6412" lon="-0.80284">
        <time>2022-07-30T11:04:32Z</time>
      </trkpt>
      <trkpt lat="42.64118" lon="-0.80285">
        <time>2022-07-30T11:04:33Z</time>
      </trkpt>
      <trkpt lat="42.64117" lon="-0.80286">
        <time>2022-07-30T11:04:34Z</time>
      </trkpt>
      <trkpt lat="42.64116" lon="-0.80287">
        <time>2022-07-30T11:04:35Z</time>
      </trkpt>
      <trkpt lat="42.64115" lon="-0.80296">
        <time>2022-07-30T11:14:31Z</time>
      </trkpt>
      <trkpt lat="42.64113" lon="-0.80298">
        <time>2022-07-30T11:14:32Z</time>
      </trkpt>
      <trkpt lat="42.64108" lon="-0.80301">
        <time>2022-07-30T11:14:33Z</time>
      </trkpt>
      <trkpt lat="42.64103" lon="-0.80306">
        <time>2022-07-30T11:14:34Z</time>
      </trkpt>
      <trkpt lat="42.64099" lon="-0.80315">
        <time>2022-07-30T11:14:35Z</time>
      </trkpt>
      <trkpt lat="42.64095" lon="-0.80327">
        <time>2022-07-30T11:14:36Z</time>
      </trkpt>
      <trkpt lat="42.6409" lon="-0.80338">
        <time>2022-07-30T11:14:37Z</time>
      </trkpt>
      <trkpt lat="42.64086" lon="-0.80351">
        <time>2022-07-30T11:14:38Z</time>
      </trkpt>
      <trkpt lat="42.64081" lon="-0.80364">
        <time>2022-07-30T11:14:39Z</time>
      </trkpt>
      <trkpt lat="42.64074" lon="-0.80376">
        <time>2022-07-30T11:14:40Z</time>
      </trkpt>
      <trkpt lat="42.64067" lon="-0.80387">
        <time>2022-07-30T11:14:41Z</time>
      </trkpt>
      <trkpt lat="42.64058" lon="-0.80398">
        <time>2022-07-30T11:14:42Z</time>
      </trkpt>
      <trkpt lat="42.64048" lon="-0.80407">
        <time>2022-07-30T11:14:43Z</time>
      </trkpt>
      <trkpt lat="42.6404" lon="-0.80416">
        <time>2022-07-30T11:14:44Z</time>
      </trkpt>
      <trkpt lat="42.64031" lon="-0.80425">
        <time>2022-07-30T11:14:45Z</time>
      </trkpt>
      <trkpt lat="42.64022" lon="-0.80434">
        <time>2022-07-30T11:14:46Z</time>
      </trkpt>
      <trkpt lat="42.64014" lon="-0.80443">
        <time>2022-07-30T11:14:47Z</time>
      </trkpt>
      <trkpt lat="42.64005" lon="-0.80452">
        <time>2022-07-30T11:14:48Z</time>
      </trkpt>
      <trkpt lat="42.63997" lon="-0.80461">
        <time>2022-07-30T11:14:49Z</time>
      </trkpt>
      <trkpt lat="42.63989" lon="-0.8047">
        <time>2022-07-30T11:14:50Z</time>
      </trkpt>
      <trkpt lat="42.63981" lon="-0.80479">
        <time>2022-07-30T11:14:51Z</time>
      </trkpt>
      <trkpt lat="42.63973" lon="-0.80489">
        <time>2022-07-30T11:14:52Z</time>
      </trkpt>
      <trkpt lat="42.63966" lon="-0.80501">
        <time>2022-07-30T11:14:53Z</time>
      </trkpt>
      <trkpt lat="42.63959" lon="-0.80514">
        <time>2022-07-30T11:14:54Z</time>
      </trkpt>
      <trkpt lat="42.63952" lon="-0.80528">
        <time>2022-07-30T11:14:55Z</time>
      </trkpt>
      <trkpt lat="42.63945" lon="-0.80543">
        <time>2022-07-30T11:14:56Z</time>
      </trkpt>
      <trkpt lat="42.63939" lon="-0.80558">
        <time>2022-07-30T11:14:57Z</time>
      </trkpt>
      <trkpt lat="42.63932" lon="-0.80572">
        <time>2022-07-30T11:14:58Z</time>
      </trkpt>
      <trkpt lat="42.63925" lon="-0.80586">
        <time>2022-07-30T11:14:59Z</time>
      </trkpt>
      <trkpt lat="42.63919" lon="-0.80599">
        <time>2022-07-30T11:15:00Z</time>
      </trkpt>
      <trkpt lat="42.63913" lon="-0.80613">
        <time>2022-07-30T11:15:01Z</time>
      </trkpt>
      <trkpt lat="42.63906" lon="-0.80626">
        <time>2022-07-30T11:15:02Z</time>
      </trkpt>
      <trkpt lat="42.63899" lon="-0.80637">
        <time>2022-07-30T11:15:03Z</time>
      </trkpt>
      <trkpt lat="42.6389" lon="-0.80646">
        <time>2022-07-30T11:15:04Z</time>
      </trkpt>
      <trkpt lat="42.63881" lon="-0.80654">
        <time>2022-07-30T11:15:05Z</time>
      </trkpt>
      <trkpt lat="42.6387" lon="-0.80661">
        <time>2022-07-30T11:15:06Z</time>
      </trkpt>
      <trkpt lat="42.6386" lon="-0.8067">
        <time>2022-07-30T11:15:07Z</time>
      </trkpt>
      <trkpt lat="42.63849" lon="-0.80678">
        <time>2022-07-30T11:15:08Z</time>
      </trkpt>
      <trkpt lat="42.63837" lon="-0.80685">
        <time>2022-07-30T11:15:09Z</time>
      </trkpt>
      <trkpt lat="42.63824" lon="-0.8069">
        <time>2022-07-30T11:15:10Z</time>
      </trkpt>
      <trkpt lat="42.6381" lon="-0.80695">
        <time>2022-07-30T11:15:11Z</time>
      </trkpt>
      <trkpt lat="42.63796" lon="-0.80697">
        <time>2022-07-30T11:15:12Z</time>
      </trkpt>
      <trkpt lat="42.63782" lon="-0.80699">
        <time>2022-07-30T11:15:13Z</time>
      </trkpt>
      <trkpt lat="42.63768" lon="-0.80701">
        <time>2022-07-30T11:15:14Z</time>
      </trkpt>
      <trkpt lat="42.63754" lon="-0.80703">
        <time>2022-07-30T11:15:15Z</time>
      </trkpt>
      <trkpt lat="42.6374" lon="-0.80705">
        <time>2022-07-30T11:15:16Z</time>
      </trkpt>
      <trkpt lat="42.63726" lon="-0.80709">
        <time>2022-07-30T11:15:17Z</time>
      </trkpt>
      <trkpt lat="42.63712" lon="-0.80713">
        <time>2022-07-30T11:15:18Z</time>
      </trkpt>
      <trkpt lat="42.63699" lon="-0.80719">
        <time>2022-07-30T11:15:19Z</time>
      </trkpt>
      <trkpt lat="42.63686" lon="-0.80727">
        <time>2022-07-30T11:15:20Z</time>
      </trkpt>
      <trkpt lat="42.63673" lon="-0.80734">
        <time>2022-07-30T11:15:21Z</time>
      </trkpt>
      <trkpt lat="42.63659" lon="-0.8074">
        <time>2022-07-30T11:15:22Z</time>
      </trkpt>
      <trkpt lat="42.63646" lon="-0.80745">
        <time>2022-07-30T11:15:23Z</time>
      </trkpt>
      <trkpt lat="42.63632" lon="-0.80748">
        <time>2022-07-30T11:15:24Z</time>
      </trkpt>
      <trkpt lat="42.63617" lon="-0.8075">
        <time>2022-07-30T11:15:25Z</time>
      </trkpt>
      <trkpt lat="42.63603" lon="-0.80751">
        <time>2022-07-30T11:15:26Z</time>
      </trkpt>
      <trkpt lat="42.63589" lon="-0.80755">
        <time>2022-07-30T11:15:27Z</time>
      </trkpt>
      <trkpt lat="42.63575" lon="-0.80761">
        <time>2022-07-30T11:15:28Z</time>
      </trkpt>
      <trkpt lat="42.63561" lon="-0.80768">
        <time>2022-07-30T11:15:29Z</time>
      </trkpt>
      <trkpt lat="42.63547" lon="-0.80775">
        <time>2022-07-30T11:15:30Z</time>
      </trkpt>
      <trkpt lat="42.63533" lon="-0.80783">
        <time>2022-07-30T11:15:31Z</time>
      </trkpt>
      <trkpt lat="42.6352" lon="-0.80791">
        <time>2022-07-30T11:15:32Z</time>
      </trkpt>
      <trkpt lat="42.63508" lon="-0.80798">
        <time>2022-07-30T11:15:33Z</time>
      </trkpt>
      <trkpt lat="42.63496" lon="-0.80804">
        <time>2022-07-30T11:15:34Z</time>
      </trkpt>
      <trkpt lat="42.63487" lon="-0.80813">
        <time>2022-07-30T11:15:35Z</time>
      </trkpt>
      <trkpt lat="42.6348" lon="-0.80823">
        <time>2022-07-30T11:15:36Z</time>
      </trkpt>
      <trkpt lat="42.63474" lon="-0.80834">
        <time>2022-07-30T11:15:37Z</time>
      </trkpt>
      <trkpt lat="42.63471" lon="-0.80848">
        <time>2022-07-30T11:15:38Z</time>
      </trkpt>
      <trkpt lat="42.63469" lon="-0.80863">
        <time>2022-07-30T11:15:39Z</time>
      </trkpt>
      <trkpt lat="42.63468" lon="-0.8088">
        <time>2022-07-30T11:15:40Z</time>
      </trkpt>
      <trkpt lat="42.63466" lon="-0.80899">
        <time>2022-07-30T11:15:41Z</time>
      </trkpt>
      <trkpt lat="42.63464" lon="-0.80918">
        <time>2022-07-30T11:15:42Z</time>
      </trkpt>
      <trkpt lat="42.63461" lon="-0.80938">
        <time>2022-07-30T11:15:43Z</time>
      </trkpt>
      <trkpt lat="42.63457" lon="-0.80957">
        <time>2022-07-30T11:15:44Z</time>
      </trkpt>
      <trkpt lat="42.63453" lon="-0.80976">
        <time>2022-07-30T11:15:45Z</time>
      </trkpt>
      <trkpt lat="42.63449" lon="-0.80995">
        <time>2022-07-30T11:15:46Z</time>
      </trkpt>
      <trkpt lat="42.63444" lon="-0.81012">
        <time>2022-07-30T11:15:47Z</time>
      </trkpt>
      <trkpt lat="42.63438" lon="-0.81029">
        <time>2022-07-30T11:15:48Z</time>
      </trkpt>
      <trkpt lat="42.6343" lon="-0.81044">
        <time>2022-07-30T11:15:49Z</time>
      </trkpt>
      <trkpt lat="42.63421" lon="-0.81059">
        <time>2022-07-30T11:15:50Z</time>
      </trkpt>
      <trkpt lat="42.63411" lon="-0.81073">
        <time>2022-07-30T11:15:51Z</time>
      </trkpt>
      <trkpt lat="42.63399" lon="-0.81086">
        <time>2022-07-30T11:15:52Z</time>
      </trkpt>
      <trkpt lat="42.63387" lon="-0.81097">
        <time>2022-07-30T11:15:53Z</time>
      </trkpt>
      <trkpt lat="42.63372" lon="-0.81106">
        <time>2022-07-30T11:15:54Z</time>
      </trkpt>
      <trkpt lat="42.63358" lon="-0.81116">
        <time>2022-07-30T11:15:55Z</time>
      </trkpt>
      <trkpt lat="42.63344" lon="-0.81127">
        <time>2022-07-30T11:15:56Z</time>
      </trkpt>
      <trkpt lat="42.63331" lon="-0.81135">
        <time>2022-07-30T11:15:57Z</time>
      </trkpt>
      <trkpt lat="42.63317" lon="-0.81143">
        <time>2022-07-30T11:15:58Z</time>
      </trkpt>
      <trkpt lat="42.63303" lon="-0.81146">
        <time>2022-07-30T11:15:59Z</time>
      </trkpt>
      <trkpt lat="42.6329" lon="-0.81149">
        <time>2022-07-30T11:16:00Z</time>
      </trkpt>
      <trkpt lat="42.63278" lon="-0.81151">
        <time>2022-07-30T11:16:01Z</time>
      </trkpt>
      <trkpt lat="42.63268" lon="-0.81153">
        <time>2022-07-30T11:16:02Z</time>
      </trkpt>
      <trkpt lat="42.6326" lon="-0.81156">
        <time>2022-07-30T11:16:03Z</time>
      </trkpt>
      <trkpt lat="42.63252" lon="-0.81163">
        <time>2022-07-30T11:16:04Z</time>
      </trkpt>
      <trkpt lat="42.63246" lon="-0.81175">
        <time>2022-07-30T11:16:05Z</time>
      </trkpt>
      <trkpt lat="42.63241" lon="-0.81189">
        <time>2022-07-30T11:16:06Z</time>
      </trkpt>
      <trkpt lat="42.63234" lon="-0.81206">
        <time>2022-07-30T11:16:07Z</time>
      </trkpt>
      <trkpt lat="42.63228" lon="-0.81223">
        <time>2022-07-30T11:16:08Z</time>
      </trkpt>
      <trkpt lat="42.63221" lon="-0.81241">
        <time>2022-07-30T11:16:09Z</time>
      </trkpt>
      <trkpt lat="42.63214" lon="-0.81259">
        <time>2022-07-30T11:16:10Z</time>
      </trkpt>
      <trkpt lat="42.63206" lon="-0.81276">
        <time>2022-07-30T11:16:11Z</time>
      </trkpt>
      <trkpt lat="42.63198" lon="-0.81293">
        <time>2022-07-30T11:16:12Z</time>
      </trkpt>
      <trkpt lat="42.63188" lon="-0.81309">
        <time>2022-07-30T11:16:13Z</time>
      </trkpt>
      <trkpt lat="42.63177" lon="-0.81323">
        <time>2022-07-30T11:16:14Z</time>
      </trkpt>
      <trkpt lat="42.63165" lon="-0.81336">
        <time>2022-07-30T11:16:15Z</time>
      </trkpt>
      <trkpt lat="42.63152" lon="-0.81348">
        <time>2022-07-30T11:16:16Z</time>
      </trkpt>
      <trkpt lat="42.63139" lon="-0.8136">
        <time>2022-07-30T11:16:17Z</time>
      </trkpt>
      <trkpt lat="42.63126" lon="-0.8137">
        <time>2022-07-30T11:16:18Z</time>
      </trkpt>
      <trkpt lat="42.63112" lon="-0.81379">
        <time>2022-07-30T11:16:19Z</time>
      </trkpt>
      <trkpt lat="42.63099" lon="-0.81388">
        <time>2022-07-30T11:16:20Z</time>
      </trkpt>
      <trkpt lat="42.63087" lon="-0.81396">
        <time>2022-07-30T11:16:21Z</time>
      </trkpt>
      <trkpt lat="42.63076" lon="-0.81406">
        <time>2022-07-30T11:16:22Z</time>
      </trkpt>
      <trkpt lat="42.63066" lon="-0.81418">
        <time>2022-07-30T11:16:23Z</time>
      </trkpt>
      <trkpt lat="42.63057" lon="-0.81432">
        <time>2022-07-30T11:16:24Z</time>
      </trkpt>
      <trkpt lat="42.63048" lon="-0.81445">
        <time>2022-07-30T11:16:25Z</time>
      </trkpt>
      <trkpt lat="42.63037" lon="-0.81456">
        <time>2022-07-30T11:16:26Z</time>
      </trkpt>
      <trkpt lat="42.63024" lon="-0.81465">
        <time>2022-07-30T11:16:27Z</time>
      </trkpt>
      <trkpt lat="42.63011" lon="-0.81471">
        <time>2022-07-30T11:16:28Z</time>
      </trkpt>
      <trkpt lat="42.62998" lon="-0.81474">
        <time>2022-07-30T11:16:29Z</time>
      </trkpt>
      <trkpt lat="42.62986" lon="-0.81477">
        <time>2022-07-30T11:16:30Z</time>
      </trkpt>
      <trkpt lat="42.62976" lon="-0.81477">
        <time>2022-07-30T11:16:31Z</time>
      </trkpt>
      <trkpt lat="42.62967" lon="-0.81478">
        <time>2022-07-30T11:16:32Z</time>
      </trkpt>
      <trkpt lat="42.62959" lon="-0.8148">
        <time>2022-07-30T11:16:33Z</time>
      </trkpt>
      <trkpt lat="42.62952" lon="-0.81486">
        <time>2022-07-30T11:16:34Z</time>
      </trkpt>
      <trkpt lat="42.62948" lon="-0.81496">
        <time>2022-07-30T11:16:35Z</time>
      </trkpt>
      <trkpt lat="42.62945" lon="-0.81509">
        <time>2022-07-30T11:16:36Z</time>
      </trkpt>
      <trkpt lat="42.62943" lon="-0.81523">
        <time>2022-07-30T11:16:37Z</time>
      </trkpt>
      <trkpt lat="42.62939" lon="-0.81539">
        <time>2022-07-30T11:16:38Z</time>
      </trkpt>
      <trkpt lat="42.62932" lon="-0.81554">
        <time>2022-07-30T11:16:39Z</time>
      </trkpt>
      <trkpt lat="42.62926" lon="-0.8157">
        <time>2022-07-30T11:16:40Z</time>
      </trkpt>
      <trkpt lat="42.62919" lon="-0.81586">
        <time>2022-07-30T11:16:41Z</time>
      </trkpt>
      <trkpt lat="42.62912" lon="-0.81603">
        <time>2022-07-30T11:16:42Z</time>
      </trkpt>
      <trkpt lat="42.62904" lon="-0.8162">
        <time>2022-07-30T11:16:43Z</time>
      </trkpt>
      <trkpt lat="42.62896" lon="-0.81638">
        <time>2022-07-30T11:16:44Z</time>
      </trkpt>
      <trkpt lat="42.62889" lon="-0.81656">
        <time>2022-07-30T11:16:45Z</time>
      </trkpt>
      <trkpt lat="42.62882" lon="-0.81674">
        <time>2022-07-30T11:16:46Z</time>
      </trkpt>
      <trkpt lat="42.62874" lon="-0.81692">
        <time>2022-07-30T11:16:47Z</time>
      </trkpt>
      <trkpt lat="42.62867" lon="-0.8171">
        <time>2022-07-30T11:16:48Z</time>
      </trkpt>
      <trkpt lat="42.6286" lon="-0.81728">
        <time>2022-07-30T11:16:49Z</time>
      </trkpt>
      <trkpt lat="42.62852" lon="-0.81746">
        <time>2022-07-30T11:16:50Z</time>
      </trkpt>
      <trkpt lat="42.62845" lon="-0.81763">
        <time>2022-07-30T11:16:51Z</time>
      </trkpt>
      <trkpt lat="42.62836" lon="-0.81777">
        <time>2022-07-30T11:16:52Z</time>
      </trkpt>
      <trkpt lat="42.62827" lon="-0.81788">
        <time>2022-07-30T11:16:53Z</time>
      </trkpt>
      <trkpt lat="42.62817" lon="-0.81798">
        <time>2022-07-30T11:16:54Z</time>
      </trkpt>
      <trkpt lat="42.62807" lon="-0.8181">
        <time>2022-07-30T11:16:55Z</time>
      </trkpt>
      <trkpt lat="42.62799" lon="-0.81825">
        <time>2022-07-30T11:16:56Z</time>
      </trkpt>
      <trkpt lat="42.62791" lon="-0.81843">
        <time>2022-07-30T11:16:57Z</time>
      </trkpt>
      <trkpt lat="42.62784" lon="-0.81861">
        <time>2022-07-30T11:16:58Z</time>
      </trkpt>
      <trkpt lat="42.62776" lon="-0.81877">
        <time>2022-07-30T11:16:59Z</time>
      </trkpt>
      <trkpt lat="42.62767" lon="-0.81892">
        <time>2022-07-30T11:17:00Z</time>
      </trkpt>
      <trkpt lat="42.62758" lon="-0.81906">
        <time>2022-07-30T11:17:01Z</time>
      </trkpt>
      <trkpt lat="42.62748" lon="-0.8192">
        <time>2022-07-30T11:17:02Z</time>
      </trkpt>
      <trkpt lat="42.62738" lon="-0.81934">
        <time>2022-07-30T11:17:03Z</time>
      </trkpt>
      <trkpt lat="42.62728" lon="-0.81948">
        <time>2022-07-30T11:17:04Z</time>
      </trkpt>
      <trkpt lat="42.62717" lon="-0.81962">
        <time>2022-07-30T11:17:05Z</time>
      </trkpt>
      <trkpt lat="42.62706" lon="-0.81975">
        <time>2022-07-30T11:17:06Z</time>
      </trkpt>
      <trkpt lat="42.62695" lon="-0.81989">
        <time>2022-07-30T11:17:07Z</time>
      </trkpt>
      <trkpt lat="42.62683" lon="-0.82003">
        <time>2022-07-30T11:17:08Z</time>
      </trkpt>
      <trkpt lat="42.62672" lon="-0.82015">
        <time>2022-07-30T11:17:09Z</time>
      </trkpt>
      <trkpt lat="42.62661" lon="-0.82027">
        <time>2022-07-30T11:17:10Z</time>
      </trkpt>
      <trkpt lat="42.62651" lon="-0.82038">
        <time>2022-07-30T11:17:11Z</time>
      </trkpt>
      <trkpt lat="42.6264" lon="-0.82047">
        <time>2022-07-30T11:17:12Z</time>
      </trkpt>
      <trkpt lat="42.62631" lon="-0.82055">
        <time>2022-07-30T11:17:13Z</time>
      </trkpt>
      <trkpt lat="42.62622" lon="-0.82059">
        <time>2022-07-30T11:17:14Z</time>
      </trkpt>
      <trkpt lat="42.62613" lon="-0.82061">
        <time>2022-07-30T11:17:15Z</time>
      </trkpt>
      <trkpt lat="42.62606" lon="-0.82058">
        <time>2022-07-30T11:17:16Z</time>
      </trkpt>
      <trkpt lat="42.62599" lon="-0.82052">
        <time>2022-07-30T11:17:17Z</time>
      </trkpt>
      <trkpt lat="42.62593" lon="-0.82043">
        <time>2022-07-30T11:17:18Z</time>
      </trkpt>
      <trkpt lat="42.62587" lon="-0.82032">
        <time>2022-07-30T11:17:19Z</time>
      </trkpt>
      <trkpt lat="42.6258" lon="-0.8202">
        <time>2022-07-30T11:17:20Z</time>
      </trkpt>
      <trkpt lat="42.62572" lon="-0.82007">
        <time>2022-07-30T11:17:21Z</time>
      </trkpt>
      <trkpt lat="42.62564" lon="-0.81994">
        <time>2022-07-30T11:17:22Z</time>
      </trkpt>
      <trkpt lat="42.62555" lon="-0.81979">
        <time>2022-07-30T11:17:23Z</time>
      </trkpt>
      <trkpt lat="42.62546" lon="-0.81964">
        <time>2022-07-30T11:17:24Z</time>
      </trkpt>
      <trkpt lat="42.62537" lon="-0.8195">
        <time>2022-07-30T11:17:25Z</time>
      </trkpt>
      <trkpt lat="42.62529" lon="-0.81936">
        <time>2022-07-30T11:17:26Z</time>
      </trkpt>
      <trkpt lat="42.6252" lon="-0.81921">
        <time>2022-07-30T11:17:27Z</time>
      </trkpt>
      <trkpt lat="42.62511" lon="-0.81907">
        <time>2022-07-30T11:17:28Z</time>
      </trkpt>
      <trkpt lat="42.62502" lon="-0.81895">
        <time>2022-07-30T11:17:29Z</time>
      </trkpt>
      <trkpt lat="42.62494" lon="-0.81879">
        <time>2022-07-30T11:17:30Z</time>
      </trkpt>
      <trkpt lat="42.62486" lon="-0.81865">
        <time>2022-07-30T11:17:31Z</time>
      </trkpt>
      <trkpt lat="42.62479" lon="-0.81854">
        <time>2022-07-30T11:17:32Z</time>
      </trkpt>
      <trkpt lat="42.62472" lon="-0.81843">
        <time>2022-07-30T11:17:33Z</time>
      </trkpt>
      <trkpt lat="42.62465" lon="-0.81833">
        <time>2022-07-30T11:17:34Z</time>
      </trkpt>
      <trkpt lat="42.62458" lon="-0.81825">
        <time>2022-07-30T11:17:35Z</time>
      </trkpt>
      <trkpt lat="42.62449" lon="-0.81818">
        <time>2022-07-30T11:17:36Z</time>
      </trkpt>
      <trkpt lat="42.6244" lon="-0.81814">
        <time>2022-07-30T11:17:37Z</time>
      </trkpt>
      <trkpt lat="42.62429" lon="-0.81811">
        <time>2022-07-30T11:17:38Z</time>
      </trkpt>
      <trkpt lat="42.62418" lon="-0.81811">
        <time>2022-07-30T11:17:39Z</time>
      </trkpt>
      <trkpt lat="42.62408" lon="-0.81814">
        <time>2022-07-30T11:17:40Z</time>
      </trkpt>
      <trkpt lat="42.624" lon="-0.81821">
        <time>2022-07-30T11:17:41Z</time>
      </trkpt>
      <trkpt lat="42.62394" lon="-0.81831">
        <time>2022-07-30T11:17:42Z</time>
      </trkpt>
      <trkpt lat="42.62388" lon="-0.81844">
        <time>2022-07-30T11:17:43Z</time>
      </trkpt>
      <trkpt lat="42.62384" lon="-0.81859">
        <time>2022-07-30T11:17:44Z</time>
      </trkpt>
      <trkpt lat="42.62379" lon="-0.81874">
        <time>2022-07-30T11:17:45Z</time>
      </trkpt>
      <trkpt lat="42.62374" lon="-0.81889">
        <time>2022-07-30T11:17:46Z</time>
      </trkpt>
      <trkpt lat="42.6237" lon="-0.81902">
        <time>2022-07-30T11:17:47Z</time>
      </trkpt>
      <trkpt lat="42.62365" lon="-0.81914">
        <time>2022-07-30T11:17:48Z</time>
      </trkpt>
      <trkpt lat="42.62358" lon="-0.81923">
        <time>2022-07-30T11:17:49Z</time>
      </trkpt>
      <trkpt lat="42.62348" lon="-0.81932">
        <time>2022-07-30T11:17:50Z</time>
      </trkpt>
      <trkpt lat="42.62337" lon="-0.81939">
        <time>2022-07-30T11:17:51Z</time>
      </trkpt>
      <trkpt lat="42.62325" lon="-0.81947">
        <time>2022-07-30T11:17:52Z</time>
      </trkpt>
      <trkpt lat="42.62313" lon="-0.81954">
        <time>2022-07-30T11:17:53Z</time>
      </trkpt>
      <trkpt lat="42.62301" lon="-0.81961">
        <time>2022-07-30T11:17:54Z</time>
      </trkpt>
      <trkpt lat="42.62288" lon="-0.81969">
        <time>2022-07-30T11:17:55Z</time>
      </trkpt>
      <trkpt lat="42.62276" lon="-0.81977">
        <time>2022-07-30T11:17:56Z</time>
      </trkpt>
      <trkpt lat="42.62263" lon="-0.81985">
        <time>2022-07-30T11:17:57Z</time>
      </trkpt>
      <trkpt lat="42.62251" lon="-0.81995">
        <time>2022-07-30T11:17:58Z</time>
      </trkpt>
      <trkpt lat="42.62241" lon="-0.82006">
        <time>2022-07-30T11:17:59Z</time>
      </trkpt>
      <trkpt lat="42.62232" lon="-0.82018">
        <time>2022-07-30T11:18:00Z</time>
      </trkpt>
      <trkpt lat="42.62223" lon="-0.82028">
        <time>2022-07-30T11:18:01Z</time>
      </trkpt>
      <trkpt lat="42.62214" lon="-0.82037">
        <time>2022-07-30T11:18:02Z</time>
      </trkpt>
      <trkpt lat="42.62203" lon="-0.82043">
        <time>2022-07-30T11:18:03Z</time>
      </trkpt>
      <trkpt lat="42.62191" lon="-0.82046">
        <time>2022-07-30T11:18:04Z</time>
      </trkpt>
      <trkpt lat="42.62179" lon="-0.82048">
        <time>2022-07-30T11:18:05Z</time>
      </trkpt>
      <trkpt lat="42.62168" lon="-0.82049">
        <time>2022-07-30T11:18:06Z</time>
      </trkpt>
      <trkpt lat="42.62158" lon="-0.8205">
        <time>2022-07-30T11:18:07Z</time>
      </trkpt>
      <trkpt lat="42.62148" lon="-0.82049">
        <time>2022-07-30T11:18:08Z</time>
      </trkpt>
      <trkpt lat="42.6214" lon="-0.82043">
        <time>2022-07-30T11:18:09Z</time>
      </trkpt>
      <trkpt lat="42.62132" lon="-0.82036">
        <time>2022-07-30T11:18:10Z</time>
      </trkpt>
      <trkpt lat="42.62127" lon="-0.82027">
        <time>2022-07-30T11:18:11Z</time>
      </trkpt>
      <trkpt lat="42.62122" lon="-0.82021">
        <time>2022-07-30T11:18:12Z</time>
      </trkpt>
      <trkpt lat="42.62115" lon="-0.82017">
        <time>2022-07-30T11:18:13Z</time>
      </trkpt>
      <trkpt lat="42.62107" lon="-0.82016">
        <time>2022-07-30T11:18:14Z</time>
      </trkpt>
      <trkpt lat="42.62097" lon="-0.82017">
        <time>2022-07-30T11:18:15Z</time>
      </trkpt>
      <trkpt lat="42.62088" lon="-0.8202">
        <time>2022-07-30T11:18:16Z</time>
      </trkpt>
      <trkpt lat="42.62078" lon="-0.82025">
        <time>2022-07-30T11:18:17Z</time>
      </trkpt>
      <trkpt lat="42.62069" lon="-0.82032">
        <time>2022-07-30T11:18:18Z</time>
      </trkpt>
      <trkpt lat="42.62061" lon="-0.82042">
        <time>2022-07-30T11:18:19Z</time>
      </trkpt>
      <trkpt lat="42.62056" lon="-0.82055">
        <time>2022-07-30T11:18:20Z</time>
      </trkpt>
      <trkpt lat="42.62052" lon="-0.8207">
        <time>2022-07-30T11:18:21Z</time>
      </trkpt>
      <trkpt lat="42.6205" lon="-0.82087">
        <time>2022-07-30T11:18:22Z</time>
      </trkpt>
      <trkpt lat="42.62049" lon="-0.82105">
        <time>2022-07-30T11:18:23Z</time>
      </trkpt>
      <trkpt lat="42.62049" lon="-0.82125">
        <time>2022-07-30T11:18:24Z</time>
      </trkpt>
      <trkpt lat="42.6205" lon="-0.82143">
        <time>2022-07-30T11:18:25Z</time>
      </trkpt>
      <trkpt lat="42.6205" lon="-0.8216">
        <time>2022-07-30T11:18:26Z</time>
      </trkpt>
      <trkpt lat="42.62049" lon="-0.82178">
        <time>2022-07-30T11:18:27Z</time>
      </trkpt>
      <trkpt lat="42.62047" lon="-0.82195">
        <time>2022-07-30T11:18:28Z</time>
      </trkpt>
      <trkpt lat="42.62043" lon="-0.82211">
        <time>2022-07-30T11:18:29Z</time>
      </trkpt>
      <trkpt lat="42.62036" lon="-0.82227">
        <time>2022-07-30T11:18:30Z</time>
      </trkpt>
      <trkpt lat="42.62028" lon="-0.82242">
        <time>2022-07-30T11:18:31Z</time>
      </trkpt>
      <trkpt lat="42.62019" lon="-0.82258">
        <time>2022-07-30T11:18:32Z</time>
      </trkpt>
      <trkpt lat="42.6201" lon="-0.82273">
        <time>2022-07-30T11:18:33Z</time>
      </trkpt>
      <trkpt lat="42.62001" lon="-0.82288">
        <time>2022-07-30T11:18:34Z</time>
      </trkpt>
      <trkpt lat="42.61992" lon="-0.82302">
        <time>2022-07-30T11:18:35Z</time>
      </trkpt>
      <trkpt lat="42.61984" lon="-0.82317">
        <time>2022-07-30T11:18:36Z</time>
      </trkpt>
      <trkpt lat="42.61977" lon="-0.82332">
        <time>2022-07-30T11:18:37Z</time>
      </trkpt>
      <trkpt lat="42.61971" lon="-0.82347">
        <time>2022-07-30T11:18:38Z</time>
      </trkpt>
      <trkpt lat="42.61964" lon="-0.82362">
        <time>2022-07-30T11:18:39Z</time>
      </trkpt>
      <trkpt lat="42.61956" lon="-0.82377">
        <time>2022-07-30T11:18:40Z</time>
      </trkpt>
      <trkpt lat="42.61947" lon="-0.82391">
        <time>2022-07-30T11:18:41Z</time>
      </trkpt>
      <trkpt lat="42.61936" lon="-0.82404">
        <time>2022-07-30T11:18:42Z</time>
      </trkpt>
      <trkpt lat="42.61926" lon="-0.82417">
        <time>2022-07-30T11:18:43Z</time>
      </trkpt>
      <trkpt lat="42.61916" lon="-0.8243">
        <time>2022-07-30T11:18:44Z</time>
      </trkpt>
      <trkpt lat="42.61908" lon="-0.82443">
        <time>2022-07-30T11:18:45Z</time>
      </trkpt>
      <trkpt lat="42.61901" lon="-0.82458">
        <time>2022-07-30T11:18:46Z</time>
      </trkpt>
      <trkpt lat="42.61895" lon="-0.82472">
        <time>2022-07-30T11:18:47Z</time>
      </trkpt>
      <trkpt lat="42.6189" lon="-0.82485">
        <time>2022-07-30T11:18:48Z</time>
      </trkpt>
      <trkpt lat="42.61885" lon="-0.82496">
        <time>2022-07-30T11:18:49Z</time>
      </trkpt>
      <trkpt lat="42.6188" lon="-0.82506">
        <time>2022-07-30T11:18:50Z</time>
      </trkpt>
      <trkpt lat="42.61875" lon="-0.82516">
        <time>2022-07-30T11:18:51Z</time>
      </trkpt>
      <trkpt lat="42.61869" lon="-0.82525">
        <time>2022-07-30T11:18:52Z</time>
      </trkpt>
      <trkpt lat="42.61863" lon="-0.82533">
        <time>2022-07-30T11:18:53Z</time>
      </trkpt>
      <trkpt lat="42.61857" lon="-0.82538">
        <time>2022-07-30T11:18:54Z</time>
      </trkpt>
      <trkpt lat="42.61851" lon="-0.8254">
        <time>2022-07-30T11:18:55Z</time>
      </trkpt>
      <trkpt lat="42.61846" lon="-0.8254">
        <time>2022-07-30T11:18:56Z</time>
      </trkpt>
      <trkpt lat="42.61843" lon="-0.82537">
        <time>2022-07-30T11:18:57Z</time>
      </trkpt>
      <trkpt lat="42.61841" lon="-0.82532">
        <time>2022-07-30T11:18:58Z</time>
      </trkpt>
      <trkpt lat="42.61842" lon="-0.82527">
        <time>2022-07-30T11:18:59Z</time>
      </trkpt>
      <trkpt lat="42.61846" lon="-0.82519">
        <time>2022-07-30T11:19:00Z</time>
      </trkpt>
      <trkpt lat="42.61851" lon="-0.8251">
        <time>2022-07-30T11:19:01Z</time>
      </trkpt>
      <trkpt lat="42.61856" lon="-0.82501">
        <time>2022-07-30T11:19:02Z</time>
      </trkpt>
      <trkpt lat="42.6186" lon="-0.82491">
        <time>2022-07-30T11:19:03Z</time>
      </trkpt>
      <trkpt lat="42.61865" lon="-0.8248">
        <time>2022-07-30T11:19:04Z</time>
      </trkpt>
      <trkpt lat="42.6187" lon="-0.82469">
        <time>2022-07-30T11:19:05Z</time>
      </trkpt>
      <trkpt lat="42.61876" lon="-0.82457">
        <time>2022-07-30T11:19:06Z</time>
      </trkpt>
      <trkpt lat="42.61882" lon="-0.82445">
        <time>2022-07-30T11:19:07Z</time>
      </trkpt>
      <trkpt lat="42.61888" lon="-0.82433">
        <time>2022-07-30T11:19:08Z</time>
      </trkpt>
      <trkpt lat="42.61894" lon="-0.8242">
        <time>2022-07-30T11:19:09Z</time>
      </trkpt>
      <trkpt lat="42.619" lon="-0.82407">
        <time>2022-07-30T11:19:10Z</time>
      </trkpt>
      <trkpt lat="42.61906" lon="-0.82394">
        <time>2022-07-30T11:19:11Z</time>
      </trkpt>
      <trkpt lat="42.61913" lon="-0.82381">
        <time>2022-07-30T11:19:12Z</time>
      </trkpt>
      <trkpt lat="42.6192" lon="-0.82368">
        <time>2022-07-30T11:19:13Z</time>
      </trkpt>
      <trkpt lat="42.61927" lon="-0.82355">
        <time>2022-07-30T11:19:14Z</time>
      </trkpt>
      <trkpt lat="42.61933" lon="-0.8234">
        <time>2022-07-30T11:19:15Z</time>
      </trkpt>
      <trkpt lat="42.6194" lon="-0.82324">
        <time>2022-07-30T11:19:16Z</time>
      </trkpt>
      <trkpt lat="42.61947" lon="-0.82309">
        <time>2022-07-30T11:19:17Z</time>
      </trkpt>
      <trkpt lat="42.61956" lon="-0.82295">
        <time>2022-07-30T11:19:18Z</time>
      </trkpt>
      <trkpt lat="42.61965" lon="-0.8228">
        <time>2022-07-30T11:19:19Z</time>
      </trkpt>
      <trkpt lat="42.61972" lon="-0.82265">
        <time>2022-07-30T11:19:20Z</time>
      </trkpt>
      <trkpt lat="42.61979" lon="-0.82248">
        <time>2022-07-30T11:19:21Z</time>
      </trkpt>
      <trkpt lat="42.61985" lon="-0.82231">
        <time>2022-07-30T11:19:22Z</time>
      </trkpt>
      <trkpt lat="42.6199" lon="-0.82213">
        <time>2022-07-30T11:19:23Z</time>
      </trkpt>
      <trkpt lat="42.61994" lon="-0.82197">
        <time>2022-07-30T11:19:24Z</time>
      </trkpt>
      <trkpt lat="42.61997" lon="-0.82181">
        <time>2022-07-30T11:19:25Z</time>
      </trkpt>
      <trkpt lat="42.61998" lon="-0.82165">
        <time>2022-07-30T11:19:26Z</time>
      </trkpt>
      <trkpt lat="42.61997" lon="-0.8215">
        <time>2022-07-30T11:19:27Z</time>
      </trkpt>
      <trkpt lat="42.61993" lon="-0.82135">
        <time>2022-07-30T11:19:28Z</time>
      </trkpt>
      <trkpt lat="42.61988" lon="-0.8212">
        <time>2022-07-30T11:19:29Z</time>
      </trkpt>
      <trkpt lat="42.61982" lon="-0.82106">
        <time>2022-07-30T11:19:30Z</time>
      </trkpt>
      <trkpt lat="42.61975" lon="-0.82093">
        <time>2022-07-30T11:19:31Z</time>
      </trkpt>
      <trkpt lat="42.61966" lon="-0.8208">
        <time>2022-07-30T11:19:32Z</time>
      </trkpt>
      <trkpt lat="42.61958" lon="-0.82068">
        <time>2022-07-30T11:19:33Z</time>
      </trkpt>
      <trkpt lat="42.6195" lon="-0.82056">
        <time>2022-07-30T11:19:34Z</time>
      </trkpt>
      <trkpt lat="42.61944" lon="-0.82043">
        <time>2022-07-30T11:19:35Z</time>
      </trkpt>
      <trkpt lat="42.61939" lon="-0.8203">
        <time>2022-07-30T11:19:36Z</time>
      </trkpt>
      <trkpt lat="42.61937" lon="-0.82017">
        <time>2022-07-30T11:19:37Z</time>
      </trkpt>
      <trkpt lat="42.61938" lon="-0.82004">
        <time>2022-07-30T11:19:38Z</time>
      </trkpt>
      <trkpt lat="42.61943" lon="-0.81993">
        <time>2022-07-30T11:19:39Z</time>
      </trkpt>
      <trkpt lat="42.6195" lon="-0.81985">
        <time>2022-07-30T11:19:40Z</time>
      </trkpt>
      <trkpt lat="42.61959" lon="-0.81977">
        <time>2022-07-30T11:19:41Z</time>
      </trkpt>
      <trkpt lat="42.61968" lon="-0.81969">
        <time>2022-07-30T11:19:42Z</time>
      </trkpt>
      <trkpt lat="42.61979" lon="-0.81962">
        <time>2022-07-30T11:19:43Z</time>
      </trkpt>
      <trkpt lat="42.6199" lon="-0.81955">
        <time>2022-07-30T11:19:44Z</time>
      </trkpt>
      <trkpt lat="42.62001" lon="-0.81949">
        <time>2022-07-30T11:19:45Z</time>
      </trkpt>
      <trkpt lat="42.62012" lon="-0.81943">
        <time>2022-07-30T11:19:46Z</time>
      </trkpt>
      <trkpt lat="42.62023" lon="-0.81937">
        <time>2022-07-30T11:19:47Z</time>
      </trkpt>
      <trkpt lat="42.62034" lon="-0.81933">
        <time>2022-07-30T11:19:48Z</time>
      </trkpt>
      <trkpt lat="42.62044" lon="-0.81928">
        <time>2022-07-30T11:19:49Z</time>
      </trkpt>
      <trkpt lat="42.62054" lon="-0.81922">
        <time>2022-07-30T11:19:50Z</time>
      </trkpt>
      <trkpt lat="42.62063" lon="-0.81916">
        <time>2022-07-30T11:19:51Z</time>
      </trkpt>
      <trkpt lat="42.62071" lon="-0.8191">
        <time>2022-07-30T11:19:52Z</time>
      </trkpt>
      <trkpt lat="42.62078" lon="-0.81903">
        <time>2022-07-30T11:19:53Z</time>
      </trkpt>
      <trkpt lat="42.62083" lon="-0.81895">
        <time>2022-07-30T11:19:54Z</time>
      </trkpt>
      <trkpt lat="42.62087" lon="-0.81886">
        <time>2022-07-30T11:19:55Z</time>
      </trkpt>
      <trkpt lat="42.62087" lon="-0.81876">
        <time>2022-07-30T11:19:56Z</time>
      </trkpt>
      <trkpt lat="42.62086" lon="-0.81864">
        <time>2022-07-30T11:19:57Z</time>
      </trkpt>
      <trkpt lat="42.62082" lon="-0.81853">
        <time>2022-07-30T11:19:58Z</time>
      </trkpt>
      <trkpt lat="42.62077" lon="-0.81843">
        <time>2022-07-30T11:19:59Z</time>
      </trkpt>
      <trkpt lat="42.62071" lon="-0.81832">
        <time>2022-07-30T11:20:00Z</time>
      </trkpt>
      <trkpt lat="42.62067" lon="-0.81819">
        <time>2022-07-30T11:20:01Z</time>
      </trkpt>
      <trkpt lat="42.62063" lon="-0.81807">
        <time>2022-07-30T11:20:02Z</time>
      </trkpt>
      <trkpt lat="42.6206" lon="-0.81798">
        <time>2022-07-30T11:20:03Z</time>
      </trkpt>
      <trkpt lat="42.62058" lon="-0.81788">
        <time>2022-07-30T11:20:04Z</time>
      </trkpt>
      <trkpt lat="42.62059" lon="-0.8178">
        <time>2022-07-30T11:20:05Z</time>
      </trkpt>
      <trkpt lat="42.62062" lon="-0.81773">
        <time>2022-07-30T11:20:06Z</time>
      </trkpt>
      <trkpt lat="42.62068" lon="-0.81769">
        <time>2022-07-30T11:20:07Z</time>
      </trkpt>
      <trkpt lat="42.62075" lon="-0.81768">
        <time>2022-07-30T11:20:08Z</time>
      </trkpt>
      <trkpt lat="42.62084" lon="-0.81774">
        <time>2022-07-30T11:20:09Z</time>
      </trkpt>
      <trkpt lat="42.62092" lon="-0.81781">
        <time>2022-07-30T11:20:10Z</time>
      </trkpt>
      <trkpt lat="42.62101" lon="-0.8179">
        <time>2022-07-30T11:20:11Z</time>
      </trkpt>
      <trkpt lat="42.6211" lon="-0.81797">
        <time>2022-07-30T11:20:12Z</time>
      </trkpt>
      <trkpt lat="42.62119" lon="-0.81802">
        <time>2022-07-30T11:20:13Z</time>
      </trkpt>
      <trkpt lat="42.62127" lon="-0.81806">
        <time>2022-07-30T11:20:14Z</time>
      </trkpt>
      <trkpt lat="42.62133" lon="-0.81808">
        <time>2022-07-30T11:20:15Z</time>
      </trkpt>
      <trkpt lat="42.6214" lon="-0.81807">
        <time>2022-07-30T11:20:16Z</time>
      </trkpt>
      <trkpt lat="42.62146" lon="-0.81804">
        <time>2022-07-30T11:20:17Z</time>
      </trkpt>
      <trkpt lat="42.62151" lon="-0.81799">
        <time>2022-07-30T11:20:18Z</time>
      </trkpt>
      <trkpt lat="42.62157" lon="-0.81792">
        <time>2022-07-30T11:20:19Z</time>
      </trkpt>
      <trkpt lat="42.62163" lon="-0.81786">
        <time>2022-07-30T11:20:20Z</time>
      </trkpt>
      <trkpt lat="42.62169" lon="-0.8178">
        <time>2022-07-30T11:20:21Z</time>
      </trkpt>
      <trkpt lat="42.62175" lon="-0.81773">
        <time>2022-07-30T11:20:22Z</time>
      </trkpt>
      <trkpt lat="42.6218" lon="-0.81767">
        <time>2022-07-30T11:20:23Z</time>
      </trkpt>
      <trkpt lat="42.62184" lon="-0.8176">
        <time>2022-07-30T11:20:24Z</time>
      </trkpt>
      <trkpt lat="42.62187" lon="-0.81753">
        <time>2022-07-30T11:20:25Z</time>
      </trkpt>
      <trkpt lat="42.62191" lon="-0.81747">
        <time>2022-07-30T11:20:26Z</time>
      </trkpt>
      <trkpt lat="42.62194" lon="-0.81743">
        <time>2022-07-30T11:20:27Z</time>
      </trkpt>
      <trkpt lat="42.62198" lon="-0.81741">
        <time>2022-07-30T11:20:28Z</time>
      </trkpt>
      <trkpt lat="42.62201" lon="-0.81741">
        <time>2022-07-30T11:20:29Z</time>
      </trkpt>
      <trkpt lat="42.62204" lon="-0.81741">
        <time>2022-07-30T11:20:30Z</time>
      </trkpt>
      <trkpt lat="42.62206" lon="-0.8174">
        <time>2022-07-30T11:20:31Z</time>
      </trkpt>
      <trkpt lat="42.62207" lon="-0.81738">
        <time>2022-07-30T11:20:32Z</time>
      </trkpt>
      <trkpt lat="42.62207" lon="-0.81735">
        <time>2022-07-30T11:20:33Z</time>
      </trkpt>
      <trkpt lat="42.62206" lon="-0.81733">
        <time>2022-07-30T11:20:34Z</time>
      </trkpt>
      <trkpt lat="42.62205" lon="-0.8173">
        <time>2022-07-30T11:20:35Z</time>
      </trkpt>
      <trkpt lat="42.62202" lon="-0.81729">
        <time>2022-07-30T11:20:36Z</time>
      </trkpt>
      <trkpt lat="42.622" lon="-0.8173">
        <time>2022-07-30T11:20:37Z</time>
      </trkpt>
      <trkpt lat="42.62199" lon="-0.81732">
        <time>2022-07-30T11:20:38Z</time>
      </trkpt>
      <trkpt lat="42.62198" lon="-0.81736">
        <time>2022-07-30T11:20:43Z</time>
      </trkpt>
      <trkpt lat="42.62197" lon="-0.81739">
        <time>2022-07-30T11:20:44Z</time>
      </trkpt>
      <trkpt lat="42.62195" lon="-0.81742">
        <time>2022-07-30T11:20:45Z</time>
      </trkpt>
      <trkpt lat="42.62192" lon="-0.81746">
        <time>2022-07-30T11:20:46Z</time>
      </trkpt>
      <trkpt lat="42.62189" lon="-0.81751">
        <time>2022-07-30T11:20:47Z</time>
      </trkpt>
      <trkpt lat="42.62186" lon="-0.81757">
        <time>2022-07-30T11:20:48Z</time>
      </trkpt>
      <trkpt lat="42.62183" lon="-0.81762">
        <time>2022-07-30T11:20:49Z</time>
      </trkpt>
      <trkpt lat="42.6218" lon="-0.81767">
        <time>2022-07-30T11:20:50Z</time>
      </trkpt>
      <trkpt lat="42.62176" lon="-0.81772">
        <time>2022-07-30T11:20:51Z</time>
      </trkpt>
      <trkpt lat="42.62173" lon="-0.81775">
        <time>2022-07-30T11:20:52Z</time>
      </trkpt>
      <trkpt lat="42.6217" lon="-0.8178">
        <time>2022-07-30T11:20:53Z</time>
      </trkpt>
      <trkpt lat="42.62167" lon="-0.81783">
        <time>2022-07-30T11:20:54Z</time>
      </trkpt>
      <trkpt lat="42.62165" lon="-0.81786">
        <time>2022-07-30T11:20:55Z</time>
      </trkpt>
      <trkpt lat="42.62164" lon="-0.81787">
        <time>2022-07-30T11:20:56Z</time>
      </trkpt>
      <trkpt lat="42.62163" lon="-0.81788">
        <time>2022-07-30T11:22:01Z</time>
      </trkpt>
      <trkpt lat="42.62159" lon="-0.81791">
        <time>2022-07-30T11:22:02Z</time>
      </trkpt>
      <trkpt lat="42.62154" lon="-0.81798">
        <time>2022-07-30T11:22:03Z</time>
      </trkpt>
      <trkpt lat="42.62149" lon="-0.81804">
        <time>2022-07-30T11:22:04Z</time>
      </trkpt>
      <trkpt lat="42.62142" lon="-0.81807">
        <time>2022-07-30T11:22:05Z</time>
      </trkpt>
      <trkpt lat="42.62135" lon="-0.81809">
        <time>2022-07-30T11:22:06Z</time>
      </trkpt>
      <trkpt lat="42.62128" lon="-0.81807">
        <time>2022-07-30T11:22:07Z</time>
      </trkpt>
      <trkpt lat="42.62121" lon="-0.81804">
        <time>2022-07-30T11:22:08Z</time>
      </trkpt>
      <trkpt lat="42.62113" lon="-0.818">
        <time>2022-07-30T11:22:09Z</time>
      </trkpt>
      <trkpt lat="42.62105" lon="-0.81795">
        <time>2022-07-30T11:22:10Z</time>
      </trkpt>
      <trkpt lat="42.62098" lon="-0.81789">
        <time>2022-07-30T11:22:11Z</time>
      </trkpt>
      <trkpt lat="42.62091" lon="-0.81783">
        <time>2022-07-30T11:22:12Z</time>
      </trkpt>
      <trkpt lat="42.62085" lon="-0.81777">
        <time>2022-07-30T11:22:13Z</time>
      </trkpt>
      <trkpt lat="42.62079" lon="-0.81772">
        <time>2022-07-30T11:22:14Z</time>
      </trkpt>
      <trkpt lat="42.62072" lon="-0.8177">
        <time>2022-07-30T11:22:15Z</time>
      </trkpt>
      <trkpt lat="42.62066" lon="-0.81772">
        <time>2022-07-30T11:22:16Z</time>
      </trkpt>
      <trkpt lat="42.62061" lon="-0.81778">
        <time>2022-07-30T11:22:17Z</time>
      </trkpt>
      <trkpt lat="42.6206" lon="-0.81787">
        <time>2022-07-30T11:22:18Z</time>
      </trkpt>
      <trkpt lat="42.62062" lon="-0.81797">
        <time>2022-07-30T11:22:19Z</time>
      </trkpt>
      <trkpt lat="42.62065" lon="-0.81809">
        <time>2022-07-30T11:22:20Z</time>
      </trkpt>
      <trkpt lat="42.62069" lon="-0.81822">
        <time>2022-07-30T11:22:21Z</time>
      </trkpt>
      <trkpt lat="42.62074" lon="-0.81835">
        <time>2022-07-30T11:22:22Z</time>
      </trkpt>
      <trkpt lat="42.6208" lon="-0.81846">
        <time>2022-07-30T11:22:23Z</time>
      </trkpt>
      <trkpt lat="42.62085" lon="-0.81857">
        <time>2022-07-30T11:22:24Z</time>
      </trkpt>
      <trkpt lat="42.62088" lon="-0.81868">
        <time>2022-07-30T11:22:25Z</time>
      </trkpt>
      <trkpt lat="42.62088" lon="-0.81879">
        <time>2022-07-30T11:22:26Z</time>
      </trkpt>
      <trkpt lat="42.62086" lon="-0.81891">
        <time>2022-07-30T11:22:27Z</time>
      </trkpt>
      <trkpt lat="42.62082" lon="-0.81901">
        <time>2022-07-30T11:22:28Z</time>
      </trkpt>
      <trkpt lat="42.62074" lon="-0.81909">
        <time>2022-07-30T11:22:29Z</time>
      </trkpt>
      <trkpt lat="42.62064" lon="-0.81917">
        <time>2022-07-30T11:22:30Z</time>
      </trkpt>
      <trkpt lat="42.62052" lon="-0.81925">
        <time>2022-07-30T11:22:31Z</time>
      </trkpt>
      <trkpt lat="42.6204" lon="-0.8193">
        <time>2022-07-30T11:22:32Z</time>
      </trkpt>
      <trkpt lat="42.62028" lon="-0.81936">
        <time>2022-07-30T11:22:33Z</time>
      </trkpt>
      <trkpt lat="42.62016" lon="-0.81942">
        <time>2022-07-30T11:22:34Z</time>
      </trkpt>
      <trkpt lat="42.62004" lon="-0.81948">
        <time>2022-07-30T11:22:35Z</time>
      </trkpt>
      <trkpt lat="42.61992" lon="-0.81955">
        <time>2022-07-30T11:22:36Z</time>
      </trkpt>
      <trkpt lat="42.61981" lon="-0.81962">
        <time>2022-07-30T11:22:37Z</time>
      </trkpt>
      <trkpt lat="42.61969" lon="-0.8197">
        <time>2022-07-30T11:22:38Z</time>
      </trkpt>
      <trkpt lat="42.6196" lon="-0.81977">
        <time>2022-07-30T11:22:39Z</time>
      </trkpt>
      <trkpt lat="42.61952" lon="-0.81984">
        <time>2022-07-30T11:22:40Z</time>
      </trkpt>
      <trkpt lat="42.61945" lon="-0.81992">
        <time>2022-07-30T11:22:41Z</time>
      </trkpt>
      <trkpt lat="42.61941" lon="-0.82002">
        <time>2022-07-30T11:22:42Z</time>
      </trkpt>
      <trkpt lat="42.61939" lon="-0.82013">
        <time>2022-07-30T11:22:43Z</time>
      </trkpt>
      <trkpt lat="42.6194" lon="-0.82026">
        <time>2022-07-30T11:22:44Z</time>
      </trkpt>
      <trkpt lat="42.61943" lon="-0.82037">
        <time>2022-07-30T11:22:45Z</time>
      </trkpt>
      <trkpt lat="42.61948" lon="-0.82049">
        <time>2022-07-30T11:22:46Z</time>
      </trkpt>
      <trkpt lat="42.61954" lon="-0.82059">
        <time>2022-07-30T11:22:47Z</time>
      </trkpt>
      <trkpt lat="42.6196" lon="-0.82069">
        <time>2022-07-30T11:22:48Z</time>
      </trkpt>
      <trkpt lat="42.61967" lon="-0.8208">
        <time>2022-07-30T11:22:49Z</time>
      </trkpt>
      <trkpt lat="42.61974" lon="-0.82091">
        <time>2022-07-30T11:22:50Z</time>
      </trkpt>
      <trkpt lat="42.6198" lon="-0.82102">
        <time>2022-07-30T11:22:51Z</time>
      </trkpt>
      <trkpt lat="42.61986" lon="-0.82113">
        <time>2022-07-30T11:22:52Z</time>
      </trkpt>
      <trkpt lat="42.61991" lon="-0.82125">
        <time>2022-07-30T11:22:53Z</time>
      </trkpt>
      <trkpt lat="42.61995" lon="-0.82138">
        <time>2022-07-30T11:22:54Z</time>
      </trkpt>
      <trkpt lat="42.61998" lon="-0.82151">
        <time>2022-07-30T11:22:55Z</time>
      </trkpt>
      <trkpt lat="42.61999" lon="-0.82166">
        <time>2022-07-30T11:22:56Z</time>
      </trkpt>
      <trkpt lat="42.61998" lon="-0.82181">
        <time>2022-07-30T11:22:57Z</time>
      </trkpt>
      <trkpt lat="42.61996" lon="-0.82196">
        <time>2022-07-30T11:22:58Z</time>
      </trkpt>
      <trkpt lat="42.61992" lon="-0.82212">
        <time>2022-07-30T11:22:59Z</time>
      </trkpt>
      <trkpt lat="42.61988" lon="-0.82229">
        <time>2022-07-30T11:23:00Z</time>
      </trkpt>
      <trkpt lat="42.61982" lon="-0.82247">
        <time>2022-07-30T11:23:01Z</time>
      </trkpt>
      <trkpt lat="42.61975" lon="-0.82264">
        <time>2022-07-30T11:23:02Z</time>
      </trkpt>
      <trkpt lat="42.61967" lon="-0.8228">
        <time>2022-07-30T11:23:03Z</time>
      </trkpt>
      <trkpt lat="42.61958" lon="-0.82296">
        <time>2022-07-30T11:23:04Z</time>
      </trkpt>
      <trkpt lat="42.61949" lon="-0.82312">
        <time>2022-07-30T11:23:05Z</time>
      </trkpt>
      <trkpt lat="42.61941" lon="-0.82328">
        <time>2022-07-30T11:23:06Z</time>
      </trkpt>
      <trkpt lat="42.61934" lon="-0.82345">
        <time>2022-07-30T11:23:07Z</time>
      </trkpt>
      <trkpt lat="42.61926" lon="-0.82362">
        <time>2022-07-30T11:23:08Z</time>
      </trkpt>
      <trkpt lat="42.61918" lon="-0.82378">
        <time>2022-07-30T11:23:09Z</time>
      </trkpt>
      <trkpt lat="42.61909" lon="-0.82395">
        <time>2022-07-30T11:23:10Z</time>
      </trkpt>
      <trkpt lat="42.619" lon="-0.82411">
        <time>2022-07-30T11:23:11Z</time>
      </trkpt>
      <trkpt lat="42.61892" lon="-0.82427">
        <time>2022-07-30T11:23:12Z</time>
      </trkpt>
      <trkpt lat="42.61885" lon="-0.82442">
        <time>2022-07-30T11:23:13Z</time>
      </trkpt>
      <trkpt lat="42.61878" lon="-0.82457">
        <time>2022-07-30T11:23:14Z</time>
      </trkpt>
      <trkpt lat="42.61871" lon="-0.82472">
        <time>2022-07-30T11:23:15Z</time>
      </trkpt>
      <trkpt lat="42.61865" lon="-0.82485">
        <time>2022-07-30T11:23:16Z</time>
      </trkpt>
      <trkpt lat="42.6186" lon="-0.82497">
        <time>2022-07-30T11:23:17Z</time>
      </trkpt>
      <trkpt lat="42.61855" lon="-0.82508">
        <time>2022-07-30T11:23:18Z</time>
      </trkpt>
      <trkpt lat="42.61851" lon="-0.82517">
        <time>2022-07-30T11:23:19Z</time>
      </trkpt>
      <trkpt lat="42.61848" lon="-0.82524">
        <time>2022-07-30T11:23:20Z</time>
      </trkpt>
      <trkpt lat="42.61846" lon="-0.8253">
        <time>2022-07-30T11:23:21Z</time>
      </trkpt>
      <trkpt lat="42.61845" lon="-0.82534">
        <time>2022-07-30T11:23:22Z</time>
      </trkpt>
      <trkpt lat="42.61842" lon="-0.82538">
        <time>2022-07-30T11:23:23Z</time>
      </trkpt>
      <trkpt lat="42.61837" lon="-0.82542">
        <time>2022-07-30T11:23:24Z</time>
      </trkpt>
      <trkpt lat="42.6183" lon="-0.82546">
        <time>2022-07-30T11:23:25Z</time>
      </trkpt>
      <trkpt lat="42.61821" lon="-0.82549">
        <time>2022-07-30T11:23:26Z</time>
      </trkpt>
      <trkpt lat="42.61812" lon="-0.82551">
        <time>2022-07-30T11:23:27Z</time>
      </trkpt>
      <trkpt lat="42.618" lon="-0.82553">
        <time>2022-07-30T11:23:28Z</time>
      </trkpt>
      <trkpt lat="42.61787" lon="-0.82554">
        <time>2022-07-30T11:23:29Z</time>
      </trkpt>
      <trkpt lat="42.61774" lon="-0.82557">
        <time>2022-07-30T11:23:30Z</time>
      </trkpt>
      <trkpt lat="42.61761" lon="-0.82559">
        <time>2022-07-30T11:23:31Z</time>
      </trkpt>
      <trkpt lat="42.61748" lon="-0.82561">
        <time>2022-07-30T11:23:32Z</time>
      </trkpt>
      <trkpt lat="42.61734" lon="-0.82564">
        <time>2022-07-30T11:23:33Z</time>
      </trkpt>
      <trkpt lat="42.61721" lon="-0.82566">
        <time>2022-07-30T11:23:34Z</time>
      </trkpt>
      <trkpt lat="42.61709" lon="-0.82568">
        <time>2022-07-30T11:23:35Z</time>
      </trkpt>
      <trkpt lat="42.61697" lon="-0.82571">
        <time>2022-07-30T11:23:36Z</time>
      </trkpt>
      <trkpt lat="42.61685" lon="-0.82573">
        <time>2022-07-30T11:23:37Z</time>
      </trkpt>
      <trkpt lat="42.61674" lon="-0.82574">
        <time>2022-07-30T11:23:38Z</time>
      </trkpt>
      <trkpt lat="42.61663" lon="-0.82576">
        <time>2022-07-30T11:23:39Z</time>
      </trkpt>
      <trkpt lat="42.61652" lon="-0.82578">
        <time>2022-07-30T11:23:40Z</time>
      </trkpt>
      <trkpt lat="42.61642" lon="-0.8258">
        <time>2022-07-30T11:23:41Z</time>
      </trkpt>
      <trkpt lat="42.61631" lon="-0.82585">
        <time>2022-07-30T11:23:42Z</time>
      </trkpt>
      <trkpt lat="42.61621" lon="-0.82592">
        <time>2022-07-30T11:23:43Z</time>
      </trkpt>
      <trkpt lat="42.61609" lon="-0.82601">
        <time>2022-07-30T11:23:44Z</time>
      </trkpt>
      <trkpt lat="42.61598" lon="-0.82613">
        <time>2022-07-30T11:23:45Z</time>
      </trkpt>
      <trkpt lat="42.61587" lon="-0.82624">
        <time>2022-07-30T11:23:46Z</time>
      </trkpt>
      <trkpt lat="42.61577" lon="-0.82636">
        <time>2022-07-30T11:23:47Z</time>
      </trkpt>
      <trkpt lat="42.61566" lon="-0.82648">
        <time>2022-07-30T11:23:48Z</time>
      </trkpt>
      <trkpt lat="42.61556" lon="-0.82662">
        <time>2022-07-30T11:23:49Z</time>
      </trkpt>
      <trkpt lat="42.61547" lon="-0.82677">
        <time>2022-07-30T11:23:50Z</time>
      </trkpt>
      <trkpt lat="42.61538" lon="-0.82693">
        <time>2022-07-30T11:23:51Z</time>
      </trkpt>
      <trkpt lat="42.61529" lon="-0.8271">
        <time>2022-07-30T11:23:52Z</time>
      </trkpt>
      <trkpt lat="42.61519" lon="-0.82725">
        <time>2022-07-30T11:23:53Z</time>
      </trkpt>
      <trkpt lat="42.61508" lon="-0.8274">
        <time>2022-07-30T11:23:54Z</time>
      </trkpt>
      <trkpt lat="42.61496" lon="-0.82755">
        <time>2022-07-30T11:23:55Z</time>
      </trkpt>
      <trkpt lat="42.61485" lon="-0.82768">
        <time>2022-07-30T11:23:56Z</time>
      </trkpt>
      <trkpt lat="42.61474" lon="-0.82781">
        <time>2022-07-30T11:23:57Z</time>
      </trkpt>
      <trkpt lat="42.61464" lon="-0.82792">
        <time>2022-07-30T11:23:58Z</time>
      </trkpt>
      <trkpt lat="42.61455" lon="-0.82801">
        <time>2022-07-30T11:23:59Z</time>
      </trkpt>
      <trkpt lat="42.61446" lon="-0.82809">
        <time>2022-07-30T11:24:00Z</time>
      </trkpt>
      <trkpt lat="42.61436" lon="-0.82815">
        <time>2022-07-30T11:24:01Z</time>
      </trkpt>
      <trkpt lat="42.61425" lon="-0.82816">
        <time>2022-07-30T11:24:02Z</time>
      </trkpt>
      <trkpt lat="42.61414" lon="-0.82813">
        <time>2022-07-30T11:24:03Z</time>
      </trkpt>
      <trkpt lat="42.61403" lon="-0.82806">
        <time>2022-07-30T11:24:04Z</time>
      </trkpt>
      <trkpt lat="42.61392" lon="-0.82801">
        <time>2022-07-30T11:24:05Z</time>
      </trkpt>
      <trkpt lat="42.61382" lon="-0.82797">
        <time>2022-07-30T11:24:06Z</time>
      </trkpt>
      <trkpt lat="42.61371" lon="-0.82797">
        <time>2022-07-30T11:24:07Z</time>
      </trkpt>
      <trkpt lat="42.61359" lon="-0.82802">
        <time>2022-07-30T11:24:08Z</time>
      </trkpt>
      <trkpt lat="42.61347" lon="-0.82811">
        <time>2022-07-30T11:24:09Z</time>
      </trkpt>
      <trkpt lat="42.61336" lon="-0.82822">
        <time>2022-07-30T11:24:10Z</time>
      </trkpt>
      <trkpt lat="42.61324" lon="-0.82834">
        <time>2022-07-30T11:24:11Z</time>
      </trkpt>
      <trkpt lat="42.61313" lon="-0.82849">
        <time>2022-07-30T11:24:12Z</time>
      </trkpt>
      <trkpt lat="42.61305" lon="-0.82865">
        <time>2022-07-30T11:24:13Z</time>
      </trkpt>
      <trkpt lat="42.61298" lon="-0.82881">
        <time>2022-07-30T11:24:14Z</time>
      </trkpt>
      <trkpt lat="42.61293" lon="-0.82899">
        <time>2022-07-30T11:24:15Z</time>
      </trkpt>
      <trkpt lat="42.61288" lon="-0.82918">
        <time>2022-07-30T11:24:16Z</time>
      </trkpt>
      <trkpt lat="42.61284" lon="-0.82938">
        <time>2022-07-30T11:24:17Z</time>
      </trkpt>
      <trkpt lat="42.61279" lon="-0.82956">
        <time>2022-07-30T11:24:18Z</time>
      </trkpt>
      <trkpt lat="42.61274" lon="-0.82973">
        <time>2022-07-30T11:24:19Z</time>
      </trkpt>
      <trkpt lat="42.61268" lon="-0.82989">
        <time>2022-07-30T11:24:20Z</time>
      </trkpt>
      <trkpt lat="42.61261" lon="-0.83003">
        <time>2022-07-30T11:24:21Z</time>
      </trkpt>
      <trkpt lat="42.61254" lon="-0.83017">
        <time>2022-07-30T11:24:22Z</time>
      </trkpt>
      <trkpt lat="42.61248" lon="-0.8303">
        <time>2022-07-30T11:24:23Z</time>
      </trkpt>
      <trkpt lat="42.6124" lon="-0.8304">
        <time>2022-07-30T11:24:24Z</time>
      </trkpt>
      <trkpt lat="42.6123" lon="-0.83046">
        <time>2022-07-30T11:24:25Z</time>
      </trkpt>
      <trkpt lat="42.61218" lon="-0.83048">
        <time>2022-07-30T11:24:26Z</time>
      </trkpt>
      <trkpt lat="42.61205" lon="-0.83046">
        <time>2022-07-30T11:24:27Z</time>
      </trkpt>
      <trkpt lat="42.6119" lon="-0.83043">
        <time>2022-07-30T11:24:28Z</time>
      </trkpt>
      <trkpt lat="42.61174" lon="-0.83039">
        <time>2022-07-30T11:24:29Z</time>
      </trkpt>
      <trkpt lat="42.61159" lon="-0.83035">
        <time>2022-07-30T11:24:30Z</time>
      </trkpt>
      <trkpt lat="42.61147" lon="-0.83032">
        <time>2022-07-30T11:24:31Z</time>
      </trkpt>
      <trkpt lat="42.61135" lon="-0.8303">
        <time>2022-07-30T11:24:32Z</time>
      </trkpt>
      <trkpt lat="42.61125" lon="-0.83029">
        <time>2022-07-30T11:24:33Z</time>
      </trkpt>
      <trkpt lat="42.61117" lon="-0.83031">
        <time>2022-07-30T11:24:34Z</time>
      </trkpt>
      <trkpt lat="42.61109" lon="-0.83037">
        <time>2022-07-30T11:24:35Z</time>
      </trkpt>
      <trkpt lat="42.61103" lon="-0.83048">
        <time>2022-07-30T11:24:36Z</time>
      </trkpt>
      <trkpt lat="42.61097" lon="-0.83063">
        <time>2022-07-30T11:24:37Z</time>
      </trkpt>
      <trkpt lat="42.61092" lon="-0.8308">
        <time>2022-07-30T11:24:38Z</time>
      </trkpt>
      <trkpt lat="42.61087" lon="-0.83097">
        <time>2022-07-30T11:24:39Z</time>
      </trkpt>
      <trkpt lat="42.6108" lon="-0.83116">
        <time>2022-07-30T11:24:40Z</time>
      </trkpt>
      <trkpt lat="42.61074" lon="-0.83136">
        <time>2022-07-30T11:24:41Z</time>
      </trkpt>
      <trkpt lat="42.61067" lon="-0.83158">
        <time>2022-07-30T11:24:42Z</time>
      </trkpt>
      <trkpt lat="42.6106" lon="-0.8318">
        <time>2022-07-30T11:24:43Z</time>
      </trkpt>
      <trkpt lat="42.61053" lon="-0.83202">
        <time>2022-07-30T11:24:44Z</time>
      </trkpt>
      <trkpt lat="42.61045" lon="-0.83224">
        <time>2022-07-30T11:24:45Z</time>
      </trkpt>
      <trkpt lat="42.61038" lon="-0.83247">
        <time>2022-07-30T11:24:46Z</time>
      </trkpt>
      <trkpt lat="42.6103" lon="-0.83269">
        <time>2022-07-30T11:24:47Z</time>
      </trkpt>
      <trkpt lat="42.61023" lon="-0.83292">
        <time>2022-07-30T11:24:48Z</time>
      </trkpt>
      <trkpt lat="42.61015" lon="-0.83315">
        <time>2022-07-30T11:24:49Z</time>
      </trkpt>
      <trkpt lat="42.61007" lon="-0.83338">
        <time>2022-07-30T11:24:50Z</time>
      </trkpt>
      <trkpt lat="42.60999" lon="-0.83362">
        <time>2022-07-30T11:24:51Z</time>
      </trkpt>
      <trkpt lat="42.60991" lon="-0.83386">
        <time>2022-07-30T11:24:52Z</time>
      </trkpt>
      <trkpt lat="42.60983" lon="-0.8341">
        <time>2022-07-30T11:24:53Z</time>
      </trkpt>
      <trkpt lat="42.60974" lon="-0.83435">
        <time>2022-07-30T11:24:54Z</time>
      </trkpt>
      <trkpt lat="42.60966" lon="-0.83459">
        <time>2022-07-30T11:24:55Z</time>
      </trkpt>
      <trkpt lat="42.60958" lon="-0.83483">
        <time>2022-07-30T11:24:56Z</time>
      </trkpt>
      <trkpt lat="42.6095" lon="-0.83507">
        <time>2022-07-30T11:24:57Z</time>
      </trkpt>
      <trkpt lat="42.60942" lon="-0.83531">
        <time>2022-07-30T11:24:58Z</time>
      </trkpt>
      <trkpt lat="42.60934" lon="-0.83555">
        <time>2022-07-30T11:24:59Z</time>
      </trkpt>
      <trkpt lat="42.60926" lon="-0.83578">
        <time>2022-07-30T11:25:00Z</time>
      </trkpt>
      <trkpt lat="42.60919" lon="-0.83602">
        <time>2022-07-30T11:25:01Z</time>
      </trkpt>
      <trkpt lat="42.60911" lon="-0.83625">
        <time>2022-07-30T11:25:02Z</time>
      </trkpt>
      <trkpt lat="42.60903" lon="-0.83649">
        <time>2022-07-30T11:25:03Z</time>
      </trkpt>
      <trkpt lat="42.60895" lon="-0.83672">
        <time>2022-07-30T11:25:04Z</time>
      </trkpt>
      <trkpt lat="42.60888" lon="-0.83695">
        <time>2022-07-30T11:25:05Z</time>
      </trkpt>
      <trkpt lat="42.6088" lon="-0.83719">
        <time>2022-07-30T11:25:06Z</time>
      </trkpt>
      <trkpt lat="42.60872" lon="-0.83742">
        <time>2022-07-30T11:25:07Z</time>
      </trkpt>
      <trkpt lat="42.60864" lon="-0.83766">
        <time>2022-07-30T11:25:08Z</time>
      </trkpt>
      <trkpt lat="42.60856" lon="-0.8379">
        <time>2022-07-30T11:25:09Z</time>
      </trkpt>
      <trkpt lat="42.60848" lon="-0.83813">
        <time>2022-07-30T11:25:10Z</time>
      </trkpt>
      <trkpt lat="42.6084" lon="-0.83837">
        <time>2022-07-30T11:25:11Z</time>
      </trkpt>
      <trkpt lat="42.60832" lon="-0.83862">
        <time>2022-07-30T11:25:12Z</time>
      </trkpt>
      <trkpt lat="42.60823" lon="-0.83887">
        <time>2022-07-30T11:25:13Z</time>
      </trkpt>
      <trkpt lat="42.60815" lon="-0.83911">
        <time>2022-07-30T11:25:14Z</time>
      </trkpt>
      <trkpt lat="42.60807" lon="-0.83936">
        <time>2022-07-30T11:25:15Z</time>
      </trkpt>
      <trkpt lat="42.60799" lon="-0.83961">
        <time>2022-07-30T11:25:16Z</time>
      </trkpt>
      <trkpt lat="42.6079" lon="-0.83986">
        <time>2022-07-30T11:25:17Z</time>
      </trkpt>
      <trkpt lat="42.60782" lon="-0.84012">
        <time>2022-07-30T11:25:18Z</time>
      </trkpt>
      <trkpt lat="42.60774" lon="-0.84037">
        <time>2022-07-30T11:25:19Z</time>
      </trkpt>
      <trkpt lat="42.60765" lon="-0.84062">
        <time>2022-07-30T11:25:20Z</time>
      </trkpt>
      <trkpt lat="42.60757" lon="-0.84087">
        <time>2022-07-30T11:25:21Z</time>
      </trkpt>
      <trkpt lat="42.60749" lon="-0.84111">
        <time>2022-07-30T11:25:22Z</time>
      </trkpt>
      <trkpt lat="42.60741" lon="-0.84135">
        <time>2022-07-30T11:25:23Z</time>
      </trkpt>
      <trkpt lat="42.60733" lon="-0.84158">
        <time>2022-07-30T11:25:24Z</time>
      </trkpt>
      <trkpt lat="42.60725" lon="-0.84182">
        <time>2022-07-30T11:25:25Z</time>
      </trkpt>
      <trkpt lat="42.60717" lon="-0.84206">
        <time>2022-07-30T11:25:26Z</time>
      </trkpt>
      <trkpt lat="42.60709" lon="-0.84229">
        <time>2022-07-30T11:25:27Z</time>
      </trkpt>
      <trkpt lat="42.60701" lon="-0.84252">
        <time>2022-07-30T11:25:28Z</time>
      </trkpt>
      <trkpt lat="42.60693" lon="-0.84275">
        <time>2022-07-30T11:25:29Z</time>
      </trkpt>
      <trkpt lat="42.60685" lon="-0.84298">
        <time>2022-07-30T11:25:30Z</time>
      </trkpt>
      <trkpt lat="42.60677" lon="-0.84322">
        <time>2022-07-30T11:25:31Z</time>
      </trkpt>
      <trkpt lat="42.60669" lon="-0.84346">
        <time>2022-07-30T11:25:32Z</time>
      </trkpt>
      <trkpt lat="42.60661" lon="-0.84371">
        <time>2022-07-30T11:25:33Z</time>
      </trkpt>
      <trkpt lat="42.60653" lon="-0.84396">
        <time>2022-07-30T11:25:34Z</time>
      </trkpt>
      <trkpt lat="42.60645" lon="-0.84421">
        <time>2022-07-30T11:25:35Z</time>
      </trkpt>
      <trkpt lat="42.60637" lon="-0.84446">
        <time>2022-07-30T11:25:36Z</time>
      </trkpt>
      <trkpt lat="42.60628" lon="-0.84472">
        <time>2022-07-30T11:25:37Z</time>
      </trkpt>
      <trkpt lat="42.60619" lon="-0.84498">
        <time>2022-07-30T11:25:38Z</time>
      </trkpt>
      <trkpt lat="42.60611" lon="-0.84524">
        <time>2022-07-30T11:25:39Z</time>
      </trkpt>
      <trkpt lat="42.60602" lon="-0.84549">
        <time>2022-07-30T11:25:40Z</time>
      </trkpt>
      <trkpt lat="42.60594" lon="-0.84574">
        <time>2022-07-30T11:25:41Z</time>
      </trkpt>
      <trkpt lat="42.60586" lon="-0.84599">
        <time>2022-07-30T11:25:42Z</time>
      </trkpt>
      <trkpt lat="42.60577" lon="-0.84623">
        <time>2022-07-30T11:25:43Z</time>
      </trkpt>
      <trkpt lat="42.60569" lon="-0.84647">
        <time>2022-07-30T11:25:44Z</time>
      </trkpt>
      <trkpt lat="42.60561" lon="-0.84672">
        <time>2022-07-30T11:25:45Z</time>
      </trkpt>
      <trkpt lat="42.60553" lon="-0.84696">
        <time>2022-07-30T11:25:46Z</time>
      </trkpt>
      <trkpt lat="42.60545" lon="-0.8472">
        <time>2022-07-30T11:25:47Z</time>
      </trkpt>
      <trkpt lat="42.60537" lon="-0.84743">
        <time>2022-07-30T11:25:48Z</time>
      </trkpt>
      <trkpt lat="42.60529" lon="-0.84767">
        <time>2022-07-30T11:25:49Z</time>
      </trkpt>
      <trkpt lat="42.60521" lon="-0.8479">
        <time>2022-07-30T11:25:50Z</time>
      </trkpt>
      <trkpt lat="42.60514" lon="-0.84814">
        <time>2022-07-30T11:25:51Z</time>
      </trkpt>
      <trkpt lat="42.60506" lon="-0.84837">
        <time>2022-07-30T11:25:52Z</time>
      </trkpt>
      <trkpt lat="42.60499" lon="-0.84859">
        <time>2022-07-30T11:25:53Z</time>
      </trkpt>
      <trkpt lat="42.60492" lon="-0.84881">
        <time>2022-07-30T11:25:54Z</time>
      </trkpt>
      <trkpt lat="42.60485" lon="-0.84903">
        <time>2022-07-30T11:25:55Z</time>
      </trkpt>
      <trkpt lat="42.60478" lon="-0.84923">
        <time>2022-07-30T11:25:56Z</time>
      </trkpt>
      <trkpt lat="42.60471" lon="-0.84943">
        <time>2022-07-30T11:25:57Z</time>
      </trkpt>
      <trkpt lat="42.60465" lon="-0.84963">
        <time>2022-07-30T11:25:58Z</time>
      </trkpt>
      <trkpt lat="42.60458" lon="-0.84983">
        <time>2022-07-30T11:25:59Z</time>
      </trkpt>
      <trkpt lat="42.60451" lon="-0.85002">
        <time>2022-07-30T11:26:00Z</time>
      </trkpt>
      <trkpt lat="42.60445" lon="-0.85022">
        <time>2022-07-30T11:26:01Z</time>
      </trkpt>
      <trkpt lat="42.60437" lon="-0.8504">
        <time>2022-07-30T11:26:02Z</time>
      </trkpt>
      <trkpt lat="42.60428" lon="-0.85057">
        <time>2022-07-30T11:26:03Z</time>
      </trkpt>
      <trkpt lat="42.60418" lon="-0.85072">
        <time>2022-07-30T11:26:04Z</time>
      </trkpt>
      <trkpt lat="42.60407" lon="-0.85086">
        <time>2022-07-30T11:26:05Z</time>
      </trkpt>
      <trkpt lat="42.60394" lon="-0.85097">
        <time>2022-07-30T11:26:06Z</time>
      </trkpt>
      <trkpt lat="42.6038" lon="-0.85105">
        <time>2022-07-30T11:26:07Z</time>
      </trkpt>
      <trkpt lat="42.60364" lon="-0.85112">
        <time>2022-07-30T11:26:08Z</time>
      </trkpt>
      <trkpt lat="42.60347" lon="-0.85116">
        <time>2022-07-30T11:26:09Z</time>
      </trkpt>
      <trkpt lat="42.60329" lon="-0.8512">
        <time>2022-07-30T11:26:10Z</time>
      </trkpt>
      <trkpt lat="42.60311" lon="-0.85123">
        <time>2022-07-30T11:26:11Z</time>
      </trkpt>
      <trkpt lat="42.60293" lon="-0.85127">
        <time>2022-07-30T11:26:12Z</time>
      </trkpt>
      <trkpt lat="42.60275" lon="-0.8513">
        <time>2022-07-30T11:26:13Z</time>
      </trkpt>
      <trkpt lat="42.60258" lon="-0.85134">
        <time>2022-07-30T11:26:14Z</time>
      </trkpt>
      <trkpt lat="42.60241" lon="-0.85137">
        <time>2022-07-30T11:26:15Z</time>
      </trkpt>
      <trkpt lat="42.60224" lon="-0.85141">
        <time>2022-07-30T11:26:16Z</time>
      </trkpt>
      <trkpt lat="42.60206" lon="-0.85144">
        <time>2022-07-30T11:26:17Z</time>
      </trkpt>
      <trkpt lat="42.60189" lon="-0.85148">
        <time>2022-07-30T11:26:18Z</time>
      </trkpt>
      <trkpt lat="42.60172" lon="-0.85152">
        <time>2022-07-30T11:26:19Z</time>
      </trkpt>
      <trkpt lat="42.60155" lon="-0.85156">
        <time>2022-07-30T11:26:20Z</time>
      </trkpt>
      <trkpt lat="42.60138" lon="-0.85159">
        <time>2022-07-30T11:26:21Z</time>
      </trkpt>
      <trkpt lat="42.6012" lon="-0.85163">
        <time>2022-07-30T11:26:22Z</time>
      </trkpt>
      <trkpt lat="42.60103" lon="-0.85166">
        <time>2022-07-30T11:26:23Z</time>
      </trkpt>
      <trkpt lat="42.60086" lon="-0.8517">
        <time>2022-07-30T11:26:24Z</time>
      </trkpt>
      <trkpt lat="42.6007" lon="-0.85174">
        <time>2022-07-30T11:26:25Z</time>
      </trkpt>
      <trkpt lat="42.60054" lon="-0.85177">
        <time>2022-07-30T11:26:26Z</time>
      </trkpt>
      <trkpt lat="42.60039" lon="-0.8518">
        <time>2022-07-30T11:26:27Z</time>
      </trkpt>
      <trkpt lat="42.60024" lon="-0.85184">
        <time>2022-07-30T11:26:28Z</time>
      </trkpt>
      <trkpt lat="42.6001" lon="-0.85187">
        <time>2022-07-30T11:26:29Z</time>
      </trkpt>
      <trkpt lat="42.59995" lon="-0.8519">
        <time>2022-07-30T11:26:30Z</time>
      </trkpt>
      <trkpt lat="42.5998" lon="-0.85193">
        <time>2022-07-30T11:26:31Z</time>
      </trkpt>
      <trkpt lat="42.59966" lon="-0.85195">
        <time>2022-07-30T11:26:32Z</time>
      </trkpt>
      <trkpt lat="42.59952" lon="-0.85195">
        <time>2022-07-30T11:26:33Z</time>
      </trkpt>
      <trkpt lat="42.59939" lon="-0.85194">
        <time>2022-07-30T11:26:34Z</time>
      </trkpt>
      <trkpt lat="42.59926" lon="-0.85192">
        <time>2022-07-30T11:26:35Z</time>
      </trkpt>
      <trkpt lat="42.59914" lon="-0.85189">
        <time>2022-07-30T11:26:36Z</time>
      </trkpt>
      <trkpt lat="42.59902" lon="-0.85185">
        <time>2022-07-30T11:26:37Z</time>
      </trkpt>
      <trkpt lat="42.59892" lon="-0.8518">
        <time>2022-07-30T11:26:38Z</time>
      </trkpt>
      <trkpt lat="42.59883" lon="-0.85175">
        <time>2022-07-30T11:26:39Z</time>
      </trkpt>
      <trkpt lat="42.59876" lon="-0.8517">
        <time>2022-07-30T11:26:40Z</time>
      </trkpt>
      <trkpt lat="42.5987" lon="-0.85167">
        <time>2022-07-30T11:26:41Z</time>
      </trkpt>
      <trkpt lat="42.59865" lon="-0.85165">
        <time>2022-07-30T11:26:42Z</time>
      </trkpt>
      <trkpt lat="42.59861" lon="-0.85164">
        <time>2022-07-30T11:26:43Z</time>
      </trkpt>
      <trkpt lat="42.59858" lon="-0.85163">
        <time>2022-07-30T11:26:44Z</time>
      </trkpt>
      <trkpt lat="42.59857" lon="-0.85163">
        <time>2022-07-30T11:26:45Z</time>
      </trkpt>
      <trkpt lat="42.59855" lon="-0.85163">
        <time>2022-07-30T11:26:46Z</time>
      </trkpt>
      <trkpt lat="42.59854" lon="-0.85163">
        <time>2022-07-30T11:26:47Z</time>
      </trkpt>
      <trkpt lat="42.59853" lon="-0.85162">
        <time>2022-07-30T11:26:51Z</time>
      </trkpt>
      <trkpt lat="42.59849" lon="-0.85161">
        <time>2022-07-30T11:26:52Z</time>
      </trkpt>
      <trkpt lat="42.59842" lon="-0.85155">
        <time>2022-07-30T11:26:53Z</time>
      </trkpt>
      <trkpt lat="42.59835" lon="-0.85145">
        <time>2022-07-30T11:26:54Z</time>
      </trkpt>
      <trkpt lat="42.59827" lon="-0.85133">
        <time>2022-07-30T11:26:55Z</time>
      </trkpt>
      <trkpt lat="42.59819" lon="-0.8512">
        <time>2022-07-30T11:26:56Z</time>
      </trkpt>
      <trkpt lat="42.59809" lon="-0.85104">
        <time>2022-07-30T11:26:57Z</time>
      </trkpt>
      <trkpt lat="42.59798" lon="-0.85088">
        <time>2022-07-30T11:26:58Z</time>
      </trkpt>
      <trkpt lat="42.59786" lon="-0.85071">
        <time>2022-07-30T11:26:59Z</time>
      </trkpt>
      <trkpt lat="42.59774" lon="-0.85052">
        <time>2022-07-30T11:27:00Z</time>
      </trkpt>
      <trkpt lat="42.5976" lon="-0.85034">
        <time>2022-07-30T11:27:01Z</time>
      </trkpt>
      <trkpt lat="42.59746" lon="-0.85014">
        <time>2022-07-30T11:27:02Z</time>
      </trkpt>
      <trkpt lat="42.59732" lon="-0.84995">
        <time>2022-07-30T11:27:03Z</time>
      </trkpt>
      <trkpt lat="42.59717" lon="-0.84974">
        <time>2022-07-30T11:27:04Z</time>
      </trkpt>
      <trkpt lat="42.59701" lon="-0.84952">
        <time>2022-07-30T11:27:05Z</time>
      </trkpt>
      <trkpt lat="42.59686" lon="-0.8493">
        <time>2022-07-30T11:27:06Z</time>
      </trkpt>
      <trkpt lat="42.5967" lon="-0.84908">
        <time>2022-07-30T11:27:07Z</time>
      </trkpt>
      <trkpt lat="42.59654" lon="-0.84886">
        <time>2022-07-30T11:27:08Z</time>
      </trkpt>
      <trkpt lat="42.59638" lon="-0.84864">
        <time>2022-07-30T11:27:09Z</time>
      </trkpt>
      <trkpt lat="42.59622" lon="-0.84842">
        <time>2022-07-30T11:27:10Z</time>
      </trkpt>
      <trkpt lat="42.59606" lon="-0.8482">
        <time>2022-07-30T11:27:11Z</time>
      </trkpt>
      <trkpt lat="42.5959" lon="-0.84799">
        <time>2022-07-30T11:27:12Z</time>
      </trkpt>
      <trkpt lat="42.59575" lon="-0.84777">
        <time>2022-07-30T11:27:13Z</time>
      </trkpt>
      <trkpt lat="42.59559" lon="-0.84755">
        <time>2022-07-30T11:27:14Z</time>
      </trkpt>
      <trkpt lat="42.59543" lon="-0.84734">
        <time>2022-07-30T11:27:15Z</time>
      </trkpt>
      <trkpt lat="42.59528" lon="-0.84713">
        <time>2022-07-30T11:27:16Z</time>
      </trkpt>
      <trkpt lat="42.59512" lon="-0.84691">
        <time>2022-07-30T11:27:17Z</time>
      </trkpt>
      <trkpt lat="42.59497" lon="-0.8467">
        <time>2022-07-30T11:27:18Z</time>
      </trkpt>
      <trkpt lat="42.59481" lon="-0.84648">
        <time>2022-07-30T11:27:19Z</time>
      </trkpt>
      <trkpt lat="42.59466" lon="-0.84626">
        <time>2022-07-30T11:27:20Z</time>
      </trkpt>
      <trkpt lat="42.5945" lon="-0.84605">
        <time>2022-07-30T11:27:21Z</time>
      </trkpt>
      <trkpt lat="42.59435" lon="-0.84583">
        <time>2022-07-30T11:27:22Z</time>
      </trkpt>
      <trkpt lat="42.59419" lon="-0.84561">
        <time>2022-07-30T11:27:23Z</time>
      </trkpt>
      <trkpt lat="42.59403" lon="-0.84539">
        <time>2022-07-30T11:27:24Z</time>
      </trkpt>
      <trkpt lat="42.59387" lon="-0.84517">
        <time>2022-07-30T11:27:25Z</time>
      </trkpt>
      <trkpt lat="42.59371" lon="-0.84495">
        <time>2022-07-30T11:27:26Z</time>
      </trkpt>
      <trkpt lat="42.59354" lon="-0.84473">
        <time>2022-07-30T11:27:27Z</time>
      </trkpt>
      <trkpt lat="42.59338" lon="-0.84451">
        <time>2022-07-30T11:27:28Z</time>
      </trkpt>
      <trkpt lat="42.59321" lon="-0.84428">
        <time>2022-07-30T11:27:29Z</time>
      </trkpt>
      <trkpt lat="42.59305" lon="-0.84404">
        <time>2022-07-30T11:27:30Z</time>
      </trkpt>
      <trkpt lat="42.59288" lon="-0.84381">
        <time>2022-07-30T11:27:31Z</time>
      </trkpt>
      <trkpt lat="42.59271" lon="-0.84357">
        <time>2022-07-30T11:27:32Z</time>
      </trkpt>
      <trkpt lat="42.59254" lon="-0.84333">
        <time>2022-07-30T11:27:33Z</time>
      </trkpt>
      <trkpt lat="42.59237" lon="-0.84309">
        <time>2022-07-30T11:27:34Z</time>
      </trkpt>
      <trkpt lat="42.59221" lon="-0.84285">
        <time>2022-07-30T11:27:35Z</time>
      </trkpt>
      <trkpt lat="42.59204" lon="-0.84262">
        <time>2022-07-30T11:27:36Z</time>
      </trkpt>
      <trkpt lat="42.59187" lon="-0.84239">
        <time>2022-07-30T11:27:37Z</time>
      </trkpt>
      <trkpt lat="42.59171" lon="-0.84216">
        <time>2022-07-30T11:27:38Z</time>
      </trkpt>
      <trkpt lat="42.59155" lon="-0.84194">
        <time>2022-07-30T11:27:39Z</time>
      </trkpt>
      <trkpt lat="42.5914" lon="-0.84172">
        <time>2022-07-30T11:27:40Z</time>
      </trkpt>
      <trkpt lat="42.59124" lon="-0.84151">
        <time>2022-07-30T11:27:41Z</time>
      </trkpt>
      <trkpt lat="42.59109" lon="-0.84129">
        <time>2022-07-30T11:27:42Z</time>
      </trkpt>
      <trkpt lat="42.59093" lon="-0.84108">
        <time>2022-07-30T11:27:43Z</time>
      </trkpt>
      <trkpt lat="42.59078" lon="-0.84087">
        <time>2022-07-30T11:27:44Z</time>
      </trkpt>
      <trkpt lat="42.59062" lon="-0.84066">
        <time>2022-07-30T11:27:45Z</time>
      </trkpt>
      <trkpt lat="42.59047" lon="-0.84045">
        <time>2022-07-30T11:27:46Z</time>
      </trkpt>
      <trkpt lat="42.59032" lon="-0.84024">
        <time>2022-07-30T11:27:47Z</time>
      </trkpt>
      <trkpt lat="42.59018" lon="-0.84005">
        <time>2022-07-30T11:27:48Z</time>
      </trkpt>
      <trkpt lat="42.59005" lon="-0.83986">
        <time>2022-07-30T11:27:49Z</time>
      </trkpt>
      <trkpt lat="42.58992" lon="-0.83968">
        <time>2022-07-30T11:27:50Z</time>
      </trkpt>
      <trkpt lat="42.58979" lon="-0.83951">
        <time>2022-07-30T11:27:51Z</time>
      </trkpt>
      <trkpt lat="42.58966" lon="-0.83934">
        <time>2022-07-30T11:27:52Z</time>
      </trkpt>
      <trkpt lat="42.58955" lon="-0.83919">
        <time>2022-07-30T11:27:53Z</time>
      </trkpt>
      <trkpt lat="42.58945" lon="-0.83904">
        <time>2022-07-30T11:27:54Z</time>
      </trkpt>
      <trkpt lat="42.58938" lon="-0.8389">
        <time>2022-07-30T11:27:55Z</time>
      </trkpt>
      <trkpt lat="42.58934" lon="-0.83875">
        <time>2022-07-30T11:27:56Z</time>
      </trkpt>
      <trkpt lat="42.58934" lon="-0.83858">
        <time>2022-07-30T11:27:57Z</time>
      </trkpt>
      <trkpt lat="42.58938" lon="-0.83841">
        <time>2022-07-30T11:27:58Z</time>
      </trkpt>
      <trkpt lat="42.58946" lon="-0.83825">
        <time>2022-07-30T11:27:59Z</time>
      </trkpt>
      <trkpt lat="42.58958" lon="-0.8381">
        <time>2022-07-30T11:28:00Z</time>
      </trkpt>
      <trkpt lat="42.58971" lon="-0.83795">
        <time>2022-07-30T11:28:01Z</time>
      </trkpt>
      <trkpt lat="42.58984" lon="-0.8378">
        <time>2022-07-30T11:28:02Z</time>
      </trkpt>
      <trkpt lat="42.58996" lon="-0.83766">
        <time>2022-07-30T11:28:03Z</time>
      </trkpt>
      <trkpt lat="42.59006" lon="-0.83752">
        <time>2022-07-30T11:28:04Z</time>
      </trkpt>
      <trkpt lat="42.59014" lon="-0.83736">
        <time>2022-07-30T11:28:05Z</time>
      </trkpt>
      <trkpt lat="42.59019" lon="-0.83719">
        <time>2022-07-30T11:28:06Z</time>
      </trkpt>
      <trkpt lat="42.59022" lon="-0.83698">
        <time>2022-07-30T11:28:07Z</time>
      </trkpt>
      <trkpt lat="42.59021" lon="-0.83675">
        <time>2022-07-30T11:28:08Z</time>
      </trkpt>
      <trkpt lat="42.59017" lon="-0.83653">
        <time>2022-07-30T11:28:09Z</time>
      </trkpt>
      <trkpt lat="42.5901" lon="-0.83633">
        <time>2022-07-30T11:28:10Z</time>
      </trkpt>
      <trkpt lat="42.59" lon="-0.83614">
        <time>2022-07-30T11:28:11Z</time>
      </trkpt>
      <trkpt lat="42.58988" lon="-0.83598">
        <time>2022-07-30T11:28:12Z</time>
      </trkpt>
      <trkpt lat="42.58974" lon="-0.83587">
        <time>2022-07-30T11:28:13Z</time>
      </trkpt>
      <trkpt lat="42.5896" lon="-0.83579">
        <time>2022-07-30T11:28:14Z</time>
      </trkpt>
      <trkpt lat="42.58944" lon="-0.83577">
        <time>2022-07-30T11:28:15Z</time>
      </trkpt>
      <trkpt lat="42.58928" lon="-0.8358">
        <time>2022-07-30T11:28:16Z</time>
      </trkpt>
      <trkpt lat="42.58911" lon="-0.83588">
        <time>2022-07-30T11:28:17Z</time>
      </trkpt>
      <trkpt lat="42.58895" lon="-0.83595">
        <time>2022-07-30T11:28:18Z</time>
      </trkpt>
      <trkpt lat="42.58878" lon="-0.83602">
        <time>2022-07-30T11:28:19Z</time>
      </trkpt>
      <trkpt lat="42.58862" lon="-0.83608">
        <time>2022-07-30T11:28:20Z</time>
      </trkpt>
      <trkpt lat="42.58846" lon="-0.8361">
        <time>2022-07-30T11:28:21Z</time>
      </trkpt>
      <trkpt lat="42.5883" lon="-0.83608">
        <time>2022-07-30T11:28:22Z</time>
      </trkpt>
      <trkpt lat="42.58815" lon="-0.836">
        <time>2022-07-30T11:28:23Z</time>
      </trkpt>
      <trkpt lat="42.58802" lon="-0.83587">
        <time>2022-07-30T11:28:24Z</time>
      </trkpt>
      <trkpt lat="42.58791" lon="-0.8357">
        <time>2022-07-30T11:28:25Z</time>
      </trkpt>
      <trkpt lat="42.58781" lon="-0.83549">
        <time>2022-07-30T11:28:26Z</time>
      </trkpt>
      <trkpt lat="42.58771" lon="-0.83526">
        <time>2022-07-30T11:28:27Z</time>
      </trkpt>
      <trkpt lat="42.5876" lon="-0.83502">
        <time>2022-07-30T11:28:28Z</time>
      </trkpt>
      <trkpt lat="42.58749" lon="-0.83477">
        <time>2022-07-30T11:28:29Z</time>
      </trkpt>
      <trkpt lat="42.58737" lon="-0.83453">
        <time>2022-07-30T11:28:30Z</time>
      </trkpt>
      <trkpt lat="42.58725" lon="-0.83427">
        <time>2022-07-30T11:28:31Z</time>
      </trkpt>
      <trkpt lat="42.58714" lon="-0.83403">
        <time>2022-07-30T11:28:32Z</time>
      </trkpt>
      <trkpt lat="42.58704" lon="-0.8338">
        <time>2022-07-30T11:28:33Z</time>
      </trkpt>
      <trkpt lat="42.58694" lon="-0.83358">
        <time>2022-07-30T11:28:34Z</time>
      </trkpt>
      <trkpt lat="42.58684" lon="-0.83338">
        <time>2022-07-30T11:28:35Z</time>
      </trkpt>
      <trkpt lat="42.58675" lon="-0.83319">
        <time>2022-07-30T11:28:36Z</time>
      </trkpt>
      <trkpt lat="42.58666" lon="-0.83301">
        <time>2022-07-30T11:28:37Z</time>
      </trkpt>
      <trkpt lat="42.58655" lon="-0.83286">
        <time>2022-07-30T11:28:38Z</time>
      </trkpt>
      <trkpt lat="42.58642" lon="-0.83273">
        <time>2022-07-30T11:28:39Z</time>
      </trkpt>
      <trkpt lat="42.58626" lon="-0.8326">
        <time>2022-07-30T11:28:40Z</time>
      </trkpt>
      <trkpt lat="42.58607" lon="-0.83249">
        <time>2022-07-30T11:28:41Z</time>
      </trkpt>
      <trkpt lat="42.58588" lon="-0.83237">
        <time>2022-07-30T11:28:42Z</time>
      </trkpt>
      <trkpt lat="42.58568" lon="-0.83226">
        <time>2022-07-30T11:28:43Z</time>
      </trkpt>
      <trkpt lat="42.58548" lon="-0.83215">
        <time>2022-07-30T11:28:44Z</time>
      </trkpt>
      <trkpt lat="42.58528" lon="-0.83204">
        <time>2022-07-30T11:28:45Z</time>
      </trkpt>
      <trkpt lat="42.58508" lon="-0.83193">
        <time>2022-07-30T11:28:46Z</time>
      </trkpt>
      <trkpt lat="42.58488" lon="-0.83182">
        <time>2022-07-30T11:28:47Z</time>
      </trkpt>
      <trkpt lat="42.58471" lon="-0.83172">
        <time>2022-07-30T11:28:48Z</time>
      </trkpt>
      <trkpt lat="42.58454" lon="-0.83163">
        <time>2022-07-30T11:28:49Z</time>
      </trkpt>
      <trkpt lat="42.58438" lon="-0.83154">
        <time>2022-07-30T11:28:50Z</time>
      </trkpt>
      <trkpt lat="42.58423" lon="-0.83145">
        <time>2022-07-30T11:28:51Z</time>
      </trkpt>
      <trkpt lat="42.58407" lon="-0.83133">
        <time>2022-07-30T11:28:52Z</time>
      </trkpt>
      <trkpt lat="42.58391" lon="-0.83117">
        <time>2022-07-30T11:28:53Z</time>
      </trkpt>
      <trkpt lat="42.58376" lon="-0.83098">
        <time>2022-07-30T11:28:54Z</time>
      </trkpt>
      <trkpt lat="42.58359" lon="-0.83078">
        <time>2022-07-30T11:28:55Z</time>
      </trkpt>
      <trkpt lat="42.58342" lon="-0.83058">
        <time>2022-07-30T11:28:56Z</time>
      </trkpt>
      <trkpt lat="42.58325" lon="-0.83039">
        <time>2022-07-30T11:28:57Z</time>
      </trkpt>
      <trkpt lat="42.58309" lon="-0.83019">
        <time>2022-07-30T11:28:58Z</time>
      </trkpt>
      <trkpt lat="42.58292" lon="-0.82999">
        <time>2022-07-30T11:28:59Z</time>
      </trkpt>
      <trkpt lat="42.58275" lon="-0.82979">
        <time>2022-07-30T11:29:00Z</time>
      </trkpt>
      <trkpt lat="42.58259" lon="-0.82959">
        <time>2022-07-30T11:29:01Z</time>
      </trkpt>
      <trkpt lat="42.58242" lon="-0.82939">
        <time>2022-07-30T11:29:02Z</time>
      </trkpt>
      <trkpt lat="42.58225" lon="-0.82918">
        <time>2022-07-30T11:29:03Z</time>
      </trkpt>
      <trkpt lat="42.58208" lon="-0.82898">
        <time>2022-07-30T11:29:04Z</time>
      </trkpt>
      <trkpt lat="42.58191" lon="-0.82879">
        <time>2022-07-30T11:29:05Z</time>
      </trkpt>
      <trkpt lat="42.58174" lon="-0.82859">
        <time>2022-07-30T11:29:06Z</time>
      </trkpt>
      <trkpt lat="42.58158" lon="-0.8284">
        <time>2022-07-30T11:29:07Z</time>
      </trkpt>
      <trkpt lat="42.58143" lon="-0.8282">
        <time>2022-07-30T11:29:08Z</time>
      </trkpt>
      <trkpt lat="42.58127" lon="-0.828">
        <time>2022-07-30T11:29:09Z</time>
      </trkpt>
      <trkpt lat="42.58113" lon="-0.82778">
        <time>2022-07-30T11:29:10Z</time>
      </trkpt>
      <trkpt lat="42.58099" lon="-0.82754">
        <time>2022-07-30T11:29:11Z</time>
      </trkpt>
      <trkpt lat="42.58087" lon="-0.82732">
        <time>2022-07-30T11:29:12Z</time>
      </trkpt>
      <trkpt lat="42.58075" lon="-0.82711">
        <time>2022-07-30T11:29:13Z</time>
      </trkpt>
      <trkpt lat="42.58063" lon="-0.82691">
        <time>2022-07-30T11:29:14Z</time>
      </trkpt>
      <trkpt lat="42.5805" lon="-0.82672">
        <time>2022-07-30T11:29:15Z</time>
      </trkpt>
      <trkpt lat="42.58037" lon="-0.82653">
        <time>2022-07-30T11:29:16Z</time>
      </trkpt>
      <trkpt lat="42.58023" lon="-0.82634">
        <time>2022-07-30T11:29:17Z</time>
      </trkpt>
      <trkpt lat="42.58008" lon="-0.82614">
        <time>2022-07-30T11:29:18Z</time>
      </trkpt>
      <trkpt lat="42.57993" lon="-0.82594">
        <time>2022-07-30T11:29:19Z</time>
      </trkpt>
      <trkpt lat="42.57978" lon="-0.82573">
        <time>2022-07-30T11:29:20Z</time>
      </trkpt>
      <trkpt lat="42.57963" lon="-0.82553">
        <time>2022-07-30T11:29:21Z</time>
      </trkpt>
      <trkpt lat="42.57948" lon="-0.82532">
        <time>2022-07-30T11:29:22Z</time>
      </trkpt>
      <trkpt lat="42.57933" lon="-0.82511">
        <time>2022-07-30T11:29:23Z</time>
      </trkpt>
      <trkpt lat="42.57918" lon="-0.8249">
        <time>2022-07-30T11:29:24Z</time>
      </trkpt>
      <trkpt lat="42.57903" lon="-0.8247">
        <time>2022-07-30T11:29:25Z</time>
      </trkpt>
      <trkpt lat="42.57888" lon="-0.82449">
        <time>2022-07-30T11:29:26Z</time>
      </trkpt>
      <trkpt lat="42.57873" lon="-0.82429">
        <time>2022-07-30T11:29:27Z</time>
      </trkpt>
      <trkpt lat="42.57858" lon="-0.82409">
        <time>2022-07-30T11:29:28Z</time>
      </trkpt>
      <trkpt lat="42.57844" lon="-0.82389">
        <time>2022-07-30T11:29:29Z</time>
      </trkpt>
      <trkpt lat="42.57829" lon="-0.82369">
        <time>2022-07-30T11:29:30Z</time>
      </trkpt>
      <trkpt lat="42.57815" lon="-0.8235">
        <time>2022-07-30T11:29:31Z</time>
      </trkpt>
      <trkpt lat="42.57802" lon="-0.82332">
        <time>2022-07-30T11:29:32Z</time>
      </trkpt>
      <trkpt lat="42.5779" lon="-0.82314">
        <time>2022-07-30T11:29:33Z</time>
      </trkpt>
      <trkpt lat="42.57778" lon="-0.82298">
        <time>2022-07-30T11:29:34Z</time>
      </trkpt>
      <trkpt lat="42.57769" lon="-0.82283">
        <time>2022-07-30T11:29:35Z</time>
      </trkpt>
      <trkpt lat="42.57761" lon="-0.82269">
        <time>2022-07-30T11:29:36Z</time>
      </trkpt>
      <trkpt lat="42.57756" lon="-0.82254">
        <time>2022-07-30T11:29:37Z</time>
      </trkpt>
      <trkpt lat="42.57754" lon="-0.82235">
        <time>2022-07-30T11:29:38Z</time>
      </trkpt>
      <trkpt lat="42.57754" lon="-0.82213">
        <time>2022-07-30T11:29:39Z</time>
      </trkpt>
      <trkpt lat="42.57756" lon="-0.82191">
        <time>2022-07-30T11:29:40Z</time>
      </trkpt>
      <trkpt lat="42.57758" lon="-0.82169">
        <time>2022-07-30T11:29:41Z</time>
      </trkpt>
      <trkpt lat="42.5776" lon="-0.82149">
        <time>2022-07-30T11:29:42Z</time>
      </trkpt>
      <trkpt lat="42.57762" lon="-0.82131">
        <time>2022-07-30T11:29:43Z</time>
      </trkpt>
      <trkpt lat="42.57764" lon="-0.82114">
        <time>2022-07-30T11:29:44Z</time>
      </trkpt>
      <trkpt lat="42.57765" lon="-0.82099">
        <time>2022-07-30T11:29:45Z</time>
      </trkpt>
      <trkpt lat="42.57764" lon="-0.82085">
        <time>2022-07-30T11:29:46Z</time>
      </trkpt>
      <trkpt lat="42.5776" lon="-0.82072">
        <time>2022-07-30T11:29:47Z</time>
      </trkpt>
      <trkpt lat="42.57754" lon="-0.82061">
        <time>2022-07-30T11:29:48Z</time>
      </trkpt>
      <trkpt lat="42.57744" lon="-0.82055">
        <time>2022-07-30T11:29:49Z</time>
      </trkpt>
      <trkpt lat="42.57734" lon="-0.82054">
        <time>2022-07-30T11:29:50Z</time>
      </trkpt>
      <trkpt lat="42.57723" lon="-0.8206">
        <time>2022-07-30T11:29:51Z</time>
      </trkpt>
      <trkpt lat="42.57713" lon="-0.82072">
        <time>2022-07-30T11:29:52Z</time>
      </trkpt>
      <trkpt lat="42.57704" lon="-0.82088">
        <time>2022-07-30T11:29:53Z</time>
      </trkpt>
      <trkpt lat="42.57695" lon="-0.82107">
        <time>2022-07-30T11:29:54Z</time>
      </trkpt>
      <trkpt lat="42.57686" lon="-0.82126">
        <time>2022-07-30T11:29:55Z</time>
      </trkpt>
      <trkpt lat="42.57678" lon="-0.82144">
        <time>2022-07-30T11:29:56Z</time>
      </trkpt>
      <trkpt lat="42.5767" lon="-0.82162">
        <time>2022-07-30T11:29:57Z</time>
      </trkpt>
      <trkpt lat="42.57661" lon="-0.82179">
        <time>2022-07-30T11:29:58Z</time>
      </trkpt>
      <trkpt lat="42.57652" lon="-0.82195">
        <time>2022-07-30T11:29:59Z</time>
      </trkpt>
      <trkpt lat="42.5764" lon="-0.82208">
        <time>2022-07-30T11:30:00Z</time>
      </trkpt>
      <trkpt lat="42.57626" lon="-0.82217">
        <time>2022-07-30T11:30:01Z</time>
      </trkpt>
      <trkpt lat="42.5761" lon="-0.82223">
        <time>2022-07-30T11:30:02Z</time>
      </trkpt>
      <trkpt lat="42.57593" lon="-0.82225">
        <time>2022-07-30T11:30:03Z</time>
      </trkpt>
      <trkpt lat="42.57576" lon="-0.82226">
        <time>2022-07-30T11:30:04Z</time>
      </trkpt>
      <trkpt lat="42.57561" lon="-0.82227">
        <time>2022-07-30T11:30:05Z</time>
      </trkpt>
      <trkpt lat="42.57546" lon="-0.82229">
        <time>2022-07-30T11:30:06Z</time>
      </trkpt>
      <trkpt lat="42.57532" lon="-0.82233">
        <time>2022-07-30T11:30:07Z</time>
      </trkpt>
      <trkpt lat="42.57519" lon="-0.82245">
        <time>2022-07-30T11:30:08Z</time>
      </trkpt>
      <trkpt lat="42.57508" lon="-0.82261">
        <time>2022-07-30T11:30:09Z</time>
      </trkpt>
      <trkpt lat="42.57498" lon="-0.82279">
        <time>2022-07-30T11:30:10Z</time>
      </trkpt>
      <trkpt lat="42.57488" lon="-0.82295">
        <time>2022-07-30T11:30:11Z</time>
      </trkpt>
      <trkpt lat="42.57479" lon="-0.82309">
        <time>2022-07-30T11:30:12Z</time>
      </trkpt>
      <trkpt lat="42.57469" lon="-0.82321">
        <time>2022-07-30T11:30:13Z</time>
      </trkpt>
      <trkpt lat="42.57458" lon="-0.8233">
        <time>2022-07-30T11:30:14Z</time>
      </trkpt>
      <trkpt lat="42.57446" lon="-0.82334">
        <time>2022-07-30T11:30:15Z</time>
      </trkpt>
      <trkpt lat="42.57435" lon="-0.82335">
        <time>2022-07-30T11:30:16Z</time>
      </trkpt>
      <trkpt lat="42.57424" lon="-0.82331">
        <time>2022-07-30T11:30:17Z</time>
      </trkpt>
      <trkpt lat="42.57414" lon="-0.82322">
        <time>2022-07-30T11:30:18Z</time>
      </trkpt>
      <trkpt lat="42.57405" lon="-0.82307">
        <time>2022-07-30T11:30:19Z</time>
      </trkpt>
      <trkpt lat="42.57396" lon="-0.82288">
        <time>2022-07-30T11:30:20Z</time>
      </trkpt>
      <trkpt lat="42.57387" lon="-0.82266">
        <time>2022-07-30T11:30:21Z</time>
      </trkpt>
      <trkpt lat="42.57377" lon="-0.82245">
        <time>2022-07-30T11:30:22Z</time>
      </trkpt>
      <trkpt lat="42.57367" lon="-0.82222">
        <time>2022-07-30T11:30:23Z</time>
      </trkpt>
      <trkpt lat="42.57356" lon="-0.82197">
        <time>2022-07-30T11:30:24Z</time>
      </trkpt>
      <trkpt lat="42.57346" lon="-0.82172">
        <time>2022-07-30T11:30:25Z</time>
      </trkpt>
      <trkpt lat="42.57335" lon="-0.82146">
        <time>2022-07-30T11:30:26Z</time>
      </trkpt>
      <trkpt lat="42.57324" lon="-0.82121">
        <time>2022-07-30T11:30:27Z</time>
      </trkpt>
      <trkpt lat="42.57313" lon="-0.82096">
        <time>2022-07-30T11:30:28Z</time>
      </trkpt>
      <trkpt lat="42.57303" lon="-0.8207">
        <time>2022-07-30T11:30:29Z</time>
      </trkpt>
      <trkpt lat="42.57292" lon="-0.82044">
        <time>2022-07-30T11:30:30Z</time>
      </trkpt>
      <trkpt lat="42.57281" lon="-0.82017">
        <time>2022-07-30T11:30:31Z</time>
      </trkpt>
      <trkpt lat="42.5727" lon="-0.8199">
        <time>2022-07-30T11:30:32Z</time>
      </trkpt>
      <trkpt lat="42.57259" lon="-0.81963">
        <time>2022-07-30T11:30:33Z</time>
      </trkpt>
      <trkpt lat="42.57246" lon="-0.81936">
        <time>2022-07-30T11:30:34Z</time>
      </trkpt>
      <trkpt lat="42.57234" lon="-0.8191">
        <time>2022-07-30T11:30:35Z</time>
      </trkpt>
      <trkpt lat="42.57222" lon="-0.81886">
        <time>2022-07-30T11:30:36Z</time>
      </trkpt>
      <trkpt lat="42.57211" lon="-0.81864">
        <time>2022-07-30T11:30:37Z</time>
      </trkpt>
      <trkpt lat="42.572" lon="-0.81844">
        <time>2022-07-30T11:30:38Z</time>
      </trkpt>
      <trkpt lat="42.57187" lon="-0.81826">
        <time>2022-07-30T11:30:39Z</time>
      </trkpt>
      <trkpt lat="42.57173" lon="-0.81811">
        <time>2022-07-30T11:30:40Z</time>
      </trkpt>
      <trkpt lat="42.57158" lon="-0.818">
        <time>2022-07-30T11:30:41Z</time>
      </trkpt>
      <trkpt lat="42.57143" lon="-0.81789">
        <time>2022-07-30T11:30:42Z</time>
      </trkpt>
      <trkpt lat="42.5713" lon="-0.81776">
        <time>2022-07-30T11:30:43Z</time>
      </trkpt>
      <trkpt lat="42.57117" lon="-0.8176">
        <time>2022-07-30T11:30:44Z</time>
      </trkpt>
      <trkpt lat="42.57106" lon="-0.8174">
        <time>2022-07-30T11:30:45Z</time>
      </trkpt>
      <trkpt lat="42.57096" lon="-0.81717">
        <time>2022-07-30T11:30:46Z</time>
      </trkpt>
      <trkpt lat="42.57088" lon="-0.81692">
        <time>2022-07-30T11:30:47Z</time>
      </trkpt>
      <trkpt lat="42.57081" lon="-0.81664">
        <time>2022-07-30T11:30:48Z</time>
      </trkpt>
      <trkpt lat="42.57074" lon="-0.81634">
        <time>2022-07-30T11:30:49Z</time>
      </trkpt>
      <trkpt lat="42.57067" lon="-0.81604">
        <time>2022-07-30T11:30:50Z</time>
      </trkpt>
      <trkpt lat="42.5706" lon="-0.81574">
        <time>2022-07-30T11:30:51Z</time>
      </trkpt>
      <trkpt lat="42.57053" lon="-0.81543">
        <time>2022-07-30T11:30:52Z</time>
      </trkpt>
      <trkpt lat="42.57047" lon="-0.81514">
        <time>2022-07-30T11:30:53Z</time>
      </trkpt>
      <trkpt lat="42.5704" lon="-0.81484">
        <time>2022-07-30T11:30:54Z</time>
      </trkpt>
      <trkpt lat="42.57033" lon="-0.81455">
        <time>2022-07-30T11:30:55Z</time>
      </trkpt>
      <trkpt lat="42.57026" lon="-0.81426">
        <time>2022-07-30T11:30:56Z</time>
      </trkpt>
      <trkpt lat="42.57019" lon="-0.81397">
        <time>2022-07-30T11:30:57Z</time>
      </trkpt>
      <trkpt lat="42.57013" lon="-0.81368">
        <time>2022-07-30T11:30:58Z</time>
      </trkpt>
      <trkpt lat="42.57006" lon="-0.81339">
        <time>2022-07-30T11:30:59Z</time>
      </trkpt>
      <trkpt lat="42.57" lon="-0.81311">
        <time>2022-07-30T11:31:00Z</time>
      </trkpt>
      <trkpt lat="42.56993" lon="-0.81281">
        <time>2022-07-30T11:31:01Z</time>
      </trkpt>
      <trkpt lat="42.56986" lon="-0.81253">
        <time>2022-07-30T11:31:02Z</time>
      </trkpt>
      <trkpt lat="42.56978" lon="-0.81224">
        <time>2022-07-30T11:31:03Z</time>
      </trkpt>
      <trkpt lat="42.56969" lon="-0.81194">
        <time>2022-07-30T11:31:04Z</time>
      </trkpt>
      <trkpt lat="42.56958" lon="-0.81166">
        <time>2022-07-30T11:31:05Z</time>
      </trkpt>
      <trkpt lat="42.56948" lon="-0.81137">
        <time>2022-07-30T11:31:06Z</time>
      </trkpt>
      <trkpt lat="42.56937" lon="-0.81109">
        <time>2022-07-30T11:31:07Z</time>
      </trkpt>
      <trkpt lat="42.56927" lon="-0.81081">
        <time>2022-07-30T11:31:08Z</time>
      </trkpt>
      <trkpt lat="42.56917" lon="-0.81053">
        <time>2022-07-30T11:31:09Z</time>
      </trkpt>
      <trkpt lat="42.56906" lon="-0.81025">
        <time>2022-07-30T11:31:10Z</time>
      </trkpt>
      <trkpt lat="42.56896" lon="-0.80998">
        <time>2022-07-30T11:31:11Z</time>
      </trkpt>
      <trkpt lat="42.56886" lon="-0.80971">
        <time>2022-07-30T11:31:12Z</time>
      </trkpt>
      <trkpt lat="42.56876" lon="-0.80945">
        <time>2022-07-30T11:31:13Z</time>
      </trkpt>
      <trkpt lat="42.56866" lon="-0.80918">
        <time>2022-07-30T11:31:14Z</time>
      </trkpt>
      <trkpt lat="42.56856" lon="-0.80891">
        <time>2022-07-30T11:31:15Z</time>
      </trkpt>
      <trkpt lat="42.56845" lon="-0.80863">
        <time>2022-07-30T11:31:16Z</time>
      </trkpt>
      <trkpt lat="42.56833" lon="-0.80836">
        <time>2022-07-30T11:31:17Z</time>
      </trkpt>
      <trkpt lat="42.5682" lon="-0.80809">
        <time>2022-07-30T11:31:18Z</time>
      </trkpt>
      <trkpt lat="42.56807" lon="-0.80781">
        <time>2022-07-30T11:31:19Z</time>
      </trkpt>
      <trkpt lat="42.56794" lon="-0.80753">
        <time>2022-07-30T11:31:20Z</time>
      </trkpt>
      <trkpt lat="42.5678" lon="-0.80726">
        <time>2022-07-30T11:31:21Z</time>
      </trkpt>
      <trkpt lat="42.56766" lon="-0.80698">
        <time>2022-07-30T11:31:22Z</time>
      </trkpt>
      <trkpt lat="42.56752" lon="-0.80671">
        <time>2022-07-30T11:31:23Z</time>
      </trkpt>
      <trkpt lat="42.56739" lon="-0.80643">
        <time>2022-07-30T11:31:24Z</time>
      </trkpt>
      <trkpt lat="42.56725" lon="-0.80616">
        <time>2022-07-30T11:31:25Z</time>
      </trkpt>
      <trkpt lat="42.56711" lon="-0.80588">
        <time>2022-07-30T11:31:26Z</time>
      </trkpt>
      <trkpt lat="42.56698" lon="-0.80559">
        <time>2022-07-30T11:31:27Z</time>
      </trkpt>
      <trkpt lat="42.56684" lon="-0.80532">
        <time>2022-07-30T11:31:28Z</time>
      </trkpt>
      <trkpt lat="42.5667" lon="-0.80504">
        <time>2022-07-30T11:31:29Z</time>
      </trkpt>
      <trkpt lat="42.56657" lon="-0.80477">
        <time>2022-07-30T11:31:30Z</time>
      </trkpt>
      <trkpt lat="42.56644" lon="-0.80451">
        <time>2022-07-30T11:31:31Z</time>
      </trkpt>
      <trkpt lat="42.56631" lon="-0.80424">
        <time>2022-07-30T11:31:32Z</time>
      </trkpt>
      <trkpt lat="42.56618" lon="-0.80397">
        <time>2022-07-30T11:31:33Z</time>
      </trkpt>
      <trkpt lat="42.56605" lon="-0.8037">
        <time>2022-07-30T11:31:34Z</time>
      </trkpt>
      <trkpt lat="42.56591" lon="-0.80344">
        <time>2022-07-30T11:31:35Z</time>
      </trkpt>
      <trkpt lat="42.56578" lon="-0.80317">
        <time>2022-07-30T11:31:36Z</time>
      </trkpt>
      <trkpt lat="42.56565" lon="-0.80291">
        <time>2022-07-30T11:31:37Z</time>
      </trkpt>
      <trkpt lat="42.56552" lon="-0.80265">
        <time>2022-07-30T11:31:38Z</time>
      </trkpt>
      <trkpt lat="42.5654" lon="-0.80238">
        <time>2022-07-30T11:31:39Z</time>
      </trkpt>
      <trkpt lat="42.56527" lon="-0.80212">
        <time>2022-07-30T11:31:40Z</time>
      </trkpt>
      <trkpt lat="42.56514" lon="-0.80185">
        <time>2022-07-30T11:31:41Z</time>
      </trkpt>
      <trkpt lat="42.56501" lon="-0.80159">
        <time>2022-07-30T11:31:42Z</time>
      </trkpt>
      <trkpt lat="42.56489" lon="-0.80134">
        <time>2022-07-30T11:31:43Z</time>
      </trkpt>
      <trkpt lat="42.56477" lon="-0.80109">
        <time>2022-07-30T11:31:44Z</time>
      </trkpt>
      <trkpt lat="42.56465" lon="-0.80085">
        <time>2022-07-30T11:31:45Z</time>
      </trkpt>
      <trkpt lat="42.56453" lon="-0.80061">
        <time>2022-07-30T11:31:46Z</time>
      </trkpt>
      <trkpt lat="42.56441" lon="-0.80036">
        <time>2022-07-30T11:31:47Z</time>
      </trkpt>
      <trkpt lat="42.56429" lon="-0.80011">
        <time>2022-07-30T11:31:48Z</time>
      </trkpt>
      <trkpt lat="42.56418" lon="-0.79983">
        <time>2022-07-30T11:31:49Z</time>
      </trkpt>
      <trkpt lat="42.56409" lon="-0.79954">
        <time>2022-07-30T11:31:50Z</time>
      </trkpt>
      <trkpt lat="42.564" lon="-0.79923">
        <time>2022-07-30T11:31:51Z</time>
      </trkpt>
      <trkpt lat="42.56393" lon="-0.79891">
        <time>2022-07-30T11:31:52Z</time>
      </trkpt>
      <trkpt lat="42.56386" lon="-0.79858">
        <time>2022-07-30T11:31:53Z</time>
      </trkpt>
      <trkpt lat="42.56378" lon="-0.79825">
        <time>2022-07-30T11:31:54Z</time>
      </trkpt>
      <trkpt lat="42.56372" lon="-0.79792">
        <time>2022-07-30T11:31:55Z</time>
      </trkpt>
      <trkpt lat="42.56365" lon="-0.79758">
        <time>2022-07-30T11:31:56Z</time>
      </trkpt>
      <trkpt lat="42.56358" lon="-0.79725">
        <time>2022-07-30T11:31:57Z</time>
      </trkpt>
      <trkpt lat="42.5635" lon="-0.79692">
        <time>2022-07-30T11:31:58Z</time>
      </trkpt>
      <trkpt lat="42.56343" lon="-0.79659">
        <time>2022-07-30T11:31:59Z</time>
      </trkpt>
      <trkpt lat="42.56336" lon="-0.79626">
        <time>2022-07-30T11:32:00Z</time>
      </trkpt>
      <trkpt lat="42.56329" lon="-0.79594">
        <time>2022-07-30T11:32:01Z</time>
      </trkpt>
      <trkpt lat="42.56322" lon="-0.79562">
        <time>2022-07-30T11:32:02Z</time>
      </trkpt>
      <trkpt lat="42.56316" lon="-0.79531">
        <time>2022-07-30T11:32:03Z</time>
      </trkpt>
      <trkpt lat="42.56309" lon="-0.795">
        <time>2022-07-30T11:32:04Z</time>
      </trkpt>
      <trkpt lat="42.56302" lon="-0.7947">
        <time>2022-07-30T11:32:05Z</time>
      </trkpt>
      <trkpt lat="42.56296" lon="-0.7944">
        <time>2022-07-30T11:32:06Z</time>
      </trkpt>
      <trkpt lat="42.5629" lon="-0.7941">
        <time>2022-07-30T11:32:07Z</time>
      </trkpt>
      <trkpt lat="42.56283" lon="-0.79381">
        <time>2022-07-30T11:32:08Z</time>
      </trkpt>
      <trkpt lat="42.56277" lon="-0.79352">
        <time>2022-07-30T11:32:09Z</time>
      </trkpt>
      <trkpt lat="42.56271" lon="-0.79324">
        <time>2022-07-30T11:32:10Z</time>
      </trkpt>
      <trkpt lat="42.56266" lon="-0.79297">
        <time>2022-07-30T11:32:11Z</time>
      </trkpt>
      <trkpt lat="42.5626" lon="-0.79272">
        <time>2022-07-30T11:32:12Z</time>
      </trkpt>
      <trkpt lat="42.56255" lon="-0.79248">
        <time>2022-07-30T11:32:13Z</time>
      </trkpt>
      <trkpt lat="42.5625" lon="-0.79224">
        <time>2022-07-30T11:32:14Z</time>
      </trkpt>
      <trkpt lat="42.56245" lon="-0.79201">
        <time>2022-07-30T11:32:15Z</time>
      </trkpt>
      <trkpt lat="42.56241" lon="-0.79179">
        <time>2022-07-30T11:32:16Z</time>
      </trkpt>
      <trkpt lat="42.56236" lon="-0.79157">
        <time>2022-07-30T11:32:17Z</time>
      </trkpt>
      <trkpt lat="42.56232" lon="-0.79136">
        <time>2022-07-30T11:32:18Z</time>
      </trkpt>
      <trkpt lat="42.56227" lon="-0.79115">
        <time>2022-07-30T11:32:19Z</time>
      </trkpt>
      <trkpt lat="42.56223" lon="-0.79095">
        <time>2022-07-30T11:32:20Z</time>
      </trkpt>
      <trkpt lat="42.56219" lon="-0.79075">
        <time>2022-07-30T11:32:21Z</time>
      </trkpt>
      <trkpt lat="42.56214" lon="-0.79055">
        <time>2022-07-30T11:32:22Z</time>
      </trkpt>
      <trkpt lat="42.56208" lon="-0.79037">
        <time>2022-07-30T11:32:23Z</time>
      </trkpt>
      <trkpt lat="42.562" lon="-0.79019">
        <time>2022-07-30T11:32:24Z</time>
      </trkpt>
      <trkpt lat="42.56191" lon="-0.79002">
        <time>2022-07-30T11:32:25Z</time>
      </trkpt>
      <trkpt lat="42.56182" lon="-0.78987">
        <time>2022-07-30T11:32:26Z</time>
      </trkpt>
      <trkpt lat="42.56172" lon="-0.78973">
        <time>2022-07-30T11:32:27Z</time>
      </trkpt>
      <trkpt lat="42.56162" lon="-0.78959">
        <time>2022-07-30T11:32:28Z</time>
      </trkpt>
      <trkpt lat="42.56153" lon="-0.78945">
        <time>2022-07-30T11:32:29Z</time>
      </trkpt>
      <trkpt lat="42.56144" lon="-0.78932">
        <time>2022-07-30T11:32:30Z</time>
      </trkpt>
      <trkpt lat="42.56135" lon="-0.78918">
        <time>2022-07-30T11:32:31Z</time>
      </trkpt>
      <trkpt lat="42.56126" lon="-0.78905">
        <time>2022-07-30T11:32:32Z</time>
      </trkpt>
      <trkpt lat="42.56117" lon="-0.78893">
        <time>2022-07-30T11:32:33Z</time>
      </trkpt>
      <trkpt lat="42.56109" lon="-0.78881">
        <time>2022-07-30T11:32:34Z</time>
      </trkpt>
      <trkpt lat="42.56101" lon="-0.7887">
        <time>2022-07-30T11:32:35Z</time>
      </trkpt>
      <trkpt lat="42.56093" lon="-0.78859">
        <time>2022-07-30T11:32:36Z</time>
      </trkpt>
      <trkpt lat="42.56085" lon="-0.7885">
        <time>2022-07-30T11:32:37Z</time>
      </trkpt>
      <trkpt lat="42.56076" lon="-0.7884">
        <time>2022-07-30T11:32:38Z</time>
      </trkpt>
      <trkpt lat="42.56066" lon="-0.78832">
        <time>2022-07-30T11:32:39Z</time>
      </trkpt>
      <trkpt lat="42.56055" lon="-0.78824">
        <time>2022-07-30T11:32:40Z</time>
      </trkpt>
      <trkpt lat="42.56044" lon="-0.78816">
        <time>2022-07-30T11:32:41Z</time>
      </trkpt>
      <trkpt lat="42.56031" lon="-0.78809">
        <time>2022-07-30T11:32:42Z</time>
      </trkpt>
      <trkpt lat="42.56018" lon="-0.78802">
        <time>2022-07-30T11:32:43Z</time>
      </trkpt>
      <trkpt lat="42.56005" lon="-0.78795">
        <time>2022-07-30T11:32:44Z</time>
      </trkpt>
      <trkpt lat="42.55992" lon="-0.78789">
        <time>2022-07-30T11:32:45Z</time>
      </trkpt>
      <trkpt lat="42.55979" lon="-0.78783">
        <time>2022-07-30T11:32:46Z</time>
      </trkpt>
      <trkpt lat="42.55965" lon="-0.78777">
        <time>2022-07-30T11:32:47Z</time>
      </trkpt>
      <trkpt lat="42.55952" lon="-0.78771">
        <time>2022-07-30T11:32:48Z</time>
      </trkpt>
      <trkpt lat="42.55939" lon="-0.78764">
        <time>2022-07-30T11:32:49Z</time>
      </trkpt>
      <trkpt lat="42.55926" lon="-0.78759">
        <time>2022-07-30T11:32:50Z</time>
      </trkpt>
      <trkpt lat="42.55914" lon="-0.78752">
        <time>2022-07-30T11:32:51Z</time>
      </trkpt>
      <trkpt lat="42.55902" lon="-0.78747">
        <time>2022-07-30T11:32:52Z</time>
      </trkpt>
      <trkpt lat="42.5589" lon="-0.78741">
        <time>2022-07-30T11:32:53Z</time>
      </trkpt>
      <trkpt lat="42.55879" lon="-0.78736">
        <time>2022-07-30T11:32:54Z</time>
      </trkpt>
      <trkpt lat="42.55868" lon="-0.78731">
        <time>2022-07-30T11:32:55Z</time>
      </trkpt>
      <trkpt lat="42.55858" lon="-0.78726">
        <time>2022-07-30T11:32:56Z</time>
      </trkpt>
      <trkpt lat="42.55847" lon="-0.78721">
        <time>2022-07-30T11:32:57Z</time>
      </trkpt>
      <trkpt lat="42.55837" lon="-0.78716">
        <time>2022-07-30T11:32:58Z</time>
      </trkpt>
      <trkpt lat="42.55825" lon="-0.78711">
        <time>2022-07-30T11:32:59Z</time>
      </trkpt>
      <trkpt lat="42.55814" lon="-0.78706">
        <time>2022-07-30T11:33:00Z</time>
      </trkpt>
      <trkpt lat="42.55803" lon="-0.78701">
        <time>2022-07-30T11:33:01Z</time>
      </trkpt>
      <trkpt lat="42.55792" lon="-0.78696">
        <time>2022-07-30T11:33:02Z</time>
      </trkpt>
      <trkpt lat="42.55782" lon="-0.78691">
        <time>2022-07-30T11:33:03Z</time>
      </trkpt>
      <trkpt lat="42.55771" lon="-0.78687">
        <time>2022-07-30T11:33:04Z</time>
      </trkpt>
      <trkpt lat="42.55762" lon="-0.78683">
        <time>2022-07-30T11:33:05Z</time>
      </trkpt>
      <trkpt lat="42.55751" lon="-0.78678">
        <time>2022-07-30T11:33:06Z</time>
      </trkpt>
      <trkpt lat="42.55742" lon="-0.78673">
        <time>2022-07-30T11:33:07Z</time>
      </trkpt>
      <trkpt lat="42.55731" lon="-0.78669">
        <time>2022-07-30T11:33:08Z</time>
      </trkpt>
      <trkpt lat="42.55721" lon="-0.78664">
        <time>2022-07-30T11:33:09Z</time>
      </trkpt>
      <trkpt lat="42.5571" lon="-0.78659">
        <time>2022-07-30T11:33:10Z</time>
      </trkpt>
      <trkpt lat="42.557" lon="-0.78653">
        <time>2022-07-30T11:33:11Z</time>
      </trkpt>
      <trkpt lat="42.55689" lon="-0.78648">
        <time>2022-07-30T11:33:12Z</time>
      </trkpt>
      <trkpt lat="42.55678" lon="-0.78643">
        <time>2022-07-30T11:33:13Z</time>
      </trkpt>
      <trkpt lat="42.55668" lon="-0.78638">
        <time>2022-07-30T11:33:14Z</time>
      </trkpt>
      <trkpt lat="42.55659" lon="-0.78633">
        <time>2022-07-30T11:33:15Z</time>
      </trkpt>
      <trkpt lat="42.55649" lon="-0.78628">
        <time>2022-07-30T11:33:16Z</time>
      </trkpt>
      <trkpt lat="42.55641" lon="-0.78623">
        <time>2022-07-30T11:33:17Z</time>
      </trkpt>
      <trkpt lat="42.55633" lon="-0.78617">
        <time>2022-07-30T11:33:18Z</time>
      </trkpt>
      <trkpt lat="42.55626" lon="-0.78612">
        <time>2022-07-30T11:33:19Z</time>
      </trkpt>
      <trkpt lat="42.5562" lon="-0.78608">
        <time>2022-07-30T11:33:20Z</time>
      </trkpt>
      <trkpt lat="42.55613" lon="-0.78604">
        <time>2022-07-30T11:33:21Z</time>
      </trkpt>
      <trkpt lat="42.55606" lon="-0.78602">
        <time>2022-07-30T11:33:22Z</time>
      </trkpt>
      <trkpt lat="42.55596" lon="-0.78599">
        <time>2022-07-30T11:33:23Z</time>
      </trkpt>
      <trkpt lat="42.55585" lon="-0.78597">
        <time>2022-07-30T11:33:24Z</time>
      </trkpt>
      <trkpt lat="42.55574" lon="-0.78596">
        <time>2022-07-30T11:33:25Z</time>
      </trkpt>
      <trkpt lat="42.55564" lon="-0.78595">
        <time>2022-07-30T11:33:26Z</time>
      </trkpt>
      <trkpt lat="42.55555" lon="-0.78594">
        <time>2022-07-30T11:33:27Z</time>
      </trkpt>
      <trkpt lat="42.55546" lon="-0.78594">
        <time>2022-07-30T11:33:28Z</time>
      </trkpt>
      <trkpt lat="42.55537" lon="-0.78593">
        <time>2022-07-30T11:33:29Z</time>
      </trkpt>
      <trkpt lat="42.55528" lon="-0.78593">
        <time>2022-07-30T11:33:30Z</time>
      </trkpt>
      <trkpt lat="42.5552" lon="-0.78594">
        <time>2022-07-30T11:33:31Z</time>
      </trkpt>
      <trkpt lat="42.55511" lon="-0.78594">
        <time>2022-07-30T11:33:32Z</time>
      </trkpt>
      <trkpt lat="42.55503" lon="-0.78594">
        <time>2022-07-30T11:33:33Z</time>
      </trkpt>
      <trkpt lat="42.55494" lon="-0.78594">
        <time>2022-07-30T11:33:34Z</time>
      </trkpt>
      <trkpt lat="42.55486" lon="-0.78595">
        <time>2022-07-30T11:33:35Z</time>
      </trkpt>
      <trkpt lat="42.55477" lon="-0.78595">
        <time>2022-07-30T11:33:36Z</time>
      </trkpt>
      <trkpt lat="42.55468" lon="-0.78594">
        <time>2022-07-30T11:33:37Z</time>
      </trkpt>
      <trkpt lat="42.55459" lon="-0.78594">
        <time>2022-07-30T11:33:38Z</time>
      </trkpt>
      <trkpt lat="42.55451" lon="-0.78595">
        <time>2022-07-30T11:33:39Z</time>
      </trkpt>
      <trkpt lat="42.55443" lon="-0.78595">
        <time>2022-07-30T11:33:40Z</time>
      </trkpt>
      <trkpt lat="42.55435" lon="-0.78595">
        <time>2022-07-30T11:33:41Z</time>
      </trkpt>
      <trkpt lat="42.55428" lon="-0.78596">
        <time>2022-07-30T11:33:42Z</time>
      </trkpt>
      <trkpt lat="42.55422" lon="-0.78594">
        <time>2022-07-30T11:33:43Z</time>
      </trkpt>
      <trkpt lat="42.55417" lon="-0.78593">
        <time>2022-07-30T11:33:44Z</time>
      </trkpt>
      <trkpt lat="42.55412" lon="-0.78589">
        <time>2022-07-30T11:33:45Z</time>
      </trkpt>
      <trkpt lat="42.55409" lon="-0.78582">
        <time>2022-07-30T11:33:46Z</time>
      </trkpt>
      <trkpt lat="42.55406" lon="-0.7857">
        <time>2022-07-30T11:33:47Z</time>
      </trkpt>
      <trkpt lat="42.55405" lon="-0.78554">
        <time>2022-07-30T11:33:48Z</time>
      </trkpt>
      <trkpt lat="42.55405" lon="-0.78535">
        <time>2022-07-30T11:33:49Z</time>
      </trkpt>
      <trkpt lat="42.55405" lon="-0.78516">
        <time>2022-07-30T11:33:50Z</time>
      </trkpt>
      <trkpt lat="42.55404" lon="-0.78493">
        <time>2022-07-30T11:33:51Z</time>
      </trkpt>
      <trkpt lat="42.55403" lon="-0.78468">
        <time>2022-07-30T11:33:52Z</time>
      </trkpt>
      <trkpt lat="42.55402" lon="-0.78443">
        <time>2022-07-30T11:33:53Z</time>
      </trkpt>
      <trkpt lat="42.554" lon="-0.78416">
        <time>2022-07-30T11:33:54Z</time>
      </trkpt>
      <trkpt lat="42.55398" lon="-0.78388">
        <time>2022-07-30T11:33:55Z</time>
      </trkpt>
      <trkpt lat="42.55396" lon="-0.78358">
        <time>2022-07-30T11:33:56Z</time>
      </trkpt>
      <trkpt lat="42.55394" lon="-0.7833">
        <time>2022-07-30T11:33:57Z</time>
      </trkpt>
      <trkpt lat="42.55392" lon="-0.78301">
        <time>2022-07-30T11:33:58Z</time>
      </trkpt>
      <trkpt lat="42.5539" lon="-0.78272">
        <time>2022-07-30T11:33:59Z</time>
      </trkpt>
      <trkpt lat="42.55389" lon="-0.78244">
        <time>2022-07-30T11:34:00Z</time>
      </trkpt>
      <trkpt lat="42.55389" lon="-0.78216">
        <time>2022-07-30T11:34:01Z</time>
      </trkpt>
      <trkpt lat="42.55389" lon="-0.78189">
        <time>2022-07-30T11:34:02Z</time>
      </trkpt>
      <trkpt lat="42.55387" lon="-0.78161">
        <time>2022-07-30T11:34:03Z</time>
      </trkpt>
      <trkpt lat="42.55384" lon="-0.78134">
        <time>2022-07-30T11:34:04Z</time>
      </trkpt>
      <trkpt lat="42.5538" lon="-0.78106">
        <time>2022-07-30T11:34:05Z</time>
      </trkpt>
      <trkpt lat="42.55378" lon="-0.78079">
        <time>2022-07-30T11:34:06Z</time>
      </trkpt>
      <trkpt lat="42.55377" lon="-0.78052">
        <time>2022-07-30T11:34:07Z</time>
      </trkpt>
      <trkpt lat="42.55376" lon="-0.78025">
        <time>2022-07-30T11:34:08Z</time>
      </trkpt>
      <trkpt lat="42.55374" lon="-0.77999">
        <time>2022-07-30T11:34:09Z</time>
      </trkpt>
      <trkpt lat="42.55372" lon="-0.77972">
        <time>2022-07-30T11:34:10Z</time>
      </trkpt>
      <trkpt lat="42.55369" lon="-0.77946">
        <time>2022-07-30T11:34:11Z</time>
      </trkpt>
      <trkpt lat="42.55364" lon="-0.77921">
        <time>2022-07-30T11:34:12Z</time>
      </trkpt>
      <trkpt lat="42.55358" lon="-0.77899">
        <time>2022-07-30T11:34:13Z</time>
      </trkpt>
      <trkpt lat="42.55352" lon="-0.77877">
        <time>2022-07-30T11:34:14Z</time>
      </trkpt>
      <trkpt lat="42.55348" lon="-0.77855">
        <time>2022-07-30T11:34:15Z</time>
      </trkpt>
      <trkpt lat="42.55349" lon="-0.77833">
        <time>2022-07-30T11:34:16Z</time>
      </trkpt>
      <trkpt lat="42.55354" lon="-0.7781">
        <time>2022-07-30T11:34:17Z</time>
      </trkpt>
      <trkpt lat="42.55361" lon="-0.77787">
        <time>2022-07-30T11:34:18Z</time>
      </trkpt>
      <trkpt lat="42.55367" lon="-0.77764">
        <time>2022-07-30T11:34:19Z</time>
      </trkpt>
      <trkpt lat="42.5537" lon="-0.7774">
        <time>2022-07-30T11:34:20Z</time>
      </trkpt>
      <trkpt lat="42.5537" lon="-0.77713">
        <time>2022-07-30T11:34:21Z</time>
      </trkpt>
      <trkpt lat="42.55368" lon="-0.77687">
        <time>2022-07-30T11:34:22Z</time>
      </trkpt>
      <trkpt lat="42.55365" lon="-0.77661">
        <time>2022-07-30T11:34:23Z</time>
      </trkpt>
      <trkpt lat="42.55362" lon="-0.77636">
        <time>2022-07-30T11:34:24Z</time>
      </trkpt>
      <trkpt lat="42.55361" lon="-0.77611">
        <time>2022-07-30T11:34:25Z</time>
      </trkpt>
      <trkpt lat="42.55362" lon="-0.77586">
        <time>2022-07-30T11:34:26Z</time>
      </trkpt>
      <trkpt lat="42.55369" lon="-0.77561">
        <time>2022-07-30T11:34:27Z</time>
      </trkpt>
      <trkpt lat="42.55378" lon="-0.77537">
        <time>2022-07-30T11:34:28Z</time>
      </trkpt>
      <trkpt lat="42.55387" lon="-0.77514">
        <time>2022-07-30T11:34:29Z</time>
      </trkpt>
      <trkpt lat="42.55394" lon="-0.7749">
        <time>2022-07-30T11:34:30Z</time>
      </trkpt>
      <trkpt lat="42.554" lon="-0.77464">
        <time>2022-07-30T11:34:31Z</time>
      </trkpt>
      <trkpt lat="42.55403" lon="-0.77434">
        <time>2022-07-30T11:34:32Z</time>
      </trkpt>
      <trkpt lat="42.55406" lon="-0.77403">
        <time>2022-07-30T11:34:33Z</time>
      </trkpt>
      <trkpt lat="42.55408" lon="-0.77371">
        <time>2022-07-30T11:34:34Z</time>
      </trkpt>
      <trkpt lat="42.55411" lon="-0.7734">
        <time>2022-07-30T11:34:35Z</time>
      </trkpt>
      <trkpt lat="42.55413" lon="-0.77308">
        <time>2022-07-30T11:34:36Z</time>
      </trkpt>
      <trkpt lat="42.55416" lon="-0.77277">
        <time>2022-07-30T11:34:37Z</time>
      </trkpt>
      <trkpt lat="42.55418" lon="-0.77245">
        <time>2022-07-30T11:34:38Z</time>
      </trkpt>
      <trkpt lat="42.55421" lon="-0.77213">
        <time>2022-07-30T11:34:39Z</time>
      </trkpt>
      <trkpt lat="42.55423" lon="-0.77182">
        <time>2022-07-30T11:34:40Z</time>
      </trkpt>
      <trkpt lat="42.55426" lon="-0.7715">
        <time>2022-07-30T11:34:41Z</time>
      </trkpt>
      <trkpt lat="42.55428" lon="-0.7712">
        <time>2022-07-30T11:34:42Z</time>
      </trkpt>
      <trkpt lat="42.5543" lon="-0.7709">
        <time>2022-07-30T11:34:43Z</time>
      </trkpt>
      <trkpt lat="42.55432" lon="-0.77061">
        <time>2022-07-30T11:34:44Z</time>
      </trkpt>
      <trkpt lat="42.55434" lon="-0.77034">
        <time>2022-07-30T11:34:45Z</time>
      </trkpt>
      <trkpt lat="42.55436" lon="-0.77006">
        <time>2022-07-30T11:34:46Z</time>
      </trkpt>
      <trkpt lat="42.55436" lon="-0.76978">
        <time>2022-07-30T11:34:47Z</time>
      </trkpt>
      <trkpt lat="42.55434" lon="-0.76948">
        <time>2022-07-30T11:34:48Z</time>
      </trkpt>
      <trkpt lat="42.5543" lon="-0.76918">
        <time>2022-07-30T11:34:49Z</time>
      </trkpt>
      <trkpt lat="42.55426" lon="-0.76888">
        <time>2022-07-30T11:34:50Z</time>
      </trkpt>
      <trkpt lat="42.55423" lon="-0.76858">
        <time>2022-07-30T11:34:51Z</time>
      </trkpt>
      <trkpt lat="42.55421" lon="-0.76828">
        <time>2022-07-30T11:34:52Z</time>
      </trkpt>
      <trkpt lat="42.55419" lon="-0.76797">
        <time>2022-07-30T11:34:53Z</time>
      </trkpt>
      <trkpt lat="42.55419" lon="-0.76765">
        <time>2022-07-30T11:34:54Z</time>
      </trkpt>
      <trkpt lat="42.55422" lon="-0.76733">
        <time>2022-07-30T11:34:55Z</time>
      </trkpt>
      <trkpt lat="42.55426" lon="-0.767">
        <time>2022-07-30T11:34:56Z</time>
      </trkpt>
      <trkpt lat="42.5543" lon="-0.76666">
        <time>2022-07-30T11:34:57Z</time>
      </trkpt>
      <trkpt lat="42.55434" lon="-0.76631">
        <time>2022-07-30T11:34:58Z</time>
      </trkpt>
      <trkpt lat="42.55438" lon="-0.76595">
        <time>2022-07-30T11:34:59Z</time>
      </trkpt>
      <trkpt lat="42.55443" lon="-0.7656">
        <time>2022-07-30T11:35:00Z</time>
      </trkpt>
      <trkpt lat="42.55447" lon="-0.76524">
        <time>2022-07-30T11:35:01Z</time>
      </trkpt>
      <trkpt lat="42.55452" lon="-0.76489">
        <time>2022-07-30T11:35:02Z</time>
      </trkpt>
      <trkpt lat="42.55456" lon="-0.76452">
        <time>2022-07-30T11:35:03Z</time>
      </trkpt>
      <trkpt lat="42.55461" lon="-0.76416">
        <time>2022-07-30T11:35:04Z</time>
      </trkpt>
      <trkpt lat="42.55465" lon="-0.76379">
        <time>2022-07-30T11:35:05Z</time>
      </trkpt>
      <trkpt lat="42.5547" lon="-0.76343">
        <time>2022-07-30T11:35:06Z</time>
      </trkpt>
      <trkpt lat="42.55474" lon="-0.76307">
        <time>2022-07-30T11:35:07Z</time>
      </trkpt>
      <trkpt lat="42.55479" lon="-0.76271">
        <time>2022-07-30T11:35:08Z</time>
      </trkpt>
      <trkpt lat="42.55483" lon="-0.76234">
        <time>2022-07-30T11:35:09Z</time>
      </trkpt>
      <trkpt lat="42.55488" lon="-0.76198">
        <time>2022-07-30T11:35:10Z</time>
      </trkpt>
      <trkpt lat="42.55493" lon="-0.76162">
        <time>2022-07-30T11:35:11Z</time>
      </trkpt>
      <trkpt lat="42.55497" lon="-0.76125">
        <time>2022-07-30T11:35:12Z</time>
      </trkpt>
      <trkpt lat="42.55502" lon="-0.76089">
        <time>2022-07-30T11:35:13Z</time>
      </trkpt>
      <trkpt lat="42.55507" lon="-0.76052">
        <time>2022-07-30T11:35:14Z</time>
      </trkpt>
      <trkpt lat="42.55511" lon="-0.76016">
        <time>2022-07-30T11:35:15Z</time>
      </trkpt>
      <trkpt lat="42.55516" lon="-0.7598">
        <time>2022-07-30T11:35:16Z</time>
      </trkpt>
      <trkpt lat="42.5552" lon="-0.75944">
        <time>2022-07-30T11:35:17Z</time>
      </trkpt>
      <trkpt lat="42.55524" lon="-0.75908">
        <time>2022-07-30T11:35:18Z</time>
      </trkpt>
      <trkpt lat="42.55527" lon="-0.75873">
        <time>2022-07-30T11:35:19Z</time>
      </trkpt>
      <trkpt lat="42.5553" lon="-0.75837">
        <time>2022-07-30T11:35:20Z</time>
      </trkpt>
      <trkpt lat="42.55532" lon="-0.75802">
        <time>2022-07-30T11:35:21Z</time>
      </trkpt>
      <trkpt lat="42.55534" lon="-0.75769">
        <time>2022-07-30T11:35:22Z</time>
      </trkpt>
      <trkpt lat="42.55536" lon="-0.75737">
        <time>2022-07-30T11:35:23Z</time>
      </trkpt>
      <trkpt lat="42.55538" lon="-0.75705">
        <time>2022-07-30T11:35:24Z</time>
      </trkpt>
      <trkpt lat="42.5554" lon="-0.75674">
        <time>2022-07-30T11:35:25Z</time>
      </trkpt>
      <trkpt lat="42.55543" lon="-0.75642">
        <time>2022-07-30T11:35:26Z</time>
      </trkpt>
      <trkpt lat="42.55545" lon="-0.7561">
        <time>2022-07-30T11:35:27Z</time>
      </trkpt>
      <trkpt lat="42.55547" lon="-0.75579">
        <time>2022-07-30T11:35:28Z</time>
      </trkpt>
      <trkpt lat="42.55549" lon="-0.75547">
        <time>2022-07-30T11:35:29Z</time>
      </trkpt>
      <trkpt lat="42.55551" lon="-0.75515">
        <time>2022-07-30T11:35:30Z</time>
      </trkpt>
      <trkpt lat="42.55552" lon="-0.75483">
        <time>2022-07-30T11:35:31Z</time>
      </trkpt>
      <trkpt lat="42.55554" lon="-0.75451">
        <time>2022-07-30T11:35:32Z</time>
      </trkpt>
      <trkpt lat="42.55556" lon="-0.75419">
        <time>2022-07-30T11:35:33Z</time>
      </trkpt>
      <trkpt lat="42.55558" lon="-0.75387">
        <time>2022-07-30T11:35:34Z</time>
      </trkpt>
      <trkpt lat="42.5556" lon="-0.75355">
        <time>2022-07-30T11:35:35Z</time>
      </trkpt>
      <trkpt lat="42.55562" lon="-0.75323">
        <time>2022-07-30T11:35:36Z</time>
      </trkpt>
      <trkpt lat="42.55564" lon="-0.75291">
        <time>2022-07-30T11:35:37Z</time>
      </trkpt>
      <trkpt lat="42.55566" lon="-0.75259">
        <time>2022-07-30T11:35:38Z</time>
      </trkpt>
      <trkpt lat="42.55568" lon="-0.75227">
        <time>2022-07-30T11:35:39Z</time>
      </trkpt>
      <trkpt lat="42.55571" lon="-0.75194">
        <time>2022-07-30T11:35:40Z</time>
      </trkpt>
      <trkpt lat="42.55573" lon="-0.75162">
        <time>2022-07-30T11:35:41Z</time>
      </trkpt>
      <trkpt lat="42.55575" lon="-0.75129">
        <time>2022-07-30T11:35:42Z</time>
      </trkpt>
      <trkpt lat="42.55577" lon="-0.75096">
        <time>2022-07-30T11:35:43Z</time>
      </trkpt>
      <trkpt lat="42.55579" lon="-0.75063">
        <time>2022-07-30T11:35:44Z</time>
      </trkpt>
      <trkpt lat="42.55581" lon="-0.7503">
        <time>2022-07-30T11:35:45Z</time>
      </trkpt>
      <trkpt lat="42.55583" lon="-0.74997">
        <time>2022-07-30T11:35:46Z</time>
      </trkpt>
      <trkpt lat="42.55585" lon="-0.74963">
        <time>2022-07-30T11:35:47Z</time>
      </trkpt>
      <trkpt lat="42.55587" lon="-0.7493">
        <time>2022-07-30T11:35:48Z</time>
      </trkpt>
      <trkpt lat="42.5559" lon="-0.74895">
        <time>2022-07-30T11:35:49Z</time>
      </trkpt>
      <trkpt lat="42.55592" lon="-0.74861">
        <time>2022-07-30T11:35:50Z</time>
      </trkpt>
      <trkpt lat="42.55594" lon="-0.74825">
        <time>2022-07-30T11:35:51Z</time>
      </trkpt>
      <trkpt lat="42.55596" lon="-0.74791">
        <time>2022-07-30T11:35:52Z</time>
      </trkpt>
      <trkpt lat="42.55598" lon="-0.74757">
        <time>2022-07-30T11:35:53Z</time>
      </trkpt>
      <trkpt lat="42.556" lon="-0.74723">
        <time>2022-07-30T11:35:54Z</time>
      </trkpt>
      <trkpt lat="42.55603" lon="-0.74688">
        <time>2022-07-30T11:35:55Z</time>
      </trkpt>
      <trkpt lat="42.55605" lon="-0.74654">
        <time>2022-07-30T11:35:56Z</time>
      </trkpt>
      <trkpt lat="42.55607" lon="-0.7462">
        <time>2022-07-30T11:35:57Z</time>
      </trkpt>
      <trkpt lat="42.55609" lon="-0.74586">
        <time>2022-07-30T11:35:58Z</time>
      </trkpt>
      <trkpt lat="42.55611" lon="-0.74552">
        <time>2022-07-30T11:35:59Z</time>
      </trkpt>
      <trkpt lat="42.55613" lon="-0.74518">
        <time>2022-07-30T11:36:00Z</time>
      </trkpt>
      <trkpt lat="42.55615" lon="-0.74483">
        <time>2022-07-30T11:36:01Z</time>
      </trkpt>
      <trkpt lat="42.55617" lon="-0.74449">
        <time>2022-07-30T11:36:02Z</time>
      </trkpt>
      <trkpt lat="42.55619" lon="-0.74414">
        <time>2022-07-30T11:36:03Z</time>
      </trkpt>
      <trkpt lat="42.55622" lon="-0.7438">
        <time>2022-07-30T11:36:04Z</time>
      </trkpt>
      <trkpt lat="42.55624" lon="-0.74345">
        <time>2022-07-30T11:36:05Z</time>
      </trkpt>
      <trkpt lat="42.55626" lon="-0.7431">
        <time>2022-07-30T11:36:06Z</time>
      </trkpt>
      <trkpt lat="42.55628" lon="-0.74275">
        <time>2022-07-30T11:36:07Z</time>
      </trkpt>
      <trkpt lat="42.5563" lon="-0.74239">
        <time>2022-07-30T11:36:08Z</time>
      </trkpt>
      <trkpt lat="42.55632" lon="-0.74204">
        <time>2022-07-30T11:36:09Z</time>
      </trkpt>
      <trkpt lat="42.55635" lon="-0.74168">
        <time>2022-07-30T11:36:10Z</time>
      </trkpt>
      <trkpt lat="42.55637" lon="-0.74132">
        <time>2022-07-30T11:36:11Z</time>
      </trkpt>
      <trkpt lat="42.55639" lon="-0.74095">
        <time>2022-07-30T11:36:12Z</time>
      </trkpt>
      <trkpt lat="42.55642" lon="-0.74058">
        <time>2022-07-30T11:36:13Z</time>
      </trkpt>
      <trkpt lat="42.55644" lon="-0.74021">
        <time>2022-07-30T11:36:14Z</time>
      </trkpt>
      <trkpt lat="42.55646" lon="-0.73985">
        <time>2022-07-30T11:36:15Z</time>
      </trkpt>
      <trkpt lat="42.55649" lon="-0.73949">
        <time>2022-07-30T11:36:16Z</time>
      </trkpt>
      <trkpt lat="42.55651" lon="-0.73913">
        <time>2022-07-30T11:36:17Z</time>
      </trkpt>
      <trkpt lat="42.55654" lon="-0.73878">
        <time>2022-07-30T11:36:18Z</time>
      </trkpt>
      <trkpt lat="42.55656" lon="-0.73842">
        <time>2022-07-30T11:36:19Z</time>
      </trkpt>
      <trkpt lat="42.55658" lon="-0.73807">
        <time>2022-07-30T11:36:20Z</time>
      </trkpt>
      <trkpt lat="42.5566" lon="-0.73771">
        <time>2022-07-30T11:36:21Z</time>
      </trkpt>
      <trkpt lat="42.55663" lon="-0.73736">
        <time>2022-07-30T11:36:22Z</time>
      </trkpt>
      <trkpt lat="42.55666" lon="-0.73701">
        <time>2022-07-30T11:36:23Z</time>
      </trkpt>
      <trkpt lat="42.55668" lon="-0.73666">
        <time>2022-07-30T11:36:24Z</time>
      </trkpt>
      <trkpt lat="42.5567" lon="-0.7363">
        <time>2022-07-30T11:36:25Z</time>
      </trkpt>
      <trkpt lat="42.55672" lon="-0.73595">
        <time>2022-07-30T11:36:26Z</time>
      </trkpt>
      <trkpt lat="42.55674" lon="-0.73559">
        <time>2022-07-30T11:36:27Z</time>
      </trkpt>
      <trkpt lat="42.55677" lon="-0.73524">
        <time>2022-07-30T11:36:28Z</time>
      </trkpt>
      <trkpt lat="42.55679" lon="-0.73488">
        <time>2022-07-30T11:36:29Z</time>
      </trkpt>
      <trkpt lat="42.55681" lon="-0.73453">
        <time>2022-07-30T11:36:30Z</time>
      </trkpt>
      <trkpt lat="42.55683" lon="-0.73417">
        <time>2022-07-30T11:36:31Z</time>
      </trkpt>
      <trkpt lat="42.55685" lon="-0.73381">
        <time>2022-07-30T11:36:32Z</time>
      </trkpt>
      <trkpt lat="42.55687" lon="-0.73345">
        <time>2022-07-30T11:36:33Z</time>
      </trkpt>
      <trkpt lat="42.5569" lon="-0.73309">
        <time>2022-07-30T11:36:34Z</time>
      </trkpt>
      <trkpt lat="42.55692" lon="-0.73273">
        <time>2022-07-30T11:36:35Z</time>
      </trkpt>
      <trkpt lat="42.55694" lon="-0.73238">
        <time>2022-07-30T11:36:36Z</time>
      </trkpt>
      <trkpt lat="42.55697" lon="-0.73202">
        <time>2022-07-30T11:36:37Z</time>
      </trkpt>
      <trkpt lat="42.55699" lon="-0.73167">
        <time>2022-07-30T11:36:38Z</time>
      </trkpt>
      <trkpt lat="42.55701" lon="-0.73131">
        <time>2022-07-30T11:36:39Z</time>
      </trkpt>
      <trkpt lat="42.55704" lon="-0.73096">
        <time>2022-07-30T11:36:40Z</time>
      </trkpt>
      <trkpt lat="42.55706" lon="-0.73061">
        <time>2022-07-30T11:36:41Z</time>
      </trkpt>
      <trkpt lat="42.55708" lon="-0.73026">
        <time>2022-07-30T11:36:42Z</time>
      </trkpt>
      <trkpt lat="42.5571" lon="-0.72991">
        <time>2022-07-30T11:36:43Z</time>
      </trkpt>
      <trkpt lat="42.55712" lon="-0.72956">
        <time>2022-07-30T11:36:44Z</time>
      </trkpt>
      <trkpt lat="42.55714" lon="-0.72921">
        <time>2022-07-30T11:36:45Z</time>
      </trkpt>
      <trkpt lat="42.55717" lon="-0.72886">
        <time>2022-07-30T11:36:46Z</time>
      </trkpt>
      <trkpt lat="42.55719" lon="-0.72851">
        <time>2022-07-30T11:36:47Z</time>
      </trkpt>
      <trkpt lat="42.55721" lon="-0.72817">
        <time>2022-07-30T11:36:48Z</time>
      </trkpt>
      <trkpt lat="42.55723" lon="-0.72782">
        <time>2022-07-30T11:36:49Z</time>
      </trkpt>
      <trkpt lat="42.55726" lon="-0.72748">
        <time>2022-07-30T11:36:50Z</time>
      </trkpt>
      <trkpt lat="42.55728" lon="-0.72714">
        <time>2022-07-30T11:36:51Z</time>
      </trkpt>
      <trkpt lat="42.5573" lon="-0.7268">
        <time>2022-07-30T11:36:52Z</time>
      </trkpt>
      <trkpt lat="42.55732" lon="-0.72646">
        <time>2022-07-30T11:36:53Z</time>
      </trkpt>
      <trkpt lat="42.55734" lon="-0.72613">
        <time>2022-07-30T11:36:54Z</time>
      </trkpt>
      <trkpt lat="42.55736" lon="-0.72579">
        <time>2022-07-30T11:36:55Z</time>
      </trkpt>
      <trkpt lat="42.55738" lon="-0.72545">
        <time>2022-07-30T11:36:56Z</time>
      </trkpt>
      <trkpt lat="42.55739" lon="-0.7251">
        <time>2022-07-30T11:36:57Z</time>
      </trkpt>
      <trkpt lat="42.55742" lon="-0.72476">
        <time>2022-07-30T11:36:58Z</time>
      </trkpt>
      <trkpt lat="42.55744" lon="-0.72441">
        <time>2022-07-30T11:36:59Z</time>
      </trkpt>
      <trkpt lat="42.55746" lon="-0.72406">
        <time>2022-07-30T11:37:00Z</time>
      </trkpt>
      <trkpt lat="42.55748" lon="-0.72372">
        <time>2022-07-30T11:37:01Z</time>
      </trkpt>
      <trkpt lat="42.55751" lon="-0.72337">
        <time>2022-07-30T11:37:02Z</time>
      </trkpt>
      <trkpt lat="42.55753" lon="-0.72303">
        <time>2022-07-30T11:37:03Z</time>
      </trkpt>
      <trkpt lat="42.55755" lon="-0.72269">
        <time>2022-07-30T11:37:04Z</time>
      </trkpt>
      <trkpt lat="42.55757" lon="-0.72235">
        <time>2022-07-30T11:37:05Z</time>
      </trkpt>
      <trkpt lat="42.55759" lon="-0.722">
        <time>2022-07-30T11:37:06Z</time>
      </trkpt>
      <trkpt lat="42.55761" lon="-0.72167">
        <time>2022-07-30T11:37:07Z</time>
      </trkpt>
      <trkpt lat="42.55764" lon="-0.72133">
        <time>2022-07-30T11:37:08Z</time>
      </trkpt>
      <trkpt lat="42.55766" lon="-0.72099">
        <time>2022-07-30T11:37:09Z</time>
      </trkpt>
      <trkpt lat="42.55768" lon="-0.72066">
        <time>2022-07-30T11:37:10Z</time>
      </trkpt>
      <trkpt lat="42.5577" lon="-0.72033">
        <time>2022-07-30T11:37:11Z</time>
      </trkpt>
      <trkpt lat="42.55773" lon="-0.72">
        <time>2022-07-30T11:37:12Z</time>
      </trkpt>
      <trkpt lat="42.55775" lon="-0.71968">
        <time>2022-07-30T11:37:13Z</time>
      </trkpt>
      <trkpt lat="42.55777" lon="-0.71937">
        <time>2022-07-30T11:37:14Z</time>
      </trkpt>
      <trkpt lat="42.55779" lon="-0.71908">
        <time>2022-07-30T11:37:15Z</time>
      </trkpt>
      <trkpt lat="42.55781" lon="-0.71878">
        <time>2022-07-30T11:37:16Z</time>
      </trkpt>
      <trkpt lat="42.55782" lon="-0.7185">
        <time>2022-07-30T11:37:17Z</time>
      </trkpt>
      <trkpt lat="42.55784" lon="-0.71822">
        <time>2022-07-30T11:37:18Z</time>
      </trkpt>
      <trkpt lat="42.55786" lon="-0.71796">
        <time>2022-07-30T11:37:19Z</time>
      </trkpt>
      <trkpt lat="42.55788" lon="-0.71772">
        <time>2022-07-30T11:37:20Z</time>
      </trkpt>
      <trkpt lat="42.55789" lon="-0.71749">
        <time>2022-07-30T11:37:21Z</time>
      </trkpt>
      <trkpt lat="42.5579" lon="-0.71727">
        <time>2022-07-30T11:37:22Z</time>
      </trkpt>
      <trkpt lat="42.55791" lon="-0.71707">
        <time>2022-07-30T11:37:23Z</time>
      </trkpt>
      <trkpt lat="42.55793" lon="-0.71687">
        <time>2022-07-30T11:37:24Z</time>
      </trkpt>
      <trkpt lat="42.55794" lon="-0.71668">
        <time>2022-07-30T11:37:25Z</time>
      </trkpt>
      <trkpt lat="42.55795" lon="-0.7165">
        <time>2022-07-30T11:37:26Z</time>
      </trkpt>
      <trkpt lat="42.55795" lon="-0.71631">
        <time>2022-07-30T11:37:27Z</time>
      </trkpt>
      <trkpt lat="42.55795" lon="-0.71611">
        <time>2022-07-30T11:37:28Z</time>
      </trkpt>
      <trkpt lat="42.55795" lon="-0.71591">
        <time>2022-07-30T11:37:29Z</time>
      </trkpt>
      <trkpt lat="42.55794" lon="-0.71572">
        <time>2022-07-30T11:37:30Z</time>
      </trkpt>
      <trkpt lat="42.55792" lon="-0.71553">
        <time>2022-07-30T11:37:31Z</time>
      </trkpt>
      <trkpt lat="42.55791" lon="-0.71534">
        <time>2022-07-30T11:37:32Z</time>
      </trkpt>
      <trkpt lat="42.55789" lon="-0.71515">
        <time>2022-07-30T11:37:33Z</time>
      </trkpt>
      <trkpt lat="42.55787" lon="-0.71497">
        <time>2022-07-30T11:37:34Z</time>
      </trkpt>
      <trkpt lat="42.55786" lon="-0.7148">
        <time>2022-07-30T11:37:35Z</time>
      </trkpt>
      <trkpt lat="42.55785" lon="-0.71463">
        <time>2022-07-30T11:37:36Z</time>
      </trkpt>
      <trkpt lat="42.55784" lon="-0.71446">
        <time>2022-07-30T11:37:37Z</time>
      </trkpt>
      <trkpt lat="42.55783" lon="-0.7143">
        <time>2022-07-30T11:37:38Z</time>
      </trkpt>
      <trkpt lat="42.55782" lon="-0.71414">
        <time>2022-07-30T11:37:39Z</time>
      </trkpt>
      <trkpt lat="42.5578" lon="-0.71398">
        <time>2022-07-30T11:37:40Z</time>
      </trkpt>
      <trkpt lat="42.5578" lon="-0.71383">
        <time>2022-07-30T11:37:41Z</time>
      </trkpt>
      <trkpt lat="42.55779" lon="-0.71368">
        <time>2022-07-30T11:37:42Z</time>
      </trkpt>
      <trkpt lat="42.55778" lon="-0.71355">
        <time>2022-07-30T11:37:43Z</time>
      </trkpt>
      <trkpt lat="42.55776" lon="-0.71343">
        <time>2022-07-30T11:37:44Z</time>
      </trkpt>
      <trkpt lat="42.55774" lon="-0.71332">
        <time>2022-07-30T11:37:45Z</time>
      </trkpt>
      <trkpt lat="42.5577" lon="-0.71323">
        <time>2022-07-30T11:37:46Z</time>
      </trkpt>
      <trkpt lat="42.55765" lon="-0.71314">
        <time>2022-07-30T11:37:47Z</time>
      </trkpt>
      <trkpt lat="42.55761" lon="-0.71303">
        <time>2022-07-30T11:37:48Z</time>
      </trkpt>
      <trkpt lat="42.55762" lon="-0.71293">
        <time>2022-07-30T11:37:49Z</time>
      </trkpt>
      <trkpt lat="42.55765" lon="-0.71282">
        <time>2022-07-30T11:37:50Z</time>
      </trkpt>
      <trkpt lat="42.55768" lon="-0.7127">
        <time>2022-07-30T11:37:51Z</time>
      </trkpt>
      <trkpt lat="42.55769" lon="-0.71254">
        <time>2022-07-30T11:37:52Z</time>
      </trkpt>
      <trkpt lat="42.55769" lon="-0.71236">
        <time>2022-07-30T11:37:53Z</time>
      </trkpt>
      <trkpt lat="42.55767" lon="-0.71216">
        <time>2022-07-30T11:37:54Z</time>
      </trkpt>
      <trkpt lat="42.55765" lon="-0.71196">
        <time>2022-07-30T11:37:55Z</time>
      </trkpt>
      <trkpt lat="42.55764" lon="-0.71174">
        <time>2022-07-30T11:37:56Z</time>
      </trkpt>
      <trkpt lat="42.55762" lon="-0.7115">
        <time>2022-07-30T11:37:57Z</time>
      </trkpt>
      <trkpt lat="42.55761" lon="-0.71126">
        <time>2022-07-30T11:37:58Z</time>
      </trkpt>
      <trkpt lat="42.55759" lon="-0.71101">
        <time>2022-07-30T11:37:59Z</time>
      </trkpt>
      <trkpt lat="42.55757" lon="-0.71077">
        <time>2022-07-30T11:38:00Z</time>
      </trkpt>
      <trkpt lat="42.55755" lon="-0.71052">
        <time>2022-07-30T11:38:01Z</time>
      </trkpt>
      <trkpt lat="42.55754" lon="-0.71025">
        <time>2022-07-30T11:38:02Z</time>
      </trkpt>
      <trkpt lat="42.55752" lon="-0.70999">
        <time>2022-07-30T11:38:03Z</time>
      </trkpt>
      <trkpt lat="42.5575" lon="-0.70972">
        <time>2022-07-30T11:38:04Z</time>
      </trkpt>
      <trkpt lat="42.55748" lon="-0.70943">
        <time>2022-07-30T11:38:05Z</time>
      </trkpt>
      <trkpt lat="42.55746" lon="-0.70914">
        <time>2022-07-30T11:38:06Z</time>
      </trkpt>
      <trkpt lat="42.55744" lon="-0.70885">
        <time>2022-07-30T11:38:07Z</time>
      </trkpt>
      <trkpt lat="42.55742" lon="-0.70855">
        <time>2022-07-30T11:38:08Z</time>
      </trkpt>
      <trkpt lat="42.55739" lon="-0.70823">
        <time>2022-07-30T11:38:09Z</time>
      </trkpt>
      <trkpt lat="42.55737" lon="-0.70793">
        <time>2022-07-30T11:38:10Z</time>
      </trkpt>
      <trkpt lat="42.55735" lon="-0.70761">
        <time>2022-07-30T11:38:11Z</time>
      </trkpt>
      <trkpt lat="42.55732" lon="-0.7073">
        <time>2022-07-30T11:38:12Z</time>
      </trkpt>
      <trkpt lat="42.5573" lon="-0.70698">
        <time>2022-07-30T11:38:13Z</time>
      </trkpt>
      <trkpt lat="42.55728" lon="-0.70666">
        <time>2022-07-30T11:38:14Z</time>
      </trkpt>
      <trkpt lat="42.55726" lon="-0.70635">
        <time>2022-07-30T11:38:15Z</time>
      </trkpt>
      <trkpt lat="42.55724" lon="-0.70603">
        <time>2022-07-30T11:38:16Z</time>
      </trkpt>
      <trkpt lat="42.55722" lon="-0.70572">
        <time>2022-07-30T11:38:17Z</time>
      </trkpt>
      <trkpt lat="42.5572" lon="-0.70541">
        <time>2022-07-30T11:38:18Z</time>
      </trkpt>
      <trkpt lat="42.55718" lon="-0.7051">
        <time>2022-07-30T11:38:19Z</time>
      </trkpt>
      <trkpt lat="42.55715" lon="-0.70479">
        <time>2022-07-30T11:38:20Z</time>
      </trkpt>
      <trkpt lat="42.55713" lon="-0.70449">
        <time>2022-07-30T11:38:21Z</time>
      </trkpt>
      <trkpt lat="42.55711" lon="-0.7042">
        <time>2022-07-30T11:38:22Z</time>
      </trkpt>
      <trkpt lat="42.55709" lon="-0.70391">
        <time>2022-07-30T11:38:23Z</time>
      </trkpt>
      <trkpt lat="42.55707" lon="-0.70363">
        <time>2022-07-30T11:38:24Z</time>
      </trkpt>
      <trkpt lat="42.55705" lon="-0.70336">
        <time>2022-07-30T11:38:25Z</time>
      </trkpt>
      <trkpt lat="42.55703" lon="-0.70309">
        <time>2022-07-30T11:38:26Z</time>
      </trkpt>
      <trkpt lat="42.55701" lon="-0.70282">
        <time>2022-07-30T11:38:27Z</time>
      </trkpt>
      <trkpt lat="42.55699" lon="-0.70256">
        <time>2022-07-30T11:38:28Z</time>
      </trkpt>
      <trkpt lat="42.55697" lon="-0.7023">
        <time>2022-07-30T11:38:29Z</time>
      </trkpt>
      <trkpt lat="42.55695" lon="-0.70203">
        <time>2022-07-30T11:38:30Z</time>
      </trkpt>
      <trkpt lat="42.55693" lon="-0.70175">
        <time>2022-07-30T11:38:31Z</time>
      </trkpt>
      <trkpt lat="42.55691" lon="-0.70147">
        <time>2022-07-30T11:38:32Z</time>
      </trkpt>
      <trkpt lat="42.55689" lon="-0.70119">
        <time>2022-07-30T11:38:33Z</time>
      </trkpt>
      <trkpt lat="42.55687" lon="-0.70089">
        <time>2022-07-30T11:38:34Z</time>
      </trkpt>
      <trkpt lat="42.55685" lon="-0.70058">
        <time>2022-07-30T11:38:35Z</time>
      </trkpt>
      <trkpt lat="42.55682" lon="-0.70025">
        <time>2022-07-30T11:38:36Z</time>
      </trkpt>
      <trkpt lat="42.5568" lon="-0.69991">
        <time>2022-07-30T11:38:37Z</time>
      </trkpt>
      <trkpt lat="42.55677" lon="-0.69956">
        <time>2022-07-30T11:38:38Z</time>
      </trkpt>
      <trkpt lat="42.55674" lon="-0.6992">
        <time>2022-07-30T11:38:39Z</time>
      </trkpt>
      <trkpt lat="42.55672" lon="-0.69884">
        <time>2022-07-30T11:38:40Z</time>
      </trkpt>
      <trkpt lat="42.55669" lon="-0.69847">
        <time>2022-07-30T11:38:41Z</time>
      </trkpt>
      <trkpt lat="42.55667" lon="-0.6981">
        <time>2022-07-30T11:38:42Z</time>
      </trkpt>
      <trkpt lat="42.55664" lon="-0.69773">
        <time>2022-07-30T11:38:43Z</time>
      </trkpt>
      <trkpt lat="42.55662" lon="-0.69737">
        <time>2022-07-30T11:38:44Z</time>
      </trkpt>
      <trkpt lat="42.55659" lon="-0.697">
        <time>2022-07-30T11:38:45Z</time>
      </trkpt>
      <trkpt lat="42.55656" lon="-0.69664">
        <time>2022-07-30T11:38:46Z</time>
      </trkpt>
      <trkpt lat="42.55654" lon="-0.69628">
        <time>2022-07-30T11:38:47Z</time>
      </trkpt>
      <trkpt lat="42.55651" lon="-0.69592">
        <time>2022-07-30T11:38:48Z</time>
      </trkpt>
      <trkpt lat="42.55649" lon="-0.69556">
        <time>2022-07-30T11:38:49Z</time>
      </trkpt>
      <trkpt lat="42.55646" lon="-0.6952">
        <time>2022-07-30T11:38:50Z</time>
      </trkpt>
      <trkpt lat="42.55644" lon="-0.69484">
        <time>2022-07-30T11:38:51Z</time>
      </trkpt>
      <trkpt lat="42.55641" lon="-0.69449">
        <time>2022-07-30T11:38:52Z</time>
      </trkpt>
      <trkpt lat="42.55639" lon="-0.69413">
        <time>2022-07-30T11:38:53Z</time>
      </trkpt>
      <trkpt lat="42.55636" lon="-0.69377">
        <time>2022-07-30T11:38:54Z</time>
      </trkpt>
      <trkpt lat="42.55633" lon="-0.69341">
        <time>2022-07-30T11:38:55Z</time>
      </trkpt>
      <trkpt lat="42.55631" lon="-0.69305">
        <time>2022-07-30T11:38:56Z</time>
      </trkpt>
      <trkpt lat="42.55628" lon="-0.69269">
        <time>2022-07-30T11:38:57Z</time>
      </trkpt>
      <trkpt lat="42.55626" lon="-0.69234">
        <time>2022-07-30T11:38:58Z</time>
      </trkpt>
      <trkpt lat="42.55623" lon="-0.69198">
        <time>2022-07-30T11:38:59Z</time>
      </trkpt>
      <trkpt lat="42.55621" lon="-0.69163">
        <time>2022-07-30T11:39:00Z</time>
      </trkpt>
      <trkpt lat="42.55618" lon="-0.69127">
        <time>2022-07-30T11:39:01Z</time>
      </trkpt>
      <trkpt lat="42.55616" lon="-0.69092">
        <time>2022-07-30T11:39:02Z</time>
      </trkpt>
      <trkpt lat="42.55613" lon="-0.69056">
        <time>2022-07-30T11:39:03Z</time>
      </trkpt>
      <trkpt lat="42.55611" lon="-0.69021">
        <time>2022-07-30T11:39:04Z</time>
      </trkpt>
      <trkpt lat="42.55609" lon="-0.68985">
        <time>2022-07-30T11:39:05Z</time>
      </trkpt>
      <trkpt lat="42.55606" lon="-0.6895">
        <time>2022-07-30T11:39:06Z</time>
      </trkpt>
      <trkpt lat="42.55604" lon="-0.68914">
        <time>2022-07-30T11:39:07Z</time>
      </trkpt>
      <trkpt lat="42.55601" lon="-0.68879">
        <time>2022-07-30T11:39:08Z</time>
      </trkpt>
      <trkpt lat="42.55599" lon="-0.68843">
        <time>2022-07-30T11:39:09Z</time>
      </trkpt>
      <trkpt lat="42.55596" lon="-0.68807">
        <time>2022-07-30T11:39:10Z</time>
      </trkpt>
      <trkpt lat="42.55594" lon="-0.68772">
        <time>2022-07-30T11:39:11Z</time>
      </trkpt>
      <trkpt lat="42.55591" lon="-0.68736">
        <time>2022-07-30T11:39:12Z</time>
      </trkpt>
      <trkpt lat="42.55589" lon="-0.687">
        <time>2022-07-30T11:39:13Z</time>
      </trkpt>
      <trkpt lat="42.55586" lon="-0.68664">
        <time>2022-07-30T11:39:14Z</time>
      </trkpt>
      <trkpt lat="42.55584" lon="-0.6863">
        <time>2022-07-30T11:39:15Z</time>
      </trkpt>
      <trkpt lat="42.55581" lon="-0.68596">
        <time>2022-07-30T11:39:16Z</time>
      </trkpt>
      <trkpt lat="42.55579" lon="-0.68562">
        <time>2022-07-30T11:39:17Z</time>
      </trkpt>
      <trkpt lat="42.55576" lon="-0.68529">
        <time>2022-07-30T11:39:18Z</time>
      </trkpt>
      <trkpt lat="42.55574" lon="-0.68497">
        <time>2022-07-30T11:39:19Z</time>
      </trkpt>
      <trkpt lat="42.55571" lon="-0.68465">
        <time>2022-07-30T11:39:20Z</time>
      </trkpt>
      <trkpt lat="42.55569" lon="-0.68433">
        <time>2022-07-30T11:39:21Z</time>
      </trkpt>
      <trkpt lat="42.55567" lon="-0.68401">
        <time>2022-07-30T11:39:22Z</time>
      </trkpt>
      <trkpt lat="42.55565" lon="-0.6837">
        <time>2022-07-30T11:39:23Z</time>
      </trkpt>
      <trkpt lat="42.55563" lon="-0.68339">
        <time>2022-07-30T11:39:24Z</time>
      </trkpt>
      <trkpt lat="42.5556" lon="-0.68307">
        <time>2022-07-30T11:39:25Z</time>
      </trkpt>
      <trkpt lat="42.55558" lon="-0.68275">
        <time>2022-07-30T11:39:26Z</time>
      </trkpt>
      <trkpt lat="42.55556" lon="-0.68244">
        <time>2022-07-30T11:39:27Z</time>
      </trkpt>
      <trkpt lat="42.55553" lon="-0.68213">
        <time>2022-07-30T11:39:28Z</time>
      </trkpt>
      <trkpt lat="42.55551" lon="-0.68181">
        <time>2022-07-30T11:39:29Z</time>
      </trkpt>
      <trkpt lat="42.55549" lon="-0.68149">
        <time>2022-07-30T11:39:30Z</time>
      </trkpt>
      <trkpt lat="42.55547" lon="-0.68119">
        <time>2022-07-30T11:39:31Z</time>
      </trkpt>
      <trkpt lat="42.55544" lon="-0.68088">
        <time>2022-07-30T11:39:32Z</time>
      </trkpt>
      <trkpt lat="42.55543" lon="-0.6806">
        <time>2022-07-30T11:39:33Z</time>
      </trkpt>
      <trkpt lat="42.55541" lon="-0.68031">
        <time>2022-07-30T11:39:34Z</time>
      </trkpt>
      <trkpt lat="42.55538" lon="-0.68004">
        <time>2022-07-30T11:39:35Z</time>
      </trkpt>
      <trkpt lat="42.55536" lon="-0.67978">
        <time>2022-07-30T11:39:36Z</time>
      </trkpt>
      <trkpt lat="42.55535" lon="-0.67953">
        <time>2022-07-30T11:39:37Z</time>
      </trkpt>
      <trkpt lat="42.55533" lon="-0.67929">
        <time>2022-07-30T11:39:38Z</time>
      </trkpt>
      <trkpt lat="42.55532" lon="-0.67907">
        <time>2022-07-30T11:39:39Z</time>
      </trkpt>
      <trkpt lat="42.55529" lon="-0.67885">
        <time>2022-07-30T11:39:40Z</time>
      </trkpt>
      <trkpt lat="42.55524" lon="-0.67864">
        <time>2022-07-30T11:39:41Z</time>
      </trkpt>
      <trkpt lat="42.55517" lon="-0.67845">
        <time>2022-07-30T11:39:42Z</time>
      </trkpt>
      <trkpt lat="42.55507" lon="-0.67828">
        <time>2022-07-30T11:39:43Z</time>
      </trkpt>
      <trkpt lat="42.55495" lon="-0.67811">
        <time>2022-07-30T11:39:44Z</time>
      </trkpt>
      <trkpt lat="42.55482" lon="-0.67795">
        <time>2022-07-30T11:39:45Z</time>
      </trkpt>
      <trkpt lat="42.55469" lon="-0.6778">
        <time>2022-07-30T11:39:46Z</time>
      </trkpt>
      <trkpt lat="42.55457" lon="-0.67764">
        <time>2022-07-30T11:39:47Z</time>
      </trkpt>
      <trkpt lat="42.55447" lon="-0.67746">
        <time>2022-07-30T11:39:48Z</time>
      </trkpt>
      <trkpt lat="42.55439" lon="-0.67726">
        <time>2022-07-30T11:39:49Z</time>
      </trkpt>
      <trkpt lat="42.55434" lon="-0.67703">
        <time>2022-07-30T11:39:50Z</time>
      </trkpt>
      <trkpt lat="42.55431" lon="-0.67679">
        <time>2022-07-30T11:39:51Z</time>
      </trkpt>
      <trkpt lat="42.5543" lon="-0.67652">
        <time>2022-07-30T11:39:52Z</time>
      </trkpt>
      <trkpt lat="42.5543" lon="-0.67623">
        <time>2022-07-30T11:39:53Z</time>
      </trkpt>
      <trkpt lat="42.55431" lon="-0.67595">
        <time>2022-07-30T11:39:54Z</time>
      </trkpt>
      <trkpt lat="42.55432" lon="-0.67566">
        <time>2022-07-30T11:39:55Z</time>
      </trkpt>
      <trkpt lat="42.55433" lon="-0.67536">
        <time>2022-07-30T11:39:56Z</time>
      </trkpt>
      <trkpt lat="42.55434" lon="-0.67506">
        <time>2022-07-30T11:39:57Z</time>
      </trkpt>
      <trkpt lat="42.55436" lon="-0.67476">
        <time>2022-07-30T11:39:58Z</time>
      </trkpt>
      <trkpt lat="42.55437" lon="-0.67446">
        <time>2022-07-30T11:39:59Z</time>
      </trkpt>
      <trkpt lat="42.55437" lon="-0.67415">
        <time>2022-07-30T11:40:00Z</time>
      </trkpt>
      <trkpt lat="42.55438" lon="-0.67385">
        <time>2022-07-30T11:40:01Z</time>
      </trkpt>
      <trkpt lat="42.55439" lon="-0.67354">
        <time>2022-07-30T11:40:02Z</time>
      </trkpt>
      <trkpt lat="42.5544" lon="-0.67324">
        <time>2022-07-30T11:40:03Z</time>
      </trkpt>
      <trkpt lat="42.55441" lon="-0.67296">
        <time>2022-07-30T11:40:04Z</time>
      </trkpt>
      <trkpt lat="42.55442" lon="-0.67269">
        <time>2022-07-30T11:40:05Z</time>
      </trkpt>
      <trkpt lat="42.55443" lon="-0.67243">
        <time>2022-07-30T11:40:06Z</time>
      </trkpt>
      <trkpt lat="42.55444" lon="-0.67218">
        <time>2022-07-30T11:40:07Z</time>
      </trkpt>
      <trkpt lat="42.55446" lon="-0.67194">
        <time>2022-07-30T11:40:08Z</time>
      </trkpt>
      <trkpt lat="42.5545" lon="-0.6717">
        <time>2022-07-30T11:40:09Z</time>
      </trkpt>
      <trkpt lat="42.55456" lon="-0.67146">
        <time>2022-07-30T11:40:10Z</time>
      </trkpt>
      <trkpt lat="42.55465" lon="-0.67123">
        <time>2022-07-30T11:40:11Z</time>
      </trkpt>
      <trkpt lat="42.55476" lon="-0.67099">
        <time>2022-07-30T11:40:12Z</time>
      </trkpt>
      <trkpt lat="42.55488" lon="-0.67076">
        <time>2022-07-30T11:40:13Z</time>
      </trkpt>
      <trkpt lat="42.55498" lon="-0.67051">
        <time>2022-07-30T11:40:14Z</time>
      </trkpt>
      <trkpt lat="42.55508" lon="-0.67025">
        <time>2022-07-30T11:40:15Z</time>
      </trkpt>
      <trkpt lat="42.55517" lon="-0.66999">
        <time>2022-07-30T11:40:16Z</time>
      </trkpt>
      <trkpt lat="42.55525" lon="-0.66974">
        <time>2022-07-30T11:40:17Z</time>
      </trkpt>
      <trkpt lat="42.55533" lon="-0.66948">
        <time>2022-07-30T11:40:18Z</time>
      </trkpt>
      <trkpt lat="42.55541" lon="-0.66922">
        <time>2022-07-30T11:40:19Z</time>
      </trkpt>
      <trkpt lat="42.55549" lon="-0.66897">
        <time>2022-07-30T11:40:20Z</time>
      </trkpt>
      <trkpt lat="42.55557" lon="-0.66871">
        <time>2022-07-30T11:40:21Z</time>
      </trkpt>
      <trkpt lat="42.55565" lon="-0.66845">
        <time>2022-07-30T11:40:22Z</time>
      </trkpt>
      <trkpt lat="42.55574" lon="-0.66819">
        <time>2022-07-30T11:40:23Z</time>
      </trkpt>
      <trkpt lat="42.55584" lon="-0.66794">
        <time>2022-07-30T11:40:24Z</time>
      </trkpt>
      <trkpt lat="42.55594" lon="-0.66769">
        <time>2022-07-30T11:40:25Z</time>
      </trkpt>
      <trkpt lat="42.55603" lon="-0.66744">
        <time>2022-07-30T11:40:26Z</time>
      </trkpt>
      <trkpt lat="42.55612" lon="-0.66718">
        <time>2022-07-30T11:40:27Z</time>
      </trkpt>
      <trkpt lat="42.55619" lon="-0.66692">
        <time>2022-07-30T11:40:28Z</time>
      </trkpt>
      <trkpt lat="42.55626" lon="-0.66667">
        <time>2022-07-30T11:40:29Z</time>
      </trkpt>
      <trkpt lat="42.55633" lon="-0.66642">
        <time>2022-07-30T11:40:30Z</time>
      </trkpt>
      <trkpt lat="42.55641" lon="-0.66619">
        <time>2022-07-30T11:40:31Z</time>
      </trkpt>
      <trkpt lat="42.55649" lon="-0.66597">
        <time>2022-07-30T11:40:32Z</time>
      </trkpt>
      <trkpt lat="42.55657" lon="-0.66574">
        <time>2022-07-30T11:40:33Z</time>
      </trkpt>
      <trkpt lat="42.55665" lon="-0.66553">
        <time>2022-07-30T11:40:34Z</time>
      </trkpt>
      <trkpt lat="42.55671" lon="-0.66531">
        <time>2022-07-30T11:40:35Z</time>
      </trkpt>
      <trkpt lat="42.55677" lon="-0.66509">
        <time>2022-07-30T11:40:36Z</time>
      </trkpt>
      <trkpt lat="42.55682" lon="-0.66488">
        <time>2022-07-30T11:40:37Z</time>
      </trkpt>
      <trkpt lat="42.55686" lon="-0.66467">
        <time>2022-07-30T11:40:38Z</time>
      </trkpt>
      <trkpt lat="42.55692" lon="-0.66447">
        <time>2022-07-30T11:40:39Z</time>
      </trkpt>
      <trkpt lat="42.55697" lon="-0.66428">
        <time>2022-07-30T11:40:40Z</time>
      </trkpt>
      <trkpt lat="42.55703" lon="-0.66412">
        <time>2022-07-30T11:40:41Z</time>
      </trkpt>
      <trkpt lat="42.55712" lon="-0.66396">
        <time>2022-07-30T11:40:42Z</time>
      </trkpt>
      <trkpt lat="42.5572" lon="-0.66381">
        <time>2022-07-30T11:40:43Z</time>
      </trkpt>
      <trkpt lat="42.55726" lon="-0.66363">
        <time>2022-07-30T11:40:44Z</time>
      </trkpt>
      <trkpt lat="42.55731" lon="-0.66342">
        <time>2022-07-30T11:40:45Z</time>
      </trkpt>
      <trkpt lat="42.55733" lon="-0.66319">
        <time>2022-07-30T11:40:46Z</time>
      </trkpt>
      <trkpt lat="42.55733" lon="-0.66294">
        <time>2022-07-30T11:40:47Z</time>
      </trkpt>
      <trkpt lat="42.55732" lon="-0.66267">
        <time>2022-07-30T11:40:48Z</time>
      </trkpt>
      <trkpt lat="42.5573" lon="-0.6624">
        <time>2022-07-30T11:40:49Z</time>
      </trkpt>
      <trkpt lat="42.55728" lon="-0.66212">
        <time>2022-07-30T11:40:50Z</time>
      </trkpt>
      <trkpt lat="42.55726" lon="-0.66185">
        <time>2022-07-30T11:40:51Z</time>
      </trkpt>
      <trkpt lat="42.55724" lon="-0.66157">
        <time>2022-07-30T11:40:52Z</time>
      </trkpt>
      <trkpt lat="42.55722" lon="-0.66128">
        <time>2022-07-30T11:40:53Z</time>
      </trkpt>
      <trkpt lat="42.55723" lon="-0.66099">
        <time>2022-07-30T11:40:54Z</time>
      </trkpt>
      <trkpt lat="42.55723" lon="-0.66069">
        <time>2022-07-30T11:40:55Z</time>
      </trkpt>
      <trkpt lat="42.55724" lon="-0.66039">
        <time>2022-07-30T11:40:56Z</time>
      </trkpt>
      <trkpt lat="42.55726" lon="-0.6601">
        <time>2022-07-30T11:40:57Z</time>
      </trkpt>
      <trkpt lat="42.55728" lon="-0.65983">
        <time>2022-07-30T11:40:58Z</time>
      </trkpt>
      <trkpt lat="42.55732" lon="-0.65957">
        <time>2022-07-30T11:40:59Z</time>
      </trkpt>
      <trkpt lat="42.55738" lon="-0.65933">
        <time>2022-07-30T11:41:00Z</time>
      </trkpt>
      <trkpt lat="42.55746" lon="-0.65909">
        <time>2022-07-30T11:41:01Z</time>
      </trkpt>
      <trkpt lat="42.55753" lon="-0.65887">
        <time>2022-07-30T11:41:02Z</time>
      </trkpt>
      <trkpt lat="42.55761" lon="-0.65864">
        <time>2022-07-30T11:41:03Z</time>
      </trkpt>
      <trkpt lat="42.55767" lon="-0.65842">
        <time>2022-07-30T11:41:04Z</time>
      </trkpt>
      <trkpt lat="42.55769" lon="-0.65818">
        <time>2022-07-30T11:41:05Z</time>
      </trkpt>
      <trkpt lat="42.55767" lon="-0.65793">
        <time>2022-07-30T11:41:06Z</time>
      </trkpt>
      <trkpt lat="42.55761" lon="-0.65769">
        <time>2022-07-30T11:41:07Z</time>
      </trkpt>
      <trkpt lat="42.55752" lon="-0.65745">
        <time>2022-07-30T11:41:08Z</time>
      </trkpt>
      <trkpt lat="42.55742" lon="-0.65721">
        <time>2022-07-30T11:41:09Z</time>
      </trkpt>
      <trkpt lat="42.55734" lon="-0.65695">
        <time>2022-07-30T11:41:10Z</time>
      </trkpt>
      <trkpt lat="42.55727" lon="-0.65667">
        <time>2022-07-30T11:41:11Z</time>
      </trkpt>
      <trkpt lat="42.55723" lon="-0.65635">
        <time>2022-07-30T11:41:12Z</time>
      </trkpt>
      <trkpt lat="42.5572" lon="-0.65601">
        <time>2022-07-30T11:41:13Z</time>
      </trkpt>
      <trkpt lat="42.55716" lon="-0.65567">
        <time>2022-07-30T11:41:14Z</time>
      </trkpt>
      <trkpt lat="42.55713" lon="-0.65533">
        <time>2022-07-30T11:41:15Z</time>
      </trkpt>
      <trkpt lat="42.55711" lon="-0.65498">
        <time>2022-07-30T11:41:16Z</time>
      </trkpt>
      <trkpt lat="42.55708" lon="-0.65463">
        <time>2022-07-30T11:41:17Z</time>
      </trkpt>
      <trkpt lat="42.55704" lon="-0.65428">
        <time>2022-07-30T11:41:18Z</time>
      </trkpt>
      <trkpt lat="42.55701" lon="-0.65393">
        <time>2022-07-30T11:41:19Z</time>
      </trkpt>
      <trkpt lat="42.55699" lon="-0.6536">
        <time>2022-07-30T11:41:20Z</time>
      </trkpt>
      <trkpt lat="42.55699" lon="-0.65326">
        <time>2022-07-30T11:41:21Z</time>
      </trkpt>
      <trkpt lat="42.557" lon="-0.65294">
        <time>2022-07-30T11:41:22Z</time>
      </trkpt>
      <trkpt lat="42.55702" lon="-0.65261">
        <time>2022-07-30T11:41:23Z</time>
      </trkpt>
      <trkpt lat="42.55704" lon="-0.65229">
        <time>2022-07-30T11:41:24Z</time>
      </trkpt>
      <trkpt lat="42.55704" lon="-0.65197">
        <time>2022-07-30T11:41:25Z</time>
      </trkpt>
      <trkpt lat="42.55704" lon="-0.65164">
        <time>2022-07-30T11:41:26Z</time>
      </trkpt>
      <trkpt lat="42.55704" lon="-0.6513">
        <time>2022-07-30T11:41:27Z</time>
      </trkpt>
      <trkpt lat="42.55704" lon="-0.65096">
        <time>2022-07-30T11:41:28Z</time>
      </trkpt>
      <trkpt lat="42.55703" lon="-0.65061">
        <time>2022-07-30T11:41:29Z</time>
      </trkpt>
      <trkpt lat="42.55703" lon="-0.65025">
        <time>2022-07-30T11:41:30Z</time>
      </trkpt>
      <trkpt lat="42.55702" lon="-0.64989">
        <time>2022-07-30T11:41:31Z</time>
      </trkpt>
      <trkpt lat="42.55702" lon="-0.64952">
        <time>2022-07-30T11:41:32Z</time>
      </trkpt>
      <trkpt lat="42.55701" lon="-0.64915">
        <time>2022-07-30T11:41:33Z</time>
      </trkpt>
      <trkpt lat="42.55701" lon="-0.64879">
        <time>2022-07-30T11:41:34Z</time>
      </trkpt>
      <trkpt lat="42.557" lon="-0.64844">
        <time>2022-07-30T11:41:35Z</time>
      </trkpt>
      <trkpt lat="42.557" lon="-0.64809">
        <time>2022-07-30T11:41:36Z</time>
      </trkpt>
      <trkpt lat="42.55699" lon="-0.64774">
        <time>2022-07-30T11:41:37Z</time>
      </trkpt>
      <trkpt lat="42.55699" lon="-0.64741">
        <time>2022-07-30T11:41:38Z</time>
      </trkpt>
      <trkpt lat="42.55699" lon="-0.64707">
        <time>2022-07-30T11:41:39Z</time>
      </trkpt>
      <trkpt lat="42.55699" lon="-0.64673">
        <time>2022-07-30T11:41:40Z</time>
      </trkpt>
      <trkpt lat="42.55698" lon="-0.64639">
        <time>2022-07-30T11:41:41Z</time>
      </trkpt>
      <trkpt lat="42.55698" lon="-0.64605">
        <time>2022-07-30T11:41:42Z</time>
      </trkpt>
      <trkpt lat="42.55698" lon="-0.64571">
        <time>2022-07-30T11:41:43Z</time>
      </trkpt>
      <trkpt lat="42.55697" lon="-0.64537">
        <time>2022-07-30T11:41:44Z</time>
      </trkpt>
      <trkpt lat="42.55697" lon="-0.64503">
        <time>2022-07-30T11:41:45Z</time>
      </trkpt>
      <trkpt lat="42.55696" lon="-0.64469">
        <time>2022-07-30T11:41:46Z</time>
      </trkpt>
      <trkpt lat="42.55696" lon="-0.64435">
        <time>2022-07-30T11:41:47Z</time>
      </trkpt>
      <trkpt lat="42.55695" lon="-0.644">
        <time>2022-07-30T11:41:48Z</time>
      </trkpt>
      <trkpt lat="42.55695" lon="-0.64366">
        <time>2022-07-30T11:41:49Z</time>
      </trkpt>
      <trkpt lat="42.55694" lon="-0.64331">
        <time>2022-07-30T11:41:50Z</time>
      </trkpt>
      <trkpt lat="42.55694" lon="-0.64296">
        <time>2022-07-30T11:41:51Z</time>
      </trkpt>
      <trkpt lat="42.55693" lon="-0.64261">
        <time>2022-07-30T11:41:52Z</time>
      </trkpt>
      <trkpt lat="42.55693" lon="-0.64226">
        <time>2022-07-30T11:41:53Z</time>
      </trkpt>
      <trkpt lat="42.55693" lon="-0.64192">
        <time>2022-07-30T11:41:54Z</time>
      </trkpt>
      <trkpt lat="42.55692" lon="-0.64159">
        <time>2022-07-30T11:41:55Z</time>
      </trkpt>
      <trkpt lat="42.55692" lon="-0.64126">
        <time>2022-07-30T11:41:56Z</time>
      </trkpt>
      <trkpt lat="42.55692" lon="-0.64093">
        <time>2022-07-30T11:41:57Z</time>
      </trkpt>
      <trkpt lat="42.55691" lon="-0.6406">
        <time>2022-07-30T11:41:58Z</time>
      </trkpt>
      <trkpt lat="42.55691" lon="-0.64027">
        <time>2022-07-30T11:41:59Z</time>
      </trkpt>
      <trkpt lat="42.55691" lon="-0.63994">
        <time>2022-07-30T11:42:00Z</time>
      </trkpt>
      <trkpt lat="42.5569" lon="-0.6396">
        <time>2022-07-30T11:42:01Z</time>
      </trkpt>
      <trkpt lat="42.5569" lon="-0.63927">
        <time>2022-07-30T11:42:02Z</time>
      </trkpt>
      <trkpt lat="42.55688" lon="-0.63893">
        <time>2022-07-30T11:42:03Z</time>
      </trkpt>
      <trkpt lat="42.55686" lon="-0.63859">
        <time>2022-07-30T11:42:04Z</time>
      </trkpt>
      <trkpt lat="42.55683" lon="-0.63826">
        <time>2022-07-30T11:42:05Z</time>
      </trkpt>
      <trkpt lat="42.55679" lon="-0.63792">
        <time>2022-07-30T11:42:06Z</time>
      </trkpt>
      <trkpt lat="42.55674" lon="-0.63758">
        <time>2022-07-30T11:42:07Z</time>
      </trkpt>
      <trkpt lat="42.5567" lon="-0.63724">
        <time>2022-07-30T11:42:08Z</time>
      </trkpt>
      <trkpt lat="42.55666" lon="-0.63689">
        <time>2022-07-30T11:42:09Z</time>
      </trkpt>
      <trkpt lat="42.55662" lon="-0.63655">
        <time>2022-07-30T11:42:10Z</time>
      </trkpt>
      <trkpt lat="42.55657" lon="-0.6362">
        <time>2022-07-30T11:42:11Z</time>
      </trkpt>
      <trkpt lat="42.55653" lon="-0.63585">
        <time>2022-07-30T11:42:12Z</time>
      </trkpt>
      <trkpt lat="42.55648" lon="-0.6355">
        <time>2022-07-30T11:42:13Z</time>
      </trkpt>
      <trkpt lat="42.55643" lon="-0.63513">
        <time>2022-07-30T11:42:14Z</time>
      </trkpt>
      <trkpt lat="42.55638" lon="-0.63478">
        <time>2022-07-30T11:42:15Z</time>
      </trkpt>
      <trkpt lat="42.55633" lon="-0.63442">
        <time>2022-07-30T11:42:16Z</time>
      </trkpt>
      <trkpt lat="42.55628" lon="-0.63406">
        <time>2022-07-30T11:42:17Z</time>
      </trkpt>
      <trkpt lat="42.55623" lon="-0.6337">
        <time>2022-07-30T11:42:18Z</time>
      </trkpt>
      <trkpt lat="42.55618" lon="-0.63335">
        <time>2022-07-30T11:42:19Z</time>
      </trkpt>
      <trkpt lat="42.55614" lon="-0.63299">
        <time>2022-07-30T11:42:20Z</time>
      </trkpt>
      <trkpt lat="42.55609" lon="-0.63264">
        <time>2022-07-30T11:42:21Z</time>
      </trkpt>
      <trkpt lat="42.55604" lon="-0.63228">
        <time>2022-07-30T11:42:22Z</time>
      </trkpt>
      <trkpt lat="42.556" lon="-0.63193">
        <time>2022-07-30T11:42:23Z</time>
      </trkpt>
      <trkpt lat="42.55595" lon="-0.63158">
        <time>2022-07-30T11:42:24Z</time>
      </trkpt>
      <trkpt lat="42.5559" lon="-0.63123">
        <time>2022-07-30T11:42:25Z</time>
      </trkpt>
      <trkpt lat="42.55585" lon="-0.63088">
        <time>2022-07-30T11:42:26Z</time>
      </trkpt>
      <trkpt lat="42.5558" lon="-0.63054">
        <time>2022-07-30T11:42:27Z</time>
      </trkpt>
      <trkpt lat="42.55576" lon="-0.6302">
        <time>2022-07-30T11:42:28Z</time>
      </trkpt>
      <trkpt lat="42.55571" lon="-0.62985">
        <time>2022-07-30T11:42:29Z</time>
      </trkpt>
      <trkpt lat="42.55566" lon="-0.62951">
        <time>2022-07-30T11:42:30Z</time>
      </trkpt>
      <trkpt lat="42.55562" lon="-0.62916">
        <time>2022-07-30T11:42:31Z</time>
      </trkpt>
      <trkpt lat="42.55557" lon="-0.62882">
        <time>2022-07-30T11:42:32Z</time>
      </trkpt>
      <trkpt lat="42.55553" lon="-0.62848">
        <time>2022-07-30T11:42:33Z</time>
      </trkpt>
      <trkpt lat="42.55548" lon="-0.62813">
        <time>2022-07-30T11:42:34Z</time>
      </trkpt>
      <trkpt lat="42.55543" lon="-0.62779">
        <time>2022-07-30T11:42:35Z</time>
      </trkpt>
      <trkpt lat="42.55538" lon="-0.62745">
        <time>2022-07-30T11:42:36Z</time>
      </trkpt>
      <trkpt lat="42.55534" lon="-0.62711">
        <time>2022-07-30T11:42:37Z</time>
      </trkpt>
      <trkpt lat="42.55529" lon="-0.62677">
        <time>2022-07-30T11:42:38Z</time>
      </trkpt>
      <trkpt lat="42.55524" lon="-0.62642">
        <time>2022-07-30T11:42:39Z</time>
      </trkpt>
      <trkpt lat="42.5552" lon="-0.62608">
        <time>2022-07-30T11:42:40Z</time>
      </trkpt>
      <trkpt lat="42.55515" lon="-0.62574">
        <time>2022-07-30T11:42:41Z</time>
      </trkpt>
      <trkpt lat="42.5551" lon="-0.62539">
        <time>2022-07-30T11:42:42Z</time>
      </trkpt>
      <trkpt lat="42.55506" lon="-0.62504">
        <time>2022-07-30T11:42:43Z</time>
      </trkpt>
      <trkpt lat="42.55501" lon="-0.62469">
        <time>2022-07-30T11:42:44Z</time>
      </trkpt>
      <trkpt lat="42.55496" lon="-0.62434">
        <time>2022-07-30T11:42:45Z</time>
      </trkpt>
      <trkpt lat="42.55492" lon="-0.62399">
        <time>2022-07-30T11:42:46Z</time>
      </trkpt>
      <trkpt lat="42.55487" lon="-0.62364">
        <time>2022-07-30T11:42:47Z</time>
      </trkpt>
      <trkpt lat="42.55482" lon="-0.62329">
        <time>2022-07-30T11:42:48Z</time>
      </trkpt>
      <trkpt lat="42.55477" lon="-0.62295">
        <time>2022-07-30T11:42:49Z</time>
      </trkpt>
      <trkpt lat="42.55473" lon="-0.6226">
        <time>2022-07-30T11:42:50Z</time>
      </trkpt>
      <trkpt lat="42.55468" lon="-0.62226">
        <time>2022-07-30T11:42:51Z</time>
      </trkpt>
      <trkpt lat="42.55463" lon="-0.62192">
        <time>2022-07-30T11:42:52Z</time>
      </trkpt>
      <trkpt lat="42.55459" lon="-0.62159">
        <time>2022-07-30T11:42:53Z</time>
      </trkpt>
      <trkpt lat="42.55454" lon="-0.62126">
        <time>2022-07-30T11:42:54Z</time>
      </trkpt>
      <trkpt lat="42.5545" lon="-0.62093">
        <time>2022-07-30T11:42:55Z</time>
      </trkpt>
      <trkpt lat="42.55445" lon="-0.6206">
        <time>2022-07-30T11:42:56Z</time>
      </trkpt>
      <trkpt lat="42.55441" lon="-0.62027">
        <time>2022-07-30T11:42:57Z</time>
      </trkpt>
      <trkpt lat="42.55436" lon="-0.61995">
        <time>2022-07-30T11:42:58Z</time>
      </trkpt>
      <trkpt lat="42.55431" lon="-0.61962">
        <time>2022-07-30T11:42:59Z</time>
      </trkpt>
      <trkpt lat="42.55427" lon="-0.61929">
        <time>2022-07-30T11:43:00Z</time>
      </trkpt>
      <trkpt lat="42.55423" lon="-0.61897">
        <time>2022-07-30T11:43:01Z</time>
      </trkpt>
      <trkpt lat="42.55418" lon="-0.61864">
        <time>2022-07-30T11:43:02Z</time>
      </trkpt>
      <trkpt lat="42.55414" lon="-0.61831">
        <time>2022-07-30T11:43:03Z</time>
      </trkpt>
      <trkpt lat="42.55409" lon="-0.61798">
        <time>2022-07-30T11:43:04Z</time>
      </trkpt>
      <trkpt lat="42.55405" lon="-0.61764">
        <time>2022-07-30T11:43:05Z</time>
      </trkpt>
      <trkpt lat="42.554" lon="-0.61731">
        <time>2022-07-30T11:43:06Z</time>
      </trkpt>
      <trkpt lat="42.55395" lon="-0.61698">
        <time>2022-07-30T11:43:07Z</time>
      </trkpt>
      <trkpt lat="42.5539" lon="-0.61664">
        <time>2022-07-30T11:43:08Z</time>
      </trkpt>
      <trkpt lat="42.55386" lon="-0.61631">
        <time>2022-07-30T11:43:09Z</time>
      </trkpt>
      <trkpt lat="42.55381" lon="-0.61597">
        <time>2022-07-30T11:43:10Z</time>
      </trkpt>
      <trkpt lat="42.55377" lon="-0.61565">
        <time>2022-07-30T11:43:11Z</time>
      </trkpt>
      <trkpt lat="42.55373" lon="-0.61533">
        <time>2022-07-30T11:43:12Z</time>
      </trkpt>
      <trkpt lat="42.55369" lon="-0.61501">
        <time>2022-07-30T11:43:13Z</time>
      </trkpt>
      <trkpt lat="42.55364" lon="-0.61469">
        <time>2022-07-30T11:43:14Z</time>
      </trkpt>
      <trkpt lat="42.5536" lon="-0.61438">
        <time>2022-07-30T11:43:15Z</time>
      </trkpt>
      <trkpt lat="42.55355" lon="-0.61406">
        <time>2022-07-30T11:43:16Z</time>
      </trkpt>
      <trkpt lat="42.55351" lon="-0.61375">
        <time>2022-07-30T11:43:17Z</time>
      </trkpt>
      <trkpt lat="42.55346" lon="-0.61345">
        <time>2022-07-30T11:43:18Z</time>
      </trkpt>
      <trkpt lat="42.55342" lon="-0.61315">
        <time>2022-07-30T11:43:19Z</time>
      </trkpt>
      <trkpt lat="42.55339" lon="-0.61284">
        <time>2022-07-30T11:43:20Z</time>
      </trkpt>
      <trkpt lat="42.55338" lon="-0.61254">
        <time>2022-07-30T11:43:21Z</time>
      </trkpt>
      <trkpt lat="42.5534" lon="-0.61224">
        <time>2022-07-30T11:43:22Z</time>
      </trkpt>
      <trkpt lat="42.55345" lon="-0.61194">
        <time>2022-07-30T11:43:23Z</time>
      </trkpt>
      <trkpt lat="42.55352" lon="-0.61164">
        <time>2022-07-30T11:43:24Z</time>
      </trkpt>
      <trkpt lat="42.5536" lon="-0.61134">
        <time>2022-07-30T11:43:25Z</time>
      </trkpt>
      <trkpt lat="42.55369" lon="-0.61104">
        <time>2022-07-30T11:43:26Z</time>
      </trkpt>
      <trkpt lat="42.55377" lon="-0.61073">
        <time>2022-07-30T11:43:27Z</time>
      </trkpt>
      <trkpt lat="42.55386" lon="-0.61043">
        <time>2022-07-30T11:43:28Z</time>
      </trkpt>
      <trkpt lat="42.55395" lon="-0.61013">
        <time>2022-07-30T11:43:29Z</time>
      </trkpt>
      <trkpt lat="42.55404" lon="-0.60982">
        <time>2022-07-30T11:43:30Z</time>
      </trkpt>
      <trkpt lat="42.55413" lon="-0.60951">
        <time>2022-07-30T11:43:31Z</time>
      </trkpt>
      <trkpt lat="42.55422" lon="-0.60921">
        <time>2022-07-30T11:43:32Z</time>
      </trkpt>
      <trkpt lat="42.5543" lon="-0.6089">
        <time>2022-07-30T11:43:33Z</time>
      </trkpt>
      <trkpt lat="42.55439" lon="-0.60861">
        <time>2022-07-30T11:43:34Z</time>
      </trkpt>
      <trkpt lat="42.55448" lon="-0.6083">
        <time>2022-07-30T11:43:35Z</time>
      </trkpt>
      <trkpt lat="42.55456" lon="-0.60801">
        <time>2022-07-30T11:43:36Z</time>
      </trkpt>
      <trkpt lat="42.55465" lon="-0.60772">
        <time>2022-07-30T11:43:37Z</time>
      </trkpt>
      <trkpt lat="42.55474" lon="-0.60743">
        <time>2022-07-30T11:43:38Z</time>
      </trkpt>
      <trkpt lat="42.55482" lon="-0.60714">
        <time>2022-07-30T11:43:39Z</time>
      </trkpt>
      <trkpt lat="42.55491" lon="-0.60685">
        <time>2022-07-30T11:43:40Z</time>
      </trkpt>
      <trkpt lat="42.55498" lon="-0.60658">
        <time>2022-07-30T11:43:41Z</time>
      </trkpt>
      <trkpt lat="42.55507" lon="-0.60631">
        <time>2022-07-30T11:43:42Z</time>
      </trkpt>
      <trkpt lat="42.55514" lon="-0.60605">
        <time>2022-07-30T11:43:43Z</time>
      </trkpt>
      <trkpt lat="42.55522" lon="-0.60579">
        <time>2022-07-30T11:43:44Z</time>
      </trkpt>
      <trkpt lat="42.5553" lon="-0.60552">
        <time>2022-07-30T11:43:45Z</time>
      </trkpt>
      <trkpt lat="42.55538" lon="-0.60526">
        <time>2022-07-30T11:43:46Z</time>
      </trkpt>
      <trkpt lat="42.55546" lon="-0.605">
        <time>2022-07-30T11:43:47Z</time>
      </trkpt>
      <trkpt lat="42.55554" lon="-0.60473">
        <time>2022-07-30T11:43:48Z</time>
      </trkpt>
      <trkpt lat="42.55561" lon="-0.60448">
        <time>2022-07-30T11:43:49Z</time>
      </trkpt>
      <trkpt lat="42.55568" lon="-0.60423">
        <time>2022-07-30T11:43:50Z</time>
      </trkpt>
      <trkpt lat="42.55575" lon="-0.60398">
        <time>2022-07-30T11:43:51Z</time>
      </trkpt>
      <trkpt lat="42.55582" lon="-0.60375">
        <time>2022-07-30T11:43:52Z</time>
      </trkpt>
      <trkpt lat="42.55589" lon="-0.60353">
        <time>2022-07-30T11:43:53Z</time>
      </trkpt>
      <trkpt lat="42.55595" lon="-0.6033">
        <time>2022-07-30T11:43:54Z</time>
      </trkpt>
      <trkpt lat="42.55601" lon="-0.60307">
        <time>2022-07-30T11:43:55Z</time>
      </trkpt>
      <trkpt lat="42.55608" lon="-0.60284">
        <time>2022-07-30T11:43:56Z</time>
      </trkpt>
      <trkpt lat="42.55614" lon="-0.60262">
        <time>2022-07-30T11:43:57Z</time>
      </trkpt>
      <trkpt lat="42.55622" lon="-0.60241">
        <time>2022-07-30T11:43:58Z</time>
      </trkpt>
      <trkpt lat="42.55631" lon="-0.60222">
        <time>2022-07-30T11:43:59Z</time>
      </trkpt>
      <trkpt lat="42.55644" lon="-0.60205">
        <time>2022-07-30T11:44:00Z</time>
      </trkpt>
      <trkpt lat="42.55658" lon="-0.60193">
        <time>2022-07-30T11:44:01Z</time>
      </trkpt>
      <trkpt lat="42.55672" lon="-0.60184">
        <time>2022-07-30T11:44:02Z</time>
      </trkpt>
      <trkpt lat="42.55686" lon="-0.60172">
        <time>2022-07-30T11:44:03Z</time>
      </trkpt>
      <trkpt lat="42.55698" lon="-0.60158">
        <time>2022-07-30T11:44:04Z</time>
      </trkpt>
      <trkpt lat="42.55709" lon="-0.60139">
        <time>2022-07-30T11:44:05Z</time>
      </trkpt>
      <trkpt lat="42.55717" lon="-0.60116">
        <time>2022-07-30T11:44:06Z</time>
      </trkpt>
      <trkpt lat="42.55724" lon="-0.6009">
        <time>2022-07-30T11:44:07Z</time>
      </trkpt>
      <trkpt lat="42.5573" lon="-0.60062">
        <time>2022-07-30T11:44:08Z</time>
      </trkpt>
      <trkpt lat="42.55737" lon="-0.60035">
        <time>2022-07-30T11:44:09Z</time>
      </trkpt>
      <trkpt lat="42.55743" lon="-0.60007">
        <time>2022-07-30T11:44:10Z</time>
      </trkpt>
      <trkpt lat="42.5575" lon="-0.59978">
        <time>2022-07-30T11:44:11Z</time>
      </trkpt>
      <trkpt lat="42.55757" lon="-0.59949">
        <time>2022-07-30T11:44:12Z</time>
      </trkpt>
      <trkpt lat="42.55764" lon="-0.59919">
        <time>2022-07-30T11:44:13Z</time>
      </trkpt>
      <trkpt lat="42.55772" lon="-0.59889">
        <time>2022-07-30T11:44:14Z</time>
      </trkpt>
      <trkpt lat="42.55779" lon="-0.59858">
        <time>2022-07-30T11:44:15Z</time>
      </trkpt>
      <trkpt lat="42.55786" lon="-0.59828">
        <time>2022-07-30T11:44:16Z</time>
      </trkpt>
      <trkpt lat="42.55794" lon="-0.59798">
        <time>2022-07-30T11:44:17Z</time>
      </trkpt>
      <trkpt lat="42.55801" lon="-0.59768">
        <time>2022-07-30T11:44:18Z</time>
      </trkpt>
      <trkpt lat="42.55808" lon="-0.59738">
        <time>2022-07-30T11:44:19Z</time>
      </trkpt>
      <trkpt lat="42.55815" lon="-0.59708">
        <time>2022-07-30T11:44:20Z</time>
      </trkpt>
      <trkpt lat="42.55823" lon="-0.59678">
        <time>2022-07-30T11:44:21Z</time>
      </trkpt>
      <trkpt lat="42.5583" lon="-0.59648">
        <time>2022-07-30T11:44:22Z</time>
      </trkpt>
      <trkpt lat="42.55837" lon="-0.59619">
        <time>2022-07-30T11:44:23Z</time>
      </trkpt>
      <trkpt lat="42.55844" lon="-0.59591">
        <time>2022-07-30T11:44:24Z</time>
      </trkpt>
      <trkpt lat="42.5585" lon="-0.59565">
        <time>2022-07-30T11:44:25Z</time>
      </trkpt>
      <trkpt lat="42.55856" lon="-0.59539">
        <time>2022-07-30T11:44:26Z</time>
      </trkpt>
      <trkpt lat="42.55861" lon="-0.59516">
        <time>2022-07-30T11:44:27Z</time>
      </trkpt>
      <trkpt lat="42.55866" lon="-0.59493">
        <time>2022-07-30T11:44:28Z</time>
      </trkpt>
      <trkpt lat="42.55871" lon="-0.59472">
        <time>2022-07-30T11:44:29Z</time>
      </trkpt>
      <trkpt lat="42.55876" lon="-0.59451">
        <time>2022-07-30T11:44:30Z</time>
      </trkpt>
      <trkpt lat="42.5588" lon="-0.59431">
        <time>2022-07-30T11:44:31Z</time>
      </trkpt>
      <trkpt lat="42.55885" lon="-0.59412">
        <time>2022-07-30T11:44:32Z</time>
      </trkpt>
      <trkpt lat="42.55888" lon="-0.59395">
        <time>2022-07-30T11:44:33Z</time>
      </trkpt>
      <trkpt lat="42.55892" lon="-0.59378">
        <time>2022-07-30T11:44:34Z</time>
      </trkpt>
      <trkpt lat="42.55896" lon="-0.59362">
        <time>2022-07-30T11:44:35Z</time>
      </trkpt>
      <trkpt lat="42.559" lon="-0.59346">
        <time>2022-07-30T11:44:36Z</time>
      </trkpt>
      <trkpt lat="42.55904" lon="-0.59331">
        <time>2022-07-30T11:44:37Z</time>
      </trkpt>
      <trkpt lat="42.55908" lon="-0.59317">
        <time>2022-07-30T11:44:38Z</time>
      </trkpt>
      <trkpt lat="42.55913" lon="-0.59304">
        <time>2022-07-30T11:44:39Z</time>
      </trkpt>
      <trkpt lat="42.55919" lon="-0.59292">
        <time>2022-07-30T11:44:40Z</time>
      </trkpt>
      <trkpt lat="42.55924" lon="-0.5928">
        <time>2022-07-30T11:44:41Z</time>
      </trkpt>
      <trkpt lat="42.55928" lon="-0.59266">
        <time>2022-07-30T11:44:42Z</time>
      </trkpt>
      <trkpt lat="42.5593" lon="-0.59251">
        <time>2022-07-30T11:44:43Z</time>
      </trkpt>
      <trkpt lat="42.55933" lon="-0.59236">
        <time>2022-07-30T11:44:44Z</time>
      </trkpt>
      <trkpt lat="42.55938" lon="-0.59219">
        <time>2022-07-30T11:44:45Z</time>
      </trkpt>
      <trkpt lat="42.55942" lon="-0.59199">
        <time>2022-07-30T11:44:46Z</time>
      </trkpt>
      <trkpt lat="42.55944" lon="-0.59176">
        <time>2022-07-30T11:44:47Z</time>
      </trkpt>
      <trkpt lat="42.55947" lon="-0.59152">
        <time>2022-07-30T11:44:48Z</time>
      </trkpt>
      <trkpt lat="42.55953" lon="-0.59126">
        <time>2022-07-30T11:44:49Z</time>
      </trkpt>
      <trkpt lat="42.55959" lon="-0.591">
        <time>2022-07-30T11:44:50Z</time>
      </trkpt>
      <trkpt lat="42.55965" lon="-0.59072">
        <time>2022-07-30T11:44:51Z</time>
      </trkpt>
      <trkpt lat="42.55972" lon="-0.59043">
        <time>2022-07-30T11:44:52Z</time>
      </trkpt>
      <trkpt lat="42.55979" lon="-0.59014">
        <time>2022-07-30T11:44:53Z</time>
      </trkpt>
      <trkpt lat="42.55985" lon="-0.58985">
        <time>2022-07-30T11:44:54Z</time>
      </trkpt>
      <trkpt lat="42.55992" lon="-0.58956">
        <time>2022-07-30T11:44:55Z</time>
      </trkpt>
      <trkpt lat="42.55999" lon="-0.58927">
        <time>2022-07-30T11:44:56Z</time>
      </trkpt>
      <trkpt lat="42.56006" lon="-0.58897">
        <time>2022-07-30T11:44:57Z</time>
      </trkpt>
      <trkpt lat="42.56012" lon="-0.58868">
        <time>2022-07-30T11:44:58Z</time>
      </trkpt>
      <trkpt lat="42.56019" lon="-0.58839">
        <time>2022-07-30T11:44:59Z</time>
      </trkpt>
      <trkpt lat="42.56027" lon="-0.5881">
        <time>2022-07-30T11:45:00Z</time>
      </trkpt>
      <trkpt lat="42.56036" lon="-0.58782">
        <time>2022-07-30T11:45:01Z</time>
      </trkpt>
      <trkpt lat="42.56045" lon="-0.58753">
        <time>2022-07-30T11:45:02Z</time>
      </trkpt>
      <trkpt lat="42.56056" lon="-0.58724">
        <time>2022-07-30T11:45:03Z</time>
      </trkpt>
      <trkpt lat="42.56067" lon="-0.58695">
        <time>2022-07-30T11:45:04Z</time>
      </trkpt>
      <trkpt lat="42.56076" lon="-0.58665">
        <time>2022-07-30T11:45:05Z</time>
      </trkpt>
      <trkpt lat="42.56085" lon="-0.58634">
        <time>2022-07-30T11:45:06Z</time>
      </trkpt>
      <trkpt lat="42.56093" lon="-0.58604">
        <time>2022-07-30T11:45:07Z</time>
      </trkpt>
      <trkpt lat="42.56101" lon="-0.58575">
        <time>2022-07-30T11:45:08Z</time>
      </trkpt>
      <trkpt lat="42.56109" lon="-0.58546">
        <time>2022-07-30T11:45:09Z</time>
      </trkpt>
      <trkpt lat="42.56117" lon="-0.58518">
        <time>2022-07-30T11:45:10Z</time>
      </trkpt>
      <trkpt lat="42.56124" lon="-0.58491">
        <time>2022-07-30T11:45:11Z</time>
      </trkpt>
      <trkpt lat="42.56131" lon="-0.58465">
        <time>2022-07-30T11:45:12Z</time>
      </trkpt>
      <trkpt lat="42.56138" lon="-0.5844">
        <time>2022-07-30T11:45:13Z</time>
      </trkpt>
      <trkpt lat="42.56144" lon="-0.58416">
        <time>2022-07-30T11:45:14Z</time>
      </trkpt>
      <trkpt lat="42.5615" lon="-0.58394">
        <time>2022-07-30T11:45:15Z</time>
      </trkpt>
      <trkpt lat="42.56156" lon="-0.58372">
        <time>2022-07-30T11:45:16Z</time>
      </trkpt>
      <trkpt lat="42.56161" lon="-0.58351">
        <time>2022-07-30T11:45:17Z</time>
      </trkpt>
      <trkpt lat="42.56166" lon="-0.58328">
        <time>2022-07-30T11:45:18Z</time>
      </trkpt>
      <trkpt lat="42.56169" lon="-0.58304">
        <time>2022-07-30T11:45:19Z</time>
      </trkpt>
      <trkpt lat="42.56172" lon="-0.58278">
        <time>2022-07-30T11:45:20Z</time>
      </trkpt>
      <trkpt lat="42.56175" lon="-0.58251">
        <time>2022-07-30T11:45:21Z</time>
      </trkpt>
      <trkpt lat="42.56178" lon="-0.58224">
        <time>2022-07-30T11:45:22Z</time>
      </trkpt>
      <trkpt lat="42.5618" lon="-0.58196">
        <time>2022-07-30T11:45:23Z</time>
      </trkpt>
      <trkpt lat="42.56183" lon="-0.58169">
        <time>2022-07-30T11:45:24Z</time>
      </trkpt>
      <trkpt lat="42.56185" lon="-0.58141">
        <time>2022-07-30T11:45:25Z</time>
      </trkpt>
      <trkpt lat="42.56188" lon="-0.58113">
        <time>2022-07-30T11:45:26Z</time>
      </trkpt>
      <trkpt lat="42.56193" lon="-0.58086">
        <time>2022-07-30T11:45:27Z</time>
      </trkpt>
      <trkpt lat="42.56197" lon="-0.5806">
        <time>2022-07-30T11:45:28Z</time>
      </trkpt>
      <trkpt lat="42.56202" lon="-0.58034">
        <time>2022-07-30T11:45:29Z</time>
      </trkpt>
      <trkpt lat="42.56206" lon="-0.58008">
        <time>2022-07-30T11:45:30Z</time>
      </trkpt>
      <trkpt lat="42.56209" lon="-0.57982">
        <time>2022-07-30T11:45:31Z</time>
      </trkpt>
      <trkpt lat="42.56212" lon="-0.57956">
        <time>2022-07-30T11:45:32Z</time>
      </trkpt>
      <trkpt lat="42.56214" lon="-0.57931">
        <time>2022-07-30T11:45:33Z</time>
      </trkpt>
      <trkpt lat="42.56216" lon="-0.57906">
        <time>2022-07-30T11:45:34Z</time>
      </trkpt>
      <trkpt lat="42.56218" lon="-0.57883">
        <time>2022-07-30T11:45:35Z</time>
      </trkpt>
      <trkpt lat="42.5622" lon="-0.57861">
        <time>2022-07-30T11:45:36Z</time>
      </trkpt>
      <trkpt lat="42.56222" lon="-0.57839">
        <time>2022-07-30T11:45:37Z</time>
      </trkpt>
      <trkpt lat="42.56225" lon="-0.57818">
        <time>2022-07-30T11:45:38Z</time>
      </trkpt>
      <trkpt lat="42.56229" lon="-0.57797">
        <time>2022-07-30T11:45:39Z</time>
      </trkpt>
      <trkpt lat="42.56234" lon="-0.57777">
        <time>2022-07-30T11:45:40Z</time>
      </trkpt>
      <trkpt lat="42.56239" lon="-0.57757">
        <time>2022-07-30T11:45:41Z</time>
      </trkpt>
      <trkpt lat="42.56245" lon="-0.57736">
        <time>2022-07-30T11:45:42Z</time>
      </trkpt>
      <trkpt lat="42.5625" lon="-0.57716">
        <time>2022-07-30T11:45:43Z</time>
      </trkpt>
      <trkpt lat="42.56255" lon="-0.57695">
        <time>2022-07-30T11:45:44Z</time>
      </trkpt>
      <trkpt lat="42.5626" lon="-0.57676">
        <time>2022-07-30T11:45:45Z</time>
      </trkpt>
      <trkpt lat="42.56265" lon="-0.57655">
        <time>2022-07-30T11:45:46Z</time>
      </trkpt>
      <trkpt lat="42.5627" lon="-0.57635">
        <time>2022-07-30T11:45:47Z</time>
      </trkpt>
      <trkpt lat="42.56275" lon="-0.57613">
        <time>2022-07-30T11:45:48Z</time>
      </trkpt>
      <trkpt lat="42.5628" lon="-0.5759">
        <time>2022-07-30T11:45:49Z</time>
      </trkpt>
      <trkpt lat="42.56285" lon="-0.57568">
        <time>2022-07-30T11:45:50Z</time>
      </trkpt>
      <trkpt lat="42.56291" lon="-0.57545">
        <time>2022-07-30T11:45:51Z</time>
      </trkpt>
      <trkpt lat="42.56296" lon="-0.57521">
        <time>2022-07-30T11:45:52Z</time>
      </trkpt>
      <trkpt lat="42.56301" lon="-0.57497">
        <time>2022-07-30T11:45:53Z</time>
      </trkpt>
      <trkpt lat="42.56306" lon="-0.57474">
        <time>2022-07-30T11:45:54Z</time>
      </trkpt>
      <trkpt lat="42.56311" lon="-0.57449">
        <time>2022-07-30T11:45:55Z</time>
      </trkpt>
      <trkpt lat="42.56315" lon="-0.57425">
        <time>2022-07-30T11:45:56Z</time>
      </trkpt>
      <trkpt lat="42.5632" lon="-0.57401">
        <time>2022-07-30T11:45:57Z</time>
      </trkpt>
      <trkpt lat="42.56325" lon="-0.57376">
        <time>2022-07-30T11:45:58Z</time>
      </trkpt>
      <trkpt lat="42.56329" lon="-0.57351">
        <time>2022-07-30T11:45:59Z</time>
      </trkpt>
      <trkpt lat="42.56333" lon="-0.57327">
        <time>2022-07-30T11:46:00Z</time>
      </trkpt>
      <trkpt lat="42.56337" lon="-0.57302">
        <time>2022-07-30T11:46:01Z</time>
      </trkpt>
      <trkpt lat="42.56341" lon="-0.57278">
        <time>2022-07-30T11:46:02Z</time>
      </trkpt>
      <trkpt lat="42.56345" lon="-0.57254">
        <time>2022-07-30T11:46:03Z</time>
      </trkpt>
      <trkpt lat="42.56349" lon="-0.5723">
        <time>2022-07-30T11:46:04Z</time>
      </trkpt>
      <trkpt lat="42.56353" lon="-0.57208">
        <time>2022-07-30T11:46:05Z</time>
      </trkpt>
      <trkpt lat="42.56357" lon="-0.57186">
        <time>2022-07-30T11:46:06Z</time>
      </trkpt>
      <trkpt lat="42.56361" lon="-0.57163">
        <time>2022-07-30T11:46:07Z</time>
      </trkpt>
      <trkpt lat="42.56364" lon="-0.57142">
        <time>2022-07-30T11:46:08Z</time>
      </trkpt>
      <trkpt lat="42.56368" lon="-0.57122">
        <time>2022-07-30T11:46:09Z</time>
      </trkpt>
      <trkpt lat="42.56371" lon="-0.57101">
        <time>2022-07-30T11:46:10Z</time>
      </trkpt>
      <trkpt lat="42.56374" lon="-0.57083">
        <time>2022-07-30T11:46:11Z</time>
      </trkpt>
      <trkpt lat="42.56377" lon="-0.57065">
        <time>2022-07-30T11:46:12Z</time>
      </trkpt>
      <trkpt lat="42.5638" lon="-0.57047">
        <time>2022-07-30T11:46:13Z</time>
      </trkpt>
      <trkpt lat="42.56383" lon="-0.57031">
        <time>2022-07-30T11:46:14Z</time>
      </trkpt>
      <trkpt lat="42.56385" lon="-0.57013">
        <time>2022-07-30T11:46:15Z</time>
      </trkpt>
      <trkpt lat="42.56388" lon="-0.56996">
        <time>2022-07-30T11:46:16Z</time>
      </trkpt>
      <trkpt lat="42.56391" lon="-0.56979">
        <time>2022-07-30T11:46:17Z</time>
      </trkpt>
      <trkpt lat="42.56394" lon="-0.56963">
        <time>2022-07-30T11:46:18Z</time>
      </trkpt>
      <trkpt lat="42.56396" lon="-0.56947">
        <time>2022-07-30T11:46:19Z</time>
      </trkpt>
      <trkpt lat="42.56399" lon="-0.56931">
        <time>2022-07-30T11:46:20Z</time>
      </trkpt>
      <trkpt lat="42.56402" lon="-0.56914">
        <time>2022-07-30T11:46:21Z</time>
      </trkpt>
      <trkpt lat="42.56404" lon="-0.56898">
        <time>2022-07-30T11:46:22Z</time>
      </trkpt>
      <trkpt lat="42.56408" lon="-0.56883">
        <time>2022-07-30T11:46:23Z</time>
      </trkpt>
      <trkpt lat="42.5641" lon="-0.56867">
        <time>2022-07-30T11:46:24Z</time>
      </trkpt>
      <trkpt lat="42.56413" lon="-0.56851">
        <time>2022-07-30T11:46:25Z</time>
      </trkpt>
      <trkpt lat="42.56416" lon="-0.56836">
        <time>2022-07-30T11:46:26Z</time>
      </trkpt>
      <trkpt lat="42.56418" lon="-0.5682">
        <time>2022-07-30T11:46:27Z</time>
      </trkpt>
      <trkpt lat="42.56421" lon="-0.56804">
        <time>2022-07-30T11:46:28Z</time>
      </trkpt>
      <trkpt lat="42.56423" lon="-0.56788">
        <time>2022-07-30T11:46:29Z</time>
      </trkpt>
      <trkpt lat="42.56426" lon="-0.56771">
        <time>2022-07-30T11:46:30Z</time>
      </trkpt>
      <trkpt lat="42.56429" lon="-0.56754">
        <time>2022-07-30T11:46:31Z</time>
      </trkpt>
      <trkpt lat="42.56432" lon="-0.56736">
        <time>2022-07-30T11:46:32Z</time>
      </trkpt>
      <trkpt lat="42.56435" lon="-0.56718">
        <time>2022-07-30T11:46:33Z</time>
      </trkpt>
      <trkpt lat="42.56439" lon="-0.567">
        <time>2022-07-30T11:46:34Z</time>
      </trkpt>
      <trkpt lat="42.56442" lon="-0.56681">
        <time>2022-07-30T11:46:35Z</time>
      </trkpt>
      <trkpt lat="42.56445" lon="-0.56663">
        <time>2022-07-30T11:46:36Z</time>
      </trkpt>
      <trkpt lat="42.56448" lon="-0.56644">
        <time>2022-07-30T11:46:37Z</time>
      </trkpt>
      <trkpt lat="42.56451" lon="-0.56626">
        <time>2022-07-30T11:46:38Z</time>
      </trkpt>
      <trkpt lat="42.56454" lon="-0.56607">
        <time>2022-07-30T11:46:39Z</time>
      </trkpt>
      <trkpt lat="42.56457" lon="-0.56589">
        <time>2022-07-30T11:46:40Z</time>
      </trkpt>
      <trkpt lat="42.56461" lon="-0.56569">
        <time>2022-07-30T11:46:41Z</time>
      </trkpt>
      <trkpt lat="42.56464" lon="-0.5655">
        <time>2022-07-30T11:46:42Z</time>
      </trkpt>
      <trkpt lat="42.56467" lon="-0.56531">
        <time>2022-07-30T11:46:43Z</time>
      </trkpt>
      <trkpt lat="42.5647" lon="-0.56512">
        <time>2022-07-30T11:46:44Z</time>
      </trkpt>
      <trkpt lat="42.56474" lon="-0.56494">
        <time>2022-07-30T11:46:45Z</time>
      </trkpt>
      <trkpt lat="42.56477" lon="-0.56475">
        <time>2022-07-30T11:46:46Z</time>
      </trkpt>
      <trkpt lat="42.5648" lon="-0.56456">
        <time>2022-07-30T11:46:47Z</time>
      </trkpt>
      <trkpt lat="42.56483" lon="-0.56437">
        <time>2022-07-30T11:46:48Z</time>
      </trkpt>
      <trkpt lat="42.56485" lon="-0.56419">
        <time>2022-07-30T11:46:49Z</time>
      </trkpt>
      <trkpt lat="42.56488" lon="-0.56402">
        <time>2022-07-30T11:46:50Z</time>
      </trkpt>
      <trkpt lat="42.56491" lon="-0.56385">
        <time>2022-07-30T11:46:51Z</time>
      </trkpt>
      <trkpt lat="42.56494" lon="-0.56368">
        <time>2022-07-30T11:46:52Z</time>
      </trkpt>
      <trkpt lat="42.56497" lon="-0.56351">
        <time>2022-07-30T11:46:53Z</time>
      </trkpt>
      <trkpt lat="42.565" lon="-0.56334">
        <time>2022-07-30T11:46:54Z</time>
      </trkpt>
      <trkpt lat="42.56503" lon="-0.56317">
        <time>2022-07-30T11:46:55Z</time>
      </trkpt>
      <trkpt lat="42.56506" lon="-0.563">
        <time>2022-07-30T11:46:56Z</time>
      </trkpt>
      <trkpt lat="42.56509" lon="-0.56283">
        <time>2022-07-30T11:46:57Z</time>
      </trkpt>
      <trkpt lat="42.56512" lon="-0.56266">
        <time>2022-07-30T11:46:58Z</time>
      </trkpt>
      <trkpt lat="42.56515" lon="-0.56249">
        <time>2022-07-30T11:46:59Z</time>
      </trkpt>
      <trkpt lat="42.56518" lon="-0.56233">
        <time>2022-07-30T11:47:00Z</time>
      </trkpt>
      <trkpt lat="42.56521" lon="-0.56217">
        <time>2022-07-30T11:47:01Z</time>
      </trkpt>
      <trkpt lat="42.56523" lon="-0.56202">
        <time>2022-07-30T11:47:02Z</time>
      </trkpt>
      <trkpt lat="42.56525" lon="-0.56187">
        <time>2022-07-30T11:47:03Z</time>
      </trkpt>
      <trkpt lat="42.56527" lon="-0.56173">
        <time>2022-07-30T11:47:04Z</time>
      </trkpt>
      <trkpt lat="42.5653" lon="-0.56159">
        <time>2022-07-30T11:47:05Z</time>
      </trkpt>
      <trkpt lat="42.56533" lon="-0.56145">
        <time>2022-07-30T11:47:06Z</time>
      </trkpt>
      <trkpt lat="42.56535" lon="-0.5613">
        <time>2022-07-30T11:47:07Z</time>
      </trkpt>
      <trkpt lat="42.56538" lon="-0.56116">
        <time>2022-07-30T11:47:08Z</time>
      </trkpt>
      <trkpt lat="42.5654" lon="-0.56101">
        <time>2022-07-30T11:47:09Z</time>
      </trkpt>
      <trkpt lat="42.56543" lon="-0.56086">
        <time>2022-07-30T11:47:10Z</time>
      </trkpt>
      <trkpt lat="42.56545" lon="-0.56072">
        <time>2022-07-30T11:47:11Z</time>
      </trkpt>
      <trkpt lat="42.56548" lon="-0.56057">
        <time>2022-07-30T11:47:12Z</time>
      </trkpt>
      <trkpt lat="42.5655" lon="-0.56042">
        <time>2022-07-30T11:47:13Z</time>
      </trkpt>
      <trkpt lat="42.56552" lon="-0.56027">
        <time>2022-07-30T11:47:14Z</time>
      </trkpt>
      <trkpt lat="42.56554" lon="-0.56012">
        <time>2022-07-30T11:47:15Z</time>
      </trkpt>
      <trkpt lat="42.56557" lon="-0.55996">
        <time>2022-07-30T11:47:16Z</time>
      </trkpt>
      <trkpt lat="42.56559" lon="-0.55981">
        <time>2022-07-30T11:47:17Z</time>
      </trkpt>
      <trkpt lat="42.56562" lon="-0.55966">
        <time>2022-07-30T11:47:18Z</time>
      </trkpt>
      <trkpt lat="42.56564" lon="-0.55951">
        <time>2022-07-30T11:47:19Z</time>
      </trkpt>
      <trkpt lat="42.56567" lon="-0.55936">
        <time>2022-07-30T11:47:20Z</time>
      </trkpt>
      <trkpt lat="42.5657" lon="-0.55921">
        <time>2022-07-30T11:47:21Z</time>
      </trkpt>
      <trkpt lat="42.56573" lon="-0.55905">
        <time>2022-07-30T11:47:22Z</time>
      </trkpt>
      <trkpt lat="42.56576" lon="-0.5589">
        <time>2022-07-30T11:47:23Z</time>
      </trkpt>
      <trkpt lat="42.56578" lon="-0.55875">
        <time>2022-07-30T11:47:24Z</time>
      </trkpt>
      <trkpt lat="42.56581" lon="-0.5586">
        <time>2022-07-30T11:47:25Z</time>
      </trkpt>
      <trkpt lat="42.56583" lon="-0.55845">
        <time>2022-07-30T11:47:26Z</time>
      </trkpt>
      <trkpt lat="42.56585" lon="-0.5583">
        <time>2022-07-30T11:47:27Z</time>
      </trkpt>
      <trkpt lat="42.56588" lon="-0.55816">
        <time>2022-07-30T11:47:28Z</time>
      </trkpt>
      <trkpt lat="42.5659" lon="-0.55801">
        <time>2022-07-30T11:47:29Z</time>
      </trkpt>
      <trkpt lat="42.56592" lon="-0.55787">
        <time>2022-07-30T11:47:30Z</time>
      </trkpt>
      <trkpt lat="42.56594" lon="-0.55773">
        <time>2022-07-30T11:47:31Z</time>
      </trkpt>
      <trkpt lat="42.56596" lon="-0.55759">
        <time>2022-07-30T11:47:32Z</time>
      </trkpt>
      <trkpt lat="42.56598" lon="-0.55745">
        <time>2022-07-30T11:47:33Z</time>
      </trkpt>
      <trkpt lat="42.566" lon="-0.55732">
        <time>2022-07-30T11:47:34Z</time>
      </trkpt>
      <trkpt lat="42.56602" lon="-0.55718">
        <time>2022-07-30T11:47:35Z</time>
      </trkpt>
      <trkpt lat="42.56604" lon="-0.55705">
        <time>2022-07-30T11:47:36Z</time>
      </trkpt>
      <trkpt lat="42.56607" lon="-0.55693">
        <time>2022-07-30T11:47:37Z</time>
      </trkpt>
      <trkpt lat="42.56609" lon="-0.5568">
        <time>2022-07-30T11:47:38Z</time>
      </trkpt>
      <trkpt lat="42.56611" lon="-0.55669">
        <time>2022-07-30T11:47:39Z</time>
      </trkpt>
      <trkpt lat="42.56613" lon="-0.55658">
        <time>2022-07-30T11:47:40Z</time>
      </trkpt>
      <trkpt lat="42.56615" lon="-0.55646">
        <time>2022-07-30T11:47:41Z</time>
      </trkpt>
      <trkpt lat="42.56616" lon="-0.55634">
        <time>2022-07-30T11:47:42Z</time>
      </trkpt>
      <trkpt lat="42.56618" lon="-0.55622">
        <time>2022-07-30T11:47:43Z</time>
      </trkpt>
      <trkpt lat="42.5662" lon="-0.5561">
        <time>2022-07-30T11:47:44Z</time>
      </trkpt>
      <trkpt lat="42.56622" lon="-0.55598">
        <time>2022-07-30T11:47:45Z</time>
      </trkpt>
      <trkpt lat="42.56624" lon="-0.55585">
        <time>2022-07-30T11:47:46Z</time>
      </trkpt>
      <trkpt lat="42.56626" lon="-0.55574">
        <time>2022-07-30T11:47:47Z</time>
      </trkpt>
      <trkpt lat="42.56629" lon="-0.55562">
        <time>2022-07-30T11:47:48Z</time>
      </trkpt>
      <trkpt lat="42.56631" lon="-0.55552">
        <time>2022-07-30T11:47:49Z</time>
      </trkpt>
      <trkpt lat="42.56633" lon="-0.55541">
        <time>2022-07-30T11:47:50Z</time>
      </trkpt>
      <trkpt lat="42.56634" lon="-0.5553">
        <time>2022-07-30T11:47:51Z</time>
      </trkpt>
      <trkpt lat="42.56636" lon="-0.5552">
        <time>2022-07-30T11:47:52Z</time>
      </trkpt>
      <trkpt lat="42.56638" lon="-0.5551">
        <time>2022-07-30T11:47:53Z</time>
      </trkpt>
      <trkpt lat="42.56639" lon="-0.55501">
        <time>2022-07-30T11:47:54Z</time>
      </trkpt>
      <trkpt lat="42.5664" lon="-0.5549">
        <time>2022-07-30T11:47:55Z</time>
      </trkpt>
      <trkpt lat="42.56639" lon="-0.5548">
        <time>2022-07-30T11:47:56Z</time>
      </trkpt>
      <trkpt lat="42.56637" lon="-0.55471">
        <time>2022-07-30T11:47:57Z</time>
      </trkpt>
      <trkpt lat="42.56634" lon="-0.55463">
        <time>2022-07-30T11:47:58Z</time>
      </trkpt>
      <trkpt lat="42.56631" lon="-0.55455">
        <time>2022-07-30T11:47:59Z</time>
      </trkpt>
      <trkpt lat="42.56628" lon="-0.55448">
        <time>2022-07-30T11:48:00Z</time>
      </trkpt>
      <trkpt lat="42.56625" lon="-0.5544">
        <time>2022-07-30T11:48:01Z</time>
      </trkpt>
      <trkpt lat="42.56624" lon="-0.55432">
        <time>2022-07-30T11:48:02Z</time>
      </trkpt>
      <trkpt lat="42.56624" lon="-0.55424">
        <time>2022-07-30T11:48:03Z</time>
      </trkpt>
      <trkpt lat="42.56627" lon="-0.55414">
        <time>2022-07-30T11:48:04Z</time>
      </trkpt>
      <trkpt lat="42.56632" lon="-0.55403">
        <time>2022-07-30T11:48:05Z</time>
      </trkpt>
      <trkpt lat="42.56639" lon="-0.55393">
        <time>2022-07-30T11:48:06Z</time>
      </trkpt>
      <trkpt lat="42.56648" lon="-0.55385">
        <time>2022-07-30T11:48:07Z</time>
      </trkpt>
      <trkpt lat="42.56656" lon="-0.55379">
        <time>2022-07-30T11:48:08Z</time>
      </trkpt>
      <trkpt lat="42.56667" lon="-0.5538">
        <time>2022-07-30T11:48:09Z</time>
      </trkpt>
      <trkpt lat="42.56675" lon="-0.55383">
        <time>2022-07-30T11:48:10Z</time>
      </trkpt>
      <trkpt lat="42.56684" lon="-0.55385">
        <time>2022-07-30T11:48:11Z</time>
      </trkpt>
      <trkpt lat="42.56693" lon="-0.55384">
        <time>2022-07-30T11:48:12Z</time>
      </trkpt>
      <trkpt lat="42.56701" lon="-0.55379">
        <time>2022-07-30T11:48:13Z</time>
      </trkpt>
      <trkpt lat="42.56708" lon="-0.55373">
        <time>2022-07-30T11:48:14Z</time>
      </trkpt>
      <trkpt lat="42.56714" lon="-0.55366">
        <time>2022-07-30T11:48:15Z</time>
      </trkpt>
      <trkpt lat="42.5672" lon="-0.5536">
        <time>2022-07-30T11:48:16Z</time>
      </trkpt>
      <trkpt lat="42.56725" lon="-0.55354">
        <time>2022-07-30T11:48:17Z</time>
      </trkpt>
      <trkpt lat="42.5673" lon="-0.55348">
        <time>2022-07-30T11:48:18Z</time>
      </trkpt>
      <trkpt lat="42.56734" lon="-0.55344">
        <time>2022-07-30T11:48:19Z</time>
      </trkpt>
      <trkpt lat="42.56736" lon="-0.5534">
        <time>2022-07-30T11:48:20Z</time>
      </trkpt>
      <trkpt lat="42.5674" lon="-0.55336">
        <time>2022-07-30T11:48:21Z</time>
      </trkpt>
      <trkpt lat="42.56742" lon="-0.55334">
        <time>2022-07-30T11:48:22Z</time>
      </trkpt>
      <trkpt lat="42.56745" lon="-0.55332">
        <time>2022-07-30T11:48:23Z</time>
      </trkpt>
      <trkpt lat="42.56747" lon="-0.55329">
        <time>2022-07-30T11:48:24Z</time>
      </trkpt>
      <trkpt lat="42.5675" lon="-0.55327">
        <time>2022-07-30T11:48:25Z</time>
      </trkpt>
      <trkpt lat="42.56752" lon="-0.55324">
        <time>2022-07-30T11:48:26Z</time>
      </trkpt>
      <trkpt lat="42.56755" lon="-0.55322">
        <time>2022-07-30T11:48:27Z</time>
      </trkpt>
      <trkpt lat="42.56758" lon="-0.55319">
        <time>2022-07-30T11:48:28Z</time>
      </trkpt>
      <trkpt lat="42.56764" lon="-0.55317">
        <time>2022-07-30T11:48:29Z</time>
      </trkpt>
      <trkpt lat="42.56768" lon="-0.55314">
        <time>2022-07-30T11:48:30Z</time>
      </trkpt>
      <trkpt lat="42.56773" lon="-0.55312">
        <time>2022-07-30T11:48:31Z</time>
      </trkpt>
      <trkpt lat="42.56777" lon="-0.55309">
        <time>2022-07-30T11:48:32Z</time>
      </trkpt>
      <trkpt lat="42.56782" lon="-0.55305">
        <time>2022-07-30T11:48:33Z</time>
      </trkpt>
      <trkpt lat="42.56788" lon="-0.55303">
        <time>2022-07-30T11:48:34Z</time>
      </trkpt>
      <trkpt lat="42.56793" lon="-0.55299">
        <time>2022-07-30T11:48:35Z</time>
      </trkpt>
      <trkpt lat="42.56798" lon="-0.55294">
        <time>2022-07-30T11:48:36Z</time>
      </trkpt>
      <trkpt lat="42.56803" lon="-0.5529">
        <time>2022-07-30T11:48:37Z</time>
      </trkpt>
      <trkpt lat="42.56808" lon="-0.55285">
        <time>2022-07-30T11:48:38Z</time>
      </trkpt>
      <trkpt lat="42.56814" lon="-0.55282">
        <time>2022-07-30T11:48:39Z</time>
      </trkpt>
      <trkpt lat="42.5682" lon="-0.55277">
        <time>2022-07-30T11:48:40Z</time>
      </trkpt>
      <trkpt lat="42.56826" lon="-0.55272">
        <time>2022-07-30T11:48:41Z</time>
      </trkpt>
      <trkpt lat="42.56832" lon="-0.55268">
        <time>2022-07-30T11:48:42Z</time>
      </trkpt>
      <trkpt lat="42.56838" lon="-0.55263">
        <time>2022-07-30T11:48:43Z</time>
      </trkpt>
      <trkpt lat="42.56844" lon="-0.55258">
        <time>2022-07-30T11:48:44Z</time>
      </trkpt>
      <trkpt lat="42.5685" lon="-0.55253">
        <time>2022-07-30T11:48:45Z</time>
      </trkpt>
      <trkpt lat="42.56856" lon="-0.55249">
        <time>2022-07-30T11:48:46Z</time>
      </trkpt>
      <trkpt lat="42.56864" lon="-0.55245">
        <time>2022-07-30T11:48:47Z</time>
      </trkpt>
      <trkpt lat="42.5687" lon="-0.55242">
        <time>2022-07-30T11:48:48Z</time>
      </trkpt>
      <trkpt lat="42.56876" lon="-0.55238">
        <time>2022-07-30T11:48:49Z</time>
      </trkpt>
      <trkpt lat="42.5688" lon="-0.55234">
        <time>2022-07-30T11:48:50Z</time>
      </trkpt>
      <trkpt lat="42.56885" lon="-0.55231">
        <time>2022-07-30T11:48:51Z</time>
      </trkpt>
      <trkpt lat="42.56889" lon="-0.55228">
        <time>2022-07-30T11:48:52Z</time>
      </trkpt>
      <trkpt lat="42.56893" lon="-0.55225">
        <time>2022-07-30T11:48:53Z</time>
      </trkpt>
      <trkpt lat="42.56897" lon="-0.55221">
        <time>2022-07-30T11:48:54Z</time>
      </trkpt>
      <trkpt lat="42.56902" lon="-0.55219">
        <time>2022-07-30T11:48:55Z</time>
      </trkpt>
      <trkpt lat="42.56906" lon="-0.55217">
        <time>2022-07-30T11:48:56Z</time>
      </trkpt>
      <trkpt lat="42.5691" lon="-0.55215">
        <time>2022-07-30T11:48:57Z</time>
      </trkpt>
      <trkpt lat="42.56915" lon="-0.55212">
        <time>2022-07-30T11:48:58Z</time>
      </trkpt>
      <trkpt lat="42.56921" lon="-0.55209">
        <time>2022-07-30T11:48:59Z</time>
      </trkpt>
      <trkpt lat="42.56926" lon="-0.55203">
        <time>2022-07-30T11:49:00Z</time>
      </trkpt>
      <trkpt lat="42.56932" lon="-0.55198">
        <time>2022-07-30T11:49:01Z</time>
      </trkpt>
      <trkpt lat="42.56939" lon="-0.55193">
        <time>2022-07-30T11:49:02Z</time>
      </trkpt>
      <trkpt lat="42.56947" lon="-0.55188">
        <time>2022-07-30T11:49:03Z</time>
      </trkpt>
      <trkpt lat="42.56953" lon="-0.55183">
        <time>2022-07-30T11:49:04Z</time>
      </trkpt>
      <trkpt lat="42.56959" lon="-0.55178">
        <time>2022-07-30T11:49:05Z</time>
      </trkpt>
      <trkpt lat="42.56966" lon="-0.55173">
        <time>2022-07-30T11:49:06Z</time>
      </trkpt>
      <trkpt lat="42.56974" lon="-0.55168">
        <time>2022-07-30T11:49:07Z</time>
      </trkpt>
      <trkpt lat="42.56981" lon="-0.55163">
        <time>2022-07-30T11:49:08Z</time>
      </trkpt>
      <trkpt lat="42.56988" lon="-0.55158">
        <time>2022-07-30T11:49:09Z</time>
      </trkpt>
      <trkpt lat="42.56996" lon="-0.55153">
        <time>2022-07-30T11:49:10Z</time>
      </trkpt>
      <trkpt lat="42.57002" lon="-0.55148">
        <time>2022-07-30T11:49:11Z</time>
      </trkpt>
      <trkpt lat="42.57008" lon="-0.55143">
        <time>2022-07-30T11:49:12Z</time>
      </trkpt>
      <trkpt lat="42.57014" lon="-0.55139">
        <time>2022-07-30T11:49:13Z</time>
      </trkpt>
      <trkpt lat="42.57019" lon="-0.55136">
        <time>2022-07-30T11:49:14Z</time>
      </trkpt>
      <trkpt lat="42.57024" lon="-0.55132">
        <time>2022-07-30T11:49:15Z</time>
      </trkpt>
      <trkpt lat="42.57029" lon="-0.55129">
        <time>2022-07-30T11:49:16Z</time>
      </trkpt>
      <trkpt lat="42.57034" lon="-0.55125">
        <time>2022-07-30T11:49:17Z</time>
      </trkpt>
      <trkpt lat="42.57038" lon="-0.55122">
        <time>2022-07-30T11:49:18Z</time>
      </trkpt>
      <trkpt lat="42.57043" lon="-0.55119">
        <time>2022-07-30T11:49:19Z</time>
      </trkpt>
      <trkpt lat="42.57047" lon="-0.55115">
        <time>2022-07-30T11:49:20Z</time>
      </trkpt>
      <trkpt lat="42.57052" lon="-0.55112">
        <time>2022-07-30T11:49:21Z</time>
      </trkpt>
      <trkpt lat="42.57057" lon="-0.55107">
        <time>2022-07-30T11:49:22Z</time>
      </trkpt>
      <trkpt lat="42.57062" lon="-0.55104">
        <time>2022-07-30T11:49:23Z</time>
      </trkpt>
      <trkpt lat="42.57067" lon="-0.55102">
        <time>2022-07-30T11:49:24Z</time>
      </trkpt>
      <trkpt lat="42.57071" lon="-0.55099">
        <time>2022-07-30T11:49:25Z</time>
      </trkpt>
      <trkpt lat="42.57074" lon="-0.55097">
        <time>2022-07-30T11:49:26Z</time>
      </trkpt>
      <trkpt lat="42.57076" lon="-0.55095">
        <time>2022-07-30T11:49:27Z</time>
      </trkpt>
      <trkpt lat="42.57078" lon="-0.55094">
        <time>2022-07-30T11:49:28Z</time>
      </trkpt>
      <trkpt lat="42.5708" lon="-0.55092">
        <time>2022-07-30T11:49:29Z</time>
      </trkpt>
      <trkpt lat="42.57081" lon="-0.55091">
        <time>2022-07-30T11:49:30Z</time>
      </trkpt>
      <trkpt lat="42.57084" lon="-0.5509">
        <time>2022-07-30T11:49:35Z</time>
      </trkpt>
      <trkpt lat="42.57085" lon="-0.55089">
        <time>2022-07-30T11:49:36Z</time>
      </trkpt>
      <trkpt lat="42.57087" lon="-0.55088">
        <time>2022-07-30T11:49:37Z</time>
      </trkpt>
      <trkpt lat="42.57088" lon="-0.55086">
        <time>2022-07-30T11:49:38Z</time>
      </trkpt>
      <trkpt lat="42.57089" lon="-0.55084">
        <time>2022-07-30T11:49:42Z</time>
      </trkpt>
      <trkpt lat="42.57091" lon="-0.55082">
        <time>2022-07-30T11:49:43Z</time>
      </trkpt>
      <trkpt lat="42.57094" lon="-0.5508">
        <time>2022-07-30T11:49:44Z</time>
      </trkpt>
      <trkpt lat="42.57098" lon="-0.55076">
        <time>2022-07-30T11:49:45Z</time>
      </trkpt>
      <trkpt lat="42.57103" lon="-0.55072">
        <time>2022-07-30T11:49:46Z</time>
      </trkpt>
      <trkpt lat="42.57108" lon="-0.55068">
        <time>2022-07-30T11:49:47Z</time>
      </trkpt>
      <trkpt lat="42.57112" lon="-0.55064">
        <time>2022-07-30T11:49:48Z</time>
      </trkpt>
      <trkpt lat="42.57117" lon="-0.55059">
        <time>2022-07-30T11:49:49Z</time>
      </trkpt>
      <trkpt lat="42.57122" lon="-0.55055">
        <time>2022-07-30T11:49:50Z</time>
      </trkpt>
      <trkpt lat="42.57127" lon="-0.55049">
        <time>2022-07-30T11:49:51Z</time>
      </trkpt>
      <trkpt lat="42.57132" lon="-0.55043">
        <time>2022-07-30T11:49:52Z</time>
      </trkpt>
      <trkpt lat="42.57137" lon="-0.55036">
        <time>2022-07-30T11:49:53Z</time>
      </trkpt>
      <trkpt lat="42.57142" lon="-0.55029">
        <time>2022-07-30T11:49:54Z</time>
      </trkpt>
      <trkpt lat="42.57147" lon="-0.55022">
        <time>2022-07-30T11:49:55Z</time>
      </trkpt>
      <trkpt lat="42.57152" lon="-0.55015">
        <time>2022-07-30T11:49:56Z</time>
      </trkpt>
      <trkpt lat="42.57156" lon="-0.55008">
        <time>2022-07-30T11:49:57Z</time>
      </trkpt>
      <trkpt lat="42.57161" lon="-0.55">
        <time>2022-07-30T11:49:58Z</time>
      </trkpt>
      <trkpt lat="42.57166" lon="-0.54993">
        <time>2022-07-30T11:49:59Z</time>
      </trkpt>
      <trkpt lat="42.57171" lon="-0.54986">
        <time>2022-07-30T11:50:00Z</time>
      </trkpt>
      <trkpt lat="42.57177" lon="-0.54979">
        <time>2022-07-30T11:50:01Z</time>
      </trkpt>
      <trkpt lat="42.57182" lon="-0.54973">
        <time>2022-07-30T11:50:02Z</time>
      </trkpt>
      <trkpt lat="42.57187" lon="-0.54968">
        <time>2022-07-30T11:50:03Z</time>
      </trkpt>
      <trkpt lat="42.57193" lon="-0.54965">
        <time>2022-07-30T11:50:04Z</time>
      </trkpt>
      <trkpt lat="42.57199" lon="-0.54963">
        <time>2022-07-30T11:50:05Z</time>
      </trkpt>
      <trkpt lat="42.57203" lon="-0.5496">
        <time>2022-07-30T11:50:06Z</time>
      </trkpt>
      <trkpt lat="42.57207" lon="-0.54959">
        <time>2022-07-30T11:50:07Z</time>
      </trkpt>
      <trkpt lat="42.57212" lon="-0.54957">
        <time>2022-07-30T11:50:08Z</time>
      </trkpt>
      <trkpt lat="42.57215" lon="-0.54957">
        <time>2022-07-30T11:50:09Z</time>
      </trkpt>
      <trkpt lat="42.57219" lon="-0.54956">
        <time>2022-07-30T11:50:10Z</time>
      </trkpt>
      <trkpt lat="42.57223" lon="-0.54956">
        <time>2022-07-30T11:50:11Z</time>
      </trkpt>
      <trkpt lat="42.57224" lon="-0.54956">
        <time>2022-07-30T11:50:12Z</time>
      </trkpt>
      <trkpt lat="42.57229" lon="-0.54957">
        <time>2022-07-30T11:50:37Z</time>
      </trkpt>
      <trkpt lat="42.57232" lon="-0.54956">
        <time>2022-07-30T11:50:38Z</time>
      </trkpt>
      <trkpt lat="42.57237" lon="-0.54955">
        <time>2022-07-30T11:50:39Z</time>
      </trkpt>
      <trkpt lat="42.57243" lon="-0.54956">
        <time>2022-07-30T11:50:40Z</time>
      </trkpt>
      <trkpt lat="42.57249" lon="-0.54955">
        <time>2022-07-30T11:50:41Z</time>
      </trkpt>
      <trkpt lat="42.57255" lon="-0.54954">
        <time>2022-07-30T11:50:42Z</time>
      </trkpt>
      <trkpt lat="42.57261" lon="-0.54952">
        <time>2022-07-30T11:50:43Z</time>
      </trkpt>
      <trkpt lat="42.57267" lon="-0.54952">
        <time>2022-07-30T11:50:44Z</time>
      </trkpt>
      <trkpt lat="42.57273" lon="-0.54951">
        <time>2022-07-30T11:50:45Z</time>
      </trkpt>
      <trkpt lat="42.57279" lon="-0.54949">
        <time>2022-07-30T11:50:46Z</time>
      </trkpt>
      <trkpt lat="42.57285" lon="-0.54948">
        <time>2022-07-30T11:50:47Z</time>
      </trkpt>
      <trkpt lat="42.57291" lon="-0.54946">
        <time>2022-07-30T11:50:48Z</time>
      </trkpt>
      <trkpt lat="42.57298" lon="-0.54945">
        <time>2022-07-30T11:50:49Z</time>
      </trkpt>
      <trkpt lat="42.57304" lon="-0.54943">
        <time>2022-07-30T11:50:50Z</time>
      </trkpt>
      <trkpt lat="42.57311" lon="-0.54941">
        <time>2022-07-30T11:50:51Z</time>
      </trkpt>
      <trkpt lat="42.57318" lon="-0.54939">
        <time>2022-07-30T11:50:52Z</time>
      </trkpt>
      <trkpt lat="42.57325" lon="-0.54938">
        <time>2022-07-30T11:50:53Z</time>
      </trkpt>
      <trkpt lat="42.57332" lon="-0.54936">
        <time>2022-07-30T11:50:54Z</time>
      </trkpt>
      <trkpt lat="42.57339" lon="-0.54934">
        <time>2022-07-30T11:50:55Z</time>
      </trkpt>
      <trkpt lat="42.57346" lon="-0.54932">
        <time>2022-07-30T11:50:56Z</time>
      </trkpt>
      <trkpt lat="42.57353" lon="-0.5493">
        <time>2022-07-30T11:50:57Z</time>
      </trkpt>
      <trkpt lat="42.57361" lon="-0.54929">
        <time>2022-07-30T11:50:58Z</time>
      </trkpt>
      <trkpt lat="42.57368" lon="-0.54928">
        <time>2022-07-30T11:50:59Z</time>
      </trkpt>
      <trkpt lat="42.57374" lon="-0.54926">
        <time>2022-07-30T11:51:00Z</time>
      </trkpt>
      <trkpt lat="42.5738" lon="-0.54925">
        <time>2022-07-30T11:51:01Z</time>
      </trkpt>
      <trkpt lat="42.57386" lon="-0.54924">
        <time>2022-07-30T11:51:02Z</time>
      </trkpt>
      <trkpt lat="42.5739" lon="-0.54923">
        <time>2022-07-30T11:51:03Z</time>
      </trkpt>
      <trkpt lat="42.57392" lon="-0.54922">
        <time>2022-07-30T11:51:04Z</time>
      </trkpt>
      <trkpt lat="42.57394" lon="-0.54922">
        <time>2022-07-30T11:51:05Z</time>
      </trkpt>
      <trkpt lat="42.57397" lon="-0.54923">
        <time>2022-07-30T11:51:06Z</time>
      </trkpt>
      <trkpt lat="42.57399" lon="-0.54922">
        <time>2022-07-30T11:51:07Z</time>
      </trkpt>
      <trkpt lat="42.57401" lon="-0.54922">
        <time>2022-07-30T11:51:08Z</time>
      </trkpt>
      <trkpt lat="42.57403" lon="-0.54921">
        <time>2022-07-30T11:51:09Z</time>
      </trkpt>
      <trkpt lat="42.57405" lon="-0.5492">
        <time>2022-07-30T11:51:10Z</time>
      </trkpt>
      <trkpt lat="42.57408" lon="-0.54919">
        <time>2022-07-30T11:51:11Z</time>
      </trkpt>
      <trkpt lat="42.57412" lon="-0.54919">
        <time>2022-07-30T11:51:12Z</time>
      </trkpt>
      <trkpt lat="42.57416" lon="-0.54918">
        <time>2022-07-30T11:51:13Z</time>
      </trkpt>
      <trkpt lat="42.57421" lon="-0.54917">
        <time>2022-07-30T11:51:14Z</time>
      </trkpt>
      <trkpt lat="42.57427" lon="-0.54917">
        <time>2022-07-30T11:51:15Z</time>
      </trkpt>
      <trkpt lat="42.57432" lon="-0.54916">
        <time>2022-07-30T11:51:16Z</time>
      </trkpt>
      <trkpt lat="42.57437" lon="-0.54916">
        <time>2022-07-30T11:51:17Z</time>
      </trkpt>
      <trkpt lat="42.57443" lon="-0.54914">
        <time>2022-07-30T11:51:18Z</time>
      </trkpt>
      <trkpt lat="42.57449" lon="-0.54914">
        <time>2022-07-30T11:51:19Z</time>
      </trkpt>
      <trkpt lat="42.57455" lon="-0.54913">
        <time>2022-07-30T11:51:20Z</time>
      </trkpt>
      <trkpt lat="42.57462" lon="-0.54911">
        <time>2022-07-30T11:51:21Z</time>
      </trkpt>
      <trkpt lat="42.57469" lon="-0.5491">
        <time>2022-07-30T11:51:22Z</time>
      </trkpt>
      <trkpt lat="42.57476" lon="-0.54909">
        <time>2022-07-30T11:51:23Z</time>
      </trkpt>
      <trkpt lat="42.57481" lon="-0.54907">
        <time>2022-07-30T11:51:24Z</time>
      </trkpt>
      <trkpt lat="42.57485" lon="-0.54908">
        <time>2022-07-30T11:51:25Z</time>
      </trkpt>
      <trkpt lat="42.57489" lon="-0.54907">
        <time>2022-07-30T11:51:26Z</time>
      </trkpt>
      <trkpt lat="42.57494" lon="-0.54907">
        <time>2022-07-30T11:51:27Z</time>
      </trkpt>
      <trkpt lat="42.575" lon="-0.54905">
        <time>2022-07-30T11:51:28Z</time>
      </trkpt>
      <trkpt lat="42.57505" lon="-0.54904">
        <time>2022-07-30T11:51:29Z</time>
      </trkpt>
      <trkpt lat="42.5751" lon="-0.549">
        <time>2022-07-30T11:51:30Z</time>
      </trkpt>
      <trkpt lat="42.57513" lon="-0.54896">
        <time>2022-07-30T11:51:31Z</time>
      </trkpt>
      <trkpt lat="42.57516" lon="-0.54894">
        <time>2022-07-30T11:51:32Z</time>
      </trkpt>
      <trkpt lat="42.57518" lon="-0.5489">
        <time>2022-07-30T11:51:33Z</time>
      </trkpt>
      <trkpt lat="42.57521" lon="-0.54887">
        <time>2022-07-30T11:51:34Z</time>
      </trkpt>
      <trkpt lat="42.57524" lon="-0.54885">
        <time>2022-07-30T11:51:35Z</time>
      </trkpt>
      <trkpt lat="42.57527" lon="-0.54884">
        <time>2022-07-30T11:51:36Z</time>
      </trkpt>
      <trkpt lat="42.57529" lon="-0.54884">
        <time>2022-07-30T11:51:37Z</time>
      </trkpt>
      <trkpt lat="42.57531" lon="-0.54884">
        <time>2022-07-30T11:51:38Z</time>
      </trkpt>
      <trkpt lat="42.57534" lon="-0.5489">
        <time>2022-07-30T11:51:56Z</time>
      </trkpt>
      <trkpt lat="42.57536" lon="-0.5489">
        <time>2022-07-30T11:51:57Z</time>
      </trkpt>
      <trkpt lat="42.57538" lon="-0.5489">
        <time>2022-07-30T11:51:58Z</time>
      </trkpt>
      <trkpt lat="42.57542" lon="-0.5489">
        <time>2022-07-30T11:51:59Z</time>
      </trkpt>
      <trkpt lat="42.57545" lon="-0.5489">
        <time>2022-07-30T11:52:00Z</time>
      </trkpt>
      <trkpt lat="42.57549" lon="-0.54891">
        <time>2022-07-30T11:52:01Z</time>
      </trkpt>
      <trkpt lat="42.57553" lon="-0.54891">
        <time>2022-07-30T11:52:02Z</time>
      </trkpt>
      <trkpt lat="42.57556" lon="-0.54891">
        <time>2022-07-30T11:52:03Z</time>
      </trkpt>
      <trkpt lat="42.57559" lon="-0.5489">
        <time>2022-07-30T11:52:04Z</time>
      </trkpt>
      <trkpt lat="42.57563" lon="-0.5489">
        <time>2022-07-30T11:52:05Z</time>
      </trkpt>
      <trkpt lat="42.57566" lon="-0.54888">
        <time>2022-07-30T11:52:06Z</time>
      </trkpt>
      <trkpt lat="42.57568" lon="-0.54886">
        <time>2022-07-30T11:52:07Z</time>
      </trkpt>
      <trkpt lat="42.5757" lon="-0.54883">
        <time>2022-07-30T11:52:08Z</time>
      </trkpt>
      <trkpt lat="42.57571" lon="-0.54879">
        <time>2022-07-30T11:52:09Z</time>
      </trkpt>
      <trkpt lat="42.57571" lon="-0.54872">
        <time>2022-07-30T11:52:10Z</time>
      </trkpt>
      <trkpt lat="42.57567" lon="-0.54855">
        <time>2022-07-30T11:52:11Z</time>
      </trkpt>
      <trkpt lat="42.57566" lon="-0.54844">
        <time>2022-07-30T11:52:12Z</time>
      </trkpt>
      <trkpt lat="42.57566" lon="-0.54832">
        <time>2022-07-30T11:52:13Z</time>
      </trkpt>
      <trkpt lat="42.57565" lon="-0.54822">
        <time>2022-07-30T11:52:14Z</time>
      </trkpt>
      <trkpt lat="42.57564" lon="-0.54814">
        <time>2022-07-30T11:52:15Z</time>
      </trkpt>
      <trkpt lat="42.57564" lon="-0.54807">
        <time>2022-07-30T11:52:16Z</time>
      </trkpt>
      <trkpt lat="42.57563" lon="-0.54802">
        <time>2022-07-30T11:52:17Z</time>
      </trkpt>
      <trkpt lat="42.5756" lon="-0.54799">
        <time>2022-07-30T11:52:18Z</time>
      </trkpt>
      <trkpt lat="42.57558" lon="-0.54794">
        <time>2022-07-30T11:52:19Z</time>
      </trkpt>
      <trkpt lat="42.57554" lon="-0.5479">
        <time>2022-07-30T11:52:20Z</time>
      </trkpt>
      <trkpt lat="42.57547" lon="-0.54787">
        <time>2022-07-30T11:52:21Z</time>
      </trkpt>
      <trkpt lat="42.57542" lon="-0.54784">
        <time>2022-07-30T11:52:22Z</time>
      </trkpt>
      <trkpt lat="42.57535" lon="-0.54786">
        <time>2022-07-30T11:52:23Z</time>
      </trkpt>
      <trkpt lat="42.5753" lon="-0.5479">
        <time>2022-07-30T11:52:24Z</time>
      </trkpt>
      <trkpt lat="42.57526" lon="-0.5479">
        <time>2022-07-30T11:52:25Z</time>
      </trkpt>
      <trkpt lat="42.57521" lon="-0.54789">
        <time>2022-07-30T11:52:26Z</time>
      </trkpt>
      <trkpt lat="42.57517" lon="-0.54789">
        <time>2022-07-30T11:52:27Z</time>
      </trkpt>
      <trkpt lat="42.57513" lon="-0.54796">
        <time>2022-07-30T11:52:28Z</time>
      </trkpt>
      <trkpt lat="42.5751" lon="-0.54801">
        <time>2022-07-30T11:52:29Z</time>
      </trkpt>
      <trkpt lat="42.57509" lon="-0.54806">
        <time>2022-07-30T11:52:30Z</time>
      </trkpt>
      <trkpt lat="42.57507" lon="-0.54809">
        <time>2022-07-30T11:52:31Z</time>
      </trkpt>
      <trkpt lat="42.57508" lon="-0.54821">
        <time>2022-07-30T11:52:32Z</time>
      </trkpt>
      <trkpt lat="42.57507" lon="-0.54833">
        <time>2022-07-30T11:52:33Z</time>
      </trkpt>
      <trkpt lat="42.57506" lon="-0.54841">
        <time>2022-07-30T11:52:34Z</time>
      </trkpt>
      <trkpt lat="42.57508" lon="-0.54846">
        <time>2022-07-30T11:52:35Z</time>
      </trkpt>
      <trkpt lat="42.57508" lon="-0.54851">
        <time>2022-07-30T11:52:36Z</time>
      </trkpt>
      <trkpt lat="42.57508" lon="-0.54855">
        <time>2022-07-30T11:52:37Z</time>
      </trkpt>
      <trkpt lat="42.57507" lon="-0.54859">
        <time>2022-07-30T11:52:38Z</time>
      </trkpt>
      <trkpt lat="42.57507" lon="-0.54863">
        <time>2022-07-30T11:52:39Z</time>
      </trkpt>
      <trkpt lat="42.57507" lon="-0.54867">
        <time>2022-07-30T11:52:40Z</time>
      </trkpt>
      <trkpt lat="42.57507" lon="-0.5487">
        <time>2022-07-30T11:52:41Z</time>
      </trkpt>
      <trkpt lat="42.57508" lon="-0.54874">
        <time>2022-07-30T11:52:42Z</time>
      </trkpt>
      <trkpt lat="42.57508" lon="-0.54878">
        <time>2022-07-30T11:52:43Z</time>
      </trkpt>
      <trkpt lat="42.57508" lon="-0.54882">
        <time>2022-07-30T11:52:44Z</time>
      </trkpt>
      <trkpt lat="42.57509" lon="-0.54885">
        <time>2022-07-30T11:52:45Z</time>
      </trkpt>
      <trkpt lat="42.57509" lon="-0.54889">
        <time>2022-07-30T11:52:46Z</time>
      </trkpt>
      <trkpt lat="42.5751" lon="-0.54891">
        <time>2022-07-30T11:52:47Z</time>
      </trkpt>
      <trkpt lat="42.57511" lon="-0.54895">
        <time>2022-07-30T11:53:06Z</time>
      </trkpt>
      <trkpt lat="42.57511" lon="-0.54897">
        <time>2022-07-30T11:53:07Z</time>
      </trkpt>
      <trkpt lat="42.57511" lon="-0.54897">
        <time>2022-07-30T11:53:08Z</time>
      </trkpt>
      <trkpt lat="42.5751" lon="-0.54898">
        <time>2022-07-30T11:53:09Z</time>
      </trkpt>
      <trkpt lat="42.57507" lon="-0.549">
        <time>2022-07-30T11:53:11Z</time>
      </trkpt>
      <trkpt lat="42.57504" lon="-0.54903">
        <time>2022-07-30T11:53:12Z</time>
      </trkpt>
      <trkpt lat="42.575" lon="-0.54906">
        <time>2022-07-30T11:53:13Z</time>
      </trkpt>
      <trkpt lat="42.57488" lon="-0.54903">
        <time>2022-07-30T11:53:14Z</time>
      </trkpt>
      <trkpt lat="42.57482" lon="-0.54903">
        <time>2022-07-30T11:53:15Z</time>
      </trkpt>
      <trkpt lat="42.57477" lon="-0.54904">
        <time>2022-07-30T11:53:16Z</time>
      </trkpt>
      <trkpt lat="42.57472" lon="-0.54905">
        <time>2022-07-30T11:53:17Z</time>
      </trkpt>
      <trkpt lat="42.57467" lon="-0.54903">
        <time>2022-07-30T11:53:18Z</time>
      </trkpt>
      <trkpt lat="42.57463" lon="-0.54903">
        <time>2022-07-30T11:53:19Z</time>
      </trkpt>
      <trkpt lat="42.57461" lon="-0.549">
        <time>2022-07-30T11:53:20Z</time>
      </trkpt>
      <trkpt lat="42.57459" lon="-0.54897">
        <time>2022-07-30T11:53:21Z</time>
      </trkpt>
      <trkpt lat="42.57458" lon="-0.54898">
        <time>2022-07-30T11:53:22Z</time>
      </trkpt>
      <trkpt lat="42.57457" lon="-0.54898">
        <time>2022-07-30T11:53:23Z</time>
      </trkpt>
      <trkpt lat="42.57456" lon="-0.54896">
        <time>2022-07-30T11:53:24Z</time>
      </trkpt>
      <trkpt lat="42.57455" lon="-0.54894">
        <time>2022-07-30T11:53:25Z</time>
      </trkpt>
      <trkpt lat="42.57455" lon="-0.54891">
        <time>2022-07-30T11:53:26Z</time>
      </trkpt>
      <trkpt lat="42.57454" lon="-0.54887">
        <time>2022-07-30T11:53:27Z</time>
      </trkpt>
      <trkpt lat="42.57453" lon="-0.54883">
        <time>2022-07-30T11:53:28Z</time>
      </trkpt>
      <trkpt lat="42.57455" lon="-0.5486">
        <time>2022-07-30T11:53:29Z</time>
      </trkpt>
      <trkpt lat="42.57455" lon="-0.54853">
        <time>2022-07-30T11:53:30Z</time>
      </trkpt>
      <trkpt lat="42.57454" lon="-0.54846">
        <time>2022-07-30T11:53:31Z</time>
      </trkpt>
      <trkpt lat="42.57453" lon="-0.5484">
        <time>2022-07-30T11:53:32Z</time>
      </trkpt>
      <trkpt lat="42.57453" lon="-0.54834">
        <time>2022-07-30T11:53:33Z</time>
      </trkpt>
      <trkpt lat="42.57453" lon="-0.54828">
        <time>2022-07-30T11:53:34Z</time>
      </trkpt>
      <trkpt lat="42.57452" lon="-0.54823">
        <time>2022-07-30T11:53:35Z</time>
      </trkpt>
      <trkpt lat="42.57451" lon="-0.54816">
        <time>2022-07-30T11:53:36Z</time>
      </trkpt>
      <trkpt lat="42.5745" lon="-0.54809">
        <time>2022-07-30T11:53:37Z</time>
      </trkpt>
      <trkpt lat="42.57447" lon="-0.54801">
        <time>2022-07-30T11:53:38Z</time>
      </trkpt>
      <trkpt lat="42.57445" lon="-0.54792">
        <time>2022-07-30T11:53:39Z</time>
      </trkpt>
      <trkpt lat="42.57442" lon="-0.54784">
        <time>2022-07-30T11:53:40Z</time>
      </trkpt>
      <trkpt lat="42.57439" lon="-0.54775">
        <time>2022-07-30T11:53:41Z</time>
      </trkpt>
      <trkpt lat="42.57437" lon="-0.54766">
        <time>2022-07-30T11:53:42Z</time>
      </trkpt>
      <trkpt lat="42.57435" lon="-0.5476">
        <time>2022-07-30T11:53:43Z</time>
      </trkpt>
      <trkpt lat="42.57433" lon="-0.54754">
        <time>2022-07-30T11:53:44Z</time>
      </trkpt>
      <trkpt lat="42.5743" lon="-0.54748">
        <time>2022-07-30T11:53:45Z</time>
      </trkpt>
      <trkpt lat="42.57427" lon="-0.5474">
        <time>2022-07-30T11:53:46Z</time>
      </trkpt>
      <trkpt lat="42.57427" lon="-0.54733">
        <time>2022-07-30T11:53:47Z</time>
      </trkpt>
      <trkpt lat="42.57428" lon="-0.54725">
        <time>2022-07-30T11:53:48Z</time>
      </trkpt>
      <trkpt lat="42.57432" lon="-0.54718">
        <time>2022-07-30T11:53:49Z</time>
      </trkpt>
      <trkpt lat="42.57435" lon="-0.54713">
        <time>2022-07-30T11:53:50Z</time>
      </trkpt>
      <trkpt lat="42.57438" lon="-0.54707">
        <time>2022-07-30T11:53:51Z</time>
      </trkpt>
      <trkpt lat="42.57446" lon="-0.54709">
        <time>2022-07-30T11:53:52Z</time>
      </trkpt>
      <trkpt lat="42.57451" lon="-0.54711">
        <time>2022-07-30T11:53:53Z</time>
      </trkpt>
      <trkpt lat="42.57456" lon="-0.54715">
        <time>2022-07-30T11:53:54Z</time>
      </trkpt>
      <trkpt lat="42.57461" lon="-0.54717">
        <time>2022-07-30T11:53:55Z</time>
      </trkpt>
      <trkpt lat="42.57468" lon="-0.54716">
        <time>2022-07-30T11:53:56Z</time>
      </trkpt>
      <trkpt lat="42.57474" lon="-0.54714">
        <time>2022-07-30T11:53:57Z</time>
      </trkpt>
      <trkpt lat="42.57479" lon="-0.54712">
        <time>2022-07-30T11:53:58Z</time>
      </trkpt>
      <trkpt lat="42.57484" lon="-0.54712">
        <time>2022-07-30T11:53:59Z</time>
      </trkpt>
      <trkpt lat="42.57488" lon="-0.54711">
        <time>2022-07-30T11:54:00Z</time>
      </trkpt>
      <trkpt lat="42.57492" lon="-0.54713">
        <time>2022-07-30T11:54:01Z</time>
      </trkpt>
      <trkpt lat="42.57496" lon="-0.54719">
        <time>2022-07-30T11:54:02Z</time>
      </trkpt>
      <trkpt lat="42.57498" lon="-0.54727">
        <time>2022-07-30T11:54:03Z</time>
      </trkpt>
      <trkpt lat="42.57501" lon="-0.54734">
        <time>2022-07-30T11:54:04Z</time>
      </trkpt>
      <trkpt lat="42.57499" lon="-0.54746">
        <time>2022-07-30T11:54:05Z</time>
      </trkpt>
      <trkpt lat="42.575" lon="-0.54754">
        <time>2022-07-30T11:54:06Z</time>
      </trkpt>
      <trkpt lat="42.57501" lon="-0.54763">
        <time>2022-07-30T11:54:07Z</time>
      </trkpt>
      <trkpt lat="42.57502" lon="-0.54771">
        <time>2022-07-30T11:54:08Z</time>
      </trkpt>
      <trkpt lat="42.57502" lon="-0.54779">
        <time>2022-07-30T11:54:09Z</time>
      </trkpt>
      <trkpt lat="42.57503" lon="-0.54786">
        <time>2022-07-30T11:54:10Z</time>
      </trkpt>
      <trkpt lat="42.57507" lon="-0.54789">
        <time>2022-07-30T11:54:11Z</time>
      </trkpt>
      <trkpt lat="42.57506" lon="-0.54797">
        <time>2022-07-30T11:54:12Z</time>
      </trkpt>
      <trkpt lat="42.57506" lon="-0.54803">
        <time>2022-07-30T11:54:13Z</time>
      </trkpt>
      <trkpt lat="42.57508" lon="-0.54808">
        <time>2022-07-30T11:54:14Z</time>
      </trkpt>
      <trkpt lat="42.57509" lon="-0.54814">
        <time>2022-07-30T11:54:15Z</time>
      </trkpt>
      <trkpt lat="42.5751" lon="-0.54822">
        <time>2022-07-30T11:54:16Z</time>
      </trkpt>
      <trkpt lat="42.5751" lon="-0.54829">
        <time>2022-07-30T11:54:17Z</time>
      </trkpt>
      <trkpt lat="42.5751" lon="-0.54836">
        <time>2022-07-30T11:54:18Z</time>
      </trkpt>
      <trkpt lat="42.57511" lon="-0.54842">
        <time>2022-07-30T11:54:19Z</time>
      </trkpt>
      <trkpt lat="42.57509" lon="-0.54848">
        <time>2022-07-30T11:54:20Z</time>
      </trkpt>
      <trkpt lat="42.5751" lon="-0.54852">
        <time>2022-07-30T11:54:21Z</time>
      </trkpt>
      <trkpt lat="42.5751" lon="-0.54855">
        <time>2022-07-30T11:54:22Z</time>
      </trkpt>
      <trkpt lat="42.5751" lon="-0.5486">
        <time>2022-07-30T11:54:23Z</time>
      </trkpt>
      <trkpt lat="42.5751" lon="-0.54865">
        <time>2022-07-30T11:54:24Z</time>
      </trkpt>
      <trkpt lat="42.57511" lon="-0.5487">
        <time>2022-07-30T11:54:25Z</time>
      </trkpt>
      <trkpt lat="42.57511" lon="-0.54874">
        <time>2022-07-30T11:54:26Z</time>
      </trkpt>
      <trkpt lat="42.57511" lon="-0.54878">
        <time>2022-07-30T11:54:27Z</time>
      </trkpt>
      <trkpt lat="42.57511" lon="-0.54881">
        <time>2022-07-30T11:54:28Z</time>
      </trkpt>
      <trkpt lat="42.57514" lon="-0.54882">
        <time>2022-07-30T11:54:43Z</time>
      </trkpt>
      <trkpt lat="42.57514" lon="-0.54885">
        <time>2022-07-30T11:54:44Z</time>
      </trkpt>
      <trkpt lat="42.57514" lon="-0.54888">
        <time>2022-07-30T11:54:45Z</time>
      </trkpt>
      <trkpt lat="42.57514" lon="-0.5489">
        <time>2022-07-30T11:54:46Z</time>
      </trkpt>
      <trkpt lat="42.57514" lon="-0.54892">
        <time>2022-07-30T11:54:55Z</time>
      </trkpt>
      <trkpt lat="42.57514" lon="-0.54896">
        <time>2022-07-30T11:54:56Z</time>
      </trkpt>
      <trkpt lat="42.57513" lon="-0.54901">
        <time>2022-07-30T11:54:57Z</time>
      </trkpt>
      <trkpt lat="42.57512" lon="-0.54904">
        <time>2022-07-30T11:54:58Z</time>
      </trkpt>
      <trkpt lat="42.57511" lon="-0.54906">
        <time>2022-07-30T11:54:59Z</time>
      </trkpt>
      <trkpt lat="42.57509" lon="-0.54907">
        <time>2022-07-30T11:55:00Z</time>
      </trkpt>
      <trkpt lat="42.57508" lon="-0.54896">
        <time>2022-07-30T11:56:24Z</time>
      </trkpt>
      <trkpt lat="42.57507" lon="-0.54895">
        <time>2022-07-30T11:56:25Z</time>
      </trkpt>
      <trkpt lat="42.57507" lon="-0.54894">
        <time>2022-07-30T11:56:26Z</time>
      </trkpt>
      <trkpt lat="42.57507" lon="-0.54893">
        <time>2022-07-30T11:56:27Z</time>
      </trkpt>
      <trkpt lat="42.57508" lon="-0.5489">
        <time>2022-07-30T11:56:29Z</time>
      </trkpt>
      <trkpt lat="42.57509" lon="-0.54888">
        <time>2022-07-30T11:56:30Z</time>
      </trkpt>
      <trkpt lat="42.57512" lon="-0.54885">
        <time>2022-07-30T11:56:35Z</time>
      </trkpt>
      <trkpt lat="42.57512" lon="-0.54885">
        <time>2022-07-30T11:56:38Z</time>
      </trkpt>
      <trkpt lat="42.57509" lon="-0.54885">
        <time>2022-07-30T11:56:40Z</time>
      </trkpt>
      <trkpt lat="42.57508" lon="-0.54885">
        <time>2022-07-30T11:56:41Z</time>
      </trkpt>
      <trkpt lat="42.57507" lon="-0.54887">
        <time>2022-07-30T11:56:42Z</time>
      </trkpt>
      <trkpt lat="42.57506" lon="-0.5489">
        <time>2022-07-30T11:56:43Z</time>
      </trkpt>
      <trkpt lat="42.57505" lon="-0.54891">
        <time>2022-07-30T11:56:44Z</time>
      </trkpt>
      <trkpt lat="42.57504" lon="-0.54892">
        <time>2022-07-30T11:56:45Z</time>
      </trkpt>
      <trkpt lat="42.57503" lon="-0.54893">
        <time>2022-07-30T11:56:46Z</time>
      </trkpt>
      <trkpt lat="42.57502" lon="-0.54894">
        <time>2022-07-30T11:56:47Z</time>
      </trkpt>
      <trkpt lat="42.57501" lon="-0.54902">
        <time>2022-07-30T11:57:11Z</time>
      </trkpt>
      <trkpt lat="42.57502" lon="-0.54901">
        <time>2022-07-30T11:57:14Z</time>
      </trkpt>
      <trkpt lat="42.57501" lon="-0.54901">
        <time>2022-07-30T11:57:15Z</time>
      </trkpt>
      <trkpt lat="42.575" lon="-0.54901">
        <time>2022-07-30T11:57:16Z</time>
      </trkpt>
      <trkpt lat="42.575" lon="-0.549">
        <time>2022-07-30T11:57:17Z</time>
      </trkpt>
      <trkpt lat="42.575" lon="-0.549">
        <time>2022-07-30T11:57:19Z</time>
      </trkpt>
      <trkpt lat="42.57499" lon="-0.54903">
        <time>2022-07-30T11:57:32Z</time>
      </trkpt>
      <trkpt lat="42.57499" lon="-0.54905">
        <time>2022-07-30T11:59:06Z</time>
      </trkpt>
      <trkpt lat="42.57483" lon="-0.54934">
        <time>2022-07-30T13:00:28Z</time>
      </trkpt>
      <trkpt lat="42.57483" lon="-0.54935">
        <time>2022-07-30T13:00:29Z</time>
      </trkpt>
      <trkpt lat="42.57483" lon="-0.54935">
        <time>2022-07-30T13:00:30Z</time>
      </trkpt>
      <trkpt lat="42.57484" lon="-0.54935">
        <time>2022-07-30T13:00:31Z</time>
      </trkpt>
      <trkpt lat="42.57485" lon="-0.54935">
        <time>2022-07-30T13:00:32Z</time>
      </trkpt>
      <trkpt lat="42.57486" lon="-0.54933">
        <time>2022-07-30T13:00:33Z</time>
      </trkpt>
      <trkpt lat="42.57486" lon="-0.54933">
        <time>2022-07-30T13:00:34Z</time>
      </trkpt>
      <trkpt lat="42.57491" lon="-0.54907">
        <time>2022-07-30T13:04:29Z</time>
      </trkpt>
      <trkpt lat="42.57487" lon="-0.54907">
        <time>2022-07-30T13:04:30Z</time>
      </trkpt>
      <trkpt lat="42.57477" lon="-0.54908">
        <time>2022-07-30T13:04:31Z</time>
      </trkpt>
      <trkpt lat="42.57468" lon="-0.5491">
        <time>2022-07-30T13:04:32Z</time>
      </trkpt>
      <trkpt lat="42.57458" lon="-0.54913">
        <time>2022-07-30T13:04:33Z</time>
      </trkpt>
      <trkpt lat="42.57443" lon="-0.54917">
        <time>2022-07-30T13:04:34Z</time>
      </trkpt>
      <trkpt lat="42.57436" lon="-0.54919">
        <time>2022-07-30T13:04:35Z</time>
      </trkpt>
      <trkpt lat="42.57428" lon="-0.54922">
        <time>2022-07-30T13:04:36Z</time>
      </trkpt>
      <trkpt lat="42.57419" lon="-0.54923">
        <time>2022-07-30T13:04:37Z</time>
      </trkpt>
      <trkpt lat="42.5741" lon="-0.54924">
        <time>2022-07-30T13:04:38Z</time>
      </trkpt>
      <trkpt lat="42.57403" lon="-0.54926">
        <time>2022-07-30T13:04:39Z</time>
      </trkpt>
      <trkpt lat="42.57396" lon="-0.54929">
        <time>2022-07-30T13:04:40Z</time>
      </trkpt>
      <trkpt lat="42.57389" lon="-0.54932">
        <time>2022-07-30T13:04:41Z</time>
      </trkpt>
      <trkpt lat="42.57382" lon="-0.54933">
        <time>2022-07-30T13:04:42Z</time>
      </trkpt>
      <trkpt lat="42.57375" lon="-0.54934">
        <time>2022-07-30T13:04:43Z</time>
      </trkpt>
      <trkpt lat="42.57368" lon="-0.54935">
        <time>2022-07-30T13:04:44Z</time>
      </trkpt>
      <trkpt lat="42.57362" lon="-0.54937">
        <time>2022-07-30T13:04:45Z</time>
      </trkpt>
      <trkpt lat="42.57356" lon="-0.54938">
        <time>2022-07-30T13:04:46Z</time>
      </trkpt>
      <trkpt lat="42.57351" lon="-0.5494">
        <time>2022-07-30T13:04:47Z</time>
      </trkpt>
      <trkpt lat="42.57348" lon="-0.5494">
        <time>2022-07-30T13:04:48Z</time>
      </trkpt>
      <trkpt lat="42.57345" lon="-0.54941">
        <time>2022-07-30T13:04:49Z</time>
      </trkpt>
      <trkpt lat="42.57344" lon="-0.54941">
        <time>2022-07-30T13:04:50Z</time>
      </trkpt>
      <trkpt lat="42.57343" lon="-0.54941">
        <time>2022-07-30T13:04:51Z</time>
      </trkpt>
      <trkpt lat="42.57345" lon="-0.5494">
        <time>2022-07-30T13:05:41Z</time>
      </trkpt>
      <trkpt lat="42.57342" lon="-0.5494">
        <time>2022-07-30T13:05:42Z</time>
      </trkpt>
      <trkpt lat="42.57338" lon="-0.5494">
        <time>2022-07-30T13:05:43Z</time>
      </trkpt>
      <trkpt lat="42.57333" lon="-0.54941">
        <time>2022-07-30T13:05:44Z</time>
      </trkpt>
      <trkpt lat="42.57328" lon="-0.54942">
        <time>2022-07-30T13:05:45Z</time>
      </trkpt>
      <trkpt lat="42.57323" lon="-0.54943">
        <time>2022-07-30T13:05:46Z</time>
      </trkpt>
      <trkpt lat="42.57317" lon="-0.54944">
        <time>2022-07-30T13:05:47Z</time>
      </trkpt>
      <trkpt lat="42.57311" lon="-0.54945">
        <time>2022-07-30T13:05:48Z</time>
      </trkpt>
      <trkpt lat="42.57305" lon="-0.54945">
        <time>2022-07-30T13:05:49Z</time>
      </trkpt>
      <trkpt lat="42.57299" lon="-0.54946">
        <time>2022-07-30T13:05:50Z</time>
      </trkpt>
      <trkpt lat="42.57292" lon="-0.54947">
        <time>2022-07-30T13:05:51Z</time>
      </trkpt>
      <trkpt lat="42.57284" lon="-0.54949">
        <time>2022-07-30T13:05:52Z</time>
      </trkpt>
      <trkpt lat="42.57277" lon="-0.5495">
        <time>2022-07-30T13:05:53Z</time>
      </trkpt>
      <trkpt lat="42.57269" lon="-0.54952">
        <time>2022-07-30T13:05:54Z</time>
      </trkpt>
      <trkpt lat="42.57262" lon="-0.54953">
        <time>2022-07-30T13:05:55Z</time>
      </trkpt>
      <trkpt lat="42.57254" lon="-0.54954">
        <time>2022-07-30T13:05:56Z</time>
      </trkpt>
      <trkpt lat="42.57245" lon="-0.54956">
        <time>2022-07-30T13:05:57Z</time>
      </trkpt>
      <trkpt lat="42.57236" lon="-0.54958">
        <time>2022-07-30T13:05:58Z</time>
      </trkpt>
      <trkpt lat="42.57227" lon="-0.5496">
        <time>2022-07-30T13:05:59Z</time>
      </trkpt>
      <trkpt lat="42.57219" lon="-0.54961">
        <time>2022-07-30T13:06:00Z</time>
      </trkpt>
      <trkpt lat="42.57211" lon="-0.54963">
        <time>2022-07-30T13:06:01Z</time>
      </trkpt>
      <trkpt lat="42.57203" lon="-0.54967">
        <time>2022-07-30T13:06:02Z</time>
      </trkpt>
      <trkpt lat="42.57195" lon="-0.54971">
        <time>2022-07-30T13:06:03Z</time>
      </trkpt>
      <trkpt lat="42.57189" lon="-0.54977">
        <time>2022-07-30T13:06:04Z</time>
      </trkpt>
      <trkpt lat="42.57182" lon="-0.54983">
        <time>2022-07-30T13:06:05Z</time>
      </trkpt>
      <trkpt lat="42.57176" lon="-0.5499">
        <time>2022-07-30T13:06:06Z</time>
      </trkpt>
      <trkpt lat="42.5717" lon="-0.54998">
        <time>2022-07-30T13:06:07Z</time>
      </trkpt>
      <trkpt lat="42.57165" lon="-0.55005">
        <time>2022-07-30T13:06:08Z</time>
      </trkpt>
      <trkpt lat="42.57159" lon="-0.55015">
        <time>2022-07-30T13:06:09Z</time>
      </trkpt>
      <trkpt lat="42.57153" lon="-0.55023">
        <time>2022-07-30T13:06:10Z</time>
      </trkpt>
      <trkpt lat="42.57148" lon="-0.55031">
        <time>2022-07-30T13:06:11Z</time>
      </trkpt>
      <trkpt lat="42.57143" lon="-0.55038">
        <time>2022-07-30T13:06:12Z</time>
      </trkpt>
      <trkpt lat="42.57137" lon="-0.55045">
        <time>2022-07-30T13:06:13Z</time>
      </trkpt>
      <trkpt lat="42.57131" lon="-0.55052">
        <time>2022-07-30T13:06:14Z</time>
      </trkpt>
      <trkpt lat="42.57125" lon="-0.55059">
        <time>2022-07-30T13:06:15Z</time>
      </trkpt>
      <trkpt lat="42.57118" lon="-0.55065">
        <time>2022-07-30T13:06:16Z</time>
      </trkpt>
      <trkpt lat="42.57111" lon="-0.55071">
        <time>2022-07-30T13:06:17Z</time>
      </trkpt>
      <trkpt lat="42.57103" lon="-0.55077">
        <time>2022-07-30T13:06:18Z</time>
      </trkpt>
      <trkpt lat="42.57096" lon="-0.55082">
        <time>2022-07-30T13:06:19Z</time>
      </trkpt>
      <trkpt lat="42.5709" lon="-0.55087">
        <time>2022-07-30T13:06:20Z</time>
      </trkpt>
      <trkpt lat="42.57083" lon="-0.55092">
        <time>2022-07-30T13:06:21Z</time>
      </trkpt>
      <trkpt lat="42.57076" lon="-0.55098">
        <time>2022-07-30T13:06:22Z</time>
      </trkpt>
      <trkpt lat="42.57069" lon="-0.55103">
        <time>2022-07-30T13:06:23Z</time>
      </trkpt>
      <trkpt lat="42.57063" lon="-0.55108">
        <time>2022-07-30T13:06:24Z</time>
      </trkpt>
      <trkpt lat="42.57056" lon="-0.55112">
        <time>2022-07-30T13:06:25Z</time>
      </trkpt>
      <trkpt lat="42.5705" lon="-0.55117">
        <time>2022-07-30T13:06:26Z</time>
      </trkpt>
      <trkpt lat="42.57045" lon="-0.5512">
        <time>2022-07-30T13:06:27Z</time>
      </trkpt>
      <trkpt lat="42.5704" lon="-0.55124">
        <time>2022-07-30T13:06:28Z</time>
      </trkpt>
      <trkpt lat="42.57036" lon="-0.55127">
        <time>2022-07-30T13:06:29Z</time>
      </trkpt>
      <trkpt lat="42.57032" lon="-0.5513">
        <time>2022-07-30T13:06:30Z</time>
      </trkpt>
      <trkpt lat="42.57029" lon="-0.55132">
        <time>2022-07-30T13:06:31Z</time>
      </trkpt>
      <trkpt lat="42.57026" lon="-0.55134">
        <time>2022-07-30T13:06:32Z</time>
      </trkpt>
      <trkpt lat="42.57024" lon="-0.55136">
        <time>2022-07-30T13:06:33Z</time>
      </trkpt>
      <trkpt lat="42.57022" lon="-0.55138">
        <time>2022-07-30T13:06:34Z</time>
      </trkpt>
      <trkpt lat="42.57019" lon="-0.55139">
        <time>2022-07-30T13:07:03Z</time>
      </trkpt>
      <trkpt lat="42.57018" lon="-0.55141">
        <time>2022-07-30T13:07:04Z</time>
      </trkpt>
      <trkpt lat="42.57016" lon="-0.55142">
        <time>2022-07-30T13:07:05Z</time>
      </trkpt>
      <trkpt lat="42.57012" lon="-0.55145">
        <time>2022-07-30T13:07:06Z</time>
      </trkpt>
      <trkpt lat="42.57008" lon="-0.55148">
        <time>2022-07-30T13:07:07Z</time>
      </trkpt>
      <trkpt lat="42.57003" lon="-0.55151">
        <time>2022-07-30T13:07:08Z</time>
      </trkpt>
      <trkpt lat="42.56999" lon="-0.55155">
        <time>2022-07-30T13:07:09Z</time>
      </trkpt>
      <trkpt lat="42.56994" lon="-0.55159">
        <time>2022-07-30T13:07:10Z</time>
      </trkpt>
      <trkpt lat="42.56988" lon="-0.55163">
        <time>2022-07-30T13:07:11Z</time>
      </trkpt>
      <trkpt lat="42.56983" lon="-0.55167">
        <time>2022-07-30T13:07:12Z</time>
      </trkpt>
      <trkpt lat="42.56977" lon="-0.55171">
        <time>2022-07-30T13:07:13Z</time>
      </trkpt>
      <trkpt lat="42.56971" lon="-0.55176">
        <time>2022-07-30T13:07:14Z</time>
      </trkpt>
      <trkpt lat="42.56966" lon="-0.5518">
        <time>2022-07-30T13:07:15Z</time>
      </trkpt>
      <trkpt lat="42.56959" lon="-0.55185">
        <time>2022-07-30T13:07:16Z</time>
      </trkpt>
      <trkpt lat="42.56952" lon="-0.5519">
        <time>2022-07-30T13:07:17Z</time>
      </trkpt>
      <trkpt lat="42.56946" lon="-0.55194">
        <time>2022-07-30T13:07:18Z</time>
      </trkpt>
      <trkpt lat="42.56938" lon="-0.552">
        <time>2022-07-30T13:07:19Z</time>
      </trkpt>
      <trkpt lat="42.5693" lon="-0.55205">
        <time>2022-07-30T13:07:20Z</time>
      </trkpt>
      <trkpt lat="42.56923" lon="-0.5521">
        <time>2022-07-30T13:07:21Z</time>
      </trkpt>
      <trkpt lat="42.56915" lon="-0.55216">
        <time>2022-07-30T13:07:22Z</time>
      </trkpt>
      <trkpt lat="42.56907" lon="-0.55222">
        <time>2022-07-30T13:07:23Z</time>
      </trkpt>
      <trkpt lat="42.56899" lon="-0.55228">
        <time>2022-07-30T13:07:24Z</time>
      </trkpt>
      <trkpt lat="42.56891" lon="-0.55234">
        <time>2022-07-30T13:07:25Z</time>
      </trkpt>
      <trkpt lat="42.56882" lon="-0.5524">
        <time>2022-07-30T13:07:26Z</time>
      </trkpt>
      <trkpt lat="42.56874" lon="-0.55246">
        <time>2022-07-30T13:07:27Z</time>
      </trkpt>
      <trkpt lat="42.56866" lon="-0.55251">
        <time>2022-07-30T13:07:28Z</time>
      </trkpt>
      <trkpt lat="42.56858" lon="-0.55258">
        <time>2022-07-30T13:07:29Z</time>
      </trkpt>
      <trkpt lat="42.56849" lon="-0.55264">
        <time>2022-07-30T13:07:30Z</time>
      </trkpt>
      <trkpt lat="42.5684" lon="-0.5527">
        <time>2022-07-30T13:07:31Z</time>
      </trkpt>
      <trkpt lat="42.56832" lon="-0.55277">
        <time>2022-07-30T13:07:32Z</time>
      </trkpt>
      <trkpt lat="42.56824" lon="-0.55283">
        <time>2022-07-30T13:07:33Z</time>
      </trkpt>
      <trkpt lat="42.56816" lon="-0.55288">
        <time>2022-07-30T13:07:34Z</time>
      </trkpt>
      <trkpt lat="42.56808" lon="-0.55294">
        <time>2022-07-30T13:07:35Z</time>
      </trkpt>
      <trkpt lat="42.568" lon="-0.553">
        <time>2022-07-30T13:07:36Z</time>
      </trkpt>
      <trkpt lat="42.56793" lon="-0.55306">
        <time>2022-07-30T13:07:37Z</time>
      </trkpt>
      <trkpt lat="42.56785" lon="-0.55311">
        <time>2022-07-30T13:07:38Z</time>
      </trkpt>
      <trkpt lat="42.56778" lon="-0.55317">
        <time>2022-07-30T13:07:39Z</time>
      </trkpt>
      <trkpt lat="42.56771" lon="-0.55322">
        <time>2022-07-30T13:07:40Z</time>
      </trkpt>
      <trkpt lat="42.56765" lon="-0.55326">
        <time>2022-07-30T13:07:41Z</time>
      </trkpt>
      <trkpt lat="42.56758" lon="-0.55331">
        <time>2022-07-30T13:07:42Z</time>
      </trkpt>
      <trkpt lat="42.56753" lon="-0.55335">
        <time>2022-07-30T13:07:43Z</time>
      </trkpt>
      <trkpt lat="42.56748" lon="-0.55339">
        <time>2022-07-30T13:07:44Z</time>
      </trkpt>
      <trkpt lat="42.56742" lon="-0.55344">
        <time>2022-07-30T13:07:45Z</time>
      </trkpt>
      <trkpt lat="42.56737" lon="-0.55349">
        <time>2022-07-30T13:07:46Z</time>
      </trkpt>
      <trkpt lat="42.56733" lon="-0.55353">
        <time>2022-07-30T13:07:47Z</time>
      </trkpt>
      <trkpt lat="42.56728" lon="-0.55359">
        <time>2022-07-30T13:07:48Z</time>
      </trkpt>
      <trkpt lat="42.56724" lon="-0.55364">
        <time>2022-07-30T13:07:49Z</time>
      </trkpt>
      <trkpt lat="42.56721" lon="-0.55368">
        <time>2022-07-30T13:07:50Z</time>
      </trkpt>
      <trkpt lat="42.56717" lon="-0.55372">
        <time>2022-07-30T13:07:51Z</time>
      </trkpt>
      <trkpt lat="42.56714" lon="-0.55376">
        <time>2022-07-30T13:07:52Z</time>
      </trkpt>
      <trkpt lat="42.56711" lon="-0.55379">
        <time>2022-07-30T13:07:53Z</time>
      </trkpt>
      <trkpt lat="42.56708" lon="-0.55383">
        <time>2022-07-30T13:07:54Z</time>
      </trkpt>
      <trkpt lat="42.56704" lon="-0.55387">
        <time>2022-07-30T13:07:55Z</time>
      </trkpt>
      <trkpt lat="42.56701" lon="-0.55392">
        <time>2022-07-30T13:07:56Z</time>
      </trkpt>
      <trkpt lat="42.56697" lon="-0.55397">
        <time>2022-07-30T13:07:57Z</time>
      </trkpt>
      <trkpt lat="42.56693" lon="-0.55402">
        <time>2022-07-30T13:07:58Z</time>
      </trkpt>
      <trkpt lat="42.56689" lon="-0.55408">
        <time>2022-07-30T13:07:59Z</time>
      </trkpt>
      <trkpt lat="42.56685" lon="-0.55414">
        <time>2022-07-30T13:08:00Z</time>
      </trkpt>
      <trkpt lat="42.5668" lon="-0.55419">
        <time>2022-07-30T13:08:01Z</time>
      </trkpt>
      <trkpt lat="42.56677" lon="-0.55424">
        <time>2022-07-30T13:08:02Z</time>
      </trkpt>
      <trkpt lat="42.56674" lon="-0.55427">
        <time>2022-07-30T13:08:03Z</time>
      </trkpt>
      <trkpt lat="42.56673" lon="-0.5543">
        <time>2022-07-30T13:08:04Z</time>
      </trkpt>
      <trkpt lat="42.56671" lon="-0.55432">
        <time>2022-07-30T13:08:05Z</time>
      </trkpt>
      <trkpt lat="42.56669" lon="-0.55435">
        <time>2022-07-30T13:08:06Z</time>
      </trkpt>
      <trkpt lat="42.56666" lon="-0.55439">
        <time>2022-07-30T13:08:07Z</time>
      </trkpt>
      <trkpt lat="42.56663" lon="-0.55444">
        <time>2022-07-30T13:08:08Z</time>
      </trkpt>
      <trkpt lat="42.5666" lon="-0.5545">
        <time>2022-07-30T13:08:09Z</time>
      </trkpt>
      <trkpt lat="42.56656" lon="-0.55456">
        <time>2022-07-30T13:08:10Z</time>
      </trkpt>
      <trkpt lat="42.56653" lon="-0.55463">
        <time>2022-07-30T13:08:11Z</time>
      </trkpt>
      <trkpt lat="42.56649" lon="-0.55471">
        <time>2022-07-30T13:08:12Z</time>
      </trkpt>
      <trkpt lat="42.56647" lon="-0.55479">
        <time>2022-07-30T13:08:13Z</time>
      </trkpt>
      <trkpt lat="42.56644" lon="-0.55487">
        <time>2022-07-30T13:08:14Z</time>
      </trkpt>
      <trkpt lat="42.56642" lon="-0.55495">
        <time>2022-07-30T13:08:15Z</time>
      </trkpt>
      <trkpt lat="42.5664" lon="-0.55502">
        <time>2022-07-30T13:08:16Z</time>
      </trkpt>
      <trkpt lat="42.56638" lon="-0.5551">
        <time>2022-07-30T13:08:17Z</time>
      </trkpt>
      <trkpt lat="42.56637" lon="-0.55518">
        <time>2022-07-30T13:08:18Z</time>
      </trkpt>
      <trkpt lat="42.56635" lon="-0.55529">
        <time>2022-07-30T13:08:19Z</time>
      </trkpt>
      <trkpt lat="42.56633" lon="-0.55542">
        <time>2022-07-30T13:08:20Z</time>
      </trkpt>
      <trkpt lat="42.56632" lon="-0.55555">
        <time>2022-07-30T13:08:21Z</time>
      </trkpt>
      <trkpt lat="42.5663" lon="-0.55569">
        <time>2022-07-30T13:08:22Z</time>
      </trkpt>
      <trkpt lat="42.56629" lon="-0.55584">
        <time>2022-07-30T13:08:23Z</time>
      </trkpt>
      <trkpt lat="42.56626" lon="-0.55602">
        <time>2022-07-30T13:08:24Z</time>
      </trkpt>
      <trkpt lat="42.56623" lon="-0.55621">
        <time>2022-07-30T13:08:25Z</time>
      </trkpt>
      <trkpt lat="42.56619" lon="-0.55642">
        <time>2022-07-30T13:08:26Z</time>
      </trkpt>
      <trkpt lat="42.56615" lon="-0.55664">
        <time>2022-07-30T13:08:27Z</time>
      </trkpt>
      <trkpt lat="42.56612" lon="-0.55685">
        <time>2022-07-30T13:08:28Z</time>
      </trkpt>
      <trkpt lat="42.56608" lon="-0.55706">
        <time>2022-07-30T13:08:29Z</time>
      </trkpt>
      <trkpt lat="42.56605" lon="-0.55726">
        <time>2022-07-30T13:08:30Z</time>
      </trkpt>
      <trkpt lat="42.56601" lon="-0.55749">
        <time>2022-07-30T13:08:31Z</time>
      </trkpt>
      <trkpt lat="42.56597" lon="-0.5577">
        <time>2022-07-30T13:08:32Z</time>
      </trkpt>
      <trkpt lat="42.56593" lon="-0.55792">
        <time>2022-07-30T13:08:33Z</time>
      </trkpt>
      <trkpt lat="42.56589" lon="-0.55817">
        <time>2022-07-30T13:08:34Z</time>
      </trkpt>
      <trkpt lat="42.56586" lon="-0.55838">
        <time>2022-07-30T13:08:35Z</time>
      </trkpt>
      <trkpt lat="42.56582" lon="-0.55862">
        <time>2022-07-30T13:08:36Z</time>
      </trkpt>
      <trkpt lat="42.56579" lon="-0.55884">
        <time>2022-07-30T13:08:37Z</time>
      </trkpt>
      <trkpt lat="42.56575" lon="-0.55904">
        <time>2022-07-30T13:08:38Z</time>
      </trkpt>
      <trkpt lat="42.56571" lon="-0.55927">
        <time>2022-07-30T13:08:39Z</time>
      </trkpt>
      <trkpt lat="42.56568" lon="-0.55948">
        <time>2022-07-30T13:08:40Z</time>
      </trkpt>
      <trkpt lat="42.56565" lon="-0.55969">
        <time>2022-07-30T13:08:41Z</time>
      </trkpt>
      <trkpt lat="42.56561" lon="-0.55991">
        <time>2022-07-30T13:08:42Z</time>
      </trkpt>
      <trkpt lat="42.56558" lon="-0.56011">
        <time>2022-07-30T13:08:43Z</time>
      </trkpt>
      <trkpt lat="42.56554" lon="-0.56033">
        <time>2022-07-30T13:08:44Z</time>
      </trkpt>
      <trkpt lat="42.5655" lon="-0.56055">
        <time>2022-07-30T13:08:45Z</time>
      </trkpt>
      <trkpt lat="42.56547" lon="-0.56075">
        <time>2022-07-30T13:08:46Z</time>
      </trkpt>
      <trkpt lat="42.56543" lon="-0.56097">
        <time>2022-07-30T13:08:47Z</time>
      </trkpt>
      <trkpt lat="42.56539" lon="-0.56118">
        <time>2022-07-30T13:08:48Z</time>
      </trkpt>
      <trkpt lat="42.56535" lon="-0.5614">
        <time>2022-07-30T13:08:49Z</time>
      </trkpt>
      <trkpt lat="42.56532" lon="-0.56162">
        <time>2022-07-30T13:08:50Z</time>
      </trkpt>
      <trkpt lat="42.56528" lon="-0.56182">
        <time>2022-07-30T13:08:51Z</time>
      </trkpt>
      <trkpt lat="42.56524" lon="-0.56205">
        <time>2022-07-30T13:08:52Z</time>
      </trkpt>
      <trkpt lat="42.56521" lon="-0.56227">
        <time>2022-07-30T13:08:53Z</time>
      </trkpt>
      <trkpt lat="42.56517" lon="-0.56248">
        <time>2022-07-30T13:08:54Z</time>
      </trkpt>
      <trkpt lat="42.56513" lon="-0.56271">
        <time>2022-07-30T13:08:55Z</time>
      </trkpt>
      <trkpt lat="42.5651" lon="-0.56293">
        <time>2022-07-30T13:08:56Z</time>
      </trkpt>
      <trkpt lat="42.56506" lon="-0.56315">
        <time>2022-07-30T13:08:57Z</time>
      </trkpt>
      <trkpt lat="42.56503" lon="-0.56337">
        <time>2022-07-30T13:08:58Z</time>
      </trkpt>
      <trkpt lat="42.56499" lon="-0.56358">
        <time>2022-07-30T13:08:59Z</time>
      </trkpt>
      <trkpt lat="42.56495" lon="-0.56382">
        <time>2022-07-30T13:09:00Z</time>
      </trkpt>
      <trkpt lat="42.56491" lon="-0.56404">
        <time>2022-07-30T13:09:01Z</time>
      </trkpt>
      <trkpt lat="42.56488" lon="-0.56424">
        <time>2022-07-30T13:09:02Z</time>
      </trkpt>
      <trkpt lat="42.56485" lon="-0.56445">
        <time>2022-07-30T13:09:03Z</time>
      </trkpt>
      <trkpt lat="42.56481" lon="-0.56463">
        <time>2022-07-30T13:09:04Z</time>
      </trkpt>
      <trkpt lat="42.56478" lon="-0.56483">
        <time>2022-07-30T13:09:05Z</time>
      </trkpt>
      <trkpt lat="42.56475" lon="-0.56501">
        <time>2022-07-30T13:09:06Z</time>
      </trkpt>
      <trkpt lat="42.56472" lon="-0.56518">
        <time>2022-07-30T13:09:07Z</time>
      </trkpt>
      <trkpt lat="42.5647" lon="-0.56535">
        <time>2022-07-30T13:09:08Z</time>
      </trkpt>
      <trkpt lat="42.56467" lon="-0.5655">
        <time>2022-07-30T13:09:09Z</time>
      </trkpt>
      <trkpt lat="42.56464" lon="-0.56565">
        <time>2022-07-30T13:09:10Z</time>
      </trkpt>
      <trkpt lat="42.56462" lon="-0.56579">
        <time>2022-07-30T13:09:11Z</time>
      </trkpt>
      <trkpt lat="42.56459" lon="-0.56592">
        <time>2022-07-30T13:09:12Z</time>
      </trkpt>
      <trkpt lat="42.56457" lon="-0.56604">
        <time>2022-07-30T13:09:13Z</time>
      </trkpt>
      <trkpt lat="42.56455" lon="-0.56616">
        <time>2022-07-30T13:09:14Z</time>
      </trkpt>
      <trkpt lat="42.56454" lon="-0.56625">
        <time>2022-07-30T13:09:15Z</time>
      </trkpt>
      <trkpt lat="42.56453" lon="-0.56634">
        <time>2022-07-30T13:09:16Z</time>
      </trkpt>
      <trkpt lat="42.56454" lon="-0.5664">
        <time>2022-07-30T13:09:17Z</time>
      </trkpt>
      <trkpt lat="42.56455" lon="-0.56645">
        <time>2022-07-30T13:09:18Z</time>
      </trkpt>
      <trkpt lat="42.56457" lon="-0.5665">
        <time>2022-07-30T13:09:19Z</time>
      </trkpt>
      <trkpt lat="42.56459" lon="-0.56653">
        <time>2022-07-30T13:09:20Z</time>
      </trkpt>
      <trkpt lat="42.5646" lon="-0.56657">
        <time>2022-07-30T13:09:21Z</time>
      </trkpt>
      <trkpt lat="42.56461" lon="-0.56662">
        <time>2022-07-30T13:09:22Z</time>
      </trkpt>
      <trkpt lat="42.56463" lon="-0.56666">
        <time>2022-07-30T13:09:23Z</time>
      </trkpt>
      <trkpt lat="42.56467" lon="-0.56671">
        <time>2022-07-30T13:09:24Z</time>
      </trkpt>
      <trkpt lat="42.56472" lon="-0.56674">
        <time>2022-07-30T13:09:25Z</time>
      </trkpt>
      <trkpt lat="42.56478" lon="-0.56677">
        <time>2022-07-30T13:09:26Z</time>
      </trkpt>
      <trkpt lat="42.56485" lon="-0.56679">
        <time>2022-07-30T13:09:27Z</time>
      </trkpt>
      <trkpt lat="42.56492" lon="-0.5668">
        <time>2022-07-30T13:09:28Z</time>
      </trkpt>
      <trkpt lat="42.56498" lon="-0.5668">
        <time>2022-07-30T13:09:29Z</time>
      </trkpt>
      <trkpt lat="42.56504" lon="-0.56676">
        <time>2022-07-30T13:09:30Z</time>
      </trkpt>
      <trkpt lat="42.56509" lon="-0.5667">
        <time>2022-07-30T13:09:31Z</time>
      </trkpt>
      <trkpt lat="42.56513" lon="-0.5666">
        <time>2022-07-30T13:09:32Z</time>
      </trkpt>
      <trkpt lat="42.56517" lon="-0.56649">
        <time>2022-07-30T13:09:33Z</time>
      </trkpt>
      <trkpt lat="42.5652" lon="-0.56637">
        <time>2022-07-30T13:09:34Z</time>
      </trkpt>
      <trkpt lat="42.56525" lon="-0.56624">
        <time>2022-07-30T13:09:35Z</time>
      </trkpt>
      <trkpt lat="42.56529" lon="-0.56612">
        <time>2022-07-30T13:09:36Z</time>
      </trkpt>
      <trkpt lat="42.56533" lon="-0.566">
        <time>2022-07-30T13:09:37Z</time>
      </trkpt>
      <trkpt lat="42.56538" lon="-0.56586">
        <time>2022-07-30T13:09:38Z</time>
      </trkpt>
      <trkpt lat="42.56542" lon="-0.56574">
        <time>2022-07-30T13:09:39Z</time>
      </trkpt>
      <trkpt lat="42.56546" lon="-0.56562">
        <time>2022-07-30T13:09:40Z</time>
      </trkpt>
      <trkpt lat="42.5655" lon="-0.56551">
        <time>2022-07-30T13:09:41Z</time>
      </trkpt>
      <trkpt lat="42.56553" lon="-0.56542">
        <time>2022-07-30T13:09:42Z</time>
      </trkpt>
      <trkpt lat="42.56556" lon="-0.56534">
        <time>2022-07-30T13:09:43Z</time>
      </trkpt>
      <trkpt lat="42.56558" lon="-0.56527">
        <time>2022-07-30T13:09:44Z</time>
      </trkpt>
      <trkpt lat="42.56559" lon="-0.56522">
        <time>2022-07-30T13:09:45Z</time>
      </trkpt>
      <trkpt lat="42.56558" lon="-0.56516">
        <time>2022-07-30T13:09:46Z</time>
      </trkpt>
      <trkpt lat="42.56556" lon="-0.56511">
        <time>2022-07-30T13:09:47Z</time>
      </trkpt>
      <trkpt lat="42.56551" lon="-0.56507">
        <time>2022-07-30T13:09:48Z</time>
      </trkpt>
      <trkpt lat="42.56546" lon="-0.56505">
        <time>2022-07-30T13:09:49Z</time>
      </trkpt>
      <trkpt lat="42.56541" lon="-0.56503">
        <time>2022-07-30T13:09:50Z</time>
      </trkpt>
      <trkpt lat="42.56535" lon="-0.56501">
        <time>2022-07-30T13:09:51Z</time>
      </trkpt>
      <trkpt lat="42.56529" lon="-0.565">
        <time>2022-07-30T13:09:52Z</time>
      </trkpt>
      <trkpt lat="42.56522" lon="-0.56498">
        <time>2022-07-30T13:09:53Z</time>
      </trkpt>
      <trkpt lat="42.56516" lon="-0.56496">
        <time>2022-07-30T13:09:54Z</time>
      </trkpt>
      <trkpt lat="42.56512" lon="-0.56494">
        <time>2022-07-30T13:09:55Z</time>
      </trkpt>
      <trkpt lat="42.56508" lon="-0.56492">
        <time>2022-07-30T13:09:56Z</time>
      </trkpt>
      <trkpt lat="42.56505" lon="-0.5649">
        <time>2022-07-30T13:09:57Z</time>
      </trkpt>
      <trkpt lat="42.56503" lon="-0.56488">
        <time>2022-07-30T13:09:58Z</time>
      </trkpt>
      <trkpt lat="42.56502" lon="-0.56488">
        <time>2022-07-30T13:09:59Z</time>
      </trkpt>
      <trkpt lat="42.56499" lon="-0.56486">
        <time>2022-07-30T13:10:05Z</time>
      </trkpt>
      <trkpt lat="42.56498" lon="-0.56484">
        <time>2022-07-30T13:10:06Z</time>
      </trkpt>
      <trkpt lat="42.56497" lon="-0.56481">
        <time>2022-07-30T13:10:07Z</time>
      </trkpt>
      <trkpt lat="42.56497" lon="-0.56477">
        <time>2022-07-30T13:10:08Z</time>
      </trkpt>
      <trkpt lat="42.56498" lon="-0.56473">
        <time>2022-07-30T13:10:09Z</time>
      </trkpt>
      <trkpt lat="42.56498" lon="-0.56463">
        <time>2022-07-30T13:10:10Z</time>
      </trkpt>
      <trkpt lat="42.56498" lon="-0.56458">
        <time>2022-07-30T13:10:11Z</time>
      </trkpt>
      <trkpt lat="42.565" lon="-0.56453">
        <time>2022-07-30T13:10:12Z</time>
      </trkpt>
      <trkpt lat="42.565" lon="-0.56446">
        <time>2022-07-30T13:10:13Z</time>
      </trkpt>
      <trkpt lat="42.56501" lon="-0.5644">
        <time>2022-07-30T13:10:14Z</time>
      </trkpt>
      <trkpt lat="42.56502" lon="-0.56432">
        <time>2022-07-30T13:10:15Z</time>
      </trkpt>
      <trkpt lat="42.56503" lon="-0.56425">
        <time>2022-07-30T13:10:16Z</time>
      </trkpt>
      <trkpt lat="42.56503" lon="-0.56419">
        <time>2022-07-30T13:10:17Z</time>
      </trkpt>
      <trkpt lat="42.56504" lon="-0.56414">
        <time>2022-07-30T13:10:18Z</time>
      </trkpt>
      <trkpt lat="42.56505" lon="-0.5641">
        <time>2022-07-30T13:10:19Z</time>
      </trkpt>
      <trkpt lat="42.56507" lon="-0.56407">
        <time>2022-07-30T13:10:20Z</time>
      </trkpt>
      <trkpt lat="42.56508" lon="-0.56406">
        <time>2022-07-30T13:10:21Z</time>
      </trkpt>
      <trkpt lat="42.56509" lon="-0.56406">
        <time>2022-07-30T13:10:22Z</time>
      </trkpt>
      <trkpt lat="42.56511" lon="-0.56407">
        <time>2022-07-30T13:10:25Z</time>
      </trkpt>
      <trkpt lat="42.56511" lon="-0.56408">
        <time>2022-07-30T13:10:26Z</time>
      </trkpt>
      <trkpt lat="42.56513" lon="-0.56408">
        <time>2022-07-30T13:10:27Z</time>
      </trkpt>
      <trkpt lat="42.56516" lon="-0.56407">
        <time>2022-07-30T13:10:28Z</time>
      </trkpt>
      <trkpt lat="42.5652" lon="-0.56406">
        <time>2022-07-30T13:10:29Z</time>
      </trkpt>
      <trkpt lat="42.56524" lon="-0.56406">
        <time>2022-07-30T13:10:30Z</time>
      </trkpt>
      <trkpt lat="42.56527" lon="-0.56406">
        <time>2022-07-30T13:10:31Z</time>
      </trkpt>
      <trkpt lat="42.56529" lon="-0.56408">
        <time>2022-07-30T13:10:32Z</time>
      </trkpt>
      <trkpt lat="42.56529" lon="-0.5641">
        <time>2022-07-30T13:10:33Z</time>
      </trkpt>
      <trkpt lat="42.56529" lon="-0.56412">
        <time>2022-07-30T13:10:34Z</time>
      </trkpt>
      <trkpt lat="42.56528" lon="-0.56414">
        <time>2022-07-30T13:10:35Z</time>
      </trkpt>
      <trkpt lat="42.56526" lon="-0.56414">
        <time>2022-07-30T13:10:36Z</time>
      </trkpt>
      <trkpt lat="42.56525" lon="-0.56413">
        <time>2022-07-30T13:10:37Z</time>
      </trkpt>
      <trkpt lat="42.56524" lon="-0.56413">
        <time>2022-07-30T13:10:38Z</time>
      </trkpt>
      <trkpt lat="42.56521" lon="-0.56407">
        <time>2022-07-30T13:24:08Z</time>
      </trkpt>
      <trkpt lat="42.56519" lon="-0.56406">
        <time>2022-07-30T13:24:09Z</time>
      </trkpt>
      <trkpt lat="42.56517" lon="-0.56405">
        <time>2022-07-30T13:24:10Z</time>
      </trkpt>
      <trkpt lat="42.56515" lon="-0.56404">
        <time>2022-07-30T13:24:11Z</time>
      </trkpt>
      <trkpt lat="42.56514" lon="-0.56403">
        <time>2022-07-30T13:24:12Z</time>
      </trkpt>
      <trkpt lat="42.56513" lon="-0.56403">
        <time>2022-07-30T13:24:13Z</time>
      </trkpt>
      <trkpt lat="42.56511" lon="-0.56402">
        <time>2022-07-30T13:24:14Z</time>
      </trkpt>
      <trkpt lat="42.5651" lon="-0.56401">
        <time>2022-07-30T13:24:15Z</time>
      </trkpt>
      <trkpt lat="42.56508" lon="-0.56401">
        <time>2022-07-30T13:24:18Z</time>
      </trkpt>
      <trkpt lat="42.56507" lon="-0.56403">
        <time>2022-07-30T13:24:19Z</time>
      </trkpt>
      <trkpt lat="42.56505" lon="-0.56406">
        <time>2022-07-30T13:24:20Z</time>
      </trkpt>
      <trkpt lat="42.56505" lon="-0.56413">
        <time>2022-07-30T13:24:21Z</time>
      </trkpt>
      <trkpt lat="42.56504" lon="-0.56421">
        <time>2022-07-30T13:24:22Z</time>
      </trkpt>
      <trkpt lat="42.56502" lon="-0.56431">
        <time>2022-07-30T13:24:23Z</time>
      </trkpt>
      <trkpt lat="42.565" lon="-0.56442">
        <time>2022-07-30T13:24:24Z</time>
      </trkpt>
      <trkpt lat="42.56498" lon="-0.56454">
        <time>2022-07-30T13:24:25Z</time>
      </trkpt>
      <trkpt lat="42.56496" lon="-0.56467">
        <time>2022-07-30T13:24:26Z</time>
      </trkpt>
      <trkpt lat="42.56494" lon="-0.5648">
        <time>2022-07-30T13:24:27Z</time>
      </trkpt>
      <trkpt lat="42.56492" lon="-0.56494">
        <time>2022-07-30T13:24:28Z</time>
      </trkpt>
      <trkpt lat="42.5649" lon="-0.56507">
        <time>2022-07-30T13:24:29Z</time>
      </trkpt>
      <trkpt lat="42.56487" lon="-0.56521">
        <time>2022-07-30T13:24:30Z</time>
      </trkpt>
      <trkpt lat="42.56485" lon="-0.56535">
        <time>2022-07-30T13:24:31Z</time>
      </trkpt>
      <trkpt lat="42.56482" lon="-0.56549">
        <time>2022-07-30T13:24:32Z</time>
      </trkpt>
      <trkpt lat="42.5648" lon="-0.56563">
        <time>2022-07-30T13:24:33Z</time>
      </trkpt>
      <trkpt lat="42.56478" lon="-0.56577">
        <time>2022-07-30T13:24:34Z</time>
      </trkpt>
      <trkpt lat="42.56476" lon="-0.5659">
        <time>2022-07-30T13:24:35Z</time>
      </trkpt>
      <trkpt lat="42.56474" lon="-0.56603">
        <time>2022-07-30T13:24:36Z</time>
      </trkpt>
      <trkpt lat="42.56472" lon="-0.56616">
        <time>2022-07-30T13:24:37Z</time>
      </trkpt>
      <trkpt lat="42.5647" lon="-0.56628">
        <time>2022-07-30T13:24:38Z</time>
      </trkpt>
      <trkpt lat="42.56468" lon="-0.56639">
        <time>2022-07-30T13:24:39Z</time>
      </trkpt>
      <trkpt lat="42.56466" lon="-0.5665">
        <time>2022-07-30T13:24:40Z</time>
      </trkpt>
      <trkpt lat="42.56465" lon="-0.56659">
        <time>2022-07-30T13:24:41Z</time>
      </trkpt>
      <trkpt lat="42.56463" lon="-0.56667">
        <time>2022-07-30T13:24:42Z</time>
      </trkpt>
      <trkpt lat="42.5646" lon="-0.56674">
        <time>2022-07-30T13:24:43Z</time>
      </trkpt>
      <trkpt lat="42.56457" lon="-0.5668">
        <time>2022-07-30T13:24:44Z</time>
      </trkpt>
      <trkpt lat="42.56454" lon="-0.56683">
        <time>2022-07-30T13:24:45Z</time>
      </trkpt>
      <trkpt lat="42.56451" lon="-0.56685">
        <time>2022-07-30T13:24:46Z</time>
      </trkpt>
      <trkpt lat="42.5645" lon="-0.56685">
        <time>2022-07-30T13:24:47Z</time>
      </trkpt>
      <trkpt lat="42.56449" lon="-0.56686">
        <time>2022-07-30T13:24:48Z</time>
      </trkpt>
      <trkpt lat="42.56447" lon="-0.56687">
        <time>2022-07-30T13:24:57Z</time>
      </trkpt>
      <trkpt lat="42.56444" lon="-0.56687">
        <time>2022-07-30T13:24:58Z</time>
      </trkpt>
      <trkpt lat="42.5644" lon="-0.56685">
        <time>2022-07-30T13:24:59Z</time>
      </trkpt>
      <trkpt lat="42.56436" lon="-0.5668">
        <time>2022-07-30T13:25:00Z</time>
      </trkpt>
      <trkpt lat="42.56433" lon="-0.56673">
        <time>2022-07-30T13:25:01Z</time>
      </trkpt>
      <trkpt lat="42.56432" lon="-0.56666">
        <time>2022-07-30T13:25:02Z</time>
      </trkpt>
      <trkpt lat="42.56433" lon="-0.5666">
        <time>2022-07-30T13:25:03Z</time>
      </trkpt>
      <trkpt lat="42.56435" lon="-0.56654">
        <time>2022-07-30T13:25:04Z</time>
      </trkpt>
      <trkpt lat="42.56439" lon="-0.5665">
        <time>2022-07-30T13:25:05Z</time>
      </trkpt>
      <trkpt lat="42.56442" lon="-0.56646">
        <time>2022-07-30T13:25:06Z</time>
      </trkpt>
      <trkpt lat="42.56444" lon="-0.56644">
        <time>2022-07-30T13:25:07Z</time>
      </trkpt>
      <trkpt lat="42.56447" lon="-0.5664">
        <time>2022-07-30T13:25:08Z</time>
      </trkpt>
      <trkpt lat="42.5645" lon="-0.56633">
        <time>2022-07-30T13:25:09Z</time>
      </trkpt>
      <trkpt lat="42.56453" lon="-0.56622">
        <time>2022-07-30T13:25:10Z</time>
      </trkpt>
      <trkpt lat="42.56455" lon="-0.5661">
        <time>2022-07-30T13:25:11Z</time>
      </trkpt>
      <trkpt lat="42.56457" lon="-0.56598">
        <time>2022-07-30T13:25:12Z</time>
      </trkpt>
      <trkpt lat="42.56459" lon="-0.56583">
        <time>2022-07-30T13:25:13Z</time>
      </trkpt>
      <trkpt lat="42.56462" lon="-0.56568">
        <time>2022-07-30T13:25:14Z</time>
      </trkpt>
      <trkpt lat="42.56465" lon="-0.56551">
        <time>2022-07-30T13:25:15Z</time>
      </trkpt>
      <trkpt lat="42.56468" lon="-0.56534">
        <time>2022-07-30T13:25:16Z</time>
      </trkpt>
      <trkpt lat="42.56471" lon="-0.56517">
        <time>2022-07-30T13:25:17Z</time>
      </trkpt>
      <trkpt lat="42.56474" lon="-0.56499">
        <time>2022-07-30T13:25:18Z</time>
      </trkpt>
      <trkpt lat="42.56477" lon="-0.56482">
        <time>2022-07-30T13:25:19Z</time>
      </trkpt>
      <trkpt lat="42.5648" lon="-0.56464">
        <time>2022-07-30T13:25:20Z</time>
      </trkpt>
      <trkpt lat="42.56483" lon="-0.56447">
        <time>2022-07-30T13:25:21Z</time>
      </trkpt>
      <trkpt lat="42.56486" lon="-0.56429">
        <time>2022-07-30T13:25:22Z</time>
      </trkpt>
      <trkpt lat="42.56489" lon="-0.5641">
        <time>2022-07-30T13:25:23Z</time>
      </trkpt>
      <trkpt lat="42.56492" lon="-0.5639">
        <time>2022-07-30T13:25:24Z</time>
      </trkpt>
      <trkpt lat="42.56495" lon="-0.56371">
        <time>2022-07-30T13:25:25Z</time>
      </trkpt>
      <trkpt lat="42.56498" lon="-0.56352">
        <time>2022-07-30T13:25:26Z</time>
      </trkpt>
      <trkpt lat="42.56502" lon="-0.56333">
        <time>2022-07-30T13:25:27Z</time>
      </trkpt>
      <trkpt lat="42.56505" lon="-0.56312">
        <time>2022-07-30T13:25:28Z</time>
      </trkpt>
      <trkpt lat="42.56508" lon="-0.56295">
        <time>2022-07-30T13:25:29Z</time>
      </trkpt>
      <trkpt lat="42.56511" lon="-0.56276">
        <time>2022-07-30T13:25:30Z</time>
      </trkpt>
      <trkpt lat="42.56514" lon="-0.56257">
        <time>2022-07-30T13:25:31Z</time>
      </trkpt>
      <trkpt lat="42.56518" lon="-0.56239">
        <time>2022-07-30T13:25:32Z</time>
      </trkpt>
      <trkpt lat="42.56521" lon="-0.56221">
        <time>2022-07-30T13:25:33Z</time>
      </trkpt>
      <trkpt lat="42.56524" lon="-0.56203">
        <time>2022-07-30T13:25:34Z</time>
      </trkpt>
      <trkpt lat="42.56527" lon="-0.56184">
        <time>2022-07-30T13:25:35Z</time>
      </trkpt>
      <trkpt lat="42.5653" lon="-0.56167">
        <time>2022-07-30T13:25:36Z</time>
      </trkpt>
      <trkpt lat="42.56533" lon="-0.56149">
        <time>2022-07-30T13:25:37Z</time>
      </trkpt>
      <trkpt lat="42.56536" lon="-0.56131">
        <time>2022-07-30T13:25:38Z</time>
      </trkpt>
      <trkpt lat="42.56539" lon="-0.56114">
        <time>2022-07-30T13:25:39Z</time>
      </trkpt>
      <trkpt lat="42.56542" lon="-0.56097">
        <time>2022-07-30T13:25:40Z</time>
      </trkpt>
      <trkpt lat="42.56545" lon="-0.56081">
        <time>2022-07-30T13:25:41Z</time>
      </trkpt>
      <trkpt lat="42.56547" lon="-0.56066">
        <time>2022-07-30T13:25:42Z</time>
      </trkpt>
      <trkpt lat="42.5655" lon="-0.5605">
        <time>2022-07-30T13:25:43Z</time>
      </trkpt>
      <trkpt lat="42.56552" lon="-0.56033">
        <time>2022-07-30T13:25:44Z</time>
      </trkpt>
      <trkpt lat="42.56554" lon="-0.56018">
        <time>2022-07-30T13:25:45Z</time>
      </trkpt>
      <trkpt lat="42.56557" lon="-0.56002">
        <time>2022-07-30T13:25:46Z</time>
      </trkpt>
      <trkpt lat="42.56559" lon="-0.55985">
        <time>2022-07-30T13:25:47Z</time>
      </trkpt>
      <trkpt lat="42.56563" lon="-0.55967">
        <time>2022-07-30T13:25:48Z</time>
      </trkpt>
      <trkpt lat="42.56565" lon="-0.5595">
        <time>2022-07-30T13:25:49Z</time>
      </trkpt>
      <trkpt lat="42.56569" lon="-0.55932">
        <time>2022-07-30T13:25:50Z</time>
      </trkpt>
      <trkpt lat="42.56572" lon="-0.55913">
        <time>2022-07-30T13:25:51Z</time>
      </trkpt>
      <trkpt lat="42.56575" lon="-0.55895">
        <time>2022-07-30T13:25:52Z</time>
      </trkpt>
      <trkpt lat="42.56578" lon="-0.55876">
        <time>2022-07-30T13:25:53Z</time>
      </trkpt>
      <trkpt lat="42.56581" lon="-0.55857">
        <time>2022-07-30T13:25:54Z</time>
      </trkpt>
      <trkpt lat="42.56584" lon="-0.55839">
        <time>2022-07-30T13:25:55Z</time>
      </trkpt>
      <trkpt lat="42.56587" lon="-0.55821">
        <time>2022-07-30T13:25:56Z</time>
      </trkpt>
      <trkpt lat="42.5659" lon="-0.55803">
        <time>2022-07-30T13:25:57Z</time>
      </trkpt>
      <trkpt lat="42.56593" lon="-0.55785">
        <time>2022-07-30T13:25:58Z</time>
      </trkpt>
      <trkpt lat="42.56596" lon="-0.55767">
        <time>2022-07-30T13:25:59Z</time>
      </trkpt>
      <trkpt lat="42.56599" lon="-0.55747">
        <time>2022-07-30T13:26:00Z</time>
      </trkpt>
      <trkpt lat="42.56602" lon="-0.5573">
        <time>2022-07-30T13:26:01Z</time>
      </trkpt>
      <trkpt lat="42.56605" lon="-0.55713">
        <time>2022-07-30T13:26:02Z</time>
      </trkpt>
      <trkpt lat="42.56607" lon="-0.55697">
        <time>2022-07-30T13:26:03Z</time>
      </trkpt>
      <trkpt lat="42.5661" lon="-0.55681">
        <time>2022-07-30T13:26:04Z</time>
      </trkpt>
      <trkpt lat="42.56613" lon="-0.55665">
        <time>2022-07-30T13:26:05Z</time>
      </trkpt>
      <trkpt lat="42.56615" lon="-0.5565">
        <time>2022-07-30T13:26:06Z</time>
      </trkpt>
      <trkpt lat="42.56618" lon="-0.55635">
        <time>2022-07-30T13:26:07Z</time>
      </trkpt>
      <trkpt lat="42.56621" lon="-0.5562">
        <time>2022-07-30T13:26:08Z</time>
      </trkpt>
      <trkpt lat="42.56623" lon="-0.55605">
        <time>2022-07-30T13:26:09Z</time>
      </trkpt>
      <trkpt lat="42.56626" lon="-0.5559">
        <time>2022-07-30T13:26:10Z</time>
      </trkpt>
      <trkpt lat="42.56628" lon="-0.55576">
        <time>2022-07-30T13:26:11Z</time>
      </trkpt>
      <trkpt lat="42.56631" lon="-0.55561">
        <time>2022-07-30T13:26:12Z</time>
      </trkpt>
      <trkpt lat="42.56633" lon="-0.55548">
        <time>2022-07-30T13:26:13Z</time>
      </trkpt>
      <trkpt lat="42.56635" lon="-0.55534">
        <time>2022-07-30T13:26:14Z</time>
      </trkpt>
      <trkpt lat="42.56637" lon="-0.55522">
        <time>2022-07-30T13:26:15Z</time>
      </trkpt>
      <trkpt lat="42.56639" lon="-0.55509">
        <time>2022-07-30T13:26:16Z</time>
      </trkpt>
      <trkpt lat="42.5664" lon="-0.55498">
        <time>2022-07-30T13:26:17Z</time>
      </trkpt>
      <trkpt lat="42.5664" lon="-0.55486">
        <time>2022-07-30T13:26:18Z</time>
      </trkpt>
      <trkpt lat="42.56638" lon="-0.55476">
        <time>2022-07-30T13:26:19Z</time>
      </trkpt>
      <trkpt lat="42.56634" lon="-0.55466">
        <time>2022-07-30T13:26:20Z</time>
      </trkpt>
      <trkpt lat="42.56631" lon="-0.55456">
        <time>2022-07-30T13:26:21Z</time>
      </trkpt>
      <trkpt lat="42.56628" lon="-0.55446">
        <time>2022-07-30T13:26:22Z</time>
      </trkpt>
      <trkpt lat="42.56626" lon="-0.55436">
        <time>2022-07-30T13:26:23Z</time>
      </trkpt>
      <trkpt lat="42.56627" lon="-0.55425">
        <time>2022-07-30T13:26:24Z</time>
      </trkpt>
      <trkpt lat="42.56629" lon="-0.55415">
        <time>2022-07-30T13:26:25Z</time>
      </trkpt>
      <trkpt lat="42.56632" lon="-0.55404">
        <time>2022-07-30T13:26:26Z</time>
      </trkpt>
      <trkpt lat="42.56636" lon="-0.55394">
        <time>2022-07-30T13:26:27Z</time>
      </trkpt>
      <trkpt lat="42.56639" lon="-0.55384">
        <time>2022-07-30T13:26:28Z</time>
      </trkpt>
      <trkpt lat="42.56642" lon="-0.55372">
        <time>2022-07-30T13:26:29Z</time>
      </trkpt>
      <trkpt lat="42.56644" lon="-0.5536">
        <time>2022-07-30T13:26:30Z</time>
      </trkpt>
      <trkpt lat="42.56644" lon="-0.55347">
        <time>2022-07-30T13:26:31Z</time>
      </trkpt>
      <trkpt lat="42.56641" lon="-0.55332">
        <time>2022-07-30T13:26:32Z</time>
      </trkpt>
      <trkpt lat="42.56637" lon="-0.5532">
        <time>2022-07-30T13:26:33Z</time>
      </trkpt>
      <trkpt lat="42.56633" lon="-0.55307">
        <time>2022-07-30T13:26:34Z</time>
      </trkpt>
      <trkpt lat="42.56628" lon="-0.55294">
        <time>2022-07-30T13:26:35Z</time>
      </trkpt>
      <trkpt lat="42.56623" lon="-0.55281">
        <time>2022-07-30T13:26:36Z</time>
      </trkpt>
      <trkpt lat="42.56617" lon="-0.55268">
        <time>2022-07-30T13:26:37Z</time>
      </trkpt>
      <trkpt lat="42.56612" lon="-0.55255">
        <time>2022-07-30T13:26:38Z</time>
      </trkpt>
      <trkpt lat="42.56606" lon="-0.55241">
        <time>2022-07-30T13:26:39Z</time>
      </trkpt>
      <trkpt lat="42.566" lon="-0.55227">
        <time>2022-07-30T13:26:40Z</time>
      </trkpt>
      <trkpt lat="42.56595" lon="-0.55212">
        <time>2022-07-30T13:26:41Z</time>
      </trkpt>
      <trkpt lat="42.56589" lon="-0.55198">
        <time>2022-07-30T13:26:42Z</time>
      </trkpt>
      <trkpt lat="42.56584" lon="-0.55185">
        <time>2022-07-30T13:26:43Z</time>
      </trkpt>
      <trkpt lat="42.56581" lon="-0.5517">
        <time>2022-07-30T13:26:44Z</time>
      </trkpt>
      <trkpt lat="42.56579" lon="-0.55155">
        <time>2022-07-30T13:26:45Z</time>
      </trkpt>
      <trkpt lat="42.56578" lon="-0.55141">
        <time>2022-07-30T13:26:46Z</time>
      </trkpt>
      <trkpt lat="42.56578" lon="-0.55128">
        <time>2022-07-30T13:26:47Z</time>
      </trkpt>
      <trkpt lat="42.56579" lon="-0.55116">
        <time>2022-07-30T13:26:48Z</time>
      </trkpt>
      <trkpt lat="42.5658" lon="-0.55107">
        <time>2022-07-30T13:26:49Z</time>
      </trkpt>
      <trkpt lat="42.56581" lon="-0.55099">
        <time>2022-07-30T13:26:50Z</time>
      </trkpt>
      <trkpt lat="42.56582" lon="-0.55091">
        <time>2022-07-30T13:26:51Z</time>
      </trkpt>
      <trkpt lat="42.56583" lon="-0.55085">
        <time>2022-07-30T13:26:52Z</time>
      </trkpt>
      <trkpt lat="42.56584" lon="-0.55079">
        <time>2022-07-30T13:26:53Z</time>
      </trkpt>
      <trkpt lat="42.56585" lon="-0.55074">
        <time>2022-07-30T13:26:54Z</time>
      </trkpt>
      <trkpt lat="42.56585" lon="-0.5507">
        <time>2022-07-30T13:26:55Z</time>
      </trkpt>
      <trkpt lat="42.56586" lon="-0.55068">
        <time>2022-07-30T13:26:56Z</time>
      </trkpt>
      <trkpt lat="42.56586" lon="-0.55066">
        <time>2022-07-30T13:26:57Z</time>
      </trkpt>
      <trkpt lat="42.56586" lon="-0.55064">
        <time>2022-07-30T13:26:58Z</time>
      </trkpt>
      <trkpt lat="42.56587" lon="-0.55062">
        <time>2022-07-30T13:27:04Z</time>
      </trkpt>
      <trkpt lat="42.56587" lon="-0.5506">
        <time>2022-07-30T13:27:05Z</time>
      </trkpt>
      <trkpt lat="42.56587" lon="-0.55054">
        <time>2022-07-30T13:27:06Z</time>
      </trkpt>
      <trkpt lat="42.56588" lon="-0.55048">
        <time>2022-07-30T13:27:07Z</time>
      </trkpt>
      <trkpt lat="42.56589" lon="-0.5504">
        <time>2022-07-30T13:27:08Z</time>
      </trkpt>
      <trkpt lat="42.5659" lon="-0.55033">
        <time>2022-07-30T13:27:09Z</time>
      </trkpt>
      <trkpt lat="42.56591" lon="-0.55025">
        <time>2022-07-30T13:27:10Z</time>
      </trkpt>
      <trkpt lat="42.56592" lon="-0.55016">
        <time>2022-07-30T13:27:11Z</time>
      </trkpt>
      <trkpt lat="42.56594" lon="-0.55009">
        <time>2022-07-30T13:27:12Z</time>
      </trkpt>
      <trkpt lat="42.56595" lon="-0.55">
        <time>2022-07-30T13:27:13Z</time>
      </trkpt>
      <trkpt lat="42.56596" lon="-0.54991">
        <time>2022-07-30T13:27:14Z</time>
      </trkpt>
      <trkpt lat="42.56597" lon="-0.54982">
        <time>2022-07-30T13:27:15Z</time>
      </trkpt>
      <trkpt lat="42.56598" lon="-0.54973">
        <time>2022-07-30T13:27:16Z</time>
      </trkpt>
      <trkpt lat="42.56599" lon="-0.54964">
        <time>2022-07-30T13:27:17Z</time>
      </trkpt>
      <trkpt lat="42.566" lon="-0.54954">
        <time>2022-07-30T13:27:18Z</time>
      </trkpt>
      <trkpt lat="42.56602" lon="-0.54945">
        <time>2022-07-30T13:27:19Z</time>
      </trkpt>
      <trkpt lat="42.56603" lon="-0.54935">
        <time>2022-07-30T13:27:20Z</time>
      </trkpt>
      <trkpt lat="42.56604" lon="-0.54925">
        <time>2022-07-30T13:27:21Z</time>
      </trkpt>
      <trkpt lat="42.56606" lon="-0.54912">
        <time>2022-07-30T13:27:22Z</time>
      </trkpt>
      <trkpt lat="42.56607" lon="-0.54899">
        <time>2022-07-30T13:27:23Z</time>
      </trkpt>
      <trkpt lat="42.56609" lon="-0.54886">
        <time>2022-07-30T13:27:24Z</time>
      </trkpt>
      <trkpt lat="42.56611" lon="-0.54873">
        <time>2022-07-30T13:27:25Z</time>
      </trkpt>
      <trkpt lat="42.56613" lon="-0.54859">
        <time>2022-07-30T13:27:26Z</time>
      </trkpt>
      <trkpt lat="42.56615" lon="-0.54846">
        <time>2022-07-30T13:27:27Z</time>
      </trkpt>
      <trkpt lat="42.56616" lon="-0.54835">
        <time>2022-07-30T13:27:28Z</time>
      </trkpt>
      <trkpt lat="42.56618" lon="-0.54822">
        <time>2022-07-30T13:27:29Z</time>
      </trkpt>
      <trkpt lat="42.5662" lon="-0.5481">
        <time>2022-07-30T13:27:30Z</time>
      </trkpt>
      <trkpt lat="42.56621" lon="-0.54799">
        <time>2022-07-30T13:27:31Z</time>
      </trkpt>
      <trkpt lat="42.56623" lon="-0.54785">
        <time>2022-07-30T13:27:32Z</time>
      </trkpt>
      <trkpt lat="42.56624" lon="-0.54772">
        <time>2022-07-30T13:27:33Z</time>
      </trkpt>
      <trkpt lat="42.56626" lon="-0.54757">
        <time>2022-07-30T13:27:34Z</time>
      </trkpt>
      <trkpt lat="42.56628" lon="-0.5474">
        <time>2022-07-30T13:27:35Z</time>
      </trkpt>
      <trkpt lat="42.56631" lon="-0.54723">
        <time>2022-07-30T13:27:36Z</time>
      </trkpt>
      <trkpt lat="42.56633" lon="-0.54706">
        <time>2022-07-30T13:27:37Z</time>
      </trkpt>
      <trkpt lat="42.56635" lon="-0.5469">
        <time>2022-07-30T13:27:38Z</time>
      </trkpt>
      <trkpt lat="42.56637" lon="-0.54673">
        <time>2022-07-30T13:27:39Z</time>
      </trkpt>
      <trkpt lat="42.56639" lon="-0.54658">
        <time>2022-07-30T13:27:40Z</time>
      </trkpt>
      <trkpt lat="42.56641" lon="-0.54642">
        <time>2022-07-30T13:27:41Z</time>
      </trkpt>
      <trkpt lat="42.56644" lon="-0.54626">
        <time>2022-07-30T13:27:42Z</time>
      </trkpt>
      <trkpt lat="42.56646" lon="-0.54611">
        <time>2022-07-30T13:27:43Z</time>
      </trkpt>
      <trkpt lat="42.56648" lon="-0.54598">
        <time>2022-07-30T13:27:44Z</time>
      </trkpt>
      <trkpt lat="42.5665" lon="-0.54583">
        <time>2022-07-30T13:27:45Z</time>
      </trkpt>
      <trkpt lat="42.56651" lon="-0.54569">
        <time>2022-07-30T13:27:46Z</time>
      </trkpt>
      <trkpt lat="42.56653" lon="-0.54556">
        <time>2022-07-30T13:27:47Z</time>
      </trkpt>
      <trkpt lat="42.56655" lon="-0.54542">
        <time>2022-07-30T13:27:48Z</time>
      </trkpt>
      <trkpt lat="42.56657" lon="-0.54529">
        <time>2022-07-30T13:27:49Z</time>
      </trkpt>
      <trkpt lat="42.56658" lon="-0.54517">
        <time>2022-07-30T13:27:50Z</time>
      </trkpt>
      <trkpt lat="42.5666" lon="-0.54507">
        <time>2022-07-30T13:27:51Z</time>
      </trkpt>
      <trkpt lat="42.56661" lon="-0.54498">
        <time>2022-07-30T13:27:52Z</time>
      </trkpt>
      <trkpt lat="42.56662" lon="-0.5449">
        <time>2022-07-30T13:27:53Z</time>
      </trkpt>
      <trkpt lat="42.56663" lon="-0.54484">
        <time>2022-07-30T13:27:54Z</time>
      </trkpt>
      <trkpt lat="42.56663" lon="-0.54478">
        <time>2022-07-30T13:27:55Z</time>
      </trkpt>
      <trkpt lat="42.56663" lon="-0.54473">
        <time>2022-07-30T13:27:56Z</time>
      </trkpt>
      <trkpt lat="42.56662" lon="-0.54466">
        <time>2022-07-30T13:27:57Z</time>
      </trkpt>
      <trkpt lat="42.5666" lon="-0.5446">
        <time>2022-07-30T13:27:58Z</time>
      </trkpt>
      <trkpt lat="42.56656" lon="-0.54452">
        <time>2022-07-30T13:27:59Z</time>
      </trkpt>
      <trkpt lat="42.56652" lon="-0.54445">
        <time>2022-07-30T13:28:00Z</time>
      </trkpt>
      <trkpt lat="42.5665" lon="-0.54436">
        <time>2022-07-30T13:28:01Z</time>
      </trkpt>
      <trkpt lat="42.56651" lon="-0.54426">
        <time>2022-07-30T13:28:02Z</time>
      </trkpt>
      <trkpt lat="42.56655" lon="-0.54417">
        <time>2022-07-30T13:28:03Z</time>
      </trkpt>
      <trkpt lat="42.5666" lon="-0.54409">
        <time>2022-07-30T13:28:04Z</time>
      </trkpt>
      <trkpt lat="42.56667" lon="-0.54398">
        <time>2022-07-30T13:28:05Z</time>
      </trkpt>
      <trkpt lat="42.56673" lon="-0.54385">
        <time>2022-07-30T13:28:06Z</time>
      </trkpt>
      <trkpt lat="42.56676" lon="-0.5437">
        <time>2022-07-30T13:28:07Z</time>
      </trkpt>
      <trkpt lat="42.56679" lon="-0.54351">
        <time>2022-07-30T13:28:08Z</time>
      </trkpt>
      <trkpt lat="42.56682" lon="-0.54331">
        <time>2022-07-30T13:28:09Z</time>
      </trkpt>
      <trkpt lat="42.56685" lon="-0.54307">
        <time>2022-07-30T13:28:10Z</time>
      </trkpt>
      <trkpt lat="42.56688" lon="-0.54283">
        <time>2022-07-30T13:28:11Z</time>
      </trkpt>
      <trkpt lat="42.56691" lon="-0.54259">
        <time>2022-07-30T13:28:12Z</time>
      </trkpt>
      <trkpt lat="42.56694" lon="-0.54234">
        <time>2022-07-30T13:28:13Z</time>
      </trkpt>
      <trkpt lat="42.56696" lon="-0.54209">
        <time>2022-07-30T13:28:14Z</time>
      </trkpt>
      <trkpt lat="42.56699" lon="-0.54183">
        <time>2022-07-30T13:28:15Z</time>
      </trkpt>
      <trkpt lat="42.56701" lon="-0.54159">
        <time>2022-07-30T13:28:16Z</time>
      </trkpt>
      <trkpt lat="42.56702" lon="-0.54132">
        <time>2022-07-30T13:28:17Z</time>
      </trkpt>
      <trkpt lat="42.56703" lon="-0.54107">
        <time>2022-07-30T13:28:18Z</time>
      </trkpt>
      <trkpt lat="42.56703" lon="-0.54083">
        <time>2022-07-30T13:28:19Z</time>
      </trkpt>
      <trkpt lat="42.56703" lon="-0.54061">
        <time>2022-07-30T13:28:20Z</time>
      </trkpt>
      <trkpt lat="42.56703" lon="-0.54039">
        <time>2022-07-30T13:28:21Z</time>
      </trkpt>
      <trkpt lat="42.56702" lon="-0.54019">
        <time>2022-07-30T13:28:22Z</time>
      </trkpt>
      <trkpt lat="42.56702" lon="-0.53999">
        <time>2022-07-30T13:28:23Z</time>
      </trkpt>
      <trkpt lat="42.56701" lon="-0.53978">
        <time>2022-07-30T13:28:24Z</time>
      </trkpt>
      <trkpt lat="42.56701" lon="-0.53959">
        <time>2022-07-30T13:28:25Z</time>
      </trkpt>
      <trkpt lat="42.567" lon="-0.53938">
        <time>2022-07-30T13:28:26Z</time>
      </trkpt>
      <trkpt lat="42.56699" lon="-0.53917">
        <time>2022-07-30T13:28:27Z</time>
      </trkpt>
      <trkpt lat="42.56699" lon="-0.53896">
        <time>2022-07-30T13:28:28Z</time>
      </trkpt>
      <trkpt lat="42.56698" lon="-0.53874">
        <time>2022-07-30T13:28:29Z</time>
      </trkpt>
      <trkpt lat="42.56697" lon="-0.53852">
        <time>2022-07-30T13:28:30Z</time>
      </trkpt>
      <trkpt lat="42.56695" lon="-0.53829">
        <time>2022-07-30T13:28:31Z</time>
      </trkpt>
      <trkpt lat="42.56693" lon="-0.53806">
        <time>2022-07-30T13:28:32Z</time>
      </trkpt>
      <trkpt lat="42.5669" lon="-0.53782">
        <time>2022-07-30T13:28:33Z</time>
      </trkpt>
      <trkpt lat="42.56687" lon="-0.53759">
        <time>2022-07-30T13:28:34Z</time>
      </trkpt>
      <trkpt lat="42.56684" lon="-0.53735">
        <time>2022-07-30T13:28:35Z</time>
      </trkpt>
      <trkpt lat="42.56681" lon="-0.53712">
        <time>2022-07-30T13:28:36Z</time>
      </trkpt>
      <trkpt lat="42.56678" lon="-0.53689">
        <time>2022-07-30T13:28:37Z</time>
      </trkpt>
      <trkpt lat="42.56675" lon="-0.53666">
        <time>2022-07-30T13:28:38Z</time>
      </trkpt>
      <trkpt lat="42.56672" lon="-0.53644">
        <time>2022-07-30T13:28:39Z</time>
      </trkpt>
      <trkpt lat="42.56668" lon="-0.53619">
        <time>2022-07-30T13:28:40Z</time>
      </trkpt>
      <trkpt lat="42.56665" lon="-0.53597">
        <time>2022-07-30T13:28:41Z</time>
      </trkpt>
      <trkpt lat="42.56661" lon="-0.53572">
        <time>2022-07-30T13:28:42Z</time>
      </trkpt>
      <trkpt lat="42.56658" lon="-0.53547">
        <time>2022-07-30T13:28:43Z</time>
      </trkpt>
      <trkpt lat="42.56654" lon="-0.5352">
        <time>2022-07-30T13:28:44Z</time>
      </trkpt>
      <trkpt lat="42.56651" lon="-0.53491">
        <time>2022-07-30T13:28:45Z</time>
      </trkpt>
      <trkpt lat="42.56647" lon="-0.53459">
        <time>2022-07-30T13:28:46Z</time>
      </trkpt>
      <trkpt lat="42.56643" lon="-0.53426">
        <time>2022-07-30T13:28:47Z</time>
      </trkpt>
      <trkpt lat="42.56638" lon="-0.53395">
        <time>2022-07-30T13:28:48Z</time>
      </trkpt>
      <trkpt lat="42.56633" lon="-0.53363">
        <time>2022-07-30T13:28:49Z</time>
      </trkpt>
      <trkpt lat="42.56629" lon="-0.53333">
        <time>2022-07-30T13:28:50Z</time>
      </trkpt>
      <trkpt lat="42.56626" lon="-0.53304">
        <time>2022-07-30T13:28:51Z</time>
      </trkpt>
      <trkpt lat="42.56624" lon="-0.53276">
        <time>2022-07-30T13:28:52Z</time>
      </trkpt>
      <trkpt lat="42.56622" lon="-0.53249">
        <time>2022-07-30T13:28:53Z</time>
      </trkpt>
      <trkpt lat="42.56622" lon="-0.53223">
        <time>2022-07-30T13:28:54Z</time>
      </trkpt>
      <trkpt lat="42.56622" lon="-0.53198">
        <time>2022-07-30T13:28:55Z</time>
      </trkpt>
      <trkpt lat="42.56623" lon="-0.53173">
        <time>2022-07-30T13:28:56Z</time>
      </trkpt>
      <trkpt lat="42.56623" lon="-0.53147">
        <time>2022-07-30T13:28:57Z</time>
      </trkpt>
      <trkpt lat="42.56624" lon="-0.53121">
        <time>2022-07-30T13:28:58Z</time>
      </trkpt>
      <trkpt lat="42.56625" lon="-0.53094">
        <time>2022-07-30T13:28:59Z</time>
      </trkpt>
      <trkpt lat="42.56626" lon="-0.53064">
        <time>2022-07-30T13:29:00Z</time>
      </trkpt>
      <trkpt lat="42.56625" lon="-0.53033">
        <time>2022-07-30T13:29:01Z</time>
      </trkpt>
      <trkpt lat="42.56623" lon="-0.52999">
        <time>2022-07-30T13:29:02Z</time>
      </trkpt>
      <trkpt lat="42.5662" lon="-0.52964">
        <time>2022-07-30T13:29:03Z</time>
      </trkpt>
      <trkpt lat="42.56616" lon="-0.52929">
        <time>2022-07-30T13:29:04Z</time>
      </trkpt>
      <trkpt lat="42.56612" lon="-0.52893">
        <time>2022-07-30T13:29:05Z</time>
      </trkpt>
      <trkpt lat="42.56608" lon="-0.52856">
        <time>2022-07-30T13:29:06Z</time>
      </trkpt>
      <trkpt lat="42.56605" lon="-0.52819">
        <time>2022-07-30T13:29:07Z</time>
      </trkpt>
      <trkpt lat="42.56601" lon="-0.52782">
        <time>2022-07-30T13:29:08Z</time>
      </trkpt>
      <trkpt lat="42.56597" lon="-0.52745">
        <time>2022-07-30T13:29:09Z</time>
      </trkpt>
      <trkpt lat="42.56594" lon="-0.52707">
        <time>2022-07-30T13:29:10Z</time>
      </trkpt>
      <trkpt lat="42.5659" lon="-0.5267">
        <time>2022-07-30T13:29:11Z</time>
      </trkpt>
      <trkpt lat="42.56586" lon="-0.52633">
        <time>2022-07-30T13:29:12Z</time>
      </trkpt>
      <trkpt lat="42.56583" lon="-0.52597">
        <time>2022-07-30T13:29:13Z</time>
      </trkpt>
      <trkpt lat="42.56579" lon="-0.5256">
        <time>2022-07-30T13:29:14Z</time>
      </trkpt>
      <trkpt lat="42.56576" lon="-0.52525">
        <time>2022-07-30T13:29:15Z</time>
      </trkpt>
      <trkpt lat="42.56573" lon="-0.52489">
        <time>2022-07-30T13:29:16Z</time>
      </trkpt>
      <trkpt lat="42.56569" lon="-0.52454">
        <time>2022-07-30T13:29:17Z</time>
      </trkpt>
      <trkpt lat="42.56566" lon="-0.52419">
        <time>2022-07-30T13:29:18Z</time>
      </trkpt>
      <trkpt lat="42.56563" lon="-0.52385">
        <time>2022-07-30T13:29:19Z</time>
      </trkpt>
      <trkpt lat="42.56559" lon="-0.52354">
        <time>2022-07-30T13:29:20Z</time>
      </trkpt>
      <trkpt lat="42.56556" lon="-0.52319">
        <time>2022-07-30T13:29:21Z</time>
      </trkpt>
      <trkpt lat="42.56553" lon="-0.52287">
        <time>2022-07-30T13:29:22Z</time>
      </trkpt>
      <trkpt lat="42.56549" lon="-0.52256">
        <time>2022-07-30T13:29:23Z</time>
      </trkpt>
      <trkpt lat="42.56546" lon="-0.52225">
        <time>2022-07-30T13:29:24Z</time>
      </trkpt>
      <trkpt lat="42.56544" lon="-0.52195">
        <time>2022-07-30T13:29:25Z</time>
      </trkpt>
      <trkpt lat="42.56542" lon="-0.52165">
        <time>2022-07-30T13:29:26Z</time>
      </trkpt>
      <trkpt lat="42.5654" lon="-0.52136">
        <time>2022-07-30T13:29:27Z</time>
      </trkpt>
      <trkpt lat="42.5654" lon="-0.52107">
        <time>2022-07-30T13:29:28Z</time>
      </trkpt>
      <trkpt lat="42.5654" lon="-0.52079">
        <time>2022-07-30T13:29:29Z</time>
      </trkpt>
      <trkpt lat="42.56542" lon="-0.52051">
        <time>2022-07-30T13:29:30Z</time>
      </trkpt>
      <trkpt lat="42.56546" lon="-0.52025">
        <time>2022-07-30T13:29:31Z</time>
      </trkpt>
      <trkpt lat="42.5655" lon="-0.52">
        <time>2022-07-30T13:29:32Z</time>
      </trkpt>
      <trkpt lat="42.56554" lon="-0.51977">
        <time>2022-07-30T13:29:33Z</time>
      </trkpt>
      <trkpt lat="42.56558" lon="-0.51954">
        <time>2022-07-30T13:29:34Z</time>
      </trkpt>
      <trkpt lat="42.56563" lon="-0.51932">
        <time>2022-07-30T13:29:35Z</time>
      </trkpt>
      <trkpt lat="42.56566" lon="-0.51913">
        <time>2022-07-30T13:29:36Z</time>
      </trkpt>
      <trkpt lat="42.56571" lon="-0.51892">
        <time>2022-07-30T13:29:37Z</time>
      </trkpt>
      <trkpt lat="42.56575" lon="-0.51872">
        <time>2022-07-30T13:29:38Z</time>
      </trkpt>
      <trkpt lat="42.56579" lon="-0.51854">
        <time>2022-07-30T13:29:39Z</time>
      </trkpt>
      <trkpt lat="42.56582" lon="-0.51836">
        <time>2022-07-30T13:29:40Z</time>
      </trkpt>
      <trkpt lat="42.56586" lon="-0.5182">
        <time>2022-07-30T13:29:41Z</time>
      </trkpt>
      <trkpt lat="42.56589" lon="-0.51804">
        <time>2022-07-30T13:29:42Z</time>
      </trkpt>
      <trkpt lat="42.56592" lon="-0.51791">
        <time>2022-07-30T13:29:43Z</time>
      </trkpt>
      <trkpt lat="42.56594" lon="-0.51778">
        <time>2022-07-30T13:29:44Z</time>
      </trkpt>
      <trkpt lat="42.56594" lon="-0.51766">
        <time>2022-07-30T13:29:45Z</time>
      </trkpt>
      <trkpt lat="42.56592" lon="-0.51754">
        <time>2022-07-30T13:29:46Z</time>
      </trkpt>
      <trkpt lat="42.5659" lon="-0.51741">
        <time>2022-07-30T13:29:47Z</time>
      </trkpt>
      <trkpt lat="42.56588" lon="-0.51727">
        <time>2022-07-30T13:29:48Z</time>
      </trkpt>
      <trkpt lat="42.56586" lon="-0.51712">
        <time>2022-07-30T13:29:49Z</time>
      </trkpt>
      <trkpt lat="42.56584" lon="-0.51697">
        <time>2022-07-30T13:29:50Z</time>
      </trkpt>
      <trkpt lat="42.5658" lon="-0.51681">
        <time>2022-07-30T13:29:51Z</time>
      </trkpt>
      <trkpt lat="42.56574" lon="-0.51666">
        <time>2022-07-30T13:29:52Z</time>
      </trkpt>
      <trkpt lat="42.56567" lon="-0.51646">
        <time>2022-07-30T13:29:53Z</time>
      </trkpt>
      <trkpt lat="42.56561" lon="-0.51627">
        <time>2022-07-30T13:29:54Z</time>
      </trkpt>
      <trkpt lat="42.56557" lon="-0.51606">
        <time>2022-07-30T13:29:55Z</time>
      </trkpt>
      <trkpt lat="42.56555" lon="-0.51586">
        <time>2022-07-30T13:29:56Z</time>
      </trkpt>
      <trkpt lat="42.56557" lon="-0.51565">
        <time>2022-07-30T13:29:57Z</time>
      </trkpt>
      <trkpt lat="42.56561" lon="-0.51544">
        <time>2022-07-30T13:29:58Z</time>
      </trkpt>
      <trkpt lat="42.56567" lon="-0.51522">
        <time>2022-07-30T13:29:59Z</time>
      </trkpt>
      <trkpt lat="42.56575" lon="-0.51499">
        <time>2022-07-30T13:30:00Z</time>
      </trkpt>
      <trkpt lat="42.56582" lon="-0.51475">
        <time>2022-07-30T13:30:01Z</time>
      </trkpt>
      <trkpt lat="42.56589" lon="-0.51449">
        <time>2022-07-30T13:30:02Z</time>
      </trkpt>
      <trkpt lat="42.56594" lon="-0.51423">
        <time>2022-07-30T13:30:03Z</time>
      </trkpt>
      <trkpt lat="42.56598" lon="-0.51395">
        <time>2022-07-30T13:30:04Z</time>
      </trkpt>
      <trkpt lat="42.566" lon="-0.51366">
        <time>2022-07-30T13:30:05Z</time>
      </trkpt>
      <trkpt lat="42.566" lon="-0.51337">
        <time>2022-07-30T13:30:06Z</time>
      </trkpt>
      <trkpt lat="42.56598" lon="-0.51306">
        <time>2022-07-30T13:30:07Z</time>
      </trkpt>
      <trkpt lat="42.56596" lon="-0.51277">
        <time>2022-07-30T13:30:08Z</time>
      </trkpt>
      <trkpt lat="42.56593" lon="-0.51243">
        <time>2022-07-30T13:30:09Z</time>
      </trkpt>
      <trkpt lat="42.5659" lon="-0.51209">
        <time>2022-07-30T13:30:10Z</time>
      </trkpt>
      <trkpt lat="42.56588" lon="-0.51176">
        <time>2022-07-30T13:30:11Z</time>
      </trkpt>
      <trkpt lat="42.56586" lon="-0.51143">
        <time>2022-07-30T13:30:12Z</time>
      </trkpt>
      <trkpt lat="42.56583" lon="-0.5111">
        <time>2022-07-30T13:30:13Z</time>
      </trkpt>
      <trkpt lat="42.5658" lon="-0.51076">
        <time>2022-07-30T13:30:14Z</time>
      </trkpt>
      <trkpt lat="42.56576" lon="-0.51042">
        <time>2022-07-30T13:30:15Z</time>
      </trkpt>
      <trkpt lat="42.56572" lon="-0.51007">
        <time>2022-07-30T13:30:16Z</time>
      </trkpt>
      <trkpt lat="42.56566" lon="-0.50973">
        <time>2022-07-30T13:30:17Z</time>
      </trkpt>
      <trkpt lat="42.5656" lon="-0.50938">
        <time>2022-07-30T13:30:18Z</time>
      </trkpt>
      <trkpt lat="42.56552" lon="-0.50902">
        <time>2022-07-30T13:30:19Z</time>
      </trkpt>
      <trkpt lat="42.56543" lon="-0.50867">
        <time>2022-07-30T13:30:20Z</time>
      </trkpt>
      <trkpt lat="42.56533" lon="-0.50831">
        <time>2022-07-30T13:30:21Z</time>
      </trkpt>
      <trkpt lat="42.56522" lon="-0.50795">
        <time>2022-07-30T13:30:22Z</time>
      </trkpt>
      <trkpt lat="42.5651" lon="-0.50758">
        <time>2022-07-30T13:30:23Z</time>
      </trkpt>
      <trkpt lat="42.56498" lon="-0.50724">
        <time>2022-07-30T13:30:24Z</time>
      </trkpt>
      <trkpt lat="42.56484" lon="-0.50686">
        <time>2022-07-30T13:30:25Z</time>
      </trkpt>
      <trkpt lat="42.56469" lon="-0.50651">
        <time>2022-07-30T13:30:26Z</time>
      </trkpt>
      <trkpt lat="42.56453" lon="-0.50618">
        <time>2022-07-30T13:30:27Z</time>
      </trkpt>
      <trkpt lat="42.56435" lon="-0.50582">
        <time>2022-07-30T13:30:28Z</time>
      </trkpt>
      <trkpt lat="42.56416" lon="-0.50548">
        <time>2022-07-30T13:30:29Z</time>
      </trkpt>
      <trkpt lat="42.56397" lon="-0.50515">
        <time>2022-07-30T13:30:30Z</time>
      </trkpt>
      <trkpt lat="42.56376" lon="-0.50483">
        <time>2022-07-30T13:30:31Z</time>
      </trkpt>
      <trkpt lat="42.56354" lon="-0.50452">
        <time>2022-07-30T13:30:32Z</time>
      </trkpt>
      <trkpt lat="42.56332" lon="-0.50423">
        <time>2022-07-30T13:30:33Z</time>
      </trkpt>
      <trkpt lat="42.56309" lon="-0.50394">
        <time>2022-07-30T13:30:34Z</time>
      </trkpt>
      <trkpt lat="42.56288" lon="-0.50367">
        <time>2022-07-30T13:30:35Z</time>
      </trkpt>
      <trkpt lat="42.56263" lon="-0.50338">
        <time>2022-07-30T13:30:36Z</time>
      </trkpt>
      <trkpt lat="42.5624" lon="-0.5031">
        <time>2022-07-30T13:30:37Z</time>
      </trkpt>
      <trkpt lat="42.56218" lon="-0.50283">
        <time>2022-07-30T13:30:38Z</time>
      </trkpt>
      <trkpt lat="42.56196" lon="-0.50255">
        <time>2022-07-30T13:30:39Z</time>
      </trkpt>
      <trkpt lat="42.56176" lon="-0.50228">
        <time>2022-07-30T13:30:40Z</time>
      </trkpt>
      <trkpt lat="42.56154" lon="-0.50196">
        <time>2022-07-30T13:30:41Z</time>
      </trkpt>
      <trkpt lat="42.56134" lon="-0.50166">
        <time>2022-07-30T13:30:42Z</time>
      </trkpt>
      <trkpt lat="42.56114" lon="-0.50134">
        <time>2022-07-30T13:30:43Z</time>
      </trkpt>
      <trkpt lat="42.56096" lon="-0.50101">
        <time>2022-07-30T13:30:44Z</time>
      </trkpt>
      <trkpt lat="42.56078" lon="-0.50068">
        <time>2022-07-30T13:30:45Z</time>
      </trkpt>
      <trkpt lat="42.56061" lon="-0.50033">
        <time>2022-07-30T13:30:46Z</time>
      </trkpt>
      <trkpt lat="42.56044" lon="-0.49998">
        <time>2022-07-30T13:30:47Z</time>
      </trkpt>
      <trkpt lat="42.56029" lon="-0.49962">
        <time>2022-07-30T13:30:48Z</time>
      </trkpt>
      <trkpt lat="42.56014" lon="-0.49925">
        <time>2022-07-30T13:30:49Z</time>
      </trkpt>
      <trkpt lat="42.56" lon="-0.49887">
        <time>2022-07-30T13:30:50Z</time>
      </trkpt>
      <trkpt lat="42.55988" lon="-0.49848">
        <time>2022-07-30T13:30:51Z</time>
      </trkpt>
      <trkpt lat="42.55976" lon="-0.49808">
        <time>2022-07-30T13:30:52Z</time>
      </trkpt>
      <trkpt lat="42.55965" lon="-0.49768">
        <time>2022-07-30T13:30:53Z</time>
      </trkpt>
      <trkpt lat="42.55955" lon="-0.49727">
        <time>2022-07-30T13:30:54Z</time>
      </trkpt>
      <trkpt lat="42.55946" lon="-0.49685">
        <time>2022-07-30T13:30:55Z</time>
      </trkpt>
      <trkpt lat="42.55938" lon="-0.49644">
        <time>2022-07-30T13:30:56Z</time>
      </trkpt>
      <trkpt lat="42.55932" lon="-0.49601">
        <time>2022-07-30T13:30:57Z</time>
      </trkpt>
      <trkpt lat="42.55926" lon="-0.49559">
        <time>2022-07-30T13:30:58Z</time>
      </trkpt>
      <trkpt lat="42.55922" lon="-0.49517">
        <time>2022-07-30T13:30:59Z</time>
      </trkpt>
      <trkpt lat="42.55918" lon="-0.49475">
        <time>2022-07-30T13:31:00Z</time>
      </trkpt>
      <trkpt lat="42.55915" lon="-0.49433">
        <time>2022-07-30T13:31:01Z</time>
      </trkpt>
      <trkpt lat="42.55913" lon="-0.49392">
        <time>2022-07-30T13:31:02Z</time>
      </trkpt>
      <trkpt lat="42.55911" lon="-0.49351">
        <time>2022-07-30T13:31:03Z</time>
      </trkpt>
      <trkpt lat="42.55909" lon="-0.49312">
        <time>2022-07-30T13:31:04Z</time>
      </trkpt>
      <trkpt lat="42.55907" lon="-0.49272">
        <time>2022-07-30T13:31:05Z</time>
      </trkpt>
      <trkpt lat="42.55904" lon="-0.49234">
        <time>2022-07-30T13:31:06Z</time>
      </trkpt>
      <trkpt lat="42.55901" lon="-0.49195">
        <time>2022-07-30T13:31:07Z</time>
      </trkpt>
      <trkpt lat="42.55898" lon="-0.49157">
        <time>2022-07-30T13:31:08Z</time>
      </trkpt>
      <trkpt lat="42.55894" lon="-0.49118">
        <time>2022-07-30T13:31:09Z</time>
      </trkpt>
      <trkpt lat="42.55889" lon="-0.49079">
        <time>2022-07-30T13:31:10Z</time>
      </trkpt>
      <trkpt lat="42.55884" lon="-0.4904">
        <time>2022-07-30T13:31:11Z</time>
      </trkpt>
      <trkpt lat="42.55877" lon="-0.49001">
        <time>2022-07-30T13:31:12Z</time>
      </trkpt>
      <trkpt lat="42.5587" lon="-0.48961">
        <time>2022-07-30T13:31:13Z</time>
      </trkpt>
      <trkpt lat="42.55861" lon="-0.48921">
        <time>2022-07-30T13:31:14Z</time>
      </trkpt>
      <trkpt lat="42.55851" lon="-0.4888">
        <time>2022-07-30T13:31:15Z</time>
      </trkpt>
      <trkpt lat="42.55841" lon="-0.48838">
        <time>2022-07-30T13:31:16Z</time>
      </trkpt>
      <trkpt lat="42.55829" lon="-0.48797">
        <time>2022-07-30T13:31:17Z</time>
      </trkpt>
      <trkpt lat="42.55816" lon="-0.48755">
        <time>2022-07-30T13:31:18Z</time>
      </trkpt>
      <trkpt lat="42.55802" lon="-0.48714">
        <time>2022-07-30T13:31:19Z</time>
      </trkpt>
      <trkpt lat="42.55787" lon="-0.48673">
        <time>2022-07-30T13:31:20Z</time>
      </trkpt>
      <trkpt lat="42.55771" lon="-0.48632">
        <time>2022-07-30T13:31:21Z</time>
      </trkpt>
      <trkpt lat="42.55756" lon="-0.48592">
        <time>2022-07-30T13:31:22Z</time>
      </trkpt>
      <trkpt lat="42.5574" lon="-0.48552">
        <time>2022-07-30T13:31:23Z</time>
      </trkpt>
      <trkpt lat="42.55724" lon="-0.48511">
        <time>2022-07-30T13:31:24Z</time>
      </trkpt>
      <trkpt lat="42.55709" lon="-0.48471">
        <time>2022-07-30T13:31:25Z</time>
      </trkpt>
      <trkpt lat="42.55694" lon="-0.4843">
        <time>2022-07-30T13:31:26Z</time>
      </trkpt>
      <trkpt lat="42.5568" lon="-0.48389">
        <time>2022-07-30T13:31:27Z</time>
      </trkpt>
      <trkpt lat="42.55667" lon="-0.48351">
        <time>2022-07-30T13:31:28Z</time>
      </trkpt>
      <trkpt lat="42.55654" lon="-0.48306">
        <time>2022-07-30T13:31:29Z</time>
      </trkpt>
      <trkpt lat="42.55643" lon="-0.48264">
        <time>2022-07-30T13:31:30Z</time>
      </trkpt>
      <trkpt lat="42.55633" lon="-0.48221">
        <time>2022-07-30T13:31:31Z</time>
      </trkpt>
      <trkpt lat="42.55623" lon="-0.48177">
        <time>2022-07-30T13:31:32Z</time>
      </trkpt>
      <trkpt lat="42.55615" lon="-0.48133">
        <time>2022-07-30T13:31:33Z</time>
      </trkpt>
      <trkpt lat="42.55608" lon="-0.48088">
        <time>2022-07-30T13:31:34Z</time>
      </trkpt>
      <trkpt lat="42.55601" lon="-0.48043">
        <time>2022-07-30T13:31:35Z</time>
      </trkpt>
      <trkpt lat="42.55595" lon="-0.47998">
        <time>2022-07-30T13:31:36Z</time>
      </trkpt>
      <trkpt lat="42.55591" lon="-0.47953">
        <time>2022-07-30T13:31:37Z</time>
      </trkpt>
      <trkpt lat="42.55588" lon="-0.47908">
        <time>2022-07-30T13:31:38Z</time>
      </trkpt>
      <trkpt lat="42.55585" lon="-0.47862">
        <time>2022-07-30T13:31:39Z</time>
      </trkpt>
      <trkpt lat="42.55584" lon="-0.47817">
        <time>2022-07-30T13:31:40Z</time>
      </trkpt>
      <trkpt lat="42.55583" lon="-0.47772">
        <time>2022-07-30T13:31:41Z</time>
      </trkpt>
      <trkpt lat="42.55582" lon="-0.47726">
        <time>2022-07-30T13:31:42Z</time>
      </trkpt>
      <trkpt lat="42.55582" lon="-0.47681">
        <time>2022-07-30T13:31:43Z</time>
      </trkpt>
      <trkpt lat="42.55582" lon="-0.47637">
        <time>2022-07-30T13:31:44Z</time>
      </trkpt>
      <trkpt lat="42.55582" lon="-0.47588">
        <time>2022-07-30T13:31:45Z</time>
      </trkpt>
      <trkpt lat="42.55581" lon="-0.47542">
        <time>2022-07-30T13:31:46Z</time>
      </trkpt>
      <trkpt lat="42.55581" lon="-0.47495">
        <time>2022-07-30T13:31:47Z</time>
      </trkpt>
      <trkpt lat="42.55581" lon="-0.47449">
        <time>2022-07-30T13:31:48Z</time>
      </trkpt>
      <trkpt lat="42.55581" lon="-0.47402">
        <time>2022-07-30T13:31:49Z</time>
      </trkpt>
      <trkpt lat="42.55581" lon="-0.47356">
        <time>2022-07-30T13:31:50Z</time>
      </trkpt>
      <trkpt lat="42.55581" lon="-0.4731">
        <time>2022-07-30T13:31:51Z</time>
      </trkpt>
      <trkpt lat="42.5558" lon="-0.47261">
        <time>2022-07-30T13:31:52Z</time>
      </trkpt>
      <trkpt lat="42.5558" lon="-0.47213">
        <time>2022-07-30T13:31:53Z</time>
      </trkpt>
      <trkpt lat="42.5558" lon="-0.4717">
        <time>2022-07-30T13:31:54Z</time>
      </trkpt>
      <trkpt lat="42.5558" lon="-0.47124">
        <time>2022-07-30T13:31:55Z</time>
      </trkpt>
      <trkpt lat="42.5558" lon="-0.47078">
        <time>2022-07-30T13:31:56Z</time>
      </trkpt>
      <trkpt lat="42.5558" lon="-0.47034">
        <time>2022-07-30T13:31:57Z</time>
      </trkpt>
      <trkpt lat="42.55579" lon="-0.46989">
        <time>2022-07-30T13:31:58Z</time>
      </trkpt>
      <trkpt lat="42.55579" lon="-0.46945">
        <time>2022-07-30T13:31:59Z</time>
      </trkpt>
      <trkpt lat="42.55579" lon="-0.46903">
        <time>2022-07-30T13:32:00Z</time>
      </trkpt>
      <trkpt lat="42.55579" lon="-0.46856">
        <time>2022-07-30T13:32:01Z</time>
      </trkpt>
      <trkpt lat="42.55579" lon="-0.46812">
        <time>2022-07-30T13:32:02Z</time>
      </trkpt>
      <trkpt lat="42.55578" lon="-0.46768">
        <time>2022-07-30T13:32:03Z</time>
      </trkpt>
      <trkpt lat="42.55578" lon="-0.46723">
        <time>2022-07-30T13:32:04Z</time>
      </trkpt>
      <trkpt lat="42.55578" lon="-0.46679">
        <time>2022-07-30T13:32:05Z</time>
      </trkpt>
      <trkpt lat="42.55577" lon="-0.46634">
        <time>2022-07-30T13:32:06Z</time>
      </trkpt>
      <trkpt lat="42.55577" lon="-0.46589">
        <time>2022-07-30T13:32:07Z</time>
      </trkpt>
      <trkpt lat="42.55576" lon="-0.46544">
        <time>2022-07-30T13:32:08Z</time>
      </trkpt>
      <trkpt lat="42.55575" lon="-0.46499">
        <time>2022-07-30T13:32:09Z</time>
      </trkpt>
      <trkpt lat="42.55573" lon="-0.46454">
        <time>2022-07-30T13:32:10Z</time>
      </trkpt>
      <trkpt lat="42.55571" lon="-0.46408">
        <time>2022-07-30T13:32:11Z</time>
      </trkpt>
      <trkpt lat="42.55568" lon="-0.46364">
        <time>2022-07-30T13:32:12Z</time>
      </trkpt>
      <trkpt lat="42.55564" lon="-0.46319">
        <time>2022-07-30T13:32:13Z</time>
      </trkpt>
      <trkpt lat="42.55559" lon="-0.46274">
        <time>2022-07-30T13:32:14Z</time>
      </trkpt>
      <trkpt lat="42.55554" lon="-0.4623">
        <time>2022-07-30T13:32:15Z</time>
      </trkpt>
      <trkpt lat="42.55549" lon="-0.46188">
        <time>2022-07-30T13:32:16Z</time>
      </trkpt>
      <trkpt lat="42.55542" lon="-0.46141">
        <time>2022-07-30T13:32:17Z</time>
      </trkpt>
      <trkpt lat="42.55535" lon="-0.46097">
        <time>2022-07-30T13:32:18Z</time>
      </trkpt>
      <trkpt lat="42.55527" lon="-0.46053">
        <time>2022-07-30T13:32:19Z</time>
      </trkpt>
      <trkpt lat="42.55519" lon="-0.4601">
        <time>2022-07-30T13:32:20Z</time>
      </trkpt>
      <trkpt lat="42.5551" lon="-0.45966">
        <time>2022-07-30T13:32:21Z</time>
      </trkpt>
      <trkpt lat="42.55501" lon="-0.45923">
        <time>2022-07-30T13:32:22Z</time>
      </trkpt>
      <trkpt lat="42.55492" lon="-0.4588">
        <time>2022-07-30T13:32:23Z</time>
      </trkpt>
      <trkpt lat="42.55482" lon="-0.45836">
        <time>2022-07-30T13:32:24Z</time>
      </trkpt>
      <trkpt lat="42.55473" lon="-0.45793">
        <time>2022-07-30T13:32:25Z</time>
      </trkpt>
      <trkpt lat="42.55464" lon="-0.4575">
        <time>2022-07-30T13:32:26Z</time>
      </trkpt>
      <trkpt lat="42.55454" lon="-0.45706">
        <time>2022-07-30T13:32:27Z</time>
      </trkpt>
      <trkpt lat="42.55445" lon="-0.45663">
        <time>2022-07-30T13:32:28Z</time>
      </trkpt>
      <trkpt lat="42.55435" lon="-0.4562">
        <time>2022-07-30T13:32:29Z</time>
      </trkpt>
      <trkpt lat="42.55426" lon="-0.45577">
        <time>2022-07-30T13:32:30Z</time>
      </trkpt>
      <trkpt lat="42.55416" lon="-0.45533">
        <time>2022-07-30T13:32:31Z</time>
      </trkpt>
      <trkpt lat="42.55408" lon="-0.45493">
        <time>2022-07-30T13:32:32Z</time>
      </trkpt>
      <trkpt lat="42.55398" lon="-0.45447">
        <time>2022-07-30T13:32:33Z</time>
      </trkpt>
      <trkpt lat="42.55388" lon="-0.45404">
        <time>2022-07-30T13:32:34Z</time>
      </trkpt>
      <trkpt lat="42.5538" lon="-0.45363">
        <time>2022-07-30T13:32:35Z</time>
      </trkpt>
      <trkpt lat="42.5537" lon="-0.45318">
        <time>2022-07-30T13:32:36Z</time>
      </trkpt>
      <trkpt lat="42.5536" lon="-0.45274">
        <time>2022-07-30T13:32:37Z</time>
      </trkpt>
      <trkpt lat="42.55351" lon="-0.45231">
        <time>2022-07-30T13:32:38Z</time>
      </trkpt>
      <trkpt lat="42.55341" lon="-0.45188">
        <time>2022-07-30T13:32:39Z</time>
      </trkpt>
      <trkpt lat="42.55331" lon="-0.45145">
        <time>2022-07-30T13:32:40Z</time>
      </trkpt>
      <trkpt lat="42.55322" lon="-0.45102">
        <time>2022-07-30T13:32:41Z</time>
      </trkpt>
      <trkpt lat="42.55312" lon="-0.45059">
        <time>2022-07-30T13:32:42Z</time>
      </trkpt>
      <trkpt lat="42.55303" lon="-0.45016">
        <time>2022-07-30T13:32:43Z</time>
      </trkpt>
      <trkpt lat="42.55294" lon="-0.44973">
        <time>2022-07-30T13:32:44Z</time>
      </trkpt>
      <trkpt lat="42.55284" lon="-0.4493">
        <time>2022-07-30T13:32:45Z</time>
      </trkpt>
      <trkpt lat="42.55275" lon="-0.44887">
        <time>2022-07-30T13:32:46Z</time>
      </trkpt>
      <trkpt lat="42.55266" lon="-0.44843">
        <time>2022-07-30T13:32:47Z</time>
      </trkpt>
      <trkpt lat="42.55257" lon="-0.44803">
        <time>2022-07-30T13:32:48Z</time>
      </trkpt>
      <trkpt lat="42.55247" lon="-0.44757">
        <time>2022-07-30T13:32:49Z</time>
      </trkpt>
      <trkpt lat="42.55238" lon="-0.44714">
        <time>2022-07-30T13:32:50Z</time>
      </trkpt>
      <trkpt lat="42.5523" lon="-0.44673">
        <time>2022-07-30T13:32:51Z</time>
      </trkpt>
      <trkpt lat="42.5522" lon="-0.44627">
        <time>2022-07-30T13:32:52Z</time>
      </trkpt>
      <trkpt lat="42.55211" lon="-0.44584">
        <time>2022-07-30T13:32:53Z</time>
      </trkpt>
      <trkpt lat="42.55202" lon="-0.44541">
        <time>2022-07-30T13:32:54Z</time>
      </trkpt>
      <trkpt lat="42.55193" lon="-0.44497">
        <time>2022-07-30T13:32:55Z</time>
      </trkpt>
      <trkpt lat="42.55183" lon="-0.44454">
        <time>2022-07-30T13:32:56Z</time>
      </trkpt>
      <trkpt lat="42.55173" lon="-0.44411">
        <time>2022-07-30T13:32:57Z</time>
      </trkpt>
      <trkpt lat="42.55164" lon="-0.44367">
        <time>2022-07-30T13:32:58Z</time>
      </trkpt>
      <trkpt lat="42.55154" lon="-0.44324">
        <time>2022-07-30T13:32:59Z</time>
      </trkpt>
      <trkpt lat="42.55144" lon="-0.44281">
        <time>2022-07-30T13:33:00Z</time>
      </trkpt>
      <trkpt lat="42.55134" lon="-0.44238">
        <time>2022-07-30T13:33:01Z</time>
      </trkpt>
      <trkpt lat="42.55124" lon="-0.44195">
        <time>2022-07-30T13:33:02Z</time>
      </trkpt>
      <trkpt lat="42.55115" lon="-0.44151">
        <time>2022-07-30T13:33:03Z</time>
      </trkpt>
      <trkpt lat="42.55107" lon="-0.4411">
        <time>2022-07-30T13:33:04Z</time>
      </trkpt>
      <trkpt lat="42.55098" lon="-0.44064">
        <time>2022-07-30T13:33:05Z</time>
      </trkpt>
      <trkpt lat="42.5509" lon="-0.4402">
        <time>2022-07-30T13:33:06Z</time>
      </trkpt>
      <trkpt lat="42.55082" lon="-0.43977">
        <time>2022-07-30T13:33:07Z</time>
      </trkpt>
      <trkpt lat="42.55075" lon="-0.43933">
        <time>2022-07-30T13:33:08Z</time>
      </trkpt>
      <trkpt lat="42.55069" lon="-0.43888">
        <time>2022-07-30T13:33:09Z</time>
      </trkpt>
      <trkpt lat="42.55063" lon="-0.43844">
        <time>2022-07-30T13:33:10Z</time>
      </trkpt>
      <trkpt lat="42.55058" lon="-0.43799">
        <time>2022-07-30T13:33:11Z</time>
      </trkpt>
      <trkpt lat="42.55054" lon="-0.43755">
        <time>2022-07-30T13:33:12Z</time>
      </trkpt>
      <trkpt lat="42.5505" lon="-0.4371">
        <time>2022-07-30T13:33:13Z</time>
      </trkpt>
      <trkpt lat="42.55046" lon="-0.43665">
        <time>2022-07-30T13:33:14Z</time>
      </trkpt>
      <trkpt lat="42.55043" lon="-0.4362">
        <time>2022-07-30T13:33:15Z</time>
      </trkpt>
      <trkpt lat="42.55041" lon="-0.43575">
        <time>2022-07-30T13:33:16Z</time>
      </trkpt>
      <trkpt lat="42.55039" lon="-0.4353">
        <time>2022-07-30T13:33:17Z</time>
      </trkpt>
      <trkpt lat="42.55037" lon="-0.43486">
        <time>2022-07-30T13:33:18Z</time>
      </trkpt>
      <trkpt lat="42.55036" lon="-0.43441">
        <time>2022-07-30T13:33:19Z</time>
      </trkpt>
      <trkpt lat="42.55034" lon="-0.43397">
        <time>2022-07-30T13:33:20Z</time>
      </trkpt>
      <trkpt lat="42.55032" lon="-0.43352">
        <time>2022-07-30T13:33:21Z</time>
      </trkpt>
      <trkpt lat="42.55029" lon="-0.43307">
        <time>2022-07-30T13:33:22Z</time>
      </trkpt>
      <trkpt lat="42.55027" lon="-0.43262">
        <time>2022-07-30T13:33:23Z</time>
      </trkpt>
      <trkpt lat="42.55023" lon="-0.43217">
        <time>2022-07-30T13:33:24Z</time>
      </trkpt>
      <trkpt lat="42.55019" lon="-0.43172">
        <time>2022-07-30T13:33:25Z</time>
      </trkpt>
      <trkpt lat="42.55014" lon="-0.43128">
        <time>2022-07-30T13:33:26Z</time>
      </trkpt>
      <trkpt lat="42.55009" lon="-0.43083">
        <time>2022-07-30T13:33:27Z</time>
      </trkpt>
      <trkpt lat="42.55003" lon="-0.43038">
        <time>2022-07-30T13:33:28Z</time>
      </trkpt>
      <trkpt lat="42.54998" lon="-0.42993">
        <time>2022-07-30T13:33:29Z</time>
      </trkpt>
      <trkpt lat="42.54991" lon="-0.42949">
        <time>2022-07-30T13:33:30Z</time>
      </trkpt>
      <trkpt lat="42.54984" lon="-0.42906">
        <time>2022-07-30T13:33:31Z</time>
      </trkpt>
      <trkpt lat="42.54977" lon="-0.42862">
        <time>2022-07-30T13:33:32Z</time>
      </trkpt>
      <trkpt lat="42.54969" lon="-0.42818">
        <time>2022-07-30T13:33:33Z</time>
      </trkpt>
      <trkpt lat="42.5496" lon="-0.42775">
        <time>2022-07-30T13:33:34Z</time>
      </trkpt>
      <trkpt lat="42.5495" lon="-0.42732">
        <time>2022-07-30T13:33:35Z</time>
      </trkpt>
      <trkpt lat="42.54941" lon="-0.42692">
        <time>2022-07-30T13:33:36Z</time>
      </trkpt>
      <trkpt lat="42.5493" lon="-0.42647">
        <time>2022-07-30T13:33:37Z</time>
      </trkpt>
      <trkpt lat="42.54918" lon="-0.42604">
        <time>2022-07-30T13:33:38Z</time>
      </trkpt>
      <trkpt lat="42.54907" lon="-0.42562">
        <time>2022-07-30T13:33:39Z</time>
      </trkpt>
      <trkpt lat="42.54894" lon="-0.4252">
        <time>2022-07-30T13:33:40Z</time>
      </trkpt>
      <trkpt lat="42.54882" lon="-0.42478">
        <time>2022-07-30T13:33:41Z</time>
      </trkpt>
      <trkpt lat="42.54869" lon="-0.42436">
        <time>2022-07-30T13:33:42Z</time>
      </trkpt>
      <trkpt lat="42.54855" lon="-0.42395">
        <time>2022-07-30T13:33:43Z</time>
      </trkpt>
      <trkpt lat="42.54842" lon="-0.42354">
        <time>2022-07-30T13:33:44Z</time>
      </trkpt>
      <trkpt lat="42.54829" lon="-0.42313">
        <time>2022-07-30T13:33:45Z</time>
      </trkpt>
      <trkpt lat="42.54816" lon="-0.42271">
        <time>2022-07-30T13:33:46Z</time>
      </trkpt>
      <trkpt lat="42.54803" lon="-0.4223">
        <time>2022-07-30T13:33:47Z</time>
      </trkpt>
      <trkpt lat="42.54791" lon="-0.42188">
        <time>2022-07-30T13:33:48Z</time>
      </trkpt>
      <trkpt lat="42.54779" lon="-0.42147">
        <time>2022-07-30T13:33:49Z</time>
      </trkpt>
      <trkpt lat="42.54767" lon="-0.42105">
        <time>2022-07-30T13:33:50Z</time>
      </trkpt>
      <trkpt lat="42.54755" lon="-0.42063">
        <time>2022-07-30T13:33:51Z</time>
      </trkpt>
      <trkpt lat="42.54744" lon="-0.42024">
        <time>2022-07-30T13:33:52Z</time>
      </trkpt>
      <trkpt lat="42.54732" lon="-0.41979">
        <time>2022-07-30T13:33:53Z</time>
      </trkpt>
      <trkpt lat="42.5472" lon="-0.41937">
        <time>2022-07-30T13:33:54Z</time>
      </trkpt>
      <trkpt lat="42.54709" lon="-0.41895">
        <time>2022-07-30T13:33:55Z</time>
      </trkpt>
      <trkpt lat="42.54698" lon="-0.41852">
        <time>2022-07-30T13:33:56Z</time>
      </trkpt>
      <trkpt lat="42.54688" lon="-0.4181">
        <time>2022-07-30T13:33:57Z</time>
      </trkpt>
      <trkpt lat="42.54678" lon="-0.41766">
        <time>2022-07-30T13:33:58Z</time>
      </trkpt>
      <trkpt lat="42.54668" lon="-0.41724">
        <time>2022-07-30T13:33:59Z</time>
      </trkpt>
      <trkpt lat="42.54658" lon="-0.41681">
        <time>2022-07-30T13:34:00Z</time>
      </trkpt>
      <trkpt lat="42.54649" lon="-0.41638">
        <time>2022-07-30T13:34:01Z</time>
      </trkpt>
      <trkpt lat="42.54639" lon="-0.41595">
        <time>2022-07-30T13:34:02Z</time>
      </trkpt>
      <trkpt lat="42.5463" lon="-0.41551">
        <time>2022-07-30T13:34:03Z</time>
      </trkpt>
      <trkpt lat="42.54621" lon="-0.41508">
        <time>2022-07-30T13:34:04Z</time>
      </trkpt>
      <trkpt lat="42.54611" lon="-0.41465">
        <time>2022-07-30T13:34:05Z</time>
      </trkpt>
      <trkpt lat="42.54602" lon="-0.41422">
        <time>2022-07-30T13:34:06Z</time>
      </trkpt>
      <trkpt lat="42.54593" lon="-0.41378">
        <time>2022-07-30T13:34:07Z</time>
      </trkpt>
      <trkpt lat="42.54584" lon="-0.41338">
        <time>2022-07-30T13:34:08Z</time>
      </trkpt>
      <trkpt lat="42.54574" lon="-0.41292">
        <time>2022-07-30T13:34:09Z</time>
      </trkpt>
      <trkpt lat="42.54565" lon="-0.41249">
        <time>2022-07-30T13:34:10Z</time>
      </trkpt>
      <trkpt lat="42.54555" lon="-0.41205">
        <time>2022-07-30T13:34:11Z</time>
      </trkpt>
      <trkpt lat="42.54546" lon="-0.41162">
        <time>2022-07-30T13:34:12Z</time>
      </trkpt>
      <trkpt lat="42.54536" lon="-0.4112">
        <time>2022-07-30T13:34:13Z</time>
      </trkpt>
      <trkpt lat="42.54525" lon="-0.41076">
        <time>2022-07-30T13:34:14Z</time>
      </trkpt>
      <trkpt lat="42.54514" lon="-0.41034">
        <time>2022-07-30T13:34:15Z</time>
      </trkpt>
      <trkpt lat="42.54502" lon="-0.40992">
        <time>2022-07-30T13:34:16Z</time>
      </trkpt>
      <trkpt lat="42.5449" lon="-0.40949">
        <time>2022-07-30T13:34:17Z</time>
      </trkpt>
      <trkpt lat="42.54476" lon="-0.40906">
        <time>2022-07-30T13:34:18Z</time>
      </trkpt>
      <trkpt lat="42.54462" lon="-0.40861">
        <time>2022-07-30T13:34:19Z</time>
      </trkpt>
      <trkpt lat="42.54447" lon="-0.40816">
        <time>2022-07-30T13:34:20Z</time>
      </trkpt>
      <trkpt lat="42.54438" lon="-0.40785">
        <time>2022-07-30T13:34:21Z</time>
      </trkpt>
      <trkpt lat="42.54423" lon="-0.40745">
        <time>2022-07-30T13:34:22Z</time>
      </trkpt>
      <trkpt lat="42.54408" lon="-0.40704">
        <time>2022-07-30T13:34:23Z</time>
      </trkpt>
      <trkpt lat="42.54392" lon="-0.40663">
        <time>2022-07-30T13:34:24Z</time>
      </trkpt>
      <trkpt lat="42.54375" lon="-0.40622">
        <time>2022-07-30T13:34:25Z</time>
      </trkpt>
      <trkpt lat="42.54357" lon="-0.40581">
        <time>2022-07-30T13:34:26Z</time>
      </trkpt>
      <trkpt lat="42.5434" lon="-0.40539">
        <time>2022-07-30T13:34:27Z</time>
      </trkpt>
      <trkpt lat="42.54322" lon="-0.40497">
        <time>2022-07-30T13:34:28Z</time>
      </trkpt>
      <trkpt lat="42.54305" lon="-0.40457">
        <time>2022-07-30T13:34:29Z</time>
      </trkpt>
      <trkpt lat="42.54288" lon="-0.40417">
        <time>2022-07-30T13:34:30Z</time>
      </trkpt>
      <trkpt lat="42.54271" lon="-0.40378">
        <time>2022-07-30T13:34:31Z</time>
      </trkpt>
      <trkpt lat="42.54255" lon="-0.40339">
        <time>2022-07-30T13:34:32Z</time>
      </trkpt>
      <trkpt lat="42.54238" lon="-0.403">
        <time>2022-07-30T13:34:33Z</time>
      </trkpt>
      <trkpt lat="42.54221" lon="-0.40262">
        <time>2022-07-30T13:34:34Z</time>
      </trkpt>
      <trkpt lat="42.54205" lon="-0.40225">
        <time>2022-07-30T13:34:35Z</time>
      </trkpt>
      <trkpt lat="42.5419" lon="-0.4019">
        <time>2022-07-30T13:34:36Z</time>
      </trkpt>
      <trkpt lat="42.54176" lon="-0.40157">
        <time>2022-07-30T13:34:37Z</time>
      </trkpt>
      <trkpt lat="42.54164" lon="-0.40126">
        <time>2022-07-30T13:34:38Z</time>
      </trkpt>
      <trkpt lat="42.54152" lon="-0.40097">
        <time>2022-07-30T13:34:39Z</time>
      </trkpt>
      <trkpt lat="42.54139" lon="-0.40069">
        <time>2022-07-30T13:34:40Z</time>
      </trkpt>
      <trkpt lat="42.54128" lon="-0.40042">
        <time>2022-07-30T13:34:41Z</time>
      </trkpt>
      <trkpt lat="42.54117" lon="-0.40015">
        <time>2022-07-30T13:34:42Z</time>
      </trkpt>
      <trkpt lat="42.54106" lon="-0.39989">
        <time>2022-07-30T13:34:43Z</time>
      </trkpt>
      <trkpt lat="42.54097" lon="-0.39962">
        <time>2022-07-30T13:34:44Z</time>
      </trkpt>
      <trkpt lat="42.5409" lon="-0.39936">
        <time>2022-07-30T13:34:45Z</time>
      </trkpt>
      <trkpt lat="42.54084" lon="-0.39909">
        <time>2022-07-30T13:34:46Z</time>
      </trkpt>
      <trkpt lat="42.54079" lon="-0.39882">
        <time>2022-07-30T13:34:47Z</time>
      </trkpt>
      <trkpt lat="42.54077" lon="-0.39856">
        <time>2022-07-30T13:34:48Z</time>
      </trkpt>
      <trkpt lat="42.54075" lon="-0.39831">
        <time>2022-07-30T13:34:49Z</time>
      </trkpt>
      <trkpt lat="42.54072" lon="-0.39809">
        <time>2022-07-30T13:34:50Z</time>
      </trkpt>
      <trkpt lat="42.5407" lon="-0.39788">
        <time>2022-07-30T13:34:51Z</time>
      </trkpt>
      <trkpt lat="42.54066" lon="-0.39769">
        <time>2022-07-30T13:34:52Z</time>
      </trkpt>
      <trkpt lat="42.54061" lon="-0.39751">
        <time>2022-07-30T13:34:53Z</time>
      </trkpt>
      <trkpt lat="42.54054" lon="-0.39734">
        <time>2022-07-30T13:34:54Z</time>
      </trkpt>
      <trkpt lat="42.54046" lon="-0.39719">
        <time>2022-07-30T13:34:55Z</time>
      </trkpt>
      <trkpt lat="42.54037" lon="-0.39707">
        <time>2022-07-30T13:34:56Z</time>
      </trkpt>
      <trkpt lat="42.54028" lon="-0.39697">
        <time>2022-07-30T13:34:57Z</time>
      </trkpt>
      <trkpt lat="42.54018" lon="-0.39689">
        <time>2022-07-30T13:34:58Z</time>
      </trkpt>
      <trkpt lat="42.5401" lon="-0.39684">
        <time>2022-07-30T13:34:59Z</time>
      </trkpt>
      <trkpt lat="42.54008" lon="-0.3968">
        <time>2022-07-30T13:35:00Z</time>
      </trkpt>
      <trkpt lat="42.54" lon="-0.3968">
        <time>2022-07-30T13:35:01Z</time>
      </trkpt>
      <trkpt lat="42.53993" lon="-0.39684">
        <time>2022-07-30T13:35:02Z</time>
      </trkpt>
      <trkpt lat="42.53986" lon="-0.3969">
        <time>2022-07-30T13:35:03Z</time>
      </trkpt>
      <trkpt lat="42.53979" lon="-0.39697">
        <time>2022-07-30T13:35:04Z</time>
      </trkpt>
      <trkpt lat="42.53972" lon="-0.39704">
        <time>2022-07-30T13:35:05Z</time>
      </trkpt>
      <trkpt lat="42.53964" lon="-0.39707">
        <time>2022-07-30T13:35:06Z</time>
      </trkpt>
      <trkpt lat="42.53956" lon="-0.39708">
        <time>2022-07-30T13:35:07Z</time>
      </trkpt>
      <trkpt lat="42.53947" lon="-0.39706">
        <time>2022-07-30T13:35:08Z</time>
      </trkpt>
      <trkpt lat="42.53939" lon="-0.39699">
        <time>2022-07-30T13:35:09Z</time>
      </trkpt>
      <trkpt lat="42.53933" lon="-0.3969">
        <time>2022-07-30T13:35:10Z</time>
      </trkpt>
      <trkpt lat="42.53929" lon="-0.39678">
        <time>2022-07-30T13:35:11Z</time>
      </trkpt>
      <trkpt lat="42.53927" lon="-0.39665">
        <time>2022-07-30T13:35:12Z</time>
      </trkpt>
      <trkpt lat="42.53926" lon="-0.39648">
        <time>2022-07-30T13:35:13Z</time>
      </trkpt>
      <trkpt lat="42.53923" lon="-0.39632">
        <time>2022-07-30T13:35:14Z</time>
      </trkpt>
      <trkpt lat="42.53918" lon="-0.39616">
        <time>2022-07-30T13:35:15Z</time>
      </trkpt>
      <trkpt lat="42.53912" lon="-0.396">
        <time>2022-07-30T13:35:16Z</time>
      </trkpt>
      <trkpt lat="42.53905" lon="-0.39582">
        <time>2022-07-30T13:35:17Z</time>
      </trkpt>
      <trkpt lat="42.53897" lon="-0.39562">
        <time>2022-07-30T13:35:18Z</time>
      </trkpt>
      <trkpt lat="42.53889" lon="-0.39541">
        <time>2022-07-30T13:35:19Z</time>
      </trkpt>
      <trkpt lat="42.5388" lon="-0.3952">
        <time>2022-07-30T13:35:20Z</time>
      </trkpt>
      <trkpt lat="42.53872" lon="-0.39499">
        <time>2022-07-30T13:35:21Z</time>
      </trkpt>
      <trkpt lat="42.53863" lon="-0.39477">
        <time>2022-07-30T13:35:22Z</time>
      </trkpt>
      <trkpt lat="42.53853" lon="-0.39455">
        <time>2022-07-30T13:35:23Z</time>
      </trkpt>
      <trkpt lat="42.53843" lon="-0.39431">
        <time>2022-07-30T13:35:24Z</time>
      </trkpt>
      <trkpt lat="42.53833" lon="-0.39407">
        <time>2022-07-30T13:35:25Z</time>
      </trkpt>
      <trkpt lat="42.53822" lon="-0.39382">
        <time>2022-07-30T13:35:26Z</time>
      </trkpt>
      <trkpt lat="42.53812" lon="-0.39356">
        <time>2022-07-30T13:35:27Z</time>
      </trkpt>
      <trkpt lat="42.53802" lon="-0.39331">
        <time>2022-07-30T13:35:28Z</time>
      </trkpt>
      <trkpt lat="42.5379" lon="-0.39304">
        <time>2022-07-30T13:35:29Z</time>
      </trkpt>
      <trkpt lat="42.53779" lon="-0.39277">
        <time>2022-07-30T13:35:30Z</time>
      </trkpt>
      <trkpt lat="42.53768" lon="-0.39251">
        <time>2022-07-30T13:35:31Z</time>
      </trkpt>
      <trkpt lat="42.53757" lon="-0.39225">
        <time>2022-07-30T13:35:32Z</time>
      </trkpt>
      <trkpt lat="42.53747" lon="-0.39199">
        <time>2022-07-30T13:35:33Z</time>
      </trkpt>
      <trkpt lat="42.53737" lon="-0.39174">
        <time>2022-07-30T13:35:34Z</time>
      </trkpt>
      <trkpt lat="42.53726" lon="-0.3915">
        <time>2022-07-30T13:35:35Z</time>
      </trkpt>
      <trkpt lat="42.53716" lon="-0.39125">
        <time>2022-07-30T13:35:36Z</time>
      </trkpt>
      <trkpt lat="42.53706" lon="-0.39101">
        <time>2022-07-30T13:35:37Z</time>
      </trkpt>
      <trkpt lat="42.53696" lon="-0.39077">
        <time>2022-07-30T13:35:38Z</time>
      </trkpt>
      <trkpt lat="42.53686" lon="-0.39053">
        <time>2022-07-30T13:35:39Z</time>
      </trkpt>
      <trkpt lat="42.53676" lon="-0.39028">
        <time>2022-07-30T13:35:40Z</time>
      </trkpt>
      <trkpt lat="42.53666" lon="-0.39004">
        <time>2022-07-30T13:35:41Z</time>
      </trkpt>
      <trkpt lat="42.53656" lon="-0.3898">
        <time>2022-07-30T13:35:42Z</time>
      </trkpt>
      <trkpt lat="42.53646" lon="-0.38956">
        <time>2022-07-30T13:35:43Z</time>
      </trkpt>
      <trkpt lat="42.53636" lon="-0.38933">
        <time>2022-07-30T13:35:44Z</time>
      </trkpt>
      <trkpt lat="42.53626" lon="-0.38907">
        <time>2022-07-30T13:35:45Z</time>
      </trkpt>
      <trkpt lat="42.53616" lon="-0.38882">
        <time>2022-07-30T13:35:46Z</time>
      </trkpt>
      <trkpt lat="42.53606" lon="-0.38857">
        <time>2022-07-30T13:35:47Z</time>
      </trkpt>
      <trkpt lat="42.53597" lon="-0.38831">
        <time>2022-07-30T13:35:48Z</time>
      </trkpt>
      <trkpt lat="42.53589" lon="-0.38806">
        <time>2022-07-30T13:35:49Z</time>
      </trkpt>
      <trkpt lat="42.53581" lon="-0.38779">
        <time>2022-07-30T13:35:50Z</time>
      </trkpt>
      <trkpt lat="42.53575" lon="-0.38754">
        <time>2022-07-30T13:35:51Z</time>
      </trkpt>
      <trkpt lat="42.5357" lon="-0.3873">
        <time>2022-07-30T13:35:52Z</time>
      </trkpt>
      <trkpt lat="42.53566" lon="-0.38705">
        <time>2022-07-30T13:35:53Z</time>
      </trkpt>
      <trkpt lat="42.53563" lon="-0.38681">
        <time>2022-07-30T13:35:54Z</time>
      </trkpt>
      <trkpt lat="42.5356" lon="-0.38657">
        <time>2022-07-30T13:35:55Z</time>
      </trkpt>
      <trkpt lat="42.53558" lon="-0.38632">
        <time>2022-07-30T13:35:56Z</time>
      </trkpt>
      <trkpt lat="42.53557" lon="-0.38607">
        <time>2022-07-30T13:35:57Z</time>
      </trkpt>
      <trkpt lat="42.53556" lon="-0.38583">
        <time>2022-07-30T13:35:58Z</time>
      </trkpt>
      <trkpt lat="42.53557" lon="-0.38558">
        <time>2022-07-30T13:35:59Z</time>
      </trkpt>
      <trkpt lat="42.53558" lon="-0.38536">
        <time>2022-07-30T13:36:00Z</time>
      </trkpt>
      <trkpt lat="42.53559" lon="-0.3851">
        <time>2022-07-30T13:36:01Z</time>
      </trkpt>
      <trkpt lat="42.53562" lon="-0.38485">
        <time>2022-07-30T13:36:02Z</time>
      </trkpt>
      <trkpt lat="42.53565" lon="-0.3846">
        <time>2022-07-30T13:36:03Z</time>
      </trkpt>
      <trkpt lat="42.53569" lon="-0.38436">
        <time>2022-07-30T13:36:04Z</time>
      </trkpt>
      <trkpt lat="42.53574" lon="-0.38412">
        <time>2022-07-30T13:36:05Z</time>
      </trkpt>
      <trkpt lat="42.53579" lon="-0.38388">
        <time>2022-07-30T13:36:06Z</time>
      </trkpt>
      <trkpt lat="42.53585" lon="-0.38365">
        <time>2022-07-30T13:36:07Z</time>
      </trkpt>
      <trkpt lat="42.5359" lon="-0.38343">
        <time>2022-07-30T13:36:08Z</time>
      </trkpt>
      <trkpt lat="42.53596" lon="-0.38321">
        <time>2022-07-30T13:36:09Z</time>
      </trkpt>
      <trkpt lat="42.53603" lon="-0.38299">
        <time>2022-07-30T13:36:10Z</time>
      </trkpt>
      <trkpt lat="42.53609" lon="-0.38277">
        <time>2022-07-30T13:36:11Z</time>
      </trkpt>
      <trkpt lat="42.53616" lon="-0.38255">
        <time>2022-07-30T13:36:12Z</time>
      </trkpt>
      <trkpt lat="42.53623" lon="-0.38231">
        <time>2022-07-30T13:36:13Z</time>
      </trkpt>
      <trkpt lat="42.53631" lon="-0.38207">
        <time>2022-07-30T13:36:14Z</time>
      </trkpt>
      <trkpt lat="42.53637" lon="-0.38183">
        <time>2022-07-30T13:36:15Z</time>
      </trkpt>
      <trkpt lat="42.53643" lon="-0.38161">
        <time>2022-07-30T13:36:16Z</time>
      </trkpt>
      <trkpt lat="42.53648" lon="-0.38137">
        <time>2022-07-30T13:36:17Z</time>
      </trkpt>
      <trkpt lat="42.53652" lon="-0.38115">
        <time>2022-07-30T13:36:18Z</time>
      </trkpt>
      <trkpt lat="42.53655" lon="-0.38094">
        <time>2022-07-30T13:36:19Z</time>
      </trkpt>
      <trkpt lat="42.53657" lon="-0.38074">
        <time>2022-07-30T13:36:20Z</time>
      </trkpt>
      <trkpt lat="42.53659" lon="-0.38056">
        <time>2022-07-30T13:36:21Z</time>
      </trkpt>
      <trkpt lat="42.53661" lon="-0.38039">
        <time>2022-07-30T13:36:22Z</time>
      </trkpt>
      <trkpt lat="42.53662" lon="-0.38023">
        <time>2022-07-30T13:36:23Z</time>
      </trkpt>
      <trkpt lat="42.53662" lon="-0.38008">
        <time>2022-07-30T13:36:24Z</time>
      </trkpt>
      <trkpt lat="42.53662" lon="-0.37994">
        <time>2022-07-30T13:36:25Z</time>
      </trkpt>
      <trkpt lat="42.53661" lon="-0.37981">
        <time>2022-07-30T13:36:26Z</time>
      </trkpt>
      <trkpt lat="42.5366" lon="-0.3797">
        <time>2022-07-30T13:36:27Z</time>
      </trkpt>
      <trkpt lat="42.53658" lon="-0.3796">
        <time>2022-07-30T13:36:28Z</time>
      </trkpt>
      <trkpt lat="42.53654" lon="-0.37951">
        <time>2022-07-30T13:36:29Z</time>
      </trkpt>
      <trkpt lat="42.53648" lon="-0.37945">
        <time>2022-07-30T13:36:30Z</time>
      </trkpt>
      <trkpt lat="42.53641" lon="-0.37939">
        <time>2022-07-30T13:36:31Z</time>
      </trkpt>
      <trkpt lat="42.53635" lon="-0.37932">
        <time>2022-07-30T13:36:32Z</time>
      </trkpt>
      <trkpt lat="42.5363" lon="-0.37923">
        <time>2022-07-30T13:36:33Z</time>
      </trkpt>
      <trkpt lat="42.53629" lon="-0.37912">
        <time>2022-07-30T13:36:34Z</time>
      </trkpt>
      <trkpt lat="42.53629" lon="-0.37903">
        <time>2022-07-30T13:36:35Z</time>
      </trkpt>
      <trkpt lat="42.53632" lon="-0.37893">
        <time>2022-07-30T13:36:36Z</time>
      </trkpt>
      <trkpt lat="42.53637" lon="-0.37885">
        <time>2022-07-30T13:36:37Z</time>
      </trkpt>
      <trkpt lat="42.53644" lon="-0.3788">
        <time>2022-07-30T13:36:38Z</time>
      </trkpt>
      <trkpt lat="42.5365" lon="-0.37876">
        <time>2022-07-30T13:36:39Z</time>
      </trkpt>
      <trkpt lat="42.53657" lon="-0.37872">
        <time>2022-07-30T13:36:40Z</time>
      </trkpt>
      <trkpt lat="42.53664" lon="-0.37867">
        <time>2022-07-30T13:36:41Z</time>
      </trkpt>
      <trkpt lat="42.5367" lon="-0.3786">
        <time>2022-07-30T13:36:42Z</time>
      </trkpt>
      <trkpt lat="42.53675" lon="-0.37852">
        <time>2022-07-30T13:36:43Z</time>
      </trkpt>
      <trkpt lat="42.5368" lon="-0.37841">
        <time>2022-07-30T13:36:44Z</time>
      </trkpt>
      <trkpt lat="42.53685" lon="-0.37829">
        <time>2022-07-30T13:36:45Z</time>
      </trkpt>
      <trkpt lat="42.5369" lon="-0.37814">
        <time>2022-07-30T13:36:46Z</time>
      </trkpt>
      <trkpt lat="42.53694" lon="-0.37799">
        <time>2022-07-30T13:36:47Z</time>
      </trkpt>
      <trkpt lat="42.53698" lon="-0.37781">
        <time>2022-07-30T13:36:48Z</time>
      </trkpt>
      <trkpt lat="42.53702" lon="-0.37761">
        <time>2022-07-30T13:36:49Z</time>
      </trkpt>
      <trkpt lat="42.53704" lon="-0.3774">
        <time>2022-07-30T13:36:50Z</time>
      </trkpt>
      <trkpt lat="42.53707" lon="-0.3772">
        <time>2022-07-30T13:36:51Z</time>
      </trkpt>
      <trkpt lat="42.53709" lon="-0.37697">
        <time>2022-07-30T13:36:52Z</time>
      </trkpt>
      <trkpt lat="42.5371" lon="-0.37675">
        <time>2022-07-30T13:36:53Z</time>
      </trkpt>
      <trkpt lat="42.53711" lon="-0.37652">
        <time>2022-07-30T13:36:54Z</time>
      </trkpt>
      <trkpt lat="42.53712" lon="-0.37628">
        <time>2022-07-30T13:36:55Z</time>
      </trkpt>
      <trkpt lat="42.53711" lon="-0.37604">
        <time>2022-07-30T13:36:56Z</time>
      </trkpt>
      <trkpt lat="42.53711" lon="-0.3758">
        <time>2022-07-30T13:36:57Z</time>
      </trkpt>
      <trkpt lat="42.53709" lon="-0.37556">
        <time>2022-07-30T13:36:58Z</time>
      </trkpt>
      <trkpt lat="42.53708" lon="-0.37532">
        <time>2022-07-30T13:36:59Z</time>
      </trkpt>
      <trkpt lat="42.53705" lon="-0.37506">
        <time>2022-07-30T13:37:00Z</time>
      </trkpt>
      <trkpt lat="42.53702" lon="-0.3748">
        <time>2022-07-30T13:37:01Z</time>
      </trkpt>
      <trkpt lat="42.53697" lon="-0.37454">
        <time>2022-07-30T13:37:02Z</time>
      </trkpt>
      <trkpt lat="42.53691" lon="-0.37428">
        <time>2022-07-30T13:37:03Z</time>
      </trkpt>
      <trkpt lat="42.53685" lon="-0.37404">
        <time>2022-07-30T13:37:04Z</time>
      </trkpt>
      <trkpt lat="42.53676" lon="-0.37379">
        <time>2022-07-30T13:37:05Z</time>
      </trkpt>
      <trkpt lat="42.53666" lon="-0.37357">
        <time>2022-07-30T13:37:06Z</time>
      </trkpt>
      <trkpt lat="42.53656" lon="-0.37337">
        <time>2022-07-30T13:37:07Z</time>
      </trkpt>
      <trkpt lat="42.53644" lon="-0.37316">
        <time>2022-07-30T13:37:08Z</time>
      </trkpt>
      <trkpt lat="42.53632" lon="-0.37297">
        <time>2022-07-30T13:37:09Z</time>
      </trkpt>
      <trkpt lat="42.53619" lon="-0.37278">
        <time>2022-07-30T13:37:10Z</time>
      </trkpt>
      <trkpt lat="42.53607" lon="-0.37259">
        <time>2022-07-30T13:37:11Z</time>
      </trkpt>
      <trkpt lat="42.53593" lon="-0.3724">
        <time>2022-07-30T13:37:12Z</time>
      </trkpt>
      <trkpt lat="42.5358" lon="-0.37222">
        <time>2022-07-30T13:37:13Z</time>
      </trkpt>
      <trkpt lat="42.53567" lon="-0.37203">
        <time>2022-07-30T13:37:14Z</time>
      </trkpt>
      <trkpt lat="42.53554" lon="-0.37185">
        <time>2022-07-30T13:37:15Z</time>
      </trkpt>
      <trkpt lat="42.5354" lon="-0.37166">
        <time>2022-07-30T13:37:16Z</time>
      </trkpt>
      <trkpt lat="42.53527" lon="-0.37147">
        <time>2022-07-30T13:37:17Z</time>
      </trkpt>
      <trkpt lat="42.53514" lon="-0.37128">
        <time>2022-07-30T13:37:18Z</time>
      </trkpt>
      <trkpt lat="42.53502" lon="-0.3711">
        <time>2022-07-30T13:37:19Z</time>
      </trkpt>
      <trkpt lat="42.5349" lon="-0.37092">
        <time>2022-07-30T13:37:20Z</time>
      </trkpt>
      <trkpt lat="42.53477" lon="-0.37072">
        <time>2022-07-30T13:37:21Z</time>
      </trkpt>
      <trkpt lat="42.53464" lon="-0.37052">
        <time>2022-07-30T13:37:22Z</time>
      </trkpt>
      <trkpt lat="42.53451" lon="-0.37033">
        <time>2022-07-30T13:37:23Z</time>
      </trkpt>
      <trkpt lat="42.53438" lon="-0.37014">
        <time>2022-07-30T13:37:24Z</time>
      </trkpt>
      <trkpt lat="42.53426" lon="-0.36995">
        <time>2022-07-30T13:37:25Z</time>
      </trkpt>
      <trkpt lat="42.53414" lon="-0.36977">
        <time>2022-07-30T13:37:26Z</time>
      </trkpt>
      <trkpt lat="42.53403" lon="-0.36961">
        <time>2022-07-30T13:37:27Z</time>
      </trkpt>
      <trkpt lat="42.53394" lon="-0.36946">
        <time>2022-07-30T13:37:28Z</time>
      </trkpt>
      <trkpt lat="42.53385" lon="-0.36932">
        <time>2022-07-30T13:37:29Z</time>
      </trkpt>
      <trkpt lat="42.53377" lon="-0.36919">
        <time>2022-07-30T13:37:30Z</time>
      </trkpt>
      <trkpt lat="42.53369" lon="-0.36908">
        <time>2022-07-30T13:37:31Z</time>
      </trkpt>
      <trkpt lat="42.53361" lon="-0.36901">
        <time>2022-07-30T13:37:32Z</time>
      </trkpt>
      <trkpt lat="42.53352" lon="-0.36897">
        <time>2022-07-30T13:37:33Z</time>
      </trkpt>
      <trkpt lat="42.53343" lon="-0.36897">
        <time>2022-07-30T13:37:34Z</time>
      </trkpt>
      <trkpt lat="42.53335" lon="-0.36901">
        <time>2022-07-30T13:37:35Z</time>
      </trkpt>
      <trkpt lat="42.53329" lon="-0.36909">
        <time>2022-07-30T13:37:36Z</time>
      </trkpt>
      <trkpt lat="42.53325" lon="-0.36921">
        <time>2022-07-30T13:37:37Z</time>
      </trkpt>
      <trkpt lat="42.53325" lon="-0.36934">
        <time>2022-07-30T13:37:38Z</time>
      </trkpt>
      <trkpt lat="42.53329" lon="-0.36949">
        <time>2022-07-30T13:37:39Z</time>
      </trkpt>
      <trkpt lat="42.53336" lon="-0.36964">
        <time>2022-07-30T13:37:40Z</time>
      </trkpt>
      <trkpt lat="42.53346" lon="-0.3698">
        <time>2022-07-30T13:37:41Z</time>
      </trkpt>
      <trkpt lat="42.53357" lon="-0.36996">
        <time>2022-07-30T13:37:42Z</time>
      </trkpt>
      <trkpt lat="42.53369" lon="-0.37011">
        <time>2022-07-30T13:37:43Z</time>
      </trkpt>
      <trkpt lat="42.53383" lon="-0.37024">
        <time>2022-07-30T13:37:44Z</time>
      </trkpt>
      <trkpt lat="42.53396" lon="-0.37036">
        <time>2022-07-30T13:37:45Z</time>
      </trkpt>
      <trkpt lat="42.53411" lon="-0.37045">
        <time>2022-07-30T13:37:46Z</time>
      </trkpt>
      <trkpt lat="42.53425" lon="-0.37052">
        <time>2022-07-30T13:37:47Z</time>
      </trkpt>
      <trkpt lat="42.5344" lon="-0.37058">
        <time>2022-07-30T13:37:48Z</time>
      </trkpt>
      <trkpt lat="42.53455" lon="-0.37061">
        <time>2022-07-30T13:37:49Z</time>
      </trkpt>
      <trkpt lat="42.5347" lon="-0.37063">
        <time>2022-07-30T13:37:50Z</time>
      </trkpt>
      <trkpt lat="42.53484" lon="-0.37062">
        <time>2022-07-30T13:37:51Z</time>
      </trkpt>
      <trkpt lat="42.53497" lon="-0.3706">
        <time>2022-07-30T13:37:52Z</time>
      </trkpt>
      <trkpt lat="42.53512" lon="-0.37056">
        <time>2022-07-30T13:37:53Z</time>
      </trkpt>
      <trkpt lat="42.53525" lon="-0.37052">
        <time>2022-07-30T13:37:54Z</time>
      </trkpt>
      <trkpt lat="42.53537" lon="-0.37047">
        <time>2022-07-30T13:37:55Z</time>
      </trkpt>
      <trkpt lat="42.5355" lon="-0.37042">
        <time>2022-07-30T13:37:56Z</time>
      </trkpt>
      <trkpt lat="42.53563" lon="-0.37036">
        <time>2022-07-30T13:37:57Z</time>
      </trkpt>
      <trkpt lat="42.53576" lon="-0.3703">
        <time>2022-07-30T13:37:58Z</time>
      </trkpt>
      <trkpt lat="42.53586" lon="-0.37024">
        <time>2022-07-30T13:37:59Z</time>
      </trkpt>
      <trkpt lat="42.53597" lon="-0.37017">
        <time>2022-07-30T13:38:00Z</time>
      </trkpt>
      <trkpt lat="42.53607" lon="-0.37009">
        <time>2022-07-30T13:38:01Z</time>
      </trkpt>
      <trkpt lat="42.53619" lon="-0.36999">
        <time>2022-07-30T13:38:02Z</time>
      </trkpt>
      <trkpt lat="42.5363" lon="-0.36987">
        <time>2022-07-30T13:38:03Z</time>
      </trkpt>
      <trkpt lat="42.53641" lon="-0.36974">
        <time>2022-07-30T13:38:04Z</time>
      </trkpt>
      <trkpt lat="42.53652" lon="-0.36959">
        <time>2022-07-30T13:38:05Z</time>
      </trkpt>
      <trkpt lat="42.53662" lon="-0.36943">
        <time>2022-07-30T13:38:06Z</time>
      </trkpt>
      <trkpt lat="42.53672" lon="-0.36924">
        <time>2022-07-30T13:38:07Z</time>
      </trkpt>
      <trkpt lat="42.53679" lon="-0.36905">
        <time>2022-07-30T13:38:08Z</time>
      </trkpt>
      <trkpt lat="42.53687" lon="-0.36881">
        <time>2022-07-30T13:38:09Z</time>
      </trkpt>
      <trkpt lat="42.53692" lon="-0.36858">
        <time>2022-07-30T13:38:10Z</time>
      </trkpt>
      <trkpt lat="42.53696" lon="-0.36835">
        <time>2022-07-30T13:38:11Z</time>
      </trkpt>
      <trkpt lat="42.53699" lon="-0.36811">
        <time>2022-07-30T13:38:12Z</time>
      </trkpt>
      <trkpt lat="42.53701" lon="-0.36787">
        <time>2022-07-30T13:38:13Z</time>
      </trkpt>
      <trkpt lat="42.53704" lon="-0.36762">
        <time>2022-07-30T13:38:14Z</time>
      </trkpt>
      <trkpt lat="42.53707" lon="-0.36738">
        <time>2022-07-30T13:38:15Z</time>
      </trkpt>
      <trkpt lat="42.53709" lon="-0.36714">
        <time>2022-07-30T13:38:16Z</time>
      </trkpt>
      <trkpt lat="42.53712" lon="-0.36691">
        <time>2022-07-30T13:38:17Z</time>
      </trkpt>
      <trkpt lat="42.53715" lon="-0.36667">
        <time>2022-07-30T13:38:18Z</time>
      </trkpt>
      <trkpt lat="42.53717" lon="-0.36643">
        <time>2022-07-30T13:38:19Z</time>
      </trkpt>
      <trkpt lat="42.53719" lon="-0.36619">
        <time>2022-07-30T13:38:20Z</time>
      </trkpt>
      <trkpt lat="42.5372" lon="-0.36595">
        <time>2022-07-30T13:38:21Z</time>
      </trkpt>
      <trkpt lat="42.5372" lon="-0.36571">
        <time>2022-07-30T13:38:22Z</time>
      </trkpt>
      <trkpt lat="42.5372" lon="-0.36547">
        <time>2022-07-30T13:38:23Z</time>
      </trkpt>
      <trkpt lat="42.53718" lon="-0.36526">
        <time>2022-07-30T13:38:24Z</time>
      </trkpt>
      <trkpt lat="42.53715" lon="-0.36501">
        <time>2022-07-30T13:38:25Z</time>
      </trkpt>
      <trkpt lat="42.53711" lon="-0.36478">
        <time>2022-07-30T13:38:26Z</time>
      </trkpt>
      <trkpt lat="42.53706" lon="-0.36455">
        <time>2022-07-30T13:38:27Z</time>
      </trkpt>
      <trkpt lat="42.537" lon="-0.36434">
        <time>2022-07-30T13:38:28Z</time>
      </trkpt>
      <trkpt lat="42.53694" lon="-0.36414">
        <time>2022-07-30T13:38:29Z</time>
      </trkpt>
      <trkpt lat="42.53689" lon="-0.36394">
        <time>2022-07-30T13:38:30Z</time>
      </trkpt>
      <trkpt lat="42.53683" lon="-0.36376">
        <time>2022-07-30T13:38:31Z</time>
      </trkpt>
      <trkpt lat="42.53678" lon="-0.36357">
        <time>2022-07-30T13:38:32Z</time>
      </trkpt>
      <trkpt lat="42.53673" lon="-0.36338">
        <time>2022-07-30T13:38:33Z</time>
      </trkpt>
      <trkpt lat="42.53669" lon="-0.36319">
        <time>2022-07-30T13:38:34Z</time>
      </trkpt>
      <trkpt lat="42.53665" lon="-0.36301">
        <time>2022-07-30T13:38:35Z</time>
      </trkpt>
      <trkpt lat="42.53662" lon="-0.36282">
        <time>2022-07-30T13:38:36Z</time>
      </trkpt>
      <trkpt lat="42.5366" lon="-0.36262">
        <time>2022-07-30T13:38:37Z</time>
      </trkpt>
      <trkpt lat="42.53659" lon="-0.36242">
        <time>2022-07-30T13:38:38Z</time>
      </trkpt>
      <trkpt lat="42.53659" lon="-0.36222">
        <time>2022-07-30T13:38:39Z</time>
      </trkpt>
      <trkpt lat="42.53659" lon="-0.36203">
        <time>2022-07-30T13:38:40Z</time>
      </trkpt>
      <trkpt lat="42.5366" lon="-0.36183">
        <time>2022-07-30T13:38:41Z</time>
      </trkpt>
      <trkpt lat="42.53662" lon="-0.36164">
        <time>2022-07-30T13:38:42Z</time>
      </trkpt>
      <trkpt lat="42.53664" lon="-0.36146">
        <time>2022-07-30T13:38:43Z</time>
      </trkpt>
      <trkpt lat="42.53668" lon="-0.36125">
        <time>2022-07-30T13:38:44Z</time>
      </trkpt>
      <trkpt lat="42.53672" lon="-0.36106">
        <time>2022-07-30T13:38:45Z</time>
      </trkpt>
      <trkpt lat="42.53677" lon="-0.36087">
        <time>2022-07-30T13:38:46Z</time>
      </trkpt>
      <trkpt lat="42.53684" lon="-0.36069">
        <time>2022-07-30T13:38:47Z</time>
      </trkpt>
      <trkpt lat="42.5369" lon="-0.3605">
        <time>2022-07-30T13:38:48Z</time>
      </trkpt>
      <trkpt lat="42.53698" lon="-0.36032">
        <time>2022-07-30T13:38:49Z</time>
      </trkpt>
      <trkpt lat="42.53707" lon="-0.36014">
        <time>2022-07-30T13:38:50Z</time>
      </trkpt>
      <trkpt lat="42.53716" lon="-0.35998">
        <time>2022-07-30T13:38:51Z</time>
      </trkpt>
      <trkpt lat="42.53727" lon="-0.35981">
        <time>2022-07-30T13:38:52Z</time>
      </trkpt>
      <trkpt lat="42.53737" lon="-0.35965">
        <time>2022-07-30T13:38:53Z</time>
      </trkpt>
      <trkpt lat="42.53747" lon="-0.3595">
        <time>2022-07-30T13:38:54Z</time>
      </trkpt>
      <trkpt lat="42.53757" lon="-0.35935">
        <time>2022-07-30T13:38:55Z</time>
      </trkpt>
      <trkpt lat="42.53767" lon="-0.35921">
        <time>2022-07-30T13:38:56Z</time>
      </trkpt>
      <trkpt lat="42.53778" lon="-0.35906">
        <time>2022-07-30T13:38:57Z</time>
      </trkpt>
      <trkpt lat="42.53788" lon="-0.35891">
        <time>2022-07-30T13:38:58Z</time>
      </trkpt>
      <trkpt lat="42.53797" lon="-0.35877">
        <time>2022-07-30T13:38:59Z</time>
      </trkpt>
      <trkpt lat="42.53808" lon="-0.35861">
        <time>2022-07-30T13:39:00Z</time>
      </trkpt>
      <trkpt lat="42.53817" lon="-0.35846">
        <time>2022-07-30T13:39:01Z</time>
      </trkpt>
      <trkpt lat="42.53827" lon="-0.35832">
        <time>2022-07-30T13:39:02Z</time>
      </trkpt>
      <trkpt lat="42.53836" lon="-0.35819">
        <time>2022-07-30T13:39:03Z</time>
      </trkpt>
      <trkpt lat="42.53845" lon="-0.35805">
        <time>2022-07-30T13:39:04Z</time>
      </trkpt>
      <trkpt lat="42.53854" lon="-0.35792">
        <time>2022-07-30T13:39:05Z</time>
      </trkpt>
      <trkpt lat="42.53863" lon="-0.35778">
        <time>2022-07-30T13:39:06Z</time>
      </trkpt>
      <trkpt lat="42.53872" lon="-0.35765">
        <time>2022-07-30T13:39:07Z</time>
      </trkpt>
      <trkpt lat="42.53883" lon="-0.35749">
        <time>2022-07-30T13:39:08Z</time>
      </trkpt>
      <trkpt lat="42.53895" lon="-0.35732">
        <time>2022-07-30T13:39:09Z</time>
      </trkpt>
      <trkpt lat="42.53907" lon="-0.35713">
        <time>2022-07-30T13:39:10Z</time>
      </trkpt>
      <trkpt lat="42.53921" lon="-0.35693">
        <time>2022-07-30T13:39:11Z</time>
      </trkpt>
      <trkpt lat="42.53935" lon="-0.35672">
        <time>2022-07-30T13:39:12Z</time>
      </trkpt>
      <trkpt lat="42.53951" lon="-0.3565">
        <time>2022-07-30T13:39:13Z</time>
      </trkpt>
      <trkpt lat="42.53966" lon="-0.35628">
        <time>2022-07-30T13:39:14Z</time>
      </trkpt>
      <trkpt lat="42.5398" lon="-0.35607">
        <time>2022-07-30T13:39:15Z</time>
      </trkpt>
      <trkpt lat="42.53996" lon="-0.35584">
        <time>2022-07-30T13:39:16Z</time>
      </trkpt>
      <trkpt lat="42.5401" lon="-0.35563">
        <time>2022-07-30T13:39:17Z</time>
      </trkpt>
      <trkpt lat="42.54024" lon="-0.35542">
        <time>2022-07-30T13:39:18Z</time>
      </trkpt>
      <trkpt lat="42.54038" lon="-0.35522">
        <time>2022-07-30T13:39:19Z</time>
      </trkpt>
      <trkpt lat="42.54052" lon="-0.35502">
        <time>2022-07-30T13:39:20Z</time>
      </trkpt>
      <trkpt lat="42.54065" lon="-0.35481">
        <time>2022-07-30T13:39:21Z</time>
      </trkpt>
      <trkpt lat="42.54079" lon="-0.35461">
        <time>2022-07-30T13:39:22Z</time>
      </trkpt>
      <trkpt lat="42.54093" lon="-0.35441">
        <time>2022-07-30T13:39:23Z</time>
      </trkpt>
      <trkpt lat="42.54108" lon="-0.35418">
        <time>2022-07-30T13:39:24Z</time>
      </trkpt>
      <trkpt lat="42.54123" lon="-0.35396">
        <time>2022-07-30T13:39:25Z</time>
      </trkpt>
      <trkpt lat="42.54139" lon="-0.35375">
        <time>2022-07-30T13:39:26Z</time>
      </trkpt>
      <trkpt lat="42.54155" lon="-0.35355">
        <time>2022-07-30T13:39:27Z</time>
      </trkpt>
      <trkpt lat="42.54171" lon="-0.35337">
        <time>2022-07-30T13:39:28Z</time>
      </trkpt>
      <trkpt lat="42.54191" lon="-0.35319">
        <time>2022-07-30T13:39:29Z</time>
      </trkpt>
      <trkpt lat="42.54211" lon="-0.35304">
        <time>2022-07-30T13:39:30Z</time>
      </trkpt>
      <trkpt lat="42.54231" lon="-0.35291">
        <time>2022-07-30T13:39:31Z</time>
      </trkpt>
      <trkpt lat="42.54251" lon="-0.35278">
        <time>2022-07-30T13:39:32Z</time>
      </trkpt>
      <trkpt lat="42.54272" lon="-0.35265">
        <time>2022-07-30T13:39:33Z</time>
      </trkpt>
      <trkpt lat="42.54294" lon="-0.35253">
        <time>2022-07-30T13:39:34Z</time>
      </trkpt>
      <trkpt lat="42.54316" lon="-0.3524">
        <time>2022-07-30T13:39:35Z</time>
      </trkpt>
      <trkpt lat="42.54337" lon="-0.35227">
        <time>2022-07-30T13:39:36Z</time>
      </trkpt>
      <trkpt lat="42.54359" lon="-0.35214">
        <time>2022-07-30T13:39:37Z</time>
      </trkpt>
      <trkpt lat="42.5438" lon="-0.35201">
        <time>2022-07-30T13:39:38Z</time>
      </trkpt>
      <trkpt lat="42.54402" lon="-0.35188">
        <time>2022-07-30T13:39:39Z</time>
      </trkpt>
      <trkpt lat="42.54424" lon="-0.35176">
        <time>2022-07-30T13:39:40Z</time>
      </trkpt>
      <trkpt lat="42.54446" lon="-0.35162">
        <time>2022-07-30T13:39:41Z</time>
      </trkpt>
      <trkpt lat="42.54468" lon="-0.35149">
        <time>2022-07-30T13:39:42Z</time>
      </trkpt>
      <trkpt lat="42.5449" lon="-0.35133">
        <time>2022-07-30T13:39:43Z</time>
      </trkpt>
      <trkpt lat="42.5451" lon="-0.35118">
        <time>2022-07-30T13:39:44Z</time>
      </trkpt>
      <trkpt lat="42.54533" lon="-0.35098">
        <time>2022-07-30T13:39:45Z</time>
      </trkpt>
      <trkpt lat="42.54556" lon="-0.35077">
        <time>2022-07-30T13:39:46Z</time>
      </trkpt>
      <trkpt lat="42.54578" lon="-0.35055">
        <time>2022-07-30T13:39:47Z</time>
      </trkpt>
      <trkpt lat="42.54601" lon="-0.3503">
        <time>2022-07-30T13:39:48Z</time>
      </trkpt>
      <trkpt lat="42.54623" lon="-0.35004">
        <time>2022-07-30T13:39:49Z</time>
      </trkpt>
      <trkpt lat="42.54644" lon="-0.34977">
        <time>2022-07-30T13:39:50Z</time>
      </trkpt>
      <trkpt lat="42.54666" lon="-0.34952">
        <time>2022-07-30T13:39:51Z</time>
      </trkpt>
      <trkpt lat="42.54686" lon="-0.34927">
        <time>2022-07-30T13:39:52Z</time>
      </trkpt>
      <trkpt lat="42.54706" lon="-0.34904">
        <time>2022-07-30T13:39:53Z</time>
      </trkpt>
      <trkpt lat="42.54725" lon="-0.34882">
        <time>2022-07-30T13:39:54Z</time>
      </trkpt>
      <trkpt lat="42.54743" lon="-0.34862">
        <time>2022-07-30T13:39:55Z</time>
      </trkpt>
      <trkpt lat="42.5476" lon="-0.34842">
        <time>2022-07-30T13:39:56Z</time>
      </trkpt>
      <trkpt lat="42.54776" lon="-0.34824">
        <time>2022-07-30T13:39:57Z</time>
      </trkpt>
      <trkpt lat="42.54791" lon="-0.34806">
        <time>2022-07-30T13:39:58Z</time>
      </trkpt>
      <trkpt lat="42.54806" lon="-0.34789">
        <time>2022-07-30T13:39:59Z</time>
      </trkpt>
      <trkpt lat="42.5482" lon="-0.34774">
        <time>2022-07-30T13:40:00Z</time>
      </trkpt>
      <trkpt lat="42.54835" lon="-0.34757">
        <time>2022-07-30T13:40:01Z</time>
      </trkpt>
      <trkpt lat="42.54849" lon="-0.3474">
        <time>2022-07-30T13:40:02Z</time>
      </trkpt>
      <trkpt lat="42.54863" lon="-0.34724">
        <time>2022-07-30T13:40:03Z</time>
      </trkpt>
      <trkpt lat="42.54877" lon="-0.34708">
        <time>2022-07-30T13:40:04Z</time>
      </trkpt>
      <trkpt lat="42.54891" lon="-0.34692">
        <time>2022-07-30T13:40:05Z</time>
      </trkpt>
      <trkpt lat="42.54905" lon="-0.34676">
        <time>2022-07-30T13:40:06Z</time>
      </trkpt>
      <trkpt lat="42.54919" lon="-0.34659">
        <time>2022-07-30T13:40:07Z</time>
      </trkpt>
      <trkpt lat="42.54932" lon="-0.34643">
        <time>2022-07-30T13:40:08Z</time>
      </trkpt>
      <trkpt lat="42.54946" lon="-0.34626">
        <time>2022-07-30T13:40:09Z</time>
      </trkpt>
      <trkpt lat="42.5496" lon="-0.34609">
        <time>2022-07-30T13:40:10Z</time>
      </trkpt>
      <trkpt lat="42.54974" lon="-0.34592">
        <time>2022-07-30T13:40:11Z</time>
      </trkpt>
      <trkpt lat="42.54988" lon="-0.34574">
        <time>2022-07-30T13:40:12Z</time>
      </trkpt>
      <trkpt lat="42.55002" lon="-0.34557">
        <time>2022-07-30T13:40:13Z</time>
      </trkpt>
      <trkpt lat="42.55017" lon="-0.34539">
        <time>2022-07-30T13:40:14Z</time>
      </trkpt>
      <trkpt lat="42.55032" lon="-0.34521">
        <time>2022-07-30T13:40:15Z</time>
      </trkpt>
      <trkpt lat="42.55045" lon="-0.34504">
        <time>2022-07-30T13:40:16Z</time>
      </trkpt>
      <trkpt lat="42.55061" lon="-0.34484">
        <time>2022-07-30T13:40:17Z</time>
      </trkpt>
      <trkpt lat="42.55076" lon="-0.34466">
        <time>2022-07-30T13:40:18Z</time>
      </trkpt>
      <trkpt lat="42.55091" lon="-0.34447">
        <time>2022-07-30T13:40:19Z</time>
      </trkpt>
      <trkpt lat="42.55107" lon="-0.34428">
        <time>2022-07-30T13:40:20Z</time>
      </trkpt>
      <trkpt lat="42.55124" lon="-0.34408">
        <time>2022-07-30T13:40:21Z</time>
      </trkpt>
      <trkpt lat="42.55142" lon="-0.34387">
        <time>2022-07-30T13:40:22Z</time>
      </trkpt>
      <trkpt lat="42.55161" lon="-0.34365">
        <time>2022-07-30T13:40:23Z</time>
      </trkpt>
      <trkpt lat="42.5518" lon="-0.3434">
        <time>2022-07-30T13:40:24Z</time>
      </trkpt>
      <trkpt lat="42.55201" lon="-0.34314">
        <time>2022-07-30T13:40:25Z</time>
      </trkpt>
      <trkpt lat="42.55221" lon="-0.34288">
        <time>2022-07-30T13:40:26Z</time>
      </trkpt>
      <trkpt lat="42.55241" lon="-0.34262">
        <time>2022-07-30T13:40:27Z</time>
      </trkpt>
      <trkpt lat="42.55262" lon="-0.34235">
        <time>2022-07-30T13:40:28Z</time>
      </trkpt>
      <trkpt lat="42.55283" lon="-0.34209">
        <time>2022-07-30T13:40:29Z</time>
      </trkpt>
      <trkpt lat="42.55305" lon="-0.34182">
        <time>2022-07-30T13:40:30Z</time>
      </trkpt>
      <trkpt lat="42.55326" lon="-0.34156">
        <time>2022-07-30T13:40:31Z</time>
      </trkpt>
      <trkpt lat="42.55346" lon="-0.34131">
        <time>2022-07-30T13:40:32Z</time>
      </trkpt>
      <trkpt lat="42.55369" lon="-0.34103">
        <time>2022-07-30T13:40:33Z</time>
      </trkpt>
      <trkpt lat="42.5539" lon="-0.34077">
        <time>2022-07-30T13:40:34Z</time>
      </trkpt>
      <trkpt lat="42.5541" lon="-0.34052">
        <time>2022-07-30T13:40:35Z</time>
      </trkpt>
      <trkpt lat="42.55432" lon="-0.34025">
        <time>2022-07-30T13:40:36Z</time>
      </trkpt>
      <trkpt lat="42.55453" lon="-0.33999">
        <time>2022-07-30T13:40:37Z</time>
      </trkpt>
      <trkpt lat="42.55474" lon="-0.33973">
        <time>2022-07-30T13:40:38Z</time>
      </trkpt>
      <trkpt lat="42.55495" lon="-0.33947">
        <time>2022-07-30T13:40:39Z</time>
      </trkpt>
      <trkpt lat="42.55516" lon="-0.33922">
        <time>2022-07-30T13:40:40Z</time>
      </trkpt>
      <trkpt lat="42.55536" lon="-0.33896">
        <time>2022-07-30T13:40:41Z</time>
      </trkpt>
      <trkpt lat="42.55557" lon="-0.33871">
        <time>2022-07-30T13:40:42Z</time>
      </trkpt>
      <trkpt lat="42.55577" lon="-0.33847">
        <time>2022-07-30T13:40:43Z</time>
      </trkpt>
      <trkpt lat="42.55598" lon="-0.3382">
        <time>2022-07-30T13:40:44Z</time>
      </trkpt>
      <trkpt lat="42.55619" lon="-0.33795">
        <time>2022-07-30T13:40:45Z</time>
      </trkpt>
      <trkpt lat="42.55639" lon="-0.3377">
        <time>2022-07-30T13:40:46Z</time>
      </trkpt>
      <trkpt lat="42.55659" lon="-0.33745">
        <time>2022-07-30T13:40:47Z</time>
      </trkpt>
      <trkpt lat="42.55678" lon="-0.33721">
        <time>2022-07-30T13:40:48Z</time>
      </trkpt>
      <trkpt lat="42.557" lon="-0.33694">
        <time>2022-07-30T13:40:49Z</time>
      </trkpt>
      <trkpt lat="42.5572" lon="-0.33669">
        <time>2022-07-30T13:40:50Z</time>
      </trkpt>
      <trkpt lat="42.5574" lon="-0.33645">
        <time>2022-07-30T13:40:51Z</time>
      </trkpt>
      <trkpt lat="42.55762" lon="-0.33618">
        <time>2022-07-30T13:40:52Z</time>
      </trkpt>
      <trkpt lat="42.55783" lon="-0.33592">
        <time>2022-07-30T13:40:53Z</time>
      </trkpt>
      <trkpt lat="42.55804" lon="-0.33566">
        <time>2022-07-30T13:40:54Z</time>
      </trkpt>
      <trkpt lat="42.55826" lon="-0.3354">
        <time>2022-07-30T13:40:55Z</time>
      </trkpt>
      <trkpt lat="42.55847" lon="-0.33514">
        <time>2022-07-30T13:40:56Z</time>
      </trkpt>
      <trkpt lat="42.55868" lon="-0.33488">
        <time>2022-07-30T13:40:57Z</time>
      </trkpt>
      <trkpt lat="42.5589" lon="-0.33461">
        <time>2022-07-30T13:40:58Z</time>
      </trkpt>
      <trkpt lat="42.5591" lon="-0.33437">
        <time>2022-07-30T13:40:59Z</time>
      </trkpt>
      <trkpt lat="42.55933" lon="-0.33409">
        <time>2022-07-30T13:41:00Z</time>
      </trkpt>
      <trkpt lat="42.55954" lon="-0.33382">
        <time>2022-07-30T13:41:01Z</time>
      </trkpt>
      <trkpt lat="42.55976" lon="-0.33356">
        <time>2022-07-30T13:41:02Z</time>
      </trkpt>
      <trkpt lat="42.55997" lon="-0.33329">
        <time>2022-07-30T13:41:03Z</time>
      </trkpt>
      <trkpt lat="42.56017" lon="-0.33305">
        <time>2022-07-30T13:41:04Z</time>
      </trkpt>
      <trkpt lat="42.5604" lon="-0.33277">
        <time>2022-07-30T13:41:05Z</time>
      </trkpt>
      <trkpt lat="42.56061" lon="-0.33251">
        <time>2022-07-30T13:41:06Z</time>
      </trkpt>
      <trkpt lat="42.5608" lon="-0.33226">
        <time>2022-07-30T13:41:07Z</time>
      </trkpt>
      <trkpt lat="42.56102" lon="-0.33199">
        <time>2022-07-30T13:41:08Z</time>
      </trkpt>
      <trkpt lat="42.56123" lon="-0.33174">
        <time>2022-07-30T13:41:09Z</time>
      </trkpt>
      <trkpt lat="42.56143" lon="-0.33149">
        <time>2022-07-30T13:41:10Z</time>
      </trkpt>
      <trkpt lat="42.56164" lon="-0.33124">
        <time>2022-07-30T13:41:11Z</time>
      </trkpt>
      <trkpt lat="42.56184" lon="-0.33099">
        <time>2022-07-30T13:41:12Z</time>
      </trkpt>
      <trkpt lat="42.56204" lon="-0.33075">
        <time>2022-07-30T13:41:13Z</time>
      </trkpt>
      <trkpt lat="42.56225" lon="-0.33051">
        <time>2022-07-30T13:41:14Z</time>
      </trkpt>
      <trkpt lat="42.56245" lon="-0.33029">
        <time>2022-07-30T13:41:15Z</time>
      </trkpt>
      <trkpt lat="42.56269" lon="-0.33007">
        <time>2022-07-30T13:41:16Z</time>
      </trkpt>
      <trkpt lat="42.56293" lon="-0.32988">
        <time>2022-07-30T13:41:17Z</time>
      </trkpt>
      <trkpt lat="42.56317" lon="-0.3297">
        <time>2022-07-30T13:41:18Z</time>
      </trkpt>
      <trkpt lat="42.56342" lon="-0.32953">
        <time>2022-07-30T13:41:19Z</time>
      </trkpt>
      <trkpt lat="42.56365" lon="-0.32938">
        <time>2022-07-30T13:41:20Z</time>
      </trkpt>
      <trkpt lat="42.56391" lon="-0.32921">
        <time>2022-07-30T13:41:21Z</time>
      </trkpt>
      <trkpt lat="42.56416" lon="-0.32905">
        <time>2022-07-30T13:41:22Z</time>
      </trkpt>
      <trkpt lat="42.5644" lon="-0.3289">
        <time>2022-07-30T13:41:23Z</time>
      </trkpt>
      <trkpt lat="42.56464" lon="-0.32874">
        <time>2022-07-30T13:41:24Z</time>
      </trkpt>
      <trkpt lat="42.56488" lon="-0.32859">
        <time>2022-07-30T13:41:25Z</time>
      </trkpt>
      <trkpt lat="42.56511" lon="-0.32844">
        <time>2022-07-30T13:41:26Z</time>
      </trkpt>
      <trkpt lat="42.56535" lon="-0.32829">
        <time>2022-07-30T13:41:27Z</time>
      </trkpt>
      <trkpt lat="42.56557" lon="-0.32814">
        <time>2022-07-30T13:41:28Z</time>
      </trkpt>
      <trkpt lat="42.5658" lon="-0.32799">
        <time>2022-07-30T13:41:29Z</time>
      </trkpt>
      <trkpt lat="42.56603" lon="-0.32784">
        <time>2022-07-30T13:41:30Z</time>
      </trkpt>
      <trkpt lat="42.56626" lon="-0.32769">
        <time>2022-07-30T13:41:31Z</time>
      </trkpt>
      <trkpt lat="42.5665" lon="-0.32754">
        <time>2022-07-30T13:41:32Z</time>
      </trkpt>
      <trkpt lat="42.56673" lon="-0.3274">
        <time>2022-07-30T13:41:33Z</time>
      </trkpt>
      <trkpt lat="42.56695" lon="-0.32725">
        <time>2022-07-30T13:41:34Z</time>
      </trkpt>
      <trkpt lat="42.56718" lon="-0.3271">
        <time>2022-07-30T13:41:35Z</time>
      </trkpt>
      <trkpt lat="42.56739" lon="-0.32697">
        <time>2022-07-30T13:41:36Z</time>
      </trkpt>
      <trkpt lat="42.56762" lon="-0.32682">
        <time>2022-07-30T13:41:37Z</time>
      </trkpt>
      <trkpt lat="42.56784" lon="-0.32667">
        <time>2022-07-30T13:41:38Z</time>
      </trkpt>
      <trkpt lat="42.56806" lon="-0.32653">
        <time>2022-07-30T13:41:39Z</time>
      </trkpt>
      <trkpt lat="42.56827" lon="-0.32639">
        <time>2022-07-30T13:41:40Z</time>
      </trkpt>
      <trkpt lat="42.56848" lon="-0.32626">
        <time>2022-07-30T13:41:41Z</time>
      </trkpt>
      <trkpt lat="42.5687" lon="-0.32613">
        <time>2022-07-30T13:41:42Z</time>
      </trkpt>
      <trkpt lat="42.56891" lon="-0.326">
        <time>2022-07-30T13:41:43Z</time>
      </trkpt>
      <trkpt lat="42.56912" lon="-0.32588">
        <time>2022-07-30T13:41:44Z</time>
      </trkpt>
      <trkpt lat="42.56934" lon="-0.32576">
        <time>2022-07-30T13:41:45Z</time>
      </trkpt>
      <trkpt lat="42.56955" lon="-0.32566">
        <time>2022-07-30T13:41:46Z</time>
      </trkpt>
      <trkpt lat="42.56976" lon="-0.32557">
        <time>2022-07-30T13:41:47Z</time>
      </trkpt>
      <trkpt lat="42.56998" lon="-0.3255">
        <time>2022-07-30T13:41:48Z</time>
      </trkpt>
      <trkpt lat="42.57022" lon="-0.32543">
        <time>2022-07-30T13:41:49Z</time>
      </trkpt>
      <trkpt lat="42.57048" lon="-0.32538">
        <time>2022-07-30T13:41:50Z</time>
      </trkpt>
      <trkpt lat="42.57073" lon="-0.32532">
        <time>2022-07-30T13:41:51Z</time>
      </trkpt>
      <trkpt lat="42.57097" lon="-0.32528">
        <time>2022-07-30T13:41:52Z</time>
      </trkpt>
      <trkpt lat="42.57123" lon="-0.32523">
        <time>2022-07-30T13:41:53Z</time>
      </trkpt>
      <trkpt lat="42.57147" lon="-0.32519">
        <time>2022-07-30T13:41:54Z</time>
      </trkpt>
      <trkpt lat="42.57171" lon="-0.32515">
        <time>2022-07-30T13:41:55Z</time>
      </trkpt>
      <trkpt lat="42.57195" lon="-0.32511">
        <time>2022-07-30T13:41:56Z</time>
      </trkpt>
      <trkpt lat="42.57219" lon="-0.32506">
        <time>2022-07-30T13:41:57Z</time>
      </trkpt>
      <trkpt lat="42.57243" lon="-0.32501">
        <time>2022-07-30T13:41:58Z</time>
      </trkpt>
      <trkpt lat="42.57267" lon="-0.32495">
        <time>2022-07-30T13:41:59Z</time>
      </trkpt>
      <trkpt lat="42.57291" lon="-0.32489">
        <time>2022-07-30T13:42:00Z</time>
      </trkpt>
      <trkpt lat="42.57314" lon="-0.32482">
        <time>2022-07-30T13:42:01Z</time>
      </trkpt>
      <trkpt lat="42.57338" lon="-0.32475">
        <time>2022-07-30T13:42:02Z</time>
      </trkpt>
      <trkpt lat="42.57361" lon="-0.32467">
        <time>2022-07-30T13:42:03Z</time>
      </trkpt>
      <trkpt lat="42.57383" lon="-0.32459">
        <time>2022-07-30T13:42:04Z</time>
      </trkpt>
      <trkpt lat="42.57406" lon="-0.32451">
        <time>2022-07-30T13:42:05Z</time>
      </trkpt>
      <trkpt lat="42.57429" lon="-0.32443">
        <time>2022-07-30T13:42:06Z</time>
      </trkpt>
      <trkpt lat="42.57453" lon="-0.32435">
        <time>2022-07-30T13:42:07Z</time>
      </trkpt>
      <trkpt lat="42.57475" lon="-0.32429">
        <time>2022-07-30T13:42:08Z</time>
      </trkpt>
      <trkpt lat="42.575" lon="-0.32423">
        <time>2022-07-30T13:42:09Z</time>
      </trkpt>
      <trkpt lat="42.57522" lon="-0.32419">
        <time>2022-07-30T13:42:10Z</time>
      </trkpt>
      <trkpt lat="42.57544" lon="-0.32416">
        <time>2022-07-30T13:42:11Z</time>
      </trkpt>
      <trkpt lat="42.57569" lon="-0.32413">
        <time>2022-07-30T13:42:12Z</time>
      </trkpt>
      <trkpt lat="42.57591" lon="-0.32412">
        <time>2022-07-30T13:42:13Z</time>
      </trkpt>
      <trkpt lat="42.57614" lon="-0.32412">
        <time>2022-07-30T13:42:14Z</time>
      </trkpt>
      <trkpt lat="42.57636" lon="-0.32414">
        <time>2022-07-30T13:42:15Z</time>
      </trkpt>
      <trkpt lat="42.57659" lon="-0.32415">
        <time>2022-07-30T13:42:16Z</time>
      </trkpt>
      <trkpt lat="42.57681" lon="-0.32418">
        <time>2022-07-30T13:42:17Z</time>
      </trkpt>
      <trkpt lat="42.57702" lon="-0.32422">
        <time>2022-07-30T13:42:18Z</time>
      </trkpt>
      <trkpt lat="42.57721" lon="-0.32426">
        <time>2022-07-30T13:42:19Z</time>
      </trkpt>
      <trkpt lat="42.57741" lon="-0.32432">
        <time>2022-07-30T13:42:20Z</time>
      </trkpt>
      <trkpt lat="42.57759" lon="-0.32438">
        <time>2022-07-30T13:42:21Z</time>
      </trkpt>
      <trkpt lat="42.57777" lon="-0.32445">
        <time>2022-07-30T13:42:22Z</time>
      </trkpt>
      <trkpt lat="42.57795" lon="-0.32452">
        <time>2022-07-30T13:42:23Z</time>
      </trkpt>
      <trkpt lat="42.57813" lon="-0.32459">
        <time>2022-07-30T13:42:24Z</time>
      </trkpt>
      <trkpt lat="42.57832" lon="-0.32469">
        <time>2022-07-30T13:42:25Z</time>
      </trkpt>
      <trkpt lat="42.5785" lon="-0.32478">
        <time>2022-07-30T13:42:26Z</time>
      </trkpt>
      <trkpt lat="42.57867" lon="-0.32488">
        <time>2022-07-30T13:42:27Z</time>
      </trkpt>
      <trkpt lat="42.57886" lon="-0.32499">
        <time>2022-07-30T13:42:28Z</time>
      </trkpt>
      <trkpt lat="42.57903" lon="-0.3251">
        <time>2022-07-30T13:42:29Z</time>
      </trkpt>
      <trkpt lat="42.5792" lon="-0.32521">
        <time>2022-07-30T13:42:30Z</time>
      </trkpt>
      <trkpt lat="42.57937" lon="-0.32531">
        <time>2022-07-30T13:42:31Z</time>
      </trkpt>
      <trkpt lat="42.57953" lon="-0.32541">
        <time>2022-07-30T13:42:32Z</time>
      </trkpt>
      <trkpt lat="42.57969" lon="-0.32552">
        <time>2022-07-30T13:42:33Z</time>
      </trkpt>
      <trkpt lat="42.57985" lon="-0.32562">
        <time>2022-07-30T13:42:34Z</time>
      </trkpt>
      <trkpt lat="42.58" lon="-0.32571">
        <time>2022-07-30T13:42:35Z</time>
      </trkpt>
      <trkpt lat="42.58016" lon="-0.32581">
        <time>2022-07-30T13:42:36Z</time>
      </trkpt>
      <trkpt lat="42.58031" lon="-0.3259">
        <time>2022-07-30T13:42:37Z</time>
      </trkpt>
      <trkpt lat="42.58045" lon="-0.326">
        <time>2022-07-30T13:42:38Z</time>
      </trkpt>
      <trkpt lat="42.5806" lon="-0.3261">
        <time>2022-07-30T13:42:39Z</time>
      </trkpt>
      <trkpt lat="42.58074" lon="-0.32619">
        <time>2022-07-30T13:42:40Z</time>
      </trkpt>
      <trkpt lat="42.58091" lon="-0.32629">
        <time>2022-07-30T13:42:41Z</time>
      </trkpt>
      <trkpt lat="42.58107" lon="-0.32639">
        <time>2022-07-30T13:42:42Z</time>
      </trkpt>
      <trkpt lat="42.58122" lon="-0.32648">
        <time>2022-07-30T13:42:43Z</time>
      </trkpt>
      <trkpt lat="42.5814" lon="-0.32659">
        <time>2022-07-30T13:42:44Z</time>
      </trkpt>
      <trkpt lat="42.58157" lon="-0.32669">
        <time>2022-07-30T13:42:45Z</time>
      </trkpt>
      <trkpt lat="42.58175" lon="-0.32678">
        <time>2022-07-30T13:42:46Z</time>
      </trkpt>
      <trkpt lat="42.58194" lon="-0.32687">
        <time>2022-07-30T13:42:47Z</time>
      </trkpt>
      <trkpt lat="42.58212" lon="-0.32694">
        <time>2022-07-30T13:42:48Z</time>
      </trkpt>
      <trkpt lat="42.58231" lon="-0.327">
        <time>2022-07-30T13:42:49Z</time>
      </trkpt>
      <trkpt lat="42.58251" lon="-0.32705">
        <time>2022-07-30T13:42:50Z</time>
      </trkpt>
      <trkpt lat="42.58271" lon="-0.3271">
        <time>2022-07-30T13:42:51Z</time>
      </trkpt>
      <trkpt lat="42.58292" lon="-0.32713">
        <time>2022-07-30T13:42:52Z</time>
      </trkpt>
      <trkpt lat="42.58313" lon="-0.32715">
        <time>2022-07-30T13:42:53Z</time>
      </trkpt>
      <trkpt lat="42.58334" lon="-0.32716">
        <time>2022-07-30T13:42:54Z</time>
      </trkpt>
      <trkpt lat="42.58357" lon="-0.32717">
        <time>2022-07-30T13:42:55Z</time>
      </trkpt>
      <trkpt lat="42.58379" lon="-0.32717">
        <time>2022-07-30T13:42:56Z</time>
      </trkpt>
      <trkpt lat="42.58404" lon="-0.32716">
        <time>2022-07-30T13:42:57Z</time>
      </trkpt>
      <trkpt lat="42.58428" lon="-0.32716">
        <time>2022-07-30T13:42:58Z</time>
      </trkpt>
      <trkpt lat="42.58451" lon="-0.32715">
        <time>2022-07-30T13:42:59Z</time>
      </trkpt>
      <trkpt lat="42.58475" lon="-0.32715">
        <time>2022-07-30T13:43:00Z</time>
      </trkpt>
      <trkpt lat="42.58499" lon="-0.32715">
        <time>2022-07-30T13:43:01Z</time>
      </trkpt>
      <trkpt lat="42.58523" lon="-0.32715">
        <time>2022-07-30T13:43:02Z</time>
      </trkpt>
      <trkpt lat="42.58547" lon="-0.32714">
        <time>2022-07-30T13:43:03Z</time>
      </trkpt>
      <trkpt lat="42.58571" lon="-0.32714">
        <time>2022-07-30T13:43:04Z</time>
      </trkpt>
      <trkpt lat="42.58594" lon="-0.32714">
        <time>2022-07-30T13:43:05Z</time>
      </trkpt>
      <trkpt lat="42.58618" lon="-0.32713">
        <time>2022-07-30T13:43:06Z</time>
      </trkpt>
      <trkpt lat="42.58642" lon="-0.32713">
        <time>2022-07-30T13:43:07Z</time>
      </trkpt>
      <trkpt lat="42.58667" lon="-0.32713">
        <time>2022-07-30T13:43:08Z</time>
      </trkpt>
      <trkpt lat="42.58693" lon="-0.32714">
        <time>2022-07-30T13:43:09Z</time>
      </trkpt>
      <trkpt lat="42.58719" lon="-0.32714">
        <time>2022-07-30T13:43:10Z</time>
      </trkpt>
      <trkpt lat="42.58746" lon="-0.32714">
        <time>2022-07-30T13:43:11Z</time>
      </trkpt>
      <trkpt lat="42.58771" lon="-0.32713">
        <time>2022-07-30T13:43:12Z</time>
      </trkpt>
      <trkpt lat="42.588" lon="-0.32711">
        <time>2022-07-30T13:43:13Z</time>
      </trkpt>
      <trkpt lat="42.58826" lon="-0.3271">
        <time>2022-07-30T13:43:14Z</time>
      </trkpt>
      <trkpt lat="42.58851" lon="-0.3271">
        <time>2022-07-30T13:43:15Z</time>
      </trkpt>
      <trkpt lat="42.58877" lon="-0.32709">
        <time>2022-07-30T13:43:16Z</time>
      </trkpt>
      <trkpt lat="42.58901" lon="-0.32709">
        <time>2022-07-30T13:43:17Z</time>
      </trkpt>
      <trkpt lat="42.58925" lon="-0.32709">
        <time>2022-07-30T13:43:18Z</time>
      </trkpt>
      <trkpt lat="42.58949" lon="-0.32708">
        <time>2022-07-30T13:43:19Z</time>
      </trkpt>
      <trkpt lat="42.58971" lon="-0.32708">
        <time>2022-07-30T13:43:20Z</time>
      </trkpt>
      <trkpt lat="42.58993" lon="-0.32707">
        <time>2022-07-30T13:43:21Z</time>
      </trkpt>
      <trkpt lat="42.59015" lon="-0.32707">
        <time>2022-07-30T13:43:22Z</time>
      </trkpt>
      <trkpt lat="42.59036" lon="-0.32706">
        <time>2022-07-30T13:43:23Z</time>
      </trkpt>
      <trkpt lat="42.59057" lon="-0.32706">
        <time>2022-07-30T13:43:24Z</time>
      </trkpt>
      <trkpt lat="42.59077" lon="-0.32705">
        <time>2022-07-30T13:43:25Z</time>
      </trkpt>
      <trkpt lat="42.59097" lon="-0.32705">
        <time>2022-07-30T13:43:26Z</time>
      </trkpt>
      <trkpt lat="42.59116" lon="-0.32704">
        <time>2022-07-30T13:43:27Z</time>
      </trkpt>
      <trkpt lat="42.59135" lon="-0.32704">
        <time>2022-07-30T13:43:28Z</time>
      </trkpt>
      <trkpt lat="42.59156" lon="-0.32703">
        <time>2022-07-30T13:43:29Z</time>
      </trkpt>
      <trkpt lat="42.59176" lon="-0.32703">
        <time>2022-07-30T13:43:30Z</time>
      </trkpt>
      <trkpt lat="42.59196" lon="-0.32703">
        <time>2022-07-30T13:43:31Z</time>
      </trkpt>
      <trkpt lat="42.59216" lon="-0.32702">
        <time>2022-07-30T13:43:32Z</time>
      </trkpt>
      <trkpt lat="42.59236" lon="-0.32701">
        <time>2022-07-30T13:43:33Z</time>
      </trkpt>
      <trkpt lat="42.59256" lon="-0.32701">
        <time>2022-07-30T13:43:34Z</time>
      </trkpt>
      <trkpt lat="42.59277" lon="-0.327">
        <time>2022-07-30T13:43:35Z</time>
      </trkpt>
      <trkpt lat="42.59296" lon="-0.327">
        <time>2022-07-30T13:43:36Z</time>
      </trkpt>
      <trkpt lat="42.59316" lon="-0.32699">
        <time>2022-07-30T13:43:37Z</time>
      </trkpt>
      <trkpt lat="42.59335" lon="-0.32699">
        <time>2022-07-30T13:43:38Z</time>
      </trkpt>
      <trkpt lat="42.59353" lon="-0.32699">
        <time>2022-07-30T13:43:39Z</time>
      </trkpt>
      <trkpt lat="42.59373" lon="-0.32698">
        <time>2022-07-30T13:43:40Z</time>
      </trkpt>
      <trkpt lat="42.59391" lon="-0.32698">
        <time>2022-07-30T13:43:41Z</time>
      </trkpt>
      <trkpt lat="42.5941" lon="-0.32698">
        <time>2022-07-30T13:43:42Z</time>
      </trkpt>
      <trkpt lat="42.59429" lon="-0.32698">
        <time>2022-07-30T13:43:43Z</time>
      </trkpt>
      <trkpt lat="42.59448" lon="-0.32698">
        <time>2022-07-30T13:43:44Z</time>
      </trkpt>
      <trkpt lat="42.5947" lon="-0.32697">
        <time>2022-07-30T13:43:45Z</time>
      </trkpt>
      <trkpt lat="42.59491" lon="-0.32697">
        <time>2022-07-30T13:43:46Z</time>
      </trkpt>
      <trkpt lat="42.59512" lon="-0.32697">
        <time>2022-07-30T13:43:47Z</time>
      </trkpt>
      <trkpt lat="42.59537" lon="-0.32698">
        <time>2022-07-30T13:43:48Z</time>
      </trkpt>
      <trkpt lat="42.59561" lon="-0.32699">
        <time>2022-07-30T13:43:49Z</time>
      </trkpt>
      <trkpt lat="42.59587" lon="-0.32699">
        <time>2022-07-30T13:43:50Z</time>
      </trkpt>
      <trkpt lat="42.59612" lon="-0.32698">
        <time>2022-07-30T13:43:51Z</time>
      </trkpt>
      <trkpt lat="42.59636" lon="-0.32697">
        <time>2022-07-30T13:43:52Z</time>
      </trkpt>
      <trkpt lat="42.59661" lon="-0.32696">
        <time>2022-07-30T13:43:53Z</time>
      </trkpt>
      <trkpt lat="42.59685" lon="-0.32696">
        <time>2022-07-30T13:43:54Z</time>
      </trkpt>
      <trkpt lat="42.59708" lon="-0.32695">
        <time>2022-07-30T13:43:55Z</time>
      </trkpt>
      <trkpt lat="42.59733" lon="-0.32695">
        <time>2022-07-30T13:43:56Z</time>
      </trkpt>
      <trkpt lat="42.59757" lon="-0.32695">
        <time>2022-07-30T13:43:57Z</time>
      </trkpt>
      <trkpt lat="42.5978" lon="-0.32695">
        <time>2022-07-30T13:43:58Z</time>
      </trkpt>
      <trkpt lat="42.59803" lon="-0.32695">
        <time>2022-07-30T13:43:59Z</time>
      </trkpt>
      <trkpt lat="42.59824" lon="-0.32695">
        <time>2022-07-30T13:44:00Z</time>
      </trkpt>
      <trkpt lat="42.59848" lon="-0.32694">
        <time>2022-07-30T13:44:01Z</time>
      </trkpt>
      <trkpt lat="42.59871" lon="-0.32694">
        <time>2022-07-30T13:44:02Z</time>
      </trkpt>
      <trkpt lat="42.59892" lon="-0.32694">
        <time>2022-07-30T13:44:03Z</time>
      </trkpt>
      <trkpt lat="42.59916" lon="-0.32695">
        <time>2022-07-30T13:44:04Z</time>
      </trkpt>
      <trkpt lat="42.59937" lon="-0.32696">
        <time>2022-07-30T13:44:05Z</time>
      </trkpt>
      <trkpt lat="42.59959" lon="-0.32699">
        <time>2022-07-30T13:44:06Z</time>
      </trkpt>
      <trkpt lat="42.5998" lon="-0.32703">
        <time>2022-07-30T13:44:07Z</time>
      </trkpt>
      <trkpt lat="42.60001" lon="-0.32709">
        <time>2022-07-30T13:44:08Z</time>
      </trkpt>
      <trkpt lat="42.60022" lon="-0.32716">
        <time>2022-07-30T13:44:09Z</time>
      </trkpt>
      <trkpt lat="42.60043" lon="-0.32724">
        <time>2022-07-30T13:44:10Z</time>
      </trkpt>
      <trkpt lat="42.60064" lon="-0.32731">
        <time>2022-07-30T13:44:11Z</time>
      </trkpt>
      <trkpt lat="42.60088" lon="-0.3274">
        <time>2022-07-30T13:44:12Z</time>
      </trkpt>
      <trkpt lat="42.60112" lon="-0.32749">
        <time>2022-07-30T13:44:13Z</time>
      </trkpt>
      <trkpt lat="42.60137" lon="-0.32758">
        <time>2022-07-30T13:44:14Z</time>
      </trkpt>
      <trkpt lat="42.60163" lon="-0.32766">
        <time>2022-07-30T13:44:15Z</time>
      </trkpt>
      <trkpt lat="42.60188" lon="-0.32774">
        <time>2022-07-30T13:44:16Z</time>
      </trkpt>
      <trkpt lat="42.60217" lon="-0.32784">
        <time>2022-07-30T13:44:17Z</time>
      </trkpt>
      <trkpt lat="42.60246" lon="-0.32793">
        <time>2022-07-30T13:44:18Z</time>
      </trkpt>
      <trkpt lat="42.60273" lon="-0.32801">
        <time>2022-07-30T13:44:19Z</time>
      </trkpt>
      <trkpt lat="42.60305" lon="-0.32809">
        <time>2022-07-30T13:44:20Z</time>
      </trkpt>
      <trkpt lat="42.60335" lon="-0.32813">
        <time>2022-07-30T13:44:21Z</time>
      </trkpt>
      <trkpt lat="42.60366" lon="-0.32814">
        <time>2022-07-30T13:44:22Z</time>
      </trkpt>
      <trkpt lat="42.60398" lon="-0.32813">
        <time>2022-07-30T13:44:23Z</time>
      </trkpt>
      <trkpt lat="42.6043" lon="-0.32812">
        <time>2022-07-30T13:44:24Z</time>
      </trkpt>
      <trkpt lat="42.60462" lon="-0.3281">
        <time>2022-07-30T13:44:25Z</time>
      </trkpt>
      <trkpt lat="42.60494" lon="-0.32809">
        <time>2022-07-30T13:44:26Z</time>
      </trkpt>
      <trkpt lat="42.60526" lon="-0.32807">
        <time>2022-07-30T13:44:27Z</time>
      </trkpt>
      <trkpt lat="42.60557" lon="-0.32806">
        <time>2022-07-30T13:44:28Z</time>
      </trkpt>
      <trkpt lat="42.60589" lon="-0.32805">
        <time>2022-07-30T13:44:29Z</time>
      </trkpt>
      <trkpt lat="42.6062" lon="-0.32803">
        <time>2022-07-30T13:44:30Z</time>
      </trkpt>
      <trkpt lat="42.60651" lon="-0.32802">
        <time>2022-07-30T13:44:31Z</time>
      </trkpt>
      <trkpt lat="42.60681" lon="-0.328">
        <time>2022-07-30T13:44:32Z</time>
      </trkpt>
      <trkpt lat="42.60715" lon="-0.32799">
        <time>2022-07-30T13:44:33Z</time>
      </trkpt>
      <trkpt lat="42.60746" lon="-0.32797">
        <time>2022-07-30T13:44:34Z</time>
      </trkpt>
      <trkpt lat="42.60778" lon="-0.32796">
        <time>2022-07-30T13:44:35Z</time>
      </trkpt>
      <trkpt lat="42.6081" lon="-0.32794">
        <time>2022-07-30T13:44:36Z</time>
      </trkpt>
      <trkpt lat="42.60842" lon="-0.32793">
        <time>2022-07-30T13:44:37Z</time>
      </trkpt>
      <trkpt lat="42.60873" lon="-0.32791">
        <time>2022-07-30T13:44:38Z</time>
      </trkpt>
      <trkpt lat="42.60905" lon="-0.3279">
        <time>2022-07-30T13:44:39Z</time>
      </trkpt>
      <trkpt lat="42.60936" lon="-0.32788">
        <time>2022-07-30T13:44:40Z</time>
      </trkpt>
      <trkpt lat="42.60967" lon="-0.32786">
        <time>2022-07-30T13:44:41Z</time>
      </trkpt>
      <trkpt lat="42.60999" lon="-0.32785">
        <time>2022-07-30T13:44:42Z</time>
      </trkpt>
      <trkpt lat="42.6103" lon="-0.32783">
        <time>2022-07-30T13:44:43Z</time>
      </trkpt>
      <trkpt lat="42.61061" lon="-0.32781">
        <time>2022-07-30T13:44:44Z</time>
      </trkpt>
      <trkpt lat="42.61093" lon="-0.3278">
        <time>2022-07-30T13:44:45Z</time>
      </trkpt>
      <trkpt lat="42.61123" lon="-0.32778">
        <time>2022-07-30T13:44:46Z</time>
      </trkpt>
      <trkpt lat="42.61154" lon="-0.32777">
        <time>2022-07-30T13:44:47Z</time>
      </trkpt>
      <trkpt lat="42.61182" lon="-0.32776">
        <time>2022-07-30T13:44:48Z</time>
      </trkpt>
      <trkpt lat="42.61213" lon="-0.32774">
        <time>2022-07-30T13:44:49Z</time>
      </trkpt>
      <trkpt lat="42.61242" lon="-0.32773">
        <time>2022-07-30T13:44:50Z</time>
      </trkpt>
      <trkpt lat="42.61269" lon="-0.32772">
        <time>2022-07-30T13:44:51Z</time>
      </trkpt>
      <trkpt lat="42.61295" lon="-0.32771">
        <time>2022-07-30T13:44:52Z</time>
      </trkpt>
      <trkpt lat="42.61321" lon="-0.32769">
        <time>2022-07-30T13:44:53Z</time>
      </trkpt>
      <trkpt lat="42.61347" lon="-0.32768">
        <time>2022-07-30T13:44:54Z</time>
      </trkpt>
      <trkpt lat="42.61371" lon="-0.32767">
        <time>2022-07-30T13:44:55Z</time>
      </trkpt>
      <trkpt lat="42.61395" lon="-0.32766">
        <time>2022-07-30T13:44:56Z</time>
      </trkpt>
      <trkpt lat="42.61419" lon="-0.32765">
        <time>2022-07-30T13:44:57Z</time>
      </trkpt>
      <trkpt lat="42.61441" lon="-0.32764">
        <time>2022-07-30T13:44:58Z</time>
      </trkpt>
      <trkpt lat="42.61464" lon="-0.32763">
        <time>2022-07-30T13:44:59Z</time>
      </trkpt>
      <trkpt lat="42.61486" lon="-0.32762">
        <time>2022-07-30T13:45:00Z</time>
      </trkpt>
      <trkpt lat="42.61507" lon="-0.32761">
        <time>2022-07-30T13:45:01Z</time>
      </trkpt>
      <trkpt lat="42.61529" lon="-0.3276">
        <time>2022-07-30T13:45:02Z</time>
      </trkpt>
      <trkpt lat="42.61552" lon="-0.32759">
        <time>2022-07-30T13:45:03Z</time>
      </trkpt>
      <trkpt lat="42.61572" lon="-0.32758">
        <time>2022-07-30T13:45:04Z</time>
      </trkpt>
      <trkpt lat="42.61595" lon="-0.32756">
        <time>2022-07-30T13:45:05Z</time>
      </trkpt>
      <trkpt lat="42.61617" lon="-0.32755">
        <time>2022-07-30T13:45:06Z</time>
      </trkpt>
      <trkpt lat="42.61637" lon="-0.32754">
        <time>2022-07-30T13:45:07Z</time>
      </trkpt>
      <trkpt lat="42.6166" lon="-0.32753">
        <time>2022-07-30T13:45:08Z</time>
      </trkpt>
      <trkpt lat="42.61681" lon="-0.32752">
        <time>2022-07-30T13:45:09Z</time>
      </trkpt>
      <trkpt lat="42.61703" lon="-0.32751">
        <time>2022-07-30T13:45:10Z</time>
      </trkpt>
      <trkpt lat="42.61725" lon="-0.3275">
        <time>2022-07-30T13:45:11Z</time>
      </trkpt>
      <trkpt lat="42.61747" lon="-0.32748">
        <time>2022-07-30T13:45:12Z</time>
      </trkpt>
      <trkpt lat="42.61769" lon="-0.32747">
        <time>2022-07-30T13:45:13Z</time>
      </trkpt>
      <trkpt lat="42.61791" lon="-0.32746">
        <time>2022-07-30T13:45:14Z</time>
      </trkpt>
      <trkpt lat="42.61813" lon="-0.32745">
        <time>2022-07-30T13:45:15Z</time>
      </trkpt>
      <trkpt lat="42.61837" lon="-0.32744">
        <time>2022-07-30T13:45:16Z</time>
      </trkpt>
      <trkpt lat="42.61859" lon="-0.32743">
        <time>2022-07-30T13:45:17Z</time>
      </trkpt>
      <trkpt lat="42.6188" lon="-0.32742">
        <time>2022-07-30T13:45:18Z</time>
      </trkpt>
      <trkpt lat="42.619" lon="-0.32742">
        <time>2022-07-30T13:45:19Z</time>
      </trkpt>
      <trkpt lat="42.61919" lon="-0.32741">
        <time>2022-07-30T13:45:20Z</time>
      </trkpt>
      <trkpt lat="42.61939" lon="-0.32741">
        <time>2022-07-30T13:45:21Z</time>
      </trkpt>
      <trkpt lat="42.61958" lon="-0.32741">
        <time>2022-07-30T13:45:22Z</time>
      </trkpt>
      <trkpt lat="42.61976" lon="-0.32741">
        <time>2022-07-30T13:45:23Z</time>
      </trkpt>
      <trkpt lat="42.61996" lon="-0.32741">
        <time>2022-07-30T13:45:24Z</time>
      </trkpt>
      <trkpt lat="42.62014" lon="-0.32741">
        <time>2022-07-30T13:45:25Z</time>
      </trkpt>
      <trkpt lat="42.62032" lon="-0.32741">
        <time>2022-07-30T13:45:26Z</time>
      </trkpt>
      <trkpt lat="42.6205" lon="-0.32741">
        <time>2022-07-30T13:45:27Z</time>
      </trkpt>
      <trkpt lat="42.6207" lon="-0.32742">
        <time>2022-07-30T13:45:28Z</time>
      </trkpt>
      <trkpt lat="42.62089" lon="-0.32742">
        <time>2022-07-30T13:45:29Z</time>
      </trkpt>
      <trkpt lat="42.62108" lon="-0.32742">
        <time>2022-07-30T13:45:30Z</time>
      </trkpt>
      <trkpt lat="42.62126" lon="-0.32742">
        <time>2022-07-30T13:45:31Z</time>
      </trkpt>
      <trkpt lat="42.62146" lon="-0.32742">
        <time>2022-07-30T13:45:32Z</time>
      </trkpt>
      <trkpt lat="42.62165" lon="-0.32742">
        <time>2022-07-30T13:45:33Z</time>
      </trkpt>
      <trkpt lat="42.62184" lon="-0.32743">
        <time>2022-07-30T13:45:34Z</time>
      </trkpt>
      <trkpt lat="42.62203" lon="-0.32743">
        <time>2022-07-30T13:45:35Z</time>
      </trkpt>
      <trkpt lat="42.62222" lon="-0.32743">
        <time>2022-07-30T13:45:36Z</time>
      </trkpt>
      <trkpt lat="42.62242" lon="-0.32743">
        <time>2022-07-30T13:45:37Z</time>
      </trkpt>
      <trkpt lat="42.62262" lon="-0.32743">
        <time>2022-07-30T13:45:38Z</time>
      </trkpt>
      <trkpt lat="42.62281" lon="-0.32743">
        <time>2022-07-30T13:45:39Z</time>
      </trkpt>
      <trkpt lat="42.62302" lon="-0.32744">
        <time>2022-07-30T13:45:40Z</time>
      </trkpt>
      <trkpt lat="42.62323" lon="-0.32744">
        <time>2022-07-30T13:45:41Z</time>
      </trkpt>
      <trkpt lat="42.62343" lon="-0.32744">
        <time>2022-07-30T13:45:42Z</time>
      </trkpt>
      <trkpt lat="42.62363" lon="-0.32744">
        <time>2022-07-30T13:45:43Z</time>
      </trkpt>
      <trkpt lat="42.62384" lon="-0.32745">
        <time>2022-07-30T13:45:44Z</time>
      </trkpt>
      <trkpt lat="42.62405" lon="-0.32746">
        <time>2022-07-30T13:45:45Z</time>
      </trkpt>
      <trkpt lat="42.62427" lon="-0.32748">
        <time>2022-07-30T13:45:46Z</time>
      </trkpt>
      <trkpt lat="42.6245" lon="-0.32748">
        <time>2022-07-30T13:45:47Z</time>
      </trkpt>
      <trkpt lat="42.62476" lon="-0.32747">
        <time>2022-07-30T13:45:48Z</time>
      </trkpt>
      <trkpt lat="42.62501" lon="-0.32747">
        <time>2022-07-30T13:45:49Z</time>
      </trkpt>
      <trkpt lat="42.62525" lon="-0.32746">
        <time>2022-07-30T13:45:50Z</time>
      </trkpt>
      <trkpt lat="42.62549" lon="-0.32746">
        <time>2022-07-30T13:45:51Z</time>
      </trkpt>
      <trkpt lat="42.62572" lon="-0.32747">
        <time>2022-07-30T13:45:52Z</time>
      </trkpt>
      <trkpt lat="42.62597" lon="-0.32747">
        <time>2022-07-30T13:45:53Z</time>
      </trkpt>
      <trkpt lat="42.62621" lon="-0.32747">
        <time>2022-07-30T13:45:54Z</time>
      </trkpt>
      <trkpt lat="42.62644" lon="-0.32747">
        <time>2022-07-30T13:45:55Z</time>
      </trkpt>
      <trkpt lat="42.62668" lon="-0.32747">
        <time>2022-07-30T13:45:56Z</time>
      </trkpt>
      <trkpt lat="42.62692" lon="-0.32748">
        <time>2022-07-30T13:45:57Z</time>
      </trkpt>
      <trkpt lat="42.62716" lon="-0.32748">
        <time>2022-07-30T13:45:58Z</time>
      </trkpt>
      <trkpt lat="42.6274" lon="-0.32748">
        <time>2022-07-30T13:45:59Z</time>
      </trkpt>
      <trkpt lat="42.62764" lon="-0.32749">
        <time>2022-07-30T13:46:00Z</time>
      </trkpt>
      <trkpt lat="42.62787" lon="-0.32749">
        <time>2022-07-30T13:46:01Z</time>
      </trkpt>
      <trkpt lat="42.6281" lon="-0.32749">
        <time>2022-07-30T13:46:02Z</time>
      </trkpt>
      <trkpt lat="42.62832" lon="-0.32749">
        <time>2022-07-30T13:46:03Z</time>
      </trkpt>
      <trkpt lat="42.62852" lon="-0.32748">
        <time>2022-07-30T13:46:04Z</time>
      </trkpt>
      <trkpt lat="42.62872" lon="-0.32747">
        <time>2022-07-30T13:46:05Z</time>
      </trkpt>
      <trkpt lat="42.6289" lon="-0.32744">
        <time>2022-07-30T13:46:06Z</time>
      </trkpt>
      <trkpt lat="42.62908" lon="-0.3274">
        <time>2022-07-30T13:46:07Z</time>
      </trkpt>
      <trkpt lat="42.62925" lon="-0.32736">
        <time>2022-07-30T13:46:08Z</time>
      </trkpt>
      <trkpt lat="42.62943" lon="-0.32732">
        <time>2022-07-30T13:46:09Z</time>
      </trkpt>
      <trkpt lat="42.62959" lon="-0.32728">
        <time>2022-07-30T13:46:10Z</time>
      </trkpt>
      <trkpt lat="42.62974" lon="-0.32725">
        <time>2022-07-30T13:46:11Z</time>
      </trkpt>
      <trkpt lat="42.62988" lon="-0.32723">
        <time>2022-07-30T13:46:12Z</time>
      </trkpt>
      <trkpt lat="42.63001" lon="-0.32721">
        <time>2022-07-30T13:46:13Z</time>
      </trkpt>
      <trkpt lat="42.63014" lon="-0.32722">
        <time>2022-07-30T13:46:14Z</time>
      </trkpt>
      <trkpt lat="42.63027" lon="-0.32726">
        <time>2022-07-30T13:46:15Z</time>
      </trkpt>
      <trkpt lat="42.63039" lon="-0.32732">
        <time>2022-07-30T13:46:16Z</time>
      </trkpt>
      <trkpt lat="42.63051" lon="-0.32741">
        <time>2022-07-30T13:46:17Z</time>
      </trkpt>
      <trkpt lat="42.63063" lon="-0.32752">
        <time>2022-07-30T13:46:18Z</time>
      </trkpt>
      <trkpt lat="42.63075" lon="-0.32763">
        <time>2022-07-30T13:46:19Z</time>
      </trkpt>
      <trkpt lat="42.63088" lon="-0.32772">
        <time>2022-07-30T13:46:20Z</time>
      </trkpt>
      <trkpt lat="42.63103" lon="-0.32779">
        <time>2022-07-30T13:46:21Z</time>
      </trkpt>
      <trkpt lat="42.63118" lon="-0.32785">
        <time>2022-07-30T13:46:22Z</time>
      </trkpt>
      <trkpt lat="42.63134" lon="-0.32788">
        <time>2022-07-30T13:46:23Z</time>
      </trkpt>
      <trkpt lat="42.63149" lon="-0.32789">
        <time>2022-07-30T13:46:24Z</time>
      </trkpt>
      <trkpt lat="42.63167" lon="-0.3279">
        <time>2022-07-30T13:46:25Z</time>
      </trkpt>
      <trkpt lat="42.63184" lon="-0.3279">
        <time>2022-07-30T13:46:26Z</time>
      </trkpt>
      <trkpt lat="42.63199" lon="-0.32791">
        <time>2022-07-30T13:46:27Z</time>
      </trkpt>
      <trkpt lat="42.63216" lon="-0.32791">
        <time>2022-07-30T13:46:28Z</time>
      </trkpt>
      <trkpt lat="42.63232" lon="-0.32791">
        <time>2022-07-30T13:46:29Z</time>
      </trkpt>
      <trkpt lat="42.63249" lon="-0.3279">
        <time>2022-07-30T13:46:30Z</time>
      </trkpt>
      <trkpt lat="42.63265" lon="-0.32787">
        <time>2022-07-30T13:46:31Z</time>
      </trkpt>
      <trkpt lat="42.63282" lon="-0.32783">
        <time>2022-07-30T13:46:32Z</time>
      </trkpt>
      <trkpt lat="42.63297" lon="-0.32778">
        <time>2022-07-30T13:46:33Z</time>
      </trkpt>
      <trkpt lat="42.63312" lon="-0.32772">
        <time>2022-07-30T13:46:34Z</time>
      </trkpt>
      <trkpt lat="42.63325" lon="-0.32765">
        <time>2022-07-30T13:46:35Z</time>
      </trkpt>
      <trkpt lat="42.6334" lon="-0.32757">
        <time>2022-07-30T13:46:36Z</time>
      </trkpt>
      <trkpt lat="42.63355" lon="-0.32748">
        <time>2022-07-30T13:46:37Z</time>
      </trkpt>
      <trkpt lat="42.6337" lon="-0.3274">
        <time>2022-07-30T13:46:38Z</time>
      </trkpt>
      <trkpt lat="42.63385" lon="-0.32732">
        <time>2022-07-30T13:46:39Z</time>
      </trkpt>
      <trkpt lat="42.63399" lon="-0.32725">
        <time>2022-07-30T13:46:40Z</time>
      </trkpt>
      <trkpt lat="42.63416" lon="-0.32721">
        <time>2022-07-30T13:46:41Z</time>
      </trkpt>
      <trkpt lat="42.63431" lon="-0.32719">
        <time>2022-07-30T13:46:42Z</time>
      </trkpt>
      <trkpt lat="42.63445" lon="-0.32721">
        <time>2022-07-30T13:46:43Z</time>
      </trkpt>
      <trkpt lat="42.6346" lon="-0.32724">
        <time>2022-07-30T13:46:44Z</time>
      </trkpt>
      <trkpt lat="42.63474" lon="-0.32727">
        <time>2022-07-30T13:46:45Z</time>
      </trkpt>
      <trkpt lat="42.63488" lon="-0.3273">
        <time>2022-07-30T13:46:46Z</time>
      </trkpt>
      <trkpt lat="42.63502" lon="-0.32732">
        <time>2022-07-30T13:46:47Z</time>
      </trkpt>
      <trkpt lat="42.63516" lon="-0.32734">
        <time>2022-07-30T13:46:48Z</time>
      </trkpt>
      <trkpt lat="42.63529" lon="-0.32733">
        <time>2022-07-30T13:46:49Z</time>
      </trkpt>
      <trkpt lat="42.63543" lon="-0.32731">
        <time>2022-07-30T13:46:50Z</time>
      </trkpt>
      <trkpt lat="42.63554" lon="-0.32726">
        <time>2022-07-30T13:46:51Z</time>
      </trkpt>
      <trkpt lat="42.63567" lon="-0.32719">
        <time>2022-07-30T13:46:52Z</time>
      </trkpt>
      <trkpt lat="42.63579" lon="-0.3271">
        <time>2022-07-30T13:46:53Z</time>
      </trkpt>
      <trkpt lat="42.63591" lon="-0.32699">
        <time>2022-07-30T13:46:54Z</time>
      </trkpt>
      <trkpt lat="42.63601" lon="-0.32688">
        <time>2022-07-30T13:46:55Z</time>
      </trkpt>
      <trkpt lat="42.63611" lon="-0.32676">
        <time>2022-07-30T13:46:56Z</time>
      </trkpt>
      <trkpt lat="42.63623" lon="-0.32663">
        <time>2022-07-30T13:46:57Z</time>
      </trkpt>
      <trkpt lat="42.63636" lon="-0.3265">
        <time>2022-07-30T13:46:58Z</time>
      </trkpt>
      <trkpt lat="42.63649" lon="-0.32638">
        <time>2022-07-30T13:46:59Z</time>
      </trkpt>
      <trkpt lat="42.63665" lon="-0.32628">
        <time>2022-07-30T13:47:00Z</time>
      </trkpt>
      <trkpt lat="42.63682" lon="-0.32621">
        <time>2022-07-30T13:47:01Z</time>
      </trkpt>
      <trkpt lat="42.63702" lon="-0.32617">
        <time>2022-07-30T13:47:02Z</time>
      </trkpt>
      <trkpt lat="42.63723" lon="-0.32615">
        <time>2022-07-30T13:47:03Z</time>
      </trkpt>
      <trkpt lat="42.63745" lon="-0.32613">
        <time>2022-07-30T13:47:04Z</time>
      </trkpt>
      <trkpt lat="42.63766" lon="-0.32611">
        <time>2022-07-30T13:47:05Z</time>
      </trkpt>
      <trkpt lat="42.63787" lon="-0.32608">
        <time>2022-07-30T13:47:06Z</time>
      </trkpt>
      <trkpt lat="42.63806" lon="-0.32605">
        <time>2022-07-30T13:47:07Z</time>
      </trkpt>
      <trkpt lat="42.63827" lon="-0.326">
        <time>2022-07-30T13:47:08Z</time>
      </trkpt>
      <trkpt lat="42.63847" lon="-0.32594">
        <time>2022-07-30T13:47:09Z</time>
      </trkpt>
      <trkpt lat="42.63865" lon="-0.32587">
        <time>2022-07-30T13:47:10Z</time>
      </trkpt>
      <trkpt lat="42.63883" lon="-0.32579">
        <time>2022-07-30T13:47:11Z</time>
      </trkpt>
      <trkpt lat="42.63899" lon="-0.3257">
        <time>2022-07-30T13:47:12Z</time>
      </trkpt>
      <trkpt lat="42.63916" lon="-0.32561">
        <time>2022-07-30T13:47:13Z</time>
      </trkpt>
      <trkpt lat="42.63932" lon="-0.32552">
        <time>2022-07-30T13:47:14Z</time>
      </trkpt>
      <trkpt lat="42.63946" lon="-0.32544">
        <time>2022-07-30T13:47:15Z</time>
      </trkpt>
      <trkpt lat="42.63962" lon="-0.32535">
        <time>2022-07-30T13:47:16Z</time>
      </trkpt>
      <trkpt lat="42.63976" lon="-0.32525">
        <time>2022-07-30T13:47:17Z</time>
      </trkpt>
      <trkpt lat="42.6399" lon="-0.32516">
        <time>2022-07-30T13:47:18Z</time>
      </trkpt>
      <trkpt lat="42.64005" lon="-0.32506">
        <time>2022-07-30T13:47:19Z</time>
      </trkpt>
      <trkpt lat="42.64019" lon="-0.32495">
        <time>2022-07-30T13:47:20Z</time>
      </trkpt>
      <trkpt lat="42.64032" lon="-0.32483">
        <time>2022-07-30T13:47:21Z</time>
      </trkpt>
      <trkpt lat="42.64044" lon="-0.32469">
        <time>2022-07-30T13:47:22Z</time>
      </trkpt>
      <trkpt lat="42.64057" lon="-0.32455">
        <time>2022-07-30T13:47:23Z</time>
      </trkpt>
      <trkpt lat="42.64069" lon="-0.32441">
        <time>2022-07-30T13:47:24Z</time>
      </trkpt>
      <trkpt lat="42.64081" lon="-0.32427">
        <time>2022-07-30T13:47:25Z</time>
      </trkpt>
      <trkpt lat="42.64093" lon="-0.32413">
        <time>2022-07-30T13:47:26Z</time>
      </trkpt>
      <trkpt lat="42.64105" lon="-0.32401">
        <time>2022-07-30T13:47:27Z</time>
      </trkpt>
      <trkpt lat="42.64117" lon="-0.32391">
        <time>2022-07-30T13:47:28Z</time>
      </trkpt>
      <trkpt lat="42.64131" lon="-0.32381">
        <time>2022-07-30T13:47:29Z</time>
      </trkpt>
      <trkpt lat="42.64146" lon="-0.32374">
        <time>2022-07-30T13:47:30Z</time>
      </trkpt>
      <trkpt lat="42.64162" lon="-0.32369">
        <time>2022-07-30T13:47:31Z</time>
      </trkpt>
      <trkpt lat="42.64179" lon="-0.32367">
        <time>2022-07-30T13:47:32Z</time>
      </trkpt>
      <trkpt lat="42.64197" lon="-0.32367">
        <time>2022-07-30T13:47:33Z</time>
      </trkpt>
      <trkpt lat="42.64213" lon="-0.32371">
        <time>2022-07-30T13:47:34Z</time>
      </trkpt>
      <trkpt lat="42.64231" lon="-0.32376">
        <time>2022-07-30T13:47:35Z</time>
      </trkpt>
      <trkpt lat="42.64248" lon="-0.32384">
        <time>2022-07-30T13:47:36Z</time>
      </trkpt>
      <trkpt lat="42.64265" lon="-0.32392">
        <time>2022-07-30T13:47:37Z</time>
      </trkpt>
      <trkpt lat="42.64283" lon="-0.324">
        <time>2022-07-30T13:47:38Z</time>
      </trkpt>
      <trkpt lat="42.64301" lon="-0.32406">
        <time>2022-07-30T13:47:39Z</time>
      </trkpt>
      <trkpt lat="42.64319" lon="-0.32409">
        <time>2022-07-30T13:47:40Z</time>
      </trkpt>
      <trkpt lat="42.64337" lon="-0.3241">
        <time>2022-07-30T13:47:41Z</time>
      </trkpt>
      <trkpt lat="42.64355" lon="-0.32408">
        <time>2022-07-30T13:47:42Z</time>
      </trkpt>
      <trkpt lat="42.64374" lon="-0.32404">
        <time>2022-07-30T13:47:43Z</time>
      </trkpt>
      <trkpt lat="42.64391" lon="-0.32399">
        <time>2022-07-30T13:47:44Z</time>
      </trkpt>
      <trkpt lat="42.64411" lon="-0.32393">
        <time>2022-07-30T13:47:45Z</time>
      </trkpt>
      <trkpt lat="42.64429" lon="-0.32387">
        <time>2022-07-30T13:47:46Z</time>
      </trkpt>
      <trkpt lat="42.64445" lon="-0.32382">
        <time>2022-07-30T13:47:47Z</time>
      </trkpt>
      <trkpt lat="42.64464" lon="-0.32375">
        <time>2022-07-30T13:47:48Z</time>
      </trkpt>
      <trkpt lat="42.64479" lon="-0.32369">
        <time>2022-07-30T13:47:49Z</time>
      </trkpt>
      <trkpt lat="42.64495" lon="-0.32363">
        <time>2022-07-30T13:47:50Z</time>
      </trkpt>
      <trkpt lat="42.64509" lon="-0.32357">
        <time>2022-07-30T13:47:51Z</time>
      </trkpt>
      <trkpt lat="42.64523" lon="-0.3235">
        <time>2022-07-30T13:47:52Z</time>
      </trkpt>
      <trkpt lat="42.64536" lon="-0.32341">
        <time>2022-07-30T13:47:53Z</time>
      </trkpt>
      <trkpt lat="42.64549" lon="-0.3233">
        <time>2022-07-30T13:47:54Z</time>
      </trkpt>
      <trkpt lat="42.6456" lon="-0.32317">
        <time>2022-07-30T13:47:55Z</time>
      </trkpt>
      <trkpt lat="42.64571" lon="-0.32301">
        <time>2022-07-30T13:47:56Z</time>
      </trkpt>
      <trkpt lat="42.64582" lon="-0.32284">
        <time>2022-07-30T13:47:57Z</time>
      </trkpt>
      <trkpt lat="42.64593" lon="-0.32265">
        <time>2022-07-30T13:47:58Z</time>
      </trkpt>
      <trkpt lat="42.64606" lon="-0.32248">
        <time>2022-07-30T13:47:59Z</time>
      </trkpt>
      <trkpt lat="42.6462" lon="-0.32233">
        <time>2022-07-30T13:48:00Z</time>
      </trkpt>
      <trkpt lat="42.64636" lon="-0.32217">
        <time>2022-07-30T13:48:01Z</time>
      </trkpt>
      <trkpt lat="42.64653" lon="-0.32204">
        <time>2022-07-30T13:48:02Z</time>
      </trkpt>
      <trkpt lat="42.6467" lon="-0.32192">
        <time>2022-07-30T13:48:03Z</time>
      </trkpt>
      <trkpt lat="42.6469" lon="-0.3218">
        <time>2022-07-30T13:48:04Z</time>
      </trkpt>
      <trkpt lat="42.64707" lon="-0.32168">
        <time>2022-07-30T13:48:05Z</time>
      </trkpt>
      <trkpt lat="42.64724" lon="-0.32156">
        <time>2022-07-30T13:48:06Z</time>
      </trkpt>
      <trkpt lat="42.6474" lon="-0.32143">
        <time>2022-07-30T13:48:07Z</time>
      </trkpt>
      <trkpt lat="42.64755" lon="-0.32129">
        <time>2022-07-30T13:48:08Z</time>
      </trkpt>
      <trkpt lat="42.64769" lon="-0.32114">
        <time>2022-07-30T13:48:09Z</time>
      </trkpt>
      <trkpt lat="42.64783" lon="-0.32099">
        <time>2022-07-30T13:48:10Z</time>
      </trkpt>
      <trkpt lat="42.64797" lon="-0.32084">
        <time>2022-07-30T13:48:11Z</time>
      </trkpt>
      <trkpt lat="42.64812" lon="-0.32067">
        <time>2022-07-30T13:48:12Z</time>
      </trkpt>
      <trkpt lat="42.64826" lon="-0.32051">
        <time>2022-07-30T13:48:13Z</time>
      </trkpt>
      <trkpt lat="42.64841" lon="-0.32035">
        <time>2022-07-30T13:48:14Z</time>
      </trkpt>
      <trkpt lat="42.64855" lon="-0.32021">
        <time>2022-07-30T13:48:15Z</time>
      </trkpt>
      <trkpt lat="42.6487" lon="-0.32008">
        <time>2022-07-30T13:48:16Z</time>
      </trkpt>
      <trkpt lat="42.64886" lon="-0.31995">
        <time>2022-07-30T13:48:17Z</time>
      </trkpt>
      <trkpt lat="42.64901" lon="-0.31984">
        <time>2022-07-30T13:48:18Z</time>
      </trkpt>
      <trkpt lat="42.64916" lon="-0.31974">
        <time>2022-07-30T13:48:19Z</time>
      </trkpt>
      <trkpt lat="42.64933" lon="-0.31964">
        <time>2022-07-30T13:48:20Z</time>
      </trkpt>
      <trkpt lat="42.64949" lon="-0.31954">
        <time>2022-07-30T13:48:21Z</time>
      </trkpt>
      <trkpt lat="42.64965" lon="-0.31944">
        <time>2022-07-30T13:48:22Z</time>
      </trkpt>
      <trkpt lat="42.6498" lon="-0.31934">
        <time>2022-07-30T13:48:23Z</time>
      </trkpt>
      <trkpt lat="42.64995" lon="-0.31924">
        <time>2022-07-30T13:48:24Z</time>
      </trkpt>
      <trkpt lat="42.6501" lon="-0.31916">
        <time>2022-07-30T13:48:25Z</time>
      </trkpt>
      <trkpt lat="42.65026" lon="-0.31909">
        <time>2022-07-30T13:48:26Z</time>
      </trkpt>
      <trkpt lat="42.6504" lon="-0.31905">
        <time>2022-07-30T13:48:27Z</time>
      </trkpt>
      <trkpt lat="42.65056" lon="-0.31903">
        <time>2022-07-30T13:48:28Z</time>
      </trkpt>
      <trkpt lat="42.65071" lon="-0.31904">
        <time>2022-07-30T13:48:29Z</time>
      </trkpt>
      <trkpt lat="42.65086" lon="-0.31907">
        <time>2022-07-30T13:48:30Z</time>
      </trkpt>
      <trkpt lat="42.65101" lon="-0.31913">
        <time>2022-07-30T13:48:31Z</time>
      </trkpt>
      <trkpt lat="42.65114" lon="-0.31921">
        <time>2022-07-30T13:48:32Z</time>
      </trkpt>
      <trkpt lat="42.65128" lon="-0.31933">
        <time>2022-07-30T13:48:33Z</time>
      </trkpt>
      <trkpt lat="42.65142" lon="-0.31944">
        <time>2022-07-30T13:48:34Z</time>
      </trkpt>
      <trkpt lat="42.65154" lon="-0.31954">
        <time>2022-07-30T13:48:35Z</time>
      </trkpt>
      <trkpt lat="42.65169" lon="-0.31966">
        <time>2022-07-30T13:48:36Z</time>
      </trkpt>
      <trkpt lat="42.65185" lon="-0.31974">
        <time>2022-07-30T13:48:37Z</time>
      </trkpt>
      <trkpt lat="42.65202" lon="-0.31979">
        <time>2022-07-30T13:48:38Z</time>
      </trkpt>
      <trkpt lat="42.65219" lon="-0.31981">
        <time>2022-07-30T13:48:39Z</time>
      </trkpt>
      <trkpt lat="42.65236" lon="-0.31982">
        <time>2022-07-30T13:48:40Z</time>
      </trkpt>
      <trkpt lat="42.65253" lon="-0.31981">
        <time>2022-07-30T13:48:41Z</time>
      </trkpt>
      <trkpt lat="42.65271" lon="-0.3198">
        <time>2022-07-30T13:48:42Z</time>
      </trkpt>
      <trkpt lat="42.65289" lon="-0.3198">
        <time>2022-07-30T13:48:43Z</time>
      </trkpt>
      <trkpt lat="42.65307" lon="-0.3198">
        <time>2022-07-30T13:48:44Z</time>
      </trkpt>
      <trkpt lat="42.65325" lon="-0.31982">
        <time>2022-07-30T13:48:45Z</time>
      </trkpt>
      <trkpt lat="42.65343" lon="-0.31983">
        <time>2022-07-30T13:48:46Z</time>
      </trkpt>
      <trkpt lat="42.65362" lon="-0.31985">
        <time>2022-07-30T13:48:47Z</time>
      </trkpt>
      <trkpt lat="42.65379" lon="-0.31985">
        <time>2022-07-30T13:48:48Z</time>
      </trkpt>
      <trkpt lat="42.65398" lon="-0.31984">
        <time>2022-07-30T13:48:49Z</time>
      </trkpt>
      <trkpt lat="42.65416" lon="-0.31982">
        <time>2022-07-30T13:48:50Z</time>
      </trkpt>
      <trkpt lat="42.65433" lon="-0.31978">
        <time>2022-07-30T13:48:51Z</time>
      </trkpt>
      <trkpt lat="42.65451" lon="-0.31973">
        <time>2022-07-30T13:48:52Z</time>
      </trkpt>
      <trkpt lat="42.65468" lon="-0.31968">
        <time>2022-07-30T13:48:53Z</time>
      </trkpt>
      <trkpt lat="42.65486" lon="-0.31962">
        <time>2022-07-30T13:48:54Z</time>
      </trkpt>
      <trkpt lat="42.65504" lon="-0.31957">
        <time>2022-07-30T13:48:55Z</time>
      </trkpt>
      <trkpt lat="42.65522" lon="-0.31952">
        <time>2022-07-30T13:48:56Z</time>
      </trkpt>
      <trkpt lat="42.6554" lon="-0.31949">
        <time>2022-07-30T13:48:57Z</time>
      </trkpt>
      <trkpt lat="42.65558" lon="-0.31947">
        <time>2022-07-30T13:48:58Z</time>
      </trkpt>
      <trkpt lat="42.65575" lon="-0.31948">
        <time>2022-07-30T13:48:59Z</time>
      </trkpt>
      <trkpt lat="42.65595" lon="-0.3195">
        <time>2022-07-30T13:49:00Z</time>
      </trkpt>
      <trkpt lat="42.65613" lon="-0.31954">
        <time>2022-07-30T13:49:01Z</time>
      </trkpt>
      <trkpt lat="42.65631" lon="-0.3196">
        <time>2022-07-30T13:49:02Z</time>
      </trkpt>
      <trkpt lat="42.65648" lon="-0.31967">
        <time>2022-07-30T13:49:03Z</time>
      </trkpt>
      <trkpt lat="42.65663" lon="-0.31976">
        <time>2022-07-30T13:49:04Z</time>
      </trkpt>
      <trkpt lat="42.6568" lon="-0.31989">
        <time>2022-07-30T13:49:05Z</time>
      </trkpt>
      <trkpt lat="42.65695" lon="-0.32002">
        <time>2022-07-30T13:49:06Z</time>
      </trkpt>
      <trkpt lat="42.65707" lon="-0.32018">
        <time>2022-07-30T13:49:07Z</time>
      </trkpt>
      <trkpt lat="42.65719" lon="-0.32038">
        <time>2022-07-30T13:49:08Z</time>
      </trkpt>
      <trkpt lat="42.65728" lon="-0.32059">
        <time>2022-07-30T13:49:09Z</time>
      </trkpt>
      <trkpt lat="42.65734" lon="-0.32081">
        <time>2022-07-30T13:49:10Z</time>
      </trkpt>
      <trkpt lat="42.65739" lon="-0.32102">
        <time>2022-07-30T13:49:11Z</time>
      </trkpt>
      <trkpt lat="42.65743" lon="-0.32122">
        <time>2022-07-30T13:49:12Z</time>
      </trkpt>
      <trkpt lat="42.65746" lon="-0.32142">
        <time>2022-07-30T13:49:13Z</time>
      </trkpt>
      <trkpt lat="42.6575" lon="-0.32162">
        <time>2022-07-30T13:49:14Z</time>
      </trkpt>
      <trkpt lat="42.65753" lon="-0.3218">
        <time>2022-07-30T13:49:15Z</time>
      </trkpt>
      <trkpt lat="42.65758" lon="-0.322">
        <time>2022-07-30T13:49:16Z</time>
      </trkpt>
      <trkpt lat="42.65764" lon="-0.32218">
        <time>2022-07-30T13:49:17Z</time>
      </trkpt>
      <trkpt lat="42.65772" lon="-0.32234">
        <time>2022-07-30T13:49:18Z</time>
      </trkpt>
      <trkpt lat="42.6578" lon="-0.32249">
        <time>2022-07-30T13:49:19Z</time>
      </trkpt>
      <trkpt lat="42.65789" lon="-0.32263">
        <time>2022-07-30T13:49:20Z</time>
      </trkpt>
      <trkpt lat="42.65799" lon="-0.32276">
        <time>2022-07-30T13:49:21Z</time>
      </trkpt>
      <trkpt lat="42.6581" lon="-0.32288">
        <time>2022-07-30T13:49:22Z</time>
      </trkpt>
      <trkpt lat="42.65821" lon="-0.32297">
        <time>2022-07-30T13:49:23Z</time>
      </trkpt>
      <trkpt lat="42.65833" lon="-0.32308">
        <time>2022-07-30T13:49:24Z</time>
      </trkpt>
      <trkpt lat="42.65844" lon="-0.32319">
        <time>2022-07-30T13:49:25Z</time>
      </trkpt>
      <trkpt lat="42.65856" lon="-0.3233">
        <time>2022-07-30T13:49:26Z</time>
      </trkpt>
      <trkpt lat="42.65867" lon="-0.32341">
        <time>2022-07-30T13:49:27Z</time>
      </trkpt>
      <trkpt lat="42.65879" lon="-0.32351">
        <time>2022-07-30T13:49:28Z</time>
      </trkpt>
      <trkpt lat="42.6589" lon="-0.32361">
        <time>2022-07-30T13:49:29Z</time>
      </trkpt>
      <trkpt lat="42.65902" lon="-0.32369">
        <time>2022-07-30T13:49:30Z</time>
      </trkpt>
      <trkpt lat="42.65913" lon="-0.32374">
        <time>2022-07-30T13:49:31Z</time>
      </trkpt>
      <trkpt lat="42.65927" lon="-0.32376">
        <time>2022-07-30T13:49:32Z</time>
      </trkpt>
      <trkpt lat="42.6594" lon="-0.32375">
        <time>2022-07-30T13:49:33Z</time>
      </trkpt>
      <trkpt lat="42.65954" lon="-0.32373">
        <time>2022-07-30T13:49:34Z</time>
      </trkpt>
      <trkpt lat="42.65967" lon="-0.32373">
        <time>2022-07-30T13:49:35Z</time>
      </trkpt>
      <trkpt lat="42.6598" lon="-0.32374">
        <time>2022-07-30T13:49:36Z</time>
      </trkpt>
      <trkpt lat="42.65993" lon="-0.32376">
        <time>2022-07-30T13:49:37Z</time>
      </trkpt>
      <trkpt lat="42.66005" lon="-0.32377">
        <time>2022-07-30T13:49:38Z</time>
      </trkpt>
      <trkpt lat="42.66017" lon="-0.32378">
        <time>2022-07-30T13:49:39Z</time>
      </trkpt>
      <trkpt lat="42.66029" lon="-0.32377">
        <time>2022-07-30T13:49:40Z</time>
      </trkpt>
      <trkpt lat="42.66043" lon="-0.32376">
        <time>2022-07-30T13:49:41Z</time>
      </trkpt>
      <trkpt lat="42.66057" lon="-0.32375">
        <time>2022-07-30T13:49:42Z</time>
      </trkpt>
      <trkpt lat="42.66074" lon="-0.32375">
        <time>2022-07-30T13:49:43Z</time>
      </trkpt>
      <trkpt lat="42.66092" lon="-0.32376">
        <time>2022-07-30T13:49:44Z</time>
      </trkpt>
      <trkpt lat="42.6611" lon="-0.32379">
        <time>2022-07-30T13:49:45Z</time>
      </trkpt>
      <trkpt lat="42.66128" lon="-0.32382">
        <time>2022-07-30T13:49:46Z</time>
      </trkpt>
      <trkpt lat="42.66146" lon="-0.32386">
        <time>2022-07-30T13:49:47Z</time>
      </trkpt>
      <trkpt lat="42.66164" lon="-0.32389">
        <time>2022-07-30T13:49:48Z</time>
      </trkpt>
      <trkpt lat="42.66181" lon="-0.32391">
        <time>2022-07-30T13:49:49Z</time>
      </trkpt>
      <trkpt lat="42.662" lon="-0.32391">
        <time>2022-07-30T13:49:50Z</time>
      </trkpt>
      <trkpt lat="42.66221" lon="-0.3239">
        <time>2022-07-30T13:49:51Z</time>
      </trkpt>
      <trkpt lat="42.6624" lon="-0.32385">
        <time>2022-07-30T13:49:52Z</time>
      </trkpt>
      <trkpt lat="42.66262" lon="-0.32378">
        <time>2022-07-30T13:49:53Z</time>
      </trkpt>
      <trkpt lat="42.66281" lon="-0.32367">
        <time>2022-07-30T13:49:54Z</time>
      </trkpt>
      <trkpt lat="42.663" lon="-0.32356">
        <time>2022-07-30T13:49:55Z</time>
      </trkpt>
      <trkpt lat="42.66321" lon="-0.32344">
        <time>2022-07-30T13:49:56Z</time>
      </trkpt>
      <trkpt lat="42.66342" lon="-0.32333">
        <time>2022-07-30T13:49:57Z</time>
      </trkpt>
      <trkpt lat="42.66364" lon="-0.32323">
        <time>2022-07-30T13:49:58Z</time>
      </trkpt>
      <trkpt lat="42.66387" lon="-0.32314">
        <time>2022-07-30T13:49:59Z</time>
      </trkpt>
      <trkpt lat="42.66411" lon="-0.32304">
        <time>2022-07-30T13:50:00Z</time>
      </trkpt>
      <trkpt lat="42.66435" lon="-0.32294">
        <time>2022-07-30T13:50:01Z</time>
      </trkpt>
      <trkpt lat="42.66458" lon="-0.32283">
        <time>2022-07-30T13:50:02Z</time>
      </trkpt>
      <trkpt lat="42.6648" lon="-0.32273">
        <time>2022-07-30T13:50:03Z</time>
      </trkpt>
      <trkpt lat="42.66505" lon="-0.32262">
        <time>2022-07-30T13:50:04Z</time>
      </trkpt>
      <trkpt lat="42.66527" lon="-0.32253">
        <time>2022-07-30T13:50:05Z</time>
      </trkpt>
      <trkpt lat="42.6655" lon="-0.32244">
        <time>2022-07-30T13:50:06Z</time>
      </trkpt>
      <trkpt lat="42.66573" lon="-0.32235">
        <time>2022-07-30T13:50:07Z</time>
      </trkpt>
      <trkpt lat="42.66594" lon="-0.32228">
        <time>2022-07-30T13:50:08Z</time>
      </trkpt>
      <trkpt lat="42.66618" lon="-0.3222">
        <time>2022-07-30T13:50:09Z</time>
      </trkpt>
      <trkpt lat="42.66639" lon="-0.32213">
        <time>2022-07-30T13:50:10Z</time>
      </trkpt>
      <trkpt lat="42.66659" lon="-0.32207">
        <time>2022-07-30T13:50:11Z</time>
      </trkpt>
      <trkpt lat="42.6668" lon="-0.322">
        <time>2022-07-30T13:50:12Z</time>
      </trkpt>
      <trkpt lat="42.66699" lon="-0.32194">
        <time>2022-07-30T13:50:13Z</time>
      </trkpt>
      <trkpt lat="42.66718" lon="-0.32188">
        <time>2022-07-30T13:50:14Z</time>
      </trkpt>
      <trkpt lat="42.66736" lon="-0.32183">
        <time>2022-07-30T13:50:15Z</time>
      </trkpt>
      <trkpt lat="42.66755" lon="-0.32178">
        <time>2022-07-30T13:50:16Z</time>
      </trkpt>
      <trkpt lat="42.66773" lon="-0.32174">
        <time>2022-07-30T13:50:17Z</time>
      </trkpt>
      <trkpt lat="42.66791" lon="-0.32173">
        <time>2022-07-30T13:50:18Z</time>
      </trkpt>
      <trkpt lat="42.66808" lon="-0.32174">
        <time>2022-07-30T13:50:19Z</time>
      </trkpt>
      <trkpt lat="42.66826" lon="-0.32179">
        <time>2022-07-30T13:50:20Z</time>
      </trkpt>
      <trkpt lat="42.66843" lon="-0.32188">
        <time>2022-07-30T13:50:21Z</time>
      </trkpt>
      <trkpt lat="42.66859" lon="-0.32198">
        <time>2022-07-30T13:50:22Z</time>
      </trkpt>
      <trkpt lat="42.66875" lon="-0.3221">
        <time>2022-07-30T13:50:23Z</time>
      </trkpt>
      <trkpt lat="42.6689" lon="-0.3222">
        <time>2022-07-30T13:50:24Z</time>
      </trkpt>
      <trkpt lat="42.66906" lon="-0.32231">
        <time>2022-07-30T13:50:25Z</time>
      </trkpt>
      <trkpt lat="42.66922" lon="-0.3224">
        <time>2022-07-30T13:50:26Z</time>
      </trkpt>
      <trkpt lat="42.66939" lon="-0.32247">
        <time>2022-07-30T13:50:27Z</time>
      </trkpt>
      <trkpt lat="42.66958" lon="-0.32251">
        <time>2022-07-30T13:50:28Z</time>
      </trkpt>
      <trkpt lat="42.66976" lon="-0.32253">
        <time>2022-07-30T13:50:29Z</time>
      </trkpt>
      <trkpt lat="42.66995" lon="-0.32251">
        <time>2022-07-30T13:50:30Z</time>
      </trkpt>
      <trkpt lat="42.67012" lon="-0.32246">
        <time>2022-07-30T13:50:31Z</time>
      </trkpt>
      <trkpt lat="42.6703" lon="-0.32241">
        <time>2022-07-30T13:50:32Z</time>
      </trkpt>
      <trkpt lat="42.67047" lon="-0.32236">
        <time>2022-07-30T13:50:33Z</time>
      </trkpt>
      <trkpt lat="42.67063" lon="-0.32231">
        <time>2022-07-30T13:50:34Z</time>
      </trkpt>
      <trkpt lat="42.67078" lon="-0.32229">
        <time>2022-07-30T13:50:35Z</time>
      </trkpt>
      <trkpt lat="42.67094" lon="-0.32229">
        <time>2022-07-30T13:50:36Z</time>
      </trkpt>
      <trkpt lat="42.67109" lon="-0.32232">
        <time>2022-07-30T13:50:37Z</time>
      </trkpt>
      <trkpt lat="42.67125" lon="-0.32237">
        <time>2022-07-30T13:50:38Z</time>
      </trkpt>
      <trkpt lat="42.67141" lon="-0.32243">
        <time>2022-07-30T13:50:39Z</time>
      </trkpt>
      <trkpt lat="42.67156" lon="-0.3225">
        <time>2022-07-30T13:50:40Z</time>
      </trkpt>
      <trkpt lat="42.67174" lon="-0.32256">
        <time>2022-07-30T13:50:41Z</time>
      </trkpt>
      <trkpt lat="42.67192" lon="-0.32261">
        <time>2022-07-30T13:50:42Z</time>
      </trkpt>
      <trkpt lat="42.67208" lon="-0.32263">
        <time>2022-07-30T13:50:43Z</time>
      </trkpt>
      <trkpt lat="42.67227" lon="-0.32263">
        <time>2022-07-30T13:50:44Z</time>
      </trkpt>
      <trkpt lat="42.67246" lon="-0.32262">
        <time>2022-07-30T13:50:45Z</time>
      </trkpt>
      <trkpt lat="42.67265" lon="-0.3226">
        <time>2022-07-30T13:50:46Z</time>
      </trkpt>
      <trkpt lat="42.67283" lon="-0.32258">
        <time>2022-07-30T13:50:47Z</time>
      </trkpt>
      <trkpt lat="42.67302" lon="-0.32256">
        <time>2022-07-30T13:50:48Z</time>
      </trkpt>
      <trkpt lat="42.67319" lon="-0.32255">
        <time>2022-07-30T13:50:49Z</time>
      </trkpt>
      <trkpt lat="42.67336" lon="-0.32255">
        <time>2022-07-30T13:50:50Z</time>
      </trkpt>
      <trkpt lat="42.67353" lon="-0.32256">
        <time>2022-07-30T13:50:51Z</time>
      </trkpt>
      <trkpt lat="42.67369" lon="-0.32259">
        <time>2022-07-30T13:50:52Z</time>
      </trkpt>
      <trkpt lat="42.67385" lon="-0.32261">
        <time>2022-07-30T13:50:53Z</time>
      </trkpt>
      <trkpt lat="42.67402" lon="-0.32264">
        <time>2022-07-30T13:50:54Z</time>
      </trkpt>
      <trkpt lat="42.67418" lon="-0.32267">
        <time>2022-07-30T13:50:55Z</time>
      </trkpt>
      <trkpt lat="42.67433" lon="-0.3227">
        <time>2022-07-30T13:50:56Z</time>
      </trkpt>
      <trkpt lat="42.67451" lon="-0.32271">
        <time>2022-07-30T13:50:57Z</time>
      </trkpt>
      <trkpt lat="42.67467" lon="-0.32271">
        <time>2022-07-30T13:50:58Z</time>
      </trkpt>
      <trkpt lat="42.67482" lon="-0.32271">
        <time>2022-07-30T13:50:59Z</time>
      </trkpt>
      <trkpt lat="42.67499" lon="-0.3227">
        <time>2022-07-30T13:51:00Z</time>
      </trkpt>
      <trkpt lat="42.67515" lon="-0.32268">
        <time>2022-07-30T13:51:01Z</time>
      </trkpt>
      <trkpt lat="42.67531" lon="-0.32267">
        <time>2022-07-30T13:51:02Z</time>
      </trkpt>
      <trkpt lat="42.67548" lon="-0.32266">
        <time>2022-07-30T13:51:03Z</time>
      </trkpt>
      <trkpt lat="42.67565" lon="-0.32264">
        <time>2022-07-30T13:51:04Z</time>
      </trkpt>
      <trkpt lat="42.67581" lon="-0.32261">
        <time>2022-07-30T13:51:05Z</time>
      </trkpt>
      <trkpt lat="42.67598" lon="-0.32256">
        <time>2022-07-30T13:51:06Z</time>
      </trkpt>
      <trkpt lat="42.67613" lon="-0.32249">
        <time>2022-07-30T13:51:07Z</time>
      </trkpt>
      <trkpt lat="42.67628" lon="-0.32239">
        <time>2022-07-30T13:51:08Z</time>
      </trkpt>
      <trkpt lat="42.67641" lon="-0.32226">
        <time>2022-07-30T13:51:09Z</time>
      </trkpt>
      <trkpt lat="42.67652" lon="-0.32211">
        <time>2022-07-30T13:51:10Z</time>
      </trkpt>
      <trkpt lat="42.67662" lon="-0.32195">
        <time>2022-07-30T13:51:11Z</time>
      </trkpt>
      <trkpt lat="42.6767" lon="-0.32179">
        <time>2022-07-30T13:51:12Z</time>
      </trkpt>
      <trkpt lat="42.6768" lon="-0.32159">
        <time>2022-07-30T13:51:13Z</time>
      </trkpt>
      <trkpt lat="42.6769" lon="-0.32141">
        <time>2022-07-30T13:51:14Z</time>
      </trkpt>
      <trkpt lat="42.67701" lon="-0.32125">
        <time>2022-07-30T13:51:15Z</time>
      </trkpt>
      <trkpt lat="42.67714" lon="-0.32109">
        <time>2022-07-30T13:51:16Z</time>
      </trkpt>
      <trkpt lat="42.67728" lon="-0.32097">
        <time>2022-07-30T13:51:17Z</time>
      </trkpt>
      <trkpt lat="42.67744" lon="-0.32089">
        <time>2022-07-30T13:51:18Z</time>
      </trkpt>
      <trkpt lat="42.67759" lon="-0.32083">
        <time>2022-07-30T13:51:19Z</time>
      </trkpt>
      <trkpt lat="42.67776" lon="-0.3208">
        <time>2022-07-30T13:51:20Z</time>
      </trkpt>
      <trkpt lat="42.67794" lon="-0.32079">
        <time>2022-07-30T13:51:21Z</time>
      </trkpt>
      <trkpt lat="42.67812" lon="-0.3208">
        <time>2022-07-30T13:51:22Z</time>
      </trkpt>
      <trkpt lat="42.67829" lon="-0.32082">
        <time>2022-07-30T13:51:23Z</time>
      </trkpt>
      <trkpt lat="42.67847" lon="-0.32085">
        <time>2022-07-30T13:51:24Z</time>
      </trkpt>
      <trkpt lat="42.67865" lon="-0.32088">
        <time>2022-07-30T13:51:25Z</time>
      </trkpt>
      <trkpt lat="42.67883" lon="-0.32091">
        <time>2022-07-30T13:51:26Z</time>
      </trkpt>
      <trkpt lat="42.679" lon="-0.32094">
        <time>2022-07-30T13:51:27Z</time>
      </trkpt>
      <trkpt lat="42.67917" lon="-0.32097">
        <time>2022-07-30T13:51:28Z</time>
      </trkpt>
      <trkpt lat="42.67936" lon="-0.32101">
        <time>2022-07-30T13:51:29Z</time>
      </trkpt>
      <trkpt lat="42.67954" lon="-0.32104">
        <time>2022-07-30T13:51:30Z</time>
      </trkpt>
      <trkpt lat="42.67971" lon="-0.32107">
        <time>2022-07-30T13:51:31Z</time>
      </trkpt>
      <trkpt lat="42.6799" lon="-0.3211">
        <time>2022-07-30T13:51:32Z</time>
      </trkpt>
      <trkpt lat="42.68007" lon="-0.32112">
        <time>2022-07-30T13:51:33Z</time>
      </trkpt>
      <trkpt lat="42.68025" lon="-0.32111">
        <time>2022-07-30T13:51:34Z</time>
      </trkpt>
      <trkpt lat="42.68042" lon="-0.32108">
        <time>2022-07-30T13:51:35Z</time>
      </trkpt>
      <trkpt lat="42.68059" lon="-0.32101">
        <time>2022-07-30T13:51:36Z</time>
      </trkpt>
      <trkpt lat="42.68074" lon="-0.32094">
        <time>2022-07-30T13:51:37Z</time>
      </trkpt>
      <trkpt lat="42.68089" lon="-0.32088">
        <time>2022-07-30T13:51:38Z</time>
      </trkpt>
      <trkpt lat="42.68103" lon="-0.32082">
        <time>2022-07-30T13:51:39Z</time>
      </trkpt>
      <trkpt lat="42.68119" lon="-0.32077">
        <time>2022-07-30T13:51:40Z</time>
      </trkpt>
      <trkpt lat="42.68134" lon="-0.32074">
        <time>2022-07-30T13:51:41Z</time>
      </trkpt>
      <trkpt lat="42.6815" lon="-0.32073">
        <time>2022-07-30T13:51:42Z</time>
      </trkpt>
      <trkpt lat="42.68166" lon="-0.32073">
        <time>2022-07-30T13:51:43Z</time>
      </trkpt>
      <trkpt lat="42.68182" lon="-0.32074">
        <time>2022-07-30T13:51:44Z</time>
      </trkpt>
      <trkpt lat="42.68199" lon="-0.32076">
        <time>2022-07-30T13:51:45Z</time>
      </trkpt>
      <trkpt lat="42.68216" lon="-0.32078">
        <time>2022-07-30T13:51:46Z</time>
      </trkpt>
      <trkpt lat="42.68233" lon="-0.3208">
        <time>2022-07-30T13:51:47Z</time>
      </trkpt>
      <trkpt lat="42.68251" lon="-0.32083">
        <time>2022-07-30T13:51:48Z</time>
      </trkpt>
      <trkpt lat="42.68268" lon="-0.32085">
        <time>2022-07-30T13:51:49Z</time>
      </trkpt>
      <trkpt lat="42.68285" lon="-0.32087">
        <time>2022-07-30T13:51:50Z</time>
      </trkpt>
      <trkpt lat="42.68303" lon="-0.32088">
        <time>2022-07-30T13:51:51Z</time>
      </trkpt>
      <trkpt lat="42.68322" lon="-0.32088">
        <time>2022-07-30T13:51:52Z</time>
      </trkpt>
      <trkpt lat="42.6834" lon="-0.32087">
        <time>2022-07-30T13:51:53Z</time>
      </trkpt>
      <trkpt lat="42.68359" lon="-0.32082">
        <time>2022-07-30T13:51:54Z</time>
      </trkpt>
      <trkpt lat="42.68378" lon="-0.32074">
        <time>2022-07-30T13:51:55Z</time>
      </trkpt>
      <trkpt lat="42.68396" lon="-0.32064">
        <time>2022-07-30T13:51:56Z</time>
      </trkpt>
      <trkpt lat="42.68413" lon="-0.32051">
        <time>2022-07-30T13:51:57Z</time>
      </trkpt>
      <trkpt lat="42.6843" lon="-0.32038">
        <time>2022-07-30T13:51:58Z</time>
      </trkpt>
      <trkpt lat="42.68446" lon="-0.32026">
        <time>2022-07-30T13:51:59Z</time>
      </trkpt>
      <trkpt lat="42.68463" lon="-0.32016">
        <time>2022-07-30T13:52:00Z</time>
      </trkpt>
      <trkpt lat="42.68483" lon="-0.32007">
        <time>2022-07-30T13:52:01Z</time>
      </trkpt>
      <trkpt lat="42.68505" lon="-0.32002">
        <time>2022-07-30T13:52:02Z</time>
      </trkpt>
      <trkpt lat="42.68527" lon="-0.31999">
        <time>2022-07-30T13:52:03Z</time>
      </trkpt>
      <trkpt lat="42.68554" lon="-0.31997">
        <time>2022-07-30T13:52:04Z</time>
      </trkpt>
      <trkpt lat="42.68581" lon="-0.31995">
        <time>2022-07-30T13:52:05Z</time>
      </trkpt>
      <trkpt lat="42.68609" lon="-0.31992">
        <time>2022-07-30T13:52:06Z</time>
      </trkpt>
      <trkpt lat="42.68637" lon="-0.31988">
        <time>2022-07-30T13:52:07Z</time>
      </trkpt>
      <trkpt lat="42.68665" lon="-0.31984">
        <time>2022-07-30T13:52:08Z</time>
      </trkpt>
      <trkpt lat="42.68691" lon="-0.31981">
        <time>2022-07-30T13:52:09Z</time>
      </trkpt>
      <trkpt lat="42.68717" lon="-0.31978">
        <time>2022-07-30T13:52:10Z</time>
      </trkpt>
      <trkpt lat="42.6874" lon="-0.31975">
        <time>2022-07-30T13:52:11Z</time>
      </trkpt>
      <trkpt lat="42.68764" lon="-0.31971">
        <time>2022-07-30T13:52:12Z</time>
      </trkpt>
      <trkpt lat="42.68784" lon="-0.31965">
        <time>2022-07-30T13:52:13Z</time>
      </trkpt>
      <trkpt lat="42.68803" lon="-0.31957">
        <time>2022-07-30T13:52:14Z</time>
      </trkpt>
      <trkpt lat="42.6882" lon="-0.31946">
        <time>2022-07-30T13:52:15Z</time>
      </trkpt>
      <trkpt lat="42.68834" lon="-0.31932">
        <time>2022-07-30T13:52:16Z</time>
      </trkpt>
      <trkpt lat="42.68849" lon="-0.31913">
        <time>2022-07-30T13:52:17Z</time>
      </trkpt>
      <trkpt lat="42.68859" lon="-0.31892">
        <time>2022-07-30T13:52:18Z</time>
      </trkpt>
      <trkpt lat="42.68868" lon="-0.31869">
        <time>2022-07-30T13:52:19Z</time>
      </trkpt>
      <trkpt lat="42.68876" lon="-0.3184">
        <time>2022-07-30T13:52:20Z</time>
      </trkpt>
      <trkpt lat="42.68882" lon="-0.31812">
        <time>2022-07-30T13:52:21Z</time>
      </trkpt>
      <trkpt lat="42.68887" lon="-0.31784">
        <time>2022-07-30T13:52:22Z</time>
      </trkpt>
      <trkpt lat="42.68893" lon="-0.3176">
        <time>2022-07-30T13:52:23Z</time>
      </trkpt>
      <trkpt lat="42.68898" lon="-0.31736">
        <time>2022-07-30T13:52:24Z</time>
      </trkpt>
      <trkpt lat="42.68902" lon="-0.31713">
        <time>2022-07-30T13:52:25Z</time>
      </trkpt>
      <trkpt lat="42.68908" lon="-0.31692">
        <time>2022-07-30T13:52:26Z</time>
      </trkpt>
      <trkpt lat="42.68914" lon="-0.31672">
        <time>2022-07-30T13:52:27Z</time>
      </trkpt>
      <trkpt lat="42.68924" lon="-0.31651">
        <time>2022-07-30T13:52:28Z</time>
      </trkpt>
      <trkpt lat="42.68936" lon="-0.31632">
        <time>2022-07-30T13:52:29Z</time>
      </trkpt>
      <trkpt lat="42.6895" lon="-0.31616">
        <time>2022-07-30T13:52:30Z</time>
      </trkpt>
      <trkpt lat="42.68966" lon="-0.31603">
        <time>2022-07-30T13:52:31Z</time>
      </trkpt>
      <trkpt lat="42.68982" lon="-0.31592">
        <time>2022-07-30T13:52:32Z</time>
      </trkpt>
      <trkpt lat="42.69002" lon="-0.31582">
        <time>2022-07-30T13:52:33Z</time>
      </trkpt>
      <trkpt lat="42.69021" lon="-0.31574">
        <time>2022-07-30T13:52:34Z</time>
      </trkpt>
      <trkpt lat="42.6904" lon="-0.31568">
        <time>2022-07-30T13:52:35Z</time>
      </trkpt>
      <trkpt lat="42.6906" lon="-0.31564">
        <time>2022-07-30T13:52:36Z</time>
      </trkpt>
      <trkpt lat="42.69081" lon="-0.31563">
        <time>2022-07-30T13:52:37Z</time>
      </trkpt>
      <trkpt lat="42.69101" lon="-0.31563">
        <time>2022-07-30T13:52:38Z</time>
      </trkpt>
      <trkpt lat="42.69122" lon="-0.31565">
        <time>2022-07-30T13:52:39Z</time>
      </trkpt>
      <trkpt lat="42.69142" lon="-0.31568">
        <time>2022-07-30T13:52:40Z</time>
      </trkpt>
      <trkpt lat="42.69162" lon="-0.3157">
        <time>2022-07-30T13:52:41Z</time>
      </trkpt>
      <trkpt lat="42.69182" lon="-0.31572">
        <time>2022-07-30T13:52:42Z</time>
      </trkpt>
      <trkpt lat="42.692" lon="-0.31573">
        <time>2022-07-30T13:52:43Z</time>
      </trkpt>
      <trkpt lat="42.6922" lon="-0.31572">
        <time>2022-07-30T13:52:44Z</time>
      </trkpt>
      <trkpt lat="42.69238" lon="-0.3157">
        <time>2022-07-30T13:52:45Z</time>
      </trkpt>
      <trkpt lat="42.69255" lon="-0.31569">
        <time>2022-07-30T13:52:46Z</time>
      </trkpt>
      <trkpt lat="42.69273" lon="-0.31569">
        <time>2022-07-30T13:52:47Z</time>
      </trkpt>
      <trkpt lat="42.69291" lon="-0.31572">
        <time>2022-07-30T13:52:48Z</time>
      </trkpt>
      <trkpt lat="42.69311" lon="-0.31578">
        <time>2022-07-30T13:52:49Z</time>
      </trkpt>
      <trkpt lat="42.69329" lon="-0.31587">
        <time>2022-07-30T13:52:50Z</time>
      </trkpt>
      <trkpt lat="42.69346" lon="-0.31596">
        <time>2022-07-30T13:52:51Z</time>
      </trkpt>
      <trkpt lat="42.69365" lon="-0.31607">
        <time>2022-07-30T13:52:52Z</time>
      </trkpt>
      <trkpt lat="42.69384" lon="-0.31616">
        <time>2022-07-30T13:52:53Z</time>
      </trkpt>
      <trkpt lat="42.69403" lon="-0.31621">
        <time>2022-07-30T13:52:54Z</time>
      </trkpt>
      <trkpt lat="42.69422" lon="-0.31623">
        <time>2022-07-30T13:52:55Z</time>
      </trkpt>
      <trkpt lat="42.69441" lon="-0.31621">
        <time>2022-07-30T13:52:56Z</time>
      </trkpt>
      <trkpt lat="42.6946" lon="-0.31617">
        <time>2022-07-30T13:52:57Z</time>
      </trkpt>
      <trkpt lat="42.69479" lon="-0.31612">
        <time>2022-07-30T13:52:58Z</time>
      </trkpt>
      <trkpt lat="42.69497" lon="-0.31606">
        <time>2022-07-30T13:52:59Z</time>
      </trkpt>
      <trkpt lat="42.69516" lon="-0.31603">
        <time>2022-07-30T13:53:00Z</time>
      </trkpt>
      <trkpt lat="42.69534" lon="-0.31603">
        <time>2022-07-30T13:53:01Z</time>
      </trkpt>
      <trkpt lat="42.69552" lon="-0.31607">
        <time>2022-07-30T13:53:02Z</time>
      </trkpt>
      <trkpt lat="42.69568" lon="-0.31613">
        <time>2022-07-30T13:53:03Z</time>
      </trkpt>
      <trkpt lat="42.69581" lon="-0.31622">
        <time>2022-07-30T13:53:04Z</time>
      </trkpt>
      <trkpt lat="42.69595" lon="-0.31634">
        <time>2022-07-30T13:53:05Z</time>
      </trkpt>
      <trkpt lat="42.69607" lon="-0.3165">
        <time>2022-07-30T13:53:06Z</time>
      </trkpt>
      <trkpt lat="42.69617" lon="-0.31667">
        <time>2022-07-30T13:53:07Z</time>
      </trkpt>
      <trkpt lat="42.69627" lon="-0.31688">
        <time>2022-07-30T13:53:08Z</time>
      </trkpt>
      <trkpt lat="42.69634" lon="-0.3171">
        <time>2022-07-30T13:53:09Z</time>
      </trkpt>
      <trkpt lat="42.6964" lon="-0.31732">
        <time>2022-07-30T13:53:10Z</time>
      </trkpt>
      <trkpt lat="42.69647" lon="-0.31753">
        <time>2022-07-30T13:53:11Z</time>
      </trkpt>
      <trkpt lat="42.69654" lon="-0.31774">
        <time>2022-07-30T13:53:12Z</time>
      </trkpt>
      <trkpt lat="42.69663" lon="-0.31793">
        <time>2022-07-30T13:53:13Z</time>
      </trkpt>
      <trkpt lat="42.69674" lon="-0.3181">
        <time>2022-07-30T13:53:14Z</time>
      </trkpt>
      <trkpt lat="42.69686" lon="-0.31825">
        <time>2022-07-30T13:53:15Z</time>
      </trkpt>
      <trkpt lat="42.69702" lon="-0.31841">
        <time>2022-07-30T13:53:16Z</time>
      </trkpt>
      <trkpt lat="42.69719" lon="-0.31855">
        <time>2022-07-30T13:53:17Z</time>
      </trkpt>
      <trkpt lat="42.69736" lon="-0.31868">
        <time>2022-07-30T13:53:18Z</time>
      </trkpt>
      <trkpt lat="42.69753" lon="-0.3188">
        <time>2022-07-30T13:53:19Z</time>
      </trkpt>
      <trkpt lat="42.6977" lon="-0.31891">
        <time>2022-07-30T13:53:20Z</time>
      </trkpt>
      <trkpt lat="42.69789" lon="-0.31902">
        <time>2022-07-30T13:53:21Z</time>
      </trkpt>
      <trkpt lat="42.69807" lon="-0.3191">
        <time>2022-07-30T13:53:22Z</time>
      </trkpt>
      <trkpt lat="42.69824" lon="-0.31916">
        <time>2022-07-30T13:53:23Z</time>
      </trkpt>
      <trkpt lat="42.69844" lon="-0.31921">
        <time>2022-07-30T13:53:24Z</time>
      </trkpt>
      <trkpt lat="42.69864" lon="-0.31925">
        <time>2022-07-30T13:53:25Z</time>
      </trkpt>
      <trkpt lat="42.69885" lon="-0.31928">
        <time>2022-07-30T13:53:26Z</time>
      </trkpt>
      <trkpt lat="42.69905" lon="-0.3193">
        <time>2022-07-30T13:53:27Z</time>
      </trkpt>
      <trkpt lat="42.69925" lon="-0.31932">
        <time>2022-07-30T13:53:28Z</time>
      </trkpt>
      <trkpt lat="42.69945" lon="-0.31934">
        <time>2022-07-30T13:53:29Z</time>
      </trkpt>
      <trkpt lat="42.69965" lon="-0.31936">
        <time>2022-07-30T13:53:30Z</time>
      </trkpt>
      <trkpt lat="42.69983" lon="-0.31938">
        <time>2022-07-30T13:53:31Z</time>
      </trkpt>
      <trkpt lat="42.70003" lon="-0.31941">
        <time>2022-07-30T13:53:32Z</time>
      </trkpt>
      <trkpt lat="42.70021" lon="-0.31945">
        <time>2022-07-30T13:53:33Z</time>
      </trkpt>
      <trkpt lat="42.70039" lon="-0.31948">
        <time>2022-07-30T13:53:34Z</time>
      </trkpt>
      <trkpt lat="42.70056" lon="-0.31952">
        <time>2022-07-30T13:53:35Z</time>
      </trkpt>
      <trkpt lat="42.70072" lon="-0.31955">
        <time>2022-07-30T13:53:36Z</time>
      </trkpt>
      <trkpt lat="42.70092" lon="-0.31959">
        <time>2022-07-30T13:53:37Z</time>
      </trkpt>
      <trkpt lat="42.7011" lon="-0.31963">
        <time>2022-07-30T13:53:38Z</time>
      </trkpt>
      <trkpt lat="42.70128" lon="-0.31967">
        <time>2022-07-30T13:53:39Z</time>
      </trkpt>
      <trkpt lat="42.70149" lon="-0.31971">
        <time>2022-07-30T13:53:40Z</time>
      </trkpt>
      <trkpt lat="42.70169" lon="-0.31975">
        <time>2022-07-30T13:53:41Z</time>
      </trkpt>
      <trkpt lat="42.70189" lon="-0.3198">
        <time>2022-07-30T13:53:42Z</time>
      </trkpt>
      <trkpt lat="42.70208" lon="-0.31984">
        <time>2022-07-30T13:53:43Z</time>
      </trkpt>
      <trkpt lat="42.70227" lon="-0.31988">
        <time>2022-07-30T13:53:44Z</time>
      </trkpt>
      <trkpt lat="42.70245" lon="-0.31992">
        <time>2022-07-30T13:53:45Z</time>
      </trkpt>
      <trkpt lat="42.70263" lon="-0.31995">
        <time>2022-07-30T13:53:46Z</time>
      </trkpt>
      <trkpt lat="42.70279" lon="-0.31996">
        <time>2022-07-30T13:53:47Z</time>
      </trkpt>
      <trkpt lat="42.70297" lon="-0.31994">
        <time>2022-07-30T13:53:48Z</time>
      </trkpt>
      <trkpt lat="42.70313" lon="-0.31988">
        <time>2022-07-30T13:53:49Z</time>
      </trkpt>
      <trkpt lat="42.70328" lon="-0.3198">
        <time>2022-07-30T13:53:50Z</time>
      </trkpt>
      <trkpt lat="42.70344" lon="-0.31967">
        <time>2022-07-30T13:53:51Z</time>
      </trkpt>
      <trkpt lat="42.70356" lon="-0.31952">
        <time>2022-07-30T13:53:52Z</time>
      </trkpt>
      <trkpt lat="42.70369" lon="-0.31932">
        <time>2022-07-30T13:53:53Z</time>
      </trkpt>
      <trkpt lat="42.70379" lon="-0.31911">
        <time>2022-07-30T13:53:54Z</time>
      </trkpt>
      <trkpt lat="42.70387" lon="-0.31888">
        <time>2022-07-30T13:53:55Z</time>
      </trkpt>
      <trkpt lat="42.70394" lon="-0.31861">
        <time>2022-07-30T13:53:56Z</time>
      </trkpt>
      <trkpt lat="42.70401" lon="-0.31836">
        <time>2022-07-30T13:53:57Z</time>
      </trkpt>
      <trkpt lat="42.70409" lon="-0.31811">
        <time>2022-07-30T13:53:58Z</time>
      </trkpt>
      <trkpt lat="42.70417" lon="-0.31786">
        <time>2022-07-30T13:53:59Z</time>
      </trkpt>
      <trkpt lat="42.70426" lon="-0.31762">
        <time>2022-07-30T13:54:00Z</time>
      </trkpt>
      <trkpt lat="42.70436" lon="-0.31738">
        <time>2022-07-30T13:54:01Z</time>
      </trkpt>
      <trkpt lat="42.70449" lon="-0.31715">
        <time>2022-07-30T13:54:02Z</time>
      </trkpt>
      <trkpt lat="42.70463" lon="-0.31694">
        <time>2022-07-30T13:54:03Z</time>
      </trkpt>
      <trkpt lat="42.70479" lon="-0.31673">
        <time>2022-07-30T13:54:04Z</time>
      </trkpt>
      <trkpt lat="42.70498" lon="-0.31654">
        <time>2022-07-30T13:54:05Z</time>
      </trkpt>
      <trkpt lat="42.7052" lon="-0.31635">
        <time>2022-07-30T13:54:06Z</time>
      </trkpt>
      <trkpt lat="42.70541" lon="-0.31617">
        <time>2022-07-30T13:54:07Z</time>
      </trkpt>
      <trkpt lat="42.70561" lon="-0.316">
        <time>2022-07-30T13:54:08Z</time>
      </trkpt>
      <trkpt lat="42.70582" lon="-0.31581">
        <time>2022-07-30T13:54:09Z</time>
      </trkpt>
      <trkpt lat="42.70601" lon="-0.31565">
        <time>2022-07-30T13:54:10Z</time>
      </trkpt>
      <trkpt lat="42.70618" lon="-0.3155">
        <time>2022-07-30T13:54:11Z</time>
      </trkpt>
      <trkpt lat="42.70636" lon="-0.31532">
        <time>2022-07-30T13:54:12Z</time>
      </trkpt>
      <trkpt lat="42.70652" lon="-0.31514">
        <time>2022-07-30T13:54:13Z</time>
      </trkpt>
      <trkpt lat="42.70667" lon="-0.31494">
        <time>2022-07-30T13:54:14Z</time>
      </trkpt>
      <trkpt lat="42.70679" lon="-0.31473">
        <time>2022-07-30T13:54:15Z</time>
      </trkpt>
      <trkpt lat="42.7069" lon="-0.31451">
        <time>2022-07-30T13:54:16Z</time>
      </trkpt>
      <trkpt lat="42.707" lon="-0.31429">
        <time>2022-07-30T13:54:17Z</time>
      </trkpt>
      <trkpt lat="42.70707" lon="-0.31406">
        <time>2022-07-30T13:54:18Z</time>
      </trkpt>
      <trkpt lat="42.70714" lon="-0.31383">
        <time>2022-07-30T13:54:19Z</time>
      </trkpt>
      <trkpt lat="42.7072" lon="-0.31357">
        <time>2022-07-30T13:54:20Z</time>
      </trkpt>
      <trkpt lat="42.70724" lon="-0.31331">
        <time>2022-07-30T13:54:21Z</time>
      </trkpt>
      <trkpt lat="42.70729" lon="-0.31306">
        <time>2022-07-30T13:54:22Z</time>
      </trkpt>
      <trkpt lat="42.70734" lon="-0.31281">
        <time>2022-07-30T13:54:23Z</time>
      </trkpt>
      <trkpt lat="42.70741" lon="-0.3126">
        <time>2022-07-30T13:54:24Z</time>
      </trkpt>
      <trkpt lat="42.7075" lon="-0.31237">
        <time>2022-07-30T13:54:25Z</time>
      </trkpt>
      <trkpt lat="42.70762" lon="-0.31218">
        <time>2022-07-30T13:54:26Z</time>
      </trkpt>
      <trkpt lat="42.70775" lon="-0.31202">
        <time>2022-07-30T13:54:27Z</time>
      </trkpt>
      <trkpt lat="42.70792" lon="-0.31186">
        <time>2022-07-30T13:54:28Z</time>
      </trkpt>
      <trkpt lat="42.70808" lon="-0.31175">
        <time>2022-07-30T13:54:29Z</time>
      </trkpt>
      <trkpt lat="42.70825" lon="-0.31164">
        <time>2022-07-30T13:54:30Z</time>
      </trkpt>
      <trkpt lat="42.70842" lon="-0.31154">
        <time>2022-07-30T13:54:31Z</time>
      </trkpt>
      <trkpt lat="42.70858" lon="-0.31145">
        <time>2022-07-30T13:54:32Z</time>
      </trkpt>
      <trkpt lat="42.70875" lon="-0.31135">
        <time>2022-07-30T13:54:33Z</time>
      </trkpt>
      <trkpt lat="42.7089" lon="-0.31126">
        <time>2022-07-30T13:54:34Z</time>
      </trkpt>
      <trkpt lat="42.70905" lon="-0.31117">
        <time>2022-07-30T13:54:35Z</time>
      </trkpt>
      <trkpt lat="42.7092" lon="-0.31107">
        <time>2022-07-30T13:54:36Z</time>
      </trkpt>
      <trkpt lat="42.70935" lon="-0.31098">
        <time>2022-07-30T13:54:37Z</time>
      </trkpt>
      <trkpt lat="42.7095" lon="-0.3109">
        <time>2022-07-30T13:54:38Z</time>
      </trkpt>
      <trkpt lat="42.70965" lon="-0.31081">
        <time>2022-07-30T13:54:39Z</time>
      </trkpt>
      <trkpt lat="42.7098" lon="-0.31072">
        <time>2022-07-30T13:54:40Z</time>
      </trkpt>
      <trkpt lat="42.70997" lon="-0.31062">
        <time>2022-07-30T13:54:41Z</time>
      </trkpt>
      <trkpt lat="42.71013" lon="-0.31053">
        <time>2022-07-30T13:54:42Z</time>
      </trkpt>
      <trkpt lat="42.7103" lon="-0.31044">
        <time>2022-07-30T13:54:43Z</time>
      </trkpt>
      <trkpt lat="42.71049" lon="-0.31037">
        <time>2022-07-30T13:54:44Z</time>
      </trkpt>
      <trkpt lat="42.71068" lon="-0.31032">
        <time>2022-07-30T13:54:45Z</time>
      </trkpt>
      <trkpt lat="42.71087" lon="-0.31028">
        <time>2022-07-30T13:54:46Z</time>
      </trkpt>
      <trkpt lat="42.71105" lon="-0.31028">
        <time>2022-07-30T13:54:47Z</time>
      </trkpt>
      <trkpt lat="42.71123" lon="-0.31029">
        <time>2022-07-30T13:54:48Z</time>
      </trkpt>
      <trkpt lat="42.7114" lon="-0.31032">
        <time>2022-07-30T13:54:49Z</time>
      </trkpt>
      <trkpt lat="42.71157" lon="-0.31037">
        <time>2022-07-30T13:54:50Z</time>
      </trkpt>
      <trkpt lat="42.71173" lon="-0.31043">
        <time>2022-07-30T13:54:51Z</time>
      </trkpt>
      <trkpt lat="42.7119" lon="-0.31053">
        <time>2022-07-30T13:54:52Z</time>
      </trkpt>
      <trkpt lat="42.71206" lon="-0.31064">
        <time>2022-07-30T13:54:53Z</time>
      </trkpt>
      <trkpt lat="42.71221" lon="-0.31074">
        <time>2022-07-30T13:54:54Z</time>
      </trkpt>
      <trkpt lat="42.71238" lon="-0.31086">
        <time>2022-07-30T13:54:55Z</time>
      </trkpt>
      <trkpt lat="42.71253" lon="-0.31095">
        <time>2022-07-30T13:54:56Z</time>
      </trkpt>
      <trkpt lat="42.71271" lon="-0.31103">
        <time>2022-07-30T13:54:57Z</time>
      </trkpt>
      <trkpt lat="42.71289" lon="-0.31108">
        <time>2022-07-30T13:54:58Z</time>
      </trkpt>
      <trkpt lat="42.71306" lon="-0.31109">
        <time>2022-07-30T13:54:59Z</time>
      </trkpt>
      <trkpt lat="42.71325" lon="-0.31105">
        <time>2022-07-30T13:55:00Z</time>
      </trkpt>
      <trkpt lat="42.71341" lon="-0.31098">
        <time>2022-07-30T13:55:01Z</time>
      </trkpt>
      <trkpt lat="42.71356" lon="-0.31088">
        <time>2022-07-30T13:55:02Z</time>
      </trkpt>
      <trkpt lat="42.71369" lon="-0.31075">
        <time>2022-07-30T13:55:03Z</time>
      </trkpt>
      <trkpt lat="42.71381" lon="-0.3106">
        <time>2022-07-30T13:55:04Z</time>
      </trkpt>
      <trkpt lat="42.71391" lon="-0.31043">
        <time>2022-07-30T13:55:05Z</time>
      </trkpt>
      <trkpt lat="42.71401" lon="-0.31025">
        <time>2022-07-30T13:55:06Z</time>
      </trkpt>
      <trkpt lat="42.71411" lon="-0.31009">
        <time>2022-07-30T13:55:07Z</time>
      </trkpt>
      <trkpt lat="42.71423" lon="-0.30991">
        <time>2022-07-30T13:55:08Z</time>
      </trkpt>
      <trkpt lat="42.71436" lon="-0.30976">
        <time>2022-07-30T13:55:09Z</time>
      </trkpt>
      <trkpt lat="42.71451" lon="-0.30963">
        <time>2022-07-30T13:55:10Z</time>
      </trkpt>
      <trkpt lat="42.71466" lon="-0.30952">
        <time>2022-07-30T13:55:11Z</time>
      </trkpt>
      <trkpt lat="42.71481" lon="-0.30941">
        <time>2022-07-30T13:55:12Z</time>
      </trkpt>
      <trkpt lat="42.71498" lon="-0.30929">
        <time>2022-07-30T13:55:13Z</time>
      </trkpt>
      <trkpt lat="42.71515" lon="-0.30918">
        <time>2022-07-30T13:55:14Z</time>
      </trkpt>
      <trkpt lat="42.7153" lon="-0.30908">
        <time>2022-07-30T13:55:15Z</time>
      </trkpt>
      <trkpt lat="42.71547" lon="-0.30896">
        <time>2022-07-30T13:55:16Z</time>
      </trkpt>
      <trkpt lat="42.71561" lon="-0.30886">
        <time>2022-07-30T13:55:17Z</time>
      </trkpt>
      <trkpt lat="42.71575" lon="-0.30877">
        <time>2022-07-30T13:55:18Z</time>
      </trkpt>
      <trkpt lat="42.71589" lon="-0.30867">
        <time>2022-07-30T13:55:19Z</time>
      </trkpt>
      <trkpt lat="42.71602" lon="-0.30858">
        <time>2022-07-30T13:55:20Z</time>
      </trkpt>
      <trkpt lat="42.71615" lon="-0.30848">
        <time>2022-07-30T13:55:21Z</time>
      </trkpt>
      <trkpt lat="42.71629" lon="-0.30838">
        <time>2022-07-30T13:55:22Z</time>
      </trkpt>
      <trkpt lat="42.71641" lon="-0.30827">
        <time>2022-07-30T13:55:23Z</time>
      </trkpt>
      <trkpt lat="42.71655" lon="-0.30811">
        <time>2022-07-30T13:55:24Z</time>
      </trkpt>
      <trkpt lat="42.71668" lon="-0.30795">
        <time>2022-07-30T13:55:25Z</time>
      </trkpt>
      <trkpt lat="42.7168" lon="-0.30778">
        <time>2022-07-30T13:55:26Z</time>
      </trkpt>
      <trkpt lat="42.71691" lon="-0.30761">
        <time>2022-07-30T13:55:27Z</time>
      </trkpt>
      <trkpt lat="42.71702" lon="-0.30745">
        <time>2022-07-30T13:55:28Z</time>
      </trkpt>
      <trkpt lat="42.71714" lon="-0.30727">
        <time>2022-07-30T13:55:29Z</time>
      </trkpt>
      <trkpt lat="42.71726" lon="-0.3071">
        <time>2022-07-30T13:55:30Z</time>
      </trkpt>
      <trkpt lat="42.71737" lon="-0.30695">
        <time>2022-07-30T13:55:31Z</time>
      </trkpt>
      <trkpt lat="42.7175" lon="-0.30679">
        <time>2022-07-30T13:55:32Z</time>
      </trkpt>
      <trkpt lat="42.71763" lon="-0.30666">
        <time>2022-07-30T13:55:33Z</time>
      </trkpt>
      <trkpt lat="42.71777" lon="-0.30653">
        <time>2022-07-30T13:55:34Z</time>
      </trkpt>
      <trkpt lat="42.71793" lon="-0.30643">
        <time>2022-07-30T13:55:35Z</time>
      </trkpt>
      <trkpt lat="42.71809" lon="-0.30633">
        <time>2022-07-30T13:55:36Z</time>
      </trkpt>
      <trkpt lat="42.71826" lon="-0.30625">
        <time>2022-07-30T13:55:37Z</time>
      </trkpt>
      <trkpt lat="42.71842" lon="-0.30619">
        <time>2022-07-30T13:55:38Z</time>
      </trkpt>
      <trkpt lat="42.71858" lon="-0.30614">
        <time>2022-07-30T13:55:39Z</time>
      </trkpt>
      <trkpt lat="42.71876" lon="-0.3061">
        <time>2022-07-30T13:55:40Z</time>
      </trkpt>
      <trkpt lat="42.71894" lon="-0.30609">
        <time>2022-07-30T13:55:41Z</time>
      </trkpt>
      <trkpt lat="42.71913" lon="-0.3061">
        <time>2022-07-30T13:55:42Z</time>
      </trkpt>
      <trkpt lat="42.71933" lon="-0.30612">
        <time>2022-07-30T13:55:43Z</time>
      </trkpt>
      <trkpt lat="42.71951" lon="-0.30614">
        <time>2022-07-30T13:55:44Z</time>
      </trkpt>
      <trkpt lat="42.71973" lon="-0.30617">
        <time>2022-07-30T13:55:45Z</time>
      </trkpt>
      <trkpt lat="42.71995" lon="-0.3062">
        <time>2022-07-30T13:55:46Z</time>
      </trkpt>
      <trkpt lat="42.72018" lon="-0.30623">
        <time>2022-07-30T13:55:47Z</time>
      </trkpt>
      <trkpt lat="42.72045" lon="-0.30626">
        <time>2022-07-30T13:55:48Z</time>
      </trkpt>
      <trkpt lat="42.72072" lon="-0.30629">
        <time>2022-07-30T13:55:49Z</time>
      </trkpt>
      <trkpt lat="42.72101" lon="-0.30632">
        <time>2022-07-30T13:55:50Z</time>
      </trkpt>
      <trkpt lat="42.72129" lon="-0.30634">
        <time>2022-07-30T13:55:51Z</time>
      </trkpt>
      <trkpt lat="42.72159" lon="-0.30637">
        <time>2022-07-30T13:55:52Z</time>
      </trkpt>
      <trkpt lat="42.7219" lon="-0.3064">
        <time>2022-07-30T13:55:53Z</time>
      </trkpt>
      <trkpt lat="42.7222" lon="-0.30642">
        <time>2022-07-30T13:55:54Z</time>
      </trkpt>
      <trkpt lat="42.72248" lon="-0.30644">
        <time>2022-07-30T13:55:55Z</time>
      </trkpt>
      <trkpt lat="42.72276" lon="-0.30646">
        <time>2022-07-30T13:55:56Z</time>
      </trkpt>
      <trkpt lat="42.72301" lon="-0.30649">
        <time>2022-07-30T13:55:57Z</time>
      </trkpt>
      <trkpt lat="42.72324" lon="-0.30652">
        <time>2022-07-30T13:55:58Z</time>
      </trkpt>
      <trkpt lat="42.72349" lon="-0.30657">
        <time>2022-07-30T13:55:59Z</time>
      </trkpt>
      <trkpt lat="42.72372" lon="-0.30661">
        <time>2022-07-30T13:56:00Z</time>
      </trkpt>
      <trkpt lat="42.72398" lon="-0.30666">
        <time>2022-07-30T13:56:01Z</time>
      </trkpt>
      <trkpt lat="42.72424" lon="-0.30671">
        <time>2022-07-30T13:56:02Z</time>
      </trkpt>
      <trkpt lat="42.72447" lon="-0.30675">
        <time>2022-07-30T13:56:03Z</time>
      </trkpt>
      <trkpt lat="42.72472" lon="-0.3068">
        <time>2022-07-30T13:56:04Z</time>
      </trkpt>
      <trkpt lat="42.72495" lon="-0.30686">
        <time>2022-07-30T13:56:05Z</time>
      </trkpt>
      <trkpt lat="42.72515" lon="-0.3069">
        <time>2022-07-30T13:56:06Z</time>
      </trkpt>
      <trkpt lat="42.72535" lon="-0.30694">
        <time>2022-07-30T13:56:07Z</time>
      </trkpt>
      <trkpt lat="42.72553" lon="-0.30697">
        <time>2022-07-30T13:56:08Z</time>
      </trkpt>
      <trkpt lat="42.72569" lon="-0.30699">
        <time>2022-07-30T13:56:09Z</time>
      </trkpt>
      <trkpt lat="42.72583" lon="-0.30701">
        <time>2022-07-30T13:56:10Z</time>
      </trkpt>
      <trkpt lat="42.72596" lon="-0.30702">
        <time>2022-07-30T13:56:11Z</time>
      </trkpt>
      <trkpt lat="42.72611" lon="-0.30704">
        <time>2022-07-30T13:56:12Z</time>
      </trkpt>
      <trkpt lat="42.72625" lon="-0.30706">
        <time>2022-07-30T13:56:13Z</time>
      </trkpt>
      <trkpt lat="42.7264" lon="-0.30708">
        <time>2022-07-30T13:56:14Z</time>
      </trkpt>
      <trkpt lat="42.72654" lon="-0.30708">
        <time>2022-07-30T13:56:15Z</time>
      </trkpt>
      <trkpt lat="42.72666" lon="-0.30708">
        <time>2022-07-30T13:56:16Z</time>
      </trkpt>
      <trkpt lat="42.72678" lon="-0.30705">
        <time>2022-07-30T13:56:17Z</time>
      </trkpt>
      <trkpt lat="42.72688" lon="-0.307">
        <time>2022-07-30T13:56:18Z</time>
      </trkpt>
      <trkpt lat="42.72698" lon="-0.30697">
        <time>2022-07-30T13:56:19Z</time>
      </trkpt>
      <trkpt lat="42.7271" lon="-0.30695">
        <time>2022-07-30T13:56:20Z</time>
      </trkpt>
      <trkpt lat="42.72722" lon="-0.30698">
        <time>2022-07-30T13:56:21Z</time>
      </trkpt>
      <trkpt lat="42.72734" lon="-0.30705">
        <time>2022-07-30T13:56:22Z</time>
      </trkpt>
      <trkpt lat="42.72746" lon="-0.30716">
        <time>2022-07-30T13:56:23Z</time>
      </trkpt>
      <trkpt lat="42.72759" lon="-0.30725">
        <time>2022-07-30T13:56:24Z</time>
      </trkpt>
      <trkpt lat="42.72771" lon="-0.30735">
        <time>2022-07-30T13:56:25Z</time>
      </trkpt>
      <trkpt lat="42.72782" lon="-0.30745">
        <time>2022-07-30T13:56:26Z</time>
      </trkpt>
      <trkpt lat="42.72791" lon="-0.30757">
        <time>2022-07-30T13:56:27Z</time>
      </trkpt>
      <trkpt lat="42.72801" lon="-0.30775">
        <time>2022-07-30T13:56:28Z</time>
      </trkpt>
      <trkpt lat="42.72811" lon="-0.30793">
        <time>2022-07-30T13:56:29Z</time>
      </trkpt>
      <trkpt lat="42.72822" lon="-0.3081">
        <time>2022-07-30T13:56:30Z</time>
      </trkpt>
      <trkpt lat="42.72832" lon="-0.30826">
        <time>2022-07-30T13:56:31Z</time>
      </trkpt>
      <trkpt lat="42.72841" lon="-0.30841">
        <time>2022-07-30T13:56:32Z</time>
      </trkpt>
      <trkpt lat="42.72848" lon="-0.30858">
        <time>2022-07-30T13:56:33Z</time>
      </trkpt>
      <trkpt lat="42.72855" lon="-0.30872">
        <time>2022-07-30T13:56:34Z</time>
      </trkpt>
      <trkpt lat="42.72861" lon="-0.30885">
        <time>2022-07-30T13:56:35Z</time>
      </trkpt>
      <trkpt lat="42.7287" lon="-0.30897">
        <time>2022-07-30T13:56:36Z</time>
      </trkpt>
      <trkpt lat="42.72881" lon="-0.30906">
        <time>2022-07-30T13:56:37Z</time>
      </trkpt>
      <trkpt lat="42.72894" lon="-0.30911">
        <time>2022-07-30T13:56:38Z</time>
      </trkpt>
      <trkpt lat="42.72907" lon="-0.30914">
        <time>2022-07-30T13:56:39Z</time>
      </trkpt>
      <trkpt lat="42.7292" lon="-0.30915">
        <time>2022-07-30T13:56:40Z</time>
      </trkpt>
      <trkpt lat="42.72931" lon="-0.30915">
        <time>2022-07-30T13:56:41Z</time>
      </trkpt>
      <trkpt lat="42.72942" lon="-0.30913">
        <time>2022-07-30T13:56:42Z</time>
      </trkpt>
      <trkpt lat="42.72952" lon="-0.30907">
        <time>2022-07-30T13:56:43Z</time>
      </trkpt>
      <trkpt lat="42.72962" lon="-0.30899">
        <time>2022-07-30T13:56:44Z</time>
      </trkpt>
      <trkpt lat="42.72972" lon="-0.30894">
        <time>2022-07-30T13:56:45Z</time>
      </trkpt>
      <trkpt lat="42.72984" lon="-0.30891">
        <time>2022-07-30T13:56:46Z</time>
      </trkpt>
      <trkpt lat="42.72996" lon="-0.30889">
        <time>2022-07-30T13:56:47Z</time>
      </trkpt>
      <trkpt lat="42.73007" lon="-0.30887">
        <time>2022-07-30T13:56:48Z</time>
      </trkpt>
      <trkpt lat="42.73017" lon="-0.30884">
        <time>2022-07-30T13:56:49Z</time>
      </trkpt>
      <trkpt lat="42.73025" lon="-0.30877">
        <time>2022-07-30T13:56:50Z</time>
      </trkpt>
      <trkpt lat="42.73032" lon="-0.30868">
        <time>2022-07-30T13:56:51Z</time>
      </trkpt>
      <trkpt lat="42.73036" lon="-0.30853">
        <time>2022-07-30T13:56:52Z</time>
      </trkpt>
      <trkpt lat="42.73033" lon="-0.30839">
        <time>2022-07-30T13:56:53Z</time>
      </trkpt>
      <trkpt lat="42.73028" lon="-0.30825">
        <time>2022-07-30T13:56:54Z</time>
      </trkpt>
      <trkpt lat="42.73019" lon="-0.30812">
        <time>2022-07-30T13:56:55Z</time>
      </trkpt>
      <trkpt lat="42.73007" lon="-0.30799">
        <time>2022-07-30T13:56:56Z</time>
      </trkpt>
      <trkpt lat="42.72995" lon="-0.30785">
        <time>2022-07-30T13:56:57Z</time>
      </trkpt>
      <trkpt lat="42.72983" lon="-0.30773">
        <time>2022-07-30T13:56:58Z</time>
      </trkpt>
      <trkpt lat="42.72974" lon="-0.30761">
        <time>2022-07-30T13:56:59Z</time>
      </trkpt>
      <trkpt lat="42.72967" lon="-0.30747">
        <time>2022-07-30T13:57:00Z</time>
      </trkpt>
      <trkpt lat="42.72963" lon="-0.3073">
        <time>2022-07-30T13:57:01Z</time>
      </trkpt>
      <trkpt lat="42.72963" lon="-0.30713">
        <time>2022-07-30T13:57:02Z</time>
      </trkpt>
      <trkpt lat="42.72965" lon="-0.30691">
        <time>2022-07-30T13:57:03Z</time>
      </trkpt>
      <trkpt lat="42.72968" lon="-0.30671">
        <time>2022-07-30T13:57:04Z</time>
      </trkpt>
      <trkpt lat="42.72974" lon="-0.3065">
        <time>2022-07-30T13:57:05Z</time>
      </trkpt>
      <trkpt lat="42.72981" lon="-0.3063">
        <time>2022-07-30T13:57:06Z</time>
      </trkpt>
      <trkpt lat="42.72987" lon="-0.30612">
        <time>2022-07-30T13:57:07Z</time>
      </trkpt>
      <trkpt lat="42.72992" lon="-0.3059">
        <time>2022-07-30T13:57:08Z</time>
      </trkpt>
      <trkpt lat="42.72995" lon="-0.30569">
        <time>2022-07-30T13:57:09Z</time>
      </trkpt>
      <trkpt lat="42.72995" lon="-0.30548">
        <time>2022-07-30T13:57:10Z</time>
      </trkpt>
      <trkpt lat="42.72993" lon="-0.30524">
        <time>2022-07-30T13:57:11Z</time>
      </trkpt>
      <trkpt lat="42.7299" lon="-0.30503">
        <time>2022-07-30T13:57:12Z</time>
      </trkpt>
      <trkpt lat="42.72987" lon="-0.30482">
        <time>2022-07-30T13:57:13Z</time>
      </trkpt>
      <trkpt lat="42.72986" lon="-0.30462">
        <time>2022-07-30T13:57:14Z</time>
      </trkpt>
      <trkpt lat="42.72988" lon="-0.30443">
        <time>2022-07-30T13:57:15Z</time>
      </trkpt>
      <trkpt lat="42.72992" lon="-0.30422">
        <time>2022-07-30T13:57:16Z</time>
      </trkpt>
      <trkpt lat="42.72996" lon="-0.30404">
        <time>2022-07-30T13:57:17Z</time>
      </trkpt>
      <trkpt lat="42.73" lon="-0.30386">
        <time>2022-07-30T13:57:18Z</time>
      </trkpt>
      <trkpt lat="42.73001" lon="-0.30367">
        <time>2022-07-30T13:57:19Z</time>
      </trkpt>
      <trkpt lat="42.73001" lon="-0.30348">
        <time>2022-07-30T13:57:20Z</time>
      </trkpt>
      <trkpt lat="42.72998" lon="-0.30326">
        <time>2022-07-30T13:57:21Z</time>
      </trkpt>
      <trkpt lat="42.72993" lon="-0.30305">
        <time>2022-07-30T13:57:22Z</time>
      </trkpt>
      <trkpt lat="42.72986" lon="-0.30287">
        <time>2022-07-30T13:57:23Z</time>
      </trkpt>
      <trkpt lat="42.72977" lon="-0.30268">
        <time>2022-07-30T13:57:24Z</time>
      </trkpt>
      <trkpt lat="42.7297" lon="-0.30249">
        <time>2022-07-30T13:57:25Z</time>
      </trkpt>
      <trkpt lat="42.72965" lon="-0.30231">
        <time>2022-07-30T13:57:26Z</time>
      </trkpt>
      <trkpt lat="42.72961" lon="-0.30214">
        <time>2022-07-30T13:57:27Z</time>
      </trkpt>
      <trkpt lat="42.72958" lon="-0.302">
        <time>2022-07-30T13:57:28Z</time>
      </trkpt>
      <trkpt lat="42.72952" lon="-0.30188">
        <time>2022-07-30T13:57:29Z</time>
      </trkpt>
      <trkpt lat="42.72944" lon="-0.30179">
        <time>2022-07-30T13:57:30Z</time>
      </trkpt>
      <trkpt lat="42.72934" lon="-0.30174">
        <time>2022-07-30T13:57:31Z</time>
      </trkpt>
      <trkpt lat="42.72923" lon="-0.30173">
        <time>2022-07-30T13:57:32Z</time>
      </trkpt>
      <trkpt lat="42.72912" lon="-0.30179">
        <time>2022-07-30T13:57:33Z</time>
      </trkpt>
      <trkpt lat="42.72902" lon="-0.30188">
        <time>2022-07-30T13:57:34Z</time>
      </trkpt>
      <trkpt lat="42.72892" lon="-0.302">
        <time>2022-07-30T13:57:35Z</time>
      </trkpt>
      <trkpt lat="42.72882" lon="-0.30208">
        <time>2022-07-30T13:57:36Z</time>
      </trkpt>
      <trkpt lat="42.7287" lon="-0.30214">
        <time>2022-07-30T13:57:37Z</time>
      </trkpt>
      <trkpt lat="42.72859" lon="-0.30213">
        <time>2022-07-30T13:57:38Z</time>
      </trkpt>
      <trkpt lat="42.72848" lon="-0.30208">
        <time>2022-07-30T13:57:39Z</time>
      </trkpt>
      <trkpt lat="42.72835" lon="-0.30198">
        <time>2022-07-30T13:57:40Z</time>
      </trkpt>
      <trkpt lat="42.72825" lon="-0.30185">
        <time>2022-07-30T13:57:41Z</time>
      </trkpt>
      <trkpt lat="42.72816" lon="-0.3017">
        <time>2022-07-30T13:57:42Z</time>
      </trkpt>
      <trkpt lat="42.72807" lon="-0.30155">
        <time>2022-07-30T13:57:43Z</time>
      </trkpt>
      <trkpt lat="42.72796" lon="-0.30141">
        <time>2022-07-30T13:57:44Z</time>
      </trkpt>
      <trkpt lat="42.72784" lon="-0.30128">
        <time>2022-07-30T13:57:45Z</time>
      </trkpt>
      <trkpt lat="42.72772" lon="-0.3012">
        <time>2022-07-30T13:57:46Z</time>
      </trkpt>
      <trkpt lat="42.72759" lon="-0.30115">
        <time>2022-07-30T13:57:47Z</time>
      </trkpt>
      <trkpt lat="42.72745" lon="-0.30115">
        <time>2022-07-30T13:57:48Z</time>
      </trkpt>
      <trkpt lat="42.72732" lon="-0.30119">
        <time>2022-07-30T13:57:49Z</time>
      </trkpt>
      <trkpt lat="42.72722" lon="-0.30127">
        <time>2022-07-30T13:57:50Z</time>
      </trkpt>
      <trkpt lat="42.72714" lon="-0.30136">
        <time>2022-07-30T13:57:51Z</time>
      </trkpt>
      <trkpt lat="42.72709" lon="-0.30144">
        <time>2022-07-30T13:57:52Z</time>
      </trkpt>
      <trkpt lat="42.72705" lon="-0.30151">
        <time>2022-07-30T13:57:53Z</time>
      </trkpt>
      <trkpt lat="42.72702" lon="-0.30156">
        <time>2022-07-30T13:57:54Z</time>
      </trkpt>
      <trkpt lat="42.727" lon="-0.30159">
        <time>2022-07-30T13:57:55Z</time>
      </trkpt>
      <trkpt lat="42.72696" lon="-0.30161">
        <time>2022-07-30T13:58:13Z</time>
      </trkpt>
      <trkpt lat="42.72695" lon="-0.3016">
        <time>2022-07-30T13:58:14Z</time>
      </trkpt>
      <trkpt lat="42.72694" lon="-0.30159">
        <time>2022-07-30T13:58:15Z</time>
      </trkpt>
      <trkpt lat="42.72693" lon="-0.30157">
        <time>2022-07-30T13:58:16Z</time>
      </trkpt>
      <trkpt lat="42.72693" lon="-0.30153">
        <time>2022-07-30T13:58:17Z</time>
      </trkpt>
      <trkpt lat="42.72695" lon="-0.30149">
        <time>2022-07-30T13:58:18Z</time>
      </trkpt>
      <trkpt lat="42.72694" lon="-0.30144">
        <time>2022-07-30T13:58:19Z</time>
      </trkpt>
      <trkpt lat="42.72691" lon="-0.30138">
        <time>2022-07-30T13:58:20Z</time>
      </trkpt>
      <trkpt lat="42.72685" lon="-0.30136">
        <time>2022-07-30T13:58:21Z</time>
      </trkpt>
      <trkpt lat="42.72678" lon="-0.30136">
        <time>2022-07-30T13:58:22Z</time>
      </trkpt>
      <trkpt lat="42.72668" lon="-0.30137">
        <time>2022-07-30T13:58:23Z</time>
      </trkpt>
      <trkpt lat="42.72658" lon="-0.30137">
        <time>2022-07-30T13:58:24Z</time>
      </trkpt>
      <trkpt lat="42.72646" lon="-0.30138">
        <time>2022-07-30T13:58:25Z</time>
      </trkpt>
      <trkpt lat="42.72633" lon="-0.30139">
        <time>2022-07-30T13:58:26Z</time>
      </trkpt>
      <trkpt lat="42.7262" lon="-0.30139">
        <time>2022-07-30T13:58:27Z</time>
      </trkpt>
      <trkpt lat="42.72605" lon="-0.3014">
        <time>2022-07-30T13:58:28Z</time>
      </trkpt>
      <trkpt lat="42.7259" lon="-0.30141">
        <time>2022-07-30T13:58:29Z</time>
      </trkpt>
      <trkpt lat="42.72575" lon="-0.30141">
        <time>2022-07-30T13:58:30Z</time>
      </trkpt>
      <trkpt lat="42.7256" lon="-0.30142">
        <time>2022-07-30T13:58:31Z</time>
      </trkpt>
      <trkpt lat="42.72544" lon="-0.30143">
        <time>2022-07-30T13:58:32Z</time>
      </trkpt>
      <trkpt lat="42.7253" lon="-0.30143">
        <time>2022-07-30T13:58:33Z</time>
      </trkpt>
      <trkpt lat="42.72515" lon="-0.30142">
        <time>2022-07-30T13:58:34Z</time>
      </trkpt>
      <trkpt lat="42.72502" lon="-0.3014">
        <time>2022-07-30T13:58:35Z</time>
      </trkpt>
      <trkpt lat="42.72487" lon="-0.30135">
        <time>2022-07-30T13:58:36Z</time>
      </trkpt>
      <trkpt lat="42.72473" lon="-0.30129">
        <time>2022-07-30T13:58:37Z</time>
      </trkpt>
      <trkpt lat="42.72461" lon="-0.30123">
        <time>2022-07-30T13:58:38Z</time>
      </trkpt>
      <trkpt lat="42.72449" lon="-0.30115">
        <time>2022-07-30T13:58:39Z</time>
      </trkpt>
      <trkpt lat="42.72439" lon="-0.30107">
        <time>2022-07-30T13:58:40Z</time>
      </trkpt>
      <trkpt lat="42.7243" lon="-0.30094">
        <time>2022-07-30T13:58:41Z</time>
      </trkpt>
      <trkpt lat="42.72423" lon="-0.30079">
        <time>2022-07-30T13:58:42Z</time>
      </trkpt>
      <trkpt lat="42.72419" lon="-0.30061">
        <time>2022-07-30T13:58:43Z</time>
      </trkpt>
      <trkpt lat="42.72415" lon="-0.3004">
        <time>2022-07-30T13:58:44Z</time>
      </trkpt>
      <trkpt lat="42.72412" lon="-0.30019">
        <time>2022-07-30T13:58:45Z</time>
      </trkpt>
      <trkpt lat="42.72409" lon="-0.29998">
        <time>2022-07-30T13:58:46Z</time>
      </trkpt>
      <trkpt lat="42.72406" lon="-0.29976">
        <time>2022-07-30T13:58:47Z</time>
      </trkpt>
      <trkpt lat="42.72401" lon="-0.29955">
        <time>2022-07-30T13:58:48Z</time>
      </trkpt>
      <trkpt lat="42.72395" lon="-0.29933">
        <time>2022-07-30T13:58:49Z</time>
      </trkpt>
      <trkpt lat="42.72387" lon="-0.29913">
        <time>2022-07-30T13:58:50Z</time>
      </trkpt>
      <trkpt lat="42.72377" lon="-0.29895">
        <time>2022-07-30T13:58:51Z</time>
      </trkpt>
      <trkpt lat="42.72364" lon="-0.29875">
        <time>2022-07-30T13:58:52Z</time>
      </trkpt>
      <trkpt lat="42.72352" lon="-0.29857">
        <time>2022-07-30T13:58:53Z</time>
      </trkpt>
      <trkpt lat="42.72338" lon="-0.2984">
        <time>2022-07-30T13:58:54Z</time>
      </trkpt>
      <trkpt lat="42.72325" lon="-0.29825">
        <time>2022-07-30T13:58:55Z</time>
      </trkpt>
      <trkpt lat="42.72313" lon="-0.29811">
        <time>2022-07-30T13:58:56Z</time>
      </trkpt>
      <trkpt lat="42.723" lon="-0.29795">
        <time>2022-07-30T13:58:57Z</time>
      </trkpt>
      <trkpt lat="42.72288" lon="-0.2978">
        <time>2022-07-30T13:58:58Z</time>
      </trkpt>
      <trkpt lat="42.72276" lon="-0.29766">
        <time>2022-07-30T13:58:59Z</time>
      </trkpt>
      <trkpt lat="42.72262" lon="-0.29752">
        <time>2022-07-30T13:59:00Z</time>
      </trkpt>
      <trkpt lat="42.72248" lon="-0.29742">
        <time>2022-07-30T13:59:01Z</time>
      </trkpt>
      <trkpt lat="42.72234" lon="-0.29734">
        <time>2022-07-30T13:59:02Z</time>
      </trkpt>
      <trkpt lat="42.7222" lon="-0.29724">
        <time>2022-07-30T13:59:03Z</time>
      </trkpt>
      <trkpt lat="42.72209" lon="-0.29711">
        <time>2022-07-30T13:59:04Z</time>
      </trkpt>
      <trkpt lat="42.72199" lon="-0.29696">
        <time>2022-07-30T13:59:05Z</time>
      </trkpt>
      <trkpt lat="42.72192" lon="-0.29679">
        <time>2022-07-30T13:59:06Z</time>
      </trkpt>
      <trkpt lat="42.72187" lon="-0.29661">
        <time>2022-07-30T13:59:07Z</time>
      </trkpt>
      <trkpt lat="42.72184" lon="-0.29637">
        <time>2022-07-30T13:59:08Z</time>
      </trkpt>
      <trkpt lat="42.72181" lon="-0.29614">
        <time>2022-07-30T13:59:09Z</time>
      </trkpt>
      <trkpt lat="42.72178" lon="-0.29592">
        <time>2022-07-30T13:59:10Z</time>
      </trkpt>
      <trkpt lat="42.72176" lon="-0.29568">
        <time>2022-07-30T13:59:11Z</time>
      </trkpt>
      <trkpt lat="42.72174" lon="-0.29549">
        <time>2022-07-30T13:59:12Z</time>
      </trkpt>
      <trkpt lat="42.72174" lon="-0.29529">
        <time>2022-07-30T13:59:13Z</time>
      </trkpt>
      <trkpt lat="42.72176" lon="-0.29511">
        <time>2022-07-30T13:59:14Z</time>
      </trkpt>
      <trkpt lat="42.72179" lon="-0.29495">
        <time>2022-07-30T13:59:15Z</time>
      </trkpt>
      <trkpt lat="42.72186" lon="-0.29479">
        <time>2022-07-30T13:59:16Z</time>
      </trkpt>
      <trkpt lat="42.72196" lon="-0.29466">
        <time>2022-07-30T13:59:17Z</time>
      </trkpt>
      <trkpt lat="42.72206" lon="-0.29456">
        <time>2022-07-30T13:59:18Z</time>
      </trkpt>
      <trkpt lat="42.72218" lon="-0.29448">
        <time>2022-07-30T13:59:19Z</time>
      </trkpt>
      <trkpt lat="42.72227" lon="-0.29441">
        <time>2022-07-30T13:59:20Z</time>
      </trkpt>
      <trkpt lat="42.72235" lon="-0.29434">
        <time>2022-07-30T13:59:21Z</time>
      </trkpt>
      <trkpt lat="42.72241" lon="-0.29427">
        <time>2022-07-30T13:59:22Z</time>
      </trkpt>
      <trkpt lat="42.72245" lon="-0.29419">
        <time>2022-07-30T13:59:23Z</time>
      </trkpt>
      <trkpt lat="42.72248" lon="-0.29409">
        <time>2022-07-30T13:59:24Z</time>
      </trkpt>
      <trkpt lat="42.72253" lon="-0.29402">
        <time>2022-07-30T13:59:25Z</time>
      </trkpt>
      <trkpt lat="42.72259" lon="-0.29397">
        <time>2022-07-30T13:59:26Z</time>
      </trkpt>
      <trkpt lat="42.72268" lon="-0.29393">
        <time>2022-07-30T13:59:27Z</time>
      </trkpt>
      <trkpt lat="42.72276" lon="-0.29386">
        <time>2022-07-30T13:59:28Z</time>
      </trkpt>
      <trkpt lat="42.72285" lon="-0.29376">
        <time>2022-07-30T13:59:29Z</time>
      </trkpt>
      <trkpt lat="42.72295" lon="-0.29364">
        <time>2022-07-30T13:59:30Z</time>
      </trkpt>
      <trkpt lat="42.72303" lon="-0.29351">
        <time>2022-07-30T13:59:31Z</time>
      </trkpt>
      <trkpt lat="42.72312" lon="-0.29335">
        <time>2022-07-30T13:59:32Z</time>
      </trkpt>
      <trkpt lat="42.72321" lon="-0.2932">
        <time>2022-07-30T13:59:33Z</time>
      </trkpt>
      <trkpt lat="42.72329" lon="-0.29304">
        <time>2022-07-30T13:59:34Z</time>
      </trkpt>
      <trkpt lat="42.72338" lon="-0.29287">
        <time>2022-07-30T13:59:35Z</time>
      </trkpt>
      <trkpt lat="42.72347" lon="-0.29269">
        <time>2022-07-30T13:59:36Z</time>
      </trkpt>
      <trkpt lat="42.72356" lon="-0.29252">
        <time>2022-07-30T13:59:37Z</time>
      </trkpt>
      <trkpt lat="42.72365" lon="-0.29234">
        <time>2022-07-30T13:59:38Z</time>
      </trkpt>
      <trkpt lat="42.72373" lon="-0.29218">
        <time>2022-07-30T13:59:39Z</time>
      </trkpt>
      <trkpt lat="42.72381" lon="-0.29201">
        <time>2022-07-30T13:59:40Z</time>
      </trkpt>
      <trkpt lat="42.72389" lon="-0.29185">
        <time>2022-07-30T13:59:41Z</time>
      </trkpt>
      <trkpt lat="42.72396" lon="-0.2917">
        <time>2022-07-30T13:59:42Z</time>
      </trkpt>
      <trkpt lat="42.72402" lon="-0.29154">
        <time>2022-07-30T13:59:43Z</time>
      </trkpt>
      <trkpt lat="42.72409" lon="-0.2914">
        <time>2022-07-30T13:59:44Z</time>
      </trkpt>
      <trkpt lat="42.72416" lon="-0.29124">
        <time>2022-07-30T13:59:45Z</time>
      </trkpt>
      <trkpt lat="42.72423" lon="-0.29109">
        <time>2022-07-30T13:59:46Z</time>
      </trkpt>
      <trkpt lat="42.72428" lon="-0.29095">
        <time>2022-07-30T13:59:47Z</time>
      </trkpt>
      <trkpt lat="42.72433" lon="-0.2908">
        <time>2022-07-30T13:59:48Z</time>
      </trkpt>
      <trkpt lat="42.72438" lon="-0.29067">
        <time>2022-07-30T13:59:49Z</time>
      </trkpt>
      <trkpt lat="42.72441" lon="-0.29055">
        <time>2022-07-30T13:59:50Z</time>
      </trkpt>
      <trkpt lat="42.72444" lon="-0.29044">
        <time>2022-07-30T13:59:51Z</time>
      </trkpt>
      <trkpt lat="42.72446" lon="-0.29033">
        <time>2022-07-30T13:59:52Z</time>
      </trkpt>
      <trkpt lat="42.72446" lon="-0.29023">
        <time>2022-07-30T13:59:53Z</time>
      </trkpt>
      <trkpt lat="42.72444" lon="-0.29014">
        <time>2022-07-30T13:59:54Z</time>
      </trkpt>
      <trkpt lat="42.72442" lon="-0.29006">
        <time>2022-07-30T13:59:55Z</time>
      </trkpt>
      <trkpt lat="42.72439" lon="-0.28997">
        <time>2022-07-30T13:59:56Z</time>
      </trkpt>
      <trkpt lat="42.72437" lon="-0.28988">
        <time>2022-07-30T13:59:57Z</time>
      </trkpt>
      <trkpt lat="42.72435" lon="-0.28978">
        <time>2022-07-30T13:59:58Z</time>
      </trkpt>
      <trkpt lat="42.72435" lon="-0.28968">
        <time>2022-07-30T13:59:59Z</time>
      </trkpt>
      <trkpt lat="42.72435" lon="-0.28959">
        <time>2022-07-30T14:00:00Z</time>
      </trkpt>
      <trkpt lat="42.72436" lon="-0.28948">
        <time>2022-07-30T14:00:01Z</time>
      </trkpt>
      <trkpt lat="42.72438" lon="-0.28937">
        <time>2022-07-30T14:00:02Z</time>
      </trkpt>
      <trkpt lat="42.7244" lon="-0.28928">
        <time>2022-07-30T14:00:03Z</time>
      </trkpt>
      <trkpt lat="42.72442" lon="-0.28917">
        <time>2022-07-30T14:00:04Z</time>
      </trkpt>
      <trkpt lat="42.72444" lon="-0.28906">
        <time>2022-07-30T14:00:05Z</time>
      </trkpt>
      <trkpt lat="42.72445" lon="-0.28895">
        <time>2022-07-30T14:00:06Z</time>
      </trkpt>
      <trkpt lat="42.72446" lon="-0.28885">
        <time>2022-07-30T14:00:07Z</time>
      </trkpt>
      <trkpt lat="42.72445" lon="-0.28874">
        <time>2022-07-30T14:00:08Z</time>
      </trkpt>
      <trkpt lat="42.72442" lon="-0.28863">
        <time>2022-07-30T14:00:09Z</time>
      </trkpt>
      <trkpt lat="42.72438" lon="-0.28853">
        <time>2022-07-30T14:00:10Z</time>
      </trkpt>
      <trkpt lat="42.72434" lon="-0.28844">
        <time>2022-07-30T14:00:11Z</time>
      </trkpt>
      <trkpt lat="42.72429" lon="-0.28834">
        <time>2022-07-30T14:00:12Z</time>
      </trkpt>
      <trkpt lat="42.72424" lon="-0.28824">
        <time>2022-07-30T14:00:13Z</time>
      </trkpt>
      <trkpt lat="42.72419" lon="-0.28816">
        <time>2022-07-30T14:00:14Z</time>
      </trkpt>
      <trkpt lat="42.72414" lon="-0.28805">
        <time>2022-07-30T14:00:15Z</time>
      </trkpt>
      <trkpt lat="42.72409" lon="-0.28796">
        <time>2022-07-30T14:00:16Z</time>
      </trkpt>
      <trkpt lat="42.72405" lon="-0.28785">
        <time>2022-07-30T14:00:17Z</time>
      </trkpt>
      <trkpt lat="42.72402" lon="-0.28774">
        <time>2022-07-30T14:00:18Z</time>
      </trkpt>
      <trkpt lat="42.72399" lon="-0.28764">
        <time>2022-07-30T14:00:19Z</time>
      </trkpt>
      <trkpt lat="42.72397" lon="-0.28753">
        <time>2022-07-30T14:00:20Z</time>
      </trkpt>
      <trkpt lat="42.72396" lon="-0.28744">
        <time>2022-07-30T14:00:21Z</time>
      </trkpt>
      <trkpt lat="42.72394" lon="-0.28737">
        <time>2022-07-30T14:00:22Z</time>
      </trkpt>
      <trkpt lat="42.72392" lon="-0.28731">
        <time>2022-07-30T14:00:23Z</time>
      </trkpt>
      <trkpt lat="42.72389" lon="-0.28727">
        <time>2022-07-30T14:00:24Z</time>
      </trkpt>
      <trkpt lat="42.72386" lon="-0.28724">
        <time>2022-07-30T14:00:25Z</time>
      </trkpt>
      <trkpt lat="42.72383" lon="-0.28722">
        <time>2022-07-30T14:00:26Z</time>
      </trkpt>
      <trkpt lat="42.72381" lon="-0.2872">
        <time>2022-07-30T14:00:27Z</time>
      </trkpt>
      <trkpt lat="42.72379" lon="-0.28717">
        <time>2022-07-30T14:00:28Z</time>
      </trkpt>
      <trkpt lat="42.72378" lon="-0.28713">
        <time>2022-07-30T14:00:29Z</time>
      </trkpt>
      <trkpt lat="42.72378" lon="-0.28708">
        <time>2022-07-30T14:00:30Z</time>
      </trkpt>
      <trkpt lat="42.72378" lon="-0.28702">
        <time>2022-07-30T14:00:31Z</time>
      </trkpt>
      <trkpt lat="42.72378" lon="-0.28695">
        <time>2022-07-30T14:00:32Z</time>
      </trkpt>
      <trkpt lat="42.72378" lon="-0.28686">
        <time>2022-07-30T14:00:33Z</time>
      </trkpt>
      <trkpt lat="42.72378" lon="-0.28678">
        <time>2022-07-30T14:00:34Z</time>
      </trkpt>
      <trkpt lat="42.72377" lon="-0.28672">
        <time>2022-07-30T14:00:35Z</time>
      </trkpt>
      <trkpt lat="42.72376" lon="-0.28664">
        <time>2022-07-30T14:00:36Z</time>
      </trkpt>
      <trkpt lat="42.72375" lon="-0.28658">
        <time>2022-07-30T14:00:37Z</time>
      </trkpt>
      <trkpt lat="42.72374" lon="-0.28651">
        <time>2022-07-30T14:00:38Z</time>
      </trkpt>
      <trkpt lat="42.72374" lon="-0.28645">
        <time>2022-07-30T14:00:39Z</time>
      </trkpt>
      <trkpt lat="42.72374" lon="-0.28639">
        <time>2022-07-30T14:00:40Z</time>
      </trkpt>
      <trkpt lat="42.72376" lon="-0.28635">
        <time>2022-07-30T14:00:41Z</time>
      </trkpt>
      <trkpt lat="42.72378" lon="-0.28631">
        <time>2022-07-30T14:00:42Z</time>
      </trkpt>
      <trkpt lat="42.7238" lon="-0.28627">
        <time>2022-07-30T14:00:43Z</time>
      </trkpt>
      <trkpt lat="42.72382" lon="-0.28622">
        <time>2022-07-30T14:00:44Z</time>
      </trkpt>
      <trkpt lat="42.72383" lon="-0.28615">
        <time>2022-07-30T14:00:45Z</time>
      </trkpt>
      <trkpt lat="42.72383" lon="-0.28607">
        <time>2022-07-30T14:00:46Z</time>
      </trkpt>
      <trkpt lat="42.72383" lon="-0.286">
        <time>2022-07-30T14:00:47Z</time>
      </trkpt>
      <trkpt lat="42.72384" lon="-0.28592">
        <time>2022-07-30T14:00:48Z</time>
      </trkpt>
      <trkpt lat="42.72384" lon="-0.28584">
        <time>2022-07-30T14:00:49Z</time>
      </trkpt>
      <trkpt lat="42.72384" lon="-0.28577">
        <time>2022-07-30T14:00:50Z</time>
      </trkpt>
      <trkpt lat="42.72383" lon="-0.2857">
        <time>2022-07-30T14:00:51Z</time>
      </trkpt>
      <trkpt lat="42.72382" lon="-0.28562">
        <time>2022-07-30T14:00:52Z</time>
      </trkpt>
      <trkpt lat="42.72381" lon="-0.28555">
        <time>2022-07-30T14:00:53Z</time>
      </trkpt>
      <trkpt lat="42.72379" lon="-0.28548">
        <time>2022-07-30T14:00:54Z</time>
      </trkpt>
      <trkpt lat="42.72377" lon="-0.28541">
        <time>2022-07-30T14:00:55Z</time>
      </trkpt>
      <trkpt lat="42.72375" lon="-0.28534">
        <time>2022-07-30T14:00:56Z</time>
      </trkpt>
      <trkpt lat="42.72374" lon="-0.28527">
        <time>2022-07-30T14:00:57Z</time>
      </trkpt>
      <trkpt lat="42.72372" lon="-0.28519">
        <time>2022-07-30T14:00:58Z</time>
      </trkpt>
      <trkpt lat="42.72369" lon="-0.28513">
        <time>2022-07-30T14:00:59Z</time>
      </trkpt>
      <trkpt lat="42.72367" lon="-0.28505">
        <time>2022-07-30T14:01:00Z</time>
      </trkpt>
      <trkpt lat="42.72365" lon="-0.28498">
        <time>2022-07-30T14:01:01Z</time>
      </trkpt>
      <trkpt lat="42.72365" lon="-0.2849">
        <time>2022-07-30T14:01:02Z</time>
      </trkpt>
      <trkpt lat="42.72366" lon="-0.28483">
        <time>2022-07-30T14:01:03Z</time>
      </trkpt>
      <trkpt lat="42.72366" lon="-0.28477">
        <time>2022-07-30T14:01:04Z</time>
      </trkpt>
      <trkpt lat="42.72367" lon="-0.2847">
        <time>2022-07-30T14:01:05Z</time>
      </trkpt>
      <trkpt lat="42.72368" lon="-0.28464">
        <time>2022-07-30T14:01:06Z</time>
      </trkpt>
      <trkpt lat="42.72369" lon="-0.28458">
        <time>2022-07-30T14:01:07Z</time>
      </trkpt>
      <trkpt lat="42.7237" lon="-0.28451">
        <time>2022-07-30T14:01:08Z</time>
      </trkpt>
      <trkpt lat="42.72371" lon="-0.28443">
        <time>2022-07-30T14:01:09Z</time>
      </trkpt>
      <trkpt lat="42.72373" lon="-0.28435">
        <time>2022-07-30T14:01:10Z</time>
      </trkpt>
      <trkpt lat="42.72374" lon="-0.28428">
        <time>2022-07-30T14:01:11Z</time>
      </trkpt>
      <trkpt lat="42.72375" lon="-0.28421">
        <time>2022-07-30T14:01:12Z</time>
      </trkpt>
      <trkpt lat="42.72376" lon="-0.28414">
        <time>2022-07-30T14:01:13Z</time>
      </trkpt>
      <trkpt lat="42.72377" lon="-0.28409">
        <time>2022-07-30T14:01:14Z</time>
      </trkpt>
      <trkpt lat="42.72378" lon="-0.28404">
        <time>2022-07-30T14:01:15Z</time>
      </trkpt>
      <trkpt lat="42.7238" lon="-0.28399">
        <time>2022-07-30T14:01:16Z</time>
      </trkpt>
      <trkpt lat="42.7238" lon="-0.28394">
        <time>2022-07-30T14:01:17Z</time>
      </trkpt>
      <trkpt lat="42.7238" lon="-0.28388">
        <time>2022-07-30T14:01:18Z</time>
      </trkpt>
      <trkpt lat="42.7238" lon="-0.28382">
        <time>2022-07-30T14:01:19Z</time>
      </trkpt>
      <trkpt lat="42.72379" lon="-0.28375">
        <time>2022-07-30T14:01:20Z</time>
      </trkpt>
      <trkpt lat="42.72379" lon="-0.28367">
        <time>2022-07-30T14:01:21Z</time>
      </trkpt>
      <trkpt lat="42.72379" lon="-0.2836">
        <time>2022-07-30T14:01:22Z</time>
      </trkpt>
      <trkpt lat="42.7238" lon="-0.28352">
        <time>2022-07-30T14:01:23Z</time>
      </trkpt>
      <trkpt lat="42.7238" lon="-0.28344">
        <time>2022-07-30T14:01:24Z</time>
      </trkpt>
      <trkpt lat="42.72381" lon="-0.28337">
        <time>2022-07-30T14:01:25Z</time>
      </trkpt>
      <trkpt lat="42.72381" lon="-0.2833">
        <time>2022-07-30T14:01:26Z</time>
      </trkpt>
      <trkpt lat="42.72383" lon="-0.28322">
        <time>2022-07-30T14:01:27Z</time>
      </trkpt>
      <trkpt lat="42.72384" lon="-0.28314">
        <time>2022-07-30T14:01:28Z</time>
      </trkpt>
      <trkpt lat="42.72385" lon="-0.28306">
        <time>2022-07-30T14:01:29Z</time>
      </trkpt>
      <trkpt lat="42.72387" lon="-0.28297">
        <time>2022-07-30T14:01:30Z</time>
      </trkpt>
      <trkpt lat="42.72388" lon="-0.28288">
        <time>2022-07-30T14:01:31Z</time>
      </trkpt>
      <trkpt lat="42.7239" lon="-0.28279">
        <time>2022-07-30T14:01:32Z</time>
      </trkpt>
      <trkpt lat="42.72391" lon="-0.28271">
        <time>2022-07-30T14:01:33Z</time>
      </trkpt>
      <trkpt lat="42.72392" lon="-0.28265">
        <time>2022-07-30T14:01:34Z</time>
      </trkpt>
      <trkpt lat="42.72392" lon="-0.28257">
        <time>2022-07-30T14:01:35Z</time>
      </trkpt>
      <trkpt lat="42.72392" lon="-0.2825">
        <time>2022-07-30T14:01:36Z</time>
      </trkpt>
      <trkpt lat="42.7239" lon="-0.28241">
        <time>2022-07-30T14:01:37Z</time>
      </trkpt>
      <trkpt lat="42.72388" lon="-0.28234">
        <time>2022-07-30T14:01:38Z</time>
      </trkpt>
      <trkpt lat="42.72385" lon="-0.28228">
        <time>2022-07-30T14:01:39Z</time>
      </trkpt>
      <trkpt lat="42.72381" lon="-0.28221">
        <time>2022-07-30T14:01:40Z</time>
      </trkpt>
      <trkpt lat="42.72377" lon="-0.28215">
        <time>2022-07-30T14:01:41Z</time>
      </trkpt>
      <trkpt lat="42.72374" lon="-0.2821">
        <time>2022-07-30T14:01:42Z</time>
      </trkpt>
      <trkpt lat="42.7237" lon="-0.28204">
        <time>2022-07-30T14:01:43Z</time>
      </trkpt>
      <trkpt lat="42.72365" lon="-0.282">
        <time>2022-07-30T14:01:44Z</time>
      </trkpt>
      <trkpt lat="42.72361" lon="-0.28195">
        <time>2022-07-30T14:01:45Z</time>
      </trkpt>
      <trkpt lat="42.72357" lon="-0.28191">
        <time>2022-07-30T14:01:46Z</time>
      </trkpt>
      <trkpt lat="42.72354" lon="-0.28186">
        <time>2022-07-30T14:01:47Z</time>
      </trkpt>
      <trkpt lat="42.72351" lon="-0.28181">
        <time>2022-07-30T14:01:48Z</time>
      </trkpt>
      <trkpt lat="42.72347" lon="-0.28177">
        <time>2022-07-30T14:01:49Z</time>
      </trkpt>
      <trkpt lat="42.72344" lon="-0.28174">
        <time>2022-07-30T14:01:50Z</time>
      </trkpt>
      <trkpt lat="42.7234" lon="-0.2817">
        <time>2022-07-30T14:01:51Z</time>
      </trkpt>
      <trkpt lat="42.72336" lon="-0.28168">
        <time>2022-07-30T14:01:52Z</time>
      </trkpt>
      <trkpt lat="42.72331" lon="-0.28165">
        <time>2022-07-30T14:01:53Z</time>
      </trkpt>
      <trkpt lat="42.72326" lon="-0.28163">
        <time>2022-07-30T14:01:54Z</time>
      </trkpt>
      <trkpt lat="42.72322" lon="-0.28162">
        <time>2022-07-30T14:01:55Z</time>
      </trkpt>
      <trkpt lat="42.72318" lon="-0.28161">
        <time>2022-07-30T14:01:56Z</time>
      </trkpt>
      <trkpt lat="42.72314" lon="-0.28159">
        <time>2022-07-30T14:01:57Z</time>
      </trkpt>
      <trkpt lat="42.7231" lon="-0.28158">
        <time>2022-07-30T14:01:58Z</time>
      </trkpt>
      <trkpt lat="42.72307" lon="-0.28157">
        <time>2022-07-30T14:01:59Z</time>
      </trkpt>
      <trkpt lat="42.72304" lon="-0.28155">
        <time>2022-07-30T14:02:00Z</time>
      </trkpt>
      <trkpt lat="42.72301" lon="-0.28152">
        <time>2022-07-30T14:02:01Z</time>
      </trkpt>
      <trkpt lat="42.72298" lon="-0.28146">
        <time>2022-07-30T14:02:02Z</time>
      </trkpt>
      <trkpt lat="42.72296" lon="-0.2814">
        <time>2022-07-30T14:02:03Z</time>
      </trkpt>
      <trkpt lat="42.72293" lon="-0.28132">
        <time>2022-07-30T14:02:04Z</time>
      </trkpt>
      <trkpt lat="42.7229" lon="-0.28125">
        <time>2022-07-30T14:02:05Z</time>
      </trkpt>
      <trkpt lat="42.72289" lon="-0.28117">
        <time>2022-07-30T14:02:06Z</time>
      </trkpt>
      <trkpt lat="42.72287" lon="-0.28109">
        <time>2022-07-30T14:02:07Z</time>
      </trkpt>
      <trkpt lat="42.72285" lon="-0.28102">
        <time>2022-07-30T14:02:08Z</time>
      </trkpt>
      <trkpt lat="42.72283" lon="-0.28094">
        <time>2022-07-30T14:02:09Z</time>
      </trkpt>
      <trkpt lat="42.72281" lon="-0.28087">
        <time>2022-07-30T14:02:10Z</time>
      </trkpt>
      <trkpt lat="42.7228" lon="-0.28081">
        <time>2022-07-30T14:02:11Z</time>
      </trkpt>
      <trkpt lat="42.72278" lon="-0.28075">
        <time>2022-07-30T14:02:12Z</time>
      </trkpt>
      <trkpt lat="42.72275" lon="-0.2807">
        <time>2022-07-30T14:02:13Z</time>
      </trkpt>
      <trkpt lat="42.72272" lon="-0.28067">
        <time>2022-07-30T14:02:14Z</time>
      </trkpt>
      <trkpt lat="42.72269" lon="-0.28065">
        <time>2022-07-30T14:02:15Z</time>
      </trkpt>
      <trkpt lat="42.72265" lon="-0.28063">
        <time>2022-07-30T14:02:16Z</time>
      </trkpt>
      <trkpt lat="42.72261" lon="-0.28063">
        <time>2022-07-30T14:02:17Z</time>
      </trkpt>
      <trkpt lat="42.72257" lon="-0.28064">
        <time>2022-07-30T14:02:18Z</time>
      </trkpt>
      <trkpt lat="42.72253" lon="-0.28064">
        <time>2022-07-30T14:02:19Z</time>
      </trkpt>
      <trkpt lat="42.72249" lon="-0.28065">
        <time>2022-07-30T14:02:20Z</time>
      </trkpt>
      <trkpt lat="42.72246" lon="-0.28067">
        <time>2022-07-30T14:02:21Z</time>
      </trkpt>
      <trkpt lat="42.72242" lon="-0.2807">
        <time>2022-07-30T14:02:22Z</time>
      </trkpt>
      <trkpt lat="42.72239" lon="-0.28074">
        <time>2022-07-30T14:02:23Z</time>
      </trkpt>
      <trkpt lat="42.72235" lon="-0.28079">
        <time>2022-07-30T14:02:24Z</time>
      </trkpt>
      <trkpt lat="42.72232" lon="-0.28084">
        <time>2022-07-30T14:02:25Z</time>
      </trkpt>
      <trkpt lat="42.7223" lon="-0.28091">
        <time>2022-07-30T14:02:26Z</time>
      </trkpt>
      <trkpt lat="42.72227" lon="-0.28099">
        <time>2022-07-30T14:02:27Z</time>
      </trkpt>
      <trkpt lat="42.72224" lon="-0.28109">
        <time>2022-07-30T14:02:28Z</time>
      </trkpt>
      <trkpt lat="42.72222" lon="-0.28119">
        <time>2022-07-30T14:02:29Z</time>
      </trkpt>
      <trkpt lat="42.7222" lon="-0.28131">
        <time>2022-07-30T14:02:30Z</time>
      </trkpt>
      <trkpt lat="42.72217" lon="-0.28144">
        <time>2022-07-30T14:02:31Z</time>
      </trkpt>
      <trkpt lat="42.72215" lon="-0.28157">
        <time>2022-07-30T14:02:32Z</time>
      </trkpt>
      <trkpt lat="42.72212" lon="-0.28171">
        <time>2022-07-30T14:02:33Z</time>
      </trkpt>
      <trkpt lat="42.7221" lon="-0.28186">
        <time>2022-07-30T14:02:34Z</time>
      </trkpt>
      <trkpt lat="42.72207" lon="-0.28201">
        <time>2022-07-30T14:02:35Z</time>
      </trkpt>
      <trkpt lat="42.72204" lon="-0.2822">
        <time>2022-07-30T14:02:36Z</time>
      </trkpt>
      <trkpt lat="42.72201" lon="-0.28241">
        <time>2022-07-30T14:02:37Z</time>
      </trkpt>
      <trkpt lat="42.72198" lon="-0.28259">
        <time>2022-07-30T14:02:38Z</time>
      </trkpt>
      <trkpt lat="42.72194" lon="-0.2828">
        <time>2022-07-30T14:02:39Z</time>
      </trkpt>
      <trkpt lat="42.72191" lon="-0.28299">
        <time>2022-07-30T14:02:40Z</time>
      </trkpt>
      <trkpt lat="42.72187" lon="-0.28321">
        <time>2022-07-30T14:02:41Z</time>
      </trkpt>
      <trkpt lat="42.72184" lon="-0.28339">
        <time>2022-07-30T14:02:42Z</time>
      </trkpt>
      <trkpt lat="42.72181" lon="-0.28355">
        <time>2022-07-30T14:02:43Z</time>
      </trkpt>
      <trkpt lat="42.72179" lon="-0.28371">
        <time>2022-07-30T14:02:44Z</time>
      </trkpt>
      <trkpt lat="42.72176" lon="-0.28385">
        <time>2022-07-30T14:02:45Z</time>
      </trkpt>
      <trkpt lat="42.72174" lon="-0.28397">
        <time>2022-07-30T14:02:46Z</time>
      </trkpt>
      <trkpt lat="42.72173" lon="-0.28409">
        <time>2022-07-30T14:02:47Z</time>
      </trkpt>
      <trkpt lat="42.72173" lon="-0.2842">
        <time>2022-07-30T14:02:48Z</time>
      </trkpt>
      <trkpt lat="42.72175" lon="-0.28429">
        <time>2022-07-30T14:02:49Z</time>
      </trkpt>
      <trkpt lat="42.72178" lon="-0.28439">
        <time>2022-07-30T14:02:50Z</time>
      </trkpt>
      <trkpt lat="42.72184" lon="-0.28446">
        <time>2022-07-30T14:02:51Z</time>
      </trkpt>
      <trkpt lat="42.72192" lon="-0.28453">
        <time>2022-07-30T14:02:52Z</time>
      </trkpt>
      <trkpt lat="42.72202" lon="-0.28457">
        <time>2022-07-30T14:02:53Z</time>
      </trkpt>
      <trkpt lat="42.72213" lon="-0.28459">
        <time>2022-07-30T14:02:54Z</time>
      </trkpt>
      <trkpt lat="42.72224" lon="-0.28461">
        <time>2022-07-30T14:02:55Z</time>
      </trkpt>
      <trkpt lat="42.72232" lon="-0.28463">
        <time>2022-07-30T14:02:56Z</time>
      </trkpt>
      <trkpt lat="42.7224" lon="-0.28465">
        <time>2022-07-30T14:02:57Z</time>
      </trkpt>
      <trkpt lat="42.72248" lon="-0.28469">
        <time>2022-07-30T14:02:58Z</time>
      </trkpt>
      <trkpt lat="42.72254" lon="-0.28474">
        <time>2022-07-30T14:02:59Z</time>
      </trkpt>
      <trkpt lat="42.72259" lon="-0.28482">
        <time>2022-07-30T14:03:00Z</time>
      </trkpt>
      <trkpt lat="42.72262" lon="-0.2849">
        <time>2022-07-30T14:03:01Z</time>
      </trkpt>
      <trkpt lat="42.72263" lon="-0.28497">
        <time>2022-07-30T14:03:02Z</time>
      </trkpt>
      <trkpt lat="42.72265" lon="-0.28504">
        <time>2022-07-30T14:03:03Z</time>
      </trkpt>
      <trkpt lat="42.72265" lon="-0.2851">
        <time>2022-07-30T14:03:04Z</time>
      </trkpt>
      <trkpt lat="42.72266" lon="-0.28517">
        <time>2022-07-30T14:03:05Z</time>
      </trkpt>
      <trkpt lat="42.72267" lon="-0.28525">
        <time>2022-07-30T14:03:06Z</time>
      </trkpt>
      <trkpt lat="42.72266" lon="-0.28533">
        <time>2022-07-30T14:03:07Z</time>
      </trkpt>
      <trkpt lat="42.72265" lon="-0.28543">
        <time>2022-07-30T14:03:08Z</time>
      </trkpt>
      <trkpt lat="42.72264" lon="-0.28552">
        <time>2022-07-30T14:03:09Z</time>
      </trkpt>
      <trkpt lat="42.72263" lon="-0.2856">
        <time>2022-07-30T14:03:10Z</time>
      </trkpt>
      <trkpt lat="42.72262" lon="-0.28569">
        <time>2022-07-30T14:03:11Z</time>
      </trkpt>
      <trkpt lat="42.72262" lon="-0.28578">
        <time>2022-07-30T14:03:12Z</time>
      </trkpt>
      <trkpt lat="42.72262" lon="-0.2859">
        <time>2022-07-30T14:03:13Z</time>
      </trkpt>
      <trkpt lat="42.72262" lon="-0.28601">
        <time>2022-07-30T14:03:14Z</time>
      </trkpt>
      <trkpt lat="42.72262" lon="-0.28611">
        <time>2022-07-30T14:03:15Z</time>
      </trkpt>
      <trkpt lat="42.72263" lon="-0.28623">
        <time>2022-07-30T14:03:16Z</time>
      </trkpt>
      <trkpt lat="42.72265" lon="-0.28634">
        <time>2022-07-30T14:03:17Z</time>
      </trkpt>
      <trkpt lat="42.72266" lon="-0.28645">
        <time>2022-07-30T14:03:18Z</time>
      </trkpt>
      <trkpt lat="42.72269" lon="-0.28659">
        <time>2022-07-30T14:03:19Z</time>
      </trkpt>
      <trkpt lat="42.72272" lon="-0.28672">
        <time>2022-07-30T14:03:20Z</time>
      </trkpt>
      <trkpt lat="42.72275" lon="-0.28683">
        <time>2022-07-30T14:03:21Z</time>
      </trkpt>
      <trkpt lat="42.72278" lon="-0.28696">
        <time>2022-07-30T14:03:22Z</time>
      </trkpt>
      <trkpt lat="42.7228" lon="-0.2871">
        <time>2022-07-30T14:03:23Z</time>
      </trkpt>
      <trkpt lat="42.72283" lon="-0.28729">
        <time>2022-07-30T14:03:24Z</time>
      </trkpt>
      <trkpt lat="42.72286" lon="-0.28748">
        <time>2022-07-30T14:03:25Z</time>
      </trkpt>
      <trkpt lat="42.72288" lon="-0.28767">
        <time>2022-07-30T14:03:26Z</time>
      </trkpt>
      <trkpt lat="42.7229" lon="-0.28789">
        <time>2022-07-30T14:03:27Z</time>
      </trkpt>
      <trkpt lat="42.72291" lon="-0.28808">
        <time>2022-07-30T14:03:28Z</time>
      </trkpt>
      <trkpt lat="42.72292" lon="-0.28827">
        <time>2022-07-30T14:03:29Z</time>
      </trkpt>
      <trkpt lat="42.72293" lon="-0.28842">
        <time>2022-07-30T14:03:30Z</time>
      </trkpt>
      <trkpt lat="42.72293" lon="-0.28853">
        <time>2022-07-30T14:03:31Z</time>
      </trkpt>
      <trkpt lat="42.72294" lon="-0.28865">
        <time>2022-07-30T14:03:32Z</time>
      </trkpt>
      <trkpt lat="42.72294" lon="-0.28877">
        <time>2022-07-30T14:03:33Z</time>
      </trkpt>
      <trkpt lat="42.72294" lon="-0.28888">
        <time>2022-07-30T14:03:34Z</time>
      </trkpt>
      <trkpt lat="42.72295" lon="-0.28903">
        <time>2022-07-30T14:03:35Z</time>
      </trkpt>
      <trkpt lat="42.72295" lon="-0.28918">
        <time>2022-07-30T14:03:36Z</time>
      </trkpt>
      <trkpt lat="42.72296" lon="-0.28933">
        <time>2022-07-30T14:03:37Z</time>
      </trkpt>
      <trkpt lat="42.72297" lon="-0.28949">
        <time>2022-07-30T14:03:38Z</time>
      </trkpt>
      <trkpt lat="42.72297" lon="-0.28963">
        <time>2022-07-30T14:03:39Z</time>
      </trkpt>
      <trkpt lat="42.72298" lon="-0.28979">
        <time>2022-07-30T14:03:40Z</time>
      </trkpt>
      <trkpt lat="42.72298" lon="-0.28993">
        <time>2022-07-30T14:03:41Z</time>
      </trkpt>
      <trkpt lat="42.72299" lon="-0.29005">
        <time>2022-07-30T14:03:42Z</time>
      </trkpt>
      <trkpt lat="42.72299" lon="-0.29019">
        <time>2022-07-30T14:03:43Z</time>
      </trkpt>
      <trkpt lat="42.723" lon="-0.29029">
        <time>2022-07-30T14:03:44Z</time>
      </trkpt>
      <trkpt lat="42.72301" lon="-0.2904">
        <time>2022-07-30T14:03:45Z</time>
      </trkpt>
      <trkpt lat="42.72302" lon="-0.29052">
        <time>2022-07-30T14:03:46Z</time>
      </trkpt>
      <trkpt lat="42.72303" lon="-0.29063">
        <time>2022-07-30T14:03:47Z</time>
      </trkpt>
      <trkpt lat="42.72304" lon="-0.29078">
        <time>2022-07-30T14:03:48Z</time>
      </trkpt>
      <trkpt lat="42.72306" lon="-0.29095">
        <time>2022-07-30T14:03:49Z</time>
      </trkpt>
      <trkpt lat="42.72308" lon="-0.29113">
        <time>2022-07-30T14:03:50Z</time>
      </trkpt>
      <trkpt lat="42.7231" lon="-0.29132">
        <time>2022-07-30T14:03:51Z</time>
      </trkpt>
      <trkpt lat="42.72311" lon="-0.29152">
        <time>2022-07-30T14:03:52Z</time>
      </trkpt>
      <trkpt lat="42.7231" lon="-0.29173">
        <time>2022-07-30T14:03:53Z</time>
      </trkpt>
      <trkpt lat="42.72309" lon="-0.29194">
        <time>2022-07-30T14:03:54Z</time>
      </trkpt>
      <trkpt lat="42.72306" lon="-0.29214">
        <time>2022-07-30T14:03:55Z</time>
      </trkpt>
      <trkpt lat="42.72302" lon="-0.29234">
        <time>2022-07-30T14:03:56Z</time>
      </trkpt>
      <trkpt lat="42.72295" lon="-0.29255">
        <time>2022-07-30T14:03:57Z</time>
      </trkpt>
      <trkpt lat="42.72288" lon="-0.29276">
        <time>2022-07-30T14:03:58Z</time>
      </trkpt>
      <trkpt lat="42.72281" lon="-0.29296">
        <time>2022-07-30T14:03:59Z</time>
      </trkpt>
      <trkpt lat="42.72274" lon="-0.29314">
        <time>2022-07-30T14:04:00Z</time>
      </trkpt>
      <trkpt lat="42.72268" lon="-0.29332">
        <time>2022-07-30T14:04:01Z</time>
      </trkpt>
      <trkpt lat="42.72264" lon="-0.29346">
        <time>2022-07-30T14:04:02Z</time>
      </trkpt>
      <trkpt lat="42.7226" lon="-0.29357">
        <time>2022-07-30T14:04:03Z</time>
      </trkpt>
      <trkpt lat="42.72259" lon="-0.29367">
        <time>2022-07-30T14:04:04Z</time>
      </trkpt>
      <trkpt lat="42.72259" lon="-0.29376">
        <time>2022-07-30T14:04:05Z</time>
      </trkpt>
      <trkpt lat="42.7226" lon="-0.29383">
        <time>2022-07-30T14:04:06Z</time>
      </trkpt>
      <trkpt lat="42.72263" lon="-0.29389">
        <time>2022-07-30T14:04:07Z</time>
      </trkpt>
      <trkpt lat="42.72267" lon="-0.29395">
        <time>2022-07-30T14:04:08Z</time>
      </trkpt>
      <trkpt lat="42.7227" lon="-0.29403">
        <time>2022-07-30T14:04:09Z</time>
      </trkpt>
      <trkpt lat="42.72271" lon="-0.29411">
        <time>2022-07-30T14:04:10Z</time>
      </trkpt>
      <trkpt lat="42.7227" lon="-0.29419">
        <time>2022-07-30T14:04:11Z</time>
      </trkpt>
      <trkpt lat="42.72266" lon="-0.29425">
        <time>2022-07-30T14:04:12Z</time>
      </trkpt>
      <trkpt lat="42.72259" lon="-0.29429">
        <time>2022-07-30T14:04:13Z</time>
      </trkpt>
      <trkpt lat="42.7225" lon="-0.29431">
        <time>2022-07-30T14:04:14Z</time>
      </trkpt>
      <trkpt lat="42.72241" lon="-0.29436">
        <time>2022-07-30T14:04:15Z</time>
      </trkpt>
      <trkpt lat="42.72231" lon="-0.29442">
        <time>2022-07-30T14:04:16Z</time>
      </trkpt>
      <trkpt lat="42.72222" lon="-0.29449">
        <time>2022-07-30T14:04:17Z</time>
      </trkpt>
      <trkpt lat="42.72213" lon="-0.29456">
        <time>2022-07-30T14:04:18Z</time>
      </trkpt>
      <trkpt lat="42.72204" lon="-0.29463">
        <time>2022-07-30T14:04:19Z</time>
      </trkpt>
      <trkpt lat="42.72195" lon="-0.29471">
        <time>2022-07-30T14:04:20Z</time>
      </trkpt>
      <trkpt lat="42.72188" lon="-0.2948">
        <time>2022-07-30T14:04:21Z</time>
      </trkpt>
      <trkpt lat="42.72182" lon="-0.29494">
        <time>2022-07-30T14:04:22Z</time>
      </trkpt>
      <trkpt lat="42.72178" lon="-0.2951">
        <time>2022-07-30T14:04:23Z</time>
      </trkpt>
      <trkpt lat="42.72177" lon="-0.29528">
        <time>2022-07-30T14:04:24Z</time>
      </trkpt>
      <trkpt lat="42.72178" lon="-0.29547">
        <time>2022-07-30T14:04:25Z</time>
      </trkpt>
      <trkpt lat="42.72179" lon="-0.29568">
        <time>2022-07-30T14:04:26Z</time>
      </trkpt>
      <trkpt lat="42.7218" lon="-0.29589">
        <time>2022-07-30T14:04:27Z</time>
      </trkpt>
      <trkpt lat="42.72182" lon="-0.29609">
        <time>2022-07-30T14:04:28Z</time>
      </trkpt>
      <trkpt lat="42.72184" lon="-0.2963">
        <time>2022-07-30T14:04:29Z</time>
      </trkpt>
      <trkpt lat="42.72187" lon="-0.2965">
        <time>2022-07-30T14:04:30Z</time>
      </trkpt>
      <trkpt lat="42.72192" lon="-0.2967">
        <time>2022-07-30T14:04:31Z</time>
      </trkpt>
      <trkpt lat="42.72198" lon="-0.29687">
        <time>2022-07-30T14:04:32Z</time>
      </trkpt>
      <trkpt lat="42.72207" lon="-0.29703">
        <time>2022-07-30T14:04:33Z</time>
      </trkpt>
      <trkpt lat="42.72218" lon="-0.29717">
        <time>2022-07-30T14:04:34Z</time>
      </trkpt>
      <trkpt lat="42.72232" lon="-0.29727">
        <time>2022-07-30T14:04:35Z</time>
      </trkpt>
      <trkpt lat="42.72247" lon="-0.29737">
        <time>2022-07-30T14:04:36Z</time>
      </trkpt>
      <trkpt lat="42.72263" lon="-0.29749">
        <time>2022-07-30T14:04:37Z</time>
      </trkpt>
      <trkpt lat="42.72278" lon="-0.29766">
        <time>2022-07-30T14:04:38Z</time>
      </trkpt>
      <trkpt lat="42.72293" lon="-0.29785">
        <time>2022-07-30T14:04:39Z</time>
      </trkpt>
      <trkpt lat="42.72308" lon="-0.29804">
        <time>2022-07-30T14:04:40Z</time>
      </trkpt>
      <trkpt lat="42.72324" lon="-0.29822">
        <time>2022-07-30T14:04:41Z</time>
      </trkpt>
      <trkpt lat="42.7234" lon="-0.29838">
        <time>2022-07-30T14:04:42Z</time>
      </trkpt>
      <trkpt lat="42.72353" lon="-0.29856">
        <time>2022-07-30T14:04:43Z</time>
      </trkpt>
      <trkpt lat="42.72365" lon="-0.29872">
        <time>2022-07-30T14:04:44Z</time>
      </trkpt>
      <trkpt lat="42.72376" lon="-0.29888">
        <time>2022-07-30T14:04:45Z</time>
      </trkpt>
      <trkpt lat="42.72386" lon="-0.29905">
        <time>2022-07-30T14:04:46Z</time>
      </trkpt>
      <trkpt lat="42.72394" lon="-0.29923">
        <time>2022-07-30T14:04:47Z</time>
      </trkpt>
      <trkpt lat="42.724" lon="-0.29944">
        <time>2022-07-30T14:04:48Z</time>
      </trkpt>
      <trkpt lat="42.72405" lon="-0.29967">
        <time>2022-07-30T14:04:49Z</time>
      </trkpt>
      <trkpt lat="42.72409" lon="-0.2999">
        <time>2022-07-30T14:04:50Z</time>
      </trkpt>
      <trkpt lat="42.72413" lon="-0.30013">
        <time>2022-07-30T14:04:51Z</time>
      </trkpt>
      <trkpt lat="42.72416" lon="-0.30033">
        <time>2022-07-30T14:04:52Z</time>
      </trkpt>
      <trkpt lat="42.72419" lon="-0.30052">
        <time>2022-07-30T14:04:53Z</time>
      </trkpt>
      <trkpt lat="42.72422" lon="-0.30069">
        <time>2022-07-30T14:04:54Z</time>
      </trkpt>
      <trkpt lat="42.72427" lon="-0.30084">
        <time>2022-07-30T14:04:55Z</time>
      </trkpt>
      <trkpt lat="42.72434" lon="-0.30098">
        <time>2022-07-30T14:04:56Z</time>
      </trkpt>
      <trkpt lat="42.72445" lon="-0.30109">
        <time>2022-07-30T14:04:57Z</time>
      </trkpt>
      <trkpt lat="42.72458" lon="-0.30119">
        <time>2022-07-30T14:04:58Z</time>
      </trkpt>
      <trkpt lat="42.72472" lon="-0.30127">
        <time>2022-07-30T14:04:59Z</time>
      </trkpt>
      <trkpt lat="42.72487" lon="-0.30134">
        <time>2022-07-30T14:05:00Z</time>
      </trkpt>
      <trkpt lat="42.72502" lon="-0.30137">
        <time>2022-07-30T14:05:01Z</time>
      </trkpt>
      <trkpt lat="42.72519" lon="-0.30138">
        <time>2022-07-30T14:05:02Z</time>
      </trkpt>
      <trkpt lat="42.72537" lon="-0.30138">
        <time>2022-07-30T14:05:03Z</time>
      </trkpt>
      <trkpt lat="42.72556" lon="-0.30138">
        <time>2022-07-30T14:05:04Z</time>
      </trkpt>
      <trkpt lat="42.72576" lon="-0.30138">
        <time>2022-07-30T14:05:05Z</time>
      </trkpt>
      <trkpt lat="42.72595" lon="-0.30138">
        <time>2022-07-30T14:05:06Z</time>
      </trkpt>
      <trkpt lat="42.72614" lon="-0.30136">
        <time>2022-07-30T14:05:07Z</time>
      </trkpt>
      <trkpt lat="42.72633" lon="-0.30136">
        <time>2022-07-30T14:05:08Z</time>
      </trkpt>
      <trkpt lat="42.72652" lon="-0.30134">
        <time>2022-07-30T14:05:09Z</time>
      </trkpt>
      <trkpt lat="42.7267" lon="-0.30133">
        <time>2022-07-30T14:05:10Z</time>
      </trkpt>
      <trkpt lat="42.72687" lon="-0.30131">
        <time>2022-07-30T14:05:11Z</time>
      </trkpt>
      <trkpt lat="42.72703" lon="-0.30127">
        <time>2022-07-30T14:05:12Z</time>
      </trkpt>
      <trkpt lat="42.72717" lon="-0.3012">
        <time>2022-07-30T14:05:13Z</time>
      </trkpt>
      <trkpt lat="42.7273" lon="-0.30114">
        <time>2022-07-30T14:05:14Z</time>
      </trkpt>
      <trkpt lat="42.72742" lon="-0.3011">
        <time>2022-07-30T14:05:15Z</time>
      </trkpt>
      <trkpt lat="42.72755" lon="-0.3011">
        <time>2022-07-30T14:05:16Z</time>
      </trkpt>
      <trkpt lat="42.72769" lon="-0.30115">
        <time>2022-07-30T14:05:17Z</time>
      </trkpt>
      <trkpt lat="42.72782" lon="-0.30123">
        <time>2022-07-30T14:05:18Z</time>
      </trkpt>
      <trkpt lat="42.72794" lon="-0.30135">
        <time>2022-07-30T14:05:19Z</time>
      </trkpt>
      <trkpt lat="42.72805" lon="-0.3015">
        <time>2022-07-30T14:05:20Z</time>
      </trkpt>
      <trkpt lat="42.72813" lon="-0.30166">
        <time>2022-07-30T14:05:21Z</time>
      </trkpt>
      <trkpt lat="42.72822" lon="-0.30181">
        <time>2022-07-30T14:05:22Z</time>
      </trkpt>
      <trkpt lat="42.72832" lon="-0.30193">
        <time>2022-07-30T14:05:23Z</time>
      </trkpt>
      <trkpt lat="42.72844" lon="-0.30204">
        <time>2022-07-30T14:05:24Z</time>
      </trkpt>
      <trkpt lat="42.72856" lon="-0.3021">
        <time>2022-07-30T14:05:25Z</time>
      </trkpt>
      <trkpt lat="42.72868" lon="-0.3021">
        <time>2022-07-30T14:05:26Z</time>
      </trkpt>
      <trkpt lat="42.72879" lon="-0.30205">
        <time>2022-07-30T14:05:27Z</time>
      </trkpt>
      <trkpt lat="42.72891" lon="-0.30197">
        <time>2022-07-30T14:05:28Z</time>
      </trkpt>
      <trkpt lat="42.729" lon="-0.30187">
        <time>2022-07-30T14:05:29Z</time>
      </trkpt>
      <trkpt lat="42.72908" lon="-0.30178">
        <time>2022-07-30T14:05:30Z</time>
      </trkpt>
      <trkpt lat="42.72918" lon="-0.30172">
        <time>2022-07-30T14:05:31Z</time>
      </trkpt>
      <trkpt lat="42.72929" lon="-0.30169">
        <time>2022-07-30T14:05:32Z</time>
      </trkpt>
      <trkpt lat="42.72939" lon="-0.30173">
        <time>2022-07-30T14:05:33Z</time>
      </trkpt>
      <trkpt lat="42.72949" lon="-0.30181">
        <time>2022-07-30T14:05:34Z</time>
      </trkpt>
      <trkpt lat="42.72957" lon="-0.30193">
        <time>2022-07-30T14:05:35Z</time>
      </trkpt>
      <trkpt lat="42.72962" lon="-0.30209">
        <time>2022-07-30T14:05:36Z</time>
      </trkpt>
      <trkpt lat="42.72966" lon="-0.30227">
        <time>2022-07-30T14:05:37Z</time>
      </trkpt>
      <trkpt lat="42.72971" lon="-0.30245">
        <time>2022-07-30T14:05:38Z</time>
      </trkpt>
      <trkpt lat="42.72977" lon="-0.30262">
        <time>2022-07-30T14:05:39Z</time>
      </trkpt>
      <trkpt lat="42.72984" lon="-0.30279">
        <time>2022-07-30T14:05:40Z</time>
      </trkpt>
      <trkpt lat="42.72991" lon="-0.30295">
        <time>2022-07-30T14:05:41Z</time>
      </trkpt>
      <trkpt lat="42.72996" lon="-0.30311">
        <time>2022-07-30T14:05:42Z</time>
      </trkpt>
      <trkpt lat="42.72999" lon="-0.30329">
        <time>2022-07-30T14:05:43Z</time>
      </trkpt>
      <trkpt lat="42.73001" lon="-0.30346">
        <time>2022-07-30T14:05:44Z</time>
      </trkpt>
      <trkpt lat="42.73002" lon="-0.30362">
        <time>2022-07-30T14:05:45Z</time>
      </trkpt>
      <trkpt lat="42.73001" lon="-0.30379">
        <time>2022-07-30T14:05:46Z</time>
      </trkpt>
      <trkpt lat="42.72998" lon="-0.30395">
        <time>2022-07-30T14:05:47Z</time>
      </trkpt>
      <trkpt lat="42.72995" lon="-0.3041">
        <time>2022-07-30T14:05:48Z</time>
      </trkpt>
      <trkpt lat="42.72991" lon="-0.30424">
        <time>2022-07-30T14:05:49Z</time>
      </trkpt>
      <trkpt lat="42.72988" lon="-0.30439">
        <time>2022-07-30T14:05:50Z</time>
      </trkpt>
      <trkpt lat="42.72985" lon="-0.30453">
        <time>2022-07-30T14:05:51Z</time>
      </trkpt>
      <trkpt lat="42.72985" lon="-0.3047">
        <time>2022-07-30T14:05:52Z</time>
      </trkpt>
      <trkpt lat="42.72988" lon="-0.30486">
        <time>2022-07-30T14:05:53Z</time>
      </trkpt>
      <trkpt lat="42.72991" lon="-0.30502">
        <time>2022-07-30T14:05:54Z</time>
      </trkpt>
      <trkpt lat="42.72993" lon="-0.30519">
        <time>2022-07-30T14:05:55Z</time>
      </trkpt>
      <trkpt lat="42.72995" lon="-0.30536">
        <time>2022-07-30T14:05:56Z</time>
      </trkpt>
      <trkpt lat="42.72996" lon="-0.30554">
        <time>2022-07-30T14:05:57Z</time>
      </trkpt>
      <trkpt lat="42.72995" lon="-0.30571">
        <time>2022-07-30T14:05:58Z</time>
      </trkpt>
      <trkpt lat="42.72993" lon="-0.30587">
        <time>2022-07-30T14:05:59Z</time>
      </trkpt>
      <trkpt lat="42.72989" lon="-0.30604">
        <time>2022-07-30T14:06:00Z</time>
      </trkpt>
      <trkpt lat="42.72984" lon="-0.3062">
        <time>2022-07-30T14:06:01Z</time>
      </trkpt>
      <trkpt lat="42.72979" lon="-0.30636">
        <time>2022-07-30T14:06:02Z</time>
      </trkpt>
      <trkpt lat="42.72973" lon="-0.30651">
        <time>2022-07-30T14:06:03Z</time>
      </trkpt>
      <trkpt lat="42.72969" lon="-0.30666">
        <time>2022-07-30T14:06:04Z</time>
      </trkpt>
      <trkpt lat="42.72966" lon="-0.30682">
        <time>2022-07-30T14:06:05Z</time>
      </trkpt>
      <trkpt lat="42.72963" lon="-0.30699">
        <time>2022-07-30T14:06:06Z</time>
      </trkpt>
      <trkpt lat="42.72962" lon="-0.30714">
        <time>2022-07-30T14:06:07Z</time>
      </trkpt>
      <trkpt lat="42.72962" lon="-0.30729">
        <time>2022-07-30T14:06:08Z</time>
      </trkpt>
      <trkpt lat="42.72964" lon="-0.30743">
        <time>2022-07-30T14:06:09Z</time>
      </trkpt>
      <trkpt lat="42.7297" lon="-0.30755">
        <time>2022-07-30T14:06:10Z</time>
      </trkpt>
      <trkpt lat="42.72977" lon="-0.30765">
        <time>2022-07-30T14:06:11Z</time>
      </trkpt>
      <trkpt lat="42.72986" lon="-0.30774">
        <time>2022-07-30T14:06:12Z</time>
      </trkpt>
      <trkpt lat="42.72995" lon="-0.30784">
        <time>2022-07-30T14:06:13Z</time>
      </trkpt>
      <trkpt lat="42.73003" lon="-0.30793">
        <time>2022-07-30T14:06:14Z</time>
      </trkpt>
      <trkpt lat="42.7301" lon="-0.30802">
        <time>2022-07-30T14:06:15Z</time>
      </trkpt>
      <trkpt lat="42.73017" lon="-0.3081">
        <time>2022-07-30T14:06:16Z</time>
      </trkpt>
      <trkpt lat="42.73023" lon="-0.30817">
        <time>2022-07-30T14:06:17Z</time>
      </trkpt>
      <trkpt lat="42.73029" lon="-0.30826">
        <time>2022-07-30T14:06:18Z</time>
      </trkpt>
      <trkpt lat="42.73033" lon="-0.30835">
        <time>2022-07-30T14:06:19Z</time>
      </trkpt>
      <trkpt lat="42.73036" lon="-0.30847">
        <time>2022-07-30T14:06:20Z</time>
      </trkpt>
      <trkpt lat="42.73035" lon="-0.30859">
        <time>2022-07-30T14:06:21Z</time>
      </trkpt>
      <trkpt lat="42.73031" lon="-0.30871">
        <time>2022-07-30T14:06:22Z</time>
      </trkpt>
      <trkpt lat="42.73024" lon="-0.30881">
        <time>2022-07-30T14:06:23Z</time>
      </trkpt>
      <trkpt lat="42.73015" lon="-0.30889">
        <time>2022-07-30T14:06:24Z</time>
      </trkpt>
      <trkpt lat="42.73005" lon="-0.30892">
        <time>2022-07-30T14:06:25Z</time>
      </trkpt>
      <trkpt lat="42.72993" lon="-0.30893">
        <time>2022-07-30T14:06:26Z</time>
      </trkpt>
      <trkpt lat="42.72981" lon="-0.30894">
        <time>2022-07-30T14:06:27Z</time>
      </trkpt>
      <trkpt lat="42.7297" lon="-0.30898">
        <time>2022-07-30T14:06:28Z</time>
      </trkpt>
      <trkpt lat="42.7296" lon="-0.30904">
        <time>2022-07-30T14:06:29Z</time>
      </trkpt>
      <trkpt lat="42.72951" lon="-0.30911">
        <time>2022-07-30T14:06:30Z</time>
      </trkpt>
      <trkpt lat="42.72942" lon="-0.30917">
        <time>2022-07-30T14:06:31Z</time>
      </trkpt>
      <trkpt lat="42.72932" lon="-0.3092">
        <time>2022-07-30T14:06:32Z</time>
      </trkpt>
      <trkpt lat="42.72921" lon="-0.3092">
        <time>2022-07-30T14:06:33Z</time>
      </trkpt>
      <trkpt lat="42.7291" lon="-0.30921">
        <time>2022-07-30T14:06:34Z</time>
      </trkpt>
      <trkpt lat="42.729" lon="-0.3092">
        <time>2022-07-30T14:06:35Z</time>
      </trkpt>
      <trkpt lat="42.72889" lon="-0.30919">
        <time>2022-07-30T14:06:36Z</time>
      </trkpt>
      <trkpt lat="42.72878" lon="-0.30913">
        <time>2022-07-30T14:06:37Z</time>
      </trkpt>
      <trkpt lat="42.72868" lon="-0.30904">
        <time>2022-07-30T14:06:38Z</time>
      </trkpt>
      <trkpt lat="42.7286" lon="-0.30894">
        <time>2022-07-30T14:06:39Z</time>
      </trkpt>
      <trkpt lat="42.72854" lon="-0.30883">
        <time>2022-07-30T14:06:40Z</time>
      </trkpt>
      <trkpt lat="42.72848" lon="-0.30871">
        <time>2022-07-30T14:06:41Z</time>
      </trkpt>
      <trkpt lat="42.72843" lon="-0.30859">
        <time>2022-07-30T14:06:42Z</time>
      </trkpt>
      <trkpt lat="42.72837" lon="-0.30848">
        <time>2022-07-30T14:06:43Z</time>
      </trkpt>
      <trkpt lat="42.72831" lon="-0.30837">
        <time>2022-07-30T14:06:44Z</time>
      </trkpt>
      <trkpt lat="42.72825" lon="-0.30826">
        <time>2022-07-30T14:06:45Z</time>
      </trkpt>
      <trkpt lat="42.72819" lon="-0.30816">
        <time>2022-07-30T14:06:46Z</time>
      </trkpt>
      <trkpt lat="42.72813" lon="-0.30806">
        <time>2022-07-30T14:06:47Z</time>
      </trkpt>
      <trkpt lat="42.72806" lon="-0.30795">
        <time>2022-07-30T14:06:48Z</time>
      </trkpt>
      <trkpt lat="42.72801" lon="-0.30785">
        <time>2022-07-30T14:06:49Z</time>
      </trkpt>
      <trkpt lat="42.72796" lon="-0.30774">
        <time>2022-07-30T14:06:50Z</time>
      </trkpt>
      <trkpt lat="42.72791" lon="-0.30763">
        <time>2022-07-30T14:06:51Z</time>
      </trkpt>
      <trkpt lat="42.72784" lon="-0.30754">
        <time>2022-07-30T14:06:52Z</time>
      </trkpt>
      <trkpt lat="42.72775" lon="-0.30744">
        <time>2022-07-30T14:06:53Z</time>
      </trkpt>
      <trkpt lat="42.72765" lon="-0.30735">
        <time>2022-07-30T14:06:54Z</time>
      </trkpt>
      <trkpt lat="42.72755" lon="-0.30727">
        <time>2022-07-30T14:06:55Z</time>
      </trkpt>
      <trkpt lat="42.72747" lon="-0.30719">
        <time>2022-07-30T14:06:56Z</time>
      </trkpt>
      <trkpt lat="42.72739" lon="-0.30712">
        <time>2022-07-30T14:06:57Z</time>
      </trkpt>
      <trkpt lat="42.72731" lon="-0.30707">
        <time>2022-07-30T14:06:58Z</time>
      </trkpt>
      <trkpt lat="42.72725" lon="-0.30703">
        <time>2022-07-30T14:06:59Z</time>
      </trkpt>
      <trkpt lat="42.72719" lon="-0.30701">
        <time>2022-07-30T14:07:00Z</time>
      </trkpt>
      <trkpt lat="42.72713" lon="-0.30703">
        <time>2022-07-30T14:07:01Z</time>
      </trkpt>
      <trkpt lat="42.72708" lon="-0.30706">
        <time>2022-07-30T14:07:02Z</time>
      </trkpt>
      <trkpt lat="42.72705" lon="-0.30712">
        <time>2022-07-30T14:07:03Z</time>
      </trkpt>
      <trkpt lat="42.72705" lon="-0.30719">
        <time>2022-07-30T14:07:04Z</time>
      </trkpt>
      <trkpt lat="42.72707" lon="-0.30726">
        <time>2022-07-30T14:07:05Z</time>
      </trkpt>
      <trkpt lat="42.72711" lon="-0.30732">
        <time>2022-07-30T14:07:06Z</time>
      </trkpt>
      <trkpt lat="42.72719" lon="-0.30737">
        <time>2022-07-30T14:07:07Z</time>
      </trkpt>
      <trkpt lat="42.7273" lon="-0.30743">
        <time>2022-07-30T14:07:08Z</time>
      </trkpt>
      <trkpt lat="42.72741" lon="-0.3075">
        <time>2022-07-30T14:07:09Z</time>
      </trkpt>
      <trkpt lat="42.72753" lon="-0.30758">
        <time>2022-07-30T14:07:10Z</time>
      </trkpt>
      <trkpt lat="42.72767" lon="-0.30768">
        <time>2022-07-30T14:07:11Z</time>
      </trkpt>
      <trkpt lat="42.72781" lon="-0.30782">
        <time>2022-07-30T14:07:12Z</time>
      </trkpt>
      <trkpt lat="42.72793" lon="-0.308">
        <time>2022-07-30T14:07:13Z</time>
      </trkpt>
      <trkpt lat="42.72805" lon="-0.30821">
        <time>2022-07-30T14:07:14Z</time>
      </trkpt>
      <trkpt lat="42.72817" lon="-0.30843">
        <time>2022-07-30T14:07:15Z</time>
      </trkpt>
      <trkpt lat="42.72828" lon="-0.30864">
        <time>2022-07-30T14:07:16Z</time>
      </trkpt>
      <trkpt lat="42.72838" lon="-0.30885">
        <time>2022-07-30T14:07:17Z</time>
      </trkpt>
      <trkpt lat="42.72849" lon="-0.30904">
        <time>2022-07-30T14:07:18Z</time>
      </trkpt>
      <trkpt lat="42.72861" lon="-0.30921">
        <time>2022-07-30T14:07:19Z</time>
      </trkpt>
      <trkpt lat="42.72873" lon="-0.30935">
        <time>2022-07-30T14:07:20Z</time>
      </trkpt>
      <trkpt lat="42.72888" lon="-0.30945">
        <time>2022-07-30T14:07:21Z</time>
      </trkpt>
      <trkpt lat="42.72904" lon="-0.30951">
        <time>2022-07-30T14:07:22Z</time>
      </trkpt>
      <trkpt lat="42.72921" lon="-0.30952">
        <time>2022-07-30T14:07:23Z</time>
      </trkpt>
      <trkpt lat="42.72937" lon="-0.3095">
        <time>2022-07-30T14:07:24Z</time>
      </trkpt>
      <trkpt lat="42.72954" lon="-0.30945">
        <time>2022-07-30T14:07:25Z</time>
      </trkpt>
      <trkpt lat="42.72971" lon="-0.30943">
        <time>2022-07-30T14:07:26Z</time>
      </trkpt>
      <trkpt lat="42.72988" lon="-0.30944">
        <time>2022-07-30T14:07:27Z</time>
      </trkpt>
      <trkpt lat="42.73006" lon="-0.3095">
        <time>2022-07-30T14:07:28Z</time>
      </trkpt>
      <trkpt lat="42.73022" lon="-0.30959">
        <time>2022-07-30T14:07:29Z</time>
      </trkpt>
      <trkpt lat="42.73036" lon="-0.30971">
        <time>2022-07-30T14:07:30Z</time>
      </trkpt>
      <trkpt lat="42.73049" lon="-0.30984">
        <time>2022-07-30T14:07:31Z</time>
      </trkpt>
      <trkpt lat="42.73062" lon="-0.30997">
        <time>2022-07-30T14:07:32Z</time>
      </trkpt>
      <trkpt lat="42.73075" lon="-0.3101">
        <time>2022-07-30T14:07:33Z</time>
      </trkpt>
      <trkpt lat="42.73087" lon="-0.31021">
        <time>2022-07-30T14:07:34Z</time>
      </trkpt>
      <trkpt lat="42.731" lon="-0.31032">
        <time>2022-07-30T14:07:35Z</time>
      </trkpt>
      <trkpt lat="42.73112" lon="-0.31043">
        <time>2022-07-30T14:07:36Z</time>
      </trkpt>
      <trkpt lat="42.73125" lon="-0.31052">
        <time>2022-07-30T14:07:37Z</time>
      </trkpt>
      <trkpt lat="42.73138" lon="-0.31062">
        <time>2022-07-30T14:07:38Z</time>
      </trkpt>
      <trkpt lat="42.7315" lon="-0.31071">
        <time>2022-07-30T14:07:39Z</time>
      </trkpt>
      <trkpt lat="42.73162" lon="-0.3108">
        <time>2022-07-30T14:07:40Z</time>
      </trkpt>
      <trkpt lat="42.73175" lon="-0.31089">
        <time>2022-07-30T14:07:41Z</time>
      </trkpt>
      <trkpt lat="42.73188" lon="-0.31097">
        <time>2022-07-30T14:07:42Z</time>
      </trkpt>
      <trkpt lat="42.732" lon="-0.31106">
        <time>2022-07-30T14:07:43Z</time>
      </trkpt>
      <trkpt lat="42.73212" lon="-0.31115">
        <time>2022-07-30T14:07:44Z</time>
      </trkpt>
      <trkpt lat="42.73225" lon="-0.31123">
        <time>2022-07-30T14:07:45Z</time>
      </trkpt>
      <trkpt lat="42.73236" lon="-0.31132">
        <time>2022-07-30T14:07:46Z</time>
      </trkpt>
      <trkpt lat="42.73247" lon="-0.3114">
        <time>2022-07-30T14:07:47Z</time>
      </trkpt>
      <trkpt lat="42.73258" lon="-0.31148">
        <time>2022-07-30T14:07:48Z</time>
      </trkpt>
      <trkpt lat="42.73269" lon="-0.31156">
        <time>2022-07-30T14:07:49Z</time>
      </trkpt>
      <trkpt lat="42.7328" lon="-0.31163">
        <time>2022-07-30T14:07:50Z</time>
      </trkpt>
      <trkpt lat="42.73291" lon="-0.3117">
        <time>2022-07-30T14:07:51Z</time>
      </trkpt>
      <trkpt lat="42.73302" lon="-0.31177">
        <time>2022-07-30T14:07:52Z</time>
      </trkpt>
      <trkpt lat="42.73314" lon="-0.31184">
        <time>2022-07-30T14:07:53Z</time>
      </trkpt>
      <trkpt lat="42.73325" lon="-0.3119">
        <time>2022-07-30T14:07:54Z</time>
      </trkpt>
      <trkpt lat="42.73337" lon="-0.31195">
        <time>2022-07-30T14:07:55Z</time>
      </trkpt>
      <trkpt lat="42.73349" lon="-0.31199">
        <time>2022-07-30T14:07:56Z</time>
      </trkpt>
      <trkpt lat="42.7336" lon="-0.31204">
        <time>2022-07-30T14:07:57Z</time>
      </trkpt>
      <trkpt lat="42.73372" lon="-0.31207">
        <time>2022-07-30T14:07:58Z</time>
      </trkpt>
      <trkpt lat="42.73384" lon="-0.3121">
        <time>2022-07-30T14:07:59Z</time>
      </trkpt>
      <trkpt lat="42.73397" lon="-0.31213">
        <time>2022-07-30T14:08:00Z</time>
      </trkpt>
      <trkpt lat="42.73409" lon="-0.31213">
        <time>2022-07-30T14:08:01Z</time>
      </trkpt>
      <trkpt lat="42.73422" lon="-0.31213">
        <time>2022-07-30T14:08:02Z</time>
      </trkpt>
      <trkpt lat="42.73435" lon="-0.31211">
        <time>2022-07-30T14:08:03Z</time>
      </trkpt>
      <trkpt lat="42.73448" lon="-0.3121">
        <time>2022-07-30T14:08:04Z</time>
      </trkpt>
      <trkpt lat="42.73461" lon="-0.31209">
        <time>2022-07-30T14:08:05Z</time>
      </trkpt>
      <trkpt lat="42.73472" lon="-0.31207">
        <time>2022-07-30T14:08:06Z</time>
      </trkpt>
      <trkpt lat="42.73484" lon="-0.31207">
        <time>2022-07-30T14:08:07Z</time>
      </trkpt>
      <trkpt lat="42.73495" lon="-0.31207">
        <time>2022-07-30T14:08:08Z</time>
      </trkpt>
      <trkpt lat="42.73506" lon="-0.31208">
        <time>2022-07-30T14:08:09Z</time>
      </trkpt>
      <trkpt lat="42.73516" lon="-0.3121">
        <time>2022-07-30T14:08:10Z</time>
      </trkpt>
      <trkpt lat="42.73526" lon="-0.31214">
        <time>2022-07-30T14:08:11Z</time>
      </trkpt>
      <trkpt lat="42.73534" lon="-0.3122">
        <time>2022-07-30T14:08:12Z</time>
      </trkpt>
      <trkpt lat="42.73543" lon="-0.31226">
        <time>2022-07-30T14:08:13Z</time>
      </trkpt>
      <trkpt lat="42.7355" lon="-0.31234">
        <time>2022-07-30T14:08:14Z</time>
      </trkpt>
      <trkpt lat="42.73556" lon="-0.31244">
        <time>2022-07-30T14:08:15Z</time>
      </trkpt>
      <trkpt lat="42.73562" lon="-0.31254">
        <time>2022-07-30T14:08:16Z</time>
      </trkpt>
      <trkpt lat="42.73566" lon="-0.31266">
        <time>2022-07-30T14:08:17Z</time>
      </trkpt>
      <trkpt lat="42.7357" lon="-0.31278">
        <time>2022-07-30T14:08:18Z</time>
      </trkpt>
      <trkpt lat="42.73573" lon="-0.31291">
        <time>2022-07-30T14:08:19Z</time>
      </trkpt>
      <trkpt lat="42.73576" lon="-0.31304">
        <time>2022-07-30T14:08:20Z</time>
      </trkpt>
      <trkpt lat="42.73578" lon="-0.31317">
        <time>2022-07-30T14:08:21Z</time>
      </trkpt>
      <trkpt lat="42.73581" lon="-0.31331">
        <time>2022-07-30T14:08:22Z</time>
      </trkpt>
      <trkpt lat="42.73584" lon="-0.31344">
        <time>2022-07-30T14:08:23Z</time>
      </trkpt>
      <trkpt lat="42.73586" lon="-0.31358">
        <time>2022-07-30T14:08:24Z</time>
      </trkpt>
      <trkpt lat="42.7359" lon="-0.31371">
        <time>2022-07-30T14:08:25Z</time>
      </trkpt>
      <trkpt lat="42.73594" lon="-0.31386">
        <time>2022-07-30T14:08:26Z</time>
      </trkpt>
      <trkpt lat="42.73598" lon="-0.31401">
        <time>2022-07-30T14:08:27Z</time>
      </trkpt>
      <trkpt lat="42.73604" lon="-0.31416">
        <time>2022-07-30T14:08:28Z</time>
      </trkpt>
      <trkpt lat="42.73611" lon="-0.31429">
        <time>2022-07-30T14:08:29Z</time>
      </trkpt>
      <trkpt lat="42.73618" lon="-0.31443">
        <time>2022-07-30T14:08:30Z</time>
      </trkpt>
      <trkpt lat="42.73624" lon="-0.31458">
        <time>2022-07-30T14:08:31Z</time>
      </trkpt>
      <trkpt lat="42.73632" lon="-0.31475">
        <time>2022-07-30T14:08:32Z</time>
      </trkpt>
      <trkpt lat="42.7364" lon="-0.31491">
        <time>2022-07-30T14:08:33Z</time>
      </trkpt>
      <trkpt lat="42.73649" lon="-0.31508">
        <time>2022-07-30T14:08:34Z</time>
      </trkpt>
      <trkpt lat="42.7366" lon="-0.31525">
        <time>2022-07-30T14:08:35Z</time>
      </trkpt>
      <trkpt lat="42.7367" lon="-0.31542">
        <time>2022-07-30T14:08:36Z</time>
      </trkpt>
      <trkpt lat="42.7368" lon="-0.31559">
        <time>2022-07-30T14:08:37Z</time>
      </trkpt>
      <trkpt lat="42.73691" lon="-0.31576">
        <time>2022-07-30T14:08:38Z</time>
      </trkpt>
      <trkpt lat="42.73701" lon="-0.31593">
        <time>2022-07-30T14:08:39Z</time>
      </trkpt>
      <trkpt lat="42.73709" lon="-0.31609">
        <time>2022-07-30T14:08:40Z</time>
      </trkpt>
      <trkpt lat="42.73717" lon="-0.31626">
        <time>2022-07-30T14:08:41Z</time>
      </trkpt>
      <trkpt lat="42.73723" lon="-0.31645">
        <time>2022-07-30T14:08:42Z</time>
      </trkpt>
      <trkpt lat="42.73726" lon="-0.31664">
        <time>2022-07-30T14:08:43Z</time>
      </trkpt>
      <trkpt lat="42.73729" lon="-0.31683">
        <time>2022-07-30T14:08:44Z</time>
      </trkpt>
      <trkpt lat="42.73732" lon="-0.31702">
        <time>2022-07-30T14:08:45Z</time>
      </trkpt>
      <trkpt lat="42.73736" lon="-0.31721">
        <time>2022-07-30T14:08:46Z</time>
      </trkpt>
      <trkpt lat="42.73741" lon="-0.3174">
        <time>2022-07-30T14:08:47Z</time>
      </trkpt>
      <trkpt lat="42.73747" lon="-0.31758">
        <time>2022-07-30T14:08:48Z</time>
      </trkpt>
      <trkpt lat="42.73755" lon="-0.31774">
        <time>2022-07-30T14:08:49Z</time>
      </trkpt>
      <trkpt lat="42.73766" lon="-0.31786">
        <time>2022-07-30T14:08:50Z</time>
      </trkpt>
      <trkpt lat="42.73778" lon="-0.31794">
        <time>2022-07-30T14:08:51Z</time>
      </trkpt>
      <trkpt lat="42.73792" lon="-0.31798">
        <time>2022-07-30T14:08:52Z</time>
      </trkpt>
      <trkpt lat="42.73806" lon="-0.31799">
        <time>2022-07-30T14:08:53Z</time>
      </trkpt>
      <trkpt lat="42.7382" lon="-0.31798">
        <time>2022-07-30T14:08:54Z</time>
      </trkpt>
      <trkpt lat="42.73834" lon="-0.31796">
        <time>2022-07-30T14:08:55Z</time>
      </trkpt>
      <trkpt lat="42.73848" lon="-0.31795">
        <time>2022-07-30T14:08:56Z</time>
      </trkpt>
      <trkpt lat="42.73861" lon="-0.31793">
        <time>2022-07-30T14:08:57Z</time>
      </trkpt>
      <trkpt lat="42.74299" lon="-0.3152">
        <time>2022-07-30T14:09:31Z</time>
      </trkpt>
      <trkpt lat="42.74315" lon="-0.31527">
        <time>2022-07-30T14:09:32Z</time>
      </trkpt>
      <trkpt lat="42.7433" lon="-0.31537">
        <time>2022-07-30T14:09:33Z</time>
      </trkpt>
      <trkpt lat="42.74345" lon="-0.31547">
        <time>2022-07-30T14:09:34Z</time>
      </trkpt>
      <trkpt lat="42.74361" lon="-0.31557">
        <time>2022-07-30T14:09:35Z</time>
      </trkpt>
      <trkpt lat="42.74376" lon="-0.31565">
        <time>2022-07-30T14:09:36Z</time>
      </trkpt>
      <trkpt lat="42.74392" lon="-0.31571">
        <time>2022-07-30T14:09:37Z</time>
      </trkpt>
      <trkpt lat="42.74408" lon="-0.31575">
        <time>2022-07-30T14:09:38Z</time>
      </trkpt>
      <trkpt lat="42.74425" lon="-0.31577">
        <time>2022-07-30T14:09:39Z</time>
      </trkpt>
      <trkpt lat="42.74441" lon="-0.31577">
        <time>2022-07-30T14:09:40Z</time>
      </trkpt>
      <trkpt lat="42.74458" lon="-0.31578">
        <time>2022-07-30T14:09:41Z</time>
      </trkpt>
      <trkpt lat="42.74473" lon="-0.31577">
        <time>2022-07-30T14:09:42Z</time>
      </trkpt>
      <trkpt lat="42.74489" lon="-0.31574">
        <time>2022-07-30T14:09:43Z</time>
      </trkpt>
      <trkpt lat="42.74504" lon="-0.31572">
        <time>2022-07-30T14:09:44Z</time>
      </trkpt>
      <trkpt lat="42.74518" lon="-0.31573">
        <time>2022-07-30T14:09:45Z</time>
      </trkpt>
      <trkpt lat="42.74532" lon="-0.31578">
        <time>2022-07-30T14:09:46Z</time>
      </trkpt>
      <trkpt lat="42.74547" lon="-0.31586">
        <time>2022-07-30T14:09:47Z</time>
      </trkpt>
      <trkpt lat="42.74561" lon="-0.31597">
        <time>2022-07-30T14:09:48Z</time>
      </trkpt>
      <trkpt lat="42.74574" lon="-0.31609">
        <time>2022-07-30T14:09:49Z</time>
      </trkpt>
      <trkpt lat="42.74589" lon="-0.31621">
        <time>2022-07-30T14:09:50Z</time>
      </trkpt>
      <trkpt lat="42.74603" lon="-0.31632">
        <time>2022-07-30T14:09:51Z</time>
      </trkpt>
      <trkpt lat="42.74618" lon="-0.31643">
        <time>2022-07-30T14:09:52Z</time>
      </trkpt>
      <trkpt lat="42.74633" lon="-0.31654">
        <time>2022-07-30T14:09:53Z</time>
      </trkpt>
      <trkpt lat="42.74647" lon="-0.31665">
        <time>2022-07-30T14:09:54Z</time>
      </trkpt>
      <trkpt lat="42.74662" lon="-0.31676">
        <time>2022-07-30T14:09:55Z</time>
      </trkpt>
      <trkpt lat="42.74676" lon="-0.31687">
        <time>2022-07-30T14:09:56Z</time>
      </trkpt>
      <trkpt lat="42.7469" lon="-0.31698">
        <time>2022-07-30T14:09:57Z</time>
      </trkpt>
      <trkpt lat="42.74703" lon="-0.31708">
        <time>2022-07-30T14:09:58Z</time>
      </trkpt>
      <trkpt lat="42.74716" lon="-0.31718">
        <time>2022-07-30T14:09:59Z</time>
      </trkpt>
      <trkpt lat="42.7473" lon="-0.31725">
        <time>2022-07-30T14:10:00Z</time>
      </trkpt>
      <trkpt lat="42.74744" lon="-0.31729">
        <time>2022-07-30T14:10:01Z</time>
      </trkpt>
      <trkpt lat="42.74759" lon="-0.3173">
        <time>2022-07-30T14:10:02Z</time>
      </trkpt>
      <trkpt lat="42.74773" lon="-0.31729">
        <time>2022-07-30T14:10:03Z</time>
      </trkpt>
      <trkpt lat="42.74787" lon="-0.31725">
        <time>2022-07-30T14:10:04Z</time>
      </trkpt>
      <trkpt lat="42.748" lon="-0.31721">
        <time>2022-07-30T14:10:05Z</time>
      </trkpt>
      <trkpt lat="42.74813" lon="-0.31716">
        <time>2022-07-30T14:10:06Z</time>
      </trkpt>
      <trkpt lat="42.74826" lon="-0.31709">
        <time>2022-07-30T14:10:07Z</time>
      </trkpt>
      <trkpt lat="42.74839" lon="-0.31701">
        <time>2022-07-30T14:10:08Z</time>
      </trkpt>
      <trkpt lat="42.74852" lon="-0.31691">
        <time>2022-07-30T14:10:09Z</time>
      </trkpt>
      <trkpt lat="42.74863" lon="-0.3168">
        <time>2022-07-30T14:10:10Z</time>
      </trkpt>
      <trkpt lat="42.74875" lon="-0.31669">
        <time>2022-07-30T14:10:11Z</time>
      </trkpt>
      <trkpt lat="42.74885" lon="-0.31659">
        <time>2022-07-30T14:10:12Z</time>
      </trkpt>
      <trkpt lat="42.74896" lon="-0.31649">
        <time>2022-07-30T14:10:13Z</time>
      </trkpt>
      <trkpt lat="42.74905" lon="-0.3164">
        <time>2022-07-30T14:10:14Z</time>
      </trkpt>
      <trkpt lat="42.74913" lon="-0.31632">
        <time>2022-07-30T14:10:15Z</time>
      </trkpt>
      <trkpt lat="42.74921" lon="-0.31625">
        <time>2022-07-30T14:10:16Z</time>
      </trkpt>
      <trkpt lat="42.74929" lon="-0.31618">
        <time>2022-07-30T14:10:17Z</time>
      </trkpt>
      <trkpt lat="42.74938" lon="-0.31612">
        <time>2022-07-30T14:10:18Z</time>
      </trkpt>
      <trkpt lat="42.74945" lon="-0.31606">
        <time>2022-07-30T14:10:19Z</time>
      </trkpt>
      <trkpt lat="42.74953" lon="-0.31601">
        <time>2022-07-30T14:10:20Z</time>
      </trkpt>
      <trkpt lat="42.74961" lon="-0.31596">
        <time>2022-07-30T14:10:21Z</time>
      </trkpt>
      <trkpt lat="42.74969" lon="-0.3159">
        <time>2022-07-30T14:10:22Z</time>
      </trkpt>
      <trkpt lat="42.74977" lon="-0.31586">
        <time>2022-07-30T14:10:23Z</time>
      </trkpt>
      <trkpt lat="42.74986" lon="-0.31581">
        <time>2022-07-30T14:10:24Z</time>
      </trkpt>
      <trkpt lat="42.74995" lon="-0.31578">
        <time>2022-07-30T14:10:25Z</time>
      </trkpt>
      <trkpt lat="42.75005" lon="-0.31576">
        <time>2022-07-30T14:10:26Z</time>
      </trkpt>
      <trkpt lat="42.75013" lon="-0.31577">
        <time>2022-07-30T14:10:27Z</time>
      </trkpt>
      <trkpt lat="42.75022" lon="-0.31581">
        <time>2022-07-30T14:10:28Z</time>
      </trkpt>
      <trkpt lat="42.75032" lon="-0.31586">
        <time>2022-07-30T14:10:29Z</time>
      </trkpt>
      <trkpt lat="42.75042" lon="-0.31595">
        <time>2022-07-30T14:10:30Z</time>
      </trkpt>
      <trkpt lat="42.75051" lon="-0.31606">
        <time>2022-07-30T14:10:31Z</time>
      </trkpt>
      <trkpt lat="42.75061" lon="-0.31617">
        <time>2022-07-30T14:10:32Z</time>
      </trkpt>
      <trkpt lat="42.75071" lon="-0.3163">
        <time>2022-07-30T14:10:33Z</time>
      </trkpt>
      <trkpt lat="42.75082" lon="-0.31643">
        <time>2022-07-30T14:10:34Z</time>
      </trkpt>
      <trkpt lat="42.75093" lon="-0.31655">
        <time>2022-07-30T14:10:35Z</time>
      </trkpt>
      <trkpt lat="42.75104" lon="-0.31666">
        <time>2022-07-30T14:10:36Z</time>
      </trkpt>
      <trkpt lat="42.75114" lon="-0.31677">
        <time>2022-07-30T14:10:37Z</time>
      </trkpt>
      <trkpt lat="42.75125" lon="-0.31686">
        <time>2022-07-30T14:10:38Z</time>
      </trkpt>
      <trkpt lat="42.75135" lon="-0.31694">
        <time>2022-07-30T14:10:39Z</time>
      </trkpt>
      <trkpt lat="42.75145" lon="-0.31701">
        <time>2022-07-30T14:10:40Z</time>
      </trkpt>
      <trkpt lat="42.75154" lon="-0.31708">
        <time>2022-07-30T14:10:41Z</time>
      </trkpt>
      <trkpt lat="42.75164" lon="-0.31716">
        <time>2022-07-30T14:10:42Z</time>
      </trkpt>
      <trkpt lat="42.75175" lon="-0.31724">
        <time>2022-07-30T14:10:43Z</time>
      </trkpt>
      <trkpt lat="42.75187" lon="-0.31732">
        <time>2022-07-30T14:10:44Z</time>
      </trkpt>
      <trkpt lat="42.75199" lon="-0.3174">
        <time>2022-07-30T14:10:45Z</time>
      </trkpt>
      <trkpt lat="42.75211" lon="-0.31749">
        <time>2022-07-30T14:10:46Z</time>
      </trkpt>
      <trkpt lat="42.75223" lon="-0.31759">
        <time>2022-07-30T14:10:47Z</time>
      </trkpt>
      <trkpt lat="42.75235" lon="-0.31769">
        <time>2022-07-30T14:10:48Z</time>
      </trkpt>
      <trkpt lat="42.75247" lon="-0.3178">
        <time>2022-07-30T14:10:49Z</time>
      </trkpt>
      <trkpt lat="42.75259" lon="-0.31791">
        <time>2022-07-30T14:10:50Z</time>
      </trkpt>
      <trkpt lat="42.7527" lon="-0.31803">
        <time>2022-07-30T14:10:51Z</time>
      </trkpt>
      <trkpt lat="42.75283" lon="-0.31816">
        <time>2022-07-30T14:10:52Z</time>
      </trkpt>
      <trkpt lat="42.75294" lon="-0.31828">
        <time>2022-07-30T14:10:53Z</time>
      </trkpt>
      <trkpt lat="42.75306" lon="-0.31839">
        <time>2022-07-30T14:10:54Z</time>
      </trkpt>
      <trkpt lat="42.75317" lon="-0.31849">
        <time>2022-07-30T14:10:55Z</time>
      </trkpt>
      <trkpt lat="42.75328" lon="-0.31859">
        <time>2022-07-30T14:10:56Z</time>
      </trkpt>
      <trkpt lat="42.75339" lon="-0.3187">
        <time>2022-07-30T14:10:57Z</time>
      </trkpt>
      <trkpt lat="42.7535" lon="-0.3188">
        <time>2022-07-30T14:10:58Z</time>
      </trkpt>
      <trkpt lat="42.7536" lon="-0.31891">
        <time>2022-07-30T14:10:59Z</time>
      </trkpt>
      <trkpt lat="42.7537" lon="-0.31904">
        <time>2022-07-30T14:11:00Z</time>
      </trkpt>
      <trkpt lat="42.7538" lon="-0.31917">
        <time>2022-07-30T14:11:01Z</time>
      </trkpt>
      <trkpt lat="42.7539" lon="-0.3193">
        <time>2022-07-30T14:11:02Z</time>
      </trkpt>
      <trkpt lat="42.754" lon="-0.31943">
        <time>2022-07-30T14:11:03Z</time>
      </trkpt>
      <trkpt lat="42.75411" lon="-0.31957">
        <time>2022-07-30T14:11:04Z</time>
      </trkpt>
      <trkpt lat="42.75423" lon="-0.31969">
        <time>2022-07-30T14:11:05Z</time>
      </trkpt>
      <trkpt lat="42.75437" lon="-0.31979">
        <time>2022-07-30T14:11:06Z</time>
      </trkpt>
      <trkpt lat="42.75453" lon="-0.31987">
        <time>2022-07-30T14:11:07Z</time>
      </trkpt>
      <trkpt lat="42.75469" lon="-0.31994">
        <time>2022-07-30T14:11:08Z</time>
      </trkpt>
      <trkpt lat="42.75487" lon="-0.32002">
        <time>2022-07-30T14:11:09Z</time>
      </trkpt>
      <trkpt lat="42.75506" lon="-0.32009">
        <time>2022-07-30T14:11:10Z</time>
      </trkpt>
      <trkpt lat="42.75527" lon="-0.32015">
        <time>2022-07-30T14:11:11Z</time>
      </trkpt>
      <trkpt lat="42.75546" lon="-0.32021">
        <time>2022-07-30T14:11:12Z</time>
      </trkpt>
      <trkpt lat="42.75565" lon="-0.32025">
        <time>2022-07-30T14:11:13Z</time>
      </trkpt>
      <trkpt lat="42.75583" lon="-0.32028">
        <time>2022-07-30T14:11:14Z</time>
      </trkpt>
      <trkpt lat="42.756" lon="-0.32031">
        <time>2022-07-30T14:11:15Z</time>
      </trkpt>
      <trkpt lat="42.75616" lon="-0.32035">
        <time>2022-07-30T14:11:16Z</time>
      </trkpt>
      <trkpt lat="42.75631" lon="-0.32039">
        <time>2022-07-30T14:11:17Z</time>
      </trkpt>
      <trkpt lat="42.75646" lon="-0.32043">
        <time>2022-07-30T14:11:18Z</time>
      </trkpt>
      <trkpt lat="42.75662" lon="-0.32047">
        <time>2022-07-30T14:11:19Z</time>
      </trkpt>
      <trkpt lat="42.75677" lon="-0.32052">
        <time>2022-07-30T14:11:20Z</time>
      </trkpt>
      <trkpt lat="42.75692" lon="-0.32059">
        <time>2022-07-30T14:11:21Z</time>
      </trkpt>
      <trkpt lat="42.75706" lon="-0.32066">
        <time>2022-07-30T14:11:22Z</time>
      </trkpt>
      <trkpt lat="42.7572" lon="-0.32075">
        <time>2022-07-30T14:11:23Z</time>
      </trkpt>
      <trkpt lat="42.75732" lon="-0.32083">
        <time>2022-07-30T14:11:24Z</time>
      </trkpt>
      <trkpt lat="42.75745" lon="-0.32091">
        <time>2022-07-30T14:11:25Z</time>
      </trkpt>
      <trkpt lat="42.75758" lon="-0.32099">
        <time>2022-07-30T14:11:26Z</time>
      </trkpt>
      <trkpt lat="42.7577" lon="-0.32106">
        <time>2022-07-30T14:11:27Z</time>
      </trkpt>
      <trkpt lat="42.75783" lon="-0.32114">
        <time>2022-07-30T14:11:28Z</time>
      </trkpt>
      <trkpt lat="42.75796" lon="-0.32123">
        <time>2022-07-30T14:11:29Z</time>
      </trkpt>
      <trkpt lat="42.75808" lon="-0.32134">
        <time>2022-07-30T14:11:30Z</time>
      </trkpt>
      <trkpt lat="42.75819" lon="-0.32151">
        <time>2022-07-30T14:11:31Z</time>
      </trkpt>
      <trkpt lat="42.75831" lon="-0.32172">
        <time>2022-07-30T14:11:32Z</time>
      </trkpt>
      <trkpt lat="42.75843" lon="-0.32194">
        <time>2022-07-30T14:11:33Z</time>
      </trkpt>
      <trkpt lat="42.75856" lon="-0.32216">
        <time>2022-07-30T14:11:34Z</time>
      </trkpt>
      <trkpt lat="42.7587" lon="-0.32237">
        <time>2022-07-30T14:11:35Z</time>
      </trkpt>
      <trkpt lat="42.75883" lon="-0.32257">
        <time>2022-07-30T14:11:36Z</time>
      </trkpt>
      <trkpt lat="42.75895" lon="-0.32276">
        <time>2022-07-30T14:11:37Z</time>
      </trkpt>
      <trkpt lat="42.75906" lon="-0.32296">
        <time>2022-07-30T14:11:38Z</time>
      </trkpt>
      <trkpt lat="42.75917" lon="-0.32315">
        <time>2022-07-30T14:11:39Z</time>
      </trkpt>
      <trkpt lat="42.75926" lon="-0.32334">
        <time>2022-07-30T14:11:40Z</time>
      </trkpt>
      <trkpt lat="42.75933" lon="-0.32354">
        <time>2022-07-30T14:11:41Z</time>
      </trkpt>
      <trkpt lat="42.75937" lon="-0.32377">
        <time>2022-07-30T14:11:42Z</time>
      </trkpt>
      <trkpt lat="42.75939" lon="-0.32401">
        <time>2022-07-30T14:11:43Z</time>
      </trkpt>
      <trkpt lat="42.75938" lon="-0.32426">
        <time>2022-07-30T14:11:44Z</time>
      </trkpt>
      <trkpt lat="42.75933" lon="-0.32451">
        <time>2022-07-30T14:11:45Z</time>
      </trkpt>
      <trkpt lat="42.75926" lon="-0.32477">
        <time>2022-07-30T14:11:46Z</time>
      </trkpt>
      <trkpt lat="42.75917" lon="-0.32505">
        <time>2022-07-30T14:11:47Z</time>
      </trkpt>
      <trkpt lat="42.75908" lon="-0.32534">
        <time>2022-07-30T14:11:48Z</time>
      </trkpt>
      <trkpt lat="42.759" lon="-0.32563">
        <time>2022-07-30T14:11:49Z</time>
      </trkpt>
      <trkpt lat="42.75892" lon="-0.3259">
        <time>2022-07-30T14:11:50Z</time>
      </trkpt>
      <trkpt lat="42.75884" lon="-0.32616">
        <time>2022-07-30T14:11:51Z</time>
      </trkpt>
      <trkpt lat="42.75877" lon="-0.32641">
        <time>2022-07-30T14:11:52Z</time>
      </trkpt>
      <trkpt lat="42.75871" lon="-0.32665">
        <time>2022-07-30T14:11:53Z</time>
      </trkpt>
      <trkpt lat="42.75868" lon="-0.32688">
        <time>2022-07-30T14:11:54Z</time>
      </trkpt>
      <trkpt lat="42.75869" lon="-0.32713">
        <time>2022-07-30T14:11:55Z</time>
      </trkpt>
      <trkpt lat="42.75872" lon="-0.32739">
        <time>2022-07-30T14:11:56Z</time>
      </trkpt>
      <trkpt lat="42.75877" lon="-0.32766">
        <time>2022-07-30T14:11:57Z</time>
      </trkpt>
      <trkpt lat="42.75884" lon="-0.32793">
        <time>2022-07-30T14:11:58Z</time>
      </trkpt>
      <trkpt lat="42.75891" lon="-0.3282">
        <time>2022-07-30T14:11:59Z</time>
      </trkpt>
      <trkpt lat="42.75899" lon="-0.32847">
        <time>2022-07-30T14:12:00Z</time>
      </trkpt>
      <trkpt lat="42.75908" lon="-0.32872">
        <time>2022-07-30T14:12:01Z</time>
      </trkpt>
      <trkpt lat="42.75916" lon="-0.32897">
        <time>2022-07-30T14:12:02Z</time>
      </trkpt>
      <trkpt lat="42.75924" lon="-0.32922">
        <time>2022-07-30T14:12:03Z</time>
      </trkpt>
      <trkpt lat="42.75932" lon="-0.32949">
        <time>2022-07-30T14:12:04Z</time>
      </trkpt>
      <trkpt lat="42.7594" lon="-0.32976">
        <time>2022-07-30T14:12:05Z</time>
      </trkpt>
      <trkpt lat="42.75949" lon="-0.33004">
        <time>2022-07-30T14:12:06Z</time>
      </trkpt>
      <trkpt lat="42.75957" lon="-0.33032">
        <time>2022-07-30T14:12:07Z</time>
      </trkpt>
      <trkpt lat="42.75966" lon="-0.3306">
        <time>2022-07-30T14:12:08Z</time>
      </trkpt>
      <trkpt lat="42.75976" lon="-0.3309">
        <time>2022-07-30T14:12:09Z</time>
      </trkpt>
      <trkpt lat="42.75985" lon="-0.33119">
        <time>2022-07-30T14:12:10Z</time>
      </trkpt>
      <trkpt lat="42.75994" lon="-0.33149">
        <time>2022-07-30T14:12:11Z</time>
      </trkpt>
      <trkpt lat="42.76004" lon="-0.33179">
        <time>2022-07-30T14:12:12Z</time>
      </trkpt>
      <trkpt lat="42.76014" lon="-0.33208">
        <time>2022-07-30T14:12:13Z</time>
      </trkpt>
      <trkpt lat="42.76024" lon="-0.33237">
        <time>2022-07-30T14:12:14Z</time>
      </trkpt>
      <trkpt lat="42.76034" lon="-0.33266">
        <time>2022-07-30T14:12:15Z</time>
      </trkpt>
      <trkpt lat="42.76044" lon="-0.33295">
        <time>2022-07-30T14:12:16Z</time>
      </trkpt>
      <trkpt lat="42.76055" lon="-0.33325">
        <time>2022-07-30T14:12:17Z</time>
      </trkpt>
      <trkpt lat="42.76068" lon="-0.33355">
        <time>2022-07-30T14:12:18Z</time>
      </trkpt>
      <trkpt lat="42.7608" lon="-0.33386">
        <time>2022-07-30T14:12:19Z</time>
      </trkpt>
      <trkpt lat="42.76092" lon="-0.33415">
        <time>2022-07-30T14:12:20Z</time>
      </trkpt>
      <trkpt lat="42.76104" lon="-0.33444">
        <time>2022-07-30T14:12:21Z</time>
      </trkpt>
      <trkpt lat="42.76116" lon="-0.33472">
        <time>2022-07-30T14:12:22Z</time>
      </trkpt>
      <trkpt lat="42.76127" lon="-0.33499">
        <time>2022-07-30T14:12:23Z</time>
      </trkpt>
      <trkpt lat="42.76137" lon="-0.33525">
        <time>2022-07-30T14:12:24Z</time>
      </trkpt>
      <trkpt lat="42.76148" lon="-0.33551">
        <time>2022-07-30T14:12:25Z</time>
      </trkpt>
      <trkpt lat="42.76157" lon="-0.33577">
        <time>2022-07-30T14:12:26Z</time>
      </trkpt>
      <trkpt lat="42.76168" lon="-0.33602">
        <time>2022-07-30T14:12:27Z</time>
      </trkpt>
      <trkpt lat="42.76179" lon="-0.33627">
        <time>2022-07-30T14:12:28Z</time>
      </trkpt>
      <trkpt lat="42.76192" lon="-0.33651">
        <time>2022-07-30T14:12:29Z</time>
      </trkpt>
      <trkpt lat="42.76207" lon="-0.33672">
        <time>2022-07-30T14:12:30Z</time>
      </trkpt>
      <trkpt lat="42.76222" lon="-0.33691">
        <time>2022-07-30T14:12:31Z</time>
      </trkpt>
      <trkpt lat="42.76237" lon="-0.33707">
        <time>2022-07-30T14:12:32Z</time>
      </trkpt>
      <trkpt lat="42.76252" lon="-0.33723">
        <time>2022-07-30T14:12:33Z</time>
      </trkpt>
      <trkpt lat="42.76265" lon="-0.33739">
        <time>2022-07-30T14:12:34Z</time>
      </trkpt>
      <trkpt lat="42.76279" lon="-0.33757">
        <time>2022-07-30T14:12:35Z</time>
      </trkpt>
      <trkpt lat="42.76291" lon="-0.33778">
        <time>2022-07-30T14:12:36Z</time>
      </trkpt>
      <trkpt lat="42.76303" lon="-0.33801">
        <time>2022-07-30T14:12:37Z</time>
      </trkpt>
      <trkpt lat="42.76312" lon="-0.33824">
        <time>2022-07-30T14:12:38Z</time>
      </trkpt>
      <trkpt lat="42.76322" lon="-0.33846">
        <time>2022-07-30T14:12:39Z</time>
      </trkpt>
      <trkpt lat="42.76331" lon="-0.33868">
        <time>2022-07-30T14:12:40Z</time>
      </trkpt>
      <trkpt lat="42.7634" lon="-0.33889">
        <time>2022-07-30T14:12:41Z</time>
      </trkpt>
      <trkpt lat="42.76349" lon="-0.33908">
        <time>2022-07-30T14:12:42Z</time>
      </trkpt>
      <trkpt lat="42.76359" lon="-0.33926">
        <time>2022-07-30T14:12:43Z</time>
      </trkpt>
      <trkpt lat="42.76372" lon="-0.33941">
        <time>2022-07-30T14:12:44Z</time>
      </trkpt>
      <trkpt lat="42.76387" lon="-0.33954">
        <time>2022-07-30T14:12:45Z</time>
      </trkpt>
      <trkpt lat="42.76403" lon="-0.33965">
        <time>2022-07-30T14:12:46Z</time>
      </trkpt>
      <trkpt lat="42.76419" lon="-0.33974">
        <time>2022-07-30T14:12:47Z</time>
      </trkpt>
      <trkpt lat="42.76434" lon="-0.33981">
        <time>2022-07-30T14:12:48Z</time>
      </trkpt>
      <trkpt lat="42.76449" lon="-0.33988">
        <time>2022-07-30T14:12:49Z</time>
      </trkpt>
      <trkpt lat="42.76463" lon="-0.33993">
        <time>2022-07-30T14:12:50Z</time>
      </trkpt>
      <trkpt lat="42.76476" lon="-0.33999">
        <time>2022-07-30T14:12:51Z</time>
      </trkpt>
      <trkpt lat="42.76489" lon="-0.34003">
        <time>2022-07-30T14:12:52Z</time>
      </trkpt>
      <trkpt lat="42.76502" lon="-0.34007">
        <time>2022-07-30T14:12:53Z</time>
      </trkpt>
      <trkpt lat="42.76515" lon="-0.34011">
        <time>2022-07-30T14:12:54Z</time>
      </trkpt>
      <trkpt lat="42.76528" lon="-0.34014">
        <time>2022-07-30T14:12:55Z</time>
      </trkpt>
      <trkpt lat="42.7654" lon="-0.34016">
        <time>2022-07-30T14:12:56Z</time>
      </trkpt>
      <trkpt lat="42.76552" lon="-0.3402">
        <time>2022-07-30T14:12:57Z</time>
      </trkpt>
      <trkpt lat="42.76564" lon="-0.34027">
        <time>2022-07-30T14:12:58Z</time>
      </trkpt>
      <trkpt lat="42.76574" lon="-0.34037">
        <time>2022-07-30T14:12:59Z</time>
      </trkpt>
      <trkpt lat="42.76583" lon="-0.34048">
        <time>2022-07-30T14:13:00Z</time>
      </trkpt>
      <trkpt lat="42.76591" lon="-0.34062">
        <time>2022-07-30T14:13:01Z</time>
      </trkpt>
      <trkpt lat="42.76599" lon="-0.34075">
        <time>2022-07-30T14:13:02Z</time>
      </trkpt>
      <trkpt lat="42.76607" lon="-0.34091">
        <time>2022-07-30T14:13:03Z</time>
      </trkpt>
      <trkpt lat="42.76613" lon="-0.34107">
        <time>2022-07-30T14:13:04Z</time>
      </trkpt>
      <trkpt lat="42.76619" lon="-0.34123">
        <time>2022-07-30T14:13:05Z</time>
      </trkpt>
      <trkpt lat="42.76623" lon="-0.34139">
        <time>2022-07-30T14:13:06Z</time>
      </trkpt>
      <trkpt lat="42.76626" lon="-0.34155">
        <time>2022-07-30T14:13:07Z</time>
      </trkpt>
      <trkpt lat="42.76628" lon="-0.34172">
        <time>2022-07-30T14:13:08Z</time>
      </trkpt>
      <trkpt lat="42.7663" lon="-0.3419">
        <time>2022-07-30T14:13:09Z</time>
      </trkpt>
      <trkpt lat="42.7663" lon="-0.34208">
        <time>2022-07-30T14:13:10Z</time>
      </trkpt>
      <trkpt lat="42.7663" lon="-0.34226">
        <time>2022-07-30T14:13:11Z</time>
      </trkpt>
      <trkpt lat="42.7663" lon="-0.34243">
        <time>2022-07-30T14:13:12Z</time>
      </trkpt>
      <trkpt lat="42.7663" lon="-0.3426">
        <time>2022-07-30T14:13:13Z</time>
      </trkpt>
      <trkpt lat="42.76631" lon="-0.34277">
        <time>2022-07-30T14:13:14Z</time>
      </trkpt>
      <trkpt lat="42.76632" lon="-0.34293">
        <time>2022-07-30T14:13:15Z</time>
      </trkpt>
      <trkpt lat="42.76635" lon="-0.34309">
        <time>2022-07-30T14:13:16Z</time>
      </trkpt>
      <trkpt lat="42.76638" lon="-0.34324">
        <time>2022-07-30T14:13:17Z</time>
      </trkpt>
      <trkpt lat="42.76643" lon="-0.34337">
        <time>2022-07-30T14:13:18Z</time>
      </trkpt>
      <trkpt lat="42.7665" lon="-0.34347">
        <time>2022-07-30T14:13:19Z</time>
      </trkpt>
      <trkpt lat="42.7666" lon="-0.34354">
        <time>2022-07-30T14:13:20Z</time>
      </trkpt>
      <trkpt lat="42.7667" lon="-0.3436">
        <time>2022-07-30T14:13:21Z</time>
      </trkpt>
      <trkpt lat="42.76681" lon="-0.34368">
        <time>2022-07-30T14:13:22Z</time>
      </trkpt>
      <trkpt lat="42.76692" lon="-0.34377">
        <time>2022-07-30T14:13:23Z</time>
      </trkpt>
      <trkpt lat="42.76702" lon="-0.34386">
        <time>2022-07-30T14:13:24Z</time>
      </trkpt>
      <trkpt lat="42.76712" lon="-0.34397">
        <time>2022-07-30T14:13:25Z</time>
      </trkpt>
      <trkpt lat="42.76722" lon="-0.34409">
        <time>2022-07-30T14:13:26Z</time>
      </trkpt>
      <trkpt lat="42.76732" lon="-0.34421">
        <time>2022-07-30T14:13:27Z</time>
      </trkpt>
      <trkpt lat="42.76742" lon="-0.34434">
        <time>2022-07-30T14:13:28Z</time>
      </trkpt>
      <trkpt lat="42.76752" lon="-0.34449">
        <time>2022-07-30T14:13:29Z</time>
      </trkpt>
      <trkpt lat="42.76762" lon="-0.34464">
        <time>2022-07-30T14:13:30Z</time>
      </trkpt>
      <trkpt lat="42.76773" lon="-0.34478">
        <time>2022-07-30T14:13:31Z</time>
      </trkpt>
      <trkpt lat="42.76783" lon="-0.34493">
        <time>2022-07-30T14:13:32Z</time>
      </trkpt>
      <trkpt lat="42.76792" lon="-0.34507">
        <time>2022-07-30T14:13:33Z</time>
      </trkpt>
      <trkpt lat="42.76801" lon="-0.34522">
        <time>2022-07-30T14:13:34Z</time>
      </trkpt>
      <trkpt lat="42.7681" lon="-0.34538">
        <time>2022-07-30T14:13:35Z</time>
      </trkpt>
      <trkpt lat="42.76818" lon="-0.34554">
        <time>2022-07-30T14:13:36Z</time>
      </trkpt>
      <trkpt lat="42.76824" lon="-0.34571">
        <time>2022-07-30T14:13:37Z</time>
      </trkpt>
      <trkpt lat="42.76829" lon="-0.34588">
        <time>2022-07-30T14:13:38Z</time>
      </trkpt>
      <trkpt lat="42.76833" lon="-0.34606">
        <time>2022-07-30T14:13:39Z</time>
      </trkpt>
      <trkpt lat="42.76836" lon="-0.34622">
        <time>2022-07-30T14:13:40Z</time>
      </trkpt>
      <trkpt lat="42.76838" lon="-0.34639">
        <time>2022-07-30T14:13:41Z</time>
      </trkpt>
      <trkpt lat="42.7684" lon="-0.34656">
        <time>2022-07-30T14:13:42Z</time>
      </trkpt>
      <trkpt lat="42.76842" lon="-0.34675">
        <time>2022-07-30T14:13:43Z</time>
      </trkpt>
      <trkpt lat="42.76843" lon="-0.34695">
        <time>2022-07-30T14:13:44Z</time>
      </trkpt>
      <trkpt lat="42.76845" lon="-0.34714">
        <time>2022-07-30T14:13:45Z</time>
      </trkpt>
      <trkpt lat="42.76848" lon="-0.34732">
        <time>2022-07-30T14:13:46Z</time>
      </trkpt>
      <trkpt lat="42.76852" lon="-0.3475">
        <time>2022-07-30T14:13:47Z</time>
      </trkpt>
      <trkpt lat="42.76858" lon="-0.34767">
        <time>2022-07-30T14:13:48Z</time>
      </trkpt>
      <trkpt lat="42.76865" lon="-0.34782">
        <time>2022-07-30T14:13:49Z</time>
      </trkpt>
      <trkpt lat="42.7687" lon="-0.34797">
        <time>2022-07-30T14:13:50Z</time>
      </trkpt>
      <trkpt lat="42.76874" lon="-0.34812">
        <time>2022-07-30T14:13:51Z</time>
      </trkpt>
      <trkpt lat="42.76873" lon="-0.34827">
        <time>2022-07-30T14:13:52Z</time>
      </trkpt>
      <trkpt lat="42.76871" lon="-0.34842">
        <time>2022-07-30T14:13:53Z</time>
      </trkpt>
      <trkpt lat="42.76868" lon="-0.34856">
        <time>2022-07-30T14:13:54Z</time>
      </trkpt>
      <trkpt lat="42.76865" lon="-0.3487">
        <time>2022-07-30T14:13:55Z</time>
      </trkpt>
      <trkpt lat="42.76863" lon="-0.34884">
        <time>2022-07-30T14:13:56Z</time>
      </trkpt>
      <trkpt lat="42.7686" lon="-0.349">
        <time>2022-07-30T14:13:57Z</time>
      </trkpt>
      <trkpt lat="42.76857" lon="-0.34916">
        <time>2022-07-30T14:13:58Z</time>
      </trkpt>
      <trkpt lat="42.76854" lon="-0.34933">
        <time>2022-07-30T14:13:59Z</time>
      </trkpt>
      <trkpt lat="42.76852" lon="-0.3495">
        <time>2022-07-30T14:14:00Z</time>
      </trkpt>
      <trkpt lat="42.76849" lon="-0.34969">
        <time>2022-07-30T14:14:01Z</time>
      </trkpt>
      <trkpt lat="42.76847" lon="-0.34988">
        <time>2022-07-30T14:14:02Z</time>
      </trkpt>
      <trkpt lat="42.76846" lon="-0.35008">
        <time>2022-07-30T14:14:03Z</time>
      </trkpt>
      <trkpt lat="42.76847" lon="-0.35027">
        <time>2022-07-30T14:14:04Z</time>
      </trkpt>
      <trkpt lat="42.7685" lon="-0.35046">
        <time>2022-07-30T14:14:05Z</time>
      </trkpt>
      <trkpt lat="42.76855" lon="-0.35065">
        <time>2022-07-30T14:14:06Z</time>
      </trkpt>
      <trkpt lat="42.76861" lon="-0.35083">
        <time>2022-07-30T14:14:07Z</time>
      </trkpt>
      <trkpt lat="42.76868" lon="-0.35101">
        <time>2022-07-30T14:14:08Z</time>
      </trkpt>
      <trkpt lat="42.76875" lon="-0.35117">
        <time>2022-07-30T14:14:09Z</time>
      </trkpt>
      <trkpt lat="42.76882" lon="-0.35133">
        <time>2022-07-30T14:14:10Z</time>
      </trkpt>
      <trkpt lat="42.76889" lon="-0.35148">
        <time>2022-07-30T14:14:11Z</time>
      </trkpt>
      <trkpt lat="42.76895" lon="-0.35163">
        <time>2022-07-30T14:14:12Z</time>
      </trkpt>
      <trkpt lat="42.76901" lon="-0.35179">
        <time>2022-07-30T14:14:13Z</time>
      </trkpt>
      <trkpt lat="42.76906" lon="-0.35196">
        <time>2022-07-30T14:14:14Z</time>
      </trkpt>
      <trkpt lat="42.7691" lon="-0.35214">
        <time>2022-07-30T14:14:15Z</time>
      </trkpt>
      <trkpt lat="42.76911" lon="-0.35234">
        <time>2022-07-30T14:14:16Z</time>
      </trkpt>
      <trkpt lat="42.76911" lon="-0.35254">
        <time>2022-07-30T14:14:17Z</time>
      </trkpt>
      <trkpt lat="42.7691" lon="-0.35274">
        <time>2022-07-30T14:14:18Z</time>
      </trkpt>
      <trkpt lat="42.76909" lon="-0.35295">
        <time>2022-07-30T14:14:19Z</time>
      </trkpt>
      <trkpt lat="42.76907" lon="-0.35315">
        <time>2022-07-30T14:14:20Z</time>
      </trkpt>
      <trkpt lat="42.76906" lon="-0.35334">
        <time>2022-07-30T14:14:21Z</time>
      </trkpt>
      <trkpt lat="42.76904" lon="-0.35354">
        <time>2022-07-30T14:14:22Z</time>
      </trkpt>
      <trkpt lat="42.76902" lon="-0.35374">
        <time>2022-07-30T14:14:23Z</time>
      </trkpt>
      <trkpt lat="42.769" lon="-0.35395">
        <time>2022-07-30T14:14:24Z</time>
      </trkpt>
      <trkpt lat="42.76898" lon="-0.35416">
        <time>2022-07-30T14:14:25Z</time>
      </trkpt>
      <trkpt lat="42.76897" lon="-0.35437">
        <time>2022-07-30T14:14:26Z</time>
      </trkpt>
      <trkpt lat="42.76897" lon="-0.35458">
        <time>2022-07-30T14:14:27Z</time>
      </trkpt>
      <trkpt lat="42.76898" lon="-0.35479">
        <time>2022-07-30T14:14:28Z</time>
      </trkpt>
      <trkpt lat="42.769" lon="-0.355">
        <time>2022-07-30T14:14:29Z</time>
      </trkpt>
      <trkpt lat="42.76905" lon="-0.3552">
        <time>2022-07-30T14:14:30Z</time>
      </trkpt>
      <trkpt lat="42.76911" lon="-0.35538">
        <time>2022-07-30T14:14:31Z</time>
      </trkpt>
      <trkpt lat="42.76919" lon="-0.35555">
        <time>2022-07-30T14:14:32Z</time>
      </trkpt>
      <trkpt lat="42.76925" lon="-0.35571">
        <time>2022-07-30T14:14:33Z</time>
      </trkpt>
      <trkpt lat="42.76931" lon="-0.35586">
        <time>2022-07-30T14:14:34Z</time>
      </trkpt>
      <trkpt lat="42.76937" lon="-0.35601">
        <time>2022-07-30T14:14:35Z</time>
      </trkpt>
      <trkpt lat="42.76941" lon="-0.35617">
        <time>2022-07-30T14:14:36Z</time>
      </trkpt>
      <trkpt lat="42.76944" lon="-0.35633">
        <time>2022-07-30T14:14:37Z</time>
      </trkpt>
      <trkpt lat="42.76947" lon="-0.35651">
        <time>2022-07-30T14:14:38Z</time>
      </trkpt>
      <trkpt lat="42.76948" lon="-0.35669">
        <time>2022-07-30T14:14:39Z</time>
      </trkpt>
      <trkpt lat="42.76947" lon="-0.35688">
        <time>2022-07-30T14:14:40Z</time>
      </trkpt>
      <trkpt lat="42.76945" lon="-0.35707">
        <time>2022-07-30T14:14:41Z</time>
      </trkpt>
      <trkpt lat="42.76941" lon="-0.35725">
        <time>2022-07-30T14:14:42Z</time>
      </trkpt>
      <trkpt lat="42.76935" lon="-0.35741">
        <time>2022-07-30T14:14:43Z</time>
      </trkpt>
      <trkpt lat="42.76928" lon="-0.35756">
        <time>2022-07-30T14:14:44Z</time>
      </trkpt>
      <trkpt lat="42.76919" lon="-0.35771">
        <time>2022-07-30T14:14:45Z</time>
      </trkpt>
      <trkpt lat="42.7691" lon="-0.35786">
        <time>2022-07-30T14:14:46Z</time>
      </trkpt>
      <trkpt lat="42.76901" lon="-0.358">
        <time>2022-07-30T14:14:47Z</time>
      </trkpt>
      <trkpt lat="42.76893" lon="-0.35815">
        <time>2022-07-30T14:14:48Z</time>
      </trkpt>
      <trkpt lat="42.76884" lon="-0.35829">
        <time>2022-07-30T14:14:49Z</time>
      </trkpt>
      <trkpt lat="42.76877" lon="-0.35843">
        <time>2022-07-30T14:14:50Z</time>
      </trkpt>
      <trkpt lat="42.76869" lon="-0.35857">
        <time>2022-07-30T14:14:51Z</time>
      </trkpt>
      <trkpt lat="42.76863" lon="-0.35872">
        <time>2022-07-30T14:14:52Z</time>
      </trkpt>
      <trkpt lat="42.76859" lon="-0.35887">
        <time>2022-07-30T14:14:53Z</time>
      </trkpt>
      <trkpt lat="42.76858" lon="-0.35903">
        <time>2022-07-30T14:14:54Z</time>
      </trkpt>
      <trkpt lat="42.76861" lon="-0.35919">
        <time>2022-07-30T14:14:55Z</time>
      </trkpt>
      <trkpt lat="42.76867" lon="-0.35935">
        <time>2022-07-30T14:14:56Z</time>
      </trkpt>
      <trkpt lat="42.76874" lon="-0.3595">
        <time>2022-07-30T14:14:57Z</time>
      </trkpt>
      <trkpt lat="42.76884" lon="-0.35965">
        <time>2022-07-30T14:14:58Z</time>
      </trkpt>
      <trkpt lat="42.76894" lon="-0.35978">
        <time>2022-07-30T14:14:59Z</time>
      </trkpt>
      <trkpt lat="42.76905" lon="-0.3599">
        <time>2022-07-30T14:15:00Z</time>
      </trkpt>
      <trkpt lat="42.76917" lon="-0.35999">
        <time>2022-07-30T14:15:01Z</time>
      </trkpt>
      <trkpt lat="42.76929" lon="-0.36008">
        <time>2022-07-30T14:15:02Z</time>
      </trkpt>
      <trkpt lat="42.76941" lon="-0.36016">
        <time>2022-07-30T14:15:03Z</time>
      </trkpt>
      <trkpt lat="42.76951" lon="-0.36024">
        <time>2022-07-30T14:15:04Z</time>
      </trkpt>
      <trkpt lat="42.76961" lon="-0.36031">
        <time>2022-07-30T14:15:05Z</time>
      </trkpt>
      <trkpt lat="42.76971" lon="-0.36038">
        <time>2022-07-30T14:15:06Z</time>
      </trkpt>
      <trkpt lat="42.76981" lon="-0.36046">
        <time>2022-07-30T14:15:07Z</time>
      </trkpt>
      <trkpt lat="42.7699" lon="-0.36054">
        <time>2022-07-30T14:15:08Z</time>
      </trkpt>
      <trkpt lat="42.76999" lon="-0.36064">
        <time>2022-07-30T14:15:09Z</time>
      </trkpt>
      <trkpt lat="42.77007" lon="-0.36076">
        <time>2022-07-30T14:15:10Z</time>
      </trkpt>
      <trkpt lat="42.77014" lon="-0.3609">
        <time>2022-07-30T14:15:11Z</time>
      </trkpt>
      <trkpt lat="42.77019" lon="-0.36106">
        <time>2022-07-30T14:15:12Z</time>
      </trkpt>
      <trkpt lat="42.77022" lon="-0.36122">
        <time>2022-07-30T14:15:13Z</time>
      </trkpt>
      <trkpt lat="42.77024" lon="-0.3614">
        <time>2022-07-30T14:15:14Z</time>
      </trkpt>
      <trkpt lat="42.77026" lon="-0.36159">
        <time>2022-07-30T14:15:15Z</time>
      </trkpt>
      <trkpt lat="42.77028" lon="-0.36177">
        <time>2022-07-30T14:15:16Z</time>
      </trkpt>
      <trkpt lat="42.7703" lon="-0.36195">
        <time>2022-07-30T14:15:17Z</time>
      </trkpt>
      <trkpt lat="42.77032" lon="-0.36213">
        <time>2022-07-30T14:15:18Z</time>
      </trkpt>
      <trkpt lat="42.77033" lon="-0.36232">
        <time>2022-07-30T14:15:19Z</time>
      </trkpt>
      <trkpt lat="42.77033" lon="-0.36249">
        <time>2022-07-30T14:15:20Z</time>
      </trkpt>
      <trkpt lat="42.77032" lon="-0.36266">
        <time>2022-07-30T14:15:21Z</time>
      </trkpt>
      <trkpt lat="42.77032" lon="-0.36283">
        <time>2022-07-30T14:15:22Z</time>
      </trkpt>
      <trkpt lat="42.77031" lon="-0.36299">
        <time>2022-07-30T14:15:23Z</time>
      </trkpt>
      <trkpt lat="42.77032" lon="-0.36314">
        <time>2022-07-30T14:15:24Z</time>
      </trkpt>
      <trkpt lat="42.77036" lon="-0.36328">
        <time>2022-07-30T14:15:25Z</time>
      </trkpt>
      <trkpt lat="42.77043" lon="-0.36341">
        <time>2022-07-30T14:15:26Z</time>
      </trkpt>
      <trkpt lat="42.77052" lon="-0.36352">
        <time>2022-07-30T14:15:27Z</time>
      </trkpt>
      <trkpt lat="42.77064" lon="-0.36363">
        <time>2022-07-30T14:15:28Z</time>
      </trkpt>
      <trkpt lat="42.77079" lon="-0.36372">
        <time>2022-07-30T14:15:29Z</time>
      </trkpt>
      <trkpt lat="42.77094" lon="-0.3638">
        <time>2022-07-30T14:15:30Z</time>
      </trkpt>
      <trkpt lat="42.77108" lon="-0.36388">
        <time>2022-07-30T14:15:31Z</time>
      </trkpt>
      <trkpt lat="42.77124" lon="-0.36395">
        <time>2022-07-30T14:15:32Z</time>
      </trkpt>
      <trkpt lat="42.77139" lon="-0.36403">
        <time>2022-07-30T14:15:33Z</time>
      </trkpt>
      <trkpt lat="42.77154" lon="-0.36411">
        <time>2022-07-30T14:15:34Z</time>
      </trkpt>
      <trkpt lat="42.77168" lon="-0.36419">
        <time>2022-07-30T14:15:35Z</time>
      </trkpt>
      <trkpt lat="42.77183" lon="-0.36425">
        <time>2022-07-30T14:15:36Z</time>
      </trkpt>
      <trkpt lat="42.77197" lon="-0.36432">
        <time>2022-07-30T14:15:37Z</time>
      </trkpt>
      <trkpt lat="42.7721" lon="-0.36439">
        <time>2022-07-30T14:15:38Z</time>
      </trkpt>
      <trkpt lat="42.77224" lon="-0.36447">
        <time>2022-07-30T14:15:39Z</time>
      </trkpt>
      <trkpt lat="42.77236" lon="-0.36456">
        <time>2022-07-30T14:15:40Z</time>
      </trkpt>
      <trkpt lat="42.77247" lon="-0.36466">
        <time>2022-07-30T14:15:41Z</time>
      </trkpt>
      <trkpt lat="42.77258" lon="-0.36476">
        <time>2022-07-30T14:15:42Z</time>
      </trkpt>
      <trkpt lat="42.77267" lon="-0.36486">
        <time>2022-07-30T14:15:43Z</time>
      </trkpt>
      <trkpt lat="42.77276" lon="-0.36496">
        <time>2022-07-30T14:15:44Z</time>
      </trkpt>
      <trkpt lat="42.77285" lon="-0.36505">
        <time>2022-07-30T14:15:45Z</time>
      </trkpt>
      <trkpt lat="42.77294" lon="-0.36515">
        <time>2022-07-30T14:15:46Z</time>
      </trkpt>
      <trkpt lat="42.77302" lon="-0.36524">
        <time>2022-07-30T14:15:47Z</time>
      </trkpt>
      <trkpt lat="42.77312" lon="-0.36532">
        <time>2022-07-30T14:15:48Z</time>
      </trkpt>
      <trkpt lat="42.77322" lon="-0.36539">
        <time>2022-07-30T14:15:49Z</time>
      </trkpt>
      <trkpt lat="42.77333" lon="-0.36543">
        <time>2022-07-30T14:15:50Z</time>
      </trkpt>
      <trkpt lat="42.77345" lon="-0.36547">
        <time>2022-07-30T14:15:51Z</time>
      </trkpt>
      <trkpt lat="42.77357" lon="-0.3655">
        <time>2022-07-30T14:15:52Z</time>
      </trkpt>
      <trkpt lat="42.77367" lon="-0.36554">
        <time>2022-07-30T14:15:53Z</time>
      </trkpt>
      <trkpt lat="42.77377" lon="-0.36558">
        <time>2022-07-30T14:15:54Z</time>
      </trkpt>
      <trkpt lat="42.77385" lon="-0.36563">
        <time>2022-07-30T14:15:55Z</time>
      </trkpt>
      <trkpt lat="42.77393" lon="-0.36571">
        <time>2022-07-30T14:15:56Z</time>
      </trkpt>
      <trkpt lat="42.77397" lon="-0.36582">
        <time>2022-07-30T14:15:57Z</time>
      </trkpt>
      <trkpt lat="42.774" lon="-0.36596">
        <time>2022-07-30T14:15:58Z</time>
      </trkpt>
      <trkpt lat="42.774" lon="-0.36612">
        <time>2022-07-30T14:15:59Z</time>
      </trkpt>
      <trkpt lat="42.774" lon="-0.36627">
        <time>2022-07-30T14:16:00Z</time>
      </trkpt>
      <trkpt lat="42.77399" lon="-0.36641">
        <time>2022-07-30T14:16:01Z</time>
      </trkpt>
      <trkpt lat="42.77399" lon="-0.36654">
        <time>2022-07-30T14:16:02Z</time>
      </trkpt>
      <trkpt lat="42.774" lon="-0.36666">
        <time>2022-07-30T14:16:03Z</time>
      </trkpt>
      <trkpt lat="42.77401" lon="-0.36678">
        <time>2022-07-30T14:16:04Z</time>
      </trkpt>
      <trkpt lat="42.77403" lon="-0.3669">
        <time>2022-07-30T14:16:05Z</time>
      </trkpt>
      <trkpt lat="42.77407" lon="-0.36701">
        <time>2022-07-30T14:16:06Z</time>
      </trkpt>
      <trkpt lat="42.77412" lon="-0.36711">
        <time>2022-07-30T14:16:07Z</time>
      </trkpt>
      <trkpt lat="42.77419" lon="-0.36721">
        <time>2022-07-30T14:16:08Z</time>
      </trkpt>
      <trkpt lat="42.77424" lon="-0.36731">
        <time>2022-07-30T14:16:09Z</time>
      </trkpt>
      <trkpt lat="42.7743" lon="-0.36741">
        <time>2022-07-30T14:16:10Z</time>
      </trkpt>
      <trkpt lat="42.77435" lon="-0.3675">
        <time>2022-07-30T14:16:11Z</time>
      </trkpt>
      <trkpt lat="42.77441" lon="-0.36758">
        <time>2022-07-30T14:16:12Z</time>
      </trkpt>
      <trkpt lat="42.77447" lon="-0.36765">
        <time>2022-07-30T14:16:13Z</time>
      </trkpt>
      <trkpt lat="42.77454" lon="-0.36772">
        <time>2022-07-30T14:16:14Z</time>
      </trkpt>
      <trkpt lat="42.77461" lon="-0.36779">
        <time>2022-07-30T14:16:15Z</time>
      </trkpt>
      <trkpt lat="42.77467" lon="-0.36786">
        <time>2022-07-30T14:16:16Z</time>
      </trkpt>
      <trkpt lat="42.77473" lon="-0.36793">
        <time>2022-07-30T14:16:17Z</time>
      </trkpt>
      <trkpt lat="42.77479" lon="-0.36798">
        <time>2022-07-30T14:16:18Z</time>
      </trkpt>
      <trkpt lat="42.77485" lon="-0.36804">
        <time>2022-07-30T14:16:19Z</time>
      </trkpt>
      <trkpt lat="42.7749" lon="-0.36806">
        <time>2022-07-30T14:16:20Z</time>
      </trkpt>
      <trkpt lat="42.77495" lon="-0.36805">
        <time>2022-07-30T14:16:21Z</time>
      </trkpt>
      <trkpt lat="42.77498" lon="-0.36804">
        <time>2022-07-30T14:16:22Z</time>
      </trkpt>
      <trkpt lat="42.775" lon="-0.36802">
        <time>2022-07-30T14:16:23Z</time>
      </trkpt>
      <trkpt lat="42.77501" lon="-0.368">
        <time>2022-07-30T14:16:24Z</time>
      </trkpt>
      <trkpt lat="42.77503" lon="-0.36796">
        <time>2022-07-30T14:16:25Z</time>
      </trkpt>
      <trkpt lat="42.77505" lon="-0.36791">
        <time>2022-07-30T14:16:26Z</time>
      </trkpt>
      <trkpt lat="42.77501" lon="-0.36783">
        <time>2022-07-30T14:16:27Z</time>
      </trkpt>
      <trkpt lat="42.77497" lon="-0.36775">
        <time>2022-07-30T14:16:28Z</time>
      </trkpt>
      <trkpt lat="42.77493" lon="-0.36766">
        <time>2022-07-30T14:16:29Z</time>
      </trkpt>
      <trkpt lat="42.77488" lon="-0.36757">
        <time>2022-07-30T14:16:30Z</time>
      </trkpt>
      <trkpt lat="42.77484" lon="-0.36747">
        <time>2022-07-30T14:16:31Z</time>
      </trkpt>
      <trkpt lat="42.77481" lon="-0.36738">
        <time>2022-07-30T14:16:32Z</time>
      </trkpt>
      <trkpt lat="42.77478" lon="-0.3673">
        <time>2022-07-30T14:16:33Z</time>
      </trkpt>
      <trkpt lat="42.77476" lon="-0.36722">
        <time>2022-07-30T14:16:34Z</time>
      </trkpt>
      <trkpt lat="42.77474" lon="-0.36713">
        <time>2022-07-30T14:16:35Z</time>
      </trkpt>
      <trkpt lat="42.77472" lon="-0.36703">
        <time>2022-07-30T14:16:36Z</time>
      </trkpt>
      <trkpt lat="42.7747" lon="-0.36693">
        <time>2022-07-30T14:16:37Z</time>
      </trkpt>
      <trkpt lat="42.77469" lon="-0.36683">
        <time>2022-07-30T14:16:38Z</time>
      </trkpt>
      <trkpt lat="42.77468" lon="-0.36672">
        <time>2022-07-30T14:16:39Z</time>
      </trkpt>
      <trkpt lat="42.77467" lon="-0.36661">
        <time>2022-07-30T14:16:40Z</time>
      </trkpt>
      <trkpt lat="42.77467" lon="-0.36649">
        <time>2022-07-30T14:16:41Z</time>
      </trkpt>
      <trkpt lat="42.77467" lon="-0.36637">
        <time>2022-07-30T14:16:42Z</time>
      </trkpt>
      <trkpt lat="42.77467" lon="-0.36626">
        <time>2022-07-30T14:16:43Z</time>
      </trkpt>
      <trkpt lat="42.77467" lon="-0.36613">
        <time>2022-07-30T14:16:44Z</time>
      </trkpt>
      <trkpt lat="42.77467" lon="-0.36599">
        <time>2022-07-30T14:16:45Z</time>
      </trkpt>
      <trkpt lat="42.77467" lon="-0.36585">
        <time>2022-07-30T14:16:46Z</time>
      </trkpt>
      <trkpt lat="42.77467" lon="-0.36571">
        <time>2022-07-30T14:16:47Z</time>
      </trkpt>
      <trkpt lat="42.77467" lon="-0.36556">
        <time>2022-07-30T14:16:48Z</time>
      </trkpt>
      <trkpt lat="42.77465" lon="-0.3654">
        <time>2022-07-30T14:16:49Z</time>
      </trkpt>
      <trkpt lat="42.77463" lon="-0.36525">
        <time>2022-07-30T14:16:50Z</time>
      </trkpt>
      <trkpt lat="42.77459" lon="-0.36511">
        <time>2022-07-30T14:16:51Z</time>
      </trkpt>
      <trkpt lat="42.77454" lon="-0.36499">
        <time>2022-07-30T14:16:52Z</time>
      </trkpt>
      <trkpt lat="42.77447" lon="-0.36487">
        <time>2022-07-30T14:16:53Z</time>
      </trkpt>
      <trkpt lat="42.77441" lon="-0.36476">
        <time>2022-07-30T14:16:54Z</time>
      </trkpt>
      <trkpt lat="42.77434" lon="-0.36464">
        <time>2022-07-30T14:16:55Z</time>
      </trkpt>
      <trkpt lat="42.77427" lon="-0.36453">
        <time>2022-07-30T14:16:56Z</time>
      </trkpt>
      <trkpt lat="42.77421" lon="-0.36441">
        <time>2022-07-30T14:16:57Z</time>
      </trkpt>
      <trkpt lat="42.77415" lon="-0.36429">
        <time>2022-07-30T14:16:58Z</time>
      </trkpt>
      <trkpt lat="42.77411" lon="-0.36418">
        <time>2022-07-30T14:16:59Z</time>
      </trkpt>
      <trkpt lat="42.77407" lon="-0.36407">
        <time>2022-07-30T14:17:00Z</time>
      </trkpt>
      <trkpt lat="42.77403" lon="-0.36397">
        <time>2022-07-30T14:17:01Z</time>
      </trkpt>
      <trkpt lat="42.77399" lon="-0.36387">
        <time>2022-07-30T14:17:02Z</time>
      </trkpt>
      <trkpt lat="42.77394" lon="-0.36378">
        <time>2022-07-30T14:17:03Z</time>
      </trkpt>
      <trkpt lat="42.77389" lon="-0.36372">
        <time>2022-07-30T14:17:04Z</time>
      </trkpt>
      <trkpt lat="42.77385" lon="-0.36365">
        <time>2022-07-30T14:17:05Z</time>
      </trkpt>
      <trkpt lat="42.77383" lon="-0.36358">
        <time>2022-07-30T14:17:06Z</time>
      </trkpt>
      <trkpt lat="42.77383" lon="-0.3635">
        <time>2022-07-30T14:17:07Z</time>
      </trkpt>
      <trkpt lat="42.77386" lon="-0.36342">
        <time>2022-07-30T14:17:08Z</time>
      </trkpt>
      <trkpt lat="42.77391" lon="-0.36337">
        <time>2022-07-30T14:17:09Z</time>
      </trkpt>
      <trkpt lat="42.77397" lon="-0.36333">
        <time>2022-07-30T14:17:10Z</time>
      </trkpt>
      <trkpt lat="42.77404" lon="-0.36328">
        <time>2022-07-30T14:17:11Z</time>
      </trkpt>
      <trkpt lat="42.7741" lon="-0.36321">
        <time>2022-07-30T14:17:12Z</time>
      </trkpt>
      <trkpt lat="42.77414" lon="-0.36314">
        <time>2022-07-30T14:17:13Z</time>
      </trkpt>
      <trkpt lat="42.77418" lon="-0.3631">
        <time>2022-07-30T14:17:14Z</time>
      </trkpt>
      <trkpt lat="42.77423" lon="-0.36307">
        <time>2022-07-30T14:17:15Z</time>
      </trkpt>
      <trkpt lat="42.77427" lon="-0.36308">
        <time>2022-07-30T14:17:16Z</time>
      </trkpt>
      <trkpt lat="42.7743" lon="-0.36308">
        <time>2022-07-30T14:17:17Z</time>
      </trkpt>
      <trkpt lat="42.77432" lon="-0.36307">
        <time>2022-07-30T14:17:18Z</time>
      </trkpt>
      <trkpt lat="42.77434" lon="-0.36304">
        <time>2022-07-30T14:17:19Z</time>
      </trkpt>
      <trkpt lat="42.77435" lon="-0.36301">
        <time>2022-07-30T14:17:20Z</time>
      </trkpt>
      <trkpt lat="42.77436" lon="-0.36298">
        <time>2022-07-30T14:17:21Z</time>
      </trkpt>
      <trkpt lat="42.77437" lon="-0.36295">
        <time>2022-07-30T14:17:22Z</time>
      </trkpt>
      <trkpt lat="42.77439" lon="-0.36293">
        <time>2022-07-30T14:17:23Z</time>
      </trkpt>
      <trkpt lat="42.77442" lon="-0.36293">
        <time>2022-07-30T14:17:24Z</time>
      </trkpt>
      <trkpt lat="42.77444" lon="-0.36294">
        <time>2022-07-30T14:17:25Z</time>
      </trkpt>
      <trkpt lat="42.77447" lon="-0.36297">
        <time>2022-07-30T14:17:26Z</time>
      </trkpt>
      <trkpt lat="42.77448" lon="-0.36298">
        <time>2022-07-30T14:17:27Z</time>
      </trkpt>
      <trkpt lat="42.77451" lon="-0.36306">
        <time>2022-07-30T14:18:04Z</time>
      </trkpt>
      <trkpt lat="42.77452" lon="-0.36307">
        <time>2022-07-30T14:18:05Z</time>
      </trkpt>
      <trkpt lat="42.77453" lon="-0.36308">
        <time>2022-07-30T14:18:06Z</time>
      </trkpt>
      <trkpt lat="42.77453" lon="-0.36309">
        <time>2022-07-30T14:18:07Z</time>
      </trkpt>
      <trkpt lat="42.77455" lon="-0.3631">
        <time>2022-07-30T14:18:08Z</time>
      </trkpt>
      <trkpt lat="42.77456" lon="-0.36311">
        <time>2022-07-30T14:18:09Z</time>
      </trkpt>
      <trkpt lat="42.77457" lon="-0.36312">
        <time>2022-07-30T14:18:10Z</time>
      </trkpt>
      <trkpt lat="42.77436" lon="-0.36294">
        <time>2022-07-31T13:18:28Z</time>
      </trkpt>
      <trkpt lat="42.77435" lon="-0.36294">
        <time>2022-07-31T13:18:29Z</time>
      </trkpt>
      <trkpt lat="42.77434" lon="-0.36293">
        <time>2022-07-31T13:18:30Z</time>
      </trkpt>
      <trkpt lat="42.77431" lon="-0.36293">
        <time>2022-07-31T13:18:31Z</time>
      </trkpt>
      <trkpt lat="42.77429" lon="-0.36295">
        <time>2022-07-31T13:18:32Z</time>
      </trkpt>
      <trkpt lat="42.77427" lon="-0.36299">
        <time>2022-07-31T13:18:33Z</time>
      </trkpt>
      <trkpt lat="42.77425" lon="-0.36304">
        <time>2022-07-31T13:18:34Z</time>
      </trkpt>
      <trkpt lat="42.77422" lon="-0.3631">
        <time>2022-07-31T13:18:35Z</time>
      </trkpt>
      <trkpt lat="42.77419" lon="-0.36315">
        <time>2022-07-31T13:18:36Z</time>
      </trkpt>
      <trkpt lat="42.77417" lon="-0.3632">
        <time>2022-07-31T13:18:37Z</time>
      </trkpt>
      <trkpt lat="42.77415" lon="-0.36324">
        <time>2022-07-31T13:18:38Z</time>
      </trkpt>
      <trkpt lat="42.77413" lon="-0.36329">
        <time>2022-07-31T13:18:39Z</time>
      </trkpt>
      <trkpt lat="42.7741" lon="-0.36335">
        <time>2022-07-31T13:18:40Z</time>
      </trkpt>
      <trkpt lat="42.77407" lon="-0.36342">
        <time>2022-07-31T13:18:41Z</time>
      </trkpt>
      <trkpt lat="42.77404" lon="-0.3635">
        <time>2022-07-31T13:18:42Z</time>
      </trkpt>
      <trkpt lat="42.77403" lon="-0.36358">
        <time>2022-07-31T13:18:43Z</time>
      </trkpt>
      <trkpt lat="42.77402" lon="-0.36368">
        <time>2022-07-31T13:18:44Z</time>
      </trkpt>
      <trkpt lat="42.77402" lon="-0.36377">
        <time>2022-07-31T13:18:45Z</time>
      </trkpt>
      <trkpt lat="42.77403" lon="-0.36387">
        <time>2022-07-31T13:18:46Z</time>
      </trkpt>
      <trkpt lat="42.77404" lon="-0.36397">
        <time>2022-07-31T13:18:47Z</time>
      </trkpt>
      <trkpt lat="42.77407" lon="-0.36408">
        <time>2022-07-31T13:18:48Z</time>
      </trkpt>
      <trkpt lat="42.77411" lon="-0.36419">
        <time>2022-07-31T13:18:49Z</time>
      </trkpt>
      <trkpt lat="42.77415" lon="-0.3643">
        <time>2022-07-31T13:18:50Z</time>
      </trkpt>
      <trkpt lat="42.77421" lon="-0.36441">
        <time>2022-07-31T13:18:51Z</time>
      </trkpt>
      <trkpt lat="42.77427" lon="-0.36452">
        <time>2022-07-31T13:18:52Z</time>
      </trkpt>
      <trkpt lat="42.77433" lon="-0.36462">
        <time>2022-07-31T13:18:53Z</time>
      </trkpt>
      <trkpt lat="42.77439" lon="-0.36473">
        <time>2022-07-31T13:18:54Z</time>
      </trkpt>
      <trkpt lat="42.77445" lon="-0.36484">
        <time>2022-07-31T13:18:55Z</time>
      </trkpt>
      <trkpt lat="42.7745" lon="-0.36495">
        <time>2022-07-31T13:18:56Z</time>
      </trkpt>
      <trkpt lat="42.77455" lon="-0.36506">
        <time>2022-07-31T13:18:57Z</time>
      </trkpt>
      <trkpt lat="42.77459" lon="-0.36518">
        <time>2022-07-31T13:18:58Z</time>
      </trkpt>
      <trkpt lat="42.77463" lon="-0.36531">
        <time>2022-07-31T13:18:59Z</time>
      </trkpt>
      <trkpt lat="42.77465" lon="-0.36543">
        <time>2022-07-31T13:19:00Z</time>
      </trkpt>
      <trkpt lat="42.77466" lon="-0.36557">
        <time>2022-07-31T13:19:01Z</time>
      </trkpt>
      <trkpt lat="42.77467" lon="-0.3657">
        <time>2022-07-31T13:19:02Z</time>
      </trkpt>
      <trkpt lat="42.77467" lon="-0.36584">
        <time>2022-07-31T13:19:03Z</time>
      </trkpt>
      <trkpt lat="42.77467" lon="-0.36598">
        <time>2022-07-31T13:19:04Z</time>
      </trkpt>
      <trkpt lat="42.77466" lon="-0.36612">
        <time>2022-07-31T13:19:05Z</time>
      </trkpt>
      <trkpt lat="42.77466" lon="-0.36626">
        <time>2022-07-31T13:19:06Z</time>
      </trkpt>
      <trkpt lat="42.77466" lon="-0.36638">
        <time>2022-07-31T13:19:07Z</time>
      </trkpt>
      <trkpt lat="42.77466" lon="-0.36652">
        <time>2022-07-31T13:19:08Z</time>
      </trkpt>
      <trkpt lat="42.77466" lon="-0.36664">
        <time>2022-07-31T13:19:09Z</time>
      </trkpt>
      <trkpt lat="42.77467" lon="-0.36676">
        <time>2022-07-31T13:19:10Z</time>
      </trkpt>
      <trkpt lat="42.77468" lon="-0.36687">
        <time>2022-07-31T13:19:11Z</time>
      </trkpt>
      <trkpt lat="42.7747" lon="-0.36699">
        <time>2022-07-31T13:19:12Z</time>
      </trkpt>
      <trkpt lat="42.77472" lon="-0.3671">
        <time>2022-07-31T13:19:13Z</time>
      </trkpt>
      <trkpt lat="42.77473" lon="-0.36722">
        <time>2022-07-31T13:19:14Z</time>
      </trkpt>
      <trkpt lat="42.77477" lon="-0.36732">
        <time>2022-07-31T13:19:15Z</time>
      </trkpt>
      <trkpt lat="42.7748" lon="-0.36742">
        <time>2022-07-31T13:19:16Z</time>
      </trkpt>
      <trkpt lat="42.77484" lon="-0.36751">
        <time>2022-07-31T13:19:17Z</time>
      </trkpt>
      <trkpt lat="42.77488" lon="-0.36761">
        <time>2022-07-31T13:19:18Z</time>
      </trkpt>
      <trkpt lat="42.77492" lon="-0.3677">
        <time>2022-07-31T13:19:19Z</time>
      </trkpt>
      <trkpt lat="42.77497" lon="-0.36779">
        <time>2022-07-31T13:19:20Z</time>
      </trkpt>
      <trkpt lat="42.77502" lon="-0.36787">
        <time>2022-07-31T13:19:21Z</time>
      </trkpt>
      <trkpt lat="42.77508" lon="-0.36796">
        <time>2022-07-31T13:19:22Z</time>
      </trkpt>
      <trkpt lat="42.77514" lon="-0.36804">
        <time>2022-07-31T13:19:23Z</time>
      </trkpt>
      <trkpt lat="42.77521" lon="-0.36812">
        <time>2022-07-31T13:19:24Z</time>
      </trkpt>
      <trkpt lat="42.77527" lon="-0.3682">
        <time>2022-07-31T13:19:25Z</time>
      </trkpt>
      <trkpt lat="42.77534" lon="-0.36828">
        <time>2022-07-31T13:19:26Z</time>
      </trkpt>
      <trkpt lat="42.77541" lon="-0.36837">
        <time>2022-07-31T13:19:27Z</time>
      </trkpt>
      <trkpt lat="42.77547" lon="-0.36845">
        <time>2022-07-31T13:19:28Z</time>
      </trkpt>
      <trkpt lat="42.77554" lon="-0.36852">
        <time>2022-07-31T13:19:29Z</time>
      </trkpt>
      <trkpt lat="42.77559" lon="-0.3686">
        <time>2022-07-31T13:19:30Z</time>
      </trkpt>
      <trkpt lat="42.77564" lon="-0.36868">
        <time>2022-07-31T13:19:31Z</time>
      </trkpt>
      <trkpt lat="42.77567" lon="-0.36878">
        <time>2022-07-31T13:19:32Z</time>
      </trkpt>
      <trkpt lat="42.77569" lon="-0.36887">
        <time>2022-07-31T13:19:33Z</time>
      </trkpt>
      <trkpt lat="42.7757" lon="-0.36896">
        <time>2022-07-31T13:19:34Z</time>
      </trkpt>
      <trkpt lat="42.77569" lon="-0.36905">
        <time>2022-07-31T13:19:35Z</time>
      </trkpt>
      <trkpt lat="42.77567" lon="-0.36914">
        <time>2022-07-31T13:19:36Z</time>
      </trkpt>
      <trkpt lat="42.77566" lon="-0.36921">
        <time>2022-07-31T13:19:37Z</time>
      </trkpt>
      <trkpt lat="42.77564" lon="-0.36926">
        <time>2022-07-31T13:19:38Z</time>
      </trkpt>
      <trkpt lat="42.77562" lon="-0.36931">
        <time>2022-07-31T13:19:39Z</time>
      </trkpt>
      <trkpt lat="42.77561" lon="-0.36937">
        <time>2022-07-31T13:19:40Z</time>
      </trkpt>
      <trkpt lat="42.7756" lon="-0.36942">
        <time>2022-07-31T13:19:41Z</time>
      </trkpt>
      <trkpt lat="42.77558" lon="-0.36947">
        <time>2022-07-31T13:19:42Z</time>
      </trkpt>
      <trkpt lat="42.77556" lon="-0.36952">
        <time>2022-07-31T13:19:43Z</time>
      </trkpt>
      <trkpt lat="42.77553" lon="-0.36957">
        <time>2022-07-31T13:19:44Z</time>
      </trkpt>
      <trkpt lat="42.77549" lon="-0.3696">
        <time>2022-07-31T13:19:45Z</time>
      </trkpt>
      <trkpt lat="42.77544" lon="-0.36961">
        <time>2022-07-31T13:19:46Z</time>
      </trkpt>
      <trkpt lat="42.7754" lon="-0.36959">
        <time>2022-07-31T13:19:47Z</time>
      </trkpt>
      <trkpt lat="42.77536" lon="-0.36956">
        <time>2022-07-31T13:19:48Z</time>
      </trkpt>
      <trkpt lat="42.77533" lon="-0.3695">
        <time>2022-07-31T13:19:49Z</time>
      </trkpt>
      <trkpt lat="42.77531" lon="-0.36942">
        <time>2022-07-31T13:19:50Z</time>
      </trkpt>
      <trkpt lat="42.77529" lon="-0.36933">
        <time>2022-07-31T13:19:51Z</time>
      </trkpt>
      <trkpt lat="42.77526" lon="-0.36923">
        <time>2022-07-31T13:19:52Z</time>
      </trkpt>
      <trkpt lat="42.77522" lon="-0.36913">
        <time>2022-07-31T13:19:53Z</time>
      </trkpt>
      <trkpt lat="42.77515" lon="-0.36905">
        <time>2022-07-31T13:19:54Z</time>
      </trkpt>
      <trkpt lat="42.77508" lon="-0.36897">
        <time>2022-07-31T13:19:55Z</time>
      </trkpt>
      <trkpt lat="42.775" lon="-0.36889">
        <time>2022-07-31T13:19:56Z</time>
      </trkpt>
      <trkpt lat="42.77492" lon="-0.36882">
        <time>2022-07-31T13:19:57Z</time>
      </trkpt>
      <trkpt lat="42.77483" lon="-0.36872">
        <time>2022-07-31T13:19:58Z</time>
      </trkpt>
      <trkpt lat="42.77473" lon="-0.36862">
        <time>2022-07-31T13:19:59Z</time>
      </trkpt>
      <trkpt lat="42.77461" lon="-0.36851">
        <time>2022-07-31T13:20:00Z</time>
      </trkpt>
      <trkpt lat="42.77449" lon="-0.36842">
        <time>2022-07-31T13:20:01Z</time>
      </trkpt>
      <trkpt lat="42.77438" lon="-0.36832">
        <time>2022-07-31T13:20:02Z</time>
      </trkpt>
      <trkpt lat="42.77426" lon="-0.36821">
        <time>2022-07-31T13:20:03Z</time>
      </trkpt>
      <trkpt lat="42.77416" lon="-0.36808">
        <time>2022-07-31T13:20:04Z</time>
      </trkpt>
      <trkpt lat="42.77406" lon="-0.36795">
        <time>2022-07-31T13:20:05Z</time>
      </trkpt>
      <trkpt lat="42.77397" lon="-0.36781">
        <time>2022-07-31T13:20:06Z</time>
      </trkpt>
      <trkpt lat="42.77391" lon="-0.36767">
        <time>2022-07-31T13:20:07Z</time>
      </trkpt>
      <trkpt lat="42.77386" lon="-0.36751">
        <time>2022-07-31T13:20:08Z</time>
      </trkpt>
      <trkpt lat="42.77383" lon="-0.36735">
        <time>2022-07-31T13:20:09Z</time>
      </trkpt>
      <trkpt lat="42.7738" lon="-0.36716">
        <time>2022-07-31T13:20:10Z</time>
      </trkpt>
      <trkpt lat="42.77377" lon="-0.36697">
        <time>2022-07-31T13:20:11Z</time>
      </trkpt>
      <trkpt lat="42.77375" lon="-0.36678">
        <time>2022-07-31T13:20:12Z</time>
      </trkpt>
      <trkpt lat="42.77373" lon="-0.36659">
        <time>2022-07-31T13:20:13Z</time>
      </trkpt>
      <trkpt lat="42.7737" lon="-0.36641">
        <time>2022-07-31T13:20:14Z</time>
      </trkpt>
      <trkpt lat="42.77366" lon="-0.36623">
        <time>2022-07-31T13:20:15Z</time>
      </trkpt>
      <trkpt lat="42.77361" lon="-0.36606">
        <time>2022-07-31T13:20:16Z</time>
      </trkpt>
      <trkpt lat="42.77353" lon="-0.3659">
        <time>2022-07-31T13:20:17Z</time>
      </trkpt>
      <trkpt lat="42.77345" lon="-0.36575">
        <time>2022-07-31T13:20:18Z</time>
      </trkpt>
      <trkpt lat="42.77336" lon="-0.36562">
        <time>2022-07-31T13:20:19Z</time>
      </trkpt>
      <trkpt lat="42.77325" lon="-0.3655">
        <time>2022-07-31T13:20:20Z</time>
      </trkpt>
      <trkpt lat="42.77313" lon="-0.36538">
        <time>2022-07-31T13:20:21Z</time>
      </trkpt>
      <trkpt lat="42.77302" lon="-0.36526">
        <time>2022-07-31T13:20:22Z</time>
      </trkpt>
      <trkpt lat="42.77291" lon="-0.36514">
        <time>2022-07-31T13:20:23Z</time>
      </trkpt>
      <trkpt lat="42.77279" lon="-0.36502">
        <time>2022-07-31T13:20:24Z</time>
      </trkpt>
      <trkpt lat="42.77267" lon="-0.3649">
        <time>2022-07-31T13:20:25Z</time>
      </trkpt>
      <trkpt lat="42.77255" lon="-0.36478">
        <time>2022-07-31T13:20:26Z</time>
      </trkpt>
      <trkpt lat="42.77242" lon="-0.36466">
        <time>2022-07-31T13:20:27Z</time>
      </trkpt>
      <trkpt lat="42.77229" lon="-0.36455">
        <time>2022-07-31T13:20:28Z</time>
      </trkpt>
      <trkpt lat="42.77215" lon="-0.36446">
        <time>2022-07-31T13:20:29Z</time>
      </trkpt>
      <trkpt lat="42.77201" lon="-0.36438">
        <time>2022-07-31T13:20:30Z</time>
      </trkpt>
      <trkpt lat="42.77188" lon="-0.36431">
        <time>2022-07-31T13:20:31Z</time>
      </trkpt>
      <trkpt lat="42.77175" lon="-0.36425">
        <time>2022-07-31T13:20:32Z</time>
      </trkpt>
      <trkpt lat="42.77162" lon="-0.36419">
        <time>2022-07-31T13:20:33Z</time>
      </trkpt>
      <trkpt lat="42.77148" lon="-0.36412">
        <time>2022-07-31T13:20:34Z</time>
      </trkpt>
      <trkpt lat="42.77135" lon="-0.36405">
        <time>2022-07-31T13:20:35Z</time>
      </trkpt>
      <trkpt lat="42.77122" lon="-0.36398">
        <time>2022-07-31T13:20:36Z</time>
      </trkpt>
      <trkpt lat="42.77109" lon="-0.36392">
        <time>2022-07-31T13:20:37Z</time>
      </trkpt>
      <trkpt lat="42.77096" lon="-0.36385">
        <time>2022-07-31T13:20:38Z</time>
      </trkpt>
      <trkpt lat="42.77082" lon="-0.36379">
        <time>2022-07-31T13:20:39Z</time>
      </trkpt>
      <trkpt lat="42.77069" lon="-0.36372">
        <time>2022-07-31T13:20:40Z</time>
      </trkpt>
      <trkpt lat="42.77057" lon="-0.36363">
        <time>2022-07-31T13:20:41Z</time>
      </trkpt>
      <trkpt lat="42.77046" lon="-0.36353">
        <time>2022-07-31T13:20:42Z</time>
      </trkpt>
      <trkpt lat="42.77037" lon="-0.3634">
        <time>2022-07-31T13:20:43Z</time>
      </trkpt>
      <trkpt lat="42.77032" lon="-0.36326">
        <time>2022-07-31T13:20:44Z</time>
      </trkpt>
      <trkpt lat="42.7703" lon="-0.3631">
        <time>2022-07-31T13:20:45Z</time>
      </trkpt>
      <trkpt lat="42.77029" lon="-0.36294">
        <time>2022-07-31T13:20:46Z</time>
      </trkpt>
      <trkpt lat="42.77029" lon="-0.36277">
        <time>2022-07-31T13:20:47Z</time>
      </trkpt>
      <trkpt lat="42.77029" lon="-0.3626">
        <time>2022-07-31T13:20:48Z</time>
      </trkpt>
      <trkpt lat="42.77029" lon="-0.36243">
        <time>2022-07-31T13:20:49Z</time>
      </trkpt>
      <trkpt lat="42.77029" lon="-0.36226">
        <time>2022-07-31T13:20:50Z</time>
      </trkpt>
      <trkpt lat="42.77028" lon="-0.36209">
        <time>2022-07-31T13:20:51Z</time>
      </trkpt>
      <trkpt lat="42.77026" lon="-0.36191">
        <time>2022-07-31T13:20:52Z</time>
      </trkpt>
      <trkpt lat="42.77024" lon="-0.36174">
        <time>2022-07-31T13:20:53Z</time>
      </trkpt>
      <trkpt lat="42.77022" lon="-0.36157">
        <time>2022-07-31T13:20:54Z</time>
      </trkpt>
      <trkpt lat="42.7702" lon="-0.3614">
        <time>2022-07-31T13:20:55Z</time>
      </trkpt>
      <trkpt lat="42.77018" lon="-0.36123">
        <time>2022-07-31T13:20:56Z</time>
      </trkpt>
      <trkpt lat="42.77015" lon="-0.36107">
        <time>2022-07-31T13:20:57Z</time>
      </trkpt>
      <trkpt lat="42.7701" lon="-0.36092">
        <time>2022-07-31T13:20:58Z</time>
      </trkpt>
      <trkpt lat="42.77003" lon="-0.36078">
        <time>2022-07-31T13:20:59Z</time>
      </trkpt>
      <trkpt lat="42.76995" lon="-0.36066">
        <time>2022-07-31T13:21:00Z</time>
      </trkpt>
      <trkpt lat="42.76985" lon="-0.36056">
        <time>2022-07-31T13:21:01Z</time>
      </trkpt>
      <trkpt lat="42.76974" lon="-0.36047">
        <time>2022-07-31T13:21:02Z</time>
      </trkpt>
      <trkpt lat="42.76962" lon="-0.36038">
        <time>2022-07-31T13:21:03Z</time>
      </trkpt>
      <trkpt lat="42.76951" lon="-0.3603">
        <time>2022-07-31T13:21:04Z</time>
      </trkpt>
      <trkpt lat="42.76941" lon="-0.36022">
        <time>2022-07-31T13:21:05Z</time>
      </trkpt>
      <trkpt lat="42.7693" lon="-0.36014">
        <time>2022-07-31T13:21:06Z</time>
      </trkpt>
      <trkpt lat="42.7692" lon="-0.36007">
        <time>2022-07-31T13:21:07Z</time>
      </trkpt>
      <trkpt lat="42.76911" lon="-0.35999">
        <time>2022-07-31T13:21:08Z</time>
      </trkpt>
      <trkpt lat="42.76902" lon="-0.35991">
        <time>2022-07-31T13:21:09Z</time>
      </trkpt>
      <trkpt lat="42.76893" lon="-0.35982">
        <time>2022-07-31T13:21:10Z</time>
      </trkpt>
      <trkpt lat="42.76884" lon="-0.35972">
        <time>2022-07-31T13:21:11Z</time>
      </trkpt>
      <trkpt lat="42.76876" lon="-0.35961">
        <time>2022-07-31T13:21:12Z</time>
      </trkpt>
      <trkpt lat="42.76869" lon="-0.3595">
        <time>2022-07-31T13:21:13Z</time>
      </trkpt>
      <trkpt lat="42.76864" lon="-0.35938">
        <time>2022-07-31T13:21:14Z</time>
      </trkpt>
      <trkpt lat="42.76859" lon="-0.35926">
        <time>2022-07-31T13:21:15Z</time>
      </trkpt>
      <trkpt lat="42.76856" lon="-0.35913">
        <time>2022-07-31T13:21:16Z</time>
      </trkpt>
      <trkpt lat="42.76855" lon="-0.35899">
        <time>2022-07-31T13:21:17Z</time>
      </trkpt>
      <trkpt lat="42.76855" lon="-0.35886">
        <time>2022-07-31T13:21:18Z</time>
      </trkpt>
      <trkpt lat="42.76858" lon="-0.35873">
        <time>2022-07-31T13:21:19Z</time>
      </trkpt>
      <trkpt lat="42.76863" lon="-0.35859">
        <time>2022-07-31T13:21:20Z</time>
      </trkpt>
      <trkpt lat="42.76869" lon="-0.35847">
        <time>2022-07-31T13:21:21Z</time>
      </trkpt>
      <trkpt lat="42.76876" lon="-0.35835">
        <time>2022-07-31T13:21:22Z</time>
      </trkpt>
      <trkpt lat="42.76884" lon="-0.35823">
        <time>2022-07-31T13:21:23Z</time>
      </trkpt>
      <trkpt lat="42.76891" lon="-0.35811">
        <time>2022-07-31T13:21:24Z</time>
      </trkpt>
      <trkpt lat="42.76898" lon="-0.358">
        <time>2022-07-31T13:21:25Z</time>
      </trkpt>
      <trkpt lat="42.76905" lon="-0.35788">
        <time>2022-07-31T13:21:26Z</time>
      </trkpt>
      <trkpt lat="42.76912" lon="-0.35777">
        <time>2022-07-31T13:21:27Z</time>
      </trkpt>
      <trkpt lat="42.76919" lon="-0.35765">
        <time>2022-07-31T13:21:28Z</time>
      </trkpt>
      <trkpt lat="42.76926" lon="-0.35753">
        <time>2022-07-31T13:21:29Z</time>
      </trkpt>
      <trkpt lat="42.76931" lon="-0.3574">
        <time>2022-07-31T13:21:30Z</time>
      </trkpt>
      <trkpt lat="42.76936" lon="-0.35727">
        <time>2022-07-31T13:21:31Z</time>
      </trkpt>
      <trkpt lat="42.76939" lon="-0.35713">
        <time>2022-07-31T13:21:32Z</time>
      </trkpt>
      <trkpt lat="42.76942" lon="-0.35699">
        <time>2022-07-31T13:21:33Z</time>
      </trkpt>
      <trkpt lat="42.76944" lon="-0.35686">
        <time>2022-07-31T13:21:34Z</time>
      </trkpt>
      <trkpt lat="42.76945" lon="-0.35671">
        <time>2022-07-31T13:21:35Z</time>
      </trkpt>
      <trkpt lat="42.76944" lon="-0.35655">
        <time>2022-07-31T13:21:36Z</time>
      </trkpt>
      <trkpt lat="42.76942" lon="-0.35639">
        <time>2022-07-31T13:21:37Z</time>
      </trkpt>
      <trkpt lat="42.76939" lon="-0.35622">
        <time>2022-07-31T13:21:38Z</time>
      </trkpt>
      <trkpt lat="42.76934" lon="-0.35606">
        <time>2022-07-31T13:21:39Z</time>
      </trkpt>
      <trkpt lat="42.76929" lon="-0.3559">
        <time>2022-07-31T13:21:40Z</time>
      </trkpt>
      <trkpt lat="42.76923" lon="-0.35575">
        <time>2022-07-31T13:21:41Z</time>
      </trkpt>
      <trkpt lat="42.76917" lon="-0.3556">
        <time>2022-07-31T13:21:42Z</time>
      </trkpt>
      <trkpt lat="42.76911" lon="-0.35545">
        <time>2022-07-31T13:21:43Z</time>
      </trkpt>
      <trkpt lat="42.76906" lon="-0.35531">
        <time>2022-07-31T13:21:44Z</time>
      </trkpt>
      <trkpt lat="42.76901" lon="-0.35515">
        <time>2022-07-31T13:21:45Z</time>
      </trkpt>
      <trkpt lat="42.76897" lon="-0.355">
        <time>2022-07-31T13:21:46Z</time>
      </trkpt>
      <trkpt lat="42.76895" lon="-0.35485">
        <time>2022-07-31T13:21:47Z</time>
      </trkpt>
      <trkpt lat="42.76894" lon="-0.3547">
        <time>2022-07-31T13:21:48Z</time>
      </trkpt>
      <trkpt lat="42.76893" lon="-0.35454">
        <time>2022-07-31T13:21:49Z</time>
      </trkpt>
      <trkpt lat="42.76893" lon="-0.35439">
        <time>2022-07-31T13:21:50Z</time>
      </trkpt>
      <trkpt lat="42.76894" lon="-0.35424">
        <time>2022-07-31T13:21:51Z</time>
      </trkpt>
      <trkpt lat="42.76895" lon="-0.35408">
        <time>2022-07-31T13:21:52Z</time>
      </trkpt>
      <trkpt lat="42.76896" lon="-0.35393">
        <time>2022-07-31T13:21:53Z</time>
      </trkpt>
      <trkpt lat="42.76898" lon="-0.35377">
        <time>2022-07-31T13:21:54Z</time>
      </trkpt>
      <trkpt lat="42.76899" lon="-0.35361">
        <time>2022-07-31T13:21:55Z</time>
      </trkpt>
      <trkpt lat="42.76901" lon="-0.35345">
        <time>2022-07-31T13:21:56Z</time>
      </trkpt>
      <trkpt lat="42.76903" lon="-0.3533">
        <time>2022-07-31T13:21:57Z</time>
      </trkpt>
      <trkpt lat="42.76904" lon="-0.35314">
        <time>2022-07-31T13:21:58Z</time>
      </trkpt>
      <trkpt lat="42.76906" lon="-0.35299">
        <time>2022-07-31T13:21:59Z</time>
      </trkpt>
      <trkpt lat="42.76907" lon="-0.35283">
        <time>2022-07-31T13:22:00Z</time>
      </trkpt>
      <trkpt lat="42.76908" lon="-0.35268">
        <time>2022-07-31T13:22:01Z</time>
      </trkpt>
      <trkpt lat="42.76909" lon="-0.35252">
        <time>2022-07-31T13:22:02Z</time>
      </trkpt>
      <trkpt lat="42.76909" lon="-0.35235">
        <time>2022-07-31T13:22:03Z</time>
      </trkpt>
      <trkpt lat="42.76908" lon="-0.35218">
        <time>2022-07-31T13:22:04Z</time>
      </trkpt>
      <trkpt lat="42.76905" lon="-0.35202">
        <time>2022-07-31T13:22:05Z</time>
      </trkpt>
      <trkpt lat="42.76901" lon="-0.35185">
        <time>2022-07-31T13:22:06Z</time>
      </trkpt>
      <trkpt lat="42.76894" lon="-0.35169">
        <time>2022-07-31T13:22:07Z</time>
      </trkpt>
      <trkpt lat="42.76888" lon="-0.35154">
        <time>2022-07-31T13:22:08Z</time>
      </trkpt>
      <trkpt lat="42.76881" lon="-0.35139">
        <time>2022-07-31T13:22:09Z</time>
      </trkpt>
      <trkpt lat="42.76874" lon="-0.35124">
        <time>2022-07-31T13:22:10Z</time>
      </trkpt>
      <trkpt lat="42.76868" lon="-0.3511">
        <time>2022-07-31T13:22:11Z</time>
      </trkpt>
      <trkpt lat="42.76861" lon="-0.35096">
        <time>2022-07-31T13:22:12Z</time>
      </trkpt>
      <trkpt lat="42.76855" lon="-0.35081">
        <time>2022-07-31T13:22:13Z</time>
      </trkpt>
      <trkpt lat="42.76851" lon="-0.35067">
        <time>2022-07-31T13:22:14Z</time>
      </trkpt>
      <trkpt lat="42.76848" lon="-0.35051">
        <time>2022-07-31T13:22:15Z</time>
      </trkpt>
      <trkpt lat="42.76846" lon="-0.35037">
        <time>2022-07-31T13:22:16Z</time>
      </trkpt>
      <trkpt lat="42.76844" lon="-0.35021">
        <time>2022-07-31T13:22:17Z</time>
      </trkpt>
      <trkpt lat="42.76844" lon="-0.35006">
        <time>2022-07-31T13:22:18Z</time>
      </trkpt>
      <trkpt lat="42.76844" lon="-0.3499">
        <time>2022-07-31T13:22:19Z</time>
      </trkpt>
      <trkpt lat="42.76846" lon="-0.34974">
        <time>2022-07-31T13:22:20Z</time>
      </trkpt>
      <trkpt lat="42.76848" lon="-0.34958">
        <time>2022-07-31T13:22:21Z</time>
      </trkpt>
      <trkpt lat="42.7685" lon="-0.34943">
        <time>2022-07-31T13:22:22Z</time>
      </trkpt>
      <trkpt lat="42.76852" lon="-0.34927">
        <time>2022-07-31T13:22:23Z</time>
      </trkpt>
      <trkpt lat="42.76855" lon="-0.34913">
        <time>2022-07-31T13:22:24Z</time>
      </trkpt>
      <trkpt lat="42.76858" lon="-0.34898">
        <time>2022-07-31T13:22:25Z</time>
      </trkpt>
      <trkpt lat="42.7686" lon="-0.34883">
        <time>2022-07-31T13:22:26Z</time>
      </trkpt>
      <trkpt lat="42.76863" lon="-0.34869">
        <time>2022-07-31T13:22:27Z</time>
      </trkpt>
      <trkpt lat="42.76865" lon="-0.34855">
        <time>2022-07-31T13:22:28Z</time>
      </trkpt>
      <trkpt lat="42.76867" lon="-0.34841">
        <time>2022-07-31T13:22:29Z</time>
      </trkpt>
      <trkpt lat="42.76869" lon="-0.34827">
        <time>2022-07-31T13:22:30Z</time>
      </trkpt>
      <trkpt lat="42.76868" lon="-0.34813">
        <time>2022-07-31T13:22:31Z</time>
      </trkpt>
      <trkpt lat="42.76865" lon="-0.348">
        <time>2022-07-31T13:22:32Z</time>
      </trkpt>
      <trkpt lat="42.76861" lon="-0.34786">
        <time>2022-07-31T13:22:33Z</time>
      </trkpt>
      <trkpt lat="42.76856" lon="-0.34773">
        <time>2022-07-31T13:22:34Z</time>
      </trkpt>
      <trkpt lat="42.76851" lon="-0.3476">
        <time>2022-07-31T13:22:35Z</time>
      </trkpt>
      <trkpt lat="42.76847" lon="-0.34744">
        <time>2022-07-31T13:22:36Z</time>
      </trkpt>
      <trkpt lat="42.76844" lon="-0.34728">
        <time>2022-07-31T13:22:37Z</time>
      </trkpt>
      <trkpt lat="42.76842" lon="-0.34711">
        <time>2022-07-31T13:22:38Z</time>
      </trkpt>
      <trkpt lat="42.7684" lon="-0.34694">
        <time>2022-07-31T13:22:39Z</time>
      </trkpt>
      <trkpt lat="42.76839" lon="-0.34676">
        <time>2022-07-31T13:22:40Z</time>
      </trkpt>
      <trkpt lat="42.76838" lon="-0.34658">
        <time>2022-07-31T13:22:41Z</time>
      </trkpt>
      <trkpt lat="42.76836" lon="-0.34641">
        <time>2022-07-31T13:22:42Z</time>
      </trkpt>
      <trkpt lat="42.76834" lon="-0.34625">
        <time>2022-07-31T13:22:43Z</time>
      </trkpt>
      <trkpt lat="42.76831" lon="-0.34609">
        <time>2022-07-31T13:22:44Z</time>
      </trkpt>
      <trkpt lat="42.76828" lon="-0.34593">
        <time>2022-07-31T13:22:45Z</time>
      </trkpt>
      <trkpt lat="42.76823" lon="-0.34577">
        <time>2022-07-31T13:22:46Z</time>
      </trkpt>
      <trkpt lat="42.76818" lon="-0.34562">
        <time>2022-07-31T13:22:47Z</time>
      </trkpt>
      <trkpt lat="42.76812" lon="-0.34548">
        <time>2022-07-31T13:22:48Z</time>
      </trkpt>
      <trkpt lat="42.76804" lon="-0.34534">
        <time>2022-07-31T13:22:49Z</time>
      </trkpt>
      <trkpt lat="42.76797" lon="-0.34521">
        <time>2022-07-31T13:22:50Z</time>
      </trkpt>
      <trkpt lat="42.76789" lon="-0.34508">
        <time>2022-07-31T13:22:51Z</time>
      </trkpt>
      <trkpt lat="42.7678" lon="-0.34495">
        <time>2022-07-31T13:22:52Z</time>
      </trkpt>
      <trkpt lat="42.76771" lon="-0.34482">
        <time>2022-07-31T13:22:53Z</time>
      </trkpt>
      <trkpt lat="42.76762" lon="-0.34469">
        <time>2022-07-31T13:22:54Z</time>
      </trkpt>
      <trkpt lat="42.76754" lon="-0.34456">
        <time>2022-07-31T13:22:55Z</time>
      </trkpt>
      <trkpt lat="42.76745" lon="-0.34443">
        <time>2022-07-31T13:22:56Z</time>
      </trkpt>
      <trkpt lat="42.76735" lon="-0.3443">
        <time>2022-07-31T13:22:57Z</time>
      </trkpt>
      <trkpt lat="42.76725" lon="-0.34418">
        <time>2022-07-31T13:22:58Z</time>
      </trkpt>
      <trkpt lat="42.76716" lon="-0.34407">
        <time>2022-07-31T13:22:59Z</time>
      </trkpt>
      <trkpt lat="42.76706" lon="-0.34396">
        <time>2022-07-31T13:23:00Z</time>
      </trkpt>
      <trkpt lat="42.76696" lon="-0.34386">
        <time>2022-07-31T13:23:01Z</time>
      </trkpt>
      <trkpt lat="42.76686" lon="-0.34378">
        <time>2022-07-31T13:23:02Z</time>
      </trkpt>
      <trkpt lat="42.76676" lon="-0.3437">
        <time>2022-07-31T13:23:03Z</time>
      </trkpt>
      <trkpt lat="42.76665" lon="-0.34363">
        <time>2022-07-31T13:23:04Z</time>
      </trkpt>
      <trkpt lat="42.76656" lon="-0.34356">
        <time>2022-07-31T13:23:05Z</time>
      </trkpt>
      <trkpt lat="42.76647" lon="-0.34349">
        <time>2022-07-31T13:23:06Z</time>
      </trkpt>
      <trkpt lat="42.76641" lon="-0.3434">
        <time>2022-07-31T13:23:07Z</time>
      </trkpt>
      <trkpt lat="42.76636" lon="-0.34328">
        <time>2022-07-31T13:23:08Z</time>
      </trkpt>
      <trkpt lat="42.76633" lon="-0.34315">
        <time>2022-07-31T13:23:09Z</time>
      </trkpt>
      <trkpt lat="42.76631" lon="-0.34302">
        <time>2022-07-31T13:23:10Z</time>
      </trkpt>
      <trkpt lat="42.7663" lon="-0.34289">
        <time>2022-07-31T13:23:11Z</time>
      </trkpt>
      <trkpt lat="42.76628" lon="-0.34276">
        <time>2022-07-31T13:23:12Z</time>
      </trkpt>
      <trkpt lat="42.76627" lon="-0.34262">
        <time>2022-07-31T13:23:13Z</time>
      </trkpt>
      <trkpt lat="42.76627" lon="-0.34248">
        <time>2022-07-31T13:23:14Z</time>
      </trkpt>
      <trkpt lat="42.76627" lon="-0.34234">
        <time>2022-07-31T13:23:15Z</time>
      </trkpt>
      <trkpt lat="42.76627" lon="-0.34219">
        <time>2022-07-31T13:23:16Z</time>
      </trkpt>
      <trkpt lat="42.76627" lon="-0.34203">
        <time>2022-07-31T13:23:17Z</time>
      </trkpt>
      <trkpt lat="42.76626" lon="-0.34188">
        <time>2022-07-31T13:23:18Z</time>
      </trkpt>
      <trkpt lat="42.76625" lon="-0.34173">
        <time>2022-07-31T13:23:19Z</time>
      </trkpt>
      <trkpt lat="42.76623" lon="-0.34158">
        <time>2022-07-31T13:23:20Z</time>
      </trkpt>
      <trkpt lat="42.7662" lon="-0.34144">
        <time>2022-07-31T13:23:21Z</time>
      </trkpt>
      <trkpt lat="42.76616" lon="-0.34129">
        <time>2022-07-31T13:23:22Z</time>
      </trkpt>
      <trkpt lat="42.76612" lon="-0.34115">
        <time>2022-07-31T13:23:23Z</time>
      </trkpt>
      <trkpt lat="42.76607" lon="-0.34101">
        <time>2022-07-31T13:23:24Z</time>
      </trkpt>
      <trkpt lat="42.76601" lon="-0.34087">
        <time>2022-07-31T13:23:25Z</time>
      </trkpt>
      <trkpt lat="42.76595" lon="-0.34074">
        <time>2022-07-31T13:23:26Z</time>
      </trkpt>
      <trkpt lat="42.76587" lon="-0.34063">
        <time>2022-07-31T13:23:27Z</time>
      </trkpt>
      <trkpt lat="42.7658" lon="-0.34052">
        <time>2022-07-31T13:23:28Z</time>
      </trkpt>
      <trkpt lat="42.76573" lon="-0.34041">
        <time>2022-07-31T13:23:29Z</time>
      </trkpt>
      <trkpt lat="42.76565" lon="-0.34032">
        <time>2022-07-31T13:23:30Z</time>
      </trkpt>
      <trkpt lat="42.76555" lon="-0.34025">
        <time>2022-07-31T13:23:31Z</time>
      </trkpt>
      <trkpt lat="42.76543" lon="-0.34022">
        <time>2022-07-31T13:23:32Z</time>
      </trkpt>
      <trkpt lat="42.76531" lon="-0.34018">
        <time>2022-07-31T13:23:33Z</time>
      </trkpt>
      <trkpt lat="42.76518" lon="-0.34014">
        <time>2022-07-31T13:23:34Z</time>
      </trkpt>
      <trkpt lat="42.76505" lon="-0.34011">
        <time>2022-07-31T13:23:35Z</time>
      </trkpt>
      <trkpt lat="42.76491" lon="-0.34007">
        <time>2022-07-31T13:23:36Z</time>
      </trkpt>
      <trkpt lat="42.76478" lon="-0.34003">
        <time>2022-07-31T13:23:37Z</time>
      </trkpt>
      <trkpt lat="42.76466" lon="-0.33997">
        <time>2022-07-31T13:23:38Z</time>
      </trkpt>
      <trkpt lat="42.76453" lon="-0.33993">
        <time>2022-07-31T13:23:39Z</time>
      </trkpt>
      <trkpt lat="42.76441" lon="-0.33987">
        <time>2022-07-31T13:23:40Z</time>
      </trkpt>
      <trkpt lat="42.76429" lon="-0.3398">
        <time>2022-07-31T13:23:41Z</time>
      </trkpt>
      <trkpt lat="42.76417" lon="-0.33974">
        <time>2022-07-31T13:23:42Z</time>
      </trkpt>
      <trkpt lat="42.76405" lon="-0.33967">
        <time>2022-07-31T13:23:43Z</time>
      </trkpt>
      <trkpt lat="42.76393" lon="-0.33959">
        <time>2022-07-31T13:23:44Z</time>
      </trkpt>
      <trkpt lat="42.76381" lon="-0.3395">
        <time>2022-07-31T13:23:45Z</time>
      </trkpt>
      <trkpt lat="42.76371" lon="-0.3394">
        <time>2022-07-31T13:23:46Z</time>
      </trkpt>
      <trkpt lat="42.76361" lon="-0.33929">
        <time>2022-07-31T13:23:47Z</time>
      </trkpt>
      <trkpt lat="42.76353" lon="-0.33917">
        <time>2022-07-31T13:23:48Z</time>
      </trkpt>
      <trkpt lat="42.76345" lon="-0.33903">
        <time>2022-07-31T13:23:49Z</time>
      </trkpt>
      <trkpt lat="42.76338" lon="-0.33888">
        <time>2022-07-31T13:23:50Z</time>
      </trkpt>
      <trkpt lat="42.76331" lon="-0.33872">
        <time>2022-07-31T13:23:51Z</time>
      </trkpt>
      <trkpt lat="42.76324" lon="-0.33856">
        <time>2022-07-31T13:23:52Z</time>
      </trkpt>
      <trkpt lat="42.76318" lon="-0.33841">
        <time>2022-07-31T13:23:53Z</time>
      </trkpt>
      <trkpt lat="42.76312" lon="-0.33826">
        <time>2022-07-31T13:23:54Z</time>
      </trkpt>
      <trkpt lat="42.76306" lon="-0.33812">
        <time>2022-07-31T13:23:55Z</time>
      </trkpt>
      <trkpt lat="42.763" lon="-0.33798">
        <time>2022-07-31T13:23:56Z</time>
      </trkpt>
      <trkpt lat="42.76293" lon="-0.33784">
        <time>2022-07-31T13:23:57Z</time>
      </trkpt>
      <trkpt lat="42.76286" lon="-0.3377">
        <time>2022-07-31T13:23:58Z</time>
      </trkpt>
      <trkpt lat="42.76278" lon="-0.33758">
        <time>2022-07-31T13:23:59Z</time>
      </trkpt>
      <trkpt lat="42.7627" lon="-0.33747">
        <time>2022-07-31T13:24:00Z</time>
      </trkpt>
      <trkpt lat="42.76261" lon="-0.33736">
        <time>2022-07-31T13:24:01Z</time>
      </trkpt>
      <trkpt lat="42.76252" lon="-0.33725">
        <time>2022-07-31T13:24:02Z</time>
      </trkpt>
      <trkpt lat="42.76243" lon="-0.33716">
        <time>2022-07-31T13:24:03Z</time>
      </trkpt>
      <trkpt lat="42.76233" lon="-0.33706">
        <time>2022-07-31T13:24:04Z</time>
      </trkpt>
      <trkpt lat="42.76224" lon="-0.33697">
        <time>2022-07-31T13:24:05Z</time>
      </trkpt>
      <trkpt lat="42.76215" lon="-0.33686">
        <time>2022-07-31T13:24:06Z</time>
      </trkpt>
      <trkpt lat="42.76206" lon="-0.33675">
        <time>2022-07-31T13:24:07Z</time>
      </trkpt>
      <trkpt lat="42.76198" lon="-0.33662">
        <time>2022-07-31T13:24:08Z</time>
      </trkpt>
      <trkpt lat="42.7619" lon="-0.3365">
        <time>2022-07-31T13:24:09Z</time>
      </trkpt>
      <trkpt lat="42.76183" lon="-0.33636">
        <time>2022-07-31T13:24:10Z</time>
      </trkpt>
      <trkpt lat="42.76175" lon="-0.33622">
        <time>2022-07-31T13:24:11Z</time>
      </trkpt>
      <trkpt lat="42.76168" lon="-0.33607">
        <time>2022-07-31T13:24:12Z</time>
      </trkpt>
      <trkpt lat="42.76161" lon="-0.33591">
        <time>2022-07-31T13:24:13Z</time>
      </trkpt>
      <trkpt lat="42.76155" lon="-0.33574">
        <time>2022-07-31T13:24:14Z</time>
      </trkpt>
      <trkpt lat="42.76148" lon="-0.33558">
        <time>2022-07-31T13:24:15Z</time>
      </trkpt>
      <trkpt lat="42.76141" lon="-0.33541">
        <time>2022-07-31T13:24:16Z</time>
      </trkpt>
      <trkpt lat="42.76135" lon="-0.33525">
        <time>2022-07-31T13:24:17Z</time>
      </trkpt>
      <trkpt lat="42.76128" lon="-0.3351">
        <time>2022-07-31T13:24:18Z</time>
      </trkpt>
      <trkpt lat="42.76122" lon="-0.33495">
        <time>2022-07-31T13:24:19Z</time>
      </trkpt>
      <trkpt lat="42.76116" lon="-0.33481">
        <time>2022-07-31T13:24:20Z</time>
      </trkpt>
      <trkpt lat="42.7611" lon="-0.33465">
        <time>2022-07-31T13:24:21Z</time>
      </trkpt>
      <trkpt lat="42.76103" lon="-0.3345">
        <time>2022-07-31T13:24:22Z</time>
      </trkpt>
      <trkpt lat="42.76097" lon="-0.33434">
        <time>2022-07-31T13:24:23Z</time>
      </trkpt>
      <trkpt lat="42.76091" lon="-0.33419">
        <time>2022-07-31T13:24:24Z</time>
      </trkpt>
      <trkpt lat="42.76085" lon="-0.33404">
        <time>2022-07-31T13:24:25Z</time>
      </trkpt>
      <trkpt lat="42.76078" lon="-0.33388">
        <time>2022-07-31T13:24:26Z</time>
      </trkpt>
      <trkpt lat="42.76072" lon="-0.33372">
        <time>2022-07-31T13:24:27Z</time>
      </trkpt>
      <trkpt lat="42.76066" lon="-0.33356">
        <time>2022-07-31T13:24:28Z</time>
      </trkpt>
      <trkpt lat="42.7606" lon="-0.33343">
        <time>2022-07-31T13:24:29Z</time>
      </trkpt>
      <trkpt lat="42.76054" lon="-0.33328">
        <time>2022-07-31T13:24:30Z</time>
      </trkpt>
      <trkpt lat="42.76049" lon="-0.33314">
        <time>2022-07-31T13:24:31Z</time>
      </trkpt>
      <trkpt lat="42.76044" lon="-0.33299">
        <time>2022-07-31T13:24:32Z</time>
      </trkpt>
      <trkpt lat="42.76038" lon="-0.33283">
        <time>2022-07-31T13:24:33Z</time>
      </trkpt>
      <trkpt lat="42.76033" lon="-0.33267">
        <time>2022-07-31T13:24:34Z</time>
      </trkpt>
      <trkpt lat="42.76028" lon="-0.3325">
        <time>2022-07-31T13:24:35Z</time>
      </trkpt>
      <trkpt lat="42.76022" lon="-0.33229">
        <time>2022-07-31T13:24:36Z</time>
      </trkpt>
      <trkpt lat="42.76015" lon="-0.33207">
        <time>2022-07-31T13:24:37Z</time>
      </trkpt>
      <trkpt lat="42.76006" lon="-0.33181">
        <time>2022-07-31T13:24:38Z</time>
      </trkpt>
      <trkpt lat="42.75999" lon="-0.33154">
        <time>2022-07-31T13:24:39Z</time>
      </trkpt>
      <trkpt lat="42.75989" lon="-0.33125">
        <time>2022-07-31T13:24:40Z</time>
      </trkpt>
      <trkpt lat="42.7598" lon="-0.33094">
        <time>2022-07-31T13:24:41Z</time>
      </trkpt>
      <trkpt lat="42.7597" lon="-0.33064">
        <time>2022-07-31T13:24:42Z</time>
      </trkpt>
      <trkpt lat="42.7596" lon="-0.33034">
        <time>2022-07-31T13:24:43Z</time>
      </trkpt>
      <trkpt lat="42.7595" lon="-0.33005">
        <time>2022-07-31T13:24:44Z</time>
      </trkpt>
      <trkpt lat="42.75941" lon="-0.32978">
        <time>2022-07-31T13:24:45Z</time>
      </trkpt>
      <trkpt lat="42.75933" lon="-0.32952">
        <time>2022-07-31T13:24:46Z</time>
      </trkpt>
      <trkpt lat="42.75925" lon="-0.32928">
        <time>2022-07-31T13:24:47Z</time>
      </trkpt>
      <trkpt lat="42.75918" lon="-0.32904">
        <time>2022-07-31T13:24:48Z</time>
      </trkpt>
      <trkpt lat="42.75911" lon="-0.32882">
        <time>2022-07-31T13:24:49Z</time>
      </trkpt>
      <trkpt lat="42.75905" lon="-0.32861">
        <time>2022-07-31T13:24:50Z</time>
      </trkpt>
      <trkpt lat="42.75898" lon="-0.3284">
        <time>2022-07-31T13:24:51Z</time>
      </trkpt>
      <trkpt lat="42.75892" lon="-0.3282">
        <time>2022-07-31T13:24:52Z</time>
      </trkpt>
      <trkpt lat="42.75886" lon="-0.328">
        <time>2022-07-31T13:24:53Z</time>
      </trkpt>
      <trkpt lat="42.7588" lon="-0.3278">
        <time>2022-07-31T13:24:54Z</time>
      </trkpt>
      <trkpt lat="42.75876" lon="-0.32761">
        <time>2022-07-31T13:24:55Z</time>
      </trkpt>
      <trkpt lat="42.75872" lon="-0.32741">
        <time>2022-07-31T13:24:56Z</time>
      </trkpt>
      <trkpt lat="42.75869" lon="-0.32723">
        <time>2022-07-31T13:24:57Z</time>
      </trkpt>
      <trkpt lat="42.75867" lon="-0.32704">
        <time>2022-07-31T13:24:58Z</time>
      </trkpt>
      <trkpt lat="42.75868" lon="-0.32686">
        <time>2022-07-31T13:24:59Z</time>
      </trkpt>
      <trkpt lat="42.75871" lon="-0.32667">
        <time>2022-07-31T13:25:00Z</time>
      </trkpt>
      <trkpt lat="42.75877" lon="-0.32647">
        <time>2022-07-31T13:25:01Z</time>
      </trkpt>
      <trkpt lat="42.75884" lon="-0.32622">
        <time>2022-07-31T13:25:02Z</time>
      </trkpt>
      <trkpt lat="42.75891" lon="-0.32596">
        <time>2022-07-31T13:25:03Z</time>
      </trkpt>
      <trkpt lat="42.75897" lon="-0.32569">
        <time>2022-07-31T13:25:04Z</time>
      </trkpt>
      <trkpt lat="42.75904" lon="-0.32543">
        <time>2022-07-31T13:25:05Z</time>
      </trkpt>
      <trkpt lat="42.75912" lon="-0.32518">
        <time>2022-07-31T13:25:06Z</time>
      </trkpt>
      <trkpt lat="42.75919" lon="-0.32495">
        <time>2022-07-31T13:25:07Z</time>
      </trkpt>
      <trkpt lat="42.75925" lon="-0.32472">
        <time>2022-07-31T13:25:08Z</time>
      </trkpt>
      <trkpt lat="42.75931" lon="-0.32451">
        <time>2022-07-31T13:25:09Z</time>
      </trkpt>
      <trkpt lat="42.75935" lon="-0.32429">
        <time>2022-07-31T13:25:10Z</time>
      </trkpt>
      <trkpt lat="42.75937" lon="-0.32408">
        <time>2022-07-31T13:25:11Z</time>
      </trkpt>
      <trkpt lat="42.75937" lon="-0.32387">
        <time>2022-07-31T13:25:12Z</time>
      </trkpt>
      <trkpt lat="42.75934" lon="-0.32367">
        <time>2022-07-31T13:25:13Z</time>
      </trkpt>
      <trkpt lat="42.75928" lon="-0.32346">
        <time>2022-07-31T13:25:14Z</time>
      </trkpt>
      <trkpt lat="42.7592" lon="-0.32324">
        <time>2022-07-31T13:25:15Z</time>
      </trkpt>
      <trkpt lat="42.75909" lon="-0.32302">
        <time>2022-07-31T13:25:16Z</time>
      </trkpt>
      <trkpt lat="42.75897" lon="-0.32281">
        <time>2022-07-31T13:25:17Z</time>
      </trkpt>
      <trkpt lat="42.75884" lon="-0.32259">
        <time>2022-07-31T13:25:18Z</time>
      </trkpt>
      <trkpt lat="42.75872" lon="-0.32238">
        <time>2022-07-31T13:25:19Z</time>
      </trkpt>
      <trkpt lat="42.75859" lon="-0.32217">
        <time>2022-07-31T13:25:20Z</time>
      </trkpt>
      <trkpt lat="42.75847" lon="-0.32197">
        <time>2022-07-31T13:25:21Z</time>
      </trkpt>
      <trkpt lat="42.75836" lon="-0.32177">
        <time>2022-07-31T13:25:22Z</time>
      </trkpt>
      <trkpt lat="42.75825" lon="-0.32159">
        <time>2022-07-31T13:25:23Z</time>
      </trkpt>
      <trkpt lat="42.75813" lon="-0.32144">
        <time>2022-07-31T13:25:24Z</time>
      </trkpt>
      <trkpt lat="42.75801" lon="-0.32128">
        <time>2022-07-31T13:25:25Z</time>
      </trkpt>
      <trkpt lat="42.75787" lon="-0.32115">
        <time>2022-07-31T13:25:26Z</time>
      </trkpt>
      <trkpt lat="42.75769" lon="-0.32104">
        <time>2022-07-31T13:25:27Z</time>
      </trkpt>
      <trkpt lat="42.75752" lon="-0.32093">
        <time>2022-07-31T13:25:28Z</time>
      </trkpt>
      <trkpt lat="42.75734" lon="-0.32082">
        <time>2022-07-31T13:25:29Z</time>
      </trkpt>
      <trkpt lat="42.75716" lon="-0.3207">
        <time>2022-07-31T13:25:30Z</time>
      </trkpt>
      <trkpt lat="42.75698" lon="-0.3206">
        <time>2022-07-31T13:25:31Z</time>
      </trkpt>
      <trkpt lat="42.75678" lon="-0.32052">
        <time>2022-07-31T13:25:32Z</time>
      </trkpt>
      <trkpt lat="42.75657" lon="-0.32045">
        <time>2022-07-31T13:25:33Z</time>
      </trkpt>
      <trkpt lat="42.75636" lon="-0.3204">
        <time>2022-07-31T13:25:34Z</time>
      </trkpt>
      <trkpt lat="42.75614" lon="-0.32034">
        <time>2022-07-31T13:25:35Z</time>
      </trkpt>
      <trkpt lat="42.75593" lon="-0.32028">
        <time>2022-07-31T13:25:36Z</time>
      </trkpt>
      <trkpt lat="42.75572" lon="-0.32023">
        <time>2022-07-31T13:25:37Z</time>
      </trkpt>
      <trkpt lat="42.75551" lon="-0.32018">
        <time>2022-07-31T13:25:38Z</time>
      </trkpt>
      <trkpt lat="42.75531" lon="-0.32013">
        <time>2022-07-31T13:25:39Z</time>
      </trkpt>
      <trkpt lat="42.75511" lon="-0.32007">
        <time>2022-07-31T13:25:40Z</time>
      </trkpt>
      <trkpt lat="42.75492" lon="-0.32002">
        <time>2022-07-31T13:25:41Z</time>
      </trkpt>
      <trkpt lat="42.75474" lon="-0.31995">
        <time>2022-07-31T13:25:42Z</time>
      </trkpt>
      <trkpt lat="42.75457" lon="-0.31989">
        <time>2022-07-31T13:25:43Z</time>
      </trkpt>
      <trkpt lat="42.75441" lon="-0.31982">
        <time>2022-07-31T13:25:44Z</time>
      </trkpt>
      <trkpt lat="42.75426" lon="-0.31972">
        <time>2022-07-31T13:25:45Z</time>
      </trkpt>
      <trkpt lat="42.75412" lon="-0.3196">
        <time>2022-07-31T13:25:46Z</time>
      </trkpt>
      <trkpt lat="42.75398" lon="-0.31944">
        <time>2022-07-31T13:25:47Z</time>
      </trkpt>
      <trkpt lat="42.75385" lon="-0.31927">
        <time>2022-07-31T13:25:48Z</time>
      </trkpt>
      <trkpt lat="42.75371" lon="-0.31909">
        <time>2022-07-31T13:25:49Z</time>
      </trkpt>
      <trkpt lat="42.75356" lon="-0.3189">
        <time>2022-07-31T13:25:50Z</time>
      </trkpt>
      <trkpt lat="42.7534" lon="-0.31873">
        <time>2022-07-31T13:25:51Z</time>
      </trkpt>
      <trkpt lat="42.75323" lon="-0.31857">
        <time>2022-07-31T13:25:52Z</time>
      </trkpt>
      <trkpt lat="42.75307" lon="-0.31841">
        <time>2022-07-31T13:25:53Z</time>
      </trkpt>
      <trkpt lat="42.7529" lon="-0.31825">
        <time>2022-07-31T13:25:54Z</time>
      </trkpt>
      <trkpt lat="42.75275" lon="-0.31809">
        <time>2022-07-31T13:25:55Z</time>
      </trkpt>
      <trkpt lat="42.75258" lon="-0.31793">
        <time>2022-07-31T13:25:56Z</time>
      </trkpt>
      <trkpt lat="42.75242" lon="-0.31777">
        <time>2022-07-31T13:25:57Z</time>
      </trkpt>
      <trkpt lat="42.75225" lon="-0.31763">
        <time>2022-07-31T13:25:58Z</time>
      </trkpt>
      <trkpt lat="42.75208" lon="-0.31748">
        <time>2022-07-31T13:25:59Z</time>
      </trkpt>
      <trkpt lat="42.7519" lon="-0.31735">
        <time>2022-07-31T13:26:00Z</time>
      </trkpt>
      <trkpt lat="42.75173" lon="-0.31723">
        <time>2022-07-31T13:26:01Z</time>
      </trkpt>
      <trkpt lat="42.75156" lon="-0.3171">
        <time>2022-07-31T13:26:02Z</time>
      </trkpt>
      <trkpt lat="42.7514" lon="-0.31697">
        <time>2022-07-31T13:26:03Z</time>
      </trkpt>
      <trkpt lat="42.75123" lon="-0.31685">
        <time>2022-07-31T13:26:04Z</time>
      </trkpt>
      <trkpt lat="42.75107" lon="-0.31671">
        <time>2022-07-31T13:26:05Z</time>
      </trkpt>
      <trkpt lat="42.75092" lon="-0.31657">
        <time>2022-07-31T13:26:06Z</time>
      </trkpt>
      <trkpt lat="42.75078" lon="-0.31641">
        <time>2022-07-31T13:26:07Z</time>
      </trkpt>
      <trkpt lat="42.75066" lon="-0.31627">
        <time>2022-07-31T13:26:08Z</time>
      </trkpt>
      <trkpt lat="42.75054" lon="-0.31614">
        <time>2022-07-31T13:26:09Z</time>
      </trkpt>
      <trkpt lat="42.75043" lon="-0.31601">
        <time>2022-07-31T13:26:10Z</time>
      </trkpt>
      <trkpt lat="42.75033" lon="-0.3159">
        <time>2022-07-31T13:26:11Z</time>
      </trkpt>
      <trkpt lat="42.75023" lon="-0.31581">
        <time>2022-07-31T13:26:12Z</time>
      </trkpt>
      <trkpt lat="42.75013" lon="-0.31575">
        <time>2022-07-31T13:26:13Z</time>
      </trkpt>
      <trkpt lat="42.75001" lon="-0.31574">
        <time>2022-07-31T13:26:14Z</time>
      </trkpt>
      <trkpt lat="42.74987" lon="-0.31577">
        <time>2022-07-31T13:26:15Z</time>
      </trkpt>
      <trkpt lat="42.74973" lon="-0.31583">
        <time>2022-07-31T13:26:16Z</time>
      </trkpt>
      <trkpt lat="42.74959" lon="-0.31595">
        <time>2022-07-31T13:26:17Z</time>
      </trkpt>
      <trkpt lat="42.74944" lon="-0.31605">
        <time>2022-07-31T13:26:18Z</time>
      </trkpt>
      <trkpt lat="42.74929" lon="-0.31615">
        <time>2022-07-31T13:26:19Z</time>
      </trkpt>
      <trkpt lat="42.74914" lon="-0.31627">
        <time>2022-07-31T13:26:20Z</time>
      </trkpt>
      <trkpt lat="42.74899" lon="-0.3164">
        <time>2022-07-31T13:26:21Z</time>
      </trkpt>
      <trkpt lat="42.74884" lon="-0.31654">
        <time>2022-07-31T13:26:22Z</time>
      </trkpt>
      <trkpt lat="42.7487" lon="-0.31668">
        <time>2022-07-31T13:26:23Z</time>
      </trkpt>
      <trkpt lat="42.74856" lon="-0.31682">
        <time>2022-07-31T13:26:24Z</time>
      </trkpt>
      <trkpt lat="42.74842" lon="-0.31694">
        <time>2022-07-31T13:26:25Z</time>
      </trkpt>
      <trkpt lat="42.74827" lon="-0.31705">
        <time>2022-07-31T13:26:26Z</time>
      </trkpt>
      <trkpt lat="42.74809" lon="-0.31714">
        <time>2022-07-31T13:26:27Z</time>
      </trkpt>
      <trkpt lat="42.74791" lon="-0.31723">
        <time>2022-07-31T13:26:28Z</time>
      </trkpt>
      <trkpt lat="42.74774" lon="-0.31728">
        <time>2022-07-31T13:26:29Z</time>
      </trkpt>
      <trkpt lat="42.74756" lon="-0.31731">
        <time>2022-07-31T13:26:30Z</time>
      </trkpt>
      <trkpt lat="42.74739" lon="-0.3173">
        <time>2022-07-31T13:26:31Z</time>
      </trkpt>
      <trkpt lat="42.74723" lon="-0.31723">
        <time>2022-07-31T13:26:32Z</time>
      </trkpt>
      <trkpt lat="42.74706" lon="-0.31712">
        <time>2022-07-31T13:26:33Z</time>
      </trkpt>
      <trkpt lat="42.74689" lon="-0.317">
        <time>2022-07-31T13:26:34Z</time>
      </trkpt>
      <trkpt lat="42.74671" lon="-0.31687">
        <time>2022-07-31T13:26:35Z</time>
      </trkpt>
      <trkpt lat="42.74654" lon="-0.31674">
        <time>2022-07-31T13:26:36Z</time>
      </trkpt>
      <trkpt lat="42.74636" lon="-0.3166">
        <time>2022-07-31T13:26:37Z</time>
      </trkpt>
      <trkpt lat="42.74619" lon="-0.31647">
        <time>2022-07-31T13:26:38Z</time>
      </trkpt>
      <trkpt lat="42.74602" lon="-0.31634">
        <time>2022-07-31T13:26:39Z</time>
      </trkpt>
      <trkpt lat="42.74586" lon="-0.31621">
        <time>2022-07-31T13:26:40Z</time>
      </trkpt>
      <trkpt lat="42.7457" lon="-0.31609">
        <time>2022-07-31T13:26:41Z</time>
      </trkpt>
      <trkpt lat="42.74555" lon="-0.31597">
        <time>2022-07-31T13:26:42Z</time>
      </trkpt>
      <trkpt lat="42.7454" lon="-0.31585">
        <time>2022-07-31T13:26:43Z</time>
      </trkpt>
      <trkpt lat="42.74525" lon="-0.31575">
        <time>2022-07-31T13:26:44Z</time>
      </trkpt>
      <trkpt lat="42.74508" lon="-0.31571">
        <time>2022-07-31T13:26:45Z</time>
      </trkpt>
      <trkpt lat="42.74492" lon="-0.31567">
        <time>2022-07-31T13:26:46Z</time>
      </trkpt>
      <trkpt lat="42.74475" lon="-0.31572">
        <time>2022-07-31T13:26:47Z</time>
      </trkpt>
      <trkpt lat="42.74457" lon="-0.31574">
        <time>2022-07-31T13:26:48Z</time>
      </trkpt>
      <trkpt lat="42.74439" lon="-0.31574">
        <time>2022-07-31T13:26:49Z</time>
      </trkpt>
      <trkpt lat="42.7442" lon="-0.31574">
        <time>2022-07-31T13:26:50Z</time>
      </trkpt>
      <trkpt lat="42.74401" lon="-0.31573">
        <time>2022-07-31T13:26:51Z</time>
      </trkpt>
      <trkpt lat="42.74382" lon="-0.31569">
        <time>2022-07-31T13:26:52Z</time>
      </trkpt>
      <trkpt lat="42.74364" lon="-0.31562">
        <time>2022-07-31T13:26:53Z</time>
      </trkpt>
      <trkpt lat="42.74346" lon="-0.31552">
        <time>2022-07-31T13:26:54Z</time>
      </trkpt>
      <trkpt lat="42.74329" lon="-0.3154">
        <time>2022-07-31T13:26:55Z</time>
      </trkpt>
      <trkpt lat="42.74314" lon="-0.31528">
        <time>2022-07-31T13:26:56Z</time>
      </trkpt>
      <trkpt lat="42.74299" lon="-0.31518">
        <time>2022-07-31T13:26:57Z</time>
      </trkpt>
      <trkpt lat="42.74283" lon="-0.31509">
        <time>2022-07-31T13:26:58Z</time>
      </trkpt>
      <trkpt lat="42.74268" lon="-0.31505">
        <time>2022-07-31T13:26:59Z</time>
      </trkpt>
      <trkpt lat="42.74254" lon="-0.31505">
        <time>2022-07-31T13:27:00Z</time>
      </trkpt>
      <trkpt lat="42.74239" lon="-0.31507">
        <time>2022-07-31T13:27:01Z</time>
      </trkpt>
      <trkpt lat="42.74225" lon="-0.3151">
        <time>2022-07-31T13:27:02Z</time>
      </trkpt>
      <trkpt lat="42.74211" lon="-0.31515">
        <time>2022-07-31T13:27:03Z</time>
      </trkpt>
      <trkpt lat="42.73796" lon="-0.3179">
        <time>2022-07-31T13:27:29Z</time>
      </trkpt>
      <trkpt lat="42.73775" lon="-0.3178">
        <time>2022-07-31T13:27:30Z</time>
      </trkpt>
      <trkpt lat="42.73759" lon="-0.31769">
        <time>2022-07-31T13:27:31Z</time>
      </trkpt>
      <trkpt lat="42.73746" lon="-0.31756">
        <time>2022-07-31T13:27:32Z</time>
      </trkpt>
      <trkpt lat="42.73737" lon="-0.3174">
        <time>2022-07-31T13:27:33Z</time>
      </trkpt>
      <trkpt lat="42.73735" lon="-0.31722">
        <time>2022-07-31T13:27:34Z</time>
      </trkpt>
      <trkpt lat="42.73733" lon="-0.31703">
        <time>2022-07-31T13:27:35Z</time>
      </trkpt>
      <trkpt lat="42.7373" lon="-0.31684">
        <time>2022-07-31T13:27:36Z</time>
      </trkpt>
      <trkpt lat="42.73726" lon="-0.31666">
        <time>2022-07-31T13:27:37Z</time>
      </trkpt>
      <trkpt lat="42.73725" lon="-0.31648">
        <time>2022-07-31T13:27:38Z</time>
      </trkpt>
      <trkpt lat="42.73722" lon="-0.31632">
        <time>2022-07-31T13:27:39Z</time>
      </trkpt>
      <trkpt lat="42.73716" lon="-0.31617">
        <time>2022-07-31T13:27:40Z</time>
      </trkpt>
      <trkpt lat="42.7371" lon="-0.31603">
        <time>2022-07-31T13:27:41Z</time>
      </trkpt>
      <trkpt lat="42.73702" lon="-0.31589">
        <time>2022-07-31T13:27:42Z</time>
      </trkpt>
      <trkpt lat="42.73695" lon="-0.31575">
        <time>2022-07-31T13:27:43Z</time>
      </trkpt>
      <trkpt lat="42.73686" lon="-0.31571">
        <time>2022-07-31T13:27:44Z</time>
      </trkpt>
      <trkpt lat="42.73678" lon="-0.31559">
        <time>2022-07-31T13:27:45Z</time>
      </trkpt>
      <trkpt lat="42.7367" lon="-0.31545">
        <time>2022-07-31T13:27:46Z</time>
      </trkpt>
      <trkpt lat="42.73662" lon="-0.31532">
        <time>2022-07-31T13:27:47Z</time>
      </trkpt>
      <trkpt lat="42.73654" lon="-0.31518">
        <time>2022-07-31T13:27:48Z</time>
      </trkpt>
      <trkpt lat="42.73646" lon="-0.31507">
        <time>2022-07-31T13:27:49Z</time>
      </trkpt>
      <trkpt lat="42.73638" lon="-0.31493">
        <time>2022-07-31T13:27:50Z</time>
      </trkpt>
      <trkpt lat="42.73631" lon="-0.31478">
        <time>2022-07-31T13:27:51Z</time>
      </trkpt>
      <trkpt lat="42.73623" lon="-0.31465">
        <time>2022-07-31T13:27:52Z</time>
      </trkpt>
      <trkpt lat="42.73616" lon="-0.31451">
        <time>2022-07-31T13:27:53Z</time>
      </trkpt>
      <trkpt lat="42.73608" lon="-0.31436">
        <time>2022-07-31T13:27:54Z</time>
      </trkpt>
      <trkpt lat="42.73601" lon="-0.31421">
        <time>2022-07-31T13:27:55Z</time>
      </trkpt>
      <trkpt lat="42.73595" lon="-0.31407">
        <time>2022-07-31T13:27:56Z</time>
      </trkpt>
      <trkpt lat="42.7359" lon="-0.31393">
        <time>2022-07-31T13:27:57Z</time>
      </trkpt>
      <trkpt lat="42.73586" lon="-0.31377">
        <time>2022-07-31T13:27:58Z</time>
      </trkpt>
      <trkpt lat="42.73583" lon="-0.31359">
        <time>2022-07-31T13:27:59Z</time>
      </trkpt>
      <trkpt lat="42.7358" lon="-0.31342">
        <time>2022-07-31T13:28:00Z</time>
      </trkpt>
      <trkpt lat="42.73576" lon="-0.31325">
        <time>2022-07-31T13:28:01Z</time>
      </trkpt>
      <trkpt lat="42.73573" lon="-0.31308">
        <time>2022-07-31T13:28:02Z</time>
      </trkpt>
      <trkpt lat="42.73569" lon="-0.31291">
        <time>2022-07-31T13:28:03Z</time>
      </trkpt>
      <trkpt lat="42.73565" lon="-0.31274">
        <time>2022-07-31T13:28:04Z</time>
      </trkpt>
      <trkpt lat="42.73559" lon="-0.31259">
        <time>2022-07-31T13:28:05Z</time>
      </trkpt>
      <trkpt lat="42.73552" lon="-0.31245">
        <time>2022-07-31T13:28:06Z</time>
      </trkpt>
      <trkpt lat="42.73542" lon="-0.31233">
        <time>2022-07-31T13:28:07Z</time>
      </trkpt>
      <trkpt lat="42.73531" lon="-0.31223">
        <time>2022-07-31T13:28:08Z</time>
      </trkpt>
      <trkpt lat="42.73519" lon="-0.31216">
        <time>2022-07-31T13:28:09Z</time>
      </trkpt>
      <trkpt lat="42.73506" lon="-0.31212">
        <time>2022-07-31T13:28:10Z</time>
      </trkpt>
      <trkpt lat="42.73493" lon="-0.3121">
        <time>2022-07-31T13:28:11Z</time>
      </trkpt>
      <trkpt lat="42.7348" lon="-0.3121">
        <time>2022-07-31T13:28:12Z</time>
      </trkpt>
      <trkpt lat="42.73466" lon="-0.31212">
        <time>2022-07-31T13:28:13Z</time>
      </trkpt>
      <trkpt lat="42.73453" lon="-0.31214">
        <time>2022-07-31T13:28:14Z</time>
      </trkpt>
      <trkpt lat="42.73439" lon="-0.31215">
        <time>2022-07-31T13:28:15Z</time>
      </trkpt>
      <trkpt lat="42.73426" lon="-0.31216">
        <time>2022-07-31T13:28:16Z</time>
      </trkpt>
      <trkpt lat="42.73413" lon="-0.31217">
        <time>2022-07-31T13:28:17Z</time>
      </trkpt>
      <trkpt lat="42.734" lon="-0.31216">
        <time>2022-07-31T13:28:18Z</time>
      </trkpt>
      <trkpt lat="42.73386" lon="-0.31213">
        <time>2022-07-31T13:28:19Z</time>
      </trkpt>
      <trkpt lat="42.73373" lon="-0.3121">
        <time>2022-07-31T13:28:20Z</time>
      </trkpt>
      <trkpt lat="42.7336" lon="-0.31206">
        <time>2022-07-31T13:28:21Z</time>
      </trkpt>
      <trkpt lat="42.73347" lon="-0.31202">
        <time>2022-07-31T13:28:22Z</time>
      </trkpt>
      <trkpt lat="42.73335" lon="-0.31198">
        <time>2022-07-31T13:28:23Z</time>
      </trkpt>
      <trkpt lat="42.73323" lon="-0.31192">
        <time>2022-07-31T13:28:24Z</time>
      </trkpt>
      <trkpt lat="42.73311" lon="-0.31187">
        <time>2022-07-31T13:28:25Z</time>
      </trkpt>
      <trkpt lat="42.73301" lon="-0.3118">
        <time>2022-07-31T13:28:26Z</time>
      </trkpt>
      <trkpt lat="42.73289" lon="-0.31173">
        <time>2022-07-31T13:28:27Z</time>
      </trkpt>
      <trkpt lat="42.73278" lon="-0.31164">
        <time>2022-07-31T13:28:28Z</time>
      </trkpt>
      <trkpt lat="42.73266" lon="-0.31155">
        <time>2022-07-31T13:28:29Z</time>
      </trkpt>
      <trkpt lat="42.73253" lon="-0.31146">
        <time>2022-07-31T13:28:30Z</time>
      </trkpt>
      <trkpt lat="42.73239" lon="-0.31136">
        <time>2022-07-31T13:28:31Z</time>
      </trkpt>
      <trkpt lat="42.73225" lon="-0.31127">
        <time>2022-07-31T13:28:32Z</time>
      </trkpt>
      <trkpt lat="42.73211" lon="-0.31117">
        <time>2022-07-31T13:28:33Z</time>
      </trkpt>
      <trkpt lat="42.73197" lon="-0.31107">
        <time>2022-07-31T13:28:34Z</time>
      </trkpt>
      <trkpt lat="42.73182" lon="-0.31097">
        <time>2022-07-31T13:28:35Z</time>
      </trkpt>
      <trkpt lat="42.73167" lon="-0.31086">
        <time>2022-07-31T13:28:36Z</time>
      </trkpt>
      <trkpt lat="42.7315" lon="-0.31074">
        <time>2022-07-31T13:28:37Z</time>
      </trkpt>
      <trkpt lat="42.73133" lon="-0.31061">
        <time>2022-07-31T13:28:38Z</time>
      </trkpt>
      <trkpt lat="42.73117" lon="-0.31049">
        <time>2022-07-31T13:28:39Z</time>
      </trkpt>
      <trkpt lat="42.73101" lon="-0.31036">
        <time>2022-07-31T13:28:40Z</time>
      </trkpt>
      <trkpt lat="42.73086" lon="-0.31023">
        <time>2022-07-31T13:28:41Z</time>
      </trkpt>
      <trkpt lat="42.73073" lon="-0.3101">
        <time>2022-07-31T13:28:42Z</time>
      </trkpt>
      <trkpt lat="42.7306" lon="-0.30997">
        <time>2022-07-31T13:28:43Z</time>
      </trkpt>
      <trkpt lat="42.73048" lon="-0.30984">
        <time>2022-07-31T13:28:44Z</time>
      </trkpt>
      <trkpt lat="42.73036" lon="-0.30973">
        <time>2022-07-31T13:28:45Z</time>
      </trkpt>
      <trkpt lat="42.73024" lon="-0.30963">
        <time>2022-07-31T13:28:46Z</time>
      </trkpt>
      <trkpt lat="42.73012" lon="-0.30954">
        <time>2022-07-31T13:28:47Z</time>
      </trkpt>
      <trkpt lat="42.72998" lon="-0.3095">
        <time>2022-07-31T13:28:48Z</time>
      </trkpt>
      <trkpt lat="42.72985" lon="-0.30947">
        <time>2022-07-31T13:28:49Z</time>
      </trkpt>
      <trkpt lat="42.7297" lon="-0.30947">
        <time>2022-07-31T13:28:50Z</time>
      </trkpt>
      <trkpt lat="42.72955" lon="-0.3095">
        <time>2022-07-31T13:28:51Z</time>
      </trkpt>
      <trkpt lat="42.72941" lon="-0.30953">
        <time>2022-07-31T13:28:52Z</time>
      </trkpt>
      <trkpt lat="42.72926" lon="-0.30955">
        <time>2022-07-31T13:28:53Z</time>
      </trkpt>
      <trkpt lat="42.72912" lon="-0.30955">
        <time>2022-07-31T13:28:54Z</time>
      </trkpt>
      <trkpt lat="42.72899" lon="-0.30952">
        <time>2022-07-31T13:28:55Z</time>
      </trkpt>
      <trkpt lat="42.72886" lon="-0.30946">
        <time>2022-07-31T13:28:56Z</time>
      </trkpt>
      <trkpt lat="42.72874" lon="-0.30937">
        <time>2022-07-31T13:28:57Z</time>
      </trkpt>
      <trkpt lat="42.72863" lon="-0.30927">
        <time>2022-07-31T13:28:58Z</time>
      </trkpt>
      <trkpt lat="42.72853" lon="-0.30914">
        <time>2022-07-31T13:28:59Z</time>
      </trkpt>
      <trkpt lat="42.72844" lon="-0.30899">
        <time>2022-07-31T13:29:00Z</time>
      </trkpt>
      <trkpt lat="42.72836" lon="-0.30883">
        <time>2022-07-31T13:29:01Z</time>
      </trkpt>
      <trkpt lat="42.72827" lon="-0.30866">
        <time>2022-07-31T13:29:02Z</time>
      </trkpt>
      <trkpt lat="42.72819" lon="-0.30849">
        <time>2022-07-31T13:29:03Z</time>
      </trkpt>
      <trkpt lat="42.72811" lon="-0.30832">
        <time>2022-07-31T13:29:04Z</time>
      </trkpt>
      <trkpt lat="42.72803" lon="-0.30816">
        <time>2022-07-31T13:29:05Z</time>
      </trkpt>
      <trkpt lat="42.72794" lon="-0.30802">
        <time>2022-07-31T13:29:06Z</time>
      </trkpt>
      <trkpt lat="42.72785" lon="-0.30789">
        <time>2022-07-31T13:29:07Z</time>
      </trkpt>
      <trkpt lat="42.72774" lon="-0.30775">
        <time>2022-07-31T13:29:08Z</time>
      </trkpt>
      <trkpt lat="42.72761" lon="-0.30765">
        <time>2022-07-31T13:29:09Z</time>
      </trkpt>
      <trkpt lat="42.72747" lon="-0.30756">
        <time>2022-07-31T13:29:10Z</time>
      </trkpt>
      <trkpt lat="42.72733" lon="-0.30748">
        <time>2022-07-31T13:29:11Z</time>
      </trkpt>
      <trkpt lat="42.72717" lon="-0.30742">
        <time>2022-07-31T13:29:12Z</time>
      </trkpt>
      <trkpt lat="42.72702" lon="-0.30735">
        <time>2022-07-31T13:29:13Z</time>
      </trkpt>
      <trkpt lat="42.72686" lon="-0.30729">
        <time>2022-07-31T13:29:14Z</time>
      </trkpt>
      <trkpt lat="42.7267" lon="-0.30723">
        <time>2022-07-31T13:29:15Z</time>
      </trkpt>
      <trkpt lat="42.72654" lon="-0.30717">
        <time>2022-07-31T13:29:16Z</time>
      </trkpt>
      <trkpt lat="42.72638" lon="-0.30712">
        <time>2022-07-31T13:29:17Z</time>
      </trkpt>
      <trkpt lat="42.72622" lon="-0.30708">
        <time>2022-07-31T13:29:18Z</time>
      </trkpt>
      <trkpt lat="42.72607" lon="-0.30705">
        <time>2022-07-31T13:29:19Z</time>
      </trkpt>
      <trkpt lat="42.72593" lon="-0.30703">
        <time>2022-07-31T13:29:20Z</time>
      </trkpt>
      <trkpt lat="42.7258" lon="-0.30701">
        <time>2022-07-31T13:29:21Z</time>
      </trkpt>
      <trkpt lat="42.72567" lon="-0.30699">
        <time>2022-07-31T13:29:22Z</time>
      </trkpt>
      <trkpt lat="42.72555" lon="-0.30697">
        <time>2022-07-31T13:29:23Z</time>
      </trkpt>
      <trkpt lat="42.72543" lon="-0.30695">
        <time>2022-07-31T13:29:24Z</time>
      </trkpt>
      <trkpt lat="42.7253" lon="-0.30693">
        <time>2022-07-31T13:29:25Z</time>
      </trkpt>
      <trkpt lat="42.72517" lon="-0.3069">
        <time>2022-07-31T13:29:26Z</time>
      </trkpt>
      <trkpt lat="42.72504" lon="-0.30688">
        <time>2022-07-31T13:29:27Z</time>
      </trkpt>
      <trkpt lat="42.72491" lon="-0.30684">
        <time>2022-07-31T13:29:28Z</time>
      </trkpt>
      <trkpt lat="42.72476" lon="-0.30681">
        <time>2022-07-31T13:29:29Z</time>
      </trkpt>
      <trkpt lat="42.72462" lon="-0.30677">
        <time>2022-07-31T13:29:30Z</time>
      </trkpt>
      <trkpt lat="42.72448" lon="-0.30674">
        <time>2022-07-31T13:29:31Z</time>
      </trkpt>
      <trkpt lat="42.72434" lon="-0.3067">
        <time>2022-07-31T13:29:32Z</time>
      </trkpt>
      <trkpt lat="42.72421" lon="-0.30667">
        <time>2022-07-31T13:29:33Z</time>
      </trkpt>
      <trkpt lat="42.72408" lon="-0.30664">
        <time>2022-07-31T13:29:34Z</time>
      </trkpt>
      <trkpt lat="42.72394" lon="-0.30661">
        <time>2022-07-31T13:29:35Z</time>
      </trkpt>
      <trkpt lat="42.7238" lon="-0.3066">
        <time>2022-07-31T13:29:36Z</time>
      </trkpt>
      <trkpt lat="42.72365" lon="-0.30658">
        <time>2022-07-31T13:29:37Z</time>
      </trkpt>
      <trkpt lat="42.72349" lon="-0.30656">
        <time>2022-07-31T13:29:38Z</time>
      </trkpt>
      <trkpt lat="42.72332" lon="-0.30654">
        <time>2022-07-31T13:29:39Z</time>
      </trkpt>
      <trkpt lat="42.72314" lon="-0.30652">
        <time>2022-07-31T13:29:40Z</time>
      </trkpt>
      <trkpt lat="42.72294" lon="-0.3065">
        <time>2022-07-31T13:29:41Z</time>
      </trkpt>
      <trkpt lat="42.72272" lon="-0.30646">
        <time>2022-07-31T13:29:42Z</time>
      </trkpt>
      <trkpt lat="42.72249" lon="-0.30642">
        <time>2022-07-31T13:29:43Z</time>
      </trkpt>
      <trkpt lat="42.72223" lon="-0.30639">
        <time>2022-07-31T13:29:44Z</time>
      </trkpt>
      <trkpt lat="42.72196" lon="-0.30636">
        <time>2022-07-31T13:29:45Z</time>
      </trkpt>
      <trkpt lat="42.72167" lon="-0.30633">
        <time>2022-07-31T13:29:46Z</time>
      </trkpt>
      <trkpt lat="42.72137" lon="-0.30629">
        <time>2022-07-31T13:29:47Z</time>
      </trkpt>
      <trkpt lat="42.72107" lon="-0.30626">
        <time>2022-07-31T13:29:48Z</time>
      </trkpt>
      <trkpt lat="42.72079" lon="-0.30624">
        <time>2022-07-31T13:29:49Z</time>
      </trkpt>
      <trkpt lat="42.72051" lon="-0.30622">
        <time>2022-07-31T13:29:50Z</time>
      </trkpt>
      <trkpt lat="42.72024" lon="-0.30621">
        <time>2022-07-31T13:29:51Z</time>
      </trkpt>
      <trkpt lat="42.71999" lon="-0.30619">
        <time>2022-07-31T13:29:52Z</time>
      </trkpt>
      <trkpt lat="42.71974" lon="-0.30618">
        <time>2022-07-31T13:29:53Z</time>
      </trkpt>
      <trkpt lat="42.7195" lon="-0.30615">
        <time>2022-07-31T13:29:54Z</time>
      </trkpt>
      <trkpt lat="42.71928" lon="-0.30613">
        <time>2022-07-31T13:29:55Z</time>
      </trkpt>
      <trkpt lat="42.71906" lon="-0.30613">
        <time>2022-07-31T13:29:56Z</time>
      </trkpt>
      <trkpt lat="42.71885" lon="-0.30613">
        <time>2022-07-31T13:29:57Z</time>
      </trkpt>
      <trkpt lat="42.71864" lon="-0.30617">
        <time>2022-07-31T13:29:58Z</time>
      </trkpt>
      <trkpt lat="42.71843" lon="-0.30622">
        <time>2022-07-31T13:29:59Z</time>
      </trkpt>
      <trkpt lat="42.71824" lon="-0.3063">
        <time>2022-07-31T13:30:00Z</time>
      </trkpt>
      <trkpt lat="42.71804" lon="-0.30639">
        <time>2022-07-31T13:30:01Z</time>
      </trkpt>
      <trkpt lat="42.71784" lon="-0.30652">
        <time>2022-07-31T13:30:02Z</time>
      </trkpt>
      <trkpt lat="42.71765" lon="-0.3067">
        <time>2022-07-31T13:30:03Z</time>
      </trkpt>
      <trkpt lat="42.71747" lon="-0.30689">
        <time>2022-07-31T13:30:04Z</time>
      </trkpt>
      <trkpt lat="42.71731" lon="-0.3071">
        <time>2022-07-31T13:30:05Z</time>
      </trkpt>
      <trkpt lat="42.71714" lon="-0.30732">
        <time>2022-07-31T13:30:06Z</time>
      </trkpt>
      <trkpt lat="42.71698" lon="-0.30755">
        <time>2022-07-31T13:30:07Z</time>
      </trkpt>
      <trkpt lat="42.71683" lon="-0.30778">
        <time>2022-07-31T13:30:08Z</time>
      </trkpt>
      <trkpt lat="42.71667" lon="-0.30799">
        <time>2022-07-31T13:30:09Z</time>
      </trkpt>
      <trkpt lat="42.7165" lon="-0.30819">
        <time>2022-07-31T13:30:10Z</time>
      </trkpt>
      <trkpt lat="42.71632" lon="-0.30836">
        <time>2022-07-31T13:30:11Z</time>
      </trkpt>
      <trkpt lat="42.71612" lon="-0.30852">
        <time>2022-07-31T13:30:12Z</time>
      </trkpt>
      <trkpt lat="42.71592" lon="-0.30867">
        <time>2022-07-31T13:30:13Z</time>
      </trkpt>
      <trkpt lat="42.7157" lon="-0.30882">
        <time>2022-07-31T13:30:14Z</time>
      </trkpt>
      <trkpt lat="42.71549" lon="-0.30897">
        <time>2022-07-31T13:30:15Z</time>
      </trkpt>
      <trkpt lat="42.71529" lon="-0.30911">
        <time>2022-07-31T13:30:16Z</time>
      </trkpt>
      <trkpt lat="42.71508" lon="-0.30925">
        <time>2022-07-31T13:30:17Z</time>
      </trkpt>
      <trkpt lat="42.71489" lon="-0.30939">
        <time>2022-07-31T13:30:18Z</time>
      </trkpt>
      <trkpt lat="42.71471" lon="-0.30951">
        <time>2022-07-31T13:30:19Z</time>
      </trkpt>
      <trkpt lat="42.71453" lon="-0.30963">
        <time>2022-07-31T13:30:20Z</time>
      </trkpt>
      <trkpt lat="42.71437" lon="-0.30978">
        <time>2022-07-31T13:30:21Z</time>
      </trkpt>
      <trkpt lat="42.71422" lon="-0.30995">
        <time>2022-07-31T13:30:22Z</time>
      </trkpt>
      <trkpt lat="42.71409" lon="-0.31015">
        <time>2022-07-31T13:30:23Z</time>
      </trkpt>
      <trkpt lat="42.71398" lon="-0.31035">
        <time>2022-07-31T13:30:24Z</time>
      </trkpt>
      <trkpt lat="42.71388" lon="-0.31054">
        <time>2022-07-31T13:30:25Z</time>
      </trkpt>
      <trkpt lat="42.71376" lon="-0.31072">
        <time>2022-07-31T13:30:26Z</time>
      </trkpt>
      <trkpt lat="42.71363" lon="-0.31087">
        <time>2022-07-31T13:30:27Z</time>
      </trkpt>
      <trkpt lat="42.71348" lon="-0.311">
        <time>2022-07-31T13:30:28Z</time>
      </trkpt>
      <trkpt lat="42.71332" lon="-0.31108">
        <time>2022-07-31T13:30:29Z</time>
      </trkpt>
      <trkpt lat="42.71316" lon="-0.31113">
        <time>2022-07-31T13:30:30Z</time>
      </trkpt>
      <trkpt lat="42.713" lon="-0.31114">
        <time>2022-07-31T13:30:31Z</time>
      </trkpt>
      <trkpt lat="42.71284" lon="-0.31113">
        <time>2022-07-31T13:30:32Z</time>
      </trkpt>
      <trkpt lat="42.71269" lon="-0.31109">
        <time>2022-07-31T13:30:33Z</time>
      </trkpt>
      <trkpt lat="42.71254" lon="-0.31103">
        <time>2022-07-31T13:30:34Z</time>
      </trkpt>
      <trkpt lat="42.7124" lon="-0.31094">
        <time>2022-07-31T13:30:35Z</time>
      </trkpt>
      <trkpt lat="42.71226" lon="-0.31085">
        <time>2022-07-31T13:30:36Z</time>
      </trkpt>
      <trkpt lat="42.71213" lon="-0.31075">
        <time>2022-07-31T13:30:37Z</time>
      </trkpt>
      <trkpt lat="42.712" lon="-0.31066">
        <time>2022-07-31T13:30:38Z</time>
      </trkpt>
      <trkpt lat="42.71187" lon="-0.31057">
        <time>2022-07-31T13:30:39Z</time>
      </trkpt>
      <trkpt lat="42.71173" lon="-0.3105">
        <time>2022-07-31T13:30:40Z</time>
      </trkpt>
      <trkpt lat="42.71161" lon="-0.31043">
        <time>2022-07-31T13:30:41Z</time>
      </trkpt>
      <trkpt lat="42.71148" lon="-0.31039">
        <time>2022-07-31T13:30:42Z</time>
      </trkpt>
      <trkpt lat="42.71135" lon="-0.31035">
        <time>2022-07-31T13:30:43Z</time>
      </trkpt>
      <trkpt lat="42.71121" lon="-0.31033">
        <time>2022-07-31T13:30:44Z</time>
      </trkpt>
      <trkpt lat="42.71108" lon="-0.31032">
        <time>2022-07-31T13:30:45Z</time>
      </trkpt>
      <trkpt lat="42.71094" lon="-0.31031">
        <time>2022-07-31T13:30:46Z</time>
      </trkpt>
      <trkpt lat="42.7108" lon="-0.31033">
        <time>2022-07-31T13:30:47Z</time>
      </trkpt>
      <trkpt lat="42.71066" lon="-0.31035">
        <time>2022-07-31T13:30:48Z</time>
      </trkpt>
      <trkpt lat="42.71052" lon="-0.31039">
        <time>2022-07-31T13:30:49Z</time>
      </trkpt>
      <trkpt lat="42.71037" lon="-0.31044">
        <time>2022-07-31T13:30:50Z</time>
      </trkpt>
      <trkpt lat="42.71023" lon="-0.31051">
        <time>2022-07-31T13:30:51Z</time>
      </trkpt>
      <trkpt lat="42.71008" lon="-0.31059">
        <time>2022-07-31T13:30:52Z</time>
      </trkpt>
      <trkpt lat="42.70994" lon="-0.31067">
        <time>2022-07-31T13:30:53Z</time>
      </trkpt>
      <trkpt lat="42.7098" lon="-0.31075">
        <time>2022-07-31T13:30:54Z</time>
      </trkpt>
      <trkpt lat="42.70966" lon="-0.31082">
        <time>2022-07-31T13:30:55Z</time>
      </trkpt>
      <trkpt lat="42.70953" lon="-0.3109">
        <time>2022-07-31T13:30:56Z</time>
      </trkpt>
      <trkpt lat="42.7094" lon="-0.31098">
        <time>2022-07-31T13:30:57Z</time>
      </trkpt>
      <trkpt lat="42.70928" lon="-0.31105">
        <time>2022-07-31T13:30:58Z</time>
      </trkpt>
      <trkpt lat="42.70916" lon="-0.31113">
        <time>2022-07-31T13:30:59Z</time>
      </trkpt>
      <trkpt lat="42.70904" lon="-0.31121">
        <time>2022-07-31T13:31:00Z</time>
      </trkpt>
      <trkpt lat="42.70891" lon="-0.31129">
        <time>2022-07-31T13:31:01Z</time>
      </trkpt>
      <trkpt lat="42.70878" lon="-0.31137">
        <time>2022-07-31T13:31:02Z</time>
      </trkpt>
      <trkpt lat="42.70865" lon="-0.31145">
        <time>2022-07-31T13:31:03Z</time>
      </trkpt>
      <trkpt lat="42.70851" lon="-0.31153">
        <time>2022-07-31T13:31:04Z</time>
      </trkpt>
      <trkpt lat="42.70837" lon="-0.31161">
        <time>2022-07-31T13:31:05Z</time>
      </trkpt>
      <trkpt lat="42.70823" lon="-0.31169">
        <time>2022-07-31T13:31:06Z</time>
      </trkpt>
      <trkpt lat="42.70809" lon="-0.31178">
        <time>2022-07-31T13:31:07Z</time>
      </trkpt>
      <trkpt lat="42.70796" lon="-0.31187">
        <time>2022-07-31T13:31:08Z</time>
      </trkpt>
      <trkpt lat="42.70783" lon="-0.31197">
        <time>2022-07-31T13:31:09Z</time>
      </trkpt>
      <trkpt lat="42.70771" lon="-0.31209">
        <time>2022-07-31T13:31:10Z</time>
      </trkpt>
      <trkpt lat="42.70759" lon="-0.31224">
        <time>2022-07-31T13:31:11Z</time>
      </trkpt>
      <trkpt lat="42.70749" lon="-0.31241">
        <time>2022-07-31T13:31:12Z</time>
      </trkpt>
      <trkpt lat="42.70741" lon="-0.31261">
        <time>2022-07-31T13:31:13Z</time>
      </trkpt>
      <trkpt lat="42.70735" lon="-0.31283">
        <time>2022-07-31T13:31:14Z</time>
      </trkpt>
      <trkpt lat="42.70731" lon="-0.31306">
        <time>2022-07-31T13:31:15Z</time>
      </trkpt>
      <trkpt lat="42.70726" lon="-0.31328">
        <time>2022-07-31T13:31:16Z</time>
      </trkpt>
      <trkpt lat="42.70722" lon="-0.31351">
        <time>2022-07-31T13:31:17Z</time>
      </trkpt>
      <trkpt lat="42.70717" lon="-0.31374">
        <time>2022-07-31T13:31:18Z</time>
      </trkpt>
      <trkpt lat="42.70712" lon="-0.31395">
        <time>2022-07-31T13:31:19Z</time>
      </trkpt>
      <trkpt lat="42.70705" lon="-0.31416">
        <time>2022-07-31T13:31:20Z</time>
      </trkpt>
      <trkpt lat="42.70698" lon="-0.31436">
        <time>2022-07-31T13:31:21Z</time>
      </trkpt>
      <trkpt lat="42.7069" lon="-0.31455">
        <time>2022-07-31T13:31:22Z</time>
      </trkpt>
      <trkpt lat="42.70681" lon="-0.31473">
        <time>2022-07-31T13:31:23Z</time>
      </trkpt>
      <trkpt lat="42.70671" lon="-0.3149">
        <time>2022-07-31T13:31:24Z</time>
      </trkpt>
      <trkpt lat="42.70661" lon="-0.31506">
        <time>2022-07-31T13:31:25Z</time>
      </trkpt>
      <trkpt lat="42.7065" lon="-0.31519">
        <time>2022-07-31T13:31:26Z</time>
      </trkpt>
      <trkpt lat="42.70641" lon="-0.3153">
        <time>2022-07-31T13:31:27Z</time>
      </trkpt>
      <trkpt lat="42.70632" lon="-0.31538">
        <time>2022-07-31T13:31:28Z</time>
      </trkpt>
      <trkpt lat="42.70624" lon="-0.31547">
        <time>2022-07-31T13:31:29Z</time>
      </trkpt>
      <trkpt lat="42.70615" lon="-0.31555">
        <time>2022-07-31T13:31:30Z</time>
      </trkpt>
      <trkpt lat="42.70605" lon="-0.31563">
        <time>2022-07-31T13:31:31Z</time>
      </trkpt>
      <trkpt lat="42.70593" lon="-0.31573">
        <time>2022-07-31T13:31:32Z</time>
      </trkpt>
      <trkpt lat="42.70581" lon="-0.31583">
        <time>2022-07-31T13:31:33Z</time>
      </trkpt>
      <trkpt lat="42.70569" lon="-0.31594">
        <time>2022-07-31T13:31:34Z</time>
      </trkpt>
      <trkpt lat="42.70555" lon="-0.31605">
        <time>2022-07-31T13:31:35Z</time>
      </trkpt>
      <trkpt lat="42.70541" lon="-0.31617">
        <time>2022-07-31T13:31:36Z</time>
      </trkpt>
      <trkpt lat="42.70527" lon="-0.31628">
        <time>2022-07-31T13:31:37Z</time>
      </trkpt>
      <trkpt lat="42.70513" lon="-0.3164">
        <time>2022-07-31T13:31:38Z</time>
      </trkpt>
      <trkpt lat="42.70499" lon="-0.31653">
        <time>2022-07-31T13:31:39Z</time>
      </trkpt>
      <trkpt lat="42.70485" lon="-0.31667">
        <time>2022-07-31T13:31:40Z</time>
      </trkpt>
      <trkpt lat="42.70471" lon="-0.31684">
        <time>2022-07-31T13:31:41Z</time>
      </trkpt>
      <trkpt lat="42.70457" lon="-0.31704">
        <time>2022-07-31T13:31:42Z</time>
      </trkpt>
      <trkpt lat="42.70443" lon="-0.31728">
        <time>2022-07-31T13:31:43Z</time>
      </trkpt>
      <trkpt lat="42.70431" lon="-0.31752">
        <time>2022-07-31T13:31:44Z</time>
      </trkpt>
      <trkpt lat="42.7042" lon="-0.31778">
        <time>2022-07-31T13:31:45Z</time>
      </trkpt>
      <trkpt lat="42.70411" lon="-0.31804">
        <time>2022-07-31T13:31:46Z</time>
      </trkpt>
      <trkpt lat="42.70403" lon="-0.3183">
        <time>2022-07-31T13:31:47Z</time>
      </trkpt>
      <trkpt lat="42.70397" lon="-0.31855">
        <time>2022-07-31T13:31:48Z</time>
      </trkpt>
      <trkpt lat="42.70389" lon="-0.3188">
        <time>2022-07-31T13:31:49Z</time>
      </trkpt>
      <trkpt lat="42.70382" lon="-0.31904">
        <time>2022-07-31T13:31:50Z</time>
      </trkpt>
      <trkpt lat="42.70374" lon="-0.31927">
        <time>2022-07-31T13:31:51Z</time>
      </trkpt>
      <trkpt lat="42.70363" lon="-0.31948">
        <time>2022-07-31T13:31:52Z</time>
      </trkpt>
      <trkpt lat="42.7035" lon="-0.31967">
        <time>2022-07-31T13:31:53Z</time>
      </trkpt>
      <trkpt lat="42.70334" lon="-0.31981">
        <time>2022-07-31T13:31:54Z</time>
      </trkpt>
      <trkpt lat="42.70317" lon="-0.31992">
        <time>2022-07-31T13:31:55Z</time>
      </trkpt>
      <trkpt lat="42.70298" lon="-0.31999">
        <time>2022-07-31T13:31:56Z</time>
      </trkpt>
      <trkpt lat="42.7028" lon="-0.32001">
        <time>2022-07-31T13:31:57Z</time>
      </trkpt>
      <trkpt lat="42.70261" lon="-0.31999">
        <time>2022-07-31T13:31:58Z</time>
      </trkpt>
      <trkpt lat="42.70244" lon="-0.31996">
        <time>2022-07-31T13:31:59Z</time>
      </trkpt>
      <trkpt lat="42.70227" lon="-0.31993">
        <time>2022-07-31T13:32:00Z</time>
      </trkpt>
      <trkpt lat="42.70209" lon="-0.31989">
        <time>2022-07-31T13:32:01Z</time>
      </trkpt>
      <trkpt lat="42.70192" lon="-0.31985">
        <time>2022-07-31T13:32:02Z</time>
      </trkpt>
      <trkpt lat="42.70174" lon="-0.31981">
        <time>2022-07-31T13:32:03Z</time>
      </trkpt>
      <trkpt lat="42.70156" lon="-0.31977">
        <time>2022-07-31T13:32:04Z</time>
      </trkpt>
      <trkpt lat="42.70137" lon="-0.31973">
        <time>2022-07-31T13:32:05Z</time>
      </trkpt>
      <trkpt lat="42.70119" lon="-0.31969">
        <time>2022-07-31T13:32:06Z</time>
      </trkpt>
      <trkpt lat="42.70101" lon="-0.31966">
        <time>2022-07-31T13:32:07Z</time>
      </trkpt>
      <trkpt lat="42.70083" lon="-0.31962">
        <time>2022-07-31T13:32:08Z</time>
      </trkpt>
      <trkpt lat="42.70064" lon="-0.31959">
        <time>2022-07-31T13:32:09Z</time>
      </trkpt>
      <trkpt lat="42.70046" lon="-0.31956">
        <time>2022-07-31T13:32:10Z</time>
      </trkpt>
      <trkpt lat="42.70027" lon="-0.31953">
        <time>2022-07-31T13:32:11Z</time>
      </trkpt>
      <trkpt lat="42.70008" lon="-0.3195">
        <time>2022-07-31T13:32:12Z</time>
      </trkpt>
      <trkpt lat="42.69989" lon="-0.31947">
        <time>2022-07-31T13:32:13Z</time>
      </trkpt>
      <trkpt lat="42.6997" lon="-0.31945">
        <time>2022-07-31T13:32:14Z</time>
      </trkpt>
      <trkpt lat="42.69951" lon="-0.31943">
        <time>2022-07-31T13:32:15Z</time>
      </trkpt>
      <trkpt lat="42.69932" lon="-0.31941">
        <time>2022-07-31T13:32:16Z</time>
      </trkpt>
      <trkpt lat="42.69913" lon="-0.31939">
        <time>2022-07-31T13:32:17Z</time>
      </trkpt>
      <trkpt lat="42.69894" lon="-0.31937">
        <time>2022-07-31T13:32:18Z</time>
      </trkpt>
      <trkpt lat="42.69874" lon="-0.31934">
        <time>2022-07-31T13:32:19Z</time>
      </trkpt>
      <trkpt lat="42.69854" lon="-0.31931">
        <time>2022-07-31T13:32:20Z</time>
      </trkpt>
      <trkpt lat="42.69835" lon="-0.31926">
        <time>2022-07-31T13:32:21Z</time>
      </trkpt>
      <trkpt lat="42.69815" lon="-0.31921">
        <time>2022-07-31T13:32:22Z</time>
      </trkpt>
      <trkpt lat="42.69795" lon="-0.31913">
        <time>2022-07-31T13:32:23Z</time>
      </trkpt>
      <trkpt lat="42.69775" lon="-0.31901">
        <time>2022-07-31T13:32:24Z</time>
      </trkpt>
      <trkpt lat="42.69755" lon="-0.31889">
        <time>2022-07-31T13:32:25Z</time>
      </trkpt>
      <trkpt lat="42.69736" lon="-0.31876">
        <time>2022-07-31T13:32:26Z</time>
      </trkpt>
      <trkpt lat="42.69718" lon="-0.31863">
        <time>2022-07-31T13:32:27Z</time>
      </trkpt>
      <trkpt lat="42.69701" lon="-0.31849">
        <time>2022-07-31T13:32:28Z</time>
      </trkpt>
      <trkpt lat="42.69685" lon="-0.31834">
        <time>2022-07-31T13:32:29Z</time>
      </trkpt>
      <trkpt lat="42.6967" lon="-0.31817">
        <time>2022-07-31T13:32:30Z</time>
      </trkpt>
      <trkpt lat="42.69657" lon="-0.31797">
        <time>2022-07-31T13:32:31Z</time>
      </trkpt>
      <trkpt lat="42.69647" lon="-0.31774">
        <time>2022-07-31T13:32:32Z</time>
      </trkpt>
      <trkpt lat="42.69639" lon="-0.31749">
        <time>2022-07-31T13:32:33Z</time>
      </trkpt>
      <trkpt lat="42.69632" lon="-0.31723">
        <time>2022-07-31T13:32:34Z</time>
      </trkpt>
      <trkpt lat="42.69624" lon="-0.31699">
        <time>2022-07-31T13:32:35Z</time>
      </trkpt>
      <trkpt lat="42.69616" lon="-0.31677">
        <time>2022-07-31T13:32:36Z</time>
      </trkpt>
      <trkpt lat="42.69604" lon="-0.31655">
        <time>2022-07-31T13:32:37Z</time>
      </trkpt>
      <trkpt lat="42.69592" lon="-0.31634">
        <time>2022-07-31T13:32:38Z</time>
      </trkpt>
      <trkpt lat="42.69578" lon="-0.31617">
        <time>2022-07-31T13:32:39Z</time>
      </trkpt>
      <trkpt lat="42.69563" lon="-0.31602">
        <time>2022-07-31T13:32:40Z</time>
      </trkpt>
      <trkpt lat="42.69546" lon="-0.31589">
        <time>2022-07-31T13:32:41Z</time>
      </trkpt>
      <trkpt lat="42.69522" lon="-0.31586">
        <time>2022-07-31T13:32:42Z</time>
      </trkpt>
      <trkpt lat="42.69496" lon="-0.31588">
        <time>2022-07-31T13:32:43Z</time>
      </trkpt>
      <trkpt lat="42.69473" lon="-0.31611">
        <time>2022-07-31T13:32:44Z</time>
      </trkpt>
      <trkpt lat="42.69451" lon="-0.31618">
        <time>2022-07-31T13:32:45Z</time>
      </trkpt>
      <trkpt lat="42.69429" lon="-0.31622">
        <time>2022-07-31T13:32:46Z</time>
      </trkpt>
      <trkpt lat="42.69406" lon="-0.31622">
        <time>2022-07-31T13:32:47Z</time>
      </trkpt>
      <trkpt lat="42.69385" lon="-0.31616">
        <time>2022-07-31T13:32:48Z</time>
      </trkpt>
      <trkpt lat="42.69365" lon="-0.31607">
        <time>2022-07-31T13:32:49Z</time>
      </trkpt>
      <trkpt lat="42.69345" lon="-0.31596">
        <time>2022-07-31T13:32:50Z</time>
      </trkpt>
      <trkpt lat="42.69325" lon="-0.31584">
        <time>2022-07-31T13:32:51Z</time>
      </trkpt>
      <trkpt lat="42.69303" lon="-0.31575">
        <time>2022-07-31T13:32:52Z</time>
      </trkpt>
      <trkpt lat="42.69281" lon="-0.31571">
        <time>2022-07-31T13:32:53Z</time>
      </trkpt>
      <trkpt lat="42.69259" lon="-0.31571">
        <time>2022-07-31T13:32:54Z</time>
      </trkpt>
      <trkpt lat="42.69236" lon="-0.31575">
        <time>2022-07-31T13:32:55Z</time>
      </trkpt>
      <trkpt lat="42.69213" lon="-0.31576">
        <time>2022-07-31T13:32:56Z</time>
      </trkpt>
      <trkpt lat="42.6919" lon="-0.31576">
        <time>2022-07-31T13:32:57Z</time>
      </trkpt>
      <trkpt lat="42.69168" lon="-0.31574">
        <time>2022-07-31T13:32:58Z</time>
      </trkpt>
      <trkpt lat="42.69146" lon="-0.31571">
        <time>2022-07-31T13:32:59Z</time>
      </trkpt>
      <trkpt lat="42.69124" lon="-0.3157">
        <time>2022-07-31T13:33:00Z</time>
      </trkpt>
      <trkpt lat="42.69102" lon="-0.31568">
        <time>2022-07-31T13:33:01Z</time>
      </trkpt>
      <trkpt lat="42.69079" lon="-0.31567">
        <time>2022-07-31T13:33:02Z</time>
      </trkpt>
      <trkpt lat="42.69056" lon="-0.3157">
        <time>2022-07-31T13:33:03Z</time>
      </trkpt>
      <trkpt lat="42.69034" lon="-0.31575">
        <time>2022-07-31T13:33:04Z</time>
      </trkpt>
      <trkpt lat="42.69012" lon="-0.31582">
        <time>2022-07-31T13:33:05Z</time>
      </trkpt>
      <trkpt lat="42.6899" lon="-0.31592">
        <time>2022-07-31T13:33:06Z</time>
      </trkpt>
      <trkpt lat="42.6897" lon="-0.31604">
        <time>2022-07-31T13:33:07Z</time>
      </trkpt>
      <trkpt lat="42.68951" lon="-0.31619">
        <time>2022-07-31T13:33:08Z</time>
      </trkpt>
      <trkpt lat="42.68934" lon="-0.31637">
        <time>2022-07-31T13:33:09Z</time>
      </trkpt>
      <trkpt lat="42.68921" lon="-0.31659">
        <time>2022-07-31T13:33:10Z</time>
      </trkpt>
      <trkpt lat="42.6891" lon="-0.31683">
        <time>2022-07-31T13:33:11Z</time>
      </trkpt>
      <trkpt lat="42.68903" lon="-0.31711">
        <time>2022-07-31T13:33:12Z</time>
      </trkpt>
      <trkpt lat="42.68897" lon="-0.31739">
        <time>2022-07-31T13:33:13Z</time>
      </trkpt>
      <trkpt lat="42.68892" lon="-0.31767">
        <time>2022-07-31T13:33:14Z</time>
      </trkpt>
      <trkpt lat="42.68887" lon="-0.31796">
        <time>2022-07-31T13:33:15Z</time>
      </trkpt>
      <trkpt lat="42.68881" lon="-0.31823">
        <time>2022-07-31T13:33:16Z</time>
      </trkpt>
      <trkpt lat="42.68875" lon="-0.31849">
        <time>2022-07-31T13:33:17Z</time>
      </trkpt>
      <trkpt lat="42.68869" lon="-0.31874">
        <time>2022-07-31T13:33:18Z</time>
      </trkpt>
      <trkpt lat="42.68861" lon="-0.31896">
        <time>2022-07-31T13:33:19Z</time>
      </trkpt>
      <trkpt lat="42.6885" lon="-0.31917">
        <time>2022-07-31T13:33:20Z</time>
      </trkpt>
      <trkpt lat="42.68836" lon="-0.31935">
        <time>2022-07-31T13:33:21Z</time>
      </trkpt>
      <trkpt lat="42.68821" lon="-0.31951">
        <time>2022-07-31T13:33:22Z</time>
      </trkpt>
      <trkpt lat="42.68805" lon="-0.31963">
        <time>2022-07-31T13:33:23Z</time>
      </trkpt>
      <trkpt lat="42.68787" lon="-0.3197">
        <time>2022-07-31T13:33:24Z</time>
      </trkpt>
      <trkpt lat="42.68766" lon="-0.31974">
        <time>2022-07-31T13:33:25Z</time>
      </trkpt>
      <trkpt lat="42.68744" lon="-0.31976">
        <time>2022-07-31T13:33:26Z</time>
      </trkpt>
      <trkpt lat="42.6872" lon="-0.3198">
        <time>2022-07-31T13:33:27Z</time>
      </trkpt>
      <trkpt lat="42.68696" lon="-0.31983">
        <time>2022-07-31T13:33:28Z</time>
      </trkpt>
      <trkpt lat="42.68674" lon="-0.31986">
        <time>2022-07-31T13:33:29Z</time>
      </trkpt>
      <trkpt lat="42.68652" lon="-0.31989">
        <time>2022-07-31T13:33:30Z</time>
      </trkpt>
      <trkpt lat="42.68632" lon="-0.31992">
        <time>2022-07-31T13:33:31Z</time>
      </trkpt>
      <trkpt lat="42.68612" lon="-0.31994">
        <time>2022-07-31T13:33:32Z</time>
      </trkpt>
      <trkpt lat="42.68593" lon="-0.31996">
        <time>2022-07-31T13:33:33Z</time>
      </trkpt>
      <trkpt lat="42.68574" lon="-0.31999">
        <time>2022-07-31T13:33:34Z</time>
      </trkpt>
      <trkpt lat="42.68557" lon="-0.32001">
        <time>2022-07-31T13:33:35Z</time>
      </trkpt>
      <trkpt lat="42.6854" lon="-0.32003">
        <time>2022-07-31T13:33:36Z</time>
      </trkpt>
      <trkpt lat="42.68523" lon="-0.32006">
        <time>2022-07-31T13:33:37Z</time>
      </trkpt>
      <trkpt lat="42.68507" lon="-0.32008">
        <time>2022-07-31T13:33:38Z</time>
      </trkpt>
      <trkpt lat="42.6849" lon="-0.32011">
        <time>2022-07-31T13:33:39Z</time>
      </trkpt>
      <trkpt lat="42.68474" lon="-0.32016">
        <time>2022-07-31T13:33:40Z</time>
      </trkpt>
      <trkpt lat="42.68458" lon="-0.32024">
        <time>2022-07-31T13:33:41Z</time>
      </trkpt>
      <trkpt lat="42.68443" lon="-0.32034">
        <time>2022-07-31T13:33:42Z</time>
      </trkpt>
      <trkpt lat="42.68428" lon="-0.32046">
        <time>2022-07-31T13:33:43Z</time>
      </trkpt>
      <trkpt lat="42.68414" lon="-0.32057">
        <time>2022-07-31T13:33:44Z</time>
      </trkpt>
      <trkpt lat="42.68399" lon="-0.32068">
        <time>2022-07-31T13:33:45Z</time>
      </trkpt>
      <trkpt lat="42.68383" lon="-0.32078">
        <time>2022-07-31T13:33:46Z</time>
      </trkpt>
      <trkpt lat="42.68366" lon="-0.32086">
        <time>2022-07-31T13:33:47Z</time>
      </trkpt>
      <trkpt lat="42.68347" lon="-0.32092">
        <time>2022-07-31T13:33:48Z</time>
      </trkpt>
      <trkpt lat="42.68326" lon="-0.32094">
        <time>2022-07-31T13:33:49Z</time>
      </trkpt>
      <trkpt lat="42.68304" lon="-0.32093">
        <time>2022-07-31T13:33:50Z</time>
      </trkpt>
      <trkpt lat="42.68281" lon="-0.3209">
        <time>2022-07-31T13:33:51Z</time>
      </trkpt>
      <trkpt lat="42.68257" lon="-0.32088">
        <time>2022-07-31T13:33:52Z</time>
      </trkpt>
      <trkpt lat="42.68233" lon="-0.32086">
        <time>2022-07-31T13:33:53Z</time>
      </trkpt>
      <trkpt lat="42.6821" lon="-0.32084">
        <time>2022-07-31T13:33:54Z</time>
      </trkpt>
      <trkpt lat="42.68189" lon="-0.32082">
        <time>2022-07-31T13:33:55Z</time>
      </trkpt>
      <trkpt lat="42.6817" lon="-0.32081">
        <time>2022-07-31T13:33:56Z</time>
      </trkpt>
      <trkpt lat="42.68152" lon="-0.3208">
        <time>2022-07-31T13:33:57Z</time>
      </trkpt>
      <trkpt lat="42.68136" lon="-0.3208">
        <time>2022-07-31T13:33:58Z</time>
      </trkpt>
      <trkpt lat="42.68121" lon="-0.32083">
        <time>2022-07-31T13:33:59Z</time>
      </trkpt>
      <trkpt lat="42.68108" lon="-0.32088">
        <time>2022-07-31T13:34:00Z</time>
      </trkpt>
      <trkpt lat="42.68096" lon="-0.32093">
        <time>2022-07-31T13:34:01Z</time>
      </trkpt>
      <trkpt lat="42.68083" lon="-0.32099">
        <time>2022-07-31T13:34:02Z</time>
      </trkpt>
      <trkpt lat="42.6807" lon="-0.32105">
        <time>2022-07-31T13:34:03Z</time>
      </trkpt>
      <trkpt lat="42.68057" lon="-0.3211">
        <time>2022-07-31T13:34:04Z</time>
      </trkpt>
      <trkpt lat="42.68043" lon="-0.32115">
        <time>2022-07-31T13:34:05Z</time>
      </trkpt>
      <trkpt lat="42.68029" lon="-0.32119">
        <time>2022-07-31T13:34:06Z</time>
      </trkpt>
      <trkpt lat="42.68015" lon="-0.3212">
        <time>2022-07-31T13:34:07Z</time>
      </trkpt>
      <trkpt lat="42.68" lon="-0.32119">
        <time>2022-07-31T13:34:08Z</time>
      </trkpt>
      <trkpt lat="42.67985" lon="-0.32117">
        <time>2022-07-31T13:34:09Z</time>
      </trkpt>
      <trkpt lat="42.67969" lon="-0.32114">
        <time>2022-07-31T13:34:10Z</time>
      </trkpt>
      <trkpt lat="42.67952" lon="-0.32111">
        <time>2022-07-31T13:34:11Z</time>
      </trkpt>
      <trkpt lat="42.67936" lon="-0.32108">
        <time>2022-07-31T13:34:12Z</time>
      </trkpt>
      <trkpt lat="42.67919" lon="-0.32104">
        <time>2022-07-31T13:34:13Z</time>
      </trkpt>
      <trkpt lat="42.67902" lon="-0.32101">
        <time>2022-07-31T13:34:14Z</time>
      </trkpt>
      <trkpt lat="42.67885" lon="-0.32097">
        <time>2022-07-31T13:34:15Z</time>
      </trkpt>
      <trkpt lat="42.67868" lon="-0.32094">
        <time>2022-07-31T13:34:16Z</time>
      </trkpt>
      <trkpt lat="42.67851" lon="-0.32091">
        <time>2022-07-31T13:34:17Z</time>
      </trkpt>
      <trkpt lat="42.67833" lon="-0.32088">
        <time>2022-07-31T13:34:18Z</time>
      </trkpt>
      <trkpt lat="42.67816" lon="-0.32086">
        <time>2022-07-31T13:34:19Z</time>
      </trkpt>
      <trkpt lat="42.67798" lon="-0.32085">
        <time>2022-07-31T13:34:20Z</time>
      </trkpt>
      <trkpt lat="42.6778" lon="-0.32084">
        <time>2022-07-31T13:34:21Z</time>
      </trkpt>
      <trkpt lat="42.67761" lon="-0.32085">
        <time>2022-07-31T13:34:22Z</time>
      </trkpt>
      <trkpt lat="42.67746" lon="-0.32091">
        <time>2022-07-31T13:34:23Z</time>
      </trkpt>
      <trkpt lat="42.6773" lon="-0.321">
        <time>2022-07-31T13:34:24Z</time>
      </trkpt>
      <trkpt lat="42.67716" lon="-0.32111">
        <time>2022-07-31T13:34:25Z</time>
      </trkpt>
      <trkpt lat="42.67703" lon="-0.32126">
        <time>2022-07-31T13:34:26Z</time>
      </trkpt>
      <trkpt lat="42.67691" lon="-0.32143">
        <time>2022-07-31T13:34:27Z</time>
      </trkpt>
      <trkpt lat="42.67681" lon="-0.32162">
        <time>2022-07-31T13:34:28Z</time>
      </trkpt>
      <trkpt lat="42.67671" lon="-0.32181">
        <time>2022-07-31T13:34:29Z</time>
      </trkpt>
      <trkpt lat="42.67661" lon="-0.32199">
        <time>2022-07-31T13:34:30Z</time>
      </trkpt>
      <trkpt lat="42.6765" lon="-0.32217">
        <time>2022-07-31T13:34:31Z</time>
      </trkpt>
      <trkpt lat="42.67638" lon="-0.32233">
        <time>2022-07-31T13:34:32Z</time>
      </trkpt>
      <trkpt lat="42.67624" lon="-0.32246">
        <time>2022-07-31T13:34:33Z</time>
      </trkpt>
      <trkpt lat="42.67608" lon="-0.32256">
        <time>2022-07-31T13:34:34Z</time>
      </trkpt>
      <trkpt lat="42.67588" lon="-0.32262">
        <time>2022-07-31T13:34:35Z</time>
      </trkpt>
      <trkpt lat="42.67566" lon="-0.32265">
        <time>2022-07-31T13:34:36Z</time>
      </trkpt>
      <trkpt lat="42.67543" lon="-0.32268">
        <time>2022-07-31T13:34:37Z</time>
      </trkpt>
      <trkpt lat="42.67521" lon="-0.32271">
        <time>2022-07-31T13:34:38Z</time>
      </trkpt>
      <trkpt lat="42.67499" lon="-0.32274">
        <time>2022-07-31T13:34:39Z</time>
      </trkpt>
      <trkpt lat="42.67477" lon="-0.32276">
        <time>2022-07-31T13:34:40Z</time>
      </trkpt>
      <trkpt lat="42.67455" lon="-0.32277">
        <time>2022-07-31T13:34:41Z</time>
      </trkpt>
      <trkpt lat="42.67433" lon="-0.32275">
        <time>2022-07-31T13:34:42Z</time>
      </trkpt>
      <trkpt lat="42.67412" lon="-0.32272">
        <time>2022-07-31T13:34:43Z</time>
      </trkpt>
      <trkpt lat="42.67392" lon="-0.32268">
        <time>2022-07-31T13:34:44Z</time>
      </trkpt>
      <trkpt lat="42.67373" lon="-0.32265">
        <time>2022-07-31T13:34:45Z</time>
      </trkpt>
      <trkpt lat="42.67355" lon="-0.32262">
        <time>2022-07-31T13:34:46Z</time>
      </trkpt>
      <trkpt lat="42.67337" lon="-0.32261">
        <time>2022-07-31T13:34:47Z</time>
      </trkpt>
      <trkpt lat="42.67318" lon="-0.32262">
        <time>2022-07-31T13:34:48Z</time>
      </trkpt>
      <trkpt lat="42.67301" lon="-0.32263">
        <time>2022-07-31T13:34:49Z</time>
      </trkpt>
      <trkpt lat="42.67283" lon="-0.32264">
        <time>2022-07-31T13:34:50Z</time>
      </trkpt>
      <trkpt lat="42.67265" lon="-0.32266">
        <time>2022-07-31T13:34:51Z</time>
      </trkpt>
      <trkpt lat="42.67247" lon="-0.32268">
        <time>2022-07-31T13:34:52Z</time>
      </trkpt>
      <trkpt lat="42.6723" lon="-0.3227">
        <time>2022-07-31T13:34:53Z</time>
      </trkpt>
      <trkpt lat="42.67212" lon="-0.3227">
        <time>2022-07-31T13:34:54Z</time>
      </trkpt>
      <trkpt lat="42.67195" lon="-0.32269">
        <time>2022-07-31T13:34:55Z</time>
      </trkpt>
      <trkpt lat="42.67179" lon="-0.32265">
        <time>2022-07-31T13:34:56Z</time>
      </trkpt>
      <trkpt lat="42.67163" lon="-0.32259">
        <time>2022-07-31T13:34:57Z</time>
      </trkpt>
      <trkpt lat="42.67147" lon="-0.32253">
        <time>2022-07-31T13:34:58Z</time>
      </trkpt>
      <trkpt lat="42.67132" lon="-0.32246">
        <time>2022-07-31T13:34:59Z</time>
      </trkpt>
      <trkpt lat="42.67117" lon="-0.3224">
        <time>2022-07-31T13:35:00Z</time>
      </trkpt>
      <trkpt lat="42.67102" lon="-0.32236">
        <time>2022-07-31T13:35:01Z</time>
      </trkpt>
      <trkpt lat="42.67087" lon="-0.32235">
        <time>2022-07-31T13:35:02Z</time>
      </trkpt>
      <trkpt lat="42.67071" lon="-0.32236">
        <time>2022-07-31T13:35:03Z</time>
      </trkpt>
      <trkpt lat="42.67053" lon="-0.3224">
        <time>2022-07-31T13:35:04Z</time>
      </trkpt>
      <trkpt lat="42.67033" lon="-0.32244">
        <time>2022-07-31T13:35:05Z</time>
      </trkpt>
      <trkpt lat="42.67013" lon="-0.3225">
        <time>2022-07-31T13:35:06Z</time>
      </trkpt>
      <trkpt lat="42.66993" lon="-0.32255">
        <time>2022-07-31T13:35:07Z</time>
      </trkpt>
      <trkpt lat="42.66973" lon="-0.32258">
        <time>2022-07-31T13:35:08Z</time>
      </trkpt>
      <trkpt lat="42.66952" lon="-0.32257">
        <time>2022-07-31T13:35:09Z</time>
      </trkpt>
      <trkpt lat="42.66932" lon="-0.32252">
        <time>2022-07-31T13:35:10Z</time>
      </trkpt>
      <trkpt lat="42.66911" lon="-0.32242">
        <time>2022-07-31T13:35:11Z</time>
      </trkpt>
      <trkpt lat="42.66892" lon="-0.32231">
        <time>2022-07-31T13:35:12Z</time>
      </trkpt>
      <trkpt lat="42.66874" lon="-0.32218">
        <time>2022-07-31T13:35:13Z</time>
      </trkpt>
      <trkpt lat="42.66856" lon="-0.32204">
        <time>2022-07-31T13:35:14Z</time>
      </trkpt>
      <trkpt lat="42.66838" lon="-0.32193">
        <time>2022-07-31T13:35:15Z</time>
      </trkpt>
      <trkpt lat="42.66821" lon="-0.32184">
        <time>2022-07-31T13:35:16Z</time>
      </trkpt>
      <trkpt lat="42.66803" lon="-0.32179">
        <time>2022-07-31T13:35:17Z</time>
      </trkpt>
      <trkpt lat="42.66783" lon="-0.32179">
        <time>2022-07-31T13:35:18Z</time>
      </trkpt>
      <trkpt lat="42.66762" lon="-0.32182">
        <time>2022-07-31T13:35:19Z</time>
      </trkpt>
      <trkpt lat="42.66741" lon="-0.32188">
        <time>2022-07-31T13:35:20Z</time>
      </trkpt>
      <trkpt lat="42.66717" lon="-0.32194">
        <time>2022-07-31T13:35:21Z</time>
      </trkpt>
      <trkpt lat="42.66694" lon="-0.32201">
        <time>2022-07-31T13:35:22Z</time>
      </trkpt>
      <trkpt lat="42.66671" lon="-0.32207">
        <time>2022-07-31T13:35:23Z</time>
      </trkpt>
      <trkpt lat="42.66648" lon="-0.32213">
        <time>2022-07-31T13:35:24Z</time>
      </trkpt>
      <trkpt lat="42.66623" lon="-0.3222">
        <time>2022-07-31T13:35:25Z</time>
      </trkpt>
      <trkpt lat="42.66597" lon="-0.32228">
        <time>2022-07-31T13:35:26Z</time>
      </trkpt>
      <trkpt lat="42.66571" lon="-0.32237">
        <time>2022-07-31T13:35:27Z</time>
      </trkpt>
      <trkpt lat="42.66543" lon="-0.32248">
        <time>2022-07-31T13:35:28Z</time>
      </trkpt>
      <trkpt lat="42.66515" lon="-0.32259">
        <time>2022-07-31T13:35:29Z</time>
      </trkpt>
      <trkpt lat="42.66486" lon="-0.32271">
        <time>2022-07-31T13:35:30Z</time>
      </trkpt>
      <trkpt lat="42.66458" lon="-0.32282">
        <time>2022-07-31T13:35:31Z</time>
      </trkpt>
      <trkpt lat="42.66429" lon="-0.32293">
        <time>2022-07-31T13:35:32Z</time>
      </trkpt>
      <trkpt lat="42.66401" lon="-0.32305">
        <time>2022-07-31T13:35:33Z</time>
      </trkpt>
      <trkpt lat="42.66373" lon="-0.32318">
        <time>2022-07-31T13:35:34Z</time>
      </trkpt>
      <trkpt lat="42.66346" lon="-0.32331">
        <time>2022-07-31T13:35:35Z</time>
      </trkpt>
      <trkpt lat="42.66321" lon="-0.32345">
        <time>2022-07-31T13:35:36Z</time>
      </trkpt>
      <trkpt lat="42.66298" lon="-0.32359">
        <time>2022-07-31T13:35:37Z</time>
      </trkpt>
      <trkpt lat="42.66277" lon="-0.32372">
        <time>2022-07-31T13:35:38Z</time>
      </trkpt>
      <trkpt lat="42.66256" lon="-0.32383">
        <time>2022-07-31T13:35:39Z</time>
      </trkpt>
      <trkpt lat="42.66235" lon="-0.32391">
        <time>2022-07-31T13:35:40Z</time>
      </trkpt>
      <trkpt lat="42.66214" lon="-0.32396">
        <time>2022-07-31T13:35:41Z</time>
      </trkpt>
      <trkpt lat="42.66195" lon="-0.32398">
        <time>2022-07-31T13:35:42Z</time>
      </trkpt>
      <trkpt lat="42.66177" lon="-0.32396">
        <time>2022-07-31T13:35:43Z</time>
      </trkpt>
      <trkpt lat="42.6616" lon="-0.32394">
        <time>2022-07-31T13:35:44Z</time>
      </trkpt>
      <trkpt lat="42.66144" lon="-0.32391">
        <time>2022-07-31T13:35:45Z</time>
      </trkpt>
      <trkpt lat="42.66129" lon="-0.32388">
        <time>2022-07-31T13:35:46Z</time>
      </trkpt>
      <trkpt lat="42.66113" lon="-0.32385">
        <time>2022-07-31T13:35:47Z</time>
      </trkpt>
      <trkpt lat="42.66098" lon="-0.32383">
        <time>2022-07-31T13:35:48Z</time>
      </trkpt>
      <trkpt lat="42.66083" lon="-0.32381">
        <time>2022-07-31T13:35:49Z</time>
      </trkpt>
      <trkpt lat="42.66069" lon="-0.32381">
        <time>2022-07-31T13:35:50Z</time>
      </trkpt>
      <trkpt lat="42.66056" lon="-0.32381">
        <time>2022-07-31T13:35:51Z</time>
      </trkpt>
      <trkpt lat="42.66044" lon="-0.32382">
        <time>2022-07-31T13:35:52Z</time>
      </trkpt>
      <trkpt lat="42.66032" lon="-0.32384">
        <time>2022-07-31T13:35:53Z</time>
      </trkpt>
      <trkpt lat="42.66021" lon="-0.32385">
        <time>2022-07-31T13:35:54Z</time>
      </trkpt>
      <trkpt lat="42.66011" lon="-0.32387">
        <time>2022-07-31T13:35:55Z</time>
      </trkpt>
      <trkpt lat="42.66" lon="-0.32386">
        <time>2022-07-31T13:35:56Z</time>
      </trkpt>
      <trkpt lat="42.65989" lon="-0.32383">
        <time>2022-07-31T13:35:57Z</time>
      </trkpt>
      <trkpt lat="42.65978" lon="-0.32381">
        <time>2022-07-31T13:35:58Z</time>
      </trkpt>
      <trkpt lat="42.65968" lon="-0.3238">
        <time>2022-07-31T13:35:59Z</time>
      </trkpt>
      <trkpt lat="42.65957" lon="-0.32381">
        <time>2022-07-31T13:36:00Z</time>
      </trkpt>
      <trkpt lat="42.65946" lon="-0.32382">
        <time>2022-07-31T13:36:01Z</time>
      </trkpt>
      <trkpt lat="42.65936" lon="-0.32384">
        <time>2022-07-31T13:36:02Z</time>
      </trkpt>
      <trkpt lat="42.65925" lon="-0.32385">
        <time>2022-07-31T13:36:03Z</time>
      </trkpt>
      <trkpt lat="42.65914" lon="-0.32384">
        <time>2022-07-31T13:36:04Z</time>
      </trkpt>
      <trkpt lat="42.65904" lon="-0.32379">
        <time>2022-07-31T13:36:05Z</time>
      </trkpt>
      <trkpt lat="42.65894" lon="-0.32372">
        <time>2022-07-31T13:36:06Z</time>
      </trkpt>
      <trkpt lat="42.65885" lon="-0.32363">
        <time>2022-07-31T13:36:07Z</time>
      </trkpt>
      <trkpt lat="42.65875" lon="-0.32355">
        <time>2022-07-31T13:36:08Z</time>
      </trkpt>
      <trkpt lat="42.65865" lon="-0.32347">
        <time>2022-07-31T13:36:09Z</time>
      </trkpt>
      <trkpt lat="42.65856" lon="-0.32338">
        <time>2022-07-31T13:36:10Z</time>
      </trkpt>
      <trkpt lat="42.65846" lon="-0.32329">
        <time>2022-07-31T13:36:11Z</time>
      </trkpt>
      <trkpt lat="42.65837" lon="-0.32321">
        <time>2022-07-31T13:36:12Z</time>
      </trkpt>
      <trkpt lat="42.65826" lon="-0.32312">
        <time>2022-07-31T13:36:13Z</time>
      </trkpt>
      <trkpt lat="42.65816" lon="-0.32302">
        <time>2022-07-31T13:36:14Z</time>
      </trkpt>
      <trkpt lat="42.65806" lon="-0.32293">
        <time>2022-07-31T13:36:15Z</time>
      </trkpt>
      <trkpt lat="42.65797" lon="-0.32284">
        <time>2022-07-31T13:36:16Z</time>
      </trkpt>
      <trkpt lat="42.65788" lon="-0.32274">
        <time>2022-07-31T13:36:17Z</time>
      </trkpt>
      <trkpt lat="42.6578" lon="-0.32262">
        <time>2022-07-31T13:36:18Z</time>
      </trkpt>
      <trkpt lat="42.65773" lon="-0.32249">
        <time>2022-07-31T13:36:19Z</time>
      </trkpt>
      <trkpt lat="42.65766" lon="-0.32235">
        <time>2022-07-31T13:36:20Z</time>
      </trkpt>
      <trkpt lat="42.65759" lon="-0.3222">
        <time>2022-07-31T13:36:21Z</time>
      </trkpt>
      <trkpt lat="42.65753" lon="-0.32203">
        <time>2022-07-31T13:36:22Z</time>
      </trkpt>
      <trkpt lat="42.65749" lon="-0.32187">
        <time>2022-07-31T13:36:23Z</time>
      </trkpt>
      <trkpt lat="42.65744" lon="-0.32168">
        <time>2022-07-31T13:36:24Z</time>
      </trkpt>
      <trkpt lat="42.65742" lon="-0.32152">
        <time>2022-07-31T13:36:25Z</time>
      </trkpt>
      <trkpt lat="42.65739" lon="-0.32135">
        <time>2022-07-31T13:36:26Z</time>
      </trkpt>
      <trkpt lat="42.65736" lon="-0.32118">
        <time>2022-07-31T13:36:27Z</time>
      </trkpt>
      <trkpt lat="42.65733" lon="-0.32101">
        <time>2022-07-31T13:36:28Z</time>
      </trkpt>
      <trkpt lat="42.65729" lon="-0.32082">
        <time>2022-07-31T13:36:29Z</time>
      </trkpt>
      <trkpt lat="42.65724" lon="-0.32064">
        <time>2022-07-31T13:36:30Z</time>
      </trkpt>
      <trkpt lat="42.65717" lon="-0.32047">
        <time>2022-07-31T13:36:31Z</time>
      </trkpt>
      <trkpt lat="42.65708" lon="-0.3203">
        <time>2022-07-31T13:36:32Z</time>
      </trkpt>
      <trkpt lat="42.65698" lon="-0.32016">
        <time>2022-07-31T13:36:33Z</time>
      </trkpt>
      <trkpt lat="42.65687" lon="-0.32003">
        <time>2022-07-31T13:36:34Z</time>
      </trkpt>
      <trkpt lat="42.65674" lon="-0.31991">
        <time>2022-07-31T13:36:35Z</time>
      </trkpt>
      <trkpt lat="42.6566" lon="-0.31982">
        <time>2022-07-31T13:36:36Z</time>
      </trkpt>
      <trkpt lat="42.65646" lon="-0.31974">
        <time>2022-07-31T13:36:37Z</time>
      </trkpt>
      <trkpt lat="42.65632" lon="-0.31966">
        <time>2022-07-31T13:36:38Z</time>
      </trkpt>
      <trkpt lat="42.65617" lon="-0.3196">
        <time>2022-07-31T13:36:39Z</time>
      </trkpt>
      <trkpt lat="42.65601" lon="-0.31955">
        <time>2022-07-31T13:36:40Z</time>
      </trkpt>
      <trkpt lat="42.65586" lon="-0.31951">
        <time>2022-07-31T13:36:41Z</time>
      </trkpt>
      <trkpt lat="42.6557" lon="-0.3195">
        <time>2022-07-31T13:36:42Z</time>
      </trkpt>
      <trkpt lat="42.65554" lon="-0.31951">
        <time>2022-07-31T13:36:43Z</time>
      </trkpt>
      <trkpt lat="42.65538" lon="-0.31953">
        <time>2022-07-31T13:36:44Z</time>
      </trkpt>
      <trkpt lat="42.65522" lon="-0.31955">
        <time>2022-07-31T13:36:45Z</time>
      </trkpt>
      <trkpt lat="42.65505" lon="-0.31959">
        <time>2022-07-31T13:36:46Z</time>
      </trkpt>
      <trkpt lat="42.65489" lon="-0.31964">
        <time>2022-07-31T13:36:47Z</time>
      </trkpt>
      <trkpt lat="42.65473" lon="-0.3197">
        <time>2022-07-31T13:36:48Z</time>
      </trkpt>
      <trkpt lat="42.65457" lon="-0.31975">
        <time>2022-07-31T13:36:49Z</time>
      </trkpt>
      <trkpt lat="42.65441" lon="-0.3198">
        <time>2022-07-31T13:36:50Z</time>
      </trkpt>
      <trkpt lat="42.65425" lon="-0.31983">
        <time>2022-07-31T13:36:51Z</time>
      </trkpt>
      <trkpt lat="42.65409" lon="-0.31986">
        <time>2022-07-31T13:36:52Z</time>
      </trkpt>
      <trkpt lat="42.65392" lon="-0.31987">
        <time>2022-07-31T13:36:53Z</time>
      </trkpt>
      <trkpt lat="42.65376" lon="-0.31988">
        <time>2022-07-31T13:36:54Z</time>
      </trkpt>
      <trkpt lat="42.6536" lon="-0.31987">
        <time>2022-07-31T13:36:55Z</time>
      </trkpt>
      <trkpt lat="42.65345" lon="-0.31986">
        <time>2022-07-31T13:36:56Z</time>
      </trkpt>
      <trkpt lat="42.65329" lon="-0.31985">
        <time>2022-07-31T13:36:57Z</time>
      </trkpt>
      <trkpt lat="42.65313" lon="-0.31984">
        <time>2022-07-31T13:36:58Z</time>
      </trkpt>
      <trkpt lat="42.65298" lon="-0.31984">
        <time>2022-07-31T13:36:59Z</time>
      </trkpt>
      <trkpt lat="42.65282" lon="-0.31984">
        <time>2022-07-31T13:37:00Z</time>
      </trkpt>
      <trkpt lat="42.65267" lon="-0.31985">
        <time>2022-07-31T13:37:01Z</time>
      </trkpt>
      <trkpt lat="42.65251" lon="-0.31986">
        <time>2022-07-31T13:37:02Z</time>
      </trkpt>
      <trkpt lat="42.65236" lon="-0.31986">
        <time>2022-07-31T13:37:03Z</time>
      </trkpt>
      <trkpt lat="42.6522" lon="-0.31986">
        <time>2022-07-31T13:37:04Z</time>
      </trkpt>
      <trkpt lat="42.65205" lon="-0.31984">
        <time>2022-07-31T13:37:05Z</time>
      </trkpt>
      <trkpt lat="42.65189" lon="-0.3198">
        <time>2022-07-31T13:37:06Z</time>
      </trkpt>
      <trkpt lat="42.65174" lon="-0.31973">
        <time>2022-07-31T13:37:07Z</time>
      </trkpt>
      <trkpt lat="42.6516" lon="-0.31964">
        <time>2022-07-31T13:37:08Z</time>
      </trkpt>
      <trkpt lat="42.65147" lon="-0.31955">
        <time>2022-07-31T13:37:09Z</time>
      </trkpt>
      <trkpt lat="42.65134" lon="-0.31943">
        <time>2022-07-31T13:37:10Z</time>
      </trkpt>
      <trkpt lat="42.65121" lon="-0.31932">
        <time>2022-07-31T13:37:11Z</time>
      </trkpt>
      <trkpt lat="42.65107" lon="-0.31921">
        <time>2022-07-31T13:37:12Z</time>
      </trkpt>
      <trkpt lat="42.65092" lon="-0.31912">
        <time>2022-07-31T13:37:13Z</time>
      </trkpt>
      <trkpt lat="42.65077" lon="-0.31906">
        <time>2022-07-31T13:37:14Z</time>
      </trkpt>
      <trkpt lat="42.65061" lon="-0.31905">
        <time>2022-07-31T13:37:15Z</time>
      </trkpt>
      <trkpt lat="42.65045" lon="-0.31907">
        <time>2022-07-31T13:37:16Z</time>
      </trkpt>
      <trkpt lat="42.65029" lon="-0.31911">
        <time>2022-07-31T13:37:17Z</time>
      </trkpt>
      <trkpt lat="42.65013" lon="-0.31918">
        <time>2022-07-31T13:37:18Z</time>
      </trkpt>
      <trkpt lat="42.64997" lon="-0.31926">
        <time>2022-07-31T13:37:19Z</time>
      </trkpt>
      <trkpt lat="42.64981" lon="-0.31935">
        <time>2022-07-31T13:37:20Z</time>
      </trkpt>
      <trkpt lat="42.64966" lon="-0.31944">
        <time>2022-07-31T13:37:21Z</time>
      </trkpt>
      <trkpt lat="42.64951" lon="-0.31953">
        <time>2022-07-31T13:37:22Z</time>
      </trkpt>
      <trkpt lat="42.64936" lon="-0.31963">
        <time>2022-07-31T13:37:23Z</time>
      </trkpt>
      <trkpt lat="42.64922" lon="-0.31973">
        <time>2022-07-31T13:37:24Z</time>
      </trkpt>
      <trkpt lat="42.64906" lon="-0.31983">
        <time>2022-07-31T13:37:25Z</time>
      </trkpt>
      <trkpt lat="42.64891" lon="-0.31993">
        <time>2022-07-31T13:37:26Z</time>
      </trkpt>
      <trkpt lat="42.64876" lon="-0.32005">
        <time>2022-07-31T13:37:27Z</time>
      </trkpt>
      <trkpt lat="42.64861" lon="-0.32017">
        <time>2022-07-31T13:37:28Z</time>
      </trkpt>
      <trkpt lat="42.64845" lon="-0.32032">
        <time>2022-07-31T13:37:29Z</time>
      </trkpt>
      <trkpt lat="42.64827" lon="-0.3205">
        <time>2022-07-31T13:37:30Z</time>
      </trkpt>
      <trkpt lat="42.64809" lon="-0.32071">
        <time>2022-07-31T13:37:31Z</time>
      </trkpt>
      <trkpt lat="42.64791" lon="-0.32093">
        <time>2022-07-31T13:37:32Z</time>
      </trkpt>
      <trkpt lat="42.64772" lon="-0.32115">
        <time>2022-07-31T13:37:33Z</time>
      </trkpt>
      <trkpt lat="42.64751" lon="-0.32136">
        <time>2022-07-31T13:37:34Z</time>
      </trkpt>
      <trkpt lat="42.64729" lon="-0.32154">
        <time>2022-07-31T13:37:35Z</time>
      </trkpt>
      <trkpt lat="42.64707" lon="-0.3217">
        <time>2022-07-31T13:37:36Z</time>
      </trkpt>
      <trkpt lat="42.64685" lon="-0.32185">
        <time>2022-07-31T13:37:37Z</time>
      </trkpt>
      <trkpt lat="42.64663" lon="-0.32199">
        <time>2022-07-31T13:37:38Z</time>
      </trkpt>
      <trkpt lat="42.64643" lon="-0.32213">
        <time>2022-07-31T13:37:39Z</time>
      </trkpt>
      <trkpt lat="42.64625" lon="-0.32228">
        <time>2022-07-31T13:37:40Z</time>
      </trkpt>
      <trkpt lat="42.6461" lon="-0.32246">
        <time>2022-07-31T13:37:41Z</time>
      </trkpt>
      <trkpt lat="42.64596" lon="-0.32265">
        <time>2022-07-31T13:37:42Z</time>
      </trkpt>
      <trkpt lat="42.64584" lon="-0.32285">
        <time>2022-07-31T13:37:43Z</time>
      </trkpt>
      <trkpt lat="42.64572" lon="-0.32306">
        <time>2022-07-31T13:37:44Z</time>
      </trkpt>
      <trkpt lat="42.64557" lon="-0.32324">
        <time>2022-07-31T13:37:45Z</time>
      </trkpt>
      <trkpt lat="42.6454" lon="-0.3234">
        <time>2022-07-31T13:37:46Z</time>
      </trkpt>
      <trkpt lat="42.64521" lon="-0.32353">
        <time>2022-07-31T13:37:47Z</time>
      </trkpt>
      <trkpt lat="42.645" lon="-0.32363">
        <time>2022-07-31T13:37:48Z</time>
      </trkpt>
      <trkpt lat="42.64476" lon="-0.32371">
        <time>2022-07-31T13:37:49Z</time>
      </trkpt>
      <trkpt lat="42.64453" lon="-0.32379">
        <time>2022-07-31T13:37:50Z</time>
      </trkpt>
      <trkpt lat="42.6443" lon="-0.32388">
        <time>2022-07-31T13:37:51Z</time>
      </trkpt>
      <trkpt lat="42.64408" lon="-0.32397">
        <time>2022-07-31T13:37:52Z</time>
      </trkpt>
      <trkpt lat="42.64387" lon="-0.32404">
        <time>2022-07-31T13:37:53Z</time>
      </trkpt>
      <trkpt lat="42.64365" lon="-0.32411">
        <time>2022-07-31T13:37:54Z</time>
      </trkpt>
      <trkpt lat="42.64344" lon="-0.32415">
        <time>2022-07-31T13:37:55Z</time>
      </trkpt>
      <trkpt lat="42.64323" lon="-0.32416">
        <time>2022-07-31T13:37:56Z</time>
      </trkpt>
      <trkpt lat="42.64301" lon="-0.32413">
        <time>2022-07-31T13:37:57Z</time>
      </trkpt>
      <trkpt lat="42.6428" lon="-0.32406">
        <time>2022-07-31T13:37:58Z</time>
      </trkpt>
      <trkpt lat="42.6426" lon="-0.32397">
        <time>2022-07-31T13:37:59Z</time>
      </trkpt>
      <trkpt lat="42.64241" lon="-0.32387">
        <time>2022-07-31T13:38:00Z</time>
      </trkpt>
      <trkpt lat="42.64222" lon="-0.32379">
        <time>2022-07-31T13:38:01Z</time>
      </trkpt>
      <trkpt lat="42.64203" lon="-0.32374">
        <time>2022-07-31T13:38:02Z</time>
      </trkpt>
      <trkpt lat="42.64184" lon="-0.32372">
        <time>2022-07-31T13:38:03Z</time>
      </trkpt>
      <trkpt lat="42.64166" lon="-0.32374">
        <time>2022-07-31T13:38:04Z</time>
      </trkpt>
      <trkpt lat="42.64147" lon="-0.3238">
        <time>2022-07-31T13:38:05Z</time>
      </trkpt>
      <trkpt lat="42.64128" lon="-0.32389">
        <time>2022-07-31T13:38:06Z</time>
      </trkpt>
      <trkpt lat="42.64111" lon="-0.32403">
        <time>2022-07-31T13:38:07Z</time>
      </trkpt>
      <trkpt lat="42.64094" lon="-0.32419">
        <time>2022-07-31T13:38:08Z</time>
      </trkpt>
      <trkpt lat="42.64079" lon="-0.32435">
        <time>2022-07-31T13:38:09Z</time>
      </trkpt>
      <trkpt lat="42.64064" lon="-0.32453">
        <time>2022-07-31T13:38:10Z</time>
      </trkpt>
      <trkpt lat="42.64048" lon="-0.3247">
        <time>2022-07-31T13:38:11Z</time>
      </trkpt>
      <trkpt lat="42.64032" lon="-0.32486">
        <time>2022-07-31T13:38:12Z</time>
      </trkpt>
      <trkpt lat="42.64014" lon="-0.32501">
        <time>2022-07-31T13:38:13Z</time>
      </trkpt>
      <trkpt lat="42.63994" lon="-0.32515">
        <time>2022-07-31T13:38:14Z</time>
      </trkpt>
      <trkpt lat="42.63973" lon="-0.32529">
        <time>2022-07-31T13:38:15Z</time>
      </trkpt>
      <trkpt lat="42.63952" lon="-0.32542">
        <time>2022-07-31T13:38:16Z</time>
      </trkpt>
      <trkpt lat="42.63931" lon="-0.32554">
        <time>2022-07-31T13:38:17Z</time>
      </trkpt>
      <trkpt lat="42.63911" lon="-0.32567">
        <time>2022-07-31T13:38:18Z</time>
      </trkpt>
      <trkpt lat="42.63892" lon="-0.32577">
        <time>2022-07-31T13:38:19Z</time>
      </trkpt>
      <trkpt lat="42.63872" lon="-0.32587">
        <time>2022-07-31T13:38:20Z</time>
      </trkpt>
      <trkpt lat="42.63854" lon="-0.32595">
        <time>2022-07-31T13:38:21Z</time>
      </trkpt>
      <trkpt lat="42.63836" lon="-0.32602">
        <time>2022-07-31T13:38:22Z</time>
      </trkpt>
      <trkpt lat="42.63819" lon="-0.32607">
        <time>2022-07-31T13:38:23Z</time>
      </trkpt>
      <trkpt lat="42.63803" lon="-0.3261">
        <time>2022-07-31T13:38:24Z</time>
      </trkpt>
      <trkpt lat="42.63786" lon="-0.32613">
        <time>2022-07-31T13:38:25Z</time>
      </trkpt>
      <trkpt lat="42.63771" lon="-0.32614">
        <time>2022-07-31T13:38:26Z</time>
      </trkpt>
      <trkpt lat="42.63755" lon="-0.32616">
        <time>2022-07-31T13:38:27Z</time>
      </trkpt>
      <trkpt lat="42.6374" lon="-0.32617">
        <time>2022-07-31T13:38:28Z</time>
      </trkpt>
      <trkpt lat="42.63725" lon="-0.32618">
        <time>2022-07-31T13:38:29Z</time>
      </trkpt>
      <trkpt lat="42.63712" lon="-0.32619">
        <time>2022-07-31T13:38:30Z</time>
      </trkpt>
      <trkpt lat="42.63698" lon="-0.32621">
        <time>2022-07-31T13:38:31Z</time>
      </trkpt>
      <trkpt lat="42.63684" lon="-0.32625">
        <time>2022-07-31T13:38:32Z</time>
      </trkpt>
      <trkpt lat="42.6367" lon="-0.3263">
        <time>2022-07-31T13:38:33Z</time>
      </trkpt>
      <trkpt lat="42.63656" lon="-0.32639">
        <time>2022-07-31T13:38:34Z</time>
      </trkpt>
      <trkpt lat="42.63642" lon="-0.32649">
        <time>2022-07-31T13:38:35Z</time>
      </trkpt>
      <trkpt lat="42.63629" lon="-0.32662">
        <time>2022-07-31T13:38:36Z</time>
      </trkpt>
      <trkpt lat="42.63616" lon="-0.32676">
        <time>2022-07-31T13:38:37Z</time>
      </trkpt>
      <trkpt lat="42.63604" lon="-0.32691">
        <time>2022-07-31T13:38:38Z</time>
      </trkpt>
      <trkpt lat="42.63592" lon="-0.32705">
        <time>2022-07-31T13:38:39Z</time>
      </trkpt>
      <trkpt lat="42.63579" lon="-0.32717">
        <time>2022-07-31T13:38:40Z</time>
      </trkpt>
      <trkpt lat="42.63566" lon="-0.32726">
        <time>2022-07-31T13:38:41Z</time>
      </trkpt>
      <trkpt lat="42.63552" lon="-0.32734">
        <time>2022-07-31T13:38:42Z</time>
      </trkpt>
      <trkpt lat="42.63537" lon="-0.32738">
        <time>2022-07-31T13:38:43Z</time>
      </trkpt>
      <trkpt lat="42.63522" lon="-0.3274">
        <time>2022-07-31T13:38:44Z</time>
      </trkpt>
      <trkpt lat="42.63506" lon="-0.32739">
        <time>2022-07-31T13:38:45Z</time>
      </trkpt>
      <trkpt lat="42.6349" lon="-0.32737">
        <time>2022-07-31T13:38:46Z</time>
      </trkpt>
      <trkpt lat="42.63475" lon="-0.32733">
        <time>2022-07-31T13:38:47Z</time>
      </trkpt>
      <trkpt lat="42.63459" lon="-0.32729">
        <time>2022-07-31T13:38:48Z</time>
      </trkpt>
      <trkpt lat="42.63444" lon="-0.32727">
        <time>2022-07-31T13:38:49Z</time>
      </trkpt>
      <trkpt lat="42.63428" lon="-0.32725">
        <time>2022-07-31T13:38:50Z</time>
      </trkpt>
      <trkpt lat="42.63412" lon="-0.32727">
        <time>2022-07-31T13:38:51Z</time>
      </trkpt>
      <trkpt lat="42.63397" lon="-0.32732">
        <time>2022-07-31T13:38:52Z</time>
      </trkpt>
      <trkpt lat="42.63382" lon="-0.32739">
        <time>2022-07-31T13:38:53Z</time>
      </trkpt>
      <trkpt lat="42.63367" lon="-0.32746">
        <time>2022-07-31T13:38:54Z</time>
      </trkpt>
      <trkpt lat="42.63353" lon="-0.32755">
        <time>2022-07-31T13:38:55Z</time>
      </trkpt>
      <trkpt lat="42.63339" lon="-0.32763">
        <time>2022-07-31T13:38:56Z</time>
      </trkpt>
      <trkpt lat="42.63325" lon="-0.32771">
        <time>2022-07-31T13:38:57Z</time>
      </trkpt>
      <trkpt lat="42.63311" lon="-0.32778">
        <time>2022-07-31T13:38:58Z</time>
      </trkpt>
      <trkpt lat="42.63296" lon="-0.32784">
        <time>2022-07-31T13:38:59Z</time>
      </trkpt>
      <trkpt lat="42.63281" lon="-0.32788">
        <time>2022-07-31T13:39:00Z</time>
      </trkpt>
      <trkpt lat="42.63266" lon="-0.32792">
        <time>2022-07-31T13:39:01Z</time>
      </trkpt>
      <trkpt lat="42.63251" lon="-0.32795">
        <time>2022-07-31T13:39:02Z</time>
      </trkpt>
      <trkpt lat="42.63235" lon="-0.32796">
        <time>2022-07-31T13:39:03Z</time>
      </trkpt>
      <trkpt lat="42.63219" lon="-0.32796">
        <time>2022-07-31T13:39:04Z</time>
      </trkpt>
      <trkpt lat="42.63204" lon="-0.32796">
        <time>2022-07-31T13:39:05Z</time>
      </trkpt>
      <trkpt lat="42.63189" lon="-0.32796">
        <time>2022-07-31T13:39:06Z</time>
      </trkpt>
      <trkpt lat="42.63174" lon="-0.32796">
        <time>2022-07-31T13:39:07Z</time>
      </trkpt>
      <trkpt lat="42.63158" lon="-0.32796">
        <time>2022-07-31T13:39:08Z</time>
      </trkpt>
      <trkpt lat="42.63143" lon="-0.32795">
        <time>2022-07-31T13:39:09Z</time>
      </trkpt>
      <trkpt lat="42.63128" lon="-0.32794">
        <time>2022-07-31T13:39:10Z</time>
      </trkpt>
      <trkpt lat="42.63113" lon="-0.3279">
        <time>2022-07-31T13:39:11Z</time>
      </trkpt>
      <trkpt lat="42.63099" lon="-0.32785">
        <time>2022-07-31T13:39:12Z</time>
      </trkpt>
      <trkpt lat="42.63086" lon="-0.32778">
        <time>2022-07-31T13:39:13Z</time>
      </trkpt>
      <trkpt lat="42.63074" lon="-0.3277">
        <time>2022-07-31T13:39:14Z</time>
      </trkpt>
      <trkpt lat="42.63063" lon="-0.32761">
        <time>2022-07-31T13:39:15Z</time>
      </trkpt>
      <trkpt lat="42.63052" lon="-0.32753">
        <time>2022-07-31T13:39:16Z</time>
      </trkpt>
      <trkpt lat="42.63043" lon="-0.32745">
        <time>2022-07-31T13:39:17Z</time>
      </trkpt>
      <trkpt lat="42.63034" lon="-0.3274">
        <time>2022-07-31T13:39:18Z</time>
      </trkpt>
      <trkpt lat="42.63025" lon="-0.32736">
        <time>2022-07-31T13:39:19Z</time>
      </trkpt>
      <trkpt lat="42.63015" lon="-0.32733">
        <time>2022-07-31T13:39:20Z</time>
      </trkpt>
      <trkpt lat="42.63005" lon="-0.32731">
        <time>2022-07-31T13:39:21Z</time>
      </trkpt>
      <trkpt lat="42.62993" lon="-0.32732">
        <time>2022-07-31T13:39:22Z</time>
      </trkpt>
      <trkpt lat="42.62981" lon="-0.32733">
        <time>2022-07-31T13:39:23Z</time>
      </trkpt>
      <trkpt lat="42.62969" lon="-0.32735">
        <time>2022-07-31T13:39:24Z</time>
      </trkpt>
      <trkpt lat="42.62955" lon="-0.32738">
        <time>2022-07-31T13:39:25Z</time>
      </trkpt>
      <trkpt lat="42.6294" lon="-0.32742">
        <time>2022-07-31T13:39:26Z</time>
      </trkpt>
      <trkpt lat="42.62924" lon="-0.32745">
        <time>2022-07-31T13:39:27Z</time>
      </trkpt>
      <trkpt lat="42.62906" lon="-0.32748">
        <time>2022-07-31T13:39:28Z</time>
      </trkpt>
      <trkpt lat="42.62886" lon="-0.32751">
        <time>2022-07-31T13:39:29Z</time>
      </trkpt>
      <trkpt lat="42.62865" lon="-0.32752">
        <time>2022-07-31T13:39:30Z</time>
      </trkpt>
      <trkpt lat="42.62843" lon="-0.32753">
        <time>2022-07-31T13:39:31Z</time>
      </trkpt>
      <trkpt lat="42.62818" lon="-0.32752">
        <time>2022-07-31T13:39:32Z</time>
      </trkpt>
      <trkpt lat="42.62792" lon="-0.32751">
        <time>2022-07-31T13:39:33Z</time>
      </trkpt>
      <trkpt lat="42.62765" lon="-0.32751">
        <time>2022-07-31T13:39:34Z</time>
      </trkpt>
      <trkpt lat="42.62738" lon="-0.32751">
        <time>2022-07-31T13:39:35Z</time>
      </trkpt>
      <trkpt lat="42.62712" lon="-0.32752">
        <time>2022-07-31T13:39:36Z</time>
      </trkpt>
      <trkpt lat="42.62687" lon="-0.32753">
        <time>2022-07-31T13:39:37Z</time>
      </trkpt>
      <trkpt lat="42.62661" lon="-0.32753">
        <time>2022-07-31T13:39:38Z</time>
      </trkpt>
      <trkpt lat="42.62636" lon="-0.32753">
        <time>2022-07-31T13:39:39Z</time>
      </trkpt>
      <trkpt lat="42.6261" lon="-0.32753">
        <time>2022-07-31T13:39:40Z</time>
      </trkpt>
      <trkpt lat="42.62585" lon="-0.32752">
        <time>2022-07-31T13:39:41Z</time>
      </trkpt>
      <trkpt lat="42.62558" lon="-0.32751">
        <time>2022-07-31T13:39:42Z</time>
      </trkpt>
      <trkpt lat="42.6253" lon="-0.3275">
        <time>2022-07-31T13:39:43Z</time>
      </trkpt>
      <trkpt lat="42.62501" lon="-0.32748">
        <time>2022-07-31T13:39:44Z</time>
      </trkpt>
      <trkpt lat="42.62471" lon="-0.32747">
        <time>2022-07-31T13:39:45Z</time>
      </trkpt>
      <trkpt lat="42.6244" lon="-0.32746">
        <time>2022-07-31T13:39:46Z</time>
      </trkpt>
      <trkpt lat="42.62408" lon="-0.32746">
        <time>2022-07-31T13:39:47Z</time>
      </trkpt>
      <trkpt lat="42.62375" lon="-0.32746">
        <time>2022-07-31T13:39:48Z</time>
      </trkpt>
      <trkpt lat="42.62344" lon="-0.32747">
        <time>2022-07-31T13:39:49Z</time>
      </trkpt>
      <trkpt lat="42.62312" lon="-0.32748">
        <time>2022-07-31T13:39:50Z</time>
      </trkpt>
      <trkpt lat="42.62281" lon="-0.32748">
        <time>2022-07-31T13:39:51Z</time>
      </trkpt>
      <trkpt lat="42.62249" lon="-0.32748">
        <time>2022-07-31T13:39:52Z</time>
      </trkpt>
      <trkpt lat="42.62219" lon="-0.32748">
        <time>2022-07-31T13:39:53Z</time>
      </trkpt>
      <trkpt lat="42.62189" lon="-0.32748">
        <time>2022-07-31T13:39:54Z</time>
      </trkpt>
      <trkpt lat="42.62159" lon="-0.32747">
        <time>2022-07-31T13:39:55Z</time>
      </trkpt>
      <trkpt lat="42.6213" lon="-0.32747">
        <time>2022-07-31T13:39:56Z</time>
      </trkpt>
      <trkpt lat="42.62101" lon="-0.32747">
        <time>2022-07-31T13:39:57Z</time>
      </trkpt>
      <trkpt lat="42.62072" lon="-0.32746">
        <time>2022-07-31T13:39:58Z</time>
      </trkpt>
      <trkpt lat="42.62043" lon="-0.32745">
        <time>2022-07-31T13:39:59Z</time>
      </trkpt>
      <trkpt lat="42.62014" lon="-0.32745">
        <time>2022-07-31T13:40:00Z</time>
      </trkpt>
      <trkpt lat="42.61986" lon="-0.32745">
        <time>2022-07-31T13:40:01Z</time>
      </trkpt>
      <trkpt lat="42.61958" lon="-0.32745">
        <time>2022-07-31T13:40:02Z</time>
      </trkpt>
      <trkpt lat="42.61929" lon="-0.32745">
        <time>2022-07-31T13:40:03Z</time>
      </trkpt>
      <trkpt lat="42.619" lon="-0.32746">
        <time>2022-07-31T13:40:04Z</time>
      </trkpt>
      <trkpt lat="42.61872" lon="-0.32746">
        <time>2022-07-31T13:40:05Z</time>
      </trkpt>
      <trkpt lat="42.61843" lon="-0.32747">
        <time>2022-07-31T13:40:06Z</time>
      </trkpt>
      <trkpt lat="42.61815" lon="-0.32748">
        <time>2022-07-31T13:40:07Z</time>
      </trkpt>
      <trkpt lat="42.61786" lon="-0.3275">
        <time>2022-07-31T13:40:08Z</time>
      </trkpt>
      <trkpt lat="42.61757" lon="-0.32752">
        <time>2022-07-31T13:40:09Z</time>
      </trkpt>
      <trkpt lat="42.61728" lon="-0.32752">
        <time>2022-07-31T13:40:10Z</time>
      </trkpt>
      <trkpt lat="42.61699" lon="-0.32754">
        <time>2022-07-31T13:40:11Z</time>
      </trkpt>
      <trkpt lat="42.61671" lon="-0.32755">
        <time>2022-07-31T13:40:12Z</time>
      </trkpt>
      <trkpt lat="42.61643" lon="-0.32756">
        <time>2022-07-31T13:40:13Z</time>
      </trkpt>
      <trkpt lat="42.61616" lon="-0.32757">
        <time>2022-07-31T13:40:14Z</time>
      </trkpt>
      <trkpt lat="42.61588" lon="-0.32759">
        <time>2022-07-31T13:40:15Z</time>
      </trkpt>
      <trkpt lat="42.61561" lon="-0.32761">
        <time>2022-07-31T13:40:16Z</time>
      </trkpt>
      <trkpt lat="42.61535" lon="-0.32762">
        <time>2022-07-31T13:40:17Z</time>
      </trkpt>
      <trkpt lat="42.61508" lon="-0.32763">
        <time>2022-07-31T13:40:18Z</time>
      </trkpt>
      <trkpt lat="42.61481" lon="-0.32764">
        <time>2022-07-31T13:40:19Z</time>
      </trkpt>
      <trkpt lat="42.61455" lon="-0.32765">
        <time>2022-07-31T13:40:20Z</time>
      </trkpt>
      <trkpt lat="42.61429" lon="-0.32766">
        <time>2022-07-31T13:40:21Z</time>
      </trkpt>
      <trkpt lat="42.61402" lon="-0.32768">
        <time>2022-07-31T13:40:22Z</time>
      </trkpt>
      <trkpt lat="42.61376" lon="-0.32769">
        <time>2022-07-31T13:40:23Z</time>
      </trkpt>
      <trkpt lat="42.61349" lon="-0.3277">
        <time>2022-07-31T13:40:24Z</time>
      </trkpt>
      <trkpt lat="42.61322" lon="-0.32772">
        <time>2022-07-31T13:40:25Z</time>
      </trkpt>
      <trkpt lat="42.61295" lon="-0.32773">
        <time>2022-07-31T13:40:26Z</time>
      </trkpt>
      <trkpt lat="42.61269" lon="-0.32774">
        <time>2022-07-31T13:40:27Z</time>
      </trkpt>
      <trkpt lat="42.61242" lon="-0.32776">
        <time>2022-07-31T13:40:28Z</time>
      </trkpt>
      <trkpt lat="42.61214" lon="-0.32777">
        <time>2022-07-31T13:40:29Z</time>
      </trkpt>
      <trkpt lat="42.61187" lon="-0.32778">
        <time>2022-07-31T13:40:30Z</time>
      </trkpt>
      <trkpt lat="42.61161" lon="-0.3278">
        <time>2022-07-31T13:40:31Z</time>
      </trkpt>
      <trkpt lat="42.61134" lon="-0.32781">
        <time>2022-07-31T13:40:32Z</time>
      </trkpt>
      <trkpt lat="42.61106" lon="-0.32782">
        <time>2022-07-31T13:40:33Z</time>
      </trkpt>
      <trkpt lat="42.61079" lon="-0.32784">
        <time>2022-07-31T13:40:34Z</time>
      </trkpt>
      <trkpt lat="42.61052" lon="-0.32785">
        <time>2022-07-31T13:40:35Z</time>
      </trkpt>
      <trkpt lat="42.61024" lon="-0.32787">
        <time>2022-07-31T13:40:36Z</time>
      </trkpt>
      <trkpt lat="42.60997" lon="-0.32788">
        <time>2022-07-31T13:40:37Z</time>
      </trkpt>
      <trkpt lat="42.60971" lon="-0.3279">
        <time>2022-07-31T13:40:38Z</time>
      </trkpt>
      <trkpt lat="42.60944" lon="-0.32791">
        <time>2022-07-31T13:40:39Z</time>
      </trkpt>
      <trkpt lat="42.60916" lon="-0.32792">
        <time>2022-07-31T13:40:40Z</time>
      </trkpt>
      <trkpt lat="42.60889" lon="-0.32793">
        <time>2022-07-31T13:40:41Z</time>
      </trkpt>
      <trkpt lat="42.60862" lon="-0.32794">
        <time>2022-07-31T13:40:42Z</time>
      </trkpt>
      <trkpt lat="42.60835" lon="-0.32796">
        <time>2022-07-31T13:40:43Z</time>
      </trkpt>
      <trkpt lat="42.60807" lon="-0.32798">
        <time>2022-07-31T13:40:44Z</time>
      </trkpt>
      <trkpt lat="42.60778" lon="-0.32799">
        <time>2022-07-31T13:40:45Z</time>
      </trkpt>
      <trkpt lat="42.6075" lon="-0.328">
        <time>2022-07-31T13:40:46Z</time>
      </trkpt>
      <trkpt lat="42.60721" lon="-0.32801">
        <time>2022-07-31T13:40:47Z</time>
      </trkpt>
      <trkpt lat="42.60692" lon="-0.32803">
        <time>2022-07-31T13:40:48Z</time>
      </trkpt>
      <trkpt lat="42.60664" lon="-0.32805">
        <time>2022-07-31T13:40:49Z</time>
      </trkpt>
      <trkpt lat="42.60636" lon="-0.32806">
        <time>2022-07-31T13:40:50Z</time>
      </trkpt>
      <trkpt lat="42.60608" lon="-0.32807">
        <time>2022-07-31T13:40:51Z</time>
      </trkpt>
      <trkpt lat="42.6058" lon="-0.32809">
        <time>2022-07-31T13:40:52Z</time>
      </trkpt>
      <trkpt lat="42.60552" lon="-0.32811">
        <time>2022-07-31T13:40:53Z</time>
      </trkpt>
      <trkpt lat="42.60525" lon="-0.32812">
        <time>2022-07-31T13:40:54Z</time>
      </trkpt>
      <trkpt lat="42.60498" lon="-0.32814">
        <time>2022-07-31T13:40:55Z</time>
      </trkpt>
      <trkpt lat="42.60471" lon="-0.32815">
        <time>2022-07-31T13:40:56Z</time>
      </trkpt>
      <trkpt lat="42.60444" lon="-0.32817">
        <time>2022-07-31T13:40:57Z</time>
      </trkpt>
      <trkpt lat="42.60417" lon="-0.32819">
        <time>2022-07-31T13:40:58Z</time>
      </trkpt>
      <trkpt lat="42.6039" lon="-0.3282">
        <time>2022-07-31T13:40:59Z</time>
      </trkpt>
      <trkpt lat="42.60364" lon="-0.3282">
        <time>2022-07-31T13:41:00Z</time>
      </trkpt>
      <trkpt lat="42.60337" lon="-0.32819">
        <time>2022-07-31T13:41:01Z</time>
      </trkpt>
      <trkpt lat="42.6031" lon="-0.32816">
        <time>2022-07-31T13:41:02Z</time>
      </trkpt>
      <trkpt lat="42.60284" lon="-0.3281">
        <time>2022-07-31T13:41:03Z</time>
      </trkpt>
      <trkpt lat="42.60257" lon="-0.32802">
        <time>2022-07-31T13:41:04Z</time>
      </trkpt>
      <trkpt lat="42.60231" lon="-0.32793">
        <time>2022-07-31T13:41:05Z</time>
      </trkpt>
      <trkpt lat="42.60205" lon="-0.32784">
        <time>2022-07-31T13:41:06Z</time>
      </trkpt>
      <trkpt lat="42.60178" lon="-0.32775">
        <time>2022-07-31T13:41:07Z</time>
      </trkpt>
      <trkpt lat="42.60152" lon="-0.32765">
        <time>2022-07-31T13:41:08Z</time>
      </trkpt>
      <trkpt lat="42.60125" lon="-0.32756">
        <time>2022-07-31T13:41:09Z</time>
      </trkpt>
      <trkpt lat="42.60099" lon="-0.32748">
        <time>2022-07-31T13:41:10Z</time>
      </trkpt>
      <trkpt lat="42.60073" lon="-0.32738">
        <time>2022-07-31T13:41:11Z</time>
      </trkpt>
      <trkpt lat="42.60047" lon="-0.32729">
        <time>2022-07-31T13:41:12Z</time>
      </trkpt>
      <trkpt lat="42.6002" lon="-0.3272">
        <time>2022-07-31T13:41:13Z</time>
      </trkpt>
      <trkpt lat="42.59993" lon="-0.32711">
        <time>2022-07-31T13:41:14Z</time>
      </trkpt>
      <trkpt lat="42.59966" lon="-0.32704">
        <time>2022-07-31T13:41:15Z</time>
      </trkpt>
      <trkpt lat="42.59939" lon="-0.32701">
        <time>2022-07-31T13:41:16Z</time>
      </trkpt>
      <trkpt lat="42.59911" lon="-0.327">
        <time>2022-07-31T13:41:17Z</time>
      </trkpt>
      <trkpt lat="42.59883" lon="-0.32699">
        <time>2022-07-31T13:41:18Z</time>
      </trkpt>
      <trkpt lat="42.59856" lon="-0.327">
        <time>2022-07-31T13:41:19Z</time>
      </trkpt>
      <trkpt lat="42.59829" lon="-0.327">
        <time>2022-07-31T13:41:20Z</time>
      </trkpt>
      <trkpt lat="42.59803" lon="-0.32699">
        <time>2022-07-31T13:41:21Z</time>
      </trkpt>
      <trkpt lat="42.59777" lon="-0.32699">
        <time>2022-07-31T13:41:22Z</time>
      </trkpt>
      <trkpt lat="42.59751" lon="-0.32699">
        <time>2022-07-31T13:41:23Z</time>
      </trkpt>
      <trkpt lat="42.59725" lon="-0.32699">
        <time>2022-07-31T13:41:24Z</time>
      </trkpt>
      <trkpt lat="42.597" lon="-0.32699">
        <time>2022-07-31T13:41:25Z</time>
      </trkpt>
      <trkpt lat="42.59675" lon="-0.32699">
        <time>2022-07-31T13:41:26Z</time>
      </trkpt>
      <trkpt lat="42.59651" lon="-0.327">
        <time>2022-07-31T13:41:27Z</time>
      </trkpt>
      <trkpt lat="42.59626" lon="-0.327">
        <time>2022-07-31T13:41:28Z</time>
      </trkpt>
      <trkpt lat="42.59602" lon="-0.327">
        <time>2022-07-31T13:41:29Z</time>
      </trkpt>
      <trkpt lat="42.59577" lon="-0.327">
        <time>2022-07-31T13:41:30Z</time>
      </trkpt>
      <trkpt lat="42.59553" lon="-0.327">
        <time>2022-07-31T13:41:31Z</time>
      </trkpt>
      <trkpt lat="42.59529" lon="-0.327">
        <time>2022-07-31T13:41:32Z</time>
      </trkpt>
      <trkpt lat="42.59505" lon="-0.327">
        <time>2022-07-31T13:41:33Z</time>
      </trkpt>
      <trkpt lat="42.59483" lon="-0.327">
        <time>2022-07-31T13:41:34Z</time>
      </trkpt>
      <trkpt lat="42.59461" lon="-0.327">
        <time>2022-07-31T13:41:35Z</time>
      </trkpt>
      <trkpt lat="42.59439" lon="-0.32701">
        <time>2022-07-31T13:41:36Z</time>
      </trkpt>
      <trkpt lat="42.59417" lon="-0.32701">
        <time>2022-07-31T13:41:37Z</time>
      </trkpt>
      <trkpt lat="42.59396" lon="-0.32701">
        <time>2022-07-31T13:41:38Z</time>
      </trkpt>
      <trkpt lat="42.59377" lon="-0.32702">
        <time>2022-07-31T13:41:39Z</time>
      </trkpt>
      <trkpt lat="42.59356" lon="-0.32702">
        <time>2022-07-31T13:41:40Z</time>
      </trkpt>
      <trkpt lat="42.59334" lon="-0.32702">
        <time>2022-07-31T13:41:41Z</time>
      </trkpt>
      <trkpt lat="42.59312" lon="-0.32702">
        <time>2022-07-31T13:41:42Z</time>
      </trkpt>
      <trkpt lat="42.59289" lon="-0.32701">
        <time>2022-07-31T13:41:43Z</time>
      </trkpt>
      <trkpt lat="42.59265" lon="-0.32702">
        <time>2022-07-31T13:41:44Z</time>
      </trkpt>
      <trkpt lat="42.59239" lon="-0.32703">
        <time>2022-07-31T13:41:45Z</time>
      </trkpt>
      <trkpt lat="42.59214" lon="-0.32704">
        <time>2022-07-31T13:41:46Z</time>
      </trkpt>
      <trkpt lat="42.59189" lon="-0.32705">
        <time>2022-07-31T13:41:47Z</time>
      </trkpt>
      <trkpt lat="42.59163" lon="-0.32705">
        <time>2022-07-31T13:41:48Z</time>
      </trkpt>
      <trkpt lat="42.59136" lon="-0.32705">
        <time>2022-07-31T13:41:49Z</time>
      </trkpt>
      <trkpt lat="42.59109" lon="-0.32705">
        <time>2022-07-31T13:41:50Z</time>
      </trkpt>
      <trkpt lat="42.59081" lon="-0.32706">
        <time>2022-07-31T13:41:51Z</time>
      </trkpt>
      <trkpt lat="42.59054" lon="-0.32708">
        <time>2022-07-31T13:41:52Z</time>
      </trkpt>
      <trkpt lat="42.59026" lon="-0.32709">
        <time>2022-07-31T13:41:53Z</time>
      </trkpt>
      <trkpt lat="42.58999" lon="-0.32709">
        <time>2022-07-31T13:41:54Z</time>
      </trkpt>
      <trkpt lat="42.58972" lon="-0.32711">
        <time>2022-07-31T13:41:55Z</time>
      </trkpt>
      <trkpt lat="42.58945" lon="-0.32711">
        <time>2022-07-31T13:41:56Z</time>
      </trkpt>
      <trkpt lat="42.58919" lon="-0.32713">
        <time>2022-07-31T13:41:57Z</time>
      </trkpt>
      <trkpt lat="42.58893" lon="-0.32713">
        <time>2022-07-31T13:41:58Z</time>
      </trkpt>
      <trkpt lat="42.58868" lon="-0.32714">
        <time>2022-07-31T13:41:59Z</time>
      </trkpt>
      <trkpt lat="42.58844" lon="-0.32714">
        <time>2022-07-31T13:42:00Z</time>
      </trkpt>
      <trkpt lat="42.58819" lon="-0.32715">
        <time>2022-07-31T13:42:01Z</time>
      </trkpt>
      <trkpt lat="42.58794" lon="-0.32715">
        <time>2022-07-31T13:42:02Z</time>
      </trkpt>
      <trkpt lat="42.58769" lon="-0.32715">
        <time>2022-07-31T13:42:03Z</time>
      </trkpt>
      <trkpt lat="42.58745" lon="-0.32716">
        <time>2022-07-31T13:42:04Z</time>
      </trkpt>
      <trkpt lat="42.5872" lon="-0.32716">
        <time>2022-07-31T13:42:05Z</time>
      </trkpt>
      <trkpt lat="42.58695" lon="-0.32717">
        <time>2022-07-31T13:42:06Z</time>
      </trkpt>
      <trkpt lat="42.5867" lon="-0.32717">
        <time>2022-07-31T13:42:07Z</time>
      </trkpt>
      <trkpt lat="42.58644" lon="-0.32718">
        <time>2022-07-31T13:42:08Z</time>
      </trkpt>
      <trkpt lat="42.58619" lon="-0.32719">
        <time>2022-07-31T13:42:09Z</time>
      </trkpt>
      <trkpt lat="42.58594" lon="-0.32719">
        <time>2022-07-31T13:42:10Z</time>
      </trkpt>
      <trkpt lat="42.58568" lon="-0.3272">
        <time>2022-07-31T13:42:11Z</time>
      </trkpt>
      <trkpt lat="42.58542" lon="-0.3272">
        <time>2022-07-31T13:42:12Z</time>
      </trkpt>
      <trkpt lat="42.58516" lon="-0.3272">
        <time>2022-07-31T13:42:13Z</time>
      </trkpt>
      <trkpt lat="42.58491" lon="-0.3272">
        <time>2022-07-31T13:42:14Z</time>
      </trkpt>
      <trkpt lat="42.58466" lon="-0.32721">
        <time>2022-07-31T13:42:15Z</time>
      </trkpt>
      <trkpt lat="42.58441" lon="-0.32722">
        <time>2022-07-31T13:42:16Z</time>
      </trkpt>
      <trkpt lat="42.58417" lon="-0.32722">
        <time>2022-07-31T13:42:17Z</time>
      </trkpt>
      <trkpt lat="42.58392" lon="-0.32722">
        <time>2022-07-31T13:42:18Z</time>
      </trkpt>
      <trkpt lat="42.58369" lon="-0.32722">
        <time>2022-07-31T13:42:19Z</time>
      </trkpt>
      <trkpt lat="42.58345" lon="-0.32722">
        <time>2022-07-31T13:42:20Z</time>
      </trkpt>
      <trkpt lat="42.58322" lon="-0.32721">
        <time>2022-07-31T13:42:21Z</time>
      </trkpt>
      <trkpt lat="42.58298" lon="-0.32719">
        <time>2022-07-31T13:42:22Z</time>
      </trkpt>
      <trkpt lat="42.58274" lon="-0.32717">
        <time>2022-07-31T13:42:23Z</time>
      </trkpt>
      <trkpt lat="42.58252" lon="-0.32713">
        <time>2022-07-31T13:42:24Z</time>
      </trkpt>
      <trkpt lat="42.5823" lon="-0.32707">
        <time>2022-07-31T13:42:25Z</time>
      </trkpt>
      <trkpt lat="42.58207" lon="-0.32699">
        <time>2022-07-31T13:42:26Z</time>
      </trkpt>
      <trkpt lat="42.58186" lon="-0.3269">
        <time>2022-07-31T13:42:27Z</time>
      </trkpt>
      <trkpt lat="42.58164" lon="-0.32679">
        <time>2022-07-31T13:42:28Z</time>
      </trkpt>
      <trkpt lat="42.58143" lon="-0.32667">
        <time>2022-07-31T13:42:29Z</time>
      </trkpt>
      <trkpt lat="42.58123" lon="-0.32655">
        <time>2022-07-31T13:42:30Z</time>
      </trkpt>
      <trkpt lat="42.58103" lon="-0.32643">
        <time>2022-07-31T13:42:31Z</time>
      </trkpt>
      <trkpt lat="42.58084" lon="-0.3263">
        <time>2022-07-31T13:42:32Z</time>
      </trkpt>
      <trkpt lat="42.58064" lon="-0.32618">
        <time>2022-07-31T13:42:33Z</time>
      </trkpt>
      <trkpt lat="42.58045" lon="-0.32606">
        <time>2022-07-31T13:42:34Z</time>
      </trkpt>
      <trkpt lat="42.58027" lon="-0.32594">
        <time>2022-07-31T13:42:35Z</time>
      </trkpt>
      <trkpt lat="42.58008" lon="-0.32582">
        <time>2022-07-31T13:42:36Z</time>
      </trkpt>
      <trkpt lat="42.5799" lon="-0.32571">
        <time>2022-07-31T13:42:37Z</time>
      </trkpt>
      <trkpt lat="42.57973" lon="-0.32559">
        <time>2022-07-31T13:42:38Z</time>
      </trkpt>
      <trkpt lat="42.57955" lon="-0.32547">
        <time>2022-07-31T13:42:39Z</time>
      </trkpt>
      <trkpt lat="42.57937" lon="-0.32536">
        <time>2022-07-31T13:42:40Z</time>
      </trkpt>
      <trkpt lat="42.57919" lon="-0.32524">
        <time>2022-07-31T13:42:41Z</time>
      </trkpt>
      <trkpt lat="42.57901" lon="-0.32513">
        <time>2022-07-31T13:42:42Z</time>
      </trkpt>
      <trkpt lat="42.57883" lon="-0.32503">
        <time>2022-07-31T13:42:43Z</time>
      </trkpt>
      <trkpt lat="42.57865" lon="-0.32492">
        <time>2022-07-31T13:42:44Z</time>
      </trkpt>
      <trkpt lat="42.57846" lon="-0.32481">
        <time>2022-07-31T13:42:45Z</time>
      </trkpt>
      <trkpt lat="42.57828" lon="-0.32471">
        <time>2022-07-31T13:42:46Z</time>
      </trkpt>
      <trkpt lat="42.57809" lon="-0.32462">
        <time>2022-07-31T13:42:47Z</time>
      </trkpt>
      <trkpt lat="42.57791" lon="-0.32454">
        <time>2022-07-31T13:42:48Z</time>
      </trkpt>
      <trkpt lat="42.57773" lon="-0.32447">
        <time>2022-07-31T13:42:49Z</time>
      </trkpt>
      <trkpt lat="42.57755" lon="-0.32441">
        <time>2022-07-31T13:42:50Z</time>
      </trkpt>
      <trkpt lat="42.57736" lon="-0.32435">
        <time>2022-07-31T13:42:51Z</time>
      </trkpt>
      <trkpt lat="42.57717" lon="-0.3243">
        <time>2022-07-31T13:42:52Z</time>
      </trkpt>
      <trkpt lat="42.57697" lon="-0.32426">
        <time>2022-07-31T13:42:53Z</time>
      </trkpt>
      <trkpt lat="42.57677" lon="-0.32422">
        <time>2022-07-31T13:42:54Z</time>
      </trkpt>
      <trkpt lat="42.57656" lon="-0.32419">
        <time>2022-07-31T13:42:55Z</time>
      </trkpt>
      <trkpt lat="42.57636" lon="-0.32417">
        <time>2022-07-31T13:42:56Z</time>
      </trkpt>
      <trkpt lat="42.57615" lon="-0.32416">
        <time>2022-07-31T13:42:57Z</time>
      </trkpt>
      <trkpt lat="42.57593" lon="-0.32416">
        <time>2022-07-31T13:42:58Z</time>
      </trkpt>
      <trkpt lat="42.57572" lon="-0.32417">
        <time>2022-07-31T13:42:59Z</time>
      </trkpt>
      <trkpt lat="42.57551" lon="-0.32419">
        <time>2022-07-31T13:43:00Z</time>
      </trkpt>
      <trkpt lat="42.57529" lon="-0.32422">
        <time>2022-07-31T13:43:01Z</time>
      </trkpt>
      <trkpt lat="42.57508" lon="-0.32425">
        <time>2022-07-31T13:43:02Z</time>
      </trkpt>
      <trkpt lat="42.57486" lon="-0.3243">
        <time>2022-07-31T13:43:03Z</time>
      </trkpt>
      <trkpt lat="42.57465" lon="-0.32436">
        <time>2022-07-31T13:43:04Z</time>
      </trkpt>
      <trkpt lat="42.57443" lon="-0.32443">
        <time>2022-07-31T13:43:05Z</time>
      </trkpt>
      <trkpt lat="42.57423" lon="-0.3245">
        <time>2022-07-31T13:43:06Z</time>
      </trkpt>
      <trkpt lat="42.57403" lon="-0.32457">
        <time>2022-07-31T13:43:07Z</time>
      </trkpt>
      <trkpt lat="42.57384" lon="-0.32463">
        <time>2022-07-31T13:43:08Z</time>
      </trkpt>
      <trkpt lat="42.57365" lon="-0.3247">
        <time>2022-07-31T13:43:09Z</time>
      </trkpt>
      <trkpt lat="42.57347" lon="-0.32476">
        <time>2022-07-31T13:43:10Z</time>
      </trkpt>
      <trkpt lat="42.57328" lon="-0.32482">
        <time>2022-07-31T13:43:11Z</time>
      </trkpt>
      <trkpt lat="42.57309" lon="-0.32488">
        <time>2022-07-31T13:43:12Z</time>
      </trkpt>
      <trkpt lat="42.5729" lon="-0.32494">
        <time>2022-07-31T13:43:13Z</time>
      </trkpt>
      <trkpt lat="42.57272" lon="-0.32499">
        <time>2022-07-31T13:43:14Z</time>
      </trkpt>
      <trkpt lat="42.57253" lon="-0.32503">
        <time>2022-07-31T13:43:15Z</time>
      </trkpt>
      <trkpt lat="42.57234" lon="-0.32507">
        <time>2022-07-31T13:43:16Z</time>
      </trkpt>
      <trkpt lat="42.57213" lon="-0.32511">
        <time>2022-07-31T13:43:17Z</time>
      </trkpt>
      <trkpt lat="42.57193" lon="-0.32515">
        <time>2022-07-31T13:43:18Z</time>
      </trkpt>
      <trkpt lat="42.57172" lon="-0.32519">
        <time>2022-07-31T13:43:19Z</time>
      </trkpt>
      <trkpt lat="42.57152" lon="-0.32521">
        <time>2022-07-31T13:43:20Z</time>
      </trkpt>
      <trkpt lat="42.57132" lon="-0.32524">
        <time>2022-07-31T13:43:21Z</time>
      </trkpt>
      <trkpt lat="42.57111" lon="-0.32526">
        <time>2022-07-31T13:43:22Z</time>
      </trkpt>
      <trkpt lat="42.57092" lon="-0.32529">
        <time>2022-07-31T13:43:23Z</time>
      </trkpt>
      <trkpt lat="42.57072" lon="-0.32533">
        <time>2022-07-31T13:43:24Z</time>
      </trkpt>
      <trkpt lat="42.57054" lon="-0.32538">
        <time>2022-07-31T13:43:25Z</time>
      </trkpt>
      <trkpt lat="42.57035" lon="-0.32543">
        <time>2022-07-31T13:43:26Z</time>
      </trkpt>
      <trkpt lat="42.57016" lon="-0.32549">
        <time>2022-07-31T13:43:27Z</time>
      </trkpt>
      <trkpt lat="42.56998" lon="-0.32555">
        <time>2022-07-31T13:43:28Z</time>
      </trkpt>
      <trkpt lat="42.56979" lon="-0.32562">
        <time>2022-07-31T13:43:29Z</time>
      </trkpt>
      <trkpt lat="42.5696" lon="-0.3257">
        <time>2022-07-31T13:43:30Z</time>
      </trkpt>
      <trkpt lat="42.56941" lon="-0.32579">
        <time>2022-07-31T13:43:31Z</time>
      </trkpt>
      <trkpt lat="42.56923" lon="-0.32588">
        <time>2022-07-31T13:43:32Z</time>
      </trkpt>
      <trkpt lat="42.56905" lon="-0.32598">
        <time>2022-07-31T13:43:33Z</time>
      </trkpt>
      <trkpt lat="42.56886" lon="-0.32609">
        <time>2022-07-31T13:43:34Z</time>
      </trkpt>
      <trkpt lat="42.56865" lon="-0.3262">
        <time>2022-07-31T13:43:35Z</time>
      </trkpt>
      <trkpt lat="42.56844" lon="-0.32632">
        <time>2022-07-31T13:43:36Z</time>
      </trkpt>
      <trkpt lat="42.56821" lon="-0.32646">
        <time>2022-07-31T13:43:37Z</time>
      </trkpt>
      <trkpt lat="42.56797" lon="-0.32661">
        <time>2022-07-31T13:43:38Z</time>
      </trkpt>
      <trkpt lat="42.56773" lon="-0.32677">
        <time>2022-07-31T13:43:39Z</time>
      </trkpt>
      <trkpt lat="42.56748" lon="-0.32694">
        <time>2022-07-31T13:43:40Z</time>
      </trkpt>
      <trkpt lat="42.56724" lon="-0.3271">
        <time>2022-07-31T13:43:41Z</time>
      </trkpt>
      <trkpt lat="42.567" lon="-0.32726">
        <time>2022-07-31T13:43:42Z</time>
      </trkpt>
      <trkpt lat="42.56677" lon="-0.32742">
        <time>2022-07-31T13:43:43Z</time>
      </trkpt>
      <trkpt lat="42.56655" lon="-0.32757">
        <time>2022-07-31T13:43:44Z</time>
      </trkpt>
      <trkpt lat="42.56634" lon="-0.32771">
        <time>2022-07-31T13:43:45Z</time>
      </trkpt>
      <trkpt lat="42.56613" lon="-0.32784">
        <time>2022-07-31T13:43:46Z</time>
      </trkpt>
      <trkpt lat="42.56593" lon="-0.32797">
        <time>2022-07-31T13:43:47Z</time>
      </trkpt>
      <trkpt lat="42.56573" lon="-0.32809">
        <time>2022-07-31T13:43:48Z</time>
      </trkpt>
      <trkpt lat="42.56554" lon="-0.32821">
        <time>2022-07-31T13:43:49Z</time>
      </trkpt>
      <trkpt lat="42.56535" lon="-0.32834">
        <time>2022-07-31T13:43:50Z</time>
      </trkpt>
      <trkpt lat="42.56517" lon="-0.32846">
        <time>2022-07-31T13:43:51Z</time>
      </trkpt>
      <trkpt lat="42.56498" lon="-0.32858">
        <time>2022-07-31T13:43:52Z</time>
      </trkpt>
      <trkpt lat="42.5648" lon="-0.32869">
        <time>2022-07-31T13:43:53Z</time>
      </trkpt>
      <trkpt lat="42.56462" lon="-0.32881">
        <time>2022-07-31T13:43:54Z</time>
      </trkpt>
      <trkpt lat="42.56444" lon="-0.32893">
        <time>2022-07-31T13:43:55Z</time>
      </trkpt>
      <trkpt lat="42.56426" lon="-0.32905">
        <time>2022-07-31T13:43:56Z</time>
      </trkpt>
      <trkpt lat="42.56408" lon="-0.32917">
        <time>2022-07-31T13:43:57Z</time>
      </trkpt>
      <trkpt lat="42.56391" lon="-0.32928">
        <time>2022-07-31T13:43:58Z</time>
      </trkpt>
      <trkpt lat="42.56374" lon="-0.3294">
        <time>2022-07-31T13:43:59Z</time>
      </trkpt>
      <trkpt lat="42.56356" lon="-0.32952">
        <time>2022-07-31T13:44:00Z</time>
      </trkpt>
      <trkpt lat="42.56338" lon="-0.32963">
        <time>2022-07-31T13:44:01Z</time>
      </trkpt>
      <trkpt lat="42.5632" lon="-0.32975">
        <time>2022-07-31T13:44:02Z</time>
      </trkpt>
      <trkpt lat="42.56303" lon="-0.32987">
        <time>2022-07-31T13:44:03Z</time>
      </trkpt>
      <trkpt lat="42.56285" lon="-0.32999">
        <time>2022-07-31T13:44:04Z</time>
      </trkpt>
      <trkpt lat="42.56267" lon="-0.33014">
        <time>2022-07-31T13:44:05Z</time>
      </trkpt>
      <trkpt lat="42.56249" lon="-0.33029">
        <time>2022-07-31T13:44:06Z</time>
      </trkpt>
      <trkpt lat="42.5623" lon="-0.33047">
        <time>2022-07-31T13:44:07Z</time>
      </trkpt>
      <trkpt lat="42.56212" lon="-0.33067">
        <time>2022-07-31T13:44:08Z</time>
      </trkpt>
      <trkpt lat="42.56193" lon="-0.3309">
        <time>2022-07-31T13:44:09Z</time>
      </trkpt>
      <trkpt lat="42.56174" lon="-0.33113">
        <time>2022-07-31T13:44:10Z</time>
      </trkpt>
      <trkpt lat="42.56155" lon="-0.3314">
        <time>2022-07-31T13:44:11Z</time>
      </trkpt>
      <trkpt lat="42.56135" lon="-0.33166">
        <time>2022-07-31T13:44:12Z</time>
      </trkpt>
      <trkpt lat="42.56115" lon="-0.33192">
        <time>2022-07-31T13:44:13Z</time>
      </trkpt>
      <trkpt lat="42.56094" lon="-0.33218">
        <time>2022-07-31T13:44:14Z</time>
      </trkpt>
      <trkpt lat="42.56073" lon="-0.33244">
        <time>2022-07-31T13:44:15Z</time>
      </trkpt>
      <trkpt lat="42.56052" lon="-0.3327">
        <time>2022-07-31T13:44:16Z</time>
      </trkpt>
      <trkpt lat="42.56031" lon="-0.33296">
        <time>2022-07-31T13:44:17Z</time>
      </trkpt>
      <trkpt lat="42.5601" lon="-0.33322">
        <time>2022-07-31T13:44:18Z</time>
      </trkpt>
      <trkpt lat="42.55989" lon="-0.33347">
        <time>2022-07-31T13:44:19Z</time>
      </trkpt>
      <trkpt lat="42.55968" lon="-0.33373">
        <time>2022-07-31T13:44:20Z</time>
      </trkpt>
      <trkpt lat="42.55947" lon="-0.33398">
        <time>2022-07-31T13:44:21Z</time>
      </trkpt>
      <trkpt lat="42.55927" lon="-0.33423">
        <time>2022-07-31T13:44:22Z</time>
      </trkpt>
      <trkpt lat="42.55906" lon="-0.33449">
        <time>2022-07-31T13:44:23Z</time>
      </trkpt>
      <trkpt lat="42.55886" lon="-0.33474">
        <time>2022-07-31T13:44:24Z</time>
      </trkpt>
      <trkpt lat="42.55866" lon="-0.33499">
        <time>2022-07-31T13:44:25Z</time>
      </trkpt>
      <trkpt lat="42.55845" lon="-0.33523">
        <time>2022-07-31T13:44:26Z</time>
      </trkpt>
      <trkpt lat="42.55825" lon="-0.33548">
        <time>2022-07-31T13:44:27Z</time>
      </trkpt>
      <trkpt lat="42.55805" lon="-0.33573">
        <time>2022-07-31T13:44:28Z</time>
      </trkpt>
      <trkpt lat="42.55785" lon="-0.33597">
        <time>2022-07-31T13:44:29Z</time>
      </trkpt>
      <trkpt lat="42.55765" lon="-0.33621">
        <time>2022-07-31T13:44:30Z</time>
      </trkpt>
      <trkpt lat="42.55745" lon="-0.33646">
        <time>2022-07-31T13:44:31Z</time>
      </trkpt>
      <trkpt lat="42.55726" lon="-0.3367">
        <time>2022-07-31T13:44:32Z</time>
      </trkpt>
      <trkpt lat="42.55706" lon="-0.33695">
        <time>2022-07-31T13:44:33Z</time>
      </trkpt>
      <trkpt lat="42.55686" lon="-0.3372">
        <time>2022-07-31T13:44:34Z</time>
      </trkpt>
      <trkpt lat="42.55666" lon="-0.33744">
        <time>2022-07-31T13:44:35Z</time>
      </trkpt>
      <trkpt lat="42.55645" lon="-0.33769">
        <time>2022-07-31T13:44:36Z</time>
      </trkpt>
      <trkpt lat="42.55625" lon="-0.33794">
        <time>2022-07-31T13:44:37Z</time>
      </trkpt>
      <trkpt lat="42.55606" lon="-0.33818">
        <time>2022-07-31T13:44:38Z</time>
      </trkpt>
      <trkpt lat="42.55586" lon="-0.33843">
        <time>2022-07-31T13:44:39Z</time>
      </trkpt>
      <trkpt lat="42.55566" lon="-0.33867">
        <time>2022-07-31T13:44:40Z</time>
      </trkpt>
      <trkpt lat="42.55546" lon="-0.33892">
        <time>2022-07-31T13:44:41Z</time>
      </trkpt>
      <trkpt lat="42.55526" lon="-0.33917">
        <time>2022-07-31T13:44:42Z</time>
      </trkpt>
      <trkpt lat="42.55506" lon="-0.33941">
        <time>2022-07-31T13:44:43Z</time>
      </trkpt>
      <trkpt lat="42.55486" lon="-0.33965">
        <time>2022-07-31T13:44:44Z</time>
      </trkpt>
      <trkpt lat="42.55466" lon="-0.3399">
        <time>2022-07-31T13:44:45Z</time>
      </trkpt>
      <trkpt lat="42.55447" lon="-0.34014">
        <time>2022-07-31T13:44:46Z</time>
      </trkpt>
      <trkpt lat="42.55427" lon="-0.34038">
        <time>2022-07-31T13:44:47Z</time>
      </trkpt>
      <trkpt lat="42.55407" lon="-0.34062">
        <time>2022-07-31T13:44:48Z</time>
      </trkpt>
      <trkpt lat="42.55387" lon="-0.34087">
        <time>2022-07-31T13:44:49Z</time>
      </trkpt>
      <trkpt lat="42.55368" lon="-0.34111">
        <time>2022-07-31T13:44:50Z</time>
      </trkpt>
      <trkpt lat="42.55349" lon="-0.34135">
        <time>2022-07-31T13:44:51Z</time>
      </trkpt>
      <trkpt lat="42.5533" lon="-0.34158">
        <time>2022-07-31T13:44:52Z</time>
      </trkpt>
      <trkpt lat="42.55312" lon="-0.3418">
        <time>2022-07-31T13:44:53Z</time>
      </trkpt>
      <trkpt lat="42.55294" lon="-0.34201">
        <time>2022-07-31T13:44:54Z</time>
      </trkpt>
      <trkpt lat="42.55277" lon="-0.34223">
        <time>2022-07-31T13:44:55Z</time>
      </trkpt>
      <trkpt lat="42.55261" lon="-0.34243">
        <time>2022-07-31T13:44:56Z</time>
      </trkpt>
      <trkpt lat="42.55245" lon="-0.34263">
        <time>2022-07-31T13:44:57Z</time>
      </trkpt>
      <trkpt lat="42.5523" lon="-0.34282">
        <time>2022-07-31T13:44:58Z</time>
      </trkpt>
      <trkpt lat="42.55215" lon="-0.343">
        <time>2022-07-31T13:44:59Z</time>
      </trkpt>
      <trkpt lat="42.552" lon="-0.34319">
        <time>2022-07-31T13:45:00Z</time>
      </trkpt>
      <trkpt lat="42.55185" lon="-0.34337">
        <time>2022-07-31T13:45:01Z</time>
      </trkpt>
      <trkpt lat="42.5517" lon="-0.34356">
        <time>2022-07-31T13:45:02Z</time>
      </trkpt>
      <trkpt lat="42.55155" lon="-0.34375">
        <time>2022-07-31T13:45:03Z</time>
      </trkpt>
      <trkpt lat="42.5514" lon="-0.34394">
        <time>2022-07-31T13:45:04Z</time>
      </trkpt>
      <trkpt lat="42.55124" lon="-0.34414">
        <time>2022-07-31T13:45:05Z</time>
      </trkpt>
      <trkpt lat="42.55109" lon="-0.34434">
        <time>2022-07-31T13:45:06Z</time>
      </trkpt>
      <trkpt lat="42.55093" lon="-0.34454">
        <time>2022-07-31T13:45:07Z</time>
      </trkpt>
      <trkpt lat="42.55077" lon="-0.34474">
        <time>2022-07-31T13:45:08Z</time>
      </trkpt>
      <trkpt lat="42.55061" lon="-0.34494">
        <time>2022-07-31T13:45:09Z</time>
      </trkpt>
      <trkpt lat="42.55045" lon="-0.34514">
        <time>2022-07-31T13:45:10Z</time>
      </trkpt>
      <trkpt lat="42.55028" lon="-0.34534">
        <time>2022-07-31T13:45:11Z</time>
      </trkpt>
      <trkpt lat="42.55012" lon="-0.34554">
        <time>2022-07-31T13:45:12Z</time>
      </trkpt>
      <trkpt lat="42.54996" lon="-0.34574">
        <time>2022-07-31T13:45:13Z</time>
      </trkpt>
      <trkpt lat="42.5498" lon="-0.34595">
        <time>2022-07-31T13:45:14Z</time>
      </trkpt>
      <trkpt lat="42.54964" lon="-0.34615">
        <time>2022-07-31T13:45:15Z</time>
      </trkpt>
      <trkpt lat="42.54948" lon="-0.34634">
        <time>2022-07-31T13:45:16Z</time>
      </trkpt>
      <trkpt lat="42.54932" lon="-0.34652">
        <time>2022-07-31T13:45:17Z</time>
      </trkpt>
      <trkpt lat="42.54917" lon="-0.34671">
        <time>2022-07-31T13:45:18Z</time>
      </trkpt>
      <trkpt lat="42.54901" lon="-0.34689">
        <time>2022-07-31T13:45:19Z</time>
      </trkpt>
      <trkpt lat="42.54885" lon="-0.34707">
        <time>2022-07-31T13:45:20Z</time>
      </trkpt>
      <trkpt lat="42.54869" lon="-0.34725">
        <time>2022-07-31T13:45:21Z</time>
      </trkpt>
      <trkpt lat="42.54854" lon="-0.34744">
        <time>2022-07-31T13:45:22Z</time>
      </trkpt>
      <trkpt lat="42.54837" lon="-0.34762">
        <time>2022-07-31T13:45:23Z</time>
      </trkpt>
      <trkpt lat="42.54821" lon="-0.3478">
        <time>2022-07-31T13:45:24Z</time>
      </trkpt>
      <trkpt lat="42.54803" lon="-0.34798">
        <time>2022-07-31T13:45:25Z</time>
      </trkpt>
      <trkpt lat="42.54786" lon="-0.34816">
        <time>2022-07-31T13:45:26Z</time>
      </trkpt>
      <trkpt lat="42.54769" lon="-0.34835">
        <time>2022-07-31T13:45:27Z</time>
      </trkpt>
      <trkpt lat="42.54752" lon="-0.34855">
        <time>2022-07-31T13:45:28Z</time>
      </trkpt>
      <trkpt lat="42.54734" lon="-0.34876">
        <time>2022-07-31T13:45:29Z</time>
      </trkpt>
      <trkpt lat="42.54717" lon="-0.34896">
        <time>2022-07-31T13:45:30Z</time>
      </trkpt>
      <trkpt lat="42.547" lon="-0.34916">
        <time>2022-07-31T13:45:31Z</time>
      </trkpt>
      <trkpt lat="42.54682" lon="-0.34937">
        <time>2022-07-31T13:45:32Z</time>
      </trkpt>
      <trkpt lat="42.54664" lon="-0.34957">
        <time>2022-07-31T13:45:33Z</time>
      </trkpt>
      <trkpt lat="42.54646" lon="-0.34978">
        <time>2022-07-31T13:45:34Z</time>
      </trkpt>
      <trkpt lat="42.54628" lon="-0.34999">
        <time>2022-07-31T13:45:35Z</time>
      </trkpt>
      <trkpt lat="42.5461" lon="-0.3502">
        <time>2022-07-31T13:45:36Z</time>
      </trkpt>
      <trkpt lat="42.54592" lon="-0.35041">
        <time>2022-07-31T13:45:37Z</time>
      </trkpt>
      <trkpt lat="42.54573" lon="-0.35062">
        <time>2022-07-31T13:45:38Z</time>
      </trkpt>
      <trkpt lat="42.54554" lon="-0.35083">
        <time>2022-07-31T13:45:39Z</time>
      </trkpt>
      <trkpt lat="42.54534" lon="-0.35103">
        <time>2022-07-31T13:45:40Z</time>
      </trkpt>
      <trkpt lat="42.54513" lon="-0.35121">
        <time>2022-07-31T13:45:41Z</time>
      </trkpt>
      <trkpt lat="42.54492" lon="-0.35138">
        <time>2022-07-31T13:45:42Z</time>
      </trkpt>
      <trkpt lat="42.54469" lon="-0.35153">
        <time>2022-07-31T13:45:43Z</time>
      </trkpt>
      <trkpt lat="42.54446" lon="-0.35168">
        <time>2022-07-31T13:45:44Z</time>
      </trkpt>
      <trkpt lat="42.54423" lon="-0.35182">
        <time>2022-07-31T13:45:45Z</time>
      </trkpt>
      <trkpt lat="42.544" lon="-0.35196">
        <time>2022-07-31T13:45:46Z</time>
      </trkpt>
      <trkpt lat="42.54376" lon="-0.35209">
        <time>2022-07-31T13:45:47Z</time>
      </trkpt>
      <trkpt lat="42.54353" lon="-0.35223">
        <time>2022-07-31T13:45:48Z</time>
      </trkpt>
      <trkpt lat="42.54329" lon="-0.35237">
        <time>2022-07-31T13:45:49Z</time>
      </trkpt>
      <trkpt lat="42.54306" lon="-0.3525">
        <time>2022-07-31T13:45:50Z</time>
      </trkpt>
      <trkpt lat="42.54282" lon="-0.35264">
        <time>2022-07-31T13:45:51Z</time>
      </trkpt>
      <trkpt lat="42.54259" lon="-0.35277">
        <time>2022-07-31T13:45:52Z</time>
      </trkpt>
      <trkpt lat="42.54238" lon="-0.35291">
        <time>2022-07-31T13:45:53Z</time>
      </trkpt>
      <trkpt lat="42.54216" lon="-0.35305">
        <time>2022-07-31T13:45:54Z</time>
      </trkpt>
      <trkpt lat="42.54196" lon="-0.35322">
        <time>2022-07-31T13:45:55Z</time>
      </trkpt>
      <trkpt lat="42.54177" lon="-0.35339">
        <time>2022-07-31T13:45:56Z</time>
      </trkpt>
      <trkpt lat="42.54159" lon="-0.35359">
        <time>2022-07-31T13:45:57Z</time>
      </trkpt>
      <trkpt lat="42.54142" lon="-0.35381">
        <time>2022-07-31T13:45:58Z</time>
      </trkpt>
      <trkpt lat="42.54125" lon="-0.35404">
        <time>2022-07-31T13:45:59Z</time>
      </trkpt>
      <trkpt lat="42.54109" lon="-0.35427">
        <time>2022-07-31T13:46:00Z</time>
      </trkpt>
      <trkpt lat="42.54093" lon="-0.35451">
        <time>2022-07-31T13:46:01Z</time>
      </trkpt>
      <trkpt lat="42.54077" lon="-0.35474">
        <time>2022-07-31T13:46:02Z</time>
      </trkpt>
      <trkpt lat="42.54062" lon="-0.35498">
        <time>2022-07-31T13:46:03Z</time>
      </trkpt>
      <trkpt lat="42.54046" lon="-0.35521">
        <time>2022-07-31T13:46:04Z</time>
      </trkpt>
      <trkpt lat="42.54031" lon="-0.35543">
        <time>2022-07-31T13:46:05Z</time>
      </trkpt>
      <trkpt lat="42.54015" lon="-0.35565">
        <time>2022-07-31T13:46:06Z</time>
      </trkpt>
      <trkpt lat="42.54" lon="-0.35586">
        <time>2022-07-31T13:46:07Z</time>
      </trkpt>
      <trkpt lat="42.53984" lon="-0.35608">
        <time>2022-07-31T13:46:08Z</time>
      </trkpt>
      <trkpt lat="42.53969" lon="-0.3563">
        <time>2022-07-31T13:46:09Z</time>
      </trkpt>
      <trkpt lat="42.53955" lon="-0.35651">
        <time>2022-07-31T13:46:10Z</time>
      </trkpt>
      <trkpt lat="42.53939" lon="-0.35673">
        <time>2022-07-31T13:46:11Z</time>
      </trkpt>
      <trkpt lat="42.53925" lon="-0.35694">
        <time>2022-07-31T13:46:12Z</time>
      </trkpt>
      <trkpt lat="42.5391" lon="-0.35715">
        <time>2022-07-31T13:46:13Z</time>
      </trkpt>
      <trkpt lat="42.53897" lon="-0.35735">
        <time>2022-07-31T13:46:14Z</time>
      </trkpt>
      <trkpt lat="42.53885" lon="-0.35751">
        <time>2022-07-31T13:46:15Z</time>
      </trkpt>
      <trkpt lat="42.53874" lon="-0.35768">
        <time>2022-07-31T13:46:16Z</time>
      </trkpt>
      <trkpt lat="42.53863" lon="-0.35784">
        <time>2022-07-31T13:46:17Z</time>
      </trkpt>
      <trkpt lat="42.53853" lon="-0.35799">
        <time>2022-07-31T13:46:18Z</time>
      </trkpt>
      <trkpt lat="42.53843" lon="-0.35815">
        <time>2022-07-31T13:46:19Z</time>
      </trkpt>
      <trkpt lat="42.53833" lon="-0.35829">
        <time>2022-07-31T13:46:20Z</time>
      </trkpt>
      <trkpt lat="42.53823" lon="-0.35843">
        <time>2022-07-31T13:46:21Z</time>
      </trkpt>
      <trkpt lat="42.53814" lon="-0.35857">
        <time>2022-07-31T13:46:22Z</time>
      </trkpt>
      <trkpt lat="42.53804" lon="-0.35872">
        <time>2022-07-31T13:46:23Z</time>
      </trkpt>
      <trkpt lat="42.53793" lon="-0.35886">
        <time>2022-07-31T13:46:24Z</time>
      </trkpt>
      <trkpt lat="42.53783" lon="-0.35901">
        <time>2022-07-31T13:46:25Z</time>
      </trkpt>
      <trkpt lat="42.53773" lon="-0.35916">
        <time>2022-07-31T13:46:26Z</time>
      </trkpt>
      <trkpt lat="42.53762" lon="-0.35932">
        <time>2022-07-31T13:46:27Z</time>
      </trkpt>
      <trkpt lat="42.5375" lon="-0.35949">
        <time>2022-07-31T13:46:28Z</time>
      </trkpt>
      <trkpt lat="42.53739" lon="-0.35965">
        <time>2022-07-31T13:46:29Z</time>
      </trkpt>
      <trkpt lat="42.53728" lon="-0.35983">
        <time>2022-07-31T13:46:30Z</time>
      </trkpt>
      <trkpt lat="42.53718" lon="-0.36">
        <time>2022-07-31T13:46:31Z</time>
      </trkpt>
      <trkpt lat="42.53708" lon="-0.36018">
        <time>2022-07-31T13:46:32Z</time>
      </trkpt>
      <trkpt lat="42.53698" lon="-0.36038">
        <time>2022-07-31T13:46:33Z</time>
      </trkpt>
      <trkpt lat="42.5369" lon="-0.36058">
        <time>2022-07-31T13:46:34Z</time>
      </trkpt>
      <trkpt lat="42.53682" lon="-0.36079">
        <time>2022-07-31T13:46:35Z</time>
      </trkpt>
      <trkpt lat="42.53676" lon="-0.36101">
        <time>2022-07-31T13:46:36Z</time>
      </trkpt>
      <trkpt lat="42.53671" lon="-0.36123">
        <time>2022-07-31T13:46:37Z</time>
      </trkpt>
      <trkpt lat="42.53666" lon="-0.36146">
        <time>2022-07-31T13:46:38Z</time>
      </trkpt>
      <trkpt lat="42.53663" lon="-0.36169">
        <time>2022-07-31T13:46:39Z</time>
      </trkpt>
      <trkpt lat="42.53662" lon="-0.36192">
        <time>2022-07-31T13:46:40Z</time>
      </trkpt>
      <trkpt lat="42.53661" lon="-0.36215">
        <time>2022-07-31T13:46:41Z</time>
      </trkpt>
      <trkpt lat="42.53662" lon="-0.36239">
        <time>2022-07-31T13:46:42Z</time>
      </trkpt>
      <trkpt lat="42.53664" lon="-0.36264">
        <time>2022-07-31T13:46:43Z</time>
      </trkpt>
      <trkpt lat="42.53667" lon="-0.36288">
        <time>2022-07-31T13:46:44Z</time>
      </trkpt>
      <trkpt lat="42.53672" lon="-0.36313">
        <time>2022-07-31T13:46:45Z</time>
      </trkpt>
      <trkpt lat="42.53678" lon="-0.36338">
        <time>2022-07-31T13:46:46Z</time>
      </trkpt>
      <trkpt lat="42.53685" lon="-0.36362">
        <time>2022-07-31T13:46:47Z</time>
      </trkpt>
      <trkpt lat="42.53692" lon="-0.36386">
        <time>2022-07-31T13:46:48Z</time>
      </trkpt>
      <trkpt lat="42.53698" lon="-0.36411">
        <time>2022-07-31T13:46:49Z</time>
      </trkpt>
      <trkpt lat="42.53704" lon="-0.36435">
        <time>2022-07-31T13:46:50Z</time>
      </trkpt>
      <trkpt lat="42.5371" lon="-0.36459">
        <time>2022-07-31T13:46:51Z</time>
      </trkpt>
      <trkpt lat="42.53715" lon="-0.36483">
        <time>2022-07-31T13:46:52Z</time>
      </trkpt>
      <trkpt lat="42.53719" lon="-0.36506">
        <time>2022-07-31T13:46:53Z</time>
      </trkpt>
      <trkpt lat="42.53721" lon="-0.36529">
        <time>2022-07-31T13:46:54Z</time>
      </trkpt>
      <trkpt lat="42.53723" lon="-0.36553">
        <time>2022-07-31T13:46:55Z</time>
      </trkpt>
      <trkpt lat="42.53723" lon="-0.36578">
        <time>2022-07-31T13:46:56Z</time>
      </trkpt>
      <trkpt lat="42.53723" lon="-0.36605">
        <time>2022-07-31T13:46:57Z</time>
      </trkpt>
      <trkpt lat="42.53721" lon="-0.36633">
        <time>2022-07-31T13:46:58Z</time>
      </trkpt>
      <trkpt lat="42.53718" lon="-0.36662">
        <time>2022-07-31T13:46:59Z</time>
      </trkpt>
      <trkpt lat="42.53715" lon="-0.3669">
        <time>2022-07-31T13:47:00Z</time>
      </trkpt>
      <trkpt lat="42.53712" lon="-0.36719">
        <time>2022-07-31T13:47:01Z</time>
      </trkpt>
      <trkpt lat="42.53709" lon="-0.36748">
        <time>2022-07-31T13:47:02Z</time>
      </trkpt>
      <trkpt lat="42.53706" lon="-0.36776">
        <time>2022-07-31T13:47:03Z</time>
      </trkpt>
      <trkpt lat="42.53703" lon="-0.36803">
        <time>2022-07-31T13:47:04Z</time>
      </trkpt>
      <trkpt lat="42.53699" lon="-0.3683">
        <time>2022-07-31T13:47:05Z</time>
      </trkpt>
      <trkpt lat="42.53695" lon="-0.36856">
        <time>2022-07-31T13:47:06Z</time>
      </trkpt>
      <trkpt lat="42.53689" lon="-0.36881">
        <time>2022-07-31T13:47:07Z</time>
      </trkpt>
      <trkpt lat="42.53683" lon="-0.36905">
        <time>2022-07-31T13:47:08Z</time>
      </trkpt>
      <trkpt lat="42.53674" lon="-0.36927">
        <time>2022-07-31T13:47:09Z</time>
      </trkpt>
      <trkpt lat="42.53664" lon="-0.36947">
        <time>2022-07-31T13:47:10Z</time>
      </trkpt>
      <trkpt lat="42.53653" lon="-0.36964">
        <time>2022-07-31T13:47:11Z</time>
      </trkpt>
      <trkpt lat="42.5364" lon="-0.36981">
        <time>2022-07-31T13:47:12Z</time>
      </trkpt>
      <trkpt lat="42.53626" lon="-0.36996">
        <time>2022-07-31T13:47:13Z</time>
      </trkpt>
      <trkpt lat="42.53612" lon="-0.37009">
        <time>2022-07-31T13:47:14Z</time>
      </trkpt>
      <trkpt lat="42.53597" lon="-0.37019">
        <time>2022-07-31T13:47:15Z</time>
      </trkpt>
      <trkpt lat="42.53582" lon="-0.37029">
        <time>2022-07-31T13:47:16Z</time>
      </trkpt>
      <trkpt lat="42.53566" lon="-0.37039">
        <time>2022-07-31T13:47:17Z</time>
      </trkpt>
      <trkpt lat="42.53549" lon="-0.37048">
        <time>2022-07-31T13:47:18Z</time>
      </trkpt>
      <trkpt lat="42.53532" lon="-0.37056">
        <time>2022-07-31T13:47:19Z</time>
      </trkpt>
      <trkpt lat="42.53514" lon="-0.37062">
        <time>2022-07-31T13:47:20Z</time>
      </trkpt>
      <trkpt lat="42.53497" lon="-0.37065">
        <time>2022-07-31T13:47:21Z</time>
      </trkpt>
      <trkpt lat="42.53479" lon="-0.37067">
        <time>2022-07-31T13:47:22Z</time>
      </trkpt>
      <trkpt lat="42.5346" lon="-0.37067">
        <time>2022-07-31T13:47:23Z</time>
      </trkpt>
      <trkpt lat="42.53442" lon="-0.37063">
        <time>2022-07-31T13:47:24Z</time>
      </trkpt>
      <trkpt lat="42.53423" lon="-0.37057">
        <time>2022-07-31T13:47:25Z</time>
      </trkpt>
      <trkpt lat="42.53405" lon="-0.37048">
        <time>2022-07-31T13:47:26Z</time>
      </trkpt>
      <trkpt lat="42.53388" lon="-0.37036">
        <time>2022-07-31T13:47:27Z</time>
      </trkpt>
      <trkpt lat="42.53371" lon="-0.37021">
        <time>2022-07-31T13:47:28Z</time>
      </trkpt>
      <trkpt lat="42.53356" lon="-0.37005">
        <time>2022-07-31T13:47:29Z</time>
      </trkpt>
      <trkpt lat="42.53342" lon="-0.36986">
        <time>2022-07-31T13:47:30Z</time>
      </trkpt>
      <trkpt lat="42.5333" lon="-0.36966">
        <time>2022-07-31T13:47:31Z</time>
      </trkpt>
      <trkpt lat="42.5332" lon="-0.36945">
        <time>2022-07-31T13:47:32Z</time>
      </trkpt>
      <trkpt lat="42.53312" lon="-0.36924">
        <time>2022-07-31T13:47:33Z</time>
      </trkpt>
      <trkpt lat="42.53305" lon="-0.36901">
        <time>2022-07-31T13:47:34Z</time>
      </trkpt>
      <trkpt lat="42.533" lon="-0.36879">
        <time>2022-07-31T13:47:35Z</time>
      </trkpt>
      <trkpt lat="42.53295" lon="-0.36855">
        <time>2022-07-31T13:47:36Z</time>
      </trkpt>
      <trkpt lat="42.53291" lon="-0.36833">
        <time>2022-07-31T13:47:37Z</time>
      </trkpt>
      <trkpt lat="42.53286" lon="-0.36811">
        <time>2022-07-31T13:47:38Z</time>
      </trkpt>
      <trkpt lat="42.53279" lon="-0.3679">
        <time>2022-07-31T13:47:39Z</time>
      </trkpt>
      <trkpt lat="42.53271" lon="-0.36769">
        <time>2022-07-31T13:47:40Z</time>
      </trkpt>
      <trkpt lat="42.53262" lon="-0.36749">
        <time>2022-07-31T13:47:41Z</time>
      </trkpt>
      <trkpt lat="42.53251" lon="-0.3673">
        <time>2022-07-31T13:47:42Z</time>
      </trkpt>
      <trkpt lat="42.53238" lon="-0.36712">
        <time>2022-07-31T13:47:43Z</time>
      </trkpt>
      <trkpt lat="42.53225" lon="-0.36696">
        <time>2022-07-31T13:47:44Z</time>
      </trkpt>
      <trkpt lat="42.5321" lon="-0.3668">
        <time>2022-07-31T13:47:45Z</time>
      </trkpt>
      <trkpt lat="42.53194" lon="-0.36663">
        <time>2022-07-31T13:47:46Z</time>
      </trkpt>
      <trkpt lat="42.53178" lon="-0.36647">
        <time>2022-07-31T13:47:47Z</time>
      </trkpt>
      <trkpt lat="42.53162" lon="-0.3663">
        <time>2022-07-31T13:47:48Z</time>
      </trkpt>
      <trkpt lat="42.53146" lon="-0.36614">
        <time>2022-07-31T13:47:49Z</time>
      </trkpt>
      <trkpt lat="42.53129" lon="-0.36598">
        <time>2022-07-31T13:47:50Z</time>
      </trkpt>
      <trkpt lat="42.53113" lon="-0.36584">
        <time>2022-07-31T13:47:51Z</time>
      </trkpt>
      <trkpt lat="42.53098" lon="-0.3657">
        <time>2022-07-31T13:47:52Z</time>
      </trkpt>
      <trkpt lat="42.53083" lon="-0.36557">
        <time>2022-07-31T13:47:53Z</time>
      </trkpt>
      <trkpt lat="42.53069" lon="-0.36544">
        <time>2022-07-31T13:47:54Z</time>
      </trkpt>
      <trkpt lat="42.53056" lon="-0.36532">
        <time>2022-07-31T13:47:55Z</time>
      </trkpt>
      <trkpt lat="42.53043" lon="-0.36521">
        <time>2022-07-31T13:47:56Z</time>
      </trkpt>
      <trkpt lat="42.5303" lon="-0.36509">
        <time>2022-07-31T13:47:57Z</time>
      </trkpt>
      <trkpt lat="42.53017" lon="-0.36498">
        <time>2022-07-31T13:47:58Z</time>
      </trkpt>
      <trkpt lat="42.53005" lon="-0.36486">
        <time>2022-07-31T13:47:59Z</time>
      </trkpt>
      <trkpt lat="42.52992" lon="-0.36474">
        <time>2022-07-31T13:48:00Z</time>
      </trkpt>
      <trkpt lat="42.52979" lon="-0.36463">
        <time>2022-07-31T13:48:01Z</time>
      </trkpt>
      <trkpt lat="42.52966" lon="-0.36452">
        <time>2022-07-31T13:48:02Z</time>
      </trkpt>
      <trkpt lat="42.52954" lon="-0.3644">
        <time>2022-07-31T13:48:03Z</time>
      </trkpt>
      <trkpt lat="42.52942" lon="-0.36429">
        <time>2022-07-31T13:48:04Z</time>
      </trkpt>
      <trkpt lat="42.5293" lon="-0.36419">
        <time>2022-07-31T13:48:05Z</time>
      </trkpt>
      <trkpt lat="42.52919" lon="-0.36409">
        <time>2022-07-31T13:48:06Z</time>
      </trkpt>
      <trkpt lat="42.52908" lon="-0.36399">
        <time>2022-07-31T13:48:07Z</time>
      </trkpt>
      <trkpt lat="42.52898" lon="-0.36389">
        <time>2022-07-31T13:48:08Z</time>
      </trkpt>
      <trkpt lat="42.52888" lon="-0.3638">
        <time>2022-07-31T13:48:09Z</time>
      </trkpt>
      <trkpt lat="42.52879" lon="-0.3637">
        <time>2022-07-31T13:48:10Z</time>
      </trkpt>
      <trkpt lat="42.5287" lon="-0.36361">
        <time>2022-07-31T13:48:11Z</time>
      </trkpt>
      <trkpt lat="42.52861" lon="-0.3635">
        <time>2022-07-31T13:48:12Z</time>
      </trkpt>
      <trkpt lat="42.52852" lon="-0.36341">
        <time>2022-07-31T13:48:13Z</time>
      </trkpt>
      <trkpt lat="42.52844" lon="-0.36331">
        <time>2022-07-31T13:48:14Z</time>
      </trkpt>
      <trkpt lat="42.52837" lon="-0.36322">
        <time>2022-07-31T13:48:15Z</time>
      </trkpt>
      <trkpt lat="42.52832" lon="-0.36315">
        <time>2022-07-31T13:48:16Z</time>
      </trkpt>
      <trkpt lat="42.52827" lon="-0.36307">
        <time>2022-07-31T13:48:17Z</time>
      </trkpt>
      <trkpt lat="42.52823" lon="-0.36301">
        <time>2022-07-31T13:48:18Z</time>
      </trkpt>
      <trkpt lat="42.52818" lon="-0.36295">
        <time>2022-07-31T13:48:19Z</time>
      </trkpt>
      <trkpt lat="42.52813" lon="-0.3629">
        <time>2022-07-31T13:48:20Z</time>
      </trkpt>
      <trkpt lat="42.52807" lon="-0.36287">
        <time>2022-07-31T13:48:21Z</time>
      </trkpt>
      <trkpt lat="42.528" lon="-0.36286">
        <time>2022-07-31T13:48:22Z</time>
      </trkpt>
      <trkpt lat="42.52792" lon="-0.36286">
        <time>2022-07-31T13:48:23Z</time>
      </trkpt>
      <trkpt lat="42.52784" lon="-0.36284">
        <time>2022-07-31T13:48:24Z</time>
      </trkpt>
      <trkpt lat="42.52777" lon="-0.36278">
        <time>2022-07-31T13:48:25Z</time>
      </trkpt>
      <trkpt lat="42.52772" lon="-0.36269">
        <time>2022-07-31T13:48:26Z</time>
      </trkpt>
      <trkpt lat="42.52769" lon="-0.36258">
        <time>2022-07-31T13:48:27Z</time>
      </trkpt>
      <trkpt lat="42.5277" lon="-0.36246">
        <time>2022-07-31T13:48:28Z</time>
      </trkpt>
      <trkpt lat="42.52773" lon="-0.36234">
        <time>2022-07-31T13:48:29Z</time>
      </trkpt>
      <trkpt lat="42.52775" lon="-0.36222">
        <time>2022-07-31T13:48:30Z</time>
      </trkpt>
      <trkpt lat="42.52776" lon="-0.36209">
        <time>2022-07-31T13:48:31Z</time>
      </trkpt>
      <trkpt lat="42.52775" lon="-0.36195">
        <time>2022-07-31T13:48:32Z</time>
      </trkpt>
      <trkpt lat="42.52773" lon="-0.36182">
        <time>2022-07-31T13:48:33Z</time>
      </trkpt>
      <trkpt lat="42.5277" lon="-0.36167">
        <time>2022-07-31T13:48:34Z</time>
      </trkpt>
      <trkpt lat="42.52766" lon="-0.36151">
        <time>2022-07-31T13:48:35Z</time>
      </trkpt>
      <trkpt lat="42.52763" lon="-0.36134">
        <time>2022-07-31T13:48:36Z</time>
      </trkpt>
      <trkpt lat="42.52759" lon="-0.36115">
        <time>2022-07-31T13:48:37Z</time>
      </trkpt>
      <trkpt lat="42.52754" lon="-0.36096">
        <time>2022-07-31T13:48:38Z</time>
      </trkpt>
      <trkpt lat="42.52747" lon="-0.36077">
        <time>2022-07-31T13:48:39Z</time>
      </trkpt>
      <trkpt lat="42.5274" lon="-0.36058">
        <time>2022-07-31T13:48:40Z</time>
      </trkpt>
      <trkpt lat="42.52732" lon="-0.36039">
        <time>2022-07-31T13:48:41Z</time>
      </trkpt>
      <trkpt lat="42.52723" lon="-0.3602">
        <time>2022-07-31T13:48:42Z</time>
      </trkpt>
      <trkpt lat="42.52713" lon="-0.36002">
        <time>2022-07-31T13:48:43Z</time>
      </trkpt>
      <trkpt lat="42.52702" lon="-0.35985">
        <time>2022-07-31T13:48:44Z</time>
      </trkpt>
      <trkpt lat="42.52691" lon="-0.35968">
        <time>2022-07-31T13:48:45Z</time>
      </trkpt>
      <trkpt lat="42.52678" lon="-0.35953">
        <time>2022-07-31T13:48:46Z</time>
      </trkpt>
      <trkpt lat="42.52665" lon="-0.35938">
        <time>2022-07-31T13:48:47Z</time>
      </trkpt>
      <trkpt lat="42.52653" lon="-0.35922">
        <time>2022-07-31T13:48:48Z</time>
      </trkpt>
      <trkpt lat="42.52639" lon="-0.35907">
        <time>2022-07-31T13:48:49Z</time>
      </trkpt>
      <trkpt lat="42.52625" lon="-0.35892">
        <time>2022-07-31T13:48:50Z</time>
      </trkpt>
      <trkpt lat="42.52611" lon="-0.35877">
        <time>2022-07-31T13:48:51Z</time>
      </trkpt>
      <trkpt lat="42.52597" lon="-0.35862">
        <time>2022-07-31T13:48:52Z</time>
      </trkpt>
      <trkpt lat="42.52582" lon="-0.35846">
        <time>2022-07-31T13:48:53Z</time>
      </trkpt>
      <trkpt lat="42.52568" lon="-0.35831">
        <time>2022-07-31T13:48:54Z</time>
      </trkpt>
      <trkpt lat="42.52553" lon="-0.35815">
        <time>2022-07-31T13:48:55Z</time>
      </trkpt>
      <trkpt lat="42.52539" lon="-0.358">
        <time>2022-07-31T13:48:56Z</time>
      </trkpt>
      <trkpt lat="42.52524" lon="-0.35784">
        <time>2022-07-31T13:48:57Z</time>
      </trkpt>
      <trkpt lat="42.5251" lon="-0.35769">
        <time>2022-07-31T13:48:58Z</time>
      </trkpt>
      <trkpt lat="42.52495" lon="-0.35753">
        <time>2022-07-31T13:48:59Z</time>
      </trkpt>
      <trkpt lat="42.52481" lon="-0.35737">
        <time>2022-07-31T13:49:00Z</time>
      </trkpt>
      <trkpt lat="42.52466" lon="-0.35721">
        <time>2022-07-31T13:49:01Z</time>
      </trkpt>
      <trkpt lat="42.52451" lon="-0.35705">
        <time>2022-07-31T13:49:02Z</time>
      </trkpt>
      <trkpt lat="42.52437" lon="-0.35688">
        <time>2022-07-31T13:49:03Z</time>
      </trkpt>
      <trkpt lat="42.52421" lon="-0.35671">
        <time>2022-07-31T13:49:04Z</time>
      </trkpt>
      <trkpt lat="42.52406" lon="-0.35655">
        <time>2022-07-31T13:49:05Z</time>
      </trkpt>
      <trkpt lat="42.52391" lon="-0.35638">
        <time>2022-07-31T13:49:06Z</time>
      </trkpt>
      <trkpt lat="42.52376" lon="-0.35621">
        <time>2022-07-31T13:49:07Z</time>
      </trkpt>
      <trkpt lat="42.52361" lon="-0.35605">
        <time>2022-07-31T13:49:08Z</time>
      </trkpt>
      <trkpt lat="42.52346" lon="-0.35589">
        <time>2022-07-31T13:49:09Z</time>
      </trkpt>
      <trkpt lat="42.52331" lon="-0.35574">
        <time>2022-07-31T13:49:10Z</time>
      </trkpt>
      <trkpt lat="42.52317" lon="-0.35559">
        <time>2022-07-31T13:49:11Z</time>
      </trkpt>
      <trkpt lat="42.52303" lon="-0.35543">
        <time>2022-07-31T13:49:12Z</time>
      </trkpt>
      <trkpt lat="42.52289" lon="-0.35528">
        <time>2022-07-31T13:49:13Z</time>
      </trkpt>
      <trkpt lat="42.52274" lon="-0.35512">
        <time>2022-07-31T13:49:14Z</time>
      </trkpt>
      <trkpt lat="42.5226" lon="-0.35496">
        <time>2022-07-31T13:49:15Z</time>
      </trkpt>
      <trkpt lat="42.52247" lon="-0.35481">
        <time>2022-07-31T13:49:16Z</time>
      </trkpt>
      <trkpt lat="42.52234" lon="-0.35466">
        <time>2022-07-31T13:49:17Z</time>
      </trkpt>
      <trkpt lat="42.5222" lon="-0.35453">
        <time>2022-07-31T13:49:18Z</time>
      </trkpt>
      <trkpt lat="42.52207" lon="-0.35439">
        <time>2022-07-31T13:49:19Z</time>
      </trkpt>
      <trkpt lat="42.52195" lon="-0.35426">
        <time>2022-07-31T13:49:20Z</time>
      </trkpt>
      <trkpt lat="42.52182" lon="-0.35413">
        <time>2022-07-31T13:49:21Z</time>
      </trkpt>
      <trkpt lat="42.52171" lon="-0.354">
        <time>2022-07-31T13:49:22Z</time>
      </trkpt>
      <trkpt lat="42.52159" lon="-0.35388">
        <time>2022-07-31T13:49:23Z</time>
      </trkpt>
      <trkpt lat="42.52149" lon="-0.35376">
        <time>2022-07-31T13:49:24Z</time>
      </trkpt>
      <trkpt lat="42.52138" lon="-0.35365">
        <time>2022-07-31T13:49:25Z</time>
      </trkpt>
      <trkpt lat="42.52128" lon="-0.35354">
        <time>2022-07-31T13:49:26Z</time>
      </trkpt>
      <trkpt lat="42.52119" lon="-0.35344">
        <time>2022-07-31T13:49:27Z</time>
      </trkpt>
      <trkpt lat="42.5211" lon="-0.35334">
        <time>2022-07-31T13:49:28Z</time>
      </trkpt>
      <trkpt lat="42.52101" lon="-0.35323">
        <time>2022-07-31T13:49:29Z</time>
      </trkpt>
      <trkpt lat="42.52093" lon="-0.35312">
        <time>2022-07-31T13:49:30Z</time>
      </trkpt>
      <trkpt lat="42.52085" lon="-0.35301">
        <time>2022-07-31T13:49:31Z</time>
      </trkpt>
      <trkpt lat="42.52079" lon="-0.35291">
        <time>2022-07-31T13:49:32Z</time>
      </trkpt>
      <trkpt lat="42.52072" lon="-0.35282">
        <time>2022-07-31T13:49:33Z</time>
      </trkpt>
      <trkpt lat="42.52065" lon="-0.35276">
        <time>2022-07-31T13:49:34Z</time>
      </trkpt>
      <trkpt lat="42.52058" lon="-0.35272">
        <time>2022-07-31T13:49:35Z</time>
      </trkpt>
      <trkpt lat="42.52049" lon="-0.35271">
        <time>2022-07-31T13:49:36Z</time>
      </trkpt>
      <trkpt lat="42.52041" lon="-0.3527">
        <time>2022-07-31T13:49:37Z</time>
      </trkpt>
      <trkpt lat="42.52033" lon="-0.35265">
        <time>2022-07-31T13:49:38Z</time>
      </trkpt>
      <trkpt lat="42.52028" lon="-0.35257">
        <time>2022-07-31T13:49:39Z</time>
      </trkpt>
      <trkpt lat="42.52025" lon="-0.35247">
        <time>2022-07-31T13:49:40Z</time>
      </trkpt>
      <trkpt lat="42.52024" lon="-0.35235">
        <time>2022-07-31T13:49:41Z</time>
      </trkpt>
      <trkpt lat="42.52025" lon="-0.35223">
        <time>2022-07-31T13:49:42Z</time>
      </trkpt>
      <trkpt lat="42.52026" lon="-0.3521">
        <time>2022-07-31T13:49:43Z</time>
      </trkpt>
      <trkpt lat="42.52025" lon="-0.35196">
        <time>2022-07-31T13:49:44Z</time>
      </trkpt>
      <trkpt lat="42.5202" lon="-0.35181">
        <time>2022-07-31T13:49:45Z</time>
      </trkpt>
      <trkpt lat="42.52014" lon="-0.35164">
        <time>2022-07-31T13:49:46Z</time>
      </trkpt>
      <trkpt lat="42.52007" lon="-0.35146">
        <time>2022-07-31T13:49:47Z</time>
      </trkpt>
      <trkpt lat="42.51999" lon="-0.35128">
        <time>2022-07-31T13:49:48Z</time>
      </trkpt>
      <trkpt lat="42.51991" lon="-0.3511">
        <time>2022-07-31T13:49:49Z</time>
      </trkpt>
      <trkpt lat="42.51983" lon="-0.35091">
        <time>2022-07-31T13:49:50Z</time>
      </trkpt>
      <trkpt lat="42.51975" lon="-0.35072">
        <time>2022-07-31T13:49:51Z</time>
      </trkpt>
      <trkpt lat="42.51966" lon="-0.35052">
        <time>2022-07-31T13:49:52Z</time>
      </trkpt>
      <trkpt lat="42.51957" lon="-0.3503">
        <time>2022-07-31T13:49:53Z</time>
      </trkpt>
      <trkpt lat="42.51947" lon="-0.35007">
        <time>2022-07-31T13:49:54Z</time>
      </trkpt>
      <trkpt lat="42.51936" lon="-0.34981">
        <time>2022-07-31T13:49:55Z</time>
      </trkpt>
      <trkpt lat="42.51924" lon="-0.34952">
        <time>2022-07-31T13:49:56Z</time>
      </trkpt>
      <trkpt lat="42.51911" lon="-0.34921">
        <time>2022-07-31T13:49:57Z</time>
      </trkpt>
      <trkpt lat="42.51897" lon="-0.34891">
        <time>2022-07-31T13:49:58Z</time>
      </trkpt>
      <trkpt lat="42.51884" lon="-0.3486">
        <time>2022-07-31T13:49:59Z</time>
      </trkpt>
      <trkpt lat="42.5187" lon="-0.34832">
        <time>2022-07-31T13:50:00Z</time>
      </trkpt>
      <trkpt lat="42.51858" lon="-0.34805">
        <time>2022-07-31T13:50:01Z</time>
      </trkpt>
      <trkpt lat="42.51846" lon="-0.34779">
        <time>2022-07-31T13:50:02Z</time>
      </trkpt>
      <trkpt lat="42.51834" lon="-0.34754">
        <time>2022-07-31T13:50:03Z</time>
      </trkpt>
      <trkpt lat="42.51824" lon="-0.34729">
        <time>2022-07-31T13:50:04Z</time>
      </trkpt>
      <trkpt lat="42.51813" lon="-0.34706">
        <time>2022-07-31T13:50:05Z</time>
      </trkpt>
      <trkpt lat="42.51803" lon="-0.34683">
        <time>2022-07-31T13:50:06Z</time>
      </trkpt>
      <trkpt lat="42.51793" lon="-0.34661">
        <time>2022-07-31T13:50:07Z</time>
      </trkpt>
      <trkpt lat="42.51783" lon="-0.34638">
        <time>2022-07-31T13:50:08Z</time>
      </trkpt>
      <trkpt lat="42.51773" lon="-0.34615">
        <time>2022-07-31T13:50:09Z</time>
      </trkpt>
      <trkpt lat="42.51764" lon="-0.34592">
        <time>2022-07-31T13:50:10Z</time>
      </trkpt>
      <trkpt lat="42.51753" lon="-0.34569">
        <time>2022-07-31T13:50:11Z</time>
      </trkpt>
      <trkpt lat="42.51743" lon="-0.34546">
        <time>2022-07-31T13:50:12Z</time>
      </trkpt>
      <trkpt lat="42.51732" lon="-0.34522">
        <time>2022-07-31T13:50:13Z</time>
      </trkpt>
      <trkpt lat="42.51721" lon="-0.34499">
        <time>2022-07-31T13:50:14Z</time>
      </trkpt>
      <trkpt lat="42.51709" lon="-0.34475">
        <time>2022-07-31T13:50:15Z</time>
      </trkpt>
      <trkpt lat="42.51696" lon="-0.34453">
        <time>2022-07-31T13:50:16Z</time>
      </trkpt>
      <trkpt lat="42.51681" lon="-0.34431">
        <time>2022-07-31T13:50:17Z</time>
      </trkpt>
      <trkpt lat="42.51665" lon="-0.34411">
        <time>2022-07-31T13:50:18Z</time>
      </trkpt>
      <trkpt lat="42.51649" lon="-0.34393">
        <time>2022-07-31T13:50:19Z</time>
      </trkpt>
      <trkpt lat="42.51631" lon="-0.34376">
        <time>2022-07-31T13:50:20Z</time>
      </trkpt>
      <trkpt lat="42.51612" lon="-0.34363">
        <time>2022-07-31T13:50:21Z</time>
      </trkpt>
      <trkpt lat="42.51594" lon="-0.34351">
        <time>2022-07-31T13:50:22Z</time>
      </trkpt>
      <trkpt lat="42.51575" lon="-0.34342">
        <time>2022-07-31T13:50:23Z</time>
      </trkpt>
      <trkpt lat="42.51555" lon="-0.34335">
        <time>2022-07-31T13:50:24Z</time>
      </trkpt>
      <trkpt lat="42.51536" lon="-0.3433">
        <time>2022-07-31T13:50:25Z</time>
      </trkpt>
      <trkpt lat="42.51516" lon="-0.34326">
        <time>2022-07-31T13:50:26Z</time>
      </trkpt>
      <trkpt lat="42.51496" lon="-0.34325">
        <time>2022-07-31T13:50:27Z</time>
      </trkpt>
      <trkpt lat="42.51477" lon="-0.34325">
        <time>2022-07-31T13:50:28Z</time>
      </trkpt>
      <trkpt lat="42.51458" lon="-0.34327">
        <time>2022-07-31T13:50:29Z</time>
      </trkpt>
      <trkpt lat="42.51439" lon="-0.34331">
        <time>2022-07-31T13:50:30Z</time>
      </trkpt>
      <trkpt lat="42.51421" lon="-0.34337">
        <time>2022-07-31T13:50:31Z</time>
      </trkpt>
      <trkpt lat="42.51404" lon="-0.34345">
        <time>2022-07-31T13:50:32Z</time>
      </trkpt>
      <trkpt lat="42.51388" lon="-0.34353">
        <time>2022-07-31T13:50:33Z</time>
      </trkpt>
      <trkpt lat="42.51373" lon="-0.34362">
        <time>2022-07-31T13:50:34Z</time>
      </trkpt>
      <trkpt lat="42.51359" lon="-0.34372">
        <time>2022-07-31T13:50:35Z</time>
      </trkpt>
      <trkpt lat="42.51346" lon="-0.34382">
        <time>2022-07-31T13:50:36Z</time>
      </trkpt>
      <trkpt lat="42.51333" lon="-0.34392">
        <time>2022-07-31T13:50:37Z</time>
      </trkpt>
      <trkpt lat="42.51322" lon="-0.34401">
        <time>2022-07-31T13:50:38Z</time>
      </trkpt>
      <trkpt lat="42.5131" lon="-0.3441">
        <time>2022-07-31T13:50:39Z</time>
      </trkpt>
      <trkpt lat="42.51299" lon="-0.34418">
        <time>2022-07-31T13:50:40Z</time>
      </trkpt>
      <trkpt lat="42.51289" lon="-0.34427">
        <time>2022-07-31T13:50:41Z</time>
      </trkpt>
      <trkpt lat="42.5128" lon="-0.34435">
        <time>2022-07-31T13:50:42Z</time>
      </trkpt>
      <trkpt lat="42.51271" lon="-0.34444">
        <time>2022-07-31T13:50:43Z</time>
      </trkpt>
      <trkpt lat="42.51262" lon="-0.34451">
        <time>2022-07-31T13:50:44Z</time>
      </trkpt>
      <trkpt lat="42.51253" lon="-0.34458">
        <time>2022-07-31T13:50:45Z</time>
      </trkpt>
      <trkpt lat="42.51244" lon="-0.34465">
        <time>2022-07-31T13:50:46Z</time>
      </trkpt>
      <trkpt lat="42.51236" lon="-0.34472">
        <time>2022-07-31T13:50:47Z</time>
      </trkpt>
      <trkpt lat="42.51228" lon="-0.34479">
        <time>2022-07-31T13:50:48Z</time>
      </trkpt>
      <trkpt lat="42.51219" lon="-0.34485">
        <time>2022-07-31T13:50:49Z</time>
      </trkpt>
      <trkpt lat="42.51211" lon="-0.34493">
        <time>2022-07-31T13:50:50Z</time>
      </trkpt>
      <trkpt lat="42.51202" lon="-0.345">
        <time>2022-07-31T13:50:51Z</time>
      </trkpt>
      <trkpt lat="42.51194" lon="-0.34506">
        <time>2022-07-31T13:50:52Z</time>
      </trkpt>
      <trkpt lat="42.51186" lon="-0.34512">
        <time>2022-07-31T13:50:53Z</time>
      </trkpt>
      <trkpt lat="42.51178" lon="-0.34518">
        <time>2022-07-31T13:50:54Z</time>
      </trkpt>
      <trkpt lat="42.51171" lon="-0.34523">
        <time>2022-07-31T13:50:55Z</time>
      </trkpt>
      <trkpt lat="42.51165" lon="-0.34527">
        <time>2022-07-31T13:50:56Z</time>
      </trkpt>
      <trkpt lat="42.51158" lon="-0.3453">
        <time>2022-07-31T13:50:57Z</time>
      </trkpt>
      <trkpt lat="42.51152" lon="-0.34534">
        <time>2022-07-31T13:50:58Z</time>
      </trkpt>
      <trkpt lat="42.51146" lon="-0.34539">
        <time>2022-07-31T13:50:59Z</time>
      </trkpt>
      <trkpt lat="42.5114" lon="-0.34546">
        <time>2022-07-31T13:51:00Z</time>
      </trkpt>
      <trkpt lat="42.51135" lon="-0.34554">
        <time>2022-07-31T13:51:01Z</time>
      </trkpt>
      <trkpt lat="42.51128" lon="-0.34559">
        <time>2022-07-31T13:51:02Z</time>
      </trkpt>
      <trkpt lat="42.51121" lon="-0.34562">
        <time>2022-07-31T13:51:03Z</time>
      </trkpt>
      <trkpt lat="42.51113" lon="-0.34564">
        <time>2022-07-31T13:51:04Z</time>
      </trkpt>
      <trkpt lat="42.51104" lon="-0.34566">
        <time>2022-07-31T13:51:05Z</time>
      </trkpt>
      <trkpt lat="42.51094" lon="-0.34571">
        <time>2022-07-31T13:51:06Z</time>
      </trkpt>
      <trkpt lat="42.51085" lon="-0.3458">
        <time>2022-07-31T13:51:07Z</time>
      </trkpt>
      <trkpt lat="42.51078" lon="-0.34592">
        <time>2022-07-31T13:51:08Z</time>
      </trkpt>
      <trkpt lat="42.51071" lon="-0.34606">
        <time>2022-07-31T13:51:09Z</time>
      </trkpt>
      <trkpt lat="42.51064" lon="-0.34622">
        <time>2022-07-31T13:51:10Z</time>
      </trkpt>
      <trkpt lat="42.51059" lon="-0.3464">
        <time>2022-07-31T13:51:11Z</time>
      </trkpt>
      <trkpt lat="42.51054" lon="-0.34659">
        <time>2022-07-31T13:51:12Z</time>
      </trkpt>
      <trkpt lat="42.5105" lon="-0.3468">
        <time>2022-07-31T13:51:13Z</time>
      </trkpt>
      <trkpt lat="42.51047" lon="-0.34701">
        <time>2022-07-31T13:51:14Z</time>
      </trkpt>
      <trkpt lat="42.51045" lon="-0.34722">
        <time>2022-07-31T13:51:15Z</time>
      </trkpt>
      <trkpt lat="42.51044" lon="-0.34743">
        <time>2022-07-31T13:51:16Z</time>
      </trkpt>
      <trkpt lat="42.51042" lon="-0.34765">
        <time>2022-07-31T13:51:17Z</time>
      </trkpt>
      <trkpt lat="42.5104" lon="-0.34788">
        <time>2022-07-31T13:51:18Z</time>
      </trkpt>
      <trkpt lat="42.51039" lon="-0.34811">
        <time>2022-07-31T13:51:19Z</time>
      </trkpt>
      <trkpt lat="42.51036" lon="-0.34836">
        <time>2022-07-31T13:51:20Z</time>
      </trkpt>
      <trkpt lat="42.51034" lon="-0.34862">
        <time>2022-07-31T13:51:21Z</time>
      </trkpt>
      <trkpt lat="42.51031" lon="-0.3489">
        <time>2022-07-31T13:51:22Z</time>
      </trkpt>
      <trkpt lat="42.51028" lon="-0.34917">
        <time>2022-07-31T13:51:23Z</time>
      </trkpt>
      <trkpt lat="42.51025" lon="-0.34946">
        <time>2022-07-31T13:51:24Z</time>
      </trkpt>
      <trkpt lat="42.51022" lon="-0.34974">
        <time>2022-07-31T13:51:25Z</time>
      </trkpt>
      <trkpt lat="42.51018" lon="-0.35003">
        <time>2022-07-31T13:51:26Z</time>
      </trkpt>
      <trkpt lat="42.51014" lon="-0.35031">
        <time>2022-07-31T13:51:27Z</time>
      </trkpt>
      <trkpt lat="42.51009" lon="-0.35059">
        <time>2022-07-31T13:51:28Z</time>
      </trkpt>
      <trkpt lat="42.51003" lon="-0.35085">
        <time>2022-07-31T13:51:29Z</time>
      </trkpt>
      <trkpt lat="42.50996" lon="-0.35111">
        <time>2022-07-31T13:51:30Z</time>
      </trkpt>
      <trkpt lat="42.50987" lon="-0.35137">
        <time>2022-07-31T13:51:31Z</time>
      </trkpt>
      <trkpt lat="42.50977" lon="-0.35162">
        <time>2022-07-31T13:51:32Z</time>
      </trkpt>
      <trkpt lat="42.50966" lon="-0.35185">
        <time>2022-07-31T13:51:33Z</time>
      </trkpt>
      <trkpt lat="42.50954" lon="-0.35208">
        <time>2022-07-31T13:51:34Z</time>
      </trkpt>
      <trkpt lat="42.50941" lon="-0.3523">
        <time>2022-07-31T13:51:35Z</time>
      </trkpt>
      <trkpt lat="42.50927" lon="-0.3525">
        <time>2022-07-31T13:51:36Z</time>
      </trkpt>
      <trkpt lat="42.50912" lon="-0.35269">
        <time>2022-07-31T13:51:37Z</time>
      </trkpt>
      <trkpt lat="42.50896" lon="-0.35286">
        <time>2022-07-31T13:51:38Z</time>
      </trkpt>
      <trkpt lat="42.5088" lon="-0.35302">
        <time>2022-07-31T13:51:39Z</time>
      </trkpt>
      <trkpt lat="42.50863" lon="-0.35316">
        <time>2022-07-31T13:51:40Z</time>
      </trkpt>
      <trkpt lat="42.50845" lon="-0.35328">
        <time>2022-07-31T13:51:41Z</time>
      </trkpt>
      <trkpt lat="42.50827" lon="-0.35339">
        <time>2022-07-31T13:51:42Z</time>
      </trkpt>
      <trkpt lat="42.50809" lon="-0.35349">
        <time>2022-07-31T13:51:43Z</time>
      </trkpt>
      <trkpt lat="42.50791" lon="-0.35357">
        <time>2022-07-31T13:51:44Z</time>
      </trkpt>
      <trkpt lat="42.50772" lon="-0.35364">
        <time>2022-07-31T13:51:45Z</time>
      </trkpt>
      <trkpt lat="42.50753" lon="-0.35369">
        <time>2022-07-31T13:51:46Z</time>
      </trkpt>
      <trkpt lat="42.50733" lon="-0.35372">
        <time>2022-07-31T13:51:47Z</time>
      </trkpt>
      <trkpt lat="42.50712" lon="-0.35374">
        <time>2022-07-31T13:51:48Z</time>
      </trkpt>
      <trkpt lat="42.50692" lon="-0.35374">
        <time>2022-07-31T13:51:49Z</time>
      </trkpt>
      <trkpt lat="42.50672" lon="-0.35371">
        <time>2022-07-31T13:51:50Z</time>
      </trkpt>
      <trkpt lat="42.50652" lon="-0.35367">
        <time>2022-07-31T13:51:51Z</time>
      </trkpt>
      <trkpt lat="42.50632" lon="-0.35362">
        <time>2022-07-31T13:51:52Z</time>
      </trkpt>
      <trkpt lat="42.50613" lon="-0.35355">
        <time>2022-07-31T13:51:53Z</time>
      </trkpt>
      <trkpt lat="42.50594" lon="-0.35347">
        <time>2022-07-31T13:51:54Z</time>
      </trkpt>
      <trkpt lat="42.50576" lon="-0.3534">
        <time>2022-07-31T13:51:55Z</time>
      </trkpt>
      <trkpt lat="42.50558" lon="-0.35333">
        <time>2022-07-31T13:51:56Z</time>
      </trkpt>
      <trkpt lat="42.50542" lon="-0.35327">
        <time>2022-07-31T13:51:57Z</time>
      </trkpt>
      <trkpt lat="42.50525" lon="-0.35321">
        <time>2022-07-31T13:51:58Z</time>
      </trkpt>
      <trkpt lat="42.50507" lon="-0.35317">
        <time>2022-07-31T13:51:59Z</time>
      </trkpt>
      <trkpt lat="42.50488" lon="-0.35314">
        <time>2022-07-31T13:52:00Z</time>
      </trkpt>
      <trkpt lat="42.50467" lon="-0.35313">
        <time>2022-07-31T13:52:01Z</time>
      </trkpt>
      <trkpt lat="42.50444" lon="-0.35312">
        <time>2022-07-31T13:52:02Z</time>
      </trkpt>
      <trkpt lat="42.50421" lon="-0.35313">
        <time>2022-07-31T13:52:03Z</time>
      </trkpt>
      <trkpt lat="42.50398" lon="-0.35317">
        <time>2022-07-31T13:52:04Z</time>
      </trkpt>
      <trkpt lat="42.50374" lon="-0.35323">
        <time>2022-07-31T13:52:05Z</time>
      </trkpt>
      <trkpt lat="42.50349" lon="-0.35332">
        <time>2022-07-31T13:52:06Z</time>
      </trkpt>
      <trkpt lat="42.50324" lon="-0.35344">
        <time>2022-07-31T13:52:07Z</time>
      </trkpt>
      <trkpt lat="42.50299" lon="-0.35357">
        <time>2022-07-31T13:52:08Z</time>
      </trkpt>
      <trkpt lat="42.50273" lon="-0.35374">
        <time>2022-07-31T13:52:09Z</time>
      </trkpt>
      <trkpt lat="42.50249" lon="-0.35393">
        <time>2022-07-31T13:52:10Z</time>
      </trkpt>
      <trkpt lat="42.50224" lon="-0.35415">
        <time>2022-07-31T13:52:11Z</time>
      </trkpt>
      <trkpt lat="42.50201" lon="-0.35439">
        <time>2022-07-31T13:52:12Z</time>
      </trkpt>
      <trkpt lat="42.50178" lon="-0.35464">
        <time>2022-07-31T13:52:13Z</time>
      </trkpt>
      <trkpt lat="42.50155" lon="-0.35489">
        <time>2022-07-31T13:52:14Z</time>
      </trkpt>
      <trkpt lat="42.50133" lon="-0.35515">
        <time>2022-07-31T13:52:15Z</time>
      </trkpt>
      <trkpt lat="42.50111" lon="-0.35541">
        <time>2022-07-31T13:52:16Z</time>
      </trkpt>
      <trkpt lat="42.50089" lon="-0.35566">
        <time>2022-07-31T13:52:17Z</time>
      </trkpt>
      <trkpt lat="42.50068" lon="-0.3559">
        <time>2022-07-31T13:52:18Z</time>
      </trkpt>
      <trkpt lat="42.50046" lon="-0.35614">
        <time>2022-07-31T13:52:19Z</time>
      </trkpt>
      <trkpt lat="42.50025" lon="-0.35639">
        <time>2022-07-31T13:52:20Z</time>
      </trkpt>
      <trkpt lat="42.50004" lon="-0.35663">
        <time>2022-07-31T13:52:21Z</time>
      </trkpt>
      <trkpt lat="42.49983" lon="-0.35687">
        <time>2022-07-31T13:52:22Z</time>
      </trkpt>
      <trkpt lat="42.49962" lon="-0.35711">
        <time>2022-07-31T13:52:23Z</time>
      </trkpt>
      <trkpt lat="42.49941" lon="-0.35735">
        <time>2022-07-31T13:52:24Z</time>
      </trkpt>
      <trkpt lat="42.4992" lon="-0.3576">
        <time>2022-07-31T13:52:25Z</time>
      </trkpt>
      <trkpt lat="42.49899" lon="-0.35784">
        <time>2022-07-31T13:52:26Z</time>
      </trkpt>
      <trkpt lat="42.49877" lon="-0.3581">
        <time>2022-07-31T13:52:27Z</time>
      </trkpt>
      <trkpt lat="42.49856" lon="-0.35836">
        <time>2022-07-31T13:52:28Z</time>
      </trkpt>
      <trkpt lat="42.49836" lon="-0.35864">
        <time>2022-07-31T13:52:29Z</time>
      </trkpt>
      <trkpt lat="42.49817" lon="-0.35893">
        <time>2022-07-31T13:52:30Z</time>
      </trkpt>
      <trkpt lat="42.49798" lon="-0.35923">
        <time>2022-07-31T13:52:31Z</time>
      </trkpt>
      <trkpt lat="42.49781" lon="-0.35955">
        <time>2022-07-31T13:52:32Z</time>
      </trkpt>
      <trkpt lat="42.49764" lon="-0.35988">
        <time>2022-07-31T13:52:33Z</time>
      </trkpt>
      <trkpt lat="42.49749" lon="-0.36023">
        <time>2022-07-31T13:52:34Z</time>
      </trkpt>
      <trkpt lat="42.49734" lon="-0.36058">
        <time>2022-07-31T13:52:35Z</time>
      </trkpt>
      <trkpt lat="42.49721" lon="-0.36095">
        <time>2022-07-31T13:52:36Z</time>
      </trkpt>
      <trkpt lat="42.49707" lon="-0.36132">
        <time>2022-07-31T13:52:37Z</time>
      </trkpt>
      <trkpt lat="42.49694" lon="-0.36169">
        <time>2022-07-31T13:52:38Z</time>
      </trkpt>
      <trkpt lat="42.4968" lon="-0.36206">
        <time>2022-07-31T13:52:39Z</time>
      </trkpt>
      <trkpt lat="42.49666" lon="-0.36242">
        <time>2022-07-31T13:52:40Z</time>
      </trkpt>
      <trkpt lat="42.4965" lon="-0.36277">
        <time>2022-07-31T13:52:41Z</time>
      </trkpt>
      <trkpt lat="42.49632" lon="-0.36311">
        <time>2022-07-31T13:52:42Z</time>
      </trkpt>
      <trkpt lat="42.49614" lon="-0.36344">
        <time>2022-07-31T13:52:43Z</time>
      </trkpt>
      <trkpt lat="42.49594" lon="-0.36376">
        <time>2022-07-31T13:52:44Z</time>
      </trkpt>
      <trkpt lat="42.49573" lon="-0.36407">
        <time>2022-07-31T13:52:45Z</time>
      </trkpt>
      <trkpt lat="42.49552" lon="-0.36436">
        <time>2022-07-31T13:52:46Z</time>
      </trkpt>
      <trkpt lat="42.49529" lon="-0.36464">
        <time>2022-07-31T13:52:47Z</time>
      </trkpt>
      <trkpt lat="42.49505" lon="-0.36491">
        <time>2022-07-31T13:52:48Z</time>
      </trkpt>
      <trkpt lat="42.49479" lon="-0.36516">
        <time>2022-07-31T13:52:49Z</time>
      </trkpt>
      <trkpt lat="42.49453" lon="-0.36539">
        <time>2022-07-31T13:52:50Z</time>
      </trkpt>
      <trkpt lat="42.49428" lon="-0.3656">
        <time>2022-07-31T13:52:51Z</time>
      </trkpt>
      <trkpt lat="42.49402" lon="-0.3658">
        <time>2022-07-31T13:52:52Z</time>
      </trkpt>
      <trkpt lat="42.49377" lon="-0.36599">
        <time>2022-07-31T13:52:53Z</time>
      </trkpt>
      <trkpt lat="42.49353" lon="-0.36617">
        <time>2022-07-31T13:52:54Z</time>
      </trkpt>
      <trkpt lat="42.49329" lon="-0.36635">
        <time>2022-07-31T13:52:55Z</time>
      </trkpt>
      <trkpt lat="42.49305" lon="-0.36653">
        <time>2022-07-31T13:52:56Z</time>
      </trkpt>
      <trkpt lat="42.49281" lon="-0.36672">
        <time>2022-07-31T13:52:57Z</time>
      </trkpt>
      <trkpt lat="42.49258" lon="-0.36693">
        <time>2022-07-31T13:52:58Z</time>
      </trkpt>
      <trkpt lat="42.49236" lon="-0.36714">
        <time>2022-07-31T13:52:59Z</time>
      </trkpt>
      <trkpt lat="42.49214" lon="-0.36737">
        <time>2022-07-31T13:53:00Z</time>
      </trkpt>
      <trkpt lat="42.49192" lon="-0.36759">
        <time>2022-07-31T13:53:01Z</time>
      </trkpt>
      <trkpt lat="42.49171" lon="-0.36783">
        <time>2022-07-31T13:53:02Z</time>
      </trkpt>
      <trkpt lat="42.4915" lon="-0.36807">
        <time>2022-07-31T13:53:03Z</time>
      </trkpt>
      <trkpt lat="42.4913" lon="-0.36831">
        <time>2022-07-31T13:53:04Z</time>
      </trkpt>
      <trkpt lat="42.4911" lon="-0.36856">
        <time>2022-07-31T13:53:05Z</time>
      </trkpt>
      <trkpt lat="42.49091" lon="-0.36881">
        <time>2022-07-31T13:53:06Z</time>
      </trkpt>
      <trkpt lat="42.49071" lon="-0.36907">
        <time>2022-07-31T13:53:07Z</time>
      </trkpt>
      <trkpt lat="42.4905" lon="-0.36932">
        <time>2022-07-31T13:53:08Z</time>
      </trkpt>
      <trkpt lat="42.4903" lon="-0.36958">
        <time>2022-07-31T13:53:09Z</time>
      </trkpt>
      <trkpt lat="42.4901" lon="-0.36983">
        <time>2022-07-31T13:53:10Z</time>
      </trkpt>
      <trkpt lat="42.48989" lon="-0.37008">
        <time>2022-07-31T13:53:11Z</time>
      </trkpt>
      <trkpt lat="42.48969" lon="-0.37034">
        <time>2022-07-31T13:53:12Z</time>
      </trkpt>
      <trkpt lat="42.48948" lon="-0.37058">
        <time>2022-07-31T13:53:13Z</time>
      </trkpt>
      <trkpt lat="42.48928" lon="-0.37083">
        <time>2022-07-31T13:53:14Z</time>
      </trkpt>
      <trkpt lat="42.48907" lon="-0.37106">
        <time>2022-07-31T13:53:15Z</time>
      </trkpt>
      <trkpt lat="42.48887" lon="-0.37128">
        <time>2022-07-31T13:53:16Z</time>
      </trkpt>
      <trkpt lat="42.48867" lon="-0.37149">
        <time>2022-07-31T13:53:17Z</time>
      </trkpt>
      <trkpt lat="42.48847" lon="-0.3717">
        <time>2022-07-31T13:53:18Z</time>
      </trkpt>
      <trkpt lat="42.48827" lon="-0.3719">
        <time>2022-07-31T13:53:19Z</time>
      </trkpt>
      <trkpt lat="42.48807" lon="-0.37211">
        <time>2022-07-31T13:53:20Z</time>
      </trkpt>
      <trkpt lat="42.48786" lon="-0.37231">
        <time>2022-07-31T13:53:21Z</time>
      </trkpt>
      <trkpt lat="42.48766" lon="-0.3725">
        <time>2022-07-31T13:53:22Z</time>
      </trkpt>
      <trkpt lat="42.48746" lon="-0.37268">
        <time>2022-07-31T13:53:23Z</time>
      </trkpt>
      <trkpt lat="42.48725" lon="-0.37285">
        <time>2022-07-31T13:53:24Z</time>
      </trkpt>
      <trkpt lat="42.48705" lon="-0.37301">
        <time>2022-07-31T13:53:25Z</time>
      </trkpt>
      <trkpt lat="42.48686" lon="-0.37317">
        <time>2022-07-31T13:53:26Z</time>
      </trkpt>
      <trkpt lat="42.48667" lon="-0.37332">
        <time>2022-07-31T13:53:27Z</time>
      </trkpt>
      <trkpt lat="42.48649" lon="-0.37346">
        <time>2022-07-31T13:53:28Z</time>
      </trkpt>
      <trkpt lat="42.48631" lon="-0.3736">
        <time>2022-07-31T13:53:29Z</time>
      </trkpt>
      <trkpt lat="42.48614" lon="-0.37374">
        <time>2022-07-31T13:53:30Z</time>
      </trkpt>
      <trkpt lat="42.48598" lon="-0.37387">
        <time>2022-07-31T13:53:31Z</time>
      </trkpt>
      <trkpt lat="42.48581" lon="-0.37399">
        <time>2022-07-31T13:53:32Z</time>
      </trkpt>
      <trkpt lat="42.48566" lon="-0.37409">
        <time>2022-07-31T13:53:33Z</time>
      </trkpt>
      <trkpt lat="42.48551" lon="-0.3742">
        <time>2022-07-31T13:53:34Z</time>
      </trkpt>
      <trkpt lat="42.48537" lon="-0.37429">
        <time>2022-07-31T13:53:35Z</time>
      </trkpt>
      <trkpt lat="42.48523" lon="-0.37439">
        <time>2022-07-31T13:53:36Z</time>
      </trkpt>
      <trkpt lat="42.48509" lon="-0.37448">
        <time>2022-07-31T13:53:37Z</time>
      </trkpt>
      <trkpt lat="42.48496" lon="-0.37457">
        <time>2022-07-31T13:53:38Z</time>
      </trkpt>
      <trkpt lat="42.48483" lon="-0.37466">
        <time>2022-07-31T13:53:39Z</time>
      </trkpt>
      <trkpt lat="42.4847" lon="-0.37475">
        <time>2022-07-31T13:53:40Z</time>
      </trkpt>
      <trkpt lat="42.48458" lon="-0.37483">
        <time>2022-07-31T13:53:41Z</time>
      </trkpt>
      <trkpt lat="42.48446" lon="-0.3749">
        <time>2022-07-31T13:53:42Z</time>
      </trkpt>
      <trkpt lat="42.48437" lon="-0.37497">
        <time>2022-07-31T13:53:43Z</time>
      </trkpt>
      <trkpt lat="42.48428" lon="-0.37503">
        <time>2022-07-31T13:53:44Z</time>
      </trkpt>
      <trkpt lat="42.4842" lon="-0.37509">
        <time>2022-07-31T13:53:45Z</time>
      </trkpt>
      <trkpt lat="42.48415" lon="-0.37513">
        <time>2022-07-31T13:53:46Z</time>
      </trkpt>
      <trkpt lat="42.4841" lon="-0.37518">
        <time>2022-07-31T13:53:47Z</time>
      </trkpt>
      <trkpt lat="42.48405" lon="-0.37523">
        <time>2022-07-31T13:53:48Z</time>
      </trkpt>
      <trkpt lat="42.484" lon="-0.37529">
        <time>2022-07-31T13:53:49Z</time>
      </trkpt>
      <trkpt lat="42.48396" lon="-0.37538">
        <time>2022-07-31T13:53:50Z</time>
      </trkpt>
      <trkpt lat="42.48394" lon="-0.37548">
        <time>2022-07-31T13:53:51Z</time>
      </trkpt>
      <trkpt lat="42.48391" lon="-0.37558">
        <time>2022-07-31T13:53:52Z</time>
      </trkpt>
      <trkpt lat="42.48388" lon="-0.37568">
        <time>2022-07-31T13:53:53Z</time>
      </trkpt>
      <trkpt lat="42.48383" lon="-0.37577">
        <time>2022-07-31T13:53:54Z</time>
      </trkpt>
      <trkpt lat="42.48378" lon="-0.37585">
        <time>2022-07-31T13:53:55Z</time>
      </trkpt>
      <trkpt lat="42.48372" lon="-0.37591">
        <time>2022-07-31T13:53:56Z</time>
      </trkpt>
      <trkpt lat="42.48365" lon="-0.37596">
        <time>2022-07-31T13:53:57Z</time>
      </trkpt>
      <trkpt lat="42.48358" lon="-0.37599">
        <time>2022-07-31T13:53:58Z</time>
      </trkpt>
      <trkpt lat="42.4835" lon="-0.37599">
        <time>2022-07-31T13:53:59Z</time>
      </trkpt>
      <trkpt lat="42.48342" lon="-0.37597">
        <time>2022-07-31T13:54:00Z</time>
      </trkpt>
      <trkpt lat="42.48334" lon="-0.37594">
        <time>2022-07-31T13:54:01Z</time>
      </trkpt>
      <trkpt lat="42.48328" lon="-0.37587">
        <time>2022-07-31T13:54:02Z</time>
      </trkpt>
      <trkpt lat="42.48322" lon="-0.37579">
        <time>2022-07-31T13:54:03Z</time>
      </trkpt>
      <trkpt lat="42.48318" lon="-0.37569">
        <time>2022-07-31T13:54:04Z</time>
      </trkpt>
      <trkpt lat="42.48315" lon="-0.37558">
        <time>2022-07-31T13:54:05Z</time>
      </trkpt>
      <trkpt lat="42.48314" lon="-0.37545">
        <time>2022-07-31T13:54:06Z</time>
      </trkpt>
      <trkpt lat="42.48311" lon="-0.37531">
        <time>2022-07-31T13:54:07Z</time>
      </trkpt>
      <trkpt lat="42.48309" lon="-0.37518">
        <time>2022-07-31T13:54:08Z</time>
      </trkpt>
      <trkpt lat="42.48304" lon="-0.37506">
        <time>2022-07-31T13:54:09Z</time>
      </trkpt>
      <trkpt lat="42.48297" lon="-0.37496">
        <time>2022-07-31T13:54:10Z</time>
      </trkpt>
      <trkpt lat="42.48289" lon="-0.37487">
        <time>2022-07-31T13:54:11Z</time>
      </trkpt>
      <trkpt lat="42.48279" lon="-0.37481">
        <time>2022-07-31T13:54:12Z</time>
      </trkpt>
      <trkpt lat="42.48268" lon="-0.37477">
        <time>2022-07-31T13:54:13Z</time>
      </trkpt>
      <trkpt lat="42.48256" lon="-0.37474">
        <time>2022-07-31T13:54:14Z</time>
      </trkpt>
      <trkpt lat="42.48244" lon="-0.37472">
        <time>2022-07-31T13:54:15Z</time>
      </trkpt>
      <trkpt lat="42.4823" lon="-0.37472">
        <time>2022-07-31T13:54:16Z</time>
      </trkpt>
      <trkpt lat="42.48216" lon="-0.37473">
        <time>2022-07-31T13:54:17Z</time>
      </trkpt>
      <trkpt lat="42.48202" lon="-0.37475">
        <time>2022-07-31T13:54:18Z</time>
      </trkpt>
      <trkpt lat="42.48187" lon="-0.37478">
        <time>2022-07-31T13:54:19Z</time>
      </trkpt>
      <trkpt lat="42.48171" lon="-0.37482">
        <time>2022-07-31T13:54:20Z</time>
      </trkpt>
      <trkpt lat="42.48155" lon="-0.37486">
        <time>2022-07-31T13:54:21Z</time>
      </trkpt>
      <trkpt lat="42.48139" lon="-0.3749">
        <time>2022-07-31T13:54:22Z</time>
      </trkpt>
      <trkpt lat="42.48124" lon="-0.37493">
        <time>2022-07-31T13:54:23Z</time>
      </trkpt>
      <trkpt lat="42.48109" lon="-0.37498">
        <time>2022-07-31T13:54:24Z</time>
      </trkpt>
      <trkpt lat="42.48094" lon="-0.37503">
        <time>2022-07-31T13:54:25Z</time>
      </trkpt>
      <trkpt lat="42.48078" lon="-0.37508">
        <time>2022-07-31T13:54:26Z</time>
      </trkpt>
      <trkpt lat="42.48062" lon="-0.37514">
        <time>2022-07-31T13:54:27Z</time>
      </trkpt>
      <trkpt lat="42.48046" lon="-0.37522">
        <time>2022-07-31T13:54:28Z</time>
      </trkpt>
      <trkpt lat="42.48031" lon="-0.3753">
        <time>2022-07-31T13:54:29Z</time>
      </trkpt>
      <trkpt lat="42.48015" lon="-0.3754">
        <time>2022-07-31T13:54:30Z</time>
      </trkpt>
      <trkpt lat="42.47998" lon="-0.37551">
        <time>2022-07-31T13:54:31Z</time>
      </trkpt>
      <trkpt lat="42.47982" lon="-0.37563">
        <time>2022-07-31T13:54:32Z</time>
      </trkpt>
      <trkpt lat="42.47965" lon="-0.37576">
        <time>2022-07-31T13:54:33Z</time>
      </trkpt>
      <trkpt lat="42.47948" lon="-0.37591">
        <time>2022-07-31T13:54:34Z</time>
      </trkpt>
      <trkpt lat="42.47931" lon="-0.37607">
        <time>2022-07-31T13:54:35Z</time>
      </trkpt>
      <trkpt lat="42.47914" lon="-0.37625">
        <time>2022-07-31T13:54:36Z</time>
      </trkpt>
      <trkpt lat="42.47899" lon="-0.37644">
        <time>2022-07-31T13:54:37Z</time>
      </trkpt>
      <trkpt lat="42.47884" lon="-0.37665">
        <time>2022-07-31T13:54:38Z</time>
      </trkpt>
      <trkpt lat="42.47869" lon="-0.37686">
        <time>2022-07-31T13:54:39Z</time>
      </trkpt>
      <trkpt lat="42.47854" lon="-0.37707">
        <time>2022-07-31T13:54:40Z</time>
      </trkpt>
      <trkpt lat="42.47839" lon="-0.37728">
        <time>2022-07-31T13:54:41Z</time>
      </trkpt>
      <trkpt lat="42.47824" lon="-0.37747">
        <time>2022-07-31T13:54:42Z</time>
      </trkpt>
      <trkpt lat="42.47807" lon="-0.37764">
        <time>2022-07-31T13:54:43Z</time>
      </trkpt>
      <trkpt lat="42.4779" lon="-0.37779">
        <time>2022-07-31T13:54:44Z</time>
      </trkpt>
      <trkpt lat="42.47773" lon="-0.37792">
        <time>2022-07-31T13:54:45Z</time>
      </trkpt>
      <trkpt lat="42.47756" lon="-0.37804">
        <time>2022-07-31T13:54:46Z</time>
      </trkpt>
      <trkpt lat="42.47739" lon="-0.37816">
        <time>2022-07-31T13:54:47Z</time>
      </trkpt>
      <trkpt lat="42.47723" lon="-0.37829">
        <time>2022-07-31T13:54:48Z</time>
      </trkpt>
      <trkpt lat="42.47708" lon="-0.37844">
        <time>2022-07-31T13:54:49Z</time>
      </trkpt>
      <trkpt lat="42.47693" lon="-0.37859">
        <time>2022-07-31T13:54:50Z</time>
      </trkpt>
      <trkpt lat="42.47678" lon="-0.37874">
        <time>2022-07-31T13:54:51Z</time>
      </trkpt>
      <trkpt lat="42.47664" lon="-0.3789">
        <time>2022-07-31T13:54:52Z</time>
      </trkpt>
      <trkpt lat="42.47649" lon="-0.37905">
        <time>2022-07-31T13:54:53Z</time>
      </trkpt>
      <trkpt lat="42.47635" lon="-0.37921">
        <time>2022-07-31T13:54:54Z</time>
      </trkpt>
      <trkpt lat="42.4762" lon="-0.37936">
        <time>2022-07-31T13:54:55Z</time>
      </trkpt>
      <trkpt lat="42.47606" lon="-0.37951">
        <time>2022-07-31T13:54:56Z</time>
      </trkpt>
      <trkpt lat="42.47591" lon="-0.37966">
        <time>2022-07-31T13:54:57Z</time>
      </trkpt>
      <trkpt lat="42.47576" lon="-0.37983">
        <time>2022-07-31T13:54:58Z</time>
      </trkpt>
      <trkpt lat="42.47561" lon="-0.38002">
        <time>2022-07-31T13:54:59Z</time>
      </trkpt>
      <trkpt lat="42.47544" lon="-0.38024">
        <time>2022-07-31T13:55:00Z</time>
      </trkpt>
      <trkpt lat="42.47528" lon="-0.38049">
        <time>2022-07-31T13:55:01Z</time>
      </trkpt>
      <trkpt lat="42.47511" lon="-0.38076">
        <time>2022-07-31T13:55:02Z</time>
      </trkpt>
      <trkpt lat="42.47495" lon="-0.38104">
        <time>2022-07-31T13:55:03Z</time>
      </trkpt>
      <trkpt lat="42.47479" lon="-0.38132">
        <time>2022-07-31T13:55:04Z</time>
      </trkpt>
      <trkpt lat="42.47463" lon="-0.38159">
        <time>2022-07-31T13:55:05Z</time>
      </trkpt>
      <trkpt lat="42.47447" lon="-0.38186">
        <time>2022-07-31T13:55:06Z</time>
      </trkpt>
      <trkpt lat="42.47432" lon="-0.38212">
        <time>2022-07-31T13:55:07Z</time>
      </trkpt>
      <trkpt lat="42.47416" lon="-0.38237">
        <time>2022-07-31T13:55:08Z</time>
      </trkpt>
      <trkpt lat="42.47402" lon="-0.3826">
        <time>2022-07-31T13:55:09Z</time>
      </trkpt>
      <trkpt lat="42.47388" lon="-0.38283">
        <time>2022-07-31T13:55:10Z</time>
      </trkpt>
      <trkpt lat="42.47373" lon="-0.38306">
        <time>2022-07-31T13:55:11Z</time>
      </trkpt>
      <trkpt lat="42.47358" lon="-0.38329">
        <time>2022-07-31T13:55:12Z</time>
      </trkpt>
      <trkpt lat="42.47342" lon="-0.38351">
        <time>2022-07-31T13:55:13Z</time>
      </trkpt>
      <trkpt lat="42.47326" lon="-0.38373">
        <time>2022-07-31T13:55:14Z</time>
      </trkpt>
      <trkpt lat="42.4731" lon="-0.38394">
        <time>2022-07-31T13:55:15Z</time>
      </trkpt>
      <trkpt lat="42.47294" lon="-0.38415">
        <time>2022-07-31T13:55:16Z</time>
      </trkpt>
      <trkpt lat="42.47279" lon="-0.38435">
        <time>2022-07-31T13:55:17Z</time>
      </trkpt>
      <trkpt lat="42.47263" lon="-0.38454">
        <time>2022-07-31T13:55:18Z</time>
      </trkpt>
      <trkpt lat="42.47247" lon="-0.38472">
        <time>2022-07-31T13:55:19Z</time>
      </trkpt>
      <trkpt lat="42.47231" lon="-0.38491">
        <time>2022-07-31T13:55:20Z</time>
      </trkpt>
      <trkpt lat="42.47215" lon="-0.3851">
        <time>2022-07-31T13:55:21Z</time>
      </trkpt>
      <trkpt lat="42.472" lon="-0.38528">
        <time>2022-07-31T13:55:22Z</time>
      </trkpt>
      <trkpt lat="42.47183" lon="-0.38547">
        <time>2022-07-31T13:55:23Z</time>
      </trkpt>
      <trkpt lat="42.47167" lon="-0.38566">
        <time>2022-07-31T13:55:24Z</time>
      </trkpt>
      <trkpt lat="42.4715" lon="-0.38585">
        <time>2022-07-31T13:55:25Z</time>
      </trkpt>
      <trkpt lat="42.47134" lon="-0.38604">
        <time>2022-07-31T13:55:26Z</time>
      </trkpt>
      <trkpt lat="42.47118" lon="-0.38623">
        <time>2022-07-31T13:55:27Z</time>
      </trkpt>
      <trkpt lat="42.47102" lon="-0.38642">
        <time>2022-07-31T13:55:28Z</time>
      </trkpt>
      <trkpt lat="42.47085" lon="-0.3866">
        <time>2022-07-31T13:55:29Z</time>
      </trkpt>
      <trkpt lat="42.47069" lon="-0.38679">
        <time>2022-07-31T13:55:30Z</time>
      </trkpt>
      <trkpt lat="42.47053" lon="-0.38698">
        <time>2022-07-31T13:55:31Z</time>
      </trkpt>
      <trkpt lat="42.47037" lon="-0.38716">
        <time>2022-07-31T13:55:32Z</time>
      </trkpt>
      <trkpt lat="42.4702" lon="-0.38734">
        <time>2022-07-31T13:55:33Z</time>
      </trkpt>
      <trkpt lat="42.47004" lon="-0.38752">
        <time>2022-07-31T13:55:34Z</time>
      </trkpt>
      <trkpt lat="42.46989" lon="-0.3877">
        <time>2022-07-31T13:55:35Z</time>
      </trkpt>
      <trkpt lat="42.46974" lon="-0.38787">
        <time>2022-07-31T13:55:36Z</time>
      </trkpt>
      <trkpt lat="42.46959" lon="-0.38804">
        <time>2022-07-31T13:55:37Z</time>
      </trkpt>
      <trkpt lat="42.46943" lon="-0.38822">
        <time>2022-07-31T13:55:38Z</time>
      </trkpt>
      <trkpt lat="42.46928" lon="-0.3884">
        <time>2022-07-31T13:55:39Z</time>
      </trkpt>
      <trkpt lat="42.46911" lon="-0.38858">
        <time>2022-07-31T13:55:40Z</time>
      </trkpt>
      <trkpt lat="42.46895" lon="-0.38876">
        <time>2022-07-31T13:55:41Z</time>
      </trkpt>
      <trkpt lat="42.46878" lon="-0.38893">
        <time>2022-07-31T13:55:42Z</time>
      </trkpt>
      <trkpt lat="42.4686" lon="-0.3891">
        <time>2022-07-31T13:55:43Z</time>
      </trkpt>
      <trkpt lat="42.46842" lon="-0.38925">
        <time>2022-07-31T13:55:44Z</time>
      </trkpt>
      <trkpt lat="42.46823" lon="-0.38938">
        <time>2022-07-31T13:55:45Z</time>
      </trkpt>
      <trkpt lat="42.46803" lon="-0.3895">
        <time>2022-07-31T13:55:46Z</time>
      </trkpt>
      <trkpt lat="42.46783" lon="-0.38961">
        <time>2022-07-31T13:55:47Z</time>
      </trkpt>
      <trkpt lat="42.46764" lon="-0.3897">
        <time>2022-07-31T13:55:48Z</time>
      </trkpt>
      <trkpt lat="42.46745" lon="-0.38977">
        <time>2022-07-31T13:55:49Z</time>
      </trkpt>
      <trkpt lat="42.46725" lon="-0.38983">
        <time>2022-07-31T13:55:50Z</time>
      </trkpt>
      <trkpt lat="42.46706" lon="-0.38988">
        <time>2022-07-31T13:55:51Z</time>
      </trkpt>
      <trkpt lat="42.46686" lon="-0.38992">
        <time>2022-07-31T13:55:52Z</time>
      </trkpt>
      <trkpt lat="42.46664" lon="-0.38995">
        <time>2022-07-31T13:55:53Z</time>
      </trkpt>
      <trkpt lat="42.46641" lon="-0.38997">
        <time>2022-07-31T13:55:54Z</time>
      </trkpt>
      <trkpt lat="42.46616" lon="-0.39">
        <time>2022-07-31T13:55:55Z</time>
      </trkpt>
      <trkpt lat="42.46591" lon="-0.39004">
        <time>2022-07-31T13:55:56Z</time>
      </trkpt>
      <trkpt lat="42.46566" lon="-0.39008">
        <time>2022-07-31T13:55:57Z</time>
      </trkpt>
      <trkpt lat="42.46541" lon="-0.39013">
        <time>2022-07-31T13:55:58Z</time>
      </trkpt>
      <trkpt lat="42.46516" lon="-0.39016">
        <time>2022-07-31T13:55:59Z</time>
      </trkpt>
      <trkpt lat="42.46493" lon="-0.39019">
        <time>2022-07-31T13:56:00Z</time>
      </trkpt>
      <trkpt lat="42.4647" lon="-0.39022">
        <time>2022-07-31T13:56:01Z</time>
      </trkpt>
      <trkpt lat="42.46448" lon="-0.39025">
        <time>2022-07-31T13:56:02Z</time>
      </trkpt>
      <trkpt lat="42.46426" lon="-0.39028">
        <time>2022-07-31T13:56:03Z</time>
      </trkpt>
      <trkpt lat="42.46406" lon="-0.39031">
        <time>2022-07-31T13:56:04Z</time>
      </trkpt>
      <trkpt lat="42.46384" lon="-0.39034">
        <time>2022-07-31T13:56:05Z</time>
      </trkpt>
      <trkpt lat="42.46363" lon="-0.39037">
        <time>2022-07-31T13:56:06Z</time>
      </trkpt>
      <trkpt lat="42.46343" lon="-0.3904">
        <time>2022-07-31T13:56:07Z</time>
      </trkpt>
      <trkpt lat="42.46322" lon="-0.39042">
        <time>2022-07-31T13:56:08Z</time>
      </trkpt>
      <trkpt lat="42.46302" lon="-0.39045">
        <time>2022-07-31T13:56:09Z</time>
      </trkpt>
      <trkpt lat="42.46281" lon="-0.39048">
        <time>2022-07-31T13:56:10Z</time>
      </trkpt>
      <trkpt lat="42.4626" lon="-0.39051">
        <time>2022-07-31T13:56:11Z</time>
      </trkpt>
      <trkpt lat="42.46239" lon="-0.39055">
        <time>2022-07-31T13:56:12Z</time>
      </trkpt>
      <trkpt lat="42.46218" lon="-0.39058">
        <time>2022-07-31T13:56:13Z</time>
      </trkpt>
      <trkpt lat="42.46196" lon="-0.39061">
        <time>2022-07-31T13:56:14Z</time>
      </trkpt>
      <trkpt lat="42.46175" lon="-0.39063">
        <time>2022-07-31T13:56:15Z</time>
      </trkpt>
      <trkpt lat="42.46153" lon="-0.39065">
        <time>2022-07-31T13:56:16Z</time>
      </trkpt>
      <trkpt lat="42.46131" lon="-0.39066">
        <time>2022-07-31T13:56:17Z</time>
      </trkpt>
      <trkpt lat="42.46109" lon="-0.39066">
        <time>2022-07-31T13:56:18Z</time>
      </trkpt>
      <trkpt lat="42.46086" lon="-0.39064">
        <time>2022-07-31T13:56:19Z</time>
      </trkpt>
      <trkpt lat="42.46062" lon="-0.3906">
        <time>2022-07-31T13:56:20Z</time>
      </trkpt>
      <trkpt lat="42.46036" lon="-0.39053">
        <time>2022-07-31T13:56:21Z</time>
      </trkpt>
      <trkpt lat="42.46009" lon="-0.39045">
        <time>2022-07-31T13:56:22Z</time>
      </trkpt>
      <trkpt lat="42.45982" lon="-0.39038">
        <time>2022-07-31T13:56:23Z</time>
      </trkpt>
      <trkpt lat="42.45954" lon="-0.3903">
        <time>2022-07-31T13:56:24Z</time>
      </trkpt>
      <trkpt lat="42.45926" lon="-0.39022">
        <time>2022-07-31T13:56:25Z</time>
      </trkpt>
      <trkpt lat="42.45899" lon="-0.39014">
        <time>2022-07-31T13:56:26Z</time>
      </trkpt>
      <trkpt lat="42.45873" lon="-0.39005">
        <time>2022-07-31T13:56:27Z</time>
      </trkpt>
      <trkpt lat="42.45847" lon="-0.38997">
        <time>2022-07-31T13:56:28Z</time>
      </trkpt>
      <trkpt lat="42.45822" lon="-0.38989">
        <time>2022-07-31T13:56:29Z</time>
      </trkpt>
      <trkpt lat="42.45798" lon="-0.38981">
        <time>2022-07-31T13:56:30Z</time>
      </trkpt>
      <trkpt lat="42.45775" lon="-0.38974">
        <time>2022-07-31T13:56:31Z</time>
      </trkpt>
      <trkpt lat="42.45752" lon="-0.38966">
        <time>2022-07-31T13:56:32Z</time>
      </trkpt>
      <trkpt lat="42.4573" lon="-0.3896">
        <time>2022-07-31T13:56:33Z</time>
      </trkpt>
      <trkpt lat="42.45708" lon="-0.38956">
        <time>2022-07-31T13:56:34Z</time>
      </trkpt>
      <trkpt lat="42.45686" lon="-0.38955">
        <time>2022-07-31T13:56:35Z</time>
      </trkpt>
      <trkpt lat="42.45664" lon="-0.38957">
        <time>2022-07-31T13:56:36Z</time>
      </trkpt>
      <trkpt lat="42.45644" lon="-0.38961">
        <time>2022-07-31T13:56:37Z</time>
      </trkpt>
      <trkpt lat="42.45623" lon="-0.38968">
        <time>2022-07-31T13:56:38Z</time>
      </trkpt>
      <trkpt lat="42.45604" lon="-0.38976">
        <time>2022-07-31T13:56:39Z</time>
      </trkpt>
      <trkpt lat="42.45586" lon="-0.38987">
        <time>2022-07-31T13:56:40Z</time>
      </trkpt>
      <trkpt lat="42.45567" lon="-0.38998">
        <time>2022-07-31T13:56:41Z</time>
      </trkpt>
      <trkpt lat="42.45548" lon="-0.39009">
        <time>2022-07-31T13:56:42Z</time>
      </trkpt>
      <trkpt lat="42.45527" lon="-0.39019">
        <time>2022-07-31T13:56:43Z</time>
      </trkpt>
      <trkpt lat="42.45505" lon="-0.39026">
        <time>2022-07-31T13:56:44Z</time>
      </trkpt>
      <trkpt lat="42.45482" lon="-0.39031">
        <time>2022-07-31T13:56:45Z</time>
      </trkpt>
      <trkpt lat="42.4546" lon="-0.39034">
        <time>2022-07-31T13:56:46Z</time>
      </trkpt>
      <trkpt lat="42.45439" lon="-0.39037">
        <time>2022-07-31T13:56:47Z</time>
      </trkpt>
      <trkpt lat="42.45417" lon="-0.39038">
        <time>2022-07-31T13:56:48Z</time>
      </trkpt>
      <trkpt lat="42.45396" lon="-0.3904">
        <time>2022-07-31T13:56:49Z</time>
      </trkpt>
      <trkpt lat="42.45375" lon="-0.39041">
        <time>2022-07-31T13:56:50Z</time>
      </trkpt>
      <trkpt lat="42.45353" lon="-0.39043">
        <time>2022-07-31T13:56:51Z</time>
      </trkpt>
      <trkpt lat="42.45331" lon="-0.39044">
        <time>2022-07-31T13:56:52Z</time>
      </trkpt>
      <trkpt lat="42.45309" lon="-0.39046">
        <time>2022-07-31T13:56:53Z</time>
      </trkpt>
      <trkpt lat="42.45288" lon="-0.39047">
        <time>2022-07-31T13:56:54Z</time>
      </trkpt>
      <trkpt lat="42.45266" lon="-0.39049">
        <time>2022-07-31T13:56:55Z</time>
      </trkpt>
      <trkpt lat="42.45244" lon="-0.39051">
        <time>2022-07-31T13:56:56Z</time>
      </trkpt>
      <trkpt lat="42.45223" lon="-0.39053">
        <time>2022-07-31T13:56:57Z</time>
      </trkpt>
      <trkpt lat="42.45202" lon="-0.39054">
        <time>2022-07-31T13:56:58Z</time>
      </trkpt>
      <trkpt lat="42.45181" lon="-0.39056">
        <time>2022-07-31T13:56:59Z</time>
      </trkpt>
      <trkpt lat="42.45161" lon="-0.39057">
        <time>2022-07-31T13:57:00Z</time>
      </trkpt>
      <trkpt lat="42.45141" lon="-0.39059">
        <time>2022-07-31T13:57:01Z</time>
      </trkpt>
      <trkpt lat="42.4512" lon="-0.3906">
        <time>2022-07-31T13:57:02Z</time>
      </trkpt>
      <trkpt lat="42.451" lon="-0.39062">
        <time>2022-07-31T13:57:03Z</time>
      </trkpt>
      <trkpt lat="42.45079" lon="-0.39064">
        <time>2022-07-31T13:57:04Z</time>
      </trkpt>
      <trkpt lat="42.45057" lon="-0.39065">
        <time>2022-07-31T13:57:05Z</time>
      </trkpt>
      <trkpt lat="42.45036" lon="-0.39067">
        <time>2022-07-31T13:57:06Z</time>
      </trkpt>
      <trkpt lat="42.45015" lon="-0.3907">
        <time>2022-07-31T13:57:07Z</time>
      </trkpt>
      <trkpt lat="42.44994" lon="-0.39071">
        <time>2022-07-31T13:57:08Z</time>
      </trkpt>
      <trkpt lat="42.44972" lon="-0.39073">
        <time>2022-07-31T13:57:09Z</time>
      </trkpt>
      <trkpt lat="42.44952" lon="-0.39075">
        <time>2022-07-31T13:57:10Z</time>
      </trkpt>
      <trkpt lat="42.44931" lon="-0.39076">
        <time>2022-07-31T13:57:11Z</time>
      </trkpt>
      <trkpt lat="42.4491" lon="-0.39078">
        <time>2022-07-31T13:57:12Z</time>
      </trkpt>
      <trkpt lat="42.4489" lon="-0.39079">
        <time>2022-07-31T13:57:13Z</time>
      </trkpt>
      <trkpt lat="42.4487" lon="-0.39081">
        <time>2022-07-31T13:57:14Z</time>
      </trkpt>
      <trkpt lat="42.44849" lon="-0.39082">
        <time>2022-07-31T13:57:15Z</time>
      </trkpt>
      <trkpt lat="42.44829" lon="-0.39084">
        <time>2022-07-31T13:57:16Z</time>
      </trkpt>
      <trkpt lat="42.44808" lon="-0.39086">
        <time>2022-07-31T13:57:17Z</time>
      </trkpt>
      <trkpt lat="42.44787" lon="-0.39088">
        <time>2022-07-31T13:57:18Z</time>
      </trkpt>
      <trkpt lat="42.44766" lon="-0.39091">
        <time>2022-07-31T13:57:19Z</time>
      </trkpt>
      <trkpt lat="42.44744" lon="-0.39096">
        <time>2022-07-31T13:57:20Z</time>
      </trkpt>
      <trkpt lat="42.44723" lon="-0.39103">
        <time>2022-07-31T13:57:21Z</time>
      </trkpt>
      <trkpt lat="42.44703" lon="-0.39113">
        <time>2022-07-31T13:57:22Z</time>
      </trkpt>
      <trkpt lat="42.44682" lon="-0.39126">
        <time>2022-07-31T13:57:23Z</time>
      </trkpt>
      <trkpt lat="42.44662" lon="-0.39139">
        <time>2022-07-31T13:57:24Z</time>
      </trkpt>
      <trkpt lat="42.44641" lon="-0.39155">
        <time>2022-07-31T13:57:25Z</time>
      </trkpt>
      <trkpt lat="42.44619" lon="-0.39171">
        <time>2022-07-31T13:57:26Z</time>
      </trkpt>
      <trkpt lat="42.44597" lon="-0.39187">
        <time>2022-07-31T13:57:27Z</time>
      </trkpt>
      <trkpt lat="42.44575" lon="-0.39203">
        <time>2022-07-31T13:57:28Z</time>
      </trkpt>
      <trkpt lat="42.44554" lon="-0.39219">
        <time>2022-07-31T13:57:29Z</time>
      </trkpt>
      <trkpt lat="42.44535" lon="-0.39234">
        <time>2022-07-31T13:57:30Z</time>
      </trkpt>
      <trkpt lat="42.44517" lon="-0.39248">
        <time>2022-07-31T13:57:31Z</time>
      </trkpt>
      <trkpt lat="42.44499" lon="-0.39261">
        <time>2022-07-31T13:57:32Z</time>
      </trkpt>
      <trkpt lat="42.44482" lon="-0.39274">
        <time>2022-07-31T13:57:33Z</time>
      </trkpt>
      <trkpt lat="42.44464" lon="-0.39288">
        <time>2022-07-31T13:57:34Z</time>
      </trkpt>
      <trkpt lat="42.44447" lon="-0.393">
        <time>2022-07-31T13:57:35Z</time>
      </trkpt>
      <trkpt lat="42.44431" lon="-0.39312">
        <time>2022-07-31T13:57:36Z</time>
      </trkpt>
      <trkpt lat="42.44415" lon="-0.39325">
        <time>2022-07-31T13:57:37Z</time>
      </trkpt>
      <trkpt lat="42.444" lon="-0.39336">
        <time>2022-07-31T13:57:38Z</time>
      </trkpt>
      <trkpt lat="42.44384" lon="-0.39349">
        <time>2022-07-31T13:57:39Z</time>
      </trkpt>
      <trkpt lat="42.44368" lon="-0.39361">
        <time>2022-07-31T13:57:40Z</time>
      </trkpt>
      <trkpt lat="42.44353" lon="-0.39372">
        <time>2022-07-31T13:57:41Z</time>
      </trkpt>
      <trkpt lat="42.44338" lon="-0.39384">
        <time>2022-07-31T13:57:42Z</time>
      </trkpt>
      <trkpt lat="42.44324" lon="-0.39395">
        <time>2022-07-31T13:57:43Z</time>
      </trkpt>
      <trkpt lat="42.4431" lon="-0.39406">
        <time>2022-07-31T13:57:44Z</time>
      </trkpt>
      <trkpt lat="42.44296" lon="-0.39417">
        <time>2022-07-31T13:57:45Z</time>
      </trkpt>
      <trkpt lat="42.44282" lon="-0.39427">
        <time>2022-07-31T13:57:46Z</time>
      </trkpt>
      <trkpt lat="42.44269" lon="-0.39437">
        <time>2022-07-31T13:57:47Z</time>
      </trkpt>
      <trkpt lat="42.44255" lon="-0.39446">
        <time>2022-07-31T13:57:48Z</time>
      </trkpt>
      <trkpt lat="42.44243" lon="-0.39453">
        <time>2022-07-31T13:57:49Z</time>
      </trkpt>
      <trkpt lat="42.4423" lon="-0.39458">
        <time>2022-07-31T13:57:50Z</time>
      </trkpt>
      <trkpt lat="42.44217" lon="-0.39463">
        <time>2022-07-31T13:57:51Z</time>
      </trkpt>
      <trkpt lat="42.44204" lon="-0.39467">
        <time>2022-07-31T13:57:52Z</time>
      </trkpt>
      <trkpt lat="42.44191" lon="-0.3947">
        <time>2022-07-31T13:57:53Z</time>
      </trkpt>
      <trkpt lat="42.44178" lon="-0.39474">
        <time>2022-07-31T13:57:54Z</time>
      </trkpt>
      <trkpt lat="42.44165" lon="-0.39478">
        <time>2022-07-31T13:57:55Z</time>
      </trkpt>
      <trkpt lat="42.44152" lon="-0.39481">
        <time>2022-07-31T13:57:56Z</time>
      </trkpt>
      <trkpt lat="42.44139" lon="-0.39484">
        <time>2022-07-31T13:57:57Z</time>
      </trkpt>
      <trkpt lat="42.44126" lon="-0.39488">
        <time>2022-07-31T13:57:58Z</time>
      </trkpt>
      <trkpt lat="42.44114" lon="-0.39491">
        <time>2022-07-31T13:57:59Z</time>
      </trkpt>
      <trkpt lat="42.44102" lon="-0.39494">
        <time>2022-07-31T13:58:00Z</time>
      </trkpt>
      <trkpt lat="42.44091" lon="-0.39497">
        <time>2022-07-31T13:58:01Z</time>
      </trkpt>
      <trkpt lat="42.4408" lon="-0.395">
        <time>2022-07-31T13:58:02Z</time>
      </trkpt>
      <trkpt lat="42.44068" lon="-0.39503">
        <time>2022-07-31T13:58:03Z</time>
      </trkpt>
      <trkpt lat="42.44057" lon="-0.39507">
        <time>2022-07-31T13:58:04Z</time>
      </trkpt>
      <trkpt lat="42.44046" lon="-0.3951">
        <time>2022-07-31T13:58:05Z</time>
      </trkpt>
      <trkpt lat="42.44036" lon="-0.39513">
        <time>2022-07-31T13:58:06Z</time>
      </trkpt>
      <trkpt lat="42.44025" lon="-0.39516">
        <time>2022-07-31T13:58:07Z</time>
      </trkpt>
      <trkpt lat="42.44015" lon="-0.39519">
        <time>2022-07-31T13:58:08Z</time>
      </trkpt>
      <trkpt lat="42.44006" lon="-0.39521">
        <time>2022-07-31T13:58:09Z</time>
      </trkpt>
      <trkpt lat="42.43996" lon="-0.39524">
        <time>2022-07-31T13:58:10Z</time>
      </trkpt>
      <trkpt lat="42.43986" lon="-0.39528">
        <time>2022-07-31T13:58:11Z</time>
      </trkpt>
      <trkpt lat="42.43976" lon="-0.3953">
        <time>2022-07-31T13:58:12Z</time>
      </trkpt>
      <trkpt lat="42.43965" lon="-0.39534">
        <time>2022-07-31T13:58:13Z</time>
      </trkpt>
      <trkpt lat="42.43955" lon="-0.39538">
        <time>2022-07-31T13:58:14Z</time>
      </trkpt>
      <trkpt lat="42.43944" lon="-0.39541">
        <time>2022-07-31T13:58:15Z</time>
      </trkpt>
      <trkpt lat="42.43934" lon="-0.39543">
        <time>2022-07-31T13:58:16Z</time>
      </trkpt>
      <trkpt lat="42.43923" lon="-0.39547">
        <time>2022-07-31T13:58:17Z</time>
      </trkpt>
      <trkpt lat="42.43914" lon="-0.3955">
        <time>2022-07-31T13:58:18Z</time>
      </trkpt>
      <trkpt lat="42.43904" lon="-0.39553">
        <time>2022-07-31T13:58:19Z</time>
      </trkpt>
      <trkpt lat="42.43895" lon="-0.39556">
        <time>2022-07-31T13:58:20Z</time>
      </trkpt>
      <trkpt lat="42.43886" lon="-0.39558">
        <time>2022-07-31T13:58:21Z</time>
      </trkpt>
      <trkpt lat="42.43876" lon="-0.39561">
        <time>2022-07-31T13:58:22Z</time>
      </trkpt>
      <trkpt lat="42.43867" lon="-0.39564">
        <time>2022-07-31T13:58:23Z</time>
      </trkpt>
      <trkpt lat="42.43857" lon="-0.39567">
        <time>2022-07-31T13:58:24Z</time>
      </trkpt>
      <trkpt lat="42.43846" lon="-0.3957">
        <time>2022-07-31T13:58:25Z</time>
      </trkpt>
      <trkpt lat="42.43835" lon="-0.39573">
        <time>2022-07-31T13:58:26Z</time>
      </trkpt>
      <trkpt lat="42.43823" lon="-0.39577">
        <time>2022-07-31T13:58:27Z</time>
      </trkpt>
      <trkpt lat="42.43809" lon="-0.39581">
        <time>2022-07-31T13:58:28Z</time>
      </trkpt>
      <trkpt lat="42.43794" lon="-0.39585">
        <time>2022-07-31T13:58:29Z</time>
      </trkpt>
      <trkpt lat="42.43779" lon="-0.3959">
        <time>2022-07-31T13:58:30Z</time>
      </trkpt>
      <trkpt lat="42.43765" lon="-0.39594">
        <time>2022-07-31T13:58:31Z</time>
      </trkpt>
      <trkpt lat="42.4375" lon="-0.39599">
        <time>2022-07-31T13:58:32Z</time>
      </trkpt>
      <trkpt lat="42.43735" lon="-0.39604">
        <time>2022-07-31T13:58:33Z</time>
      </trkpt>
      <trkpt lat="42.4372" lon="-0.39609">
        <time>2022-07-31T13:58:34Z</time>
      </trkpt>
      <trkpt lat="42.43704" lon="-0.39614">
        <time>2022-07-31T13:58:35Z</time>
      </trkpt>
      <trkpt lat="42.43688" lon="-0.39619">
        <time>2022-07-31T13:58:36Z</time>
      </trkpt>
      <trkpt lat="42.43672" lon="-0.39624">
        <time>2022-07-31T13:58:37Z</time>
      </trkpt>
      <trkpt lat="42.43656" lon="-0.39629">
        <time>2022-07-31T13:58:38Z</time>
      </trkpt>
      <trkpt lat="42.43639" lon="-0.39633">
        <time>2022-07-31T13:58:39Z</time>
      </trkpt>
      <trkpt lat="42.43623" lon="-0.39638">
        <time>2022-07-31T13:58:40Z</time>
      </trkpt>
      <trkpt lat="42.43608" lon="-0.39643">
        <time>2022-07-31T13:58:41Z</time>
      </trkpt>
      <trkpt lat="42.43594" lon="-0.39647">
        <time>2022-07-31T13:58:42Z</time>
      </trkpt>
      <trkpt lat="42.43581" lon="-0.39651">
        <time>2022-07-31T13:58:43Z</time>
      </trkpt>
      <trkpt lat="42.43569" lon="-0.39656">
        <time>2022-07-31T13:58:44Z</time>
      </trkpt>
      <trkpt lat="42.43558" lon="-0.39662">
        <time>2022-07-31T13:58:45Z</time>
      </trkpt>
      <trkpt lat="42.43549" lon="-0.39668">
        <time>2022-07-31T13:58:46Z</time>
      </trkpt>
      <trkpt lat="42.4354" lon="-0.39673">
        <time>2022-07-31T13:58:47Z</time>
      </trkpt>
      <trkpt lat="42.43532" lon="-0.39677">
        <time>2022-07-31T13:58:48Z</time>
      </trkpt>
      <trkpt lat="42.43526" lon="-0.39682">
        <time>2022-07-31T13:58:49Z</time>
      </trkpt>
      <trkpt lat="42.4352" lon="-0.39686">
        <time>2022-07-31T13:58:50Z</time>
      </trkpt>
      <trkpt lat="42.43515" lon="-0.3969">
        <time>2022-07-31T13:58:51Z</time>
      </trkpt>
      <trkpt lat="42.43511" lon="-0.39694">
        <time>2022-07-31T13:58:52Z</time>
      </trkpt>
      <trkpt lat="42.43507" lon="-0.39697">
        <time>2022-07-31T13:58:53Z</time>
      </trkpt>
      <trkpt lat="42.43503" lon="-0.39699">
        <time>2022-07-31T13:58:54Z</time>
      </trkpt>
      <trkpt lat="42.435" lon="-0.397">
        <time>2022-07-31T13:58:55Z</time>
      </trkpt>
      <trkpt lat="42.43496" lon="-0.39701">
        <time>2022-07-31T13:58:56Z</time>
      </trkpt>
      <trkpt lat="42.43492" lon="-0.39702">
        <time>2022-07-31T13:58:57Z</time>
      </trkpt>
      <trkpt lat="42.43489" lon="-0.39702">
        <time>2022-07-31T13:58:58Z</time>
      </trkpt>
      <trkpt lat="42.43486" lon="-0.39703">
        <time>2022-07-31T13:58:59Z</time>
      </trkpt>
      <trkpt lat="42.43484" lon="-0.39704">
        <time>2022-07-31T13:59:00Z</time>
      </trkpt>
      <trkpt lat="42.43482" lon="-0.39704">
        <time>2022-07-31T13:59:01Z</time>
      </trkpt>
      <trkpt lat="42.43475" lon="-0.39707">
        <time>2022-07-31T14:04:29Z</time>
      </trkpt>
      <trkpt lat="42.43474" lon="-0.39707">
        <time>2022-07-31T14:04:30Z</time>
      </trkpt>
      <trkpt lat="42.43472" lon="-0.39708">
        <time>2022-07-31T14:04:31Z</time>
      </trkpt>
      <trkpt lat="42.43468" lon="-0.39708">
        <time>2022-07-31T14:04:32Z</time>
      </trkpt>
      <trkpt lat="42.43464" lon="-0.39707">
        <time>2022-07-31T14:04:33Z</time>
      </trkpt>
      <trkpt lat="42.43461" lon="-0.39705">
        <time>2022-07-31T14:04:34Z</time>
      </trkpt>
      <trkpt lat="42.43459" lon="-0.39702">
        <time>2022-07-31T14:04:35Z</time>
      </trkpt>
      <trkpt lat="42.43457" lon="-0.39699">
        <time>2022-07-31T14:04:36Z</time>
      </trkpt>
      <trkpt lat="42.43455" lon="-0.39698">
        <time>2022-07-31T14:04:37Z</time>
      </trkpt>
      <trkpt lat="42.43454" lon="-0.39696">
        <time>2022-07-31T14:04:38Z</time>
      </trkpt>
      <trkpt lat="42.43453" lon="-0.39695">
        <time>2022-07-31T14:05:00Z</time>
      </trkpt>
      <trkpt lat="42.43451" lon="-0.39693">
        <time>2022-07-31T14:05:01Z</time>
      </trkpt>
      <trkpt lat="42.43447" lon="-0.39692">
        <time>2022-07-31T14:05:02Z</time>
      </trkpt>
      <trkpt lat="42.4344" lon="-0.39693">
        <time>2022-07-31T14:05:03Z</time>
      </trkpt>
      <trkpt lat="42.43429" lon="-0.39696">
        <time>2022-07-31T14:05:04Z</time>
      </trkpt>
      <trkpt lat="42.43418" lon="-0.39699">
        <time>2022-07-31T14:05:05Z</time>
      </trkpt>
      <trkpt lat="42.43404" lon="-0.39703">
        <time>2022-07-31T14:05:06Z</time>
      </trkpt>
      <trkpt lat="42.43389" lon="-0.39708">
        <time>2022-07-31T14:05:07Z</time>
      </trkpt>
      <trkpt lat="42.43372" lon="-0.39713">
        <time>2022-07-31T14:05:08Z</time>
      </trkpt>
      <trkpt lat="42.43355" lon="-0.39718">
        <time>2022-07-31T14:05:09Z</time>
      </trkpt>
      <trkpt lat="42.43336" lon="-0.39723">
        <time>2022-07-31T14:05:10Z</time>
      </trkpt>
      <trkpt lat="42.43315" lon="-0.3973">
        <time>2022-07-31T14:05:11Z</time>
      </trkpt>
      <trkpt lat="42.43292" lon="-0.39736">
        <time>2022-07-31T14:05:12Z</time>
      </trkpt>
      <trkpt lat="42.43269" lon="-0.39744">
        <time>2022-07-31T14:05:13Z</time>
      </trkpt>
      <trkpt lat="42.43243" lon="-0.39751">
        <time>2022-07-31T14:05:14Z</time>
      </trkpt>
      <trkpt lat="42.43216" lon="-0.39759">
        <time>2022-07-31T14:05:15Z</time>
      </trkpt>
      <trkpt lat="42.43188" lon="-0.39767">
        <time>2022-07-31T14:05:16Z</time>
      </trkpt>
      <trkpt lat="42.43159" lon="-0.39776">
        <time>2022-07-31T14:05:17Z</time>
      </trkpt>
      <trkpt lat="42.43129" lon="-0.39784">
        <time>2022-07-31T14:05:18Z</time>
      </trkpt>
      <trkpt lat="42.43099" lon="-0.39792">
        <time>2022-07-31T14:05:19Z</time>
      </trkpt>
      <trkpt lat="42.43068" lon="-0.39798">
        <time>2022-07-31T14:05:20Z</time>
      </trkpt>
      <trkpt lat="42.43036" lon="-0.39802">
        <time>2022-07-31T14:05:21Z</time>
      </trkpt>
      <trkpt lat="42.43005" lon="-0.39801">
        <time>2022-07-31T14:05:22Z</time>
      </trkpt>
      <trkpt lat="42.42974" lon="-0.39799">
        <time>2022-07-31T14:05:23Z</time>
      </trkpt>
      <trkpt lat="42.42943" lon="-0.39794">
        <time>2022-07-31T14:05:24Z</time>
      </trkpt>
      <trkpt lat="42.42913" lon="-0.39786">
        <time>2022-07-31T14:05:25Z</time>
      </trkpt>
      <trkpt lat="42.42882" lon="-0.39775">
        <time>2022-07-31T14:05:26Z</time>
      </trkpt>
      <trkpt lat="42.42853" lon="-0.39762">
        <time>2022-07-31T14:05:27Z</time>
      </trkpt>
      <trkpt lat="42.42824" lon="-0.39746">
        <time>2022-07-31T14:05:28Z</time>
      </trkpt>
      <trkpt lat="42.42796" lon="-0.39728">
        <time>2022-07-31T14:05:29Z</time>
      </trkpt>
      <trkpt lat="42.42768" lon="-0.3971">
        <time>2022-07-31T14:05:30Z</time>
      </trkpt>
      <trkpt lat="42.42741" lon="-0.39692">
        <time>2022-07-31T14:05:31Z</time>
      </trkpt>
      <trkpt lat="42.42713" lon="-0.39675">
        <time>2022-07-31T14:05:32Z</time>
      </trkpt>
      <trkpt lat="42.42685" lon="-0.3966">
        <time>2022-07-31T14:05:33Z</time>
      </trkpt>
      <trkpt lat="42.42656" lon="-0.39645">
        <time>2022-07-31T14:05:34Z</time>
      </trkpt>
      <trkpt lat="42.42626" lon="-0.39632">
        <time>2022-07-31T14:05:35Z</time>
      </trkpt>
      <trkpt lat="42.42597" lon="-0.39622">
        <time>2022-07-31T14:05:36Z</time>
      </trkpt>
      <trkpt lat="42.42569" lon="-0.39614">
        <time>2022-07-31T14:05:37Z</time>
      </trkpt>
      <trkpt lat="42.42542" lon="-0.39608">
        <time>2022-07-31T14:05:38Z</time>
      </trkpt>
      <trkpt lat="42.42516" lon="-0.39602">
        <time>2022-07-31T14:05:39Z</time>
      </trkpt>
      <trkpt lat="42.42491" lon="-0.39598">
        <time>2022-07-31T14:05:40Z</time>
      </trkpt>
      <trkpt lat="42.42467" lon="-0.39596">
        <time>2022-07-31T14:05:41Z</time>
      </trkpt>
      <trkpt lat="42.42442" lon="-0.39595">
        <time>2022-07-31T14:05:42Z</time>
      </trkpt>
      <trkpt lat="42.42419" lon="-0.39594">
        <time>2022-07-31T14:05:43Z</time>
      </trkpt>
      <trkpt lat="42.42396" lon="-0.39595">
        <time>2022-07-31T14:05:44Z</time>
      </trkpt>
      <trkpt lat="42.42373" lon="-0.39597">
        <time>2022-07-31T14:05:45Z</time>
      </trkpt>
      <trkpt lat="42.42351" lon="-0.39599">
        <time>2022-07-31T14:05:46Z</time>
      </trkpt>
      <trkpt lat="42.4233" lon="-0.39602">
        <time>2022-07-31T14:05:47Z</time>
      </trkpt>
      <trkpt lat="42.42309" lon="-0.39605">
        <time>2022-07-31T14:05:48Z</time>
      </trkpt>
      <trkpt lat="42.42289" lon="-0.39609">
        <time>2022-07-31T14:05:49Z</time>
      </trkpt>
      <trkpt lat="42.42268" lon="-0.39612">
        <time>2022-07-31T14:05:50Z</time>
      </trkpt>
      <trkpt lat="42.42248" lon="-0.39615">
        <time>2022-07-31T14:05:51Z</time>
      </trkpt>
      <trkpt lat="42.42228" lon="-0.39617">
        <time>2022-07-31T14:05:52Z</time>
      </trkpt>
      <trkpt lat="42.42207" lon="-0.39618">
        <time>2022-07-31T14:05:53Z</time>
      </trkpt>
      <trkpt lat="42.42187" lon="-0.39617">
        <time>2022-07-31T14:05:54Z</time>
      </trkpt>
      <trkpt lat="42.42167" lon="-0.39616">
        <time>2022-07-31T14:05:55Z</time>
      </trkpt>
      <trkpt lat="42.42147" lon="-0.39613">
        <time>2022-07-31T14:05:56Z</time>
      </trkpt>
      <trkpt lat="42.42127" lon="-0.39608">
        <time>2022-07-31T14:05:57Z</time>
      </trkpt>
      <trkpt lat="42.42107" lon="-0.39603">
        <time>2022-07-31T14:05:58Z</time>
      </trkpt>
      <trkpt lat="42.42086" lon="-0.39597">
        <time>2022-07-31T14:05:59Z</time>
      </trkpt>
      <trkpt lat="42.42066" lon="-0.39592">
        <time>2022-07-31T14:06:00Z</time>
      </trkpt>
      <trkpt lat="42.42046" lon="-0.39586">
        <time>2022-07-31T14:06:01Z</time>
      </trkpt>
      <trkpt lat="42.42026" lon="-0.39581">
        <time>2022-07-31T14:06:02Z</time>
      </trkpt>
      <trkpt lat="42.42007" lon="-0.39575">
        <time>2022-07-31T14:06:03Z</time>
      </trkpt>
      <trkpt lat="42.41987" lon="-0.3957">
        <time>2022-07-31T14:06:04Z</time>
      </trkpt>
      <trkpt lat="42.41967" lon="-0.39564">
        <time>2022-07-31T14:06:05Z</time>
      </trkpt>
      <trkpt lat="42.41948" lon="-0.39558">
        <time>2022-07-31T14:06:06Z</time>
      </trkpt>
      <trkpt lat="42.41929" lon="-0.39552">
        <time>2022-07-31T14:06:07Z</time>
      </trkpt>
      <trkpt lat="42.4191" lon="-0.39543">
        <time>2022-07-31T14:06:08Z</time>
      </trkpt>
      <trkpt lat="42.41893" lon="-0.39533">
        <time>2022-07-31T14:06:09Z</time>
      </trkpt>
      <trkpt lat="42.41878" lon="-0.39522">
        <time>2022-07-31T14:06:10Z</time>
      </trkpt>
      <trkpt lat="42.41863" lon="-0.39512">
        <time>2022-07-31T14:06:11Z</time>
      </trkpt>
      <trkpt lat="42.41851" lon="-0.39502">
        <time>2022-07-31T14:06:12Z</time>
      </trkpt>
      <trkpt lat="42.4184" lon="-0.39494">
        <time>2022-07-31T14:06:13Z</time>
      </trkpt>
      <trkpt lat="42.41828" lon="-0.39485">
        <time>2022-07-31T14:06:14Z</time>
      </trkpt>
      <trkpt lat="42.41817" lon="-0.39477">
        <time>2022-07-31T14:06:15Z</time>
      </trkpt>
      <trkpt lat="42.41805" lon="-0.39468">
        <time>2022-07-31T14:06:16Z</time>
      </trkpt>
      <trkpt lat="42.41792" lon="-0.39461">
        <time>2022-07-31T14:06:17Z</time>
      </trkpt>
      <trkpt lat="42.4178" lon="-0.39454">
        <time>2022-07-31T14:06:18Z</time>
      </trkpt>
      <trkpt lat="42.41767" lon="-0.39449">
        <time>2022-07-31T14:06:19Z</time>
      </trkpt>
      <trkpt lat="42.41754" lon="-0.39444">
        <time>2022-07-31T14:06:20Z</time>
      </trkpt>
      <trkpt lat="42.4174" lon="-0.39441">
        <time>2022-07-31T14:06:21Z</time>
      </trkpt>
      <trkpt lat="42.41727" lon="-0.39439">
        <time>2022-07-31T14:06:22Z</time>
      </trkpt>
      <trkpt lat="42.41712" lon="-0.39438">
        <time>2022-07-31T14:06:23Z</time>
      </trkpt>
      <trkpt lat="42.41697" lon="-0.39438">
        <time>2022-07-31T14:06:24Z</time>
      </trkpt>
      <trkpt lat="42.41681" lon="-0.39439">
        <time>2022-07-31T14:06:25Z</time>
      </trkpt>
      <trkpt lat="42.41666" lon="-0.39442">
        <time>2022-07-31T14:06:26Z</time>
      </trkpt>
      <trkpt lat="42.4165" lon="-0.39446">
        <time>2022-07-31T14:06:27Z</time>
      </trkpt>
      <trkpt lat="42.41634" lon="-0.39451">
        <time>2022-07-31T14:06:28Z</time>
      </trkpt>
      <trkpt lat="42.41618" lon="-0.39456">
        <time>2022-07-31T14:06:29Z</time>
      </trkpt>
      <trkpt lat="42.41601" lon="-0.39459">
        <time>2022-07-31T14:06:30Z</time>
      </trkpt>
      <trkpt lat="42.41583" lon="-0.3946">
        <time>2022-07-31T14:06:31Z</time>
      </trkpt>
      <trkpt lat="42.41564" lon="-0.39458">
        <time>2022-07-31T14:06:32Z</time>
      </trkpt>
      <trkpt lat="42.41544" lon="-0.3945">
        <time>2022-07-31T14:06:33Z</time>
      </trkpt>
      <trkpt lat="42.41524" lon="-0.39437">
        <time>2022-07-31T14:06:34Z</time>
      </trkpt>
      <trkpt lat="42.41502" lon="-0.39421">
        <time>2022-07-31T14:06:35Z</time>
      </trkpt>
      <trkpt lat="42.41479" lon="-0.39401">
        <time>2022-07-31T14:06:36Z</time>
      </trkpt>
      <trkpt lat="42.41455" lon="-0.39381">
        <time>2022-07-31T14:06:37Z</time>
      </trkpt>
      <trkpt lat="42.41431" lon="-0.3936">
        <time>2022-07-31T14:06:38Z</time>
      </trkpt>
      <trkpt lat="42.41405" lon="-0.39337">
        <time>2022-07-31T14:06:39Z</time>
      </trkpt>
      <trkpt lat="42.41378" lon="-0.39314">
        <time>2022-07-31T14:06:40Z</time>
      </trkpt>
      <trkpt lat="42.41351" lon="-0.39289">
        <time>2022-07-31T14:06:41Z</time>
      </trkpt>
      <trkpt lat="42.41323" lon="-0.39265">
        <time>2022-07-31T14:06:42Z</time>
      </trkpt>
      <trkpt lat="42.41294" lon="-0.3924">
        <time>2022-07-31T14:06:43Z</time>
      </trkpt>
      <trkpt lat="42.41264" lon="-0.39215">
        <time>2022-07-31T14:06:44Z</time>
      </trkpt>
      <trkpt lat="42.41235" lon="-0.3919">
        <time>2022-07-31T14:06:45Z</time>
      </trkpt>
      <trkpt lat="42.41205" lon="-0.39165">
        <time>2022-07-31T14:06:46Z</time>
      </trkpt>
      <trkpt lat="42.41175" lon="-0.3914">
        <time>2022-07-31T14:06:47Z</time>
      </trkpt>
      <trkpt lat="42.41145" lon="-0.39114">
        <time>2022-07-31T14:06:48Z</time>
      </trkpt>
      <trkpt lat="42.41115" lon="-0.39087">
        <time>2022-07-31T14:06:49Z</time>
      </trkpt>
      <trkpt lat="42.41086" lon="-0.39059">
        <time>2022-07-31T14:06:50Z</time>
      </trkpt>
      <trkpt lat="42.41057" lon="-0.39029">
        <time>2022-07-31T14:06:51Z</time>
      </trkpt>
      <trkpt lat="42.4103" lon="-0.38997">
        <time>2022-07-31T14:06:52Z</time>
      </trkpt>
      <trkpt lat="42.41003" lon="-0.38963">
        <time>2022-07-31T14:06:53Z</time>
      </trkpt>
      <trkpt lat="42.40977" lon="-0.38929">
        <time>2022-07-31T14:06:54Z</time>
      </trkpt>
      <trkpt lat="42.40953" lon="-0.38893">
        <time>2022-07-31T14:06:55Z</time>
      </trkpt>
      <trkpt lat="42.40929" lon="-0.38855">
        <time>2022-07-31T14:06:56Z</time>
      </trkpt>
      <trkpt lat="42.40907" lon="-0.38817">
        <time>2022-07-31T14:06:57Z</time>
      </trkpt>
      <trkpt lat="42.40885" lon="-0.38778">
        <time>2022-07-31T14:06:58Z</time>
      </trkpt>
      <trkpt lat="42.40865" lon="-0.38737">
        <time>2022-07-31T14:06:59Z</time>
      </trkpt>
      <trkpt lat="42.40846" lon="-0.38696">
        <time>2022-07-31T14:07:00Z</time>
      </trkpt>
      <trkpt lat="42.40828" lon="-0.38655">
        <time>2022-07-31T14:07:01Z</time>
      </trkpt>
      <trkpt lat="42.40811" lon="-0.38612">
        <time>2022-07-31T14:07:02Z</time>
      </trkpt>
      <trkpt lat="42.40795" lon="-0.38569">
        <time>2022-07-31T14:07:03Z</time>
      </trkpt>
      <trkpt lat="42.40779" lon="-0.38526">
        <time>2022-07-31T14:07:04Z</time>
      </trkpt>
      <trkpt lat="42.40763" lon="-0.38482">
        <time>2022-07-31T14:07:05Z</time>
      </trkpt>
      <trkpt lat="42.40747" lon="-0.38438">
        <time>2022-07-31T14:07:06Z</time>
      </trkpt>
      <trkpt lat="42.40731" lon="-0.38395">
        <time>2022-07-31T14:07:07Z</time>
      </trkpt>
      <trkpt lat="42.40715" lon="-0.38352">
        <time>2022-07-31T14:07:08Z</time>
      </trkpt>
      <trkpt lat="42.40699" lon="-0.38309">
        <time>2022-07-31T14:07:09Z</time>
      </trkpt>
      <trkpt lat="42.40684" lon="-0.38266">
        <time>2022-07-31T14:07:10Z</time>
      </trkpt>
      <trkpt lat="42.40668" lon="-0.38223">
        <time>2022-07-31T14:07:11Z</time>
      </trkpt>
      <trkpt lat="42.40653" lon="-0.3818">
        <time>2022-07-31T14:07:12Z</time>
      </trkpt>
      <trkpt lat="42.40637" lon="-0.38137">
        <time>2022-07-31T14:07:13Z</time>
      </trkpt>
      <trkpt lat="42.40622" lon="-0.38094">
        <time>2022-07-31T14:07:14Z</time>
      </trkpt>
      <trkpt lat="42.40607" lon="-0.38051">
        <time>2022-07-31T14:07:15Z</time>
      </trkpt>
      <trkpt lat="42.40591" lon="-0.3801">
        <time>2022-07-31T14:07:16Z</time>
      </trkpt>
      <trkpt lat="42.40576" lon="-0.37968">
        <time>2022-07-31T14:07:17Z</time>
      </trkpt>
      <trkpt lat="42.40561" lon="-0.37926">
        <time>2022-07-31T14:07:18Z</time>
      </trkpt>
      <trkpt lat="42.40545" lon="-0.37884">
        <time>2022-07-31T14:07:19Z</time>
      </trkpt>
      <trkpt lat="42.4053" lon="-0.37843">
        <time>2022-07-31T14:07:20Z</time>
      </trkpt>
      <trkpt lat="42.40514" lon="-0.37802">
        <time>2022-07-31T14:07:21Z</time>
      </trkpt>
      <trkpt lat="42.40496" lon="-0.37761">
        <time>2022-07-31T14:07:22Z</time>
      </trkpt>
      <trkpt lat="42.40477" lon="-0.37722">
        <time>2022-07-31T14:07:23Z</time>
      </trkpt>
      <trkpt lat="42.40456" lon="-0.37684">
        <time>2022-07-31T14:07:24Z</time>
      </trkpt>
      <trkpt lat="42.40434" lon="-0.37648">
        <time>2022-07-31T14:07:25Z</time>
      </trkpt>
      <trkpt lat="42.40409" lon="-0.37615">
        <time>2022-07-31T14:07:26Z</time>
      </trkpt>
      <trkpt lat="42.40384" lon="-0.37585">
        <time>2022-07-31T14:07:27Z</time>
      </trkpt>
      <trkpt lat="42.40357" lon="-0.37557">
        <time>2022-07-31T14:07:28Z</time>
      </trkpt>
      <trkpt lat="42.40329" lon="-0.37531">
        <time>2022-07-31T14:07:29Z</time>
      </trkpt>
      <trkpt lat="42.40299" lon="-0.37507">
        <time>2022-07-31T14:07:30Z</time>
      </trkpt>
      <trkpt lat="42.40268" lon="-0.37486">
        <time>2022-07-31T14:07:31Z</time>
      </trkpt>
      <trkpt lat="42.40236" lon="-0.37466">
        <time>2022-07-31T14:07:32Z</time>
      </trkpt>
      <trkpt lat="42.40203" lon="-0.37447">
        <time>2022-07-31T14:07:33Z</time>
      </trkpt>
      <trkpt lat="42.4017" lon="-0.37429">
        <time>2022-07-31T14:07:34Z</time>
      </trkpt>
      <trkpt lat="42.40137" lon="-0.37412">
        <time>2022-07-31T14:07:35Z</time>
      </trkpt>
      <trkpt lat="42.40105" lon="-0.37394">
        <time>2022-07-31T14:07:36Z</time>
      </trkpt>
      <trkpt lat="42.40071" lon="-0.37376">
        <time>2022-07-31T14:07:37Z</time>
      </trkpt>
      <trkpt lat="42.40037" lon="-0.37358">
        <time>2022-07-31T14:07:38Z</time>
      </trkpt>
      <trkpt lat="42.40002" lon="-0.37342">
        <time>2022-07-31T14:07:39Z</time>
      </trkpt>
      <trkpt lat="42.39967" lon="-0.37328">
        <time>2022-07-31T14:07:40Z</time>
      </trkpt>
      <trkpt lat="42.39932" lon="-0.37315">
        <time>2022-07-31T14:07:41Z</time>
      </trkpt>
      <trkpt lat="42.39897" lon="-0.37301">
        <time>2022-07-31T14:07:42Z</time>
      </trkpt>
      <trkpt lat="42.39862" lon="-0.37287">
        <time>2022-07-31T14:07:43Z</time>
      </trkpt>
      <trkpt lat="42.39829" lon="-0.37273">
        <time>2022-07-31T14:07:44Z</time>
      </trkpt>
      <trkpt lat="42.39796" lon="-0.37257">
        <time>2022-07-31T14:07:45Z</time>
      </trkpt>
      <trkpt lat="42.39766" lon="-0.37241">
        <time>2022-07-31T14:07:46Z</time>
      </trkpt>
      <trkpt lat="42.39737" lon="-0.37224">
        <time>2022-07-31T14:07:47Z</time>
      </trkpt>
      <trkpt lat="42.39709" lon="-0.37207">
        <time>2022-07-31T14:07:48Z</time>
      </trkpt>
      <trkpt lat="42.39682" lon="-0.3719">
        <time>2022-07-31T14:07:49Z</time>
      </trkpt>
      <trkpt lat="42.39654" lon="-0.37173">
        <time>2022-07-31T14:07:50Z</time>
      </trkpt>
      <trkpt lat="42.39625" lon="-0.3716">
        <time>2022-07-31T14:07:51Z</time>
      </trkpt>
      <trkpt lat="42.39595" lon="-0.37149">
        <time>2022-07-31T14:07:52Z</time>
      </trkpt>
      <trkpt lat="42.39565" lon="-0.37142">
        <time>2022-07-31T14:07:53Z</time>
      </trkpt>
      <trkpt lat="42.39533" lon="-0.37136">
        <time>2022-07-31T14:07:54Z</time>
      </trkpt>
      <trkpt lat="42.39501" lon="-0.37135">
        <time>2022-07-31T14:07:55Z</time>
      </trkpt>
      <trkpt lat="42.39468" lon="-0.37137">
        <time>2022-07-31T14:07:56Z</time>
      </trkpt>
      <trkpt lat="42.39435" lon="-0.37143">
        <time>2022-07-31T14:07:57Z</time>
      </trkpt>
      <trkpt lat="42.39402" lon="-0.37151">
        <time>2022-07-31T14:07:58Z</time>
      </trkpt>
      <trkpt lat="42.39369" lon="-0.37161">
        <time>2022-07-31T14:07:59Z</time>
      </trkpt>
      <trkpt lat="42.39335" lon="-0.37175">
        <time>2022-07-31T14:08:00Z</time>
      </trkpt>
      <trkpt lat="42.39302" lon="-0.3719">
        <time>2022-07-31T14:08:01Z</time>
      </trkpt>
      <trkpt lat="42.39268" lon="-0.37204">
        <time>2022-07-31T14:08:02Z</time>
      </trkpt>
      <trkpt lat="42.39234" lon="-0.37216">
        <time>2022-07-31T14:08:03Z</time>
      </trkpt>
      <trkpt lat="42.392" lon="-0.37223">
        <time>2022-07-31T14:08:04Z</time>
      </trkpt>
      <trkpt lat="42.39165" lon="-0.37227">
        <time>2022-07-31T14:08:05Z</time>
      </trkpt>
      <trkpt lat="42.39131" lon="-0.37227">
        <time>2022-07-31T14:08:06Z</time>
      </trkpt>
      <trkpt lat="42.39096" lon="-0.37225">
        <time>2022-07-31T14:08:07Z</time>
      </trkpt>
      <trkpt lat="42.39062" lon="-0.37221">
        <time>2022-07-31T14:08:08Z</time>
      </trkpt>
      <trkpt lat="42.39027" lon="-0.37216">
        <time>2022-07-31T14:08:09Z</time>
      </trkpt>
      <trkpt lat="42.38992" lon="-0.37213">
        <time>2022-07-31T14:08:10Z</time>
      </trkpt>
      <trkpt lat="42.38957" lon="-0.37213">
        <time>2022-07-31T14:08:11Z</time>
      </trkpt>
      <trkpt lat="42.38923" lon="-0.37217">
        <time>2022-07-31T14:08:12Z</time>
      </trkpt>
      <trkpt lat="42.38888" lon="-0.37223">
        <time>2022-07-31T14:08:13Z</time>
      </trkpt>
      <trkpt lat="42.38853" lon="-0.37231">
        <time>2022-07-31T14:08:14Z</time>
      </trkpt>
      <trkpt lat="42.38819" lon="-0.3724">
        <time>2022-07-31T14:08:15Z</time>
      </trkpt>
      <trkpt lat="42.38784" lon="-0.37249">
        <time>2022-07-31T14:08:16Z</time>
      </trkpt>
      <trkpt lat="42.38749" lon="-0.37257">
        <time>2022-07-31T14:08:17Z</time>
      </trkpt>
      <trkpt lat="42.38714" lon="-0.37266">
        <time>2022-07-31T14:08:18Z</time>
      </trkpt>
      <trkpt lat="42.3868" lon="-0.37274">
        <time>2022-07-31T14:08:19Z</time>
      </trkpt>
      <trkpt lat="42.38645" lon="-0.37281">
        <time>2022-07-31T14:08:20Z</time>
      </trkpt>
      <trkpt lat="42.3861" lon="-0.37287">
        <time>2022-07-31T14:08:21Z</time>
      </trkpt>
      <trkpt lat="42.38575" lon="-0.37291">
        <time>2022-07-31T14:08:22Z</time>
      </trkpt>
      <trkpt lat="42.38541" lon="-0.37293">
        <time>2022-07-31T14:08:23Z</time>
      </trkpt>
      <trkpt lat="42.38506" lon="-0.37293">
        <time>2022-07-31T14:08:24Z</time>
      </trkpt>
      <trkpt lat="42.38472" lon="-0.37292">
        <time>2022-07-31T14:08:25Z</time>
      </trkpt>
      <trkpt lat="42.38437" lon="-0.37289">
        <time>2022-07-31T14:08:26Z</time>
      </trkpt>
      <trkpt lat="42.38403" lon="-0.37284">
        <time>2022-07-31T14:08:27Z</time>
      </trkpt>
      <trkpt lat="42.38369" lon="-0.37278">
        <time>2022-07-31T14:08:28Z</time>
      </trkpt>
      <trkpt lat="42.38336" lon="-0.37271">
        <time>2022-07-31T14:08:29Z</time>
      </trkpt>
      <trkpt lat="42.38302" lon="-0.37264">
        <time>2022-07-31T14:08:30Z</time>
      </trkpt>
      <trkpt lat="42.38269" lon="-0.37258">
        <time>2022-07-31T14:08:31Z</time>
      </trkpt>
      <trkpt lat="42.38236" lon="-0.37254">
        <time>2022-07-31T14:08:32Z</time>
      </trkpt>
      <trkpt lat="42.38203" lon="-0.37252">
        <time>2022-07-31T14:08:33Z</time>
      </trkpt>
      <trkpt lat="42.3817" lon="-0.37254">
        <time>2022-07-31T14:08:34Z</time>
      </trkpt>
      <trkpt lat="42.38137" lon="-0.37259">
        <time>2022-07-31T14:08:35Z</time>
      </trkpt>
      <trkpt lat="42.38105" lon="-0.37267">
        <time>2022-07-31T14:08:36Z</time>
      </trkpt>
      <trkpt lat="42.38073" lon="-0.37277">
        <time>2022-07-31T14:08:37Z</time>
      </trkpt>
      <trkpt lat="42.38042" lon="-0.3729">
        <time>2022-07-31T14:08:38Z</time>
      </trkpt>
      <trkpt lat="42.38011" lon="-0.37303">
        <time>2022-07-31T14:08:39Z</time>
      </trkpt>
      <trkpt lat="42.37979" lon="-0.37314">
        <time>2022-07-31T14:08:40Z</time>
      </trkpt>
      <trkpt lat="42.37947" lon="-0.37323">
        <time>2022-07-31T14:08:41Z</time>
      </trkpt>
      <trkpt lat="42.37914" lon="-0.37329">
        <time>2022-07-31T14:08:42Z</time>
      </trkpt>
      <trkpt lat="42.37882" lon="-0.37333">
        <time>2022-07-31T14:08:43Z</time>
      </trkpt>
      <trkpt lat="42.3785" lon="-0.37334">
        <time>2022-07-31T14:08:44Z</time>
      </trkpt>
      <trkpt lat="42.37819" lon="-0.37333">
        <time>2022-07-31T14:08:45Z</time>
      </trkpt>
      <trkpt lat="42.37787" lon="-0.37331">
        <time>2022-07-31T14:08:46Z</time>
      </trkpt>
      <trkpt lat="42.37755" lon="-0.37332">
        <time>2022-07-31T14:08:47Z</time>
      </trkpt>
      <trkpt lat="42.37723" lon="-0.37336">
        <time>2022-07-31T14:08:48Z</time>
      </trkpt>
      <trkpt lat="42.3769" lon="-0.37343">
        <time>2022-07-31T14:08:49Z</time>
      </trkpt>
      <trkpt lat="42.37658" lon="-0.37354">
        <time>2022-07-31T14:08:50Z</time>
      </trkpt>
      <trkpt lat="42.37627" lon="-0.37366">
        <time>2022-07-31T14:08:51Z</time>
      </trkpt>
      <trkpt lat="42.37596" lon="-0.37379">
        <time>2022-07-31T14:08:52Z</time>
      </trkpt>
      <trkpt lat="42.37565" lon="-0.3739">
        <time>2022-07-31T14:08:53Z</time>
      </trkpt>
      <trkpt lat="42.37533" lon="-0.374">
        <time>2022-07-31T14:08:54Z</time>
      </trkpt>
      <trkpt lat="42.37501" lon="-0.37407">
        <time>2022-07-31T14:08:55Z</time>
      </trkpt>
      <trkpt lat="42.37469" lon="-0.37409">
        <time>2022-07-31T14:08:56Z</time>
      </trkpt>
      <trkpt lat="42.37436" lon="-0.37409">
        <time>2022-07-31T14:08:57Z</time>
      </trkpt>
      <trkpt lat="42.37404" lon="-0.37407">
        <time>2022-07-31T14:08:58Z</time>
      </trkpt>
      <trkpt lat="42.37372" lon="-0.37402">
        <time>2022-07-31T14:08:59Z</time>
      </trkpt>
      <trkpt lat="42.37339" lon="-0.37396">
        <time>2022-07-31T14:09:00Z</time>
      </trkpt>
      <trkpt lat="42.37308" lon="-0.37392">
        <time>2022-07-31T14:09:01Z</time>
      </trkpt>
      <trkpt lat="42.37276" lon="-0.37391">
        <time>2022-07-31T14:09:02Z</time>
      </trkpt>
      <trkpt lat="42.37244" lon="-0.37393">
        <time>2022-07-31T14:09:03Z</time>
      </trkpt>
      <trkpt lat="42.37214" lon="-0.37398">
        <time>2022-07-31T14:09:04Z</time>
      </trkpt>
      <trkpt lat="42.37184" lon="-0.37405">
        <time>2022-07-31T14:09:05Z</time>
      </trkpt>
      <trkpt lat="42.37156" lon="-0.3741">
        <time>2022-07-31T14:09:06Z</time>
      </trkpt>
      <trkpt lat="42.37128" lon="-0.37414">
        <time>2022-07-31T14:09:07Z</time>
      </trkpt>
      <trkpt lat="42.371" lon="-0.37413">
        <time>2022-07-31T14:09:08Z</time>
      </trkpt>
      <trkpt lat="42.37072" lon="-0.37409">
        <time>2022-07-31T14:09:09Z</time>
      </trkpt>
      <trkpt lat="42.37046" lon="-0.374">
        <time>2022-07-31T14:09:10Z</time>
      </trkpt>
      <trkpt lat="42.3702" lon="-0.37386">
        <time>2022-07-31T14:09:11Z</time>
      </trkpt>
      <trkpt lat="42.36994" lon="-0.37369">
        <time>2022-07-31T14:09:12Z</time>
      </trkpt>
      <trkpt lat="42.36969" lon="-0.37349">
        <time>2022-07-31T14:09:13Z</time>
      </trkpt>
      <trkpt lat="42.36942" lon="-0.3733">
        <time>2022-07-31T14:09:14Z</time>
      </trkpt>
      <trkpt lat="42.36916" lon="-0.37312">
        <time>2022-07-31T14:09:15Z</time>
      </trkpt>
      <trkpt lat="42.36888" lon="-0.37297">
        <time>2022-07-31T14:09:16Z</time>
      </trkpt>
      <trkpt lat="42.36859" lon="-0.37283">
        <time>2022-07-31T14:09:17Z</time>
      </trkpt>
      <trkpt lat="42.3683" lon="-0.3727">
        <time>2022-07-31T14:09:18Z</time>
      </trkpt>
      <trkpt lat="42.368" lon="-0.37255">
        <time>2022-07-31T14:09:19Z</time>
      </trkpt>
      <trkpt lat="42.36773" lon="-0.37237">
        <time>2022-07-31T14:09:20Z</time>
      </trkpt>
      <trkpt lat="42.36747" lon="-0.37214">
        <time>2022-07-31T14:09:21Z</time>
      </trkpt>
      <trkpt lat="42.36724" lon="-0.37188">
        <time>2022-07-31T14:09:22Z</time>
      </trkpt>
      <trkpt lat="42.36704" lon="-0.37159">
        <time>2022-07-31T14:09:23Z</time>
      </trkpt>
      <trkpt lat="42.36686" lon="-0.37126">
        <time>2022-07-31T14:09:24Z</time>
      </trkpt>
      <trkpt lat="42.36669" lon="-0.37091">
        <time>2022-07-31T14:09:25Z</time>
      </trkpt>
      <trkpt lat="42.36652" lon="-0.37056">
        <time>2022-07-31T14:09:26Z</time>
      </trkpt>
      <trkpt lat="42.36635" lon="-0.3702">
        <time>2022-07-31T14:09:27Z</time>
      </trkpt>
      <trkpt lat="42.36618" lon="-0.36983">
        <time>2022-07-31T14:09:28Z</time>
      </trkpt>
      <trkpt lat="42.36601" lon="-0.36946">
        <time>2022-07-31T14:09:29Z</time>
      </trkpt>
      <trkpt lat="42.36585" lon="-0.36909">
        <time>2022-07-31T14:09:30Z</time>
      </trkpt>
      <trkpt lat="42.36571" lon="-0.3687">
        <time>2022-07-31T14:09:31Z</time>
      </trkpt>
      <trkpt lat="42.36559" lon="-0.36831">
        <time>2022-07-31T14:09:32Z</time>
      </trkpt>
      <trkpt lat="42.36549" lon="-0.36792">
        <time>2022-07-31T14:09:33Z</time>
      </trkpt>
      <trkpt lat="42.36541" lon="-0.36751">
        <time>2022-07-31T14:09:34Z</time>
      </trkpt>
      <trkpt lat="42.36536" lon="-0.3671">
        <time>2022-07-31T14:09:35Z</time>
      </trkpt>
      <trkpt lat="42.36533" lon="-0.36667">
        <time>2022-07-31T14:09:36Z</time>
      </trkpt>
      <trkpt lat="42.36529" lon="-0.36626">
        <time>2022-07-31T14:09:37Z</time>
      </trkpt>
      <trkpt lat="42.36525" lon="-0.36583">
        <time>2022-07-31T14:09:38Z</time>
      </trkpt>
      <trkpt lat="42.36521" lon="-0.36541">
        <time>2022-07-31T14:09:39Z</time>
      </trkpt>
      <trkpt lat="42.36516" lon="-0.36498">
        <time>2022-07-31T14:09:40Z</time>
      </trkpt>
      <trkpt lat="42.36512" lon="-0.36457">
        <time>2022-07-31T14:09:41Z</time>
      </trkpt>
      <trkpt lat="42.36508" lon="-0.36417">
        <time>2022-07-31T14:09:42Z</time>
      </trkpt>
      <trkpt lat="42.36503" lon="-0.36379">
        <time>2022-07-31T14:09:43Z</time>
      </trkpt>
      <trkpt lat="42.36497" lon="-0.36342">
        <time>2022-07-31T14:09:44Z</time>
      </trkpt>
      <trkpt lat="42.36489" lon="-0.36308">
        <time>2022-07-31T14:09:45Z</time>
      </trkpt>
      <trkpt lat="42.36478" lon="-0.36275">
        <time>2022-07-31T14:09:46Z</time>
      </trkpt>
      <trkpt lat="42.36465" lon="-0.36245">
        <time>2022-07-31T14:09:47Z</time>
      </trkpt>
      <trkpt lat="42.36449" lon="-0.36216">
        <time>2022-07-31T14:09:48Z</time>
      </trkpt>
      <trkpt lat="42.3643" lon="-0.36191">
        <time>2022-07-31T14:09:49Z</time>
      </trkpt>
      <trkpt lat="42.36411" lon="-0.36168">
        <time>2022-07-31T14:09:50Z</time>
      </trkpt>
      <trkpt lat="42.36389" lon="-0.36148">
        <time>2022-07-31T14:09:51Z</time>
      </trkpt>
      <trkpt lat="42.36365" lon="-0.36131">
        <time>2022-07-31T14:09:52Z</time>
      </trkpt>
      <trkpt lat="42.36341" lon="-0.36118">
        <time>2022-07-31T14:09:53Z</time>
      </trkpt>
      <trkpt lat="42.36315" lon="-0.36108">
        <time>2022-07-31T14:09:54Z</time>
      </trkpt>
      <trkpt lat="42.36289" lon="-0.36102">
        <time>2022-07-31T14:09:55Z</time>
      </trkpt>
      <trkpt lat="42.36262" lon="-0.361">
        <time>2022-07-31T14:09:56Z</time>
      </trkpt>
      <trkpt lat="42.36234" lon="-0.36103">
        <time>2022-07-31T14:09:57Z</time>
      </trkpt>
      <trkpt lat="42.36207" lon="-0.3611">
        <time>2022-07-31T14:09:58Z</time>
      </trkpt>
      <trkpt lat="42.36181" lon="-0.36121">
        <time>2022-07-31T14:09:59Z</time>
      </trkpt>
      <trkpt lat="42.36155" lon="-0.36136">
        <time>2022-07-31T14:10:00Z</time>
      </trkpt>
      <trkpt lat="42.36131" lon="-0.36155">
        <time>2022-07-31T14:10:01Z</time>
      </trkpt>
      <trkpt lat="42.36108" lon="-0.36179">
        <time>2022-07-31T14:10:02Z</time>
      </trkpt>
      <trkpt lat="42.36088" lon="-0.36205">
        <time>2022-07-31T14:10:03Z</time>
      </trkpt>
      <trkpt lat="42.36069" lon="-0.36234">
        <time>2022-07-31T14:10:04Z</time>
      </trkpt>
      <trkpt lat="42.36053" lon="-0.36268">
        <time>2022-07-31T14:10:05Z</time>
      </trkpt>
      <trkpt lat="42.3604" lon="-0.36304">
        <time>2022-07-31T14:10:06Z</time>
      </trkpt>
      <trkpt lat="42.36031" lon="-0.36342">
        <time>2022-07-31T14:10:07Z</time>
      </trkpt>
      <trkpt lat="42.36025" lon="-0.36382">
        <time>2022-07-31T14:10:08Z</time>
      </trkpt>
      <trkpt lat="42.36023" lon="-0.36422">
        <time>2022-07-31T14:10:09Z</time>
      </trkpt>
      <trkpt lat="42.36025" lon="-0.36462">
        <time>2022-07-31T14:10:10Z</time>
      </trkpt>
      <trkpt lat="42.36031" lon="-0.36502">
        <time>2022-07-31T14:10:11Z</time>
      </trkpt>
      <trkpt lat="42.36039" lon="-0.36541">
        <time>2022-07-31T14:10:12Z</time>
      </trkpt>
      <trkpt lat="42.36051" lon="-0.36579">
        <time>2022-07-31T14:10:13Z</time>
      </trkpt>
      <trkpt lat="42.36065" lon="-0.36616">
        <time>2022-07-31T14:10:14Z</time>
      </trkpt>
      <trkpt lat="42.3608" lon="-0.36654">
        <time>2022-07-31T14:10:15Z</time>
      </trkpt>
      <trkpt lat="42.36094" lon="-0.36692">
        <time>2022-07-31T14:10:16Z</time>
      </trkpt>
      <trkpt lat="42.36106" lon="-0.36731">
        <time>2022-07-31T14:10:17Z</time>
      </trkpt>
      <trkpt lat="42.36118" lon="-0.36771">
        <time>2022-07-31T14:10:18Z</time>
      </trkpt>
      <trkpt lat="42.36129" lon="-0.36812">
        <time>2022-07-31T14:10:19Z</time>
      </trkpt>
      <trkpt lat="42.36139" lon="-0.36853">
        <time>2022-07-31T14:10:20Z</time>
      </trkpt>
      <trkpt lat="42.3615" lon="-0.36894">
        <time>2022-07-31T14:10:21Z</time>
      </trkpt>
      <trkpt lat="42.3616" lon="-0.36935">
        <time>2022-07-31T14:10:22Z</time>
      </trkpt>
      <trkpt lat="42.3617" lon="-0.36976">
        <time>2022-07-31T14:10:23Z</time>
      </trkpt>
      <trkpt lat="42.3618" lon="-0.37015">
        <time>2022-07-31T14:10:24Z</time>
      </trkpt>
      <trkpt lat="42.36189" lon="-0.37054">
        <time>2022-07-31T14:10:25Z</time>
      </trkpt>
      <trkpt lat="42.36196" lon="-0.37093">
        <time>2022-07-31T14:10:26Z</time>
      </trkpt>
      <trkpt lat="42.36202" lon="-0.37132">
        <time>2022-07-31T14:10:27Z</time>
      </trkpt>
      <trkpt lat="42.36205" lon="-0.37171">
        <time>2022-07-31T14:10:28Z</time>
      </trkpt>
      <trkpt lat="42.36206" lon="-0.37212">
        <time>2022-07-31T14:10:29Z</time>
      </trkpt>
      <trkpt lat="42.36204" lon="-0.37253">
        <time>2022-07-31T14:10:30Z</time>
      </trkpt>
      <trkpt lat="42.36202" lon="-0.37295">
        <time>2022-07-31T14:10:31Z</time>
      </trkpt>
      <trkpt lat="42.36201" lon="-0.37338">
        <time>2022-07-31T14:10:32Z</time>
      </trkpt>
      <trkpt lat="42.362" lon="-0.3738">
        <time>2022-07-31T14:10:33Z</time>
      </trkpt>
      <trkpt lat="42.36199" lon="-0.37424">
        <time>2022-07-31T14:10:34Z</time>
      </trkpt>
      <trkpt lat="42.36199" lon="-0.37467">
        <time>2022-07-31T14:10:35Z</time>
      </trkpt>
      <trkpt lat="42.36199" lon="-0.37511">
        <time>2022-07-31T14:10:36Z</time>
      </trkpt>
      <trkpt lat="42.362" lon="-0.37554">
        <time>2022-07-31T14:10:37Z</time>
      </trkpt>
      <trkpt lat="42.362" lon="-0.37598">
        <time>2022-07-31T14:10:38Z</time>
      </trkpt>
      <trkpt lat="42.362" lon="-0.37641">
        <time>2022-07-31T14:10:39Z</time>
      </trkpt>
      <trkpt lat="42.36198" lon="-0.37684">
        <time>2022-07-31T14:10:40Z</time>
      </trkpt>
      <trkpt lat="42.36196" lon="-0.37726">
        <time>2022-07-31T14:10:41Z</time>
      </trkpt>
      <trkpt lat="42.36192" lon="-0.37767">
        <time>2022-07-31T14:10:42Z</time>
      </trkpt>
      <trkpt lat="42.36188" lon="-0.37808">
        <time>2022-07-31T14:10:43Z</time>
      </trkpt>
      <trkpt lat="42.36181" lon="-0.37847">
        <time>2022-07-31T14:10:44Z</time>
      </trkpt>
      <trkpt lat="42.36173" lon="-0.37885">
        <time>2022-07-31T14:10:45Z</time>
      </trkpt>
      <trkpt lat="42.36162" lon="-0.37921">
        <time>2022-07-31T14:10:46Z</time>
      </trkpt>
      <trkpt lat="42.36148" lon="-0.37954">
        <time>2022-07-31T14:10:47Z</time>
      </trkpt>
      <trkpt lat="42.36131" lon="-0.37984">
        <time>2022-07-31T14:10:48Z</time>
      </trkpt>
      <trkpt lat="42.36112" lon="-0.38012">
        <time>2022-07-31T14:10:49Z</time>
      </trkpt>
      <trkpt lat="42.36092" lon="-0.38039">
        <time>2022-07-31T14:10:50Z</time>
      </trkpt>
      <trkpt lat="42.36073" lon="-0.38067">
        <time>2022-07-31T14:10:51Z</time>
      </trkpt>
      <trkpt lat="42.36054" lon="-0.38098">
        <time>2022-07-31T14:10:52Z</time>
      </trkpt>
      <trkpt lat="42.36038" lon="-0.38131">
        <time>2022-07-31T14:10:53Z</time>
      </trkpt>
      <trkpt lat="42.36025" lon="-0.38167">
        <time>2022-07-31T14:10:54Z</time>
      </trkpt>
      <trkpt lat="42.36017" lon="-0.38204">
        <time>2022-07-31T14:10:55Z</time>
      </trkpt>
      <trkpt lat="42.36012" lon="-0.38244">
        <time>2022-07-31T14:10:56Z</time>
      </trkpt>
      <trkpt lat="42.36009" lon="-0.38284">
        <time>2022-07-31T14:10:57Z</time>
      </trkpt>
      <trkpt lat="42.36008" lon="-0.38325">
        <time>2022-07-31T14:10:58Z</time>
      </trkpt>
      <trkpt lat="42.36005" lon="-0.38366">
        <time>2022-07-31T14:10:59Z</time>
      </trkpt>
      <trkpt lat="42.36" lon="-0.38407">
        <time>2022-07-31T14:11:00Z</time>
      </trkpt>
      <trkpt lat="42.35992" lon="-0.38447">
        <time>2022-07-31T14:11:01Z</time>
      </trkpt>
      <trkpt lat="42.35982" lon="-0.38487">
        <time>2022-07-31T14:11:02Z</time>
      </trkpt>
      <trkpt lat="42.3597" lon="-0.38526">
        <time>2022-07-31T14:11:03Z</time>
      </trkpt>
      <trkpt lat="42.35956" lon="-0.38564">
        <time>2022-07-31T14:11:04Z</time>
      </trkpt>
      <trkpt lat="42.35938" lon="-0.38602">
        <time>2022-07-31T14:11:05Z</time>
      </trkpt>
      <trkpt lat="42.35919" lon="-0.38636">
        <time>2022-07-31T14:11:06Z</time>
      </trkpt>
      <trkpt lat="42.35898" lon="-0.3867">
        <time>2022-07-31T14:11:07Z</time>
      </trkpt>
      <trkpt lat="42.35876" lon="-0.38704">
        <time>2022-07-31T14:11:08Z</time>
      </trkpt>
      <trkpt lat="42.35854" lon="-0.38739">
        <time>2022-07-31T14:11:09Z</time>
      </trkpt>
      <trkpt lat="42.35832" lon="-0.38772">
        <time>2022-07-31T14:11:10Z</time>
      </trkpt>
      <trkpt lat="42.3581" lon="-0.38806">
        <time>2022-07-31T14:11:11Z</time>
      </trkpt>
      <trkpt lat="42.35788" lon="-0.38839">
        <time>2022-07-31T14:11:12Z</time>
      </trkpt>
      <trkpt lat="42.35767" lon="-0.38872">
        <time>2022-07-31T14:11:13Z</time>
      </trkpt>
      <trkpt lat="42.35746" lon="-0.38903">
        <time>2022-07-31T14:11:14Z</time>
      </trkpt>
      <trkpt lat="42.35723" lon="-0.38932">
        <time>2022-07-31T14:11:15Z</time>
      </trkpt>
      <trkpt lat="42.35699" lon="-0.38958">
        <time>2022-07-31T14:11:16Z</time>
      </trkpt>
      <trkpt lat="42.35674" lon="-0.38983">
        <time>2022-07-31T14:11:17Z</time>
      </trkpt>
      <trkpt lat="42.35651" lon="-0.39009">
        <time>2022-07-31T14:11:18Z</time>
      </trkpt>
      <trkpt lat="42.35628" lon="-0.39037">
        <time>2022-07-31T14:11:19Z</time>
      </trkpt>
      <trkpt lat="42.35609" lon="-0.39068">
        <time>2022-07-31T14:11:20Z</time>
      </trkpt>
      <trkpt lat="42.35592" lon="-0.39103">
        <time>2022-07-31T14:11:21Z</time>
      </trkpt>
      <trkpt lat="42.35579" lon="-0.3914">
        <time>2022-07-31T14:11:22Z</time>
      </trkpt>
      <trkpt lat="42.35567" lon="-0.39177">
        <time>2022-07-31T14:11:23Z</time>
      </trkpt>
      <trkpt lat="42.35555" lon="-0.39213">
        <time>2022-07-31T14:11:24Z</time>
      </trkpt>
      <trkpt lat="42.3554" lon="-0.39248">
        <time>2022-07-31T14:11:25Z</time>
      </trkpt>
      <trkpt lat="42.35524" lon="-0.39282">
        <time>2022-07-31T14:11:26Z</time>
      </trkpt>
      <trkpt lat="42.35505" lon="-0.39314">
        <time>2022-07-31T14:11:27Z</time>
      </trkpt>
      <trkpt lat="42.35484" lon="-0.39344">
        <time>2022-07-31T14:11:28Z</time>
      </trkpt>
      <trkpt lat="42.3546" lon="-0.3937">
        <time>2022-07-31T14:11:29Z</time>
      </trkpt>
      <trkpt lat="42.35435" lon="-0.39396">
        <time>2022-07-31T14:11:30Z</time>
      </trkpt>
      <trkpt lat="42.3541" lon="-0.39421">
        <time>2022-07-31T14:11:31Z</time>
      </trkpt>
      <trkpt lat="42.35386" lon="-0.39447">
        <time>2022-07-31T14:11:32Z</time>
      </trkpt>
      <trkpt lat="42.35362" lon="-0.39471">
        <time>2022-07-31T14:11:33Z</time>
      </trkpt>
      <trkpt lat="42.35339" lon="-0.39493">
        <time>2022-07-31T14:11:34Z</time>
      </trkpt>
      <trkpt lat="42.35316" lon="-0.39514">
        <time>2022-07-31T14:11:35Z</time>
      </trkpt>
      <trkpt lat="42.35293" lon="-0.39533">
        <time>2022-07-31T14:11:36Z</time>
      </trkpt>
      <trkpt lat="42.35267" lon="-0.39551">
        <time>2022-07-31T14:11:37Z</time>
      </trkpt>
      <trkpt lat="42.3524" lon="-0.39568">
        <time>2022-07-31T14:11:38Z</time>
      </trkpt>
      <trkpt lat="42.3521" lon="-0.39582">
        <time>2022-07-31T14:11:39Z</time>
      </trkpt>
      <trkpt lat="42.35179" lon="-0.39594">
        <time>2022-07-31T14:11:40Z</time>
      </trkpt>
      <trkpt lat="42.35145" lon="-0.39604">
        <time>2022-07-31T14:11:41Z</time>
      </trkpt>
      <trkpt lat="42.35111" lon="-0.39609">
        <time>2022-07-31T14:11:42Z</time>
      </trkpt>
      <trkpt lat="42.35075" lon="-0.3961">
        <time>2022-07-31T14:11:43Z</time>
      </trkpt>
      <trkpt lat="42.35039" lon="-0.39607">
        <time>2022-07-31T14:11:44Z</time>
      </trkpt>
      <trkpt lat="42.35002" lon="-0.39599">
        <time>2022-07-31T14:11:45Z</time>
      </trkpt>
      <trkpt lat="42.34967" lon="-0.39587">
        <time>2022-07-31T14:11:46Z</time>
      </trkpt>
      <trkpt lat="42.34932" lon="-0.3957">
        <time>2022-07-31T14:11:47Z</time>
      </trkpt>
      <trkpt lat="42.34898" lon="-0.3955">
        <time>2022-07-31T14:11:48Z</time>
      </trkpt>
      <trkpt lat="42.34865" lon="-0.39527">
        <time>2022-07-31T14:11:49Z</time>
      </trkpt>
      <trkpt lat="42.34832" lon="-0.39504">
        <time>2022-07-31T14:11:50Z</time>
      </trkpt>
      <trkpt lat="42.34798" lon="-0.3948">
        <time>2022-07-31T14:11:51Z</time>
      </trkpt>
      <trkpt lat="42.34764" lon="-0.39459">
        <time>2022-07-31T14:11:52Z</time>
      </trkpt>
      <trkpt lat="42.34729" lon="-0.3944">
        <time>2022-07-31T14:11:53Z</time>
      </trkpt>
      <trkpt lat="42.34693" lon="-0.39422">
        <time>2022-07-31T14:11:54Z</time>
      </trkpt>
      <trkpt lat="42.34657" lon="-0.39407">
        <time>2022-07-31T14:11:55Z</time>
      </trkpt>
      <trkpt lat="42.34621" lon="-0.39393">
        <time>2022-07-31T14:11:56Z</time>
      </trkpt>
      <trkpt lat="42.34584" lon="-0.39381">
        <time>2022-07-31T14:11:57Z</time>
      </trkpt>
      <trkpt lat="42.34548" lon="-0.39371">
        <time>2022-07-31T14:11:58Z</time>
      </trkpt>
      <trkpt lat="42.34511" lon="-0.39364">
        <time>2022-07-31T14:11:59Z</time>
      </trkpt>
      <trkpt lat="42.34476" lon="-0.39359">
        <time>2022-07-31T14:12:00Z</time>
      </trkpt>
      <trkpt lat="42.3444" lon="-0.39355">
        <time>2022-07-31T14:12:01Z</time>
      </trkpt>
      <trkpt lat="42.34406" lon="-0.39352">
        <time>2022-07-31T14:12:02Z</time>
      </trkpt>
      <trkpt lat="42.34372" lon="-0.3935">
        <time>2022-07-31T14:12:03Z</time>
      </trkpt>
      <trkpt lat="42.3434" lon="-0.39349">
        <time>2022-07-31T14:12:04Z</time>
      </trkpt>
      <trkpt lat="42.34308" lon="-0.39347">
        <time>2022-07-31T14:12:05Z</time>
      </trkpt>
      <trkpt lat="42.34277" lon="-0.39347">
        <time>2022-07-31T14:12:06Z</time>
      </trkpt>
      <trkpt lat="42.34247" lon="-0.39345">
        <time>2022-07-31T14:12:07Z</time>
      </trkpt>
      <trkpt lat="42.34217" lon="-0.39345">
        <time>2022-07-31T14:12:08Z</time>
      </trkpt>
      <trkpt lat="42.34188" lon="-0.39344">
        <time>2022-07-31T14:12:09Z</time>
      </trkpt>
      <trkpt lat="42.3416" lon="-0.39344">
        <time>2022-07-31T14:12:10Z</time>
      </trkpt>
      <trkpt lat="42.34132" lon="-0.39343">
        <time>2022-07-31T14:12:11Z</time>
      </trkpt>
      <trkpt lat="42.34105" lon="-0.39343">
        <time>2022-07-31T14:12:12Z</time>
      </trkpt>
      <trkpt lat="42.34077" lon="-0.39343">
        <time>2022-07-31T14:12:13Z</time>
      </trkpt>
      <trkpt lat="42.3405" lon="-0.39342">
        <time>2022-07-31T14:12:14Z</time>
      </trkpt>
      <trkpt lat="42.34023" lon="-0.39343">
        <time>2022-07-31T14:12:15Z</time>
      </trkpt>
      <trkpt lat="42.33996" lon="-0.39345">
        <time>2022-07-31T14:12:16Z</time>
      </trkpt>
      <trkpt lat="42.3397" lon="-0.39348">
        <time>2022-07-31T14:12:17Z</time>
      </trkpt>
      <trkpt lat="42.33944" lon="-0.39353">
        <time>2022-07-31T14:12:18Z</time>
      </trkpt>
      <trkpt lat="42.33919" lon="-0.39359">
        <time>2022-07-31T14:12:19Z</time>
      </trkpt>
      <trkpt lat="42.33611" lon="-0.39889">
        <time>2022-07-31T14:12:38Z</time>
      </trkpt>
      <trkpt lat="42.33601" lon="-0.39935">
        <time>2022-07-31T14:12:39Z</time>
      </trkpt>
      <trkpt lat="42.33595" lon="-0.39976">
        <time>2022-07-31T14:12:40Z</time>
      </trkpt>
      <trkpt lat="42.33591" lon="-0.40017">
        <time>2022-07-31T14:12:41Z</time>
      </trkpt>
      <trkpt lat="42.33588" lon="-0.40057">
        <time>2022-07-31T14:12:42Z</time>
      </trkpt>
      <trkpt lat="42.33585" lon="-0.40096">
        <time>2022-07-31T14:12:43Z</time>
      </trkpt>
      <trkpt lat="42.33582" lon="-0.40135">
        <time>2022-07-31T14:12:44Z</time>
      </trkpt>
      <trkpt lat="42.33579" lon="-0.40173">
        <time>2022-07-31T14:12:45Z</time>
      </trkpt>
      <trkpt lat="42.33574" lon="-0.4021">
        <time>2022-07-31T14:12:46Z</time>
      </trkpt>
      <trkpt lat="42.33569" lon="-0.40248">
        <time>2022-07-31T14:12:47Z</time>
      </trkpt>
      <trkpt lat="42.33562" lon="-0.40286">
        <time>2022-07-31T14:12:48Z</time>
      </trkpt>
      <trkpt lat="42.33554" lon="-0.40323">
        <time>2022-07-31T14:12:49Z</time>
      </trkpt>
      <trkpt lat="42.33545" lon="-0.4036">
        <time>2022-07-31T14:12:50Z</time>
      </trkpt>
      <trkpt lat="42.33534" lon="-0.40397">
        <time>2022-07-31T14:12:51Z</time>
      </trkpt>
      <trkpt lat="42.33522" lon="-0.40432">
        <time>2022-07-31T14:12:52Z</time>
      </trkpt>
      <trkpt lat="42.33509" lon="-0.40467">
        <time>2022-07-31T14:12:53Z</time>
      </trkpt>
      <trkpt lat="42.33494" lon="-0.40501">
        <time>2022-07-31T14:12:54Z</time>
      </trkpt>
      <trkpt lat="42.33479" lon="-0.40533">
        <time>2022-07-31T14:12:55Z</time>
      </trkpt>
      <trkpt lat="42.33462" lon="-0.40564">
        <time>2022-07-31T14:12:56Z</time>
      </trkpt>
      <trkpt lat="42.33445" lon="-0.40593">
        <time>2022-07-31T14:12:57Z</time>
      </trkpt>
      <trkpt lat="42.33428" lon="-0.40621">
        <time>2022-07-31T14:12:58Z</time>
      </trkpt>
      <trkpt lat="42.33411" lon="-0.4065">
        <time>2022-07-31T14:12:59Z</time>
      </trkpt>
      <trkpt lat="42.32514" lon="-0.41954">
        <time>2022-07-31T14:13:45Z</time>
      </trkpt>
      <trkpt lat="42.3249" lon="-0.41979">
        <time>2022-07-31T14:13:46Z</time>
      </trkpt>
      <trkpt lat="42.32466" lon="-0.42003">
        <time>2022-07-31T14:13:47Z</time>
      </trkpt>
      <trkpt lat="42.3244" lon="-0.42026">
        <time>2022-07-31T14:13:48Z</time>
      </trkpt>
      <trkpt lat="42.32417" lon="-0.42048">
        <time>2022-07-31T14:13:49Z</time>
      </trkpt>
      <trkpt lat="42.32392" lon="-0.42069">
        <time>2022-07-31T14:13:50Z</time>
      </trkpt>
      <trkpt lat="42.32367" lon="-0.4209">
        <time>2022-07-31T14:13:51Z</time>
      </trkpt>
      <trkpt lat="42.32341" lon="-0.42111">
        <time>2022-07-31T14:13:52Z</time>
      </trkpt>
      <trkpt lat="42.32312" lon="-0.42132">
        <time>2022-07-31T14:13:53Z</time>
      </trkpt>
      <trkpt lat="42.32283" lon="-0.42151">
        <time>2022-07-31T14:13:54Z</time>
      </trkpt>
      <trkpt lat="42.32254" lon="-0.4217">
        <time>2022-07-31T14:13:55Z</time>
      </trkpt>
      <trkpt lat="42.32223" lon="-0.42187">
        <time>2022-07-31T14:13:56Z</time>
      </trkpt>
      <trkpt lat="42.32193" lon="-0.42204">
        <time>2022-07-31T14:13:57Z</time>
      </trkpt>
      <trkpt lat="42.32162" lon="-0.4222">
        <time>2022-07-31T14:13:58Z</time>
      </trkpt>
      <trkpt lat="42.32129" lon="-0.42235">
        <time>2022-07-31T14:13:59Z</time>
      </trkpt>
      <trkpt lat="42.32097" lon="-0.4225">
        <time>2022-07-31T14:14:00Z</time>
      </trkpt>
      <trkpt lat="42.32064" lon="-0.42263">
        <time>2022-07-31T14:14:01Z</time>
      </trkpt>
      <trkpt lat="42.32031" lon="-0.42278">
        <time>2022-07-31T14:14:02Z</time>
      </trkpt>
      <trkpt lat="42.31998" lon="-0.42292">
        <time>2022-07-31T14:14:03Z</time>
      </trkpt>
      <trkpt lat="42.31965" lon="-0.42307">
        <time>2022-07-31T14:14:04Z</time>
      </trkpt>
      <trkpt lat="42.31932" lon="-0.42321">
        <time>2022-07-31T14:14:05Z</time>
      </trkpt>
      <trkpt lat="42.31899" lon="-0.42335">
        <time>2022-07-31T14:14:06Z</time>
      </trkpt>
      <trkpt lat="42.31866" lon="-0.42348">
        <time>2022-07-31T14:14:07Z</time>
      </trkpt>
      <trkpt lat="42.31833" lon="-0.42362">
        <time>2022-07-31T14:14:08Z</time>
      </trkpt>
      <trkpt lat="42.318" lon="-0.42377">
        <time>2022-07-31T14:14:09Z</time>
      </trkpt>
      <trkpt lat="42.31767" lon="-0.42391">
        <time>2022-07-31T14:14:10Z</time>
      </trkpt>
      <trkpt lat="42.31734" lon="-0.42406">
        <time>2022-07-31T14:14:11Z</time>
      </trkpt>
      <trkpt lat="42.31701" lon="-0.4242">
        <time>2022-07-31T14:14:12Z</time>
      </trkpt>
      <trkpt lat="42.31668" lon="-0.42435">
        <time>2022-07-31T14:14:13Z</time>
      </trkpt>
      <trkpt lat="42.31635" lon="-0.42449">
        <time>2022-07-31T14:14:14Z</time>
      </trkpt>
      <trkpt lat="42.31603" lon="-0.42464">
        <time>2022-07-31T14:14:15Z</time>
      </trkpt>
      <trkpt lat="42.31571" lon="-0.42478">
        <time>2022-07-31T14:14:16Z</time>
      </trkpt>
      <trkpt lat="42.31539" lon="-0.42492">
        <time>2022-07-31T14:14:17Z</time>
      </trkpt>
      <trkpt lat="42.31507" lon="-0.42505">
        <time>2022-07-31T14:14:18Z</time>
      </trkpt>
      <trkpt lat="42.31474" lon="-0.42518">
        <time>2022-07-31T14:14:19Z</time>
      </trkpt>
      <trkpt lat="42.31441" lon="-0.42528">
        <time>2022-07-31T14:14:20Z</time>
      </trkpt>
      <trkpt lat="42.31408" lon="-0.42537">
        <time>2022-07-31T14:14:21Z</time>
      </trkpt>
      <trkpt lat="42.31374" lon="-0.42542">
        <time>2022-07-31T14:14:22Z</time>
      </trkpt>
      <trkpt lat="42.3134" lon="-0.42546">
        <time>2022-07-31T14:14:23Z</time>
      </trkpt>
      <trkpt lat="42.31306" lon="-0.42547">
        <time>2022-07-31T14:14:24Z</time>
      </trkpt>
      <trkpt lat="42.31272" lon="-0.42545">
        <time>2022-07-31T14:14:25Z</time>
      </trkpt>
      <trkpt lat="42.31238" lon="-0.42541">
        <time>2022-07-31T14:14:26Z</time>
      </trkpt>
      <trkpt lat="42.31204" lon="-0.42535">
        <time>2022-07-31T14:14:27Z</time>
      </trkpt>
      <trkpt lat="42.31171" lon="-0.42526">
        <time>2022-07-31T14:14:28Z</time>
      </trkpt>
      <trkpt lat="42.31139" lon="-0.42515">
        <time>2022-07-31T14:14:29Z</time>
      </trkpt>
      <trkpt lat="42.31106" lon="-0.42503">
        <time>2022-07-31T14:14:30Z</time>
      </trkpt>
      <trkpt lat="42.31073" lon="-0.42489">
        <time>2022-07-31T14:14:31Z</time>
      </trkpt>
      <trkpt lat="42.31041" lon="-0.42476">
        <time>2022-07-31T14:14:32Z</time>
      </trkpt>
      <trkpt lat="42.31008" lon="-0.42464">
        <time>2022-07-31T14:14:33Z</time>
      </trkpt>
      <trkpt lat="42.30975" lon="-0.42454">
        <time>2022-07-31T14:14:34Z</time>
      </trkpt>
      <trkpt lat="42.30942" lon="-0.42447">
        <time>2022-07-31T14:14:35Z</time>
      </trkpt>
      <trkpt lat="42.30909" lon="-0.42444">
        <time>2022-07-31T14:14:36Z</time>
      </trkpt>
      <trkpt lat="42.30875" lon="-0.42443">
        <time>2022-07-31T14:14:37Z</time>
      </trkpt>
      <trkpt lat="42.30841" lon="-0.42445">
        <time>2022-07-31T14:14:38Z</time>
      </trkpt>
      <trkpt lat="42.30808" lon="-0.42451">
        <time>2022-07-31T14:14:39Z</time>
      </trkpt>
      <trkpt lat="42.30775" lon="-0.42458">
        <time>2022-07-31T14:14:40Z</time>
      </trkpt>
      <trkpt lat="42.30743" lon="-0.42469">
        <time>2022-07-31T14:14:41Z</time>
      </trkpt>
      <trkpt lat="42.30712" lon="-0.42483">
        <time>2022-07-31T14:14:42Z</time>
      </trkpt>
      <trkpt lat="42.30682" lon="-0.42499">
        <time>2022-07-31T14:14:43Z</time>
      </trkpt>
      <trkpt lat="42.30652" lon="-0.42518">
        <time>2022-07-31T14:14:44Z</time>
      </trkpt>
      <trkpt lat="42.30624" lon="-0.4254">
        <time>2022-07-31T14:14:45Z</time>
      </trkpt>
      <trkpt lat="42.30597" lon="-0.42563">
        <time>2022-07-31T14:14:46Z</time>
      </trkpt>
      <trkpt lat="42.30571" lon="-0.42587">
        <time>2022-07-31T14:14:47Z</time>
      </trkpt>
      <trkpt lat="42.30547" lon="-0.42613">
        <time>2022-07-31T14:14:48Z</time>
      </trkpt>
      <trkpt lat="42.30524" lon="-0.4264">
        <time>2022-07-31T14:14:49Z</time>
      </trkpt>
      <trkpt lat="42.30504" lon="-0.42668">
        <time>2022-07-31T14:14:50Z</time>
      </trkpt>
      <trkpt lat="42.30486" lon="-0.42696">
        <time>2022-07-31T14:14:51Z</time>
      </trkpt>
      <trkpt lat="42.3047" lon="-0.42725">
        <time>2022-07-31T14:14:52Z</time>
      </trkpt>
      <trkpt lat="42.30454" lon="-0.42752">
        <time>2022-07-31T14:14:53Z</time>
      </trkpt>
      <trkpt lat="42.30438" lon="-0.42778">
        <time>2022-07-31T14:14:54Z</time>
      </trkpt>
      <trkpt lat="42.30421" lon="-0.42801">
        <time>2022-07-31T14:14:55Z</time>
      </trkpt>
      <trkpt lat="42.30403" lon="-0.42824">
        <time>2022-07-31T14:14:56Z</time>
      </trkpt>
      <trkpt lat="42.30383" lon="-0.42843">
        <time>2022-07-31T14:14:57Z</time>
      </trkpt>
      <trkpt lat="42.30362" lon="-0.4286">
        <time>2022-07-31T14:14:58Z</time>
      </trkpt>
      <trkpt lat="42.30339" lon="-0.42874">
        <time>2022-07-31T14:14:59Z</time>
      </trkpt>
      <trkpt lat="42.30315" lon="-0.42887">
        <time>2022-07-31T14:15:00Z</time>
      </trkpt>
      <trkpt lat="42.30289" lon="-0.42898">
        <time>2022-07-31T14:15:01Z</time>
      </trkpt>
      <trkpt lat="42.30261" lon="-0.42907">
        <time>2022-07-31T14:15:02Z</time>
      </trkpt>
      <trkpt lat="42.30234" lon="-0.42913">
        <time>2022-07-31T14:15:03Z</time>
      </trkpt>
      <trkpt lat="42.30206" lon="-0.42915">
        <time>2022-07-31T14:15:04Z</time>
      </trkpt>
      <trkpt lat="42.30179" lon="-0.42912">
        <time>2022-07-31T14:15:05Z</time>
      </trkpt>
      <trkpt lat="42.30152" lon="-0.42906">
        <time>2022-07-31T14:15:06Z</time>
      </trkpt>
      <trkpt lat="42.30126" lon="-0.42894">
        <time>2022-07-31T14:15:07Z</time>
      </trkpt>
      <trkpt lat="42.30102" lon="-0.42879">
        <time>2022-07-31T14:15:08Z</time>
      </trkpt>
      <trkpt lat="42.30079" lon="-0.4286">
        <time>2022-07-31T14:15:09Z</time>
      </trkpt>
      <trkpt lat="42.30057" lon="-0.42839">
        <time>2022-07-31T14:15:10Z</time>
      </trkpt>
      <trkpt lat="42.30037" lon="-0.42815">
        <time>2022-07-31T14:15:11Z</time>
      </trkpt>
      <trkpt lat="42.30019" lon="-0.42789">
        <time>2022-07-31T14:15:12Z</time>
      </trkpt>
      <trkpt lat="42.30001" lon="-0.42765">
        <time>2022-07-31T14:15:13Z</time>
      </trkpt>
      <trkpt lat="42.2998" lon="-0.42742">
        <time>2022-07-31T14:15:14Z</time>
      </trkpt>
      <trkpt lat="42.29958" lon="-0.42722">
        <time>2022-07-31T14:15:15Z</time>
      </trkpt>
      <trkpt lat="42.29934" lon="-0.42705">
        <time>2022-07-31T14:15:16Z</time>
      </trkpt>
      <trkpt lat="42.29909" lon="-0.42694">
        <time>2022-07-31T14:15:17Z</time>
      </trkpt>
      <trkpt lat="42.29882" lon="-0.42686">
        <time>2022-07-31T14:15:18Z</time>
      </trkpt>
      <trkpt lat="42.29855" lon="-0.42682">
        <time>2022-07-31T14:15:19Z</time>
      </trkpt>
      <trkpt lat="42.29829" lon="-0.42682">
        <time>2022-07-31T14:15:20Z</time>
      </trkpt>
      <trkpt lat="42.29802" lon="-0.42683">
        <time>2022-07-31T14:15:21Z</time>
      </trkpt>
      <trkpt lat="42.29776" lon="-0.42681">
        <time>2022-07-31T14:15:22Z</time>
      </trkpt>
      <trkpt lat="42.2975" lon="-0.42676">
        <time>2022-07-31T14:15:23Z</time>
      </trkpt>
      <trkpt lat="42.29724" lon="-0.42667">
        <time>2022-07-31T14:15:24Z</time>
      </trkpt>
      <trkpt lat="42.297" lon="-0.42654">
        <time>2022-07-31T14:15:25Z</time>
      </trkpt>
      <trkpt lat="42.29676" lon="-0.42637">
        <time>2022-07-31T14:15:26Z</time>
      </trkpt>
      <trkpt lat="42.29654" lon="-0.42617">
        <time>2022-07-31T14:15:27Z</time>
      </trkpt>
      <trkpt lat="42.29632" lon="-0.42595">
        <time>2022-07-31T14:15:28Z</time>
      </trkpt>
      <trkpt lat="42.29609" lon="-0.42572">
        <time>2022-07-31T14:15:29Z</time>
      </trkpt>
      <trkpt lat="42.29585" lon="-0.42549">
        <time>2022-07-31T14:15:30Z</time>
      </trkpt>
      <trkpt lat="42.2956" lon="-0.42528">
        <time>2022-07-31T14:15:31Z</time>
      </trkpt>
      <trkpt lat="42.29534" lon="-0.42508">
        <time>2022-07-31T14:15:32Z</time>
      </trkpt>
      <trkpt lat="42.29507" lon="-0.4249">
        <time>2022-07-31T14:15:33Z</time>
      </trkpt>
      <trkpt lat="42.29481" lon="-0.42473">
        <time>2022-07-31T14:15:34Z</time>
      </trkpt>
      <trkpt lat="42.29455" lon="-0.42455">
        <time>2022-07-31T14:15:35Z</time>
      </trkpt>
      <trkpt lat="42.29429" lon="-0.42437">
        <time>2022-07-31T14:15:36Z</time>
      </trkpt>
      <trkpt lat="42.29403" lon="-0.4242">
        <time>2022-07-31T14:15:37Z</time>
      </trkpt>
      <trkpt lat="42.29377" lon="-0.42402">
        <time>2022-07-31T14:15:38Z</time>
      </trkpt>
      <trkpt lat="42.29352" lon="-0.42385">
        <time>2022-07-31T14:15:39Z</time>
      </trkpt>
      <trkpt lat="42.29327" lon="-0.42369">
        <time>2022-07-31T14:15:40Z</time>
      </trkpt>
      <trkpt lat="42.29301" lon="-0.42352">
        <time>2022-07-31T14:15:41Z</time>
      </trkpt>
      <trkpt lat="42.29276" lon="-0.42335">
        <time>2022-07-31T14:15:42Z</time>
      </trkpt>
      <trkpt lat="42.29251" lon="-0.4232">
        <time>2022-07-31T14:15:43Z</time>
      </trkpt>
      <trkpt lat="42.29225" lon="-0.42307">
        <time>2022-07-31T14:15:44Z</time>
      </trkpt>
      <trkpt lat="42.29197" lon="-0.42297">
        <time>2022-07-31T14:15:45Z</time>
      </trkpt>
      <trkpt lat="42.29169" lon="-0.42292">
        <time>2022-07-31T14:15:46Z</time>
      </trkpt>
      <trkpt lat="42.2914" lon="-0.42289">
        <time>2022-07-31T14:15:47Z</time>
      </trkpt>
      <trkpt lat="42.2911" lon="-0.42289">
        <time>2022-07-31T14:15:48Z</time>
      </trkpt>
      <trkpt lat="42.2908" lon="-0.42292">
        <time>2022-07-31T14:15:49Z</time>
      </trkpt>
      <trkpt lat="42.29049" lon="-0.42299">
        <time>2022-07-31T14:15:50Z</time>
      </trkpt>
      <trkpt lat="42.29018" lon="-0.42308">
        <time>2022-07-31T14:15:51Z</time>
      </trkpt>
      <trkpt lat="42.28987" lon="-0.42318">
        <time>2022-07-31T14:15:52Z</time>
      </trkpt>
      <trkpt lat="42.28955" lon="-0.42329">
        <time>2022-07-31T14:15:53Z</time>
      </trkpt>
      <trkpt lat="42.28923" lon="-0.42339">
        <time>2022-07-31T14:15:54Z</time>
      </trkpt>
      <trkpt lat="42.2889" lon="-0.4235">
        <time>2022-07-31T14:15:55Z</time>
      </trkpt>
      <trkpt lat="42.28857" lon="-0.42362">
        <time>2022-07-31T14:15:56Z</time>
      </trkpt>
      <trkpt lat="42.28823" lon="-0.42374">
        <time>2022-07-31T14:15:57Z</time>
      </trkpt>
      <trkpt lat="42.28789" lon="-0.42386">
        <time>2022-07-31T14:15:58Z</time>
      </trkpt>
      <trkpt lat="42.28755" lon="-0.42398">
        <time>2022-07-31T14:15:59Z</time>
      </trkpt>
      <trkpt lat="42.2872" lon="-0.4241">
        <time>2022-07-31T14:16:00Z</time>
      </trkpt>
      <trkpt lat="42.28686" lon="-0.42423">
        <time>2022-07-31T14:16:01Z</time>
      </trkpt>
      <trkpt lat="42.28653" lon="-0.42435">
        <time>2022-07-31T14:16:02Z</time>
      </trkpt>
      <trkpt lat="42.28619" lon="-0.42447">
        <time>2022-07-31T14:16:03Z</time>
      </trkpt>
      <trkpt lat="42.28585" lon="-0.42459">
        <time>2022-07-31T14:16:04Z</time>
      </trkpt>
      <trkpt lat="42.28552" lon="-0.42471">
        <time>2022-07-31T14:16:05Z</time>
      </trkpt>
      <trkpt lat="42.28519" lon="-0.42484">
        <time>2022-07-31T14:16:06Z</time>
      </trkpt>
      <trkpt lat="42.28486" lon="-0.42498">
        <time>2022-07-31T14:16:07Z</time>
      </trkpt>
      <trkpt lat="42.28455" lon="-0.42513">
        <time>2022-07-31T14:16:08Z</time>
      </trkpt>
      <trkpt lat="42.28423" lon="-0.42529">
        <time>2022-07-31T14:16:09Z</time>
      </trkpt>
      <trkpt lat="42.28393" lon="-0.42545">
        <time>2022-07-31T14:16:10Z</time>
      </trkpt>
      <trkpt lat="42.28363" lon="-0.42562">
        <time>2022-07-31T14:16:11Z</time>
      </trkpt>
      <trkpt lat="42.28335" lon="-0.4258">
        <time>2022-07-31T14:16:12Z</time>
      </trkpt>
      <trkpt lat="42.28308" lon="-0.42598">
        <time>2022-07-31T14:16:13Z</time>
      </trkpt>
      <trkpt lat="42.28282" lon="-0.42617">
        <time>2022-07-31T14:16:14Z</time>
      </trkpt>
      <trkpt lat="42.28257" lon="-0.42637">
        <time>2022-07-31T14:16:15Z</time>
      </trkpt>
      <trkpt lat="42.28232" lon="-0.42659">
        <time>2022-07-31T14:16:16Z</time>
      </trkpt>
      <trkpt lat="42.28208" lon="-0.42682">
        <time>2022-07-31T14:16:17Z</time>
      </trkpt>
      <trkpt lat="42.28184" lon="-0.42707">
        <time>2022-07-31T14:16:18Z</time>
      </trkpt>
      <trkpt lat="42.2816" lon="-0.42733">
        <time>2022-07-31T14:16:19Z</time>
      </trkpt>
      <trkpt lat="42.28138" lon="-0.42761">
        <time>2022-07-31T14:16:20Z</time>
      </trkpt>
      <trkpt lat="42.28115" lon="-0.4279">
        <time>2022-07-31T14:16:21Z</time>
      </trkpt>
      <trkpt lat="42.28093" lon="-0.42819">
        <time>2022-07-31T14:16:22Z</time>
      </trkpt>
      <trkpt lat="42.27791" lon="-0.432">
        <time>2022-07-31T14:16:35Z</time>
      </trkpt>
      <trkpt lat="42.27759" lon="-0.43226">
        <time>2022-07-31T14:16:36Z</time>
      </trkpt>
      <trkpt lat="42.27725" lon="-0.43246">
        <time>2022-07-31T14:16:37Z</time>
      </trkpt>
      <trkpt lat="42.27691" lon="-0.43264">
        <time>2022-07-31T14:16:38Z</time>
      </trkpt>
      <trkpt lat="42.27657" lon="-0.43278">
        <time>2022-07-31T14:16:39Z</time>
      </trkpt>
      <trkpt lat="42.27623" lon="-0.4329">
        <time>2022-07-31T14:16:40Z</time>
      </trkpt>
      <trkpt lat="42.27588" lon="-0.43302">
        <time>2022-07-31T14:16:41Z</time>
      </trkpt>
      <trkpt lat="42.27553" lon="-0.43312">
        <time>2022-07-31T14:16:42Z</time>
      </trkpt>
      <trkpt lat="42.27517" lon="-0.43323">
        <time>2022-07-31T14:16:43Z</time>
      </trkpt>
      <trkpt lat="42.27481" lon="-0.43333">
        <time>2022-07-31T14:16:44Z</time>
      </trkpt>
      <trkpt lat="42.27447" lon="-0.43342">
        <time>2022-07-31T14:16:45Z</time>
      </trkpt>
      <trkpt lat="42.27412" lon="-0.43353">
        <time>2022-07-31T14:16:46Z</time>
      </trkpt>
      <trkpt lat="42.27378" lon="-0.43363">
        <time>2022-07-31T14:16:47Z</time>
      </trkpt>
      <trkpt lat="42.27344" lon="-0.43373">
        <time>2022-07-31T14:16:48Z</time>
      </trkpt>
      <trkpt lat="42.2731" lon="-0.43383">
        <time>2022-07-31T14:16:49Z</time>
      </trkpt>
      <trkpt lat="42.27277" lon="-0.43392">
        <time>2022-07-31T14:16:50Z</time>
      </trkpt>
      <trkpt lat="42.27243" lon="-0.43401">
        <time>2022-07-31T14:16:51Z</time>
      </trkpt>
      <trkpt lat="42.27209" lon="-0.43411">
        <time>2022-07-31T14:16:52Z</time>
      </trkpt>
      <trkpt lat="42.27176" lon="-0.4342">
        <time>2022-07-31T14:16:53Z</time>
      </trkpt>
      <trkpt lat="42.27144" lon="-0.43428">
        <time>2022-07-31T14:16:54Z</time>
      </trkpt>
      <trkpt lat="42.27112" lon="-0.43436">
        <time>2022-07-31T14:16:55Z</time>
      </trkpt>
      <trkpt lat="42.27079" lon="-0.43441">
        <time>2022-07-31T14:16:56Z</time>
      </trkpt>
      <trkpt lat="42.27046" lon="-0.43444">
        <time>2022-07-31T14:16:57Z</time>
      </trkpt>
      <trkpt lat="42.27013" lon="-0.43444">
        <time>2022-07-31T14:16:58Z</time>
      </trkpt>
      <trkpt lat="42.26979" lon="-0.43444">
        <time>2022-07-31T14:16:59Z</time>
      </trkpt>
      <trkpt lat="42.26945" lon="-0.43443">
        <time>2022-07-31T14:17:00Z</time>
      </trkpt>
      <trkpt lat="42.26911" lon="-0.43442">
        <time>2022-07-31T14:17:01Z</time>
      </trkpt>
      <trkpt lat="42.26877" lon="-0.43441">
        <time>2022-07-31T14:17:02Z</time>
      </trkpt>
      <trkpt lat="42.26843" lon="-0.4344">
        <time>2022-07-31T14:17:03Z</time>
      </trkpt>
      <trkpt lat="42.2681" lon="-0.43439">
        <time>2022-07-31T14:17:04Z</time>
      </trkpt>
      <trkpt lat="42.26778" lon="-0.43439">
        <time>2022-07-31T14:17:05Z</time>
      </trkpt>
      <trkpt lat="42.26746" lon="-0.43439">
        <time>2022-07-31T14:17:06Z</time>
      </trkpt>
      <trkpt lat="42.26715" lon="-0.43441">
        <time>2022-07-31T14:17:07Z</time>
      </trkpt>
      <trkpt lat="42.26685" lon="-0.43447">
        <time>2022-07-31T14:17:08Z</time>
      </trkpt>
      <trkpt lat="42.26656" lon="-0.43456">
        <time>2022-07-31T14:17:09Z</time>
      </trkpt>
      <trkpt lat="42.26626" lon="-0.43469">
        <time>2022-07-31T14:17:10Z</time>
      </trkpt>
      <trkpt lat="42.26597" lon="-0.43485">
        <time>2022-07-31T14:17:11Z</time>
      </trkpt>
      <trkpt lat="42.26569" lon="-0.43505">
        <time>2022-07-31T14:17:12Z</time>
      </trkpt>
      <trkpt lat="42.26542" lon="-0.43528">
        <time>2022-07-31T14:17:13Z</time>
      </trkpt>
      <trkpt lat="42.26516" lon="-0.43554">
        <time>2022-07-31T14:17:14Z</time>
      </trkpt>
      <trkpt lat="42.26491" lon="-0.43582">
        <time>2022-07-31T14:17:15Z</time>
      </trkpt>
      <trkpt lat="42.26468" lon="-0.43614">
        <time>2022-07-31T14:17:16Z</time>
      </trkpt>
      <trkpt lat="42.26446" lon="-0.43649">
        <time>2022-07-31T14:17:17Z</time>
      </trkpt>
      <trkpt lat="42.26425" lon="-0.43684">
        <time>2022-07-31T14:17:18Z</time>
      </trkpt>
      <trkpt lat="42.26404" lon="-0.43719">
        <time>2022-07-31T14:17:19Z</time>
      </trkpt>
      <trkpt lat="42.26382" lon="-0.43754">
        <time>2022-07-31T14:17:20Z</time>
      </trkpt>
      <trkpt lat="42.26361" lon="-0.4379">
        <time>2022-07-31T14:17:21Z</time>
      </trkpt>
      <trkpt lat="42.26339" lon="-0.43825">
        <time>2022-07-31T14:17:22Z</time>
      </trkpt>
      <trkpt lat="42.26317" lon="-0.4386">
        <time>2022-07-31T14:17:23Z</time>
      </trkpt>
      <trkpt lat="42.26296" lon="-0.43895">
        <time>2022-07-31T14:17:24Z</time>
      </trkpt>
      <trkpt lat="42.26274" lon="-0.43929">
        <time>2022-07-31T14:17:25Z</time>
      </trkpt>
      <trkpt lat="42.26253" lon="-0.43963">
        <time>2022-07-31T14:17:26Z</time>
      </trkpt>
      <trkpt lat="42.26231" lon="-0.43997">
        <time>2022-07-31T14:17:27Z</time>
      </trkpt>
      <trkpt lat="42.26207" lon="-0.44029">
        <time>2022-07-31T14:17:28Z</time>
      </trkpt>
      <trkpt lat="42.26183" lon="-0.44061">
        <time>2022-07-31T14:17:29Z</time>
      </trkpt>
      <trkpt lat="42.26158" lon="-0.4409">
        <time>2022-07-31T14:17:30Z</time>
      </trkpt>
      <trkpt lat="42.26132" lon="-0.44117">
        <time>2022-07-31T14:17:31Z</time>
      </trkpt>
      <trkpt lat="42.26105" lon="-0.44143">
        <time>2022-07-31T14:17:32Z</time>
      </trkpt>
      <trkpt lat="42.26076" lon="-0.44168">
        <time>2022-07-31T14:17:33Z</time>
      </trkpt>
      <trkpt lat="42.26047" lon="-0.4419">
        <time>2022-07-31T14:17:34Z</time>
      </trkpt>
      <trkpt lat="42.26017" lon="-0.44211">
        <time>2022-07-31T14:17:35Z</time>
      </trkpt>
      <trkpt lat="42.25985" lon="-0.44229">
        <time>2022-07-31T14:17:36Z</time>
      </trkpt>
      <trkpt lat="42.25954" lon="-0.44245">
        <time>2022-07-31T14:17:37Z</time>
      </trkpt>
      <trkpt lat="42.25921" lon="-0.44259">
        <time>2022-07-31T14:17:38Z</time>
      </trkpt>
      <trkpt lat="42.25888" lon="-0.44271">
        <time>2022-07-31T14:17:39Z</time>
      </trkpt>
      <trkpt lat="42.25854" lon="-0.44282">
        <time>2022-07-31T14:17:40Z</time>
      </trkpt>
      <trkpt lat="42.25821" lon="-0.44292">
        <time>2022-07-31T14:17:41Z</time>
      </trkpt>
      <trkpt lat="42.25787" lon="-0.44304">
        <time>2022-07-31T14:17:42Z</time>
      </trkpt>
      <trkpt lat="42.25754" lon="-0.44315">
        <time>2022-07-31T14:17:43Z</time>
      </trkpt>
      <trkpt lat="42.2572" lon="-0.44326">
        <time>2022-07-31T14:17:44Z</time>
      </trkpt>
      <trkpt lat="42.25687" lon="-0.44338">
        <time>2022-07-31T14:17:45Z</time>
      </trkpt>
      <trkpt lat="42.25654" lon="-0.4435">
        <time>2022-07-31T14:17:46Z</time>
      </trkpt>
      <trkpt lat="42.2562" lon="-0.44362">
        <time>2022-07-31T14:17:47Z</time>
      </trkpt>
      <trkpt lat="42.25586" lon="-0.44373">
        <time>2022-07-31T14:17:48Z</time>
      </trkpt>
      <trkpt lat="42.25553" lon="-0.44385">
        <time>2022-07-31T14:17:49Z</time>
      </trkpt>
      <trkpt lat="42.25519" lon="-0.44396">
        <time>2022-07-31T14:17:50Z</time>
      </trkpt>
      <trkpt lat="42.25485" lon="-0.44408">
        <time>2022-07-31T14:17:51Z</time>
      </trkpt>
      <trkpt lat="42.25451" lon="-0.4442">
        <time>2022-07-31T14:17:52Z</time>
      </trkpt>
      <trkpt lat="42.25418" lon="-0.44431">
        <time>2022-07-31T14:17:53Z</time>
      </trkpt>
      <trkpt lat="42.25384" lon="-0.44442">
        <time>2022-07-31T14:17:54Z</time>
      </trkpt>
      <trkpt lat="42.25351" lon="-0.44454">
        <time>2022-07-31T14:17:55Z</time>
      </trkpt>
      <trkpt lat="42.25318" lon="-0.44466">
        <time>2022-07-31T14:17:56Z</time>
      </trkpt>
      <trkpt lat="42.25284" lon="-0.44477">
        <time>2022-07-31T14:17:57Z</time>
      </trkpt>
      <trkpt lat="42.25251" lon="-0.44489">
        <time>2022-07-31T14:17:58Z</time>
      </trkpt>
      <trkpt lat="42.25218" lon="-0.445">
        <time>2022-07-31T14:17:59Z</time>
      </trkpt>
      <trkpt lat="42.25185" lon="-0.44511">
        <time>2022-07-31T14:18:00Z</time>
      </trkpt>
      <trkpt lat="42.25152" lon="-0.44523">
        <time>2022-07-31T14:18:01Z</time>
      </trkpt>
      <trkpt lat="42.25119" lon="-0.44534">
        <time>2022-07-31T14:18:02Z</time>
      </trkpt>
      <trkpt lat="42.25086" lon="-0.44546">
        <time>2022-07-31T14:18:03Z</time>
      </trkpt>
      <trkpt lat="42.25052" lon="-0.44557">
        <time>2022-07-31T14:18:04Z</time>
      </trkpt>
      <trkpt lat="42.25019" lon="-0.44568">
        <time>2022-07-31T14:18:05Z</time>
      </trkpt>
      <trkpt lat="42.24986" lon="-0.44579">
        <time>2022-07-31T14:18:06Z</time>
      </trkpt>
      <trkpt lat="42.24953" lon="-0.4459">
        <time>2022-07-31T14:18:07Z</time>
      </trkpt>
      <trkpt lat="42.2492" lon="-0.446">
        <time>2022-07-31T14:18:08Z</time>
      </trkpt>
      <trkpt lat="42.24888" lon="-0.44608">
        <time>2022-07-31T14:18:09Z</time>
      </trkpt>
      <trkpt lat="42.24854" lon="-0.44614">
        <time>2022-07-31T14:18:10Z</time>
      </trkpt>
      <trkpt lat="42.24821" lon="-0.44618">
        <time>2022-07-31T14:18:11Z</time>
      </trkpt>
      <trkpt lat="42.24788" lon="-0.4462">
        <time>2022-07-31T14:18:12Z</time>
      </trkpt>
      <trkpt lat="42.24755" lon="-0.44621">
        <time>2022-07-31T14:18:13Z</time>
      </trkpt>
      <trkpt lat="42.24721" lon="-0.44621">
        <time>2022-07-31T14:18:14Z</time>
      </trkpt>
      <trkpt lat="42.24688" lon="-0.4462">
        <time>2022-07-31T14:18:15Z</time>
      </trkpt>
      <trkpt lat="42.24654" lon="-0.44619">
        <time>2022-07-31T14:18:16Z</time>
      </trkpt>
      <trkpt lat="42.2462" lon="-0.44619">
        <time>2022-07-31T14:18:17Z</time>
      </trkpt>
      <trkpt lat="42.24586" lon="-0.44618">
        <time>2022-07-31T14:18:18Z</time>
      </trkpt>
      <trkpt lat="42.24552" lon="-0.44617">
        <time>2022-07-31T14:18:19Z</time>
      </trkpt>
      <trkpt lat="42.24518" lon="-0.44617">
        <time>2022-07-31T14:18:20Z</time>
      </trkpt>
      <trkpt lat="42.24484" lon="-0.44616">
        <time>2022-07-31T14:18:21Z</time>
      </trkpt>
      <trkpt lat="42.2445" lon="-0.44615">
        <time>2022-07-31T14:18:22Z</time>
      </trkpt>
      <trkpt lat="42.24416" lon="-0.44615">
        <time>2022-07-31T14:18:23Z</time>
      </trkpt>
      <trkpt lat="42.24383" lon="-0.44614">
        <time>2022-07-31T14:18:24Z</time>
      </trkpt>
      <trkpt lat="42.24349" lon="-0.44613">
        <time>2022-07-31T14:18:25Z</time>
      </trkpt>
      <trkpt lat="42.24316" lon="-0.44612">
        <time>2022-07-31T14:18:26Z</time>
      </trkpt>
      <trkpt lat="42.24282" lon="-0.44612">
        <time>2022-07-31T14:18:27Z</time>
      </trkpt>
      <trkpt lat="42.24249" lon="-0.4461">
        <time>2022-07-31T14:18:28Z</time>
      </trkpt>
      <trkpt lat="42.24215" lon="-0.44609">
        <time>2022-07-31T14:18:29Z</time>
      </trkpt>
      <trkpt lat="42.24181" lon="-0.44608">
        <time>2022-07-31T14:18:30Z</time>
      </trkpt>
      <trkpt lat="42.24148" lon="-0.44607">
        <time>2022-07-31T14:18:31Z</time>
      </trkpt>
      <trkpt lat="42.24115" lon="-0.44604">
        <time>2022-07-31T14:18:32Z</time>
      </trkpt>
      <trkpt lat="42.24081" lon="-0.44602">
        <time>2022-07-31T14:18:33Z</time>
      </trkpt>
      <trkpt lat="42.24047" lon="-0.44599">
        <time>2022-07-31T14:18:34Z</time>
      </trkpt>
      <trkpt lat="42.24013" lon="-0.44595">
        <time>2022-07-31T14:18:35Z</time>
      </trkpt>
      <trkpt lat="42.2398" lon="-0.44589">
        <time>2022-07-31T14:18:36Z</time>
      </trkpt>
      <trkpt lat="42.23946" lon="-0.44583">
        <time>2022-07-31T14:18:37Z</time>
      </trkpt>
      <trkpt lat="42.23913" lon="-0.44576">
        <time>2022-07-31T14:18:38Z</time>
      </trkpt>
      <trkpt lat="42.2388" lon="-0.44569">
        <time>2022-07-31T14:18:39Z</time>
      </trkpt>
      <trkpt lat="42.23848" lon="-0.4456">
        <time>2022-07-31T14:18:40Z</time>
      </trkpt>
      <trkpt lat="42.23815" lon="-0.4455">
        <time>2022-07-31T14:18:41Z</time>
      </trkpt>
      <trkpt lat="42.23783" lon="-0.44541">
        <time>2022-07-31T14:18:42Z</time>
      </trkpt>
      <trkpt lat="42.2375" lon="-0.4453">
        <time>2022-07-31T14:18:43Z</time>
      </trkpt>
      <trkpt lat="42.23717" lon="-0.44517">
        <time>2022-07-31T14:18:44Z</time>
      </trkpt>
      <trkpt lat="42.23684" lon="-0.44505">
        <time>2022-07-31T14:18:45Z</time>
      </trkpt>
      <trkpt lat="42.23651" lon="-0.44492">
        <time>2022-07-31T14:18:46Z</time>
      </trkpt>
      <trkpt lat="42.23618" lon="-0.4448">
        <time>2022-07-31T14:18:47Z</time>
      </trkpt>
      <trkpt lat="42.23584" lon="-0.44467">
        <time>2022-07-31T14:18:48Z</time>
      </trkpt>
      <trkpt lat="42.23551" lon="-0.44455">
        <time>2022-07-31T14:18:49Z</time>
      </trkpt>
      <trkpt lat="42.23517" lon="-0.44443">
        <time>2022-07-31T14:18:50Z</time>
      </trkpt>
      <trkpt lat="42.23483" lon="-0.44431">
        <time>2022-07-31T14:18:51Z</time>
      </trkpt>
      <trkpt lat="42.23449" lon="-0.44419">
        <time>2022-07-31T14:18:52Z</time>
      </trkpt>
      <trkpt lat="42.23415" lon="-0.44407">
        <time>2022-07-31T14:18:53Z</time>
      </trkpt>
      <trkpt lat="42.23381" lon="-0.44396">
        <time>2022-07-31T14:18:54Z</time>
      </trkpt>
      <trkpt lat="42.23346" lon="-0.44385">
        <time>2022-07-31T14:18:55Z</time>
      </trkpt>
      <trkpt lat="42.23312" lon="-0.44375">
        <time>2022-07-31T14:18:56Z</time>
      </trkpt>
      <trkpt lat="42.23278" lon="-0.44366">
        <time>2022-07-31T14:18:57Z</time>
      </trkpt>
      <trkpt lat="42.23243" lon="-0.44358">
        <time>2022-07-31T14:18:58Z</time>
      </trkpt>
      <trkpt lat="42.23208" lon="-0.44351">
        <time>2022-07-31T14:18:59Z</time>
      </trkpt>
      <trkpt lat="42.23174" lon="-0.44345">
        <time>2022-07-31T14:19:00Z</time>
      </trkpt>
      <trkpt lat="42.2314" lon="-0.44339">
        <time>2022-07-31T14:19:01Z</time>
      </trkpt>
      <trkpt lat="42.23106" lon="-0.44333">
        <time>2022-07-31T14:19:02Z</time>
      </trkpt>
      <trkpt lat="42.23071" lon="-0.44328">
        <time>2022-07-31T14:19:03Z</time>
      </trkpt>
      <trkpt lat="42.23037" lon="-0.44323">
        <time>2022-07-31T14:19:04Z</time>
      </trkpt>
      <trkpt lat="42.23003" lon="-0.44319">
        <time>2022-07-31T14:19:05Z</time>
      </trkpt>
      <trkpt lat="42.2297" lon="-0.44315">
        <time>2022-07-31T14:19:06Z</time>
      </trkpt>
      <trkpt lat="42.22936" lon="-0.44312">
        <time>2022-07-31T14:19:07Z</time>
      </trkpt>
      <trkpt lat="42.22903" lon="-0.4431">
        <time>2022-07-31T14:19:08Z</time>
      </trkpt>
      <trkpt lat="42.2287" lon="-0.44307">
        <time>2022-07-31T14:19:09Z</time>
      </trkpt>
      <trkpt lat="42.22837" lon="-0.44306">
        <time>2022-07-31T14:19:10Z</time>
      </trkpt>
      <trkpt lat="42.22803" lon="-0.44304">
        <time>2022-07-31T14:19:11Z</time>
      </trkpt>
      <trkpt lat="42.2277" lon="-0.44304">
        <time>2022-07-31T14:19:12Z</time>
      </trkpt>
      <trkpt lat="42.22736" lon="-0.44304">
        <time>2022-07-31T14:19:13Z</time>
      </trkpt>
      <trkpt lat="42.22703" lon="-0.44304">
        <time>2022-07-31T14:19:14Z</time>
      </trkpt>
      <trkpt lat="42.22669" lon="-0.44306">
        <time>2022-07-31T14:19:15Z</time>
      </trkpt>
      <trkpt lat="42.22635" lon="-0.44307">
        <time>2022-07-31T14:19:16Z</time>
      </trkpt>
      <trkpt lat="42.22601" lon="-0.44309">
        <time>2022-07-31T14:19:17Z</time>
      </trkpt>
      <trkpt lat="42.22568" lon="-0.44312">
        <time>2022-07-31T14:19:18Z</time>
      </trkpt>
      <trkpt lat="42.22534" lon="-0.44314">
        <time>2022-07-31T14:19:19Z</time>
      </trkpt>
      <trkpt lat="42.225" lon="-0.44316">
        <time>2022-07-31T14:19:20Z</time>
      </trkpt>
      <trkpt lat="42.22468" lon="-0.44318">
        <time>2022-07-31T14:19:21Z</time>
      </trkpt>
      <trkpt lat="42.22435" lon="-0.44319">
        <time>2022-07-31T14:19:22Z</time>
      </trkpt>
      <trkpt lat="42.22403" lon="-0.44321">
        <time>2022-07-31T14:19:23Z</time>
      </trkpt>
      <trkpt lat="42.22371" lon="-0.44323">
        <time>2022-07-31T14:19:24Z</time>
      </trkpt>
      <trkpt lat="42.22339" lon="-0.44324">
        <time>2022-07-31T14:19:25Z</time>
      </trkpt>
      <trkpt lat="42.22307" lon="-0.44325">
        <time>2022-07-31T14:19:26Z</time>
      </trkpt>
      <trkpt lat="42.22276" lon="-0.44325">
        <time>2022-07-31T14:19:27Z</time>
      </trkpt>
      <trkpt lat="42.22245" lon="-0.44324">
        <time>2022-07-31T14:19:28Z</time>
      </trkpt>
      <trkpt lat="42.22214" lon="-0.44322">
        <time>2022-07-31T14:19:29Z</time>
      </trkpt>
      <trkpt lat="42.22184" lon="-0.44318">
        <time>2022-07-31T14:19:30Z</time>
      </trkpt>
      <trkpt lat="42.22153" lon="-0.44312">
        <time>2022-07-31T14:19:31Z</time>
      </trkpt>
      <trkpt lat="42.22123" lon="-0.44305">
        <time>2022-07-31T14:19:32Z</time>
      </trkpt>
      <trkpt lat="42.22093" lon="-0.44297">
        <time>2022-07-31T14:19:33Z</time>
      </trkpt>
      <trkpt lat="42.22063" lon="-0.44287">
        <time>2022-07-31T14:19:34Z</time>
      </trkpt>
      <trkpt lat="42.22033" lon="-0.44276">
        <time>2022-07-31T14:19:35Z</time>
      </trkpt>
      <trkpt lat="42.22004" lon="-0.44264">
        <time>2022-07-31T14:19:36Z</time>
      </trkpt>
      <trkpt lat="42.21973" lon="-0.4425">
        <time>2022-07-31T14:19:37Z</time>
      </trkpt>
      <trkpt lat="42.21942" lon="-0.44234">
        <time>2022-07-31T14:19:38Z</time>
      </trkpt>
      <trkpt lat="42.21911" lon="-0.44215">
        <time>2022-07-31T14:19:39Z</time>
      </trkpt>
      <trkpt lat="42.21879" lon="-0.44196">
        <time>2022-07-31T14:19:40Z</time>
      </trkpt>
      <trkpt lat="42.21848" lon="-0.44173">
        <time>2022-07-31T14:19:41Z</time>
      </trkpt>
      <trkpt lat="42.21818" lon="-0.44149">
        <time>2022-07-31T14:19:42Z</time>
      </trkpt>
      <trkpt lat="42.21789" lon="-0.44123">
        <time>2022-07-31T14:19:43Z</time>
      </trkpt>
      <trkpt lat="42.2176" lon="-0.44096">
        <time>2022-07-31T14:19:44Z</time>
      </trkpt>
      <trkpt lat="42.21731" lon="-0.44069">
        <time>2022-07-31T14:19:45Z</time>
      </trkpt>
      <trkpt lat="42.21703" lon="-0.4404">
        <time>2022-07-31T14:19:46Z</time>
      </trkpt>
      <trkpt lat="42.21675" lon="-0.4401">
        <time>2022-07-31T14:19:47Z</time>
      </trkpt>
      <trkpt lat="42.21648" lon="-0.4398">
        <time>2022-07-31T14:19:48Z</time>
      </trkpt>
      <trkpt lat="42.21621" lon="-0.4395">
        <time>2022-07-31T14:19:49Z</time>
      </trkpt>
      <trkpt lat="42.21594" lon="-0.4392">
        <time>2022-07-31T14:19:50Z</time>
      </trkpt>
      <trkpt lat="42.21566" lon="-0.4389">
        <time>2022-07-31T14:19:51Z</time>
      </trkpt>
      <trkpt lat="42.21538" lon="-0.43861">
        <time>2022-07-31T14:19:52Z</time>
      </trkpt>
      <trkpt lat="42.21509" lon="-0.43831">
        <time>2022-07-31T14:19:53Z</time>
      </trkpt>
      <trkpt lat="42.2148" lon="-0.43803">
        <time>2022-07-31T14:19:54Z</time>
      </trkpt>
      <trkpt lat="42.2145" lon="-0.43776">
        <time>2022-07-31T14:19:55Z</time>
      </trkpt>
      <trkpt lat="42.21419" lon="-0.4375">
        <time>2022-07-31T14:19:56Z</time>
      </trkpt>
      <trkpt lat="42.21387" lon="-0.43726">
        <time>2022-07-31T14:19:57Z</time>
      </trkpt>
      <trkpt lat="42.21355" lon="-0.43703">
        <time>2022-07-31T14:19:58Z</time>
      </trkpt>
      <trkpt lat="42.21322" lon="-0.43682">
        <time>2022-07-31T14:19:59Z</time>
      </trkpt>
      <trkpt lat="42.21287" lon="-0.43662">
        <time>2022-07-31T14:20:00Z</time>
      </trkpt>
      <trkpt lat="42.21253" lon="-0.43645">
        <time>2022-07-31T14:20:01Z</time>
      </trkpt>
      <trkpt lat="42.21218" lon="-0.43628">
        <time>2022-07-31T14:20:02Z</time>
      </trkpt>
      <trkpt lat="42.21182" lon="-0.43613">
        <time>2022-07-31T14:20:03Z</time>
      </trkpt>
      <trkpt lat="42.21146" lon="-0.43599">
        <time>2022-07-31T14:20:04Z</time>
      </trkpt>
      <trkpt lat="42.2111" lon="-0.43587">
        <time>2022-07-31T14:20:05Z</time>
      </trkpt>
      <trkpt lat="42.21073" lon="-0.43576">
        <time>2022-07-31T14:20:06Z</time>
      </trkpt>
      <trkpt lat="42.21037" lon="-0.43568">
        <time>2022-07-31T14:20:07Z</time>
      </trkpt>
      <trkpt lat="42.21" lon="-0.43561">
        <time>2022-07-31T14:20:08Z</time>
      </trkpt>
      <trkpt lat="42.20964" lon="-0.43556">
        <time>2022-07-31T14:20:09Z</time>
      </trkpt>
      <trkpt lat="42.20927" lon="-0.43553">
        <time>2022-07-31T14:20:10Z</time>
      </trkpt>
      <trkpt lat="42.20891" lon="-0.43551">
        <time>2022-07-31T14:20:11Z</time>
      </trkpt>
      <trkpt lat="42.20854" lon="-0.4355">
        <time>2022-07-31T14:20:12Z</time>
      </trkpt>
      <trkpt lat="42.20818" lon="-0.43551">
        <time>2022-07-31T14:20:13Z</time>
      </trkpt>
      <trkpt lat="42.20782" lon="-0.43553">
        <time>2022-07-31T14:20:14Z</time>
      </trkpt>
      <trkpt lat="42.20746" lon="-0.43554">
        <time>2022-07-31T14:20:15Z</time>
      </trkpt>
      <trkpt lat="42.2071" lon="-0.43556">
        <time>2022-07-31T14:20:16Z</time>
      </trkpt>
      <trkpt lat="42.20674" lon="-0.43559">
        <time>2022-07-31T14:20:17Z</time>
      </trkpt>
      <trkpt lat="42.20639" lon="-0.43562">
        <time>2022-07-31T14:20:18Z</time>
      </trkpt>
      <trkpt lat="42.20603" lon="-0.43565">
        <time>2022-07-31T14:20:19Z</time>
      </trkpt>
      <trkpt lat="42.20567" lon="-0.43567">
        <time>2022-07-31T14:20:20Z</time>
      </trkpt>
      <trkpt lat="42.20532" lon="-0.4357">
        <time>2022-07-31T14:20:21Z</time>
      </trkpt>
      <trkpt lat="42.20496" lon="-0.43572">
        <time>2022-07-31T14:20:22Z</time>
      </trkpt>
      <trkpt lat="42.20461" lon="-0.43575">
        <time>2022-07-31T14:20:23Z</time>
      </trkpt>
      <trkpt lat="42.20426" lon="-0.43578">
        <time>2022-07-31T14:20:24Z</time>
      </trkpt>
      <trkpt lat="42.20391" lon="-0.43581">
        <time>2022-07-31T14:20:25Z</time>
      </trkpt>
      <trkpt lat="42.20356" lon="-0.43584">
        <time>2022-07-31T14:20:26Z</time>
      </trkpt>
      <trkpt lat="42.20321" lon="-0.43586">
        <time>2022-07-31T14:20:27Z</time>
      </trkpt>
      <trkpt lat="42.20286" lon="-0.43588">
        <time>2022-07-31T14:20:28Z</time>
      </trkpt>
      <trkpt lat="42.20251" lon="-0.43591">
        <time>2022-07-31T14:20:29Z</time>
      </trkpt>
      <trkpt lat="42.20217" lon="-0.43593">
        <time>2022-07-31T14:20:30Z</time>
      </trkpt>
      <trkpt lat="42.20183" lon="-0.43596">
        <time>2022-07-31T14:20:31Z</time>
      </trkpt>
      <trkpt lat="42.20148" lon="-0.43598">
        <time>2022-07-31T14:20:32Z</time>
      </trkpt>
      <trkpt lat="42.20114" lon="-0.43601">
        <time>2022-07-31T14:20:33Z</time>
      </trkpt>
      <trkpt lat="42.20079" lon="-0.43602">
        <time>2022-07-31T14:20:34Z</time>
      </trkpt>
      <trkpt lat="42.20044" lon="-0.43604">
        <time>2022-07-31T14:20:35Z</time>
      </trkpt>
      <trkpt lat="42.20008" lon="-0.43606">
        <time>2022-07-31T14:20:36Z</time>
      </trkpt>
      <trkpt lat="42.19973" lon="-0.43609">
        <time>2022-07-31T14:20:37Z</time>
      </trkpt>
      <trkpt lat="42.19937" lon="-0.43611">
        <time>2022-07-31T14:20:38Z</time>
      </trkpt>
      <trkpt lat="42.19901" lon="-0.43613">
        <time>2022-07-31T14:20:39Z</time>
      </trkpt>
      <trkpt lat="42.19864" lon="-0.43616">
        <time>2022-07-31T14:20:40Z</time>
      </trkpt>
      <trkpt lat="42.19828" lon="-0.43618">
        <time>2022-07-31T14:20:41Z</time>
      </trkpt>
      <trkpt lat="42.19792" lon="-0.43621">
        <time>2022-07-31T14:20:42Z</time>
      </trkpt>
      <trkpt lat="42.19756" lon="-0.43623">
        <time>2022-07-31T14:20:43Z</time>
      </trkpt>
      <trkpt lat="42.1972" lon="-0.43625">
        <time>2022-07-31T14:20:44Z</time>
      </trkpt>
      <trkpt lat="42.19684" lon="-0.43626">
        <time>2022-07-31T14:20:45Z</time>
      </trkpt>
      <trkpt lat="42.19648" lon="-0.43626">
        <time>2022-07-31T14:20:46Z</time>
      </trkpt>
      <trkpt lat="42.19613" lon="-0.43625">
        <time>2022-07-31T14:20:47Z</time>
      </trkpt>
      <trkpt lat="42.19577" lon="-0.43622">
        <time>2022-07-31T14:20:48Z</time>
      </trkpt>
      <trkpt lat="42.19542" lon="-0.43618">
        <time>2022-07-31T14:20:49Z</time>
      </trkpt>
      <trkpt lat="42.19506" lon="-0.43613">
        <time>2022-07-31T14:20:50Z</time>
      </trkpt>
      <trkpt lat="42.1947" lon="-0.43606">
        <time>2022-07-31T14:20:51Z</time>
      </trkpt>
      <trkpt lat="42.19435" lon="-0.43597">
        <time>2022-07-31T14:20:52Z</time>
      </trkpt>
      <trkpt lat="42.194" lon="-0.43586">
        <time>2022-07-31T14:20:53Z</time>
      </trkpt>
      <trkpt lat="42.19365" lon="-0.43574">
        <time>2022-07-31T14:20:54Z</time>
      </trkpt>
      <trkpt lat="42.19331" lon="-0.43561">
        <time>2022-07-31T14:20:55Z</time>
      </trkpt>
      <trkpt lat="42.19298" lon="-0.43548">
        <time>2022-07-31T14:20:56Z</time>
      </trkpt>
      <trkpt lat="42.19264" lon="-0.43532">
        <time>2022-07-31T14:20:57Z</time>
      </trkpt>
      <trkpt lat="42.19232" lon="-0.43516">
        <time>2022-07-31T14:20:58Z</time>
      </trkpt>
      <trkpt lat="42.19199" lon="-0.43498">
        <time>2022-07-31T14:20:59Z</time>
      </trkpt>
      <trkpt lat="42.19167" lon="-0.43479">
        <time>2022-07-31T14:21:00Z</time>
      </trkpt>
      <trkpt lat="42.19135" lon="-0.43459">
        <time>2022-07-31T14:21:01Z</time>
      </trkpt>
      <trkpt lat="42.19104" lon="-0.43439">
        <time>2022-07-31T14:21:02Z</time>
      </trkpt>
      <trkpt lat="42.19073" lon="-0.43417">
        <time>2022-07-31T14:21:03Z</time>
      </trkpt>
      <trkpt lat="42.19042" lon="-0.43396">
        <time>2022-07-31T14:21:04Z</time>
      </trkpt>
      <trkpt lat="42.19012" lon="-0.43374">
        <time>2022-07-31T14:21:05Z</time>
      </trkpt>
      <trkpt lat="42.18981" lon="-0.43352">
        <time>2022-07-31T14:21:06Z</time>
      </trkpt>
      <trkpt lat="42.18951" lon="-0.4333">
        <time>2022-07-31T14:21:07Z</time>
      </trkpt>
      <trkpt lat="42.1892" lon="-0.43308">
        <time>2022-07-31T14:21:08Z</time>
      </trkpt>
      <trkpt lat="42.1889" lon="-0.43287">
        <time>2022-07-31T14:21:09Z</time>
      </trkpt>
      <trkpt lat="42.18859" lon="-0.43267">
        <time>2022-07-31T14:21:10Z</time>
      </trkpt>
      <trkpt lat="42.18828" lon="-0.43247">
        <time>2022-07-31T14:21:11Z</time>
      </trkpt>
      <trkpt lat="42.18797" lon="-0.43228">
        <time>2022-07-31T14:21:12Z</time>
      </trkpt>
      <trkpt lat="42.18766" lon="-0.43211">
        <time>2022-07-31T14:21:13Z</time>
      </trkpt>
      <trkpt lat="42.18734" lon="-0.43194">
        <time>2022-07-31T14:21:14Z</time>
      </trkpt>
      <trkpt lat="42.18701" lon="-0.43179">
        <time>2022-07-31T14:21:15Z</time>
      </trkpt>
      <trkpt lat="42.18669" lon="-0.43165">
        <time>2022-07-31T14:21:16Z</time>
      </trkpt>
      <trkpt lat="42.18636" lon="-0.43151">
        <time>2022-07-31T14:21:17Z</time>
      </trkpt>
      <trkpt lat="42.18602" lon="-0.43139">
        <time>2022-07-31T14:21:18Z</time>
      </trkpt>
      <trkpt lat="42.18568" lon="-0.43127">
        <time>2022-07-31T14:21:19Z</time>
      </trkpt>
      <trkpt lat="42.18535" lon="-0.43117">
        <time>2022-07-31T14:21:20Z</time>
      </trkpt>
      <trkpt lat="42.18501" lon="-0.43109">
        <time>2022-07-31T14:21:21Z</time>
      </trkpt>
      <trkpt lat="42.18466" lon="-0.43102">
        <time>2022-07-31T14:21:22Z</time>
      </trkpt>
      <trkpt lat="42.18431" lon="-0.43096">
        <time>2022-07-31T14:21:23Z</time>
      </trkpt>
      <trkpt lat="42.18396" lon="-0.43091">
        <time>2022-07-31T14:21:24Z</time>
      </trkpt>
      <trkpt lat="42.18361" lon="-0.43087">
        <time>2022-07-31T14:21:25Z</time>
      </trkpt>
      <trkpt lat="42.18327" lon="-0.43084">
        <time>2022-07-31T14:21:26Z</time>
      </trkpt>
      <trkpt lat="42.18292" lon="-0.43084">
        <time>2022-07-31T14:21:27Z</time>
      </trkpt>
      <trkpt lat="42.18258" lon="-0.43083">
        <time>2022-07-31T14:21:28Z</time>
      </trkpt>
      <trkpt lat="42.18224" lon="-0.43084">
        <time>2022-07-31T14:21:29Z</time>
      </trkpt>
      <trkpt lat="42.1819" lon="-0.43085">
        <time>2022-07-31T14:21:30Z</time>
      </trkpt>
      <trkpt lat="42.18156" lon="-0.43088">
        <time>2022-07-31T14:21:31Z</time>
      </trkpt>
      <trkpt lat="42.18122" lon="-0.43094">
        <time>2022-07-31T14:21:32Z</time>
      </trkpt>
      <trkpt lat="42.18088" lon="-0.431">
        <time>2022-07-31T14:21:33Z</time>
      </trkpt>
      <trkpt lat="42.18054" lon="-0.43107">
        <time>2022-07-31T14:21:34Z</time>
      </trkpt>
      <trkpt lat="42.1802" lon="-0.43114">
        <time>2022-07-31T14:21:35Z</time>
      </trkpt>
      <trkpt lat="42.17986" lon="-0.43122">
        <time>2022-07-31T14:21:36Z</time>
      </trkpt>
      <trkpt lat="42.17952" lon="-0.43131">
        <time>2022-07-31T14:21:37Z</time>
      </trkpt>
      <trkpt lat="42.17918" lon="-0.4314">
        <time>2022-07-31T14:21:38Z</time>
      </trkpt>
      <trkpt lat="42.17884" lon="-0.43148">
        <time>2022-07-31T14:21:39Z</time>
      </trkpt>
      <trkpt lat="42.1785" lon="-0.43157">
        <time>2022-07-31T14:21:40Z</time>
      </trkpt>
      <trkpt lat="42.17816" lon="-0.43164">
        <time>2022-07-31T14:21:41Z</time>
      </trkpt>
      <trkpt lat="42.17783" lon="-0.43171">
        <time>2022-07-31T14:21:42Z</time>
      </trkpt>
      <trkpt lat="42.17749" lon="-0.43178">
        <time>2022-07-31T14:21:43Z</time>
      </trkpt>
      <trkpt lat="42.17715" lon="-0.43183">
        <time>2022-07-31T14:21:44Z</time>
      </trkpt>
      <trkpt lat="42.17681" lon="-0.43187">
        <time>2022-07-31T14:21:45Z</time>
      </trkpt>
      <trkpt lat="42.17647" lon="-0.4319">
        <time>2022-07-31T14:21:46Z</time>
      </trkpt>
      <trkpt lat="42.17613" lon="-0.43192">
        <time>2022-07-31T14:21:47Z</time>
      </trkpt>
      <trkpt lat="42.17579" lon="-0.43191">
        <time>2022-07-31T14:21:48Z</time>
      </trkpt>
      <trkpt lat="42.17545" lon="-0.43189">
        <time>2022-07-31T14:21:49Z</time>
      </trkpt>
      <trkpt lat="42.17511" lon="-0.43186">
        <time>2022-07-31T14:21:50Z</time>
      </trkpt>
      <trkpt lat="42.17477" lon="-0.4318">
        <time>2022-07-31T14:21:51Z</time>
      </trkpt>
      <trkpt lat="42.17443" lon="-0.43173">
        <time>2022-07-31T14:21:52Z</time>
      </trkpt>
      <trkpt lat="42.1741" lon="-0.43164">
        <time>2022-07-31T14:21:53Z</time>
      </trkpt>
      <trkpt lat="42.17377" lon="-0.43153">
        <time>2022-07-31T14:21:54Z</time>
      </trkpt>
      <trkpt lat="42.17345" lon="-0.43141">
        <time>2022-07-31T14:21:55Z</time>
      </trkpt>
      <trkpt lat="42.17313" lon="-0.43128">
        <time>2022-07-31T14:21:56Z</time>
      </trkpt>
      <trkpt lat="42.17281" lon="-0.43113">
        <time>2022-07-31T14:21:57Z</time>
      </trkpt>
      <trkpt lat="42.17249" lon="-0.43098">
        <time>2022-07-31T14:21:58Z</time>
      </trkpt>
      <trkpt lat="42.17217" lon="-0.43083">
        <time>2022-07-31T14:21:59Z</time>
      </trkpt>
      <trkpt lat="42.17185" lon="-0.43066">
        <time>2022-07-31T14:22:00Z</time>
      </trkpt>
      <trkpt lat="42.17152" lon="-0.43049">
        <time>2022-07-31T14:22:01Z</time>
      </trkpt>
      <trkpt lat="42.1712" lon="-0.43032">
        <time>2022-07-31T14:22:02Z</time>
      </trkpt>
      <trkpt lat="42.17088" lon="-0.43014">
        <time>2022-07-31T14:22:03Z</time>
      </trkpt>
      <trkpt lat="42.17055" lon="-0.42996">
        <time>2022-07-31T14:22:04Z</time>
      </trkpt>
      <trkpt lat="42.17023" lon="-0.42979">
        <time>2022-07-31T14:22:05Z</time>
      </trkpt>
      <trkpt lat="42.16991" lon="-0.42961">
        <time>2022-07-31T14:22:06Z</time>
      </trkpt>
      <trkpt lat="42.16959" lon="-0.42943">
        <time>2022-07-31T14:22:07Z</time>
      </trkpt>
      <trkpt lat="42.16927" lon="-0.42926">
        <time>2022-07-31T14:22:08Z</time>
      </trkpt>
      <trkpt lat="42.16895" lon="-0.42908">
        <time>2022-07-31T14:22:09Z</time>
      </trkpt>
      <trkpt lat="42.16863" lon="-0.42891">
        <time>2022-07-31T14:22:10Z</time>
      </trkpt>
      <trkpt lat="42.16832" lon="-0.42873">
        <time>2022-07-31T14:22:11Z</time>
      </trkpt>
      <trkpt lat="42.168" lon="-0.42854">
        <time>2022-07-31T14:22:12Z</time>
      </trkpt>
      <trkpt lat="42.16769" lon="-0.42837">
        <time>2022-07-31T14:22:13Z</time>
      </trkpt>
      <trkpt lat="42.16738" lon="-0.42819">
        <time>2022-07-31T14:22:14Z</time>
      </trkpt>
      <trkpt lat="42.16706" lon="-0.42801">
        <time>2022-07-31T14:22:15Z</time>
      </trkpt>
      <trkpt lat="42.16675" lon="-0.42783">
        <time>2022-07-31T14:22:16Z</time>
      </trkpt>
      <trkpt lat="42.16645" lon="-0.42765">
        <time>2022-07-31T14:22:17Z</time>
      </trkpt>
      <trkpt lat="42.16614" lon="-0.42746">
        <time>2022-07-31T14:22:18Z</time>
      </trkpt>
      <trkpt lat="42.16583" lon="-0.42727">
        <time>2022-07-31T14:22:19Z</time>
      </trkpt>
      <trkpt lat="42.16553" lon="-0.42707">
        <time>2022-07-31T14:22:20Z</time>
      </trkpt>
      <trkpt lat="42.16523" lon="-0.42686">
        <time>2022-07-31T14:22:21Z</time>
      </trkpt>
      <trkpt lat="42.16492" lon="-0.42664">
        <time>2022-07-31T14:22:22Z</time>
      </trkpt>
      <trkpt lat="42.16463" lon="-0.42641">
        <time>2022-07-31T14:22:23Z</time>
      </trkpt>
      <trkpt lat="42.16434" lon="-0.42617">
        <time>2022-07-31T14:22:24Z</time>
      </trkpt>
      <trkpt lat="42.16405" lon="-0.42592">
        <time>2022-07-31T14:22:25Z</time>
      </trkpt>
      <trkpt lat="42.16376" lon="-0.42567">
        <time>2022-07-31T14:22:26Z</time>
      </trkpt>
      <trkpt lat="42.16348" lon="-0.4254">
        <time>2022-07-31T14:22:27Z</time>
      </trkpt>
      <trkpt lat="42.16319" lon="-0.42514">
        <time>2022-07-31T14:22:28Z</time>
      </trkpt>
      <trkpt lat="42.16291" lon="-0.42488">
        <time>2022-07-31T14:22:29Z</time>
      </trkpt>
      <trkpt lat="42.16262" lon="-0.42462">
        <time>2022-07-31T14:22:30Z</time>
      </trkpt>
      <trkpt lat="42.16233" lon="-0.42436">
        <time>2022-07-31T14:22:31Z</time>
      </trkpt>
      <trkpt lat="42.16204" lon="-0.4241">
        <time>2022-07-31T14:22:32Z</time>
      </trkpt>
      <trkpt lat="42.16174" lon="-0.42385">
        <time>2022-07-31T14:22:33Z</time>
      </trkpt>
      <trkpt lat="42.16144" lon="-0.42362">
        <time>2022-07-31T14:22:34Z</time>
      </trkpt>
      <trkpt lat="42.16113" lon="-0.42341">
        <time>2022-07-31T14:22:35Z</time>
      </trkpt>
      <trkpt lat="42.16082" lon="-0.42321">
        <time>2022-07-31T14:22:36Z</time>
      </trkpt>
      <trkpt lat="42.16051" lon="-0.42302">
        <time>2022-07-31T14:22:37Z</time>
      </trkpt>
      <trkpt lat="42.16019" lon="-0.42286">
        <time>2022-07-31T14:22:38Z</time>
      </trkpt>
      <trkpt lat="42.15987" lon="-0.42271">
        <time>2022-07-31T14:22:39Z</time>
      </trkpt>
      <trkpt lat="42.15955" lon="-0.42258">
        <time>2022-07-31T14:22:40Z</time>
      </trkpt>
      <trkpt lat="42.15923" lon="-0.42247">
        <time>2022-07-31T14:22:41Z</time>
      </trkpt>
      <trkpt lat="42.1589" lon="-0.42238">
        <time>2022-07-31T14:22:42Z</time>
      </trkpt>
      <trkpt lat="42.15857" lon="-0.42232">
        <time>2022-07-31T14:22:43Z</time>
      </trkpt>
      <trkpt lat="42.15824" lon="-0.42228">
        <time>2022-07-31T14:22:44Z</time>
      </trkpt>
      <trkpt lat="42.1579" lon="-0.42227">
        <time>2022-07-31T14:22:45Z</time>
      </trkpt>
      <trkpt lat="42.15756" lon="-0.42228">
        <time>2022-07-31T14:22:46Z</time>
      </trkpt>
      <trkpt lat="42.15723" lon="-0.42232">
        <time>2022-07-31T14:22:47Z</time>
      </trkpt>
      <trkpt lat="42.1569" lon="-0.42238">
        <time>2022-07-31T14:22:48Z</time>
      </trkpt>
      <trkpt lat="42.15656" lon="-0.42244">
        <time>2022-07-31T14:22:49Z</time>
      </trkpt>
      <trkpt lat="42.15624" lon="-0.4225">
        <time>2022-07-31T14:22:50Z</time>
      </trkpt>
      <trkpt lat="42.15591" lon="-0.42256">
        <time>2022-07-31T14:22:51Z</time>
      </trkpt>
      <trkpt lat="42.1556" lon="-0.42264">
        <time>2022-07-31T14:22:52Z</time>
      </trkpt>
      <trkpt lat="42.15529" lon="-0.42273">
        <time>2022-07-31T14:22:53Z</time>
      </trkpt>
      <trkpt lat="42.15498" lon="-0.42283">
        <time>2022-07-31T14:22:54Z</time>
      </trkpt>
      <trkpt lat="42.15467" lon="-0.42293">
        <time>2022-07-31T14:22:55Z</time>
      </trkpt>
      <trkpt lat="42.15435" lon="-0.42306">
        <time>2022-07-31T14:22:56Z</time>
      </trkpt>
      <trkpt lat="42.15403" lon="-0.4232">
        <time>2022-07-31T14:22:57Z</time>
      </trkpt>
      <trkpt lat="42.1537" lon="-0.42335">
        <time>2022-07-31T14:22:58Z</time>
      </trkpt>
      <trkpt lat="42.15337" lon="-0.42351">
        <time>2022-07-31T14:22:59Z</time>
      </trkpt>
      <trkpt lat="42.15304" lon="-0.42369">
        <time>2022-07-31T14:23:00Z</time>
      </trkpt>
      <trkpt lat="42.15272" lon="-0.42387">
        <time>2022-07-31T14:23:01Z</time>
      </trkpt>
      <trkpt lat="42.15239" lon="-0.42408">
        <time>2022-07-31T14:23:02Z</time>
      </trkpt>
      <trkpt lat="42.15207" lon="-0.42429">
        <time>2022-07-31T14:23:03Z</time>
      </trkpt>
      <trkpt lat="42.15174" lon="-0.42452">
        <time>2022-07-31T14:23:04Z</time>
      </trkpt>
      <trkpt lat="42.15143" lon="-0.42475">
        <time>2022-07-31T14:23:05Z</time>
      </trkpt>
      <trkpt lat="42.15111" lon="-0.42499">
        <time>2022-07-31T14:23:06Z</time>
      </trkpt>
      <trkpt lat="42.15079" lon="-0.42523">
        <time>2022-07-31T14:23:07Z</time>
      </trkpt>
      <trkpt lat="42.15047" lon="-0.42549">
        <time>2022-07-31T14:23:08Z</time>
      </trkpt>
      <trkpt lat="42.15015" lon="-0.42574">
        <time>2022-07-31T14:23:09Z</time>
      </trkpt>
      <trkpt lat="42.14983" lon="-0.426">
        <time>2022-07-31T14:23:10Z</time>
      </trkpt>
      <trkpt lat="42.14951" lon="-0.42626">
        <time>2022-07-31T14:23:11Z</time>
      </trkpt>
      <trkpt lat="42.1492" lon="-0.42652">
        <time>2022-07-31T14:23:12Z</time>
      </trkpt>
      <trkpt lat="42.14888" lon="-0.42678">
        <time>2022-07-31T14:23:13Z</time>
      </trkpt>
      <trkpt lat="42.14856" lon="-0.42704">
        <time>2022-07-31T14:23:14Z</time>
      </trkpt>
      <trkpt lat="42.14824" lon="-0.42729">
        <time>2022-07-31T14:23:15Z</time>
      </trkpt>
      <trkpt lat="42.14792" lon="-0.42756">
        <time>2022-07-31T14:23:16Z</time>
      </trkpt>
      <trkpt lat="42.14759" lon="-0.42782">
        <time>2022-07-31T14:23:17Z</time>
      </trkpt>
      <trkpt lat="42.14727" lon="-0.42809">
        <time>2022-07-31T14:23:18Z</time>
      </trkpt>
      <trkpt lat="42.14695" lon="-0.42835">
        <time>2022-07-31T14:23:19Z</time>
      </trkpt>
      <trkpt lat="42.14663" lon="-0.42861">
        <time>2022-07-31T14:23:20Z</time>
      </trkpt>
      <trkpt lat="42.14631" lon="-0.42888">
        <time>2022-07-31T14:23:21Z</time>
      </trkpt>
      <trkpt lat="42.14598" lon="-0.42914">
        <time>2022-07-31T14:23:22Z</time>
      </trkpt>
      <trkpt lat="42.14565" lon="-0.4294">
        <time>2022-07-31T14:23:23Z</time>
      </trkpt>
      <trkpt lat="42.14533" lon="-0.42966">
        <time>2022-07-31T14:23:24Z</time>
      </trkpt>
      <trkpt lat="42.145" lon="-0.42991">
        <time>2022-07-31T14:23:25Z</time>
      </trkpt>
      <trkpt lat="42.14466" lon="-0.43013">
        <time>2022-07-31T14:23:26Z</time>
      </trkpt>
      <trkpt lat="42.14432" lon="-0.43034">
        <time>2022-07-31T14:23:27Z</time>
      </trkpt>
      <trkpt lat="42.14398" lon="-0.43053">
        <time>2022-07-31T14:23:28Z</time>
      </trkpt>
      <trkpt lat="42.14363" lon="-0.4307">
        <time>2022-07-31T14:23:29Z</time>
      </trkpt>
      <trkpt lat="42.14327" lon="-0.43086">
        <time>2022-07-31T14:23:30Z</time>
      </trkpt>
      <trkpt lat="42.14291" lon="-0.431">
        <time>2022-07-31T14:23:31Z</time>
      </trkpt>
      <trkpt lat="42.14255" lon="-0.43113">
        <time>2022-07-31T14:23:32Z</time>
      </trkpt>
      <trkpt lat="42.14218" lon="-0.43123">
        <time>2022-07-31T14:23:33Z</time>
      </trkpt>
      <trkpt lat="42.14181" lon="-0.43131">
        <time>2022-07-31T14:23:34Z</time>
      </trkpt>
      <trkpt lat="42.14144" lon="-0.43137">
        <time>2022-07-31T14:23:35Z</time>
      </trkpt>
      <trkpt lat="42.14106" lon="-0.43141">
        <time>2022-07-31T14:23:36Z</time>
      </trkpt>
      <trkpt lat="42.14068" lon="-0.43142">
        <time>2022-07-31T14:23:37Z</time>
      </trkpt>
      <trkpt lat="42.14029" lon="-0.43142">
        <time>2022-07-31T14:23:38Z</time>
      </trkpt>
      <trkpt lat="42.13991" lon="-0.43138">
        <time>2022-07-31T14:23:39Z</time>
      </trkpt>
      <trkpt lat="42.13952" lon="-0.43133">
        <time>2022-07-31T14:23:40Z</time>
      </trkpt>
      <trkpt lat="42.13915" lon="-0.43126">
        <time>2022-07-31T14:23:41Z</time>
      </trkpt>
      <trkpt lat="42.13877" lon="-0.43117">
        <time>2022-07-31T14:23:42Z</time>
      </trkpt>
      <trkpt lat="42.1384" lon="-0.43105">
        <time>2022-07-31T14:23:43Z</time>
      </trkpt>
      <trkpt lat="42.13803" lon="-0.43092">
        <time>2022-07-31T14:23:44Z</time>
      </trkpt>
      <trkpt lat="42.13767" lon="-0.43077">
        <time>2022-07-31T14:23:45Z</time>
      </trkpt>
      <trkpt lat="42.13731" lon="-0.43061">
        <time>2022-07-31T14:23:46Z</time>
      </trkpt>
      <trkpt lat="42.13695" lon="-0.43045">
        <time>2022-07-31T14:23:47Z</time>
      </trkpt>
      <trkpt lat="42.13658" lon="-0.43029">
        <time>2022-07-31T14:23:48Z</time>
      </trkpt>
      <trkpt lat="42.13622" lon="-0.43015">
        <time>2022-07-31T14:23:49Z</time>
      </trkpt>
      <trkpt lat="42.13586" lon="-0.43003">
        <time>2022-07-31T14:23:50Z</time>
      </trkpt>
      <trkpt lat="42.1355" lon="-0.42993">
        <time>2022-07-31T14:23:51Z</time>
      </trkpt>
      <trkpt lat="42.13514" lon="-0.42985">
        <time>2022-07-31T14:23:52Z</time>
      </trkpt>
      <trkpt lat="42.13478" lon="-0.4298">
        <time>2022-07-31T14:23:53Z</time>
      </trkpt>
      <trkpt lat="42.13442" lon="-0.42976">
        <time>2022-07-31T14:23:54Z</time>
      </trkpt>
      <trkpt lat="42.13407" lon="-0.42975">
        <time>2022-07-31T14:23:55Z</time>
      </trkpt>
      <trkpt lat="42.13371" lon="-0.42975">
        <time>2022-07-31T14:23:56Z</time>
      </trkpt>
      <trkpt lat="42.13336" lon="-0.42978">
        <time>2022-07-31T14:23:57Z</time>
      </trkpt>
      <trkpt lat="42.133" lon="-0.42983">
        <time>2022-07-31T14:23:58Z</time>
      </trkpt>
      <trkpt lat="42.13265" lon="-0.4299">
        <time>2022-07-31T14:23:59Z</time>
      </trkpt>
      <trkpt lat="42.13229" lon="-0.42998">
        <time>2022-07-31T14:24:00Z</time>
      </trkpt>
      <trkpt lat="42.13194" lon="-0.43009">
        <time>2022-07-31T14:24:01Z</time>
      </trkpt>
      <trkpt lat="42.13159" lon="-0.43022">
        <time>2022-07-31T14:24:02Z</time>
      </trkpt>
      <trkpt lat="42.13124" lon="-0.43037">
        <time>2022-07-31T14:24:03Z</time>
      </trkpt>
      <trkpt lat="42.1309" lon="-0.43053">
        <time>2022-07-31T14:24:04Z</time>
      </trkpt>
      <trkpt lat="42.13056" lon="-0.4307">
        <time>2022-07-31T14:24:05Z</time>
      </trkpt>
      <trkpt lat="42.13023" lon="-0.4309">
        <time>2022-07-31T14:24:06Z</time>
      </trkpt>
      <trkpt lat="42.1299" lon="-0.43109">
        <time>2022-07-31T14:24:07Z</time>
      </trkpt>
      <trkpt lat="42.12957" lon="-0.43129">
        <time>2022-07-31T14:24:08Z</time>
      </trkpt>
      <trkpt lat="42.12924" lon="-0.43148">
        <time>2022-07-31T14:24:09Z</time>
      </trkpt>
      <trkpt lat="42.1289" lon="-0.43167">
        <time>2022-07-31T14:24:10Z</time>
      </trkpt>
      <trkpt lat="42.12857" lon="-0.43184">
        <time>2022-07-31T14:24:11Z</time>
      </trkpt>
      <trkpt lat="42.12822" lon="-0.43199">
        <time>2022-07-31T14:24:12Z</time>
      </trkpt>
      <trkpt lat="42.12788" lon="-0.43212">
        <time>2022-07-31T14:24:13Z</time>
      </trkpt>
      <trkpt lat="42.12753" lon="-0.43224">
        <time>2022-07-31T14:24:14Z</time>
      </trkpt>
      <trkpt lat="42.12717" lon="-0.43234">
        <time>2022-07-31T14:24:15Z</time>
      </trkpt>
      <trkpt lat="42.12682" lon="-0.43242">
        <time>2022-07-31T14:24:16Z</time>
      </trkpt>
      <trkpt lat="42.12645" lon="-0.43248">
        <time>2022-07-31T14:24:17Z</time>
      </trkpt>
      <trkpt lat="42.12609" lon="-0.43252">
        <time>2022-07-31T14:24:18Z</time>
      </trkpt>
      <trkpt lat="42.12573" lon="-0.43255">
        <time>2022-07-31T14:24:19Z</time>
      </trkpt>
      <trkpt lat="42.12536" lon="-0.43257">
        <time>2022-07-31T14:24:20Z</time>
      </trkpt>
      <trkpt lat="42.125" lon="-0.4326">
        <time>2022-07-31T14:24:21Z</time>
      </trkpt>
      <trkpt lat="42.12465" lon="-0.43265">
        <time>2022-07-31T14:24:22Z</time>
      </trkpt>
      <trkpt lat="42.12429" lon="-0.43272">
        <time>2022-07-31T14:24:23Z</time>
      </trkpt>
      <trkpt lat="42.12394" lon="-0.43282">
        <time>2022-07-31T14:24:24Z</time>
      </trkpt>
      <trkpt lat="42.1236" lon="-0.43295">
        <time>2022-07-31T14:24:25Z</time>
      </trkpt>
      <trkpt lat="42.12326" lon="-0.43312">
        <time>2022-07-31T14:24:26Z</time>
      </trkpt>
      <trkpt lat="42.12294" lon="-0.43331">
        <time>2022-07-31T14:24:27Z</time>
      </trkpt>
      <trkpt lat="42.12263" lon="-0.43353">
        <time>2022-07-31T14:24:28Z</time>
      </trkpt>
      <trkpt lat="42.12234" lon="-0.43376">
        <time>2022-07-31T14:24:29Z</time>
      </trkpt>
      <trkpt lat="42.12206" lon="-0.43401">
        <time>2022-07-31T14:24:30Z</time>
      </trkpt>
      <trkpt lat="42.1218" lon="-0.43427">
        <time>2022-07-31T14:24:31Z</time>
      </trkpt>
      <trkpt lat="42.12155" lon="-0.43455">
        <time>2022-07-31T14:24:32Z</time>
      </trkpt>
      <trkpt lat="42.1213" lon="-0.43484">
        <time>2022-07-31T14:24:33Z</time>
      </trkpt>
      <trkpt lat="42.12106" lon="-0.43515">
        <time>2022-07-31T14:24:34Z</time>
      </trkpt>
      <trkpt lat="42.12082" lon="-0.43548">
        <time>2022-07-31T14:24:35Z</time>
      </trkpt>
      <trkpt lat="42.12058" lon="-0.43582">
        <time>2022-07-31T14:24:36Z</time>
      </trkpt>
      <trkpt lat="42.12034" lon="-0.43616">
        <time>2022-07-31T14:24:37Z</time>
      </trkpt>
      <trkpt lat="42.12009" lon="-0.4365">
        <time>2022-07-31T14:24:38Z</time>
      </trkpt>
      <trkpt lat="42.11984" lon="-0.43685">
        <time>2022-07-31T14:24:39Z</time>
      </trkpt>
      <trkpt lat="42.11959" lon="-0.43721">
        <time>2022-07-31T14:24:40Z</time>
      </trkpt>
      <trkpt lat="42.11934" lon="-0.43757">
        <time>2022-07-31T14:24:41Z</time>
      </trkpt>
      <trkpt lat="42.1191" lon="-0.43793">
        <time>2022-07-31T14:24:42Z</time>
      </trkpt>
      <trkpt lat="42.11886" lon="-0.4383">
        <time>2022-07-31T14:24:43Z</time>
      </trkpt>
      <trkpt lat="42.11861" lon="-0.43867">
        <time>2022-07-31T14:24:44Z</time>
      </trkpt>
      <trkpt lat="42.11838" lon="-0.43905">
        <time>2022-07-31T14:24:45Z</time>
      </trkpt>
      <trkpt lat="42.11813" lon="-0.43942">
        <time>2022-07-31T14:24:46Z</time>
      </trkpt>
      <trkpt lat="42.11789" lon="-0.43978">
        <time>2022-07-31T14:24:47Z</time>
      </trkpt>
      <trkpt lat="42.11765" lon="-0.44015">
        <time>2022-07-31T14:24:48Z</time>
      </trkpt>
      <trkpt lat="42.1174" lon="-0.44052">
        <time>2022-07-31T14:24:49Z</time>
      </trkpt>
      <trkpt lat="42.11717" lon="-0.4409">
        <time>2022-07-31T14:24:50Z</time>
      </trkpt>
      <trkpt lat="42.11693" lon="-0.44127">
        <time>2022-07-31T14:24:51Z</time>
      </trkpt>
      <trkpt lat="42.11669" lon="-0.44165">
        <time>2022-07-31T14:24:52Z</time>
      </trkpt>
      <trkpt lat="42.11645" lon="-0.44203">
        <time>2022-07-31T14:24:53Z</time>
      </trkpt>
      <trkpt lat="42.11621" lon="-0.44241">
        <time>2022-07-31T14:24:54Z</time>
      </trkpt>
      <trkpt lat="42.11597" lon="-0.44279">
        <time>2022-07-31T14:24:55Z</time>
      </trkpt>
      <trkpt lat="42.11573" lon="-0.44317">
        <time>2022-07-31T14:24:56Z</time>
      </trkpt>
      <trkpt lat="42.1155" lon="-0.44355">
        <time>2022-07-31T14:24:57Z</time>
      </trkpt>
      <trkpt lat="42.11526" lon="-0.44394">
        <time>2022-07-31T14:24:58Z</time>
      </trkpt>
      <trkpt lat="42.11503" lon="-0.44432">
        <time>2022-07-31T14:24:59Z</time>
      </trkpt>
      <trkpt lat="42.1148" lon="-0.4447">
        <time>2022-07-31T14:25:00Z</time>
      </trkpt>
      <trkpt lat="42.11455" lon="-0.44508">
        <time>2022-07-31T14:25:01Z</time>
      </trkpt>
      <trkpt lat="42.11431" lon="-0.44546">
        <time>2022-07-31T14:25:02Z</time>
      </trkpt>
      <trkpt lat="42.11406" lon="-0.44584">
        <time>2022-07-31T14:25:03Z</time>
      </trkpt>
      <trkpt lat="42.11382" lon="-0.44622">
        <time>2022-07-31T14:25:04Z</time>
      </trkpt>
      <trkpt lat="42.11357" lon="-0.4466">
        <time>2022-07-31T14:25:05Z</time>
      </trkpt>
      <trkpt lat="42.11333" lon="-0.44697">
        <time>2022-07-31T14:25:06Z</time>
      </trkpt>
      <trkpt lat="42.11308" lon="-0.44734">
        <time>2022-07-31T14:25:07Z</time>
      </trkpt>
      <trkpt lat="42.11283" lon="-0.44771">
        <time>2022-07-31T14:25:08Z</time>
      </trkpt>
      <trkpt lat="42.11259" lon="-0.44809">
        <time>2022-07-31T14:25:09Z</time>
      </trkpt>
      <trkpt lat="42.11234" lon="-0.44846">
        <time>2022-07-31T14:25:10Z</time>
      </trkpt>
      <trkpt lat="42.1121" lon="-0.44881">
        <time>2022-07-31T14:25:11Z</time>
      </trkpt>
      <trkpt lat="42.11187" lon="-0.44915">
        <time>2022-07-31T14:25:12Z</time>
      </trkpt>
      <trkpt lat="42.11164" lon="-0.44948">
        <time>2022-07-31T14:25:13Z</time>
      </trkpt>
      <trkpt lat="42.11142" lon="-0.44981">
        <time>2022-07-31T14:25:14Z</time>
      </trkpt>
      <trkpt lat="42.1112" lon="-0.45014">
        <time>2022-07-31T14:25:15Z</time>
      </trkpt>
      <trkpt lat="42.11097" lon="-0.45046">
        <time>2022-07-31T14:25:16Z</time>
      </trkpt>
      <trkpt lat="42.11075" lon="-0.45078">
        <time>2022-07-31T14:25:17Z</time>
      </trkpt>
      <trkpt lat="42.11052" lon="-0.45111">
        <time>2022-07-31T14:25:18Z</time>
      </trkpt>
      <trkpt lat="42.11029" lon="-0.45144">
        <time>2022-07-31T14:25:19Z</time>
      </trkpt>
      <trkpt lat="42.11005" lon="-0.45178">
        <time>2022-07-31T14:25:20Z</time>
      </trkpt>
      <trkpt lat="42.10982" lon="-0.45212">
        <time>2022-07-31T14:25:21Z</time>
      </trkpt>
      <trkpt lat="42.10958" lon="-0.45247">
        <time>2022-07-31T14:25:22Z</time>
      </trkpt>
      <trkpt lat="42.10934" lon="-0.45281">
        <time>2022-07-31T14:25:23Z</time>
      </trkpt>
      <trkpt lat="42.1091" lon="-0.45316">
        <time>2022-07-31T14:25:24Z</time>
      </trkpt>
      <trkpt lat="42.10887" lon="-0.45351">
        <time>2022-07-31T14:25:25Z</time>
      </trkpt>
      <trkpt lat="42.10863" lon="-0.45386">
        <time>2022-07-31T14:25:26Z</time>
      </trkpt>
      <trkpt lat="42.10839" lon="-0.45421">
        <time>2022-07-31T14:25:27Z</time>
      </trkpt>
      <trkpt lat="42.10815" lon="-0.45455">
        <time>2022-07-31T14:25:28Z</time>
      </trkpt>
      <trkpt lat="42.10791" lon="-0.4549">
        <time>2022-07-31T14:25:29Z</time>
      </trkpt>
      <trkpt lat="42.10768" lon="-0.45524">
        <time>2022-07-31T14:25:30Z</time>
      </trkpt>
      <trkpt lat="42.10744" lon="-0.45558">
        <time>2022-07-31T14:25:31Z</time>
      </trkpt>
      <trkpt lat="42.10719" lon="-0.45591">
        <time>2022-07-31T14:25:32Z</time>
      </trkpt>
      <trkpt lat="42.10695" lon="-0.45625">
        <time>2022-07-31T14:25:33Z</time>
      </trkpt>
      <trkpt lat="42.10671" lon="-0.45658">
        <time>2022-07-31T14:25:34Z</time>
      </trkpt>
      <trkpt lat="42.10646" lon="-0.45691">
        <time>2022-07-31T14:25:35Z</time>
      </trkpt>
      <trkpt lat="42.10621" lon="-0.45723">
        <time>2022-07-31T14:25:36Z</time>
      </trkpt>
      <trkpt lat="42.10597" lon="-0.45756">
        <time>2022-07-31T14:25:37Z</time>
      </trkpt>
      <trkpt lat="42.10571" lon="-0.45788">
        <time>2022-07-31T14:25:38Z</time>
      </trkpt>
      <trkpt lat="42.10546" lon="-0.45821">
        <time>2022-07-31T14:25:39Z</time>
      </trkpt>
      <trkpt lat="42.1052" lon="-0.45854">
        <time>2022-07-31T14:25:40Z</time>
      </trkpt>
      <trkpt lat="42.10496" lon="-0.45888">
        <time>2022-07-31T14:25:41Z</time>
      </trkpt>
      <trkpt lat="42.10471" lon="-0.45921">
        <time>2022-07-31T14:25:42Z</time>
      </trkpt>
      <trkpt lat="42.10446" lon="-0.45955">
        <time>2022-07-31T14:25:43Z</time>
      </trkpt>
      <trkpt lat="42.10421" lon="-0.45989">
        <time>2022-07-31T14:25:44Z</time>
      </trkpt>
      <trkpt lat="42.10396" lon="-0.46024">
        <time>2022-07-31T14:25:45Z</time>
      </trkpt>
      <trkpt lat="42.10372" lon="-0.46058">
        <time>2022-07-31T14:25:46Z</time>
      </trkpt>
      <trkpt lat="42.10347" lon="-0.46092">
        <time>2022-07-31T14:25:47Z</time>
      </trkpt>
      <trkpt lat="42.10323" lon="-0.46126">
        <time>2022-07-31T14:25:48Z</time>
      </trkpt>
      <trkpt lat="42.10299" lon="-0.46161">
        <time>2022-07-31T14:25:49Z</time>
      </trkpt>
      <trkpt lat="42.10275" lon="-0.46196">
        <time>2022-07-31T14:25:50Z</time>
      </trkpt>
      <trkpt lat="42.10251" lon="-0.46231">
        <time>2022-07-31T14:25:51Z</time>
      </trkpt>
      <trkpt lat="42.10227" lon="-0.46266">
        <time>2022-07-31T14:25:52Z</time>
      </trkpt>
      <trkpt lat="42.10202" lon="-0.46302">
        <time>2022-07-31T14:25:53Z</time>
      </trkpt>
      <trkpt lat="42.10178" lon="-0.46337">
        <time>2022-07-31T14:25:54Z</time>
      </trkpt>
      <trkpt lat="42.10154" lon="-0.46373">
        <time>2022-07-31T14:25:55Z</time>
      </trkpt>
      <trkpt lat="42.10128" lon="-0.46409">
        <time>2022-07-31T14:25:56Z</time>
      </trkpt>
      <trkpt lat="42.10103" lon="-0.46446">
        <time>2022-07-31T14:25:57Z</time>
      </trkpt>
      <trkpt lat="42.10079" lon="-0.46482">
        <time>2022-07-31T14:25:58Z</time>
      </trkpt>
      <trkpt lat="42.10054" lon="-0.46519">
        <time>2022-07-31T14:25:59Z</time>
      </trkpt>
      <trkpt lat="42.10029" lon="-0.46555">
        <time>2022-07-31T14:26:00Z</time>
      </trkpt>
      <trkpt lat="42.10004" lon="-0.4659">
        <time>2022-07-31T14:26:01Z</time>
      </trkpt>
      <trkpt lat="42.0998" lon="-0.46626">
        <time>2022-07-31T14:26:02Z</time>
      </trkpt>
      <trkpt lat="42.09956" lon="-0.46661">
        <time>2022-07-31T14:26:03Z</time>
      </trkpt>
      <trkpt lat="42.09932" lon="-0.46697">
        <time>2022-07-31T14:26:04Z</time>
      </trkpt>
      <trkpt lat="42.09908" lon="-0.46734">
        <time>2022-07-31T14:26:05Z</time>
      </trkpt>
      <trkpt lat="42.09885" lon="-0.46772">
        <time>2022-07-31T14:26:06Z</time>
      </trkpt>
      <trkpt lat="42.09864" lon="-0.46811">
        <time>2022-07-31T14:26:07Z</time>
      </trkpt>
      <trkpt lat="42.09843" lon="-0.46852">
        <time>2022-07-31T14:26:08Z</time>
      </trkpt>
      <trkpt lat="42.09824" lon="-0.46894">
        <time>2022-07-31T14:26:09Z</time>
      </trkpt>
      <trkpt lat="42.09805" lon="-0.46936">
        <time>2022-07-31T14:26:10Z</time>
      </trkpt>
      <trkpt lat="42.09788" lon="-0.46978">
        <time>2022-07-31T14:26:11Z</time>
      </trkpt>
      <trkpt lat="42.09771" lon="-0.47021">
        <time>2022-07-31T14:26:12Z</time>
      </trkpt>
      <trkpt lat="42.09753" lon="-0.47064">
        <time>2022-07-31T14:26:13Z</time>
      </trkpt>
      <trkpt lat="42.09737" lon="-0.47105">
        <time>2022-07-31T14:26:14Z</time>
      </trkpt>
      <trkpt lat="42.0972" lon="-0.47145">
        <time>2022-07-31T14:26:15Z</time>
      </trkpt>
      <trkpt lat="42.09703" lon="-0.47183">
        <time>2022-07-31T14:26:16Z</time>
      </trkpt>
      <trkpt lat="42.09686" lon="-0.4722">
        <time>2022-07-31T14:26:17Z</time>
      </trkpt>
      <trkpt lat="42.09668" lon="-0.47256">
        <time>2022-07-31T14:26:18Z</time>
      </trkpt>
      <trkpt lat="42.09649" lon="-0.47292">
        <time>2022-07-31T14:26:19Z</time>
      </trkpt>
      <trkpt lat="42.09629" lon="-0.47327">
        <time>2022-07-31T14:26:20Z</time>
      </trkpt>
      <trkpt lat="42.09607" lon="-0.47361">
        <time>2022-07-31T14:26:21Z</time>
      </trkpt>
      <trkpt lat="42.09585" lon="-0.47394">
        <time>2022-07-31T14:26:22Z</time>
      </trkpt>
      <trkpt lat="42.09562" lon="-0.47426">
        <time>2022-07-31T14:26:23Z</time>
      </trkpt>
      <trkpt lat="42.09537" lon="-0.47458">
        <time>2022-07-31T14:26:24Z</time>
      </trkpt>
      <trkpt lat="42.09512" lon="-0.47489">
        <time>2022-07-31T14:26:25Z</time>
      </trkpt>
      <trkpt lat="42.09485" lon="-0.47518">
        <time>2022-07-31T14:26:26Z</time>
      </trkpt>
      <trkpt lat="42.09458" lon="-0.47547">
        <time>2022-07-31T14:26:27Z</time>
      </trkpt>
      <trkpt lat="42.09431" lon="-0.47574">
        <time>2022-07-31T14:26:28Z</time>
      </trkpt>
      <trkpt lat="42.09403" lon="-0.476">
        <time>2022-07-31T14:26:29Z</time>
      </trkpt>
      <trkpt lat="42.09374" lon="-0.47627">
        <time>2022-07-31T14:26:30Z</time>
      </trkpt>
      <trkpt lat="42.09346" lon="-0.47655">
        <time>2022-07-31T14:26:31Z</time>
      </trkpt>
      <trkpt lat="42.09317" lon="-0.47682">
        <time>2022-07-31T14:26:32Z</time>
      </trkpt>
      <trkpt lat="42.09289" lon="-0.47708">
        <time>2022-07-31T14:26:33Z</time>
      </trkpt>
      <trkpt lat="42.09261" lon="-0.47735">
        <time>2022-07-31T14:26:34Z</time>
      </trkpt>
      <trkpt lat="42.09233" lon="-0.47761">
        <time>2022-07-31T14:26:35Z</time>
      </trkpt>
      <trkpt lat="42.09204" lon="-0.47788">
        <time>2022-07-31T14:26:36Z</time>
      </trkpt>
      <trkpt lat="42.09176" lon="-0.47815">
        <time>2022-07-31T14:26:37Z</time>
      </trkpt>
      <trkpt lat="42.09147" lon="-0.47842">
        <time>2022-07-31T14:26:38Z</time>
      </trkpt>
      <trkpt lat="42.09118" lon="-0.4787">
        <time>2022-07-31T14:26:39Z</time>
      </trkpt>
      <trkpt lat="42.09088" lon="-0.47898">
        <time>2022-07-31T14:26:40Z</time>
      </trkpt>
      <trkpt lat="42.09059" lon="-0.47926">
        <time>2022-07-31T14:26:41Z</time>
      </trkpt>
      <trkpt lat="42.09029" lon="-0.47955">
        <time>2022-07-31T14:26:42Z</time>
      </trkpt>
      <trkpt lat="42.08999" lon="-0.47983">
        <time>2022-07-31T14:26:43Z</time>
      </trkpt>
      <trkpt lat="42.08969" lon="-0.48013">
        <time>2022-07-31T14:26:44Z</time>
      </trkpt>
      <trkpt lat="42.0894" lon="-0.48043">
        <time>2022-07-31T14:26:45Z</time>
      </trkpt>
      <trkpt lat="42.0891" lon="-0.48073">
        <time>2022-07-31T14:26:46Z</time>
      </trkpt>
      <trkpt lat="42.08879" lon="-0.48103">
        <time>2022-07-31T14:26:47Z</time>
      </trkpt>
      <trkpt lat="42.08849" lon="-0.48134">
        <time>2022-07-31T14:26:48Z</time>
      </trkpt>
      <trkpt lat="42.08818" lon="-0.48164">
        <time>2022-07-31T14:26:49Z</time>
      </trkpt>
      <trkpt lat="42.08788" lon="-0.48196">
        <time>2022-07-31T14:26:50Z</time>
      </trkpt>
      <trkpt lat="42.08757" lon="-0.48228">
        <time>2022-07-31T14:26:51Z</time>
      </trkpt>
      <trkpt lat="42.08727" lon="-0.48259">
        <time>2022-07-31T14:26:52Z</time>
      </trkpt>
      <trkpt lat="42.08698" lon="-0.48291">
        <time>2022-07-31T14:26:53Z</time>
      </trkpt>
      <trkpt lat="42.0867" lon="-0.48321">
        <time>2022-07-31T14:26:54Z</time>
      </trkpt>
      <trkpt lat="42.08642" lon="-0.48352">
        <time>2022-07-31T14:26:55Z</time>
      </trkpt>
      <trkpt lat="42.08615" lon="-0.48382">
        <time>2022-07-31T14:26:56Z</time>
      </trkpt>
      <trkpt lat="42.08587" lon="-0.48413">
        <time>2022-07-31T14:26:57Z</time>
      </trkpt>
      <trkpt lat="42.08559" lon="-0.48444">
        <time>2022-07-31T14:26:58Z</time>
      </trkpt>
      <trkpt lat="42.08531" lon="-0.48476">
        <time>2022-07-31T14:26:59Z</time>
      </trkpt>
      <trkpt lat="42.08502" lon="-0.48509">
        <time>2022-07-31T14:27:00Z</time>
      </trkpt>
      <trkpt lat="42.08474" lon="-0.48542">
        <time>2022-07-31T14:27:01Z</time>
      </trkpt>
      <trkpt lat="42.08446" lon="-0.48575">
        <time>2022-07-31T14:27:02Z</time>
      </trkpt>
      <trkpt lat="42.08418" lon="-0.48608">
        <time>2022-07-31T14:27:03Z</time>
      </trkpt>
      <trkpt lat="42.08389" lon="-0.48643">
        <time>2022-07-31T14:27:04Z</time>
      </trkpt>
      <trkpt lat="42.08361" lon="-0.48676">
        <time>2022-07-31T14:27:05Z</time>
      </trkpt>
      <trkpt lat="42.08334" lon="-0.4871">
        <time>2022-07-31T14:27:06Z</time>
      </trkpt>
      <trkpt lat="42.08307" lon="-0.48744">
        <time>2022-07-31T14:27:07Z</time>
      </trkpt>
      <trkpt lat="42.0828" lon="-0.48777">
        <time>2022-07-31T14:27:08Z</time>
      </trkpt>
      <trkpt lat="42.08253" lon="-0.48811">
        <time>2022-07-31T14:27:09Z</time>
      </trkpt>
      <trkpt lat="42.08227" lon="-0.48845">
        <time>2022-07-31T14:27:10Z</time>
      </trkpt>
      <trkpt lat="42.082" lon="-0.48879">
        <time>2022-07-31T14:27:11Z</time>
      </trkpt>
      <trkpt lat="42.08174" lon="-0.48913">
        <time>2022-07-31T14:27:12Z</time>
      </trkpt>
      <trkpt lat="42.08149" lon="-0.48947">
        <time>2022-07-31T14:27:13Z</time>
      </trkpt>
      <trkpt lat="42.08123" lon="-0.4898">
        <time>2022-07-31T14:27:14Z</time>
      </trkpt>
      <trkpt lat="42.08098" lon="-0.49014">
        <time>2022-07-31T14:27:15Z</time>
      </trkpt>
      <trkpt lat="42.08074" lon="-0.49046">
        <time>2022-07-31T14:27:16Z</time>
      </trkpt>
      <trkpt lat="42.0805" lon="-0.4908">
        <time>2022-07-31T14:27:17Z</time>
      </trkpt>
      <trkpt lat="42.08026" lon="-0.49113">
        <time>2022-07-31T14:27:18Z</time>
      </trkpt>
      <trkpt lat="42.08002" lon="-0.49146">
        <time>2022-07-31T14:27:19Z</time>
      </trkpt>
      <trkpt lat="42.07978" lon="-0.49179">
        <time>2022-07-31T14:27:20Z</time>
      </trkpt>
      <trkpt lat="42.07954" lon="-0.49213">
        <time>2022-07-31T14:27:21Z</time>
      </trkpt>
      <trkpt lat="42.07931" lon="-0.49246">
        <time>2022-07-31T14:27:22Z</time>
      </trkpt>
      <trkpt lat="42.07907" lon="-0.4928">
        <time>2022-07-31T14:27:23Z</time>
      </trkpt>
      <trkpt lat="42.07884" lon="-0.49314">
        <time>2022-07-31T14:27:24Z</time>
      </trkpt>
      <trkpt lat="42.07861" lon="-0.49348">
        <time>2022-07-31T14:27:25Z</time>
      </trkpt>
      <trkpt lat="42.07838" lon="-0.49382">
        <time>2022-07-31T14:27:26Z</time>
      </trkpt>
      <trkpt lat="42.07816" lon="-0.49416">
        <time>2022-07-31T14:27:27Z</time>
      </trkpt>
      <trkpt lat="42.07793" lon="-0.49451">
        <time>2022-07-31T14:27:28Z</time>
      </trkpt>
      <trkpt lat="42.0777" lon="-0.49486">
        <time>2022-07-31T14:27:29Z</time>
      </trkpt>
      <trkpt lat="42.07747" lon="-0.49522">
        <time>2022-07-31T14:27:30Z</time>
      </trkpt>
      <trkpt lat="42.07723" lon="-0.49559">
        <time>2022-07-31T14:27:31Z</time>
      </trkpt>
      <trkpt lat="42.07699" lon="-0.49597">
        <time>2022-07-31T14:27:32Z</time>
      </trkpt>
      <trkpt lat="42.07675" lon="-0.49635">
        <time>2022-07-31T14:27:33Z</time>
      </trkpt>
      <trkpt lat="42.07651" lon="-0.49673">
        <time>2022-07-31T14:27:34Z</time>
      </trkpt>
      <trkpt lat="42.07628" lon="-0.49713">
        <time>2022-07-31T14:27:35Z</time>
      </trkpt>
      <trkpt lat="42.07605" lon="-0.49753">
        <time>2022-07-31T14:27:36Z</time>
      </trkpt>
      <trkpt lat="42.07582" lon="-0.49792">
        <time>2022-07-31T14:27:37Z</time>
      </trkpt>
      <trkpt lat="42.07559" lon="-0.49832">
        <time>2022-07-31T14:27:38Z</time>
      </trkpt>
      <trkpt lat="42.07536" lon="-0.49871">
        <time>2022-07-31T14:27:39Z</time>
      </trkpt>
      <trkpt lat="42.07513" lon="-0.4991">
        <time>2022-07-31T14:27:40Z</time>
      </trkpt>
      <trkpt lat="42.07491" lon="-0.49949">
        <time>2022-07-31T14:27:41Z</time>
      </trkpt>
      <trkpt lat="42.07468" lon="-0.49988">
        <time>2022-07-31T14:27:42Z</time>
      </trkpt>
      <trkpt lat="42.07446" lon="-0.50028">
        <time>2022-07-31T14:27:43Z</time>
      </trkpt>
      <trkpt lat="42.07424" lon="-0.50067">
        <time>2022-07-31T14:27:44Z</time>
      </trkpt>
      <trkpt lat="42.07402" lon="-0.50107">
        <time>2022-07-31T14:27:45Z</time>
      </trkpt>
      <trkpt lat="42.0738" lon="-0.50147">
        <time>2022-07-31T14:27:46Z</time>
      </trkpt>
      <trkpt lat="42.07359" lon="-0.50188">
        <time>2022-07-31T14:27:47Z</time>
      </trkpt>
      <trkpt lat="42.07338" lon="-0.50229">
        <time>2022-07-31T14:27:48Z</time>
      </trkpt>
      <trkpt lat="42.07317" lon="-0.50271">
        <time>2022-07-31T14:27:49Z</time>
      </trkpt>
      <trkpt lat="42.07296" lon="-0.50312">
        <time>2022-07-31T14:27:50Z</time>
      </trkpt>
      <trkpt lat="42.07275" lon="-0.50354">
        <time>2022-07-31T14:27:51Z</time>
      </trkpt>
      <trkpt lat="42.07254" lon="-0.50396">
        <time>2022-07-31T14:27:52Z</time>
      </trkpt>
      <trkpt lat="42.07234" lon="-0.50438">
        <time>2022-07-31T14:27:53Z</time>
      </trkpt>
      <trkpt lat="42.07214" lon="-0.50481">
        <time>2022-07-31T14:27:54Z</time>
      </trkpt>
      <trkpt lat="42.07195" lon="-0.50524">
        <time>2022-07-31T14:27:55Z</time>
      </trkpt>
      <trkpt lat="42.07175" lon="-0.50568">
        <time>2022-07-31T14:27:56Z</time>
      </trkpt>
      <trkpt lat="42.07157" lon="-0.50612">
        <time>2022-07-31T14:27:57Z</time>
      </trkpt>
      <trkpt lat="42.07139" lon="-0.50656">
        <time>2022-07-31T14:27:58Z</time>
      </trkpt>
      <trkpt lat="42.07121" lon="-0.50701">
        <time>2022-07-31T14:27:59Z</time>
      </trkpt>
      <trkpt lat="42.07103" lon="-0.50745">
        <time>2022-07-31T14:28:00Z</time>
      </trkpt>
      <trkpt lat="42.07086" lon="-0.5079">
        <time>2022-07-31T14:28:01Z</time>
      </trkpt>
      <trkpt lat="42.07068" lon="-0.50835">
        <time>2022-07-31T14:28:02Z</time>
      </trkpt>
      <trkpt lat="42.07052" lon="-0.50879">
        <time>2022-07-31T14:28:03Z</time>
      </trkpt>
      <trkpt lat="42.07035" lon="-0.50925">
        <time>2022-07-31T14:28:04Z</time>
      </trkpt>
      <trkpt lat="42.07019" lon="-0.50971">
        <time>2022-07-31T14:28:05Z</time>
      </trkpt>
      <trkpt lat="42.07002" lon="-0.51017">
        <time>2022-07-31T14:28:06Z</time>
      </trkpt>
      <trkpt lat="42.06986" lon="-0.51063">
        <time>2022-07-31T14:28:07Z</time>
      </trkpt>
      <trkpt lat="42.0697" lon="-0.5111">
        <time>2022-07-31T14:28:08Z</time>
      </trkpt>
      <trkpt lat="42.06954" lon="-0.51157">
        <time>2022-07-31T14:28:09Z</time>
      </trkpt>
      <trkpt lat="42.06938" lon="-0.51203">
        <time>2022-07-31T14:28:10Z</time>
      </trkpt>
      <trkpt lat="42.06922" lon="-0.51249">
        <time>2022-07-31T14:28:11Z</time>
      </trkpt>
      <trkpt lat="42.06907" lon="-0.51295">
        <time>2022-07-31T14:28:12Z</time>
      </trkpt>
      <trkpt lat="42.06892" lon="-0.51341">
        <time>2022-07-31T14:28:13Z</time>
      </trkpt>
      <trkpt lat="42.06878" lon="-0.51387">
        <time>2022-07-31T14:28:14Z</time>
      </trkpt>
      <trkpt lat="42.06863" lon="-0.51432">
        <time>2022-07-31T14:28:15Z</time>
      </trkpt>
      <trkpt lat="42.06849" lon="-0.51478">
        <time>2022-07-31T14:28:16Z</time>
      </trkpt>
      <trkpt lat="42.06834" lon="-0.51524">
        <time>2022-07-31T14:28:17Z</time>
      </trkpt>
      <trkpt lat="42.06819" lon="-0.5157">
        <time>2022-07-31T14:28:18Z</time>
      </trkpt>
      <trkpt lat="42.06805" lon="-0.51616">
        <time>2022-07-31T14:28:19Z</time>
      </trkpt>
      <trkpt lat="42.0679" lon="-0.51661">
        <time>2022-07-31T14:28:20Z</time>
      </trkpt>
      <trkpt lat="42.06775" lon="-0.51707">
        <time>2022-07-31T14:28:21Z</time>
      </trkpt>
      <trkpt lat="42.06761" lon="-0.51753">
        <time>2022-07-31T14:28:22Z</time>
      </trkpt>
      <trkpt lat="42.06746" lon="-0.51799">
        <time>2022-07-31T14:28:23Z</time>
      </trkpt>
      <trkpt lat="42.06731" lon="-0.51845">
        <time>2022-07-31T14:28:24Z</time>
      </trkpt>
      <trkpt lat="42.06715" lon="-0.5189">
        <time>2022-07-31T14:28:25Z</time>
      </trkpt>
      <trkpt lat="42.06699" lon="-0.51936">
        <time>2022-07-31T14:28:26Z</time>
      </trkpt>
      <trkpt lat="42.06683" lon="-0.51981">
        <time>2022-07-31T14:28:27Z</time>
      </trkpt>
      <trkpt lat="42.06666" lon="-0.52026">
        <time>2022-07-31T14:28:28Z</time>
      </trkpt>
      <trkpt lat="42.0665" lon="-0.5207">
        <time>2022-07-31T14:28:29Z</time>
      </trkpt>
      <trkpt lat="42.06632" lon="-0.52114">
        <time>2022-07-31T14:28:30Z</time>
      </trkpt>
      <trkpt lat="42.06615" lon="-0.52157">
        <time>2022-07-31T14:28:31Z</time>
      </trkpt>
      <trkpt lat="42.06598" lon="-0.52198">
        <time>2022-07-31T14:28:32Z</time>
      </trkpt>
      <trkpt lat="42.0658" lon="-0.52238">
        <time>2022-07-31T14:28:33Z</time>
      </trkpt>
      <trkpt lat="42.06562" lon="-0.52277">
        <time>2022-07-31T14:28:34Z</time>
      </trkpt>
      <trkpt lat="42.06545" lon="-0.52316">
        <time>2022-07-31T14:28:35Z</time>
      </trkpt>
      <trkpt lat="42.06527" lon="-0.52353">
        <time>2022-07-31T14:28:36Z</time>
      </trkpt>
      <trkpt lat="42.0651" lon="-0.52389">
        <time>2022-07-31T14:28:37Z</time>
      </trkpt>
      <trkpt lat="42.06493" lon="-0.52424">
        <time>2022-07-31T14:28:38Z</time>
      </trkpt>
      <trkpt lat="42.06475" lon="-0.5246">
        <time>2022-07-31T14:28:39Z</time>
      </trkpt>
      <trkpt lat="42.06456" lon="-0.52495">
        <time>2022-07-31T14:28:40Z</time>
      </trkpt>
      <trkpt lat="42.06437" lon="-0.5253">
        <time>2022-07-31T14:28:41Z</time>
      </trkpt>
      <trkpt lat="42.06418" lon="-0.52565">
        <time>2022-07-31T14:28:42Z</time>
      </trkpt>
      <trkpt lat="42.06398" lon="-0.526">
        <time>2022-07-31T14:28:43Z</time>
      </trkpt>
      <trkpt lat="42.06378" lon="-0.52634">
        <time>2022-07-31T14:28:44Z</time>
      </trkpt>
      <trkpt lat="42.06357" lon="-0.52669">
        <time>2022-07-31T14:28:45Z</time>
      </trkpt>
      <trkpt lat="42.06335" lon="-0.52704">
        <time>2022-07-31T14:28:46Z</time>
      </trkpt>
      <trkpt lat="42.06314" lon="-0.52738">
        <time>2022-07-31T14:28:47Z</time>
      </trkpt>
      <trkpt lat="42.06293" lon="-0.52772">
        <time>2022-07-31T14:28:48Z</time>
      </trkpt>
      <trkpt lat="42.06271" lon="-0.52804">
        <time>2022-07-31T14:28:49Z</time>
      </trkpt>
      <trkpt lat="42.06251" lon="-0.52837">
        <time>2022-07-31T14:28:50Z</time>
      </trkpt>
      <trkpt lat="42.0623" lon="-0.52868">
        <time>2022-07-31T14:28:51Z</time>
      </trkpt>
      <trkpt lat="42.06209" lon="-0.52899">
        <time>2022-07-31T14:28:52Z</time>
      </trkpt>
      <trkpt lat="42.06188" lon="-0.5293">
        <time>2022-07-31T14:28:53Z</time>
      </trkpt>
      <trkpt lat="42.06167" lon="-0.52961">
        <time>2022-07-31T14:28:54Z</time>
      </trkpt>
      <trkpt lat="42.06146" lon="-0.52993">
        <time>2022-07-31T14:28:55Z</time>
      </trkpt>
      <trkpt lat="42.06125" lon="-0.53025">
        <time>2022-07-31T14:28:56Z</time>
      </trkpt>
      <trkpt lat="42.06104" lon="-0.53057">
        <time>2022-07-31T14:28:57Z</time>
      </trkpt>
      <trkpt lat="42.06082" lon="-0.5309">
        <time>2022-07-31T14:28:58Z</time>
      </trkpt>
      <trkpt lat="42.06061" lon="-0.53123">
        <time>2022-07-31T14:28:59Z</time>
      </trkpt>
      <trkpt lat="42.06041" lon="-0.53157">
        <time>2022-07-31T14:29:00Z</time>
      </trkpt>
      <trkpt lat="42.0602" lon="-0.53194">
        <time>2022-07-31T14:29:01Z</time>
      </trkpt>
      <trkpt lat="42.05999" lon="-0.53233">
        <time>2022-07-31T14:29:02Z</time>
      </trkpt>
      <trkpt lat="42.05978" lon="-0.53274">
        <time>2022-07-31T14:29:03Z</time>
      </trkpt>
      <trkpt lat="42.05958" lon="-0.53316">
        <time>2022-07-31T14:29:04Z</time>
      </trkpt>
      <trkpt lat="42.0594" lon="-0.53359">
        <time>2022-07-31T14:29:05Z</time>
      </trkpt>
      <trkpt lat="42.05922" lon="-0.53404">
        <time>2022-07-31T14:29:06Z</time>
      </trkpt>
      <trkpt lat="42.05905" lon="-0.5345">
        <time>2022-07-31T14:29:07Z</time>
      </trkpt>
      <trkpt lat="42.05888" lon="-0.53496">
        <time>2022-07-31T14:29:08Z</time>
      </trkpt>
      <trkpt lat="42.05872" lon="-0.53542">
        <time>2022-07-31T14:29:09Z</time>
      </trkpt>
      <trkpt lat="42.05857" lon="-0.53589">
        <time>2022-07-31T14:29:10Z</time>
      </trkpt>
      <trkpt lat="42.05842" lon="-0.53636">
        <time>2022-07-31T14:29:11Z</time>
      </trkpt>
      <trkpt lat="42.05828" lon="-0.53683">
        <time>2022-07-31T14:29:12Z</time>
      </trkpt>
      <trkpt lat="42.05812" lon="-0.5373">
        <time>2022-07-31T14:29:13Z</time>
      </trkpt>
      <trkpt lat="42.05797" lon="-0.53777">
        <time>2022-07-31T14:29:14Z</time>
      </trkpt>
      <trkpt lat="42.05782" lon="-0.53824">
        <time>2022-07-31T14:29:15Z</time>
      </trkpt>
      <trkpt lat="42.05766" lon="-0.5387">
        <time>2022-07-31T14:29:16Z</time>
      </trkpt>
      <trkpt lat="42.05751" lon="-0.53917">
        <time>2022-07-31T14:29:17Z</time>
      </trkpt>
      <trkpt lat="42.05735" lon="-0.53962">
        <time>2022-07-31T14:29:18Z</time>
      </trkpt>
      <trkpt lat="42.05719" lon="-0.54007">
        <time>2022-07-31T14:29:19Z</time>
      </trkpt>
      <trkpt lat="42.05702" lon="-0.54051">
        <time>2022-07-31T14:29:20Z</time>
      </trkpt>
      <trkpt lat="42.05684" lon="-0.54095">
        <time>2022-07-31T14:29:21Z</time>
      </trkpt>
      <trkpt lat="42.05666" lon="-0.54137">
        <time>2022-07-31T14:29:22Z</time>
      </trkpt>
      <trkpt lat="42.05647" lon="-0.54179">
        <time>2022-07-31T14:29:23Z</time>
      </trkpt>
      <trkpt lat="42.05628" lon="-0.54219">
        <time>2022-07-31T14:29:24Z</time>
      </trkpt>
      <trkpt lat="42.05609" lon="-0.5426">
        <time>2022-07-31T14:29:25Z</time>
      </trkpt>
      <trkpt lat="42.05588" lon="-0.54301">
        <time>2022-07-31T14:29:26Z</time>
      </trkpt>
      <trkpt lat="42.05568" lon="-0.54341">
        <time>2022-07-31T14:29:27Z</time>
      </trkpt>
      <trkpt lat="42.05547" lon="-0.54382">
        <time>2022-07-31T14:29:28Z</time>
      </trkpt>
      <trkpt lat="42.05525" lon="-0.54423">
        <time>2022-07-31T14:29:29Z</time>
      </trkpt>
      <trkpt lat="42.05504" lon="-0.54464">
        <time>2022-07-31T14:29:30Z</time>
      </trkpt>
      <trkpt lat="42.05482" lon="-0.54505">
        <time>2022-07-31T14:29:31Z</time>
      </trkpt>
      <trkpt lat="42.05461" lon="-0.54547">
        <time>2022-07-31T14:29:32Z</time>
      </trkpt>
      <trkpt lat="42.05439" lon="-0.54588">
        <time>2022-07-31T14:29:33Z</time>
      </trkpt>
      <trkpt lat="42.05417" lon="-0.54629">
        <time>2022-07-31T14:29:34Z</time>
      </trkpt>
      <trkpt lat="42.05395" lon="-0.5467">
        <time>2022-07-31T14:29:35Z</time>
      </trkpt>
      <trkpt lat="42.05373" lon="-0.54711">
        <time>2022-07-31T14:29:36Z</time>
      </trkpt>
      <trkpt lat="42.0535" lon="-0.54751">
        <time>2022-07-31T14:29:37Z</time>
      </trkpt>
      <trkpt lat="42.05328" lon="-0.54792">
        <time>2022-07-31T14:29:38Z</time>
      </trkpt>
      <trkpt lat="42.05305" lon="-0.54832">
        <time>2022-07-31T14:29:39Z</time>
      </trkpt>
      <trkpt lat="42.05282" lon="-0.54872">
        <time>2022-07-31T14:29:40Z</time>
      </trkpt>
      <trkpt lat="42.0526" lon="-0.54913">
        <time>2022-07-31T14:29:41Z</time>
      </trkpt>
      <trkpt lat="42.05238" lon="-0.54954">
        <time>2022-07-31T14:29:42Z</time>
      </trkpt>
      <trkpt lat="42.05216" lon="-0.54994">
        <time>2022-07-31T14:29:43Z</time>
      </trkpt>
      <trkpt lat="42.05195" lon="-0.55035">
        <time>2022-07-31T14:29:44Z</time>
      </trkpt>
      <trkpt lat="42.05173" lon="-0.55075">
        <time>2022-07-31T14:29:45Z</time>
      </trkpt>
      <trkpt lat="42.05151" lon="-0.55116">
        <time>2022-07-31T14:29:46Z</time>
      </trkpt>
      <trkpt lat="42.0513" lon="-0.55155">
        <time>2022-07-31T14:29:47Z</time>
      </trkpt>
      <trkpt lat="42.05108" lon="-0.55195">
        <time>2022-07-31T14:29:48Z</time>
      </trkpt>
      <trkpt lat="42.05087" lon="-0.55234">
        <time>2022-07-31T14:29:49Z</time>
      </trkpt>
      <trkpt lat="42.05066" lon="-0.55273">
        <time>2022-07-31T14:29:50Z</time>
      </trkpt>
      <trkpt lat="42.05044" lon="-0.55313">
        <time>2022-07-31T14:29:51Z</time>
      </trkpt>
      <trkpt lat="42.05023" lon="-0.55352">
        <time>2022-07-31T14:29:52Z</time>
      </trkpt>
      <trkpt lat="42.05001" lon="-0.55392">
        <time>2022-07-31T14:29:53Z</time>
      </trkpt>
      <trkpt lat="42.0498" lon="-0.55431">
        <time>2022-07-31T14:29:54Z</time>
      </trkpt>
      <trkpt lat="42.04959" lon="-0.55471">
        <time>2022-07-31T14:29:55Z</time>
      </trkpt>
      <trkpt lat="42.04937" lon="-0.55511">
        <time>2022-07-31T14:29:56Z</time>
      </trkpt>
      <trkpt lat="42.04916" lon="-0.55551">
        <time>2022-07-31T14:29:57Z</time>
      </trkpt>
      <trkpt lat="42.04894" lon="-0.55591">
        <time>2022-07-31T14:29:58Z</time>
      </trkpt>
      <trkpt lat="42.04873" lon="-0.55631">
        <time>2022-07-31T14:29:59Z</time>
      </trkpt>
      <trkpt lat="42.04851" lon="-0.55671">
        <time>2022-07-31T14:30:00Z</time>
      </trkpt>
      <trkpt lat="42.0483" lon="-0.5571">
        <time>2022-07-31T14:30:01Z</time>
      </trkpt>
      <trkpt lat="42.04808" lon="-0.5575">
        <time>2022-07-31T14:30:02Z</time>
      </trkpt>
      <trkpt lat="42.04787" lon="-0.55789">
        <time>2022-07-31T14:30:03Z</time>
      </trkpt>
      <trkpt lat="42.04766" lon="-0.55829">
        <time>2022-07-31T14:30:04Z</time>
      </trkpt>
      <trkpt lat="42.04744" lon="-0.55869">
        <time>2022-07-31T14:30:05Z</time>
      </trkpt>
      <trkpt lat="42.04723" lon="-0.55909">
        <time>2022-07-31T14:30:06Z</time>
      </trkpt>
      <trkpt lat="42.04703" lon="-0.55949">
        <time>2022-07-31T14:30:07Z</time>
      </trkpt>
      <trkpt lat="42.04682" lon="-0.5599">
        <time>2022-07-31T14:30:08Z</time>
      </trkpt>
      <trkpt lat="42.04661" lon="-0.5603">
        <time>2022-07-31T14:30:09Z</time>
      </trkpt>
      <trkpt lat="42.0464" lon="-0.56069">
        <time>2022-07-31T14:30:10Z</time>
      </trkpt>
      <trkpt lat="42.04618" lon="-0.56109">
        <time>2022-07-31T14:30:11Z</time>
      </trkpt>
      <trkpt lat="42.04595" lon="-0.56147">
        <time>2022-07-31T14:30:12Z</time>
      </trkpt>
      <trkpt lat="42.04572" lon="-0.56186">
        <time>2022-07-31T14:30:13Z</time>
      </trkpt>
      <trkpt lat="42.04548" lon="-0.56224">
        <time>2022-07-31T14:30:14Z</time>
      </trkpt>
      <trkpt lat="42.04524" lon="-0.56263">
        <time>2022-07-31T14:30:15Z</time>
      </trkpt>
      <trkpt lat="42.045" lon="-0.56301">
        <time>2022-07-31T14:30:16Z</time>
      </trkpt>
      <trkpt lat="42.04476" lon="-0.56339">
        <time>2022-07-31T14:30:17Z</time>
      </trkpt>
      <trkpt lat="42.04452" lon="-0.56377">
        <time>2022-07-31T14:30:18Z</time>
      </trkpt>
      <trkpt lat="42.04427" lon="-0.56415">
        <time>2022-07-31T14:30:19Z</time>
      </trkpt>
      <trkpt lat="42.04402" lon="-0.56452">
        <time>2022-07-31T14:30:20Z</time>
      </trkpt>
      <trkpt lat="42.04376" lon="-0.56488">
        <time>2022-07-31T14:30:21Z</time>
      </trkpt>
      <trkpt lat="42.04349" lon="-0.56523">
        <time>2022-07-31T14:30:22Z</time>
      </trkpt>
      <trkpt lat="42.04322" lon="-0.56558">
        <time>2022-07-31T14:30:23Z</time>
      </trkpt>
      <trkpt lat="42.04295" lon="-0.56593">
        <time>2022-07-31T14:30:24Z</time>
      </trkpt>
      <trkpt lat="42.04267" lon="-0.56627">
        <time>2022-07-31T14:30:25Z</time>
      </trkpt>
      <trkpt lat="42.04239" lon="-0.56661">
        <time>2022-07-31T14:30:26Z</time>
      </trkpt>
      <trkpt lat="42.04211" lon="-0.56694">
        <time>2022-07-31T14:30:27Z</time>
      </trkpt>
      <trkpt lat="42.04182" lon="-0.56727">
        <time>2022-07-31T14:30:28Z</time>
      </trkpt>
      <trkpt lat="42.04153" lon="-0.5676">
        <time>2022-07-31T14:30:29Z</time>
      </trkpt>
      <trkpt lat="42.04123" lon="-0.56791">
        <time>2022-07-31T14:30:30Z</time>
      </trkpt>
      <trkpt lat="42.04093" lon="-0.56822">
        <time>2022-07-31T14:30:31Z</time>
      </trkpt>
      <trkpt lat="42.04062" lon="-0.56853">
        <time>2022-07-31T14:30:32Z</time>
      </trkpt>
      <trkpt lat="42.04031" lon="-0.56882">
        <time>2022-07-31T14:30:33Z</time>
      </trkpt>
      <trkpt lat="42.03999" lon="-0.56911">
        <time>2022-07-31T14:30:34Z</time>
      </trkpt>
      <trkpt lat="42.03968" lon="-0.5694">
        <time>2022-07-31T14:30:35Z</time>
      </trkpt>
      <trkpt lat="42.03936" lon="-0.56968">
        <time>2022-07-31T14:30:36Z</time>
      </trkpt>
      <trkpt lat="42.03904" lon="-0.56996">
        <time>2022-07-31T14:30:37Z</time>
      </trkpt>
      <trkpt lat="42.03872" lon="-0.57023">
        <time>2022-07-31T14:30:38Z</time>
      </trkpt>
      <trkpt lat="42.0384" lon="-0.5705">
        <time>2022-07-31T14:30:39Z</time>
      </trkpt>
      <trkpt lat="42.03808" lon="-0.57078">
        <time>2022-07-31T14:30:40Z</time>
      </trkpt>
      <trkpt lat="42.03777" lon="-0.57106">
        <time>2022-07-31T14:30:41Z</time>
      </trkpt>
      <trkpt lat="42.03745" lon="-0.57133">
        <time>2022-07-31T14:30:42Z</time>
      </trkpt>
      <trkpt lat="42.03713" lon="-0.5716">
        <time>2022-07-31T14:30:43Z</time>
      </trkpt>
      <trkpt lat="42.03682" lon="-0.57188">
        <time>2022-07-31T14:30:44Z</time>
      </trkpt>
      <trkpt lat="42.03651" lon="-0.57217">
        <time>2022-07-31T14:30:45Z</time>
      </trkpt>
      <trkpt lat="42.03621" lon="-0.57247">
        <time>2022-07-31T14:30:46Z</time>
      </trkpt>
      <trkpt lat="42.03593" lon="-0.57278">
        <time>2022-07-31T14:30:47Z</time>
      </trkpt>
      <trkpt lat="42.03564" lon="-0.57311">
        <time>2022-07-31T14:30:48Z</time>
      </trkpt>
      <trkpt lat="42.03537" lon="-0.57344">
        <time>2022-07-31T14:30:49Z</time>
      </trkpt>
      <trkpt lat="42.03511" lon="-0.57379">
        <time>2022-07-31T14:30:50Z</time>
      </trkpt>
      <trkpt lat="42.03485" lon="-0.57415">
        <time>2022-07-31T14:30:51Z</time>
      </trkpt>
      <trkpt lat="42.03461" lon="-0.57453">
        <time>2022-07-31T14:30:52Z</time>
      </trkpt>
      <trkpt lat="42.03438" lon="-0.57493">
        <time>2022-07-31T14:30:53Z</time>
      </trkpt>
      <trkpt lat="42.03416" lon="-0.57534">
        <time>2022-07-31T14:30:54Z</time>
      </trkpt>
      <trkpt lat="42.03395" lon="-0.57575">
        <time>2022-07-31T14:30:55Z</time>
      </trkpt>
      <trkpt lat="42.03376" lon="-0.57619">
        <time>2022-07-31T14:30:56Z</time>
      </trkpt>
      <trkpt lat="42.03358" lon="-0.57663">
        <time>2022-07-31T14:30:57Z</time>
      </trkpt>
      <trkpt lat="42.03342" lon="-0.57708">
        <time>2022-07-31T14:30:58Z</time>
      </trkpt>
      <trkpt lat="42.03327" lon="-0.57753">
        <time>2022-07-31T14:30:59Z</time>
      </trkpt>
      <trkpt lat="42.03314" lon="-0.578">
        <time>2022-07-31T14:31:00Z</time>
      </trkpt>
      <trkpt lat="42.03301" lon="-0.57846">
        <time>2022-07-31T14:31:01Z</time>
      </trkpt>
      <trkpt lat="42.03291" lon="-0.57893">
        <time>2022-07-31T14:31:02Z</time>
      </trkpt>
      <trkpt lat="42.03281" lon="-0.5794">
        <time>2022-07-31T14:31:03Z</time>
      </trkpt>
      <trkpt lat="42.03274" lon="-0.57988">
        <time>2022-07-31T14:31:04Z</time>
      </trkpt>
      <trkpt lat="42.03267" lon="-0.58035">
        <time>2022-07-31T14:31:05Z</time>
      </trkpt>
      <trkpt lat="42.03263" lon="-0.58084">
        <time>2022-07-31T14:31:06Z</time>
      </trkpt>
      <trkpt lat="42.0326" lon="-0.58132">
        <time>2022-07-31T14:31:07Z</time>
      </trkpt>
      <trkpt lat="42.03258" lon="-0.5818">
        <time>2022-07-31T14:31:08Z</time>
      </trkpt>
      <trkpt lat="42.03257" lon="-0.58229">
        <time>2022-07-31T14:31:09Z</time>
      </trkpt>
      <trkpt lat="42.03257" lon="-0.58277">
        <time>2022-07-31T14:31:10Z</time>
      </trkpt>
      <trkpt lat="42.03256" lon="-0.58325">
        <time>2022-07-31T14:31:11Z</time>
      </trkpt>
      <trkpt lat="42.03254" lon="-0.58373">
        <time>2022-07-31T14:31:12Z</time>
      </trkpt>
      <trkpt lat="42.03252" lon="-0.58421">
        <time>2022-07-31T14:31:13Z</time>
      </trkpt>
      <trkpt lat="42.03248" lon="-0.58469">
        <time>2022-07-31T14:31:14Z</time>
      </trkpt>
      <trkpt lat="42.03244" lon="-0.58516">
        <time>2022-07-31T14:31:15Z</time>
      </trkpt>
      <trkpt lat="42.03238" lon="-0.58563">
        <time>2022-07-31T14:31:16Z</time>
      </trkpt>
      <trkpt lat="42.03231" lon="-0.58609">
        <time>2022-07-31T14:31:17Z</time>
      </trkpt>
      <trkpt lat="42.03223" lon="-0.58654">
        <time>2022-07-31T14:31:18Z</time>
      </trkpt>
      <trkpt lat="42.03213" lon="-0.587">
        <time>2022-07-31T14:31:19Z</time>
      </trkpt>
      <trkpt lat="42.03202" lon="-0.58745">
        <time>2022-07-31T14:31:20Z</time>
      </trkpt>
      <trkpt lat="42.0319" lon="-0.58789">
        <time>2022-07-31T14:31:21Z</time>
      </trkpt>
      <trkpt lat="42.03177" lon="-0.58833">
        <time>2022-07-31T14:31:22Z</time>
      </trkpt>
      <trkpt lat="42.03162" lon="-0.58877">
        <time>2022-07-31T14:31:23Z</time>
      </trkpt>
      <trkpt lat="42.03146" lon="-0.5892">
        <time>2022-07-31T14:31:24Z</time>
      </trkpt>
      <trkpt lat="42.03128" lon="-0.58962">
        <time>2022-07-31T14:31:25Z</time>
      </trkpt>
      <trkpt lat="42.03109" lon="-0.59004">
        <time>2022-07-31T14:31:26Z</time>
      </trkpt>
      <trkpt lat="42.03089" lon="-0.59045">
        <time>2022-07-31T14:31:27Z</time>
      </trkpt>
      <trkpt lat="42.03069" lon="-0.59086">
        <time>2022-07-31T14:31:28Z</time>
      </trkpt>
      <trkpt lat="42.03048" lon="-0.59127">
        <time>2022-07-31T14:31:29Z</time>
      </trkpt>
      <trkpt lat="42.03026" lon="-0.59167">
        <time>2022-07-31T14:31:30Z</time>
      </trkpt>
      <trkpt lat="42.03004" lon="-0.59207">
        <time>2022-07-31T14:31:31Z</time>
      </trkpt>
      <trkpt lat="42.02982" lon="-0.59248">
        <time>2022-07-31T14:31:32Z</time>
      </trkpt>
      <trkpt lat="42.0296" lon="-0.59289">
        <time>2022-07-31T14:31:33Z</time>
      </trkpt>
      <trkpt lat="42.02937" lon="-0.5933">
        <time>2022-07-31T14:31:34Z</time>
      </trkpt>
      <trkpt lat="42.02914" lon="-0.59371">
        <time>2022-07-31T14:31:35Z</time>
      </trkpt>
      <trkpt lat="42.02891" lon="-0.59412">
        <time>2022-07-31T14:31:36Z</time>
      </trkpt>
      <trkpt lat="42.02868" lon="-0.59452">
        <time>2022-07-31T14:31:37Z</time>
      </trkpt>
      <trkpt lat="42.02844" lon="-0.59494">
        <time>2022-07-31T14:31:38Z</time>
      </trkpt>
      <trkpt lat="42.02821" lon="-0.59535">
        <time>2022-07-31T14:31:39Z</time>
      </trkpt>
      <trkpt lat="42.02798" lon="-0.59577">
        <time>2022-07-31T14:31:40Z</time>
      </trkpt>
      <trkpt lat="42.02775" lon="-0.59619">
        <time>2022-07-31T14:31:41Z</time>
      </trkpt>
      <trkpt lat="42.02751" lon="-0.59661">
        <time>2022-07-31T14:31:42Z</time>
      </trkpt>
      <trkpt lat="42.02728" lon="-0.59702">
        <time>2022-07-31T14:31:43Z</time>
      </trkpt>
      <trkpt lat="42.02705" lon="-0.59743">
        <time>2022-07-31T14:31:44Z</time>
      </trkpt>
      <trkpt lat="42.02683" lon="-0.59784">
        <time>2022-07-31T14:31:45Z</time>
      </trkpt>
      <trkpt lat="42.0266" lon="-0.59826">
        <time>2022-07-31T14:31:46Z</time>
      </trkpt>
      <trkpt lat="42.02637" lon="-0.59867">
        <time>2022-07-31T14:31:47Z</time>
      </trkpt>
      <trkpt lat="42.02615" lon="-0.59907">
        <time>2022-07-31T14:31:48Z</time>
      </trkpt>
      <trkpt lat="42.02593" lon="-0.59948">
        <time>2022-07-31T14:31:49Z</time>
      </trkpt>
      <trkpt lat="42.0257" lon="-0.59988">
        <time>2022-07-31T14:31:50Z</time>
      </trkpt>
      <trkpt lat="42.02548" lon="-0.60028">
        <time>2022-07-31T14:31:51Z</time>
      </trkpt>
      <trkpt lat="42.02526" lon="-0.60068">
        <time>2022-07-31T14:31:52Z</time>
      </trkpt>
      <trkpt lat="42.02504" lon="-0.60108">
        <time>2022-07-31T14:31:53Z</time>
      </trkpt>
      <trkpt lat="42.02483" lon="-0.60147">
        <time>2022-07-31T14:31:54Z</time>
      </trkpt>
      <trkpt lat="42.02461" lon="-0.60187">
        <time>2022-07-31T14:31:55Z</time>
      </trkpt>
      <trkpt lat="42.0244" lon="-0.60227">
        <time>2022-07-31T14:31:56Z</time>
      </trkpt>
      <trkpt lat="42.02418" lon="-0.60268">
        <time>2022-07-31T14:31:57Z</time>
      </trkpt>
      <trkpt lat="42.02397" lon="-0.60309">
        <time>2022-07-31T14:31:58Z</time>
      </trkpt>
      <trkpt lat="42.02375" lon="-0.6035">
        <time>2022-07-31T14:31:59Z</time>
      </trkpt>
      <trkpt lat="42.02352" lon="-0.6039">
        <time>2022-07-31T14:32:00Z</time>
      </trkpt>
      <trkpt lat="42.0233" lon="-0.60431">
        <time>2022-07-31T14:32:01Z</time>
      </trkpt>
      <trkpt lat="42.02308" lon="-0.60472">
        <time>2022-07-31T14:32:02Z</time>
      </trkpt>
      <trkpt lat="42.02286" lon="-0.60513">
        <time>2022-07-31T14:32:03Z</time>
      </trkpt>
      <trkpt lat="42.02263" lon="-0.60554">
        <time>2022-07-31T14:32:04Z</time>
      </trkpt>
      <trkpt lat="42.0224" lon="-0.60595">
        <time>2022-07-31T14:32:05Z</time>
      </trkpt>
      <trkpt lat="42.02218" lon="-0.60635">
        <time>2022-07-31T14:32:06Z</time>
      </trkpt>
      <trkpt lat="42.02196" lon="-0.60676">
        <time>2022-07-31T14:32:07Z</time>
      </trkpt>
      <trkpt lat="42.02173" lon="-0.60716">
        <time>2022-07-31T14:32:08Z</time>
      </trkpt>
      <trkpt lat="42.02151" lon="-0.60756">
        <time>2022-07-31T14:32:09Z</time>
      </trkpt>
      <trkpt lat="42.02129" lon="-0.60797">
        <time>2022-07-31T14:32:10Z</time>
      </trkpt>
      <trkpt lat="42.02107" lon="-0.60837">
        <time>2022-07-31T14:32:11Z</time>
      </trkpt>
      <trkpt lat="42.02085" lon="-0.60878">
        <time>2022-07-31T14:32:12Z</time>
      </trkpt>
      <trkpt lat="42.02063" lon="-0.60918">
        <time>2022-07-31T14:32:13Z</time>
      </trkpt>
      <trkpt lat="42.02041" lon="-0.60959">
        <time>2022-07-31T14:32:14Z</time>
      </trkpt>
      <trkpt lat="42.02019" lon="-0.60999">
        <time>2022-07-31T14:32:15Z</time>
      </trkpt>
      <trkpt lat="42.01997" lon="-0.6104">
        <time>2022-07-31T14:32:16Z</time>
      </trkpt>
      <trkpt lat="42.01975" lon="-0.61081">
        <time>2022-07-31T14:32:17Z</time>
      </trkpt>
      <trkpt lat="42.01953" lon="-0.61121">
        <time>2022-07-31T14:32:18Z</time>
      </trkpt>
      <trkpt lat="42.01931" lon="-0.61162">
        <time>2022-07-31T14:32:19Z</time>
      </trkpt>
      <trkpt lat="42.01909" lon="-0.61202">
        <time>2022-07-31T14:32:20Z</time>
      </trkpt>
      <trkpt lat="42.01886" lon="-0.61243">
        <time>2022-07-31T14:32:21Z</time>
      </trkpt>
      <trkpt lat="42.01864" lon="-0.61284">
        <time>2022-07-31T14:32:22Z</time>
      </trkpt>
      <trkpt lat="42.01841" lon="-0.61325">
        <time>2022-07-31T14:32:23Z</time>
      </trkpt>
      <trkpt lat="42.01819" lon="-0.61366">
        <time>2022-07-31T14:32:24Z</time>
      </trkpt>
      <trkpt lat="42.01797" lon="-0.61407">
        <time>2022-07-31T14:32:25Z</time>
      </trkpt>
      <trkpt lat="42.01775" lon="-0.61447">
        <time>2022-07-31T14:32:26Z</time>
      </trkpt>
      <trkpt lat="42.01753" lon="-0.61489">
        <time>2022-07-31T14:32:27Z</time>
      </trkpt>
      <trkpt lat="42.01731" lon="-0.61529">
        <time>2022-07-31T14:32:28Z</time>
      </trkpt>
      <trkpt lat="42.01708" lon="-0.6157">
        <time>2022-07-31T14:32:29Z</time>
      </trkpt>
      <trkpt lat="42.01686" lon="-0.61612">
        <time>2022-07-31T14:32:30Z</time>
      </trkpt>
      <trkpt lat="42.01664" lon="-0.61653">
        <time>2022-07-31T14:32:31Z</time>
      </trkpt>
      <trkpt lat="42.01642" lon="-0.61694">
        <time>2022-07-31T14:32:32Z</time>
      </trkpt>
      <trkpt lat="42.0162" lon="-0.61736">
        <time>2022-07-31T14:32:33Z</time>
      </trkpt>
      <trkpt lat="42.01597" lon="-0.61778">
        <time>2022-07-31T14:32:34Z</time>
      </trkpt>
      <trkpt lat="42.01576" lon="-0.6182">
        <time>2022-07-31T14:32:35Z</time>
      </trkpt>
      <trkpt lat="42.01554" lon="-0.61862">
        <time>2022-07-31T14:32:36Z</time>
      </trkpt>
      <trkpt lat="42.01532" lon="-0.61904">
        <time>2022-07-31T14:32:37Z</time>
      </trkpt>
      <trkpt lat="42.0151" lon="-0.61945">
        <time>2022-07-31T14:32:38Z</time>
      </trkpt>
      <trkpt lat="42.01488" lon="-0.61987">
        <time>2022-07-31T14:32:39Z</time>
      </trkpt>
      <trkpt lat="42.01466" lon="-0.62028">
        <time>2022-07-31T14:32:40Z</time>
      </trkpt>
      <trkpt lat="42.01444" lon="-0.62069">
        <time>2022-07-31T14:32:41Z</time>
      </trkpt>
      <trkpt lat="42.01422" lon="-0.62111">
        <time>2022-07-31T14:32:42Z</time>
      </trkpt>
      <trkpt lat="42.01401" lon="-0.62152">
        <time>2022-07-31T14:32:43Z</time>
      </trkpt>
      <trkpt lat="42.01379" lon="-0.62193">
        <time>2022-07-31T14:32:44Z</time>
      </trkpt>
      <trkpt lat="42.01357" lon="-0.62234">
        <time>2022-07-31T14:32:45Z</time>
      </trkpt>
      <trkpt lat="42.01334" lon="-0.62275">
        <time>2022-07-31T14:32:46Z</time>
      </trkpt>
      <trkpt lat="42.01312" lon="-0.62316">
        <time>2022-07-31T14:32:47Z</time>
      </trkpt>
      <trkpt lat="42.01289" lon="-0.62357">
        <time>2022-07-31T14:32:48Z</time>
      </trkpt>
      <trkpt lat="42.01267" lon="-0.62398">
        <time>2022-07-31T14:32:49Z</time>
      </trkpt>
      <trkpt lat="42.01245" lon="-0.62439">
        <time>2022-07-31T14:32:50Z</time>
      </trkpt>
      <trkpt lat="42.01222" lon="-0.62481">
        <time>2022-07-31T14:32:51Z</time>
      </trkpt>
      <trkpt lat="42.012" lon="-0.62522">
        <time>2022-07-31T14:32:52Z</time>
      </trkpt>
      <trkpt lat="42.01178" lon="-0.62564">
        <time>2022-07-31T14:32:53Z</time>
      </trkpt>
      <trkpt lat="42.01155" lon="-0.62605">
        <time>2022-07-31T14:32:54Z</time>
      </trkpt>
      <trkpt lat="42.01133" lon="-0.62647">
        <time>2022-07-31T14:32:55Z</time>
      </trkpt>
      <trkpt lat="42.0111" lon="-0.62689">
        <time>2022-07-31T14:32:56Z</time>
      </trkpt>
      <trkpt lat="42.01088" lon="-0.62731">
        <time>2022-07-31T14:32:57Z</time>
      </trkpt>
      <trkpt lat="42.01065" lon="-0.62773">
        <time>2022-07-31T14:32:58Z</time>
      </trkpt>
      <trkpt lat="42.01042" lon="-0.62816">
        <time>2022-07-31T14:32:59Z</time>
      </trkpt>
      <trkpt lat="42.01019" lon="-0.62858">
        <time>2022-07-31T14:33:00Z</time>
      </trkpt>
      <trkpt lat="42.00996" lon="-0.629">
        <time>2022-07-31T14:33:01Z</time>
      </trkpt>
      <trkpt lat="42.00973" lon="-0.62943">
        <time>2022-07-31T14:33:02Z</time>
      </trkpt>
      <trkpt lat="42.0095" lon="-0.62985">
        <time>2022-07-31T14:33:03Z</time>
      </trkpt>
      <trkpt lat="42.00927" lon="-0.63026">
        <time>2022-07-31T14:33:04Z</time>
      </trkpt>
      <trkpt lat="42.00904" lon="-0.63068">
        <time>2022-07-31T14:33:05Z</time>
      </trkpt>
      <trkpt lat="42.00881" lon="-0.6311">
        <time>2022-07-31T14:33:06Z</time>
      </trkpt>
      <trkpt lat="42.00858" lon="-0.63153">
        <time>2022-07-31T14:33:07Z</time>
      </trkpt>
      <trkpt lat="42.00836" lon="-0.63195">
        <time>2022-07-31T14:33:08Z</time>
      </trkpt>
      <trkpt lat="42.00813" lon="-0.63238">
        <time>2022-07-31T14:33:09Z</time>
      </trkpt>
      <trkpt lat="42.00791" lon="-0.63282">
        <time>2022-07-31T14:33:10Z</time>
      </trkpt>
      <trkpt lat="42.00769" lon="-0.63324">
        <time>2022-07-31T14:33:11Z</time>
      </trkpt>
      <trkpt lat="42.00746" lon="-0.63367">
        <time>2022-07-31T14:33:12Z</time>
      </trkpt>
      <trkpt lat="42.00724" lon="-0.6341">
        <time>2022-07-31T14:33:13Z</time>
      </trkpt>
      <trkpt lat="42.007" lon="-0.63454">
        <time>2022-07-31T14:33:14Z</time>
      </trkpt>
      <trkpt lat="42.00677" lon="-0.63497">
        <time>2022-07-31T14:33:15Z</time>
      </trkpt>
      <trkpt lat="42.00654" lon="-0.63541">
        <time>2022-07-31T14:33:16Z</time>
      </trkpt>
      <trkpt lat="42.00631" lon="-0.63584">
        <time>2022-07-31T14:33:17Z</time>
      </trkpt>
      <trkpt lat="42.00608" lon="-0.63627">
        <time>2022-07-31T14:33:18Z</time>
      </trkpt>
      <trkpt lat="42.00585" lon="-0.6367">
        <time>2022-07-31T14:33:19Z</time>
      </trkpt>
      <trkpt lat="42.00563" lon="-0.63713">
        <time>2022-07-31T14:33:20Z</time>
      </trkpt>
      <trkpt lat="42.0054" lon="-0.63756">
        <time>2022-07-31T14:33:21Z</time>
      </trkpt>
      <trkpt lat="42.00518" lon="-0.63799">
        <time>2022-07-31T14:33:22Z</time>
      </trkpt>
      <trkpt lat="42.00496" lon="-0.63842">
        <time>2022-07-31T14:33:23Z</time>
      </trkpt>
      <trkpt lat="42.00473" lon="-0.63885">
        <time>2022-07-31T14:33:24Z</time>
      </trkpt>
      <trkpt lat="42.00451" lon="-0.63928">
        <time>2022-07-31T14:33:25Z</time>
      </trkpt>
      <trkpt lat="42.00428" lon="-0.6397">
        <time>2022-07-31T14:33:26Z</time>
      </trkpt>
      <trkpt lat="42.00405" lon="-0.64013">
        <time>2022-07-31T14:33:27Z</time>
      </trkpt>
      <trkpt lat="42.00383" lon="-0.64055">
        <time>2022-07-31T14:33:28Z</time>
      </trkpt>
      <trkpt lat="42.0036" lon="-0.64098">
        <time>2022-07-31T14:33:29Z</time>
      </trkpt>
      <trkpt lat="42.00337" lon="-0.64141">
        <time>2022-07-31T14:33:30Z</time>
      </trkpt>
      <trkpt lat="42.00314" lon="-0.64184">
        <time>2022-07-31T14:33:31Z</time>
      </trkpt>
      <trkpt lat="42.00292" lon="-0.64227">
        <time>2022-07-31T14:33:32Z</time>
      </trkpt>
      <trkpt lat="42.0027" lon="-0.6427">
        <time>2022-07-31T14:33:33Z</time>
      </trkpt>
      <trkpt lat="42.00247" lon="-0.64313">
        <time>2022-07-31T14:33:34Z</time>
      </trkpt>
      <trkpt lat="42.00225" lon="-0.64355">
        <time>2022-07-31T14:33:35Z</time>
      </trkpt>
      <trkpt lat="42.00203" lon="-0.64397">
        <time>2022-07-31T14:33:36Z</time>
      </trkpt>
      <trkpt lat="42.00181" lon="-0.64439">
        <time>2022-07-31T14:33:37Z</time>
      </trkpt>
      <trkpt lat="42.00159" lon="-0.64481">
        <time>2022-07-31T14:33:38Z</time>
      </trkpt>
      <trkpt lat="42.00137" lon="-0.64522">
        <time>2022-07-31T14:33:39Z</time>
      </trkpt>
      <trkpt lat="42.00115" lon="-0.64563">
        <time>2022-07-31T14:33:40Z</time>
      </trkpt>
      <trkpt lat="42.00094" lon="-0.64605">
        <time>2022-07-31T14:33:41Z</time>
      </trkpt>
      <trkpt lat="42.00072" lon="-0.64646">
        <time>2022-07-31T14:33:42Z</time>
      </trkpt>
      <trkpt lat="42.00051" lon="-0.64688">
        <time>2022-07-31T14:33:43Z</time>
      </trkpt>
      <trkpt lat="42.0003" lon="-0.6473">
        <time>2022-07-31T14:33:44Z</time>
      </trkpt>
      <trkpt lat="42.00008" lon="-0.64771">
        <time>2022-07-31T14:33:45Z</time>
      </trkpt>
      <trkpt lat="41.99987" lon="-0.64813">
        <time>2022-07-31T14:33:46Z</time>
      </trkpt>
      <trkpt lat="41.99965" lon="-0.64855">
        <time>2022-07-31T14:33:47Z</time>
      </trkpt>
      <trkpt lat="41.99943" lon="-0.64897">
        <time>2022-07-31T14:33:48Z</time>
      </trkpt>
      <trkpt lat="41.99921" lon="-0.6494">
        <time>2022-07-31T14:33:49Z</time>
      </trkpt>
      <trkpt lat="41.999" lon="-0.64982">
        <time>2022-07-31T14:33:50Z</time>
      </trkpt>
      <trkpt lat="41.99877" lon="-0.65023">
        <time>2022-07-31T14:33:51Z</time>
      </trkpt>
      <trkpt lat="41.99856" lon="-0.65066">
        <time>2022-07-31T14:33:52Z</time>
      </trkpt>
      <trkpt lat="41.99835" lon="-0.65108">
        <time>2022-07-31T14:33:53Z</time>
      </trkpt>
      <trkpt lat="41.99815" lon="-0.65151">
        <time>2022-07-31T14:33:54Z</time>
      </trkpt>
      <trkpt lat="41.99796" lon="-0.65194">
        <time>2022-07-31T14:33:55Z</time>
      </trkpt>
      <trkpt lat="41.99779" lon="-0.65237">
        <time>2022-07-31T14:33:56Z</time>
      </trkpt>
      <trkpt lat="41.99763" lon="-0.6528">
        <time>2022-07-31T14:33:57Z</time>
      </trkpt>
      <trkpt lat="41.99748" lon="-0.65323">
        <time>2022-07-31T14:33:58Z</time>
      </trkpt>
      <trkpt lat="41.99736" lon="-0.65364">
        <time>2022-07-31T14:33:59Z</time>
      </trkpt>
      <trkpt lat="41.99723" lon="-0.65405">
        <time>2022-07-31T14:34:00Z</time>
      </trkpt>
      <trkpt lat="41.99712" lon="-0.65445">
        <time>2022-07-31T14:34:01Z</time>
      </trkpt>
      <trkpt lat="41.99702" lon="-0.65484">
        <time>2022-07-31T14:34:02Z</time>
      </trkpt>
      <trkpt lat="41.99693" lon="-0.65523">
        <time>2022-07-31T14:34:03Z</time>
      </trkpt>
      <trkpt lat="41.99684" lon="-0.65562">
        <time>2022-07-31T14:34:04Z</time>
      </trkpt>
      <trkpt lat="41.99676" lon="-0.65602">
        <time>2022-07-31T14:34:05Z</time>
      </trkpt>
      <trkpt lat="41.99669" lon="-0.65642">
        <time>2022-07-31T14:34:06Z</time>
      </trkpt>
      <trkpt lat="41.99661" lon="-0.65684">
        <time>2022-07-31T14:34:07Z</time>
      </trkpt>
      <trkpt lat="41.99653" lon="-0.65726">
        <time>2022-07-31T14:34:08Z</time>
      </trkpt>
      <trkpt lat="41.99645" lon="-0.6577">
        <time>2022-07-31T14:34:09Z</time>
      </trkpt>
      <trkpt lat="41.99636" lon="-0.65815">
        <time>2022-07-31T14:34:10Z</time>
      </trkpt>
      <trkpt lat="41.99627" lon="-0.6586">
        <time>2022-07-31T14:34:11Z</time>
      </trkpt>
      <trkpt lat="41.99619" lon="-0.65906">
        <time>2022-07-31T14:34:12Z</time>
      </trkpt>
      <trkpt lat="41.9961" lon="-0.65952">
        <time>2022-07-31T14:34:13Z</time>
      </trkpt>
      <trkpt lat="41.996" lon="-0.65998">
        <time>2022-07-31T14:34:14Z</time>
      </trkpt>
      <trkpt lat="41.99589" lon="-0.66043">
        <time>2022-07-31T14:34:15Z</time>
      </trkpt>
      <trkpt lat="41.99577" lon="-0.66088">
        <time>2022-07-31T14:34:16Z</time>
      </trkpt>
      <trkpt lat="41.99565" lon="-0.66134">
        <time>2022-07-31T14:34:17Z</time>
      </trkpt>
      <trkpt lat="41.99552" lon="-0.66178">
        <time>2022-07-31T14:34:18Z</time>
      </trkpt>
      <trkpt lat="41.99538" lon="-0.66223">
        <time>2022-07-31T14:34:19Z</time>
      </trkpt>
      <trkpt lat="41.99524" lon="-0.66267">
        <time>2022-07-31T14:34:20Z</time>
      </trkpt>
      <trkpt lat="41.99509" lon="-0.6631">
        <time>2022-07-31T14:34:21Z</time>
      </trkpt>
      <trkpt lat="41.99493" lon="-0.66353">
        <time>2022-07-31T14:34:22Z</time>
      </trkpt>
      <trkpt lat="41.99477" lon="-0.66395">
        <time>2022-07-31T14:34:23Z</time>
      </trkpt>
      <trkpt lat="41.9946" lon="-0.66436">
        <time>2022-07-31T14:34:24Z</time>
      </trkpt>
      <trkpt lat="41.99443" lon="-0.66477">
        <time>2022-07-31T14:34:25Z</time>
      </trkpt>
      <trkpt lat="41.99426" lon="-0.66517">
        <time>2022-07-31T14:34:26Z</time>
      </trkpt>
      <trkpt lat="41.99408" lon="-0.66557">
        <time>2022-07-31T14:34:27Z</time>
      </trkpt>
      <trkpt lat="41.99389" lon="-0.66596">
        <time>2022-07-31T14:34:28Z</time>
      </trkpt>
      <trkpt lat="41.99369" lon="-0.66636">
        <time>2022-07-31T14:34:29Z</time>
      </trkpt>
      <trkpt lat="41.99349" lon="-0.66675">
        <time>2022-07-31T14:34:30Z</time>
      </trkpt>
      <trkpt lat="41.99328" lon="-0.66713">
        <time>2022-07-31T14:34:31Z</time>
      </trkpt>
      <trkpt lat="41.99306" lon="-0.66751">
        <time>2022-07-31T14:34:32Z</time>
      </trkpt>
      <trkpt lat="41.99284" lon="-0.66789">
        <time>2022-07-31T14:34:33Z</time>
      </trkpt>
      <trkpt lat="41.99261" lon="-0.66826">
        <time>2022-07-31T14:34:34Z</time>
      </trkpt>
      <trkpt lat="41.99237" lon="-0.66863">
        <time>2022-07-31T14:34:35Z</time>
      </trkpt>
      <trkpt lat="41.99213" lon="-0.66899">
        <time>2022-07-31T14:34:36Z</time>
      </trkpt>
      <trkpt lat="41.99188" lon="-0.66936">
        <time>2022-07-31T14:34:37Z</time>
      </trkpt>
      <trkpt lat="41.99163" lon="-0.66971">
        <time>2022-07-31T14:34:38Z</time>
      </trkpt>
      <trkpt lat="41.99137" lon="-0.67006">
        <time>2022-07-31T14:34:39Z</time>
      </trkpt>
      <trkpt lat="41.9911" lon="-0.67039">
        <time>2022-07-31T14:34:40Z</time>
      </trkpt>
      <trkpt lat="41.99083" lon="-0.67072">
        <time>2022-07-31T14:34:41Z</time>
      </trkpt>
      <trkpt lat="41.99055" lon="-0.67105">
        <time>2022-07-31T14:34:42Z</time>
      </trkpt>
      <trkpt lat="41.99027" lon="-0.67138">
        <time>2022-07-31T14:34:43Z</time>
      </trkpt>
      <trkpt lat="41.98999" lon="-0.6717">
        <time>2022-07-31T14:34:44Z</time>
      </trkpt>
      <trkpt lat="41.98971" lon="-0.67202">
        <time>2022-07-31T14:34:45Z</time>
      </trkpt>
      <trkpt lat="41.98943" lon="-0.67234">
        <time>2022-07-31T14:34:46Z</time>
      </trkpt>
      <trkpt lat="41.98915" lon="-0.67267">
        <time>2022-07-31T14:34:47Z</time>
      </trkpt>
      <trkpt lat="41.98887" lon="-0.67299">
        <time>2022-07-31T14:34:48Z</time>
      </trkpt>
      <trkpt lat="41.98859" lon="-0.67332">
        <time>2022-07-31T14:34:49Z</time>
      </trkpt>
      <trkpt lat="41.98832" lon="-0.67365">
        <time>2022-07-31T14:34:50Z</time>
      </trkpt>
      <trkpt lat="41.98804" lon="-0.67399">
        <time>2022-07-31T14:34:51Z</time>
      </trkpt>
      <trkpt lat="41.98777" lon="-0.67433">
        <time>2022-07-31T14:34:52Z</time>
      </trkpt>
      <trkpt lat="41.9875" lon="-0.67468">
        <time>2022-07-31T14:34:53Z</time>
      </trkpt>
      <trkpt lat="41.98723" lon="-0.67504">
        <time>2022-07-31T14:34:54Z</time>
      </trkpt>
      <trkpt lat="41.98698" lon="-0.67541">
        <time>2022-07-31T14:34:55Z</time>
      </trkpt>
      <trkpt lat="41.98673" lon="-0.67579">
        <time>2022-07-31T14:34:56Z</time>
      </trkpt>
      <trkpt lat="41.98648" lon="-0.67618">
        <time>2022-07-31T14:34:57Z</time>
      </trkpt>
      <trkpt lat="41.98624" lon="-0.67657">
        <time>2022-07-31T14:34:58Z</time>
      </trkpt>
      <trkpt lat="41.986" lon="-0.67698">
        <time>2022-07-31T14:34:59Z</time>
      </trkpt>
      <trkpt lat="41.98577" lon="-0.6774">
        <time>2022-07-31T14:35:00Z</time>
      </trkpt>
      <trkpt lat="41.98555" lon="-0.67782">
        <time>2022-07-31T14:35:01Z</time>
      </trkpt>
      <trkpt lat="41.98533" lon="-0.67825">
        <time>2022-07-31T14:35:02Z</time>
      </trkpt>
      <trkpt lat="41.98512" lon="-0.67869">
        <time>2022-07-31T14:35:03Z</time>
      </trkpt>
      <trkpt lat="41.98492" lon="-0.67913">
        <time>2022-07-31T14:35:04Z</time>
      </trkpt>
      <trkpt lat="41.98473" lon="-0.67958">
        <time>2022-07-31T14:35:05Z</time>
      </trkpt>
      <trkpt lat="41.98454" lon="-0.68003">
        <time>2022-07-31T14:35:06Z</time>
      </trkpt>
      <trkpt lat="41.98437" lon="-0.68046">
        <time>2022-07-31T14:35:07Z</time>
      </trkpt>
      <trkpt lat="41.9842" lon="-0.68089">
        <time>2022-07-31T14:35:08Z</time>
      </trkpt>
      <trkpt lat="41.98403" lon="-0.68131">
        <time>2022-07-31T14:35:09Z</time>
      </trkpt>
      <trkpt lat="41.98387" lon="-0.68173">
        <time>2022-07-31T14:35:10Z</time>
      </trkpt>
      <trkpt lat="41.98371" lon="-0.68214">
        <time>2022-07-31T14:35:11Z</time>
      </trkpt>
      <trkpt lat="41.98355" lon="-0.68255">
        <time>2022-07-31T14:35:12Z</time>
      </trkpt>
      <trkpt lat="41.98338" lon="-0.68296">
        <time>2022-07-31T14:35:13Z</time>
      </trkpt>
      <trkpt lat="41.98321" lon="-0.68337">
        <time>2022-07-31T14:35:14Z</time>
      </trkpt>
      <trkpt lat="41.98303" lon="-0.68377">
        <time>2022-07-31T14:35:15Z</time>
      </trkpt>
      <trkpt lat="41.98285" lon="-0.68417">
        <time>2022-07-31T14:35:16Z</time>
      </trkpt>
      <trkpt lat="41.98266" lon="-0.68456">
        <time>2022-07-31T14:35:17Z</time>
      </trkpt>
      <trkpt lat="41.98247" lon="-0.68495">
        <time>2022-07-31T14:35:18Z</time>
      </trkpt>
      <trkpt lat="41.98227" lon="-0.68533">
        <time>2022-07-31T14:35:19Z</time>
      </trkpt>
      <trkpt lat="41.98206" lon="-0.6857">
        <time>2022-07-31T14:35:20Z</time>
      </trkpt>
      <trkpt lat="41.98184" lon="-0.68606">
        <time>2022-07-31T14:35:21Z</time>
      </trkpt>
      <trkpt lat="41.98163" lon="-0.68641">
        <time>2022-07-31T14:35:22Z</time>
      </trkpt>
      <trkpt lat="41.98141" lon="-0.68675">
        <time>2022-07-31T14:35:23Z</time>
      </trkpt>
      <trkpt lat="41.98119" lon="-0.68708">
        <time>2022-07-31T14:35:24Z</time>
      </trkpt>
      <trkpt lat="41.98097" lon="-0.68739">
        <time>2022-07-31T14:35:25Z</time>
      </trkpt>
      <trkpt lat="41.98074" lon="-0.68768">
        <time>2022-07-31T14:35:26Z</time>
      </trkpt>
      <trkpt lat="41.98052" lon="-0.68797">
        <time>2022-07-31T14:35:27Z</time>
      </trkpt>
      <trkpt lat="41.98029" lon="-0.68825">
        <time>2022-07-31T14:35:28Z</time>
      </trkpt>
      <trkpt lat="41.98005" lon="-0.68852">
        <time>2022-07-31T14:35:29Z</time>
      </trkpt>
      <trkpt lat="41.97981" lon="-0.68879">
        <time>2022-07-31T14:35:30Z</time>
      </trkpt>
      <trkpt lat="41.97957" lon="-0.68905">
        <time>2022-07-31T14:35:31Z</time>
      </trkpt>
      <trkpt lat="41.97932" lon="-0.6893">
        <time>2022-07-31T14:35:32Z</time>
      </trkpt>
      <trkpt lat="41.97906" lon="-0.68956">
        <time>2022-07-31T14:35:33Z</time>
      </trkpt>
      <trkpt lat="41.9788" lon="-0.68982">
        <time>2022-07-31T14:35:34Z</time>
      </trkpt>
      <trkpt lat="41.97854" lon="-0.69009">
        <time>2022-07-31T14:35:35Z</time>
      </trkpt>
      <trkpt lat="41.97827" lon="-0.69035">
        <time>2022-07-31T14:35:36Z</time>
      </trkpt>
      <trkpt lat="41.978" lon="-0.69061">
        <time>2022-07-31T14:35:37Z</time>
      </trkpt>
      <trkpt lat="41.97773" lon="-0.69088">
        <time>2022-07-31T14:35:38Z</time>
      </trkpt>
      <trkpt lat="41.97746" lon="-0.69115">
        <time>2022-07-31T14:35:39Z</time>
      </trkpt>
      <trkpt lat="41.9772" lon="-0.69143">
        <time>2022-07-31T14:35:40Z</time>
      </trkpt>
      <trkpt lat="41.97693" lon="-0.69171">
        <time>2022-07-31T14:35:41Z</time>
      </trkpt>
      <trkpt lat="41.97668" lon="-0.69202">
        <time>2022-07-31T14:35:42Z</time>
      </trkpt>
      <trkpt lat="41.97642" lon="-0.69233">
        <time>2022-07-31T14:35:43Z</time>
      </trkpt>
      <trkpt lat="41.97617" lon="-0.69265">
        <time>2022-07-31T14:35:44Z</time>
      </trkpt>
      <trkpt lat="41.97591" lon="-0.69299">
        <time>2022-07-31T14:35:45Z</time>
      </trkpt>
      <trkpt lat="41.97567" lon="-0.69333">
        <time>2022-07-31T14:35:46Z</time>
      </trkpt>
      <trkpt lat="41.97543" lon="-0.69369">
        <time>2022-07-31T14:35:47Z</time>
      </trkpt>
      <trkpt lat="41.97519" lon="-0.69406">
        <time>2022-07-31T14:35:48Z</time>
      </trkpt>
      <trkpt lat="41.97497" lon="-0.69444">
        <time>2022-07-31T14:35:49Z</time>
      </trkpt>
      <trkpt lat="41.97476" lon="-0.69483">
        <time>2022-07-31T14:35:50Z</time>
      </trkpt>
      <trkpt lat="41.97455" lon="-0.69524">
        <time>2022-07-31T14:35:51Z</time>
      </trkpt>
      <trkpt lat="41.97435" lon="-0.69564">
        <time>2022-07-31T14:35:52Z</time>
      </trkpt>
      <trkpt lat="41.97414" lon="-0.69604">
        <time>2022-07-31T14:35:53Z</time>
      </trkpt>
      <trkpt lat="41.97393" lon="-0.69643">
        <time>2022-07-31T14:35:54Z</time>
      </trkpt>
      <trkpt lat="41.97373" lon="-0.69683">
        <time>2022-07-31T14:35:55Z</time>
      </trkpt>
      <trkpt lat="41.97352" lon="-0.69723">
        <time>2022-07-31T14:35:56Z</time>
      </trkpt>
      <trkpt lat="41.97331" lon="-0.69763">
        <time>2022-07-31T14:35:57Z</time>
      </trkpt>
      <trkpt lat="41.9731" lon="-0.69803">
        <time>2022-07-31T14:35:58Z</time>
      </trkpt>
      <trkpt lat="41.97289" lon="-0.69843">
        <time>2022-07-31T14:35:59Z</time>
      </trkpt>
      <trkpt lat="41.97268" lon="-0.69883">
        <time>2022-07-31T14:36:00Z</time>
      </trkpt>
      <trkpt lat="41.97248" lon="-0.69923">
        <time>2022-07-31T14:36:01Z</time>
      </trkpt>
      <trkpt lat="41.97227" lon="-0.69963">
        <time>2022-07-31T14:36:02Z</time>
      </trkpt>
      <trkpt lat="41.97205" lon="-0.70003">
        <time>2022-07-31T14:36:03Z</time>
      </trkpt>
      <trkpt lat="41.97184" lon="-0.70044">
        <time>2022-07-31T14:36:04Z</time>
      </trkpt>
      <trkpt lat="41.97163" lon="-0.70084">
        <time>2022-07-31T14:36:05Z</time>
      </trkpt>
      <trkpt lat="41.97141" lon="-0.70124">
        <time>2022-07-31T14:36:06Z</time>
      </trkpt>
      <trkpt lat="41.9712" lon="-0.70164">
        <time>2022-07-31T14:36:07Z</time>
      </trkpt>
      <trkpt lat="41.971" lon="-0.70204">
        <time>2022-07-31T14:36:08Z</time>
      </trkpt>
      <trkpt lat="41.97079" lon="-0.70244">
        <time>2022-07-31T14:36:09Z</time>
      </trkpt>
      <trkpt lat="41.97057" lon="-0.70284">
        <time>2022-07-31T14:36:10Z</time>
      </trkpt>
      <trkpt lat="41.97036" lon="-0.70324">
        <time>2022-07-31T14:36:11Z</time>
      </trkpt>
      <trkpt lat="41.97015" lon="-0.70364">
        <time>2022-07-31T14:36:12Z</time>
      </trkpt>
      <trkpt lat="41.96994" lon="-0.70405">
        <time>2022-07-31T14:36:13Z</time>
      </trkpt>
      <trkpt lat="41.96972" lon="-0.70444">
        <time>2022-07-31T14:36:14Z</time>
      </trkpt>
      <trkpt lat="41.96951" lon="-0.70483">
        <time>2022-07-31T14:36:15Z</time>
      </trkpt>
      <trkpt lat="41.9693" lon="-0.70523">
        <time>2022-07-31T14:36:16Z</time>
      </trkpt>
      <trkpt lat="41.96909" lon="-0.70563">
        <time>2022-07-31T14:36:17Z</time>
      </trkpt>
      <trkpt lat="41.96888" lon="-0.70602">
        <time>2022-07-31T14:36:18Z</time>
      </trkpt>
      <trkpt lat="41.96867" lon="-0.70642">
        <time>2022-07-31T14:36:19Z</time>
      </trkpt>
      <trkpt lat="41.96847" lon="-0.70682">
        <time>2022-07-31T14:36:20Z</time>
      </trkpt>
      <trkpt lat="41.96827" lon="-0.70722">
        <time>2022-07-31T14:36:21Z</time>
      </trkpt>
      <trkpt lat="41.96807" lon="-0.70761">
        <time>2022-07-31T14:36:22Z</time>
      </trkpt>
      <trkpt lat="41.96787" lon="-0.70801">
        <time>2022-07-31T14:36:23Z</time>
      </trkpt>
      <trkpt lat="41.96767" lon="-0.7084">
        <time>2022-07-31T14:36:24Z</time>
      </trkpt>
      <trkpt lat="41.96747" lon="-0.70879">
        <time>2022-07-31T14:36:25Z</time>
      </trkpt>
      <trkpt lat="41.96726" lon="-0.70918">
        <time>2022-07-31T14:36:26Z</time>
      </trkpt>
      <trkpt lat="41.96706" lon="-0.70957">
        <time>2022-07-31T14:36:27Z</time>
      </trkpt>
      <trkpt lat="41.96685" lon="-0.70996">
        <time>2022-07-31T14:36:28Z</time>
      </trkpt>
      <trkpt lat="41.96665" lon="-0.71035">
        <time>2022-07-31T14:36:29Z</time>
      </trkpt>
      <trkpt lat="41.96644" lon="-0.71074">
        <time>2022-07-31T14:36:30Z</time>
      </trkpt>
      <trkpt lat="41.96624" lon="-0.71113">
        <time>2022-07-31T14:36:31Z</time>
      </trkpt>
      <trkpt lat="41.96604" lon="-0.71152">
        <time>2022-07-31T14:36:32Z</time>
      </trkpt>
      <trkpt lat="41.96583" lon="-0.71192">
        <time>2022-07-31T14:36:33Z</time>
      </trkpt>
      <trkpt lat="41.96562" lon="-0.71231">
        <time>2022-07-31T14:36:34Z</time>
      </trkpt>
      <trkpt lat="41.96541" lon="-0.7127">
        <time>2022-07-31T14:36:35Z</time>
      </trkpt>
      <trkpt lat="41.9652" lon="-0.71309">
        <time>2022-07-31T14:36:36Z</time>
      </trkpt>
      <trkpt lat="41.96498" lon="-0.71348">
        <time>2022-07-31T14:36:37Z</time>
      </trkpt>
      <trkpt lat="41.96476" lon="-0.71388">
        <time>2022-07-31T14:36:38Z</time>
      </trkpt>
      <trkpt lat="41.96455" lon="-0.71428">
        <time>2022-07-31T14:36:39Z</time>
      </trkpt>
      <trkpt lat="41.96435" lon="-0.71468">
        <time>2022-07-31T14:36:40Z</time>
      </trkpt>
      <trkpt lat="41.96414" lon="-0.71509">
        <time>2022-07-31T14:36:41Z</time>
      </trkpt>
      <trkpt lat="41.96394" lon="-0.71549">
        <time>2022-07-31T14:36:42Z</time>
      </trkpt>
      <trkpt lat="41.96373" lon="-0.71589">
        <time>2022-07-31T14:36:43Z</time>
      </trkpt>
      <trkpt lat="41.96353" lon="-0.71628">
        <time>2022-07-31T14:36:44Z</time>
      </trkpt>
      <trkpt lat="41.96332" lon="-0.71668">
        <time>2022-07-31T14:36:45Z</time>
      </trkpt>
      <trkpt lat="41.96312" lon="-0.71707">
        <time>2022-07-31T14:36:46Z</time>
      </trkpt>
      <trkpt lat="41.96291" lon="-0.71746">
        <time>2022-07-31T14:36:47Z</time>
      </trkpt>
      <trkpt lat="41.9627" lon="-0.71786">
        <time>2022-07-31T14:36:48Z</time>
      </trkpt>
      <trkpt lat="41.9625" lon="-0.71825">
        <time>2022-07-31T14:36:49Z</time>
      </trkpt>
      <trkpt lat="41.9623" lon="-0.71864">
        <time>2022-07-31T14:36:50Z</time>
      </trkpt>
      <trkpt lat="41.9621" lon="-0.71903">
        <time>2022-07-31T14:36:51Z</time>
      </trkpt>
      <trkpt lat="41.96189" lon="-0.71941">
        <time>2022-07-31T14:36:52Z</time>
      </trkpt>
      <trkpt lat="41.96169" lon="-0.7198">
        <time>2022-07-31T14:36:53Z</time>
      </trkpt>
      <trkpt lat="41.96148" lon="-0.72018">
        <time>2022-07-31T14:36:54Z</time>
      </trkpt>
      <trkpt lat="41.96126" lon="-0.72056">
        <time>2022-07-31T14:36:55Z</time>
      </trkpt>
      <trkpt lat="41.96104" lon="-0.72093">
        <time>2022-07-31T14:36:56Z</time>
      </trkpt>
      <trkpt lat="41.96083" lon="-0.72131">
        <time>2022-07-31T14:36:57Z</time>
      </trkpt>
      <trkpt lat="41.9606" lon="-0.72167">
        <time>2022-07-31T14:36:58Z</time>
      </trkpt>
      <trkpt lat="41.96036" lon="-0.72203">
        <time>2022-07-31T14:36:59Z</time>
      </trkpt>
      <trkpt lat="41.96013" lon="-0.72239">
        <time>2022-07-31T14:37:00Z</time>
      </trkpt>
      <trkpt lat="41.95988" lon="-0.72273">
        <time>2022-07-31T14:37:01Z</time>
      </trkpt>
      <trkpt lat="41.95963" lon="-0.72307">
        <time>2022-07-31T14:37:02Z</time>
      </trkpt>
      <trkpt lat="41.95938" lon="-0.7234">
        <time>2022-07-31T14:37:03Z</time>
      </trkpt>
      <trkpt lat="41.95912" lon="-0.72372">
        <time>2022-07-31T14:37:04Z</time>
      </trkpt>
      <trkpt lat="41.95885" lon="-0.72404">
        <time>2022-07-31T14:37:05Z</time>
      </trkpt>
      <trkpt lat="41.95858" lon="-0.72435">
        <time>2022-07-31T14:37:06Z</time>
      </trkpt>
      <trkpt lat="41.95831" lon="-0.72466">
        <time>2022-07-31T14:37:07Z</time>
      </trkpt>
      <trkpt lat="41.95803" lon="-0.72496">
        <time>2022-07-31T14:37:08Z</time>
      </trkpt>
      <trkpt lat="41.95774" lon="-0.72525">
        <time>2022-07-31T14:37:09Z</time>
      </trkpt>
      <trkpt lat="41.95746" lon="-0.72553">
        <time>2022-07-31T14:37:10Z</time>
      </trkpt>
      <trkpt lat="41.95716" lon="-0.72581">
        <time>2022-07-31T14:37:11Z</time>
      </trkpt>
      <trkpt lat="41.95686" lon="-0.72608">
        <time>2022-07-31T14:37:12Z</time>
      </trkpt>
      <trkpt lat="41.95656" lon="-0.72633">
        <time>2022-07-31T14:37:13Z</time>
      </trkpt>
      <trkpt lat="41.95625" lon="-0.72659">
        <time>2022-07-31T14:37:14Z</time>
      </trkpt>
      <trkpt lat="41.95594" lon="-0.72683">
        <time>2022-07-31T14:37:15Z</time>
      </trkpt>
      <trkpt lat="41.95562" lon="-0.72707">
        <time>2022-07-31T14:37:16Z</time>
      </trkpt>
      <trkpt lat="41.9553" lon="-0.7273">
        <time>2022-07-31T14:37:17Z</time>
      </trkpt>
      <trkpt lat="41.95498" lon="-0.72753">
        <time>2022-07-31T14:37:18Z</time>
      </trkpt>
      <trkpt lat="41.95465" lon="-0.72775">
        <time>2022-07-31T14:37:19Z</time>
      </trkpt>
      <trkpt lat="41.95432" lon="-0.72797">
        <time>2022-07-31T14:37:20Z</time>
      </trkpt>
      <trkpt lat="41.954" lon="-0.72819">
        <time>2022-07-31T14:37:21Z</time>
      </trkpt>
      <trkpt lat="41.95367" lon="-0.72842">
        <time>2022-07-31T14:37:22Z</time>
      </trkpt>
      <trkpt lat="41.95334" lon="-0.72864">
        <time>2022-07-31T14:37:23Z</time>
      </trkpt>
      <trkpt lat="41.95302" lon="-0.72886">
        <time>2022-07-31T14:37:24Z</time>
      </trkpt>
      <trkpt lat="41.95269" lon="-0.72908">
        <time>2022-07-31T14:37:25Z</time>
      </trkpt>
      <trkpt lat="41.95236" lon="-0.7293">
        <time>2022-07-31T14:37:26Z</time>
      </trkpt>
      <trkpt lat="41.95203" lon="-0.72951">
        <time>2022-07-31T14:37:27Z</time>
      </trkpt>
      <trkpt lat="41.9517" lon="-0.72973">
        <time>2022-07-31T14:37:28Z</time>
      </trkpt>
      <trkpt lat="41.95137" lon="-0.72994">
        <time>2022-07-31T14:37:29Z</time>
      </trkpt>
      <trkpt lat="41.95104" lon="-0.73016">
        <time>2022-07-31T14:37:30Z</time>
      </trkpt>
      <trkpt lat="41.95072" lon="-0.73038">
        <time>2022-07-31T14:37:31Z</time>
      </trkpt>
      <trkpt lat="41.95039" lon="-0.7306">
        <time>2022-07-31T14:37:32Z</time>
      </trkpt>
      <trkpt lat="41.95007" lon="-0.73082">
        <time>2022-07-31T14:37:33Z</time>
      </trkpt>
      <trkpt lat="41.94974" lon="-0.73105">
        <time>2022-07-31T14:37:34Z</time>
      </trkpt>
      <trkpt lat="41.94942" lon="-0.73128">
        <time>2022-07-31T14:37:35Z</time>
      </trkpt>
      <trkpt lat="41.9491" lon="-0.73151">
        <time>2022-07-31T14:37:36Z</time>
      </trkpt>
      <trkpt lat="41.94877" lon="-0.73173">
        <time>2022-07-31T14:37:37Z</time>
      </trkpt>
      <trkpt lat="41.94845" lon="-0.73195">
        <time>2022-07-31T14:37:38Z</time>
      </trkpt>
      <trkpt lat="41.94812" lon="-0.73218">
        <time>2022-07-31T14:37:39Z</time>
      </trkpt>
      <trkpt lat="41.94779" lon="-0.7324">
        <time>2022-07-31T14:37:40Z</time>
      </trkpt>
      <trkpt lat="41.94747" lon="-0.73262">
        <time>2022-07-31T14:37:41Z</time>
      </trkpt>
      <trkpt lat="41.94714" lon="-0.73284">
        <time>2022-07-31T14:37:42Z</time>
      </trkpt>
      <trkpt lat="41.94681" lon="-0.73306">
        <time>2022-07-31T14:37:43Z</time>
      </trkpt>
      <trkpt lat="41.94649" lon="-0.73328">
        <time>2022-07-31T14:37:44Z</time>
      </trkpt>
      <trkpt lat="41.94616" lon="-0.7335">
        <time>2022-07-31T14:37:45Z</time>
      </trkpt>
      <trkpt lat="41.94583" lon="-0.73372">
        <time>2022-07-31T14:37:46Z</time>
      </trkpt>
      <trkpt lat="41.94551" lon="-0.73394">
        <time>2022-07-31T14:37:47Z</time>
      </trkpt>
      <trkpt lat="41.94518" lon="-0.73416">
        <time>2022-07-31T14:37:48Z</time>
      </trkpt>
      <trkpt lat="41.94485" lon="-0.73438">
        <time>2022-07-31T14:37:49Z</time>
      </trkpt>
      <trkpt lat="41.94452" lon="-0.7346">
        <time>2022-07-31T14:37:50Z</time>
      </trkpt>
      <trkpt lat="41.94419" lon="-0.73482">
        <time>2022-07-31T14:37:51Z</time>
      </trkpt>
      <trkpt lat="41.94385" lon="-0.73504">
        <time>2022-07-31T14:37:52Z</time>
      </trkpt>
      <trkpt lat="41.94352" lon="-0.73527">
        <time>2022-07-31T14:37:53Z</time>
      </trkpt>
      <trkpt lat="41.94319" lon="-0.73549">
        <time>2022-07-31T14:37:54Z</time>
      </trkpt>
      <trkpt lat="41.94286" lon="-0.73572">
        <time>2022-07-31T14:37:55Z</time>
      </trkpt>
      <trkpt lat="41.94252" lon="-0.73594">
        <time>2022-07-31T14:37:56Z</time>
      </trkpt>
      <trkpt lat="41.94219" lon="-0.73618">
        <time>2022-07-31T14:37:57Z</time>
      </trkpt>
      <trkpt lat="41.94185" lon="-0.73641">
        <time>2022-07-31T14:37:58Z</time>
      </trkpt>
      <trkpt lat="41.94151" lon="-0.73663">
        <time>2022-07-31T14:37:59Z</time>
      </trkpt>
      <trkpt lat="41.94117" lon="-0.73686">
        <time>2022-07-31T14:38:00Z</time>
      </trkpt>
      <trkpt lat="41.94084" lon="-0.73708">
        <time>2022-07-31T14:38:01Z</time>
      </trkpt>
      <trkpt lat="41.9405" lon="-0.73731">
        <time>2022-07-31T14:38:02Z</time>
      </trkpt>
      <trkpt lat="41.94016" lon="-0.73754">
        <time>2022-07-31T14:38:03Z</time>
      </trkpt>
      <trkpt lat="41.93982" lon="-0.73777">
        <time>2022-07-31T14:38:04Z</time>
      </trkpt>
      <trkpt lat="41.93949" lon="-0.738">
        <time>2022-07-31T14:38:05Z</time>
      </trkpt>
      <trkpt lat="41.93914" lon="-0.73823">
        <time>2022-07-31T14:38:06Z</time>
      </trkpt>
      <trkpt lat="41.9388" lon="-0.73845">
        <time>2022-07-31T14:38:07Z</time>
      </trkpt>
      <trkpt lat="41.93845" lon="-0.73867">
        <time>2022-07-31T14:38:08Z</time>
      </trkpt>
      <trkpt lat="41.93811" lon="-0.7389">
        <time>2022-07-31T14:38:09Z</time>
      </trkpt>
      <trkpt lat="41.93776" lon="-0.73912">
        <time>2022-07-31T14:38:10Z</time>
      </trkpt>
      <trkpt lat="41.93742" lon="-0.73935">
        <time>2022-07-31T14:38:11Z</time>
      </trkpt>
      <trkpt lat="41.93708" lon="-0.73958">
        <time>2022-07-31T14:38:12Z</time>
      </trkpt>
      <trkpt lat="41.93674" lon="-0.73982">
        <time>2022-07-31T14:38:13Z</time>
      </trkpt>
      <trkpt lat="41.93639" lon="-0.74005">
        <time>2022-07-31T14:38:14Z</time>
      </trkpt>
      <trkpt lat="41.93605" lon="-0.74029">
        <time>2022-07-31T14:38:15Z</time>
      </trkpt>
      <trkpt lat="41.93571" lon="-0.74052">
        <time>2022-07-31T14:38:16Z</time>
      </trkpt>
      <trkpt lat="41.93537" lon="-0.74074">
        <time>2022-07-31T14:38:17Z</time>
      </trkpt>
      <trkpt lat="41.93503" lon="-0.74097">
        <time>2022-07-31T14:38:18Z</time>
      </trkpt>
      <trkpt lat="41.93469" lon="-0.7412">
        <time>2022-07-31T14:38:19Z</time>
      </trkpt>
      <trkpt lat="41.93435" lon="-0.74143">
        <time>2022-07-31T14:38:20Z</time>
      </trkpt>
      <trkpt lat="41.93401" lon="-0.74165">
        <time>2022-07-31T14:38:21Z</time>
      </trkpt>
      <trkpt lat="41.93367" lon="-0.74187">
        <time>2022-07-31T14:38:22Z</time>
      </trkpt>
      <trkpt lat="41.93334" lon="-0.74208">
        <time>2022-07-31T14:38:23Z</time>
      </trkpt>
      <trkpt lat="41.93299" lon="-0.74229">
        <time>2022-07-31T14:38:24Z</time>
      </trkpt>
      <trkpt lat="41.93265" lon="-0.74249">
        <time>2022-07-31T14:38:25Z</time>
      </trkpt>
      <trkpt lat="41.93229" lon="-0.74268">
        <time>2022-07-31T14:38:26Z</time>
      </trkpt>
      <trkpt lat="41.93195" lon="-0.74286">
        <time>2022-07-31T14:38:27Z</time>
      </trkpt>
      <trkpt lat="41.9316" lon="-0.74304">
        <time>2022-07-31T14:38:28Z</time>
      </trkpt>
      <trkpt lat="41.93124" lon="-0.74322">
        <time>2022-07-31T14:38:29Z</time>
      </trkpt>
      <trkpt lat="41.93089" lon="-0.7434">
        <time>2022-07-31T14:38:30Z</time>
      </trkpt>
      <trkpt lat="41.93054" lon="-0.74359">
        <time>2022-07-31T14:38:31Z</time>
      </trkpt>
      <trkpt lat="41.93019" lon="-0.74378">
        <time>2022-07-31T14:38:32Z</time>
      </trkpt>
      <trkpt lat="41.92984" lon="-0.74397">
        <time>2022-07-31T14:38:33Z</time>
      </trkpt>
      <trkpt lat="41.9295" lon="-0.74417">
        <time>2022-07-31T14:38:34Z</time>
      </trkpt>
      <trkpt lat="41.92916" lon="-0.74438">
        <time>2022-07-31T14:38:35Z</time>
      </trkpt>
      <trkpt lat="41.92882" lon="-0.74459">
        <time>2022-07-31T14:38:36Z</time>
      </trkpt>
      <trkpt lat="41.92849" lon="-0.7448">
        <time>2022-07-31T14:38:37Z</time>
      </trkpt>
      <trkpt lat="41.92815" lon="-0.74502">
        <time>2022-07-31T14:38:38Z</time>
      </trkpt>
      <trkpt lat="41.92783" lon="-0.74523">
        <time>2022-07-31T14:38:39Z</time>
      </trkpt>
      <trkpt lat="41.92749" lon="-0.74545">
        <time>2022-07-31T14:38:40Z</time>
      </trkpt>
      <trkpt lat="41.92716" lon="-0.74566">
        <time>2022-07-31T14:38:41Z</time>
      </trkpt>
      <trkpt lat="41.92683" lon="-0.74587">
        <time>2022-07-31T14:38:42Z</time>
      </trkpt>
      <trkpt lat="41.92649" lon="-0.74609">
        <time>2022-07-31T14:38:43Z</time>
      </trkpt>
      <trkpt lat="41.92616" lon="-0.74631">
        <time>2022-07-31T14:38:44Z</time>
      </trkpt>
      <trkpt lat="41.92583" lon="-0.74653">
        <time>2022-07-31T14:38:45Z</time>
      </trkpt>
      <trkpt lat="41.92549" lon="-0.74675">
        <time>2022-07-31T14:38:46Z</time>
      </trkpt>
      <trkpt lat="41.92516" lon="-0.74698">
        <time>2022-07-31T14:38:47Z</time>
      </trkpt>
      <trkpt lat="41.92483" lon="-0.74721">
        <time>2022-07-31T14:38:48Z</time>
      </trkpt>
      <trkpt lat="41.9245" lon="-0.74744">
        <time>2022-07-31T14:38:49Z</time>
      </trkpt>
      <trkpt lat="41.92417" lon="-0.74767">
        <time>2022-07-31T14:38:50Z</time>
      </trkpt>
      <trkpt lat="41.92383" lon="-0.74789">
        <time>2022-07-31T14:38:51Z</time>
      </trkpt>
      <trkpt lat="41.92349" lon="-0.74811">
        <time>2022-07-31T14:38:52Z</time>
      </trkpt>
      <trkpt lat="41.92315" lon="-0.74833">
        <time>2022-07-31T14:38:53Z</time>
      </trkpt>
      <trkpt lat="41.92282" lon="-0.74854">
        <time>2022-07-31T14:38:54Z</time>
      </trkpt>
      <trkpt lat="41.92248" lon="-0.74876">
        <time>2022-07-31T14:38:55Z</time>
      </trkpt>
      <trkpt lat="41.92215" lon="-0.74899">
        <time>2022-07-31T14:38:56Z</time>
      </trkpt>
      <trkpt lat="41.9218" lon="-0.74921">
        <time>2022-07-31T14:38:57Z</time>
      </trkpt>
      <trkpt lat="41.92146" lon="-0.74943">
        <time>2022-07-31T14:38:58Z</time>
      </trkpt>
      <trkpt lat="41.92111" lon="-0.74965">
        <time>2022-07-31T14:38:59Z</time>
      </trkpt>
      <trkpt lat="41.92077" lon="-0.74986">
        <time>2022-07-31T14:39:00Z</time>
      </trkpt>
      <trkpt lat="41.92043" lon="-0.75008">
        <time>2022-07-31T14:39:01Z</time>
      </trkpt>
      <trkpt lat="41.92009" lon="-0.7503">
        <time>2022-07-31T14:39:02Z</time>
      </trkpt>
      <trkpt lat="41.91975" lon="-0.75052">
        <time>2022-07-31T14:39:03Z</time>
      </trkpt>
      <trkpt lat="41.91941" lon="-0.75074">
        <time>2022-07-31T14:39:04Z</time>
      </trkpt>
      <trkpt lat="41.91908" lon="-0.75096">
        <time>2022-07-31T14:39:05Z</time>
      </trkpt>
      <trkpt lat="41.91874" lon="-0.75119">
        <time>2022-07-31T14:39:06Z</time>
      </trkpt>
      <trkpt lat="41.91841" lon="-0.75141">
        <time>2022-07-31T14:39:07Z</time>
      </trkpt>
      <trkpt lat="41.91808" lon="-0.75165">
        <time>2022-07-31T14:39:08Z</time>
      </trkpt>
      <trkpt lat="41.91774" lon="-0.75188">
        <time>2022-07-31T14:39:09Z</time>
      </trkpt>
      <trkpt lat="41.9174" lon="-0.75211">
        <time>2022-07-31T14:39:10Z</time>
      </trkpt>
      <trkpt lat="41.91706" lon="-0.75234">
        <time>2022-07-31T14:39:11Z</time>
      </trkpt>
      <trkpt lat="41.91673" lon="-0.75256">
        <time>2022-07-31T14:39:12Z</time>
      </trkpt>
      <trkpt lat="41.91639" lon="-0.75278">
        <time>2022-07-31T14:39:13Z</time>
      </trkpt>
      <trkpt lat="41.91605" lon="-0.75299">
        <time>2022-07-31T14:39:14Z</time>
      </trkpt>
      <trkpt lat="41.91572" lon="-0.75322">
        <time>2022-07-31T14:39:15Z</time>
      </trkpt>
      <trkpt lat="41.91539" lon="-0.75343">
        <time>2022-07-31T14:39:16Z</time>
      </trkpt>
      <trkpt lat="41.91507" lon="-0.75365">
        <time>2022-07-31T14:39:17Z</time>
      </trkpt>
      <trkpt lat="41.91474" lon="-0.75387">
        <time>2022-07-31T14:39:18Z</time>
      </trkpt>
      <trkpt lat="41.91442" lon="-0.75408">
        <time>2022-07-31T14:39:19Z</time>
      </trkpt>
      <trkpt lat="41.9141" lon="-0.75431">
        <time>2022-07-31T14:39:20Z</time>
      </trkpt>
      <trkpt lat="41.91378" lon="-0.75455">
        <time>2022-07-31T14:39:21Z</time>
      </trkpt>
      <trkpt lat="41.91347" lon="-0.75479">
        <time>2022-07-31T14:39:22Z</time>
      </trkpt>
      <trkpt lat="41.91316" lon="-0.75505">
        <time>2022-07-31T14:39:23Z</time>
      </trkpt>
      <trkpt lat="41.91285" lon="-0.75531">
        <time>2022-07-31T14:39:24Z</time>
      </trkpt>
      <trkpt lat="41.91255" lon="-0.75558">
        <time>2022-07-31T14:39:25Z</time>
      </trkpt>
      <trkpt lat="41.91224" lon="-0.75585">
        <time>2022-07-31T14:39:26Z</time>
      </trkpt>
      <trkpt lat="41.91194" lon="-0.75613">
        <time>2022-07-31T14:39:27Z</time>
      </trkpt>
      <trkpt lat="41.91164" lon="-0.7564">
        <time>2022-07-31T14:39:28Z</time>
      </trkpt>
      <trkpt lat="41.91134" lon="-0.75667">
        <time>2022-07-31T14:39:29Z</time>
      </trkpt>
      <trkpt lat="41.91103" lon="-0.75693">
        <time>2022-07-31T14:39:30Z</time>
      </trkpt>
      <trkpt lat="41.91072" lon="-0.75718">
        <time>2022-07-31T14:39:31Z</time>
      </trkpt>
      <trkpt lat="41.91041" lon="-0.75743">
        <time>2022-07-31T14:39:32Z</time>
      </trkpt>
      <trkpt lat="41.91009" lon="-0.75767">
        <time>2022-07-31T14:39:33Z</time>
      </trkpt>
      <trkpt lat="41.90977" lon="-0.75789">
        <time>2022-07-31T14:39:34Z</time>
      </trkpt>
      <trkpt lat="41.90944" lon="-0.75811">
        <time>2022-07-31T14:39:35Z</time>
      </trkpt>
      <trkpt lat="41.90911" lon="-0.75833">
        <time>2022-07-31T14:39:36Z</time>
      </trkpt>
      <trkpt lat="41.90878" lon="-0.75854">
        <time>2022-07-31T14:39:37Z</time>
      </trkpt>
      <trkpt lat="41.90845" lon="-0.75876">
        <time>2022-07-31T14:39:38Z</time>
      </trkpt>
      <trkpt lat="41.90812" lon="-0.75898">
        <time>2022-07-31T14:39:39Z</time>
      </trkpt>
      <trkpt lat="41.90778" lon="-0.75921">
        <time>2022-07-31T14:39:40Z</time>
      </trkpt>
      <trkpt lat="41.90744" lon="-0.75942">
        <time>2022-07-31T14:39:41Z</time>
      </trkpt>
      <trkpt lat="41.9071" lon="-0.75964">
        <time>2022-07-31T14:39:42Z</time>
      </trkpt>
      <trkpt lat="41.90677" lon="-0.75986">
        <time>2022-07-31T14:39:43Z</time>
      </trkpt>
      <trkpt lat="41.90643" lon="-0.76009">
        <time>2022-07-31T14:39:44Z</time>
      </trkpt>
      <trkpt lat="41.90609" lon="-0.7603">
        <time>2022-07-31T14:39:45Z</time>
      </trkpt>
      <trkpt lat="41.90576" lon="-0.76052">
        <time>2022-07-31T14:39:46Z</time>
      </trkpt>
      <trkpt lat="41.90542" lon="-0.76075">
        <time>2022-07-31T14:39:47Z</time>
      </trkpt>
      <trkpt lat="41.90509" lon="-0.76097">
        <time>2022-07-31T14:39:48Z</time>
      </trkpt>
      <trkpt lat="41.90475" lon="-0.76119">
        <time>2022-07-31T14:39:49Z</time>
      </trkpt>
      <trkpt lat="41.90442" lon="-0.76142">
        <time>2022-07-31T14:39:50Z</time>
      </trkpt>
      <trkpt lat="41.90408" lon="-0.76163">
        <time>2022-07-31T14:39:51Z</time>
      </trkpt>
      <trkpt lat="41.90375" lon="-0.76186">
        <time>2022-07-31T14:39:52Z</time>
      </trkpt>
      <trkpt lat="41.90341" lon="-0.76207">
        <time>2022-07-31T14:39:53Z</time>
      </trkpt>
      <trkpt lat="41.90308" lon="-0.76229">
        <time>2022-07-31T14:39:54Z</time>
      </trkpt>
      <trkpt lat="41.90275" lon="-0.76252">
        <time>2022-07-31T14:39:55Z</time>
      </trkpt>
      <trkpt lat="41.90241" lon="-0.76274">
        <time>2022-07-31T14:39:56Z</time>
      </trkpt>
      <trkpt lat="41.90207" lon="-0.76296">
        <time>2022-07-31T14:39:57Z</time>
      </trkpt>
      <trkpt lat="41.90173" lon="-0.76318">
        <time>2022-07-31T14:39:58Z</time>
      </trkpt>
      <trkpt lat="41.9014" lon="-0.7634">
        <time>2022-07-31T14:39:59Z</time>
      </trkpt>
      <trkpt lat="41.90106" lon="-0.76362">
        <time>2022-07-31T14:40:00Z</time>
      </trkpt>
      <trkpt lat="41.90073" lon="-0.76384">
        <time>2022-07-31T14:40:01Z</time>
      </trkpt>
      <trkpt lat="41.90039" lon="-0.76406">
        <time>2022-07-31T14:40:02Z</time>
      </trkpt>
      <trkpt lat="41.90006" lon="-0.76428">
        <time>2022-07-31T14:40:03Z</time>
      </trkpt>
      <trkpt lat="41.89972" lon="-0.7645">
        <time>2022-07-31T14:40:04Z</time>
      </trkpt>
      <trkpt lat="41.89938" lon="-0.76471">
        <time>2022-07-31T14:40:05Z</time>
      </trkpt>
      <trkpt lat="41.89904" lon="-0.76491">
        <time>2022-07-31T14:40:06Z</time>
      </trkpt>
      <trkpt lat="41.89869" lon="-0.76511">
        <time>2022-07-31T14:40:07Z</time>
      </trkpt>
      <trkpt lat="41.89834" lon="-0.7653">
        <time>2022-07-31T14:40:08Z</time>
      </trkpt>
      <trkpt lat="41.89799" lon="-0.76548">
        <time>2022-07-31T14:40:09Z</time>
      </trkpt>
      <trkpt lat="41.89765" lon="-0.76565">
        <time>2022-07-31T14:40:10Z</time>
      </trkpt>
      <trkpt lat="41.8973" lon="-0.7658">
        <time>2022-07-31T14:40:11Z</time>
      </trkpt>
      <trkpt lat="41.89695" lon="-0.76595">
        <time>2022-07-31T14:40:12Z</time>
      </trkpt>
      <trkpt lat="41.89661" lon="-0.76608">
        <time>2022-07-31T14:40:13Z</time>
      </trkpt>
      <trkpt lat="41.89625" lon="-0.76621">
        <time>2022-07-31T14:40:14Z</time>
      </trkpt>
      <trkpt lat="41.8959" lon="-0.76633">
        <time>2022-07-31T14:40:15Z</time>
      </trkpt>
      <trkpt lat="41.89553" lon="-0.76644">
        <time>2022-07-31T14:40:16Z</time>
      </trkpt>
      <trkpt lat="41.89517" lon="-0.76654">
        <time>2022-07-31T14:40:17Z</time>
      </trkpt>
      <trkpt lat="41.89481" lon="-0.76663">
        <time>2022-07-31T14:40:18Z</time>
      </trkpt>
      <trkpt lat="41.89444" lon="-0.76673">
        <time>2022-07-31T14:40:19Z</time>
      </trkpt>
      <trkpt lat="41.89407" lon="-0.76684">
        <time>2022-07-31T14:40:20Z</time>
      </trkpt>
      <trkpt lat="41.8937" lon="-0.76694">
        <time>2022-07-31T14:40:21Z</time>
      </trkpt>
      <trkpt lat="41.89333" lon="-0.76704">
        <time>2022-07-31T14:40:22Z</time>
      </trkpt>
      <trkpt lat="41.89296" lon="-0.76714">
        <time>2022-07-31T14:40:23Z</time>
      </trkpt>
      <trkpt lat="41.8926" lon="-0.76724">
        <time>2022-07-31T14:40:24Z</time>
      </trkpt>
      <trkpt lat="41.89223" lon="-0.76734">
        <time>2022-07-31T14:40:25Z</time>
      </trkpt>
      <trkpt lat="41.89186" lon="-0.76744">
        <time>2022-07-31T14:40:26Z</time>
      </trkpt>
      <trkpt lat="41.8915" lon="-0.76754">
        <time>2022-07-31T14:40:27Z</time>
      </trkpt>
      <trkpt lat="41.89113" lon="-0.76764">
        <time>2022-07-31T14:40:28Z</time>
      </trkpt>
      <trkpt lat="41.89077" lon="-0.76773">
        <time>2022-07-31T14:40:29Z</time>
      </trkpt>
      <trkpt lat="41.8904" lon="-0.76784">
        <time>2022-07-31T14:40:30Z</time>
      </trkpt>
      <trkpt lat="41.89003" lon="-0.76794">
        <time>2022-07-31T14:40:31Z</time>
      </trkpt>
      <trkpt lat="41.88967" lon="-0.76804">
        <time>2022-07-31T14:40:32Z</time>
      </trkpt>
      <trkpt lat="41.8893" lon="-0.76814">
        <time>2022-07-31T14:40:33Z</time>
      </trkpt>
      <trkpt lat="41.88893" lon="-0.76825">
        <time>2022-07-31T14:40:34Z</time>
      </trkpt>
      <trkpt lat="41.88857" lon="-0.76835">
        <time>2022-07-31T14:40:35Z</time>
      </trkpt>
      <trkpt lat="41.88821" lon="-0.76846">
        <time>2022-07-31T14:40:36Z</time>
      </trkpt>
      <trkpt lat="41.88785" lon="-0.76857">
        <time>2022-07-31T14:40:37Z</time>
      </trkpt>
      <trkpt lat="41.88749" lon="-0.76869">
        <time>2022-07-31T14:40:38Z</time>
      </trkpt>
      <trkpt lat="41.88714" lon="-0.76882">
        <time>2022-07-31T14:40:39Z</time>
      </trkpt>
      <trkpt lat="41.88679" lon="-0.76895">
        <time>2022-07-31T14:40:40Z</time>
      </trkpt>
      <trkpt lat="41.88643" lon="-0.7691">
        <time>2022-07-31T14:40:41Z</time>
      </trkpt>
      <trkpt lat="41.88608" lon="-0.76927">
        <time>2022-07-31T14:40:42Z</time>
      </trkpt>
      <trkpt lat="41.88574" lon="-0.76944">
        <time>2022-07-31T14:40:43Z</time>
      </trkpt>
      <trkpt lat="41.88539" lon="-0.76964">
        <time>2022-07-31T14:40:44Z</time>
      </trkpt>
      <trkpt lat="41.88506" lon="-0.76985">
        <time>2022-07-31T14:40:45Z</time>
      </trkpt>
      <trkpt lat="41.88473" lon="-0.77008">
        <time>2022-07-31T14:40:46Z</time>
      </trkpt>
      <trkpt lat="41.88441" lon="-0.77033">
        <time>2022-07-31T14:40:47Z</time>
      </trkpt>
      <trkpt lat="41.8841" lon="-0.77058">
        <time>2022-07-31T14:40:48Z</time>
      </trkpt>
      <trkpt lat="41.8838" lon="-0.77085">
        <time>2022-07-31T14:40:49Z</time>
      </trkpt>
      <trkpt lat="41.8835" lon="-0.77112">
        <time>2022-07-31T14:40:50Z</time>
      </trkpt>
      <trkpt lat="41.8832" lon="-0.77141">
        <time>2022-07-31T14:40:51Z</time>
      </trkpt>
      <trkpt lat="41.88292" lon="-0.77171">
        <time>2022-07-31T14:40:52Z</time>
      </trkpt>
      <trkpt lat="41.88264" lon="-0.77202">
        <time>2022-07-31T14:40:53Z</time>
      </trkpt>
      <trkpt lat="41.88237" lon="-0.77235">
        <time>2022-07-31T14:40:54Z</time>
      </trkpt>
      <trkpt lat="41.88211" lon="-0.77268">
        <time>2022-07-31T14:40:55Z</time>
      </trkpt>
      <trkpt lat="41.88186" lon="-0.77303">
        <time>2022-07-31T14:40:56Z</time>
      </trkpt>
      <trkpt lat="41.88162" lon="-0.77339">
        <time>2022-07-31T14:40:57Z</time>
      </trkpt>
      <trkpt lat="41.88138" lon="-0.77376">
        <time>2022-07-31T14:40:58Z</time>
      </trkpt>
      <trkpt lat="41.88116" lon="-0.77414">
        <time>2022-07-31T14:40:59Z</time>
      </trkpt>
      <trkpt lat="41.88095" lon="-0.77452">
        <time>2022-07-31T14:41:00Z</time>
      </trkpt>
      <trkpt lat="41.88075" lon="-0.7749">
        <time>2022-07-31T14:41:01Z</time>
      </trkpt>
      <trkpt lat="41.88056" lon="-0.77529">
        <time>2022-07-31T14:41:02Z</time>
      </trkpt>
      <trkpt lat="41.88038" lon="-0.77568">
        <time>2022-07-31T14:41:03Z</time>
      </trkpt>
      <trkpt lat="41.88022" lon="-0.77607">
        <time>2022-07-31T14:41:04Z</time>
      </trkpt>
      <trkpt lat="41.88007" lon="-0.77646">
        <time>2022-07-31T14:41:05Z</time>
      </trkpt>
      <trkpt lat="41.87993" lon="-0.77686">
        <time>2022-07-31T14:41:06Z</time>
      </trkpt>
      <trkpt lat="41.8798" lon="-0.77726">
        <time>2022-07-31T14:41:07Z</time>
      </trkpt>
      <trkpt lat="41.87968" lon="-0.77766">
        <time>2022-07-31T14:41:08Z</time>
      </trkpt>
      <trkpt lat="41.87957" lon="-0.77806">
        <time>2022-07-31T14:41:09Z</time>
      </trkpt>
      <trkpt lat="41.87947" lon="-0.77847">
        <time>2022-07-31T14:41:10Z</time>
      </trkpt>
      <trkpt lat="41.87938" lon="-0.77889">
        <time>2022-07-31T14:41:11Z</time>
      </trkpt>
      <trkpt lat="41.8793" lon="-0.77931">
        <time>2022-07-31T14:41:12Z</time>
      </trkpt>
      <trkpt lat="41.87923" lon="-0.77972">
        <time>2022-07-31T14:41:13Z</time>
      </trkpt>
      <trkpt lat="41.87916" lon="-0.78014">
        <time>2022-07-31T14:41:14Z</time>
      </trkpt>
      <trkpt lat="41.8791" lon="-0.78056">
        <time>2022-07-31T14:41:15Z</time>
      </trkpt>
      <trkpt lat="41.87906" lon="-0.78098">
        <time>2022-07-31T14:41:16Z</time>
      </trkpt>
      <trkpt lat="41.87901" lon="-0.78139">
        <time>2022-07-31T14:41:17Z</time>
      </trkpt>
      <trkpt lat="41.87897" lon="-0.7818">
        <time>2022-07-31T14:41:18Z</time>
      </trkpt>
      <trkpt lat="41.87894" lon="-0.7822">
        <time>2022-07-31T14:41:19Z</time>
      </trkpt>
      <trkpt lat="41.8789" lon="-0.78262">
        <time>2022-07-31T14:41:20Z</time>
      </trkpt>
      <trkpt lat="41.87887" lon="-0.78305">
        <time>2022-07-31T14:41:21Z</time>
      </trkpt>
      <trkpt lat="41.87883" lon="-0.78349">
        <time>2022-07-31T14:41:22Z</time>
      </trkpt>
      <trkpt lat="41.8788" lon="-0.78394">
        <time>2022-07-31T14:41:23Z</time>
      </trkpt>
      <trkpt lat="41.87877" lon="-0.78441">
        <time>2022-07-31T14:41:24Z</time>
      </trkpt>
      <trkpt lat="41.87874" lon="-0.78488">
        <time>2022-07-31T14:41:25Z</time>
      </trkpt>
      <trkpt lat="41.87872" lon="-0.78536">
        <time>2022-07-31T14:41:26Z</time>
      </trkpt>
      <trkpt lat="41.8787" lon="-0.78584">
        <time>2022-07-31T14:41:27Z</time>
      </trkpt>
      <trkpt lat="41.87868" lon="-0.78633">
        <time>2022-07-31T14:41:28Z</time>
      </trkpt>
      <trkpt lat="41.87865" lon="-0.78682">
        <time>2022-07-31T14:41:29Z</time>
      </trkpt>
      <trkpt lat="41.87862" lon="-0.78731">
        <time>2022-07-31T14:41:30Z</time>
      </trkpt>
      <trkpt lat="41.87858" lon="-0.7878">
        <time>2022-07-31T14:41:31Z</time>
      </trkpt>
      <trkpt lat="41.87855" lon="-0.7883">
        <time>2022-07-31T14:41:32Z</time>
      </trkpt>
      <trkpt lat="41.87851" lon="-0.7888">
        <time>2022-07-31T14:41:33Z</time>
      </trkpt>
      <trkpt lat="41.87845" lon="-0.78929">
        <time>2022-07-31T14:41:34Z</time>
      </trkpt>
      <trkpt lat="41.87838" lon="-0.78978">
        <time>2022-07-31T14:41:35Z</time>
      </trkpt>
      <trkpt lat="41.87831" lon="-0.79027">
        <time>2022-07-31T14:41:36Z</time>
      </trkpt>
      <trkpt lat="41.87821" lon="-0.79075">
        <time>2022-07-31T14:41:37Z</time>
      </trkpt>
      <trkpt lat="41.87811" lon="-0.79123">
        <time>2022-07-31T14:41:38Z</time>
      </trkpt>
      <trkpt lat="41.87799" lon="-0.7917">
        <time>2022-07-31T14:41:39Z</time>
      </trkpt>
      <trkpt lat="41.87786" lon="-0.79217">
        <time>2022-07-31T14:41:40Z</time>
      </trkpt>
      <trkpt lat="41.87772" lon="-0.79263">
        <time>2022-07-31T14:41:41Z</time>
      </trkpt>
      <trkpt lat="41.87756" lon="-0.79308">
        <time>2022-07-31T14:41:42Z</time>
      </trkpt>
      <trkpt lat="41.87738" lon="-0.79352">
        <time>2022-07-31T14:41:43Z</time>
      </trkpt>
      <trkpt lat="41.87719" lon="-0.79395">
        <time>2022-07-31T14:41:44Z</time>
      </trkpt>
      <trkpt lat="41.877" lon="-0.79437">
        <time>2022-07-31T14:41:45Z</time>
      </trkpt>
      <trkpt lat="41.87678" lon="-0.79479">
        <time>2022-07-31T14:41:46Z</time>
      </trkpt>
      <trkpt lat="41.87655" lon="-0.79517">
        <time>2022-07-31T14:41:47Z</time>
      </trkpt>
      <trkpt lat="41.87632" lon="-0.79555">
        <time>2022-07-31T14:41:48Z</time>
      </trkpt>
      <trkpt lat="41.87607" lon="-0.79592">
        <time>2022-07-31T14:41:49Z</time>
      </trkpt>
      <trkpt lat="41.87581" lon="-0.79626">
        <time>2022-07-31T14:41:50Z</time>
      </trkpt>
      <trkpt lat="41.87554" lon="-0.7966">
        <time>2022-07-31T14:41:51Z</time>
      </trkpt>
      <trkpt lat="41.87525" lon="-0.79692">
        <time>2022-07-31T14:41:52Z</time>
      </trkpt>
      <trkpt lat="41.87496" lon="-0.79722">
        <time>2022-07-31T14:41:53Z</time>
      </trkpt>
      <trkpt lat="41.87465" lon="-0.7975">
        <time>2022-07-31T14:41:54Z</time>
      </trkpt>
      <trkpt lat="41.87434" lon="-0.79777">
        <time>2022-07-31T14:41:55Z</time>
      </trkpt>
      <trkpt lat="41.87403" lon="-0.79802">
        <time>2022-07-31T14:41:56Z</time>
      </trkpt>
      <trkpt lat="41.8737" lon="-0.79826">
        <time>2022-07-31T14:41:57Z</time>
      </trkpt>
      <trkpt lat="41.87336" lon="-0.79847">
        <time>2022-07-31T14:41:58Z</time>
      </trkpt>
      <trkpt lat="41.87302" lon="-0.79866">
        <time>2022-07-31T14:41:59Z</time>
      </trkpt>
      <trkpt lat="41.87268" lon="-0.79883">
        <time>2022-07-31T14:42:00Z</time>
      </trkpt>
      <trkpt lat="41.87232" lon="-0.79899">
        <time>2022-07-31T14:42:01Z</time>
      </trkpt>
      <trkpt lat="41.87197" lon="-0.79913">
        <time>2022-07-31T14:42:02Z</time>
      </trkpt>
      <trkpt lat="41.87161" lon="-0.79925">
        <time>2022-07-31T14:42:03Z</time>
      </trkpt>
      <trkpt lat="41.87125" lon="-0.79934">
        <time>2022-07-31T14:42:04Z</time>
      </trkpt>
      <trkpt lat="41.87089" lon="-0.79942">
        <time>2022-07-31T14:42:05Z</time>
      </trkpt>
      <trkpt lat="41.87052" lon="-0.79947">
        <time>2022-07-31T14:42:06Z</time>
      </trkpt>
      <trkpt lat="41.87016" lon="-0.79951">
        <time>2022-07-31T14:42:07Z</time>
      </trkpt>
      <trkpt lat="41.86979" lon="-0.79953">
        <time>2022-07-31T14:42:08Z</time>
      </trkpt>
      <trkpt lat="41.86942" lon="-0.79953">
        <time>2022-07-31T14:42:09Z</time>
      </trkpt>
      <trkpt lat="41.86905" lon="-0.7995">
        <time>2022-07-31T14:42:10Z</time>
      </trkpt>
      <trkpt lat="41.86868" lon="-0.79947">
        <time>2022-07-31T14:42:11Z</time>
      </trkpt>
      <trkpt lat="41.8683" lon="-0.79942">
        <time>2022-07-31T14:42:12Z</time>
      </trkpt>
      <trkpt lat="41.86794" lon="-0.79936">
        <time>2022-07-31T14:42:13Z</time>
      </trkpt>
      <trkpt lat="41.86757" lon="-0.79929">
        <time>2022-07-31T14:42:14Z</time>
      </trkpt>
      <trkpt lat="41.86721" lon="-0.79922">
        <time>2022-07-31T14:42:15Z</time>
      </trkpt>
      <trkpt lat="41.86685" lon="-0.79913">
        <time>2022-07-31T14:42:16Z</time>
      </trkpt>
      <trkpt lat="41.86649" lon="-0.79905">
        <time>2022-07-31T14:42:17Z</time>
      </trkpt>
      <trkpt lat="41.86613" lon="-0.79895">
        <time>2022-07-31T14:42:18Z</time>
      </trkpt>
      <trkpt lat="41.86577" lon="-0.79886">
        <time>2022-07-31T14:42:19Z</time>
      </trkpt>
      <trkpt lat="41.86542" lon="-0.79876">
        <time>2022-07-31T14:42:20Z</time>
      </trkpt>
      <trkpt lat="41.86506" lon="-0.79868">
        <time>2022-07-31T14:42:21Z</time>
      </trkpt>
      <trkpt lat="41.86471" lon="-0.79859">
        <time>2022-07-31T14:42:22Z</time>
      </trkpt>
      <trkpt lat="41.86435" lon="-0.79852">
        <time>2022-07-31T14:42:23Z</time>
      </trkpt>
      <trkpt lat="41.864" lon="-0.79845">
        <time>2022-07-31T14:42:24Z</time>
      </trkpt>
      <trkpt lat="41.86364" lon="-0.7984">
        <time>2022-07-31T14:42:25Z</time>
      </trkpt>
      <trkpt lat="41.86329" lon="-0.79837">
        <time>2022-07-31T14:42:26Z</time>
      </trkpt>
      <trkpt lat="41.86293" lon="-0.79837">
        <time>2022-07-31T14:42:27Z</time>
      </trkpt>
      <trkpt lat="41.86257" lon="-0.7984">
        <time>2022-07-31T14:42:28Z</time>
      </trkpt>
      <trkpt lat="41.86222" lon="-0.79844">
        <time>2022-07-31T14:42:29Z</time>
      </trkpt>
      <trkpt lat="41.86186" lon="-0.7985">
        <time>2022-07-31T14:42:30Z</time>
      </trkpt>
      <trkpt lat="41.86151" lon="-0.79859">
        <time>2022-07-31T14:42:31Z</time>
      </trkpt>
      <trkpt lat="41.86117" lon="-0.7987">
        <time>2022-07-31T14:42:32Z</time>
      </trkpt>
      <trkpt lat="41.86082" lon="-0.79884">
        <time>2022-07-31T14:42:33Z</time>
      </trkpt>
      <trkpt lat="41.86049" lon="-0.799">
        <time>2022-07-31T14:42:34Z</time>
      </trkpt>
      <trkpt lat="41.86015" lon="-0.79918">
        <time>2022-07-31T14:42:35Z</time>
      </trkpt>
      <trkpt lat="41.85983" lon="-0.79939">
        <time>2022-07-31T14:42:36Z</time>
      </trkpt>
      <trkpt lat="41.85951" lon="-0.79961">
        <time>2022-07-31T14:42:37Z</time>
      </trkpt>
      <trkpt lat="41.8592" lon="-0.79986">
        <time>2022-07-31T14:42:38Z</time>
      </trkpt>
      <trkpt lat="41.85889" lon="-0.80013">
        <time>2022-07-31T14:42:39Z</time>
      </trkpt>
      <trkpt lat="41.85859" lon="-0.8004">
        <time>2022-07-31T14:42:40Z</time>
      </trkpt>
      <trkpt lat="41.85829" lon="-0.80069">
        <time>2022-07-31T14:42:41Z</time>
      </trkpt>
      <trkpt lat="41.85799" lon="-0.80098">
        <time>2022-07-31T14:42:42Z</time>
      </trkpt>
      <trkpt lat="41.8577" lon="-0.80127">
        <time>2022-07-31T14:42:43Z</time>
      </trkpt>
      <trkpt lat="41.85741" lon="-0.80156">
        <time>2022-07-31T14:42:44Z</time>
      </trkpt>
      <trkpt lat="41.85712" lon="-0.80186">
        <time>2022-07-31T14:42:45Z</time>
      </trkpt>
      <trkpt lat="41.85683" lon="-0.80215">
        <time>2022-07-31T14:42:46Z</time>
      </trkpt>
      <trkpt lat="41.85653" lon="-0.80243">
        <time>2022-07-31T14:42:47Z</time>
      </trkpt>
      <trkpt lat="41.85623" lon="-0.8027">
        <time>2022-07-31T14:42:48Z</time>
      </trkpt>
      <trkpt lat="41.85592" lon="-0.80297">
        <time>2022-07-31T14:42:49Z</time>
      </trkpt>
      <trkpt lat="41.8556" lon="-0.80322">
        <time>2022-07-31T14:42:50Z</time>
      </trkpt>
      <trkpt lat="41.85527" lon="-0.80345">
        <time>2022-07-31T14:42:51Z</time>
      </trkpt>
      <trkpt lat="41.85494" lon="-0.80366">
        <time>2022-07-31T14:42:52Z</time>
      </trkpt>
      <trkpt lat="41.8546" lon="-0.80385">
        <time>2022-07-31T14:42:53Z</time>
      </trkpt>
      <trkpt lat="41.85425" lon="-0.80403">
        <time>2022-07-31T14:42:54Z</time>
      </trkpt>
      <trkpt lat="41.8539" lon="-0.80418">
        <time>2022-07-31T14:42:55Z</time>
      </trkpt>
      <trkpt lat="41.85355" lon="-0.8043">
        <time>2022-07-31T14:42:56Z</time>
      </trkpt>
      <trkpt lat="41.85319" lon="-0.80441">
        <time>2022-07-31T14:42:57Z</time>
      </trkpt>
      <trkpt lat="41.85282" lon="-0.80449">
        <time>2022-07-31T14:42:58Z</time>
      </trkpt>
      <trkpt lat="41.85245" lon="-0.80454">
        <time>2022-07-31T14:42:59Z</time>
      </trkpt>
      <trkpt lat="41.85208" lon="-0.80457">
        <time>2022-07-31T14:43:00Z</time>
      </trkpt>
      <trkpt lat="41.8517" lon="-0.80457">
        <time>2022-07-31T14:43:01Z</time>
      </trkpt>
      <trkpt lat="41.85133" lon="-0.80455">
        <time>2022-07-31T14:43:02Z</time>
      </trkpt>
      <trkpt lat="41.85095" lon="-0.8045">
        <time>2022-07-31T14:43:03Z</time>
      </trkpt>
      <trkpt lat="41.85058" lon="-0.80443">
        <time>2022-07-31T14:43:04Z</time>
      </trkpt>
      <trkpt lat="41.8502" lon="-0.80434">
        <time>2022-07-31T14:43:05Z</time>
      </trkpt>
      <trkpt lat="41.84982" lon="-0.80424">
        <time>2022-07-31T14:43:06Z</time>
      </trkpt>
      <trkpt lat="41.84945" lon="-0.80412">
        <time>2022-07-31T14:43:07Z</time>
      </trkpt>
      <trkpt lat="41.84908" lon="-0.804">
        <time>2022-07-31T14:43:08Z</time>
      </trkpt>
      <trkpt lat="41.8487" lon="-0.80389">
        <time>2022-07-31T14:43:09Z</time>
      </trkpt>
      <trkpt lat="41.84832" lon="-0.80377">
        <time>2022-07-31T14:43:10Z</time>
      </trkpt>
      <trkpt lat="41.84795" lon="-0.80366">
        <time>2022-07-31T14:43:11Z</time>
      </trkpt>
      <trkpt lat="41.84757" lon="-0.80355">
        <time>2022-07-31T14:43:12Z</time>
      </trkpt>
      <trkpt lat="41.8472" lon="-0.80344">
        <time>2022-07-31T14:43:13Z</time>
      </trkpt>
      <trkpt lat="41.84683" lon="-0.80333">
        <time>2022-07-31T14:43:14Z</time>
      </trkpt>
      <trkpt lat="41.84645" lon="-0.80323">
        <time>2022-07-31T14:43:15Z</time>
      </trkpt>
      <trkpt lat="41.84608" lon="-0.80314">
        <time>2022-07-31T14:43:16Z</time>
      </trkpt>
      <trkpt lat="41.84571" lon="-0.80306">
        <time>2022-07-31T14:43:17Z</time>
      </trkpt>
      <trkpt lat="41.84533" lon="-0.80299">
        <time>2022-07-31T14:43:18Z</time>
      </trkpt>
      <trkpt lat="41.84496" lon="-0.80293">
        <time>2022-07-31T14:43:19Z</time>
      </trkpt>
      <trkpt lat="41.84459" lon="-0.80289">
        <time>2022-07-31T14:43:20Z</time>
      </trkpt>
      <trkpt lat="41.84422" lon="-0.80285">
        <time>2022-07-31T14:43:21Z</time>
      </trkpt>
      <trkpt lat="41.84384" lon="-0.80283">
        <time>2022-07-31T14:43:22Z</time>
      </trkpt>
      <trkpt lat="41.84347" lon="-0.80282">
        <time>2022-07-31T14:43:23Z</time>
      </trkpt>
      <trkpt lat="41.8431" lon="-0.80282">
        <time>2022-07-31T14:43:24Z</time>
      </trkpt>
      <trkpt lat="41.84274" lon="-0.80284">
        <time>2022-07-31T14:43:25Z</time>
      </trkpt>
      <trkpt lat="41.84237" lon="-0.80287">
        <time>2022-07-31T14:43:26Z</time>
      </trkpt>
      <trkpt lat="41.842" lon="-0.80292">
        <time>2022-07-31T14:43:27Z</time>
      </trkpt>
      <trkpt lat="41.84163" lon="-0.80298">
        <time>2022-07-31T14:43:28Z</time>
      </trkpt>
      <trkpt lat="41.84127" lon="-0.80305">
        <time>2022-07-31T14:43:29Z</time>
      </trkpt>
      <trkpt lat="41.8409" lon="-0.80315">
        <time>2022-07-31T14:43:30Z</time>
      </trkpt>
      <trkpt lat="41.84054" lon="-0.80326">
        <time>2022-07-31T14:43:31Z</time>
      </trkpt>
      <trkpt lat="41.84018" lon="-0.80338">
        <time>2022-07-31T14:43:32Z</time>
      </trkpt>
      <trkpt lat="41.83981" lon="-0.80352">
        <time>2022-07-31T14:43:33Z</time>
      </trkpt>
      <trkpt lat="41.83946" lon="-0.80367">
        <time>2022-07-31T14:43:34Z</time>
      </trkpt>
      <trkpt lat="41.83911" lon="-0.80383">
        <time>2022-07-31T14:43:35Z</time>
      </trkpt>
      <trkpt lat="41.83876" lon="-0.80399">
        <time>2022-07-31T14:43:36Z</time>
      </trkpt>
      <trkpt lat="41.8384" lon="-0.80417">
        <time>2022-07-31T14:43:37Z</time>
      </trkpt>
      <trkpt lat="41.83805" lon="-0.80436">
        <time>2022-07-31T14:43:38Z</time>
      </trkpt>
      <trkpt lat="41.83771" lon="-0.80455">
        <time>2022-07-31T14:43:39Z</time>
      </trkpt>
      <trkpt lat="41.83735" lon="-0.80475">
        <time>2022-07-31T14:43:40Z</time>
      </trkpt>
      <trkpt lat="41.83701" lon="-0.80495">
        <time>2022-07-31T14:43:41Z</time>
      </trkpt>
      <trkpt lat="41.83666" lon="-0.80516">
        <time>2022-07-31T14:43:42Z</time>
      </trkpt>
      <trkpt lat="41.83631" lon="-0.80537">
        <time>2022-07-31T14:43:43Z</time>
      </trkpt>
      <trkpt lat="41.83597" lon="-0.80558">
        <time>2022-07-31T14:43:44Z</time>
      </trkpt>
      <trkpt lat="41.83563" lon="-0.80579">
        <time>2022-07-31T14:43:45Z</time>
      </trkpt>
      <trkpt lat="41.83528" lon="-0.806">
        <time>2022-07-31T14:43:46Z</time>
      </trkpt>
      <trkpt lat="41.83494" lon="-0.8062">
        <time>2022-07-31T14:43:47Z</time>
      </trkpt>
      <trkpt lat="41.8346" lon="-0.80639">
        <time>2022-07-31T14:43:48Z</time>
      </trkpt>
      <trkpt lat="41.83426" lon="-0.80658">
        <time>2022-07-31T14:43:49Z</time>
      </trkpt>
      <trkpt lat="41.83393" lon="-0.80676">
        <time>2022-07-31T14:43:50Z</time>
      </trkpt>
      <trkpt lat="41.83358" lon="-0.80694">
        <time>2022-07-31T14:43:51Z</time>
      </trkpt>
      <trkpt lat="41.83324" lon="-0.8071">
        <time>2022-07-31T14:43:52Z</time>
      </trkpt>
      <trkpt lat="41.8329" lon="-0.80725">
        <time>2022-07-31T14:43:53Z</time>
      </trkpt>
      <trkpt lat="41.83255" lon="-0.8074">
        <time>2022-07-31T14:43:54Z</time>
      </trkpt>
      <trkpt lat="41.8322" lon="-0.80755">
        <time>2022-07-31T14:43:55Z</time>
      </trkpt>
      <trkpt lat="41.83184" lon="-0.80768">
        <time>2022-07-31T14:43:56Z</time>
      </trkpt>
      <trkpt lat="41.83149" lon="-0.8078">
        <time>2022-07-31T14:43:57Z</time>
      </trkpt>
      <trkpt lat="41.83114" lon="-0.80791">
        <time>2022-07-31T14:43:58Z</time>
      </trkpt>
      <trkpt lat="41.83079" lon="-0.80802">
        <time>2022-07-31T14:43:59Z</time>
      </trkpt>
      <trkpt lat="41.83044" lon="-0.80812">
        <time>2022-07-31T14:44:00Z</time>
      </trkpt>
      <trkpt lat="41.83008" lon="-0.8082">
        <time>2022-07-31T14:44:01Z</time>
      </trkpt>
      <trkpt lat="41.82972" lon="-0.80827">
        <time>2022-07-31T14:44:02Z</time>
      </trkpt>
      <trkpt lat="41.82936" lon="-0.80833">
        <time>2022-07-31T14:44:03Z</time>
      </trkpt>
      <trkpt lat="41.829" lon="-0.80839">
        <time>2022-07-31T14:44:04Z</time>
      </trkpt>
      <trkpt lat="41.82864" lon="-0.80843">
        <time>2022-07-31T14:44:05Z</time>
      </trkpt>
      <trkpt lat="41.82828" lon="-0.80846">
        <time>2022-07-31T14:44:06Z</time>
      </trkpt>
      <trkpt lat="41.82792" lon="-0.80849">
        <time>2022-07-31T14:44:07Z</time>
      </trkpt>
      <trkpt lat="41.82755" lon="-0.80852">
        <time>2022-07-31T14:44:08Z</time>
      </trkpt>
      <trkpt lat="41.82718" lon="-0.80854">
        <time>2022-07-31T14:44:09Z</time>
      </trkpt>
      <trkpt lat="41.8268" lon="-0.80856">
        <time>2022-07-31T14:44:10Z</time>
      </trkpt>
      <trkpt lat="41.82643" lon="-0.80858">
        <time>2022-07-31T14:44:11Z</time>
      </trkpt>
      <trkpt lat="41.82605" lon="-0.8086">
        <time>2022-07-31T14:44:12Z</time>
      </trkpt>
      <trkpt lat="41.82568" lon="-0.80862">
        <time>2022-07-31T14:44:13Z</time>
      </trkpt>
      <trkpt lat="41.8253" lon="-0.80865">
        <time>2022-07-31T14:44:14Z</time>
      </trkpt>
      <trkpt lat="41.82492" lon="-0.80867">
        <time>2022-07-31T14:44:15Z</time>
      </trkpt>
      <trkpt lat="41.82454" lon="-0.8087">
        <time>2022-07-31T14:44:16Z</time>
      </trkpt>
      <trkpt lat="41.82416" lon="-0.80873">
        <time>2022-07-31T14:44:17Z</time>
      </trkpt>
      <trkpt lat="41.82378" lon="-0.80877">
        <time>2022-07-31T14:44:18Z</time>
      </trkpt>
      <trkpt lat="41.8234" lon="-0.80881">
        <time>2022-07-31T14:44:19Z</time>
      </trkpt>
      <trkpt lat="41.82301" lon="-0.80887">
        <time>2022-07-31T14:44:20Z</time>
      </trkpt>
      <trkpt lat="41.82263" lon="-0.80894">
        <time>2022-07-31T14:44:21Z</time>
      </trkpt>
      <trkpt lat="41.82225" lon="-0.80903">
        <time>2022-07-31T14:44:22Z</time>
      </trkpt>
      <trkpt lat="41.82187" lon="-0.80913">
        <time>2022-07-31T14:44:23Z</time>
      </trkpt>
      <trkpt lat="41.82149" lon="-0.80923">
        <time>2022-07-31T14:44:24Z</time>
      </trkpt>
      <trkpt lat="41.82111" lon="-0.80935">
        <time>2022-07-31T14:44:25Z</time>
      </trkpt>
      <trkpt lat="41.82073" lon="-0.80947">
        <time>2022-07-31T14:44:26Z</time>
      </trkpt>
      <trkpt lat="41.82036" lon="-0.80961">
        <time>2022-07-31T14:44:27Z</time>
      </trkpt>
      <trkpt lat="41.81999" lon="-0.80975">
        <time>2022-07-31T14:44:28Z</time>
      </trkpt>
      <trkpt lat="41.81962" lon="-0.80991">
        <time>2022-07-31T14:44:29Z</time>
      </trkpt>
      <trkpt lat="41.81926" lon="-0.81008">
        <time>2022-07-31T14:44:30Z</time>
      </trkpt>
      <trkpt lat="41.81891" lon="-0.81025">
        <time>2022-07-31T14:44:31Z</time>
      </trkpt>
      <trkpt lat="41.81855" lon="-0.81044">
        <time>2022-07-31T14:44:32Z</time>
      </trkpt>
      <trkpt lat="41.81821" lon="-0.81063">
        <time>2022-07-31T14:44:33Z</time>
      </trkpt>
      <trkpt lat="41.81787" lon="-0.81083">
        <time>2022-07-31T14:44:34Z</time>
      </trkpt>
      <trkpt lat="41.81753" lon="-0.81105">
        <time>2022-07-31T14:44:35Z</time>
      </trkpt>
      <trkpt lat="41.8172" lon="-0.81127">
        <time>2022-07-31T14:44:36Z</time>
      </trkpt>
      <trkpt lat="41.81688" lon="-0.81151">
        <time>2022-07-31T14:44:37Z</time>
      </trkpt>
      <trkpt lat="41.81656" lon="-0.81177">
        <time>2022-07-31T14:44:38Z</time>
      </trkpt>
      <trkpt lat="41.81624" lon="-0.81203">
        <time>2022-07-31T14:44:39Z</time>
      </trkpt>
      <trkpt lat="41.81593" lon="-0.81231">
        <time>2022-07-31T14:44:40Z</time>
      </trkpt>
      <trkpt lat="41.81563" lon="-0.81259">
        <time>2022-07-31T14:44:41Z</time>
      </trkpt>
      <trkpt lat="41.81532" lon="-0.81287">
        <time>2022-07-31T14:44:42Z</time>
      </trkpt>
      <trkpt lat="41.81503" lon="-0.81316">
        <time>2022-07-31T14:44:43Z</time>
      </trkpt>
      <trkpt lat="41.81473" lon="-0.81345">
        <time>2022-07-31T14:44:44Z</time>
      </trkpt>
      <trkpt lat="41.81444" lon="-0.81375">
        <time>2022-07-31T14:44:45Z</time>
      </trkpt>
      <trkpt lat="41.81415" lon="-0.81405">
        <time>2022-07-31T14:44:46Z</time>
      </trkpt>
      <trkpt lat="41.81386" lon="-0.81435">
        <time>2022-07-31T14:44:47Z</time>
      </trkpt>
      <trkpt lat="41.81358" lon="-0.81466">
        <time>2022-07-31T14:44:48Z</time>
      </trkpt>
      <trkpt lat="41.81329" lon="-0.81497">
        <time>2022-07-31T14:44:49Z</time>
      </trkpt>
      <trkpt lat="41.81302" lon="-0.81528">
        <time>2022-07-31T14:44:50Z</time>
      </trkpt>
      <trkpt lat="41.81274" lon="-0.81559">
        <time>2022-07-31T14:44:51Z</time>
      </trkpt>
      <trkpt lat="41.81247" lon="-0.8159">
        <time>2022-07-31T14:44:52Z</time>
      </trkpt>
      <trkpt lat="41.8122" lon="-0.81621">
        <time>2022-07-31T14:44:53Z</time>
      </trkpt>
      <trkpt lat="41.81192" lon="-0.81652">
        <time>2022-07-31T14:44:54Z</time>
      </trkpt>
      <trkpt lat="41.81165" lon="-0.81682">
        <time>2022-07-31T14:44:55Z</time>
      </trkpt>
      <trkpt lat="41.81137" lon="-0.81713">
        <time>2022-07-31T14:44:56Z</time>
      </trkpt>
      <trkpt lat="41.81109" lon="-0.81744">
        <time>2022-07-31T14:44:57Z</time>
      </trkpt>
      <trkpt lat="41.81081" lon="-0.81775">
        <time>2022-07-31T14:44:58Z</time>
      </trkpt>
      <trkpt lat="41.81052" lon="-0.81806">
        <time>2022-07-31T14:44:59Z</time>
      </trkpt>
      <trkpt lat="41.81024" lon="-0.81836">
        <time>2022-07-31T14:45:00Z</time>
      </trkpt>
      <trkpt lat="41.80995" lon="-0.81867">
        <time>2022-07-31T14:45:01Z</time>
      </trkpt>
      <trkpt lat="41.80966" lon="-0.81896">
        <time>2022-07-31T14:45:02Z</time>
      </trkpt>
      <trkpt lat="41.80937" lon="-0.81926">
        <time>2022-07-31T14:45:03Z</time>
      </trkpt>
      <trkpt lat="41.80907" lon="-0.81955">
        <time>2022-07-31T14:45:04Z</time>
      </trkpt>
      <trkpt lat="41.80878" lon="-0.81984">
        <time>2022-07-31T14:45:05Z</time>
      </trkpt>
      <trkpt lat="41.80848" lon="-0.82012">
        <time>2022-07-31T14:45:06Z</time>
      </trkpt>
      <trkpt lat="41.80818" lon="-0.82039">
        <time>2022-07-31T14:45:07Z</time>
      </trkpt>
      <trkpt lat="41.80786" lon="-0.82066">
        <time>2022-07-31T14:45:08Z</time>
      </trkpt>
      <trkpt lat="41.80755" lon="-0.82092">
        <time>2022-07-31T14:45:09Z</time>
      </trkpt>
      <trkpt lat="41.80723" lon="-0.82118">
        <time>2022-07-31T14:45:10Z</time>
      </trkpt>
      <trkpt lat="41.80691" lon="-0.82143">
        <time>2022-07-31T14:45:11Z</time>
      </trkpt>
      <trkpt lat="41.80659" lon="-0.82167">
        <time>2022-07-31T14:45:12Z</time>
      </trkpt>
      <trkpt lat="41.80627" lon="-0.82191">
        <time>2022-07-31T14:45:13Z</time>
      </trkpt>
      <trkpt lat="41.80594" lon="-0.82214">
        <time>2022-07-31T14:45:14Z</time>
      </trkpt>
      <trkpt lat="41.80561" lon="-0.82236">
        <time>2022-07-31T14:45:15Z</time>
      </trkpt>
      <trkpt lat="41.80527" lon="-0.82257">
        <time>2022-07-31T14:45:16Z</time>
      </trkpt>
      <trkpt lat="41.80493" lon="-0.82278">
        <time>2022-07-31T14:45:17Z</time>
      </trkpt>
      <trkpt lat="41.80459" lon="-0.82298">
        <time>2022-07-31T14:45:18Z</time>
      </trkpt>
      <trkpt lat="41.80425" lon="-0.82317">
        <time>2022-07-31T14:45:19Z</time>
      </trkpt>
      <trkpt lat="41.8039" lon="-0.82336">
        <time>2022-07-31T14:45:20Z</time>
      </trkpt>
      <trkpt lat="41.80356" lon="-0.82354">
        <time>2022-07-31T14:45:21Z</time>
      </trkpt>
      <trkpt lat="41.8032" lon="-0.82371">
        <time>2022-07-31T14:45:22Z</time>
      </trkpt>
      <trkpt lat="41.80285" lon="-0.82386">
        <time>2022-07-31T14:45:23Z</time>
      </trkpt>
      <trkpt lat="41.80249" lon="-0.82401">
        <time>2022-07-31T14:45:24Z</time>
      </trkpt>
      <trkpt lat="41.80212" lon="-0.82415">
        <time>2022-07-31T14:45:25Z</time>
      </trkpt>
      <trkpt lat="41.80176" lon="-0.82428">
        <time>2022-07-31T14:45:26Z</time>
      </trkpt>
      <trkpt lat="41.80139" lon="-0.82441">
        <time>2022-07-31T14:45:27Z</time>
      </trkpt>
      <trkpt lat="41.80102" lon="-0.82454">
        <time>2022-07-31T14:45:28Z</time>
      </trkpt>
      <trkpt lat="41.80066" lon="-0.82466">
        <time>2022-07-31T14:45:29Z</time>
      </trkpt>
      <trkpt lat="41.80029" lon="-0.82479">
        <time>2022-07-31T14:45:30Z</time>
      </trkpt>
      <trkpt lat="41.79992" lon="-0.8249">
        <time>2022-07-31T14:45:31Z</time>
      </trkpt>
      <trkpt lat="41.79954" lon="-0.825">
        <time>2022-07-31T14:45:32Z</time>
      </trkpt>
      <trkpt lat="41.79917" lon="-0.8251">
        <time>2022-07-31T14:45:33Z</time>
      </trkpt>
      <trkpt lat="41.7988" lon="-0.8252">
        <time>2022-07-31T14:45:34Z</time>
      </trkpt>
      <trkpt lat="41.79842" lon="-0.82528">
        <time>2022-07-31T14:45:35Z</time>
      </trkpt>
      <trkpt lat="41.79804" lon="-0.82537">
        <time>2022-07-31T14:45:36Z</time>
      </trkpt>
      <trkpt lat="41.79767" lon="-0.82545">
        <time>2022-07-31T14:45:37Z</time>
      </trkpt>
      <trkpt lat="41.79729" lon="-0.82553">
        <time>2022-07-31T14:45:38Z</time>
      </trkpt>
      <trkpt lat="41.79692" lon="-0.82561">
        <time>2022-07-31T14:45:39Z</time>
      </trkpt>
      <trkpt lat="41.79654" lon="-0.82568">
        <time>2022-07-31T14:45:40Z</time>
      </trkpt>
      <trkpt lat="41.79617" lon="-0.82576">
        <time>2022-07-31T14:45:41Z</time>
      </trkpt>
      <trkpt lat="41.79579" lon="-0.82583">
        <time>2022-07-31T14:45:42Z</time>
      </trkpt>
      <trkpt lat="41.79542" lon="-0.8259">
        <time>2022-07-31T14:45:43Z</time>
      </trkpt>
      <trkpt lat="41.79504" lon="-0.82598">
        <time>2022-07-31T14:45:44Z</time>
      </trkpt>
      <trkpt lat="41.79467" lon="-0.82606">
        <time>2022-07-31T14:45:45Z</time>
      </trkpt>
      <trkpt lat="41.79429" lon="-0.82615">
        <time>2022-07-31T14:45:46Z</time>
      </trkpt>
      <trkpt lat="41.79392" lon="-0.82625">
        <time>2022-07-31T14:45:47Z</time>
      </trkpt>
      <trkpt lat="41.79355" lon="-0.82636">
        <time>2022-07-31T14:45:48Z</time>
      </trkpt>
      <trkpt lat="41.79318" lon="-0.82647">
        <time>2022-07-31T14:45:49Z</time>
      </trkpt>
      <trkpt lat="41.79283" lon="-0.82658">
        <time>2022-07-31T14:45:50Z</time>
      </trkpt>
      <trkpt lat="41.79248" lon="-0.82669">
        <time>2022-07-31T14:45:51Z</time>
      </trkpt>
      <trkpt lat="41.79213" lon="-0.82682">
        <time>2022-07-31T14:45:52Z</time>
      </trkpt>
      <trkpt lat="41.79179" lon="-0.82696">
        <time>2022-07-31T14:45:53Z</time>
      </trkpt>
      <trkpt lat="41.79144" lon="-0.8271">
        <time>2022-07-31T14:45:54Z</time>
      </trkpt>
      <trkpt lat="41.7911" lon="-0.82724">
        <time>2022-07-31T14:45:55Z</time>
      </trkpt>
      <trkpt lat="41.79075" lon="-0.82739">
        <time>2022-07-31T14:45:56Z</time>
      </trkpt>
      <trkpt lat="41.79041" lon="-0.82755">
        <time>2022-07-31T14:45:57Z</time>
      </trkpt>
      <trkpt lat="41.79006" lon="-0.82772">
        <time>2022-07-31T14:45:58Z</time>
      </trkpt>
      <trkpt lat="41.78971" lon="-0.82789">
        <time>2022-07-31T14:45:59Z</time>
      </trkpt>
      <trkpt lat="41.78936" lon="-0.82808">
        <time>2022-07-31T14:46:00Z</time>
      </trkpt>
      <trkpt lat="41.78901" lon="-0.82827">
        <time>2022-07-31T14:46:01Z</time>
      </trkpt>
      <trkpt lat="41.78866" lon="-0.82846">
        <time>2022-07-31T14:46:02Z</time>
      </trkpt>
      <trkpt lat="41.78832" lon="-0.82866">
        <time>2022-07-31T14:46:03Z</time>
      </trkpt>
      <trkpt lat="41.78798" lon="-0.82886">
        <time>2022-07-31T14:46:04Z</time>
      </trkpt>
      <trkpt lat="41.78764" lon="-0.82907">
        <time>2022-07-31T14:46:05Z</time>
      </trkpt>
      <trkpt lat="41.7873" lon="-0.82928">
        <time>2022-07-31T14:46:06Z</time>
      </trkpt>
      <trkpt lat="41.78696" lon="-0.8295">
        <time>2022-07-31T14:46:07Z</time>
      </trkpt>
      <trkpt lat="41.78662" lon="-0.8297">
        <time>2022-07-31T14:46:08Z</time>
      </trkpt>
      <trkpt lat="41.78629" lon="-0.8299">
        <time>2022-07-31T14:46:09Z</time>
      </trkpt>
      <trkpt lat="41.78595" lon="-0.8301">
        <time>2022-07-31T14:46:10Z</time>
      </trkpt>
      <trkpt lat="41.7856" lon="-0.8303">
        <time>2022-07-31T14:46:11Z</time>
      </trkpt>
      <trkpt lat="41.78526" lon="-0.83049">
        <time>2022-07-31T14:46:12Z</time>
      </trkpt>
      <trkpt lat="41.78491" lon="-0.83068">
        <time>2022-07-31T14:46:13Z</time>
      </trkpt>
      <trkpt lat="41.78456" lon="-0.83086">
        <time>2022-07-31T14:46:14Z</time>
      </trkpt>
      <trkpt lat="41.7842" lon="-0.83103">
        <time>2022-07-31T14:46:15Z</time>
      </trkpt>
      <trkpt lat="41.78384" lon="-0.83119">
        <time>2022-07-31T14:46:16Z</time>
      </trkpt>
      <trkpt lat="41.78348" lon="-0.83135">
        <time>2022-07-31T14:46:17Z</time>
      </trkpt>
      <trkpt lat="41.78312" lon="-0.8315">
        <time>2022-07-31T14:46:18Z</time>
      </trkpt>
      <trkpt lat="41.78275" lon="-0.83164">
        <time>2022-07-31T14:46:19Z</time>
      </trkpt>
      <trkpt lat="41.78238" lon="-0.83177">
        <time>2022-07-31T14:46:20Z</time>
      </trkpt>
      <trkpt lat="41.78201" lon="-0.83189">
        <time>2022-07-31T14:46:21Z</time>
      </trkpt>
      <trkpt lat="41.78163" lon="-0.832">
        <time>2022-07-31T14:46:22Z</time>
      </trkpt>
      <trkpt lat="41.78125" lon="-0.83211">
        <time>2022-07-31T14:46:23Z</time>
      </trkpt>
      <trkpt lat="41.78087" lon="-0.83222">
        <time>2022-07-31T14:46:24Z</time>
      </trkpt>
      <trkpt lat="41.78049" lon="-0.83232">
        <time>2022-07-31T14:46:25Z</time>
      </trkpt>
      <trkpt lat="41.78012" lon="-0.83242">
        <time>2022-07-31T14:46:26Z</time>
      </trkpt>
      <trkpt lat="41.77974" lon="-0.83252">
        <time>2022-07-31T14:46:27Z</time>
      </trkpt>
      <trkpt lat="41.77935" lon="-0.83262">
        <time>2022-07-31T14:46:28Z</time>
      </trkpt>
      <trkpt lat="41.77897" lon="-0.83272">
        <time>2022-07-31T14:46:29Z</time>
      </trkpt>
      <trkpt lat="41.77859" lon="-0.83283">
        <time>2022-07-31T14:46:30Z</time>
      </trkpt>
      <trkpt lat="41.77821" lon="-0.83293">
        <time>2022-07-31T14:46:31Z</time>
      </trkpt>
      <trkpt lat="41.77783" lon="-0.83304">
        <time>2022-07-31T14:46:32Z</time>
      </trkpt>
      <trkpt lat="41.77746" lon="-0.83315">
        <time>2022-07-31T14:46:33Z</time>
      </trkpt>
      <trkpt lat="41.77708" lon="-0.83326">
        <time>2022-07-31T14:46:34Z</time>
      </trkpt>
      <trkpt lat="41.77671" lon="-0.83337">
        <time>2022-07-31T14:46:35Z</time>
      </trkpt>
      <trkpt lat="41.77633" lon="-0.83348">
        <time>2022-07-31T14:46:36Z</time>
      </trkpt>
      <trkpt lat="41.77596" lon="-0.83358">
        <time>2022-07-31T14:46:37Z</time>
      </trkpt>
      <trkpt lat="41.77558" lon="-0.83368">
        <time>2022-07-31T14:46:38Z</time>
      </trkpt>
      <trkpt lat="41.77521" lon="-0.83378">
        <time>2022-07-31T14:46:39Z</time>
      </trkpt>
      <trkpt lat="41.77483" lon="-0.83387">
        <time>2022-07-31T14:46:40Z</time>
      </trkpt>
      <trkpt lat="41.77445" lon="-0.83396">
        <time>2022-07-31T14:46:41Z</time>
      </trkpt>
      <trkpt lat="41.77408" lon="-0.83406">
        <time>2022-07-31T14:46:42Z</time>
      </trkpt>
      <trkpt lat="41.7737" lon="-0.83416">
        <time>2022-07-31T14:46:43Z</time>
      </trkpt>
      <trkpt lat="41.77333" lon="-0.83426">
        <time>2022-07-31T14:46:44Z</time>
      </trkpt>
      <trkpt lat="41.77295" lon="-0.83436">
        <time>2022-07-31T14:46:45Z</time>
      </trkpt>
      <trkpt lat="41.77257" lon="-0.83446">
        <time>2022-07-31T14:46:46Z</time>
      </trkpt>
      <trkpt lat="41.7722" lon="-0.83456">
        <time>2022-07-31T14:46:47Z</time>
      </trkpt>
      <trkpt lat="41.77182" lon="-0.83467">
        <time>2022-07-31T14:46:48Z</time>
      </trkpt>
      <trkpt lat="41.77144" lon="-0.83477">
        <time>2022-07-31T14:46:49Z</time>
      </trkpt>
      <trkpt lat="41.77106" lon="-0.83487">
        <time>2022-07-31T14:46:50Z</time>
      </trkpt>
      <trkpt lat="41.77068" lon="-0.83498">
        <time>2022-07-31T14:46:51Z</time>
      </trkpt>
      <trkpt lat="41.77031" lon="-0.83508">
        <time>2022-07-31T14:46:52Z</time>
      </trkpt>
      <trkpt lat="41.76993" lon="-0.83519">
        <time>2022-07-31T14:46:53Z</time>
      </trkpt>
      <trkpt lat="41.76955" lon="-0.83529">
        <time>2022-07-31T14:46:54Z</time>
      </trkpt>
      <trkpt lat="41.76918" lon="-0.8354">
        <time>2022-07-31T14:46:55Z</time>
      </trkpt>
      <trkpt lat="41.7688" lon="-0.8355">
        <time>2022-07-31T14:46:56Z</time>
      </trkpt>
      <trkpt lat="41.76842" lon="-0.8356">
        <time>2022-07-31T14:46:57Z</time>
      </trkpt>
      <trkpt lat="41.76804" lon="-0.83569">
        <time>2022-07-31T14:46:58Z</time>
      </trkpt>
      <trkpt lat="41.76766" lon="-0.83577">
        <time>2022-07-31T14:46:59Z</time>
      </trkpt>
      <trkpt lat="41.76729" lon="-0.83583">
        <time>2022-07-31T14:47:00Z</time>
      </trkpt>
      <trkpt lat="41.7669" lon="-0.83587">
        <time>2022-07-31T14:47:01Z</time>
      </trkpt>
      <trkpt lat="41.76652" lon="-0.83589">
        <time>2022-07-31T14:47:02Z</time>
      </trkpt>
      <trkpt lat="41.76615" lon="-0.83589">
        <time>2022-07-31T14:47:03Z</time>
      </trkpt>
      <trkpt lat="41.76577" lon="-0.83586">
        <time>2022-07-31T14:47:04Z</time>
      </trkpt>
      <trkpt lat="41.76539" lon="-0.83581">
        <time>2022-07-31T14:47:05Z</time>
      </trkpt>
      <trkpt lat="41.76502" lon="-0.83574">
        <time>2022-07-31T14:47:06Z</time>
      </trkpt>
      <trkpt lat="41.76465" lon="-0.83565">
        <time>2022-07-31T14:47:07Z</time>
      </trkpt>
      <trkpt lat="41.76428" lon="-0.83555">
        <time>2022-07-31T14:47:08Z</time>
      </trkpt>
      <trkpt lat="41.76392" lon="-0.83542">
        <time>2022-07-31T14:47:09Z</time>
      </trkpt>
      <trkpt lat="41.76357" lon="-0.83526">
        <time>2022-07-31T14:47:10Z</time>
      </trkpt>
      <trkpt lat="41.76322" lon="-0.83508">
        <time>2022-07-31T14:47:11Z</time>
      </trkpt>
      <trkpt lat="41.76289" lon="-0.83489">
        <time>2022-07-31T14:47:12Z</time>
      </trkpt>
      <trkpt lat="41.76255" lon="-0.8347">
        <time>2022-07-31T14:47:13Z</time>
      </trkpt>
      <trkpt lat="41.76221" lon="-0.83453">
        <time>2022-07-31T14:47:14Z</time>
      </trkpt>
      <trkpt lat="41.76186" lon="-0.83439">
        <time>2022-07-31T14:47:15Z</time>
      </trkpt>
      <trkpt lat="41.76151" lon="-0.83428">
        <time>2022-07-31T14:47:16Z</time>
      </trkpt>
      <trkpt lat="41.76116" lon="-0.83421">
        <time>2022-07-31T14:47:17Z</time>
      </trkpt>
      <trkpt lat="41.76081" lon="-0.83415">
        <time>2022-07-31T14:47:18Z</time>
      </trkpt>
      <trkpt lat="41.76045" lon="-0.83419">
        <time>2022-07-31T14:47:19Z</time>
      </trkpt>
      <trkpt lat="41.7601" lon="-0.83423">
        <time>2022-07-31T14:47:20Z</time>
      </trkpt>
      <trkpt lat="41.75975" lon="-0.83432">
        <time>2022-07-31T14:47:21Z</time>
      </trkpt>
      <trkpt lat="41.75942" lon="-0.83444">
        <time>2022-07-31T14:47:22Z</time>
      </trkpt>
      <trkpt lat="41.75908" lon="-0.8346">
        <time>2022-07-31T14:47:23Z</time>
      </trkpt>
      <trkpt lat="41.75876" lon="-0.83477">
        <time>2022-07-31T14:47:24Z</time>
      </trkpt>
      <trkpt lat="41.75843" lon="-0.83496">
        <time>2022-07-31T14:47:25Z</time>
      </trkpt>
      <trkpt lat="41.75812" lon="-0.83513">
        <time>2022-07-31T14:47:26Z</time>
      </trkpt>
      <trkpt lat="41.75782" lon="-0.8353">
        <time>2022-07-31T14:47:27Z</time>
      </trkpt>
      <trkpt lat="41.75753" lon="-0.83547">
        <time>2022-07-31T14:47:28Z</time>
      </trkpt>
      <trkpt lat="41.75724" lon="-0.83563">
        <time>2022-07-31T14:47:29Z</time>
      </trkpt>
      <trkpt lat="41.75697" lon="-0.83578">
        <time>2022-07-31T14:47:30Z</time>
      </trkpt>
      <trkpt lat="41.75671" lon="-0.83593">
        <time>2022-07-31T14:47:31Z</time>
      </trkpt>
      <trkpt lat="41.75645" lon="-0.83608">
        <time>2022-07-31T14:47:32Z</time>
      </trkpt>
      <trkpt lat="41.7562" lon="-0.83622">
        <time>2022-07-31T14:47:33Z</time>
      </trkpt>
      <trkpt lat="41.75593" lon="-0.83636">
        <time>2022-07-31T14:47:34Z</time>
      </trkpt>
      <trkpt lat="41.75566" lon="-0.8365">
        <time>2022-07-31T14:47:35Z</time>
      </trkpt>
      <trkpt lat="41.75539" lon="-0.83665">
        <time>2022-07-31T14:47:36Z</time>
      </trkpt>
      <trkpt lat="41.75511" lon="-0.8368">
        <time>2022-07-31T14:47:37Z</time>
      </trkpt>
      <trkpt lat="41.75482" lon="-0.83695">
        <time>2022-07-31T14:47:38Z</time>
      </trkpt>
      <trkpt lat="41.75453" lon="-0.83711">
        <time>2022-07-31T14:47:39Z</time>
      </trkpt>
      <trkpt lat="41.75423" lon="-0.83727">
        <time>2022-07-31T14:47:40Z</time>
      </trkpt>
      <trkpt lat="41.75393" lon="-0.83744">
        <time>2022-07-31T14:47:41Z</time>
      </trkpt>
      <trkpt lat="41.75362" lon="-0.83761">
        <time>2022-07-31T14:47:42Z</time>
      </trkpt>
      <trkpt lat="41.75332" lon="-0.83778">
        <time>2022-07-31T14:47:43Z</time>
      </trkpt>
      <trkpt lat="41.75301" lon="-0.83795">
        <time>2022-07-31T14:47:44Z</time>
      </trkpt>
      <trkpt lat="41.75269" lon="-0.83813">
        <time>2022-07-31T14:47:45Z</time>
      </trkpt>
      <trkpt lat="41.75237" lon="-0.8383">
        <time>2022-07-31T14:47:46Z</time>
      </trkpt>
      <trkpt lat="41.75206" lon="-0.83847">
        <time>2022-07-31T14:47:47Z</time>
      </trkpt>
      <trkpt lat="41.75174" lon="-0.83864">
        <time>2022-07-31T14:47:48Z</time>
      </trkpt>
      <trkpt lat="41.75142" lon="-0.83881">
        <time>2022-07-31T14:47:49Z</time>
      </trkpt>
      <trkpt lat="41.7511" lon="-0.83898">
        <time>2022-07-31T14:47:50Z</time>
      </trkpt>
      <trkpt lat="41.75078" lon="-0.83914">
        <time>2022-07-31T14:47:51Z</time>
      </trkpt>
      <trkpt lat="41.75046" lon="-0.83932">
        <time>2022-07-31T14:47:52Z</time>
      </trkpt>
      <trkpt lat="41.75014" lon="-0.83949">
        <time>2022-07-31T14:47:53Z</time>
      </trkpt>
      <trkpt lat="41.74982" lon="-0.83967">
        <time>2022-07-31T14:47:54Z</time>
      </trkpt>
      <trkpt lat="41.7495" lon="-0.83984">
        <time>2022-07-31T14:47:55Z</time>
      </trkpt>
      <trkpt lat="41.74917" lon="-0.84001">
        <time>2022-07-31T14:47:56Z</time>
      </trkpt>
      <trkpt lat="41.74885" lon="-0.84019">
        <time>2022-07-31T14:47:57Z</time>
      </trkpt>
      <trkpt lat="41.74853" lon="-0.84037">
        <time>2022-07-31T14:47:58Z</time>
      </trkpt>
      <trkpt lat="41.74821" lon="-0.84055">
        <time>2022-07-31T14:47:59Z</time>
      </trkpt>
      <trkpt lat="41.74789" lon="-0.84073">
        <time>2022-07-31T14:48:00Z</time>
      </trkpt>
      <trkpt lat="41.74756" lon="-0.8409">
        <time>2022-07-31T14:48:01Z</time>
      </trkpt>
      <trkpt lat="41.74724" lon="-0.84107">
        <time>2022-07-31T14:48:02Z</time>
      </trkpt>
      <trkpt lat="41.74692" lon="-0.84125">
        <time>2022-07-31T14:48:03Z</time>
      </trkpt>
      <trkpt lat="41.74659" lon="-0.84143">
        <time>2022-07-31T14:48:04Z</time>
      </trkpt>
      <trkpt lat="41.74627" lon="-0.84161">
        <time>2022-07-31T14:48:05Z</time>
      </trkpt>
      <trkpt lat="41.74595" lon="-0.84178">
        <time>2022-07-31T14:48:06Z</time>
      </trkpt>
      <trkpt lat="41.74562" lon="-0.84196">
        <time>2022-07-31T14:48:07Z</time>
      </trkpt>
      <trkpt lat="41.74529" lon="-0.84214">
        <time>2022-07-31T14:48:08Z</time>
      </trkpt>
      <trkpt lat="41.74497" lon="-0.84232">
        <time>2022-07-31T14:48:09Z</time>
      </trkpt>
      <trkpt lat="41.74464" lon="-0.8425">
        <time>2022-07-31T14:48:10Z</time>
      </trkpt>
      <trkpt lat="41.74432" lon="-0.84268">
        <time>2022-07-31T14:48:11Z</time>
      </trkpt>
      <trkpt lat="41.74399" lon="-0.84286">
        <time>2022-07-31T14:48:12Z</time>
      </trkpt>
      <trkpt lat="41.74367" lon="-0.84304">
        <time>2022-07-31T14:48:13Z</time>
      </trkpt>
      <trkpt lat="41.74334" lon="-0.84322">
        <time>2022-07-31T14:48:14Z</time>
      </trkpt>
      <trkpt lat="41.74302" lon="-0.8434">
        <time>2022-07-31T14:48:15Z</time>
      </trkpt>
      <trkpt lat="41.7427" lon="-0.84358">
        <time>2022-07-31T14:48:16Z</time>
      </trkpt>
      <trkpt lat="41.74238" lon="-0.84376">
        <time>2022-07-31T14:48:17Z</time>
      </trkpt>
      <trkpt lat="41.74205" lon="-0.84393">
        <time>2022-07-31T14:48:18Z</time>
      </trkpt>
      <trkpt lat="41.74172" lon="-0.84412">
        <time>2022-07-31T14:48:19Z</time>
      </trkpt>
      <trkpt lat="41.7414" lon="-0.8443">
        <time>2022-07-31T14:48:20Z</time>
      </trkpt>
      <trkpt lat="41.74107" lon="-0.84448">
        <time>2022-07-31T14:48:21Z</time>
      </trkpt>
      <trkpt lat="41.74075" lon="-0.84467">
        <time>2022-07-31T14:48:22Z</time>
      </trkpt>
      <trkpt lat="41.74043" lon="-0.84485">
        <time>2022-07-31T14:48:23Z</time>
      </trkpt>
      <trkpt lat="41.74011" lon="-0.84503">
        <time>2022-07-31T14:48:24Z</time>
      </trkpt>
      <trkpt lat="41.73978" lon="-0.84521">
        <time>2022-07-31T14:48:25Z</time>
      </trkpt>
      <trkpt lat="41.73946" lon="-0.84539">
        <time>2022-07-31T14:48:26Z</time>
      </trkpt>
      <trkpt lat="41.73914" lon="-0.84556">
        <time>2022-07-31T14:48:27Z</time>
      </trkpt>
      <trkpt lat="41.73882" lon="-0.84574">
        <time>2022-07-31T14:48:28Z</time>
      </trkpt>
      <trkpt lat="41.73851" lon="-0.84591">
        <time>2022-07-31T14:48:29Z</time>
      </trkpt>
      <trkpt lat="41.73819" lon="-0.84608">
        <time>2022-07-31T14:48:30Z</time>
      </trkpt>
      <trkpt lat="41.73788" lon="-0.84625">
        <time>2022-07-31T14:48:31Z</time>
      </trkpt>
      <trkpt lat="41.73757" lon="-0.84642">
        <time>2022-07-31T14:48:32Z</time>
      </trkpt>
      <trkpt lat="41.73725" lon="-0.84659">
        <time>2022-07-31T14:48:33Z</time>
      </trkpt>
      <trkpt lat="41.73694" lon="-0.84675">
        <time>2022-07-31T14:48:34Z</time>
      </trkpt>
      <trkpt lat="41.73663" lon="-0.84688">
        <time>2022-07-31T14:48:35Z</time>
      </trkpt>
      <trkpt lat="41.73631" lon="-0.84699">
        <time>2022-07-31T14:48:36Z</time>
      </trkpt>
      <trkpt lat="41.73599" lon="-0.84707">
        <time>2022-07-31T14:48:37Z</time>
      </trkpt>
      <trkpt lat="41.73566" lon="-0.84713">
        <time>2022-07-31T14:48:38Z</time>
      </trkpt>
      <trkpt lat="41.73534" lon="-0.84718">
        <time>2022-07-31T14:48:39Z</time>
      </trkpt>
      <trkpt lat="41.73501" lon="-0.84721">
        <time>2022-07-31T14:48:40Z</time>
      </trkpt>
      <trkpt lat="41.73469" lon="-0.84723">
        <time>2022-07-31T14:48:41Z</time>
      </trkpt>
      <trkpt lat="41.73436" lon="-0.84723">
        <time>2022-07-31T14:48:42Z</time>
      </trkpt>
      <trkpt lat="41.73403" lon="-0.84722">
        <time>2022-07-31T14:48:43Z</time>
      </trkpt>
      <trkpt lat="41.7337" lon="-0.84719">
        <time>2022-07-31T14:48:44Z</time>
      </trkpt>
      <trkpt lat="41.73337" lon="-0.84714">
        <time>2022-07-31T14:48:45Z</time>
      </trkpt>
      <trkpt lat="41.73303" lon="-0.84707">
        <time>2022-07-31T14:48:46Z</time>
      </trkpt>
      <trkpt lat="41.7327" lon="-0.84699">
        <time>2022-07-31T14:48:47Z</time>
      </trkpt>
      <trkpt lat="41.73236" lon="-0.8469">
        <time>2022-07-31T14:48:48Z</time>
      </trkpt>
      <trkpt lat="41.73202" lon="-0.8468">
        <time>2022-07-31T14:48:49Z</time>
      </trkpt>
      <trkpt lat="41.73169" lon="-0.8467">
        <time>2022-07-31T14:48:50Z</time>
      </trkpt>
      <trkpt lat="41.73136" lon="-0.8466">
        <time>2022-07-31T14:48:51Z</time>
      </trkpt>
      <trkpt lat="41.73102" lon="-0.84649">
        <time>2022-07-31T14:48:52Z</time>
      </trkpt>
      <trkpt lat="41.73068" lon="-0.8464">
        <time>2022-07-31T14:48:53Z</time>
      </trkpt>
      <trkpt lat="41.73034" lon="-0.84631">
        <time>2022-07-31T14:48:54Z</time>
      </trkpt>
      <trkpt lat="41.73" lon="-0.84622">
        <time>2022-07-31T14:48:55Z</time>
      </trkpt>
      <trkpt lat="41.72965" lon="-0.84615">
        <time>2022-07-31T14:48:56Z</time>
      </trkpt>
      <trkpt lat="41.72931" lon="-0.8461">
        <time>2022-07-31T14:48:57Z</time>
      </trkpt>
      <trkpt lat="41.72895" lon="-0.84607">
        <time>2022-07-31T14:48:58Z</time>
      </trkpt>
      <trkpt lat="41.7286" lon="-0.84606">
        <time>2022-07-31T14:48:59Z</time>
      </trkpt>
      <trkpt lat="41.72825" lon="-0.84607">
        <time>2022-07-31T14:49:00Z</time>
      </trkpt>
      <trkpt lat="41.72789" lon="-0.84611">
        <time>2022-07-31T14:49:01Z</time>
      </trkpt>
      <trkpt lat="41.72754" lon="-0.84617">
        <time>2022-07-31T14:49:02Z</time>
      </trkpt>
      <trkpt lat="41.72719" lon="-0.84626">
        <time>2022-07-31T14:49:03Z</time>
      </trkpt>
      <trkpt lat="41.72685" lon="-0.84636">
        <time>2022-07-31T14:49:04Z</time>
      </trkpt>
      <trkpt lat="41.72651" lon="-0.84649">
        <time>2022-07-31T14:49:05Z</time>
      </trkpt>
      <trkpt lat="41.72617" lon="-0.84663">
        <time>2022-07-31T14:49:06Z</time>
      </trkpt>
      <trkpt lat="41.72583" lon="-0.84678">
        <time>2022-07-31T14:49:07Z</time>
      </trkpt>
      <trkpt lat="41.7255" lon="-0.84695">
        <time>2022-07-31T14:49:08Z</time>
      </trkpt>
      <trkpt lat="41.72516" lon="-0.84713">
        <time>2022-07-31T14:49:09Z</time>
      </trkpt>
      <trkpt lat="41.72483" lon="-0.84731">
        <time>2022-07-31T14:49:10Z</time>
      </trkpt>
      <trkpt lat="41.7245" lon="-0.8475">
        <time>2022-07-31T14:49:11Z</time>
      </trkpt>
      <trkpt lat="41.72417" lon="-0.84768">
        <time>2022-07-31T14:49:12Z</time>
      </trkpt>
      <trkpt lat="41.72383" lon="-0.84786">
        <time>2022-07-31T14:49:13Z</time>
      </trkpt>
      <trkpt lat="41.72348" lon="-0.84802">
        <time>2022-07-31T14:49:14Z</time>
      </trkpt>
      <trkpt lat="41.72314" lon="-0.84816">
        <time>2022-07-31T14:49:15Z</time>
      </trkpt>
      <trkpt lat="41.72279" lon="-0.84829">
        <time>2022-07-31T14:49:16Z</time>
      </trkpt>
      <trkpt lat="41.72243" lon="-0.8484">
        <time>2022-07-31T14:49:17Z</time>
      </trkpt>
      <trkpt lat="41.72208" lon="-0.84849">
        <time>2022-07-31T14:49:18Z</time>
      </trkpt>
      <trkpt lat="41.72172" lon="-0.84857">
        <time>2022-07-31T14:49:19Z</time>
      </trkpt>
      <trkpt lat="41.72136" lon="-0.84865">
        <time>2022-07-31T14:49:20Z</time>
      </trkpt>
      <trkpt lat="41.721" lon="-0.84874">
        <time>2022-07-31T14:49:21Z</time>
      </trkpt>
      <trkpt lat="41.72064" lon="-0.84882">
        <time>2022-07-31T14:49:22Z</time>
      </trkpt>
      <trkpt lat="41.72028" lon="-0.84891">
        <time>2022-07-31T14:49:23Z</time>
      </trkpt>
      <trkpt lat="41.71992" lon="-0.84899">
        <time>2022-07-31T14:49:24Z</time>
      </trkpt>
      <trkpt lat="41.71956" lon="-0.84907">
        <time>2022-07-31T14:49:25Z</time>
      </trkpt>
      <trkpt lat="41.7192" lon="-0.84916">
        <time>2022-07-31T14:49:26Z</time>
      </trkpt>
      <trkpt lat="41.71884" lon="-0.84924">
        <time>2022-07-31T14:49:27Z</time>
      </trkpt>
      <trkpt lat="41.71848" lon="-0.84932">
        <time>2022-07-31T14:49:28Z</time>
      </trkpt>
      <trkpt lat="41.71812" lon="-0.84939">
        <time>2022-07-31T14:49:29Z</time>
      </trkpt>
      <trkpt lat="41.71777" lon="-0.84947">
        <time>2022-07-31T14:49:30Z</time>
      </trkpt>
      <trkpt lat="41.71741" lon="-0.84955">
        <time>2022-07-31T14:49:31Z</time>
      </trkpt>
      <trkpt lat="41.71705" lon="-0.84962">
        <time>2022-07-31T14:49:32Z</time>
      </trkpt>
      <trkpt lat="41.71669" lon="-0.8497">
        <time>2022-07-31T14:49:33Z</time>
      </trkpt>
      <trkpt lat="41.71633" lon="-0.84976">
        <time>2022-07-31T14:49:34Z</time>
      </trkpt>
      <trkpt lat="41.71597" lon="-0.84983">
        <time>2022-07-31T14:49:35Z</time>
      </trkpt>
      <trkpt lat="41.71562" lon="-0.84988">
        <time>2022-07-31T14:49:36Z</time>
      </trkpt>
      <trkpt lat="41.71526" lon="-0.84991">
        <time>2022-07-31T14:49:37Z</time>
      </trkpt>
      <trkpt lat="41.7149" lon="-0.84994">
        <time>2022-07-31T14:49:38Z</time>
      </trkpt>
      <trkpt lat="41.71454" lon="-0.84995">
        <time>2022-07-31T14:49:39Z</time>
      </trkpt>
      <trkpt lat="41.71418" lon="-0.84993">
        <time>2022-07-31T14:49:40Z</time>
      </trkpt>
      <trkpt lat="41.71382" lon="-0.8499">
        <time>2022-07-31T14:49:41Z</time>
      </trkpt>
      <trkpt lat="41.71347" lon="-0.84985">
        <time>2022-07-31T14:49:42Z</time>
      </trkpt>
      <trkpt lat="41.71312" lon="-0.84977">
        <time>2022-07-31T14:49:43Z</time>
      </trkpt>
      <trkpt lat="41.71278" lon="-0.84966">
        <time>2022-07-31T14:49:44Z</time>
      </trkpt>
      <trkpt lat="41.71244" lon="-0.84953">
        <time>2022-07-31T14:49:45Z</time>
      </trkpt>
      <trkpt lat="41.7121" lon="-0.84938">
        <time>2022-07-31T14:49:46Z</time>
      </trkpt>
      <trkpt lat="41.71178" lon="-0.8492">
        <time>2022-07-31T14:49:47Z</time>
      </trkpt>
      <trkpt lat="41.71146" lon="-0.84901">
        <time>2022-07-31T14:49:48Z</time>
      </trkpt>
      <trkpt lat="41.71114" lon="-0.8488">
        <time>2022-07-31T14:49:49Z</time>
      </trkpt>
      <trkpt lat="41.71082" lon="-0.84857">
        <time>2022-07-31T14:49:50Z</time>
      </trkpt>
      <trkpt lat="41.71052" lon="-0.84833">
        <time>2022-07-31T14:49:51Z</time>
      </trkpt>
      <trkpt lat="41.71023" lon="-0.84807">
        <time>2022-07-31T14:49:52Z</time>
      </trkpt>
      <trkpt lat="41.70994" lon="-0.84779">
        <time>2022-07-31T14:49:53Z</time>
      </trkpt>
      <trkpt lat="41.70966" lon="-0.84749">
        <time>2022-07-31T14:49:54Z</time>
      </trkpt>
      <trkpt lat="41.70939" lon="-0.84718">
        <time>2022-07-31T14:49:55Z</time>
      </trkpt>
      <trkpt lat="41.70913" lon="-0.84686">
        <time>2022-07-31T14:49:56Z</time>
      </trkpt>
      <trkpt lat="41.70888" lon="-0.84652">
        <time>2022-07-31T14:49:57Z</time>
      </trkpt>
      <trkpt lat="41.70864" lon="-0.84618">
        <time>2022-07-31T14:49:58Z</time>
      </trkpt>
      <trkpt lat="41.70839" lon="-0.84583">
        <time>2022-07-31T14:49:59Z</time>
      </trkpt>
      <trkpt lat="41.70816" lon="-0.84547">
        <time>2022-07-31T14:50:00Z</time>
      </trkpt>
      <trkpt lat="41.70792" lon="-0.84511">
        <time>2022-07-31T14:50:01Z</time>
      </trkpt>
      <trkpt lat="41.7077" lon="-0.84474">
        <time>2022-07-31T14:50:02Z</time>
      </trkpt>
      <trkpt lat="41.70747" lon="-0.84437">
        <time>2022-07-31T14:50:03Z</time>
      </trkpt>
      <trkpt lat="41.70724" lon="-0.84401">
        <time>2022-07-31T14:50:04Z</time>
      </trkpt>
      <trkpt lat="41.70701" lon="-0.84364">
        <time>2022-07-31T14:50:05Z</time>
      </trkpt>
      <trkpt lat="41.70678" lon="-0.84327">
        <time>2022-07-31T14:50:06Z</time>
      </trkpt>
      <trkpt lat="41.70654" lon="-0.84291">
        <time>2022-07-31T14:50:07Z</time>
      </trkpt>
      <trkpt lat="41.7063" lon="-0.84256">
        <time>2022-07-31T14:50:08Z</time>
      </trkpt>
      <trkpt lat="41.70605" lon="-0.84223">
        <time>2022-07-31T14:50:09Z</time>
      </trkpt>
      <trkpt lat="41.70579" lon="-0.84189">
        <time>2022-07-31T14:50:10Z</time>
      </trkpt>
      <trkpt lat="41.70552" lon="-0.84158">
        <time>2022-07-31T14:50:11Z</time>
      </trkpt>
      <trkpt lat="41.70525" lon="-0.84128">
        <time>2022-07-31T14:50:12Z</time>
      </trkpt>
      <trkpt lat="41.70496" lon="-0.84099">
        <time>2022-07-31T14:50:13Z</time>
      </trkpt>
      <trkpt lat="41.70467" lon="-0.84073">
        <time>2022-07-31T14:50:14Z</time>
      </trkpt>
      <trkpt lat="41.70437" lon="-0.84048">
        <time>2022-07-31T14:50:15Z</time>
      </trkpt>
      <trkpt lat="41.70407" lon="-0.84024">
        <time>2022-07-31T14:50:16Z</time>
      </trkpt>
      <trkpt lat="41.70376" lon="-0.84002">
        <time>2022-07-31T14:50:17Z</time>
      </trkpt>
      <trkpt lat="41.70344" lon="-0.83982">
        <time>2022-07-31T14:50:18Z</time>
      </trkpt>
      <trkpt lat="41.70313" lon="-0.83964">
        <time>2022-07-31T14:50:19Z</time>
      </trkpt>
      <trkpt lat="41.7028" lon="-0.83947">
        <time>2022-07-31T14:50:20Z</time>
      </trkpt>
      <trkpt lat="41.70248" lon="-0.83933">
        <time>2022-07-31T14:50:21Z</time>
      </trkpt>
      <trkpt lat="41.70215" lon="-0.8392">
        <time>2022-07-31T14:50:22Z</time>
      </trkpt>
      <trkpt lat="41.70182" lon="-0.83908">
        <time>2022-07-31T14:50:23Z</time>
      </trkpt>
      <trkpt lat="41.70149" lon="-0.83898">
        <time>2022-07-31T14:50:24Z</time>
      </trkpt>
      <trkpt lat="41.70115" lon="-0.83889">
        <time>2022-07-31T14:50:25Z</time>
      </trkpt>
      <trkpt lat="41.70082" lon="-0.83879">
        <time>2022-07-31T14:50:26Z</time>
      </trkpt>
      <trkpt lat="41.70047" lon="-0.83871">
        <time>2022-07-31T14:50:27Z</time>
      </trkpt>
      <trkpt lat="41.70013" lon="-0.83863">
        <time>2022-07-31T14:50:28Z</time>
      </trkpt>
      <trkpt lat="41.69978" lon="-0.83856">
        <time>2022-07-31T14:50:29Z</time>
      </trkpt>
      <trkpt lat="41.69943" lon="-0.83849">
        <time>2022-07-31T14:50:30Z</time>
      </trkpt>
      <trkpt lat="41.69908" lon="-0.83843">
        <time>2022-07-31T14:50:31Z</time>
      </trkpt>
      <trkpt lat="41.69872" lon="-0.83837">
        <time>2022-07-31T14:50:32Z</time>
      </trkpt>
      <trkpt lat="41.69837" lon="-0.83829">
        <time>2022-07-31T14:50:33Z</time>
      </trkpt>
      <trkpt lat="41.69801" lon="-0.8382">
        <time>2022-07-31T14:50:34Z</time>
      </trkpt>
      <trkpt lat="41.69766" lon="-0.8381">
        <time>2022-07-31T14:50:35Z</time>
      </trkpt>
      <trkpt lat="41.69732" lon="-0.83799">
        <time>2022-07-31T14:50:36Z</time>
      </trkpt>
      <trkpt lat="41.69698" lon="-0.83785">
        <time>2022-07-31T14:50:37Z</time>
      </trkpt>
      <trkpt lat="41.69664" lon="-0.8377">
        <time>2022-07-31T14:50:38Z</time>
      </trkpt>
      <trkpt lat="41.69632" lon="-0.83753">
        <time>2022-07-31T14:50:39Z</time>
      </trkpt>
      <trkpt lat="41.69599" lon="-0.83735">
        <time>2022-07-31T14:50:40Z</time>
      </trkpt>
      <trkpt lat="41.69567" lon="-0.83716">
        <time>2022-07-31T14:50:41Z</time>
      </trkpt>
      <trkpt lat="41.69535" lon="-0.83696">
        <time>2022-07-31T14:50:42Z</time>
      </trkpt>
      <trkpt lat="41.69504" lon="-0.83675">
        <time>2022-07-31T14:50:43Z</time>
      </trkpt>
      <trkpt lat="41.69473" lon="-0.83652">
        <time>2022-07-31T14:50:44Z</time>
      </trkpt>
      <trkpt lat="41.69442" lon="-0.8363">
        <time>2022-07-31T14:50:45Z</time>
      </trkpt>
      <trkpt lat="41.69411" lon="-0.83606">
        <time>2022-07-31T14:50:46Z</time>
      </trkpt>
      <trkpt lat="41.6938" lon="-0.83583">
        <time>2022-07-31T14:50:47Z</time>
      </trkpt>
      <trkpt lat="41.69349" lon="-0.83559">
        <time>2022-07-31T14:50:48Z</time>
      </trkpt>
      <trkpt lat="41.69317" lon="-0.83536">
        <time>2022-07-31T14:50:49Z</time>
      </trkpt>
      <trkpt lat="41.69286" lon="-0.83512">
        <time>2022-07-31T14:50:50Z</time>
      </trkpt>
      <trkpt lat="41.69254" lon="-0.8349">
        <time>2022-07-31T14:50:51Z</time>
      </trkpt>
      <trkpt lat="41.69221" lon="-0.83468">
        <time>2022-07-31T14:50:52Z</time>
      </trkpt>
      <trkpt lat="41.69188" lon="-0.83446">
        <time>2022-07-31T14:50:53Z</time>
      </trkpt>
      <trkpt lat="41.69155" lon="-0.83426">
        <time>2022-07-31T14:50:54Z</time>
      </trkpt>
      <trkpt lat="41.69122" lon="-0.83406">
        <time>2022-07-31T14:50:55Z</time>
      </trkpt>
      <trkpt lat="41.69088" lon="-0.83387">
        <time>2022-07-31T14:50:56Z</time>
      </trkpt>
      <trkpt lat="41.69054" lon="-0.8337">
        <time>2022-07-31T14:50:57Z</time>
      </trkpt>
      <trkpt lat="41.69019" lon="-0.83354">
        <time>2022-07-31T14:50:58Z</time>
      </trkpt>
      <trkpt lat="41.68984" lon="-0.8334">
        <time>2022-07-31T14:50:59Z</time>
      </trkpt>
      <trkpt lat="41.68948" lon="-0.83327">
        <time>2022-07-31T14:51:00Z</time>
      </trkpt>
      <trkpt lat="41.68913" lon="-0.83316">
        <time>2022-07-31T14:51:01Z</time>
      </trkpt>
      <trkpt lat="41.68877" lon="-0.83306">
        <time>2022-07-31T14:51:02Z</time>
      </trkpt>
      <trkpt lat="41.68841" lon="-0.83297">
        <time>2022-07-31T14:51:03Z</time>
      </trkpt>
      <trkpt lat="41.68804" lon="-0.83291">
        <time>2022-07-31T14:51:04Z</time>
      </trkpt>
      <trkpt lat="41.68768" lon="-0.83286">
        <time>2022-07-31T14:51:05Z</time>
      </trkpt>
      <trkpt lat="41.68732" lon="-0.83282">
        <time>2022-07-31T14:51:06Z</time>
      </trkpt>
      <trkpt lat="41.68695" lon="-0.83281">
        <time>2022-07-31T14:51:07Z</time>
      </trkpt>
      <trkpt lat="41.68658" lon="-0.83281">
        <time>2022-07-31T14:51:08Z</time>
      </trkpt>
      <trkpt lat="41.68622" lon="-0.83283">
        <time>2022-07-31T14:51:09Z</time>
      </trkpt>
      <trkpt lat="41.68587" lon="-0.83287">
        <time>2022-07-31T14:51:10Z</time>
      </trkpt>
      <trkpt lat="41.68552" lon="-0.83293">
        <time>2022-07-31T14:51:11Z</time>
      </trkpt>
      <trkpt lat="41.68517" lon="-0.83301">
        <time>2022-07-31T14:51:12Z</time>
      </trkpt>
      <trkpt lat="41.68481" lon="-0.83309">
        <time>2022-07-31T14:51:13Z</time>
      </trkpt>
      <trkpt lat="41.68446" lon="-0.83318">
        <time>2022-07-31T14:51:14Z</time>
      </trkpt>
      <trkpt lat="41.68411" lon="-0.83328">
        <time>2022-07-31T14:51:15Z</time>
      </trkpt>
      <trkpt lat="41.68376" lon="-0.83338">
        <time>2022-07-31T14:51:16Z</time>
      </trkpt>
      <trkpt lat="41.6834" lon="-0.83349">
        <time>2022-07-31T14:51:17Z</time>
      </trkpt>
      <trkpt lat="41.68305" lon="-0.8336">
        <time>2022-07-31T14:51:18Z</time>
      </trkpt>
      <trkpt lat="41.6827" lon="-0.83372">
        <time>2022-07-31T14:51:19Z</time>
      </trkpt>
      <trkpt lat="41.68235" lon="-0.83384">
        <time>2022-07-31T14:51:20Z</time>
      </trkpt>
      <trkpt lat="41.682" lon="-0.83397">
        <time>2022-07-31T14:51:21Z</time>
      </trkpt>
      <trkpt lat="41.68165" lon="-0.83409">
        <time>2022-07-31T14:51:22Z</time>
      </trkpt>
      <trkpt lat="41.6813" lon="-0.8342">
        <time>2022-07-31T14:51:23Z</time>
      </trkpt>
      <trkpt lat="41.68095" lon="-0.8343">
        <time>2022-07-31T14:51:24Z</time>
      </trkpt>
      <trkpt lat="41.6806" lon="-0.8344">
        <time>2022-07-31T14:51:25Z</time>
      </trkpt>
      <trkpt lat="41.68025" lon="-0.83448">
        <time>2022-07-31T14:51:26Z</time>
      </trkpt>
      <trkpt lat="41.6799" lon="-0.83455">
        <time>2022-07-31T14:51:27Z</time>
      </trkpt>
      <trkpt lat="41.67954" lon="-0.83461">
        <time>2022-07-31T14:51:28Z</time>
      </trkpt>
      <trkpt lat="41.67919" lon="-0.83466">
        <time>2022-07-31T14:51:29Z</time>
      </trkpt>
      <trkpt lat="41.67884" lon="-0.83471">
        <time>2022-07-31T14:51:30Z</time>
      </trkpt>
      <trkpt lat="41.67849" lon="-0.83476">
        <time>2022-07-31T14:51:31Z</time>
      </trkpt>
      <trkpt lat="41.67815" lon="-0.8348">
        <time>2022-07-31T14:51:32Z</time>
      </trkpt>
      <trkpt lat="41.67781" lon="-0.83483">
        <time>2022-07-31T14:51:33Z</time>
      </trkpt>
      <trkpt lat="41.67747" lon="-0.83487">
        <time>2022-07-31T14:51:34Z</time>
      </trkpt>
      <trkpt lat="41.67714" lon="-0.83491">
        <time>2022-07-31T14:51:35Z</time>
      </trkpt>
      <trkpt lat="41.67682" lon="-0.83496">
        <time>2022-07-31T14:51:36Z</time>
      </trkpt>
      <trkpt lat="41.67652" lon="-0.83501">
        <time>2022-07-31T14:51:37Z</time>
      </trkpt>
      <trkpt lat="41.67622" lon="-0.83506">
        <time>2022-07-31T14:51:38Z</time>
      </trkpt>
      <trkpt lat="41.67593" lon="-0.83513">
        <time>2022-07-31T14:51:39Z</time>
      </trkpt>
      <trkpt lat="41.67564" lon="-0.83519">
        <time>2022-07-31T14:51:40Z</time>
      </trkpt>
      <trkpt lat="41.67535" lon="-0.83526">
        <time>2022-07-31T14:51:41Z</time>
      </trkpt>
      <trkpt lat="41.67508" lon="-0.83532">
        <time>2022-07-31T14:51:42Z</time>
      </trkpt>
      <trkpt lat="41.67482" lon="-0.83539">
        <time>2022-07-31T14:51:43Z</time>
      </trkpt>
      <trkpt lat="41.67455" lon="-0.83545">
        <time>2022-07-31T14:51:44Z</time>
      </trkpt>
      <trkpt lat="41.67429" lon="-0.83551">
        <time>2022-07-31T14:51:45Z</time>
      </trkpt>
      <trkpt lat="41.67403" lon="-0.83557">
        <time>2022-07-31T14:51:46Z</time>
      </trkpt>
      <trkpt lat="41.67375" lon="-0.83563">
        <time>2022-07-31T14:51:47Z</time>
      </trkpt>
      <trkpt lat="41.67348" lon="-0.83569">
        <time>2022-07-31T14:51:48Z</time>
      </trkpt>
      <trkpt lat="41.67321" lon="-0.83576">
        <time>2022-07-31T14:51:49Z</time>
      </trkpt>
      <trkpt lat="41.67293" lon="-0.83583">
        <time>2022-07-31T14:51:50Z</time>
      </trkpt>
      <trkpt lat="41.67267" lon="-0.83589">
        <time>2022-07-31T14:51:51Z</time>
      </trkpt>
      <trkpt lat="41.6724" lon="-0.83596">
        <time>2022-07-31T14:51:52Z</time>
      </trkpt>
      <trkpt lat="41.67215" lon="-0.83602">
        <time>2022-07-31T14:51:53Z</time>
      </trkpt>
      <trkpt lat="41.67189" lon="-0.83609">
        <time>2022-07-31T14:51:54Z</time>
      </trkpt>
      <trkpt lat="41.66691" lon="-0.83731">
        <time>2022-07-31T14:52:14Z</time>
      </trkpt>
      <trkpt lat="41.66673" lon="-0.83747">
        <time>2022-07-31T14:52:15Z</time>
      </trkpt>
      <trkpt lat="41.66649" lon="-0.83757">
        <time>2022-07-31T14:52:16Z</time>
      </trkpt>
      <trkpt lat="41.66628" lon="-0.8377">
        <time>2022-07-31T14:52:17Z</time>
      </trkpt>
      <trkpt lat="41.66605" lon="-0.83781">
        <time>2022-07-31T14:52:18Z</time>
      </trkpt>
      <trkpt lat="41.66583" lon="-0.83794">
        <time>2022-07-31T14:52:19Z</time>
      </trkpt>
      <trkpt lat="41.6656" lon="-0.83808">
        <time>2022-07-31T14:52:20Z</time>
      </trkpt>
      <trkpt lat="41.66537" lon="-0.83822">
        <time>2022-07-31T14:52:21Z</time>
      </trkpt>
      <trkpt lat="41.66513" lon="-0.83836">
        <time>2022-07-31T14:52:22Z</time>
      </trkpt>
      <trkpt lat="41.66489" lon="-0.8385">
        <time>2022-07-31T14:52:23Z</time>
      </trkpt>
      <trkpt lat="41.66463" lon="-0.83864">
        <time>2022-07-31T14:52:24Z</time>
      </trkpt>
      <trkpt lat="41.66437" lon="-0.83877">
        <time>2022-07-31T14:52:25Z</time>
      </trkpt>
      <trkpt lat="41.66411" lon="-0.83889">
        <time>2022-07-31T14:52:26Z</time>
      </trkpt>
      <trkpt lat="41.66384" lon="-0.83901">
        <time>2022-07-31T14:52:27Z</time>
      </trkpt>
      <trkpt lat="41.66355" lon="-0.8391">
        <time>2022-07-31T14:52:28Z</time>
      </trkpt>
      <trkpt lat="41.66328" lon="-0.83918">
        <time>2022-07-31T14:52:29Z</time>
      </trkpt>
      <trkpt lat="41.66301" lon="-0.83926">
        <time>2022-07-31T14:52:30Z</time>
      </trkpt>
      <trkpt lat="41.66273" lon="-0.83934">
        <time>2022-07-31T14:52:31Z</time>
      </trkpt>
      <trkpt lat="41.66245" lon="-0.83943">
        <time>2022-07-31T14:52:32Z</time>
      </trkpt>
      <trkpt lat="41.66218" lon="-0.83952">
        <time>2022-07-31T14:52:33Z</time>
      </trkpt>
      <trkpt lat="41.66189" lon="-0.83961">
        <time>2022-07-31T14:52:34Z</time>
      </trkpt>
      <trkpt lat="41.6616" lon="-0.8397">
        <time>2022-07-31T14:52:35Z</time>
      </trkpt>
      <trkpt lat="41.66131" lon="-0.8398">
        <time>2022-07-31T14:52:36Z</time>
      </trkpt>
      <trkpt lat="41.66102" lon="-0.83991">
        <time>2022-07-31T14:52:37Z</time>
      </trkpt>
      <trkpt lat="41.66072" lon="-0.84003">
        <time>2022-07-31T14:52:38Z</time>
      </trkpt>
      <trkpt lat="41.66043" lon="-0.84017">
        <time>2022-07-31T14:52:39Z</time>
      </trkpt>
      <trkpt lat="41.66014" lon="-0.84031">
        <time>2022-07-31T14:52:40Z</time>
      </trkpt>
      <trkpt lat="41.65985" lon="-0.84044">
        <time>2022-07-31T14:52:41Z</time>
      </trkpt>
      <trkpt lat="41.65955" lon="-0.84057">
        <time>2022-07-31T14:52:42Z</time>
      </trkpt>
      <trkpt lat="41.65925" lon="-0.8407">
        <time>2022-07-31T14:52:43Z</time>
      </trkpt>
      <trkpt lat="41.65895" lon="-0.84081">
        <time>2022-07-31T14:52:44Z</time>
      </trkpt>
      <trkpt lat="41.65864" lon="-0.84091">
        <time>2022-07-31T14:52:45Z</time>
      </trkpt>
      <trkpt lat="41.65833" lon="-0.84099">
        <time>2022-07-31T14:52:46Z</time>
      </trkpt>
      <trkpt lat="41.65801" lon="-0.84107">
        <time>2022-07-31T14:52:47Z</time>
      </trkpt>
      <trkpt lat="41.65769" lon="-0.84112">
        <time>2022-07-31T14:52:48Z</time>
      </trkpt>
      <trkpt lat="41.65737" lon="-0.84117">
        <time>2022-07-31T14:52:49Z</time>
      </trkpt>
      <trkpt lat="41.65705" lon="-0.84119">
        <time>2022-07-31T14:52:50Z</time>
      </trkpt>
      <trkpt lat="41.65673" lon="-0.8412">
        <time>2022-07-31T14:52:51Z</time>
      </trkpt>
      <trkpt lat="41.65642" lon="-0.8412">
        <time>2022-07-31T14:52:52Z</time>
      </trkpt>
      <trkpt lat="41.65611" lon="-0.84118">
        <time>2022-07-31T14:52:53Z</time>
      </trkpt>
      <trkpt lat="41.6558" lon="-0.84114">
        <time>2022-07-31T14:52:54Z</time>
      </trkpt>
      <trkpt lat="41.6555" lon="-0.84109">
        <time>2022-07-31T14:52:55Z</time>
      </trkpt>
      <trkpt lat="41.65519" lon="-0.84102">
        <time>2022-07-31T14:52:56Z</time>
      </trkpt>
      <trkpt lat="41.65489" lon="-0.84095">
        <time>2022-07-31T14:52:57Z</time>
      </trkpt>
      <trkpt lat="41.65458" lon="-0.84086">
        <time>2022-07-31T14:52:58Z</time>
      </trkpt>
      <trkpt lat="41.65428" lon="-0.84076">
        <time>2022-07-31T14:52:59Z</time>
      </trkpt>
      <trkpt lat="41.65398" lon="-0.84064">
        <time>2022-07-31T14:53:00Z</time>
      </trkpt>
      <trkpt lat="41.65367" lon="-0.84051">
        <time>2022-07-31T14:53:01Z</time>
      </trkpt>
      <trkpt lat="41.65337" lon="-0.84035">
        <time>2022-07-31T14:53:02Z</time>
      </trkpt>
      <trkpt lat="41.65307" lon="-0.84018">
        <time>2022-07-31T14:53:03Z</time>
      </trkpt>
      <trkpt lat="41.65278" lon="-0.84">
        <time>2022-07-31T14:53:04Z</time>
      </trkpt>
      <trkpt lat="41.65248" lon="-0.8398">
        <time>2022-07-31T14:53:05Z</time>
      </trkpt>
      <trkpt lat="41.65219" lon="-0.83958">
        <time>2022-07-31T14:53:06Z</time>
      </trkpt>
      <trkpt lat="41.6519" lon="-0.83936">
        <time>2022-07-31T14:53:07Z</time>
      </trkpt>
      <trkpt lat="41.65162" lon="-0.83911">
        <time>2022-07-31T14:53:08Z</time>
      </trkpt>
      <trkpt lat="41.65134" lon="-0.83886">
        <time>2022-07-31T14:53:09Z</time>
      </trkpt>
      <trkpt lat="41.65108" lon="-0.83858">
        <time>2022-07-31T14:53:10Z</time>
      </trkpt>
      <trkpt lat="41.65082" lon="-0.8383">
        <time>2022-07-31T14:53:11Z</time>
      </trkpt>
      <trkpt lat="41.65057" lon="-0.83801">
        <time>2022-07-31T14:53:12Z</time>
      </trkpt>
      <trkpt lat="41.65032" lon="-0.83769">
        <time>2022-07-31T14:53:13Z</time>
      </trkpt>
      <trkpt lat="41.65007" lon="-0.83737">
        <time>2022-07-31T14:53:14Z</time>
      </trkpt>
      <trkpt lat="41.64983" lon="-0.83704">
        <time>2022-07-31T14:53:15Z</time>
      </trkpt>
      <trkpt lat="41.6496" lon="-0.83671">
        <time>2022-07-31T14:53:16Z</time>
      </trkpt>
      <trkpt lat="41.64935" lon="-0.83637">
        <time>2022-07-31T14:53:17Z</time>
      </trkpt>
      <trkpt lat="41.64911" lon="-0.83604">
        <time>2022-07-31T14:53:18Z</time>
      </trkpt>
      <trkpt lat="41.64886" lon="-0.83571">
        <time>2022-07-31T14:53:19Z</time>
      </trkpt>
      <trkpt lat="41.6486" lon="-0.83538">
        <time>2022-07-31T14:53:20Z</time>
      </trkpt>
      <trkpt lat="41.64834" lon="-0.83506">
        <time>2022-07-31T14:53:21Z</time>
      </trkpt>
      <trkpt lat="41.64808" lon="-0.83475">
        <time>2022-07-31T14:53:22Z</time>
      </trkpt>
      <trkpt lat="41.64781" lon="-0.83444">
        <time>2022-07-31T14:53:23Z</time>
      </trkpt>
      <trkpt lat="41.64753" lon="-0.83414">
        <time>2022-07-31T14:53:24Z</time>
      </trkpt>
      <trkpt lat="41.64725" lon="-0.83386">
        <time>2022-07-31T14:53:25Z</time>
      </trkpt>
      <trkpt lat="41.64695" lon="-0.83358">
        <time>2022-07-31T14:53:26Z</time>
      </trkpt>
      <trkpt lat="41.64665" lon="-0.83332">
        <time>2022-07-31T14:53:27Z</time>
      </trkpt>
      <trkpt lat="41.64634" lon="-0.83308">
        <time>2022-07-31T14:53:28Z</time>
      </trkpt>
      <trkpt lat="41.64602" lon="-0.83284">
        <time>2022-07-31T14:53:29Z</time>
      </trkpt>
      <trkpt lat="41.6457" lon="-0.83263">
        <time>2022-07-31T14:53:30Z</time>
      </trkpt>
      <trkpt lat="41.64537" lon="-0.83243">
        <time>2022-07-31T14:53:31Z</time>
      </trkpt>
      <trkpt lat="41.64503" lon="-0.83225">
        <time>2022-07-31T14:53:32Z</time>
      </trkpt>
      <trkpt lat="41.64469" lon="-0.83209">
        <time>2022-07-31T14:53:33Z</time>
      </trkpt>
      <trkpt lat="41.64434" lon="-0.83195">
        <time>2022-07-31T14:53:34Z</time>
      </trkpt>
      <trkpt lat="41.64399" lon="-0.83181">
        <time>2022-07-31T14:53:35Z</time>
      </trkpt>
      <trkpt lat="41.64364" lon="-0.83169">
        <time>2022-07-31T14:53:36Z</time>
      </trkpt>
      <trkpt lat="41.64329" lon="-0.83158">
        <time>2022-07-31T14:53:37Z</time>
      </trkpt>
      <trkpt lat="41.64293" lon="-0.83149">
        <time>2022-07-31T14:53:38Z</time>
      </trkpt>
      <trkpt lat="41.64257" lon="-0.83141">
        <time>2022-07-31T14:53:39Z</time>
      </trkpt>
      <trkpt lat="41.64222" lon="-0.83136">
        <time>2022-07-31T14:53:40Z</time>
      </trkpt>
      <trkpt lat="41.64186" lon="-0.83131">
        <time>2022-07-31T14:53:41Z</time>
      </trkpt>
      <trkpt lat="41.6415" lon="-0.83128">
        <time>2022-07-31T14:53:42Z</time>
      </trkpt>
      <trkpt lat="41.64114" lon="-0.83127">
        <time>2022-07-31T14:53:43Z</time>
      </trkpt>
      <trkpt lat="41.64078" lon="-0.83127">
        <time>2022-07-31T14:53:44Z</time>
      </trkpt>
      <trkpt lat="41.64042" lon="-0.8313">
        <time>2022-07-31T14:53:45Z</time>
      </trkpt>
      <trkpt lat="41.64007" lon="-0.83133">
        <time>2022-07-31T14:53:46Z</time>
      </trkpt>
      <trkpt lat="41.63972" lon="-0.83139">
        <time>2022-07-31T14:53:47Z</time>
      </trkpt>
      <trkpt lat="41.63937" lon="-0.83145">
        <time>2022-07-31T14:53:48Z</time>
      </trkpt>
      <trkpt lat="41.63902" lon="-0.83153">
        <time>2022-07-31T14:53:49Z</time>
      </trkpt>
      <trkpt lat="41.63868" lon="-0.83162">
        <time>2022-07-31T14:53:50Z</time>
      </trkpt>
      <trkpt lat="41.63834" lon="-0.83173">
        <time>2022-07-31T14:53:51Z</time>
      </trkpt>
      <trkpt lat="41.638" lon="-0.83185">
        <time>2022-07-31T14:53:52Z</time>
      </trkpt>
      <trkpt lat="41.63767" lon="-0.83199">
        <time>2022-07-31T14:53:53Z</time>
      </trkpt>
      <trkpt lat="41.63734" lon="-0.83214">
        <time>2022-07-31T14:53:54Z</time>
      </trkpt>
      <trkpt lat="41.63701" lon="-0.83231">
        <time>2022-07-31T14:53:55Z</time>
      </trkpt>
      <trkpt lat="41.63669" lon="-0.8325">
        <time>2022-07-31T14:53:56Z</time>
      </trkpt>
      <trkpt lat="41.63637" lon="-0.83269">
        <time>2022-07-31T14:53:57Z</time>
      </trkpt>
      <trkpt lat="41.63606" lon="-0.8329">
        <time>2022-07-31T14:53:58Z</time>
      </trkpt>
      <trkpt lat="41.63575" lon="-0.83312">
        <time>2022-07-31T14:53:59Z</time>
      </trkpt>
      <trkpt lat="41.63545" lon="-0.83337">
        <time>2022-07-31T14:54:00Z</time>
      </trkpt>
      <trkpt lat="41.63515" lon="-0.83362">
        <time>2022-07-31T14:54:01Z</time>
      </trkpt>
      <trkpt lat="41.63487" lon="-0.8339">
        <time>2022-07-31T14:54:02Z</time>
      </trkpt>
      <trkpt lat="41.6346" lon="-0.83419">
        <time>2022-07-31T14:54:03Z</time>
      </trkpt>
      <trkpt lat="41.63434" lon="-0.8345">
        <time>2022-07-31T14:54:04Z</time>
      </trkpt>
      <trkpt lat="41.6341" lon="-0.83483">
        <time>2022-07-31T14:54:05Z</time>
      </trkpt>
      <trkpt lat="41.63387" lon="-0.83517">
        <time>2022-07-31T14:54:06Z</time>
      </trkpt>
      <trkpt lat="41.63364" lon="-0.83552">
        <time>2022-07-31T14:54:07Z</time>
      </trkpt>
      <trkpt lat="41.63344" lon="-0.83589">
        <time>2022-07-31T14:54:08Z</time>
      </trkpt>
      <trkpt lat="41.63324" lon="-0.83627">
        <time>2022-07-31T14:54:09Z</time>
      </trkpt>
      <trkpt lat="41.63305" lon="-0.83666">
        <time>2022-07-31T14:54:10Z</time>
      </trkpt>
      <trkpt lat="41.63287" lon="-0.83706">
        <time>2022-07-31T14:54:11Z</time>
      </trkpt>
      <trkpt lat="41.6327" lon="-0.83747">
        <time>2022-07-31T14:54:12Z</time>
      </trkpt>
      <trkpt lat="41.63255" lon="-0.83787">
        <time>2022-07-31T14:54:13Z</time>
      </trkpt>
      <trkpt lat="41.63239" lon="-0.83827">
        <time>2022-07-31T14:54:14Z</time>
      </trkpt>
      <trkpt lat="41.63224" lon="-0.83866">
        <time>2022-07-31T14:54:15Z</time>
      </trkpt>
      <trkpt lat="41.63208" lon="-0.83905">
        <time>2022-07-31T14:54:16Z</time>
      </trkpt>
      <trkpt lat="41.63191" lon="-0.83943">
        <time>2022-07-31T14:54:17Z</time>
      </trkpt>
      <trkpt lat="41.63173" lon="-0.83979">
        <time>2022-07-31T14:54:18Z</time>
      </trkpt>
      <trkpt lat="41.63154" lon="-0.84013">
        <time>2022-07-31T14:54:19Z</time>
      </trkpt>
      <trkpt lat="41.63135" lon="-0.84046">
        <time>2022-07-31T14:54:20Z</time>
      </trkpt>
      <trkpt lat="41.63115" lon="-0.84077">
        <time>2022-07-31T14:54:21Z</time>
      </trkpt>
      <trkpt lat="41.63094" lon="-0.84105">
        <time>2022-07-31T14:54:22Z</time>
      </trkpt>
      <trkpt lat="41.63073" lon="-0.84132">
        <time>2022-07-31T14:54:23Z</time>
      </trkpt>
      <trkpt lat="41.63051" lon="-0.84157">
        <time>2022-07-31T14:54:24Z</time>
      </trkpt>
      <trkpt lat="41.63028" lon="-0.84181">
        <time>2022-07-31T14:54:25Z</time>
      </trkpt>
      <trkpt lat="41.63004" lon="-0.84203">
        <time>2022-07-31T14:54:26Z</time>
      </trkpt>
      <trkpt lat="41.6298" lon="-0.84223">
        <time>2022-07-31T14:54:27Z</time>
      </trkpt>
      <trkpt lat="41.62956" lon="-0.84243">
        <time>2022-07-31T14:54:28Z</time>
      </trkpt>
      <trkpt lat="41.62932" lon="-0.8426">
        <time>2022-07-31T14:54:29Z</time>
      </trkpt>
      <trkpt lat="41.62907" lon="-0.84277">
        <time>2022-07-31T14:54:30Z</time>
      </trkpt>
      <trkpt lat="41.62883" lon="-0.84293">
        <time>2022-07-31T14:54:31Z</time>
      </trkpt>
      <trkpt lat="41.6286" lon="-0.84309">
        <time>2022-07-31T14:54:32Z</time>
      </trkpt>
      <trkpt lat="41.62837" lon="-0.84326">
        <time>2022-07-31T14:54:33Z</time>
      </trkpt>
      <trkpt lat="41.62814" lon="-0.84344">
        <time>2022-07-31T14:54:34Z</time>
      </trkpt>
      <trkpt lat="41.62792" lon="-0.84362">
        <time>2022-07-31T14:54:35Z</time>
      </trkpt>
      <trkpt lat="41.62771" lon="-0.84384">
        <time>2022-07-31T14:54:36Z</time>
      </trkpt>
      <trkpt lat="41.62751" lon="-0.84407">
        <time>2022-07-31T14:54:37Z</time>
      </trkpt>
      <trkpt lat="41.62731" lon="-0.84432">
        <time>2022-07-31T14:54:38Z</time>
      </trkpt>
      <trkpt lat="41.62713" lon="-0.84457">
        <time>2022-07-31T14:54:39Z</time>
      </trkpt>
      <trkpt lat="41.62696" lon="-0.84483">
        <time>2022-07-31T14:54:40Z</time>
      </trkpt>
      <trkpt lat="41.62679" lon="-0.8451">
        <time>2022-07-31T14:54:41Z</time>
      </trkpt>
      <trkpt lat="41.62664" lon="-0.84536">
        <time>2022-07-31T14:54:42Z</time>
      </trkpt>
      <trkpt lat="41.6265" lon="-0.84562">
        <time>2022-07-31T14:54:43Z</time>
      </trkpt>
      <trkpt lat="41.62638" lon="-0.84588">
        <time>2022-07-31T14:54:44Z</time>
      </trkpt>
      <trkpt lat="41.62628" lon="-0.84612">
        <time>2022-07-31T14:54:45Z</time>
      </trkpt>
      <trkpt lat="41.6262" lon="-0.84636">
        <time>2022-07-31T14:54:46Z</time>
      </trkpt>
      <trkpt lat="41.62613" lon="-0.84658">
        <time>2022-07-31T14:54:47Z</time>
      </trkpt>
      <trkpt lat="41.62608" lon="-0.84678">
        <time>2022-07-31T14:54:48Z</time>
      </trkpt>
      <trkpt lat="41.62603" lon="-0.84699">
        <time>2022-07-31T14:54:49Z</time>
      </trkpt>
      <trkpt lat="41.62599" lon="-0.84718">
        <time>2022-07-31T14:54:50Z</time>
      </trkpt>
      <trkpt lat="41.62594" lon="-0.84737">
        <time>2022-07-31T14:54:51Z</time>
      </trkpt>
      <trkpt lat="41.62591" lon="-0.84755">
        <time>2022-07-31T14:54:52Z</time>
      </trkpt>
      <trkpt lat="41.62587" lon="-0.84771">
        <time>2022-07-31T14:54:53Z</time>
      </trkpt>
      <trkpt lat="41.62583" lon="-0.84785">
        <time>2022-07-31T14:54:54Z</time>
      </trkpt>
      <trkpt lat="41.62581" lon="-0.84797">
        <time>2022-07-31T14:54:55Z</time>
      </trkpt>
      <trkpt lat="41.6258" lon="-0.84805">
        <time>2022-07-31T14:54:56Z</time>
      </trkpt>
      <trkpt lat="41.62579" lon="-0.84811">
        <time>2022-07-31T14:54:57Z</time>
      </trkpt>
      <trkpt lat="41.62579" lon="-0.84816">
        <time>2022-07-31T14:54:58Z</time>
      </trkpt>
      <trkpt lat="41.6258" lon="-0.84824">
        <time>2022-07-31T14:54:59Z</time>
      </trkpt>
      <trkpt lat="41.62581" lon="-0.84836">
        <time>2022-07-31T14:55:00Z</time>
      </trkpt>
      <trkpt lat="41.62581" lon="-0.8485">
        <time>2022-07-31T14:55:01Z</time>
      </trkpt>
      <trkpt lat="41.6258" lon="-0.84864">
        <time>2022-07-31T14:55:02Z</time>
      </trkpt>
      <trkpt lat="41.62576" lon="-0.84878">
        <time>2022-07-31T14:55:03Z</time>
      </trkpt>
      <trkpt lat="41.6257" lon="-0.8489">
        <time>2022-07-31T14:55:04Z</time>
      </trkpt>
      <trkpt lat="41.62561" lon="-0.84898">
        <time>2022-07-31T14:55:05Z</time>
      </trkpt>
      <trkpt lat="41.62551" lon="-0.84905">
        <time>2022-07-31T14:55:06Z</time>
      </trkpt>
      <trkpt lat="41.62541" lon="-0.84908">
        <time>2022-07-31T14:55:07Z</time>
      </trkpt>
      <trkpt lat="41.6253" lon="-0.84909">
        <time>2022-07-31T14:55:08Z</time>
      </trkpt>
      <trkpt lat="41.6252" lon="-0.84906">
        <time>2022-07-31T14:55:09Z</time>
      </trkpt>
      <trkpt lat="41.6251" lon="-0.84897">
        <time>2022-07-31T14:55:10Z</time>
      </trkpt>
      <trkpt lat="41.62502" lon="-0.84887">
        <time>2022-07-31T14:55:11Z</time>
      </trkpt>
      <trkpt lat="41.62497" lon="-0.84873">
        <time>2022-07-31T14:55:12Z</time>
      </trkpt>
      <trkpt lat="41.62495" lon="-0.84859">
        <time>2022-07-31T14:55:13Z</time>
      </trkpt>
      <trkpt lat="41.62494" lon="-0.84844">
        <time>2022-07-31T14:55:14Z</time>
      </trkpt>
      <trkpt lat="41.62494" lon="-0.84829">
        <time>2022-07-31T14:55:15Z</time>
      </trkpt>
      <trkpt lat="41.62491" lon="-0.84814">
        <time>2022-07-31T14:55:16Z</time>
      </trkpt>
      <trkpt lat="41.62486" lon="-0.84799">
        <time>2022-07-31T14:55:17Z</time>
      </trkpt>
      <trkpt lat="41.62479" lon="-0.84785">
        <time>2022-07-31T14:55:18Z</time>
      </trkpt>
      <trkpt lat="41.62469" lon="-0.84771">
        <time>2022-07-31T14:55:19Z</time>
      </trkpt>
      <trkpt lat="41.62456" lon="-0.84756">
        <time>2022-07-31T14:55:20Z</time>
      </trkpt>
      <trkpt lat="41.62441" lon="-0.84742">
        <time>2022-07-31T14:55:21Z</time>
      </trkpt>
      <trkpt lat="41.62425" lon="-0.84726">
        <time>2022-07-31T14:55:22Z</time>
      </trkpt>
      <trkpt lat="41.62408" lon="-0.8471">
        <time>2022-07-31T14:55:23Z</time>
      </trkpt>
      <trkpt lat="41.62391" lon="-0.84693">
        <time>2022-07-31T14:55:24Z</time>
      </trkpt>
      <trkpt lat="41.62373" lon="-0.84674">
        <time>2022-07-31T14:55:25Z</time>
      </trkpt>
      <trkpt lat="41.62355" lon="-0.84655">
        <time>2022-07-31T14:55:26Z</time>
      </trkpt>
      <trkpt lat="41.62337" lon="-0.84636">
        <time>2022-07-31T14:55:27Z</time>
      </trkpt>
      <trkpt lat="41.62318" lon="-0.84617">
        <time>2022-07-31T14:55:28Z</time>
      </trkpt>
      <trkpt lat="41.623" lon="-0.84598">
        <time>2022-07-31T14:55:29Z</time>
      </trkpt>
      <trkpt lat="41.62281" lon="-0.84578">
        <time>2022-07-31T14:55:30Z</time>
      </trkpt>
      <trkpt lat="41.62261" lon="-0.84558">
        <time>2022-07-31T14:55:31Z</time>
      </trkpt>
      <trkpt lat="41.62241" lon="-0.84539">
        <time>2022-07-31T14:55:32Z</time>
      </trkpt>
      <trkpt lat="41.62219" lon="-0.84519">
        <time>2022-07-31T14:55:33Z</time>
      </trkpt>
      <trkpt lat="41.62196" lon="-0.84501">
        <time>2022-07-31T14:55:34Z</time>
      </trkpt>
      <trkpt lat="41.62173" lon="-0.84484">
        <time>2022-07-31T14:55:35Z</time>
      </trkpt>
      <trkpt lat="41.62148" lon="-0.8447">
        <time>2022-07-31T14:55:36Z</time>
      </trkpt>
      <trkpt lat="41.62122" lon="-0.84458">
        <time>2022-07-31T14:55:37Z</time>
      </trkpt>
      <trkpt lat="41.62095" lon="-0.84447">
        <time>2022-07-31T14:55:38Z</time>
      </trkpt>
      <trkpt lat="41.62068" lon="-0.84438">
        <time>2022-07-31T14:55:39Z</time>
      </trkpt>
      <trkpt lat="41.6204" lon="-0.8443">
        <time>2022-07-31T14:55:40Z</time>
      </trkpt>
      <trkpt lat="41.62013" lon="-0.84423">
        <time>2022-07-31T14:55:41Z</time>
      </trkpt>
      <trkpt lat="41.61986" lon="-0.84414">
        <time>2022-07-31T14:55:42Z</time>
      </trkpt>
      <trkpt lat="41.61959" lon="-0.84403">
        <time>2022-07-31T14:55:43Z</time>
      </trkpt>
      <trkpt lat="41.61932" lon="-0.8439">
        <time>2022-07-31T14:55:44Z</time>
      </trkpt>
      <trkpt lat="41.61906" lon="-0.84375">
        <time>2022-07-31T14:55:45Z</time>
      </trkpt>
      <trkpt lat="41.6188" lon="-0.84357">
        <time>2022-07-31T14:55:46Z</time>
      </trkpt>
      <trkpt lat="41.61855" lon="-0.84339">
        <time>2022-07-31T14:55:47Z</time>
      </trkpt>
      <trkpt lat="41.61831" lon="-0.84319">
        <time>2022-07-31T14:55:48Z</time>
      </trkpt>
      <trkpt lat="41.61808" lon="-0.84298">
        <time>2022-07-31T14:55:49Z</time>
      </trkpt>
      <trkpt lat="41.61784" lon="-0.84277">
        <time>2022-07-31T14:55:50Z</time>
      </trkpt>
      <trkpt lat="41.61761" lon="-0.84255">
        <time>2022-07-31T14:55:51Z</time>
      </trkpt>
      <trkpt lat="41.61737" lon="-0.84234">
        <time>2022-07-31T14:55:52Z</time>
      </trkpt>
      <trkpt lat="41.61714" lon="-0.84214">
        <time>2022-07-31T14:55:53Z</time>
      </trkpt>
      <trkpt lat="41.6169" lon="-0.84193">
        <time>2022-07-31T14:55:54Z</time>
      </trkpt>
      <trkpt lat="41.61666" lon="-0.84173">
        <time>2022-07-31T14:55:55Z</time>
      </trkpt>
      <trkpt lat="41.61642" lon="-0.84152">
        <time>2022-07-31T14:55:56Z</time>
      </trkpt>
      <trkpt lat="41.61618" lon="-0.84131">
        <time>2022-07-31T14:55:57Z</time>
      </trkpt>
      <trkpt lat="41.61595" lon="-0.84109">
        <time>2022-07-31T14:55:58Z</time>
      </trkpt>
      <trkpt lat="41.61572" lon="-0.84086">
        <time>2022-07-31T14:55:59Z</time>
      </trkpt>
      <trkpt lat="41.61549" lon="-0.84062">
        <time>2022-07-31T14:56:00Z</time>
      </trkpt>
      <trkpt lat="41.61528" lon="-0.84037">
        <time>2022-07-31T14:56:01Z</time>
      </trkpt>
      <trkpt lat="41.61507" lon="-0.84011">
        <time>2022-07-31T14:56:02Z</time>
      </trkpt>
      <trkpt lat="41.61485" lon="-0.83985">
        <time>2022-07-31T14:56:03Z</time>
      </trkpt>
      <trkpt lat="41.61464" lon="-0.83958">
        <time>2022-07-31T14:56:04Z</time>
      </trkpt>
      <trkpt lat="41.61443" lon="-0.83932">
        <time>2022-07-31T14:56:05Z</time>
      </trkpt>
      <trkpt lat="41.61422" lon="-0.83905">
        <time>2022-07-31T14:56:06Z</time>
      </trkpt>
      <trkpt lat="41.61401" lon="-0.83878">
        <time>2022-07-31T14:56:07Z</time>
      </trkpt>
      <trkpt lat="41.6138" lon="-0.83852">
        <time>2022-07-31T14:56:08Z</time>
      </trkpt>
      <trkpt lat="41.61359" lon="-0.83825">
        <time>2022-07-31T14:56:09Z</time>
      </trkpt>
      <trkpt lat="41.61338" lon="-0.83798">
        <time>2022-07-31T14:56:10Z</time>
      </trkpt>
      <trkpt lat="41.61317" lon="-0.83771">
        <time>2022-07-31T14:56:11Z</time>
      </trkpt>
      <trkpt lat="41.61296" lon="-0.83744">
        <time>2022-07-31T14:56:12Z</time>
      </trkpt>
      <trkpt lat="41.61275" lon="-0.83717">
        <time>2022-07-31T14:56:13Z</time>
      </trkpt>
      <trkpt lat="41.61254" lon="-0.8369">
        <time>2022-07-31T14:56:14Z</time>
      </trkpt>
      <trkpt lat="41.61233" lon="-0.83663">
        <time>2022-07-31T14:56:15Z</time>
      </trkpt>
      <trkpt lat="41.61211" lon="-0.83636">
        <time>2022-07-31T14:56:16Z</time>
      </trkpt>
      <trkpt lat="41.61189" lon="-0.83608">
        <time>2022-07-31T14:56:17Z</time>
      </trkpt>
      <trkpt lat="41.61167" lon="-0.83581">
        <time>2022-07-31T14:56:18Z</time>
      </trkpt>
      <trkpt lat="41.61146" lon="-0.83553">
        <time>2022-07-31T14:56:19Z</time>
      </trkpt>
      <trkpt lat="41.61124" lon="-0.83526">
        <time>2022-07-31T14:56:20Z</time>
      </trkpt>
      <trkpt lat="41.61101" lon="-0.83498">
        <time>2022-07-31T14:56:21Z</time>
      </trkpt>
      <trkpt lat="41.61079" lon="-0.83469">
        <time>2022-07-31T14:56:22Z</time>
      </trkpt>
      <trkpt lat="41.61056" lon="-0.83441">
        <time>2022-07-31T14:56:23Z</time>
      </trkpt>
      <trkpt lat="41.61034" lon="-0.83413">
        <time>2022-07-31T14:56:24Z</time>
      </trkpt>
      <trkpt lat="41.61012" lon="-0.83384">
        <time>2022-07-31T14:56:25Z</time>
      </trkpt>
      <trkpt lat="41.60989" lon="-0.83355">
        <time>2022-07-31T14:56:26Z</time>
      </trkpt>
      <trkpt lat="41.60967" lon="-0.83326">
        <time>2022-07-31T14:56:27Z</time>
      </trkpt>
      <trkpt lat="41.60945" lon="-0.83298">
        <time>2022-07-31T14:56:28Z</time>
      </trkpt>
      <trkpt lat="41.60922" lon="-0.83269">
        <time>2022-07-31T14:56:29Z</time>
      </trkpt>
      <trkpt lat="41.60899" lon="-0.83241">
        <time>2022-07-31T14:56:30Z</time>
      </trkpt>
      <trkpt lat="41.60876" lon="-0.83212">
        <time>2022-07-31T14:56:31Z</time>
      </trkpt>
      <trkpt lat="41.60854" lon="-0.83184">
        <time>2022-07-31T14:56:32Z</time>
      </trkpt>
      <trkpt lat="41.60832" lon="-0.83155">
        <time>2022-07-31T14:56:33Z</time>
      </trkpt>
      <trkpt lat="41.60809" lon="-0.83127">
        <time>2022-07-31T14:56:34Z</time>
      </trkpt>
      <trkpt lat="41.60787" lon="-0.83098">
        <time>2022-07-31T14:56:35Z</time>
      </trkpt>
      <trkpt lat="41.60764" lon="-0.8307">
        <time>2022-07-31T14:56:36Z</time>
      </trkpt>
      <trkpt lat="41.60742" lon="-0.83042">
        <time>2022-07-31T14:56:37Z</time>
      </trkpt>
      <trkpt lat="41.60721" lon="-0.83014">
        <time>2022-07-31T14:56:38Z</time>
      </trkpt>
      <trkpt lat="41.60699" lon="-0.82985">
        <time>2022-07-31T14:56:39Z</time>
      </trkpt>
      <trkpt lat="41.60677" lon="-0.82958">
        <time>2022-07-31T14:56:40Z</time>
      </trkpt>
      <trkpt lat="41.60654" lon="-0.8293">
        <time>2022-07-31T14:56:41Z</time>
      </trkpt>
      <trkpt lat="41.60631" lon="-0.82903">
        <time>2022-07-31T14:56:42Z</time>
      </trkpt>
      <trkpt lat="41.60607" lon="-0.82877">
        <time>2022-07-31T14:56:43Z</time>
      </trkpt>
      <trkpt lat="41.60582" lon="-0.82851">
        <time>2022-07-31T14:56:44Z</time>
      </trkpt>
      <trkpt lat="41.60558" lon="-0.82824">
        <time>2022-07-31T14:56:45Z</time>
      </trkpt>
      <trkpt lat="41.60534" lon="-0.82797">
        <time>2022-07-31T14:56:46Z</time>
      </trkpt>
      <trkpt lat="41.6051" lon="-0.82769">
        <time>2022-07-31T14:56:47Z</time>
      </trkpt>
      <trkpt lat="41.60485" lon="-0.82741">
        <time>2022-07-31T14:56:48Z</time>
      </trkpt>
      <trkpt lat="41.60461" lon="-0.82712">
        <time>2022-07-31T14:56:49Z</time>
      </trkpt>
      <trkpt lat="41.60437" lon="-0.82682">
        <time>2022-07-31T14:56:50Z</time>
      </trkpt>
      <trkpt lat="41.60414" lon="-0.82653">
        <time>2022-07-31T14:56:51Z</time>
      </trkpt>
      <trkpt lat="41.6039" lon="-0.82624">
        <time>2022-07-31T14:56:52Z</time>
      </trkpt>
      <trkpt lat="41.60367" lon="-0.82594">
        <time>2022-07-31T14:56:53Z</time>
      </trkpt>
      <trkpt lat="41.60345" lon="-0.82565">
        <time>2022-07-31T14:56:54Z</time>
      </trkpt>
      <trkpt lat="41.60324" lon="-0.82534">
        <time>2022-07-31T14:56:55Z</time>
      </trkpt>
      <trkpt lat="41.60305" lon="-0.82503">
        <time>2022-07-31T14:56:56Z</time>
      </trkpt>
      <trkpt lat="41.60287" lon="-0.82471">
        <time>2022-07-31T14:56:57Z</time>
      </trkpt>
      <trkpt lat="41.60271" lon="-0.82437">
        <time>2022-07-31T14:56:58Z</time>
      </trkpt>
      <trkpt lat="41.60257" lon="-0.82402">
        <time>2022-07-31T14:56:59Z</time>
      </trkpt>
      <trkpt lat="41.60245" lon="-0.82365">
        <time>2022-07-31T14:57:00Z</time>
      </trkpt>
      <trkpt lat="41.60234" lon="-0.82327">
        <time>2022-07-31T14:57:01Z</time>
      </trkpt>
      <trkpt lat="41.60226" lon="-0.82288">
        <time>2022-07-31T14:57:02Z</time>
      </trkpt>
      <trkpt lat="41.60218" lon="-0.82248">
        <time>2022-07-31T14:57:03Z</time>
      </trkpt>
      <trkpt lat="41.60211" lon="-0.82208">
        <time>2022-07-31T14:57:04Z</time>
      </trkpt>
      <trkpt lat="41.60205" lon="-0.82167">
        <time>2022-07-31T14:57:05Z</time>
      </trkpt>
      <trkpt lat="41.60199" lon="-0.82126">
        <time>2022-07-31T14:57:06Z</time>
      </trkpt>
      <trkpt lat="41.60193" lon="-0.82084">
        <time>2022-07-31T14:57:07Z</time>
      </trkpt>
      <trkpt lat="41.60188" lon="-0.82042">
        <time>2022-07-31T14:57:08Z</time>
      </trkpt>
      <trkpt lat="41.60182" lon="-0.82">
        <time>2022-07-31T14:57:09Z</time>
      </trkpt>
      <trkpt lat="41.60176" lon="-0.81958">
        <time>2022-07-31T14:57:10Z</time>
      </trkpt>
      <trkpt lat="41.60171" lon="-0.81916">
        <time>2022-07-31T14:57:11Z</time>
      </trkpt>
      <trkpt lat="41.60165" lon="-0.81874">
        <time>2022-07-31T14:57:12Z</time>
      </trkpt>
      <trkpt lat="41.6016" lon="-0.81831">
        <time>2022-07-31T14:57:13Z</time>
      </trkpt>
      <trkpt lat="41.60154" lon="-0.81789">
        <time>2022-07-31T14:57:14Z</time>
      </trkpt>
      <trkpt lat="41.60148" lon="-0.81748">
        <time>2022-07-31T14:57:15Z</time>
      </trkpt>
      <trkpt lat="41.60142" lon="-0.81706">
        <time>2022-07-31T14:57:16Z</time>
      </trkpt>
      <trkpt lat="41.60134" lon="-0.81666">
        <time>2022-07-31T14:57:17Z</time>
      </trkpt>
      <trkpt lat="41.60126" lon="-0.81625">
        <time>2022-07-31T14:57:18Z</time>
      </trkpt>
      <trkpt lat="41.60115" lon="-0.81585">
        <time>2022-07-31T14:57:19Z</time>
      </trkpt>
      <trkpt lat="41.60103" lon="-0.81546">
        <time>2022-07-31T14:57:20Z</time>
      </trkpt>
      <trkpt lat="41.6009" lon="-0.81507">
        <time>2022-07-31T14:57:21Z</time>
      </trkpt>
      <trkpt lat="41.60076" lon="-0.81469">
        <time>2022-07-31T14:57:22Z</time>
      </trkpt>
      <trkpt lat="41.60061" lon="-0.81431">
        <time>2022-07-31T14:57:23Z</time>
      </trkpt>
      <trkpt lat="41.60046" lon="-0.81393">
        <time>2022-07-31T14:57:24Z</time>
      </trkpt>
      <trkpt lat="41.60031" lon="-0.81354">
        <time>2022-07-31T14:57:25Z</time>
      </trkpt>
      <trkpt lat="41.60016" lon="-0.81315">
        <time>2022-07-31T14:57:26Z</time>
      </trkpt>
      <trkpt lat="41.60001" lon="-0.81276">
        <time>2022-07-31T14:57:27Z</time>
      </trkpt>
      <trkpt lat="41.59986" lon="-0.81237">
        <time>2022-07-31T14:57:28Z</time>
      </trkpt>
      <trkpt lat="41.59971" lon="-0.81198">
        <time>2022-07-31T14:57:29Z</time>
      </trkpt>
      <trkpt lat="41.59956" lon="-0.81158">
        <time>2022-07-31T14:57:30Z</time>
      </trkpt>
      <trkpt lat="41.5994" lon="-0.81119">
        <time>2022-07-31T14:57:31Z</time>
      </trkpt>
      <trkpt lat="41.59925" lon="-0.81079">
        <time>2022-07-31T14:57:32Z</time>
      </trkpt>
      <trkpt lat="41.59909" lon="-0.8104">
        <time>2022-07-31T14:57:33Z</time>
      </trkpt>
      <trkpt lat="41.59894" lon="-0.81">
        <time>2022-07-31T14:57:34Z</time>
      </trkpt>
      <trkpt lat="41.59878" lon="-0.8096">
        <time>2022-07-31T14:57:35Z</time>
      </trkpt>
      <trkpt lat="41.59862" lon="-0.80921">
        <time>2022-07-31T14:57:36Z</time>
      </trkpt>
      <trkpt lat="41.59846" lon="-0.80881">
        <time>2022-07-31T14:57:37Z</time>
      </trkpt>
      <trkpt lat="41.5983" lon="-0.80841">
        <time>2022-07-31T14:57:38Z</time>
      </trkpt>
      <trkpt lat="41.59815" lon="-0.80802">
        <time>2022-07-31T14:57:39Z</time>
      </trkpt>
      <trkpt lat="41.59799" lon="-0.80763">
        <time>2022-07-31T14:57:40Z</time>
      </trkpt>
      <trkpt lat="41.59783" lon="-0.80725">
        <time>2022-07-31T14:57:41Z</time>
      </trkpt>
      <trkpt lat="41.59768" lon="-0.80686">
        <time>2022-07-31T14:57:42Z</time>
      </trkpt>
      <trkpt lat="41.59752" lon="-0.80648">
        <time>2022-07-31T14:57:43Z</time>
      </trkpt>
      <trkpt lat="41.59737" lon="-0.8061">
        <time>2022-07-31T14:57:44Z</time>
      </trkpt>
      <trkpt lat="41.59722" lon="-0.80571">
        <time>2022-07-31T14:57:45Z</time>
      </trkpt>
      <trkpt lat="41.59706" lon="-0.80532">
        <time>2022-07-31T14:57:46Z</time>
      </trkpt>
      <trkpt lat="41.5969" lon="-0.80493">
        <time>2022-07-31T14:57:47Z</time>
      </trkpt>
      <trkpt lat="41.59675" lon="-0.80453">
        <time>2022-07-31T14:57:48Z</time>
      </trkpt>
      <trkpt lat="41.59659" lon="-0.80413">
        <time>2022-07-31T14:57:49Z</time>
      </trkpt>
      <trkpt lat="41.59643" lon="-0.80373">
        <time>2022-07-31T14:57:50Z</time>
      </trkpt>
      <trkpt lat="41.59628" lon="-0.80333">
        <time>2022-07-31T14:57:51Z</time>
      </trkpt>
      <trkpt lat="41.59612" lon="-0.80292">
        <time>2022-07-31T14:57:52Z</time>
      </trkpt>
      <trkpt lat="41.59596" lon="-0.80252">
        <time>2022-07-31T14:57:53Z</time>
      </trkpt>
      <trkpt lat="41.5958" lon="-0.80212">
        <time>2022-07-31T14:57:54Z</time>
      </trkpt>
      <trkpt lat="41.59563" lon="-0.80173">
        <time>2022-07-31T14:57:55Z</time>
      </trkpt>
      <trkpt lat="41.59546" lon="-0.80134">
        <time>2022-07-31T14:57:56Z</time>
      </trkpt>
      <trkpt lat="41.59529" lon="-0.80095">
        <time>2022-07-31T14:57:57Z</time>
      </trkpt>
      <trkpt lat="41.59512" lon="-0.80056">
        <time>2022-07-31T14:57:58Z</time>
      </trkpt>
      <trkpt lat="41.59494" lon="-0.80017">
        <time>2022-07-31T14:57:59Z</time>
      </trkpt>
      <trkpt lat="41.59477" lon="-0.79978">
        <time>2022-07-31T14:58:00Z</time>
      </trkpt>
      <trkpt lat="41.59459" lon="-0.79939">
        <time>2022-07-31T14:58:01Z</time>
      </trkpt>
      <trkpt lat="41.59441" lon="-0.799">
        <time>2022-07-31T14:58:02Z</time>
      </trkpt>
      <trkpt lat="41.59423" lon="-0.79861">
        <time>2022-07-31T14:58:03Z</time>
      </trkpt>
      <trkpt lat="41.59406" lon="-0.79821">
        <time>2022-07-31T14:58:04Z</time>
      </trkpt>
      <trkpt lat="41.59388" lon="-0.79782">
        <time>2022-07-31T14:58:05Z</time>
      </trkpt>
      <trkpt lat="41.5937" lon="-0.79742">
        <time>2022-07-31T14:58:06Z</time>
      </trkpt>
      <trkpt lat="41.59352" lon="-0.79703">
        <time>2022-07-31T14:58:07Z</time>
      </trkpt>
      <trkpt lat="41.59334" lon="-0.79664">
        <time>2022-07-31T14:58:08Z</time>
      </trkpt>
      <trkpt lat="41.59316" lon="-0.79624">
        <time>2022-07-31T14:58:09Z</time>
      </trkpt>
      <trkpt lat="41.59297" lon="-0.79585">
        <time>2022-07-31T14:58:10Z</time>
      </trkpt>
      <trkpt lat="41.59278" lon="-0.79546">
        <time>2022-07-31T14:58:11Z</time>
      </trkpt>
      <trkpt lat="41.59258" lon="-0.79507">
        <time>2022-07-31T14:58:12Z</time>
      </trkpt>
      <trkpt lat="41.59239" lon="-0.79468">
        <time>2022-07-31T14:58:13Z</time>
      </trkpt>
      <trkpt lat="41.59219" lon="-0.79429">
        <time>2022-07-31T14:58:14Z</time>
      </trkpt>
      <trkpt lat="41.592" lon="-0.7939">
        <time>2022-07-31T14:58:15Z</time>
      </trkpt>
      <trkpt lat="41.59181" lon="-0.79351">
        <time>2022-07-31T14:58:16Z</time>
      </trkpt>
      <trkpt lat="41.59163" lon="-0.79311">
        <time>2022-07-31T14:58:17Z</time>
      </trkpt>
      <trkpt lat="41.59144" lon="-0.79271">
        <time>2022-07-31T14:58:18Z</time>
      </trkpt>
      <trkpt lat="41.59125" lon="-0.79231">
        <time>2022-07-31T14:58:19Z</time>
      </trkpt>
      <trkpt lat="41.59107" lon="-0.79191">
        <time>2022-07-31T14:58:20Z</time>
      </trkpt>
      <trkpt lat="41.59088" lon="-0.79151">
        <time>2022-07-31T14:58:21Z</time>
      </trkpt>
      <trkpt lat="41.59071" lon="-0.79112">
        <time>2022-07-31T14:58:22Z</time>
      </trkpt>
      <trkpt lat="41.59053" lon="-0.79072">
        <time>2022-07-31T14:58:23Z</time>
      </trkpt>
      <trkpt lat="41.59036" lon="-0.79031">
        <time>2022-07-31T14:58:24Z</time>
      </trkpt>
      <trkpt lat="41.59019" lon="-0.7899">
        <time>2022-07-31T14:58:25Z</time>
      </trkpt>
      <trkpt lat="41.59002" lon="-0.78949">
        <time>2022-07-31T14:58:26Z</time>
      </trkpt>
      <trkpt lat="41.58986" lon="-0.78907">
        <time>2022-07-31T14:58:27Z</time>
      </trkpt>
      <trkpt lat="41.5897" lon="-0.78866">
        <time>2022-07-31T14:58:28Z</time>
      </trkpt>
      <trkpt lat="41.58953" lon="-0.78826">
        <time>2022-07-31T14:58:29Z</time>
      </trkpt>
      <trkpt lat="41.58935" lon="-0.78785">
        <time>2022-07-31T14:58:30Z</time>
      </trkpt>
      <trkpt lat="41.58918" lon="-0.78744">
        <time>2022-07-31T14:58:31Z</time>
      </trkpt>
      <trkpt lat="41.58901" lon="-0.78704">
        <time>2022-07-31T14:58:32Z</time>
      </trkpt>
      <trkpt lat="41.58883" lon="-0.78664">
        <time>2022-07-31T14:58:33Z</time>
      </trkpt>
      <trkpt lat="41.58865" lon="-0.78624">
        <time>2022-07-31T14:58:34Z</time>
      </trkpt>
      <trkpt lat="41.58847" lon="-0.78585">
        <time>2022-07-31T14:58:35Z</time>
      </trkpt>
      <trkpt lat="41.58829" lon="-0.78545">
        <time>2022-07-31T14:58:36Z</time>
      </trkpt>
      <trkpt lat="41.58811" lon="-0.78506">
        <time>2022-07-31T14:58:37Z</time>
      </trkpt>
      <trkpt lat="41.58793" lon="-0.78467">
        <time>2022-07-31T14:58:38Z</time>
      </trkpt>
      <trkpt lat="41.58776" lon="-0.78428">
        <time>2022-07-31T14:58:39Z</time>
      </trkpt>
      <trkpt lat="41.58758" lon="-0.78391">
        <time>2022-07-31T14:58:40Z</time>
      </trkpt>
      <trkpt lat="41.5874" lon="-0.78352">
        <time>2022-07-31T14:58:41Z</time>
      </trkpt>
      <trkpt lat="41.58722" lon="-0.78314">
        <time>2022-07-31T14:58:42Z</time>
      </trkpt>
      <trkpt lat="41.58705" lon="-0.78276">
        <time>2022-07-31T14:58:43Z</time>
      </trkpt>
      <trkpt lat="41.58687" lon="-0.78238">
        <time>2022-07-31T14:58:44Z</time>
      </trkpt>
      <trkpt lat="41.5867" lon="-0.782">
        <time>2022-07-31T14:58:45Z</time>
      </trkpt>
      <trkpt lat="41.58652" lon="-0.78162">
        <time>2022-07-31T14:58:46Z</time>
      </trkpt>
      <trkpt lat="41.58635" lon="-0.78125">
        <time>2022-07-31T14:58:47Z</time>
      </trkpt>
      <trkpt lat="41.58619" lon="-0.78089">
        <time>2022-07-31T14:58:48Z</time>
      </trkpt>
      <trkpt lat="41.58602" lon="-0.78053">
        <time>2022-07-31T14:58:49Z</time>
      </trkpt>
      <trkpt lat="41.58587" lon="-0.78017">
        <time>2022-07-31T14:58:50Z</time>
      </trkpt>
      <trkpt lat="41.58571" lon="-0.77981">
        <time>2022-07-31T14:58:51Z</time>
      </trkpt>
      <trkpt lat="41.58554" lon="-0.77945">
        <time>2022-07-31T14:58:52Z</time>
      </trkpt>
      <trkpt lat="41.58538" lon="-0.7791">
        <time>2022-07-31T14:58:53Z</time>
      </trkpt>
      <trkpt lat="41.58522" lon="-0.77873">
        <time>2022-07-31T14:58:54Z</time>
      </trkpt>
      <trkpt lat="41.58506" lon="-0.77837">
        <time>2022-07-31T14:58:55Z</time>
      </trkpt>
      <trkpt lat="41.5849" lon="-0.778">
        <time>2022-07-31T14:58:56Z</time>
      </trkpt>
      <trkpt lat="41.58474" lon="-0.77762">
        <time>2022-07-31T14:58:57Z</time>
      </trkpt>
      <trkpt lat="41.58459" lon="-0.77724">
        <time>2022-07-31T14:58:58Z</time>
      </trkpt>
      <trkpt lat="41.58444" lon="-0.77686">
        <time>2022-07-31T14:58:59Z</time>
      </trkpt>
      <trkpt lat="41.58429" lon="-0.77647">
        <time>2022-07-31T14:59:00Z</time>
      </trkpt>
      <trkpt lat="41.58414" lon="-0.77608">
        <time>2022-07-31T14:59:01Z</time>
      </trkpt>
      <trkpt lat="41.584" lon="-0.77569">
        <time>2022-07-31T14:59:02Z</time>
      </trkpt>
      <trkpt lat="41.58386" lon="-0.77529">
        <time>2022-07-31T14:59:03Z</time>
      </trkpt>
      <trkpt lat="41.58371" lon="-0.77489">
        <time>2022-07-31T14:59:04Z</time>
      </trkpt>
      <trkpt lat="41.58357" lon="-0.77449">
        <time>2022-07-31T14:59:05Z</time>
      </trkpt>
      <trkpt lat="41.58343" lon="-0.77409">
        <time>2022-07-31T14:59:06Z</time>
      </trkpt>
      <trkpt lat="41.58329" lon="-0.77369">
        <time>2022-07-31T14:59:07Z</time>
      </trkpt>
      <trkpt lat="41.58314" lon="-0.7733">
        <time>2022-07-31T14:59:08Z</time>
      </trkpt>
      <trkpt lat="41.583" lon="-0.7729">
        <time>2022-07-31T14:59:09Z</time>
      </trkpt>
      <trkpt lat="41.58286" lon="-0.7725">
        <time>2022-07-31T14:59:10Z</time>
      </trkpt>
      <trkpt lat="41.58272" lon="-0.7721">
        <time>2022-07-31T14:59:11Z</time>
      </trkpt>
      <trkpt lat="41.58258" lon="-0.77172">
        <time>2022-07-31T14:59:12Z</time>
      </trkpt>
      <trkpt lat="41.58243" lon="-0.77132">
        <time>2022-07-31T14:59:13Z</time>
      </trkpt>
      <trkpt lat="41.58228" lon="-0.77093">
        <time>2022-07-31T14:59:14Z</time>
      </trkpt>
      <trkpt lat="41.58215" lon="-0.77053">
        <time>2022-07-31T14:59:15Z</time>
      </trkpt>
      <trkpt lat="41.582" lon="-0.77014">
        <time>2022-07-31T14:59:16Z</time>
      </trkpt>
      <trkpt lat="41.58186" lon="-0.76975">
        <time>2022-07-31T14:59:17Z</time>
      </trkpt>
      <trkpt lat="41.58172" lon="-0.76936">
        <time>2022-07-31T14:59:18Z</time>
      </trkpt>
      <trkpt lat="41.58158" lon="-0.76897">
        <time>2022-07-31T14:59:19Z</time>
      </trkpt>
      <trkpt lat="41.58145" lon="-0.76858">
        <time>2022-07-31T14:59:20Z</time>
      </trkpt>
      <trkpt lat="41.5813" lon="-0.76819">
        <time>2022-07-31T14:59:21Z</time>
      </trkpt>
      <trkpt lat="41.58116" lon="-0.7678">
        <time>2022-07-31T14:59:22Z</time>
      </trkpt>
      <trkpt lat="41.58103" lon="-0.76742">
        <time>2022-07-31T14:59:23Z</time>
      </trkpt>
      <trkpt lat="41.58088" lon="-0.76703">
        <time>2022-07-31T14:59:24Z</time>
      </trkpt>
      <trkpt lat="41.58074" lon="-0.76665">
        <time>2022-07-31T14:59:25Z</time>
      </trkpt>
      <trkpt lat="41.5806" lon="-0.76626">
        <time>2022-07-31T14:59:26Z</time>
      </trkpt>
      <trkpt lat="41.58047" lon="-0.76587">
        <time>2022-07-31T14:59:27Z</time>
      </trkpt>
      <trkpt lat="41.58033" lon="-0.76549">
        <time>2022-07-31T14:59:28Z</time>
      </trkpt>
      <trkpt lat="41.5802" lon="-0.76511">
        <time>2022-07-31T14:59:29Z</time>
      </trkpt>
      <trkpt lat="41.58006" lon="-0.76473">
        <time>2022-07-31T14:59:30Z</time>
      </trkpt>
      <trkpt lat="41.57993" lon="-0.76436">
        <time>2022-07-31T14:59:31Z</time>
      </trkpt>
      <trkpt lat="41.5798" lon="-0.76398">
        <time>2022-07-31T14:59:32Z</time>
      </trkpt>
      <trkpt lat="41.57968" lon="-0.7636">
        <time>2022-07-31T14:59:33Z</time>
      </trkpt>
      <trkpt lat="41.57956" lon="-0.76322">
        <time>2022-07-31T14:59:34Z</time>
      </trkpt>
      <trkpt lat="41.57945" lon="-0.76285">
        <time>2022-07-31T14:59:35Z</time>
      </trkpt>
      <trkpt lat="41.57933" lon="-0.76247">
        <time>2022-07-31T14:59:36Z</time>
      </trkpt>
      <trkpt lat="41.57921" lon="-0.7621">
        <time>2022-07-31T14:59:37Z</time>
      </trkpt>
      <trkpt lat="41.57909" lon="-0.76173">
        <time>2022-07-31T14:59:38Z</time>
      </trkpt>
      <trkpt lat="41.57896" lon="-0.76136">
        <time>2022-07-31T14:59:39Z</time>
      </trkpt>
      <trkpt lat="41.57884" lon="-0.76099">
        <time>2022-07-31T14:59:40Z</time>
      </trkpt>
      <trkpt lat="41.57872" lon="-0.76061">
        <time>2022-07-31T14:59:41Z</time>
      </trkpt>
      <trkpt lat="41.57861" lon="-0.76024">
        <time>2022-07-31T14:59:42Z</time>
      </trkpt>
      <trkpt lat="41.57849" lon="-0.75986">
        <time>2022-07-31T14:59:43Z</time>
      </trkpt>
      <trkpt lat="41.57837" lon="-0.75949">
        <time>2022-07-31T14:59:44Z</time>
      </trkpt>
      <trkpt lat="41.57825" lon="-0.75912">
        <time>2022-07-31T14:59:45Z</time>
      </trkpt>
      <trkpt lat="41.57813" lon="-0.75875">
        <time>2022-07-31T14:59:46Z</time>
      </trkpt>
      <trkpt lat="41.57801" lon="-0.75838">
        <time>2022-07-31T14:59:47Z</time>
      </trkpt>
      <trkpt lat="41.57788" lon="-0.75802">
        <time>2022-07-31T14:59:48Z</time>
      </trkpt>
      <trkpt lat="41.57775" lon="-0.75767">
        <time>2022-07-31T14:59:49Z</time>
      </trkpt>
      <trkpt lat="41.57761" lon="-0.75734">
        <time>2022-07-31T14:59:50Z</time>
      </trkpt>
      <trkpt lat="41.57747" lon="-0.75703">
        <time>2022-07-31T14:59:51Z</time>
      </trkpt>
      <trkpt lat="41.57733" lon="-0.75673">
        <time>2022-07-31T14:59:52Z</time>
      </trkpt>
      <trkpt lat="41.57717" lon="-0.75643">
        <time>2022-07-31T14:59:53Z</time>
      </trkpt>
      <trkpt lat="41.57701" lon="-0.75615">
        <time>2022-07-31T14:59:54Z</time>
      </trkpt>
      <trkpt lat="41.57685" lon="-0.7559">
        <time>2022-07-31T14:59:55Z</time>
      </trkpt>
      <trkpt lat="41.5767" lon="-0.75566">
        <time>2022-07-31T14:59:56Z</time>
      </trkpt>
      <trkpt lat="41.57653" lon="-0.75543">
        <time>2022-07-31T14:59:57Z</time>
      </trkpt>
      <trkpt lat="41.57637" lon="-0.75521">
        <time>2022-07-31T14:59:58Z</time>
      </trkpt>
      <trkpt lat="41.5762" lon="-0.75498">
        <time>2022-07-31T14:59:59Z</time>
      </trkpt>
      <trkpt lat="41.57602" lon="-0.75477">
        <time>2022-07-31T15:00:00Z</time>
      </trkpt>
      <trkpt lat="41.57584" lon="-0.75456">
        <time>2022-07-31T15:00:01Z</time>
      </trkpt>
      <trkpt lat="41.57565" lon="-0.75438">
        <time>2022-07-31T15:00:02Z</time>
      </trkpt>
      <trkpt lat="41.57547" lon="-0.7542">
        <time>2022-07-31T15:00:03Z</time>
      </trkpt>
      <trkpt lat="41.57529" lon="-0.75404">
        <time>2022-07-31T15:00:04Z</time>
      </trkpt>
      <trkpt lat="41.57511" lon="-0.75388">
        <time>2022-07-31T15:00:05Z</time>
      </trkpt>
      <trkpt lat="41.57492" lon="-0.75372">
        <time>2022-07-31T15:00:06Z</time>
      </trkpt>
      <trkpt lat="41.57473" lon="-0.75357">
        <time>2022-07-31T15:00:07Z</time>
      </trkpt>
      <trkpt lat="41.57454" lon="-0.75343">
        <time>2022-07-31T15:00:08Z</time>
      </trkpt>
      <trkpt lat="41.57435" lon="-0.7533">
        <time>2022-07-31T15:00:09Z</time>
      </trkpt>
      <trkpt lat="41.57415" lon="-0.75317">
        <time>2022-07-31T15:00:10Z</time>
      </trkpt>
      <trkpt lat="41.57395" lon="-0.75304">
        <time>2022-07-31T15:00:11Z</time>
      </trkpt>
      <trkpt lat="41.57374" lon="-0.75291">
        <time>2022-07-31T15:00:12Z</time>
      </trkpt>
      <trkpt lat="41.57354" lon="-0.75278">
        <time>2022-07-31T15:00:13Z</time>
      </trkpt>
      <trkpt lat="41.57334" lon="-0.75266">
        <time>2022-07-31T15:00:14Z</time>
      </trkpt>
      <trkpt lat="41.57313" lon="-0.75253">
        <time>2022-07-31T15:00:15Z</time>
      </trkpt>
      <trkpt lat="41.57293" lon="-0.7524">
        <time>2022-07-31T15:00:16Z</time>
      </trkpt>
      <trkpt lat="41.57273" lon="-0.75228">
        <time>2022-07-31T15:00:17Z</time>
      </trkpt>
      <trkpt lat="41.57253" lon="-0.75215">
        <time>2022-07-31T15:00:18Z</time>
      </trkpt>
      <trkpt lat="41.57233" lon="-0.75202">
        <time>2022-07-31T15:00:19Z</time>
      </trkpt>
      <trkpt lat="41.57213" lon="-0.75189">
        <time>2022-07-31T15:00:20Z</time>
      </trkpt>
      <trkpt lat="41.57193" lon="-0.75176">
        <time>2022-07-31T15:00:21Z</time>
      </trkpt>
      <trkpt lat="41.57173" lon="-0.75161">
        <time>2022-07-31T15:00:22Z</time>
      </trkpt>
      <trkpt lat="41.57152" lon="-0.75145">
        <time>2022-07-31T15:00:23Z</time>
      </trkpt>
      <trkpt lat="41.57133" lon="-0.75129">
        <time>2022-07-31T15:00:24Z</time>
      </trkpt>
      <trkpt lat="41.57115" lon="-0.75113">
        <time>2022-07-31T15:00:25Z</time>
      </trkpt>
      <trkpt lat="41.57097" lon="-0.75095">
        <time>2022-07-31T15:00:26Z</time>
      </trkpt>
      <trkpt lat="41.57079" lon="-0.75076">
        <time>2022-07-31T15:00:27Z</time>
      </trkpt>
      <trkpt lat="41.57062" lon="-0.75057">
        <time>2022-07-31T15:00:28Z</time>
      </trkpt>
      <trkpt lat="41.57045" lon="-0.75037">
        <time>2022-07-31T15:00:29Z</time>
      </trkpt>
      <trkpt lat="41.57029" lon="-0.75017">
        <time>2022-07-31T15:00:30Z</time>
      </trkpt>
      <trkpt lat="41.57013" lon="-0.74996">
        <time>2022-07-31T15:00:31Z</time>
      </trkpt>
      <trkpt lat="41.56998" lon="-0.74975">
        <time>2022-07-31T15:00:32Z</time>
      </trkpt>
      <trkpt lat="41.56983" lon="-0.74951">
        <time>2022-07-31T15:00:33Z</time>
      </trkpt>
      <trkpt lat="41.56968" lon="-0.74926">
        <time>2022-07-31T15:00:34Z</time>
      </trkpt>
      <trkpt lat="41.56954" lon="-0.74898">
        <time>2022-07-31T15:00:35Z</time>
      </trkpt>
      <trkpt lat="41.56938" lon="-0.74869">
        <time>2022-07-31T15:00:36Z</time>
      </trkpt>
      <trkpt lat="41.56923" lon="-0.74837">
        <time>2022-07-31T15:00:37Z</time>
      </trkpt>
      <trkpt lat="41.56907" lon="-0.74803">
        <time>2022-07-31T15:00:38Z</time>
      </trkpt>
      <trkpt lat="41.56893" lon="-0.74766">
        <time>2022-07-31T15:00:39Z</time>
      </trkpt>
      <trkpt lat="41.56878" lon="-0.74727">
        <time>2022-07-31T15:00:40Z</time>
      </trkpt>
      <trkpt lat="41.56863" lon="-0.74687">
        <time>2022-07-31T15:00:41Z</time>
      </trkpt>
      <trkpt lat="41.56848" lon="-0.74648">
        <time>2022-07-31T15:00:42Z</time>
      </trkpt>
      <trkpt lat="41.56833" lon="-0.74609">
        <time>2022-07-31T15:00:43Z</time>
      </trkpt>
      <trkpt lat="41.56819" lon="-0.7457">
        <time>2022-07-31T15:00:44Z</time>
      </trkpt>
      <trkpt lat="41.56804" lon="-0.74531">
        <time>2022-07-31T15:00:45Z</time>
      </trkpt>
      <trkpt lat="41.56789" lon="-0.74492">
        <time>2022-07-31T15:00:46Z</time>
      </trkpt>
      <trkpt lat="41.56775" lon="-0.74453">
        <time>2022-07-31T15:00:47Z</time>
      </trkpt>
      <trkpt lat="41.5676" lon="-0.74414">
        <time>2022-07-31T15:00:48Z</time>
      </trkpt>
      <trkpt lat="41.56745" lon="-0.74375">
        <time>2022-07-31T15:00:49Z</time>
      </trkpt>
      <trkpt lat="41.5673" lon="-0.74337">
        <time>2022-07-31T15:00:50Z</time>
      </trkpt>
      <trkpt lat="41.56715" lon="-0.74299">
        <time>2022-07-31T15:00:51Z</time>
      </trkpt>
      <trkpt lat="41.56699" lon="-0.74261">
        <time>2022-07-31T15:00:52Z</time>
      </trkpt>
      <trkpt lat="41.56684" lon="-0.74222">
        <time>2022-07-31T15:00:53Z</time>
      </trkpt>
      <trkpt lat="41.56668" lon="-0.74184">
        <time>2022-07-31T15:00:54Z</time>
      </trkpt>
      <trkpt lat="41.56653" lon="-0.74145">
        <time>2022-07-31T15:00:55Z</time>
      </trkpt>
      <trkpt lat="41.56636" lon="-0.74107">
        <time>2022-07-31T15:00:56Z</time>
      </trkpt>
      <trkpt lat="41.5662" lon="-0.74068">
        <time>2022-07-31T15:00:57Z</time>
      </trkpt>
      <trkpt lat="41.56604" lon="-0.74029">
        <time>2022-07-31T15:00:58Z</time>
      </trkpt>
      <trkpt lat="41.56587" lon="-0.7399">
        <time>2022-07-31T15:00:59Z</time>
      </trkpt>
      <trkpt lat="41.5657" lon="-0.73951">
        <time>2022-07-31T15:01:00Z</time>
      </trkpt>
      <trkpt lat="41.56553" lon="-0.73912">
        <time>2022-07-31T15:01:01Z</time>
      </trkpt>
      <trkpt lat="41.56536" lon="-0.73873">
        <time>2022-07-31T15:01:02Z</time>
      </trkpt>
      <trkpt lat="41.56519" lon="-0.73834">
        <time>2022-07-31T15:01:03Z</time>
      </trkpt>
      <trkpt lat="41.56502" lon="-0.73795">
        <time>2022-07-31T15:01:04Z</time>
      </trkpt>
      <trkpt lat="41.56484" lon="-0.73758">
        <time>2022-07-31T15:01:05Z</time>
      </trkpt>
      <trkpt lat="41.56467" lon="-0.7372">
        <time>2022-07-31T15:01:06Z</time>
      </trkpt>
      <trkpt lat="41.5645" lon="-0.73684">
        <time>2022-07-31T15:01:07Z</time>
      </trkpt>
      <trkpt lat="41.56433" lon="-0.73647">
        <time>2022-07-31T15:01:08Z</time>
      </trkpt>
      <trkpt lat="41.56415" lon="-0.73611">
        <time>2022-07-31T15:01:09Z</time>
      </trkpt>
      <trkpt lat="41.56398" lon="-0.73575">
        <time>2022-07-31T15:01:10Z</time>
      </trkpt>
      <trkpt lat="41.56381" lon="-0.7354">
        <time>2022-07-31T15:01:11Z</time>
      </trkpt>
      <trkpt lat="41.56365" lon="-0.73505">
        <time>2022-07-31T15:01:12Z</time>
      </trkpt>
      <trkpt lat="41.56348" lon="-0.73471">
        <time>2022-07-31T15:01:13Z</time>
      </trkpt>
      <trkpt lat="41.56332" lon="-0.73437">
        <time>2022-07-31T15:01:14Z</time>
      </trkpt>
      <trkpt lat="41.56315" lon="-0.73404">
        <time>2022-07-31T15:01:15Z</time>
      </trkpt>
      <trkpt lat="41.56298" lon="-0.7337">
        <time>2022-07-31T15:01:16Z</time>
      </trkpt>
      <trkpt lat="41.56281" lon="-0.73337">
        <time>2022-07-31T15:01:17Z</time>
      </trkpt>
      <trkpt lat="41.56264" lon="-0.73304">
        <time>2022-07-31T15:01:18Z</time>
      </trkpt>
      <trkpt lat="41.56247" lon="-0.73271">
        <time>2022-07-31T15:01:19Z</time>
      </trkpt>
      <trkpt lat="41.56229" lon="-0.73237">
        <time>2022-07-31T15:01:20Z</time>
      </trkpt>
      <trkpt lat="41.56212" lon="-0.73204">
        <time>2022-07-31T15:01:21Z</time>
      </trkpt>
      <trkpt lat="41.56194" lon="-0.73171">
        <time>2022-07-31T15:01:22Z</time>
      </trkpt>
      <trkpt lat="41.56176" lon="-0.73137">
        <time>2022-07-31T15:01:23Z</time>
      </trkpt>
      <trkpt lat="41.56158" lon="-0.73105">
        <time>2022-07-31T15:01:24Z</time>
      </trkpt>
      <trkpt lat="41.56141" lon="-0.73072">
        <time>2022-07-31T15:01:25Z</time>
      </trkpt>
      <trkpt lat="41.56123" lon="-0.7304">
        <time>2022-07-31T15:01:26Z</time>
      </trkpt>
      <trkpt lat="41.56105" lon="-0.73008">
        <time>2022-07-31T15:01:27Z</time>
      </trkpt>
      <trkpt lat="41.56088" lon="-0.72977">
        <time>2022-07-31T15:01:28Z</time>
      </trkpt>
      <trkpt lat="41.56071" lon="-0.72946">
        <time>2022-07-31T15:01:29Z</time>
      </trkpt>
      <trkpt lat="41.56055" lon="-0.72916">
        <time>2022-07-31T15:01:30Z</time>
      </trkpt>
      <trkpt lat="41.56038" lon="-0.72887">
        <time>2022-07-31T15:01:31Z</time>
      </trkpt>
      <trkpt lat="41.56022" lon="-0.72858">
        <time>2022-07-31T15:01:32Z</time>
      </trkpt>
      <trkpt lat="41.56006" lon="-0.72828">
        <time>2022-07-31T15:01:33Z</time>
      </trkpt>
      <trkpt lat="41.55989" lon="-0.72798">
        <time>2022-07-31T15:01:34Z</time>
      </trkpt>
      <trkpt lat="41.55973" lon="-0.72768">
        <time>2022-07-31T15:01:35Z</time>
      </trkpt>
      <trkpt lat="41.55956" lon="-0.72739">
        <time>2022-07-31T15:01:36Z</time>
      </trkpt>
      <trkpt lat="41.5594" lon="-0.72708">
        <time>2022-07-31T15:01:37Z</time>
      </trkpt>
      <trkpt lat="41.55923" lon="-0.72677">
        <time>2022-07-31T15:01:38Z</time>
      </trkpt>
      <trkpt lat="41.55906" lon="-0.72647">
        <time>2022-07-31T15:01:39Z</time>
      </trkpt>
      <trkpt lat="41.5589" lon="-0.72615">
        <time>2022-07-31T15:01:40Z</time>
      </trkpt>
      <trkpt lat="41.55873" lon="-0.72583">
        <time>2022-07-31T15:01:41Z</time>
      </trkpt>
      <trkpt lat="41.55856" lon="-0.72552">
        <time>2022-07-31T15:01:42Z</time>
      </trkpt>
      <trkpt lat="41.55839" lon="-0.72522">
        <time>2022-07-31T15:01:43Z</time>
      </trkpt>
      <trkpt lat="41.55822" lon="-0.7249">
        <time>2022-07-31T15:01:44Z</time>
      </trkpt>
      <trkpt lat="41.55806" lon="-0.72459">
        <time>2022-07-31T15:01:45Z</time>
      </trkpt>
      <trkpt lat="41.55789" lon="-0.72428">
        <time>2022-07-31T15:01:46Z</time>
      </trkpt>
      <trkpt lat="41.55772" lon="-0.72397">
        <time>2022-07-31T15:01:47Z</time>
      </trkpt>
      <trkpt lat="41.55756" lon="-0.72366">
        <time>2022-07-31T15:01:48Z</time>
      </trkpt>
      <trkpt lat="41.5574" lon="-0.72336">
        <time>2022-07-31T15:01:49Z</time>
      </trkpt>
      <trkpt lat="41.55723" lon="-0.72305">
        <time>2022-07-31T15:01:50Z</time>
      </trkpt>
      <trkpt lat="41.55706" lon="-0.72274">
        <time>2022-07-31T15:01:51Z</time>
      </trkpt>
      <trkpt lat="41.5569" lon="-0.72242">
        <time>2022-07-31T15:01:52Z</time>
      </trkpt>
      <trkpt lat="41.55673" lon="-0.72211">
        <time>2022-07-31T15:01:53Z</time>
      </trkpt>
      <trkpt lat="41.55657" lon="-0.72179">
        <time>2022-07-31T15:01:54Z</time>
      </trkpt>
      <trkpt lat="41.5564" lon="-0.72148">
        <time>2022-07-31T15:01:55Z</time>
      </trkpt>
      <trkpt lat="41.55624" lon="-0.72116">
        <time>2022-07-31T15:01:56Z</time>
      </trkpt>
      <trkpt lat="41.55608" lon="-0.72085">
        <time>2022-07-31T15:01:57Z</time>
      </trkpt>
      <trkpt lat="41.55591" lon="-0.72054">
        <time>2022-07-31T15:01:58Z</time>
      </trkpt>
      <trkpt lat="41.55575" lon="-0.72022">
        <time>2022-07-31T15:01:59Z</time>
      </trkpt>
      <trkpt lat="41.55559" lon="-0.71991">
        <time>2022-07-31T15:02:00Z</time>
      </trkpt>
      <trkpt lat="41.55542" lon="-0.7196">
        <time>2022-07-31T15:02:01Z</time>
      </trkpt>
      <trkpt lat="41.55527" lon="-0.71928">
        <time>2022-07-31T15:02:02Z</time>
      </trkpt>
      <trkpt lat="41.55511" lon="-0.71897">
        <time>2022-07-31T15:02:03Z</time>
      </trkpt>
      <trkpt lat="41.55495" lon="-0.71866">
        <time>2022-07-31T15:02:04Z</time>
      </trkpt>
      <trkpt lat="41.55479" lon="-0.71835">
        <time>2022-07-31T15:02:05Z</time>
      </trkpt>
      <trkpt lat="41.55463" lon="-0.71803">
        <time>2022-07-31T15:02:06Z</time>
      </trkpt>
      <trkpt lat="41.55447" lon="-0.71771">
        <time>2022-07-31T15:02:07Z</time>
      </trkpt>
      <trkpt lat="41.55431" lon="-0.7174">
        <time>2022-07-31T15:02:08Z</time>
      </trkpt>
      <trkpt lat="41.55415" lon="-0.71708">
        <time>2022-07-31T15:02:09Z</time>
      </trkpt>
      <trkpt lat="41.554" lon="-0.71676">
        <time>2022-07-31T15:02:10Z</time>
      </trkpt>
      <trkpt lat="41.55384" lon="-0.71645">
        <time>2022-07-31T15:02:11Z</time>
      </trkpt>
      <trkpt lat="41.55368" lon="-0.71613">
        <time>2022-07-31T15:02:12Z</time>
      </trkpt>
      <trkpt lat="41.55352" lon="-0.71581">
        <time>2022-07-31T15:02:13Z</time>
      </trkpt>
      <trkpt lat="41.55337" lon="-0.71549">
        <time>2022-07-31T15:02:14Z</time>
      </trkpt>
      <trkpt lat="41.55321" lon="-0.71517">
        <time>2022-07-31T15:02:15Z</time>
      </trkpt>
      <trkpt lat="41.55306" lon="-0.71485">
        <time>2022-07-31T15:02:16Z</time>
      </trkpt>
      <trkpt lat="41.5529" lon="-0.71453">
        <time>2022-07-31T15:02:17Z</time>
      </trkpt>
      <trkpt lat="41.55274" lon="-0.71421">
        <time>2022-07-31T15:02:18Z</time>
      </trkpt>
      <trkpt lat="41.55258" lon="-0.71388">
        <time>2022-07-31T15:02:19Z</time>
      </trkpt>
      <trkpt lat="41.55242" lon="-0.71356">
        <time>2022-07-31T15:02:20Z</time>
      </trkpt>
      <trkpt lat="41.55226" lon="-0.71325">
        <time>2022-07-31T15:02:21Z</time>
      </trkpt>
      <trkpt lat="41.55209" lon="-0.71293">
        <time>2022-07-31T15:02:22Z</time>
      </trkpt>
      <trkpt lat="41.55193" lon="-0.71262">
        <time>2022-07-31T15:02:23Z</time>
      </trkpt>
      <trkpt lat="41.55176" lon="-0.71231">
        <time>2022-07-31T15:02:24Z</time>
      </trkpt>
      <trkpt lat="41.5516" lon="-0.712">
        <time>2022-07-31T15:02:25Z</time>
      </trkpt>
      <trkpt lat="41.55144" lon="-0.7117">
        <time>2022-07-31T15:02:26Z</time>
      </trkpt>
      <trkpt lat="41.55128" lon="-0.71141">
        <time>2022-07-31T15:02:27Z</time>
      </trkpt>
      <trkpt lat="41.55112" lon="-0.71113">
        <time>2022-07-31T15:02:28Z</time>
      </trkpt>
      <trkpt lat="41.55097" lon="-0.71085">
        <time>2022-07-31T15:02:29Z</time>
      </trkpt>
      <trkpt lat="41.55081" lon="-0.71057">
        <time>2022-07-31T15:02:30Z</time>
      </trkpt>
      <trkpt lat="41.55066" lon="-0.71029">
        <time>2022-07-31T15:02:31Z</time>
      </trkpt>
      <trkpt lat="41.55051" lon="-0.71002">
        <time>2022-07-31T15:02:32Z</time>
      </trkpt>
      <trkpt lat="41.55037" lon="-0.70975">
        <time>2022-07-31T15:02:33Z</time>
      </trkpt>
      <trkpt lat="41.55023" lon="-0.70949">
        <time>2022-07-31T15:02:34Z</time>
      </trkpt>
      <trkpt lat="41.55009" lon="-0.70923">
        <time>2022-07-31T15:02:35Z</time>
      </trkpt>
      <trkpt lat="41.54996" lon="-0.70897">
        <time>2022-07-31T15:02:36Z</time>
      </trkpt>
      <trkpt lat="41.54982" lon="-0.70871">
        <time>2022-07-31T15:02:37Z</time>
      </trkpt>
      <trkpt lat="41.54969" lon="-0.70844">
        <time>2022-07-31T15:02:38Z</time>
      </trkpt>
      <trkpt lat="41.54955" lon="-0.70816">
        <time>2022-07-31T15:02:39Z</time>
      </trkpt>
      <trkpt lat="41.54941" lon="-0.70788">
        <time>2022-07-31T15:02:40Z</time>
      </trkpt>
      <trkpt lat="41.54926" lon="-0.70759">
        <time>2022-07-31T15:02:41Z</time>
      </trkpt>
      <trkpt lat="41.54912" lon="-0.70729">
        <time>2022-07-31T15:02:42Z</time>
      </trkpt>
      <trkpt lat="41.54898" lon="-0.70698">
        <time>2022-07-31T15:02:43Z</time>
      </trkpt>
      <trkpt lat="41.54883" lon="-0.70667">
        <time>2022-07-31T15:02:44Z</time>
      </trkpt>
      <trkpt lat="41.54868" lon="-0.70634">
        <time>2022-07-31T15:02:45Z</time>
      </trkpt>
      <trkpt lat="41.54853" lon="-0.70601">
        <time>2022-07-31T15:02:46Z</time>
      </trkpt>
      <trkpt lat="41.54838" lon="-0.70569">
        <time>2022-07-31T15:02:47Z</time>
      </trkpt>
      <trkpt lat="41.54824" lon="-0.70536">
        <time>2022-07-31T15:02:48Z</time>
      </trkpt>
      <trkpt lat="41.54809" lon="-0.70503">
        <time>2022-07-31T15:02:49Z</time>
      </trkpt>
      <trkpt lat="41.54795" lon="-0.7047">
        <time>2022-07-31T15:02:50Z</time>
      </trkpt>
      <trkpt lat="41.54781" lon="-0.70437">
        <time>2022-07-31T15:02:51Z</time>
      </trkpt>
      <trkpt lat="41.54767" lon="-0.70404">
        <time>2022-07-31T15:02:52Z</time>
      </trkpt>
      <trkpt lat="41.54754" lon="-0.7037">
        <time>2022-07-31T15:02:53Z</time>
      </trkpt>
      <trkpt lat="41.5474" lon="-0.70337">
        <time>2022-07-31T15:02:54Z</time>
      </trkpt>
      <trkpt lat="41.54727" lon="-0.70303">
        <time>2022-07-31T15:02:55Z</time>
      </trkpt>
      <trkpt lat="41.54713" lon="-0.70269">
        <time>2022-07-31T15:02:56Z</time>
      </trkpt>
      <trkpt lat="41.54701" lon="-0.70236">
        <time>2022-07-31T15:02:57Z</time>
      </trkpt>
      <trkpt lat="41.54688" lon="-0.70202">
        <time>2022-07-31T15:02:58Z</time>
      </trkpt>
      <trkpt lat="41.54675" lon="-0.70168">
        <time>2022-07-31T15:02:59Z</time>
      </trkpt>
      <trkpt lat="41.54663" lon="-0.70134">
        <time>2022-07-31T15:03:00Z</time>
      </trkpt>
      <trkpt lat="41.5465" lon="-0.70101">
        <time>2022-07-31T15:03:01Z</time>
      </trkpt>
      <trkpt lat="41.54638" lon="-0.70066">
        <time>2022-07-31T15:03:02Z</time>
      </trkpt>
      <trkpt lat="41.54626" lon="-0.70032">
        <time>2022-07-31T15:03:03Z</time>
      </trkpt>
      <trkpt lat="41.54615" lon="-0.69997">
        <time>2022-07-31T15:03:04Z</time>
      </trkpt>
      <trkpt lat="41.54603" lon="-0.69963">
        <time>2022-07-31T15:03:05Z</time>
      </trkpt>
      <trkpt lat="41.54591" lon="-0.69928">
        <time>2022-07-31T15:03:06Z</time>
      </trkpt>
      <trkpt lat="41.5458" lon="-0.69893">
        <time>2022-07-31T15:03:07Z</time>
      </trkpt>
      <trkpt lat="41.54568" lon="-0.69858">
        <time>2022-07-31T15:03:08Z</time>
      </trkpt>
      <trkpt lat="41.54556" lon="-0.69822">
        <time>2022-07-31T15:03:09Z</time>
      </trkpt>
      <trkpt lat="41.54544" lon="-0.69784">
        <time>2022-07-31T15:03:10Z</time>
      </trkpt>
      <trkpt lat="41.54532" lon="-0.69747">
        <time>2022-07-31T15:03:11Z</time>
      </trkpt>
      <trkpt lat="41.54519" lon="-0.69708">
        <time>2022-07-31T15:03:12Z</time>
      </trkpt>
      <trkpt lat="41.54506" lon="-0.6967">
        <time>2022-07-31T15:03:13Z</time>
      </trkpt>
      <trkpt lat="41.54493" lon="-0.69631">
        <time>2022-07-31T15:03:14Z</time>
      </trkpt>
      <trkpt lat="41.54479" lon="-0.69592">
        <time>2022-07-31T15:03:15Z</time>
      </trkpt>
      <trkpt lat="41.54466" lon="-0.69555">
        <time>2022-07-31T15:03:16Z</time>
      </trkpt>
      <trkpt lat="41.54452" lon="-0.69517">
        <time>2022-07-31T15:03:17Z</time>
      </trkpt>
      <trkpt lat="41.54439" lon="-0.69479">
        <time>2022-07-31T15:03:18Z</time>
      </trkpt>
      <trkpt lat="41.54425" lon="-0.69441">
        <time>2022-07-31T15:03:19Z</time>
      </trkpt>
      <trkpt lat="41.54411" lon="-0.69402">
        <time>2022-07-31T15:03:20Z</time>
      </trkpt>
      <trkpt lat="41.54396" lon="-0.69365">
        <time>2022-07-31T15:03:21Z</time>
      </trkpt>
      <trkpt lat="41.54381" lon="-0.69328">
        <time>2022-07-31T15:03:22Z</time>
      </trkpt>
      <trkpt lat="41.54366" lon="-0.69291">
        <time>2022-07-31T15:03:23Z</time>
      </trkpt>
      <trkpt lat="41.5435" lon="-0.69254">
        <time>2022-07-31T15:03:24Z</time>
      </trkpt>
      <trkpt lat="41.54335" lon="-0.69216">
        <time>2022-07-31T15:03:25Z</time>
      </trkpt>
      <trkpt lat="41.54318" lon="-0.69178">
        <time>2022-07-31T15:03:26Z</time>
      </trkpt>
      <trkpt lat="41.54302" lon="-0.69139">
        <time>2022-07-31T15:03:27Z</time>
      </trkpt>
      <trkpt lat="41.54285" lon="-0.69101">
        <time>2022-07-31T15:03:28Z</time>
      </trkpt>
      <trkpt lat="41.54269" lon="-0.69063">
        <time>2022-07-31T15:03:29Z</time>
      </trkpt>
      <trkpt lat="41.54252" lon="-0.69024">
        <time>2022-07-31T15:03:30Z</time>
      </trkpt>
      <trkpt lat="41.54234" lon="-0.68985">
        <time>2022-07-31T15:03:31Z</time>
      </trkpt>
      <trkpt lat="41.54218" lon="-0.68946">
        <time>2022-07-31T15:03:32Z</time>
      </trkpt>
      <trkpt lat="41.54202" lon="-0.68908">
        <time>2022-07-31T15:03:33Z</time>
      </trkpt>
      <trkpt lat="41.54185" lon="-0.6887">
        <time>2022-07-31T15:03:34Z</time>
      </trkpt>
      <trkpt lat="41.54169" lon="-0.68832">
        <time>2022-07-31T15:03:35Z</time>
      </trkpt>
      <trkpt lat="41.54154" lon="-0.68794">
        <time>2022-07-31T15:03:36Z</time>
      </trkpt>
      <trkpt lat="41.54138" lon="-0.68757">
        <time>2022-07-31T15:03:37Z</time>
      </trkpt>
      <trkpt lat="41.54122" lon="-0.68721">
        <time>2022-07-31T15:03:38Z</time>
      </trkpt>
      <trkpt lat="41.54107" lon="-0.68684">
        <time>2022-07-31T15:03:39Z</time>
      </trkpt>
      <trkpt lat="41.54091" lon="-0.68648">
        <time>2022-07-31T15:03:40Z</time>
      </trkpt>
      <trkpt lat="41.54076" lon="-0.68613">
        <time>2022-07-31T15:03:41Z</time>
      </trkpt>
      <trkpt lat="41.5406" lon="-0.68577">
        <time>2022-07-31T15:03:42Z</time>
      </trkpt>
      <trkpt lat="41.54045" lon="-0.68541">
        <time>2022-07-31T15:03:43Z</time>
      </trkpt>
      <trkpt lat="41.5403" lon="-0.68507">
        <time>2022-07-31T15:03:44Z</time>
      </trkpt>
      <trkpt lat="41.54015" lon="-0.68471">
        <time>2022-07-31T15:03:45Z</time>
      </trkpt>
      <trkpt lat="41.54" lon="-0.68437">
        <time>2022-07-31T15:03:46Z</time>
      </trkpt>
      <trkpt lat="41.53984" lon="-0.68402">
        <time>2022-07-31T15:03:47Z</time>
      </trkpt>
      <trkpt lat="41.53969" lon="-0.68367">
        <time>2022-07-31T15:03:48Z</time>
      </trkpt>
      <trkpt lat="41.53954" lon="-0.68332">
        <time>2022-07-31T15:03:49Z</time>
      </trkpt>
      <trkpt lat="41.53938" lon="-0.68298">
        <time>2022-07-31T15:03:50Z</time>
      </trkpt>
      <trkpt lat="41.53923" lon="-0.68263">
        <time>2022-07-31T15:03:51Z</time>
      </trkpt>
      <trkpt lat="41.53908" lon="-0.68228">
        <time>2022-07-31T15:03:52Z</time>
      </trkpt>
      <trkpt lat="41.53893" lon="-0.68193">
        <time>2022-07-31T15:03:53Z</time>
      </trkpt>
      <trkpt lat="41.53879" lon="-0.68159">
        <time>2022-07-31T15:03:54Z</time>
      </trkpt>
      <trkpt lat="41.53864" lon="-0.68125">
        <time>2022-07-31T15:03:55Z</time>
      </trkpt>
      <trkpt lat="41.53849" lon="-0.68091">
        <time>2022-07-31T15:03:56Z</time>
      </trkpt>
      <trkpt lat="41.53835" lon="-0.68057">
        <time>2022-07-31T15:03:57Z</time>
      </trkpt>
      <trkpt lat="41.53821" lon="-0.68024">
        <time>2022-07-31T15:03:58Z</time>
      </trkpt>
      <trkpt lat="41.53806" lon="-0.67991">
        <time>2022-07-31T15:03:59Z</time>
      </trkpt>
      <trkpt lat="41.53791" lon="-0.67958">
        <time>2022-07-31T15:04:00Z</time>
      </trkpt>
      <trkpt lat="41.53776" lon="-0.67926">
        <time>2022-07-31T15:04:01Z</time>
      </trkpt>
      <trkpt lat="41.53761" lon="-0.67894">
        <time>2022-07-31T15:04:02Z</time>
      </trkpt>
      <trkpt lat="41.53746" lon="-0.67862">
        <time>2022-07-31T15:04:03Z</time>
      </trkpt>
      <trkpt lat="41.53731" lon="-0.67831">
        <time>2022-07-31T15:04:04Z</time>
      </trkpt>
      <trkpt lat="41.53717" lon="-0.678">
        <time>2022-07-31T15:04:05Z</time>
      </trkpt>
      <trkpt lat="41.53702" lon="-0.67769">
        <time>2022-07-31T15:04:06Z</time>
      </trkpt>
      <trkpt lat="41.53687" lon="-0.67739">
        <time>2022-07-31T15:04:07Z</time>
      </trkpt>
      <trkpt lat="41.53672" lon="-0.67708">
        <time>2022-07-31T15:04:08Z</time>
      </trkpt>
      <trkpt lat="41.53657" lon="-0.67679">
        <time>2022-07-31T15:04:09Z</time>
      </trkpt>
      <trkpt lat="41.53642" lon="-0.67649">
        <time>2022-07-31T15:04:10Z</time>
      </trkpt>
      <trkpt lat="41.53627" lon="-0.67619">
        <time>2022-07-31T15:04:11Z</time>
      </trkpt>
      <trkpt lat="41.53612" lon="-0.6759">
        <time>2022-07-31T15:04:12Z</time>
      </trkpt>
      <trkpt lat="41.53597" lon="-0.67561">
        <time>2022-07-31T15:04:13Z</time>
      </trkpt>
      <trkpt lat="41.53582" lon="-0.67532">
        <time>2022-07-31T15:04:14Z</time>
      </trkpt>
      <trkpt lat="41.53567" lon="-0.67504">
        <time>2022-07-31T15:04:15Z</time>
      </trkpt>
      <trkpt lat="41.53551" lon="-0.67474">
        <time>2022-07-31T15:04:16Z</time>
      </trkpt>
      <trkpt lat="41.53535" lon="-0.67443">
        <time>2022-07-31T15:04:17Z</time>
      </trkpt>
      <trkpt lat="41.53518" lon="-0.67411">
        <time>2022-07-31T15:04:18Z</time>
      </trkpt>
      <trkpt lat="41.53501" lon="-0.67377">
        <time>2022-07-31T15:04:19Z</time>
      </trkpt>
      <trkpt lat="41.53483" lon="-0.67343">
        <time>2022-07-31T15:04:20Z</time>
      </trkpt>
      <trkpt lat="41.53465" lon="-0.67309">
        <time>2022-07-31T15:04:21Z</time>
      </trkpt>
      <trkpt lat="41.53446" lon="-0.67276">
        <time>2022-07-31T15:04:22Z</time>
      </trkpt>
      <trkpt lat="41.53427" lon="-0.67242">
        <time>2022-07-31T15:04:23Z</time>
      </trkpt>
      <trkpt lat="41.53409" lon="-0.67208">
        <time>2022-07-31T15:04:24Z</time>
      </trkpt>
      <trkpt lat="41.53391" lon="-0.67173">
        <time>2022-07-31T15:04:25Z</time>
      </trkpt>
      <trkpt lat="41.53373" lon="-0.67139">
        <time>2022-07-31T15:04:26Z</time>
      </trkpt>
      <trkpt lat="41.53354" lon="-0.67105">
        <time>2022-07-31T15:04:27Z</time>
      </trkpt>
      <trkpt lat="41.53336" lon="-0.67071">
        <time>2022-07-31T15:04:28Z</time>
      </trkpt>
      <trkpt lat="41.53318" lon="-0.67037">
        <time>2022-07-31T15:04:29Z</time>
      </trkpt>
      <trkpt lat="41.533" lon="-0.67003">
        <time>2022-07-31T15:04:30Z</time>
      </trkpt>
      <trkpt lat="41.53282" lon="-0.66969">
        <time>2022-07-31T15:04:31Z</time>
      </trkpt>
      <trkpt lat="41.53264" lon="-0.66935">
        <time>2022-07-31T15:04:32Z</time>
      </trkpt>
      <trkpt lat="41.53246" lon="-0.66901">
        <time>2022-07-31T15:04:33Z</time>
      </trkpt>
      <trkpt lat="41.53229" lon="-0.66868">
        <time>2022-07-31T15:04:34Z</time>
      </trkpt>
      <trkpt lat="41.53211" lon="-0.66834">
        <time>2022-07-31T15:04:35Z</time>
      </trkpt>
      <trkpt lat="41.53193" lon="-0.66802">
        <time>2022-07-31T15:04:36Z</time>
      </trkpt>
      <trkpt lat="41.53176" lon="-0.66768">
        <time>2022-07-31T15:04:37Z</time>
      </trkpt>
      <trkpt lat="41.53158" lon="-0.66735">
        <time>2022-07-31T15:04:38Z</time>
      </trkpt>
      <trkpt lat="41.53141" lon="-0.66702">
        <time>2022-07-31T15:04:39Z</time>
      </trkpt>
      <trkpt lat="41.53123" lon="-0.66669">
        <time>2022-07-31T15:04:40Z</time>
      </trkpt>
      <trkpt lat="41.53106" lon="-0.66636">
        <time>2022-07-31T15:04:41Z</time>
      </trkpt>
      <trkpt lat="41.53088" lon="-0.66603">
        <time>2022-07-31T15:04:42Z</time>
      </trkpt>
      <trkpt lat="41.53071" lon="-0.6657">
        <time>2022-07-31T15:04:43Z</time>
      </trkpt>
      <trkpt lat="41.53053" lon="-0.66537">
        <time>2022-07-31T15:04:44Z</time>
      </trkpt>
      <trkpt lat="41.53036" lon="-0.66504">
        <time>2022-07-31T15:04:45Z</time>
      </trkpt>
      <trkpt lat="41.53018" lon="-0.66472">
        <time>2022-07-31T15:04:46Z</time>
      </trkpt>
      <trkpt lat="41.53001" lon="-0.66438">
        <time>2022-07-31T15:04:47Z</time>
      </trkpt>
      <trkpt lat="41.52984" lon="-0.66405">
        <time>2022-07-31T15:04:48Z</time>
      </trkpt>
      <trkpt lat="41.52966" lon="-0.66373">
        <time>2022-07-31T15:04:49Z</time>
      </trkpt>
      <trkpt lat="41.52949" lon="-0.6634">
        <time>2022-07-31T15:04:50Z</time>
      </trkpt>
      <trkpt lat="41.52932" lon="-0.66308">
        <time>2022-07-31T15:04:51Z</time>
      </trkpt>
      <trkpt lat="41.52914" lon="-0.66276">
        <time>2022-07-31T15:04:52Z</time>
      </trkpt>
      <trkpt lat="41.52897" lon="-0.66243">
        <time>2022-07-31T15:04:53Z</time>
      </trkpt>
      <trkpt lat="41.5288" lon="-0.6621">
        <time>2022-07-31T15:04:54Z</time>
      </trkpt>
      <trkpt lat="41.52863" lon="-0.66178">
        <time>2022-07-31T15:04:55Z</time>
      </trkpt>
      <trkpt lat="41.52846" lon="-0.66145">
        <time>2022-07-31T15:04:56Z</time>
      </trkpt>
      <trkpt lat="41.52829" lon="-0.66112">
        <time>2022-07-31T15:04:57Z</time>
      </trkpt>
      <trkpt lat="41.52811" lon="-0.6608">
        <time>2022-07-31T15:04:58Z</time>
      </trkpt>
      <trkpt lat="41.52794" lon="-0.66048">
        <time>2022-07-31T15:04:59Z</time>
      </trkpt>
      <trkpt lat="41.52777" lon="-0.66017">
        <time>2022-07-31T15:05:00Z</time>
      </trkpt>
      <trkpt lat="41.52761" lon="-0.65985">
        <time>2022-07-31T15:05:01Z</time>
      </trkpt>
      <trkpt lat="41.52744" lon="-0.65954">
        <time>2022-07-31T15:05:02Z</time>
      </trkpt>
      <trkpt lat="41.52727" lon="-0.65922">
        <time>2022-07-31T15:05:03Z</time>
      </trkpt>
      <trkpt lat="41.5271" lon="-0.65891">
        <time>2022-07-31T15:05:04Z</time>
      </trkpt>
      <trkpt lat="41.52692" lon="-0.65861">
        <time>2022-07-31T15:05:05Z</time>
      </trkpt>
      <trkpt lat="41.52674" lon="-0.65831">
        <time>2022-07-31T15:05:06Z</time>
      </trkpt>
      <trkpt lat="41.52656" lon="-0.65803">
        <time>2022-07-31T15:05:07Z</time>
      </trkpt>
      <trkpt lat="41.52636" lon="-0.65775">
        <time>2022-07-31T15:05:08Z</time>
      </trkpt>
      <trkpt lat="41.52616" lon="-0.65749">
        <time>2022-07-31T15:05:09Z</time>
      </trkpt>
      <trkpt lat="41.52595" lon="-0.65723">
        <time>2022-07-31T15:05:10Z</time>
      </trkpt>
      <trkpt lat="41.52573" lon="-0.65699">
        <time>2022-07-31T15:05:11Z</time>
      </trkpt>
      <trkpt lat="41.52549" lon="-0.65675">
        <time>2022-07-31T15:05:12Z</time>
      </trkpt>
      <trkpt lat="41.52525" lon="-0.65652">
        <time>2022-07-31T15:05:13Z</time>
      </trkpt>
      <trkpt lat="41.525" lon="-0.6563">
        <time>2022-07-31T15:05:14Z</time>
      </trkpt>
      <trkpt lat="41.52475" lon="-0.65609">
        <time>2022-07-31T15:05:15Z</time>
      </trkpt>
      <trkpt lat="41.52449" lon="-0.6559">
        <time>2022-07-31T15:05:16Z</time>
      </trkpt>
      <trkpt lat="41.52422" lon="-0.65571">
        <time>2022-07-31T15:05:17Z</time>
      </trkpt>
      <trkpt lat="41.52395" lon="-0.65554">
        <time>2022-07-31T15:05:18Z</time>
      </trkpt>
      <trkpt lat="41.52367" lon="-0.65538">
        <time>2022-07-31T15:05:19Z</time>
      </trkpt>
      <trkpt lat="41.52338" lon="-0.65524">
        <time>2022-07-31T15:05:20Z</time>
      </trkpt>
      <trkpt lat="41.52309" lon="-0.65511">
        <time>2022-07-31T15:05:21Z</time>
      </trkpt>
      <trkpt lat="41.5228" lon="-0.655">
        <time>2022-07-31T15:05:22Z</time>
      </trkpt>
      <trkpt lat="41.5225" lon="-0.6549">
        <time>2022-07-31T15:05:23Z</time>
      </trkpt>
      <trkpt lat="41.5222" lon="-0.65483">
        <time>2022-07-31T15:05:24Z</time>
      </trkpt>
      <trkpt lat="41.52189" lon="-0.65477">
        <time>2022-07-31T15:05:25Z</time>
      </trkpt>
      <trkpt lat="41.52159" lon="-0.65472">
        <time>2022-07-31T15:05:26Z</time>
      </trkpt>
      <trkpt lat="41.52129" lon="-0.65469">
        <time>2022-07-31T15:05:27Z</time>
      </trkpt>
      <trkpt lat="41.52099" lon="-0.65466">
        <time>2022-07-31T15:05:28Z</time>
      </trkpt>
      <trkpt lat="41.52069" lon="-0.65462">
        <time>2022-07-31T15:05:29Z</time>
      </trkpt>
      <trkpt lat="41.5204" lon="-0.65459">
        <time>2022-07-31T15:05:30Z</time>
      </trkpt>
      <trkpt lat="41.52011" lon="-0.65454">
        <time>2022-07-31T15:05:31Z</time>
      </trkpt>
      <trkpt lat="41.51983" lon="-0.65448">
        <time>2022-07-31T15:05:32Z</time>
      </trkpt>
      <trkpt lat="41.51955" lon="-0.65441">
        <time>2022-07-31T15:05:33Z</time>
      </trkpt>
      <trkpt lat="41.51927" lon="-0.65432">
        <time>2022-07-31T15:05:34Z</time>
      </trkpt>
      <trkpt lat="41.519" lon="-0.65421">
        <time>2022-07-31T15:05:35Z</time>
      </trkpt>
      <trkpt lat="41.51873" lon="-0.65409">
        <time>2022-07-31T15:05:36Z</time>
      </trkpt>
      <trkpt lat="41.51847" lon="-0.65397">
        <time>2022-07-31T15:05:37Z</time>
      </trkpt>
      <trkpt lat="41.51822" lon="-0.65384">
        <time>2022-07-31T15:05:38Z</time>
      </trkpt>
      <trkpt lat="41.51796" lon="-0.65369">
        <time>2022-07-31T15:05:39Z</time>
      </trkpt>
      <trkpt lat="41.51772" lon="-0.65352">
        <time>2022-07-31T15:05:40Z</time>
      </trkpt>
      <trkpt lat="41.51748" lon="-0.65334">
        <time>2022-07-31T15:05:41Z</time>
      </trkpt>
      <trkpt lat="41.51724" lon="-0.65315">
        <time>2022-07-31T15:05:42Z</time>
      </trkpt>
      <trkpt lat="41.51701" lon="-0.65296">
        <time>2022-07-31T15:05:43Z</time>
      </trkpt>
      <trkpt lat="41.51679" lon="-0.65275">
        <time>2022-07-31T15:05:44Z</time>
      </trkpt>
      <trkpt lat="41.51658" lon="-0.65254">
        <time>2022-07-31T15:05:45Z</time>
      </trkpt>
      <trkpt lat="41.51638" lon="-0.65231">
        <time>2022-07-31T15:05:46Z</time>
      </trkpt>
      <trkpt lat="41.51618" lon="-0.65208">
        <time>2022-07-31T15:05:47Z</time>
      </trkpt>
      <trkpt lat="41.51599" lon="-0.65184">
        <time>2022-07-31T15:05:48Z</time>
      </trkpt>
      <trkpt lat="41.51581" lon="-0.6516">
        <time>2022-07-31T15:05:49Z</time>
      </trkpt>
      <trkpt lat="41.51564" lon="-0.65135">
        <time>2022-07-31T15:05:50Z</time>
      </trkpt>
      <trkpt lat="41.51547" lon="-0.65108">
        <time>2022-07-31T15:05:51Z</time>
      </trkpt>
      <trkpt lat="41.51531" lon="-0.65081">
        <time>2022-07-31T15:05:52Z</time>
      </trkpt>
      <trkpt lat="41.51516" lon="-0.65052">
        <time>2022-07-31T15:05:53Z</time>
      </trkpt>
      <trkpt lat="41.51502" lon="-0.65024">
        <time>2022-07-31T15:05:54Z</time>
      </trkpt>
      <trkpt lat="41.51488" lon="-0.64995">
        <time>2022-07-31T15:05:55Z</time>
      </trkpt>
      <trkpt lat="41.51474" lon="-0.64966">
        <time>2022-07-31T15:05:56Z</time>
      </trkpt>
      <trkpt lat="41.5146" lon="-0.64935">
        <time>2022-07-31T15:05:57Z</time>
      </trkpt>
      <trkpt lat="41.51446" lon="-0.64905">
        <time>2022-07-31T15:05:58Z</time>
      </trkpt>
      <trkpt lat="41.51432" lon="-0.64874">
        <time>2022-07-31T15:05:59Z</time>
      </trkpt>
      <trkpt lat="41.51417" lon="-0.64844">
        <time>2022-07-31T15:06:00Z</time>
      </trkpt>
      <trkpt lat="41.51401" lon="-0.64815">
        <time>2022-07-31T15:06:01Z</time>
      </trkpt>
      <trkpt lat="41.51385" lon="-0.64786">
        <time>2022-07-31T15:06:02Z</time>
      </trkpt>
      <trkpt lat="41.51369" lon="-0.64757">
        <time>2022-07-31T15:06:03Z</time>
      </trkpt>
      <trkpt lat="41.51352" lon="-0.6473">
        <time>2022-07-31T15:06:04Z</time>
      </trkpt>
      <trkpt lat="41.51335" lon="-0.64703">
        <time>2022-07-31T15:06:05Z</time>
      </trkpt>
      <trkpt lat="41.51317" lon="-0.64677">
        <time>2022-07-31T15:06:06Z</time>
      </trkpt>
      <trkpt lat="41.51299" lon="-0.64651">
        <time>2022-07-31T15:06:07Z</time>
      </trkpt>
      <trkpt lat="41.5128" lon="-0.64626">
        <time>2022-07-31T15:06:08Z</time>
      </trkpt>
      <trkpt lat="41.5126" lon="-0.64601">
        <time>2022-07-31T15:06:09Z</time>
      </trkpt>
      <trkpt lat="41.5124" lon="-0.64577">
        <time>2022-07-31T15:06:10Z</time>
      </trkpt>
      <trkpt lat="41.5122" lon="-0.64553">
        <time>2022-07-31T15:06:11Z</time>
      </trkpt>
      <trkpt lat="41.51199" lon="-0.6453">
        <time>2022-07-31T15:06:12Z</time>
      </trkpt>
      <trkpt lat="41.51179" lon="-0.64509">
        <time>2022-07-31T15:06:13Z</time>
      </trkpt>
      <trkpt lat="41.51158" lon="-0.64487">
        <time>2022-07-31T15:06:14Z</time>
      </trkpt>
      <trkpt lat="41.51136" lon="-0.64467">
        <time>2022-07-31T15:06:15Z</time>
      </trkpt>
      <trkpt lat="41.51114" lon="-0.64448">
        <time>2022-07-31T15:06:16Z</time>
      </trkpt>
      <trkpt lat="41.51092" lon="-0.64429">
        <time>2022-07-31T15:06:17Z</time>
      </trkpt>
      <trkpt lat="41.51069" lon="-0.64411">
        <time>2022-07-31T15:06:18Z</time>
      </trkpt>
      <trkpt lat="41.51047" lon="-0.64393">
        <time>2022-07-31T15:06:19Z</time>
      </trkpt>
      <trkpt lat="41.51024" lon="-0.64377">
        <time>2022-07-31T15:06:20Z</time>
      </trkpt>
      <trkpt lat="41.51" lon="-0.6436">
        <time>2022-07-31T15:06:21Z</time>
      </trkpt>
      <trkpt lat="41.50975" lon="-0.64345">
        <time>2022-07-31T15:06:22Z</time>
      </trkpt>
      <trkpt lat="41.5095" lon="-0.6433">
        <time>2022-07-31T15:06:23Z</time>
      </trkpt>
      <trkpt lat="41.50925" lon="-0.64315">
        <time>2022-07-31T15:06:24Z</time>
      </trkpt>
      <trkpt lat="41.50899" lon="-0.64302">
        <time>2022-07-31T15:06:25Z</time>
      </trkpt>
      <trkpt lat="41.50873" lon="-0.6429">
        <time>2022-07-31T15:06:26Z</time>
      </trkpt>
      <trkpt lat="41.50847" lon="-0.64278">
        <time>2022-07-31T15:06:27Z</time>
      </trkpt>
      <trkpt lat="41.50821" lon="-0.64268">
        <time>2022-07-31T15:06:28Z</time>
      </trkpt>
      <trkpt lat="41.50795" lon="-0.64258">
        <time>2022-07-31T15:06:29Z</time>
      </trkpt>
      <trkpt lat="41.50769" lon="-0.6425">
        <time>2022-07-31T15:06:30Z</time>
      </trkpt>
      <trkpt lat="41.50742" lon="-0.64242">
        <time>2022-07-31T15:06:31Z</time>
      </trkpt>
      <trkpt lat="41.50715" lon="-0.64235">
        <time>2022-07-31T15:06:32Z</time>
      </trkpt>
      <trkpt lat="41.50688" lon="-0.64229">
        <time>2022-07-31T15:06:33Z</time>
      </trkpt>
      <trkpt lat="41.50661" lon="-0.64223">
        <time>2022-07-31T15:06:34Z</time>
      </trkpt>
      <trkpt lat="41.50633" lon="-0.64217">
        <time>2022-07-31T15:06:35Z</time>
      </trkpt>
      <trkpt lat="41.50607" lon="-0.64212">
        <time>2022-07-31T15:06:36Z</time>
      </trkpt>
      <trkpt lat="41.5058" lon="-0.64206">
        <time>2022-07-31T15:06:37Z</time>
      </trkpt>
      <trkpt lat="41.50553" lon="-0.642">
        <time>2022-07-31T15:06:38Z</time>
      </trkpt>
      <trkpt lat="41.50526" lon="-0.64194">
        <time>2022-07-31T15:06:39Z</time>
      </trkpt>
      <trkpt lat="41.50499" lon="-0.64186">
        <time>2022-07-31T15:06:40Z</time>
      </trkpt>
      <trkpt lat="41.50473" lon="-0.64177">
        <time>2022-07-31T15:06:41Z</time>
      </trkpt>
      <trkpt lat="41.50447" lon="-0.64166">
        <time>2022-07-31T15:06:42Z</time>
      </trkpt>
      <trkpt lat="41.50421" lon="-0.64154">
        <time>2022-07-31T15:06:43Z</time>
      </trkpt>
      <trkpt lat="41.50396" lon="-0.64142">
        <time>2022-07-31T15:06:44Z</time>
      </trkpt>
      <trkpt lat="41.50371" lon="-0.64128">
        <time>2022-07-31T15:06:45Z</time>
      </trkpt>
      <trkpt lat="41.50345" lon="-0.64113">
        <time>2022-07-31T15:06:46Z</time>
      </trkpt>
      <trkpt lat="41.50321" lon="-0.64096">
        <time>2022-07-31T15:06:47Z</time>
      </trkpt>
      <trkpt lat="41.50296" lon="-0.64079">
        <time>2022-07-31T15:06:48Z</time>
      </trkpt>
      <trkpt lat="41.50272" lon="-0.64061">
        <time>2022-07-31T15:06:49Z</time>
      </trkpt>
      <trkpt lat="41.50248" lon="-0.64041">
        <time>2022-07-31T15:06:50Z</time>
      </trkpt>
      <trkpt lat="41.50225" lon="-0.6402">
        <time>2022-07-31T15:06:51Z</time>
      </trkpt>
      <trkpt lat="41.50202" lon="-0.63998">
        <time>2022-07-31T15:06:52Z</time>
      </trkpt>
      <trkpt lat="41.50179" lon="-0.63974">
        <time>2022-07-31T15:06:53Z</time>
      </trkpt>
      <trkpt lat="41.50158" lon="-0.63948">
        <time>2022-07-31T15:06:54Z</time>
      </trkpt>
      <trkpt lat="41.50137" lon="-0.63923">
        <time>2022-07-31T15:06:55Z</time>
      </trkpt>
      <trkpt lat="41.50117" lon="-0.63896">
        <time>2022-07-31T15:06:56Z</time>
      </trkpt>
      <trkpt lat="41.50098" lon="-0.63869">
        <time>2022-07-31T15:06:57Z</time>
      </trkpt>
      <trkpt lat="41.50079" lon="-0.6384">
        <time>2022-07-31T15:06:58Z</time>
      </trkpt>
      <trkpt lat="41.50061" lon="-0.63811">
        <time>2022-07-31T15:06:59Z</time>
      </trkpt>
      <trkpt lat="41.50044" lon="-0.6378">
        <time>2022-07-31T15:07:00Z</time>
      </trkpt>
      <trkpt lat="41.50027" lon="-0.63749">
        <time>2022-07-31T15:07:01Z</time>
      </trkpt>
      <trkpt lat="41.50012" lon="-0.63717">
        <time>2022-07-31T15:07:02Z</time>
      </trkpt>
      <trkpt lat="41.49997" lon="-0.63685">
        <time>2022-07-31T15:07:03Z</time>
      </trkpt>
      <trkpt lat="41.49983" lon="-0.63652">
        <time>2022-07-31T15:07:04Z</time>
      </trkpt>
      <trkpt lat="41.49971" lon="-0.63619">
        <time>2022-07-31T15:07:05Z</time>
      </trkpt>
      <trkpt lat="41.49959" lon="-0.63585">
        <time>2022-07-31T15:07:06Z</time>
      </trkpt>
      <trkpt lat="41.49948" lon="-0.63551">
        <time>2022-07-31T15:07:07Z</time>
      </trkpt>
      <trkpt lat="41.49938" lon="-0.63516">
        <time>2022-07-31T15:07:08Z</time>
      </trkpt>
      <trkpt lat="41.49929" lon="-0.63482">
        <time>2022-07-31T15:07:09Z</time>
      </trkpt>
      <trkpt lat="41.49922" lon="-0.63447">
        <time>2022-07-31T15:07:10Z</time>
      </trkpt>
      <trkpt lat="41.49914" lon="-0.63411">
        <time>2022-07-31T15:07:11Z</time>
      </trkpt>
      <trkpt lat="41.49908" lon="-0.63376">
        <time>2022-07-31T15:07:12Z</time>
      </trkpt>
      <trkpt lat="41.49902" lon="-0.6334">
        <time>2022-07-31T15:07:13Z</time>
      </trkpt>
      <trkpt lat="41.49898" lon="-0.63304">
        <time>2022-07-31T15:07:14Z</time>
      </trkpt>
      <trkpt lat="41.49895" lon="-0.63268">
        <time>2022-07-31T15:07:15Z</time>
      </trkpt>
      <trkpt lat="41.49893" lon="-0.63232">
        <time>2022-07-31T15:07:16Z</time>
      </trkpt>
      <trkpt lat="41.49891" lon="-0.63196">
        <time>2022-07-31T15:07:17Z</time>
      </trkpt>
      <trkpt lat="41.4989" lon="-0.63161">
        <time>2022-07-31T15:07:18Z</time>
      </trkpt>
      <trkpt lat="41.49891" lon="-0.63124">
        <time>2022-07-31T15:07:19Z</time>
      </trkpt>
      <trkpt lat="41.49892" lon="-0.63088">
        <time>2022-07-31T15:07:20Z</time>
      </trkpt>
      <trkpt lat="41.49894" lon="-0.63051">
        <time>2022-07-31T15:07:21Z</time>
      </trkpt>
      <trkpt lat="41.49897" lon="-0.63015">
        <time>2022-07-31T15:07:22Z</time>
      </trkpt>
      <trkpt lat="41.49901" lon="-0.62979">
        <time>2022-07-31T15:07:23Z</time>
      </trkpt>
      <trkpt lat="41.49906" lon="-0.62943">
        <time>2022-07-31T15:07:24Z</time>
      </trkpt>
      <trkpt lat="41.49912" lon="-0.62908">
        <time>2022-07-31T15:07:25Z</time>
      </trkpt>
      <trkpt lat="41.49919" lon="-0.62872">
        <time>2022-07-31T15:07:26Z</time>
      </trkpt>
      <trkpt lat="41.49926" lon="-0.62837">
        <time>2022-07-31T15:07:27Z</time>
      </trkpt>
      <trkpt lat="41.49934" lon="-0.62801">
        <time>2022-07-31T15:07:28Z</time>
      </trkpt>
      <trkpt lat="41.49943" lon="-0.62763">
        <time>2022-07-31T15:07:29Z</time>
      </trkpt>
      <trkpt lat="41.49952" lon="-0.62725">
        <time>2022-07-31T15:07:30Z</time>
      </trkpt>
      <trkpt lat="41.49961" lon="-0.62686">
        <time>2022-07-31T15:07:31Z</time>
      </trkpt>
      <trkpt lat="41.49969" lon="-0.62646">
        <time>2022-07-31T15:07:32Z</time>
      </trkpt>
      <trkpt lat="41.49978" lon="-0.62604">
        <time>2022-07-31T15:07:33Z</time>
      </trkpt>
      <trkpt lat="41.49988" lon="-0.62562">
        <time>2022-07-31T15:07:34Z</time>
      </trkpt>
      <trkpt lat="41.49998" lon="-0.6252">
        <time>2022-07-31T15:07:35Z</time>
      </trkpt>
      <trkpt lat="41.50009" lon="-0.62478">
        <time>2022-07-31T15:07:36Z</time>
      </trkpt>
      <trkpt lat="41.50019" lon="-0.62436">
        <time>2022-07-31T15:07:37Z</time>
      </trkpt>
      <trkpt lat="41.50031" lon="-0.62394">
        <time>2022-07-31T15:07:38Z</time>
      </trkpt>
      <trkpt lat="41.50042" lon="-0.62352">
        <time>2022-07-31T15:07:39Z</time>
      </trkpt>
      <trkpt lat="41.50054" lon="-0.6231">
        <time>2022-07-31T15:07:40Z</time>
      </trkpt>
      <trkpt lat="41.50066" lon="-0.62268">
        <time>2022-07-31T15:07:41Z</time>
      </trkpt>
      <trkpt lat="41.50078" lon="-0.62227">
        <time>2022-07-31T15:07:42Z</time>
      </trkpt>
      <trkpt lat="41.5009" lon="-0.62185">
        <time>2022-07-31T15:07:43Z</time>
      </trkpt>
      <trkpt lat="41.50103" lon="-0.62144">
        <time>2022-07-31T15:07:44Z</time>
      </trkpt>
      <trkpt lat="41.50115" lon="-0.62104">
        <time>2022-07-31T15:07:45Z</time>
      </trkpt>
      <trkpt lat="41.50128" lon="-0.62063">
        <time>2022-07-31T15:07:46Z</time>
      </trkpt>
      <trkpt lat="41.50142" lon="-0.62022">
        <time>2022-07-31T15:07:47Z</time>
      </trkpt>
      <trkpt lat="41.50155" lon="-0.61982">
        <time>2022-07-31T15:07:48Z</time>
      </trkpt>
      <trkpt lat="41.50169" lon="-0.61942">
        <time>2022-07-31T15:07:49Z</time>
      </trkpt>
      <trkpt lat="41.50183" lon="-0.61902">
        <time>2022-07-31T15:07:50Z</time>
      </trkpt>
      <trkpt lat="41.50197" lon="-0.61863">
        <time>2022-07-31T15:07:51Z</time>
      </trkpt>
      <trkpt lat="41.50211" lon="-0.61825">
        <time>2022-07-31T15:07:52Z</time>
      </trkpt>
      <trkpt lat="41.50225" lon="-0.61786">
        <time>2022-07-31T15:07:53Z</time>
      </trkpt>
      <trkpt lat="41.50239" lon="-0.61748">
        <time>2022-07-31T15:07:54Z</time>
      </trkpt>
      <trkpt lat="41.50254" lon="-0.61712">
        <time>2022-07-31T15:07:55Z</time>
      </trkpt>
      <trkpt lat="41.50269" lon="-0.61676">
        <time>2022-07-31T15:07:56Z</time>
      </trkpt>
      <trkpt lat="41.50286" lon="-0.61642">
        <time>2022-07-31T15:07:57Z</time>
      </trkpt>
      <trkpt lat="41.50303" lon="-0.61608">
        <time>2022-07-31T15:07:58Z</time>
      </trkpt>
      <trkpt lat="41.50322" lon="-0.61576">
        <time>2022-07-31T15:07:59Z</time>
      </trkpt>
      <trkpt lat="41.50341" lon="-0.61543">
        <time>2022-07-31T15:08:00Z</time>
      </trkpt>
      <trkpt lat="41.50362" lon="-0.61511">
        <time>2022-07-31T15:08:01Z</time>
      </trkpt>
      <trkpt lat="41.50382" lon="-0.6148">
        <time>2022-07-31T15:08:02Z</time>
      </trkpt>
      <trkpt lat="41.50403" lon="-0.61448">
        <time>2022-07-31T15:08:03Z</time>
      </trkpt>
      <trkpt lat="41.50422" lon="-0.61415">
        <time>2022-07-31T15:08:04Z</time>
      </trkpt>
      <trkpt lat="41.50442" lon="-0.61382">
        <time>2022-07-31T15:08:05Z</time>
      </trkpt>
      <trkpt lat="41.50459" lon="-0.61346">
        <time>2022-07-31T15:08:06Z</time>
      </trkpt>
      <trkpt lat="41.50474" lon="-0.61309">
        <time>2022-07-31T15:08:07Z</time>
      </trkpt>
      <trkpt lat="41.50486" lon="-0.6127">
        <time>2022-07-31T15:08:08Z</time>
      </trkpt>
      <trkpt lat="41.50497" lon="-0.6123">
        <time>2022-07-31T15:08:09Z</time>
      </trkpt>
      <trkpt lat="41.50505" lon="-0.61189">
        <time>2022-07-31T15:08:10Z</time>
      </trkpt>
      <trkpt lat="41.50512" lon="-0.61147">
        <time>2022-07-31T15:08:11Z</time>
      </trkpt>
      <trkpt lat="41.50517" lon="-0.61105">
        <time>2022-07-31T15:08:12Z</time>
      </trkpt>
      <trkpt lat="41.50518" lon="-0.61062">
        <time>2022-07-31T15:08:13Z</time>
      </trkpt>
      <trkpt lat="41.50518" lon="-0.61019">
        <time>2022-07-31T15:08:14Z</time>
      </trkpt>
      <trkpt lat="41.50515" lon="-0.60976">
        <time>2022-07-31T15:08:15Z</time>
      </trkpt>
      <trkpt lat="41.50509" lon="-0.60933">
        <time>2022-07-31T15:08:16Z</time>
      </trkpt>
      <trkpt lat="41.50501" lon="-0.60891">
        <time>2022-07-31T15:08:17Z</time>
      </trkpt>
      <trkpt lat="41.50491" lon="-0.60848">
        <time>2022-07-31T15:08:18Z</time>
      </trkpt>
      <trkpt lat="41.50479" lon="-0.60807">
        <time>2022-07-31T15:08:19Z</time>
      </trkpt>
      <trkpt lat="41.50465" lon="-0.60766">
        <time>2022-07-31T15:08:20Z</time>
      </trkpt>
      <trkpt lat="41.50448" lon="-0.60727">
        <time>2022-07-31T15:08:21Z</time>
      </trkpt>
      <trkpt lat="41.5043" lon="-0.60689">
        <time>2022-07-31T15:08:22Z</time>
      </trkpt>
      <trkpt lat="41.5041" lon="-0.60652">
        <time>2022-07-31T15:08:23Z</time>
      </trkpt>
      <trkpt lat="41.5039" lon="-0.60616">
        <time>2022-07-31T15:08:24Z</time>
      </trkpt>
      <trkpt lat="41.5037" lon="-0.60579">
        <time>2022-07-31T15:08:25Z</time>
      </trkpt>
      <trkpt lat="41.5035" lon="-0.6054">
        <time>2022-07-31T15:08:26Z</time>
      </trkpt>
      <trkpt lat="41.50333" lon="-0.60502">
        <time>2022-07-31T15:08:27Z</time>
      </trkpt>
      <trkpt lat="41.50316" lon="-0.60462">
        <time>2022-07-31T15:08:28Z</time>
      </trkpt>
      <trkpt lat="41.50299" lon="-0.60422">
        <time>2022-07-31T15:08:29Z</time>
      </trkpt>
      <trkpt lat="41.50282" lon="-0.60382">
        <time>2022-07-31T15:08:30Z</time>
      </trkpt>
      <trkpt lat="41.50265" lon="-0.60342">
        <time>2022-07-31T15:08:31Z</time>
      </trkpt>
      <trkpt lat="41.50248" lon="-0.60302">
        <time>2022-07-31T15:08:32Z</time>
      </trkpt>
      <trkpt lat="41.50231" lon="-0.60262">
        <time>2022-07-31T15:08:33Z</time>
      </trkpt>
      <trkpt lat="41.50215" lon="-0.60222">
        <time>2022-07-31T15:08:34Z</time>
      </trkpt>
      <trkpt lat="41.50198" lon="-0.60183">
        <time>2022-07-31T15:08:35Z</time>
      </trkpt>
      <trkpt lat="41.50182" lon="-0.60143">
        <time>2022-07-31T15:08:36Z</time>
      </trkpt>
      <trkpt lat="41.50165" lon="-0.60103">
        <time>2022-07-31T15:08:37Z</time>
      </trkpt>
      <trkpt lat="41.50149" lon="-0.60064">
        <time>2022-07-31T15:08:38Z</time>
      </trkpt>
      <trkpt lat="41.50132" lon="-0.60024">
        <time>2022-07-31T15:08:39Z</time>
      </trkpt>
      <trkpt lat="41.50116" lon="-0.59985">
        <time>2022-07-31T15:08:40Z</time>
      </trkpt>
      <trkpt lat="41.50099" lon="-0.59945">
        <time>2022-07-31T15:08:41Z</time>
      </trkpt>
      <trkpt lat="41.50083" lon="-0.59907">
        <time>2022-07-31T15:08:42Z</time>
      </trkpt>
      <trkpt lat="41.50067" lon="-0.59869">
        <time>2022-07-31T15:08:43Z</time>
      </trkpt>
      <trkpt lat="41.50051" lon="-0.59833">
        <time>2022-07-31T15:08:44Z</time>
      </trkpt>
      <trkpt lat="41.50036" lon="-0.59796">
        <time>2022-07-31T15:08:45Z</time>
      </trkpt>
      <trkpt lat="41.50021" lon="-0.5976">
        <time>2022-07-31T15:08:46Z</time>
      </trkpt>
      <trkpt lat="41.50007" lon="-0.59725">
        <time>2022-07-31T15:08:47Z</time>
      </trkpt>
      <trkpt lat="41.49993" lon="-0.59692">
        <time>2022-07-31T15:08:48Z</time>
      </trkpt>
      <trkpt lat="41.49979" lon="-0.5966">
        <time>2022-07-31T15:08:49Z</time>
      </trkpt>
      <trkpt lat="41.49966" lon="-0.59628">
        <time>2022-07-31T15:08:50Z</time>
      </trkpt>
      <trkpt lat="41.49953" lon="-0.59598">
        <time>2022-07-31T15:08:51Z</time>
      </trkpt>
      <trkpt lat="41.4994" lon="-0.59567">
        <time>2022-07-31T15:08:52Z</time>
      </trkpt>
      <trkpt lat="41.49927" lon="-0.59536">
        <time>2022-07-31T15:08:53Z</time>
      </trkpt>
      <trkpt lat="41.49914" lon="-0.59506">
        <time>2022-07-31T15:08:54Z</time>
      </trkpt>
      <trkpt lat="41.49901" lon="-0.59475">
        <time>2022-07-31T15:08:55Z</time>
      </trkpt>
      <trkpt lat="41.49889" lon="-0.59444">
        <time>2022-07-31T15:08:56Z</time>
      </trkpt>
      <trkpt lat="41.49876" lon="-0.59414">
        <time>2022-07-31T15:08:57Z</time>
      </trkpt>
      <trkpt lat="41.49863" lon="-0.59383">
        <time>2022-07-31T15:08:58Z</time>
      </trkpt>
      <trkpt lat="41.49851" lon="-0.59353">
        <time>2022-07-31T15:08:59Z</time>
      </trkpt>
      <trkpt lat="41.49839" lon="-0.59323">
        <time>2022-07-31T15:09:00Z</time>
      </trkpt>
      <trkpt lat="41.49826" lon="-0.59294">
        <time>2022-07-31T15:09:01Z</time>
      </trkpt>
      <trkpt lat="41.49814" lon="-0.59265">
        <time>2022-07-31T15:09:02Z</time>
      </trkpt>
      <trkpt lat="41.49801" lon="-0.59235">
        <time>2022-07-31T15:09:03Z</time>
      </trkpt>
      <trkpt lat="41.49789" lon="-0.59206">
        <time>2022-07-31T15:09:04Z</time>
      </trkpt>
      <trkpt lat="41.49777" lon="-0.59177">
        <time>2022-07-31T15:09:05Z</time>
      </trkpt>
      <trkpt lat="41.49765" lon="-0.59148">
        <time>2022-07-31T15:09:06Z</time>
      </trkpt>
      <trkpt lat="41.49752" lon="-0.59119">
        <time>2022-07-31T15:09:07Z</time>
      </trkpt>
      <trkpt lat="41.49739" lon="-0.59089">
        <time>2022-07-31T15:09:08Z</time>
      </trkpt>
      <trkpt lat="41.49727" lon="-0.5906">
        <time>2022-07-31T15:09:09Z</time>
      </trkpt>
      <trkpt lat="41.49715" lon="-0.5903">
        <time>2022-07-31T15:09:10Z</time>
      </trkpt>
      <trkpt lat="41.49703" lon="-0.58997">
        <time>2022-07-31T15:09:11Z</time>
      </trkpt>
      <trkpt lat="41.49689" lon="-0.58964">
        <time>2022-07-31T15:09:12Z</time>
      </trkpt>
      <trkpt lat="41.49674" lon="-0.58929">
        <time>2022-07-31T15:09:13Z</time>
      </trkpt>
      <trkpt lat="41.49658" lon="-0.58894">
        <time>2022-07-31T15:09:14Z</time>
      </trkpt>
      <trkpt lat="41.49642" lon="-0.58858">
        <time>2022-07-31T15:09:15Z</time>
      </trkpt>
      <trkpt lat="41.49627" lon="-0.58822">
        <time>2022-07-31T15:09:16Z</time>
      </trkpt>
      <trkpt lat="41.49611" lon="-0.58786">
        <time>2022-07-31T15:09:17Z</time>
      </trkpt>
      <trkpt lat="41.49595" lon="-0.58748">
        <time>2022-07-31T15:09:18Z</time>
      </trkpt>
      <trkpt lat="41.49579" lon="-0.58712">
        <time>2022-07-31T15:09:19Z</time>
      </trkpt>
      <trkpt lat="41.49564" lon="-0.58674">
        <time>2022-07-31T15:09:20Z</time>
      </trkpt>
      <trkpt lat="41.49548" lon="-0.58638">
        <time>2022-07-31T15:09:21Z</time>
      </trkpt>
      <trkpt lat="41.49533" lon="-0.58601">
        <time>2022-07-31T15:09:22Z</time>
      </trkpt>
      <trkpt lat="41.49517" lon="-0.58564">
        <time>2022-07-31T15:09:23Z</time>
      </trkpt>
      <trkpt lat="41.49502" lon="-0.58528">
        <time>2022-07-31T15:09:24Z</time>
      </trkpt>
      <trkpt lat="41.49487" lon="-0.58492">
        <time>2022-07-31T15:09:25Z</time>
      </trkpt>
      <trkpt lat="41.49471" lon="-0.58455">
        <time>2022-07-31T15:09:26Z</time>
      </trkpt>
      <trkpt lat="41.49456" lon="-0.58418">
        <time>2022-07-31T15:09:27Z</time>
      </trkpt>
      <trkpt lat="41.49441" lon="-0.58382">
        <time>2022-07-31T15:09:28Z</time>
      </trkpt>
      <trkpt lat="41.49426" lon="-0.58346">
        <time>2022-07-31T15:09:29Z</time>
      </trkpt>
      <trkpt lat="41.49411" lon="-0.5831">
        <time>2022-07-31T15:09:30Z</time>
      </trkpt>
      <trkpt lat="41.49396" lon="-0.58275">
        <time>2022-07-31T15:09:31Z</time>
      </trkpt>
      <trkpt lat="41.49381" lon="-0.58239">
        <time>2022-07-31T15:09:32Z</time>
      </trkpt>
      <trkpt lat="41.49367" lon="-0.58205">
        <time>2022-07-31T15:09:33Z</time>
      </trkpt>
      <trkpt lat="41.49353" lon="-0.58171">
        <time>2022-07-31T15:09:34Z</time>
      </trkpt>
      <trkpt lat="41.49339" lon="-0.58137">
        <time>2022-07-31T15:09:35Z</time>
      </trkpt>
      <trkpt lat="41.49325" lon="-0.58104">
        <time>2022-07-31T15:09:36Z</time>
      </trkpt>
      <trkpt lat="41.49311" lon="-0.58072">
        <time>2022-07-31T15:09:37Z</time>
      </trkpt>
      <trkpt lat="41.49298" lon="-0.5804">
        <time>2022-07-31T15:09:38Z</time>
      </trkpt>
      <trkpt lat="41.49284" lon="-0.58009">
        <time>2022-07-31T15:09:39Z</time>
      </trkpt>
      <trkpt lat="41.4927" lon="-0.57978">
        <time>2022-07-31T15:09:40Z</time>
      </trkpt>
      <trkpt lat="41.49254" lon="-0.57949">
        <time>2022-07-31T15:09:41Z</time>
      </trkpt>
      <trkpt lat="41.49235" lon="-0.57922">
        <time>2022-07-31T15:09:42Z</time>
      </trkpt>
      <trkpt lat="41.49214" lon="-0.57896">
        <time>2022-07-31T15:09:43Z</time>
      </trkpt>
      <trkpt lat="41.49193" lon="-0.57871">
        <time>2022-07-31T15:09:44Z</time>
      </trkpt>
      <trkpt lat="41.4917" lon="-0.57845">
        <time>2022-07-31T15:09:45Z</time>
      </trkpt>
      <trkpt lat="41.49148" lon="-0.57818">
        <time>2022-07-31T15:09:46Z</time>
      </trkpt>
      <trkpt lat="41.49126" lon="-0.57792">
        <time>2022-07-31T15:09:47Z</time>
      </trkpt>
      <trkpt lat="41.49103" lon="-0.57766">
        <time>2022-07-31T15:09:48Z</time>
      </trkpt>
      <trkpt lat="41.49081" lon="-0.57739">
        <time>2022-07-31T15:09:49Z</time>
      </trkpt>
      <trkpt lat="41.49059" lon="-0.57713">
        <time>2022-07-31T15:09:50Z</time>
      </trkpt>
      <trkpt lat="41.49037" lon="-0.57687">
        <time>2022-07-31T15:09:51Z</time>
      </trkpt>
      <trkpt lat="41.49015" lon="-0.57661">
        <time>2022-07-31T15:09:52Z</time>
      </trkpt>
      <trkpt lat="41.48992" lon="-0.57635">
        <time>2022-07-31T15:09:53Z</time>
      </trkpt>
      <trkpt lat="41.48969" lon="-0.57608">
        <time>2022-07-31T15:09:54Z</time>
      </trkpt>
      <trkpt lat="41.48946" lon="-0.57581">
        <time>2022-07-31T15:09:55Z</time>
      </trkpt>
      <trkpt lat="41.48923" lon="-0.57555">
        <time>2022-07-31T15:09:56Z</time>
      </trkpt>
      <trkpt lat="41.48901" lon="-0.57529">
        <time>2022-07-31T15:09:57Z</time>
      </trkpt>
      <trkpt lat="41.48879" lon="-0.57502">
        <time>2022-07-31T15:09:58Z</time>
      </trkpt>
      <trkpt lat="41.48856" lon="-0.57476">
        <time>2022-07-31T15:09:59Z</time>
      </trkpt>
      <trkpt lat="41.48833" lon="-0.57449">
        <time>2022-07-31T15:10:00Z</time>
      </trkpt>
      <trkpt lat="41.48811" lon="-0.57422">
        <time>2022-07-31T15:10:01Z</time>
      </trkpt>
      <trkpt lat="41.48788" lon="-0.57395">
        <time>2022-07-31T15:10:02Z</time>
      </trkpt>
      <trkpt lat="41.48765" lon="-0.57368">
        <time>2022-07-31T15:10:03Z</time>
      </trkpt>
      <trkpt lat="41.48742" lon="-0.57342">
        <time>2022-07-31T15:10:04Z</time>
      </trkpt>
      <trkpt lat="41.48719" lon="-0.57314">
        <time>2022-07-31T15:10:05Z</time>
      </trkpt>
      <trkpt lat="41.48696" lon="-0.57287">
        <time>2022-07-31T15:10:06Z</time>
      </trkpt>
      <trkpt lat="41.48673" lon="-0.5726">
        <time>2022-07-31T15:10:07Z</time>
      </trkpt>
      <trkpt lat="41.4865" lon="-0.57233">
        <time>2022-07-31T15:10:08Z</time>
      </trkpt>
      <trkpt lat="41.48627" lon="-0.57205">
        <time>2022-07-31T15:10:09Z</time>
      </trkpt>
      <trkpt lat="41.48603" lon="-0.57179">
        <time>2022-07-31T15:10:10Z</time>
      </trkpt>
      <trkpt lat="41.4858" lon="-0.57151">
        <time>2022-07-31T15:10:11Z</time>
      </trkpt>
      <trkpt lat="41.48556" lon="-0.57124">
        <time>2022-07-31T15:10:12Z</time>
      </trkpt>
      <trkpt lat="41.48532" lon="-0.57096">
        <time>2022-07-31T15:10:13Z</time>
      </trkpt>
      <trkpt lat="41.48509" lon="-0.57068">
        <time>2022-07-31T15:10:14Z</time>
      </trkpt>
      <trkpt lat="41.48485" lon="-0.5704">
        <time>2022-07-31T15:10:15Z</time>
      </trkpt>
      <trkpt lat="41.48461" lon="-0.57012">
        <time>2022-07-31T15:10:16Z</time>
      </trkpt>
      <trkpt lat="41.48437" lon="-0.56985">
        <time>2022-07-31T15:10:17Z</time>
      </trkpt>
      <trkpt lat="41.48413" lon="-0.56957">
        <time>2022-07-31T15:10:18Z</time>
      </trkpt>
      <trkpt lat="41.4839" lon="-0.56929">
        <time>2022-07-31T15:10:19Z</time>
      </trkpt>
      <trkpt lat="41.48366" lon="-0.56901">
        <time>2022-07-31T15:10:20Z</time>
      </trkpt>
      <trkpt lat="41.48343" lon="-0.56873">
        <time>2022-07-31T15:10:21Z</time>
      </trkpt>
      <trkpt lat="41.48319" lon="-0.56846">
        <time>2022-07-31T15:10:22Z</time>
      </trkpt>
      <trkpt lat="41.48295" lon="-0.56819">
        <time>2022-07-31T15:10:23Z</time>
      </trkpt>
      <trkpt lat="41.48272" lon="-0.56791">
        <time>2022-07-31T15:10:24Z</time>
      </trkpt>
      <trkpt lat="41.48248" lon="-0.56763">
        <time>2022-07-31T15:10:25Z</time>
      </trkpt>
      <trkpt lat="41.48225" lon="-0.56736">
        <time>2022-07-31T15:10:26Z</time>
      </trkpt>
      <trkpt lat="41.48201" lon="-0.56708">
        <time>2022-07-31T15:10:27Z</time>
      </trkpt>
      <trkpt lat="41.48177" lon="-0.56681">
        <time>2022-07-31T15:10:28Z</time>
      </trkpt>
      <trkpt lat="41.48153" lon="-0.56653">
        <time>2022-07-31T15:10:29Z</time>
      </trkpt>
      <trkpt lat="41.48129" lon="-0.56625">
        <time>2022-07-31T15:10:30Z</time>
      </trkpt>
      <trkpt lat="41.48105" lon="-0.56597">
        <time>2022-07-31T15:10:31Z</time>
      </trkpt>
      <trkpt lat="41.48081" lon="-0.56569">
        <time>2022-07-31T15:10:32Z</time>
      </trkpt>
      <trkpt lat="41.48058" lon="-0.56541">
        <time>2022-07-31T15:10:33Z</time>
      </trkpt>
      <trkpt lat="41.48034" lon="-0.56513">
        <time>2022-07-31T15:10:34Z</time>
      </trkpt>
      <trkpt lat="41.48011" lon="-0.56485">
        <time>2022-07-31T15:10:35Z</time>
      </trkpt>
      <trkpt lat="41.47988" lon="-0.56457">
        <time>2022-07-31T15:10:36Z</time>
      </trkpt>
      <trkpt lat="41.47965" lon="-0.56429">
        <time>2022-07-31T15:10:37Z</time>
      </trkpt>
      <trkpt lat="41.47943" lon="-0.56403">
        <time>2022-07-31T15:10:38Z</time>
      </trkpt>
      <trkpt lat="41.47921" lon="-0.56377">
        <time>2022-07-31T15:10:39Z</time>
      </trkpt>
      <trkpt lat="41.479" lon="-0.56351">
        <time>2022-07-31T15:10:40Z</time>
      </trkpt>
      <trkpt lat="41.47878" lon="-0.56325">
        <time>2022-07-31T15:10:41Z</time>
      </trkpt>
      <trkpt lat="41.47857" lon="-0.56299">
        <time>2022-07-31T15:10:42Z</time>
      </trkpt>
      <trkpt lat="41.47836" lon="-0.56273">
        <time>2022-07-31T15:10:43Z</time>
      </trkpt>
      <trkpt lat="41.47816" lon="-0.56247">
        <time>2022-07-31T15:10:44Z</time>
      </trkpt>
      <trkpt lat="41.47795" lon="-0.56219">
        <time>2022-07-31T15:10:45Z</time>
      </trkpt>
      <trkpt lat="41.47776" lon="-0.56189">
        <time>2022-07-31T15:10:46Z</time>
      </trkpt>
      <trkpt lat="41.47758" lon="-0.56159">
        <time>2022-07-31T15:10:47Z</time>
      </trkpt>
      <trkpt lat="41.47741" lon="-0.56127">
        <time>2022-07-31T15:10:48Z</time>
      </trkpt>
      <trkpt lat="41.47725" lon="-0.56093">
        <time>2022-07-31T15:10:49Z</time>
      </trkpt>
      <trkpt lat="41.47711" lon="-0.56058">
        <time>2022-07-31T15:10:50Z</time>
      </trkpt>
      <trkpt lat="41.47699" lon="-0.56023">
        <time>2022-07-31T15:10:51Z</time>
      </trkpt>
      <trkpt lat="41.47687" lon="-0.55987">
        <time>2022-07-31T15:10:52Z</time>
      </trkpt>
      <trkpt lat="41.47676" lon="-0.5595">
        <time>2022-07-31T15:10:53Z</time>
      </trkpt>
      <trkpt lat="41.47666" lon="-0.55912">
        <time>2022-07-31T15:10:54Z</time>
      </trkpt>
      <trkpt lat="41.47655" lon="-0.55875">
        <time>2022-07-31T15:10:55Z</time>
      </trkpt>
      <trkpt lat="41.47643" lon="-0.55838">
        <time>2022-07-31T15:10:56Z</time>
      </trkpt>
      <trkpt lat="41.4763" lon="-0.55802">
        <time>2022-07-31T15:10:57Z</time>
      </trkpt>
      <trkpt lat="41.47616" lon="-0.55767">
        <time>2022-07-31T15:10:58Z</time>
      </trkpt>
      <trkpt lat="41.47599" lon="-0.55733">
        <time>2022-07-31T15:10:59Z</time>
      </trkpt>
      <trkpt lat="41.4758" lon="-0.55701">
        <time>2022-07-31T15:11:00Z</time>
      </trkpt>
      <trkpt lat="41.4756" lon="-0.5567">
        <time>2022-07-31T15:11:01Z</time>
      </trkpt>
      <trkpt lat="41.47538" lon="-0.5564">
        <time>2022-07-31T15:11:02Z</time>
      </trkpt>
      <trkpt lat="41.47516" lon="-0.55611">
        <time>2022-07-31T15:11:03Z</time>
      </trkpt>
      <trkpt lat="41.47493" lon="-0.5558">
        <time>2022-07-31T15:11:04Z</time>
      </trkpt>
      <trkpt lat="41.47471" lon="-0.5555">
        <time>2022-07-31T15:11:05Z</time>
      </trkpt>
      <trkpt lat="41.47448" lon="-0.5552">
        <time>2022-07-31T15:11:06Z</time>
      </trkpt>
      <trkpt lat="41.47425" lon="-0.55489">
        <time>2022-07-31T15:11:07Z</time>
      </trkpt>
      <trkpt lat="41.47403" lon="-0.55458">
        <time>2022-07-31T15:11:08Z</time>
      </trkpt>
      <trkpt lat="41.47381" lon="-0.55428">
        <time>2022-07-31T15:11:09Z</time>
      </trkpt>
      <trkpt lat="41.47358" lon="-0.55398">
        <time>2022-07-31T15:11:10Z</time>
      </trkpt>
      <trkpt lat="41.47335" lon="-0.55367">
        <time>2022-07-31T15:11:11Z</time>
      </trkpt>
      <trkpt lat="41.47312" lon="-0.55338">
        <time>2022-07-31T15:11:12Z</time>
      </trkpt>
      <trkpt lat="41.4729" lon="-0.55308">
        <time>2022-07-31T15:11:13Z</time>
      </trkpt>
      <trkpt lat="41.47267" lon="-0.55278">
        <time>2022-07-31T15:11:14Z</time>
      </trkpt>
      <trkpt lat="41.47246" lon="-0.55249">
        <time>2022-07-31T15:11:15Z</time>
      </trkpt>
      <trkpt lat="41.47224" lon="-0.5522">
        <time>2022-07-31T15:11:16Z</time>
      </trkpt>
      <trkpt lat="41.47202" lon="-0.55192">
        <time>2022-07-31T15:11:17Z</time>
      </trkpt>
      <trkpt lat="41.47181" lon="-0.55163">
        <time>2022-07-31T15:11:18Z</time>
      </trkpt>
      <trkpt lat="41.4716" lon="-0.55136">
        <time>2022-07-31T15:11:19Z</time>
      </trkpt>
      <trkpt lat="41.47139" lon="-0.55109">
        <time>2022-07-31T15:11:20Z</time>
      </trkpt>
      <trkpt lat="41.4712" lon="-0.55083">
        <time>2022-07-31T15:11:21Z</time>
      </trkpt>
      <trkpt lat="41.471" lon="-0.55059">
        <time>2022-07-31T15:11:22Z</time>
      </trkpt>
      <trkpt lat="41.47082" lon="-0.55035">
        <time>2022-07-31T15:11:23Z</time>
      </trkpt>
      <trkpt lat="41.47064" lon="-0.55011">
        <time>2022-07-31T15:11:24Z</time>
      </trkpt>
      <trkpt lat="41.47046" lon="-0.54987">
        <time>2022-07-31T15:11:25Z</time>
      </trkpt>
      <trkpt lat="41.47028" lon="-0.54961">
        <time>2022-07-31T15:11:26Z</time>
      </trkpt>
      <trkpt lat="41.4701" lon="-0.54937">
        <time>2022-07-31T15:11:27Z</time>
      </trkpt>
      <trkpt lat="41.46991" lon="-0.54911">
        <time>2022-07-31T15:11:28Z</time>
      </trkpt>
      <trkpt lat="41.46972" lon="-0.54885">
        <time>2022-07-31T15:11:29Z</time>
      </trkpt>
      <trkpt lat="41.46953" lon="-0.54857">
        <time>2022-07-31T15:11:30Z</time>
      </trkpt>
      <trkpt lat="41.46934" lon="-0.5483">
        <time>2022-07-31T15:11:31Z</time>
      </trkpt>
      <trkpt lat="41.46914" lon="-0.54802">
        <time>2022-07-31T15:11:32Z</time>
      </trkpt>
      <trkpt lat="41.46894" lon="-0.54773">
        <time>2022-07-31T15:11:33Z</time>
      </trkpt>
      <trkpt lat="41.46874" lon="-0.54745">
        <time>2022-07-31T15:11:34Z</time>
      </trkpt>
      <trkpt lat="41.46855" lon="-0.54716">
        <time>2022-07-31T15:11:35Z</time>
      </trkpt>
      <trkpt lat="41.46835" lon="-0.54687">
        <time>2022-07-31T15:11:36Z</time>
      </trkpt>
      <trkpt lat="41.46815" lon="-0.54658">
        <time>2022-07-31T15:11:37Z</time>
      </trkpt>
      <trkpt lat="41.46796" lon="-0.54628">
        <time>2022-07-31T15:11:38Z</time>
      </trkpt>
      <trkpt lat="41.46776" lon="-0.54598">
        <time>2022-07-31T15:11:39Z</time>
      </trkpt>
      <trkpt lat="41.46756" lon="-0.54568">
        <time>2022-07-31T15:11:40Z</time>
      </trkpt>
      <trkpt lat="41.46735" lon="-0.54538">
        <time>2022-07-31T15:11:41Z</time>
      </trkpt>
      <trkpt lat="41.46715" lon="-0.54507">
        <time>2022-07-31T15:11:42Z</time>
      </trkpt>
      <trkpt lat="41.46694" lon="-0.54477">
        <time>2022-07-31T15:11:43Z</time>
      </trkpt>
      <trkpt lat="41.46674" lon="-0.54446">
        <time>2022-07-31T15:11:44Z</time>
      </trkpt>
      <trkpt lat="41.46655" lon="-0.54414">
        <time>2022-07-31T15:11:45Z</time>
      </trkpt>
      <trkpt lat="41.46636" lon="-0.54383">
        <time>2022-07-31T15:11:46Z</time>
      </trkpt>
      <trkpt lat="41.46617" lon="-0.54351">
        <time>2022-07-31T15:11:47Z</time>
      </trkpt>
      <trkpt lat="41.46599" lon="-0.54319">
        <time>2022-07-31T15:11:48Z</time>
      </trkpt>
      <trkpt lat="41.46581" lon="-0.54288">
        <time>2022-07-31T15:11:49Z</time>
      </trkpt>
      <trkpt lat="41.46562" lon="-0.54257">
        <time>2022-07-31T15:11:50Z</time>
      </trkpt>
      <trkpt lat="41.46545" lon="-0.54227">
        <time>2022-07-31T15:11:51Z</time>
      </trkpt>
      <trkpt lat="41.46528" lon="-0.54196">
        <time>2022-07-31T15:11:52Z</time>
      </trkpt>
      <trkpt lat="41.46512" lon="-0.54167">
        <time>2022-07-31T15:11:53Z</time>
      </trkpt>
      <trkpt lat="41.46496" lon="-0.54139">
        <time>2022-07-31T15:11:54Z</time>
      </trkpt>
      <trkpt lat="41.4648" lon="-0.5411">
        <time>2022-07-31T15:11:55Z</time>
      </trkpt>
      <trkpt lat="41.46464" lon="-0.54083">
        <time>2022-07-31T15:11:56Z</time>
      </trkpt>
      <trkpt lat="41.46446" lon="-0.54058">
        <time>2022-07-31T15:11:57Z</time>
      </trkpt>
      <trkpt lat="41.46425" lon="-0.54035">
        <time>2022-07-31T15:11:58Z</time>
      </trkpt>
      <trkpt lat="41.46403" lon="-0.54014">
        <time>2022-07-31T15:11:59Z</time>
      </trkpt>
      <trkpt lat="41.46379" lon="-0.53996">
        <time>2022-07-31T15:12:00Z</time>
      </trkpt>
      <trkpt lat="41.46354" lon="-0.5398">
        <time>2022-07-31T15:12:01Z</time>
      </trkpt>
      <trkpt lat="41.46328" lon="-0.53963">
        <time>2022-07-31T15:12:02Z</time>
      </trkpt>
      <trkpt lat="41.46303" lon="-0.53945">
        <time>2022-07-31T15:12:03Z</time>
      </trkpt>
      <trkpt lat="41.46277" lon="-0.53928">
        <time>2022-07-31T15:12:04Z</time>
      </trkpt>
      <trkpt lat="41.46251" lon="-0.5391">
        <time>2022-07-31T15:12:05Z</time>
      </trkpt>
      <trkpt lat="41.46224" lon="-0.53892">
        <time>2022-07-31T15:12:06Z</time>
      </trkpt>
      <trkpt lat="41.46198" lon="-0.53874">
        <time>2022-07-31T15:12:07Z</time>
      </trkpt>
      <trkpt lat="41.46171" lon="-0.53856">
        <time>2022-07-31T15:12:08Z</time>
      </trkpt>
      <trkpt lat="41.46145" lon="-0.53838">
        <time>2022-07-31T15:12:09Z</time>
      </trkpt>
      <trkpt lat="41.46118" lon="-0.53821">
        <time>2022-07-31T15:12:10Z</time>
      </trkpt>
      <trkpt lat="41.46092" lon="-0.53803">
        <time>2022-07-31T15:12:11Z</time>
      </trkpt>
      <trkpt lat="41.46066" lon="-0.53786">
        <time>2022-07-31T15:12:12Z</time>
      </trkpt>
      <trkpt lat="41.46039" lon="-0.53768">
        <time>2022-07-31T15:12:13Z</time>
      </trkpt>
      <trkpt lat="41.46013" lon="-0.53751">
        <time>2022-07-31T15:12:14Z</time>
      </trkpt>
      <trkpt lat="41.45987" lon="-0.53734">
        <time>2022-07-31T15:12:15Z</time>
      </trkpt>
      <trkpt lat="41.45961" lon="-0.53716">
        <time>2022-07-31T15:12:16Z</time>
      </trkpt>
      <trkpt lat="41.45936" lon="-0.53699">
        <time>2022-07-31T15:12:17Z</time>
      </trkpt>
      <trkpt lat="41.4591" lon="-0.53683">
        <time>2022-07-31T15:12:18Z</time>
      </trkpt>
      <trkpt lat="41.45884" lon="-0.53665">
        <time>2022-07-31T15:12:19Z</time>
      </trkpt>
      <trkpt lat="41.45859" lon="-0.53649">
        <time>2022-07-31T15:12:20Z</time>
      </trkpt>
      <trkpt lat="41.45833" lon="-0.53632">
        <time>2022-07-31T15:12:21Z</time>
      </trkpt>
      <trkpt lat="41.45807" lon="-0.53615">
        <time>2022-07-31T15:12:22Z</time>
      </trkpt>
      <trkpt lat="41.4578" lon="-0.53598">
        <time>2022-07-31T15:12:23Z</time>
      </trkpt>
      <trkpt lat="41.45754" lon="-0.53584">
        <time>2022-07-31T15:12:24Z</time>
      </trkpt>
      <trkpt lat="41.45727" lon="-0.5357">
        <time>2022-07-31T15:12:25Z</time>
      </trkpt>
      <trkpt lat="41.45699" lon="-0.53557">
        <time>2022-07-31T15:12:26Z</time>
      </trkpt>
      <trkpt lat="41.45671" lon="-0.53544">
        <time>2022-07-31T15:12:27Z</time>
      </trkpt>
      <trkpt lat="41.45643" lon="-0.53531">
        <time>2022-07-31T15:12:28Z</time>
      </trkpt>
      <trkpt lat="41.45615" lon="-0.53519">
        <time>2022-07-31T15:12:29Z</time>
      </trkpt>
      <trkpt lat="41.45586" lon="-0.53506">
        <time>2022-07-31T15:12:30Z</time>
      </trkpt>
      <trkpt lat="41.45558" lon="-0.53492">
        <time>2022-07-31T15:12:31Z</time>
      </trkpt>
      <trkpt lat="41.4553" lon="-0.53477">
        <time>2022-07-31T15:12:32Z</time>
      </trkpt>
      <trkpt lat="41.45502" lon="-0.53461">
        <time>2022-07-31T15:12:33Z</time>
      </trkpt>
      <trkpt lat="41.45474" lon="-0.53444">
        <time>2022-07-31T15:12:34Z</time>
      </trkpt>
      <trkpt lat="41.45447" lon="-0.53426">
        <time>2022-07-31T15:12:35Z</time>
      </trkpt>
      <trkpt lat="41.45419" lon="-0.53407">
        <time>2022-07-31T15:12:36Z</time>
      </trkpt>
      <trkpt lat="41.45392" lon="-0.53387">
        <time>2022-07-31T15:12:37Z</time>
      </trkpt>
      <trkpt lat="41.45365" lon="-0.53366">
        <time>2022-07-31T15:12:38Z</time>
      </trkpt>
      <trkpt lat="41.45339" lon="-0.53343">
        <time>2022-07-31T15:12:39Z</time>
      </trkpt>
      <trkpt lat="41.45313" lon="-0.53319">
        <time>2022-07-31T15:12:40Z</time>
      </trkpt>
      <trkpt lat="41.45287" lon="-0.53294">
        <time>2022-07-31T15:12:41Z</time>
      </trkpt>
      <trkpt lat="41.45263" lon="-0.53267">
        <time>2022-07-31T15:12:42Z</time>
      </trkpt>
      <trkpt lat="41.45238" lon="-0.53241">
        <time>2022-07-31T15:12:43Z</time>
      </trkpt>
      <trkpt lat="41.45214" lon="-0.53214">
        <time>2022-07-31T15:12:44Z</time>
      </trkpt>
      <trkpt lat="41.45192" lon="-0.53186">
        <time>2022-07-31T15:12:45Z</time>
      </trkpt>
      <trkpt lat="41.4517" lon="-0.53158">
        <time>2022-07-31T15:12:46Z</time>
      </trkpt>
      <trkpt lat="41.45148" lon="-0.53129">
        <time>2022-07-31T15:12:47Z</time>
      </trkpt>
      <trkpt lat="41.45128" lon="-0.53098">
        <time>2022-07-31T15:12:48Z</time>
      </trkpt>
      <trkpt lat="41.45109" lon="-0.53067">
        <time>2022-07-31T15:12:49Z</time>
      </trkpt>
      <trkpt lat="41.4509" lon="-0.53036">
        <time>2022-07-31T15:12:50Z</time>
      </trkpt>
      <trkpt lat="41.45072" lon="-0.53004">
        <time>2022-07-31T15:12:51Z</time>
      </trkpt>
      <trkpt lat="41.45054" lon="-0.52972">
        <time>2022-07-31T15:12:52Z</time>
      </trkpt>
      <trkpt lat="41.45036" lon="-0.52939">
        <time>2022-07-31T15:12:53Z</time>
      </trkpt>
      <trkpt lat="41.45017" lon="-0.52907">
        <time>2022-07-31T15:12:54Z</time>
      </trkpt>
      <trkpt lat="41.44998" lon="-0.52874">
        <time>2022-07-31T15:12:55Z</time>
      </trkpt>
      <trkpt lat="41.44979" lon="-0.52841">
        <time>2022-07-31T15:12:56Z</time>
      </trkpt>
      <trkpt lat="41.4496" lon="-0.52808">
        <time>2022-07-31T15:12:57Z</time>
      </trkpt>
      <trkpt lat="41.4494" lon="-0.52774">
        <time>2022-07-31T15:12:58Z</time>
      </trkpt>
      <trkpt lat="41.44922" lon="-0.5274">
        <time>2022-07-31T15:12:59Z</time>
      </trkpt>
      <trkpt lat="41.44903" lon="-0.52707">
        <time>2022-07-31T15:13:00Z</time>
      </trkpt>
      <trkpt lat="41.44883" lon="-0.52673">
        <time>2022-07-31T15:13:01Z</time>
      </trkpt>
      <trkpt lat="41.44864" lon="-0.52639">
        <time>2022-07-31T15:13:02Z</time>
      </trkpt>
      <trkpt lat="41.44845" lon="-0.52606">
        <time>2022-07-31T15:13:03Z</time>
      </trkpt>
      <trkpt lat="41.44825" lon="-0.52572">
        <time>2022-07-31T15:13:04Z</time>
      </trkpt>
      <trkpt lat="41.44807" lon="-0.52538">
        <time>2022-07-31T15:13:05Z</time>
      </trkpt>
      <trkpt lat="41.44788" lon="-0.52505">
        <time>2022-07-31T15:13:06Z</time>
      </trkpt>
      <trkpt lat="41.44769" lon="-0.52472">
        <time>2022-07-31T15:13:07Z</time>
      </trkpt>
      <trkpt lat="41.4475" lon="-0.52438">
        <time>2022-07-31T15:13:08Z</time>
      </trkpt>
      <trkpt lat="41.4473" lon="-0.52404">
        <time>2022-07-31T15:13:09Z</time>
      </trkpt>
      <trkpt lat="41.4471" lon="-0.52369">
        <time>2022-07-31T15:13:10Z</time>
      </trkpt>
      <trkpt lat="41.44689" lon="-0.52334">
        <time>2022-07-31T15:13:11Z</time>
      </trkpt>
      <trkpt lat="41.44667" lon="-0.52297">
        <time>2022-07-31T15:13:12Z</time>
      </trkpt>
      <trkpt lat="41.44645" lon="-0.5226">
        <time>2022-07-31T15:13:13Z</time>
      </trkpt>
      <trkpt lat="41.44624" lon="-0.52222">
        <time>2022-07-31T15:13:14Z</time>
      </trkpt>
      <trkpt lat="41.44602" lon="-0.52185">
        <time>2022-07-31T15:13:15Z</time>
      </trkpt>
      <trkpt lat="41.44582" lon="-0.52147">
        <time>2022-07-31T15:13:16Z</time>
      </trkpt>
      <trkpt lat="41.44561" lon="-0.52109">
        <time>2022-07-31T15:13:17Z</time>
      </trkpt>
      <trkpt lat="41.4454" lon="-0.52072">
        <time>2022-07-31T15:13:18Z</time>
      </trkpt>
      <trkpt lat="41.44519" lon="-0.52036">
        <time>2022-07-31T15:13:19Z</time>
      </trkpt>
      <trkpt lat="41.44499" lon="-0.52001">
        <time>2022-07-31T15:13:20Z</time>
      </trkpt>
      <trkpt lat="41.44478" lon="-0.51966">
        <time>2022-07-31T15:13:21Z</time>
      </trkpt>
      <trkpt lat="41.44457" lon="-0.51931">
        <time>2022-07-31T15:13:22Z</time>
      </trkpt>
      <trkpt lat="41.44437" lon="-0.51897">
        <time>2022-07-31T15:13:23Z</time>
      </trkpt>
      <trkpt lat="41.44417" lon="-0.51862">
        <time>2022-07-31T15:13:24Z</time>
      </trkpt>
      <trkpt lat="41.44397" lon="-0.51828">
        <time>2022-07-31T15:13:25Z</time>
      </trkpt>
      <trkpt lat="41.44377" lon="-0.51793">
        <time>2022-07-31T15:13:26Z</time>
      </trkpt>
      <trkpt lat="41.44357" lon="-0.51759">
        <time>2022-07-31T15:13:27Z</time>
      </trkpt>
      <trkpt lat="41.44337" lon="-0.51726">
        <time>2022-07-31T15:13:28Z</time>
      </trkpt>
      <trkpt lat="41.44318" lon="-0.51692">
        <time>2022-07-31T15:13:29Z</time>
      </trkpt>
      <trkpt lat="41.44298" lon="-0.51659">
        <time>2022-07-31T15:13:30Z</time>
      </trkpt>
      <trkpt lat="41.44278" lon="-0.51626">
        <time>2022-07-31T15:13:31Z</time>
      </trkpt>
      <trkpt lat="41.44259" lon="-0.51593">
        <time>2022-07-31T15:13:32Z</time>
      </trkpt>
      <trkpt lat="41.44239" lon="-0.5156">
        <time>2022-07-31T15:13:33Z</time>
      </trkpt>
      <trkpt lat="41.4422" lon="-0.51528">
        <time>2022-07-31T15:13:34Z</time>
      </trkpt>
      <trkpt lat="41.44202" lon="-0.51496">
        <time>2022-07-31T15:13:35Z</time>
      </trkpt>
      <trkpt lat="41.44184" lon="-0.51464">
        <time>2022-07-31T15:13:36Z</time>
      </trkpt>
      <trkpt lat="41.44165" lon="-0.51432">
        <time>2022-07-31T15:13:37Z</time>
      </trkpt>
      <trkpt lat="41.44147" lon="-0.514">
        <time>2022-07-31T15:13:38Z</time>
      </trkpt>
      <trkpt lat="41.44128" lon="-0.5137">
        <time>2022-07-31T15:13:39Z</time>
      </trkpt>
      <trkpt lat="41.4411" lon="-0.5134">
        <time>2022-07-31T15:13:40Z</time>
      </trkpt>
      <trkpt lat="41.44091" lon="-0.51311">
        <time>2022-07-31T15:13:41Z</time>
      </trkpt>
      <trkpt lat="41.44071" lon="-0.51283">
        <time>2022-07-31T15:13:42Z</time>
      </trkpt>
      <trkpt lat="41.4405" lon="-0.51256">
        <time>2022-07-31T15:13:43Z</time>
      </trkpt>
      <trkpt lat="41.44027" lon="-0.51232">
        <time>2022-07-31T15:13:44Z</time>
      </trkpt>
      <trkpt lat="41.44004" lon="-0.51208">
        <time>2022-07-31T15:13:45Z</time>
      </trkpt>
      <trkpt lat="41.43981" lon="-0.51183">
        <time>2022-07-31T15:13:46Z</time>
      </trkpt>
      <trkpt lat="41.43957" lon="-0.51159">
        <time>2022-07-31T15:13:47Z</time>
      </trkpt>
      <trkpt lat="41.43934" lon="-0.51134">
        <time>2022-07-31T15:13:48Z</time>
      </trkpt>
      <trkpt lat="41.43911" lon="-0.5111">
        <time>2022-07-31T15:13:49Z</time>
      </trkpt>
      <trkpt lat="41.43888" lon="-0.51086">
        <time>2022-07-31T15:13:50Z</time>
      </trkpt>
      <trkpt lat="41.43866" lon="-0.51062">
        <time>2022-07-31T15:13:51Z</time>
      </trkpt>
      <trkpt lat="41.43843" lon="-0.51038">
        <time>2022-07-31T15:13:52Z</time>
      </trkpt>
      <trkpt lat="41.43821" lon="-0.51014">
        <time>2022-07-31T15:13:53Z</time>
      </trkpt>
      <trkpt lat="41.43799" lon="-0.50991">
        <time>2022-07-31T15:13:54Z</time>
      </trkpt>
      <trkpt lat="41.43777" lon="-0.50968">
        <time>2022-07-31T15:13:55Z</time>
      </trkpt>
      <trkpt lat="41.43755" lon="-0.50944">
        <time>2022-07-31T15:13:56Z</time>
      </trkpt>
      <trkpt lat="41.43734" lon="-0.50922">
        <time>2022-07-31T15:13:57Z</time>
      </trkpt>
      <trkpt lat="41.43713" lon="-0.509">
        <time>2022-07-31T15:13:58Z</time>
      </trkpt>
      <trkpt lat="41.43693" lon="-0.50879">
        <time>2022-07-31T15:13:59Z</time>
      </trkpt>
      <trkpt lat="41.43673" lon="-0.50858">
        <time>2022-07-31T15:14:00Z</time>
      </trkpt>
      <trkpt lat="41.43654" lon="-0.50837">
        <time>2022-07-31T15:14:01Z</time>
      </trkpt>
      <trkpt lat="41.43635" lon="-0.50816">
        <time>2022-07-31T15:14:02Z</time>
      </trkpt>
      <trkpt lat="41.43616" lon="-0.50795">
        <time>2022-07-31T15:14:03Z</time>
      </trkpt>
      <trkpt lat="41.43597" lon="-0.50775">
        <time>2022-07-31T15:14:04Z</time>
      </trkpt>
      <trkpt lat="41.43578" lon="-0.50756">
        <time>2022-07-31T15:14:05Z</time>
      </trkpt>
      <trkpt lat="41.43558" lon="-0.50735">
        <time>2022-07-31T15:14:06Z</time>
      </trkpt>
      <trkpt lat="41.43539" lon="-0.50715">
        <time>2022-07-31T15:14:07Z</time>
      </trkpt>
      <trkpt lat="41.4352" lon="-0.50695">
        <time>2022-07-31T15:14:08Z</time>
      </trkpt>
      <trkpt lat="41.43501" lon="-0.50675">
        <time>2022-07-31T15:14:09Z</time>
      </trkpt>
      <trkpt lat="41.43482" lon="-0.50655">
        <time>2022-07-31T15:14:10Z</time>
      </trkpt>
      <trkpt lat="41.43464" lon="-0.50635">
        <time>2022-07-31T15:14:11Z</time>
      </trkpt>
      <trkpt lat="41.43446" lon="-0.50616">
        <time>2022-07-31T15:14:12Z</time>
      </trkpt>
      <trkpt lat="41.43429" lon="-0.50598">
        <time>2022-07-31T15:14:13Z</time>
      </trkpt>
      <trkpt lat="41.43412" lon="-0.5058">
        <time>2022-07-31T15:14:14Z</time>
      </trkpt>
      <trkpt lat="41.43396" lon="-0.50562">
        <time>2022-07-31T15:14:15Z</time>
      </trkpt>
      <trkpt lat="41.43379" lon="-0.50545">
        <time>2022-07-31T15:14:16Z</time>
      </trkpt>
      <trkpt lat="41.43363" lon="-0.50527">
        <time>2022-07-31T15:14:17Z</time>
      </trkpt>
      <trkpt lat="41.43346" lon="-0.50509">
        <time>2022-07-31T15:14:18Z</time>
      </trkpt>
      <trkpt lat="41.43329" lon="-0.50491">
        <time>2022-07-31T15:14:19Z</time>
      </trkpt>
      <trkpt lat="41.43313" lon="-0.50474">
        <time>2022-07-31T15:14:20Z</time>
      </trkpt>
      <trkpt lat="41.43297" lon="-0.50457">
        <time>2022-07-31T15:14:21Z</time>
      </trkpt>
      <trkpt lat="41.4328" lon="-0.5044">
        <time>2022-07-31T15:14:22Z</time>
      </trkpt>
      <trkpt lat="41.43264" lon="-0.50422">
        <time>2022-07-31T15:14:23Z</time>
      </trkpt>
      <trkpt lat="41.43248" lon="-0.50405">
        <time>2022-07-31T15:14:24Z</time>
      </trkpt>
      <trkpt lat="41.43232" lon="-0.50389">
        <time>2022-07-31T15:14:25Z</time>
      </trkpt>
      <trkpt lat="41.43217" lon="-0.50372">
        <time>2022-07-31T15:14:26Z</time>
      </trkpt>
      <trkpt lat="41.43201" lon="-0.50356">
        <time>2022-07-31T15:14:27Z</time>
      </trkpt>
      <trkpt lat="41.43187" lon="-0.5034">
        <time>2022-07-31T15:14:28Z</time>
      </trkpt>
      <trkpt lat="41.43171" lon="-0.50324">
        <time>2022-07-31T15:14:29Z</time>
      </trkpt>
      <trkpt lat="41.43157" lon="-0.50308">
        <time>2022-07-31T15:14:30Z</time>
      </trkpt>
      <trkpt lat="41.43143" lon="-0.50293">
        <time>2022-07-31T15:14:31Z</time>
      </trkpt>
      <trkpt lat="41.43129" lon="-0.50278">
        <time>2022-07-31T15:14:32Z</time>
      </trkpt>
      <trkpt lat="41.43116" lon="-0.50263">
        <time>2022-07-31T15:14:33Z</time>
      </trkpt>
      <trkpt lat="41.43104" lon="-0.50247">
        <time>2022-07-31T15:14:34Z</time>
      </trkpt>
      <trkpt lat="41.43092" lon="-0.50232">
        <time>2022-07-31T15:14:35Z</time>
      </trkpt>
      <trkpt lat="41.43081" lon="-0.50216">
        <time>2022-07-31T15:14:36Z</time>
      </trkpt>
      <trkpt lat="41.43069" lon="-0.50201">
        <time>2022-07-31T15:14:37Z</time>
      </trkpt>
      <trkpt lat="41.43058" lon="-0.50185">
        <time>2022-07-31T15:14:38Z</time>
      </trkpt>
      <trkpt lat="41.43046" lon="-0.5017">
        <time>2022-07-31T15:14:39Z</time>
      </trkpt>
      <trkpt lat="41.43035" lon="-0.50155">
        <time>2022-07-31T15:14:40Z</time>
      </trkpt>
      <trkpt lat="41.43023" lon="-0.50139">
        <time>2022-07-31T15:14:41Z</time>
      </trkpt>
      <trkpt lat="41.43012" lon="-0.50123">
        <time>2022-07-31T15:14:42Z</time>
      </trkpt>
      <trkpt lat="41.43001" lon="-0.50109">
        <time>2022-07-31T15:14:43Z</time>
      </trkpt>
      <trkpt lat="41.4299" lon="-0.50094">
        <time>2022-07-31T15:14:44Z</time>
      </trkpt>
      <trkpt lat="41.42977" lon="-0.5008">
        <time>2022-07-31T15:14:45Z</time>
      </trkpt>
      <trkpt lat="41.42965" lon="-0.50066">
        <time>2022-07-31T15:14:46Z</time>
      </trkpt>
      <trkpt lat="41.42952" lon="-0.50052">
        <time>2022-07-31T15:14:47Z</time>
      </trkpt>
      <trkpt lat="41.4294" lon="-0.50038">
        <time>2022-07-31T15:14:48Z</time>
      </trkpt>
      <trkpt lat="41.42927" lon="-0.50025">
        <time>2022-07-31T15:14:49Z</time>
      </trkpt>
      <trkpt lat="41.42914" lon="-0.50013">
        <time>2022-07-31T15:14:50Z</time>
      </trkpt>
      <trkpt lat="41.42901" lon="-0.50001">
        <time>2022-07-31T15:14:51Z</time>
      </trkpt>
      <trkpt lat="41.42887" lon="-0.49989">
        <time>2022-07-31T15:14:52Z</time>
      </trkpt>
      <trkpt lat="41.42873" lon="-0.49977">
        <time>2022-07-31T15:14:53Z</time>
      </trkpt>
      <trkpt lat="41.42859" lon="-0.49965">
        <time>2022-07-31T15:14:54Z</time>
      </trkpt>
      <trkpt lat="41.42845" lon="-0.49953">
        <time>2022-07-31T15:14:55Z</time>
      </trkpt>
      <trkpt lat="41.42831" lon="-0.49941">
        <time>2022-07-31T15:14:56Z</time>
      </trkpt>
      <trkpt lat="41.42816" lon="-0.49929">
        <time>2022-07-31T15:14:57Z</time>
      </trkpt>
      <trkpt lat="41.42802" lon="-0.49917">
        <time>2022-07-31T15:14:58Z</time>
      </trkpt>
      <trkpt lat="41.42788" lon="-0.49905">
        <time>2022-07-31T15:14:59Z</time>
      </trkpt>
      <trkpt lat="41.42775" lon="-0.49894">
        <time>2022-07-31T15:15:00Z</time>
      </trkpt>
      <trkpt lat="41.42762" lon="-0.49883">
        <time>2022-07-31T15:15:01Z</time>
      </trkpt>
      <trkpt lat="41.4275" lon="-0.49873">
        <time>2022-07-31T15:15:02Z</time>
      </trkpt>
      <trkpt lat="41.42737" lon="-0.49862">
        <time>2022-07-31T15:15:03Z</time>
      </trkpt>
      <trkpt lat="41.42724" lon="-0.49852">
        <time>2022-07-31T15:15:04Z</time>
      </trkpt>
      <trkpt lat="41.42711" lon="-0.49841">
        <time>2022-07-31T15:15:05Z</time>
      </trkpt>
      <trkpt lat="41.42698" lon="-0.4983">
        <time>2022-07-31T15:15:06Z</time>
      </trkpt>
      <trkpt lat="41.42685" lon="-0.4982">
        <time>2022-07-31T15:15:07Z</time>
      </trkpt>
      <trkpt lat="41.42673" lon="-0.49809">
        <time>2022-07-31T15:15:08Z</time>
      </trkpt>
      <trkpt lat="41.4266" lon="-0.49798">
        <time>2022-07-31T15:15:09Z</time>
      </trkpt>
      <trkpt lat="41.42648" lon="-0.49788">
        <time>2022-07-31T15:15:10Z</time>
      </trkpt>
      <trkpt lat="41.42636" lon="-0.49777">
        <time>2022-07-31T15:15:11Z</time>
      </trkpt>
      <trkpt lat="41.42624" lon="-0.49768">
        <time>2022-07-31T15:15:12Z</time>
      </trkpt>
      <trkpt lat="41.42613" lon="-0.49759">
        <time>2022-07-31T15:15:13Z</time>
      </trkpt>
      <trkpt lat="41.42603" lon="-0.49751">
        <time>2022-07-31T15:15:14Z</time>
      </trkpt>
      <trkpt lat="41.42594" lon="-0.49743">
        <time>2022-07-31T15:15:15Z</time>
      </trkpt>
      <trkpt lat="41.42584" lon="-0.49736">
        <time>2022-07-31T15:15:16Z</time>
      </trkpt>
      <trkpt lat="41.42575" lon="-0.49728">
        <time>2022-07-31T15:15:17Z</time>
      </trkpt>
      <trkpt lat="41.42567" lon="-0.49721">
        <time>2022-07-31T15:15:18Z</time>
      </trkpt>
      <trkpt lat="41.42558" lon="-0.49713">
        <time>2022-07-31T15:15:19Z</time>
      </trkpt>
      <trkpt lat="41.42549" lon="-0.49705">
        <time>2022-07-31T15:15:20Z</time>
      </trkpt>
      <trkpt lat="41.4254" lon="-0.49699">
        <time>2022-07-31T15:15:21Z</time>
      </trkpt>
      <trkpt lat="41.42532" lon="-0.49691">
        <time>2022-07-31T15:15:22Z</time>
      </trkpt>
      <trkpt lat="41.42524" lon="-0.49683">
        <time>2022-07-31T15:15:23Z</time>
      </trkpt>
      <trkpt lat="41.42516" lon="-0.49676">
        <time>2022-07-31T15:15:24Z</time>
      </trkpt>
      <trkpt lat="41.42508" lon="-0.4967">
        <time>2022-07-31T15:15:25Z</time>
      </trkpt>
      <trkpt lat="41.425" lon="-0.49663">
        <time>2022-07-31T15:15:26Z</time>
      </trkpt>
      <trkpt lat="41.42493" lon="-0.49657">
        <time>2022-07-31T15:15:27Z</time>
      </trkpt>
      <trkpt lat="41.42485" lon="-0.49651">
        <time>2022-07-31T15:15:28Z</time>
      </trkpt>
      <trkpt lat="41.42477" lon="-0.49644">
        <time>2022-07-31T15:15:29Z</time>
      </trkpt>
      <trkpt lat="41.4247" lon="-0.49638">
        <time>2022-07-31T15:15:30Z</time>
      </trkpt>
      <trkpt lat="41.42462" lon="-0.49632">
        <time>2022-07-31T15:15:31Z</time>
      </trkpt>
      <trkpt lat="41.42455" lon="-0.49626">
        <time>2022-07-31T15:15:32Z</time>
      </trkpt>
      <trkpt lat="41.42448" lon="-0.4962">
        <time>2022-07-31T15:15:33Z</time>
      </trkpt>
      <trkpt lat="41.42441" lon="-0.49614">
        <time>2022-07-31T15:15:34Z</time>
      </trkpt>
      <trkpt lat="41.42434" lon="-0.49609">
        <time>2022-07-31T15:15:35Z</time>
      </trkpt>
      <trkpt lat="41.42427" lon="-0.49603">
        <time>2022-07-31T15:15:36Z</time>
      </trkpt>
      <trkpt lat="41.4242" lon="-0.49597">
        <time>2022-07-31T15:15:37Z</time>
      </trkpt>
      <trkpt lat="41.42413" lon="-0.4959">
        <time>2022-07-31T15:15:38Z</time>
      </trkpt>
      <trkpt lat="41.42405" lon="-0.49584">
        <time>2022-07-31T15:15:39Z</time>
      </trkpt>
      <trkpt lat="41.42399" lon="-0.49578">
        <time>2022-07-31T15:15:40Z</time>
      </trkpt>
      <trkpt lat="41.42392" lon="-0.49573">
        <time>2022-07-31T15:15:41Z</time>
      </trkpt>
      <trkpt lat="41.42385" lon="-0.49568">
        <time>2022-07-31T15:15:42Z</time>
      </trkpt>
      <trkpt lat="41.42378" lon="-0.49562">
        <time>2022-07-31T15:15:43Z</time>
      </trkpt>
      <trkpt lat="41.4237" lon="-0.49559">
        <time>2022-07-31T15:15:44Z</time>
      </trkpt>
      <trkpt lat="41.42361" lon="-0.49557">
        <time>2022-07-31T15:15:45Z</time>
      </trkpt>
      <trkpt lat="41.42353" lon="-0.49555">
        <time>2022-07-31T15:15:46Z</time>
      </trkpt>
      <trkpt lat="41.42344" lon="-0.49554">
        <time>2022-07-31T15:15:47Z</time>
      </trkpt>
      <trkpt lat="41.42335" lon="-0.49554">
        <time>2022-07-31T15:15:48Z</time>
      </trkpt>
      <trkpt lat="41.42326" lon="-0.49553">
        <time>2022-07-31T15:15:49Z</time>
      </trkpt>
      <trkpt lat="41.42317" lon="-0.49553">
        <time>2022-07-31T15:15:50Z</time>
      </trkpt>
      <trkpt lat="41.42308" lon="-0.49552">
        <time>2022-07-31T15:15:51Z</time>
      </trkpt>
      <trkpt lat="41.42298" lon="-0.49552">
        <time>2022-07-31T15:15:52Z</time>
      </trkpt>
      <trkpt lat="41.42287" lon="-0.49551">
        <time>2022-07-31T15:15:53Z</time>
      </trkpt>
      <trkpt lat="41.42274" lon="-0.49549">
        <time>2022-07-31T15:15:54Z</time>
      </trkpt>
      <trkpt lat="41.42259" lon="-0.49549">
        <time>2022-07-31T15:15:55Z</time>
      </trkpt>
      <trkpt lat="41.42243" lon="-0.4955">
        <time>2022-07-31T15:15:56Z</time>
      </trkpt>
      <trkpt lat="41.42228" lon="-0.4955">
        <time>2022-07-31T15:15:57Z</time>
      </trkpt>
      <trkpt lat="41.42212" lon="-0.4955">
        <time>2022-07-31T15:15:58Z</time>
      </trkpt>
      <trkpt lat="41.42196" lon="-0.4955">
        <time>2022-07-31T15:15:59Z</time>
      </trkpt>
      <trkpt lat="41.42181" lon="-0.4955">
        <time>2022-07-31T15:16:00Z</time>
      </trkpt>
      <trkpt lat="41.42166" lon="-0.49548">
        <time>2022-07-31T15:16:01Z</time>
      </trkpt>
      <trkpt lat="41.42151" lon="-0.49548">
        <time>2022-07-31T15:16:02Z</time>
      </trkpt>
      <trkpt lat="41.42136" lon="-0.49549">
        <time>2022-07-31T15:16:03Z</time>
      </trkpt>
      <trkpt lat="41.42122" lon="-0.49549">
        <time>2022-07-31T15:16:04Z</time>
      </trkpt>
      <trkpt lat="41.42107" lon="-0.49548">
        <time>2022-07-31T15:16:05Z</time>
      </trkpt>
      <trkpt lat="41.42093" lon="-0.49547">
        <time>2022-07-31T15:16:06Z</time>
      </trkpt>
      <trkpt lat="41.42078" lon="-0.49544">
        <time>2022-07-31T15:16:07Z</time>
      </trkpt>
      <trkpt lat="41.42064" lon="-0.4954">
        <time>2022-07-31T15:16:08Z</time>
      </trkpt>
      <trkpt lat="41.42051" lon="-0.49534">
        <time>2022-07-31T15:16:09Z</time>
      </trkpt>
      <trkpt lat="41.42038" lon="-0.49528">
        <time>2022-07-31T15:16:10Z</time>
      </trkpt>
      <trkpt lat="41.42024" lon="-0.49522">
        <time>2022-07-31T15:16:11Z</time>
      </trkpt>
      <trkpt lat="41.42011" lon="-0.49515">
        <time>2022-07-31T15:16:12Z</time>
      </trkpt>
      <trkpt lat="41.41996" lon="-0.49507">
        <time>2022-07-31T15:16:13Z</time>
      </trkpt>
      <trkpt lat="41.41983" lon="-0.495">
        <time>2022-07-31T15:16:14Z</time>
      </trkpt>
      <trkpt lat="41.41969" lon="-0.49493">
        <time>2022-07-31T15:16:15Z</time>
      </trkpt>
      <trkpt lat="41.41954" lon="-0.49487">
        <time>2022-07-31T15:16:16Z</time>
      </trkpt>
      <trkpt lat="41.4194" lon="-0.4948">
        <time>2022-07-31T15:16:17Z</time>
      </trkpt>
      <trkpt lat="41.41925" lon="-0.49473">
        <time>2022-07-31T15:16:18Z</time>
      </trkpt>
      <trkpt lat="41.4191" lon="-0.49466">
        <time>2022-07-31T15:16:19Z</time>
      </trkpt>
      <trkpt lat="41.41895" lon="-0.49458">
        <time>2022-07-31T15:16:20Z</time>
      </trkpt>
      <trkpt lat="41.4188" lon="-0.49451">
        <time>2022-07-31T15:16:21Z</time>
      </trkpt>
      <trkpt lat="41.41866" lon="-0.49444">
        <time>2022-07-31T15:16:22Z</time>
      </trkpt>
      <trkpt lat="41.4185" lon="-0.49435">
        <time>2022-07-31T15:16:23Z</time>
      </trkpt>
      <trkpt lat="41.41834" lon="-0.49427">
        <time>2022-07-31T15:16:24Z</time>
      </trkpt>
      <trkpt lat="41.41816" lon="-0.49419">
        <time>2022-07-31T15:16:25Z</time>
      </trkpt>
      <trkpt lat="41.41798" lon="-0.4941">
        <time>2022-07-31T15:16:26Z</time>
      </trkpt>
      <trkpt lat="41.41778" lon="-0.49401">
        <time>2022-07-31T15:16:27Z</time>
      </trkpt>
      <trkpt lat="41.41758" lon="-0.49391">
        <time>2022-07-31T15:16:28Z</time>
      </trkpt>
      <trkpt lat="41.41737" lon="-0.4938">
        <time>2022-07-31T15:16:29Z</time>
      </trkpt>
      <trkpt lat="41.41714" lon="-0.49368">
        <time>2022-07-31T15:16:30Z</time>
      </trkpt>
      <trkpt lat="41.41691" lon="-0.49357">
        <time>2022-07-31T15:16:31Z</time>
      </trkpt>
      <trkpt lat="41.41668" lon="-0.49347">
        <time>2022-07-31T15:16:32Z</time>
      </trkpt>
      <trkpt lat="41.41644" lon="-0.49337">
        <time>2022-07-31T15:16:33Z</time>
      </trkpt>
      <trkpt lat="41.41621" lon="-0.49328">
        <time>2022-07-31T15:16:34Z</time>
      </trkpt>
      <trkpt lat="41.41598" lon="-0.49322">
        <time>2022-07-31T15:16:35Z</time>
      </trkpt>
      <trkpt lat="41.41574" lon="-0.4932">
        <time>2022-07-31T15:16:36Z</time>
      </trkpt>
      <trkpt lat="41.41551" lon="-0.49323">
        <time>2022-07-31T15:16:37Z</time>
      </trkpt>
      <trkpt lat="41.41528" lon="-0.49329">
        <time>2022-07-31T15:16:38Z</time>
      </trkpt>
      <trkpt lat="41.41506" lon="-0.49338">
        <time>2022-07-31T15:16:39Z</time>
      </trkpt>
      <trkpt lat="41.41487" lon="-0.49354">
        <time>2022-07-31T15:16:40Z</time>
      </trkpt>
      <trkpt lat="41.41468" lon="-0.49374">
        <time>2022-07-31T15:16:41Z</time>
      </trkpt>
      <trkpt lat="41.41451" lon="-0.49396">
        <time>2022-07-31T15:16:42Z</time>
      </trkpt>
      <trkpt lat="41.41436" lon="-0.49421">
        <time>2022-07-31T15:16:43Z</time>
      </trkpt>
      <trkpt lat="41.41424" lon="-0.49449">
        <time>2022-07-31T15:16:44Z</time>
      </trkpt>
      <trkpt lat="41.41414" lon="-0.49477">
        <time>2022-07-31T15:16:45Z</time>
      </trkpt>
      <trkpt lat="41.41402" lon="-0.49503">
        <time>2022-07-31T15:16:46Z</time>
      </trkpt>
      <trkpt lat="41.41389" lon="-0.49529">
        <time>2022-07-31T15:16:47Z</time>
      </trkpt>
      <trkpt lat="41.41373" lon="-0.49554">
        <time>2022-07-31T15:16:48Z</time>
      </trkpt>
      <trkpt lat="41.41356" lon="-0.49578">
        <time>2022-07-31T15:16:49Z</time>
      </trkpt>
      <trkpt lat="41.41339" lon="-0.49598">
        <time>2022-07-31T15:16:50Z</time>
      </trkpt>
      <trkpt lat="41.41322" lon="-0.49617">
        <time>2022-07-31T15:16:51Z</time>
      </trkpt>
      <trkpt lat="41.41305" lon="-0.49634">
        <time>2022-07-31T15:16:52Z</time>
      </trkpt>
      <trkpt lat="41.41286" lon="-0.49645">
        <time>2022-07-31T15:16:53Z</time>
      </trkpt>
      <trkpt lat="41.41266" lon="-0.49651">
        <time>2022-07-31T15:16:54Z</time>
      </trkpt>
      <trkpt lat="41.41247" lon="-0.49653">
        <time>2022-07-31T15:16:55Z</time>
      </trkpt>
      <trkpt lat="41.41229" lon="-0.49655">
        <time>2022-07-31T15:16:56Z</time>
      </trkpt>
      <trkpt lat="41.41211" lon="-0.49661">
        <time>2022-07-31T15:16:57Z</time>
      </trkpt>
      <trkpt lat="41.41195" lon="-0.49673">
        <time>2022-07-31T15:16:58Z</time>
      </trkpt>
      <trkpt lat="41.41178" lon="-0.49688">
        <time>2022-07-31T15:16:59Z</time>
      </trkpt>
      <trkpt lat="41.41167" lon="-0.49712">
        <time>2022-07-31T15:17:00Z</time>
      </trkpt>
      <trkpt lat="41.41155" lon="-0.49737">
        <time>2022-07-31T15:17:01Z</time>
      </trkpt>
      <trkpt lat="41.41145" lon="-0.49761">
        <time>2022-07-31T15:17:02Z</time>
      </trkpt>
      <trkpt lat="41.41133" lon="-0.49784">
        <time>2022-07-31T15:17:03Z</time>
      </trkpt>
      <trkpt lat="41.41122" lon="-0.49806">
        <time>2022-07-31T15:17:04Z</time>
      </trkpt>
      <trkpt lat="41.41108" lon="-0.49824">
        <time>2022-07-31T15:17:05Z</time>
      </trkpt>
      <trkpt lat="41.41091" lon="-0.49838">
        <time>2022-07-31T15:17:06Z</time>
      </trkpt>
      <trkpt lat="41.41072" lon="-0.49846">
        <time>2022-07-31T15:17:07Z</time>
      </trkpt>
      <trkpt lat="41.41052" lon="-0.49848">
        <time>2022-07-31T15:17:08Z</time>
      </trkpt>
      <trkpt lat="41.41031" lon="-0.49845">
        <time>2022-07-31T15:17:09Z</time>
      </trkpt>
      <trkpt lat="41.41009" lon="-0.49836">
        <time>2022-07-31T15:17:10Z</time>
      </trkpt>
      <trkpt lat="41.40987" lon="-0.49823">
        <time>2022-07-31T15:17:11Z</time>
      </trkpt>
      <trkpt lat="41.40964" lon="-0.49809">
        <time>2022-07-31T15:17:12Z</time>
      </trkpt>
      <trkpt lat="41.40942" lon="-0.49797">
        <time>2022-07-31T15:17:13Z</time>
      </trkpt>
      <trkpt lat="41.4092" lon="-0.49785">
        <time>2022-07-31T15:17:14Z</time>
      </trkpt>
      <trkpt lat="41.409" lon="-0.49775">
        <time>2022-07-31T15:17:15Z</time>
      </trkpt>
      <trkpt lat="41.4088" lon="-0.4977">
        <time>2022-07-31T15:17:16Z</time>
      </trkpt>
      <trkpt lat="41.4086" lon="-0.4977">
        <time>2022-07-31T15:17:17Z</time>
      </trkpt>
      <trkpt lat="41.40839" lon="-0.49775">
        <time>2022-07-31T15:17:18Z</time>
      </trkpt>
      <trkpt lat="41.40819" lon="-0.49785">
        <time>2022-07-31T15:17:19Z</time>
      </trkpt>
      <trkpt lat="41.40797" lon="-0.49798">
        <time>2022-07-31T15:17:20Z</time>
      </trkpt>
      <trkpt lat="41.40775" lon="-0.49813">
        <time>2022-07-31T15:17:21Z</time>
      </trkpt>
      <trkpt lat="41.40752" lon="-0.4983">
        <time>2022-07-31T15:17:22Z</time>
      </trkpt>
      <trkpt lat="41.40727" lon="-0.49847">
        <time>2022-07-31T15:17:23Z</time>
      </trkpt>
      <trkpt lat="41.40703" lon="-0.49864">
        <time>2022-07-31T15:17:24Z</time>
      </trkpt>
      <trkpt lat="41.40679" lon="-0.49881">
        <time>2022-07-31T15:17:25Z</time>
      </trkpt>
      <trkpt lat="41.40653" lon="-0.49898">
        <time>2022-07-31T15:17:26Z</time>
      </trkpt>
      <trkpt lat="41.40627" lon="-0.49916">
        <time>2022-07-31T15:17:27Z</time>
      </trkpt>
      <trkpt lat="41.40601" lon="-0.49935">
        <time>2022-07-31T15:17:28Z</time>
      </trkpt>
      <trkpt lat="41.40574" lon="-0.49954">
        <time>2022-07-31T15:17:29Z</time>
      </trkpt>
      <trkpt lat="41.40549" lon="-0.49973">
        <time>2022-07-31T15:17:30Z</time>
      </trkpt>
      <trkpt lat="41.40523" lon="-0.49991">
        <time>2022-07-31T15:17:31Z</time>
      </trkpt>
      <trkpt lat="41.40498" lon="-0.50008">
        <time>2022-07-31T15:17:32Z</time>
      </trkpt>
      <trkpt lat="41.40473" lon="-0.50025">
        <time>2022-07-31T15:17:33Z</time>
      </trkpt>
      <trkpt lat="41.40449" lon="-0.50042">
        <time>2022-07-31T15:17:34Z</time>
      </trkpt>
      <trkpt lat="41.40424" lon="-0.50058">
        <time>2022-07-31T15:17:35Z</time>
      </trkpt>
      <trkpt lat="41.40398" lon="-0.50072">
        <time>2022-07-31T15:17:36Z</time>
      </trkpt>
      <trkpt lat="41.40372" lon="-0.50084">
        <time>2022-07-31T15:17:37Z</time>
      </trkpt>
      <trkpt lat="41.40345" lon="-0.50092">
        <time>2022-07-31T15:17:38Z</time>
      </trkpt>
      <trkpt lat="41.40317" lon="-0.50098">
        <time>2022-07-31T15:17:39Z</time>
      </trkpt>
      <trkpt lat="41.40288" lon="-0.50101">
        <time>2022-07-31T15:17:40Z</time>
      </trkpt>
      <trkpt lat="41.40257" lon="-0.50102">
        <time>2022-07-31T15:17:41Z</time>
      </trkpt>
      <trkpt lat="41.40226" lon="-0.501">
        <time>2022-07-31T15:17:42Z</time>
      </trkpt>
      <trkpt lat="41.40195" lon="-0.50097">
        <time>2022-07-31T15:17:43Z</time>
      </trkpt>
      <trkpt lat="41.40163" lon="-0.50095">
        <time>2022-07-31T15:17:44Z</time>
      </trkpt>
      <trkpt lat="41.4013" lon="-0.50092">
        <time>2022-07-31T15:17:45Z</time>
      </trkpt>
      <trkpt lat="41.40098" lon="-0.50089">
        <time>2022-07-31T15:17:46Z</time>
      </trkpt>
      <trkpt lat="41.40065" lon="-0.50086">
        <time>2022-07-31T15:17:47Z</time>
      </trkpt>
      <trkpt lat="41.40032" lon="-0.50084">
        <time>2022-07-31T15:17:48Z</time>
      </trkpt>
      <trkpt lat="41.39999" lon="-0.50082">
        <time>2022-07-31T15:17:49Z</time>
      </trkpt>
      <trkpt lat="41.39967" lon="-0.5008">
        <time>2022-07-31T15:17:50Z</time>
      </trkpt>
      <trkpt lat="41.39934" lon="-0.50077">
        <time>2022-07-31T15:17:51Z</time>
      </trkpt>
      <trkpt lat="41.39901" lon="-0.50075">
        <time>2022-07-31T15:17:52Z</time>
      </trkpt>
      <trkpt lat="41.39868" lon="-0.50073">
        <time>2022-07-31T15:17:53Z</time>
      </trkpt>
      <trkpt lat="41.39836" lon="-0.5007">
        <time>2022-07-31T15:17:54Z</time>
      </trkpt>
      <trkpt lat="41.39803" lon="-0.50068">
        <time>2022-07-31T15:17:55Z</time>
      </trkpt>
      <trkpt lat="41.39772" lon="-0.50067">
        <time>2022-07-31T15:17:56Z</time>
      </trkpt>
      <trkpt lat="41.3974" lon="-0.50065">
        <time>2022-07-31T15:17:57Z</time>
      </trkpt>
      <trkpt lat="41.39707" lon="-0.50062">
        <time>2022-07-31T15:17:58Z</time>
      </trkpt>
      <trkpt lat="41.39675" lon="-0.5006">
        <time>2022-07-31T15:17:59Z</time>
      </trkpt>
      <trkpt lat="41.39643" lon="-0.50058">
        <time>2022-07-31T15:18:00Z</time>
      </trkpt>
      <trkpt lat="41.3961" lon="-0.50055">
        <time>2022-07-31T15:18:01Z</time>
      </trkpt>
      <trkpt lat="41.39578" lon="-0.50053">
        <time>2022-07-31T15:18:02Z</time>
      </trkpt>
      <trkpt lat="41.39545" lon="-0.5005">
        <time>2022-07-31T15:18:03Z</time>
      </trkpt>
      <trkpt lat="41.39512" lon="-0.50048">
        <time>2022-07-31T15:18:04Z</time>
      </trkpt>
      <trkpt lat="41.39479" lon="-0.50045">
        <time>2022-07-31T15:18:05Z</time>
      </trkpt>
      <trkpt lat="41.39445" lon="-0.50043">
        <time>2022-07-31T15:18:06Z</time>
      </trkpt>
      <trkpt lat="41.39412" lon="-0.5004">
        <time>2022-07-31T15:18:07Z</time>
      </trkpt>
      <trkpt lat="41.39378" lon="-0.50038">
        <time>2022-07-31T15:18:08Z</time>
      </trkpt>
      <trkpt lat="41.39345" lon="-0.50036">
        <time>2022-07-31T15:18:09Z</time>
      </trkpt>
      <trkpt lat="41.39312" lon="-0.50034">
        <time>2022-07-31T15:18:10Z</time>
      </trkpt>
      <trkpt lat="41.39278" lon="-0.50031">
        <time>2022-07-31T15:18:11Z</time>
      </trkpt>
      <trkpt lat="41.39244" lon="-0.50029">
        <time>2022-07-31T15:18:12Z</time>
      </trkpt>
      <trkpt lat="41.3921" lon="-0.50027">
        <time>2022-07-31T15:18:13Z</time>
      </trkpt>
      <trkpt lat="41.39176" lon="-0.50025">
        <time>2022-07-31T15:18:14Z</time>
      </trkpt>
      <trkpt lat="41.39141" lon="-0.50023">
        <time>2022-07-31T15:18:15Z</time>
      </trkpt>
      <trkpt lat="41.39107" lon="-0.5002">
        <time>2022-07-31T15:18:16Z</time>
      </trkpt>
      <trkpt lat="41.39072" lon="-0.50018">
        <time>2022-07-31T15:18:17Z</time>
      </trkpt>
      <trkpt lat="41.39038" lon="-0.50015">
        <time>2022-07-31T15:18:18Z</time>
      </trkpt>
      <trkpt lat="41.39003" lon="-0.50012">
        <time>2022-07-31T15:18:19Z</time>
      </trkpt>
      <trkpt lat="41.38969" lon="-0.5001">
        <time>2022-07-31T15:18:20Z</time>
      </trkpt>
      <trkpt lat="41.38934" lon="-0.50008">
        <time>2022-07-31T15:18:21Z</time>
      </trkpt>
      <trkpt lat="41.38899" lon="-0.50005">
        <time>2022-07-31T15:18:22Z</time>
      </trkpt>
      <trkpt lat="41.38864" lon="-0.50003">
        <time>2022-07-31T15:18:23Z</time>
      </trkpt>
      <trkpt lat="41.3883" lon="-0.50001">
        <time>2022-07-31T15:18:24Z</time>
      </trkpt>
      <trkpt lat="41.38795" lon="-0.49998">
        <time>2022-07-31T15:18:25Z</time>
      </trkpt>
      <trkpt lat="41.38759" lon="-0.49996">
        <time>2022-07-31T15:18:26Z</time>
      </trkpt>
      <trkpt lat="41.38724" lon="-0.49994">
        <time>2022-07-31T15:18:27Z</time>
      </trkpt>
      <trkpt lat="41.38689" lon="-0.49992">
        <time>2022-07-31T15:18:28Z</time>
      </trkpt>
      <trkpt lat="41.38654" lon="-0.49989">
        <time>2022-07-31T15:18:29Z</time>
      </trkpt>
      <trkpt lat="41.38618" lon="-0.49987">
        <time>2022-07-31T15:18:30Z</time>
      </trkpt>
      <trkpt lat="41.38583" lon="-0.49985">
        <time>2022-07-31T15:18:31Z</time>
      </trkpt>
      <trkpt lat="41.38548" lon="-0.49982">
        <time>2022-07-31T15:18:32Z</time>
      </trkpt>
      <trkpt lat="41.38512" lon="-0.49979">
        <time>2022-07-31T15:18:33Z</time>
      </trkpt>
      <trkpt lat="41.38476" lon="-0.49977">
        <time>2022-07-31T15:18:34Z</time>
      </trkpt>
      <trkpt lat="41.38441" lon="-0.49975">
        <time>2022-07-31T15:18:35Z</time>
      </trkpt>
      <trkpt lat="41.38405" lon="-0.49972">
        <time>2022-07-31T15:18:36Z</time>
      </trkpt>
      <trkpt lat="41.3837" lon="-0.4997">
        <time>2022-07-31T15:18:37Z</time>
      </trkpt>
      <trkpt lat="41.38334" lon="-0.49968">
        <time>2022-07-31T15:18:38Z</time>
      </trkpt>
      <trkpt lat="41.38298" lon="-0.49965">
        <time>2022-07-31T15:18:39Z</time>
      </trkpt>
      <trkpt lat="41.38263" lon="-0.49963">
        <time>2022-07-31T15:18:40Z</time>
      </trkpt>
      <trkpt lat="41.38227" lon="-0.4996">
        <time>2022-07-31T15:18:41Z</time>
      </trkpt>
      <trkpt lat="41.38192" lon="-0.49958">
        <time>2022-07-31T15:18:42Z</time>
      </trkpt>
      <trkpt lat="41.38156" lon="-0.49955">
        <time>2022-07-31T15:18:43Z</time>
      </trkpt>
      <trkpt lat="41.3812" lon="-0.49953">
        <time>2022-07-31T15:18:44Z</time>
      </trkpt>
      <trkpt lat="41.38084" lon="-0.49951">
        <time>2022-07-31T15:18:45Z</time>
      </trkpt>
      <trkpt lat="41.38048" lon="-0.49949">
        <time>2022-07-31T15:18:46Z</time>
      </trkpt>
      <trkpt lat="41.38012" lon="-0.49946">
        <time>2022-07-31T15:18:47Z</time>
      </trkpt>
      <trkpt lat="41.37976" lon="-0.49944">
        <time>2022-07-31T15:18:48Z</time>
      </trkpt>
      <trkpt lat="41.3794" lon="-0.49941">
        <time>2022-07-31T15:18:49Z</time>
      </trkpt>
      <trkpt lat="41.37903" lon="-0.49939">
        <time>2022-07-31T15:18:50Z</time>
      </trkpt>
      <trkpt lat="41.37868" lon="-0.49936">
        <time>2022-07-31T15:18:51Z</time>
      </trkpt>
      <trkpt lat="41.37833" lon="-0.49934">
        <time>2022-07-31T15:18:52Z</time>
      </trkpt>
      <trkpt lat="41.37798" lon="-0.49932">
        <time>2022-07-31T15:18:53Z</time>
      </trkpt>
      <trkpt lat="41.37764" lon="-0.4993">
        <time>2022-07-31T15:18:54Z</time>
      </trkpt>
      <trkpt lat="41.3773" lon="-0.49928">
        <time>2022-07-31T15:18:55Z</time>
      </trkpt>
      <trkpt lat="41.37696" lon="-0.49925">
        <time>2022-07-31T15:18:56Z</time>
      </trkpt>
      <trkpt lat="41.37663" lon="-0.49923">
        <time>2022-07-31T15:18:57Z</time>
      </trkpt>
      <trkpt lat="41.3763" lon="-0.4992">
        <time>2022-07-31T15:18:58Z</time>
      </trkpt>
      <trkpt lat="41.37597" lon="-0.49918">
        <time>2022-07-31T15:18:59Z</time>
      </trkpt>
      <trkpt lat="41.37564" lon="-0.49915">
        <time>2022-07-31T15:19:00Z</time>
      </trkpt>
      <trkpt lat="41.37531" lon="-0.49913">
        <time>2022-07-31T15:19:01Z</time>
      </trkpt>
      <trkpt lat="41.375" lon="-0.49911">
        <time>2022-07-31T15:19:02Z</time>
      </trkpt>
      <trkpt lat="41.37469" lon="-0.49909">
        <time>2022-07-31T15:19:03Z</time>
      </trkpt>
      <trkpt lat="41.37438" lon="-0.49907">
        <time>2022-07-31T15:19:04Z</time>
      </trkpt>
      <trkpt lat="41.37409" lon="-0.49905">
        <time>2022-07-31T15:19:05Z</time>
      </trkpt>
      <trkpt lat="41.3738" lon="-0.49903">
        <time>2022-07-31T15:19:06Z</time>
      </trkpt>
      <trkpt lat="41.37351" lon="-0.49902">
        <time>2022-07-31T15:19:07Z</time>
      </trkpt>
      <trkpt lat="41.37323" lon="-0.499">
        <time>2022-07-31T15:19:08Z</time>
      </trkpt>
      <trkpt lat="41.37295" lon="-0.49898">
        <time>2022-07-31T15:19:09Z</time>
      </trkpt>
      <trkpt lat="41.37267" lon="-0.49897">
        <time>2022-07-31T15:19:10Z</time>
      </trkpt>
      <trkpt lat="41.3724" lon="-0.49895">
        <time>2022-07-31T15:19:11Z</time>
      </trkpt>
      <trkpt lat="41.37212" lon="-0.49893">
        <time>2022-07-31T15:19:12Z</time>
      </trkpt>
      <trkpt lat="41.37185" lon="-0.49891">
        <time>2022-07-31T15:19:13Z</time>
      </trkpt>
      <trkpt lat="41.37158" lon="-0.4989">
        <time>2022-07-31T15:19:14Z</time>
      </trkpt>
      <trkpt lat="41.37131" lon="-0.49888">
        <time>2022-07-31T15:19:15Z</time>
      </trkpt>
      <trkpt lat="41.37104" lon="-0.49886">
        <time>2022-07-31T15:19:16Z</time>
      </trkpt>
      <trkpt lat="41.37078" lon="-0.49884">
        <time>2022-07-31T15:19:17Z</time>
      </trkpt>
      <trkpt lat="41.37053" lon="-0.49883">
        <time>2022-07-31T15:19:18Z</time>
      </trkpt>
      <trkpt lat="41.37027" lon="-0.49881">
        <time>2022-07-31T15:19:19Z</time>
      </trkpt>
      <trkpt lat="41.37002" lon="-0.49879">
        <time>2022-07-31T15:19:20Z</time>
      </trkpt>
      <trkpt lat="41.36978" lon="-0.49877">
        <time>2022-07-31T15:19:21Z</time>
      </trkpt>
      <trkpt lat="41.36955" lon="-0.49876">
        <time>2022-07-31T15:19:22Z</time>
      </trkpt>
      <trkpt lat="41.36933" lon="-0.49874">
        <time>2022-07-31T15:19:23Z</time>
      </trkpt>
      <trkpt lat="41.36911" lon="-0.49872">
        <time>2022-07-31T15:19:24Z</time>
      </trkpt>
      <trkpt lat="41.36889" lon="-0.49871">
        <time>2022-07-31T15:19:25Z</time>
      </trkpt>
      <trkpt lat="41.36867" lon="-0.49869">
        <time>2022-07-31T15:19:26Z</time>
      </trkpt>
      <trkpt lat="41.36845" lon="-0.49868">
        <time>2022-07-31T15:19:27Z</time>
      </trkpt>
      <trkpt lat="41.36824" lon="-0.49869">
        <time>2022-07-31T15:19:28Z</time>
      </trkpt>
      <trkpt lat="41.36802" lon="-0.49873">
        <time>2022-07-31T15:19:29Z</time>
      </trkpt>
      <trkpt lat="41.36781" lon="-0.49881">
        <time>2022-07-31T15:19:30Z</time>
      </trkpt>
      <trkpt lat="41.36761" lon="-0.49892">
        <time>2022-07-31T15:19:31Z</time>
      </trkpt>
      <trkpt lat="41.36741" lon="-0.49907">
        <time>2022-07-31T15:19:32Z</time>
      </trkpt>
      <trkpt lat="41.36721" lon="-0.49924">
        <time>2022-07-31T15:19:33Z</time>
      </trkpt>
      <trkpt lat="41.36703" lon="-0.49945">
        <time>2022-07-31T15:19:34Z</time>
      </trkpt>
      <trkpt lat="41.36685" lon="-0.49966">
        <time>2022-07-31T15:19:35Z</time>
      </trkpt>
      <trkpt lat="41.36667" lon="-0.49988">
        <time>2022-07-31T15:19:36Z</time>
      </trkpt>
      <trkpt lat="41.36649" lon="-0.5001">
        <time>2022-07-31T15:19:37Z</time>
      </trkpt>
      <trkpt lat="41.36632" lon="-0.50033">
        <time>2022-07-31T15:19:38Z</time>
      </trkpt>
      <trkpt lat="41.36615" lon="-0.50055">
        <time>2022-07-31T15:19:39Z</time>
      </trkpt>
      <trkpt lat="41.36599" lon="-0.50077">
        <time>2022-07-31T15:19:40Z</time>
      </trkpt>
      <trkpt lat="41.36582" lon="-0.50098">
        <time>2022-07-31T15:19:41Z</time>
      </trkpt>
      <trkpt lat="41.36564" lon="-0.50121">
        <time>2022-07-31T15:19:42Z</time>
      </trkpt>
      <trkpt lat="41.36547" lon="-0.50144">
        <time>2022-07-31T15:19:43Z</time>
      </trkpt>
      <trkpt lat="41.3653" lon="-0.50166">
        <time>2022-07-31T15:19:44Z</time>
      </trkpt>
      <trkpt lat="41.36512" lon="-0.50189">
        <time>2022-07-31T15:19:45Z</time>
      </trkpt>
      <trkpt lat="41.36495" lon="-0.50211">
        <time>2022-07-31T15:19:46Z</time>
      </trkpt>
      <trkpt lat="41.36478" lon="-0.50232">
        <time>2022-07-31T15:19:47Z</time>
      </trkpt>
      <trkpt lat="41.36461" lon="-0.50252">
        <time>2022-07-31T15:19:48Z</time>
      </trkpt>
      <trkpt lat="41.36443" lon="-0.50269">
        <time>2022-07-31T15:19:49Z</time>
      </trkpt>
      <trkpt lat="41.36424" lon="-0.50285">
        <time>2022-07-31T15:19:50Z</time>
      </trkpt>
      <trkpt lat="41.36403" lon="-0.50298">
        <time>2022-07-31T15:19:51Z</time>
      </trkpt>
      <trkpt lat="41.3638" lon="-0.50308">
        <time>2022-07-31T15:19:52Z</time>
      </trkpt>
      <trkpt lat="41.36357" lon="-0.50314">
        <time>2022-07-31T15:19:53Z</time>
      </trkpt>
      <trkpt lat="41.36332" lon="-0.50315">
        <time>2022-07-31T15:19:54Z</time>
      </trkpt>
      <trkpt lat="41.36307" lon="-0.50313">
        <time>2022-07-31T15:19:55Z</time>
      </trkpt>
      <trkpt lat="41.36282" lon="-0.50309">
        <time>2022-07-31T15:19:56Z</time>
      </trkpt>
      <trkpt lat="41.36257" lon="-0.50303">
        <time>2022-07-31T15:19:57Z</time>
      </trkpt>
      <trkpt lat="41.36233" lon="-0.50296">
        <time>2022-07-31T15:19:58Z</time>
      </trkpt>
      <trkpt lat="41.3621" lon="-0.5029">
        <time>2022-07-31T15:19:59Z</time>
      </trkpt>
      <trkpt lat="41.36187" lon="-0.50283">
        <time>2022-07-31T15:20:00Z</time>
      </trkpt>
      <trkpt lat="41.36163" lon="-0.50276">
        <time>2022-07-31T15:20:01Z</time>
      </trkpt>
      <trkpt lat="41.36139" lon="-0.5027">
        <time>2022-07-31T15:20:02Z</time>
      </trkpt>
      <trkpt lat="41.36115" lon="-0.50263">
        <time>2022-07-31T15:20:03Z</time>
      </trkpt>
      <trkpt lat="41.36091" lon="-0.50257">
        <time>2022-07-31T15:20:04Z</time>
      </trkpt>
      <trkpt lat="41.36066" lon="-0.5025">
        <time>2022-07-31T15:20:05Z</time>
      </trkpt>
      <trkpt lat="41.36042" lon="-0.50243">
        <time>2022-07-31T15:20:06Z</time>
      </trkpt>
      <trkpt lat="41.36017" lon="-0.50236">
        <time>2022-07-31T15:20:07Z</time>
      </trkpt>
      <trkpt lat="41.35993" lon="-0.50229">
        <time>2022-07-31T15:20:08Z</time>
      </trkpt>
      <trkpt lat="41.35968" lon="-0.50222">
        <time>2022-07-31T15:20:09Z</time>
      </trkpt>
      <trkpt lat="41.35944" lon="-0.50215">
        <time>2022-07-31T15:20:10Z</time>
      </trkpt>
      <trkpt lat="41.3592" lon="-0.50209">
        <time>2022-07-31T15:20:11Z</time>
      </trkpt>
      <trkpt lat="41.35896" lon="-0.50202">
        <time>2022-07-31T15:20:12Z</time>
      </trkpt>
      <trkpt lat="41.35872" lon="-0.50195">
        <time>2022-07-31T15:20:13Z</time>
      </trkpt>
      <trkpt lat="41.35848" lon="-0.50188">
        <time>2022-07-31T15:20:14Z</time>
      </trkpt>
      <trkpt lat="41.35824" lon="-0.50182">
        <time>2022-07-31T15:20:15Z</time>
      </trkpt>
      <trkpt lat="41.35799" lon="-0.50175">
        <time>2022-07-31T15:20:16Z</time>
      </trkpt>
      <trkpt lat="41.35773" lon="-0.50168">
        <time>2022-07-31T15:20:17Z</time>
      </trkpt>
      <trkpt lat="41.35747" lon="-0.50161">
        <time>2022-07-31T15:20:18Z</time>
      </trkpt>
      <trkpt lat="41.35721" lon="-0.50154">
        <time>2022-07-31T15:20:19Z</time>
      </trkpt>
      <trkpt lat="41.35695" lon="-0.50146">
        <time>2022-07-31T15:20:20Z</time>
      </trkpt>
      <trkpt lat="41.35669" lon="-0.50139">
        <time>2022-07-31T15:20:21Z</time>
      </trkpt>
      <trkpt lat="41.35643" lon="-0.50132">
        <time>2022-07-31T15:20:22Z</time>
      </trkpt>
      <trkpt lat="41.35617" lon="-0.50128">
        <time>2022-07-31T15:20:23Z</time>
      </trkpt>
      <trkpt lat="41.35591" lon="-0.50125">
        <time>2022-07-31T15:20:24Z</time>
      </trkpt>
      <trkpt lat="41.35565" lon="-0.50123">
        <time>2022-07-31T15:20:25Z</time>
      </trkpt>
      <trkpt lat="41.35538" lon="-0.50123">
        <time>2022-07-31T15:20:26Z</time>
      </trkpt>
      <trkpt lat="41.35511" lon="-0.50125">
        <time>2022-07-31T15:20:27Z</time>
      </trkpt>
      <trkpt lat="41.35482" lon="-0.50125">
        <time>2022-07-31T15:20:28Z</time>
      </trkpt>
      <trkpt lat="41.35452" lon="-0.50127">
        <time>2022-07-31T15:20:29Z</time>
      </trkpt>
      <trkpt lat="41.35423" lon="-0.50129">
        <time>2022-07-31T15:20:30Z</time>
      </trkpt>
      <trkpt lat="41.35394" lon="-0.50132">
        <time>2022-07-31T15:20:31Z</time>
      </trkpt>
      <trkpt lat="41.35365" lon="-0.50135">
        <time>2022-07-31T15:20:29Z</time>
      </trkpt>
      <trkpt lat="41.35337" lon="-0.50138">
        <time>2022-07-31T15:20:30Z</time>
      </trkpt>
      <trkpt lat="41.3531" lon="-0.5014">
        <time>2022-07-31T15:20:31Z</time>
      </trkpt>
      <trkpt lat="41.35284" lon="-0.5014">
        <time>2022-07-31T15:20:32Z</time>
      </trkpt>
      <trkpt lat="41.35259" lon="-0.50137">
        <time>2022-07-31T15:20:33Z</time>
      </trkpt>
      <trkpt lat="41.35232" lon="-0.50131">
        <time>2022-07-31T15:20:37Z</time>
      </trkpt>
      <trkpt lat="41.35206" lon="-0.50119">
        <time>2022-07-31T15:20:38Z</time>
      </trkpt>
      <trkpt lat="41.3518" lon="-0.50102">
        <time>2022-07-31T15:20:39Z</time>
      </trkpt>
      <trkpt lat="41.35154" lon="-0.50083">
        <time>2022-07-31T15:20:40Z</time>
      </trkpt>
      <trkpt lat="41.35128" lon="-0.50062">
        <time>2022-07-31T15:20:41Z</time>
      </trkpt>
      <trkpt lat="41.351" lon="-0.50042">
        <time>2022-07-31T15:20:42Z</time>
      </trkpt>
      <trkpt lat="41.35073" lon="-0.50025">
        <time>2022-07-31T15:20:43Z</time>
      </trkpt>
      <trkpt lat="41.35045" lon="-0.50012">
        <time>2022-07-31T15:20:44Z</time>
      </trkpt>
      <trkpt lat="41.35017" lon="-0.50005">
        <time>2022-07-31T15:20:45Z</time>
      </trkpt>
      <trkpt lat="41.34988" lon="-0.50003">
        <time>2022-07-31T15:20:46Z</time>
      </trkpt>
      <trkpt lat="41.34958" lon="-0.50006">
        <time>2022-07-31T15:20:47Z</time>
      </trkpt>
      <trkpt lat="41.34928" lon="-0.50013">
        <time>2022-07-31T15:20:48Z</time>
      </trkpt>
      <trkpt lat="41.34897" lon="-0.50021">
        <time>2022-07-31T15:20:49Z</time>
      </trkpt>
      <trkpt lat="41.34866" lon="-0.5003">
        <time>2022-07-31T15:20:50Z</time>
      </trkpt>
      <trkpt lat="41.34835" lon="-0.50037">
        <time>2022-07-31T15:20:51Z</time>
      </trkpt>
      <trkpt lat="41.34805" lon="-0.50041">
        <time>2022-07-31T15:20:52Z</time>
      </trkpt>
      <trkpt lat="41.34774" lon="-0.50039">
        <time>2022-07-31T15:20:53Z</time>
      </trkpt>
      <trkpt lat="41.34744" lon="-0.50033">
        <time>2022-07-31T15:20:54Z</time>
      </trkpt>
      <trkpt lat="41.34714" lon="-0.50021">
        <time>2022-07-31T15:20:55Z</time>
      </trkpt>
      <trkpt lat="41.34685" lon="-0.50005">
        <time>2022-07-31T15:20:56Z</time>
      </trkpt>
      <trkpt lat="41.34657" lon="-0.49986">
        <time>2022-07-31T15:20:57Z</time>
      </trkpt>
      <trkpt lat="41.3463" lon="-0.49967">
        <time>2022-07-31T15:20:58Z</time>
      </trkpt>
      <trkpt lat="41.34603" lon="-0.49948">
        <time>2022-07-31T15:20:59Z</time>
      </trkpt>
      <trkpt lat="41.34574" lon="-0.4993">
        <time>2022-07-31T15:21:00Z</time>
      </trkpt>
      <trkpt lat="41.34544" lon="-0.49916">
        <time>2022-07-31T15:21:01Z</time>
      </trkpt>
      <trkpt lat="41.34513" lon="-0.49906">
        <time>2022-07-31T15:21:02Z</time>
      </trkpt>
      <trkpt lat="41.3448" lon="-0.49899">
        <time>2022-07-31T15:21:03Z</time>
      </trkpt>
      <trkpt lat="41.34448" lon="-0.49894">
        <time>2022-07-31T15:21:04Z</time>
      </trkpt>
      <trkpt lat="41.34414" lon="-0.4989">
        <time>2022-07-31T15:21:05Z</time>
      </trkpt>
      <trkpt lat="41.34381" lon="-0.49886">
        <time>2022-07-31T15:21:06Z</time>
      </trkpt>
      <trkpt lat="41.34347" lon="-0.49881">
        <time>2022-07-31T15:21:07Z</time>
      </trkpt>
      <trkpt lat="41.34314" lon="-0.49877">
        <time>2022-07-31T15:21:08Z</time>
      </trkpt>
      <trkpt lat="41.34281" lon="-0.49872">
        <time>2022-07-31T15:21:09Z</time>
      </trkpt>
      <trkpt lat="41.34247" lon="-0.49867">
        <time>2022-07-31T15:21:10Z</time>
      </trkpt>
      <trkpt lat="41.34215" lon="-0.49863">
        <time>2022-07-31T15:21:11Z</time>
      </trkpt>
      <trkpt lat="41.34182" lon="-0.49857">
        <time>2022-07-31T15:21:12Z</time>
      </trkpt>
      <trkpt lat="41.34149" lon="-0.49853">
        <time>2022-07-31T15:21:13Z</time>
      </trkpt>
      <trkpt lat="41.34116" lon="-0.49849">
        <time>2022-07-31T15:21:14Z</time>
      </trkpt>
      <trkpt lat="41.34083" lon="-0.49844">
        <time>2022-07-31T15:21:15Z</time>
      </trkpt>
      <trkpt lat="41.3405" lon="-0.4984">
        <time>2022-07-31T15:21:16Z</time>
      </trkpt>
      <trkpt lat="41.34018" lon="-0.49835">
        <time>2022-07-31T15:21:17Z</time>
      </trkpt>
      <trkpt lat="41.33985" lon="-0.49831">
        <time>2022-07-31T15:21:18Z</time>
      </trkpt>
      <trkpt lat="41.33952" lon="-0.49827">
        <time>2022-07-31T15:21:19Z</time>
      </trkpt>
      <trkpt lat="41.33919" lon="-0.49823">
        <time>2022-07-31T15:21:20Z</time>
      </trkpt>
      <trkpt lat="41.33887" lon="-0.49818">
        <time>2022-07-31T15:21:21Z</time>
      </trkpt>
      <trkpt lat="41.33854" lon="-0.49813">
        <time>2022-07-31T15:21:22Z</time>
      </trkpt>
      <trkpt lat="41.33821" lon="-0.49809">
        <time>2022-07-31T15:21:23Z</time>
      </trkpt>
      <trkpt lat="41.33787" lon="-0.49804">
        <time>2022-07-31T15:21:24Z</time>
      </trkpt>
      <trkpt lat="41.33754" lon="-0.49799">
        <time>2022-07-31T15:21:25Z</time>
      </trkpt>
      <trkpt lat="41.3372" lon="-0.49794">
        <time>2022-07-31T15:21:26Z</time>
      </trkpt>
      <trkpt lat="41.33686" lon="-0.49789">
        <time>2022-07-31T15:21:27Z</time>
      </trkpt>
      <trkpt lat="41.33651" lon="-0.49784">
        <time>2022-07-31T15:21:28Z</time>
      </trkpt>
      <trkpt lat="41.33617" lon="-0.49779">
        <time>2022-07-31T15:21:29Z</time>
      </trkpt>
      <trkpt lat="41.33582" lon="-0.49775">
        <time>2022-07-31T15:21:30Z</time>
      </trkpt>
      <trkpt lat="41.33549" lon="-0.4977">
        <time>2022-07-31T15:21:31Z</time>
      </trkpt>
      <trkpt lat="41.33515" lon="-0.49766">
        <time>2022-07-31T15:21:32Z</time>
      </trkpt>
      <trkpt lat="41.33481" lon="-0.49762">
        <time>2022-07-31T15:21:33Z</time>
      </trkpt>
      <trkpt lat="41.33448" lon="-0.4976">
        <time>2022-07-31T15:21:34Z</time>
      </trkpt>
      <trkpt lat="41.33415" lon="-0.49762">
        <time>2022-07-31T15:21:35Z</time>
      </trkpt>
      <trkpt lat="41.33382" lon="-0.49767">
        <time>2022-07-31T15:21:36Z</time>
      </trkpt>
      <trkpt lat="41.3335" lon="-0.49776">
        <time>2022-07-31T15:21:37Z</time>
      </trkpt>
      <trkpt lat="41.33318" lon="-0.49788">
        <time>2022-07-31T15:21:38Z</time>
      </trkpt>
      <trkpt lat="41.33288" lon="-0.49805">
        <time>2022-07-31T15:21:39Z</time>
      </trkpt>
      <trkpt lat="41.33259" lon="-0.49824">
        <time>2022-07-31T15:21:40Z</time>
      </trkpt>
      <trkpt lat="41.3323" lon="-0.49847">
        <time>2022-07-31T15:21:41Z</time>
      </trkpt>
      <trkpt lat="41.33203" lon="-0.49873">
        <time>2022-07-31T15:21:42Z</time>
      </trkpt>
      <trkpt lat="41.33177" lon="-0.49901">
        <time>2022-07-31T15:21:43Z</time>
      </trkpt>
      <trkpt lat="41.33153" lon="-0.49931">
        <time>2022-07-31T15:21:44Z</time>
      </trkpt>
      <trkpt lat="41.33128" lon="-0.4996">
        <time>2022-07-31T15:21:45Z</time>
      </trkpt>
      <trkpt lat="41.33104" lon="-0.49987">
        <time>2022-07-31T15:21:46Z</time>
      </trkpt>
      <trkpt lat="41.33077" lon="-0.50013">
        <time>2022-07-31T15:21:47Z</time>
      </trkpt>
      <trkpt lat="41.3305" lon="-0.50036">
        <time>2022-07-31T15:21:48Z</time>
      </trkpt>
      <trkpt lat="41.3302" lon="-0.50055">
        <time>2022-07-31T15:21:49Z</time>
      </trkpt>
      <trkpt lat="41.32989" lon="-0.50072">
        <time>2022-07-31T15:21:50Z</time>
      </trkpt>
      <trkpt lat="41.32958" lon="-0.50085">
        <time>2022-07-31T15:21:51Z</time>
      </trkpt>
      <trkpt lat="41.32925" lon="-0.50094">
        <time>2022-07-31T15:21:52Z</time>
      </trkpt>
      <trkpt lat="41.32892" lon="-0.50098">
        <time>2022-07-31T15:21:53Z</time>
      </trkpt>
      <trkpt lat="41.32859" lon="-0.501">
        <time>2022-07-31T15:21:54Z</time>
      </trkpt>
      <trkpt lat="41.32826" lon="-0.501">
        <time>2022-07-31T15:21:55Z</time>
      </trkpt>
      <trkpt lat="41.32793" lon="-0.50097">
        <time>2022-07-31T15:21:56Z</time>
      </trkpt>
      <trkpt lat="41.3276" lon="-0.50091">
        <time>2022-07-31T15:21:57Z</time>
      </trkpt>
      <trkpt lat="41.32728" lon="-0.50083">
        <time>2022-07-31T15:21:58Z</time>
      </trkpt>
      <trkpt lat="41.32695" lon="-0.50075">
        <time>2022-07-31T15:21:59Z</time>
      </trkpt>
      <trkpt lat="41.32664" lon="-0.50067">
        <time>2022-07-31T15:22:00Z</time>
      </trkpt>
      <trkpt lat="41.32633" lon="-0.50059">
        <time>2022-07-31T15:22:01Z</time>
      </trkpt>
      <trkpt lat="41.32603" lon="-0.50052">
        <time>2022-07-31T15:22:02Z</time>
      </trkpt>
      <trkpt lat="41.32573" lon="-0.50047">
        <time>2022-07-31T15:22:03Z</time>
      </trkpt>
      <trkpt lat="41.32543" lon="-0.50045">
        <time>2022-07-31T15:22:04Z</time>
      </trkpt>
      <trkpt lat="41.32513" lon="-0.50045">
        <time>2022-07-31T15:22:05Z</time>
      </trkpt>
      <trkpt lat="41.32483" lon="-0.50049">
        <time>2022-07-31T15:22:06Z</time>
      </trkpt>
      <trkpt lat="41.32453" lon="-0.50055">
        <time>2022-07-31T15:22:07Z</time>
      </trkpt>
      <trkpt lat="41.32424" lon="-0.50064">
        <time>2022-07-31T15:22:08Z</time>
      </trkpt>
      <trkpt lat="41.32395" lon="-0.50075">
        <time>2022-07-31T15:22:09Z</time>
      </trkpt>
      <trkpt lat="41.32367" lon="-0.50089">
        <time>2022-07-31T15:22:10Z</time>
      </trkpt>
      <trkpt lat="41.32338" lon="-0.50104">
        <time>2022-07-31T15:22:11Z</time>
      </trkpt>
      <trkpt lat="41.3231" lon="-0.5012">
        <time>2022-07-31T15:22:12Z</time>
      </trkpt>
      <trkpt lat="41.32282" lon="-0.50137">
        <time>2022-07-31T15:22:13Z</time>
      </trkpt>
      <trkpt lat="41.32255" lon="-0.50152">
        <time>2022-07-31T15:22:14Z</time>
      </trkpt>
      <trkpt lat="41.32228" lon="-0.50165">
        <time>2022-07-31T15:22:15Z</time>
      </trkpt>
      <trkpt lat="41.322" lon="-0.50176">
        <time>2022-07-31T15:22:16Z</time>
      </trkpt>
      <trkpt lat="41.32171" lon="-0.50185">
        <time>2022-07-31T15:22:17Z</time>
      </trkpt>
      <trkpt lat="41.32142" lon="-0.50192">
        <time>2022-07-31T15:22:18Z</time>
      </trkpt>
      <trkpt lat="41.32112" lon="-0.50196">
        <time>2022-07-31T15:22:19Z</time>
      </trkpt>
      <trkpt lat="41.32082" lon="-0.50198">
        <time>2022-07-31T15:22:20Z</time>
      </trkpt>
      <trkpt lat="41.32051" lon="-0.50197">
        <time>2022-07-31T15:22:21Z</time>
      </trkpt>
      <trkpt lat="41.3202" lon="-0.50195">
        <time>2022-07-31T15:22:22Z</time>
      </trkpt>
      <trkpt lat="41.31988" lon="-0.50191">
        <time>2022-07-31T15:22:23Z</time>
      </trkpt>
      <trkpt lat="41.31956" lon="-0.50188">
        <time>2022-07-31T15:22:24Z</time>
      </trkpt>
      <trkpt lat="41.31924" lon="-0.50185">
        <time>2022-07-31T15:22:25Z</time>
      </trkpt>
      <trkpt lat="41.31892" lon="-0.50181">
        <time>2022-07-31T15:22:26Z</time>
      </trkpt>
      <trkpt lat="41.3186" lon="-0.50177">
        <time>2022-07-31T15:22:27Z</time>
      </trkpt>
      <trkpt lat="41.31827" lon="-0.50173">
        <time>2022-07-31T15:22:28Z</time>
      </trkpt>
      <trkpt lat="41.31795" lon="-0.50169">
        <time>2022-07-31T15:22:29Z</time>
      </trkpt>
      <trkpt lat="41.31762" lon="-0.50167">
        <time>2022-07-31T15:22:30Z</time>
      </trkpt>
      <trkpt lat="41.31729" lon="-0.50164">
        <time>2022-07-31T15:22:31Z</time>
      </trkpt>
      <trkpt lat="41.31696" lon="-0.50161">
        <time>2022-07-31T15:22:32Z</time>
      </trkpt>
      <trkpt lat="41.31663" lon="-0.50159">
        <time>2022-07-31T15:22:33Z</time>
      </trkpt>
      <trkpt lat="41.31631" lon="-0.50156">
        <time>2022-07-31T15:22:34Z</time>
      </trkpt>
      <trkpt lat="41.316" lon="-0.50154">
        <time>2022-07-31T15:22:35Z</time>
      </trkpt>
      <trkpt lat="41.31569" lon="-0.50152">
        <time>2022-07-31T15:22:36Z</time>
      </trkpt>
      <trkpt lat="41.31538" lon="-0.5015">
        <time>2022-07-31T15:22:37Z</time>
      </trkpt>
      <trkpt lat="41.31507" lon="-0.50147">
        <time>2022-07-31T15:22:38Z</time>
      </trkpt>
      <trkpt lat="41.31477" lon="-0.50144">
        <time>2022-07-31T15:22:39Z</time>
      </trkpt>
      <trkpt lat="41.31446" lon="-0.50141">
        <time>2022-07-31T15:22:40Z</time>
      </trkpt>
      <trkpt lat="41.31416" lon="-0.50138">
        <time>2022-07-31T15:22:41Z</time>
      </trkpt>
      <trkpt lat="41.31385" lon="-0.50132">
        <time>2022-07-31T15:22:42Z</time>
      </trkpt>
      <trkpt lat="41.31355" lon="-0.50124">
        <time>2022-07-31T15:22:43Z</time>
      </trkpt>
      <trkpt lat="41.31326" lon="-0.50113">
        <time>2022-07-31T15:22:44Z</time>
      </trkpt>
      <trkpt lat="41.31296" lon="-0.50099">
        <time>2022-07-31T15:22:45Z</time>
      </trkpt>
      <trkpt lat="41.31267" lon="-0.50082">
        <time>2022-07-31T15:22:46Z</time>
      </trkpt>
      <trkpt lat="41.31238" lon="-0.50063">
        <time>2022-07-31T15:22:47Z</time>
      </trkpt>
      <trkpt lat="41.31209" lon="-0.50042">
        <time>2022-07-31T15:22:48Z</time>
      </trkpt>
      <trkpt lat="41.3118" lon="-0.50021">
        <time>2022-07-31T15:22:49Z</time>
      </trkpt>
      <trkpt lat="41.3115" lon="-0.5">
        <time>2022-07-31T15:22:50Z</time>
      </trkpt>
      <trkpt lat="41.31121" lon="-0.49979">
        <time>2022-07-31T15:22:51Z</time>
      </trkpt>
      <trkpt lat="41.31091" lon="-0.49957">
        <time>2022-07-31T15:22:52Z</time>
      </trkpt>
      <trkpt lat="41.3106" lon="-0.49936">
        <time>2022-07-31T15:22:53Z</time>
      </trkpt>
      <trkpt lat="41.3103" lon="-0.49915">
        <time>2022-07-31T15:22:54Z</time>
      </trkpt>
      <trkpt lat="41.31" lon="-0.49894">
        <time>2022-07-31T15:22:55Z</time>
      </trkpt>
      <trkpt lat="41.30969" lon="-0.49872">
        <time>2022-07-31T15:22:56Z</time>
      </trkpt>
      <trkpt lat="41.30938" lon="-0.4985">
        <time>2022-07-31T15:22:57Z</time>
      </trkpt>
      <trkpt lat="41.30907" lon="-0.49829">
        <time>2022-07-31T15:22:58Z</time>
      </trkpt>
      <trkpt lat="41.30876" lon="-0.49807">
        <time>2022-07-31T15:22:59Z</time>
      </trkpt>
      <trkpt lat="41.30845" lon="-0.49785">
        <time>2022-07-31T15:23:00Z</time>
      </trkpt>
      <trkpt lat="41.30814" lon="-0.49763">
        <time>2022-07-31T15:23:01Z</time>
      </trkpt>
      <trkpt lat="41.30784" lon="-0.49742">
        <time>2022-07-31T15:23:02Z</time>
      </trkpt>
      <trkpt lat="41.30753" lon="-0.49721">
        <time>2022-07-31T15:23:03Z</time>
      </trkpt>
      <trkpt lat="41.30724" lon="-0.497">
        <time>2022-07-31T15:23:04Z</time>
      </trkpt>
      <trkpt lat="41.30694" lon="-0.4968">
        <time>2022-07-31T15:23:05Z</time>
      </trkpt>
      <trkpt lat="41.30664" lon="-0.49659">
        <time>2022-07-31T15:23:06Z</time>
      </trkpt>
      <trkpt lat="41.30634" lon="-0.49638">
        <time>2022-07-31T15:23:07Z</time>
      </trkpt>
      <trkpt lat="41.30605" lon="-0.49618">
        <time>2022-07-31T15:23:08Z</time>
      </trkpt>
      <trkpt lat="41.30575" lon="-0.49597">
        <time>2022-07-31T15:23:09Z</time>
      </trkpt>
      <trkpt lat="41.30546" lon="-0.49577">
        <time>2022-07-31T15:23:10Z</time>
      </trkpt>
      <trkpt lat="41.30516" lon="-0.49556">
        <time>2022-07-31T15:23:11Z</time>
      </trkpt>
      <trkpt lat="41.30488" lon="-0.49537">
        <time>2022-07-31T15:23:12Z</time>
      </trkpt>
      <trkpt lat="41.30459" lon="-0.49516">
        <time>2022-07-31T15:23:13Z</time>
      </trkpt>
      <trkpt lat="41.30431" lon="-0.49497">
        <time>2022-07-31T15:23:14Z</time>
      </trkpt>
      <trkpt lat="41.30404" lon="-0.49478">
        <time>2022-07-31T15:23:15Z</time>
      </trkpt>
      <trkpt lat="41.30376" lon="-0.49461">
        <time>2022-07-31T15:23:16Z</time>
      </trkpt>
      <trkpt lat="41.30347" lon="-0.49445">
        <time>2022-07-31T15:23:17Z</time>
      </trkpt>
      <trkpt lat="41.30318" lon="-0.49431">
        <time>2022-07-31T15:23:18Z</time>
      </trkpt>
      <trkpt lat="41.30289" lon="-0.49418">
        <time>2022-07-31T15:23:19Z</time>
      </trkpt>
      <trkpt lat="41.3026" lon="-0.49405">
        <time>2022-07-31T15:23:20Z</time>
      </trkpt>
      <trkpt lat="41.30231" lon="-0.49392">
        <time>2022-07-31T15:23:21Z</time>
      </trkpt>
      <trkpt lat="41.30202" lon="-0.4938">
        <time>2022-07-31T15:23:22Z</time>
      </trkpt>
      <trkpt lat="41.30174" lon="-0.49368">
        <time>2022-07-31T15:23:23Z</time>
      </trkpt>
      <trkpt lat="41.30145" lon="-0.49355">
        <time>2022-07-31T15:23:24Z</time>
      </trkpt>
      <trkpt lat="41.30117" lon="-0.49343">
        <time>2022-07-31T15:23:25Z</time>
      </trkpt>
      <trkpt lat="41.30088" lon="-0.49332">
        <time>2022-07-31T15:23:26Z</time>
      </trkpt>
      <trkpt lat="41.3006" lon="-0.4932">
        <time>2022-07-31T15:23:27Z</time>
      </trkpt>
      <trkpt lat="41.30032" lon="-0.49308">
        <time>2022-07-31T15:23:28Z</time>
      </trkpt>
      <trkpt lat="41.30005" lon="-0.49297">
        <time>2022-07-31T15:23:29Z</time>
      </trkpt>
      <trkpt lat="41.29979" lon="-0.49285">
        <time>2022-07-31T15:23:30Z</time>
      </trkpt>
      <trkpt lat="41.29953" lon="-0.49274">
        <time>2022-07-31T15:23:31Z</time>
      </trkpt>
      <trkpt lat="41.29928" lon="-0.49263">
        <time>2022-07-31T15:23:32Z</time>
      </trkpt>
      <trkpt lat="41.29903" lon="-0.49252">
        <time>2022-07-31T15:23:33Z</time>
      </trkpt>
      <trkpt lat="41.29878" lon="-0.49242">
        <time>2022-07-31T15:23:34Z</time>
      </trkpt>
      <trkpt lat="41.29854" lon="-0.49232">
        <time>2022-07-31T15:23:35Z</time>
      </trkpt>
      <trkpt lat="41.29829" lon="-0.49221">
        <time>2022-07-31T15:23:36Z</time>
      </trkpt>
      <trkpt lat="41.29806" lon="-0.49212">
        <time>2022-07-31T15:23:37Z</time>
      </trkpt>
      <trkpt lat="41.29783" lon="-0.49202">
        <time>2022-07-31T15:23:38Z</time>
      </trkpt>
      <trkpt lat="41.29761" lon="-0.49192">
        <time>2022-07-31T15:23:39Z</time>
      </trkpt>
      <trkpt lat="41.29739" lon="-0.49183">
        <time>2022-07-31T15:23:40Z</time>
      </trkpt>
      <trkpt lat="41.29717" lon="-0.49173">
        <time>2022-07-31T15:23:41Z</time>
      </trkpt>
      <trkpt lat="41.29697" lon="-0.49165">
        <time>2022-07-31T15:23:42Z</time>
      </trkpt>
      <trkpt lat="41.29678" lon="-0.49157">
        <time>2022-07-31T15:23:43Z</time>
      </trkpt>
      <trkpt lat="41.2966" lon="-0.49152">
        <time>2022-07-31T15:23:44Z</time>
      </trkpt>
      <trkpt lat="41.29643" lon="-0.49148">
        <time>2022-07-31T15:23:45Z</time>
      </trkpt>
      <trkpt lat="41.29625" lon="-0.49148">
        <time>2022-07-31T15:23:46Z</time>
      </trkpt>
      <trkpt lat="41.29608" lon="-0.49151">
        <time>2022-07-31T15:23:47Z</time>
      </trkpt>
      <trkpt lat="41.29592" lon="-0.49159">
        <time>2022-07-31T15:23:48Z</time>
      </trkpt>
      <trkpt lat="41.29576" lon="-0.49171">
        <time>2022-07-31T15:23:49Z</time>
      </trkpt>
      <trkpt lat="41.29561" lon="-0.49186">
        <time>2022-07-31T15:23:50Z</time>
      </trkpt>
      <trkpt lat="41.29549" lon="-0.49205">
        <time>2022-07-31T15:23:51Z</time>
      </trkpt>
      <trkpt lat="41.2954" lon="-0.49225">
        <time>2022-07-31T15:23:52Z</time>
      </trkpt>
      <trkpt lat="41.29533" lon="-0.49249">
        <time>2022-07-31T15:23:53Z</time>
      </trkpt>
      <trkpt lat="41.29526" lon="-0.49273">
        <time>2022-07-31T15:23:54Z</time>
      </trkpt>
      <trkpt lat="41.29518" lon="-0.49296">
        <time>2022-07-31T15:23:55Z</time>
      </trkpt>
      <trkpt lat="41.29509" lon="-0.49317">
        <time>2022-07-31T15:23:56Z</time>
      </trkpt>
      <trkpt lat="41.29499" lon="-0.49336">
        <time>2022-07-31T15:23:57Z</time>
      </trkpt>
      <trkpt lat="41.29488" lon="-0.49355">
        <time>2022-07-31T15:23:58Z</time>
      </trkpt>
      <trkpt lat="41.29477" lon="-0.49371">
        <time>2022-07-31T15:23:59Z</time>
      </trkpt>
      <trkpt lat="41.29466" lon="-0.49387">
        <time>2022-07-31T15:24:00Z</time>
      </trkpt>
      <trkpt lat="41.29455" lon="-0.49404">
        <time>2022-07-31T15:24:01Z</time>
      </trkpt>
      <trkpt lat="41.29445" lon="-0.49421">
        <time>2022-07-31T15:24:02Z</time>
      </trkpt>
      <trkpt lat="41.29434" lon="-0.49439">
        <time>2022-07-31T15:24:03Z</time>
      </trkpt>
      <trkpt lat="41.29424" lon="-0.49457">
        <time>2022-07-31T15:24:04Z</time>
      </trkpt>
      <trkpt lat="41.29413" lon="-0.49475">
        <time>2022-07-31T15:24:05Z</time>
      </trkpt>
      <trkpt lat="41.29404" lon="-0.49493">
        <time>2022-07-31T15:24:06Z</time>
      </trkpt>
      <trkpt lat="41.29395" lon="-0.4951">
        <time>2022-07-31T15:24:07Z</time>
      </trkpt>
      <trkpt lat="41.29387" lon="-0.49527">
        <time>2022-07-31T15:24:08Z</time>
      </trkpt>
      <trkpt lat="41.29379" lon="-0.49543">
        <time>2022-07-31T15:24:09Z</time>
      </trkpt>
      <trkpt lat="41.29372" lon="-0.49559">
        <time>2022-07-31T15:24:10Z</time>
      </trkpt>
      <trkpt lat="41.29365" lon="-0.49574">
        <time>2022-07-31T15:24:11Z</time>
      </trkpt>
      <trkpt lat="41.29358" lon="-0.49587">
        <time>2022-07-31T15:24:12Z</time>
      </trkpt>
      <trkpt lat="41.29351" lon="-0.49598">
        <time>2022-07-31T15:24:13Z</time>
      </trkpt>
      <trkpt lat="41.29342" lon="-0.49606">
        <time>2022-07-31T15:24:14Z</time>
      </trkpt>
      <trkpt lat="41.29333" lon="-0.4961">
        <time>2022-07-31T15:24:15Z</time>
      </trkpt>
      <trkpt lat="41.29322" lon="-0.49609">
        <time>2022-07-31T15:24:16Z</time>
      </trkpt>
      <trkpt lat="41.29313" lon="-0.49602">
        <time>2022-07-31T15:24:17Z</time>
      </trkpt>
      <trkpt lat="41.29304" lon="-0.49592">
        <time>2022-07-31T15:24:18Z</time>
      </trkpt>
      <trkpt lat="41.29296" lon="-0.49579">
        <time>2022-07-31T15:24:19Z</time>
      </trkpt>
      <trkpt lat="41.29289" lon="-0.49566">
        <time>2022-07-31T15:24:20Z</time>
      </trkpt>
      <trkpt lat="41.2928" lon="-0.49557">
        <time>2022-07-31T15:24:21Z</time>
      </trkpt>
      <trkpt lat="41.29271" lon="-0.49551">
        <time>2022-07-31T15:24:22Z</time>
      </trkpt>
      <trkpt lat="41.29263" lon="-0.49548">
        <time>2022-07-31T15:24:23Z</time>
      </trkpt>
      <trkpt lat="41.29254" lon="-0.49545">
        <time>2022-07-31T15:24:24Z</time>
      </trkpt>
      <trkpt lat="41.29247" lon="-0.49541">
        <time>2022-07-31T15:24:25Z</time>
      </trkpt>
      <trkpt lat="41.29239" lon="-0.49534">
        <time>2022-07-31T15:24:26Z</time>
      </trkpt>
      <trkpt lat="41.29231" lon="-0.49525">
        <time>2022-07-31T15:24:27Z</time>
      </trkpt>
      <trkpt lat="41.29224" lon="-0.49515">
        <time>2022-07-31T15:24:28Z</time>
      </trkpt>
      <trkpt lat="41.29218" lon="-0.49505">
        <time>2022-07-31T15:24:29Z</time>
      </trkpt>
      <trkpt lat="41.29212" lon="-0.49495">
        <time>2022-07-31T15:24:30Z</time>
      </trkpt>
      <trkpt lat="41.29207" lon="-0.49487">
        <time>2022-07-31T15:24:31Z</time>
      </trkpt>
      <trkpt lat="41.29201" lon="-0.49478">
        <time>2022-07-31T15:24:32Z</time>
      </trkpt>
      <trkpt lat="41.29196" lon="-0.49468">
        <time>2022-07-31T15:24:33Z</time>
      </trkpt>
      <trkpt lat="41.29191" lon="-0.4946">
        <time>2022-07-31T15:24:34Z</time>
      </trkpt>
      <trkpt lat="41.29185" lon="-0.49453">
        <time>2022-07-31T15:24:35Z</time>
      </trkpt>
      <trkpt lat="41.29179" lon="-0.49448">
        <time>2022-07-31T15:24:36Z</time>
      </trkpt>
      <trkpt lat="41.29172" lon="-0.49445">
        <time>2022-07-31T15:24:37Z</time>
      </trkpt>
      <trkpt lat="41.29165" lon="-0.49444">
        <time>2022-07-31T15:24:38Z</time>
      </trkpt>
      <trkpt lat="41.29157" lon="-0.49446">
        <time>2022-07-31T15:24:39Z</time>
      </trkpt>
      <trkpt lat="41.2915" lon="-0.49449">
        <time>2022-07-31T15:24:40Z</time>
      </trkpt>
      <trkpt lat="41.29143" lon="-0.49454">
        <time>2022-07-31T15:24:41Z</time>
      </trkpt>
      <trkpt lat="41.29136" lon="-0.49459">
        <time>2022-07-31T15:24:42Z</time>
      </trkpt>
      <trkpt lat="41.29129" lon="-0.49463">
        <time>2022-07-31T15:24:43Z</time>
      </trkpt>
      <trkpt lat="41.29121" lon="-0.49466">
        <time>2022-07-31T15:24:44Z</time>
      </trkpt>
      <trkpt lat="41.29114" lon="-0.49465">
        <time>2022-07-31T15:24:45Z</time>
      </trkpt>
      <trkpt lat="41.29108" lon="-0.49461">
        <time>2022-07-31T15:24:46Z</time>
      </trkpt>
      <trkpt lat="41.29103" lon="-0.49453">
        <time>2022-07-31T15:24:47Z</time>
      </trkpt>
      <trkpt lat="41.29099" lon="-0.49445">
        <time>2022-07-31T15:24:48Z</time>
      </trkpt>
      <trkpt lat="41.29097" lon="-0.49436">
        <time>2022-07-31T15:24:49Z</time>
      </trkpt>
      <trkpt lat="41.29094" lon="-0.49427">
        <time>2022-07-31T15:24:50Z</time>
      </trkpt>
      <trkpt lat="41.2909" lon="-0.49419">
        <time>2022-07-31T15:24:51Z</time>
      </trkpt>
      <trkpt lat="41.29085" lon="-0.49412">
        <time>2022-07-31T15:24:52Z</time>
      </trkpt>
      <trkpt lat="41.29078" lon="-0.49406">
        <time>2022-07-31T15:24:53Z</time>
      </trkpt>
      <trkpt lat="41.29069" lon="-0.49401">
        <time>2022-07-31T15:24:54Z</time>
      </trkpt>
      <trkpt lat="41.2906" lon="-0.49397">
        <time>2022-07-31T15:24:55Z</time>
      </trkpt>
      <trkpt lat="41.29051" lon="-0.49393">
        <time>2022-07-31T15:24:56Z</time>
      </trkpt>
      <trkpt lat="41.29041" lon="-0.49389">
        <time>2022-07-31T15:24:57Z</time>
      </trkpt>
      <trkpt lat="41.29031" lon="-0.49385">
        <time>2022-07-31T15:24:58Z</time>
      </trkpt>
      <trkpt lat="41.29021" lon="-0.49379">
        <time>2022-07-31T15:24:59Z</time>
      </trkpt>
      <trkpt lat="41.2901" lon="-0.49374">
        <time>2022-07-31T15:25:00Z</time>
      </trkpt>
      <trkpt lat="41.28999" lon="-0.49369">
        <time>2022-07-31T15:25:01Z</time>
      </trkpt>
      <trkpt lat="41.28988" lon="-0.49364">
        <time>2022-07-31T15:25:02Z</time>
      </trkpt>
      <trkpt lat="41.28976" lon="-0.49359">
        <time>2022-07-31T15:25:03Z</time>
      </trkpt>
      <trkpt lat="41.28965" lon="-0.49354">
        <time>2022-07-31T15:25:04Z</time>
      </trkpt>
      <trkpt lat="41.28953" lon="-0.49349">
        <time>2022-07-31T15:25:05Z</time>
      </trkpt>
      <trkpt lat="41.2894" lon="-0.49344">
        <time>2022-07-31T15:25:06Z</time>
      </trkpt>
      <trkpt lat="41.28926" lon="-0.49338">
        <time>2022-07-31T15:25:07Z</time>
      </trkpt>
      <trkpt lat="41.2891" lon="-0.4933">
        <time>2022-07-31T15:25:08Z</time>
      </trkpt>
      <trkpt lat="41.28893" lon="-0.49322">
        <time>2022-07-31T15:25:09Z</time>
      </trkpt>
      <trkpt lat="41.28872" lon="-0.49314">
        <time>2022-07-31T15:25:10Z</time>
      </trkpt>
      <trkpt lat="41.2885" lon="-0.49304">
        <time>2022-07-31T15:25:11Z</time>
      </trkpt>
      <trkpt lat="41.28827" lon="-0.49293">
        <time>2022-07-31T15:25:12Z</time>
      </trkpt>
      <trkpt lat="41.28802" lon="-0.4928">
        <time>2022-07-31T15:25:13Z</time>
      </trkpt>
      <trkpt lat="41.28777" lon="-0.49265">
        <time>2022-07-31T15:25:14Z</time>
      </trkpt>
      <trkpt lat="41.28751" lon="-0.49248">
        <time>2022-07-31T15:25:15Z</time>
      </trkpt>
      <trkpt lat="41.28725" lon="-0.49228">
        <time>2022-07-31T15:25:16Z</time>
      </trkpt>
      <trkpt lat="41.28698" lon="-0.49205">
        <time>2022-07-31T15:25:17Z</time>
      </trkpt>
      <trkpt lat="41.28672" lon="-0.4918">
        <time>2022-07-31T15:25:18Z</time>
      </trkpt>
      <trkpt lat="41.28647" lon="-0.49155">
        <time>2022-07-31T15:25:19Z</time>
      </trkpt>
      <trkpt lat="41.28621" lon="-0.49129">
        <time>2022-07-31T15:25:20Z</time>
      </trkpt>
      <trkpt lat="41.28595" lon="-0.49102">
        <time>2022-07-31T15:25:21Z</time>
      </trkpt>
      <trkpt lat="41.2857" lon="-0.49076">
        <time>2022-07-31T15:25:22Z</time>
      </trkpt>
      <trkpt lat="41.28545" lon="-0.49051">
        <time>2022-07-31T15:25:23Z</time>
      </trkpt>
      <trkpt lat="41.2852" lon="-0.49027">
        <time>2022-07-31T15:25:24Z</time>
      </trkpt>
      <trkpt lat="41.28496" lon="-0.49003">
        <time>2022-07-31T15:25:25Z</time>
      </trkpt>
      <trkpt lat="41.28471" lon="-0.4898">
        <time>2022-07-31T15:25:26Z</time>
      </trkpt>
      <trkpt lat="41.28446" lon="-0.48961">
        <time>2022-07-31T15:25:27Z</time>
      </trkpt>
      <trkpt lat="41.2842" lon="-0.48942">
        <time>2022-07-31T15:25:28Z</time>
      </trkpt>
      <trkpt lat="41.28392" lon="-0.48927">
        <time>2022-07-31T15:25:29Z</time>
      </trkpt>
      <trkpt lat="41.28363" lon="-0.48913">
        <time>2022-07-31T15:25:30Z</time>
      </trkpt>
      <trkpt lat="41.28334" lon="-0.489">
        <time>2022-07-31T15:25:31Z</time>
      </trkpt>
      <trkpt lat="41.28303" lon="-0.48888">
        <time>2022-07-31T15:25:32Z</time>
      </trkpt>
      <trkpt lat="41.28273" lon="-0.48875">
        <time>2022-07-31T15:25:33Z</time>
      </trkpt>
      <trkpt lat="41.28241" lon="-0.48863">
        <time>2022-07-31T15:25:34Z</time>
      </trkpt>
      <trkpt lat="41.2821" lon="-0.4885">
        <time>2022-07-31T15:25:35Z</time>
      </trkpt>
      <trkpt lat="41.28178" lon="-0.48838">
        <time>2022-07-31T15:25:36Z</time>
      </trkpt>
      <trkpt lat="41.28145" lon="-0.48825">
        <time>2022-07-31T15:25:37Z</time>
      </trkpt>
      <trkpt lat="41.28113" lon="-0.48812">
        <time>2022-07-31T15:25:38Z</time>
      </trkpt>
      <trkpt lat="41.28081" lon="-0.488">
        <time>2022-07-31T15:25:39Z</time>
      </trkpt>
      <trkpt lat="41.28048" lon="-0.48787">
        <time>2022-07-31T15:25:40Z</time>
      </trkpt>
      <trkpt lat="41.28016" lon="-0.48774">
        <time>2022-07-31T15:25:41Z</time>
      </trkpt>
      <trkpt lat="41.27983" lon="-0.48761">
        <time>2022-07-31T15:25:42Z</time>
      </trkpt>
      <trkpt lat="41.2795" lon="-0.48749">
        <time>2022-07-31T15:25:43Z</time>
      </trkpt>
      <trkpt lat="41.27918" lon="-0.48736">
        <time>2022-07-31T15:25:44Z</time>
      </trkpt>
      <trkpt lat="41.27885" lon="-0.48723">
        <time>2022-07-31T15:25:45Z</time>
      </trkpt>
      <trkpt lat="41.27852" lon="-0.48709">
        <time>2022-07-31T15:25:46Z</time>
      </trkpt>
      <trkpt lat="41.27819" lon="-0.48696">
        <time>2022-07-31T15:25:47Z</time>
      </trkpt>
      <trkpt lat="41.27786" lon="-0.48684">
        <time>2022-07-31T15:25:48Z</time>
      </trkpt>
      <trkpt lat="41.27754" lon="-0.48671">
        <time>2022-07-31T15:25:49Z</time>
      </trkpt>
      <trkpt lat="41.27722" lon="-0.48658">
        <time>2022-07-31T15:25:50Z</time>
      </trkpt>
      <trkpt lat="41.2769" lon="-0.48646">
        <time>2022-07-31T15:25:51Z</time>
      </trkpt>
      <trkpt lat="41.27659" lon="-0.48633">
        <time>2022-07-31T15:25:52Z</time>
      </trkpt>
      <trkpt lat="41.27628" lon="-0.4862">
        <time>2022-07-31T15:25:53Z</time>
      </trkpt>
      <trkpt lat="41.27598" lon="-0.48606">
        <time>2022-07-31T15:25:54Z</time>
      </trkpt>
      <trkpt lat="41.27568" lon="-0.48593">
        <time>2022-07-31T15:25:55Z</time>
      </trkpt>
      <trkpt lat="41.27539" lon="-0.48579">
        <time>2022-07-31T15:25:56Z</time>
      </trkpt>
      <trkpt lat="41.2751" lon="-0.48565">
        <time>2022-07-31T15:25:57Z</time>
      </trkpt>
      <trkpt lat="41.27482" lon="-0.48552">
        <time>2022-07-31T15:25:58Z</time>
      </trkpt>
      <trkpt lat="41.27455" lon="-0.48539">
        <time>2022-07-31T15:25:59Z</time>
      </trkpt>
      <trkpt lat="41.27429" lon="-0.48527">
        <time>2022-07-31T15:26:00Z</time>
      </trkpt>
      <trkpt lat="41.27403" lon="-0.48514">
        <time>2022-07-31T15:26:01Z</time>
      </trkpt>
      <trkpt lat="41.27379" lon="-0.48503">
        <time>2022-07-31T15:26:02Z</time>
      </trkpt>
      <trkpt lat="41.27354" lon="-0.48491">
        <time>2022-07-31T15:26:03Z</time>
      </trkpt>
      <trkpt lat="41.27329" lon="-0.48479">
        <time>2022-07-31T15:26:04Z</time>
      </trkpt>
      <trkpt lat="41.27304" lon="-0.48468">
        <time>2022-07-31T15:26:05Z</time>
      </trkpt>
      <trkpt lat="41.27279" lon="-0.4846">
        <time>2022-07-31T15:26:06Z</time>
      </trkpt>
      <trkpt lat="41.27252" lon="-0.48452">
        <time>2022-07-31T15:26:07Z</time>
      </trkpt>
      <trkpt lat="41.27223" lon="-0.48446">
        <time>2022-07-31T15:26:08Z</time>
      </trkpt>
      <trkpt lat="41.27193" lon="-0.48443">
        <time>2022-07-31T15:26:09Z</time>
      </trkpt>
      <trkpt lat="41.27161" lon="-0.4844">
        <time>2022-07-31T15:26:10Z</time>
      </trkpt>
      <trkpt lat="41.27128" lon="-0.48439">
        <time>2022-07-31T15:26:11Z</time>
      </trkpt>
      <trkpt lat="41.27094" lon="-0.48439">
        <time>2022-07-31T15:26:12Z</time>
      </trkpt>
      <trkpt lat="41.27059" lon="-0.48438">
        <time>2022-07-31T15:26:13Z</time>
      </trkpt>
      <trkpt lat="41.27024" lon="-0.48435">
        <time>2022-07-31T15:26:14Z</time>
      </trkpt>
      <trkpt lat="41.26988" lon="-0.48433">
        <time>2022-07-31T15:26:15Z</time>
      </trkpt>
      <trkpt lat="41.26952" lon="-0.4843">
        <time>2022-07-31T15:26:16Z</time>
      </trkpt>
      <trkpt lat="41.26916" lon="-0.48428">
        <time>2022-07-31T15:26:17Z</time>
      </trkpt>
      <trkpt lat="41.26879" lon="-0.48425">
        <time>2022-07-31T15:26:18Z</time>
      </trkpt>
      <trkpt lat="41.26843" lon="-0.48422">
        <time>2022-07-31T15:26:19Z</time>
      </trkpt>
      <trkpt lat="41.26806" lon="-0.48419">
        <time>2022-07-31T15:26:20Z</time>
      </trkpt>
      <trkpt lat="41.2677" lon="-0.48417">
        <time>2022-07-31T15:26:21Z</time>
      </trkpt>
      <trkpt lat="41.26734" lon="-0.48414">
        <time>2022-07-31T15:26:22Z</time>
      </trkpt>
      <trkpt lat="41.26699" lon="-0.48411">
        <time>2022-07-31T15:26:23Z</time>
      </trkpt>
      <trkpt lat="41.26663" lon="-0.48409">
        <time>2022-07-31T15:26:24Z</time>
      </trkpt>
      <trkpt lat="41.26628" lon="-0.48407">
        <time>2022-07-31T15:26:25Z</time>
      </trkpt>
      <trkpt lat="41.26594" lon="-0.48404">
        <time>2022-07-31T15:26:26Z</time>
      </trkpt>
      <trkpt lat="41.26559" lon="-0.484">
        <time>2022-07-31T15:26:27Z</time>
      </trkpt>
      <trkpt lat="41.26525" lon="-0.48398">
        <time>2022-07-31T15:26:28Z</time>
      </trkpt>
      <trkpt lat="41.26491" lon="-0.48395">
        <time>2022-07-31T15:26:29Z</time>
      </trkpt>
      <trkpt lat="41.26457" lon="-0.48393">
        <time>2022-07-31T15:26:30Z</time>
      </trkpt>
      <trkpt lat="41.26424" lon="-0.4839">
        <time>2022-07-31T15:26:31Z</time>
      </trkpt>
      <trkpt lat="41.26392" lon="-0.48386">
        <time>2022-07-31T15:26:32Z</time>
      </trkpt>
      <trkpt lat="41.26359" lon="-0.48381">
        <time>2022-07-31T15:26:33Z</time>
      </trkpt>
      <trkpt lat="41.26328" lon="-0.48374">
        <time>2022-07-31T15:26:34Z</time>
      </trkpt>
      <trkpt lat="41.26296" lon="-0.48363">
        <time>2022-07-31T15:26:35Z</time>
      </trkpt>
      <trkpt lat="41.26266" lon="-0.48349">
        <time>2022-07-31T15:26:36Z</time>
      </trkpt>
      <trkpt lat="41.26236" lon="-0.48333">
        <time>2022-07-31T15:26:37Z</time>
      </trkpt>
      <trkpt lat="41.26206" lon="-0.48316">
        <time>2022-07-31T15:26:38Z</time>
      </trkpt>
      <trkpt lat="41.26176" lon="-0.48299">
        <time>2022-07-31T15:26:39Z</time>
      </trkpt>
      <trkpt lat="41.26146" lon="-0.48281">
        <time>2022-07-31T15:26:40Z</time>
      </trkpt>
      <trkpt lat="41.26116" lon="-0.48263">
        <time>2022-07-31T15:26:41Z</time>
      </trkpt>
      <trkpt lat="41.26086" lon="-0.48246">
        <time>2022-07-31T15:26:42Z</time>
      </trkpt>
      <trkpt lat="41.26055" lon="-0.48228">
        <time>2022-07-31T15:26:43Z</time>
      </trkpt>
      <trkpt lat="41.26025" lon="-0.48211">
        <time>2022-07-31T15:26:44Z</time>
      </trkpt>
      <trkpt lat="41.25994" lon="-0.48195">
        <time>2022-07-31T15:26:45Z</time>
      </trkpt>
      <trkpt lat="41.25963" lon="-0.48179">
        <time>2022-07-31T15:26:46Z</time>
      </trkpt>
      <trkpt lat="41.25931" lon="-0.48165">
        <time>2022-07-31T15:26:47Z</time>
      </trkpt>
      <trkpt lat="41.25898" lon="-0.48153">
        <time>2022-07-31T15:26:48Z</time>
      </trkpt>
      <trkpt lat="41.25865" lon="-0.48142">
        <time>2022-07-31T15:26:49Z</time>
      </trkpt>
      <trkpt lat="41.25832" lon="-0.48132">
        <time>2022-07-31T15:26:50Z</time>
      </trkpt>
      <trkpt lat="41.25799" lon="-0.48122">
        <time>2022-07-31T15:26:51Z</time>
      </trkpt>
      <trkpt lat="41.25765" lon="-0.48113">
        <time>2022-07-31T15:26:52Z</time>
      </trkpt>
      <trkpt lat="41.25733" lon="-0.48104">
        <time>2022-07-31T15:26:53Z</time>
      </trkpt>
      <trkpt lat="41.25699" lon="-0.48094">
        <time>2022-07-31T15:26:54Z</time>
      </trkpt>
      <trkpt lat="41.25666" lon="-0.48084">
        <time>2022-07-31T15:26:55Z</time>
      </trkpt>
      <trkpt lat="41.25633" lon="-0.48074">
        <time>2022-07-31T15:26:56Z</time>
      </trkpt>
      <trkpt lat="41.256" lon="-0.48065">
        <time>2022-07-31T15:26:57Z</time>
      </trkpt>
      <trkpt lat="41.25566" lon="-0.48055">
        <time>2022-07-31T15:26:58Z</time>
      </trkpt>
      <trkpt lat="41.25534" lon="-0.48046">
        <time>2022-07-31T15:26:59Z</time>
      </trkpt>
      <trkpt lat="41.25501" lon="-0.48036">
        <time>2022-07-31T15:27:00Z</time>
      </trkpt>
      <trkpt lat="41.25469" lon="-0.48026">
        <time>2022-07-31T15:27:01Z</time>
      </trkpt>
      <trkpt lat="41.25436" lon="-0.48017">
        <time>2022-07-31T15:27:02Z</time>
      </trkpt>
      <trkpt lat="41.25403" lon="-0.48007">
        <time>2022-07-31T15:27:03Z</time>
      </trkpt>
      <trkpt lat="41.2537" lon="-0.47998">
        <time>2022-07-31T15:27:04Z</time>
      </trkpt>
      <trkpt lat="41.25337" lon="-0.47989">
        <time>2022-07-31T15:27:05Z</time>
      </trkpt>
      <trkpt lat="41.25303" lon="-0.47979">
        <time>2022-07-31T15:27:06Z</time>
      </trkpt>
      <trkpt lat="41.2527" lon="-0.4797">
        <time>2022-07-31T15:27:07Z</time>
      </trkpt>
      <trkpt lat="41.25237" lon="-0.4796">
        <time>2022-07-31T15:27:08Z</time>
      </trkpt>
      <trkpt lat="41.25203" lon="-0.47951">
        <time>2022-07-31T15:27:09Z</time>
      </trkpt>
      <trkpt lat="41.25169" lon="-0.47941">
        <time>2022-07-31T15:27:10Z</time>
      </trkpt>
      <trkpt lat="41.25136" lon="-0.47931">
        <time>2022-07-31T15:27:11Z</time>
      </trkpt>
      <trkpt lat="41.25102" lon="-0.47921">
        <time>2022-07-31T15:27:12Z</time>
      </trkpt>
      <trkpt lat="41.25068" lon="-0.47912">
        <time>2022-07-31T15:27:13Z</time>
      </trkpt>
      <trkpt lat="41.25034" lon="-0.47902">
        <time>2022-07-31T15:27:14Z</time>
      </trkpt>
      <trkpt lat="41.25001" lon="-0.47892">
        <time>2022-07-31T15:27:15Z</time>
      </trkpt>
      <trkpt lat="41.24967" lon="-0.47882">
        <time>2022-07-31T15:27:16Z</time>
      </trkpt>
      <trkpt lat="41.24933" lon="-0.47872">
        <time>2022-07-31T15:27:17Z</time>
      </trkpt>
      <trkpt lat="41.249" lon="-0.47862">
        <time>2022-07-31T15:27:18Z</time>
      </trkpt>
      <trkpt lat="41.24867" lon="-0.47852">
        <time>2022-07-31T15:27:19Z</time>
      </trkpt>
      <trkpt lat="41.24833" lon="-0.47843">
        <time>2022-07-31T15:27:20Z</time>
      </trkpt>
      <trkpt lat="41.248" lon="-0.47833">
        <time>2022-07-31T15:27:21Z</time>
      </trkpt>
      <trkpt lat="41.24768" lon="-0.47824">
        <time>2022-07-31T15:27:22Z</time>
      </trkpt>
      <trkpt lat="41.24736" lon="-0.47814">
        <time>2022-07-31T15:27:23Z</time>
      </trkpt>
      <trkpt lat="41.24704" lon="-0.47804">
        <time>2022-07-31T15:27:24Z</time>
      </trkpt>
      <trkpt lat="41.24671" lon="-0.47795">
        <time>2022-07-31T15:27:25Z</time>
      </trkpt>
      <trkpt lat="41.24639" lon="-0.47786">
        <time>2022-07-31T15:27:26Z</time>
      </trkpt>
      <trkpt lat="41.24607" lon="-0.47776">
        <time>2022-07-31T15:27:27Z</time>
      </trkpt>
      <trkpt lat="41.24574" lon="-0.47767">
        <time>2022-07-31T15:27:28Z</time>
      </trkpt>
      <trkpt lat="41.24542" lon="-0.47757">
        <time>2022-07-31T15:27:29Z</time>
      </trkpt>
      <trkpt lat="41.2451" lon="-0.47747">
        <time>2022-07-31T15:27:30Z</time>
      </trkpt>
      <trkpt lat="41.24477" lon="-0.47738">
        <time>2022-07-31T15:27:31Z</time>
      </trkpt>
      <trkpt lat="41.24445" lon="-0.47728">
        <time>2022-07-31T15:27:32Z</time>
      </trkpt>
      <trkpt lat="41.24412" lon="-0.47718">
        <time>2022-07-31T15:27:33Z</time>
      </trkpt>
      <trkpt lat="41.2438" lon="-0.47709">
        <time>2022-07-31T15:27:34Z</time>
      </trkpt>
      <trkpt lat="41.24347" lon="-0.477">
        <time>2022-07-31T15:27:35Z</time>
      </trkpt>
      <trkpt lat="41.24314" lon="-0.4769">
        <time>2022-07-31T15:27:36Z</time>
      </trkpt>
      <trkpt lat="41.24282" lon="-0.4768">
        <time>2022-07-31T15:27:37Z</time>
      </trkpt>
      <trkpt lat="41.24249" lon="-0.4767">
        <time>2022-07-31T15:27:38Z</time>
      </trkpt>
      <trkpt lat="41.24216" lon="-0.47661">
        <time>2022-07-31T15:27:39Z</time>
      </trkpt>
      <trkpt lat="41.24183" lon="-0.4765">
        <time>2022-07-31T15:27:40Z</time>
      </trkpt>
      <trkpt lat="41.2415" lon="-0.4764">
        <time>2022-07-31T15:27:41Z</time>
      </trkpt>
      <trkpt lat="41.24118" lon="-0.47631">
        <time>2022-07-31T15:27:42Z</time>
      </trkpt>
      <trkpt lat="41.24085" lon="-0.47622">
        <time>2022-07-31T15:27:43Z</time>
      </trkpt>
      <trkpt lat="41.24053" lon="-0.47612">
        <time>2022-07-31T15:27:44Z</time>
      </trkpt>
      <trkpt lat="41.24021" lon="-0.47602">
        <time>2022-07-31T15:27:45Z</time>
      </trkpt>
      <trkpt lat="41.23988" lon="-0.47592">
        <time>2022-07-31T15:27:46Z</time>
      </trkpt>
      <trkpt lat="41.23956" lon="-0.47583">
        <time>2022-07-31T15:27:47Z</time>
      </trkpt>
      <trkpt lat="41.23924" lon="-0.47573">
        <time>2022-07-31T15:27:48Z</time>
      </trkpt>
      <trkpt lat="41.23892" lon="-0.47564">
        <time>2022-07-31T15:27:49Z</time>
      </trkpt>
      <trkpt lat="41.2386" lon="-0.47554">
        <time>2022-07-31T15:27:50Z</time>
      </trkpt>
      <trkpt lat="41.23828" lon="-0.47545">
        <time>2022-07-31T15:27:51Z</time>
      </trkpt>
      <trkpt lat="41.23796" lon="-0.47536">
        <time>2022-07-31T15:27:52Z</time>
      </trkpt>
      <trkpt lat="41.23764" lon="-0.47527">
        <time>2022-07-31T15:27:53Z</time>
      </trkpt>
      <trkpt lat="41.23732" lon="-0.47517">
        <time>2022-07-31T15:27:54Z</time>
      </trkpt>
      <trkpt lat="41.23701" lon="-0.47508">
        <time>2022-07-31T15:27:55Z</time>
      </trkpt>
      <trkpt lat="41.23669" lon="-0.47498">
        <time>2022-07-31T15:27:56Z</time>
      </trkpt>
      <trkpt lat="41.23638" lon="-0.47489">
        <time>2022-07-31T15:27:57Z</time>
      </trkpt>
      <trkpt lat="41.23606" lon="-0.4748">
        <time>2022-07-31T15:27:58Z</time>
      </trkpt>
      <trkpt lat="41.23575" lon="-0.47469">
        <time>2022-07-31T15:27:59Z</time>
      </trkpt>
      <trkpt lat="41.23543" lon="-0.47459">
        <time>2022-07-31T15:28:00Z</time>
      </trkpt>
      <trkpt lat="41.23511" lon="-0.4745">
        <time>2022-07-31T15:28:01Z</time>
      </trkpt>
      <trkpt lat="41.23479" lon="-0.4744">
        <time>2022-07-31T15:28:02Z</time>
      </trkpt>
      <trkpt lat="41.23447" lon="-0.47431">
        <time>2022-07-31T15:28:03Z</time>
      </trkpt>
      <trkpt lat="41.23415" lon="-0.47421">
        <time>2022-07-31T15:28:04Z</time>
      </trkpt>
      <trkpt lat="41.23383" lon="-0.47412">
        <time>2022-07-31T15:28:05Z</time>
      </trkpt>
      <trkpt lat="41.23352" lon="-0.47403">
        <time>2022-07-31T15:28:06Z</time>
      </trkpt>
      <trkpt lat="41.2332" lon="-0.47393">
        <time>2022-07-31T15:28:07Z</time>
      </trkpt>
      <trkpt lat="41.23288" lon="-0.47384">
        <time>2022-07-31T15:28:08Z</time>
      </trkpt>
      <trkpt lat="41.23256" lon="-0.47374">
        <time>2022-07-31T15:28:09Z</time>
      </trkpt>
      <trkpt lat="41.23225" lon="-0.47364">
        <time>2022-07-31T15:28:10Z</time>
      </trkpt>
      <trkpt lat="41.23192" lon="-0.47354">
        <time>2022-07-31T15:28:11Z</time>
      </trkpt>
      <trkpt lat="41.23161" lon="-0.47344">
        <time>2022-07-31T15:28:12Z</time>
      </trkpt>
      <trkpt lat="41.23128" lon="-0.47334">
        <time>2022-07-31T15:28:13Z</time>
      </trkpt>
      <trkpt lat="41.23096" lon="-0.47324">
        <time>2022-07-31T15:28:14Z</time>
      </trkpt>
      <trkpt lat="41.23063" lon="-0.47314">
        <time>2022-07-31T15:28:15Z</time>
      </trkpt>
      <trkpt lat="41.23031" lon="-0.47304">
        <time>2022-07-31T15:28:16Z</time>
      </trkpt>
      <trkpt lat="41.22999" lon="-0.47294">
        <time>2022-07-31T15:28:17Z</time>
      </trkpt>
      <trkpt lat="41.22967" lon="-0.47284">
        <time>2022-07-31T15:28:18Z</time>
      </trkpt>
      <trkpt lat="41.22935" lon="-0.47275">
        <time>2022-07-31T15:28:19Z</time>
      </trkpt>
      <trkpt lat="41.22904" lon="-0.47265">
        <time>2022-07-31T15:28:20Z</time>
      </trkpt>
      <trkpt lat="41.22872" lon="-0.47255">
        <time>2022-07-31T15:28:21Z</time>
      </trkpt>
      <trkpt lat="41.22841" lon="-0.47246">
        <time>2022-07-31T15:28:22Z</time>
      </trkpt>
      <trkpt lat="41.2281" lon="-0.47236">
        <time>2022-07-31T15:28:23Z</time>
      </trkpt>
      <trkpt lat="41.22779" lon="-0.47226">
        <time>2022-07-31T15:28:24Z</time>
      </trkpt>
      <trkpt lat="41.22747" lon="-0.47217">
        <time>2022-07-31T15:28:25Z</time>
      </trkpt>
      <trkpt lat="41.22716" lon="-0.47208">
        <time>2022-07-31T15:28:26Z</time>
      </trkpt>
      <trkpt lat="41.22685" lon="-0.47198">
        <time>2022-07-31T15:28:27Z</time>
      </trkpt>
      <trkpt lat="41.22654" lon="-0.47189">
        <time>2022-07-31T15:28:28Z</time>
      </trkpt>
      <trkpt lat="41.22622" lon="-0.47179">
        <time>2022-07-31T15:28:29Z</time>
      </trkpt>
      <trkpt lat="41.22591" lon="-0.4717">
        <time>2022-07-31T15:28:30Z</time>
      </trkpt>
      <trkpt lat="41.22559" lon="-0.4716">
        <time>2022-07-31T15:28:31Z</time>
      </trkpt>
      <trkpt lat="41.22528" lon="-0.4715">
        <time>2022-07-31T15:28:32Z</time>
      </trkpt>
      <trkpt lat="41.22497" lon="-0.47141">
        <time>2022-07-31T15:28:33Z</time>
      </trkpt>
      <trkpt lat="41.22466" lon="-0.47131">
        <time>2022-07-31T15:28:34Z</time>
      </trkpt>
      <trkpt lat="41.22435" lon="-0.47122">
        <time>2022-07-31T15:28:35Z</time>
      </trkpt>
      <trkpt lat="41.22404" lon="-0.47112">
        <time>2022-07-31T15:28:36Z</time>
      </trkpt>
      <trkpt lat="41.22374" lon="-0.47103">
        <time>2022-07-31T15:28:37Z</time>
      </trkpt>
      <trkpt lat="41.22343" lon="-0.47094">
        <time>2022-07-31T15:28:38Z</time>
      </trkpt>
      <trkpt lat="41.22312" lon="-0.47085">
        <time>2022-07-31T15:28:39Z</time>
      </trkpt>
      <trkpt lat="41.22281" lon="-0.47075">
        <time>2022-07-31T15:28:40Z</time>
      </trkpt>
      <trkpt lat="41.2225" lon="-0.47066">
        <time>2022-07-31T15:28:41Z</time>
      </trkpt>
      <trkpt lat="41.22219" lon="-0.47056">
        <time>2022-07-31T15:28:42Z</time>
      </trkpt>
      <trkpt lat="41.22189" lon="-0.47047">
        <time>2022-07-31T15:28:43Z</time>
      </trkpt>
      <trkpt lat="41.22157" lon="-0.47038">
        <time>2022-07-31T15:28:44Z</time>
      </trkpt>
      <trkpt lat="41.22126" lon="-0.47028">
        <time>2022-07-31T15:28:45Z</time>
      </trkpt>
      <trkpt lat="41.22095" lon="-0.47019">
        <time>2022-07-31T15:28:46Z</time>
      </trkpt>
      <trkpt lat="41.22064" lon="-0.47009">
        <time>2022-07-31T15:28:47Z</time>
      </trkpt>
      <trkpt lat="41.22033" lon="-0.47">
        <time>2022-07-31T15:28:48Z</time>
      </trkpt>
      <trkpt lat="41.22003" lon="-0.46991">
        <time>2022-07-31T15:28:49Z</time>
      </trkpt>
      <trkpt lat="41.21972" lon="-0.4698">
        <time>2022-07-31T15:28:50Z</time>
      </trkpt>
      <trkpt lat="41.21941" lon="-0.46971">
        <time>2022-07-31T15:28:51Z</time>
      </trkpt>
      <trkpt lat="41.21911" lon="-0.46962">
        <time>2022-07-31T15:28:52Z</time>
      </trkpt>
      <trkpt lat="41.21881" lon="-0.46953">
        <time>2022-07-31T15:28:53Z</time>
      </trkpt>
      <trkpt lat="41.2185" lon="-0.46944">
        <time>2022-07-31T15:28:54Z</time>
      </trkpt>
      <trkpt lat="41.2182" lon="-0.46935">
        <time>2022-07-31T15:28:55Z</time>
      </trkpt>
      <trkpt lat="41.2179" lon="-0.46927">
        <time>2022-07-31T15:28:56Z</time>
      </trkpt>
      <trkpt lat="41.21761" lon="-0.46919">
        <time>2022-07-31T15:28:57Z</time>
      </trkpt>
      <trkpt lat="41.21731" lon="-0.46911">
        <time>2022-07-31T15:28:58Z</time>
      </trkpt>
      <trkpt lat="41.21702" lon="-0.46903">
        <time>2022-07-31T15:28:59Z</time>
      </trkpt>
      <trkpt lat="41.21673" lon="-0.46895">
        <time>2022-07-31T15:29:00Z</time>
      </trkpt>
      <trkpt lat="41.21644" lon="-0.46887">
        <time>2022-07-31T15:29:01Z</time>
      </trkpt>
      <trkpt lat="41.21616" lon="-0.46878">
        <time>2022-07-31T15:29:02Z</time>
      </trkpt>
      <trkpt lat="41.21587" lon="-0.4687">
        <time>2022-07-31T15:29:03Z</time>
      </trkpt>
      <trkpt lat="41.21559" lon="-0.46861">
        <time>2022-07-31T15:29:04Z</time>
      </trkpt>
      <trkpt lat="41.21533" lon="-0.46852">
        <time>2022-07-31T15:29:05Z</time>
      </trkpt>
      <trkpt lat="41.21507" lon="-0.46844">
        <time>2022-07-31T15:29:06Z</time>
      </trkpt>
      <trkpt lat="41.21482" lon="-0.46836">
        <time>2022-07-31T15:29:07Z</time>
      </trkpt>
      <trkpt lat="41.21459" lon="-0.46828">
        <time>2022-07-31T15:29:08Z</time>
      </trkpt>
      <trkpt lat="41.21435" lon="-0.46821">
        <time>2022-07-31T15:29:09Z</time>
      </trkpt>
      <trkpt lat="41.21411" lon="-0.46813">
        <time>2022-07-31T15:29:10Z</time>
      </trkpt>
      <trkpt lat="41.21387" lon="-0.46805">
        <time>2022-07-31T15:29:11Z</time>
      </trkpt>
      <trkpt lat="41.21363" lon="-0.46797">
        <time>2022-07-31T15:29:12Z</time>
      </trkpt>
      <trkpt lat="41.21339" lon="-0.46789">
        <time>2022-07-31T15:29:13Z</time>
      </trkpt>
      <trkpt lat="41.21316" lon="-0.46781">
        <time>2022-07-31T15:29:14Z</time>
      </trkpt>
      <trkpt lat="41.21293" lon="-0.46773">
        <time>2022-07-31T15:29:15Z</time>
      </trkpt>
      <trkpt lat="41.21271" lon="-0.46765">
        <time>2022-07-31T15:29:16Z</time>
      </trkpt>
      <trkpt lat="41.21249" lon="-0.46758">
        <time>2022-07-31T15:29:17Z</time>
      </trkpt>
      <trkpt lat="41.21228" lon="-0.4675">
        <time>2022-07-31T15:29:18Z</time>
      </trkpt>
      <trkpt lat="41.21207" lon="-0.46742">
        <time>2022-07-31T15:29:19Z</time>
      </trkpt>
      <trkpt lat="41.21186" lon="-0.46735">
        <time>2022-07-31T15:29:20Z</time>
      </trkpt>
      <trkpt lat="41.21165" lon="-0.46727">
        <time>2022-07-31T15:29:21Z</time>
      </trkpt>
      <trkpt lat="41.21145" lon="-0.46719">
        <time>2022-07-31T15:29:22Z</time>
      </trkpt>
      <trkpt lat="41.21124" lon="-0.46711">
        <time>2022-07-31T15:29:23Z</time>
      </trkpt>
      <trkpt lat="41.21103" lon="-0.46703">
        <time>2022-07-31T15:29:24Z</time>
      </trkpt>
      <trkpt lat="41.21082" lon="-0.46694">
        <time>2022-07-31T15:29:25Z</time>
      </trkpt>
      <trkpt lat="41.2106" lon="-0.46685">
        <time>2022-07-31T15:29:26Z</time>
      </trkpt>
      <trkpt lat="41.21037" lon="-0.46676">
        <time>2022-07-31T15:29:27Z</time>
      </trkpt>
      <trkpt lat="41.21014" lon="-0.46667">
        <time>2022-07-31T15:29:28Z</time>
      </trkpt>
      <trkpt lat="41.2099" lon="-0.46658">
        <time>2022-07-31T15:29:29Z</time>
      </trkpt>
      <trkpt lat="41.20966" lon="-0.46649">
        <time>2022-07-31T15:29:30Z</time>
      </trkpt>
      <trkpt lat="41.20941" lon="-0.4664">
        <time>2022-07-31T15:29:31Z</time>
      </trkpt>
      <trkpt lat="41.20917" lon="-0.46632">
        <time>2022-07-31T15:29:32Z</time>
      </trkpt>
      <trkpt lat="41.20892" lon="-0.46623">
        <time>2022-07-31T15:29:33Z</time>
      </trkpt>
      <trkpt lat="41.20866" lon="-0.46614">
        <time>2022-07-31T15:29:34Z</time>
      </trkpt>
      <trkpt lat="41.2084" lon="-0.46605">
        <time>2022-07-31T15:29:35Z</time>
      </trkpt>
      <trkpt lat="41.20815" lon="-0.46595">
        <time>2022-07-31T15:29:36Z</time>
      </trkpt>
      <trkpt lat="41.20788" lon="-0.46585">
        <time>2022-07-31T15:29:37Z</time>
      </trkpt>
      <trkpt lat="41.20761" lon="-0.46575">
        <time>2022-07-31T15:29:38Z</time>
      </trkpt>
      <trkpt lat="41.20734" lon="-0.46566">
        <time>2022-07-31T15:29:39Z</time>
      </trkpt>
      <trkpt lat="41.20706" lon="-0.46556">
        <time>2022-07-31T15:29:40Z</time>
      </trkpt>
      <trkpt lat="41.20679" lon="-0.46545">
        <time>2022-07-31T15:29:41Z</time>
      </trkpt>
      <trkpt lat="41.20651" lon="-0.46536">
        <time>2022-07-31T15:29:42Z</time>
      </trkpt>
      <trkpt lat="41.20624" lon="-0.46526">
        <time>2022-07-31T15:29:43Z</time>
      </trkpt>
      <trkpt lat="41.20597" lon="-0.46517">
        <time>2022-07-31T15:29:44Z</time>
      </trkpt>
      <trkpt lat="41.20569" lon="-0.46508">
        <time>2022-07-31T15:29:45Z</time>
      </trkpt>
      <trkpt lat="41.20542" lon="-0.46499">
        <time>2022-07-31T15:29:46Z</time>
      </trkpt>
      <trkpt lat="41.20514" lon="-0.46489">
        <time>2022-07-31T15:29:47Z</time>
      </trkpt>
      <trkpt lat="41.20487" lon="-0.46481">
        <time>2022-07-31T15:29:48Z</time>
      </trkpt>
      <trkpt lat="41.2046" lon="-0.46472">
        <time>2022-07-31T15:29:49Z</time>
      </trkpt>
      <trkpt lat="41.20432" lon="-0.46464">
        <time>2022-07-31T15:29:50Z</time>
      </trkpt>
      <trkpt lat="41.20405" lon="-0.46455">
        <time>2022-07-31T15:29:51Z</time>
      </trkpt>
      <trkpt lat="41.20377" lon="-0.46447">
        <time>2022-07-31T15:29:52Z</time>
      </trkpt>
      <trkpt lat="41.2035" lon="-0.46439">
        <time>2022-07-31T15:29:53Z</time>
      </trkpt>
      <trkpt lat="41.20323" lon="-0.46431">
        <time>2022-07-31T15:29:54Z</time>
      </trkpt>
      <trkpt lat="41.20296" lon="-0.46423">
        <time>2022-07-31T15:29:55Z</time>
      </trkpt>
      <trkpt lat="41.20268" lon="-0.46414">
        <time>2022-07-31T15:29:56Z</time>
      </trkpt>
      <trkpt lat="41.20241" lon="-0.46406">
        <time>2022-07-31T15:29:57Z</time>
      </trkpt>
      <trkpt lat="41.20214" lon="-0.46398">
        <time>2022-07-31T15:29:58Z</time>
      </trkpt>
      <trkpt lat="41.20187" lon="-0.4639">
        <time>2022-07-31T15:29:59Z</time>
      </trkpt>
      <trkpt lat="41.2016" lon="-0.46381">
        <time>2022-07-31T15:30:00Z</time>
      </trkpt>
      <trkpt lat="41.20133" lon="-0.46373">
        <time>2022-07-31T15:30:01Z</time>
      </trkpt>
      <trkpt lat="41.20106" lon="-0.46366">
        <time>2022-07-31T15:30:02Z</time>
      </trkpt>
      <trkpt lat="41.20079" lon="-0.46358">
        <time>2022-07-31T15:30:03Z</time>
      </trkpt>
      <trkpt lat="41.20052" lon="-0.46349">
        <time>2022-07-31T15:30:04Z</time>
      </trkpt>
      <trkpt lat="41.20025" lon="-0.46341">
        <time>2022-07-31T15:30:05Z</time>
      </trkpt>
      <trkpt lat="41.19998" lon="-0.46333">
        <time>2022-07-31T15:30:06Z</time>
      </trkpt>
      <trkpt lat="41.19971" lon="-0.46324">
        <time>2022-07-31T15:30:07Z</time>
      </trkpt>
      <trkpt lat="41.19943" lon="-0.46316">
        <time>2022-07-31T15:30:08Z</time>
      </trkpt>
      <trkpt lat="41.19915" lon="-0.46307">
        <time>2022-07-31T15:30:09Z</time>
      </trkpt>
      <trkpt lat="41.19888" lon="-0.46299">
        <time>2022-07-31T15:30:10Z</time>
      </trkpt>
      <trkpt lat="41.1986" lon="-0.4629">
        <time>2022-07-31T15:30:11Z</time>
      </trkpt>
      <trkpt lat="41.19831" lon="-0.46282">
        <time>2022-07-31T15:30:12Z</time>
      </trkpt>
      <trkpt lat="41.19803" lon="-0.46273">
        <time>2022-07-31T15:30:13Z</time>
      </trkpt>
      <trkpt lat="41.19775" lon="-0.46264">
        <time>2022-07-31T15:30:14Z</time>
      </trkpt>
      <trkpt lat="41.19746" lon="-0.46256">
        <time>2022-07-31T15:30:15Z</time>
      </trkpt>
      <trkpt lat="41.19718" lon="-0.46248">
        <time>2022-07-31T15:30:16Z</time>
      </trkpt>
      <trkpt lat="41.19689" lon="-0.46239">
        <time>2022-07-31T15:30:17Z</time>
      </trkpt>
      <trkpt lat="41.19661" lon="-0.46231">
        <time>2022-07-31T15:30:18Z</time>
      </trkpt>
      <trkpt lat="41.19632" lon="-0.46222">
        <time>2022-07-31T15:30:19Z</time>
      </trkpt>
      <trkpt lat="41.19603" lon="-0.46213">
        <time>2022-07-31T15:30:20Z</time>
      </trkpt>
      <trkpt lat="41.19575" lon="-0.46205">
        <time>2022-07-31T15:30:21Z</time>
      </trkpt>
      <trkpt lat="41.19547" lon="-0.46196">
        <time>2022-07-31T15:30:22Z</time>
      </trkpt>
      <trkpt lat="41.1952" lon="-0.46187">
        <time>2022-07-31T15:30:23Z</time>
      </trkpt>
      <trkpt lat="41.19493" lon="-0.46179">
        <time>2022-07-31T15:30:24Z</time>
      </trkpt>
      <trkpt lat="41.19466" lon="-0.46171">
        <time>2022-07-31T15:30:25Z</time>
      </trkpt>
      <trkpt lat="41.19439" lon="-0.46163">
        <time>2022-07-31T15:30:26Z</time>
      </trkpt>
      <trkpt lat="41.19411" lon="-0.46155">
        <time>2022-07-31T15:30:27Z</time>
      </trkpt>
      <trkpt lat="41.19384" lon="-0.46147">
        <time>2022-07-31T15:30:28Z</time>
      </trkpt>
      <trkpt lat="41.19356" lon="-0.46139">
        <time>2022-07-31T15:30:29Z</time>
      </trkpt>
      <trkpt lat="41.19328" lon="-0.4613">
        <time>2022-07-31T15:30:30Z</time>
      </trkpt>
      <trkpt lat="41.193" lon="-0.46121">
        <time>2022-07-31T15:30:31Z</time>
      </trkpt>
      <trkpt lat="41.19272" lon="-0.46112">
        <time>2022-07-31T15:30:32Z</time>
      </trkpt>
      <trkpt lat="41.19243" lon="-0.46104">
        <time>2022-07-31T15:30:33Z</time>
      </trkpt>
      <trkpt lat="41.19215" lon="-0.46096">
        <time>2022-07-31T15:30:34Z</time>
      </trkpt>
      <trkpt lat="41.19186" lon="-0.46087">
        <time>2022-07-31T15:30:35Z</time>
      </trkpt>
      <trkpt lat="41.19158" lon="-0.46079">
        <time>2022-07-31T15:30:36Z</time>
      </trkpt>
      <trkpt lat="41.1913" lon="-0.4607">
        <time>2022-07-31T15:30:37Z</time>
      </trkpt>
      <trkpt lat="41.19101" lon="-0.46062">
        <time>2022-07-31T15:30:38Z</time>
      </trkpt>
      <trkpt lat="41.19073" lon="-0.46053">
        <time>2022-07-31T15:30:39Z</time>
      </trkpt>
      <trkpt lat="41.19044" lon="-0.46045">
        <time>2022-07-31T15:30:40Z</time>
      </trkpt>
      <trkpt lat="41.19016" lon="-0.46036">
        <time>2022-07-31T15:30:41Z</time>
      </trkpt>
      <trkpt lat="41.18987" lon="-0.46027">
        <time>2022-07-31T15:30:42Z</time>
      </trkpt>
      <trkpt lat="41.18959" lon="-0.46018">
        <time>2022-07-31T15:30:43Z</time>
      </trkpt>
      <trkpt lat="41.18931" lon="-0.4601">
        <time>2022-07-31T15:30:44Z</time>
      </trkpt>
      <trkpt lat="41.18903" lon="-0.46001">
        <time>2022-07-31T15:30:45Z</time>
      </trkpt>
      <trkpt lat="41.18875" lon="-0.45993">
        <time>2022-07-31T15:30:46Z</time>
      </trkpt>
      <trkpt lat="41.18847" lon="-0.45985">
        <time>2022-07-31T15:30:47Z</time>
      </trkpt>
      <trkpt lat="41.18819" lon="-0.45976">
        <time>2022-07-31T15:30:48Z</time>
      </trkpt>
      <trkpt lat="41.1879" lon="-0.45968">
        <time>2022-07-31T15:30:49Z</time>
      </trkpt>
      <trkpt lat="41.18762" lon="-0.45959">
        <time>2022-07-31T15:30:50Z</time>
      </trkpt>
      <trkpt lat="41.18734" lon="-0.4595">
        <time>2022-07-31T15:30:51Z</time>
      </trkpt>
      <trkpt lat="41.18706" lon="-0.45941">
        <time>2022-07-31T15:30:52Z</time>
      </trkpt>
      <trkpt lat="41.18678" lon="-0.45931">
        <time>2022-07-31T15:30:53Z</time>
      </trkpt>
      <trkpt lat="41.1865" lon="-0.4592">
        <time>2022-07-31T15:30:54Z</time>
      </trkpt>
      <trkpt lat="41.18622" lon="-0.45908">
        <time>2022-07-31T15:30:55Z</time>
      </trkpt>
      <trkpt lat="41.18595" lon="-0.45896">
        <time>2022-07-31T15:30:56Z</time>
      </trkpt>
      <trkpt lat="41.18568" lon="-0.45883">
        <time>2022-07-31T15:30:57Z</time>
      </trkpt>
      <trkpt lat="41.18542" lon="-0.4587">
        <time>2022-07-31T15:30:58Z</time>
      </trkpt>
      <trkpt lat="41.18515" lon="-0.45858">
        <time>2022-07-31T15:30:59Z</time>
      </trkpt>
      <trkpt lat="41.18489" lon="-0.45846">
        <time>2022-07-31T15:31:00Z</time>
      </trkpt>
      <trkpt lat="41.18463" lon="-0.45835">
        <time>2022-07-31T15:31:01Z</time>
      </trkpt>
      <trkpt lat="41.18437" lon="-0.45824">
        <time>2022-07-31T15:31:02Z</time>
      </trkpt>
      <trkpt lat="41.18412" lon="-0.45813">
        <time>2022-07-31T15:31:03Z</time>
      </trkpt>
      <trkpt lat="41.18387" lon="-0.45803">
        <time>2022-07-31T15:31:04Z</time>
      </trkpt>
      <trkpt lat="41.18364" lon="-0.45792">
        <time>2022-07-31T15:31:05Z</time>
      </trkpt>
      <trkpt lat="41.18341" lon="-0.45782">
        <time>2022-07-31T15:31:06Z</time>
      </trkpt>
      <trkpt lat="41.18318" lon="-0.45773">
        <time>2022-07-31T15:31:07Z</time>
      </trkpt>
      <trkpt lat="41.18296" lon="-0.45763">
        <time>2022-07-31T15:31:08Z</time>
      </trkpt>
      <trkpt lat="41.18273" lon="-0.45753">
        <time>2022-07-31T15:31:09Z</time>
      </trkpt>
      <trkpt lat="41.18251" lon="-0.45742">
        <time>2022-07-31T15:31:10Z</time>
      </trkpt>
      <trkpt lat="41.18228" lon="-0.4573">
        <time>2022-07-31T15:31:11Z</time>
      </trkpt>
      <trkpt lat="41.18206" lon="-0.45717">
        <time>2022-07-31T15:31:12Z</time>
      </trkpt>
      <trkpt lat="41.18185" lon="-0.45704">
        <time>2022-07-31T15:31:13Z</time>
      </trkpt>
      <trkpt lat="41.18165" lon="-0.4569">
        <time>2022-07-31T15:31:14Z</time>
      </trkpt>
      <trkpt lat="41.18144" lon="-0.45675">
        <time>2022-07-31T15:31:15Z</time>
      </trkpt>
      <trkpt lat="41.18125" lon="-0.4566">
        <time>2022-07-31T15:31:16Z</time>
      </trkpt>
      <trkpt lat="41.18105" lon="-0.45643">
        <time>2022-07-31T15:31:17Z</time>
      </trkpt>
      <trkpt lat="41.18086" lon="-0.45627">
        <time>2022-07-31T15:31:18Z</time>
      </trkpt>
      <trkpt lat="41.18068" lon="-0.4561">
        <time>2022-07-31T15:31:19Z</time>
      </trkpt>
      <trkpt lat="41.18051" lon="-0.45594">
        <time>2022-07-31T15:31:20Z</time>
      </trkpt>
      <trkpt lat="41.18035" lon="-0.45577">
        <time>2022-07-31T15:31:21Z</time>
      </trkpt>
      <trkpt lat="41.1802" lon="-0.45561">
        <time>2022-07-31T15:31:22Z</time>
      </trkpt>
      <trkpt lat="41.18006" lon="-0.45547">
        <time>2022-07-31T15:31:23Z</time>
      </trkpt>
      <trkpt lat="41.17993" lon="-0.45533">
        <time>2022-07-31T15:31:24Z</time>
      </trkpt>
      <trkpt lat="41.17981" lon="-0.45518">
        <time>2022-07-31T15:31:25Z</time>
      </trkpt>
      <trkpt lat="41.1797" lon="-0.45503">
        <time>2022-07-31T15:31:26Z</time>
      </trkpt>
      <trkpt lat="41.17958" lon="-0.45487">
        <time>2022-07-31T15:31:27Z</time>
      </trkpt>
      <trkpt lat="41.17946" lon="-0.45472">
        <time>2022-07-31T15:31:28Z</time>
      </trkpt>
      <trkpt lat="41.17935" lon="-0.45456">
        <time>2022-07-31T15:31:29Z</time>
      </trkpt>
      <trkpt lat="41.17923" lon="-0.45441">
        <time>2022-07-31T15:31:30Z</time>
      </trkpt>
      <trkpt lat="41.17912" lon="-0.45426">
        <time>2022-07-31T15:31:31Z</time>
      </trkpt>
      <trkpt lat="41.17901" lon="-0.45411">
        <time>2022-07-31T15:31:32Z</time>
      </trkpt>
      <trkpt lat="41.1789" lon="-0.45395">
        <time>2022-07-31T15:31:33Z</time>
      </trkpt>
      <trkpt lat="41.1788" lon="-0.4538">
        <time>2022-07-31T15:31:34Z</time>
      </trkpt>
      <trkpt lat="41.17869" lon="-0.45367">
        <time>2022-07-31T15:31:35Z</time>
      </trkpt>
      <trkpt lat="41.17857" lon="-0.45355">
        <time>2022-07-31T15:31:36Z</time>
      </trkpt>
      <trkpt lat="41.17844" lon="-0.45346">
        <time>2022-07-31T15:31:37Z</time>
      </trkpt>
      <trkpt lat="41.17831" lon="-0.4534">
        <time>2022-07-31T15:31:38Z</time>
      </trkpt>
      <trkpt lat="41.17817" lon="-0.45338">
        <time>2022-07-31T15:31:39Z</time>
      </trkpt>
      <trkpt lat="41.17802" lon="-0.45339">
        <time>2022-07-31T15:31:40Z</time>
      </trkpt>
      <trkpt lat="41.17786" lon="-0.45343">
        <time>2022-07-31T15:31:41Z</time>
      </trkpt>
      <trkpt lat="41.17772" lon="-0.45348">
        <time>2022-07-31T15:31:42Z</time>
      </trkpt>
      <trkpt lat="41.17756" lon="-0.45354">
        <time>2022-07-31T15:31:43Z</time>
      </trkpt>
      <trkpt lat="41.17741" lon="-0.4536">
        <time>2022-07-31T15:31:44Z</time>
      </trkpt>
      <trkpt lat="41.17726" lon="-0.45368">
        <time>2022-07-31T15:31:45Z</time>
      </trkpt>
      <trkpt lat="41.17711" lon="-0.45377">
        <time>2022-07-31T15:31:46Z</time>
      </trkpt>
      <trkpt lat="41.17698" lon="-0.45391">
        <time>2022-07-31T15:31:47Z</time>
      </trkpt>
      <trkpt lat="41.17683" lon="-0.45403">
        <time>2022-07-31T15:31:48Z</time>
      </trkpt>
      <trkpt lat="41.17668" lon="-0.45416">
        <time>2022-07-31T15:31:49Z</time>
      </trkpt>
      <trkpt lat="41.17653" lon="-0.45427">
        <time>2022-07-31T15:31:50Z</time>
      </trkpt>
      <trkpt lat="41.17637" lon="-0.45434">
        <time>2022-07-31T15:31:51Z</time>
      </trkpt>
      <trkpt lat="41.17621" lon="-0.45439">
        <time>2022-07-31T15:31:52Z</time>
      </trkpt>
      <trkpt lat="41.17605" lon="-0.45438">
        <time>2022-07-31T15:31:53Z</time>
      </trkpt>
      <trkpt lat="41.17589" lon="-0.45434">
        <time>2022-07-31T15:31:54Z</time>
      </trkpt>
      <trkpt lat="41.17573" lon="-0.45426">
        <time>2022-07-31T15:31:55Z</time>
      </trkpt>
      <trkpt lat="41.17559" lon="-0.45415">
        <time>2022-07-31T15:31:56Z</time>
      </trkpt>
      <trkpt lat="41.17546" lon="-0.45402">
        <time>2022-07-31T15:31:57Z</time>
      </trkpt>
      <trkpt lat="41.17534" lon="-0.45388">
        <time>2022-07-31T15:31:58Z</time>
      </trkpt>
      <trkpt lat="41.17522" lon="-0.45374">
        <time>2022-07-31T15:31:59Z</time>
      </trkpt>
      <trkpt lat="41.1751" lon="-0.45358">
        <time>2022-07-31T15:32:00Z</time>
      </trkpt>
      <trkpt lat="41.17498" lon="-0.45344">
        <time>2022-07-31T15:32:01Z</time>
      </trkpt>
      <trkpt lat="41.17486" lon="-0.45329">
        <time>2022-07-31T15:32:02Z</time>
      </trkpt>
      <trkpt lat="41.17475" lon="-0.45315">
        <time>2022-07-31T15:32:03Z</time>
      </trkpt>
      <trkpt lat="41.17464" lon="-0.45302">
        <time>2022-07-31T15:32:04Z</time>
      </trkpt>
      <trkpt lat="41.17453" lon="-0.45288">
        <time>2022-07-31T15:32:05Z</time>
      </trkpt>
      <trkpt lat="41.17442" lon="-0.45275">
        <time>2022-07-31T15:32:06Z</time>
      </trkpt>
      <trkpt lat="41.1743" lon="-0.45262">
        <time>2022-07-31T15:32:07Z</time>
      </trkpt>
      <trkpt lat="41.17419" lon="-0.45249">
        <time>2022-07-31T15:32:08Z</time>
      </trkpt>
      <trkpt lat="41.17409" lon="-0.45236">
        <time>2022-07-31T15:32:09Z</time>
      </trkpt>
      <trkpt lat="41.17398" lon="-0.45223">
        <time>2022-07-31T15:32:10Z</time>
      </trkpt>
      <trkpt lat="41.17388" lon="-0.4521">
        <time>2022-07-31T15:32:11Z</time>
      </trkpt>
      <trkpt lat="41.17377" lon="-0.45198">
        <time>2022-07-31T15:32:12Z</time>
      </trkpt>
      <trkpt lat="41.17367" lon="-0.45186">
        <time>2022-07-31T15:32:13Z</time>
      </trkpt>
      <trkpt lat="41.17357" lon="-0.45174">
        <time>2022-07-31T15:32:14Z</time>
      </trkpt>
      <trkpt lat="41.17348" lon="-0.45163">
        <time>2022-07-31T15:32:15Z</time>
      </trkpt>
      <trkpt lat="41.17339" lon="-0.45152">
        <time>2022-07-31T15:32:16Z</time>
      </trkpt>
      <trkpt lat="41.17329" lon="-0.4514">
        <time>2022-07-31T15:32:17Z</time>
      </trkpt>
      <trkpt lat="41.1732" lon="-0.45129">
        <time>2022-07-31T15:32:18Z</time>
      </trkpt>
      <trkpt lat="41.1731" lon="-0.45117">
        <time>2022-07-31T15:32:19Z</time>
      </trkpt>
      <trkpt lat="41.17301" lon="-0.45105">
        <time>2022-07-31T15:32:20Z</time>
      </trkpt>
      <trkpt lat="41.17293" lon="-0.45093">
        <time>2022-07-31T15:32:21Z</time>
      </trkpt>
      <trkpt lat="41.17286" lon="-0.45082">
        <time>2022-07-31T15:32:22Z</time>
      </trkpt>
      <trkpt lat="41.17281" lon="-0.45072">
        <time>2022-07-31T15:32:23Z</time>
      </trkpt>
      <trkpt lat="41.17276" lon="-0.45062">
        <time>2022-07-31T15:32:24Z</time>
      </trkpt>
      <trkpt lat="41.17273" lon="-0.45052">
        <time>2022-07-31T15:32:25Z</time>
      </trkpt>
      <trkpt lat="41.17275" lon="-0.45043">
        <time>2022-07-31T15:32:26Z</time>
      </trkpt>
      <trkpt lat="41.17281" lon="-0.45034">
        <time>2022-07-31T15:32:27Z</time>
      </trkpt>
      <trkpt lat="41.17288" lon="-0.45027">
        <time>2022-07-31T15:32:28Z</time>
      </trkpt>
      <trkpt lat="41.17297" lon="-0.4502">
        <time>2022-07-31T15:32:29Z</time>
      </trkpt>
      <trkpt lat="41.17306" lon="-0.45012">
        <time>2022-07-31T15:32:30Z</time>
      </trkpt>
      <trkpt lat="41.17315" lon="-0.45003">
        <time>2022-07-31T15:32:31Z</time>
      </trkpt>
      <trkpt lat="41.17323" lon="-0.44993">
        <time>2022-07-31T15:32:32Z</time>
      </trkpt>
      <trkpt lat="41.1733" lon="-0.44982">
        <time>2022-07-31T15:32:33Z</time>
      </trkpt>
      <trkpt lat="41.17336" lon="-0.4497">
        <time>2022-07-31T15:32:34Z</time>
      </trkpt>
      <trkpt lat="41.1734" lon="-0.44955">
        <time>2022-07-31T15:32:35Z</time>
      </trkpt>
      <trkpt lat="41.17341" lon="-0.44941">
        <time>2022-07-31T15:32:36Z</time>
      </trkpt>
      <trkpt lat="41.1734" lon="-0.44924">
        <time>2022-07-31T15:32:37Z</time>
      </trkpt>
      <trkpt lat="41.17336" lon="-0.44907">
        <time>2022-07-31T15:32:38Z</time>
      </trkpt>
      <trkpt lat="41.17332" lon="-0.44889">
        <time>2022-07-31T15:32:39Z</time>
      </trkpt>
      <trkpt lat="41.17327" lon="-0.44871">
        <time>2022-07-31T15:32:40Z</time>
      </trkpt>
      <trkpt lat="41.17321" lon="-0.44853">
        <time>2022-07-31T15:32:41Z</time>
      </trkpt>
      <trkpt lat="41.17316" lon="-0.44834">
        <time>2022-07-31T15:32:42Z</time>
      </trkpt>
      <trkpt lat="41.1731" lon="-0.44815">
        <time>2022-07-31T15:32:43Z</time>
      </trkpt>
      <trkpt lat="41.17305" lon="-0.44795">
        <time>2022-07-31T15:32:44Z</time>
      </trkpt>
      <trkpt lat="41.17299" lon="-0.44774">
        <time>2022-07-31T15:32:45Z</time>
      </trkpt>
      <trkpt lat="41.17294" lon="-0.44754">
        <time>2022-07-31T15:32:46Z</time>
      </trkpt>
      <trkpt lat="41.17289" lon="-0.44735">
        <time>2022-07-31T15:32:47Z</time>
      </trkpt>
      <trkpt lat="41.17283" lon="-0.44714">
        <time>2022-07-31T15:32:48Z</time>
      </trkpt>
      <trkpt lat="41.17278" lon="-0.44695">
        <time>2022-07-31T15:32:49Z</time>
      </trkpt>
      <trkpt lat="41.17273" lon="-0.44677">
        <time>2022-07-31T15:32:50Z</time>
      </trkpt>
      <trkpt lat="41.17266" lon="-0.44658">
        <time>2022-07-31T15:32:51Z</time>
      </trkpt>
      <trkpt lat="41.17259" lon="-0.44639">
        <time>2022-07-31T15:32:52Z</time>
      </trkpt>
      <trkpt lat="41.1725" lon="-0.44621">
        <time>2022-07-31T15:32:53Z</time>
      </trkpt>
      <trkpt lat="41.17242" lon="-0.44604">
        <time>2022-07-31T15:32:54Z</time>
      </trkpt>
      <trkpt lat="41.17234" lon="-0.44587">
        <time>2022-07-31T15:32:55Z</time>
      </trkpt>
      <trkpt lat="41.17225" lon="-0.44569">
        <time>2022-07-31T15:32:56Z</time>
      </trkpt>
      <trkpt lat="41.17217" lon="-0.44552">
        <time>2022-07-31T15:32:57Z</time>
      </trkpt>
      <trkpt lat="41.17208" lon="-0.44535">
        <time>2022-07-31T15:32:58Z</time>
      </trkpt>
      <trkpt lat="41.17198" lon="-0.44517">
        <time>2022-07-31T15:32:59Z</time>
      </trkpt>
      <trkpt lat="41.17189" lon="-0.44499">
        <time>2022-07-31T15:33:00Z</time>
      </trkpt>
      <trkpt lat="41.1718" lon="-0.44481">
        <time>2022-07-31T15:33:01Z</time>
      </trkpt>
      <trkpt lat="41.17169" lon="-0.44462">
        <time>2022-07-31T15:33:02Z</time>
      </trkpt>
      <trkpt lat="41.1716" lon="-0.44444">
        <time>2022-07-31T15:33:03Z</time>
      </trkpt>
      <trkpt lat="41.1715" lon="-0.44425">
        <time>2022-07-31T15:33:04Z</time>
      </trkpt>
      <trkpt lat="41.17141" lon="-0.44407">
        <time>2022-07-31T15:33:05Z</time>
      </trkpt>
      <trkpt lat="41.17131" lon="-0.44388">
        <time>2022-07-31T15:33:06Z</time>
      </trkpt>
      <trkpt lat="41.17122" lon="-0.44371">
        <time>2022-07-31T15:33:07Z</time>
      </trkpt>
      <trkpt lat="41.17113" lon="-0.44354">
        <time>2022-07-31T15:33:08Z</time>
      </trkpt>
      <trkpt lat="41.17104" lon="-0.44337">
        <time>2022-07-31T15:33:09Z</time>
      </trkpt>
      <trkpt lat="41.17095" lon="-0.44319">
        <time>2022-07-31T15:33:10Z</time>
      </trkpt>
      <trkpt lat="41.17085" lon="-0.44301">
        <time>2022-07-31T15:33:11Z</time>
      </trkpt>
      <trkpt lat="41.17076" lon="-0.44283">
        <time>2022-07-31T15:33:12Z</time>
      </trkpt>
      <trkpt lat="41.17066" lon="-0.44264">
        <time>2022-07-31T15:33:13Z</time>
      </trkpt>
      <trkpt lat="41.17056" lon="-0.44245">
        <time>2022-07-31T15:33:14Z</time>
      </trkpt>
      <trkpt lat="41.17046" lon="-0.44224">
        <time>2022-07-31T15:33:15Z</time>
      </trkpt>
      <trkpt lat="41.17036" lon="-0.44203">
        <time>2022-07-31T15:33:16Z</time>
      </trkpt>
      <trkpt lat="41.17026" lon="-0.4418">
        <time>2022-07-31T15:33:17Z</time>
      </trkpt>
      <trkpt lat="41.17017" lon="-0.44158">
        <time>2022-07-31T15:33:18Z</time>
      </trkpt>
      <trkpt lat="41.17007" lon="-0.44135">
        <time>2022-07-31T15:33:19Z</time>
      </trkpt>
      <trkpt lat="41.16998" lon="-0.44112">
        <time>2022-07-31T15:33:20Z</time>
      </trkpt>
      <trkpt lat="41.16988" lon="-0.44088">
        <time>2022-07-31T15:33:21Z</time>
      </trkpt>
      <trkpt lat="41.16978" lon="-0.44064">
        <time>2022-07-31T15:33:22Z</time>
      </trkpt>
      <trkpt lat="41.16969" lon="-0.4404">
        <time>2022-07-31T15:33:23Z</time>
      </trkpt>
      <trkpt lat="41.16959" lon="-0.44016">
        <time>2022-07-31T15:33:24Z</time>
      </trkpt>
      <trkpt lat="41.1695" lon="-0.43991">
        <time>2022-07-31T15:33:25Z</time>
      </trkpt>
      <trkpt lat="41.1694" lon="-0.43966">
        <time>2022-07-31T15:33:26Z</time>
      </trkpt>
      <trkpt lat="41.1693" lon="-0.4394">
        <time>2022-07-31T15:33:27Z</time>
      </trkpt>
      <trkpt lat="41.1692" lon="-0.43913">
        <time>2022-07-31T15:33:28Z</time>
      </trkpt>
      <trkpt lat="41.16911" lon="-0.43886">
        <time>2022-07-31T15:33:29Z</time>
      </trkpt>
      <trkpt lat="41.16901" lon="-0.43856">
        <time>2022-07-31T15:33:30Z</time>
      </trkpt>
      <trkpt lat="41.16892" lon="-0.43827">
        <time>2022-07-31T15:33:31Z</time>
      </trkpt>
      <trkpt lat="41.16883" lon="-0.43796">
        <time>2022-07-31T15:33:32Z</time>
      </trkpt>
      <trkpt lat="41.16876" lon="-0.43765">
        <time>2022-07-31T15:33:33Z</time>
      </trkpt>
      <trkpt lat="41.16868" lon="-0.43733">
        <time>2022-07-31T15:33:34Z</time>
      </trkpt>
      <trkpt lat="41.16861" lon="-0.437">
        <time>2022-07-31T15:33:35Z</time>
      </trkpt>
      <trkpt lat="41.16854" lon="-0.43667">
        <time>2022-07-31T15:33:36Z</time>
      </trkpt>
      <trkpt lat="41.16847" lon="-0.43635">
        <time>2022-07-31T15:33:37Z</time>
      </trkpt>
      <trkpt lat="41.1684" lon="-0.43604">
        <time>2022-07-31T15:33:38Z</time>
      </trkpt>
      <trkpt lat="41.16833" lon="-0.43571">
        <time>2022-07-31T15:33:39Z</time>
      </trkpt>
      <trkpt lat="41.16826" lon="-0.43539">
        <time>2022-07-31T15:33:40Z</time>
      </trkpt>
      <trkpt lat="41.16819" lon="-0.43505">
        <time>2022-07-31T15:33:41Z</time>
      </trkpt>
      <trkpt lat="41.16812" lon="-0.43472">
        <time>2022-07-31T15:33:42Z</time>
      </trkpt>
      <trkpt lat="41.16805" lon="-0.43439">
        <time>2022-07-31T15:33:43Z</time>
      </trkpt>
      <trkpt lat="41.16798" lon="-0.43405">
        <time>2022-07-31T15:33:44Z</time>
      </trkpt>
      <trkpt lat="41.1679" lon="-0.43371">
        <time>2022-07-31T15:33:45Z</time>
      </trkpt>
      <trkpt lat="41.16781" lon="-0.43338">
        <time>2022-07-31T15:33:46Z</time>
      </trkpt>
      <trkpt lat="41.1677" lon="-0.43305">
        <time>2022-07-31T15:33:47Z</time>
      </trkpt>
      <trkpt lat="41.16758" lon="-0.43273">
        <time>2022-07-31T15:33:48Z</time>
      </trkpt>
      <trkpt lat="41.16744" lon="-0.43241">
        <time>2022-07-31T15:33:49Z</time>
      </trkpt>
      <trkpt lat="41.16728" lon="-0.4321">
        <time>2022-07-31T15:33:50Z</time>
      </trkpt>
      <trkpt lat="41.16713" lon="-0.43178">
        <time>2022-07-31T15:33:51Z</time>
      </trkpt>
      <trkpt lat="41.16698" lon="-0.43148">
        <time>2022-07-31T15:33:52Z</time>
      </trkpt>
      <trkpt lat="41.16683" lon="-0.43118">
        <time>2022-07-31T15:33:53Z</time>
      </trkpt>
      <trkpt lat="41.16669" lon="-0.43089">
        <time>2022-07-31T15:33:54Z</time>
      </trkpt>
      <trkpt lat="41.16654" lon="-0.43061">
        <time>2022-07-31T15:33:55Z</time>
      </trkpt>
      <trkpt lat="41.1664" lon="-0.43032">
        <time>2022-07-31T15:33:56Z</time>
      </trkpt>
      <trkpt lat="41.16626" lon="-0.43004">
        <time>2022-07-31T15:33:57Z</time>
      </trkpt>
      <trkpt lat="41.16612" lon="-0.42976">
        <time>2022-07-31T15:33:58Z</time>
      </trkpt>
      <trkpt lat="41.16598" lon="-0.42947">
        <time>2022-07-31T15:33:59Z</time>
      </trkpt>
      <trkpt lat="41.16584" lon="-0.42919">
        <time>2022-07-31T15:34:00Z</time>
      </trkpt>
      <trkpt lat="41.16569" lon="-0.4289">
        <time>2022-07-31T15:34:01Z</time>
      </trkpt>
      <trkpt lat="41.16554" lon="-0.42861">
        <time>2022-07-31T15:34:02Z</time>
      </trkpt>
      <trkpt lat="41.16539" lon="-0.42831">
        <time>2022-07-31T15:34:03Z</time>
      </trkpt>
      <trkpt lat="41.16522" lon="-0.42802">
        <time>2022-07-31T15:34:04Z</time>
      </trkpt>
      <trkpt lat="41.16505" lon="-0.42773">
        <time>2022-07-31T15:34:05Z</time>
      </trkpt>
      <trkpt lat="41.16486" lon="-0.42745">
        <time>2022-07-31T15:34:06Z</time>
      </trkpt>
      <trkpt lat="41.16467" lon="-0.42719">
        <time>2022-07-31T15:34:07Z</time>
      </trkpt>
      <trkpt lat="41.16447" lon="-0.42694">
        <time>2022-07-31T15:34:08Z</time>
      </trkpt>
      <trkpt lat="41.16426" lon="-0.4267">
        <time>2022-07-31T15:34:09Z</time>
      </trkpt>
      <trkpt lat="41.16405" lon="-0.42647">
        <time>2022-07-31T15:34:10Z</time>
      </trkpt>
      <trkpt lat="41.16384" lon="-0.42624">
        <time>2022-07-31T15:34:11Z</time>
      </trkpt>
      <trkpt lat="41.16364" lon="-0.42602">
        <time>2022-07-31T15:34:12Z</time>
      </trkpt>
      <trkpt lat="41.16342" lon="-0.4258">
        <time>2022-07-31T15:34:13Z</time>
      </trkpt>
      <trkpt lat="41.16321" lon="-0.42557">
        <time>2022-07-31T15:34:14Z</time>
      </trkpt>
      <trkpt lat="41.16299" lon="-0.42534">
        <time>2022-07-31T15:34:15Z</time>
      </trkpt>
      <trkpt lat="41.16276" lon="-0.42509">
        <time>2022-07-31T15:34:16Z</time>
      </trkpt>
      <trkpt lat="41.16253" lon="-0.42483">
        <time>2022-07-31T15:34:17Z</time>
      </trkpt>
      <trkpt lat="41.16229" lon="-0.42456">
        <time>2022-07-31T15:34:18Z</time>
      </trkpt>
      <trkpt lat="41.16203" lon="-0.42429">
        <time>2022-07-31T15:34:19Z</time>
      </trkpt>
      <trkpt lat="41.16177" lon="-0.42402">
        <time>2022-07-31T15:34:20Z</time>
      </trkpt>
      <trkpt lat="41.16151" lon="-0.42375">
        <time>2022-07-31T15:34:21Z</time>
      </trkpt>
      <trkpt lat="41.16124" lon="-0.42348">
        <time>2022-07-31T15:34:22Z</time>
      </trkpt>
      <trkpt lat="41.16098" lon="-0.4232">
        <time>2022-07-31T15:34:23Z</time>
      </trkpt>
      <trkpt lat="41.16071" lon="-0.42292">
        <time>2022-07-31T15:34:24Z</time>
      </trkpt>
      <trkpt lat="41.16043" lon="-0.42262">
        <time>2022-07-31T15:34:25Z</time>
      </trkpt>
      <trkpt lat="41.16015" lon="-0.42232">
        <time>2022-07-31T15:34:26Z</time>
      </trkpt>
      <trkpt lat="41.15986" lon="-0.42202">
        <time>2022-07-31T15:34:27Z</time>
      </trkpt>
      <trkpt lat="41.15957" lon="-0.42171">
        <time>2022-07-31T15:34:28Z</time>
      </trkpt>
      <trkpt lat="41.15927" lon="-0.42139">
        <time>2022-07-31T15:34:29Z</time>
      </trkpt>
      <trkpt lat="41.15897" lon="-0.42107">
        <time>2022-07-31T15:34:30Z</time>
      </trkpt>
      <trkpt lat="41.15867" lon="-0.42075">
        <time>2022-07-31T15:34:31Z</time>
      </trkpt>
      <trkpt lat="41.15837" lon="-0.42043">
        <time>2022-07-31T15:34:32Z</time>
      </trkpt>
      <trkpt lat="41.15808" lon="-0.42012">
        <time>2022-07-31T15:34:33Z</time>
      </trkpt>
      <trkpt lat="41.15779" lon="-0.41981">
        <time>2022-07-31T15:34:34Z</time>
      </trkpt>
      <trkpt lat="41.1575" lon="-0.41949">
        <time>2022-07-31T15:34:35Z</time>
      </trkpt>
      <trkpt lat="41.1572" lon="-0.41918">
        <time>2022-07-31T15:34:36Z</time>
      </trkpt>
      <trkpt lat="41.15692" lon="-0.41886">
        <time>2022-07-31T15:34:37Z</time>
      </trkpt>
      <trkpt lat="41.15666" lon="-0.41852">
        <time>2022-07-31T15:34:38Z</time>
      </trkpt>
      <trkpt lat="41.15641" lon="-0.41817">
        <time>2022-07-31T15:34:39Z</time>
      </trkpt>
      <trkpt lat="41.1562" lon="-0.41779">
        <time>2022-07-31T15:34:40Z</time>
      </trkpt>
      <trkpt lat="41.15601" lon="-0.41739">
        <time>2022-07-31T15:34:41Z</time>
      </trkpt>
      <trkpt lat="41.15584" lon="-0.41698">
        <time>2022-07-31T15:34:42Z</time>
      </trkpt>
      <trkpt lat="41.15571" lon="-0.41654">
        <time>2022-07-31T15:34:43Z</time>
      </trkpt>
      <trkpt lat="41.1556" lon="-0.41609">
        <time>2022-07-31T15:34:44Z</time>
      </trkpt>
      <trkpt lat="41.1555" lon="-0.41564">
        <time>2022-07-31T15:34:45Z</time>
      </trkpt>
      <trkpt lat="41.15542" lon="-0.41517">
        <time>2022-07-31T15:34:46Z</time>
      </trkpt>
      <trkpt lat="41.15534" lon="-0.41471">
        <time>2022-07-31T15:34:47Z</time>
      </trkpt>
      <trkpt lat="41.15526" lon="-0.41425">
        <time>2022-07-31T15:34:48Z</time>
      </trkpt>
      <trkpt lat="41.15519" lon="-0.4138">
        <time>2022-07-31T15:34:49Z</time>
      </trkpt>
      <trkpt lat="41.15512" lon="-0.41335">
        <time>2022-07-31T15:34:50Z</time>
      </trkpt>
      <trkpt lat="41.15504" lon="-0.41291">
        <time>2022-07-31T15:34:51Z</time>
      </trkpt>
      <trkpt lat="41.15495" lon="-0.41247">
        <time>2022-07-31T15:34:52Z</time>
      </trkpt>
      <trkpt lat="41.15483" lon="-0.41205">
        <time>2022-07-31T15:34:53Z</time>
      </trkpt>
      <trkpt lat="41.15468" lon="-0.41164">
        <time>2022-07-31T15:34:54Z</time>
      </trkpt>
      <trkpt lat="41.15451" lon="-0.41125">
        <time>2022-07-31T15:34:55Z</time>
      </trkpt>
      <trkpt lat="41.15432" lon="-0.41087">
        <time>2022-07-31T15:34:56Z</time>
      </trkpt>
      <trkpt lat="41.15411" lon="-0.41049">
        <time>2022-07-31T15:34:57Z</time>
      </trkpt>
      <trkpt lat="41.15389" lon="-0.41012">
        <time>2022-07-31T15:34:58Z</time>
      </trkpt>
      <trkpt lat="41.15366" lon="-0.40976">
        <time>2022-07-31T15:34:59Z</time>
      </trkpt>
      <trkpt lat="41.15343" lon="-0.40939">
        <time>2022-07-31T15:35:00Z</time>
      </trkpt>
      <trkpt lat="41.15321" lon="-0.40903">
        <time>2022-07-31T15:35:01Z</time>
      </trkpt>
      <trkpt lat="41.15299" lon="-0.40867">
        <time>2022-07-31T15:35:02Z</time>
      </trkpt>
      <trkpt lat="41.15276" lon="-0.4083">
        <time>2022-07-31T15:35:03Z</time>
      </trkpt>
      <trkpt lat="41.15254" lon="-0.40794">
        <time>2022-07-31T15:35:04Z</time>
      </trkpt>
      <trkpt lat="41.15233" lon="-0.40759">
        <time>2022-07-31T15:35:05Z</time>
      </trkpt>
      <trkpt lat="41.15212" lon="-0.40723">
        <time>2022-07-31T15:35:06Z</time>
      </trkpt>
      <trkpt lat="41.15192" lon="-0.40687">
        <time>2022-07-31T15:35:07Z</time>
      </trkpt>
      <trkpt lat="41.15173" lon="-0.4065">
        <time>2022-07-31T15:35:08Z</time>
      </trkpt>
      <trkpt lat="41.15155" lon="-0.40613">
        <time>2022-07-31T15:35:09Z</time>
      </trkpt>
      <trkpt lat="41.15138" lon="-0.40574">
        <time>2022-07-31T15:35:10Z</time>
      </trkpt>
      <trkpt lat="41.15122" lon="-0.40535">
        <time>2022-07-31T15:35:11Z</time>
      </trkpt>
      <trkpt lat="41.15107" lon="-0.40496">
        <time>2022-07-31T15:35:12Z</time>
      </trkpt>
      <trkpt lat="41.15093" lon="-0.40455">
        <time>2022-07-31T15:35:13Z</time>
      </trkpt>
      <trkpt lat="41.15078" lon="-0.40414">
        <time>2022-07-31T15:35:14Z</time>
      </trkpt>
      <trkpt lat="41.15065" lon="-0.40373">
        <time>2022-07-31T15:35:15Z</time>
      </trkpt>
      <trkpt lat="41.15051" lon="-0.40331">
        <time>2022-07-31T15:35:16Z</time>
      </trkpt>
      <trkpt lat="41.15038" lon="-0.4029">
        <time>2022-07-31T15:35:17Z</time>
      </trkpt>
      <trkpt lat="41.15025" lon="-0.40249">
        <time>2022-07-31T15:35:18Z</time>
      </trkpt>
      <trkpt lat="41.15012" lon="-0.40207">
        <time>2022-07-31T15:35:19Z</time>
      </trkpt>
      <trkpt lat="41.15001" lon="-0.40165">
        <time>2022-07-31T15:35:20Z</time>
      </trkpt>
      <trkpt lat="41.14991" lon="-0.40123">
        <time>2022-07-31T15:35:21Z</time>
      </trkpt>
      <trkpt lat="41.14982" lon="-0.4008">
        <time>2022-07-31T15:35:22Z</time>
      </trkpt>
      <trkpt lat="41.14975" lon="-0.40037">
        <time>2022-07-31T15:35:23Z</time>
      </trkpt>
      <trkpt lat="41.14968" lon="-0.39994">
        <time>2022-07-31T15:35:24Z</time>
      </trkpt>
      <trkpt lat="41.1496" lon="-0.3995">
        <time>2022-07-31T15:35:25Z</time>
      </trkpt>
      <trkpt lat="41.14953" lon="-0.39906">
        <time>2022-07-31T15:35:26Z</time>
      </trkpt>
      <trkpt lat="41.14944" lon="-0.39863">
        <time>2022-07-31T15:35:27Z</time>
      </trkpt>
      <trkpt lat="41.14934" lon="-0.3982">
        <time>2022-07-31T15:35:28Z</time>
      </trkpt>
      <trkpt lat="41.14923" lon="-0.39777">
        <time>2022-07-31T15:35:29Z</time>
      </trkpt>
      <trkpt lat="41.14911" lon="-0.39735">
        <time>2022-07-31T15:35:30Z</time>
      </trkpt>
      <trkpt lat="41.14899" lon="-0.39692">
        <time>2022-07-31T15:35:31Z</time>
      </trkpt>
      <trkpt lat="41.14887" lon="-0.3965">
        <time>2022-07-31T15:35:32Z</time>
      </trkpt>
      <trkpt lat="41.14876" lon="-0.39609">
        <time>2022-07-31T15:35:33Z</time>
      </trkpt>
      <trkpt lat="41.14864" lon="-0.39568">
        <time>2022-07-31T15:35:34Z</time>
      </trkpt>
      <trkpt lat="41.14852" lon="-0.39529">
        <time>2022-07-31T15:35:35Z</time>
      </trkpt>
      <trkpt lat="41.14841" lon="-0.3949">
        <time>2022-07-31T15:35:36Z</time>
      </trkpt>
      <trkpt lat="41.1483" lon="-0.39452">
        <time>2022-07-31T15:35:37Z</time>
      </trkpt>
      <trkpt lat="41.14819" lon="-0.39416">
        <time>2022-07-31T15:35:38Z</time>
      </trkpt>
      <trkpt lat="41.14808" lon="-0.39381">
        <time>2022-07-31T15:35:39Z</time>
      </trkpt>
      <trkpt lat="41.14795" lon="-0.39347">
        <time>2022-07-31T15:35:40Z</time>
      </trkpt>
      <trkpt lat="41.14779" lon="-0.39315">
        <time>2022-07-31T15:35:41Z</time>
      </trkpt>
      <trkpt lat="41.14761" lon="-0.39284">
        <time>2022-07-31T15:35:42Z</time>
      </trkpt>
      <trkpt lat="41.14741" lon="-0.39253">
        <time>2022-07-31T15:35:43Z</time>
      </trkpt>
      <trkpt lat="41.14722" lon="-0.39222">
        <time>2022-07-31T15:35:44Z</time>
      </trkpt>
      <trkpt lat="41.14703" lon="-0.3919">
        <time>2022-07-31T15:35:45Z</time>
      </trkpt>
      <trkpt lat="41.14685" lon="-0.39157">
        <time>2022-07-31T15:35:46Z</time>
      </trkpt>
      <trkpt lat="41.14667" lon="-0.39122">
        <time>2022-07-31T15:35:47Z</time>
      </trkpt>
      <trkpt lat="41.14652" lon="-0.39086">
        <time>2022-07-31T15:35:48Z</time>
      </trkpt>
      <trkpt lat="41.14638" lon="-0.39048">
        <time>2022-07-31T15:35:49Z</time>
      </trkpt>
      <trkpt lat="41.14625" lon="-0.39007">
        <time>2022-07-31T15:35:50Z</time>
      </trkpt>
      <trkpt lat="41.14612" lon="-0.38967">
        <time>2022-07-31T15:35:51Z</time>
      </trkpt>
      <trkpt lat="41.146" lon="-0.38926">
        <time>2022-07-31T15:35:52Z</time>
      </trkpt>
      <trkpt lat="41.14587" lon="-0.38884">
        <time>2022-07-31T15:35:53Z</time>
      </trkpt>
      <trkpt lat="41.14574" lon="-0.38842">
        <time>2022-07-31T15:35:54Z</time>
      </trkpt>
      <trkpt lat="41.14561" lon="-0.38798">
        <time>2022-07-31T15:35:55Z</time>
      </trkpt>
      <trkpt lat="41.14548" lon="-0.38755">
        <time>2022-07-31T15:35:56Z</time>
      </trkpt>
      <trkpt lat="41.14535" lon="-0.38711">
        <time>2022-07-31T15:35:57Z</time>
      </trkpt>
      <trkpt lat="41.14522" lon="-0.38667">
        <time>2022-07-31T15:35:58Z</time>
      </trkpt>
      <trkpt lat="41.14509" lon="-0.38623">
        <time>2022-07-31T15:35:59Z</time>
      </trkpt>
      <trkpt lat="41.14497" lon="-0.38579">
        <time>2022-07-31T15:36:00Z</time>
      </trkpt>
      <trkpt lat="41.14484" lon="-0.38535">
        <time>2022-07-31T15:36:01Z</time>
      </trkpt>
      <trkpt lat="41.14471" lon="-0.3849">
        <time>2022-07-31T15:36:02Z</time>
      </trkpt>
      <trkpt lat="41.14458" lon="-0.38446">
        <time>2022-07-31T15:36:03Z</time>
      </trkpt>
      <trkpt lat="41.14445" lon="-0.38403">
        <time>2022-07-31T15:36:04Z</time>
      </trkpt>
      <trkpt lat="41.14432" lon="-0.38359">
        <time>2022-07-31T15:36:05Z</time>
      </trkpt>
      <trkpt lat="41.1442" lon="-0.38316">
        <time>2022-07-31T15:36:06Z</time>
      </trkpt>
      <trkpt lat="41.14407" lon="-0.38273">
        <time>2022-07-31T15:36:07Z</time>
      </trkpt>
      <trkpt lat="41.14394" lon="-0.3823">
        <time>2022-07-31T15:36:08Z</time>
      </trkpt>
      <trkpt lat="41.14381" lon="-0.38188">
        <time>2022-07-31T15:36:09Z</time>
      </trkpt>
      <trkpt lat="41.14368" lon="-0.38145">
        <time>2022-07-31T15:36:10Z</time>
      </trkpt>
      <trkpt lat="41.14355" lon="-0.38104">
        <time>2022-07-31T15:36:11Z</time>
      </trkpt>
      <trkpt lat="41.14343" lon="-0.38062">
        <time>2022-07-31T15:36:12Z</time>
      </trkpt>
      <trkpt lat="41.1433" lon="-0.38022">
        <time>2022-07-31T15:36:13Z</time>
      </trkpt>
      <trkpt lat="41.14315" lon="-0.37982">
        <time>2022-07-31T15:36:14Z</time>
      </trkpt>
      <trkpt lat="41.14298" lon="-0.37943">
        <time>2022-07-31T15:36:15Z</time>
      </trkpt>
      <trkpt lat="41.1428" lon="-0.37905">
        <time>2022-07-31T15:36:16Z</time>
      </trkpt>
      <trkpt lat="41.14258" lon="-0.3787">
        <time>2022-07-31T15:36:17Z</time>
      </trkpt>
      <trkpt lat="41.14235" lon="-0.37837">
        <time>2022-07-31T15:36:18Z</time>
      </trkpt>
      <trkpt lat="41.14209" lon="-0.37807">
        <time>2022-07-31T15:36:19Z</time>
      </trkpt>
      <trkpt lat="41.14182" lon="-0.37777">
        <time>2022-07-31T15:36:20Z</time>
      </trkpt>
      <trkpt lat="41.14155" lon="-0.37748">
        <time>2022-07-31T15:36:21Z</time>
      </trkpt>
      <trkpt lat="41.14128" lon="-0.3772">
        <time>2022-07-31T15:36:22Z</time>
      </trkpt>
      <trkpt lat="41.141" lon="-0.37691">
        <time>2022-07-31T15:36:23Z</time>
      </trkpt>
      <trkpt lat="41.14073" lon="-0.37663">
        <time>2022-07-31T15:36:24Z</time>
      </trkpt>
      <trkpt lat="41.14047" lon="-0.37635">
        <time>2022-07-31T15:36:25Z</time>
      </trkpt>
      <trkpt lat="41.14021" lon="-0.37607">
        <time>2022-07-31T15:36:27Z</time>
      </trkpt>
      <trkpt lat="41.13995" lon="-0.37579">
        <time>2022-07-31T15:36:27Z</time>
      </trkpt>
      <trkpt lat="41.1397" lon="-0.3755">
        <time>2022-07-31T15:36:28Z</time>
      </trkpt>
      <trkpt lat="41.13945" lon="-0.3752">
        <time>2022-07-31T15:36:29Z</time>
      </trkpt>
      <trkpt lat="41.13922" lon="-0.37489">
        <time>2022-07-31T15:36:30Z</time>
      </trkpt>
      <trkpt lat="41.13899" lon="-0.37457">
        <time>2022-07-31T15:36:32Z</time>
      </trkpt>
      <trkpt lat="41.13879" lon="-0.37422">
        <time>2022-07-31T15:36:32Z</time>
      </trkpt>
      <trkpt lat="41.13859" lon="-0.37386">
        <time>2022-07-31T15:36:33Z</time>
      </trkpt>
      <trkpt lat="41.1384" lon="-0.37349">
        <time>2022-07-31T15:36:34Z</time>
      </trkpt>
      <trkpt lat="41.13823" lon="-0.37311">
        <time>2022-07-31T15:36:36Z</time>
      </trkpt>
      <trkpt lat="41.13808" lon="-0.37272">
        <time>2022-07-31T15:36:36Z</time>
      </trkpt>
      <trkpt lat="41.13792" lon="-0.37232">
        <time>2022-07-31T15:36:37Z</time>
      </trkpt>
      <trkpt lat="41.13778" lon="-0.37191">
        <time>2022-07-31T15:36:38Z</time>
      </trkpt>
      <trkpt lat="41.13763" lon="-0.37151">
        <time>2022-07-31T15:36:39Z</time>
      </trkpt>
      <trkpt lat="41.13749" lon="-0.37111">
        <time>2022-07-31T15:36:40Z</time>
      </trkpt>
      <trkpt lat="41.13734" lon="-0.3707">
        <time>2022-07-31T15:36:41Z</time>
      </trkpt>
      <trkpt lat="41.1372" lon="-0.3703">
        <time>2022-07-31T15:36:42Z</time>
      </trkpt>
      <trkpt lat="41.13705" lon="-0.3699">
        <time>2022-07-31T15:36:43Z</time>
      </trkpt>
      <trkpt lat="41.13691" lon="-0.36951">
        <time>2022-07-31T15:36:44Z</time>
      </trkpt>
      <trkpt lat="41.13678" lon="-0.36912">
        <time>2022-07-31T15:36:45Z</time>
      </trkpt>
      <trkpt lat="41.13664" lon="-0.36874">
        <time>2022-07-31T15:36:46Z</time>
      </trkpt>
      <trkpt lat="41.13651" lon="-0.36837">
        <time>2022-07-31T15:36:47Z</time>
      </trkpt>
      <trkpt lat="41.13637" lon="-0.36802">
        <time>2022-07-31T15:36:48Z</time>
      </trkpt>
      <trkpt lat="41.13622" lon="-0.36766">
        <time>2022-07-31T15:36:49Z</time>
      </trkpt>
      <trkpt lat="41.13606" lon="-0.36732">
        <time>2022-07-31T15:36:50Z</time>
      </trkpt>
      <trkpt lat="41.13588" lon="-0.36699">
        <time>2022-07-31T15:36:51Z</time>
      </trkpt>
      <trkpt lat="41.13568" lon="-0.36668">
        <time>2022-07-31T15:36:52Z</time>
      </trkpt>
      <trkpt lat="41.13546" lon="-0.36638">
        <time>2022-07-31T15:36:53Z</time>
      </trkpt>
      <trkpt lat="41.13522" lon="-0.36611">
        <time>2022-07-31T15:36:54Z</time>
      </trkpt>
      <trkpt lat="41.13498" lon="-0.36584">
        <time>2022-07-31T15:36:55Z</time>
      </trkpt>
      <trkpt lat="41.13472" lon="-0.36557">
        <time>2022-07-31T15:36:56Z</time>
      </trkpt>
      <trkpt lat="41.13448" lon="-0.3653">
        <time>2022-07-31T15:36:57Z</time>
      </trkpt>
      <trkpt lat="41.13423" lon="-0.36504">
        <time>2022-07-31T15:36:58Z</time>
      </trkpt>
      <trkpt lat="41.13399" lon="-0.36476">
        <time>2022-07-31T15:36:59Z</time>
      </trkpt>
      <trkpt lat="41.13375" lon="-0.36449">
        <time>2022-07-31T15:37:00Z</time>
      </trkpt>
      <trkpt lat="41.13353" lon="-0.36419">
        <time>2022-07-31T15:37:01Z</time>
      </trkpt>
      <trkpt lat="41.13332" lon="-0.36387">
        <time>2022-07-31T15:37:02Z</time>
      </trkpt>
      <trkpt lat="41.13312" lon="-0.36354">
        <time>2022-07-31T15:37:03Z</time>
      </trkpt>
      <trkpt lat="41.13294" lon="-0.3632">
        <time>2022-07-31T15:37:04Z</time>
      </trkpt>
      <trkpt lat="41.13276" lon="-0.36284">
        <time>2022-07-31T15:37:05Z</time>
      </trkpt>
      <trkpt lat="41.13257" lon="-0.36248">
        <time>2022-07-31T15:37:06Z</time>
      </trkpt>
      <trkpt lat="41.13239" lon="-0.36211">
        <time>2022-07-31T15:37:07Z</time>
      </trkpt>
      <trkpt lat="41.13221" lon="-0.36175">
        <time>2022-07-31T15:37:08Z</time>
      </trkpt>
      <trkpt lat="41.13202" lon="-0.36138">
        <time>2022-07-31T15:37:09Z</time>
      </trkpt>
      <trkpt lat="41.13183" lon="-0.36102">
        <time>2022-07-31T15:37:10Z</time>
      </trkpt>
      <trkpt lat="41.13164" lon="-0.36066">
        <time>2022-07-31T15:37:11Z</time>
      </trkpt>
      <trkpt lat="41.13145" lon="-0.36031">
        <time>2022-07-31T15:37:12Z</time>
      </trkpt>
      <trkpt lat="41.13127" lon="-0.35996">
        <time>2022-07-31T15:37:13Z</time>
      </trkpt>
      <trkpt lat="41.13109" lon="-0.35961">
        <time>2022-07-31T15:37:14Z</time>
      </trkpt>
      <trkpt lat="41.13089" lon="-0.35926">
        <time>2022-07-31T15:37:15Z</time>
      </trkpt>
      <trkpt lat="41.13071" lon="-0.35891">
        <time>2022-07-31T15:37:16Z</time>
      </trkpt>
      <trkpt lat="41.13052" lon="-0.35856">
        <time>2022-07-31T15:37:17Z</time>
      </trkpt>
      <trkpt lat="41.13034" lon="-0.35821">
        <time>2022-07-31T15:37:18Z</time>
      </trkpt>
      <trkpt lat="41.13015" lon="-0.35786">
        <time>2022-07-31T15:37:19Z</time>
      </trkpt>
      <trkpt lat="41.12997" lon="-0.35752">
        <time>2022-07-31T15:37:20Z</time>
      </trkpt>
      <trkpt lat="41.12978" lon="-0.35716">
        <time>2022-07-31T15:37:22Z</time>
      </trkpt>
      <trkpt lat="41.1296" lon="-0.35681">
        <time>2022-07-31T15:37:22Z</time>
      </trkpt>
      <trkpt lat="41.12941" lon="-0.35645">
        <time>2022-07-31T15:37:23Z</time>
      </trkpt>
      <trkpt lat="41.12922" lon="-0.35609">
        <time>2022-07-31T15:37:24Z</time>
      </trkpt>
      <trkpt lat="41.12903" lon="-0.35572">
        <time>2022-07-31T15:37:25Z</time>
      </trkpt>
      <trkpt lat="41.12884" lon="-0.35536">
        <time>2022-07-31T15:37:26Z</time>
      </trkpt>
      <trkpt lat="41.12865" lon="-0.35499">
        <time>2022-07-31T15:37:27Z</time>
      </trkpt>
      <trkpt lat="41.12845" lon="-0.35462">
        <time>2022-07-31T15:37:28Z</time>
      </trkpt>
      <trkpt lat="41.12826" lon="-0.35426">
        <time>2022-07-31T15:37:29Z</time>
      </trkpt>
      <trkpt lat="41.12806" lon="-0.35389">
        <time>2022-07-31T15:37:30Z</time>
      </trkpt>
      <trkpt lat="41.12787" lon="-0.35352">
        <time>2022-07-31T15:37:31Z</time>
      </trkpt>
      <trkpt lat="41.12768" lon="-0.35316">
        <time>2022-07-31T15:37:32Z</time>
      </trkpt>
      <trkpt lat="41.12748" lon="-0.3528">
        <time>2022-07-31T15:37:33Z</time>
      </trkpt>
      <trkpt lat="41.12729" lon="-0.35244">
        <time>2022-07-31T15:37:34Z</time>
      </trkpt>
      <trkpt lat="41.12711" lon="-0.35211">
        <time>2022-07-31T15:37:35Z</time>
      </trkpt>
      <trkpt lat="41.12695" lon="-0.3518">
        <time>2022-07-31T15:37:36Z</time>
      </trkpt>
      <trkpt lat="41.1268" lon="-0.35153">
        <time>2022-07-31T15:37:37Z</time>
      </trkpt>
      <trkpt lat="41.12666" lon="-0.35127">
        <time>2022-07-31T15:37:39Z</time>
      </trkpt>
      <trkpt lat="41.12654" lon="-0.35102">
        <time>2022-07-31T15:37:39Z</time>
      </trkpt>
      <trkpt lat="41.12642" lon="-0.35078">
        <time>2022-07-31T15:37:40Z</time>
      </trkpt>
      <trkpt lat="41.1263" lon="-0.35055">
        <time>2022-07-31T15:37:41Z</time>
      </trkpt>
      <trkpt lat="41.12617" lon="-0.35032">
        <time>2022-07-31T15:37:42Z</time>
      </trkpt>
      <trkpt lat="41.12604" lon="-0.35008">
        <time>2022-07-31T15:37:43Z</time>
      </trkpt>
      <trkpt lat="41.12591" lon="-0.34983">
        <time>2022-07-31T15:37:44Z</time>
      </trkpt>
      <trkpt lat="41.12578" lon="-0.34958">
        <time>2022-07-31T15:37:45Z</time>
      </trkpt>
      <trkpt lat="41.12564" lon="-0.34931">
        <time>2022-07-31T15:37:46Z</time>
      </trkpt>
      <trkpt lat="41.12549" lon="-0.34905">
        <time>2022-07-31T15:37:47Z</time>
      </trkpt>
      <trkpt lat="41.12535" lon="-0.34877">
        <time>2022-07-31T15:37:48Z</time>
      </trkpt>
      <trkpt lat="41.12521" lon="-0.3485">
        <time>2022-07-31T15:37:49Z</time>
      </trkpt>
      <trkpt lat="41.12506" lon="-0.34821">
        <time>2022-07-31T15:37:50Z</time>
      </trkpt>
      <trkpt lat="41.12491" lon="-0.34793">
        <time>2022-07-31T15:37:51Z</time>
      </trkpt>
      <trkpt lat="41.12476" lon="-0.34763">
        <time>2022-07-31T15:37:52Z</time>
      </trkpt>
      <trkpt lat="41.1246" lon="-0.34734">
        <time>2022-07-31T15:37:53Z</time>
      </trkpt>
      <trkpt lat="41.12444" lon="-0.34703">
        <time>2022-07-31T15:37:54Z</time>
      </trkpt>
      <trkpt lat="41.12428" lon="-0.34673">
        <time>2022-07-31T15:37:56Z</time>
      </trkpt>
      <trkpt lat="41.12413" lon="-0.34642">
        <time>2022-07-31T15:37:56Z</time>
      </trkpt>
      <trkpt lat="41.12396" lon="-0.34612">
        <time>2022-07-31T15:37:58Z</time>
      </trkpt>
      <trkpt lat="41.12379" lon="-0.34582">
        <time>2022-07-31T15:37:59Z</time>
      </trkpt>
      <trkpt lat="41.1236" lon="-0.34553">
        <time>2022-07-31T15:37:59Z</time>
      </trkpt>
      <trkpt lat="41.1234" lon="-0.34525">
        <time>2022-07-31T15:38:00Z</time>
      </trkpt>
      <trkpt lat="41.12318" lon="-0.34499">
        <time>2022-07-31T15:38:01Z</time>
      </trkpt>
      <trkpt lat="41.12295" lon="-0.34473">
        <time>2022-07-31T15:38:02Z</time>
      </trkpt>
      <trkpt lat="41.1227" lon="-0.34449">
        <time>2022-07-31T15:38:03Z</time>
      </trkpt>
      <trkpt lat="41.12245" lon="-0.34424">
        <time>2022-07-31T15:38:04Z</time>
      </trkpt>
      <trkpt lat="41.12219" lon="-0.344">
        <time>2022-07-31T15:38:05Z</time>
      </trkpt>
      <trkpt lat="41.12192" lon="-0.34375">
        <time>2022-07-31T15:38:07Z</time>
      </trkpt>
      <trkpt lat="41.12165" lon="-0.34351">
        <time>2022-07-31T15:38:07Z</time>
      </trkpt>
      <trkpt lat="41.12138" lon="-0.34326">
        <time>2022-07-31T15:38:08Z</time>
      </trkpt>
      <trkpt lat="41.12111" lon="-0.34301">
        <time>2022-07-31T15:38:09Z</time>
      </trkpt>
      <trkpt lat="41.12084" lon="-0.34275">
        <time>2022-07-31T15:38:10Z</time>
      </trkpt>
      <trkpt lat="41.12057" lon="-0.3425">
        <time>2022-07-31T15:38:11Z</time>
      </trkpt>
      <trkpt lat="41.1203" lon="-0.34226">
        <time>2022-07-31T15:38:12Z</time>
      </trkpt>
      <trkpt lat="41.12003" lon="-0.34201">
        <time>2022-07-31T15:38:13Z</time>
      </trkpt>
      <trkpt lat="41.11976" lon="-0.34176">
        <time>2022-07-31T15:38:14Z</time>
      </trkpt>
      <trkpt lat="41.11949" lon="-0.34152">
        <time>2022-07-31T15:38:15Z</time>
      </trkpt>
      <trkpt lat="41.11922" lon="-0.34128">
        <time>2022-07-31T15:38:16Z</time>
      </trkpt>
      <trkpt lat="41.11896" lon="-0.34103">
        <time>2022-07-31T15:38:17Z</time>
      </trkpt>
      <trkpt lat="41.1187" lon="-0.34079">
        <time>2022-07-31T15:38:18Z</time>
      </trkpt>
      <trkpt lat="41.11844" lon="-0.34056">
        <time>2022-07-31T15:38:19Z</time>
      </trkpt>
      <trkpt lat="41.11819" lon="-0.34032">
        <time>2022-07-31T15:38:20Z</time>
      </trkpt>
      <trkpt lat="41.11794" lon="-0.34008">
        <time>2022-07-31T15:38:22Z</time>
      </trkpt>
      <trkpt lat="41.11769" lon="-0.33985">
        <time>2022-07-31T15:38:22Z</time>
      </trkpt>
      <trkpt lat="41.11744" lon="-0.33962">
        <time>2022-07-31T15:38:23Z</time>
      </trkpt>
      <trkpt lat="41.11719" lon="-0.33939">
        <time>2022-07-31T15:38:24Z</time>
      </trkpt>
      <trkpt lat="41.11695" lon="-0.33915">
        <time>2022-07-31T15:38:25Z</time>
      </trkpt>
      <trkpt lat="41.11671" lon="-0.33889">
        <time>2022-07-31T15:38:26Z</time>
      </trkpt>
      <trkpt lat="41.11648" lon="-0.33861">
        <time>2022-07-31T15:38:27Z</time>
      </trkpt>
      <trkpt lat="41.11627" lon="-0.33831">
        <time>2022-07-31T15:38:28Z</time>
      </trkpt>
      <trkpt lat="41.11607" lon="-0.33798">
        <time>2022-07-31T15:38:29Z</time>
      </trkpt>
      <trkpt lat="41.11589" lon="-0.33765">
        <time>2022-07-31T15:38:30Z</time>
      </trkpt>
      <trkpt lat="41.11572" lon="-0.33729">
        <time>2022-07-31T15:38:31Z</time>
      </trkpt>
      <trkpt lat="41.11555" lon="-0.33693">
        <time>2022-07-31T15:38:32Z</time>
      </trkpt>
      <trkpt lat="41.11538" lon="-0.33655">
        <time>2022-07-31T15:38:33Z</time>
      </trkpt>
      <trkpt lat="41.11522" lon="-0.33619">
        <time>2022-07-31T15:38:34Z</time>
      </trkpt>
      <trkpt lat="41.11505" lon="-0.33581">
        <time>2022-07-31T15:38:35Z</time>
      </trkpt>
      <trkpt lat="41.11488" lon="-0.33544">
        <time>2022-07-31T15:38:36Z</time>
      </trkpt>
      <trkpt lat="41.11471" lon="-0.33506">
        <time>2022-07-31T15:38:37Z</time>
      </trkpt>
      <trkpt lat="41.11454" lon="-0.33469">
        <time>2022-07-31T15:38:38Z</time>
      </trkpt>
      <trkpt lat="41.11438" lon="-0.33432">
        <time>2022-07-31T15:38:39Z</time>
      </trkpt>
      <trkpt lat="41.11421" lon="-0.33395">
        <time>2022-07-31T15:38:40Z</time>
      </trkpt>
      <trkpt lat="41.11404" lon="-0.33358">
        <time>2022-07-31T15:38:41Z</time>
      </trkpt>
      <trkpt lat="41.11386" lon="-0.33322">
        <time>2022-07-31T15:38:42Z</time>
      </trkpt>
      <trkpt lat="41.11367" lon="-0.33286">
        <time>2022-07-31T15:38:43Z</time>
      </trkpt>
      <trkpt lat="41.11346" lon="-0.33251">
        <time>2022-07-31T15:38:44Z</time>
      </trkpt>
      <trkpt lat="41.11325" lon="-0.33217">
        <time>2022-07-31T15:38:45Z</time>
      </trkpt>
      <trkpt lat="41.11303" lon="-0.33184">
        <time>2022-07-31T15:38:46Z</time>
      </trkpt>
      <trkpt lat="41.11281" lon="-0.33152">
        <time>2022-07-31T15:38:47Z</time>
      </trkpt>
      <trkpt lat="41.1126" lon="-0.33119">
        <time>2022-07-31T15:38:48Z</time>
      </trkpt>
      <trkpt lat="41.11239" lon="-0.33086">
        <time>2022-07-31T15:38:49Z</time>
      </trkpt>
      <trkpt lat="41.11218" lon="-0.33054">
        <time>2022-07-31T15:38:50Z</time>
      </trkpt>
      <trkpt lat="41.11197" lon="-0.33021">
        <time>2022-07-31T15:38:51Z</time>
      </trkpt>
      <trkpt lat="41.11176" lon="-0.32988">
        <time>2022-07-31T15:38:52Z</time>
      </trkpt>
      <trkpt lat="41.11156" lon="-0.32955">
        <time>2022-07-31T15:38:53Z</time>
      </trkpt>
      <trkpt lat="41.11135" lon="-0.32923">
        <time>2022-07-31T15:38:54Z</time>
      </trkpt>
      <trkpt lat="41.11114" lon="-0.3289">
        <time>2022-07-31T15:38:55Z</time>
      </trkpt>
      <trkpt lat="41.11094" lon="-0.32857">
        <time>2022-07-31T15:38:56Z</time>
      </trkpt>
      <trkpt lat="41.11073" lon="-0.32824">
        <time>2022-07-31T15:38:57Z</time>
      </trkpt>
      <trkpt lat="41.11052" lon="-0.3279">
        <time>2022-07-31T15:38:58Z</time>
      </trkpt>
      <trkpt lat="41.11031" lon="-0.32757">
        <time>2022-07-31T15:38:59Z</time>
      </trkpt>
      <trkpt lat="41.1101" lon="-0.32724">
        <time>2022-07-31T15:39:00Z</time>
      </trkpt>
      <trkpt lat="41.10989" lon="-0.32691">
        <time>2022-07-31T15:39:01Z</time>
      </trkpt>
      <trkpt lat="41.10968" lon="-0.32657">
        <time>2022-07-31T15:39:02Z</time>
      </trkpt>
      <trkpt lat="41.10947" lon="-0.32624">
        <time>2022-07-31T15:39:03Z</time>
      </trkpt>
      <trkpt lat="41.10926" lon="-0.32591">
        <time>2022-07-31T15:39:04Z</time>
      </trkpt>
      <trkpt lat="41.10905" lon="-0.32559">
        <time>2022-07-31T15:39:05Z</time>
      </trkpt>
      <trkpt lat="41.10885" lon="-0.32527">
        <time>2022-07-31T15:39:06Z</time>
      </trkpt>
      <trkpt lat="41.10865" lon="-0.32495">
        <time>2022-07-31T15:39:07Z</time>
      </trkpt>
      <trkpt lat="41.10845" lon="-0.32464">
        <time>2022-07-31T15:39:08Z</time>
      </trkpt>
      <trkpt lat="41.10825" lon="-0.32433">
        <time>2022-07-31T15:39:09Z</time>
      </trkpt>
      <trkpt lat="41.10805" lon="-0.32402">
        <time>2022-07-31T15:39:10Z</time>
      </trkpt>
      <trkpt lat="41.10786" lon="-0.32371">
        <time>2022-07-31T15:39:11Z</time>
      </trkpt>
      <trkpt lat="41.10767" lon="-0.3234">
        <time>2022-07-31T15:39:12Z</time>
      </trkpt>
      <trkpt lat="41.10747" lon="-0.3231">
        <time>2022-07-31T15:39:13Z</time>
      </trkpt>
      <trkpt lat="41.10729" lon="-0.3228">
        <time>2022-07-31T15:39:14Z</time>
      </trkpt>
      <trkpt lat="41.10709" lon="-0.3225">
        <time>2022-07-31T15:39:15Z</time>
      </trkpt>
      <trkpt lat="41.1069" lon="-0.3222">
        <time>2022-07-31T15:39:16Z</time>
      </trkpt>
      <trkpt lat="41.10671" lon="-0.32191">
        <time>2022-07-31T15:39:17Z</time>
      </trkpt>
      <trkpt lat="41.10652" lon="-0.32161">
        <time>2022-07-31T15:39:18Z</time>
      </trkpt>
      <trkpt lat="41.10633" lon="-0.3213">
        <time>2022-07-31T15:39:19Z</time>
      </trkpt>
      <trkpt lat="41.10614" lon="-0.321">
        <time>2022-07-31T15:39:20Z</time>
      </trkpt>
      <trkpt lat="41.10594" lon="-0.32069">
        <time>2022-07-31T15:39:21Z</time>
      </trkpt>
      <trkpt lat="41.10575" lon="-0.32038">
        <time>2022-07-31T15:39:22Z</time>
      </trkpt>
      <trkpt lat="41.10555" lon="-0.32007">
        <time>2022-07-31T15:39:23Z</time>
      </trkpt>
      <trkpt lat="41.10535" lon="-0.31977">
        <time>2022-07-31T15:39:24Z</time>
      </trkpt>
      <trkpt lat="41.10516" lon="-0.31946">
        <time>2022-07-31T15:39:25Z</time>
      </trkpt>
      <trkpt lat="41.10496" lon="-0.31915">
        <time>2022-07-31T15:39:26Z</time>
      </trkpt>
      <trkpt lat="41.10477" lon="-0.31885">
        <time>2022-07-31T15:39:27Z</time>
      </trkpt>
      <trkpt lat="41.10459" lon="-0.31855">
        <time>2022-07-31T15:39:28Z</time>
      </trkpt>
      <trkpt lat="41.1044" lon="-0.31826">
        <time>2022-07-31T15:39:29Z</time>
      </trkpt>
      <trkpt lat="41.10423" lon="-0.31799">
        <time>2022-07-31T15:39:30Z</time>
      </trkpt>
      <trkpt lat="41.10405" lon="-0.31772">
        <time>2022-07-31T15:39:31Z</time>
      </trkpt>
      <trkpt lat="41.10389" lon="-0.31747">
        <time>2022-07-31T15:39:32Z</time>
      </trkpt>
      <trkpt lat="41.10372" lon="-0.31721">
        <time>2022-07-31T15:39:33Z</time>
      </trkpt>
      <trkpt lat="41.10357" lon="-0.31696">
        <time>2022-07-31T15:39:34Z</time>
      </trkpt>
      <trkpt lat="41.10341" lon="-0.31672">
        <time>2022-07-31T15:39:35Z</time>
      </trkpt>
      <trkpt lat="41.10326" lon="-0.31647">
        <time>2022-07-31T15:39:36Z</time>
      </trkpt>
      <trkpt lat="41.10311" lon="-0.31622">
        <time>2022-07-31T15:39:38Z</time>
      </trkpt>
      <trkpt lat="41.10295" lon="-0.31596">
        <time>2022-07-31T15:39:39Z</time>
      </trkpt>
      <trkpt lat="41.10279" lon="-0.3157">
        <time>2022-07-31T15:39:39Z</time>
      </trkpt>
      <trkpt lat="41.10263" lon="-0.31542">
        <time>2022-07-31T15:39:40Z</time>
      </trkpt>
      <trkpt lat="41.10248" lon="-0.31512">
        <time>2022-07-31T15:39:41Z</time>
      </trkpt>
      <trkpt lat="41.10235" lon="-0.31481">
        <time>2022-07-31T15:39:42Z</time>
      </trkpt>
      <trkpt lat="41.10222" lon="-0.31448">
        <time>2022-07-31T15:39:43Z</time>
      </trkpt>
      <trkpt lat="41.1021" lon="-0.31414">
        <time>2022-07-31T15:39:44Z</time>
      </trkpt>
      <trkpt lat="41.10199" lon="-0.31379">
        <time>2022-07-31T15:39:45Z</time>
      </trkpt>
      <trkpt lat="41.10188" lon="-0.31343">
        <time>2022-07-31T15:39:46Z</time>
      </trkpt>
      <trkpt lat="41.10178" lon="-0.31307">
        <time>2022-07-31T15:39:47Z</time>
      </trkpt>
      <trkpt lat="41.10167" lon="-0.3127">
        <time>2022-07-31T15:39:48Z</time>
      </trkpt>
      <trkpt lat="41.10155" lon="-0.31234">
        <time>2022-07-31T15:39:49Z</time>
      </trkpt>
      <trkpt lat="41.10144" lon="-0.31197">
        <time>2022-07-31T15:39:50Z</time>
      </trkpt>
      <trkpt lat="41.10133" lon="-0.3116">
        <time>2022-07-31T15:39:51Z</time>
      </trkpt>
      <trkpt lat="41.10122" lon="-0.31123">
        <time>2022-07-31T15:39:53Z</time>
      </trkpt>
      <trkpt lat="41.10111" lon="-0.31086">
        <time>2022-07-31T15:39:53Z</time>
      </trkpt>
      <trkpt lat="41.101" lon="-0.3105">
        <time>2022-07-31T15:39:54Z</time>
      </trkpt>
      <trkpt lat="41.10089" lon="-0.31013">
        <time>2022-07-31T15:39:55Z</time>
      </trkpt>
      <trkpt lat="41.10078" lon="-0.30976">
        <time>2022-07-31T15:39:56Z</time>
      </trkpt>
      <trkpt lat="41.10066" lon="-0.3094">
        <time>2022-07-31T15:39:57Z</time>
      </trkpt>
      <trkpt lat="41.10055" lon="-0.30903">
        <time>2022-07-31T15:39:58Z</time>
      </trkpt>
      <trkpt lat="41.10044" lon="-0.30866">
        <time>2022-07-31T15:39:59Z</time>
      </trkpt>
      <trkpt lat="41.10033" lon="-0.3083">
        <time>2022-07-31T15:40:00Z</time>
      </trkpt>
      <trkpt lat="41.10022" lon="-0.30793">
        <time>2022-07-31T15:40:01Z</time>
      </trkpt>
      <trkpt lat="41.10011" lon="-0.30757">
        <time>2022-07-31T15:40:02Z</time>
      </trkpt>
      <trkpt lat="41.1" lon="-0.30721">
        <time>2022-07-31T15:40:03Z</time>
      </trkpt>
      <trkpt lat="41.09989" lon="-0.30684">
        <time>2022-07-31T15:40:04Z</time>
      </trkpt>
      <trkpt lat="41.09979" lon="-0.30648">
        <time>2022-07-31T15:40:05Z</time>
      </trkpt>
      <trkpt lat="41.09967" lon="-0.30611">
        <time>2022-07-31T15:40:06Z</time>
      </trkpt>
      <trkpt lat="41.09956" lon="-0.30575">
        <time>2022-07-31T15:40:07Z</time>
      </trkpt>
      <trkpt lat="41.09945" lon="-0.3054">
        <time>2022-07-31T15:40:09Z</time>
      </trkpt>
      <trkpt lat="41.09935" lon="-0.30505">
        <time>2022-07-31T15:40:09Z</time>
      </trkpt>
      <trkpt lat="41.09925" lon="-0.3047">
        <time>2022-07-31T15:40:11Z</time>
      </trkpt>
      <trkpt lat="41.09914" lon="-0.30434">
        <time>2022-07-31T15:40:12Z</time>
      </trkpt>
      <trkpt lat="41.09904" lon="-0.304">
        <time>2022-07-31T15:40:12Z</time>
      </trkpt>
      <trkpt lat="41.09893" lon="-0.30365">
        <time>2022-07-31T15:40:13Z</time>
      </trkpt>
      <trkpt lat="41.09882" lon="-0.3033">
        <time>2022-07-31T15:40:14Z</time>
      </trkpt>
      <trkpt lat="41.09872" lon="-0.30295">
        <time>2022-07-31T15:40:15Z</time>
      </trkpt>
      <trkpt lat="41.09861" lon="-0.30261">
        <time>2022-07-31T15:40:17Z</time>
      </trkpt>
      <trkpt lat="41.0985" lon="-0.30226">
        <time>2022-07-31T15:40:18Z</time>
      </trkpt>
      <trkpt lat="41.0984" lon="-0.3019">
        <time>2022-07-31T15:40:18Z</time>
      </trkpt>
      <trkpt lat="41.09829" lon="-0.30155">
        <time>2022-07-31T15:40:19Z</time>
      </trkpt>
      <trkpt lat="41.09818" lon="-0.30119">
        <time>2022-07-31T15:40:20Z</time>
      </trkpt>
      <trkpt lat="41.09808" lon="-0.30083">
        <time>2022-07-31T15:40:21Z</time>
      </trkpt>
      <trkpt lat="41.09797" lon="-0.30048">
        <time>2022-07-31T15:40:22Z</time>
      </trkpt>
      <trkpt lat="41.09786" lon="-0.30012">
        <time>2022-07-31T15:40:23Z</time>
      </trkpt>
      <trkpt lat="41.09775" lon="-0.29976">
        <time>2022-07-31T15:40:25Z</time>
      </trkpt>
      <trkpt lat="41.09765" lon="-0.2994">
        <time>2022-07-31T15:40:25Z</time>
      </trkpt>
      <trkpt lat="41.09755" lon="-0.29905">
        <time>2022-07-31T15:40:26Z</time>
      </trkpt>
      <trkpt lat="41.09744" lon="-0.29869">
        <time>2022-07-31T15:40:27Z</time>
      </trkpt>
      <trkpt lat="41.09733" lon="-0.29834">
        <time>2022-07-31T15:40:28Z</time>
      </trkpt>
      <trkpt lat="41.09722" lon="-0.29798">
        <time>2022-07-31T15:40:29Z</time>
      </trkpt>
      <trkpt lat="41.09712" lon="-0.29762">
        <time>2022-07-31T15:40:30Z</time>
      </trkpt>
      <trkpt lat="41.09701" lon="-0.29727">
        <time>2022-07-31T15:40:31Z</time>
      </trkpt>
      <trkpt lat="41.0969" lon="-0.29691">
        <time>2022-07-31T15:40:32Z</time>
      </trkpt>
      <trkpt lat="41.09679" lon="-0.29656">
        <time>2022-07-31T15:40:34Z</time>
      </trkpt>
      <trkpt lat="41.09668" lon="-0.2962">
        <time>2022-07-31T15:40:34Z</time>
      </trkpt>
      <trkpt lat="41.09657" lon="-0.29585">
        <time>2022-07-31T15:40:35Z</time>
      </trkpt>
      <trkpt lat="41.09645" lon="-0.2955">
        <time>2022-07-31T15:40:36Z</time>
      </trkpt>
      <trkpt lat="41.09633" lon="-0.29515">
        <time>2022-07-31T15:40:37Z</time>
      </trkpt>
      <trkpt lat="41.0962" lon="-0.29481">
        <time>2022-07-31T15:40:38Z</time>
      </trkpt>
      <trkpt lat="41.09607" lon="-0.29447">
        <time>2022-07-31T15:40:39Z</time>
      </trkpt>
      <trkpt lat="41.09594" lon="-0.29413">
        <time>2022-07-31T15:40:40Z</time>
      </trkpt>
      <trkpt lat="41.09581" lon="-0.29379">
        <time>2022-07-31T15:40:41Z</time>
      </trkpt>
      <trkpt lat="41.09568" lon="-0.29345">
        <time>2022-07-31T15:40:42Z</time>
      </trkpt>
      <trkpt lat="41.09554" lon="-0.2931">
        <time>2022-07-31T15:40:43Z</time>
      </trkpt>
      <trkpt lat="41.09541" lon="-0.29275">
        <time>2022-07-31T15:40:44Z</time>
      </trkpt>
      <trkpt lat="41.09527" lon="-0.29241">
        <time>2022-07-31T15:40:45Z</time>
      </trkpt>
      <trkpt lat="41.09514" lon="-0.29206">
        <time>2022-07-31T15:40:46Z</time>
      </trkpt>
      <trkpt lat="41.095" lon="-0.29171">
        <time>2022-07-31T15:40:47Z</time>
      </trkpt>
      <trkpt lat="41.09486" lon="-0.29136">
        <time>2022-07-31T15:40:48Z</time>
      </trkpt>
      <trkpt lat="41.09472" lon="-0.29099">
        <time>2022-07-31T15:40:49Z</time>
      </trkpt>
      <trkpt lat="41.09458" lon="-0.29064">
        <time>2022-07-31T15:40:50Z</time>
      </trkpt>
      <trkpt lat="41.09444" lon="-0.29028">
        <time>2022-07-31T15:40:51Z</time>
      </trkpt>
      <trkpt lat="41.09429" lon="-0.28992">
        <time>2022-07-31T15:40:52Z</time>
      </trkpt>
      <trkpt lat="41.09416" lon="-0.28956">
        <time>2022-07-31T15:40:53Z</time>
      </trkpt>
      <trkpt lat="41.09401" lon="-0.2892">
        <time>2022-07-31T15:40:54Z</time>
      </trkpt>
      <trkpt lat="41.09387" lon="-0.28884">
        <time>2022-07-31T15:40:56Z</time>
      </trkpt>
      <trkpt lat="41.09373" lon="-0.28848">
        <time>2022-07-31T15:40:56Z</time>
      </trkpt>
      <trkpt lat="41.09359" lon="-0.28812">
        <time>2022-07-31T15:40:57Z</time>
      </trkpt>
      <trkpt lat="41.09346" lon="-0.28776">
        <time>2022-07-31T15:40:58Z</time>
      </trkpt>
      <trkpt lat="41.09332" lon="-0.2874">
        <time>2022-07-31T15:40:59Z</time>
      </trkpt>
      <trkpt lat="41.09318" lon="-0.28704">
        <time>2022-07-31T15:41:00Z</time>
      </trkpt>
      <trkpt lat="41.09303" lon="-0.28668">
        <time>2022-07-31T15:41:01Z</time>
      </trkpt>
      <trkpt lat="41.09289" lon="-0.28631">
        <time>2022-07-31T15:41:02Z</time>
      </trkpt>
      <trkpt lat="41.09274" lon="-0.28595">
        <time>2022-07-31T15:41:03Z</time>
      </trkpt>
      <trkpt lat="41.0926" lon="-0.28558">
        <time>2022-07-31T15:41:04Z</time>
      </trkpt>
      <trkpt lat="41.09245" lon="-0.28521">
        <time>2022-07-31T15:41:05Z</time>
      </trkpt>
      <trkpt lat="41.09231" lon="-0.28483">
        <time>2022-07-31T15:41:06Z</time>
      </trkpt>
      <trkpt lat="41.09217" lon="-0.28446">
        <time>2022-07-31T15:41:07Z</time>
      </trkpt>
      <trkpt lat="41.09202" lon="-0.28408">
        <time>2022-07-31T15:41:08Z</time>
      </trkpt>
      <trkpt lat="41.09187" lon="-0.28371">
        <time>2022-07-31T15:41:09Z</time>
      </trkpt>
      <trkpt lat="41.09173" lon="-0.28334">
        <time>2022-07-31T15:41:11Z</time>
      </trkpt>
      <trkpt lat="41.09158" lon="-0.28297">
        <time>2022-07-31T15:41:11Z</time>
      </trkpt>
      <trkpt lat="41.09143" lon="-0.28259">
        <time>2022-07-31T15:41:12Z</time>
      </trkpt>
      <trkpt lat="41.09128" lon="-0.28221">
        <time>2022-07-31T15:41:13Z</time>
      </trkpt>
      <trkpt lat="41.09113" lon="-0.28183">
        <time>2022-07-31T15:41:14Z</time>
      </trkpt>
      <trkpt lat="41.09097" lon="-0.28146">
        <time>2022-07-31T15:41:15Z</time>
      </trkpt>
      <trkpt lat="41.09082" lon="-0.28108">
        <time>2022-07-31T15:41:16Z</time>
      </trkpt>
      <trkpt lat="41.09067" lon="-0.2807">
        <time>2022-07-31T15:41:17Z</time>
      </trkpt>
      <trkpt lat="41.09052" lon="-0.28033">
        <time>2022-07-31T15:41:19Z</time>
      </trkpt>
      <trkpt lat="41.09037" lon="-0.27995">
        <time>2022-07-31T15:41:19Z</time>
      </trkpt>
      <trkpt lat="41.09023" lon="-0.27958">
        <time>2022-07-31T15:41:20Z</time>
      </trkpt>
      <trkpt lat="41.09008" lon="-0.27921">
        <time>2022-07-31T15:41:21Z</time>
      </trkpt>
      <trkpt lat="41.08993" lon="-0.27884">
        <time>2022-07-31T15:41:22Z</time>
      </trkpt>
      <trkpt lat="41.08979" lon="-0.27847">
        <time>2022-07-31T15:41:23Z</time>
      </trkpt>
      <trkpt lat="41.08965" lon="-0.27809">
        <time>2022-07-31T15:41:24Z</time>
      </trkpt>
      <trkpt lat="41.08952" lon="-0.27771">
        <time>2022-07-31T15:41:25Z</time>
      </trkpt>
      <trkpt lat="41.0894" lon="-0.27732">
        <time>2022-07-31T15:41:27Z</time>
      </trkpt>
      <trkpt lat="41.08931" lon="-0.27693">
        <time>2022-07-31T15:41:27Z</time>
      </trkpt>
      <trkpt lat="41.08924" lon="-0.27653">
        <time>2022-07-31T15:41:28Z</time>
      </trkpt>
      <trkpt lat="41.08917" lon="-0.27612">
        <time>2022-07-31T15:41:29Z</time>
      </trkpt>
      <trkpt lat="41.08911" lon="-0.2757">
        <time>2022-07-31T15:41:30Z</time>
      </trkpt>
      <trkpt lat="41.08905" lon="-0.27528">
        <time>2022-07-31T15:41:31Z</time>
      </trkpt>
      <trkpt lat="41.08899" lon="-0.27486">
        <time>2022-07-31T15:41:32Z</time>
      </trkpt>
      <trkpt lat="41.08893" lon="-0.27444">
        <time>2022-07-31T15:41:33Z</time>
      </trkpt>
      <trkpt lat="41.08887" lon="-0.27402">
        <time>2022-07-31T15:41:34Z</time>
      </trkpt>
      <trkpt lat="41.08879" lon="-0.27361">
        <time>2022-07-31T15:41:35Z</time>
      </trkpt>
      <trkpt lat="41.08871" lon="-0.27319">
        <time>2022-07-31T15:41:36Z</time>
      </trkpt>
      <trkpt lat="41.08861" lon="-0.27278">
        <time>2022-07-31T15:41:37Z</time>
      </trkpt>
      <trkpt lat="41.08849" lon="-0.27238">
        <time>2022-07-31T15:41:38Z</time>
      </trkpt>
      <trkpt lat="41.08835" lon="-0.272">
        <time>2022-07-31T15:41:39Z</time>
      </trkpt>
      <trkpt lat="41.08819" lon="-0.27162">
        <time>2022-07-31T15:41:40Z</time>
      </trkpt>
      <trkpt lat="41.08804" lon="-0.27126">
        <time>2022-07-31T15:41:41Z</time>
      </trkpt>
      <trkpt lat="41.08789" lon="-0.27091">
        <time>2022-07-31T15:41:43Z</time>
      </trkpt>
      <trkpt lat="41.08775" lon="-0.27056">
        <time>2022-07-31T15:41:43Z</time>
      </trkpt>
      <trkpt lat="41.08761" lon="-0.27022">
        <time>2022-07-31T15:41:45Z</time>
      </trkpt>
      <trkpt lat="41.08748" lon="-0.26987">
        <time>2022-07-31T15:41:45Z</time>
      </trkpt>
      <trkpt lat="41.08736" lon="-0.26953">
        <time>2022-07-31T15:41:46Z</time>
      </trkpt>
      <trkpt lat="41.08726" lon="-0.26916">
        <time>2022-07-31T15:41:47Z</time>
      </trkpt>
      <trkpt lat="41.08718" lon="-0.26879">
        <time>2022-07-31T15:41:48Z</time>
      </trkpt>
      <trkpt lat="41.08712" lon="-0.2684">
        <time>2022-07-31T15:41:50Z</time>
      </trkpt>
      <trkpt lat="41.08707" lon="-0.26801">
        <time>2022-07-31T15:41:50Z</time>
      </trkpt>
      <trkpt lat="41.08702" lon="-0.26762">
        <time>2022-07-31T15:41:52Z</time>
      </trkpt>
      <trkpt lat="41.08697" lon="-0.26722">
        <time>2022-07-31T15:41:52Z</time>
      </trkpt>
      <trkpt lat="41.08692" lon="-0.26684">
        <time>2022-07-31T15:41:54Z</time>
      </trkpt>
      <trkpt lat="41.08685" lon="-0.26645">
        <time>2022-07-31T15:41:54Z</time>
      </trkpt>
      <trkpt lat="41.08677" lon="-0.26607">
        <time>2022-07-31T15:41:55Z</time>
      </trkpt>
      <trkpt lat="41.08667" lon="-0.2657">
        <time>2022-07-31T15:41:56Z</time>
      </trkpt>
      <trkpt lat="41.08655" lon="-0.26534">
        <time>2022-07-31T15:41:57Z</time>
      </trkpt>
      <trkpt lat="41.08641" lon="-0.26498">
        <time>2022-07-31T15:41:58Z</time>
      </trkpt>
      <trkpt lat="41.08625" lon="-0.26463">
        <time>2022-07-31T15:41:59Z</time>
      </trkpt>
      <trkpt lat="41.08608" lon="-0.26429">
        <time>2022-07-31T15:42:00Z</time>
      </trkpt>
      <trkpt lat="41.08591" lon="-0.26395">
        <time>2022-07-31T15:42:01Z</time>
      </trkpt>
      <trkpt lat="41.08574" lon="-0.26361">
        <time>2022-07-31T15:42:02Z</time>
      </trkpt>
      <trkpt lat="41.08557" lon="-0.26328">
        <time>2022-07-31T15:42:03Z</time>
      </trkpt>
      <trkpt lat="41.08542" lon="-0.26294">
        <time>2022-07-31T15:42:04Z</time>
      </trkpt>
      <trkpt lat="41.08528" lon="-0.26259">
        <time>2022-07-31T15:42:06Z</time>
      </trkpt>
      <trkpt lat="41.08515" lon="-0.26222">
        <time>2022-07-31T15:42:06Z</time>
      </trkpt>
      <trkpt lat="41.08505" lon="-0.26185">
        <time>2022-07-31T15:42:08Z</time>
      </trkpt>
      <trkpt lat="41.08495" lon="-0.26147">
        <time>2022-07-31T15:42:08Z</time>
      </trkpt>
      <trkpt lat="41.08487" lon="-0.26107">
        <time>2022-07-31T15:42:09Z</time>
      </trkpt>
      <trkpt lat="41.0848" lon="-0.26067">
        <time>2022-07-31T15:42:10Z</time>
      </trkpt>
      <trkpt lat="41.08473" lon="-0.26027">
        <time>2022-07-31T15:42:11Z</time>
      </trkpt>
      <trkpt lat="41.08466" lon="-0.25987">
        <time>2022-07-31T15:42:12Z</time>
      </trkpt>
      <trkpt lat="41.0846" lon="-0.25948">
        <time>2022-07-31T15:42:13Z</time>
      </trkpt>
      <trkpt lat="41.08452" lon="-0.25908">
        <time>2022-07-31T15:42:14Z</time>
      </trkpt>
      <trkpt lat="41.08446" lon="-0.25869">
        <time>2022-07-31T15:42:15Z</time>
      </trkpt>
      <trkpt lat="41.08439" lon="-0.25831">
        <time>2022-07-31T15:42:16Z</time>
      </trkpt>
      <trkpt lat="41.08433" lon="-0.25794">
        <time>2022-07-31T15:42:17Z</time>
      </trkpt>
      <trkpt lat="41.08427" lon="-0.25756">
        <time>2022-07-31T15:42:18Z</time>
      </trkpt>
      <trkpt lat="41.0842" lon="-0.2572">
        <time>2022-07-31T15:42:19Z</time>
      </trkpt>
      <trkpt lat="41.08412" lon="-0.25686">
        <time>2022-07-31T15:42:20Z</time>
      </trkpt>
      <trkpt lat="41.08403" lon="-0.25652">
        <time>2022-07-31T15:42:22Z</time>
      </trkpt>
      <trkpt lat="41.0839" lon="-0.25619">
        <time>2022-07-31T15:42:22Z</time>
      </trkpt>
      <trkpt lat="41.08377" lon="-0.25587">
        <time>2022-07-31T15:42:24Z</time>
      </trkpt>
      <trkpt lat="41.08361" lon="-0.25556">
        <time>2022-07-31T15:42:24Z</time>
      </trkpt>
      <trkpt lat="41.08344" lon="-0.25525">
        <time>2022-07-31T15:42:25Z</time>
      </trkpt>
      <trkpt lat="41.08327" lon="-0.25495">
        <time>2022-07-31T15:42:26Z</time>
      </trkpt>
      <trkpt lat="41.08309" lon="-0.25466">
        <time>2022-07-31T15:42:27Z</time>
      </trkpt>
      <trkpt lat="41.08292" lon="-0.25436">
        <time>2022-07-31T15:42:28Z</time>
      </trkpt>
      <trkpt lat="41.08275" lon="-0.25407">
        <time>2022-07-31T15:42:29Z</time>
      </trkpt>
      <trkpt lat="41.08259" lon="-0.25377">
        <time>2022-07-31T15:42:30Z</time>
      </trkpt>
      <trkpt lat="41.08244" lon="-0.25346">
        <time>2022-07-31T15:42:31Z</time>
      </trkpt>
      <trkpt lat="41.0823" lon="-0.25313">
        <time>2022-07-31T15:42:32Z</time>
      </trkpt>
      <trkpt lat="41.08217" lon="-0.25279">
        <time>2022-07-31T15:42:33Z</time>
      </trkpt>
      <trkpt lat="41.08206" lon="-0.25243">
        <time>2022-07-31T15:42:34Z</time>
      </trkpt>
      <trkpt lat="41.08197" lon="-0.25206">
        <time>2022-07-31T15:42:36Z</time>
      </trkpt>
      <trkpt lat="41.0819" lon="-0.25166">
        <time>2022-07-31T15:42:36Z</time>
      </trkpt>
      <trkpt lat="41.08185" lon="-0.25127">
        <time>2022-07-31T15:42:37Z</time>
      </trkpt>
      <trkpt lat="41.08181" lon="-0.25087">
        <time>2022-07-31T15:42:38Z</time>
      </trkpt>
      <trkpt lat="41.08179" lon="-0.25047">
        <time>2022-07-31T15:42:40Z</time>
      </trkpt>
      <trkpt lat="41.08176" lon="-0.25006">
        <time>2022-07-31T15:42:41Z</time>
      </trkpt>
      <trkpt lat="41.08172" lon="-0.24965">
        <time>2022-07-31T15:42:42Z</time>
      </trkpt>
      <trkpt lat="41.08167" lon="-0.24925">
        <time>2022-07-31T15:42:42Z</time>
      </trkpt>
      <trkpt lat="41.0816" lon="-0.24885">
        <time>2022-07-31T15:42:43Z</time>
      </trkpt>
      <trkpt lat="41.08152" lon="-0.24844">
        <time>2022-07-31T15:42:44Z</time>
      </trkpt>
      <trkpt lat="41.08144" lon="-0.24804">
        <time>2022-07-31T15:42:45Z</time>
      </trkpt>
      <trkpt lat="41.08135" lon="-0.24764">
        <time>2022-07-31T15:42:47Z</time>
      </trkpt>
      <trkpt lat="41.08127" lon="-0.24724">
        <time>2022-07-31T15:42:47Z</time>
      </trkpt>
      <trkpt lat="41.08118" lon="-0.24684">
        <time>2022-07-31T15:42:48Z</time>
      </trkpt>
      <trkpt lat="41.0811" lon="-0.24645">
        <time>2022-07-31T15:42:49Z</time>
      </trkpt>
      <trkpt lat="41.08101" lon="-0.24606">
        <time>2022-07-31T15:42:50Z</time>
      </trkpt>
      <trkpt lat="41.08092" lon="-0.24567">
        <time>2022-07-31T15:42:51Z</time>
      </trkpt>
      <trkpt lat="41.08083" lon="-0.24529">
        <time>2022-07-31T15:42:52Z</time>
      </trkpt>
      <trkpt lat="41.08072" lon="-0.24491">
        <time>2022-07-31T15:42:53Z</time>
      </trkpt>
      <trkpt lat="41.08059" lon="-0.24456">
        <time>2022-07-31T15:42:54Z</time>
      </trkpt>
      <trkpt lat="41.08044" lon="-0.24421">
        <time>2022-07-31T15:42:55Z</time>
      </trkpt>
      <trkpt lat="41.08027" lon="-0.24388">
        <time>2022-07-31T15:42:56Z</time>
      </trkpt>
      <trkpt lat="41.08009" lon="-0.24357">
        <time>2022-07-31T15:42:57Z</time>
      </trkpt>
      <trkpt lat="41.0799" lon="-0.24327">
        <time>2022-07-31T15:42:58Z</time>
      </trkpt>
      <trkpt lat="41.07971" lon="-0.24296">
        <time>2022-07-31T15:42:59Z</time>
      </trkpt>
      <trkpt lat="41.07952" lon="-0.24266">
        <time>2022-07-31T15:43:00Z</time>
      </trkpt>
      <trkpt lat="41.07933" lon="-0.24236">
        <time>2022-07-31T15:43:01Z</time>
      </trkpt>
      <trkpt lat="41.07914" lon="-0.24206">
        <time>2022-07-31T15:43:02Z</time>
      </trkpt>
      <trkpt lat="41.07896" lon="-0.24175">
        <time>2022-07-31T15:43:03Z</time>
      </trkpt>
      <trkpt lat="41.07878" lon="-0.24145">
        <time>2022-07-31T15:43:05Z</time>
      </trkpt>
      <trkpt lat="41.0786" lon="-0.24116">
        <time>2022-07-31T15:43:05Z</time>
      </trkpt>
      <trkpt lat="41.07842" lon="-0.24087">
        <time>2022-07-31T15:43:06Z</time>
      </trkpt>
      <trkpt lat="41.07824" lon="-0.24057">
        <time>2022-07-31T15:43:07Z</time>
      </trkpt>
      <trkpt lat="41.07806" lon="-0.24028">
        <time>2022-07-31T15:43:08Z</time>
      </trkpt>
      <trkpt lat="41.07788" lon="-0.23998">
        <time>2022-07-31T15:43:09Z</time>
      </trkpt>
      <trkpt lat="41.07771" lon="-0.23969">
        <time>2022-07-31T15:43:11Z</time>
      </trkpt>
      <trkpt lat="41.07754" lon="-0.23939">
        <time>2022-07-31T15:43:11Z</time>
      </trkpt>
      <trkpt lat="41.07737" lon="-0.2391">
        <time>2022-07-31T15:43:12Z</time>
      </trkpt>
      <trkpt lat="41.0772" lon="-0.2388">
        <time>2022-07-31T15:43:13Z</time>
      </trkpt>
      <trkpt lat="41.07703" lon="-0.23849">
        <time>2022-07-31T15:43:15Z</time>
      </trkpt>
      <trkpt lat="41.07687" lon="-0.23818">
        <time>2022-07-31T15:43:15Z</time>
      </trkpt>
      <trkpt lat="41.0767" lon="-0.23786">
        <time>2022-07-31T15:43:16Z</time>
      </trkpt>
      <trkpt lat="41.07653" lon="-0.23754">
        <time>2022-07-31T15:43:17Z</time>
      </trkpt>
      <trkpt lat="41.07636" lon="-0.23722">
        <time>2022-07-31T15:43:18Z</time>
      </trkpt>
      <trkpt lat="41.07619" lon="-0.23689">
        <time>2022-07-31T15:43:19Z</time>
      </trkpt>
      <trkpt lat="41.07603" lon="-0.23656">
        <time>2022-07-31T15:43:20Z</time>
      </trkpt>
      <trkpt lat="41.07586" lon="-0.23623">
        <time>2022-07-31T15:43:21Z</time>
      </trkpt>
      <trkpt lat="41.07569" lon="-0.2359">
        <time>2022-07-31T15:43:22Z</time>
      </trkpt>
      <trkpt lat="41.07552" lon="-0.23555">
        <time>2022-07-31T15:43:23Z</time>
      </trkpt>
      <trkpt lat="41.07535" lon="-0.23521">
        <time>2022-07-31T15:43:24Z</time>
      </trkpt>
      <trkpt lat="41.07518" lon="-0.23487">
        <time>2022-07-31T15:43:25Z</time>
      </trkpt>
      <trkpt lat="41.07501" lon="-0.23452">
        <time>2022-07-31T15:43:26Z</time>
      </trkpt>
      <trkpt lat="41.07484" lon="-0.23418">
        <time>2022-07-31T15:43:27Z</time>
      </trkpt>
      <trkpt lat="41.07467" lon="-0.23384">
        <time>2022-07-31T15:43:29Z</time>
      </trkpt>
      <trkpt lat="41.07449" lon="-0.23349">
        <time>2022-07-31T15:43:30Z</time>
      </trkpt>
      <trkpt lat="41.07431" lon="-0.23315">
        <time>2022-07-31T15:43:30Z</time>
      </trkpt>
      <trkpt lat="41.07414" lon="-0.23281">
        <time>2022-07-31T15:43:31Z</time>
      </trkpt>
      <trkpt lat="41.07396" lon="-0.23246">
        <time>2022-07-31T15:43:32Z</time>
      </trkpt>
      <trkpt lat="41.07379" lon="-0.23212">
        <time>2022-07-31T15:43:33Z</time>
      </trkpt>
      <trkpt lat="41.07361" lon="-0.23178">
        <time>2022-07-31T15:43:34Z</time>
      </trkpt>
      <trkpt lat="41.07343" lon="-0.23144">
        <time>2022-07-31T15:43:35Z</time>
      </trkpt>
      <trkpt lat="41.07325" lon="-0.23111">
        <time>2022-07-31T15:43:36Z</time>
      </trkpt>
      <trkpt lat="41.07307" lon="-0.23077">
        <time>2022-07-31T15:43:37Z</time>
      </trkpt>
      <trkpt lat="41.07289" lon="-0.23042">
        <time>2022-07-31T15:43:38Z</time>
      </trkpt>
      <trkpt lat="41.0727" lon="-0.23008">
        <time>2022-07-31T15:43:39Z</time>
      </trkpt>
      <trkpt lat="41.07252" lon="-0.22974">
        <time>2022-07-31T15:43:40Z</time>
      </trkpt>
      <trkpt lat="41.07234" lon="-0.22939">
        <time>2022-07-31T15:43:41Z</time>
      </trkpt>
      <trkpt lat="41.07215" lon="-0.22905">
        <time>2022-07-31T15:43:42Z</time>
      </trkpt>
      <trkpt lat="41.07197" lon="-0.22871">
        <time>2022-07-31T15:43:43Z</time>
      </trkpt>
      <trkpt lat="41.07179" lon="-0.22838">
        <time>2022-07-31T15:43:44Z</time>
      </trkpt>
      <trkpt lat="41.07161" lon="-0.22804">
        <time>2022-07-31T15:43:45Z</time>
      </trkpt>
      <trkpt lat="41.07142" lon="-0.2277">
        <time>2022-07-31T15:43:46Z</time>
      </trkpt>
      <trkpt lat="41.07124" lon="-0.22736">
        <time>2022-07-31T15:43:47Z</time>
      </trkpt>
      <trkpt lat="41.07106" lon="-0.22702">
        <time>2022-07-31T15:43:49Z</time>
      </trkpt>
      <trkpt lat="41.07087" lon="-0.22668">
        <time>2022-07-31T15:43:49Z</time>
      </trkpt>
      <trkpt lat="41.07069" lon="-0.22634">
        <time>2022-07-31T15:43:50Z</time>
      </trkpt>
      <trkpt lat="41.07051" lon="-0.226">
        <time>2022-07-31T15:43:51Z</time>
      </trkpt>
      <trkpt lat="41.07033" lon="-0.22567">
        <time>2022-07-31T15:43:52Z</time>
      </trkpt>
      <trkpt lat="41.07015" lon="-0.22533">
        <time>2022-07-31T15:43:53Z</time>
      </trkpt>
      <trkpt lat="41.06996" lon="-0.22499">
        <time>2022-07-31T15:43:54Z</time>
      </trkpt>
      <trkpt lat="41.06978" lon="-0.22465">
        <time>2022-07-31T15:43:55Z</time>
      </trkpt>
      <trkpt lat="41.0696" lon="-0.22432">
        <time>2022-07-31T15:43:56Z</time>
      </trkpt>
      <trkpt lat="41.06943" lon="-0.224">
        <time>2022-07-31T15:43:57Z</time>
      </trkpt>
      <trkpt lat="41.06927" lon="-0.22368">
        <time>2022-07-31T15:43:58Z</time>
      </trkpt>
      <trkpt lat="41.06911" lon="-0.22335">
        <time>2022-07-31T15:43:59Z</time>
      </trkpt>
      <trkpt lat="41.06897" lon="-0.22301">
        <time>2022-07-31T15:44:00Z</time>
      </trkpt>
      <trkpt lat="41.06883" lon="-0.22264">
        <time>2022-07-31T15:44:02Z</time>
      </trkpt>
      <trkpt lat="41.0687" lon="-0.22226">
        <time>2022-07-31T15:44:02Z</time>
      </trkpt>
      <trkpt lat="41.06856" lon="-0.22185">
        <time>2022-07-31T15:44:03Z</time>
      </trkpt>
      <trkpt lat="41.06842" lon="-0.22144">
        <time>2022-07-31T15:44:05Z</time>
      </trkpt>
      <trkpt lat="41.06827" lon="-0.22105">
        <time>2022-07-31T15:44:05Z</time>
      </trkpt>
      <trkpt lat="41.06813" lon="-0.22064">
        <time>2022-07-31T15:44:06Z</time>
      </trkpt>
      <trkpt lat="41.06798" lon="-0.22025">
        <time>2022-07-31T15:44:07Z</time>
      </trkpt>
      <trkpt lat="41.06783" lon="-0.21986">
        <time>2022-07-31T15:44:08Z</time>
      </trkpt>
      <trkpt lat="41.06769" lon="-0.21947">
        <time>2022-07-31T15:44:09Z</time>
      </trkpt>
      <trkpt lat="41.06755" lon="-0.21909">
        <time>2022-07-31T15:44:10Z</time>
      </trkpt>
      <trkpt lat="41.06742" lon="-0.2187">
        <time>2022-07-31T15:44:11Z</time>
      </trkpt>
      <trkpt lat="41.06728" lon="-0.21831">
        <time>2022-07-31T15:44:12Z</time>
      </trkpt>
      <trkpt lat="41.06715" lon="-0.21793">
        <time>2022-07-31T15:44:13Z</time>
      </trkpt>
      <trkpt lat="41.06701" lon="-0.21755">
        <time>2022-07-31T15:44:14Z</time>
      </trkpt>
      <trkpt lat="41.06687" lon="-0.21717">
        <time>2022-07-31T15:44:15Z</time>
      </trkpt>
      <trkpt lat="41.06674" lon="-0.21679">
        <time>2022-07-31T15:44:16Z</time>
      </trkpt>
      <trkpt lat="41.0666" lon="-0.21641">
        <time>2022-07-31T15:44:17Z</time>
      </trkpt>
      <trkpt lat="41.06647" lon="-0.21603">
        <time>2022-07-31T15:44:18Z</time>
      </trkpt>
      <trkpt lat="41.06634" lon="-0.21566">
        <time>2022-07-31T15:44:19Z</time>
      </trkpt>
      <trkpt lat="41.06621" lon="-0.21529">
        <time>2022-07-31T15:44:20Z</time>
      </trkpt>
      <trkpt lat="41.06608" lon="-0.21491">
        <time>2022-07-31T15:44:21Z</time>
      </trkpt>
      <trkpt lat="41.06594" lon="-0.21453">
        <time>2022-07-31T15:44:22Z</time>
      </trkpt>
      <trkpt lat="41.06581" lon="-0.21416">
        <time>2022-07-31T15:44:23Z</time>
      </trkpt>
      <trkpt lat="41.06568" lon="-0.21379">
        <time>2022-07-31T15:44:25Z</time>
      </trkpt>
      <trkpt lat="41.06556" lon="-0.21341">
        <time>2022-07-31T15:44:25Z</time>
      </trkpt>
      <trkpt lat="41.06542" lon="-0.21304">
        <time>2022-07-31T15:44:26Z</time>
      </trkpt>
      <trkpt lat="41.0653" lon="-0.21267">
        <time>2022-07-31T15:44:27Z</time>
      </trkpt>
      <trkpt lat="41.06517" lon="-0.21231">
        <time>2022-07-31T15:44:28Z</time>
      </trkpt>
      <trkpt lat="41.06504" lon="-0.21194">
        <time>2022-07-31T15:44:29Z</time>
      </trkpt>
      <trkpt lat="41.0649" lon="-0.21158">
        <time>2022-07-31T15:44:30Z</time>
      </trkpt>
      <trkpt lat="41.06477" lon="-0.21122">
        <time>2022-07-31T15:44:32Z</time>
      </trkpt>
      <trkpt lat="41.06462" lon="-0.21087">
        <time>2022-07-31T15:44:32Z</time>
      </trkpt>
      <trkpt lat="41.06448" lon="-0.21051">
        <time>2022-07-31T15:44:33Z</time>
      </trkpt>
      <trkpt lat="41.06434" lon="-0.21016">
        <time>2022-07-31T15:44:34Z</time>
      </trkpt>
      <trkpt lat="41.06419" lon="-0.2098">
        <time>2022-07-31T15:44:36Z</time>
      </trkpt>
      <trkpt lat="41.06405" lon="-0.20944">
        <time>2022-07-31T15:44:36Z</time>
      </trkpt>
      <trkpt lat="41.0639" lon="-0.20909">
        <time>2022-07-31T15:44:38Z</time>
      </trkpt>
      <trkpt lat="41.06376" lon="-0.20873">
        <time>2022-07-31T15:44:38Z</time>
      </trkpt>
      <trkpt lat="41.06362" lon="-0.20838">
        <time>2022-07-31T15:44:39Z</time>
      </trkpt>
      <trkpt lat="41.06348" lon="-0.20802">
        <time>2022-07-31T15:44:41Z</time>
      </trkpt>
      <trkpt lat="41.06334" lon="-0.20766">
        <time>2022-07-31T15:44:42Z</time>
      </trkpt>
      <trkpt lat="41.0632" lon="-0.2073">
        <time>2022-07-31T15:44:42Z</time>
      </trkpt>
      <trkpt lat="41.06305" lon="-0.20694">
        <time>2022-07-31T15:44:43Z</time>
      </trkpt>
      <trkpt lat="41.0629" lon="-0.20658">
        <time>2022-07-31T15:44:44Z</time>
      </trkpt>
      <trkpt lat="41.06275" lon="-0.20622">
        <time>2022-07-31T15:44:45Z</time>
      </trkpt>
      <trkpt lat="41.0626" lon="-0.20586">
        <time>2022-07-31T15:44:47Z</time>
      </trkpt>
      <trkpt lat="41.06245" lon="-0.2055">
        <time>2022-07-31T15:44:47Z</time>
      </trkpt>
      <trkpt lat="41.06229" lon="-0.20514">
        <time>2022-07-31T15:44:48Z</time>
      </trkpt>
      <trkpt lat="41.06215" lon="-0.20477">
        <time>2022-07-31T15:44:49Z</time>
      </trkpt>
      <trkpt lat="41.06199" lon="-0.20441">
        <time>2022-07-31T15:44:50Z</time>
      </trkpt>
      <trkpt lat="41.06184" lon="-0.20404">
        <time>2022-07-31T15:44:51Z</time>
      </trkpt>
      <trkpt lat="41.06169" lon="-0.20368">
        <time>2022-07-31T15:44:52Z</time>
      </trkpt>
      <trkpt lat="41.06154" lon="-0.20332">
        <time>2022-07-31T15:44:53Z</time>
      </trkpt>
      <trkpt lat="41.06139" lon="-0.20296">
        <time>2022-07-31T15:44:54Z</time>
      </trkpt>
      <trkpt lat="41.06124" lon="-0.2026">
        <time>2022-07-31T15:44:55Z</time>
      </trkpt>
      <trkpt lat="41.06109" lon="-0.20224">
        <time>2022-07-31T15:44:56Z</time>
      </trkpt>
      <trkpt lat="41.06094" lon="-0.20187">
        <time>2022-07-31T15:44:57Z</time>
      </trkpt>
      <trkpt lat="41.06079" lon="-0.20151">
        <time>2022-07-31T15:44:58Z</time>
      </trkpt>
      <trkpt lat="41.06065" lon="-0.20115">
        <time>2022-07-31T15:44:59Z</time>
      </trkpt>
      <trkpt lat="41.0605" lon="-0.20078">
        <time>2022-07-31T15:45:00Z</time>
      </trkpt>
      <trkpt lat="41.06036" lon="-0.20041">
        <time>2022-07-31T15:45:01Z</time>
      </trkpt>
      <trkpt lat="41.06021" lon="-0.20003">
        <time>2022-07-31T15:45:02Z</time>
      </trkpt>
      <trkpt lat="41.06008" lon="-0.19966">
        <time>2022-07-31T15:45:03Z</time>
      </trkpt>
      <trkpt lat="41.05993" lon="-0.19929">
        <time>2022-07-31T15:45:04Z</time>
      </trkpt>
      <trkpt lat="41.0598" lon="-0.19893">
        <time>2022-07-31T15:45:05Z</time>
      </trkpt>
      <trkpt lat="41.05966" lon="-0.19856">
        <time>2022-07-31T15:45:06Z</time>
      </trkpt>
      <trkpt lat="41.05952" lon="-0.1982">
        <time>2022-07-31T15:45:07Z</time>
      </trkpt>
      <trkpt lat="41.05939" lon="-0.19784">
        <time>2022-07-31T15:45:08Z</time>
      </trkpt>
      <trkpt lat="41.05925" lon="-0.19749">
        <time>2022-07-31T15:45:10Z</time>
      </trkpt>
      <trkpt lat="41.05913" lon="-0.19714">
        <time>2022-07-31T15:45:10Z</time>
      </trkpt>
      <trkpt lat="41.05901" lon="-0.19681">
        <time>2022-07-31T15:45:11Z</time>
      </trkpt>
      <trkpt lat="41.05888" lon="-0.19648">
        <time>2022-07-31T15:45:12Z</time>
      </trkpt>
      <trkpt lat="41.05877" lon="-0.19617">
        <time>2022-07-31T15:45:13Z</time>
      </trkpt>
      <trkpt lat="41.05865" lon="-0.19585">
        <time>2022-07-31T15:45:14Z</time>
      </trkpt>
      <trkpt lat="41.05851" lon="-0.19554">
        <time>2022-07-31T15:45:15Z</time>
      </trkpt>
      <trkpt lat="41.05837" lon="-0.19523">
        <time>2022-07-31T15:45:16Z</time>
      </trkpt>
      <trkpt lat="41.05822" lon="-0.19494">
        <time>2022-07-31T15:45:17Z</time>
      </trkpt>
      <trkpt lat="41.05805" lon="-0.19465">
        <time>2022-07-31T15:45:18Z</time>
      </trkpt>
      <trkpt lat="41.05789" lon="-0.19436">
        <time>2022-07-31T15:45:19Z</time>
      </trkpt>
      <trkpt lat="41.05771" lon="-0.19408">
        <time>2022-07-31T15:45:20Z</time>
      </trkpt>
      <trkpt lat="41.05754" lon="-0.19379">
        <time>2022-07-31T15:45:21Z</time>
      </trkpt>
      <trkpt lat="41.05737" lon="-0.19349">
        <time>2022-07-31T15:45:22Z</time>
      </trkpt>
      <trkpt lat="41.0572" lon="-0.19319">
        <time>2022-07-31T15:45:23Z</time>
      </trkpt>
      <trkpt lat="41.05703" lon="-0.19289">
        <time>2022-07-31T15:45:24Z</time>
      </trkpt>
      <trkpt lat="41.05687" lon="-0.19259">
        <time>2022-07-31T15:45:25Z</time>
      </trkpt>
      <trkpt lat="41.05672" lon="-0.19228">
        <time>2022-07-31T15:45:26Z</time>
      </trkpt>
      <trkpt lat="41.05658" lon="-0.19197">
        <time>2022-07-31T15:45:27Z</time>
      </trkpt>
      <trkpt lat="41.05645" lon="-0.19166">
        <time>2022-07-31T15:45:28Z</time>
      </trkpt>
      <trkpt lat="41.05632" lon="-0.19135">
        <time>2022-07-31T15:45:29Z</time>
      </trkpt>
      <trkpt lat="41.05618" lon="-0.19103">
        <time>2022-07-31T15:45:30Z</time>
      </trkpt>
      <trkpt lat="41.05605" lon="-0.19072">
        <time>2022-07-31T15:45:31Z</time>
      </trkpt>
      <trkpt lat="41.05591" lon="-0.19041">
        <time>2022-07-31T15:45:32Z</time>
      </trkpt>
      <trkpt lat="41.05578" lon="-0.1901">
        <time>2022-07-31T15:45:33Z</time>
      </trkpt>
      <trkpt lat="41.05566" lon="-0.1898">
        <time>2022-07-31T15:45:34Z</time>
      </trkpt>
      <trkpt lat="41.05554" lon="-0.1895">
        <time>2022-07-31T15:45:35Z</time>
      </trkpt>
      <trkpt lat="41.05543" lon="-0.18919">
        <time>2022-07-31T15:45:36Z</time>
      </trkpt>
      <trkpt lat="41.05533" lon="-0.18889">
        <time>2022-07-31T15:45:37Z</time>
      </trkpt>
      <trkpt lat="41.05524" lon="-0.18858">
        <time>2022-07-31T15:45:38Z</time>
      </trkpt>
      <trkpt lat="41.05516" lon="-0.18827">
        <time>2022-07-31T15:45:39Z</time>
      </trkpt>
      <trkpt lat="41.0551" lon="-0.18795">
        <time>2022-07-31T15:45:40Z</time>
      </trkpt>
      <trkpt lat="41.05506" lon="-0.18762">
        <time>2022-07-31T15:45:42Z</time>
      </trkpt>
      <trkpt lat="41.05503" lon="-0.18728">
        <time>2022-07-31T15:45:42Z</time>
      </trkpt>
      <trkpt lat="41.055" lon="-0.18694">
        <time>2022-07-31T15:45:44Z</time>
      </trkpt>
      <trkpt lat="41.05497" lon="-0.1866">
        <time>2022-07-31T15:45:44Z</time>
      </trkpt>
      <trkpt lat="41.05494" lon="-0.18625">
        <time>2022-07-31T15:45:45Z</time>
      </trkpt>
      <trkpt lat="41.0549" lon="-0.1859">
        <time>2022-07-31T15:45:46Z</time>
      </trkpt>
      <trkpt lat="41.05484" lon="-0.18555">
        <time>2022-07-31T15:45:47Z</time>
      </trkpt>
      <trkpt lat="41.05477" lon="-0.1852">
        <time>2022-07-31T15:45:48Z</time>
      </trkpt>
      <trkpt lat="41.05468" lon="-0.18486">
        <time>2022-07-31T15:45:49Z</time>
      </trkpt>
      <trkpt lat="41.05459" lon="-0.18453">
        <time>2022-07-31T15:45:50Z</time>
      </trkpt>
      <trkpt lat="41.05449" lon="-0.18419">
        <time>2022-07-31T15:45:51Z</time>
      </trkpt>
      <trkpt lat="41.05439" lon="-0.18385">
        <time>2022-07-31T15:45:52Z</time>
      </trkpt>
      <trkpt lat="41.05429" lon="-0.18351">
        <time>2022-07-31T15:45:53Z</time>
      </trkpt>
      <trkpt lat="41.05419" lon="-0.18317">
        <time>2022-07-31T15:45:55Z</time>
      </trkpt>
      <trkpt lat="41.05408" lon="-0.18283">
        <time>2022-07-31T15:45:55Z</time>
      </trkpt>
      <trkpt lat="41.05398" lon="-0.18249">
        <time>2022-07-31T15:45:56Z</time>
      </trkpt>
      <trkpt lat="41.05388" lon="-0.18216">
        <time>2022-07-31T15:45:57Z</time>
      </trkpt>
      <trkpt lat="41.05378" lon="-0.18182">
        <time>2022-07-31T15:45:58Z</time>
      </trkpt>
      <trkpt lat="41.05369" lon="-0.18149">
        <time>2022-07-31T15:45:59Z</time>
      </trkpt>
      <trkpt lat="41.05359" lon="-0.18116">
        <time>2022-07-31T15:46:00Z</time>
      </trkpt>
      <trkpt lat="41.05349" lon="-0.18084">
        <time>2022-07-31T15:46:01Z</time>
      </trkpt>
      <trkpt lat="41.0534" lon="-0.18052">
        <time>2022-07-31T15:46:02Z</time>
      </trkpt>
      <trkpt lat="41.0533" lon="-0.1802">
        <time>2022-07-31T15:46:04Z</time>
      </trkpt>
      <trkpt lat="41.05321" lon="-0.17989">
        <time>2022-07-31T15:46:04Z</time>
      </trkpt>
      <trkpt lat="41.05311" lon="-0.17959">
        <time>2022-07-31T15:46:05Z</time>
      </trkpt>
      <trkpt lat="41.05303" lon="-0.17927">
        <time>2022-07-31T15:46:06Z</time>
      </trkpt>
      <trkpt lat="41.05293" lon="-0.17897">
        <time>2022-07-31T15:46:08Z</time>
      </trkpt>
      <trkpt lat="41.05284" lon="-0.17866">
        <time>2022-07-31T15:46:08Z</time>
      </trkpt>
      <trkpt lat="41.05275" lon="-0.17836">
        <time>2022-07-31T15:46:09Z</time>
      </trkpt>
      <trkpt lat="41.05265" lon="-0.17807">
        <time>2022-07-31T15:46:10Z</time>
      </trkpt>
      <trkpt lat="41.05254" lon="-0.17779">
        <time>2022-07-31T15:46:12Z</time>
      </trkpt>
      <trkpt lat="41.05243" lon="-0.17751">
        <time>2022-07-31T15:46:12Z</time>
      </trkpt>
      <trkpt lat="41.05232" lon="-0.17725">
        <time>2022-07-31T15:46:13Z</time>
      </trkpt>
      <trkpt lat="41.05222" lon="-0.177">
        <time>2022-07-31T15:46:14Z</time>
      </trkpt>
      <trkpt lat="41.05212" lon="-0.17676">
        <time>2022-07-31T15:46:15Z</time>
      </trkpt>
      <trkpt lat="41.05202" lon="-0.17653">
        <time>2022-07-31T15:46:16Z</time>
      </trkpt>
      <trkpt lat="41.05192" lon="-0.1763">
        <time>2022-07-31T15:46:18Z</time>
      </trkpt>
      <trkpt lat="41.05182" lon="-0.17607">
        <time>2022-07-31T15:46:18Z</time>
      </trkpt>
      <trkpt lat="41.05172" lon="-0.17584">
        <time>2022-07-31T15:46:19Z</time>
      </trkpt>
      <trkpt lat="41.05162" lon="-0.17561">
        <time>2022-07-31T15:46:20Z</time>
      </trkpt>
      <trkpt lat="41.05152" lon="-0.17537">
        <time>2022-07-31T15:46:21Z</time>
      </trkpt>
      <trkpt lat="41.05141" lon="-0.17513">
        <time>2022-07-31T15:46:22Z</time>
      </trkpt>
      <trkpt lat="41.0513" lon="-0.17489">
        <time>2022-07-31T15:46:23Z</time>
      </trkpt>
      <trkpt lat="41.05119" lon="-0.17465">
        <time>2022-07-31T15:46:24Z</time>
      </trkpt>
      <trkpt lat="41.05108" lon="-0.1744">
        <time>2022-07-31T15:46:26Z</time>
      </trkpt>
      <trkpt lat="41.05096" lon="-0.17415">
        <time>2022-07-31T15:46:26Z</time>
      </trkpt>
      <trkpt lat="41.05083" lon="-0.17392">
        <time>2022-07-31T15:46:27Z</time>
      </trkpt>
      <trkpt lat="41.0507" lon="-0.17368">
        <time>2022-07-31T15:46:28Z</time>
      </trkpt>
      <trkpt lat="41.05055" lon="-0.17345">
        <time>2022-07-31T15:46:30Z</time>
      </trkpt>
      <trkpt lat="41.05042" lon="-0.17323">
        <time>2022-07-31T15:46:30Z</time>
      </trkpt>
      <trkpt lat="41.05028" lon="-0.173">
        <time>2022-07-31T15:46:31Z</time>
      </trkpt>
      <trkpt lat="41.05014" lon="-0.17277">
        <time>2022-07-31T15:46:32Z</time>
      </trkpt>
      <trkpt lat="41.05001" lon="-0.17255">
        <time>2022-07-31T15:46:33Z</time>
      </trkpt>
      <trkpt lat="41.04987" lon="-0.17233">
        <time>2022-07-31T15:46:34Z</time>
      </trkpt>
      <trkpt lat="41.04975" lon="-0.1721">
        <time>2022-07-31T15:46:36Z</time>
      </trkpt>
      <trkpt lat="41.04964" lon="-0.17186">
        <time>2022-07-31T15:46:36Z</time>
      </trkpt>
      <trkpt lat="41.04955" lon="-0.17162">
        <time>2022-07-31T15:46:38Z</time>
      </trkpt>
      <trkpt lat="41.04947" lon="-0.17136">
        <time>2022-07-31T15:46:38Z</time>
      </trkpt>
      <trkpt lat="41.0494" lon="-0.17109">
        <time>2022-07-31T15:46:39Z</time>
      </trkpt>
      <trkpt lat="41.04936" lon="-0.17082">
        <time>2022-07-31T15:46:40Z</time>
      </trkpt>
      <trkpt lat="41.04933" lon="-0.17056">
        <time>2022-07-31T15:46:41Z</time>
      </trkpt>
      <trkpt lat="41.04931" lon="-0.1703">
        <time>2022-07-31T15:46:42Z</time>
      </trkpt>
      <trkpt lat="41.0493" lon="-0.17004">
        <time>2022-07-31T15:46:43Z</time>
      </trkpt>
      <trkpt lat="41.0493" lon="-0.16979">
        <time>2022-07-31T15:46:44Z</time>
      </trkpt>
      <trkpt lat="41.04929" lon="-0.16954">
        <time>2022-07-31T15:46:45Z</time>
      </trkpt>
      <trkpt lat="41.04926" lon="-0.16929">
        <time>2022-07-31T15:46:46Z</time>
      </trkpt>
      <trkpt lat="41.04923" lon="-0.16905">
        <time>2022-07-31T15:46:47Z</time>
      </trkpt>
      <trkpt lat="41.04918" lon="-0.16882">
        <time>2022-07-31T15:46:48Z</time>
      </trkpt>
      <trkpt lat="41.04914" lon="-0.16859">
        <time>2022-07-31T15:46:50Z</time>
      </trkpt>
      <trkpt lat="41.04909" lon="-0.16836">
        <time>2022-07-31T15:46:50Z</time>
      </trkpt>
      <trkpt lat="41.04904" lon="-0.16814">
        <time>2022-07-31T15:46:51Z</time>
      </trkpt>
      <trkpt lat="41.04899" lon="-0.16794">
        <time>2022-07-31T15:46:52Z</time>
      </trkpt>
      <trkpt lat="41.04894" lon="-0.16777">
        <time>2022-07-31T15:46:53Z</time>
      </trkpt>
      <trkpt lat="41.04889" lon="-0.16761">
        <time>2022-07-31T15:46:54Z</time>
      </trkpt>
      <trkpt lat="41.04883" lon="-0.16746">
        <time>2022-07-31T15:46:55Z</time>
      </trkpt>
      <trkpt lat="41.04876" lon="-0.16735">
        <time>2022-07-31T15:46:56Z</time>
      </trkpt>
      <trkpt lat="41.04867" lon="-0.16727">
        <time>2022-07-31T15:46:57Z</time>
      </trkpt>
      <trkpt lat="41.04855" lon="-0.16722">
        <time>2022-07-31T15:46:58Z</time>
      </trkpt>
      <trkpt lat="41.04843" lon="-0.16719">
        <time>2022-07-31T15:47:00Z</time>
      </trkpt>
      <trkpt lat="41.04831" lon="-0.16716">
        <time>2022-07-31T15:47:00Z</time>
      </trkpt>
      <trkpt lat="41.04819" lon="-0.16708">
        <time>2022-07-31T15:47:01Z</time>
      </trkpt>
      <trkpt lat="41.04809" lon="-0.16698">
        <time>2022-07-31T15:47:03Z</time>
      </trkpt>
      <trkpt lat="41.04801" lon="-0.16686">
        <time>2022-07-31T15:47:04Z</time>
      </trkpt>
      <trkpt lat="41.04796" lon="-0.16672">
        <time>2022-07-31T15:47:04Z</time>
      </trkpt>
      <trkpt lat="41.04794" lon="-0.16656">
        <time>2022-07-31T15:47:05Z</time>
      </trkpt>
      <trkpt lat="41.04794" lon="-0.16639">
        <time>2022-07-31T15:47:06Z</time>
      </trkpt>
      <trkpt lat="41.04798" lon="-0.16624">
        <time>2022-07-31T15:47:07Z</time>
      </trkpt>
      <trkpt lat="41.04804" lon="-0.1661">
        <time>2022-07-31T15:47:08Z</time>
      </trkpt>
      <trkpt lat="41.04813" lon="-0.16598">
        <time>2022-07-31T15:47:09Z</time>
      </trkpt>
      <trkpt lat="41.04824" lon="-0.1659">
        <time>2022-07-31T15:47:10Z</time>
      </trkpt>
      <trkpt lat="41.04836" lon="-0.16586">
        <time>2022-07-31T15:47:12Z</time>
      </trkpt>
      <trkpt lat="41.04848" lon="-0.16584">
        <time>2022-07-31T15:47:12Z</time>
      </trkpt>
      <trkpt lat="41.04861" lon="-0.16587">
        <time>2022-07-31T15:47:13Z</time>
      </trkpt>
      <trkpt lat="41.04872" lon="-0.16595">
        <time>2022-07-31T15:47:14Z</time>
      </trkpt>
      <trkpt lat="41.04883" lon="-0.16604">
        <time>2022-07-31T15:47:15Z</time>
      </trkpt>
      <trkpt lat="41.04895" lon="-0.16611">
        <time>2022-07-31T15:47:16Z</time>
      </trkpt>
      <trkpt lat="41.04908" lon="-0.16614">
        <time>2022-07-31T15:47:17Z</time>
      </trkpt>
      <trkpt lat="41.04922" lon="-0.16612">
        <time>2022-07-31T15:47:18Z</time>
      </trkpt>
      <trkpt lat="41.04934" lon="-0.16607">
        <time>2022-07-31T15:47:19Z</time>
      </trkpt>
      <trkpt lat="41.04947" lon="-0.16602">
        <time>2022-07-31T15:47:20Z</time>
      </trkpt>
      <trkpt lat="41.04959" lon="-0.16596">
        <time>2022-07-31T15:47:21Z</time>
      </trkpt>
      <trkpt lat="41.04971" lon="-0.1659">
        <time>2022-07-31T15:47:22Z</time>
      </trkpt>
      <trkpt lat="41.04982" lon="-0.16585">
        <time>2022-07-31T15:47:23Z</time>
      </trkpt>
      <trkpt lat="41.04993" lon="-0.1658">
        <time>2022-07-31T15:47:24Z</time>
      </trkpt>
      <trkpt lat="41.05004" lon="-0.16575">
        <time>2022-07-31T15:47:25Z</time>
      </trkpt>
      <trkpt lat="41.05014" lon="-0.1657">
        <time>2022-07-31T15:47:26Z</time>
      </trkpt>
      <trkpt lat="41.05024" lon="-0.16566">
        <time>2022-07-31T15:47:27Z</time>
      </trkpt>
      <trkpt lat="41.05034" lon="-0.1656">
        <time>2022-07-31T15:47:28Z</time>
      </trkpt>
      <trkpt lat="41.05043" lon="-0.16553">
        <time>2022-07-31T15:47:29Z</time>
      </trkpt>
      <trkpt lat="41.0505" lon="-0.16542">
        <time>2022-07-31T15:47:30Z</time>
      </trkpt>
      <trkpt lat="41.05055" lon="-0.1653">
        <time>2022-07-31T15:47:31Z</time>
      </trkpt>
      <trkpt lat="41.05058" lon="-0.16516">
        <time>2022-07-31T15:47:33Z</time>
      </trkpt>
      <trkpt lat="41.0506" lon="-0.16503">
        <time>2022-07-31T15:47:33Z</time>
      </trkpt>
      <trkpt lat="41.05065" lon="-0.1649">
        <time>2022-07-31T15:47:34Z</time>
      </trkpt>
      <trkpt lat="41.05072" lon="-0.16479">
        <time>2022-07-31T15:47:35Z</time>
      </trkpt>
      <trkpt lat="41.0508" lon="-0.16472">
        <time>2022-07-31T15:47:36Z</time>
      </trkpt>
      <trkpt lat="41.0509" lon="-0.16466">
        <time>2022-07-31T15:47:37Z</time>
      </trkpt>
      <trkpt lat="41.051" lon="-0.16461">
        <time>2022-07-31T15:47:39Z</time>
      </trkpt>
      <trkpt lat="41.05108" lon="-0.16453">
        <time>2022-07-31T15:47:39Z</time>
      </trkpt>
      <trkpt lat="41.05114" lon="-0.16443">
        <time>2022-07-31T15:47:40Z</time>
      </trkpt>
      <trkpt lat="41.05119" lon="-0.16431">
        <time>2022-07-31T15:47:41Z</time>
      </trkpt>
      <trkpt lat="41.05121" lon="-0.16418">
        <time>2022-07-31T15:47:42Z</time>
      </trkpt>
      <trkpt lat="41.05121" lon="-0.16404">
        <time>2022-07-31T15:47:43Z</time>
      </trkpt>
      <trkpt lat="41.0512" lon="-0.16391">
        <time>2022-07-31T15:47:44Z</time>
      </trkpt>
      <trkpt lat="41.05119" lon="-0.16376">
        <time>2022-07-31T15:47:45Z</time>
      </trkpt>
      <trkpt lat="41.05117" lon="-0.16361">
        <time>2022-07-31T15:47:46Z</time>
      </trkpt>
      <trkpt lat="41.05115" lon="-0.16345">
        <time>2022-07-31T15:47:47Z</time>
      </trkpt>
      <trkpt lat="41.05112" lon="-0.16326">
        <time>2022-07-31T15:47:48Z</time>
      </trkpt>
      <trkpt lat="41.05109" lon="-0.16308">
        <time>2022-07-31T15:47:50Z</time>
      </trkpt>
      <trkpt lat="41.05104" lon="-0.16289">
        <time>2022-07-31T15:47:50Z</time>
      </trkpt>
      <trkpt lat="41.051" lon="-0.16269">
        <time>2022-07-31T15:47:51Z</time>
      </trkpt>
      <trkpt lat="41.05096" lon="-0.16249">
        <time>2022-07-31T15:47:52Z</time>
      </trkpt>
      <trkpt lat="41.05093" lon="-0.16228">
        <time>2022-07-31T15:47:53Z</time>
      </trkpt>
      <trkpt lat="41.0509" lon="-0.16206">
        <time>2022-07-31T15:47:54Z</time>
      </trkpt>
      <trkpt lat="41.05088" lon="-0.16184">
        <time>2022-07-31T15:47:55Z</time>
      </trkpt>
      <trkpt lat="41.05087" lon="-0.16161">
        <time>2022-07-31T15:47:56Z</time>
      </trkpt>
      <trkpt lat="41.05088" lon="-0.16138">
        <time>2022-07-31T15:47:57Z</time>
      </trkpt>
      <trkpt lat="41.0509" lon="-0.16115">
        <time>2022-07-31T15:47:58Z</time>
      </trkpt>
      <trkpt lat="41.05093" lon="-0.16093">
        <time>2022-07-31T15:47:59Z</time>
      </trkpt>
      <trkpt lat="41.05096" lon="-0.1607">
        <time>2022-07-31T15:48:00Z</time>
      </trkpt>
      <trkpt lat="41.05101" lon="-0.16047">
        <time>2022-07-31T15:48:01Z</time>
      </trkpt>
      <trkpt lat="41.05105" lon="-0.16024">
        <time>2022-07-31T15:48:02Z</time>
      </trkpt>
      <trkpt lat="41.05109" lon="-0.16001">
        <time>2022-07-31T15:48:03Z</time>
      </trkpt>
      <trkpt lat="41.05113" lon="-0.15979">
        <time>2022-07-31T15:48:04Z</time>
      </trkpt>
      <trkpt lat="41.05117" lon="-0.15957">
        <time>2022-07-31T15:48:05Z</time>
      </trkpt>
      <trkpt lat="41.05121" lon="-0.15937">
        <time>2022-07-31T15:48:06Z</time>
      </trkpt>
      <trkpt lat="41.05125" lon="-0.15917">
        <time>2022-07-31T15:48:07Z</time>
      </trkpt>
      <trkpt lat="41.05128" lon="-0.15899">
        <time>2022-07-31T15:48:08Z</time>
      </trkpt>
      <trkpt lat="41.05131" lon="-0.15882">
        <time>2022-07-31T15:48:09Z</time>
      </trkpt>
      <trkpt lat="41.05134" lon="-0.15868">
        <time>2022-07-31T15:48:10Z</time>
      </trkpt>
      <trkpt lat="41.05134" lon="-0.15854">
        <time>2022-07-31T15:48:11Z</time>
      </trkpt>
      <trkpt lat="41.05131" lon="-0.15841">
        <time>2022-07-31T15:48:13Z</time>
      </trkpt>
      <trkpt lat="41.05128" lon="-0.15831">
        <time>2022-07-31T15:48:13Z</time>
      </trkpt>
      <trkpt lat="41.05125" lon="-0.1582">
        <time>2022-07-31T15:48:15Z</time>
      </trkpt>
      <trkpt lat="41.05125" lon="-0.1581">
        <time>2022-07-31T15:48:15Z</time>
      </trkpt>
      <trkpt lat="41.05128" lon="-0.15799">
        <time>2022-07-31T15:48:16Z</time>
      </trkpt>
      <trkpt lat="41.05134" lon="-0.15792">
        <time>2022-07-31T15:48:17Z</time>
      </trkpt>
      <trkpt lat="41.0514" lon="-0.15784">
        <time>2022-07-31T15:48:19Z</time>
      </trkpt>
      <trkpt lat="41.05145" lon="-0.15776">
        <time>2022-07-31T15:48:19Z</time>
      </trkpt>
      <trkpt lat="41.0515" lon="-0.15764">
        <time>2022-07-31T15:48:20Z</time>
      </trkpt>
      <trkpt lat="41.05154" lon="-0.15752">
        <time>2022-07-31T15:48:21Z</time>
      </trkpt>
      <trkpt lat="41.05157" lon="-0.1574">
        <time>2022-07-31T15:48:22Z</time>
      </trkpt>
      <trkpt lat="41.0516" lon="-0.15726">
        <time>2022-07-31T15:48:23Z</time>
      </trkpt>
      <trkpt lat="41.05162" lon="-0.15711">
        <time>2022-07-31T15:48:24Z</time>
      </trkpt>
      <trkpt lat="41.05165" lon="-0.15696">
        <time>2022-07-31T15:48:25Z</time>
      </trkpt>
      <trkpt lat="41.05168" lon="-0.1568">
        <time>2022-07-31T15:48:26Z</time>
      </trkpt>
      <trkpt lat="41.0517" lon="-0.15664">
        <time>2022-07-31T15:48:28Z</time>
      </trkpt>
      <trkpt lat="41.05173" lon="-0.15648">
        <time>2022-07-31T15:48:28Z</time>
      </trkpt>
      <trkpt lat="41.05176" lon="-0.15631">
        <time>2022-07-31T15:48:30Z</time>
      </trkpt>
      <trkpt lat="41.05179" lon="-0.15613">
        <time>2022-07-31T15:48:31Z</time>
      </trkpt>
      <trkpt lat="41.05183" lon="-0.15594">
        <time>2022-07-31T15:48:31Z</time>
      </trkpt>
      <trkpt lat="41.05186" lon="-0.15576">
        <time>2022-07-31T15:48:32Z</time>
      </trkpt>
      <trkpt lat="41.05189" lon="-0.15558">
        <time>2022-07-31T15:48:33Z</time>
      </trkpt>
      <trkpt lat="41.05193" lon="-0.15539">
        <time>2022-07-31T15:48:34Z</time>
      </trkpt>
      <trkpt lat="41.05196" lon="-0.1552">
        <time>2022-07-31T15:48:36Z</time>
      </trkpt>
      <trkpt lat="41.05199" lon="-0.15501">
        <time>2022-07-31T15:48:37Z</time>
      </trkpt>
      <trkpt lat="41.05203" lon="-0.15482">
        <time>2022-07-31T15:48:37Z</time>
      </trkpt>
      <trkpt lat="41.05207" lon="-0.15463">
        <time>2022-07-31T15:48:38Z</time>
      </trkpt>
      <trkpt lat="41.05211" lon="-0.15445">
        <time>2022-07-31T15:48:39Z</time>
      </trkpt>
      <trkpt lat="41.05215" lon="-0.15428">
        <time>2022-07-31T15:48:40Z</time>
      </trkpt>
      <trkpt lat="41.05218" lon="-0.15411">
        <time>2022-07-31T15:48:41Z</time>
      </trkpt>
      <trkpt lat="41.0522" lon="-0.15396">
        <time>2022-07-31T15:48:42Z</time>
      </trkpt>
      <trkpt lat="41.05222" lon="-0.15382">
        <time>2022-07-31T15:48:43Z</time>
      </trkpt>
      <trkpt lat="41.05223" lon="-0.15369">
        <time>2022-07-31T15:48:44Z</time>
      </trkpt>
      <trkpt lat="41.05221" lon="-0.15358">
        <time>2022-07-31T15:48:45Z</time>
      </trkpt>
      <trkpt lat="41.05218" lon="-0.15348">
        <time>2022-07-31T15:48:46Z</time>
      </trkpt>
      <trkpt lat="41.05217" lon="-0.15338">
        <time>2022-07-31T15:48:48Z</time>
      </trkpt>
      <trkpt lat="41.05219" lon="-0.15329">
        <time>2022-07-31T15:48:49Z</time>
      </trkpt>
      <trkpt lat="41.05222" lon="-0.1532">
        <time>2022-07-31T15:48:49Z</time>
      </trkpt>
      <trkpt lat="41.05228" lon="-0.15311">
        <time>2022-07-31T15:48:51Z</time>
      </trkpt>
      <trkpt lat="41.05233" lon="-0.15301">
        <time>2022-07-31T15:48:51Z</time>
      </trkpt>
      <trkpt lat="41.05237" lon="-0.1529">
        <time>2022-07-31T15:48:52Z</time>
      </trkpt>
      <trkpt lat="41.0524" lon="-0.15278">
        <time>2022-07-31T15:48:53Z</time>
      </trkpt>
      <trkpt lat="41.05243" lon="-0.15266">
        <time>2022-07-31T15:48:54Z</time>
      </trkpt>
      <trkpt lat="41.05246" lon="-0.15254">
        <time>2022-07-31T15:48:55Z</time>
      </trkpt>
      <trkpt lat="41.05248" lon="-0.15241">
        <time>2022-07-31T15:48:56Z</time>
      </trkpt>
      <trkpt lat="41.0525" lon="-0.15228">
        <time>2022-07-31T15:48:57Z</time>
      </trkpt>
      <trkpt lat="41.05252" lon="-0.15215">
        <time>2022-07-31T15:48:58Z</time>
      </trkpt>
      <trkpt lat="41.05254" lon="-0.15203">
        <time>2022-07-31T15:48:59Z</time>
      </trkpt>
      <trkpt lat="41.05257" lon="-0.1519">
        <time>2022-07-31T15:49:00Z</time>
      </trkpt>
      <trkpt lat="41.05259" lon="-0.15177">
        <time>2022-07-31T15:49:01Z</time>
      </trkpt>
      <trkpt lat="41.05261" lon="-0.15166">
        <time>2022-07-31T15:49:02Z</time>
      </trkpt>
      <trkpt lat="41.05263" lon="-0.15155">
        <time>2022-07-31T15:49:03Z</time>
      </trkpt>
      <trkpt lat="41.05266" lon="-0.15143">
        <time>2022-07-31T15:49:04Z</time>
      </trkpt>
      <trkpt lat="41.05268" lon="-0.15132">
        <time>2022-07-31T15:49:05Z</time>
      </trkpt>
      <trkpt lat="41.05269" lon="-0.15121">
        <time>2022-07-31T15:49:06Z</time>
      </trkpt>
      <trkpt lat="41.05271" lon="-0.1511">
        <time>2022-07-31T15:49:08Z</time>
      </trkpt>
      <trkpt lat="41.05273" lon="-0.15098">
        <time>2022-07-31T15:49:08Z</time>
      </trkpt>
      <trkpt lat="41.05275" lon="-0.15086">
        <time>2022-07-31T15:49:09Z</time>
      </trkpt>
      <trkpt lat="41.05277" lon="-0.15074">
        <time>2022-07-31T15:49:10Z</time>
      </trkpt>
      <trkpt lat="41.05279" lon="-0.15062">
        <time>2022-07-31T15:49:11Z</time>
      </trkpt>
      <trkpt lat="41.0528" lon="-0.1505">
        <time>2022-07-31T15:49:12Z</time>
      </trkpt>
      <trkpt lat="41.0528" lon="-0.15038">
        <time>2022-07-31T15:49:13Z</time>
      </trkpt>
      <trkpt lat="41.0528" lon="-0.15027">
        <time>2022-07-31T15:49:14Z</time>
      </trkpt>
      <trkpt lat="41.0528" lon="-0.15015">
        <time>2022-07-31T15:49:15Z</time>
      </trkpt>
      <trkpt lat="41.0528" lon="-0.15004">
        <time>2022-07-31T15:49:16Z</time>
      </trkpt>
      <trkpt lat="41.05279" lon="-0.14993">
        <time>2022-07-31T15:49:17Z</time>
      </trkpt>
      <trkpt lat="41.05278" lon="-0.14982">
        <time>2022-07-31T15:49:18Z</time>
      </trkpt>
      <trkpt lat="41.05277" lon="-0.14971">
        <time>2022-07-31T15:49:19Z</time>
      </trkpt>
      <trkpt lat="41.05275" lon="-0.14961">
        <time>2022-07-31T15:49:20Z</time>
      </trkpt>
      <trkpt lat="41.05274" lon="-0.1495">
        <time>2022-07-31T15:49:21Z</time>
      </trkpt>
      <trkpt lat="41.05273" lon="-0.14939">
        <time>2022-07-31T15:49:22Z</time>
      </trkpt>
      <trkpt lat="41.05271" lon="-0.14927">
        <time>2022-07-31T15:49:23Z</time>
      </trkpt>
      <trkpt lat="41.05269" lon="-0.14915">
        <time>2022-07-31T15:49:24Z</time>
      </trkpt>
      <trkpt lat="41.05267" lon="-0.14903">
        <time>2022-07-31T15:49:25Z</time>
      </trkpt>
      <trkpt lat="41.05266" lon="-0.14891">
        <time>2022-07-31T15:49:26Z</time>
      </trkpt>
      <trkpt lat="41.05265" lon="-0.14879">
        <time>2022-07-31T15:49:27Z</time>
      </trkpt>
      <trkpt lat="41.05263" lon="-0.14867">
        <time>2022-07-31T15:49:28Z</time>
      </trkpt>
      <trkpt lat="41.05262" lon="-0.14855">
        <time>2022-07-31T15:49:29Z</time>
      </trkpt>
      <trkpt lat="41.05261" lon="-0.14842">
        <time>2022-07-31T15:49:30Z</time>
      </trkpt>
      <trkpt lat="41.05259" lon="-0.14829">
        <time>2022-07-31T15:49:31Z</time>
      </trkpt>
      <trkpt lat="41.05258" lon="-0.14817">
        <time>2022-07-31T15:49:33Z</time>
      </trkpt>
      <trkpt lat="41.05256" lon="-0.14804">
        <time>2022-07-31T15:49:33Z</time>
      </trkpt>
      <trkpt lat="41.05254" lon="-0.14793">
        <time>2022-07-31T15:49:34Z</time>
      </trkpt>
      <trkpt lat="41.05252" lon="-0.14781">
        <time>2022-07-31T15:49:35Z</time>
      </trkpt>
      <trkpt lat="41.05251" lon="-0.14769">
        <time>2022-07-31T15:49:36Z</time>
      </trkpt>
      <trkpt lat="41.05249" lon="-0.14757">
        <time>2022-07-31T15:49:37Z</time>
      </trkpt>
      <trkpt lat="41.05248" lon="-0.14746">
        <time>2022-07-31T15:49:38Z</time>
      </trkpt>
      <trkpt lat="41.05247" lon="-0.14735">
        <time>2022-07-31T15:49:39Z</time>
      </trkpt>
      <trkpt lat="41.05245" lon="-0.14724">
        <time>2022-07-31T15:49:40Z</time>
      </trkpt>
      <trkpt lat="41.05244" lon="-0.14714">
        <time>2022-07-31T15:49:41Z</time>
      </trkpt>
      <trkpt lat="41.05242" lon="-0.14702">
        <time>2022-07-31T15:49:42Z</time>
      </trkpt>
      <trkpt lat="41.0524" lon="-0.1469">
        <time>2022-07-31T15:49:43Z</time>
      </trkpt>
      <trkpt lat="41.05238" lon="-0.14678">
        <time>2022-07-31T15:49:44Z</time>
      </trkpt>
      <trkpt lat="41.05236" lon="-0.14667">
        <time>2022-07-31T15:49:46Z</time>
      </trkpt>
      <trkpt lat="41.05235" lon="-0.14654">
        <time>2022-07-31T15:49:46Z</time>
      </trkpt>
      <trkpt lat="41.05233" lon="-0.14641">
        <time>2022-07-31T15:49:47Z</time>
      </trkpt>
      <trkpt lat="41.0523" lon="-0.14628">
        <time>2022-07-31T15:49:49Z</time>
      </trkpt>
      <trkpt lat="41.05228" lon="-0.14615">
        <time>2022-07-31T15:49:49Z</time>
      </trkpt>
      <trkpt lat="41.05226" lon="-0.14603">
        <time>2022-07-31T15:49:50Z</time>
      </trkpt>
      <trkpt lat="41.05225" lon="-0.1459">
        <time>2022-07-31T15:49:51Z</time>
      </trkpt>
      <trkpt lat="41.05223" lon="-0.14577">
        <time>2022-07-31T15:49:52Z</time>
      </trkpt>
      <trkpt lat="41.05221" lon="-0.14564">
        <time>2022-07-31T15:49:53Z</time>
      </trkpt>
      <trkpt lat="41.0522" lon="-0.14551">
        <time>2022-07-31T15:49:54Z</time>
      </trkpt>
      <trkpt lat="41.05219" lon="-0.14538">
        <time>2022-07-31T15:49:55Z</time>
      </trkpt>
      <trkpt lat="41.05218" lon="-0.14526">
        <time>2022-07-31T15:49:56Z</time>
      </trkpt>
      <trkpt lat="41.05217" lon="-0.14515">
        <time>2022-07-31T15:49:57Z</time>
      </trkpt>
      <trkpt lat="41.05215" lon="-0.14505">
        <time>2022-07-31T15:49:58Z</time>
      </trkpt>
      <trkpt lat="41.05213" lon="-0.14495">
        <time>2022-07-31T15:50:00Z</time>
      </trkpt>
      <trkpt lat="41.05212" lon="-0.14486">
        <time>2022-07-31T15:50:00Z</time>
      </trkpt>
      <trkpt lat="41.05211" lon="-0.14476">
        <time>2022-07-31T15:50:01Z</time>
      </trkpt>
      <trkpt lat="41.0521" lon="-0.14467">
        <time>2022-07-31T15:50:02Z</time>
      </trkpt>
      <trkpt lat="41.0521" lon="-0.14459">
        <time>2022-07-31T15:50:03Z</time>
      </trkpt>
      <trkpt lat="41.05208" lon="-0.14451">
        <time>2022-07-31T15:50:04Z</time>
      </trkpt>
      <trkpt lat="41.05207" lon="-0.14443">
        <time>2022-07-31T15:50:05Z</time>
      </trkpt>
      <trkpt lat="41.05206" lon="-0.14435">
        <time>2022-07-31T15:50:07Z</time>
      </trkpt>
      <trkpt lat="41.05205" lon="-0.14425">
        <time>2022-07-31T15:50:07Z</time>
      </trkpt>
      <trkpt lat="41.05203" lon="-0.14416">
        <time>2022-07-31T15:50:08Z</time>
      </trkpt>
      <trkpt lat="41.05201" lon="-0.14407">
        <time>2022-07-31T15:50:09Z</time>
      </trkpt>
      <trkpt lat="41.052" lon="-0.14397">
        <time>2022-07-31T15:50:10Z</time>
      </trkpt>
      <trkpt lat="41.05199" lon="-0.14387">
        <time>2022-07-31T15:50:11Z</time>
      </trkpt>
      <trkpt lat="41.05198" lon="-0.14379">
        <time>2022-07-31T15:50:12Z</time>
      </trkpt>
      <trkpt lat="41.05198" lon="-0.14371">
        <time>2022-07-31T15:50:13Z</time>
      </trkpt>
      <trkpt lat="41.05197" lon="-0.14362">
        <time>2022-07-31T15:50:14Z</time>
      </trkpt>
      <trkpt lat="41.05195" lon="-0.14353">
        <time>2022-07-31T15:50:15Z</time>
      </trkpt>
      <trkpt lat="41.05194" lon="-0.14343">
        <time>2022-07-31T15:50:16Z</time>
      </trkpt>
      <trkpt lat="41.05192" lon="-0.14332">
        <time>2022-07-31T15:50:17Z</time>
      </trkpt>
      <trkpt lat="41.05191" lon="-0.14321">
        <time>2022-07-31T15:50:18Z</time>
      </trkpt>
      <trkpt lat="41.0519" lon="-0.14309">
        <time>2022-07-31T15:50:20Z</time>
      </trkpt>
      <trkpt lat="41.05189" lon="-0.14296">
        <time>2022-07-31T15:50:20Z</time>
      </trkpt>
      <trkpt lat="41.05187" lon="-0.14284">
        <time>2022-07-31T15:50:21Z</time>
      </trkpt>
      <trkpt lat="41.05187" lon="-0.14271">
        <time>2022-07-31T15:50:22Z</time>
      </trkpt>
      <trkpt lat="41.05187" lon="-0.1426">
        <time>2022-07-31T15:50:23Z</time>
      </trkpt>
      <trkpt lat="41.05187" lon="-0.1425">
        <time>2022-07-31T15:50:24Z</time>
      </trkpt>
      <trkpt lat="41.05187" lon="-0.1424">
        <time>2022-07-31T15:50:25Z</time>
      </trkpt>
      <trkpt lat="41.05186" lon="-0.14231">
        <time>2022-07-31T15:50:26Z</time>
      </trkpt>
      <trkpt lat="41.05185" lon="-0.14223">
        <time>2022-07-31T15:50:27Z</time>
      </trkpt>
      <trkpt lat="41.05184" lon="-0.14214">
        <time>2022-07-31T15:50:28Z</time>
      </trkpt>
      <trkpt lat="41.05185" lon="-0.14205">
        <time>2022-07-31T15:50:29Z</time>
      </trkpt>
      <trkpt lat="41.05187" lon="-0.14195">
        <time>2022-07-31T15:50:30Z</time>
      </trkpt>
      <trkpt lat="41.05188" lon="-0.14184">
        <time>2022-07-31T15:50:32Z</time>
      </trkpt>
      <trkpt lat="41.0519" lon="-0.14172">
        <time>2022-07-31T15:50:32Z</time>
      </trkpt>
      <trkpt lat="41.05191" lon="-0.14159">
        <time>2022-07-31T15:50:33Z</time>
      </trkpt>
      <trkpt lat="41.05192" lon="-0.14146">
        <time>2022-07-31T15:50:34Z</time>
      </trkpt>
      <trkpt lat="41.05194" lon="-0.14133">
        <time>2022-07-31T15:50:35Z</time>
      </trkpt>
      <trkpt lat="41.05195" lon="-0.1412">
        <time>2022-07-31T15:50:36Z</time>
      </trkpt>
      <trkpt lat="41.05196" lon="-0.14107">
        <time>2022-07-31T15:50:38Z</time>
      </trkpt>
      <trkpt lat="41.05197" lon="-0.14094">
        <time>2022-07-31T15:50:38Z</time>
      </trkpt>
      <trkpt lat="41.05198" lon="-0.14083">
        <time>2022-07-31T15:50:39Z</time>
      </trkpt>
      <trkpt lat="41.05199" lon="-0.14071">
        <time>2022-07-31T15:50:40Z</time>
      </trkpt>
      <trkpt lat="41.05199" lon="-0.1406">
        <time>2022-07-31T15:50:41Z</time>
      </trkpt>
      <trkpt lat="41.052" lon="-0.14048">
        <time>2022-07-31T15:50:42Z</time>
      </trkpt>
      <trkpt lat="41.05201" lon="-0.14036">
        <time>2022-07-31T15:50:43Z</time>
      </trkpt>
      <trkpt lat="41.05201" lon="-0.14026">
        <time>2022-07-31T15:50:44Z</time>
      </trkpt>
      <trkpt lat="41.05202" lon="-0.14015">
        <time>2022-07-31T15:50:45Z</time>
      </trkpt>
      <trkpt lat="41.05203" lon="-0.14005">
        <time>2022-07-31T15:50:46Z</time>
      </trkpt>
      <trkpt lat="41.05203" lon="-0.13995">
        <time>2022-07-31T15:50:47Z</time>
      </trkpt>
      <trkpt lat="41.05204" lon="-0.13985">
        <time>2022-07-31T15:50:48Z</time>
      </trkpt>
      <trkpt lat="41.05204" lon="-0.13976">
        <time>2022-07-31T15:50:49Z</time>
      </trkpt>
      <trkpt lat="41.05205" lon="-0.13966">
        <time>2022-07-31T15:50:50Z</time>
      </trkpt>
      <trkpt lat="41.05205" lon="-0.13958">
        <time>2022-07-31T15:50:51Z</time>
      </trkpt>
      <trkpt lat="41.05206" lon="-0.13949">
        <time>2022-07-31T15:50:52Z</time>
      </trkpt>
      <trkpt lat="41.05206" lon="-0.13941">
        <time>2022-07-31T15:50:53Z</time>
      </trkpt>
      <trkpt lat="41.05207" lon="-0.13932">
        <time>2022-07-31T15:50:54Z</time>
      </trkpt>
      <trkpt lat="41.05207" lon="-0.13923">
        <time>2022-07-31T15:50:56Z</time>
      </trkpt>
      <trkpt lat="41.05207" lon="-0.13913">
        <time>2022-07-31T15:50:56Z</time>
      </trkpt>
      <trkpt lat="41.05207" lon="-0.13904">
        <time>2022-07-31T15:50:57Z</time>
      </trkpt>
      <trkpt lat="41.05208" lon="-0.13895">
        <time>2022-07-31T15:50:58Z</time>
      </trkpt>
      <trkpt lat="41.05208" lon="-0.13886">
        <time>2022-07-31T15:50:59Z</time>
      </trkpt>
      <trkpt lat="41.05209" lon="-0.13877">
        <time>2022-07-31T15:51:00Z</time>
      </trkpt>
      <trkpt lat="41.0521" lon="-0.13868">
        <time>2022-07-31T15:51:01Z</time>
      </trkpt>
      <trkpt lat="41.05211" lon="-0.13859">
        <time>2022-07-31T15:51:02Z</time>
      </trkpt>
      <trkpt lat="41.05212" lon="-0.1385">
        <time>2022-07-31T15:51:03Z</time>
      </trkpt>
      <trkpt lat="41.05213" lon="-0.13842">
        <time>2022-07-31T15:51:04Z</time>
      </trkpt>
      <trkpt lat="41.05213" lon="-0.13834">
        <time>2022-07-31T15:51:05Z</time>
      </trkpt>
      <trkpt lat="41.05214" lon="-0.13825">
        <time>2022-07-31T15:51:06Z</time>
      </trkpt>
      <trkpt lat="41.05214" lon="-0.13816">
        <time>2022-07-31T15:51:07Z</time>
      </trkpt>
      <trkpt lat="41.05214" lon="-0.13808">
        <time>2022-07-31T15:51:08Z</time>
      </trkpt>
      <trkpt lat="41.05214" lon="-0.138">
        <time>2022-07-31T15:51:09Z</time>
      </trkpt>
      <trkpt lat="41.05213" lon="-0.13792">
        <time>2022-07-31T15:51:10Z</time>
      </trkpt>
      <trkpt lat="41.05211" lon="-0.13785">
        <time>2022-07-31T15:51:11Z</time>
      </trkpt>
      <trkpt lat="41.05209" lon="-0.13778">
        <time>2022-07-31T15:51:12Z</time>
      </trkpt>
      <trkpt lat="41.05206" lon="-0.13772">
        <time>2022-07-31T15:51:13Z</time>
      </trkpt>
      <trkpt lat="41.05204" lon="-0.13766">
        <time>2022-07-31T15:51:14Z</time>
      </trkpt>
      <trkpt lat="41.05203" lon="-0.13757">
        <time>2022-07-31T15:51:15Z</time>
      </trkpt>
      <trkpt lat="41.05202" lon="-0.13743">
        <time>2022-07-31T15:51:16Z</time>
      </trkpt>
      <trkpt lat="41.05201" lon="-0.13729">
        <time>2022-07-31T15:51:17Z</time>
      </trkpt>
      <trkpt lat="41.05199" lon="-0.13714">
        <time>2022-07-31T15:51:18Z</time>
      </trkpt>
      <trkpt lat="41.05197" lon="-0.13697">
        <time>2022-07-31T15:51:19Z</time>
      </trkpt>
      <trkpt lat="41.05194" lon="-0.13682">
        <time>2022-07-31T15:51:21Z</time>
      </trkpt>
      <trkpt lat="41.05191" lon="-0.13667">
        <time>2022-07-31T15:51:21Z</time>
      </trkpt>
      <trkpt lat="41.05189" lon="-0.13653">
        <time>2022-07-31T15:51:22Z</time>
      </trkpt>
      <trkpt lat="41.05188" lon="-0.1364">
        <time>2022-07-31T15:51:23Z</time>
      </trkpt>
      <trkpt lat="41.05186" lon="-0.13627">
        <time>2022-07-31T15:51:24Z</time>
      </trkpt>
      <trkpt lat="41.05185" lon="-0.13615">
        <time>2022-07-31T15:51:25Z</time>
      </trkpt>
      <trkpt lat="41.05183" lon="-0.13603">
        <time>2022-07-31T15:51:26Z</time>
      </trkpt>
      <trkpt lat="41.05181" lon="-0.13592">
        <time>2022-07-31T15:51:27Z</time>
      </trkpt>
      <trkpt lat="41.05179" lon="-0.13583">
        <time>2022-07-31T15:51:28Z</time>
      </trkpt>
      <trkpt lat="41.05177" lon="-0.13576">
        <time>2022-07-31T15:51:29Z</time>
      </trkpt>
      <trkpt lat="41.05179" lon="-0.13569">
        <time>2022-07-31T15:51:30Z</time>
      </trkpt>
      <trkpt lat="41.05183" lon="-0.13565">
        <time>2022-07-31T15:51:31Z</time>
      </trkpt>
      <trkpt lat="41.0519" lon="-0.13562">
        <time>2022-07-31T15:51:32Z</time>
      </trkpt>
      <trkpt lat="41.052" lon="-0.1356">
        <time>2022-07-31T15:51:33Z</time>
      </trkpt>
      <trkpt lat="41.05211" lon="-0.13558">
        <time>2022-07-31T15:51:34Z</time>
      </trkpt>
      <trkpt lat="41.05223" lon="-0.13556">
        <time>2022-07-31T15:51:35Z</time>
      </trkpt>
      <trkpt lat="41.05235" lon="-0.13554">
        <time>2022-07-31T15:51:36Z</time>
      </trkpt>
      <trkpt lat="41.05247" lon="-0.13552">
        <time>2022-07-31T15:51:38Z</time>
      </trkpt>
      <trkpt lat="41.05259" lon="-0.13551">
        <time>2022-07-31T15:51:38Z</time>
      </trkpt>
      <trkpt lat="41.0527" lon="-0.13548">
        <time>2022-07-31T15:51:40Z</time>
      </trkpt>
      <trkpt lat="41.05281" lon="-0.13545">
        <time>2022-07-31T15:51:40Z</time>
      </trkpt>
      <trkpt lat="41.05291" lon="-0.13541">
        <time>2022-07-31T15:51:42Z</time>
      </trkpt>
      <trkpt lat="41.053" lon="-0.13537">
        <time>2022-07-31T15:51:42Z</time>
      </trkpt>
      <trkpt lat="41.05309" lon="-0.13532">
        <time>2022-07-31T15:51:44Z</time>
      </trkpt>
      <trkpt lat="41.05318" lon="-0.13525">
        <time>2022-07-31T15:51:44Z</time>
      </trkpt>
      <trkpt lat="41.05326" lon="-0.13517">
        <time>2022-07-31T15:51:45Z</time>
      </trkpt>
      <trkpt lat="41.05335" lon="-0.13508">
        <time>2022-07-31T15:51:47Z</time>
      </trkpt>
      <trkpt lat="41.05342" lon="-0.13501">
        <time>2022-07-31T15:51:48Z</time>
      </trkpt>
      <trkpt lat="41.05348" lon="-0.13494">
        <time>2022-07-31T15:51:48Z</time>
      </trkpt>
      <trkpt lat="41.05351" lon="-0.13487">
        <time>2022-07-31T15:51:50Z</time>
      </trkpt>
      <trkpt lat="41.05352" lon="-0.13479">
        <time>2022-07-31T15:51:50Z</time>
      </trkpt>
      <trkpt lat="41.05351" lon="-0.13471">
        <time>2022-07-31T15:51:52Z</time>
      </trkpt>
      <trkpt lat="41.05346" lon="-0.13462">
        <time>2022-07-31T15:51:52Z</time>
      </trkpt>
      <trkpt lat="41.05341" lon="-0.13453">
        <time>2022-07-31T15:51:53Z</time>
      </trkpt>
      <trkpt lat="41.05334" lon="-0.13441">
        <time>2022-07-31T15:51:55Z</time>
      </trkpt>
      <trkpt lat="41.05327" lon="-0.13429">
        <time>2022-07-31T15:51:55Z</time>
      </trkpt>
      <trkpt lat="41.05321" lon="-0.13416">
        <time>2022-07-31T15:51:56Z</time>
      </trkpt>
      <trkpt lat="41.05315" lon="-0.13404">
        <time>2022-07-31T15:51:57Z</time>
      </trkpt>
      <trkpt lat="41.05302" lon="-0.13391">
        <time>2022-07-31T15:51:59Z</time>
      </trkpt>
      <trkpt lat="41.05291" lon="-0.13378">
        <time>2022-07-31T15:52:00Z</time>
      </trkpt>
      <trkpt lat="41.0528" lon="-0.13369">
        <time>2022-07-31T15:52:01Z</time>
      </trkpt>
      <trkpt lat="41.05269" lon="-0.1336">
        <time>2022-07-31T15:52:01Z</time>
      </trkpt>
      <trkpt lat="41.05259" lon="-0.13353">
        <time>2022-07-31T15:52:03Z</time>
      </trkpt>
      <trkpt lat="41.05249" lon="-0.13345">
        <time>2022-07-31T15:52:03Z</time>
      </trkpt>
      <trkpt lat="41.05242" lon="-0.1334">
        <time>2022-07-31T15:52:05Z</time>
      </trkpt>
      <trkpt lat="41.05235" lon="-0.13333">
        <time>2022-07-31T15:52:05Z</time>
      </trkpt>
      <trkpt lat="41.0523" lon="-0.13324">
        <time>2022-07-31T15:52:07Z</time>
      </trkpt>
      <trkpt lat="41.05226" lon="-0.13313">
        <time>2022-07-31T15:52:08Z</time>
      </trkpt>
      <trkpt lat="41.05224" lon="-0.133">
        <time>2022-07-31T15:52:09Z</time>
      </trkpt>
      <trkpt lat="41.05223" lon="-0.13287">
        <time>2022-07-31T15:52:09Z</time>
      </trkpt>
      <trkpt lat="41.05223" lon="-0.13274">
        <time>2022-07-31T15:52:10Z</time>
      </trkpt>
      <trkpt lat="41.05223" lon="-0.13263">
        <time>2022-07-31T15:52:11Z</time>
      </trkpt>
      <trkpt lat="41.05222" lon="-0.13252">
        <time>2022-07-31T15:52:12Z</time>
      </trkpt>
      <trkpt lat="41.05221" lon="-0.13242">
        <time>2022-07-31T15:52:13Z</time>
      </trkpt>
      <trkpt lat="41.05216" lon="-0.13233">
        <time>2022-07-31T15:52:14Z</time>
      </trkpt>
      <trkpt lat="41.0521" lon="-0.13223">
        <time>2022-07-31T15:52:16Z</time>
      </trkpt>
      <trkpt lat="41.05202" lon="-0.13213">
        <time>2022-07-31T15:52:16Z</time>
      </trkpt>
      <trkpt lat="41.05195" lon="-0.13204">
        <time>2022-07-31T15:52:18Z</time>
      </trkpt>
      <trkpt lat="41.05188" lon="-0.13195">
        <time>2022-07-31T15:52:18Z</time>
      </trkpt>
      <trkpt lat="41.05184" lon="-0.13188">
        <time>2022-07-31T15:52:20Z</time>
      </trkpt>
      <trkpt lat="41.05181" lon="-0.13182">
        <time>2022-07-31T15:52:21Z</time>
      </trkpt>
      <trkpt lat="41.05177" lon="-0.13175">
        <time>2022-07-31T15:52:21Z</time>
      </trkpt>
      <trkpt lat="41.05173" lon="-0.13169">
        <time>2022-07-31T15:52:23Z</time>
      </trkpt>
      <trkpt lat="41.05169" lon="-0.13163">
        <time>2022-07-31T15:52:23Z</time>
      </trkpt>
      <trkpt lat="41.05166" lon="-0.13155">
        <time>2022-07-31T15:52:24Z</time>
      </trkpt>
      <trkpt lat="41.05163" lon="-0.13148">
        <time>2022-07-31T15:52:25Z</time>
      </trkpt>
      <trkpt lat="41.05163" lon="-0.1314">
        <time>2022-07-31T15:52:26Z</time>
      </trkpt>
      <trkpt lat="41.05165" lon="-0.13133">
        <time>2022-07-31T15:52:27Z</time>
      </trkpt>
      <trkpt lat="41.05166" lon="-0.13126">
        <time>2022-07-31T15:52:28Z</time>
      </trkpt>
      <trkpt lat="41.05168" lon="-0.13118">
        <time>2022-07-31T15:52:29Z</time>
      </trkpt>
      <trkpt lat="41.05169" lon="-0.1311">
        <time>2022-07-31T15:52:30Z</time>
      </trkpt>
      <trkpt lat="41.05169" lon="-0.13101">
        <time>2022-07-31T15:52:31Z</time>
      </trkpt>
      <trkpt lat="41.05169" lon="-0.13092">
        <time>2022-07-31T15:52:33Z</time>
      </trkpt>
      <trkpt lat="41.05168" lon="-0.13083">
        <time>2022-07-31T15:52:33Z</time>
      </trkpt>
      <trkpt lat="41.05168" lon="-0.13074">
        <time>2022-07-31T15:52:34Z</time>
      </trkpt>
      <trkpt lat="41.05166" lon="-0.13067">
        <time>2022-07-31T15:52:35Z</time>
      </trkpt>
      <trkpt lat="41.05163" lon="-0.13059">
        <time>2022-07-31T15:52:36Z</time>
      </trkpt>
      <trkpt lat="41.05159" lon="-0.13052">
        <time>2022-07-31T15:52:37Z</time>
      </trkpt>
      <trkpt lat="41.05152" lon="-0.13047">
        <time>2022-07-31T15:52:38Z</time>
      </trkpt>
      <trkpt lat="41.05143" lon="-0.13043">
        <time>2022-07-31T15:52:39Z</time>
      </trkpt>
      <trkpt lat="41.05134" lon="-0.13041">
        <time>2022-07-31T15:52:40Z</time>
      </trkpt>
      <trkpt lat="41.05124" lon="-0.13039">
        <time>2022-07-31T15:52:42Z</time>
      </trkpt>
      <trkpt lat="41.05113" lon="-0.13037">
        <time>2022-07-31T15:52:42Z</time>
      </trkpt>
      <trkpt lat="41.05102" lon="-0.13034">
        <time>2022-07-31T15:52:44Z</time>
      </trkpt>
      <trkpt lat="41.05091" lon="-0.13032">
        <time>2022-07-31T15:52:45Z</time>
      </trkpt>
      <trkpt lat="41.05079" lon="-0.1303">
        <time>2022-07-31T15:52:45Z</time>
      </trkpt>
      <trkpt lat="41.05067" lon="-0.13027">
        <time>2022-07-31T15:52:46Z</time>
      </trkpt>
      <trkpt lat="41.05054" lon="-0.13024">
        <time>2022-07-31T15:52:47Z</time>
      </trkpt>
      <trkpt lat="41.05042" lon="-0.13021">
        <time>2022-07-31T15:52:48Z</time>
      </trkpt>
      <trkpt lat="41.0503" lon="-0.13019">
        <time>2022-07-31T15:52:49Z</time>
      </trkpt>
      <trkpt lat="41.05018" lon="-0.13018">
        <time>2022-07-31T15:52:50Z</time>
      </trkpt>
      <trkpt lat="41.05004" lon="-0.13014">
        <time>2022-07-31T15:52:51Z</time>
      </trkpt>
      <trkpt lat="41.04994" lon="-0.13012">
        <time>2022-07-31T15:52:53Z</time>
      </trkpt>
      <trkpt lat="41.04982" lon="-0.13011">
        <time>2022-07-31T15:52:53Z</time>
      </trkpt>
      <trkpt lat="41.0497" lon="-0.13011">
        <time>2022-07-31T15:52:54Z</time>
      </trkpt>
      <trkpt lat="41.0496" lon="-0.13008">
        <time>2022-07-31T15:52:55Z</time>
      </trkpt>
      <trkpt lat="41.0495" lon="-0.13004">
        <time>2022-07-31T15:52:56Z</time>
      </trkpt>
      <trkpt lat="41.04941" lon="-0.13006">
        <time>2022-07-31T15:52:57Z</time>
      </trkpt>
      <trkpt lat="41.04933" lon="-0.13">
        <time>2022-07-31T15:52:58Z</time>
      </trkpt>
      <trkpt lat="41.04926" lon="-0.12998">
        <time>2022-07-31T15:53:00Z</time>
      </trkpt>
      <trkpt lat="41.04921" lon="-0.12995">
        <time>2022-07-31T15:53:00Z</time>
      </trkpt>
      <trkpt lat="41.04919" lon="-0.12992">
        <time>2022-07-31T15:53:01Z</time>
      </trkpt>
      <trkpt lat="41.04916" lon="-0.12984">
        <time>2022-07-31T15:53:02Z</time>
      </trkpt>
      <trkpt lat="41.04916" lon="-0.12973">
        <time>2022-07-31T15:53:03Z</time>
      </trkpt>
      <trkpt lat="41.04915" lon="-0.12962">
        <time>2022-07-31T15:53:04Z</time>
      </trkpt>
      <trkpt lat="41.04914" lon="-0.12951">
        <time>2022-07-31T15:53:05Z</time>
      </trkpt>
      <trkpt lat="41.04914" lon="-0.12939">
        <time>2022-07-31T15:53:06Z</time>
      </trkpt>
      <trkpt lat="41.04915" lon="-0.12926">
        <time>2022-07-31T15:53:07Z</time>
      </trkpt>
      <trkpt lat="41.04916" lon="-0.12915">
        <time>2022-07-31T15:53:08Z</time>
      </trkpt>
      <trkpt lat="41.04917" lon="-0.12903">
        <time>2022-07-31T15:53:09Z</time>
      </trkpt>
      <trkpt lat="41.04917" lon="-0.12892">
        <time>2022-07-31T15:53:10Z</time>
      </trkpt>
      <trkpt lat="41.04917" lon="-0.12881">
        <time>2022-07-31T15:53:12Z</time>
      </trkpt>
      <trkpt lat="41.04917" lon="-0.12872">
        <time>2022-07-31T15:53:12Z</time>
      </trkpt>
      <trkpt lat="41.04916" lon="-0.12861">
        <time>2022-07-31T15:53:13Z</time>
      </trkpt>
      <trkpt lat="41.04916" lon="-0.1285">
        <time>2022-07-31T15:53:14Z</time>
      </trkpt>
      <trkpt lat="41.04915" lon="-0.1284">
        <time>2022-07-31T15:53:16Z</time>
      </trkpt>
      <trkpt lat="41.04916" lon="-0.1283">
        <time>2022-07-31T15:53:17Z</time>
      </trkpt>
      <trkpt lat="41.04916" lon="-0.12821">
        <time>2022-07-31T15:53:17Z</time>
      </trkpt>
      <trkpt lat="41.04916" lon="-0.12812">
        <time>2022-07-31T15:53:18Z</time>
      </trkpt>
      <trkpt lat="41.04916" lon="-0.12804">
        <time>2022-07-31T15:53:19Z</time>
      </trkpt>
      <trkpt lat="41.04916" lon="-0.12797">
        <time>2022-07-31T15:53:20Z</time>
      </trkpt>
      <trkpt lat="41.04915" lon="-0.1279">
        <time>2022-07-31T15:53:21Z</time>
      </trkpt>
      <trkpt lat="41.04916" lon="-0.12782">
        <time>2022-07-31T15:53:22Z</time>
      </trkpt>
      <trkpt lat="41.04916" lon="-0.12773">
        <time>2022-07-31T15:53:23Z</time>
      </trkpt>
      <trkpt lat="41.04917" lon="-0.12762">
        <time>2022-07-31T15:53:24Z</time>
      </trkpt>
      <trkpt lat="41.04916" lon="-0.12751">
        <time>2022-07-31T15:53:25Z</time>
      </trkpt>
      <trkpt lat="41.04916" lon="-0.1274">
        <time>2022-07-31T15:53:26Z</time>
      </trkpt>
      <trkpt lat="41.04916" lon="-0.12728">
        <time>2022-07-31T15:53:27Z</time>
      </trkpt>
      <trkpt lat="41.04915" lon="-0.12718">
        <time>2022-07-31T15:53:28Z</time>
      </trkpt>
      <trkpt lat="41.04916" lon="-0.12707">
        <time>2022-07-31T15:53:29Z</time>
      </trkpt>
      <trkpt lat="41.04915" lon="-0.12698">
        <time>2022-07-31T15:53:31Z</time>
      </trkpt>
      <trkpt lat="41.04914" lon="-0.1269">
        <time>2022-07-31T15:53:31Z</time>
      </trkpt>
      <trkpt lat="41.04914" lon="-0.12684">
        <time>2022-07-31T15:53:32Z</time>
      </trkpt>
      <trkpt lat="41.04912" lon="-0.12678">
        <time>2022-07-31T15:53:33Z</time>
      </trkpt>
      <trkpt lat="41.0491" lon="-0.12678">
        <time>2022-07-31T15:53:35Z</time>
      </trkpt>
      <trkpt lat="41.04908" lon="-0.12678">
        <time>2022-07-31T15:53:36Z</time>
      </trkpt>
      <trkpt lat="41.04907" lon="-0.12679">
        <time>2022-07-31T15:53:37Z</time>
      </trkpt>
      <trkpt lat="41.04904" lon="-0.12679">
        <time>2022-07-31T15:53:37Z</time>
      </trkpt>
      <trkpt lat="41.04902" lon="-0.12678">
        <time>2022-07-31T15:53:39Z</time>
      </trkpt>
      <trkpt lat="41.04901" lon="-0.12675">
        <time>2022-07-31T15:53:47Z</time>
      </trkpt>
      <trkpt lat="41.04899" lon="-0.12676">
        <time>2022-07-31T15:53:47Z</time>
      </trkpt>
      <trkpt lat="41.04896" lon="-0.12676">
        <time>2022-07-31T15:53:49Z</time>
      </trkpt>
      <trkpt lat="41.04893" lon="-0.12676">
        <time>2022-07-31T15:53:49Z</time>
      </trkpt>
      <trkpt lat="41.0489" lon="-0.12676">
        <time>2022-07-31T15:53:51Z</time>
      </trkpt>
      <trkpt lat="41.04887" lon="-0.12677">
        <time>2022-07-31T15:53:51Z</time>
      </trkpt>
      <trkpt lat="41.04885" lon="-0.12677">
        <time>2022-07-31T15:53:53Z</time>
      </trkpt>
      <trkpt lat="41.04883" lon="-0.12677">
        <time>2022-07-31T15:53:54Z</time>
      </trkpt>
      <trkpt lat="41.04881" lon="-0.12677">
        <time>2022-07-31T15:53:54Z</time>
      </trkpt>
      <trkpt lat="41.0488" lon="-0.12677">
        <time>2022-07-31T15:53:55Z</time>
      </trkpt>
      <trkpt lat="41.04878" lon="-0.12676">
        <time>2022-07-31T15:53:56Z</time>
      </trkpt>
      <trkpt lat="41.04877" lon="-0.12676">
        <time>2022-07-31T15:53:58Z</time>
      </trkpt>
      <trkpt lat="41.04876" lon="-0.12677">
        <time>2022-07-31T15:53:58Z</time>
      </trkpt>
      <trkpt lat="41.04875" lon="-0.12677">
        <time>2022-07-31T15:54:00Z</time>
      </trkpt>
      <trkpt lat="41.04875" lon="-0.12678">
        <time>2022-07-31T15:54:00Z</time>
      </trkpt>
    </trkseg>
  </trk>
</gpx>
